<?xml version="1.0" encoding="UTF-8" standalone="no" ?>
<gpx xmlns="http://www.topografix.com/GPX/1/1" xmlns:xsi="http://www.w3.org/2001/XMLSchema-instance" xsi:schemaLocation="http://www.topografix.com/GPX/1/1 http://www.topografix.com/GPX/1/1/gpx.xsd" version="1.1" creator="VisuGPX - https://www.visugpx.com">
  <metadata>
    <name>La Tour Cauvin</name>
  </metadata>
  <trk>
    <name><![CDATA[La Tour Cauvin_1]]></name>
    <trkseg>
      <trkpt lat="43.35054" lon="5.66041">
        <ele>231</ele>
        <time>2019-01-18T07:52:10.000Z</time>
      </trkpt>
      <trkpt lat="43.35055" lon="5.66043">
        <ele>229</ele>
        <time>2019-01-18T07:52:11.000Z</time>
      </trkpt>
      <trkpt lat="43.35055" lon="5.66044">
        <ele>228</ele>
        <time>2019-01-18T07:52:12.000Z</time>
      </trkpt>
      <trkpt lat="43.35054" lon="5.66043">
        <ele>229</ele>
        <time>2019-01-18T07:52:13.000Z</time>
      </trkpt>
      <trkpt lat="43.35054" lon="5.66043">
        <ele>229</ele>
        <time>2019-01-18T07:52:14.000Z</time>
      </trkpt>
      <trkpt lat="43.35053" lon="5.66043">
        <ele>230</ele>
        <time>2019-01-18T07:52:15.000Z</time>
      </trkpt>
      <trkpt lat="43.35053" lon="5.66042">
        <ele>231</ele>
        <time>2019-01-18T07:52:16.000Z</time>
      </trkpt>
      <trkpt lat="43.35053" lon="5.66041">
        <ele>231</ele>
        <time>2019-01-18T07:52:17.000Z</time>
      </trkpt>
      <trkpt lat="43.35053" lon="5.66041">
        <ele>231</ele>
        <time>2019-01-18T07:52:18.000Z</time>
      </trkpt>
      <trkpt lat="43.35052" lon="5.66042">
        <ele>231</ele>
        <time>2019-01-18T07:52:19.000Z</time>
      </trkpt>
      <trkpt lat="43.35051" lon="5.66042">
        <ele>232</ele>
        <time>2019-01-18T07:52:20.000Z</time>
      </trkpt>
      <trkpt lat="43.35051" lon="5.66042">
        <ele>232</ele>
        <time>2019-01-18T07:52:21.000Z</time>
      </trkpt>
      <trkpt lat="43.35051" lon="5.66042">
        <ele>231</ele>
        <time>2019-01-18T07:52:22.000Z</time>
      </trkpt>
      <trkpt lat="43.35052" lon="5.66043">
        <ele>231</ele>
        <time>2019-01-18T07:52:23.000Z</time>
      </trkpt>
      <trkpt lat="43.35052" lon="5.66044">
        <ele>230</ele>
        <time>2019-01-18T07:52:24.000Z</time>
      </trkpt>
      <trkpt lat="43.35052" lon="5.66046">
        <ele>228</ele>
        <time>2019-01-18T07:52:25.000Z</time>
      </trkpt>
      <trkpt lat="43.35051" lon="5.66046">
        <ele>228</ele>
        <time>2019-01-18T07:52:26.000Z</time>
      </trkpt>
      <trkpt lat="43.35052" lon="5.66046">
        <ele>228</ele>
        <time>2019-01-18T07:52:27.000Z</time>
      </trkpt>
      <trkpt lat="43.35052" lon="5.66045">
        <ele>228</ele>
        <time>2019-01-18T07:52:28.000Z</time>
      </trkpt>
      <trkpt lat="43.35052" lon="5.66044">
        <ele>228</ele>
        <time>2019-01-18T07:52:29.000Z</time>
      </trkpt>
      <trkpt lat="43.35052" lon="5.66044">
        <ele>227</ele>
        <time>2019-01-18T07:52:30.000Z</time>
      </trkpt>
      <trkpt lat="43.35052" lon="5.66044">
        <ele>226</ele>
        <time>2019-01-18T07:52:31.000Z</time>
      </trkpt>
      <trkpt lat="43.35053" lon="5.66044">
        <ele>226</ele>
        <time>2019-01-18T07:52:32.000Z</time>
      </trkpt>
      <trkpt lat="43.35053" lon="5.66043">
        <ele>227</ele>
        <time>2019-01-18T07:52:33.000Z</time>
      </trkpt>
      <trkpt lat="43.35054" lon="5.66042">
        <ele>228</ele>
        <time>2019-01-18T07:52:34.000Z</time>
      </trkpt>
      <trkpt lat="43.35054" lon="5.66043">
        <ele>228</ele>
        <time>2019-01-18T07:52:35.000Z</time>
      </trkpt>
      <trkpt lat="43.35055" lon="5.66043">
        <ele>228</ele>
        <time>2019-01-18T07:52:36.000Z</time>
      </trkpt>
      <trkpt lat="43.35055" lon="5.66044">
        <ele>228</ele>
        <time>2019-01-18T07:52:37.000Z</time>
      </trkpt>
      <trkpt lat="43.35055" lon="5.66044">
        <ele>227</ele>
        <time>2019-01-18T07:52:38.000Z</time>
      </trkpt>
      <trkpt lat="43.35054" lon="5.66044">
        <ele>227</ele>
        <time>2019-01-18T07:52:39.000Z</time>
      </trkpt>
      <trkpt lat="43.35054" lon="5.66043">
        <ele>229</ele>
        <time>2019-01-18T07:52:40.000Z</time>
      </trkpt>
      <trkpt lat="43.35053" lon="5.66039">
        <ele>232</ele>
        <time>2019-01-18T07:52:41.000Z</time>
      </trkpt>
      <trkpt lat="43.35053" lon="5.66039">
        <ele>232</ele>
        <time>2019-01-18T07:52:42.000Z</time>
      </trkpt>
      <trkpt lat="43.35053" lon="5.66039">
        <ele>232</ele>
        <time>2019-01-18T07:52:43.000Z</time>
      </trkpt>
      <trkpt lat="43.35053" lon="5.66039">
        <ele>233</ele>
        <time>2019-01-18T07:52:44.000Z</time>
      </trkpt>
      <trkpt lat="43.35053" lon="5.66038">
        <ele>233</ele>
        <time>2019-01-18T07:52:45.000Z</time>
      </trkpt>
      <trkpt lat="43.35053" lon="5.66039">
        <ele>233</ele>
        <time>2019-01-18T07:52:46.000Z</time>
      </trkpt>
      <trkpt lat="43.35053" lon="5.66038">
        <ele>234</ele>
        <time>2019-01-18T07:52:47.000Z</time>
      </trkpt>
      <trkpt lat="43.35054" lon="5.66037">
        <ele>235</ele>
        <time>2019-01-18T07:52:48.000Z</time>
      </trkpt>
      <trkpt lat="43.35054" lon="5.66037">
        <ele>235</ele>
        <time>2019-01-18T07:52:49.000Z</time>
      </trkpt>
      <trkpt lat="43.35054" lon="5.66037">
        <ele>236</ele>
        <time>2019-01-18T07:52:50.000Z</time>
      </trkpt>
      <trkpt lat="43.35054" lon="5.66037">
        <ele>237</ele>
        <time>2019-01-18T07:52:51.000Z</time>
      </trkpt>
      <trkpt lat="43.35054" lon="5.66037">
        <ele>237</ele>
        <time>2019-01-18T07:52:52.000Z</time>
      </trkpt>
      <trkpt lat="43.35054" lon="5.66036">
        <ele>238</ele>
        <time>2019-01-18T07:52:53.000Z</time>
      </trkpt>
      <trkpt lat="43.35054" lon="5.66036">
        <ele>239</ele>
        <time>2019-01-18T07:52:54.000Z</time>
      </trkpt>
      <trkpt lat="43.35053" lon="5.66036">
        <ele>239</ele>
        <time>2019-01-18T07:52:55.000Z</time>
      </trkpt>
      <trkpt lat="43.35052" lon="5.66035">
        <ele>240</ele>
        <time>2019-01-18T07:52:56.000Z</time>
      </trkpt>
      <trkpt lat="43.35052" lon="5.66034">
        <ele>241</ele>
        <time>2019-01-18T07:52:57.000Z</time>
      </trkpt>
      <trkpt lat="43.35052" lon="5.66032">
        <ele>241</ele>
        <time>2019-01-18T07:52:58.000Z</time>
      </trkpt>
      <trkpt lat="43.35051" lon="5.6603">
        <ele>242</ele>
        <time>2019-01-18T07:52:59.000Z</time>
      </trkpt>
      <trkpt lat="43.35051" lon="5.6603">
        <ele>242</ele>
        <time>2019-01-18T07:53:00.000Z</time>
      </trkpt>
      <trkpt lat="43.35052" lon="5.66029">
        <ele>242</ele>
        <time>2019-01-18T07:53:01.000Z</time>
      </trkpt>
      <trkpt lat="43.35051" lon="5.66029">
        <ele>243</ele>
        <time>2019-01-18T07:53:02.000Z</time>
      </trkpt>
      <trkpt lat="43.35051" lon="5.66029">
        <ele>243</ele>
        <time>2019-01-18T07:53:03.000Z</time>
      </trkpt>
      <trkpt lat="43.35051" lon="5.66029">
        <ele>243</ele>
        <time>2019-01-18T07:53:04.000Z</time>
      </trkpt>
      <trkpt lat="43.35051" lon="5.66029">
        <ele>244</ele>
        <time>2019-01-18T07:53:05.000Z</time>
      </trkpt>
      <trkpt lat="43.35051" lon="5.66028">
        <ele>244</ele>
        <time>2019-01-18T07:53:06.000Z</time>
      </trkpt>
      <trkpt lat="43.35051" lon="5.66028">
        <ele>244</ele>
        <time>2019-01-18T07:53:07.000Z</time>
      </trkpt>
      <trkpt lat="43.35051" lon="5.66028">
        <ele>245</ele>
        <time>2019-01-18T07:53:08.000Z</time>
      </trkpt>
      <trkpt lat="43.3505" lon="5.66028">
        <ele>245</ele>
        <time>2019-01-18T07:53:09.000Z</time>
      </trkpt>
      <trkpt lat="43.3505" lon="5.66028">
        <ele>245</ele>
        <time>2019-01-18T07:53:10.000Z</time>
      </trkpt>
      <trkpt lat="43.3505" lon="5.66028">
        <ele>245</ele>
        <time>2019-01-18T07:53:11.000Z</time>
      </trkpt>
      <trkpt lat="43.3505" lon="5.66028">
        <ele>246</ele>
        <time>2019-01-18T07:53:12.000Z</time>
      </trkpt>
      <trkpt lat="43.3505" lon="5.66028">
        <ele>246</ele>
        <time>2019-01-18T07:53:13.000Z</time>
      </trkpt>
      <trkpt lat="43.3505" lon="5.66028">
        <ele>246</ele>
        <time>2019-01-18T07:53:14.000Z</time>
      </trkpt>
      <trkpt lat="43.35051" lon="5.66028">
        <ele>246</ele>
        <time>2019-01-18T07:53:15.000Z</time>
      </trkpt>
      <trkpt lat="43.35051" lon="5.66027">
        <ele>246</ele>
        <time>2019-01-18T07:53:16.000Z</time>
      </trkpt>
      <trkpt lat="43.35051" lon="5.66027">
        <ele>246</ele>
        <time>2019-01-18T07:53:17.000Z</time>
      </trkpt>
      <trkpt lat="43.35052" lon="5.66026">
        <ele>246</ele>
        <time>2019-01-18T07:53:18.000Z</time>
      </trkpt>
      <trkpt lat="43.35052" lon="5.66026">
        <ele>246</ele>
        <time>2019-01-18T07:53:19.000Z</time>
      </trkpt>
      <trkpt lat="43.35052" lon="5.66026">
        <ele>246</ele>
        <time>2019-01-18T07:53:20.000Z</time>
      </trkpt>
      <trkpt lat="43.35052" lon="5.66026">
        <ele>246</ele>
        <time>2019-01-18T07:53:21.000Z</time>
      </trkpt>
      <trkpt lat="43.35052" lon="5.66026">
        <ele>246</ele>
        <time>2019-01-18T07:53:22.000Z</time>
      </trkpt>
      <trkpt lat="43.35052" lon="5.66026">
        <ele>246</ele>
        <time>2019-01-18T07:53:23.000Z</time>
      </trkpt>
      <trkpt lat="43.35052" lon="5.66026">
        <ele>246</ele>
        <time>2019-01-18T07:53:24.000Z</time>
      </trkpt>
      <trkpt lat="43.35052" lon="5.66026">
        <ele>247</ele>
        <time>2019-01-18T07:53:25.000Z</time>
      </trkpt>
      <trkpt lat="43.35052" lon="5.66026">
        <ele>247</ele>
        <time>2019-01-18T07:53:26.000Z</time>
      </trkpt>
      <trkpt lat="43.35052" lon="5.66026">
        <ele>247</ele>
        <time>2019-01-18T07:53:27.000Z</time>
      </trkpt>
      <trkpt lat="43.35052" lon="5.66026">
        <ele>247</ele>
        <time>2019-01-18T07:53:28.000Z</time>
      </trkpt>
      <trkpt lat="43.35052" lon="5.66026">
        <ele>247</ele>
        <time>2019-01-18T07:53:29.000Z</time>
      </trkpt>
      <trkpt lat="43.35053" lon="5.66026">
        <ele>247</ele>
        <time>2019-01-18T07:53:30.000Z</time>
      </trkpt>
      <trkpt lat="43.35053" lon="5.66026">
        <ele>247</ele>
        <time>2019-01-18T07:53:31.000Z</time>
      </trkpt>
      <trkpt lat="43.35053" lon="5.66027">
        <ele>247</ele>
        <time>2019-01-18T07:53:32.000Z</time>
      </trkpt>
      <trkpt lat="43.35053" lon="5.66027">
        <ele>247</ele>
        <time>2019-01-18T07:53:33.000Z</time>
      </trkpt>
      <trkpt lat="43.35053" lon="5.66027">
        <ele>247</ele>
        <time>2019-01-18T07:53:34.000Z</time>
      </trkpt>
      <trkpt lat="43.35053" lon="5.66027">
        <ele>247</ele>
        <time>2019-01-18T07:53:35.000Z</time>
      </trkpt>
      <trkpt lat="43.35053" lon="5.66027">
        <ele>247</ele>
        <time>2019-01-18T07:53:36.000Z</time>
      </trkpt>
      <trkpt lat="43.35053" lon="5.66027">
        <ele>247</ele>
        <time>2019-01-18T07:53:37.000Z</time>
      </trkpt>
      <trkpt lat="43.35054" lon="5.66027">
        <ele>247</ele>
        <time>2019-01-18T07:53:38.000Z</time>
      </trkpt>
      <trkpt lat="43.35054" lon="5.66027">
        <ele>247</ele>
        <time>2019-01-18T07:53:39.000Z</time>
      </trkpt>
      <trkpt lat="43.35054" lon="5.66027">
        <ele>247</ele>
        <time>2019-01-18T07:53:40.000Z</time>
      </trkpt>
      <trkpt lat="43.35054" lon="5.66027">
        <ele>247</ele>
        <time>2019-01-18T07:53:41.000Z</time>
      </trkpt>
      <trkpt lat="43.35054" lon="5.66027">
        <ele>247</ele>
        <time>2019-01-18T07:53:42.000Z</time>
      </trkpt>
      <trkpt lat="43.35054" lon="5.66026">
        <ele>247</ele>
        <time>2019-01-18T07:53:43.000Z</time>
      </trkpt>
      <trkpt lat="43.35054" lon="5.66027">
        <ele>247</ele>
        <time>2019-01-18T07:53:44.000Z</time>
      </trkpt>
      <trkpt lat="43.35054" lon="5.66027">
        <ele>247</ele>
        <time>2019-01-18T07:53:45.000Z</time>
      </trkpt>
      <trkpt lat="43.35054" lon="5.66027">
        <ele>247</ele>
        <time>2019-01-18T07:53:46.000Z</time>
      </trkpt>
      <trkpt lat="43.35053" lon="5.66027">
        <ele>247</ele>
        <time>2019-01-18T07:53:47.000Z</time>
      </trkpt>
      <trkpt lat="43.35053" lon="5.66028">
        <ele>247</ele>
        <time>2019-01-18T07:53:48.000Z</time>
      </trkpt>
      <trkpt lat="43.35053" lon="5.66028">
        <ele>247</ele>
        <time>2019-01-18T07:53:49.000Z</time>
      </trkpt>
      <trkpt lat="43.35052" lon="5.66028">
        <ele>247</ele>
        <time>2019-01-18T07:53:50.000Z</time>
      </trkpt>
      <trkpt lat="43.35052" lon="5.66028">
        <ele>247</ele>
        <time>2019-01-18T07:53:51.000Z</time>
      </trkpt>
      <trkpt lat="43.35052" lon="5.66028">
        <ele>247</ele>
        <time>2019-01-18T07:53:52.000Z</time>
      </trkpt>
      <trkpt lat="43.35052" lon="5.66028">
        <ele>247</ele>
        <time>2019-01-18T07:53:53.000Z</time>
      </trkpt>
      <trkpt lat="43.35052" lon="5.66028">
        <ele>247</ele>
        <time>2019-01-18T07:53:54.000Z</time>
      </trkpt>
      <trkpt lat="43.35052" lon="5.66028">
        <ele>247</ele>
        <time>2019-01-18T07:53:55.000Z</time>
      </trkpt>
      <trkpt lat="43.35052" lon="5.66028">
        <ele>247</ele>
        <time>2019-01-18T07:53:56.000Z</time>
      </trkpt>
      <trkpt lat="43.35052" lon="5.66028">
        <ele>247</ele>
        <time>2019-01-18T07:53:57.000Z</time>
      </trkpt>
      <trkpt lat="43.35052" lon="5.66028">
        <ele>247</ele>
        <time>2019-01-18T07:53:58.000Z</time>
      </trkpt>
      <trkpt lat="43.35052" lon="5.66028">
        <ele>247</ele>
        <time>2019-01-18T07:53:59.000Z</time>
      </trkpt>
      <trkpt lat="43.35052" lon="5.66028">
        <ele>247</ele>
        <time>2019-01-18T07:54:00.000Z</time>
      </trkpt>
      <trkpt lat="43.35052" lon="5.66028">
        <ele>246</ele>
        <time>2019-01-18T07:54:01.000Z</time>
      </trkpt>
      <trkpt lat="43.35052" lon="5.66028">
        <ele>246</ele>
        <time>2019-01-18T07:54:02.000Z</time>
      </trkpt>
      <trkpt lat="43.35052" lon="5.66028">
        <ele>246</ele>
        <time>2019-01-18T07:54:03.000Z</time>
      </trkpt>
      <trkpt lat="43.35052" lon="5.66028">
        <ele>246</ele>
        <time>2019-01-18T07:54:04.000Z</time>
      </trkpt>
      <trkpt lat="43.35051" lon="5.66028">
        <ele>246</ele>
        <time>2019-01-18T07:54:05.000Z</time>
      </trkpt>
      <trkpt lat="43.35052" lon="5.66028">
        <ele>246</ele>
        <time>2019-01-18T07:54:06.000Z</time>
      </trkpt>
      <trkpt lat="43.35052" lon="5.66028">
        <ele>246</ele>
        <time>2019-01-18T07:54:07.000Z</time>
      </trkpt>
      <trkpt lat="43.35052" lon="5.66028">
        <ele>246</ele>
        <time>2019-01-18T07:54:08.000Z</time>
      </trkpt>
      <trkpt lat="43.35052" lon="5.66028">
        <ele>246</ele>
        <time>2019-01-18T07:54:09.000Z</time>
      </trkpt>
      <trkpt lat="43.35052" lon="5.66029">
        <ele>246</ele>
        <time>2019-01-18T07:54:10.000Z</time>
      </trkpt>
      <trkpt lat="43.35052" lon="5.66029">
        <ele>246</ele>
        <time>2019-01-18T07:54:11.000Z</time>
      </trkpt>
      <trkpt lat="43.35052" lon="5.66028">
        <ele>246</ele>
        <time>2019-01-18T07:54:12.000Z</time>
      </trkpt>
      <trkpt lat="43.35052" lon="5.66028">
        <ele>246</ele>
        <time>2019-01-18T07:54:13.000Z</time>
      </trkpt>
      <trkpt lat="43.35052" lon="5.66028">
        <ele>246</ele>
        <time>2019-01-18T07:54:14.000Z</time>
      </trkpt>
      <trkpt lat="43.35052" lon="5.66028">
        <ele>246</ele>
        <time>2019-01-18T07:54:15.000Z</time>
      </trkpt>
      <trkpt lat="43.35052" lon="5.66028">
        <ele>246</ele>
        <time>2019-01-18T07:54:16.000Z</time>
      </trkpt>
      <trkpt lat="43.35052" lon="5.66028">
        <ele>246</ele>
        <time>2019-01-18T07:54:17.000Z</time>
      </trkpt>
      <trkpt lat="43.35052" lon="5.66028">
        <ele>246</ele>
        <time>2019-01-18T07:54:18.000Z</time>
      </trkpt>
      <trkpt lat="43.35052" lon="5.66028">
        <ele>246</ele>
        <time>2019-01-18T07:54:19.000Z</time>
      </trkpt>
      <trkpt lat="43.35052" lon="5.66028">
        <ele>246</ele>
        <time>2019-01-18T07:54:20.000Z</time>
      </trkpt>
      <trkpt lat="43.35052" lon="5.66028">
        <ele>246</ele>
        <time>2019-01-18T07:54:21.000Z</time>
      </trkpt>
      <trkpt lat="43.35052" lon="5.66029">
        <ele>246</ele>
        <time>2019-01-18T07:54:22.000Z</time>
      </trkpt>
      <trkpt lat="43.35052" lon="5.66028">
        <ele>246</ele>
        <time>2019-01-18T07:54:23.000Z</time>
      </trkpt>
      <trkpt lat="43.35052" lon="5.66028">
        <ele>246</ele>
        <time>2019-01-18T07:54:24.000Z</time>
      </trkpt>
      <trkpt lat="43.35052" lon="5.66028">
        <ele>247</ele>
        <time>2019-01-18T07:54:25.000Z</time>
      </trkpt>
      <trkpt lat="43.35053" lon="5.66029">
        <ele>247</ele>
        <time>2019-01-18T07:54:26.000Z</time>
      </trkpt>
      <trkpt lat="43.35053" lon="5.6603">
        <ele>247</ele>
        <time>2019-01-18T07:54:27.000Z</time>
      </trkpt>
      <trkpt lat="43.35053" lon="5.6603">
        <ele>247</ele>
        <time>2019-01-18T07:54:28.000Z</time>
      </trkpt>
      <trkpt lat="43.35053" lon="5.66031">
        <ele>247</ele>
        <time>2019-01-18T07:54:29.000Z</time>
      </trkpt>
      <trkpt lat="43.35054" lon="5.66032">
        <ele>247</ele>
        <time>2019-01-18T07:54:30.000Z</time>
      </trkpt>
      <trkpt lat="43.35054" lon="5.66033">
        <ele>247</ele>
        <time>2019-01-18T07:54:31.000Z</time>
      </trkpt>
      <trkpt lat="43.35054" lon="5.66033">
        <ele>247</ele>
        <time>2019-01-18T07:54:32.000Z</time>
      </trkpt>
      <trkpt lat="43.35054" lon="5.66034">
        <ele>247</ele>
        <time>2019-01-18T07:54:33.000Z</time>
      </trkpt>
      <trkpt lat="43.35053" lon="5.66034">
        <ele>247</ele>
        <time>2019-01-18T07:54:34.000Z</time>
      </trkpt>
      <trkpt lat="43.35053" lon="5.66034">
        <ele>247</ele>
        <time>2019-01-18T07:54:35.000Z</time>
      </trkpt>
      <trkpt lat="43.35053" lon="5.66034">
        <ele>247</ele>
        <time>2019-01-18T07:54:36.000Z</time>
      </trkpt>
      <trkpt lat="43.35053" lon="5.66034">
        <ele>247</ele>
        <time>2019-01-18T07:54:37.000Z</time>
      </trkpt>
      <trkpt lat="43.35053" lon="5.66034">
        <ele>247</ele>
        <time>2019-01-18T07:54:38.000Z</time>
      </trkpt>
      <trkpt lat="43.35053" lon="5.66034">
        <ele>247</ele>
        <time>2019-01-18T07:54:39.000Z</time>
      </trkpt>
      <trkpt lat="43.35053" lon="5.66034">
        <ele>247</ele>
        <time>2019-01-18T07:54:40.000Z</time>
      </trkpt>
      <trkpt lat="43.35053" lon="5.66034">
        <ele>247</ele>
        <time>2019-01-18T07:54:41.000Z</time>
      </trkpt>
      <trkpt lat="43.35053" lon="5.66034">
        <ele>247</ele>
        <time>2019-01-18T07:54:42.000Z</time>
      </trkpt>
      <trkpt lat="43.35052" lon="5.66034">
        <ele>247</ele>
        <time>2019-01-18T07:54:43.000Z</time>
      </trkpt>
      <trkpt lat="43.35052" lon="5.66033">
        <ele>247</ele>
        <time>2019-01-18T07:54:44.000Z</time>
      </trkpt>
      <trkpt lat="43.35052" lon="5.66033">
        <ele>247</ele>
        <time>2019-01-18T07:54:45.000Z</time>
      </trkpt>
      <trkpt lat="43.35052" lon="5.66033">
        <ele>247</ele>
        <time>2019-01-18T07:54:46.000Z</time>
      </trkpt>
      <trkpt lat="43.35051" lon="5.66033">
        <ele>247</ele>
        <time>2019-01-18T07:54:47.000Z</time>
      </trkpt>
      <trkpt lat="43.35051" lon="5.66032">
        <ele>246</ele>
        <time>2019-01-18T07:54:48.000Z</time>
      </trkpt>
      <trkpt lat="43.35051" lon="5.66032">
        <ele>246</ele>
        <time>2019-01-18T07:54:49.000Z</time>
      </trkpt>
      <trkpt lat="43.35051" lon="5.66031">
        <ele>246</ele>
        <time>2019-01-18T07:54:50.000Z</time>
      </trkpt>
      <trkpt lat="43.35051" lon="5.66031">
        <ele>246</ele>
        <time>2019-01-18T07:54:51.000Z</time>
      </trkpt>
      <trkpt lat="43.35052" lon="5.6603">
        <ele>246</ele>
        <time>2019-01-18T07:54:52.000Z</time>
      </trkpt>
      <trkpt lat="43.35052" lon="5.6603">
        <ele>246</ele>
        <time>2019-01-18T07:54:53.000Z</time>
      </trkpt>
      <trkpt lat="43.35052" lon="5.66029">
        <ele>246</ele>
        <time>2019-01-18T07:54:54.000Z</time>
      </trkpt>
      <trkpt lat="43.35053" lon="5.66029">
        <ele>246</ele>
        <time>2019-01-18T07:54:55.000Z</time>
      </trkpt>
      <trkpt lat="43.35053" lon="5.66029">
        <ele>246</ele>
        <time>2019-01-18T07:54:56.000Z</time>
      </trkpt>
      <trkpt lat="43.35053" lon="5.66029">
        <ele>246</ele>
        <time>2019-01-18T07:54:57.000Z</time>
      </trkpt>
      <trkpt lat="43.35053" lon="5.66028">
        <ele>246</ele>
        <time>2019-01-18T07:54:58.000Z</time>
      </trkpt>
      <trkpt lat="43.35053" lon="5.66028">
        <ele>246</ele>
        <time>2019-01-18T07:54:59.000Z</time>
      </trkpt>
      <trkpt lat="43.35052" lon="5.66028">
        <ele>246</ele>
        <time>2019-01-18T07:55:00.000Z</time>
      </trkpt>
      <trkpt lat="43.35052" lon="5.66028">
        <ele>246</ele>
        <time>2019-01-18T07:55:01.000Z</time>
      </trkpt>
      <trkpt lat="43.35051" lon="5.66028">
        <ele>246</ele>
        <time>2019-01-18T07:55:02.000Z</time>
      </trkpt>
      <trkpt lat="43.35051" lon="5.66028">
        <ele>246</ele>
        <time>2019-01-18T07:55:03.000Z</time>
      </trkpt>
      <trkpt lat="43.35051" lon="5.66028">
        <ele>246</ele>
        <time>2019-01-18T07:55:04.000Z</time>
      </trkpt>
      <trkpt lat="43.35051" lon="5.66028">
        <ele>246</ele>
        <time>2019-01-18T07:55:05.000Z</time>
      </trkpt>
      <trkpt lat="43.35051" lon="5.66028">
        <ele>246</ele>
        <time>2019-01-18T07:55:06.000Z</time>
      </trkpt>
      <trkpt lat="43.35051" lon="5.66028">
        <ele>246</ele>
        <time>2019-01-18T07:55:07.000Z</time>
      </trkpt>
      <trkpt lat="43.35051" lon="5.66028">
        <ele>246</ele>
        <time>2019-01-18T07:55:08.000Z</time>
      </trkpt>
      <trkpt lat="43.35051" lon="5.66028">
        <ele>246</ele>
        <time>2019-01-18T07:55:09.000Z</time>
      </trkpt>
      <trkpt lat="43.35051" lon="5.66028">
        <ele>246</ele>
        <time>2019-01-18T07:55:10.000Z</time>
      </trkpt>
      <trkpt lat="43.35051" lon="5.66028">
        <ele>246</ele>
        <time>2019-01-18T07:55:11.000Z</time>
      </trkpt>
      <trkpt lat="43.35051" lon="5.66028">
        <ele>246</ele>
        <time>2019-01-18T07:55:12.000Z</time>
      </trkpt>
      <trkpt lat="43.35051" lon="5.66028">
        <ele>246</ele>
        <time>2019-01-18T07:55:13.000Z</time>
      </trkpt>
      <trkpt lat="43.35051" lon="5.66028">
        <ele>246</ele>
        <time>2019-01-18T07:55:14.000Z</time>
      </trkpt>
      <trkpt lat="43.35051" lon="5.66028">
        <ele>246</ele>
        <time>2019-01-18T07:55:15.000Z</time>
      </trkpt>
      <trkpt lat="43.35051" lon="5.66027">
        <ele>246</ele>
        <time>2019-01-18T07:55:16.000Z</time>
      </trkpt>
      <trkpt lat="43.35051" lon="5.66028">
        <ele>246</ele>
        <time>2019-01-18T07:55:17.000Z</time>
      </trkpt>
      <trkpt lat="43.35051" lon="5.66028">
        <ele>246</ele>
        <time>2019-01-18T07:55:18.000Z</time>
      </trkpt>
      <trkpt lat="43.35051" lon="5.66028">
        <ele>246</ele>
        <time>2019-01-18T07:55:19.000Z</time>
      </trkpt>
      <trkpt lat="43.35051" lon="5.66028">
        <ele>246</ele>
        <time>2019-01-18T07:55:20.000Z</time>
      </trkpt>
      <trkpt lat="43.35051" lon="5.66029">
        <ele>246</ele>
        <time>2019-01-18T07:55:21.000Z</time>
      </trkpt>
      <trkpt lat="43.35051" lon="5.6603">
        <ele>246</ele>
        <time>2019-01-18T07:55:22.000Z</time>
      </trkpt>
      <trkpt lat="43.3505" lon="5.6603">
        <ele>246</ele>
        <time>2019-01-18T07:55:23.000Z</time>
      </trkpt>
      <trkpt lat="43.3505" lon="5.66031">
        <ele>246</ele>
        <time>2019-01-18T07:55:24.000Z</time>
      </trkpt>
      <trkpt lat="43.3505" lon="5.66031">
        <ele>246</ele>
        <time>2019-01-18T07:55:25.000Z</time>
      </trkpt>
      <trkpt lat="43.3505" lon="5.66031">
        <ele>246</ele>
        <time>2019-01-18T07:55:26.000Z</time>
      </trkpt>
      <trkpt lat="43.3505" lon="5.66031">
        <ele>246</ele>
        <time>2019-01-18T07:55:27.000Z</time>
      </trkpt>
      <trkpt lat="43.3505" lon="5.66031">
        <ele>246</ele>
        <time>2019-01-18T07:55:28.000Z</time>
      </trkpt>
      <trkpt lat="43.3505" lon="5.66031">
        <ele>246</ele>
        <time>2019-01-18T07:55:29.000Z</time>
      </trkpt>
      <trkpt lat="43.3505" lon="5.66031">
        <ele>246</ele>
        <time>2019-01-18T07:55:30.000Z</time>
      </trkpt>
      <trkpt lat="43.3505" lon="5.66031">
        <ele>246</ele>
        <time>2019-01-18T07:55:31.000Z</time>
      </trkpt>
      <trkpt lat="43.3505" lon="5.66031">
        <ele>246</ele>
        <time>2019-01-18T07:55:32.000Z</time>
      </trkpt>
      <trkpt lat="43.3505" lon="5.66031">
        <ele>246</ele>
        <time>2019-01-18T07:55:33.000Z</time>
      </trkpt>
      <trkpt lat="43.3505" lon="5.6603">
        <ele>246</ele>
        <time>2019-01-18T07:55:34.000Z</time>
      </trkpt>
      <trkpt lat="43.3505" lon="5.6603">
        <ele>247</ele>
        <time>2019-01-18T07:55:35.000Z</time>
      </trkpt>
      <trkpt lat="43.3505" lon="5.6603">
        <ele>247</ele>
        <time>2019-01-18T07:55:36.000Z</time>
      </trkpt>
      <trkpt lat="43.3505" lon="5.66029">
        <ele>247</ele>
        <time>2019-01-18T07:55:37.000Z</time>
      </trkpt>
      <trkpt lat="43.35051" lon="5.66028">
        <ele>247</ele>
        <time>2019-01-18T07:55:38.000Z</time>
      </trkpt>
      <trkpt lat="43.35051" lon="5.66028">
        <ele>247</ele>
        <time>2019-01-18T07:55:39.000Z</time>
      </trkpt>
      <trkpt lat="43.35051" lon="5.66027">
        <ele>247</ele>
        <time>2019-01-18T07:55:40.000Z</time>
      </trkpt>
      <trkpt lat="43.35051" lon="5.66027">
        <ele>247</ele>
        <time>2019-01-18T07:55:41.000Z</time>
      </trkpt>
      <trkpt lat="43.35051" lon="5.66026">
        <ele>247</ele>
        <time>2019-01-18T07:55:42.000Z</time>
      </trkpt>
      <trkpt lat="43.35051" lon="5.66026">
        <ele>247</ele>
        <time>2019-01-18T07:55:43.000Z</time>
      </trkpt>
      <trkpt lat="43.35051" lon="5.66026">
        <ele>247</ele>
        <time>2019-01-18T07:55:44.000Z</time>
      </trkpt>
      <trkpt lat="43.35051" lon="5.66025">
        <ele>247</ele>
        <time>2019-01-18T07:55:45.000Z</time>
      </trkpt>
      <trkpt lat="43.35051" lon="5.66025">
        <ele>247</ele>
        <time>2019-01-18T07:55:46.000Z</time>
      </trkpt>
      <trkpt lat="43.35051" lon="5.66026">
        <ele>246</ele>
        <time>2019-01-18T07:55:47.000Z</time>
      </trkpt>
      <trkpt lat="43.35051" lon="5.66026">
        <ele>246</ele>
        <time>2019-01-18T07:55:48.000Z</time>
      </trkpt>
      <trkpt lat="43.35051" lon="5.66026">
        <ele>246</ele>
        <time>2019-01-18T07:55:49.000Z</time>
      </trkpt>
      <trkpt lat="43.35051" lon="5.66026">
        <ele>246</ele>
        <time>2019-01-18T07:55:50.000Z</time>
      </trkpt>
      <trkpt lat="43.35051" lon="5.66026">
        <ele>246</ele>
        <time>2019-01-18T07:55:51.000Z</time>
      </trkpt>
      <trkpt lat="43.35051" lon="5.66026">
        <ele>246</ele>
        <time>2019-01-18T07:55:52.000Z</time>
      </trkpt>
      <trkpt lat="43.35051" lon="5.66027">
        <ele>246</ele>
        <time>2019-01-18T07:55:53.000Z</time>
      </trkpt>
      <trkpt lat="43.35051" lon="5.66027">
        <ele>246</ele>
        <time>2019-01-18T07:55:54.000Z</time>
      </trkpt>
      <trkpt lat="43.35052" lon="5.66027">
        <ele>246</ele>
        <time>2019-01-18T07:55:55.000Z</time>
      </trkpt>
      <trkpt lat="43.35052" lon="5.66028">
        <ele>246</ele>
        <time>2019-01-18T07:55:56.000Z</time>
      </trkpt>
      <trkpt lat="43.35052" lon="5.66028">
        <ele>246</ele>
        <time>2019-01-18T07:55:57.000Z</time>
      </trkpt>
      <trkpt lat="43.35052" lon="5.66029">
        <ele>246</ele>
        <time>2019-01-18T07:55:58.000Z</time>
      </trkpt>
      <trkpt lat="43.35052" lon="5.66028">
        <ele>246</ele>
        <time>2019-01-18T07:55:59.000Z</time>
      </trkpt>
      <trkpt lat="43.35051" lon="5.66028">
        <ele>246</ele>
        <time>2019-01-18T07:56:00.000Z</time>
      </trkpt>
      <trkpt lat="43.35051" lon="5.66028">
        <ele>246</ele>
        <time>2019-01-18T07:56:01.000Z</time>
      </trkpt>
      <trkpt lat="43.35051" lon="5.66027">
        <ele>246</ele>
        <time>2019-01-18T07:56:02.000Z</time>
      </trkpt>
      <trkpt lat="43.35051" lon="5.66026">
        <ele>245</ele>
        <time>2019-01-18T07:56:03.000Z</time>
      </trkpt>
      <trkpt lat="43.35051" lon="5.66026">
        <ele>245</ele>
        <time>2019-01-18T07:56:04.000Z</time>
      </trkpt>
      <trkpt lat="43.35051" lon="5.66026">
        <ele>245</ele>
        <time>2019-01-18T07:56:05.000Z</time>
      </trkpt>
      <trkpt lat="43.35051" lon="5.66026">
        <ele>246</ele>
        <time>2019-01-18T07:56:06.000Z</time>
      </trkpt>
      <trkpt lat="43.35051" lon="5.66026">
        <ele>246</ele>
        <time>2019-01-18T07:56:07.000Z</time>
      </trkpt>
      <trkpt lat="43.35051" lon="5.66025">
        <ele>246</ele>
        <time>2019-01-18T07:56:08.000Z</time>
      </trkpt>
      <trkpt lat="43.35051" lon="5.66025">
        <ele>246</ele>
        <time>2019-01-18T07:56:09.000Z</time>
      </trkpt>
      <trkpt lat="43.35051" lon="5.66025">
        <ele>246</ele>
        <time>2019-01-18T07:56:10.000Z</time>
      </trkpt>
      <trkpt lat="43.35051" lon="5.66025">
        <ele>246</ele>
        <time>2019-01-18T07:56:11.000Z</time>
      </trkpt>
      <trkpt lat="43.35052" lon="5.66026">
        <ele>246</ele>
        <time>2019-01-18T07:56:12.000Z</time>
      </trkpt>
      <trkpt lat="43.35052" lon="5.66026">
        <ele>246</ele>
        <time>2019-01-18T07:56:13.000Z</time>
      </trkpt>
      <trkpt lat="43.35052" lon="5.66026">
        <ele>246</ele>
        <time>2019-01-18T07:56:14.000Z</time>
      </trkpt>
      <trkpt lat="43.35052" lon="5.66027">
        <ele>246</ele>
        <time>2019-01-18T07:56:15.000Z</time>
      </trkpt>
      <trkpt lat="43.35052" lon="5.66027">
        <ele>246</ele>
        <time>2019-01-18T07:56:16.000Z</time>
      </trkpt>
      <trkpt lat="43.35052" lon="5.66027">
        <ele>246</ele>
        <time>2019-01-18T07:56:17.000Z</time>
      </trkpt>
      <trkpt lat="43.35052" lon="5.66027">
        <ele>246</ele>
        <time>2019-01-18T07:56:18.000Z</time>
      </trkpt>
      <trkpt lat="43.35052" lon="5.66027">
        <ele>246</ele>
        <time>2019-01-18T07:56:19.000Z</time>
      </trkpt>
      <trkpt lat="43.35052" lon="5.66027">
        <ele>246</ele>
        <time>2019-01-18T07:56:20.000Z</time>
      </trkpt>
      <trkpt lat="43.35052" lon="5.66027">
        <ele>246</ele>
        <time>2019-01-18T07:56:21.000Z</time>
      </trkpt>
      <trkpt lat="43.35052" lon="5.66027">
        <ele>246</ele>
        <time>2019-01-18T07:56:22.000Z</time>
      </trkpt>
      <trkpt lat="43.35052" lon="5.66027">
        <ele>246</ele>
        <time>2019-01-18T07:56:23.000Z</time>
      </trkpt>
      <trkpt lat="43.35052" lon="5.66027">
        <ele>246</ele>
        <time>2019-01-18T07:56:24.000Z</time>
      </trkpt>
      <trkpt lat="43.35052" lon="5.66027">
        <ele>246</ele>
        <time>2019-01-18T07:56:25.000Z</time>
      </trkpt>
      <trkpt lat="43.35052" lon="5.66027">
        <ele>246</ele>
        <time>2019-01-18T07:56:26.000Z</time>
      </trkpt>
      <trkpt lat="43.35051" lon="5.66027">
        <ele>247</ele>
        <time>2019-01-18T07:56:27.000Z</time>
      </trkpt>
      <trkpt lat="43.35051" lon="5.66027">
        <ele>247</ele>
        <time>2019-01-18T07:56:28.000Z</time>
      </trkpt>
      <trkpt lat="43.35051" lon="5.66027">
        <ele>247</ele>
        <time>2019-01-18T07:56:29.000Z</time>
      </trkpt>
      <trkpt lat="43.3505" lon="5.66027">
        <ele>247</ele>
        <time>2019-01-18T07:56:30.000Z</time>
      </trkpt>
      <trkpt lat="43.35051" lon="5.66026">
        <ele>247</ele>
        <time>2019-01-18T07:56:31.000Z</time>
      </trkpt>
      <trkpt lat="43.35051" lon="5.66026">
        <ele>247</ele>
        <time>2019-01-18T07:56:32.000Z</time>
      </trkpt>
      <trkpt lat="43.35051" lon="5.66025">
        <ele>247</ele>
        <time>2019-01-18T07:56:33.000Z</time>
      </trkpt>
      <trkpt lat="43.35051" lon="5.66024">
        <ele>247</ele>
        <time>2019-01-18T07:56:34.000Z</time>
      </trkpt>
      <trkpt lat="43.35051" lon="5.66024">
        <ele>247</ele>
        <time>2019-01-18T07:56:35.000Z</time>
      </trkpt>
      <trkpt lat="43.35051" lon="5.66023">
        <ele>247</ele>
        <time>2019-01-18T07:56:36.000Z</time>
      </trkpt>
      <trkpt lat="43.35051" lon="5.66023">
        <ele>247</ele>
        <time>2019-01-18T07:56:37.000Z</time>
      </trkpt>
      <trkpt lat="43.35051" lon="5.66022">
        <ele>247</ele>
        <time>2019-01-18T07:56:38.000Z</time>
      </trkpt>
      <trkpt lat="43.35051" lon="5.66022">
        <ele>247</ele>
        <time>2019-01-18T07:56:39.000Z</time>
      </trkpt>
      <trkpt lat="43.35051" lon="5.66022">
        <ele>247</ele>
        <time>2019-01-18T07:56:40.000Z</time>
      </trkpt>
      <trkpt lat="43.35051" lon="5.66022">
        <ele>247</ele>
        <time>2019-01-18T07:56:41.000Z</time>
      </trkpt>
      <trkpt lat="43.35051" lon="5.66022">
        <ele>248</ele>
        <time>2019-01-18T07:56:42.000Z</time>
      </trkpt>
      <trkpt lat="43.35051" lon="5.66022">
        <ele>248</ele>
        <time>2019-01-18T07:56:43.000Z</time>
      </trkpt>
      <trkpt lat="43.35051" lon="5.66022">
        <ele>248</ele>
        <time>2019-01-18T07:56:44.000Z</time>
      </trkpt>
      <trkpt lat="43.35051" lon="5.66022">
        <ele>248</ele>
        <time>2019-01-18T07:56:45.000Z</time>
      </trkpt>
      <trkpt lat="43.35051" lon="5.66022">
        <ele>248</ele>
        <time>2019-01-18T07:56:46.000Z</time>
      </trkpt>
      <trkpt lat="43.35051" lon="5.66022">
        <ele>248</ele>
        <time>2019-01-18T07:56:47.000Z</time>
      </trkpt>
      <trkpt lat="43.35051" lon="5.66022">
        <ele>248</ele>
        <time>2019-01-18T07:56:48.000Z</time>
      </trkpt>
      <trkpt lat="43.35051" lon="5.66022">
        <ele>248</ele>
        <time>2019-01-18T07:56:49.000Z</time>
      </trkpt>
      <trkpt lat="43.35051" lon="5.66023">
        <ele>248</ele>
        <time>2019-01-18T07:56:50.000Z</time>
      </trkpt>
      <trkpt lat="43.35051" lon="5.66023">
        <ele>248</ele>
        <time>2019-01-18T07:56:51.000Z</time>
      </trkpt>
      <trkpt lat="43.35051" lon="5.66023">
        <ele>248</ele>
        <time>2019-01-18T07:56:52.000Z</time>
      </trkpt>
      <trkpt lat="43.35051" lon="5.66024">
        <ele>248</ele>
        <time>2019-01-18T07:56:53.000Z</time>
      </trkpt>
      <trkpt lat="43.3505" lon="5.66024">
        <ele>248</ele>
        <time>2019-01-18T07:56:54.000Z</time>
      </trkpt>
      <trkpt lat="43.3505" lon="5.66024">
        <ele>248</ele>
        <time>2019-01-18T07:56:55.000Z</time>
      </trkpt>
      <trkpt lat="43.3505" lon="5.66024">
        <ele>248</ele>
        <time>2019-01-18T07:56:56.000Z</time>
      </trkpt>
      <trkpt lat="43.35049" lon="5.66023">
        <ele>248</ele>
        <time>2019-01-18T07:56:57.000Z</time>
      </trkpt>
      <trkpt lat="43.35049" lon="5.66023">
        <ele>248</ele>
        <time>2019-01-18T07:56:58.000Z</time>
      </trkpt>
      <trkpt lat="43.35049" lon="5.66023">
        <ele>248</ele>
        <time>2019-01-18T07:56:59.000Z</time>
      </trkpt>
      <trkpt lat="43.35049" lon="5.66023">
        <ele>248</ele>
        <time>2019-01-18T07:57:00.000Z</time>
      </trkpt>
      <trkpt lat="43.35049" lon="5.66023">
        <ele>248</ele>
        <time>2019-01-18T07:57:01.000Z</time>
      </trkpt>
      <trkpt lat="43.35049" lon="5.66023">
        <ele>248</ele>
        <time>2019-01-18T07:57:02.000Z</time>
      </trkpt>
      <trkpt lat="43.35049" lon="5.66023">
        <ele>248</ele>
        <time>2019-01-18T07:57:03.000Z</time>
      </trkpt>
      <trkpt lat="43.35049" lon="5.66023">
        <ele>248</ele>
        <time>2019-01-18T07:57:04.000Z</time>
      </trkpt>
      <trkpt lat="43.35049" lon="5.66023">
        <ele>248</ele>
        <time>2019-01-18T07:57:05.000Z</time>
      </trkpt>
      <trkpt lat="43.35049" lon="5.66024">
        <ele>248</ele>
        <time>2019-01-18T07:57:06.000Z</time>
      </trkpt>
      <trkpt lat="43.35049" lon="5.66024">
        <ele>248</ele>
        <time>2019-01-18T07:57:07.000Z</time>
      </trkpt>
      <trkpt lat="43.35049" lon="5.66024">
        <ele>248</ele>
        <time>2019-01-18T07:57:08.000Z</time>
      </trkpt>
      <trkpt lat="43.35049" lon="5.66024">
        <ele>248</ele>
        <time>2019-01-18T07:57:09.000Z</time>
      </trkpt>
      <trkpt lat="43.35049" lon="5.66023">
        <ele>248</ele>
        <time>2019-01-18T07:57:10.000Z</time>
      </trkpt>
      <trkpt lat="43.3505" lon="5.66023">
        <ele>248</ele>
        <time>2019-01-18T07:57:11.000Z</time>
      </trkpt>
      <trkpt lat="43.3505" lon="5.66023">
        <ele>248</ele>
        <time>2019-01-18T07:57:12.000Z</time>
      </trkpt>
      <trkpt lat="43.3505" lon="5.66023">
        <ele>248</ele>
        <time>2019-01-18T07:57:13.000Z</time>
      </trkpt>
      <trkpt lat="43.3505" lon="5.66023">
        <ele>248</ele>
        <time>2019-01-18T07:57:14.000Z</time>
      </trkpt>
      <trkpt lat="43.35051" lon="5.66024">
        <ele>248</ele>
        <time>2019-01-18T07:57:15.000Z</time>
      </trkpt>
      <trkpt lat="43.35051" lon="5.66024">
        <ele>248</ele>
        <time>2019-01-18T07:57:16.000Z</time>
      </trkpt>
      <trkpt lat="43.35051" lon="5.66024">
        <ele>248</ele>
        <time>2019-01-18T07:57:17.000Z</time>
      </trkpt>
      <trkpt lat="43.35051" lon="5.66024">
        <ele>248</ele>
        <time>2019-01-18T07:57:18.000Z</time>
      </trkpt>
      <trkpt lat="43.35051" lon="5.66024">
        <ele>248</ele>
        <time>2019-01-18T07:57:19.000Z</time>
      </trkpt>
      <trkpt lat="43.35051" lon="5.66025">
        <ele>248</ele>
        <time>2019-01-18T07:57:20.000Z</time>
      </trkpt>
      <trkpt lat="43.35051" lon="5.66025">
        <ele>248</ele>
        <time>2019-01-18T07:57:21.000Z</time>
      </trkpt>
      <trkpt lat="43.35051" lon="5.66025">
        <ele>248</ele>
        <time>2019-01-18T07:57:22.000Z</time>
      </trkpt>
      <trkpt lat="43.35051" lon="5.66025">
        <ele>248</ele>
        <time>2019-01-18T07:57:23.000Z</time>
      </trkpt>
      <trkpt lat="43.35051" lon="5.66025">
        <ele>248</ele>
        <time>2019-01-18T07:57:24.000Z</time>
      </trkpt>
      <trkpt lat="43.35051" lon="5.66025">
        <ele>248</ele>
        <time>2019-01-18T07:57:25.000Z</time>
      </trkpt>
      <trkpt lat="43.35051" lon="5.66025">
        <ele>248</ele>
        <time>2019-01-18T07:57:26.000Z</time>
      </trkpt>
      <trkpt lat="43.35051" lon="5.66025">
        <ele>248</ele>
        <time>2019-01-18T07:57:27.000Z</time>
      </trkpt>
      <trkpt lat="43.35051" lon="5.66025">
        <ele>248</ele>
        <time>2019-01-18T07:57:28.000Z</time>
      </trkpt>
      <trkpt lat="43.35051" lon="5.66025">
        <ele>248</ele>
        <time>2019-01-18T07:57:29.000Z</time>
      </trkpt>
      <trkpt lat="43.35051" lon="5.66025">
        <ele>248</ele>
        <time>2019-01-18T07:57:30.000Z</time>
      </trkpt>
      <trkpt lat="43.3505" lon="5.66024">
        <ele>248</ele>
        <time>2019-01-18T07:57:31.000Z</time>
      </trkpt>
      <trkpt lat="43.3505" lon="5.66024">
        <ele>248</ele>
        <time>2019-01-18T07:57:32.000Z</time>
      </trkpt>
      <trkpt lat="43.3505" lon="5.66024">
        <ele>248</ele>
        <time>2019-01-18T07:57:33.000Z</time>
      </trkpt>
      <trkpt lat="43.3505" lon="5.66024">
        <ele>248</ele>
        <time>2019-01-18T07:57:34.000Z</time>
      </trkpt>
      <trkpt lat="43.3505" lon="5.66024">
        <ele>248</ele>
        <time>2019-01-18T07:57:35.000Z</time>
      </trkpt>
      <trkpt lat="43.3505" lon="5.66024">
        <ele>248</ele>
        <time>2019-01-18T07:57:36.000Z</time>
      </trkpt>
      <trkpt lat="43.3505" lon="5.66024">
        <ele>248</ele>
        <time>2019-01-18T07:57:37.000Z</time>
      </trkpt>
      <trkpt lat="43.3505" lon="5.66024">
        <ele>248</ele>
        <time>2019-01-18T07:57:38.000Z</time>
      </trkpt>
      <trkpt lat="43.3505" lon="5.66025">
        <ele>248</ele>
        <time>2019-01-18T07:57:39.000Z</time>
      </trkpt>
      <trkpt lat="43.3505" lon="5.66025">
        <ele>248</ele>
        <time>2019-01-18T07:57:40.000Z</time>
      </trkpt>
      <trkpt lat="43.3505" lon="5.66025">
        <ele>248</ele>
        <time>2019-01-18T07:57:41.000Z</time>
      </trkpt>
      <trkpt lat="43.3505" lon="5.66026">
        <ele>248</ele>
        <time>2019-01-18T07:57:42.000Z</time>
      </trkpt>
      <trkpt lat="43.3505" lon="5.66026">
        <ele>248</ele>
        <time>2019-01-18T07:57:43.000Z</time>
      </trkpt>
      <trkpt lat="43.3505" lon="5.66026">
        <ele>248</ele>
        <time>2019-01-18T07:57:44.000Z</time>
      </trkpt>
      <trkpt lat="43.3505" lon="5.66026">
        <ele>248</ele>
        <time>2019-01-18T07:57:45.000Z</time>
      </trkpt>
      <trkpt lat="43.3505" lon="5.66026">
        <ele>248</ele>
        <time>2019-01-18T07:57:46.000Z</time>
      </trkpt>
      <trkpt lat="43.35049" lon="5.66026">
        <ele>248</ele>
        <time>2019-01-18T07:57:47.000Z</time>
      </trkpt>
      <trkpt lat="43.35049" lon="5.66026">
        <ele>248</ele>
        <time>2019-01-18T07:57:48.000Z</time>
      </trkpt>
      <trkpt lat="43.35049" lon="5.66025">
        <ele>248</ele>
        <time>2019-01-18T07:57:49.000Z</time>
      </trkpt>
      <trkpt lat="43.35049" lon="5.66025">
        <ele>248</ele>
        <time>2019-01-18T07:57:50.000Z</time>
      </trkpt>
      <trkpt lat="43.35049" lon="5.66025">
        <ele>248</ele>
        <time>2019-01-18T07:57:51.000Z</time>
      </trkpt>
      <trkpt lat="43.35049" lon="5.66025">
        <ele>249</ele>
        <time>2019-01-18T07:57:52.000Z</time>
      </trkpt>
      <trkpt lat="43.35049" lon="5.66025">
        <ele>249</ele>
        <time>2019-01-18T07:57:53.000Z</time>
      </trkpt>
      <trkpt lat="43.35049" lon="5.66025">
        <ele>249</ele>
        <time>2019-01-18T07:57:54.000Z</time>
      </trkpt>
      <trkpt lat="43.35048" lon="5.66025">
        <ele>249</ele>
        <time>2019-01-18T07:57:55.000Z</time>
      </trkpt>
      <trkpt lat="43.35048" lon="5.66025">
        <ele>249</ele>
        <time>2019-01-18T07:57:56.000Z</time>
      </trkpt>
      <trkpt lat="43.35048" lon="5.66025">
        <ele>249</ele>
        <time>2019-01-18T07:57:57.000Z</time>
      </trkpt>
      <trkpt lat="43.35048" lon="5.66025">
        <ele>249</ele>
        <time>2019-01-18T07:57:58.000Z</time>
      </trkpt>
      <trkpt lat="43.35048" lon="5.66025">
        <ele>249</ele>
        <time>2019-01-18T07:57:59.000Z</time>
      </trkpt>
      <trkpt lat="43.35048" lon="5.66025">
        <ele>249</ele>
        <time>2019-01-18T07:58:00.000Z</time>
      </trkpt>
      <trkpt lat="43.35048" lon="5.66025">
        <ele>249</ele>
        <time>2019-01-18T07:58:01.000Z</time>
      </trkpt>
      <trkpt lat="43.35048" lon="5.66025">
        <ele>249</ele>
        <time>2019-01-18T07:58:02.000Z</time>
      </trkpt>
      <trkpt lat="43.35048" lon="5.66025">
        <ele>249</ele>
        <time>2019-01-18T07:58:03.000Z</time>
      </trkpt>
      <trkpt lat="43.35048" lon="5.66025">
        <ele>249</ele>
        <time>2019-01-18T07:58:04.000Z</time>
      </trkpt>
      <trkpt lat="43.35049" lon="5.66025">
        <ele>249</ele>
        <time>2019-01-18T07:58:05.000Z</time>
      </trkpt>
      <trkpt lat="43.35049" lon="5.66025">
        <ele>249</ele>
        <time>2019-01-18T07:58:06.000Z</time>
      </trkpt>
      <trkpt lat="43.35049" lon="5.66025">
        <ele>249</ele>
        <time>2019-01-18T07:58:07.000Z</time>
      </trkpt>
      <trkpt lat="43.35048" lon="5.66025">
        <ele>249</ele>
        <time>2019-01-18T07:58:08.000Z</time>
      </trkpt>
      <trkpt lat="43.35049" lon="5.66025">
        <ele>249</ele>
        <time>2019-01-18T07:58:09.000Z</time>
      </trkpt>
      <trkpt lat="43.35048" lon="5.66025">
        <ele>249</ele>
        <time>2019-01-18T07:58:10.000Z</time>
      </trkpt>
      <trkpt lat="43.35049" lon="5.66024">
        <ele>249</ele>
        <time>2019-01-18T07:58:11.000Z</time>
      </trkpt>
      <trkpt lat="43.35049" lon="5.66024">
        <ele>249</ele>
        <time>2019-01-18T07:58:12.000Z</time>
      </trkpt>
      <trkpt lat="43.35049" lon="5.66024">
        <ele>249</ele>
        <time>2019-01-18T07:58:13.000Z</time>
      </trkpt>
      <trkpt lat="43.35049" lon="5.66024">
        <ele>250</ele>
        <time>2019-01-18T07:58:14.000Z</time>
      </trkpt>
      <trkpt lat="43.35049" lon="5.66024">
        <ele>250</ele>
        <time>2019-01-18T07:58:15.000Z</time>
      </trkpt>
      <trkpt lat="43.35049" lon="5.66024">
        <ele>250</ele>
        <time>2019-01-18T07:58:16.000Z</time>
      </trkpt>
      <trkpt lat="43.35049" lon="5.66024">
        <ele>250</ele>
        <time>2019-01-18T07:58:17.000Z</time>
      </trkpt>
      <trkpt lat="43.35049" lon="5.66024">
        <ele>250</ele>
        <time>2019-01-18T07:58:18.000Z</time>
      </trkpt>
      <trkpt lat="43.35049" lon="5.66024">
        <ele>250</ele>
        <time>2019-01-18T07:58:19.000Z</time>
      </trkpt>
      <trkpt lat="43.35049" lon="5.66024">
        <ele>250</ele>
        <time>2019-01-18T07:58:20.000Z</time>
      </trkpt>
      <trkpt lat="43.35049" lon="5.66024">
        <ele>250</ele>
        <time>2019-01-18T07:58:21.000Z</time>
      </trkpt>
      <trkpt lat="43.35049" lon="5.66024">
        <ele>250</ele>
        <time>2019-01-18T07:58:22.000Z</time>
      </trkpt>
      <trkpt lat="43.35049" lon="5.66024">
        <ele>250</ele>
        <time>2019-01-18T07:58:23.000Z</time>
      </trkpt>
      <trkpt lat="43.35049" lon="5.66024">
        <ele>250</ele>
        <time>2019-01-18T07:58:24.000Z</time>
      </trkpt>
      <trkpt lat="43.35049" lon="5.66024">
        <ele>250</ele>
        <time>2019-01-18T07:58:25.000Z</time>
      </trkpt>
      <trkpt lat="43.35049" lon="5.66024">
        <ele>250</ele>
        <time>2019-01-18T07:58:26.000Z</time>
      </trkpt>
      <trkpt lat="43.35049" lon="5.66024">
        <ele>250</ele>
        <time>2019-01-18T07:58:27.000Z</time>
      </trkpt>
      <trkpt lat="43.35049" lon="5.66024">
        <ele>250</ele>
        <time>2019-01-18T07:58:28.000Z</time>
      </trkpt>
      <trkpt lat="43.35049" lon="5.66024">
        <ele>250</ele>
        <time>2019-01-18T07:58:29.000Z</time>
      </trkpt>
      <trkpt lat="43.35049" lon="5.66024">
        <ele>250</ele>
        <time>2019-01-18T07:58:30.000Z</time>
      </trkpt>
      <trkpt lat="43.35049" lon="5.66024">
        <ele>250</ele>
        <time>2019-01-18T07:58:31.000Z</time>
      </trkpt>
      <trkpt lat="43.35048" lon="5.66024">
        <ele>250</ele>
        <time>2019-01-18T07:58:32.000Z</time>
      </trkpt>
      <trkpt lat="43.35048" lon="5.66024">
        <ele>250</ele>
        <time>2019-01-18T07:58:33.000Z</time>
      </trkpt>
      <trkpt lat="43.35048" lon="5.66024">
        <ele>250</ele>
        <time>2019-01-18T07:58:34.000Z</time>
      </trkpt>
      <trkpt lat="43.35048" lon="5.66024">
        <ele>250</ele>
        <time>2019-01-18T07:58:35.000Z</time>
      </trkpt>
      <trkpt lat="43.35048" lon="5.66024">
        <ele>250</ele>
        <time>2019-01-18T07:58:36.000Z</time>
      </trkpt>
      <trkpt lat="43.35048" lon="5.66024">
        <ele>250</ele>
        <time>2019-01-18T07:58:37.000Z</time>
      </trkpt>
      <trkpt lat="43.35048" lon="5.66024">
        <ele>250</ele>
        <time>2019-01-18T07:58:38.000Z</time>
      </trkpt>
      <trkpt lat="43.35048" lon="5.66025">
        <ele>250</ele>
        <time>2019-01-18T07:58:39.000Z</time>
      </trkpt>
      <trkpt lat="43.35048" lon="5.66025">
        <ele>250</ele>
        <time>2019-01-18T07:58:40.000Z</time>
      </trkpt>
      <trkpt lat="43.35048" lon="5.66025">
        <ele>250</ele>
        <time>2019-01-18T07:58:41.000Z</time>
      </trkpt>
      <trkpt lat="43.35048" lon="5.66025">
        <ele>250</ele>
        <time>2019-01-18T07:58:42.000Z</time>
      </trkpt>
      <trkpt lat="43.35048" lon="5.66024">
        <ele>250</ele>
        <time>2019-01-18T07:58:43.000Z</time>
      </trkpt>
      <trkpt lat="43.35048" lon="5.66025">
        <ele>250</ele>
        <time>2019-01-18T07:58:44.000Z</time>
      </trkpt>
      <trkpt lat="43.35048" lon="5.66025">
        <ele>250</ele>
        <time>2019-01-18T07:58:45.000Z</time>
      </trkpt>
      <trkpt lat="43.35048" lon="5.66025">
        <ele>250</ele>
        <time>2019-01-18T07:58:46.000Z</time>
      </trkpt>
      <trkpt lat="43.35048" lon="5.66025">
        <ele>250</ele>
        <time>2019-01-18T07:58:47.000Z</time>
      </trkpt>
      <trkpt lat="43.35047" lon="5.66024">
        <ele>250</ele>
        <time>2019-01-18T07:58:48.000Z</time>
      </trkpt>
      <trkpt lat="43.35047" lon="5.66024">
        <ele>250</ele>
        <time>2019-01-18T07:58:49.000Z</time>
      </trkpt>
      <trkpt lat="43.35048" lon="5.66024">
        <ele>250</ele>
        <time>2019-01-18T07:58:50.000Z</time>
      </trkpt>
      <trkpt lat="43.35048" lon="5.66024">
        <ele>250</ele>
        <time>2019-01-18T07:58:51.000Z</time>
      </trkpt>
      <trkpt lat="43.35048" lon="5.66025">
        <ele>250</ele>
        <time>2019-01-18T07:58:52.000Z</time>
      </trkpt>
      <trkpt lat="43.35048" lon="5.66025">
        <ele>250</ele>
        <time>2019-01-18T07:58:53.000Z</time>
      </trkpt>
      <trkpt lat="43.35048" lon="5.66025">
        <ele>250</ele>
        <time>2019-01-18T07:58:54.000Z</time>
      </trkpt>
      <trkpt lat="43.35048" lon="5.66025">
        <ele>250</ele>
        <time>2019-01-18T07:58:55.000Z</time>
      </trkpt>
      <trkpt lat="43.35048" lon="5.66025">
        <ele>250</ele>
        <time>2019-01-18T07:58:56.000Z</time>
      </trkpt>
      <trkpt lat="43.35048" lon="5.66025">
        <ele>250</ele>
        <time>2019-01-18T07:58:57.000Z</time>
      </trkpt>
      <trkpt lat="43.35048" lon="5.66025">
        <ele>250</ele>
        <time>2019-01-18T07:58:58.000Z</time>
      </trkpt>
      <trkpt lat="43.35048" lon="5.66026">
        <ele>250</ele>
        <time>2019-01-18T07:58:59.000Z</time>
      </trkpt>
      <trkpt lat="43.35048" lon="5.66025">
        <ele>250</ele>
        <time>2019-01-18T07:59:00.000Z</time>
      </trkpt>
      <trkpt lat="43.35048" lon="5.66026">
        <ele>251</ele>
        <time>2019-01-18T07:59:01.000Z</time>
      </trkpt>
      <trkpt lat="43.35048" lon="5.66027">
        <ele>251</ele>
        <time>2019-01-18T07:59:02.000Z</time>
      </trkpt>
      <trkpt lat="43.35048" lon="5.66028">
        <ele>251</ele>
        <time>2019-01-18T07:59:03.000Z</time>
      </trkpt>
      <trkpt lat="43.35048" lon="5.66029">
        <ele>251</ele>
        <time>2019-01-18T07:59:04.000Z</time>
      </trkpt>
      <trkpt lat="43.35048" lon="5.66029">
        <ele>250</ele>
        <time>2019-01-18T07:59:05.000Z</time>
      </trkpt>
      <trkpt lat="43.35048" lon="5.66029">
        <ele>250</ele>
        <time>2019-01-18T07:59:06.000Z</time>
      </trkpt>
      <trkpt lat="43.35048" lon="5.6603">
        <ele>250</ele>
        <time>2019-01-18T07:59:07.000Z</time>
      </trkpt>
      <trkpt lat="43.35048" lon="5.6603">
        <ele>250</ele>
        <time>2019-01-18T07:59:08.000Z</time>
      </trkpt>
      <trkpt lat="43.35048" lon="5.66029">
        <ele>251</ele>
        <time>2019-01-18T07:59:09.000Z</time>
      </trkpt>
      <trkpt lat="43.35049" lon="5.66029">
        <ele>251</ele>
        <time>2019-01-18T07:59:10.000Z</time>
      </trkpt>
      <trkpt lat="43.35049" lon="5.66028">
        <ele>251</ele>
        <time>2019-01-18T07:59:11.000Z</time>
      </trkpt>
      <trkpt lat="43.35049" lon="5.66027">
        <ele>251</ele>
        <time>2019-01-18T07:59:12.000Z</time>
      </trkpt>
      <trkpt lat="43.35048" lon="5.66027">
        <ele>250</ele>
        <time>2019-01-18T07:59:13.000Z</time>
      </trkpt>
      <trkpt lat="43.35048" lon="5.66026">
        <ele>250</ele>
        <time>2019-01-18T07:59:14.000Z</time>
      </trkpt>
      <trkpt lat="43.35048" lon="5.66026">
        <ele>250</ele>
        <time>2019-01-18T07:59:15.000Z</time>
      </trkpt>
      <trkpt lat="43.35048" lon="5.66026">
        <ele>250</ele>
        <time>2019-01-18T07:59:16.000Z</time>
      </trkpt>
      <trkpt lat="43.35048" lon="5.66026">
        <ele>250</ele>
        <time>2019-01-18T07:59:17.000Z</time>
      </trkpt>
      <trkpt lat="43.35048" lon="5.66026">
        <ele>250</ele>
        <time>2019-01-18T07:59:18.000Z</time>
      </trkpt>
      <trkpt lat="43.35048" lon="5.66026">
        <ele>250</ele>
        <time>2019-01-18T07:59:19.000Z</time>
      </trkpt>
      <trkpt lat="43.35048" lon="5.66026">
        <ele>250</ele>
        <time>2019-01-18T07:59:20.000Z</time>
      </trkpt>
      <trkpt lat="43.35048" lon="5.66026">
        <ele>250</ele>
        <time>2019-01-18T07:59:21.000Z</time>
      </trkpt>
      <trkpt lat="43.35048" lon="5.66026">
        <ele>251</ele>
        <time>2019-01-18T07:59:22.000Z</time>
      </trkpt>
      <trkpt lat="43.35048" lon="5.66026">
        <ele>251</ele>
        <time>2019-01-18T07:59:23.000Z</time>
      </trkpt>
      <trkpt lat="43.35048" lon="5.66027">
        <ele>250</ele>
        <time>2019-01-18T07:59:24.000Z</time>
      </trkpt>
      <trkpt lat="43.35048" lon="5.66027">
        <ele>250</ele>
        <time>2019-01-18T07:59:25.000Z</time>
      </trkpt>
      <trkpt lat="43.35049" lon="5.66026">
        <ele>250</ele>
        <time>2019-01-18T07:59:26.000Z</time>
      </trkpt>
      <trkpt lat="43.35049" lon="5.66027">
        <ele>250</ele>
        <time>2019-01-18T07:59:27.000Z</time>
      </trkpt>
      <trkpt lat="43.35049" lon="5.66027">
        <ele>250</ele>
        <time>2019-01-18T07:59:28.000Z</time>
      </trkpt>
      <trkpt lat="43.35049" lon="5.66029">
        <ele>250</ele>
        <time>2019-01-18T07:59:29.000Z</time>
      </trkpt>
      <trkpt lat="43.35049" lon="5.66029">
        <ele>250</ele>
        <time>2019-01-18T07:59:30.000Z</time>
      </trkpt>
      <trkpt lat="43.35049" lon="5.66029">
        <ele>250</ele>
        <time>2019-01-18T07:59:31.000Z</time>
      </trkpt>
      <trkpt lat="43.35049" lon="5.66029">
        <ele>250</ele>
        <time>2019-01-18T07:59:32.000Z</time>
      </trkpt>
      <trkpt lat="43.35049" lon="5.66029">
        <ele>250</ele>
        <time>2019-01-18T07:59:33.000Z</time>
      </trkpt>
      <trkpt lat="43.35048" lon="5.66029">
        <ele>250</ele>
        <time>2019-01-18T07:59:34.000Z</time>
      </trkpt>
      <trkpt lat="43.35048" lon="5.6603">
        <ele>250</ele>
        <time>2019-01-18T07:59:35.000Z</time>
      </trkpt>
      <trkpt lat="43.35048" lon="5.6603">
        <ele>250</ele>
        <time>2019-01-18T07:59:36.000Z</time>
      </trkpt>
      <trkpt lat="43.35048" lon="5.6603">
        <ele>250</ele>
        <time>2019-01-18T07:59:37.000Z</time>
      </trkpt>
      <trkpt lat="43.35048" lon="5.6603">
        <ele>250</ele>
        <time>2019-01-18T07:59:38.000Z</time>
      </trkpt>
      <trkpt lat="43.35048" lon="5.6603">
        <ele>250</ele>
        <time>2019-01-18T07:59:39.000Z</time>
      </trkpt>
      <trkpt lat="43.35048" lon="5.6603">
        <ele>250</ele>
        <time>2019-01-18T07:59:40.000Z</time>
      </trkpt>
      <trkpt lat="43.35048" lon="5.6603">
        <ele>250</ele>
        <time>2019-01-18T07:59:41.000Z</time>
      </trkpt>
      <trkpt lat="43.35049" lon="5.6603">
        <ele>250</ele>
        <time>2019-01-18T07:59:42.000Z</time>
      </trkpt>
      <trkpt lat="43.35049" lon="5.6603">
        <ele>250</ele>
        <time>2019-01-18T07:59:43.000Z</time>
      </trkpt>
      <trkpt lat="43.35049" lon="5.6603">
        <ele>250</ele>
        <time>2019-01-18T07:59:44.000Z</time>
      </trkpt>
      <trkpt lat="43.35049" lon="5.6603">
        <ele>250</ele>
        <time>2019-01-18T07:59:45.000Z</time>
      </trkpt>
      <trkpt lat="43.35049" lon="5.6603">
        <ele>250</ele>
        <time>2019-01-18T07:59:46.000Z</time>
      </trkpt>
      <trkpt lat="43.35049" lon="5.6603">
        <ele>250</ele>
        <time>2019-01-18T07:59:47.000Z</time>
      </trkpt>
      <trkpt lat="43.35049" lon="5.6603">
        <ele>250</ele>
        <time>2019-01-18T07:59:48.000Z</time>
      </trkpt>
      <trkpt lat="43.35049" lon="5.6603">
        <ele>250</ele>
        <time>2019-01-18T07:59:49.000Z</time>
      </trkpt>
      <trkpt lat="43.35049" lon="5.6603">
        <ele>250</ele>
        <time>2019-01-18T07:59:50.000Z</time>
      </trkpt>
      <trkpt lat="43.35049" lon="5.6603">
        <ele>250</ele>
        <time>2019-01-18T07:59:51.000Z</time>
      </trkpt>
      <trkpt lat="43.35049" lon="5.6603">
        <ele>250</ele>
        <time>2019-01-18T07:59:52.000Z</time>
      </trkpt>
      <trkpt lat="43.35049" lon="5.6603">
        <ele>249</ele>
        <time>2019-01-18T07:59:53.000Z</time>
      </trkpt>
      <trkpt lat="43.35049" lon="5.6603">
        <ele>249</ele>
        <time>2019-01-18T07:59:54.000Z</time>
      </trkpt>
      <trkpt lat="43.35049" lon="5.6603">
        <ele>249</ele>
        <time>2019-01-18T07:59:55.000Z</time>
      </trkpt>
      <trkpt lat="43.35049" lon="5.6603">
        <ele>249</ele>
        <time>2019-01-18T07:59:56.000Z</time>
      </trkpt>
      <trkpt lat="43.3505" lon="5.6603">
        <ele>249</ele>
        <time>2019-01-18T07:59:57.000Z</time>
      </trkpt>
      <trkpt lat="43.3505" lon="5.6603">
        <ele>249</ele>
        <time>2019-01-18T07:59:58.000Z</time>
      </trkpt>
      <trkpt lat="43.3505" lon="5.6603">
        <ele>249</ele>
        <time>2019-01-18T07:59:59.000Z</time>
      </trkpt>
      <trkpt lat="43.3505" lon="5.6603">
        <ele>249</ele>
        <time>2019-01-18T08:00:00.000Z</time>
      </trkpt>
      <trkpt lat="43.3505" lon="5.6603">
        <ele>249</ele>
        <time>2019-01-18T08:00:01.000Z</time>
      </trkpt>
      <trkpt lat="43.3505" lon="5.66029">
        <ele>249</ele>
        <time>2019-01-18T08:00:02.000Z</time>
      </trkpt>
      <trkpt lat="43.3505" lon="5.66029">
        <ele>249</ele>
        <time>2019-01-18T08:00:03.000Z</time>
      </trkpt>
      <trkpt lat="43.3505" lon="5.66029">
        <ele>249</ele>
        <time>2019-01-18T08:00:04.000Z</time>
      </trkpt>
      <trkpt lat="43.3505" lon="5.66029">
        <ele>249</ele>
        <time>2019-01-18T08:00:05.000Z</time>
      </trkpt>
      <trkpt lat="43.3505" lon="5.66029">
        <ele>249</ele>
        <time>2019-01-18T08:00:06.000Z</time>
      </trkpt>
      <trkpt lat="43.3505" lon="5.66029">
        <ele>248</ele>
        <time>2019-01-18T08:00:07.000Z</time>
      </trkpt>
      <trkpt lat="43.3505" lon="5.66029">
        <ele>248</ele>
        <time>2019-01-18T08:00:08.000Z</time>
      </trkpt>
      <trkpt lat="43.3505" lon="5.66029">
        <ele>248</ele>
        <time>2019-01-18T08:00:09.000Z</time>
      </trkpt>
      <trkpt lat="43.3505" lon="5.66029">
        <ele>248</ele>
        <time>2019-01-18T08:00:10.000Z</time>
      </trkpt>
      <trkpt lat="43.3505" lon="5.66029">
        <ele>248</ele>
        <time>2019-01-18T08:00:11.000Z</time>
      </trkpt>
      <trkpt lat="43.35051" lon="5.66029">
        <ele>248</ele>
        <time>2019-01-18T08:00:12.000Z</time>
      </trkpt>
      <trkpt lat="43.35051" lon="5.66028">
        <ele>248</ele>
        <time>2019-01-18T08:00:13.000Z</time>
      </trkpt>
      <trkpt lat="43.35051" lon="5.66029">
        <ele>248</ele>
        <time>2019-01-18T08:00:14.000Z</time>
      </trkpt>
      <trkpt lat="43.35051" lon="5.66029">
        <ele>248</ele>
        <time>2019-01-18T08:00:15.000Z</time>
      </trkpt>
      <trkpt lat="43.35051" lon="5.66028">
        <ele>248</ele>
        <time>2019-01-18T08:00:16.000Z</time>
      </trkpt>
      <trkpt lat="43.35051" lon="5.66028">
        <ele>248</ele>
        <time>2019-01-18T08:00:17.000Z</time>
      </trkpt>
      <trkpt lat="43.35051" lon="5.66028">
        <ele>248</ele>
        <time>2019-01-18T08:00:18.000Z</time>
      </trkpt>
      <trkpt lat="43.35051" lon="5.66028">
        <ele>248</ele>
        <time>2019-01-18T08:00:19.000Z</time>
      </trkpt>
      <trkpt lat="43.35051" lon="5.66028">
        <ele>248</ele>
        <time>2019-01-18T08:00:20.000Z</time>
      </trkpt>
      <trkpt lat="43.35051" lon="5.66028">
        <ele>248</ele>
        <time>2019-01-18T08:00:21.000Z</time>
      </trkpt>
      <trkpt lat="43.35051" lon="5.66028">
        <ele>247</ele>
        <time>2019-01-18T08:00:22.000Z</time>
      </trkpt>
      <trkpt lat="43.35051" lon="5.66028">
        <ele>247</ele>
        <time>2019-01-18T08:00:23.000Z</time>
      </trkpt>
      <trkpt lat="43.35051" lon="5.66028">
        <ele>247</ele>
        <time>2019-01-18T08:00:24.000Z</time>
      </trkpt>
      <trkpt lat="43.35051" lon="5.66028">
        <ele>247</ele>
        <time>2019-01-18T08:00:25.000Z</time>
      </trkpt>
      <trkpt lat="43.35051" lon="5.66028">
        <ele>247</ele>
        <time>2019-01-18T08:00:26.000Z</time>
      </trkpt>
      <trkpt lat="43.35051" lon="5.66028">
        <ele>247</ele>
        <time>2019-01-18T08:00:27.000Z</time>
      </trkpt>
      <trkpt lat="43.35052" lon="5.66027">
        <ele>247</ele>
        <time>2019-01-18T08:00:28.000Z</time>
      </trkpt>
      <trkpt lat="43.35051" lon="5.66027">
        <ele>247</ele>
        <time>2019-01-18T08:00:29.000Z</time>
      </trkpt>
      <trkpt lat="43.35051" lon="5.66027">
        <ele>247</ele>
        <time>2019-01-18T08:00:30.000Z</time>
      </trkpt>
      <trkpt lat="43.35051" lon="5.66026">
        <ele>247</ele>
        <time>2019-01-18T08:00:31.000Z</time>
      </trkpt>
      <trkpt lat="43.35051" lon="5.66026">
        <ele>248</ele>
        <time>2019-01-18T08:00:32.000Z</time>
      </trkpt>
      <trkpt lat="43.35051" lon="5.66026">
        <ele>248</ele>
        <time>2019-01-18T08:00:33.000Z</time>
      </trkpt>
      <trkpt lat="43.35051" lon="5.66026">
        <ele>248</ele>
        <time>2019-01-18T08:00:34.000Z</time>
      </trkpt>
      <trkpt lat="43.35051" lon="5.66026">
        <ele>248</ele>
        <time>2019-01-18T08:00:35.000Z</time>
      </trkpt>
      <trkpt lat="43.35051" lon="5.66026">
        <ele>248</ele>
        <time>2019-01-18T08:00:36.000Z</time>
      </trkpt>
      <trkpt lat="43.35051" lon="5.66026">
        <ele>248</ele>
        <time>2019-01-18T08:00:37.000Z</time>
      </trkpt>
      <trkpt lat="43.35051" lon="5.66026">
        <ele>248</ele>
        <time>2019-01-18T08:00:38.000Z</time>
      </trkpt>
      <trkpt lat="43.35051" lon="5.66026">
        <ele>248</ele>
        <time>2019-01-18T08:00:39.000Z</time>
      </trkpt>
      <trkpt lat="43.35051" lon="5.66026">
        <ele>248</ele>
        <time>2019-01-18T08:00:40.000Z</time>
      </trkpt>
      <trkpt lat="43.35051" lon="5.66026">
        <ele>248</ele>
        <time>2019-01-18T08:00:41.000Z</time>
      </trkpt>
      <trkpt lat="43.35052" lon="5.66026">
        <ele>248</ele>
        <time>2019-01-18T08:00:42.000Z</time>
      </trkpt>
      <trkpt lat="43.35051" lon="5.66026">
        <ele>248</ele>
        <time>2019-01-18T08:00:43.000Z</time>
      </trkpt>
      <trkpt lat="43.35051" lon="5.66026">
        <ele>248</ele>
        <time>2019-01-18T08:00:44.000Z</time>
      </trkpt>
      <trkpt lat="43.35051" lon="5.66026">
        <ele>248</ele>
        <time>2019-01-18T08:00:45.000Z</time>
      </trkpt>
      <trkpt lat="43.35051" lon="5.66026">
        <ele>248</ele>
        <time>2019-01-18T08:00:46.000Z</time>
      </trkpt>
      <trkpt lat="43.35051" lon="5.66026">
        <ele>248</ele>
        <time>2019-01-18T08:00:47.000Z</time>
      </trkpt>
      <trkpt lat="43.35051" lon="5.66026">
        <ele>248</ele>
        <time>2019-01-18T08:00:48.000Z</time>
      </trkpt>
      <trkpt lat="43.35051" lon="5.66026">
        <ele>248</ele>
        <time>2019-01-18T08:00:49.000Z</time>
      </trkpt>
      <trkpt lat="43.35051" lon="5.66026">
        <ele>248</ele>
        <time>2019-01-18T08:00:50.000Z</time>
      </trkpt>
      <trkpt lat="43.35051" lon="5.66026">
        <ele>248</ele>
        <time>2019-01-18T08:00:51.000Z</time>
      </trkpt>
      <trkpt lat="43.35051" lon="5.66026">
        <ele>248</ele>
        <time>2019-01-18T08:00:52.000Z</time>
      </trkpt>
      <trkpt lat="43.35051" lon="5.66026">
        <ele>248</ele>
        <time>2019-01-18T08:00:53.000Z</time>
      </trkpt>
      <trkpt lat="43.35051" lon="5.66025">
        <ele>248</ele>
        <time>2019-01-18T08:00:54.000Z</time>
      </trkpt>
      <trkpt lat="43.35051" lon="5.66025">
        <ele>248</ele>
        <time>2019-01-18T08:00:55.000Z</time>
      </trkpt>
      <trkpt lat="43.35051" lon="5.66025">
        <ele>248</ele>
        <time>2019-01-18T08:00:56.000Z</time>
      </trkpt>
      <trkpt lat="43.35051" lon="5.66025">
        <ele>248</ele>
        <time>2019-01-18T08:00:57.000Z</time>
      </trkpt>
      <trkpt lat="43.35051" lon="5.66025">
        <ele>248</ele>
        <time>2019-01-18T08:00:58.000Z</time>
      </trkpt>
      <trkpt lat="43.35051" lon="5.66025">
        <ele>248</ele>
        <time>2019-01-18T08:00:59.000Z</time>
      </trkpt>
      <trkpt lat="43.35051" lon="5.66025">
        <ele>248</ele>
        <time>2019-01-18T08:01:00.000Z</time>
      </trkpt>
      <trkpt lat="43.3505" lon="5.66025">
        <ele>249</ele>
        <time>2019-01-18T08:01:01.000Z</time>
      </trkpt>
      <trkpt lat="43.3505" lon="5.66025">
        <ele>249</ele>
        <time>2019-01-18T08:01:02.000Z</time>
      </trkpt>
      <trkpt lat="43.3505" lon="5.66025">
        <ele>249</ele>
        <time>2019-01-18T08:01:03.000Z</time>
      </trkpt>
      <trkpt lat="43.3505" lon="5.66025">
        <ele>249</ele>
        <time>2019-01-18T08:01:04.000Z</time>
      </trkpt>
      <trkpt lat="43.3505" lon="5.66025">
        <ele>249</ele>
        <time>2019-01-18T08:01:05.000Z</time>
      </trkpt>
      <trkpt lat="43.3505" lon="5.66025">
        <ele>249</ele>
        <time>2019-01-18T08:01:06.000Z</time>
      </trkpt>
      <trkpt lat="43.3505" lon="5.66025">
        <ele>249</ele>
        <time>2019-01-18T08:01:07.000Z</time>
      </trkpt>
      <trkpt lat="43.3505" lon="5.66025">
        <ele>249</ele>
        <time>2019-01-18T08:01:08.000Z</time>
      </trkpt>
      <trkpt lat="43.3505" lon="5.66025">
        <ele>249</ele>
        <time>2019-01-18T08:01:09.000Z</time>
      </trkpt>
      <trkpt lat="43.3505" lon="5.66025">
        <ele>249</ele>
        <time>2019-01-18T08:01:10.000Z</time>
      </trkpt>
      <trkpt lat="43.3505" lon="5.66025">
        <ele>249</ele>
        <time>2019-01-18T08:01:11.000Z</time>
      </trkpt>
      <trkpt lat="43.3505" lon="5.66025">
        <ele>249</ele>
        <time>2019-01-18T08:01:12.000Z</time>
      </trkpt>
      <trkpt lat="43.35051" lon="5.66025">
        <ele>249</ele>
        <time>2019-01-18T08:01:13.000Z</time>
      </trkpt>
      <trkpt lat="43.35051" lon="5.66025">
        <ele>249</ele>
        <time>2019-01-18T08:01:14.000Z</time>
      </trkpt>
      <trkpt lat="43.35051" lon="5.66025">
        <ele>249</ele>
        <time>2019-01-18T08:01:15.000Z</time>
      </trkpt>
      <trkpt lat="43.35051" lon="5.66025">
        <ele>249</ele>
        <time>2019-01-18T08:01:16.000Z</time>
      </trkpt>
      <trkpt lat="43.35051" lon="5.66025">
        <ele>249</ele>
        <time>2019-01-18T08:01:17.000Z</time>
      </trkpt>
      <trkpt lat="43.35051" lon="5.66025">
        <ele>249</ele>
        <time>2019-01-18T08:01:18.000Z</time>
      </trkpt>
      <trkpt lat="43.35051" lon="5.66025">
        <ele>249</ele>
        <time>2019-01-18T08:01:19.000Z</time>
      </trkpt>
      <trkpt lat="43.35051" lon="5.66025">
        <ele>249</ele>
        <time>2019-01-18T08:01:20.000Z</time>
      </trkpt>
      <trkpt lat="43.35051" lon="5.66025">
        <ele>249</ele>
        <time>2019-01-18T08:01:21.000Z</time>
      </trkpt>
      <trkpt lat="43.35051" lon="5.66025">
        <ele>249</ele>
        <time>2019-01-18T08:01:22.000Z</time>
      </trkpt>
      <trkpt lat="43.35051" lon="5.66024">
        <ele>249</ele>
        <time>2019-01-18T08:01:23.000Z</time>
      </trkpt>
      <trkpt lat="43.35051" lon="5.66024">
        <ele>249</ele>
        <time>2019-01-18T08:01:24.000Z</time>
      </trkpt>
      <trkpt lat="43.35051" lon="5.66024">
        <ele>249</ele>
        <time>2019-01-18T08:01:25.000Z</time>
      </trkpt>
      <trkpt lat="43.35051" lon="5.66024">
        <ele>250</ele>
        <time>2019-01-18T08:01:26.000Z</time>
      </trkpt>
      <trkpt lat="43.35051" lon="5.66024">
        <ele>250</ele>
        <time>2019-01-18T08:01:27.000Z</time>
      </trkpt>
      <trkpt lat="43.35051" lon="5.66025">
        <ele>250</ele>
        <time>2019-01-18T08:01:28.000Z</time>
      </trkpt>
      <trkpt lat="43.3505" lon="5.66025">
        <ele>250</ele>
        <time>2019-01-18T08:01:29.000Z</time>
      </trkpt>
      <trkpt lat="43.3505" lon="5.66025">
        <ele>250</ele>
        <time>2019-01-18T08:01:30.000Z</time>
      </trkpt>
      <trkpt lat="43.3505" lon="5.66025">
        <ele>250</ele>
        <time>2019-01-18T08:01:31.000Z</time>
      </trkpt>
      <trkpt lat="43.3505" lon="5.66025">
        <ele>250</ele>
        <time>2019-01-18T08:01:32.000Z</time>
      </trkpt>
      <trkpt lat="43.3505" lon="5.66025">
        <ele>250</ele>
        <time>2019-01-18T08:01:33.000Z</time>
      </trkpt>
      <trkpt lat="43.3505" lon="5.66025">
        <ele>250</ele>
        <time>2019-01-18T08:01:34.000Z</time>
      </trkpt>
      <trkpt lat="43.3505" lon="5.66025">
        <ele>250</ele>
        <time>2019-01-18T08:01:35.000Z</time>
      </trkpt>
      <trkpt lat="43.3505" lon="5.66025">
        <ele>250</ele>
        <time>2019-01-18T08:01:36.000Z</time>
      </trkpt>
      <trkpt lat="43.3505" lon="5.66025">
        <ele>250</ele>
        <time>2019-01-18T08:01:37.000Z</time>
      </trkpt>
      <trkpt lat="43.35049" lon="5.66025">
        <ele>250</ele>
        <time>2019-01-18T08:01:38.000Z</time>
      </trkpt>
      <trkpt lat="43.35049" lon="5.66025">
        <ele>250</ele>
        <time>2019-01-18T08:01:39.000Z</time>
      </trkpt>
      <trkpt lat="43.35048" lon="5.66025">
        <ele>250</ele>
        <time>2019-01-18T08:01:40.000Z</time>
      </trkpt>
      <trkpt lat="43.35048" lon="5.66025">
        <ele>250</ele>
        <time>2019-01-18T08:01:41.000Z</time>
      </trkpt>
      <trkpt lat="43.35048" lon="5.66024">
        <ele>250</ele>
        <time>2019-01-18T08:01:42.000Z</time>
      </trkpt>
      <trkpt lat="43.35048" lon="5.66024">
        <ele>250</ele>
        <time>2019-01-18T08:01:43.000Z</time>
      </trkpt>
      <trkpt lat="43.35048" lon="5.66024">
        <ele>250</ele>
        <time>2019-01-18T08:01:44.000Z</time>
      </trkpt>
      <trkpt lat="43.35048" lon="5.66024">
        <ele>250</ele>
        <time>2019-01-18T08:01:45.000Z</time>
      </trkpt>
      <trkpt lat="43.35048" lon="5.66024">
        <ele>250</ele>
        <time>2019-01-18T08:01:46.000Z</time>
      </trkpt>
      <trkpt lat="43.35048" lon="5.66024">
        <ele>250</ele>
        <time>2019-01-18T08:01:47.000Z</time>
      </trkpt>
      <trkpt lat="43.35048" lon="5.66024">
        <ele>250</ele>
        <time>2019-01-18T08:01:48.000Z</time>
      </trkpt>
      <trkpt lat="43.35048" lon="5.66024">
        <ele>250</ele>
        <time>2019-01-18T08:01:49.000Z</time>
      </trkpt>
      <trkpt lat="43.35048" lon="5.66024">
        <ele>250</ele>
        <time>2019-01-18T08:01:50.000Z</time>
      </trkpt>
      <trkpt lat="43.35048" lon="5.66024">
        <ele>250</ele>
        <time>2019-01-18T08:01:51.000Z</time>
      </trkpt>
      <trkpt lat="43.35048" lon="5.66024">
        <ele>250</ele>
        <time>2019-01-18T08:01:52.000Z</time>
      </trkpt>
      <trkpt lat="43.35049" lon="5.66024">
        <ele>250</ele>
        <time>2019-01-18T08:01:53.000Z</time>
      </trkpt>
      <trkpt lat="43.35049" lon="5.66023">
        <ele>250</ele>
        <time>2019-01-18T08:01:54.000Z</time>
      </trkpt>
      <trkpt lat="43.3505" lon="5.66023">
        <ele>251</ele>
        <time>2019-01-18T08:01:55.000Z</time>
      </trkpt>
      <trkpt lat="43.3505" lon="5.66023">
        <ele>251</ele>
        <time>2019-01-18T08:01:56.000Z</time>
      </trkpt>
      <trkpt lat="43.3505" lon="5.66023">
        <ele>251</ele>
        <time>2019-01-18T08:01:57.000Z</time>
      </trkpt>
      <trkpt lat="43.35051" lon="5.66023">
        <ele>251</ele>
        <time>2019-01-18T08:01:58.000Z</time>
      </trkpt>
      <trkpt lat="43.35051" lon="5.66023">
        <ele>251</ele>
        <time>2019-01-18T08:01:59.000Z</time>
      </trkpt>
      <trkpt lat="43.3505" lon="5.66023">
        <ele>251</ele>
        <time>2019-01-18T08:02:00.000Z</time>
      </trkpt>
      <trkpt lat="43.3505" lon="5.66023">
        <ele>251</ele>
        <time>2019-01-18T08:02:01.000Z</time>
      </trkpt>
      <trkpt lat="43.35049" lon="5.66023">
        <ele>251</ele>
        <time>2019-01-18T08:02:02.000Z</time>
      </trkpt>
      <trkpt lat="43.35049" lon="5.66024">
        <ele>251</ele>
        <time>2019-01-18T08:02:03.000Z</time>
      </trkpt>
      <trkpt lat="43.35048" lon="5.66024">
        <ele>251</ele>
        <time>2019-01-18T08:02:04.000Z</time>
      </trkpt>
      <trkpt lat="43.35048" lon="5.66024">
        <ele>251</ele>
        <time>2019-01-18T08:02:05.000Z</time>
      </trkpt>
      <trkpt lat="43.35048" lon="5.66024">
        <ele>251</ele>
        <time>2019-01-18T08:02:06.000Z</time>
      </trkpt>
      <trkpt lat="43.35048" lon="5.66024">
        <ele>251</ele>
        <time>2019-01-18T08:02:07.000Z</time>
      </trkpt>
      <trkpt lat="43.35048" lon="5.66024">
        <ele>251</ele>
        <time>2019-01-18T08:02:08.000Z</time>
      </trkpt>
      <trkpt lat="43.35048" lon="5.66024">
        <ele>251</ele>
        <time>2019-01-18T08:02:09.000Z</time>
      </trkpt>
      <trkpt lat="43.35048" lon="5.66024">
        <ele>251</ele>
        <time>2019-01-18T08:02:10.000Z</time>
      </trkpt>
      <trkpt lat="43.35048" lon="5.66025">
        <ele>251</ele>
        <time>2019-01-18T08:02:11.000Z</time>
      </trkpt>
      <trkpt lat="43.35048" lon="5.66025">
        <ele>251</ele>
        <time>2019-01-18T08:02:12.000Z</time>
      </trkpt>
      <trkpt lat="43.35047" lon="5.66025">
        <ele>251</ele>
        <time>2019-01-18T08:02:13.000Z</time>
      </trkpt>
      <trkpt lat="43.35047" lon="5.66025">
        <ele>251</ele>
        <time>2019-01-18T08:02:14.000Z</time>
      </trkpt>
      <trkpt lat="43.35047" lon="5.66025">
        <ele>251</ele>
        <time>2019-01-18T08:02:15.000Z</time>
      </trkpt>
      <trkpt lat="43.35047" lon="5.66025">
        <ele>251</ele>
        <time>2019-01-18T08:02:16.000Z</time>
      </trkpt>
      <trkpt lat="43.35047" lon="5.66025">
        <ele>251</ele>
        <time>2019-01-18T08:02:17.000Z</time>
      </trkpt>
      <trkpt lat="43.35047" lon="5.66025">
        <ele>251</ele>
        <time>2019-01-18T08:02:18.000Z</time>
      </trkpt>
      <trkpt lat="43.35047" lon="5.66025">
        <ele>251</ele>
        <time>2019-01-18T08:02:19.000Z</time>
      </trkpt>
      <trkpt lat="43.35047" lon="5.66025">
        <ele>251</ele>
        <time>2019-01-18T08:02:20.000Z</time>
      </trkpt>
      <trkpt lat="43.35047" lon="5.66025">
        <ele>251</ele>
        <time>2019-01-18T08:02:21.000Z</time>
      </trkpt>
      <trkpt lat="43.35047" lon="5.66025">
        <ele>251</ele>
        <time>2019-01-18T08:02:22.000Z</time>
      </trkpt>
      <trkpt lat="43.35047" lon="5.66025">
        <ele>251</ele>
        <time>2019-01-18T08:02:23.000Z</time>
      </trkpt>
      <trkpt lat="43.35047" lon="5.66025">
        <ele>251</ele>
        <time>2019-01-18T08:02:24.000Z</time>
      </trkpt>
      <trkpt lat="43.35047" lon="5.66025">
        <ele>251</ele>
        <time>2019-01-18T08:02:25.000Z</time>
      </trkpt>
      <trkpt lat="43.35047" lon="5.66025">
        <ele>251</ele>
        <time>2019-01-18T08:02:26.000Z</time>
      </trkpt>
      <trkpt lat="43.35047" lon="5.66025">
        <ele>251</ele>
        <time>2019-01-18T08:02:27.000Z</time>
      </trkpt>
      <trkpt lat="43.35047" lon="5.66025">
        <ele>251</ele>
        <time>2019-01-18T08:02:28.000Z</time>
      </trkpt>
      <trkpt lat="43.35047" lon="5.66025">
        <ele>251</ele>
        <time>2019-01-18T08:02:29.000Z</time>
      </trkpt>
      <trkpt lat="43.35047" lon="5.66025">
        <ele>251</ele>
        <time>2019-01-18T08:02:30.000Z</time>
      </trkpt>
      <trkpt lat="43.35047" lon="5.66025">
        <ele>251</ele>
        <time>2019-01-18T08:02:31.000Z</time>
      </trkpt>
      <trkpt lat="43.35047" lon="5.66025">
        <ele>251</ele>
        <time>2019-01-18T08:02:32.000Z</time>
      </trkpt>
      <trkpt lat="43.35047" lon="5.66025">
        <ele>251</ele>
        <time>2019-01-18T08:02:33.000Z</time>
      </trkpt>
      <trkpt lat="43.35047" lon="5.66025">
        <ele>251</ele>
        <time>2019-01-18T08:02:34.000Z</time>
      </trkpt>
      <trkpt lat="43.35047" lon="5.66025">
        <ele>251</ele>
        <time>2019-01-18T08:02:35.000Z</time>
      </trkpt>
      <trkpt lat="43.35047" lon="5.66025">
        <ele>251</ele>
        <time>2019-01-18T08:02:36.000Z</time>
      </trkpt>
      <trkpt lat="43.35047" lon="5.66026">
        <ele>251</ele>
        <time>2019-01-18T08:02:37.000Z</time>
      </trkpt>
      <trkpt lat="43.35047" lon="5.66025">
        <ele>251</ele>
        <time>2019-01-18T08:02:38.000Z</time>
      </trkpt>
      <trkpt lat="43.35047" lon="5.66025">
        <ele>251</ele>
        <time>2019-01-18T08:02:39.000Z</time>
      </trkpt>
      <trkpt lat="43.35047" lon="5.66025">
        <ele>251</ele>
        <time>2019-01-18T08:02:40.000Z</time>
      </trkpt>
      <trkpt lat="43.35047" lon="5.66025">
        <ele>251</ele>
        <time>2019-01-18T08:02:41.000Z</time>
      </trkpt>
      <trkpt lat="43.35047" lon="5.66025">
        <ele>251</ele>
        <time>2019-01-18T08:02:42.000Z</time>
      </trkpt>
      <trkpt lat="43.35047" lon="5.66025">
        <ele>251</ele>
        <time>2019-01-18T08:02:43.000Z</time>
      </trkpt>
      <trkpt lat="43.35047" lon="5.66026">
        <ele>251</ele>
        <time>2019-01-18T08:02:44.000Z</time>
      </trkpt>
      <trkpt lat="43.35047" lon="5.66026">
        <ele>251</ele>
        <time>2019-01-18T08:02:45.000Z</time>
      </trkpt>
      <trkpt lat="43.35047" lon="5.66026">
        <ele>251</ele>
        <time>2019-01-18T08:02:46.000Z</time>
      </trkpt>
      <trkpt lat="43.35047" lon="5.66026">
        <ele>251</ele>
        <time>2019-01-18T08:02:47.000Z</time>
      </trkpt>
      <trkpt lat="43.35047" lon="5.66026">
        <ele>251</ele>
        <time>2019-01-18T08:02:48.000Z</time>
      </trkpt>
      <trkpt lat="43.35047" lon="5.66026">
        <ele>251</ele>
        <time>2019-01-18T08:02:49.000Z</time>
      </trkpt>
      <trkpt lat="43.35047" lon="5.66026">
        <ele>251</ele>
        <time>2019-01-18T08:02:50.000Z</time>
      </trkpt>
      <trkpt lat="43.35047" lon="5.66026">
        <ele>251</ele>
        <time>2019-01-18T08:02:51.000Z</time>
      </trkpt>
      <trkpt lat="43.35047" lon="5.66026">
        <ele>251</ele>
        <time>2019-01-18T08:02:52.000Z</time>
      </trkpt>
      <trkpt lat="43.35047" lon="5.66026">
        <ele>251</ele>
        <time>2019-01-18T08:02:53.000Z</time>
      </trkpt>
      <trkpt lat="43.35047" lon="5.66026">
        <ele>251</ele>
        <time>2019-01-18T08:02:54.000Z</time>
      </trkpt>
      <trkpt lat="43.35047" lon="5.66026">
        <ele>251</ele>
        <time>2019-01-18T08:02:55.000Z</time>
      </trkpt>
      <trkpt lat="43.35047" lon="5.66026">
        <ele>251</ele>
        <time>2019-01-18T08:02:56.000Z</time>
      </trkpt>
      <trkpt lat="43.35047" lon="5.66026">
        <ele>251</ele>
        <time>2019-01-18T08:02:57.000Z</time>
      </trkpt>
      <trkpt lat="43.35047" lon="5.66026">
        <ele>251</ele>
        <time>2019-01-18T08:02:58.000Z</time>
      </trkpt>
      <trkpt lat="43.35047" lon="5.66026">
        <ele>251</ele>
        <time>2019-01-18T08:02:59.000Z</time>
      </trkpt>
      <trkpt lat="43.35047" lon="5.66026">
        <ele>251</ele>
        <time>2019-01-18T08:03:00.000Z</time>
      </trkpt>
      <trkpt lat="43.35047" lon="5.66026">
        <ele>251</ele>
        <time>2019-01-18T08:03:01.000Z</time>
      </trkpt>
      <trkpt lat="43.35047" lon="5.66026">
        <ele>251</ele>
        <time>2019-01-18T08:03:02.000Z</time>
      </trkpt>
      <trkpt lat="43.35047" lon="5.66026">
        <ele>251</ele>
        <time>2019-01-18T08:03:03.000Z</time>
      </trkpt>
      <trkpt lat="43.35047" lon="5.66026">
        <ele>251</ele>
        <time>2019-01-18T08:03:04.000Z</time>
      </trkpt>
      <trkpt lat="43.35047" lon="5.66026">
        <ele>251</ele>
        <time>2019-01-18T08:03:05.000Z</time>
      </trkpt>
      <trkpt lat="43.35047" lon="5.66026">
        <ele>251</ele>
        <time>2019-01-18T08:03:06.000Z</time>
      </trkpt>
      <trkpt lat="43.35047" lon="5.66026">
        <ele>251</ele>
        <time>2019-01-18T08:03:07.000Z</time>
      </trkpt>
      <trkpt lat="43.35047" lon="5.66026">
        <ele>251</ele>
        <time>2019-01-18T08:03:08.000Z</time>
      </trkpt>
      <trkpt lat="43.35047" lon="5.66026">
        <ele>251</ele>
        <time>2019-01-18T08:03:09.000Z</time>
      </trkpt>
      <trkpt lat="43.35047" lon="5.66026">
        <ele>251</ele>
        <time>2019-01-18T08:03:10.000Z</time>
      </trkpt>
      <trkpt lat="43.35047" lon="5.66026">
        <ele>251</ele>
        <time>2019-01-18T08:03:11.000Z</time>
      </trkpt>
      <trkpt lat="43.35047" lon="5.66026">
        <ele>251</ele>
        <time>2019-01-18T08:03:12.000Z</time>
      </trkpt>
      <trkpt lat="43.35047" lon="5.66026">
        <ele>251</ele>
        <time>2019-01-18T08:03:13.000Z</time>
      </trkpt>
      <trkpt lat="43.35047" lon="5.66026">
        <ele>251</ele>
        <time>2019-01-18T08:03:14.000Z</time>
      </trkpt>
      <trkpt lat="43.35047" lon="5.66026">
        <ele>251</ele>
        <time>2019-01-18T08:03:15.000Z</time>
      </trkpt>
      <trkpt lat="43.35047" lon="5.66026">
        <ele>251</ele>
        <time>2019-01-18T08:03:16.000Z</time>
      </trkpt>
      <trkpt lat="43.35047" lon="5.66026">
        <ele>251</ele>
        <time>2019-01-18T08:03:17.000Z</time>
      </trkpt>
      <trkpt lat="43.35047" lon="5.66026">
        <ele>251</ele>
        <time>2019-01-18T08:03:18.000Z</time>
      </trkpt>
      <trkpt lat="43.35047" lon="5.66026">
        <ele>251</ele>
        <time>2019-01-18T08:03:19.000Z</time>
      </trkpt>
      <trkpt lat="43.35047" lon="5.66026">
        <ele>251</ele>
        <time>2019-01-18T08:03:20.000Z</time>
      </trkpt>
      <trkpt lat="43.35047" lon="5.66026">
        <ele>251</ele>
        <time>2019-01-18T08:03:21.000Z</time>
      </trkpt>
      <trkpt lat="43.35047" lon="5.66026">
        <ele>251</ele>
        <time>2019-01-18T08:03:22.000Z</time>
      </trkpt>
      <trkpt lat="43.35047" lon="5.66026">
        <ele>251</ele>
        <time>2019-01-18T08:03:23.000Z</time>
      </trkpt>
      <trkpt lat="43.35047" lon="5.66026">
        <ele>251</ele>
        <time>2019-01-18T08:03:24.000Z</time>
      </trkpt>
      <trkpt lat="43.35048" lon="5.66026">
        <ele>251</ele>
        <time>2019-01-18T08:03:25.000Z</time>
      </trkpt>
      <trkpt lat="43.35048" lon="5.66026">
        <ele>251</ele>
        <time>2019-01-18T08:03:26.000Z</time>
      </trkpt>
      <trkpt lat="43.35047" lon="5.66026">
        <ele>251</ele>
        <time>2019-01-18T08:03:27.000Z</time>
      </trkpt>
      <trkpt lat="43.35047" lon="5.66025">
        <ele>251</ele>
        <time>2019-01-18T08:03:28.000Z</time>
      </trkpt>
      <trkpt lat="43.35046" lon="5.66024">
        <ele>251</ele>
        <time>2019-01-18T08:03:29.000Z</time>
      </trkpt>
      <trkpt lat="43.35046" lon="5.66024">
        <ele>251</ele>
        <time>2019-01-18T08:03:30.000Z</time>
      </trkpt>
      <trkpt lat="43.35045" lon="5.66023">
        <ele>251</ele>
        <time>2019-01-18T08:03:31.000Z</time>
      </trkpt>
      <trkpt lat="43.35044" lon="5.66022">
        <ele>251</ele>
        <time>2019-01-18T08:03:32.000Z</time>
      </trkpt>
      <trkpt lat="43.35044" lon="5.66022">
        <ele>251</ele>
        <time>2019-01-18T08:03:33.000Z</time>
      </trkpt>
      <trkpt lat="43.35043" lon="5.66021">
        <ele>251</ele>
        <time>2019-01-18T08:03:34.000Z</time>
      </trkpt>
      <trkpt lat="43.35043" lon="5.6602">
        <ele>250</ele>
        <time>2019-01-18T08:03:35.000Z</time>
      </trkpt>
      <trkpt lat="43.35043" lon="5.6602">
        <ele>250</ele>
        <time>2019-01-18T08:03:36.000Z</time>
      </trkpt>
      <trkpt lat="43.35042" lon="5.66019">
        <ele>250</ele>
        <time>2019-01-18T08:03:37.000Z</time>
      </trkpt>
      <trkpt lat="43.35042" lon="5.66018">
        <ele>250</ele>
        <time>2019-01-18T08:03:38.000Z</time>
      </trkpt>
      <trkpt lat="43.35041" lon="5.66018">
        <ele>250</ele>
        <time>2019-01-18T08:03:39.000Z</time>
      </trkpt>
      <trkpt lat="43.35041" lon="5.66017">
        <ele>250</ele>
        <time>2019-01-18T08:03:40.000Z</time>
      </trkpt>
      <trkpt lat="43.3504" lon="5.66017">
        <ele>250</ele>
        <time>2019-01-18T08:03:41.000Z</time>
      </trkpt>
      <trkpt lat="43.35039" lon="5.66017">
        <ele>250</ele>
        <time>2019-01-18T08:03:42.000Z</time>
      </trkpt>
      <trkpt lat="43.35038" lon="5.66017">
        <ele>250</ele>
        <time>2019-01-18T08:03:43.000Z</time>
      </trkpt>
      <trkpt lat="43.35037" lon="5.66018">
        <ele>250</ele>
        <time>2019-01-18T08:03:44.000Z</time>
      </trkpt>
      <trkpt lat="43.35036" lon="5.66019">
        <ele>250</ele>
        <time>2019-01-18T08:03:45.000Z</time>
      </trkpt>
      <trkpt lat="43.35035" lon="5.66019">
        <ele>250</ele>
        <time>2019-01-18T08:03:46.000Z</time>
      </trkpt>
      <trkpt lat="43.35034" lon="5.6602">
        <ele>250</ele>
        <time>2019-01-18T08:03:47.000Z</time>
      </trkpt>
      <trkpt lat="43.35033" lon="5.6602">
        <ele>250</ele>
        <time>2019-01-18T08:03:48.000Z</time>
      </trkpt>
      <trkpt lat="43.35031" lon="5.6602">
        <ele>250</ele>
        <time>2019-01-18T08:03:49.000Z</time>
      </trkpt>
      <trkpt lat="43.3503" lon="5.66021">
        <ele>250</ele>
        <time>2019-01-18T08:03:50.000Z</time>
      </trkpt>
      <trkpt lat="43.35029" lon="5.66021">
        <ele>250</ele>
        <time>2019-01-18T08:03:51.000Z</time>
      </trkpt>
      <trkpt lat="43.35028" lon="5.66022">
        <ele>250</ele>
        <time>2019-01-18T08:03:52.000Z</time>
      </trkpt>
      <trkpt lat="43.35027" lon="5.66022">
        <ele>250</ele>
        <time>2019-01-18T08:03:53.000Z</time>
      </trkpt>
      <trkpt lat="43.35026" lon="5.66023">
        <ele>250</ele>
        <time>2019-01-18T08:03:54.000Z</time>
      </trkpt>
      <trkpt lat="43.35025" lon="5.66023">
        <ele>250</ele>
        <time>2019-01-18T08:03:55.000Z</time>
      </trkpt>
      <trkpt lat="43.35023" lon="5.66023">
        <ele>250</ele>
        <time>2019-01-18T08:03:56.000Z</time>
      </trkpt>
      <trkpt lat="43.35022" lon="5.66023">
        <ele>250</ele>
        <time>2019-01-18T08:03:57.000Z</time>
      </trkpt>
      <trkpt lat="43.35021" lon="5.66024">
        <ele>250</ele>
        <time>2019-01-18T08:03:58.000Z</time>
      </trkpt>
      <trkpt lat="43.3502" lon="5.66024">
        <ele>250</ele>
        <time>2019-01-18T08:03:59.000Z</time>
      </trkpt>
      <trkpt lat="43.35019" lon="5.66025">
        <ele>251</ele>
        <time>2019-01-18T08:04:00.000Z</time>
      </trkpt>
      <trkpt lat="43.35017" lon="5.66025">
        <ele>251</ele>
        <time>2019-01-18T08:04:01.000Z</time>
      </trkpt>
      <trkpt lat="43.35016" lon="5.66025">
        <ele>251</ele>
        <time>2019-01-18T08:04:02.000Z</time>
      </trkpt>
      <trkpt lat="43.35015" lon="5.66026">
        <ele>251</ele>
        <time>2019-01-18T08:04:03.000Z</time>
      </trkpt>
      <trkpt lat="43.35014" lon="5.66026">
        <ele>251</ele>
        <time>2019-01-18T08:04:04.000Z</time>
      </trkpt>
      <trkpt lat="43.35012" lon="5.66026">
        <ele>251</ele>
        <time>2019-01-18T08:04:05.000Z</time>
      </trkpt>
      <trkpt lat="43.35011" lon="5.66026">
        <ele>251</ele>
        <time>2019-01-18T08:04:06.000Z</time>
      </trkpt>
      <trkpt lat="43.3501" lon="5.66026">
        <ele>251</ele>
        <time>2019-01-18T08:04:07.000Z</time>
      </trkpt>
      <trkpt lat="43.35009" lon="5.66026">
        <ele>251</ele>
        <time>2019-01-18T08:04:08.000Z</time>
      </trkpt>
      <trkpt lat="43.35008" lon="5.66027">
        <ele>251</ele>
        <time>2019-01-18T08:04:09.000Z</time>
      </trkpt>
      <trkpt lat="43.35006" lon="5.66027">
        <ele>251</ele>
        <time>2019-01-18T08:04:10.000Z</time>
      </trkpt>
      <trkpt lat="43.35005" lon="5.66026">
        <ele>251</ele>
        <time>2019-01-18T08:04:11.000Z</time>
      </trkpt>
      <trkpt lat="43.35004" lon="5.66026">
        <ele>252</ele>
        <time>2019-01-18T08:04:12.000Z</time>
      </trkpt>
      <trkpt lat="43.35003" lon="5.66026">
        <ele>252</ele>
        <time>2019-01-18T08:04:13.000Z</time>
      </trkpt>
      <trkpt lat="43.35002" lon="5.66027">
        <ele>252</ele>
        <time>2019-01-18T08:04:14.000Z</time>
      </trkpt>
      <trkpt lat="43.35" lon="5.66027">
        <ele>252</ele>
        <time>2019-01-18T08:04:15.000Z</time>
      </trkpt>
      <trkpt lat="43.34999" lon="5.66027">
        <ele>252</ele>
        <time>2019-01-18T08:04:16.000Z</time>
      </trkpt>
      <trkpt lat="43.34998" lon="5.66027">
        <ele>252</ele>
        <time>2019-01-18T08:04:17.000Z</time>
      </trkpt>
      <trkpt lat="43.34997" lon="5.66027">
        <ele>252</ele>
        <time>2019-01-18T08:04:18.000Z</time>
      </trkpt>
      <trkpt lat="43.34996" lon="5.66027">
        <ele>252</ele>
        <time>2019-01-18T08:04:19.000Z</time>
      </trkpt>
      <trkpt lat="43.34994" lon="5.66027">
        <ele>252</ele>
        <time>2019-01-18T08:04:20.000Z</time>
      </trkpt>
      <trkpt lat="43.34993" lon="5.66028">
        <ele>252</ele>
        <time>2019-01-18T08:04:21.000Z</time>
      </trkpt>
      <trkpt lat="43.34992" lon="5.66028">
        <ele>252</ele>
        <time>2019-01-18T08:04:22.000Z</time>
      </trkpt>
      <trkpt lat="43.34991" lon="5.66029">
        <ele>253</ele>
        <time>2019-01-18T08:04:23.000Z</time>
      </trkpt>
      <trkpt lat="43.34989" lon="5.66029">
        <ele>253</ele>
        <time>2019-01-18T08:04:24.000Z</time>
      </trkpt>
      <trkpt lat="43.34988" lon="5.66029">
        <ele>253</ele>
        <time>2019-01-18T08:04:25.000Z</time>
      </trkpt>
      <trkpt lat="43.34987" lon="5.6603">
        <ele>253</ele>
        <time>2019-01-18T08:04:26.000Z</time>
      </trkpt>
      <trkpt lat="43.34986" lon="5.6603">
        <ele>253</ele>
        <time>2019-01-18T08:04:27.000Z</time>
      </trkpt>
      <trkpt lat="43.34984" lon="5.66031">
        <ele>253</ele>
        <time>2019-01-18T08:04:28.000Z</time>
      </trkpt>
      <trkpt lat="43.34983" lon="5.66031">
        <ele>254</ele>
        <time>2019-01-18T08:04:29.000Z</time>
      </trkpt>
      <trkpt lat="43.34982" lon="5.66032">
        <ele>254</ele>
        <time>2019-01-18T08:04:30.000Z</time>
      </trkpt>
      <trkpt lat="43.34981" lon="5.66032">
        <ele>254</ele>
        <time>2019-01-18T08:04:31.000Z</time>
      </trkpt>
      <trkpt lat="43.34979" lon="5.66033">
        <ele>254</ele>
        <time>2019-01-18T08:04:32.000Z</time>
      </trkpt>
      <trkpt lat="43.34978" lon="5.66033">
        <ele>254</ele>
        <time>2019-01-18T08:04:33.000Z</time>
      </trkpt>
      <trkpt lat="43.34977" lon="5.66034">
        <ele>254</ele>
        <time>2019-01-18T08:04:34.000Z</time>
      </trkpt>
      <trkpt lat="43.34976" lon="5.66034">
        <ele>254</ele>
        <time>2019-01-18T08:04:35.000Z</time>
      </trkpt>
      <trkpt lat="43.34975" lon="5.66035">
        <ele>255</ele>
        <time>2019-01-18T08:04:36.000Z</time>
      </trkpt>
      <trkpt lat="43.34974" lon="5.66035">
        <ele>255</ele>
        <time>2019-01-18T08:04:37.000Z</time>
      </trkpt>
      <trkpt lat="43.34973" lon="5.66036">
        <ele>255</ele>
        <time>2019-01-18T08:04:38.000Z</time>
      </trkpt>
      <trkpt lat="43.34972" lon="5.66037">
        <ele>255</ele>
        <time>2019-01-18T08:04:39.000Z</time>
      </trkpt>
      <trkpt lat="43.34971" lon="5.66037">
        <ele>255</ele>
        <time>2019-01-18T08:04:40.000Z</time>
      </trkpt>
      <trkpt lat="43.34971" lon="5.66037">
        <ele>255</ele>
        <time>2019-01-18T08:04:41.000Z</time>
      </trkpt>
      <trkpt lat="43.34971" lon="5.66038">
        <ele>255</ele>
        <time>2019-01-18T08:04:42.000Z</time>
      </trkpt>
      <trkpt lat="43.3497" lon="5.66039">
        <ele>255</ele>
        <time>2019-01-18T08:04:43.000Z</time>
      </trkpt>
      <trkpt lat="43.3497" lon="5.66041">
        <ele>255</ele>
        <time>2019-01-18T08:04:44.000Z</time>
      </trkpt>
      <trkpt lat="43.34969" lon="5.66042">
        <ele>255</ele>
        <time>2019-01-18T08:04:45.000Z</time>
      </trkpt>
      <trkpt lat="43.34969" lon="5.66044">
        <ele>255</ele>
        <time>2019-01-18T08:04:46.000Z</time>
      </trkpt>
      <trkpt lat="43.34969" lon="5.66045">
        <ele>255</ele>
        <time>2019-01-18T08:04:47.000Z</time>
      </trkpt>
      <trkpt lat="43.34968" lon="5.66046">
        <ele>255</ele>
        <time>2019-01-18T08:04:48.000Z</time>
      </trkpt>
      <trkpt lat="43.34968" lon="5.66048">
        <ele>254</ele>
        <time>2019-01-18T08:04:49.000Z</time>
      </trkpt>
      <trkpt lat="43.34968" lon="5.66049">
        <ele>254</ele>
        <time>2019-01-18T08:04:50.000Z</time>
      </trkpt>
      <trkpt lat="43.34967" lon="5.66051">
        <ele>254</ele>
        <time>2019-01-18T08:04:51.000Z</time>
      </trkpt>
      <trkpt lat="43.34967" lon="5.66052">
        <ele>254</ele>
        <time>2019-01-18T08:04:52.000Z</time>
      </trkpt>
      <trkpt lat="43.34966" lon="5.66053">
        <ele>254</ele>
        <time>2019-01-18T08:04:53.000Z</time>
      </trkpt>
      <trkpt lat="43.34966" lon="5.66054">
        <ele>253</ele>
        <time>2019-01-18T08:04:54.000Z</time>
      </trkpt>
      <trkpt lat="43.34965" lon="5.66055">
        <ele>253</ele>
        <time>2019-01-18T08:04:55.000Z</time>
      </trkpt>
      <trkpt lat="43.34965" lon="5.66056">
        <ele>253</ele>
        <time>2019-01-18T08:04:56.000Z</time>
      </trkpt>
      <trkpt lat="43.34965" lon="5.66057">
        <ele>253</ele>
        <time>2019-01-18T08:04:57.000Z</time>
      </trkpt>
      <trkpt lat="43.34964" lon="5.66058">
        <ele>253</ele>
        <time>2019-01-18T08:04:58.000Z</time>
      </trkpt>
      <trkpt lat="43.34963" lon="5.66059">
        <ele>252</ele>
        <time>2019-01-18T08:04:59.000Z</time>
      </trkpt>
      <trkpt lat="43.34963" lon="5.6606">
        <ele>252</ele>
        <time>2019-01-18T08:05:00.000Z</time>
      </trkpt>
      <trkpt lat="43.34962" lon="5.6606">
        <ele>252</ele>
        <time>2019-01-18T08:05:01.000Z</time>
      </trkpt>
      <trkpt lat="43.34961" lon="5.66061">
        <ele>252</ele>
        <time>2019-01-18T08:05:02.000Z</time>
      </trkpt>
      <trkpt lat="43.34961" lon="5.66062">
        <ele>252</ele>
        <time>2019-01-18T08:05:03.000Z</time>
      </trkpt>
      <trkpt lat="43.34961" lon="5.66063">
        <ele>252</ele>
        <time>2019-01-18T08:05:04.000Z</time>
      </trkpt>
      <trkpt lat="43.3496" lon="5.66064">
        <ele>251</ele>
        <time>2019-01-18T08:05:05.000Z</time>
      </trkpt>
      <trkpt lat="43.3496" lon="5.66065">
        <ele>251</ele>
        <time>2019-01-18T08:05:06.000Z</time>
      </trkpt>
      <trkpt lat="43.3496" lon="5.66065">
        <ele>251</ele>
        <time>2019-01-18T08:05:07.000Z</time>
      </trkpt>
      <trkpt lat="43.3496" lon="5.66065">
        <ele>251</ele>
        <time>2019-01-18T08:05:08.000Z</time>
      </trkpt>
      <trkpt lat="43.3496" lon="5.66065">
        <ele>251</ele>
        <time>2019-01-18T08:05:09.000Z</time>
      </trkpt>
      <trkpt lat="43.3496" lon="5.66066">
        <ele>250</ele>
        <time>2019-01-18T08:05:10.000Z</time>
      </trkpt>
      <trkpt lat="43.3496" lon="5.66067">
        <ele>250</ele>
        <time>2019-01-18T08:05:11.000Z</time>
      </trkpt>
      <trkpt lat="43.3496" lon="5.66067">
        <ele>250</ele>
        <time>2019-01-18T08:05:12.000Z</time>
      </trkpt>
      <trkpt lat="43.3496" lon="5.66068">
        <ele>250</ele>
        <time>2019-01-18T08:05:13.000Z</time>
      </trkpt>
      <trkpt lat="43.3496" lon="5.66069">
        <ele>250</ele>
        <time>2019-01-18T08:05:14.000Z</time>
      </trkpt>
      <trkpt lat="43.3496" lon="5.66069">
        <ele>250</ele>
        <time>2019-01-18T08:05:15.000Z</time>
      </trkpt>
      <trkpt lat="43.34959" lon="5.66069">
        <ele>250</ele>
        <time>2019-01-18T08:05:16.000Z</time>
      </trkpt>
      <trkpt lat="43.34959" lon="5.66069">
        <ele>250</ele>
        <time>2019-01-18T08:05:17.000Z</time>
      </trkpt>
      <trkpt lat="43.34959" lon="5.66069">
        <ele>250</ele>
        <time>2019-01-18T08:05:18.000Z</time>
      </trkpt>
      <trkpt lat="43.34958" lon="5.66068">
        <ele>250</ele>
        <time>2019-01-18T08:05:19.000Z</time>
      </trkpt>
      <trkpt lat="43.34958" lon="5.66068">
        <ele>250</ele>
        <time>2019-01-18T08:05:20.000Z</time>
      </trkpt>
      <trkpt lat="43.34958" lon="5.66068">
        <ele>250</ele>
        <time>2019-01-18T08:05:21.000Z</time>
      </trkpt>
      <trkpt lat="43.34958" lon="5.66068">
        <ele>249</ele>
        <time>2019-01-18T08:05:22.000Z</time>
      </trkpt>
      <trkpt lat="43.34957" lon="5.66069">
        <ele>249</ele>
        <time>2019-01-18T08:05:23.000Z</time>
      </trkpt>
      <trkpt lat="43.34957" lon="5.66069">
        <ele>249</ele>
        <time>2019-01-18T08:05:24.000Z</time>
      </trkpt>
      <trkpt lat="43.34957" lon="5.66069">
        <ele>249</ele>
        <time>2019-01-18T08:05:25.000Z</time>
      </trkpt>
      <trkpt lat="43.34957" lon="5.66069">
        <ele>249</ele>
        <time>2019-01-18T08:05:26.000Z</time>
      </trkpt>
      <trkpt lat="43.34957" lon="5.66069">
        <ele>249</ele>
        <time>2019-01-18T08:05:27.000Z</time>
      </trkpt>
      <trkpt lat="43.34957" lon="5.66069">
        <ele>249</ele>
        <time>2019-01-18T08:05:28.000Z</time>
      </trkpt>
      <trkpt lat="43.34957" lon="5.66069">
        <ele>249</ele>
        <time>2019-01-18T08:05:29.000Z</time>
      </trkpt>
      <trkpt lat="43.34957" lon="5.66069">
        <ele>249</ele>
        <time>2019-01-18T08:05:30.000Z</time>
      </trkpt>
      <trkpt lat="43.34957" lon="5.66069">
        <ele>249</ele>
        <time>2019-01-18T08:05:31.000Z</time>
      </trkpt>
      <trkpt lat="43.34957" lon="5.66069">
        <ele>249</ele>
        <time>2019-01-18T08:05:32.000Z</time>
      </trkpt>
      <trkpt lat="43.34957" lon="5.66069">
        <ele>249</ele>
        <time>2019-01-18T08:05:33.000Z</time>
      </trkpt>
      <trkpt lat="43.34957" lon="5.66069">
        <ele>249</ele>
        <time>2019-01-18T08:05:34.000Z</time>
      </trkpt>
      <trkpt lat="43.34957" lon="5.66069">
        <ele>249</ele>
        <time>2019-01-18T08:05:35.000Z</time>
      </trkpt>
      <trkpt lat="43.34957" lon="5.66069">
        <ele>249</ele>
        <time>2019-01-18T08:05:36.000Z</time>
      </trkpt>
      <trkpt lat="43.34957" lon="5.66069">
        <ele>249</ele>
        <time>2019-01-18T08:05:37.000Z</time>
      </trkpt>
      <trkpt lat="43.34957" lon="5.66069">
        <ele>249</ele>
        <time>2019-01-18T08:05:38.000Z</time>
      </trkpt>
      <trkpt lat="43.34957" lon="5.66069">
        <ele>249</ele>
        <time>2019-01-18T08:05:39.000Z</time>
      </trkpt>
      <trkpt lat="43.34957" lon="5.66069">
        <ele>249</ele>
        <time>2019-01-18T08:05:40.000Z</time>
      </trkpt>
      <trkpt lat="43.34957" lon="5.66069">
        <ele>249</ele>
        <time>2019-01-18T08:05:41.000Z</time>
      </trkpt>
      <trkpt lat="43.34956" lon="5.66069">
        <ele>249</ele>
        <time>2019-01-18T08:05:42.000Z</time>
      </trkpt>
      <trkpt lat="43.34956" lon="5.66069">
        <ele>249</ele>
        <time>2019-01-18T08:05:43.000Z</time>
      </trkpt>
      <trkpt lat="43.34956" lon="5.66069">
        <ele>249</ele>
        <time>2019-01-18T08:05:44.000Z</time>
      </trkpt>
      <trkpt lat="43.34956" lon="5.66069">
        <ele>249</ele>
        <time>2019-01-18T08:05:45.000Z</time>
      </trkpt>
      <trkpt lat="43.34956" lon="5.66069">
        <ele>249</ele>
        <time>2019-01-18T08:05:46.000Z</time>
      </trkpt>
      <trkpt lat="43.34956" lon="5.66069">
        <ele>249</ele>
        <time>2019-01-18T08:05:47.000Z</time>
      </trkpt>
      <trkpt lat="43.34956" lon="5.66068">
        <ele>249</ele>
        <time>2019-01-18T08:05:48.000Z</time>
      </trkpt>
      <trkpt lat="43.34956" lon="5.66068">
        <ele>249</ele>
        <time>2019-01-18T08:05:49.000Z</time>
      </trkpt>
      <trkpt lat="43.34956" lon="5.66068">
        <ele>249</ele>
        <time>2019-01-18T08:05:50.000Z</time>
      </trkpt>
      <trkpt lat="43.34956" lon="5.66068">
        <ele>249</ele>
        <time>2019-01-18T08:05:51.000Z</time>
      </trkpt>
      <trkpt lat="43.34956" lon="5.66068">
        <ele>249</ele>
        <time>2019-01-18T08:05:52.000Z</time>
      </trkpt>
      <trkpt lat="43.34956" lon="5.66068">
        <ele>249</ele>
        <time>2019-01-18T08:05:53.000Z</time>
      </trkpt>
      <trkpt lat="43.34956" lon="5.66068">
        <ele>249</ele>
        <time>2019-01-18T08:05:54.000Z</time>
      </trkpt>
      <trkpt lat="43.34956" lon="5.66068">
        <ele>249</ele>
        <time>2019-01-18T08:05:55.000Z</time>
      </trkpt>
      <trkpt lat="43.34956" lon="5.66067">
        <ele>249</ele>
        <time>2019-01-18T08:05:56.000Z</time>
      </trkpt>
      <trkpt lat="43.34956" lon="5.66067">
        <ele>249</ele>
        <time>2019-01-18T08:05:57.000Z</time>
      </trkpt>
      <trkpt lat="43.34956" lon="5.66067">
        <ele>249</ele>
        <time>2019-01-18T08:05:58.000Z</time>
      </trkpt>
      <trkpt lat="43.34956" lon="5.66067">
        <ele>249</ele>
        <time>2019-01-18T08:05:59.000Z</time>
      </trkpt>
      <trkpt lat="43.34956" lon="5.66067">
        <ele>249</ele>
        <time>2019-01-18T08:06:00.000Z</time>
      </trkpt>
      <trkpt lat="43.34956" lon="5.66067">
        <ele>249</ele>
        <time>2019-01-18T08:06:01.000Z</time>
      </trkpt>
      <trkpt lat="43.34956" lon="5.66067">
        <ele>249</ele>
        <time>2019-01-18T08:06:02.000Z</time>
      </trkpt>
      <trkpt lat="43.34956" lon="5.66067">
        <ele>249</ele>
        <time>2019-01-18T08:06:03.000Z</time>
      </trkpt>
      <trkpt lat="43.34956" lon="5.66067">
        <ele>250</ele>
        <time>2019-01-18T08:06:04.000Z</time>
      </trkpt>
      <trkpt lat="43.34956" lon="5.66067">
        <ele>250</ele>
        <time>2019-01-18T08:06:05.000Z</time>
      </trkpt>
      <trkpt lat="43.34956" lon="5.66067">
        <ele>250</ele>
        <time>2019-01-18T08:06:06.000Z</time>
      </trkpt>
      <trkpt lat="43.34956" lon="5.66067">
        <ele>250</ele>
        <time>2019-01-18T08:06:07.000Z</time>
      </trkpt>
      <trkpt lat="43.34956" lon="5.66067">
        <ele>250</ele>
        <time>2019-01-18T08:06:08.000Z</time>
      </trkpt>
      <trkpt lat="43.34956" lon="5.66067">
        <ele>250</ele>
        <time>2019-01-18T08:06:09.000Z</time>
      </trkpt>
      <trkpt lat="43.34955" lon="5.66067">
        <ele>250</ele>
        <time>2019-01-18T08:06:10.000Z</time>
      </trkpt>
      <trkpt lat="43.34955" lon="5.66067">
        <ele>250</ele>
        <time>2019-01-18T08:06:11.000Z</time>
      </trkpt>
      <trkpt lat="43.34955" lon="5.66067">
        <ele>250</ele>
        <time>2019-01-18T08:06:12.000Z</time>
      </trkpt>
      <trkpt lat="43.34955" lon="5.66067">
        <ele>250</ele>
        <time>2019-01-18T08:06:13.000Z</time>
      </trkpt>
      <trkpt lat="43.34955" lon="5.66067">
        <ele>250</ele>
        <time>2019-01-18T08:06:14.000Z</time>
      </trkpt>
      <trkpt lat="43.34955" lon="5.66067">
        <ele>250</ele>
        <time>2019-01-18T08:06:15.000Z</time>
      </trkpt>
      <trkpt lat="43.34955" lon="5.66067">
        <ele>250</ele>
        <time>2019-01-18T08:06:16.000Z</time>
      </trkpt>
      <trkpt lat="43.34955" lon="5.66067">
        <ele>250</ele>
        <time>2019-01-18T08:06:17.000Z</time>
      </trkpt>
      <trkpt lat="43.34955" lon="5.66067">
        <ele>250</ele>
        <time>2019-01-18T08:06:18.000Z</time>
      </trkpt>
      <trkpt lat="43.34955" lon="5.66067">
        <ele>250</ele>
        <time>2019-01-18T08:06:19.000Z</time>
      </trkpt>
      <trkpt lat="43.34955" lon="5.66067">
        <ele>250</ele>
        <time>2019-01-18T08:06:20.000Z</time>
      </trkpt>
      <trkpt lat="43.34955" lon="5.66067">
        <ele>250</ele>
        <time>2019-01-18T08:06:21.000Z</time>
      </trkpt>
      <trkpt lat="43.34955" lon="5.66068">
        <ele>250</ele>
        <time>2019-01-18T08:06:22.000Z</time>
      </trkpt>
      <trkpt lat="43.34956" lon="5.66068">
        <ele>250</ele>
        <time>2019-01-18T08:06:23.000Z</time>
      </trkpt>
      <trkpt lat="43.34956" lon="5.66068">
        <ele>250</ele>
        <time>2019-01-18T08:06:24.000Z</time>
      </trkpt>
      <trkpt lat="43.34956" lon="5.66069">
        <ele>250</ele>
        <time>2019-01-18T08:06:25.000Z</time>
      </trkpt>
      <trkpt lat="43.34957" lon="5.6607">
        <ele>250</ele>
        <time>2019-01-18T08:06:26.000Z</time>
      </trkpt>
      <trkpt lat="43.34957" lon="5.66071">
        <ele>250</ele>
        <time>2019-01-18T08:06:27.000Z</time>
      </trkpt>
      <trkpt lat="43.34957" lon="5.66072">
        <ele>250</ele>
        <time>2019-01-18T08:06:28.000Z</time>
      </trkpt>
      <trkpt lat="43.34957" lon="5.66073">
        <ele>250</ele>
        <time>2019-01-18T08:06:29.000Z</time>
      </trkpt>
      <trkpt lat="43.34958" lon="5.66074">
        <ele>250</ele>
        <time>2019-01-18T08:06:30.000Z</time>
      </trkpt>
      <trkpt lat="43.34958" lon="5.66075">
        <ele>250</ele>
        <time>2019-01-18T08:06:31.000Z</time>
      </trkpt>
      <trkpt lat="43.34959" lon="5.66076">
        <ele>250</ele>
        <time>2019-01-18T08:06:32.000Z</time>
      </trkpt>
      <trkpt lat="43.34959" lon="5.66078">
        <ele>250</ele>
        <time>2019-01-18T08:06:33.000Z</time>
      </trkpt>
      <trkpt lat="43.3496" lon="5.66079">
        <ele>250</ele>
        <time>2019-01-18T08:06:34.000Z</time>
      </trkpt>
      <trkpt lat="43.3496" lon="5.6608">
        <ele>250</ele>
        <time>2019-01-18T08:06:35.000Z</time>
      </trkpt>
      <trkpt lat="43.34961" lon="5.66081">
        <ele>251</ele>
        <time>2019-01-18T08:06:36.000Z</time>
      </trkpt>
      <trkpt lat="43.34962" lon="5.66082">
        <ele>251</ele>
        <time>2019-01-18T08:06:37.000Z</time>
      </trkpt>
      <trkpt lat="43.34962" lon="5.66083">
        <ele>251</ele>
        <time>2019-01-18T08:06:38.000Z</time>
      </trkpt>
      <trkpt lat="43.34963" lon="5.66084">
        <ele>251</ele>
        <time>2019-01-18T08:06:39.000Z</time>
      </trkpt>
      <trkpt lat="43.34963" lon="5.66086">
        <ele>251</ele>
        <time>2019-01-18T08:06:40.000Z</time>
      </trkpt>
      <trkpt lat="43.34964" lon="5.66087">
        <ele>251</ele>
        <time>2019-01-18T08:06:41.000Z</time>
      </trkpt>
      <trkpt lat="43.34964" lon="5.66089">
        <ele>252</ele>
        <time>2019-01-18T08:06:42.000Z</time>
      </trkpt>
      <trkpt lat="43.34965" lon="5.6609">
        <ele>252</ele>
        <time>2019-01-18T08:06:43.000Z</time>
      </trkpt>
      <trkpt lat="43.34965" lon="5.66091">
        <ele>252</ele>
        <time>2019-01-18T08:06:44.000Z</time>
      </trkpt>
      <trkpt lat="43.34966" lon="5.66092">
        <ele>252</ele>
        <time>2019-01-18T08:06:45.000Z</time>
      </trkpt>
      <trkpt lat="43.34966" lon="5.66094">
        <ele>252</ele>
        <time>2019-01-18T08:06:46.000Z</time>
      </trkpt>
      <trkpt lat="43.34967" lon="5.66095">
        <ele>252</ele>
        <time>2019-01-18T08:06:47.000Z</time>
      </trkpt>
      <trkpt lat="43.34967" lon="5.66097">
        <ele>252</ele>
        <time>2019-01-18T08:06:48.000Z</time>
      </trkpt>
      <trkpt lat="43.34967" lon="5.66098">
        <ele>252</ele>
        <time>2019-01-18T08:06:49.000Z</time>
      </trkpt>
      <trkpt lat="43.34968" lon="5.66099">
        <ele>252</ele>
        <time>2019-01-18T08:06:50.000Z</time>
      </trkpt>
      <trkpt lat="43.34968" lon="5.66101">
        <ele>252</ele>
        <time>2019-01-18T08:06:51.000Z</time>
      </trkpt>
      <trkpt lat="43.34969" lon="5.66103">
        <ele>251</ele>
        <time>2019-01-18T08:06:52.000Z</time>
      </trkpt>
      <trkpt lat="43.34969" lon="5.66104">
        <ele>251</ele>
        <time>2019-01-18T08:06:53.000Z</time>
      </trkpt>
      <trkpt lat="43.34969" lon="5.66106">
        <ele>251</ele>
        <time>2019-01-18T08:06:54.000Z</time>
      </trkpt>
      <trkpt lat="43.34969" lon="5.66107">
        <ele>251</ele>
        <time>2019-01-18T08:06:55.000Z</time>
      </trkpt>
      <trkpt lat="43.34969" lon="5.66109">
        <ele>251</ele>
        <time>2019-01-18T08:06:56.000Z</time>
      </trkpt>
      <trkpt lat="43.3497" lon="5.66111">
        <ele>251</ele>
        <time>2019-01-18T08:06:57.000Z</time>
      </trkpt>
      <trkpt lat="43.3497" lon="5.66112">
        <ele>251</ele>
        <time>2019-01-18T08:06:58.000Z</time>
      </trkpt>
      <trkpt lat="43.3497" lon="5.66114">
        <ele>251</ele>
        <time>2019-01-18T08:06:59.000Z</time>
      </trkpt>
      <trkpt lat="43.3497" lon="5.66115">
        <ele>251</ele>
        <time>2019-01-18T08:07:00.000Z</time>
      </trkpt>
      <trkpt lat="43.3497" lon="5.66117">
        <ele>251</ele>
        <time>2019-01-18T08:07:01.000Z</time>
      </trkpt>
      <trkpt lat="43.3497" lon="5.66118">
        <ele>251</ele>
        <time>2019-01-18T08:07:02.000Z</time>
      </trkpt>
      <trkpt lat="43.3497" lon="5.6612">
        <ele>251</ele>
        <time>2019-01-18T08:07:03.000Z</time>
      </trkpt>
      <trkpt lat="43.34971" lon="5.66121">
        <ele>251</ele>
        <time>2019-01-18T08:07:04.000Z</time>
      </trkpt>
      <trkpt lat="43.34971" lon="5.66123">
        <ele>251</ele>
        <time>2019-01-18T08:07:05.000Z</time>
      </trkpt>
      <trkpt lat="43.34971" lon="5.66125">
        <ele>251</ele>
        <time>2019-01-18T08:07:06.000Z</time>
      </trkpt>
      <trkpt lat="43.34971" lon="5.66126">
        <ele>251</ele>
        <time>2019-01-18T08:07:07.000Z</time>
      </trkpt>
      <trkpt lat="43.34971" lon="5.66127">
        <ele>251</ele>
        <time>2019-01-18T08:07:08.000Z</time>
      </trkpt>
      <trkpt lat="43.34971" lon="5.66128">
        <ele>251</ele>
        <time>2019-01-18T08:07:09.000Z</time>
      </trkpt>
      <trkpt lat="43.34972" lon="5.6613">
        <ele>251</ele>
        <time>2019-01-18T08:07:10.000Z</time>
      </trkpt>
      <trkpt lat="43.34972" lon="5.66131">
        <ele>251</ele>
        <time>2019-01-18T08:07:11.000Z</time>
      </trkpt>
      <trkpt lat="43.34972" lon="5.66132">
        <ele>251</ele>
        <time>2019-01-18T08:07:12.000Z</time>
      </trkpt>
      <trkpt lat="43.34972" lon="5.66134">
        <ele>251</ele>
        <time>2019-01-18T08:07:13.000Z</time>
      </trkpt>
      <trkpt lat="43.34973" lon="5.66135">
        <ele>251</ele>
        <time>2019-01-18T08:07:14.000Z</time>
      </trkpt>
      <trkpt lat="43.34973" lon="5.66136">
        <ele>251</ele>
        <time>2019-01-18T08:07:15.000Z</time>
      </trkpt>
      <trkpt lat="43.34973" lon="5.66138">
        <ele>251</ele>
        <time>2019-01-18T08:07:16.000Z</time>
      </trkpt>
      <trkpt lat="43.34973" lon="5.66139">
        <ele>251</ele>
        <time>2019-01-18T08:07:17.000Z</time>
      </trkpt>
      <trkpt lat="43.34973" lon="5.6614">
        <ele>251</ele>
        <time>2019-01-18T08:07:18.000Z</time>
      </trkpt>
      <trkpt lat="43.34974" lon="5.66142">
        <ele>252</ele>
        <time>2019-01-18T08:07:19.000Z</time>
      </trkpt>
      <trkpt lat="43.34974" lon="5.66143">
        <ele>252</ele>
        <time>2019-01-18T08:07:20.000Z</time>
      </trkpt>
      <trkpt lat="43.34974" lon="5.66145">
        <ele>252</ele>
        <time>2019-01-18T08:07:21.000Z</time>
      </trkpt>
      <trkpt lat="43.34974" lon="5.66146">
        <ele>252</ele>
        <time>2019-01-18T08:07:22.000Z</time>
      </trkpt>
      <trkpt lat="43.34975" lon="5.66148">
        <ele>252</ele>
        <time>2019-01-18T08:07:23.000Z</time>
      </trkpt>
      <trkpt lat="43.34974" lon="5.6615">
        <ele>253</ele>
        <time>2019-01-18T08:07:24.000Z</time>
      </trkpt>
      <trkpt lat="43.34975" lon="5.66151">
        <ele>253</ele>
        <time>2019-01-18T08:07:25.000Z</time>
      </trkpt>
      <trkpt lat="43.34975" lon="5.66153">
        <ele>253</ele>
        <time>2019-01-18T08:07:26.000Z</time>
      </trkpt>
      <trkpt lat="43.34975" lon="5.66154">
        <ele>253</ele>
        <time>2019-01-18T08:07:27.000Z</time>
      </trkpt>
      <trkpt lat="43.34975" lon="5.66156">
        <ele>254</ele>
        <time>2019-01-18T08:07:28.000Z</time>
      </trkpt>
      <trkpt lat="43.34976" lon="5.66158">
        <ele>254</ele>
        <time>2019-01-18T08:07:29.000Z</time>
      </trkpt>
      <trkpt lat="43.34976" lon="5.66159">
        <ele>254</ele>
        <time>2019-01-18T08:07:30.000Z</time>
      </trkpt>
      <trkpt lat="43.34977" lon="5.66161">
        <ele>254</ele>
        <time>2019-01-18T08:07:31.000Z</time>
      </trkpt>
      <trkpt lat="43.34977" lon="5.66162">
        <ele>255</ele>
        <time>2019-01-18T08:07:32.000Z</time>
      </trkpt>
      <trkpt lat="43.34977" lon="5.66163">
        <ele>255</ele>
        <time>2019-01-18T08:07:33.000Z</time>
      </trkpt>
      <trkpt lat="43.34978" lon="5.66165">
        <ele>255</ele>
        <time>2019-01-18T08:07:34.000Z</time>
      </trkpt>
      <trkpt lat="43.34978" lon="5.66166">
        <ele>256</ele>
        <time>2019-01-18T08:07:35.000Z</time>
      </trkpt>
      <trkpt lat="43.34978" lon="5.66168">
        <ele>256</ele>
        <time>2019-01-18T08:07:36.000Z</time>
      </trkpt>
      <trkpt lat="43.34979" lon="5.66169">
        <ele>256</ele>
        <time>2019-01-18T08:07:37.000Z</time>
      </trkpt>
      <trkpt lat="43.34979" lon="5.6617">
        <ele>256</ele>
        <time>2019-01-18T08:07:38.000Z</time>
      </trkpt>
      <trkpt lat="43.34979" lon="5.66172">
        <ele>256</ele>
        <time>2019-01-18T08:07:39.000Z</time>
      </trkpt>
      <trkpt lat="43.34979" lon="5.66173">
        <ele>256</ele>
        <time>2019-01-18T08:07:40.000Z</time>
      </trkpt>
      <trkpt lat="43.34979" lon="5.66175">
        <ele>256</ele>
        <time>2019-01-18T08:07:41.000Z</time>
      </trkpt>
      <trkpt lat="43.34979" lon="5.66177">
        <ele>256</ele>
        <time>2019-01-18T08:07:42.000Z</time>
      </trkpt>
      <trkpt lat="43.3498" lon="5.66179">
        <ele>256</ele>
        <time>2019-01-18T08:07:43.000Z</time>
      </trkpt>
      <trkpt lat="43.3498" lon="5.6618">
        <ele>256</ele>
        <time>2019-01-18T08:07:44.000Z</time>
      </trkpt>
      <trkpt lat="43.3498" lon="5.66182">
        <ele>256</ele>
        <time>2019-01-18T08:07:45.000Z</time>
      </trkpt>
      <trkpt lat="43.3498" lon="5.66184">
        <ele>255</ele>
        <time>2019-01-18T08:07:46.000Z</time>
      </trkpt>
      <trkpt lat="43.3498" lon="5.66186">
        <ele>255</ele>
        <time>2019-01-18T08:07:47.000Z</time>
      </trkpt>
      <trkpt lat="43.3498" lon="5.66188">
        <ele>255</ele>
        <time>2019-01-18T08:07:48.000Z</time>
      </trkpt>
      <trkpt lat="43.3498" lon="5.6619">
        <ele>254</ele>
        <time>2019-01-18T08:07:49.000Z</time>
      </trkpt>
      <trkpt lat="43.3498" lon="5.66192">
        <ele>254</ele>
        <time>2019-01-18T08:07:50.000Z</time>
      </trkpt>
      <trkpt lat="43.3498" lon="5.66194">
        <ele>254</ele>
        <time>2019-01-18T08:07:51.000Z</time>
      </trkpt>
      <trkpt lat="43.3498" lon="5.66195">
        <ele>253</ele>
        <time>2019-01-18T08:07:52.000Z</time>
      </trkpt>
      <trkpt lat="43.3498" lon="5.66197">
        <ele>253</ele>
        <time>2019-01-18T08:07:53.000Z</time>
      </trkpt>
      <trkpt lat="43.3498" lon="5.66199">
        <ele>253</ele>
        <time>2019-01-18T08:07:54.000Z</time>
      </trkpt>
      <trkpt lat="43.34981" lon="5.662">
        <ele>252</ele>
        <time>2019-01-18T08:07:55.000Z</time>
      </trkpt>
      <trkpt lat="43.34981" lon="5.66202">
        <ele>252</ele>
        <time>2019-01-18T08:07:56.000Z</time>
      </trkpt>
      <trkpt lat="43.34981" lon="5.66204">
        <ele>252</ele>
        <time>2019-01-18T08:07:57.000Z</time>
      </trkpt>
      <trkpt lat="43.34981" lon="5.66205">
        <ele>252</ele>
        <time>2019-01-18T08:07:58.000Z</time>
      </trkpt>
      <trkpt lat="43.34981" lon="5.66207">
        <ele>252</ele>
        <time>2019-01-18T08:07:59.000Z</time>
      </trkpt>
      <trkpt lat="43.34981" lon="5.66208">
        <ele>251</ele>
        <time>2019-01-18T08:08:00.000Z</time>
      </trkpt>
      <trkpt lat="43.34981" lon="5.6621">
        <ele>251</ele>
        <time>2019-01-18T08:08:01.000Z</time>
      </trkpt>
      <trkpt lat="43.34981" lon="5.66211">
        <ele>251</ele>
        <time>2019-01-18T08:08:02.000Z</time>
      </trkpt>
      <trkpt lat="43.34981" lon="5.66212">
        <ele>251</ele>
        <time>2019-01-18T08:08:03.000Z</time>
      </trkpt>
      <trkpt lat="43.34981" lon="5.66214">
        <ele>251</ele>
        <time>2019-01-18T08:08:04.000Z</time>
      </trkpt>
      <trkpt lat="43.34981" lon="5.66215">
        <ele>251</ele>
        <time>2019-01-18T08:08:05.000Z</time>
      </trkpt>
      <trkpt lat="43.34981" lon="5.66216">
        <ele>250</ele>
        <time>2019-01-18T08:08:06.000Z</time>
      </trkpt>
      <trkpt lat="43.34981" lon="5.66218">
        <ele>250</ele>
        <time>2019-01-18T08:08:07.000Z</time>
      </trkpt>
      <trkpt lat="43.34981" lon="5.66219">
        <ele>250</ele>
        <time>2019-01-18T08:08:08.000Z</time>
      </trkpt>
      <trkpt lat="43.34981" lon="5.6622">
        <ele>250</ele>
        <time>2019-01-18T08:08:09.000Z</time>
      </trkpt>
      <trkpt lat="43.34981" lon="5.66222">
        <ele>250</ele>
        <time>2019-01-18T08:08:10.000Z</time>
      </trkpt>
      <trkpt lat="43.34981" lon="5.66223">
        <ele>250</ele>
        <time>2019-01-18T08:08:11.000Z</time>
      </trkpt>
      <trkpt lat="43.34982" lon="5.66224">
        <ele>250</ele>
        <time>2019-01-18T08:08:12.000Z</time>
      </trkpt>
      <trkpt lat="43.34982" lon="5.66226">
        <ele>250</ele>
        <time>2019-01-18T08:08:13.000Z</time>
      </trkpt>
      <trkpt lat="43.34982" lon="5.66228">
        <ele>250</ele>
        <time>2019-01-18T08:08:14.000Z</time>
      </trkpt>
      <trkpt lat="43.34982" lon="5.66229">
        <ele>250</ele>
        <time>2019-01-18T08:08:15.000Z</time>
      </trkpt>
      <trkpt lat="43.34982" lon="5.66231">
        <ele>250</ele>
        <time>2019-01-18T08:08:16.000Z</time>
      </trkpt>
      <trkpt lat="43.34982" lon="5.66232">
        <ele>250</ele>
        <time>2019-01-18T08:08:17.000Z</time>
      </trkpt>
      <trkpt lat="43.34983" lon="5.66233">
        <ele>250</ele>
        <time>2019-01-18T08:08:18.000Z</time>
      </trkpt>
      <trkpt lat="43.34983" lon="5.66235">
        <ele>250</ele>
        <time>2019-01-18T08:08:19.000Z</time>
      </trkpt>
      <trkpt lat="43.34983" lon="5.66237">
        <ele>250</ele>
        <time>2019-01-18T08:08:20.000Z</time>
      </trkpt>
      <trkpt lat="43.34984" lon="5.66238">
        <ele>250</ele>
        <time>2019-01-18T08:08:21.000Z</time>
      </trkpt>
      <trkpt lat="43.34984" lon="5.66239">
        <ele>250</ele>
        <time>2019-01-18T08:08:22.000Z</time>
      </trkpt>
      <trkpt lat="43.34984" lon="5.66241">
        <ele>250</ele>
        <time>2019-01-18T08:08:23.000Z</time>
      </trkpt>
      <trkpt lat="43.34985" lon="5.66242">
        <ele>250</ele>
        <time>2019-01-18T08:08:24.000Z</time>
      </trkpt>
      <trkpt lat="43.34985" lon="5.66244">
        <ele>250</ele>
        <time>2019-01-18T08:08:25.000Z</time>
      </trkpt>
      <trkpt lat="43.34985" lon="5.66245">
        <ele>250</ele>
        <time>2019-01-18T08:08:26.000Z</time>
      </trkpt>
      <trkpt lat="43.34985" lon="5.66246">
        <ele>250</ele>
        <time>2019-01-18T08:08:27.000Z</time>
      </trkpt>
      <trkpt lat="43.34985" lon="5.66248">
        <ele>250</ele>
        <time>2019-01-18T08:08:28.000Z</time>
      </trkpt>
      <trkpt lat="43.34985" lon="5.66249">
        <ele>250</ele>
        <time>2019-01-18T08:08:29.000Z</time>
      </trkpt>
      <trkpt lat="43.34985" lon="5.6625">
        <ele>250</ele>
        <time>2019-01-18T08:08:30.000Z</time>
      </trkpt>
      <trkpt lat="43.34985" lon="5.66252">
        <ele>250</ele>
        <time>2019-01-18T08:08:31.000Z</time>
      </trkpt>
      <trkpt lat="43.34985" lon="5.66253">
        <ele>250</ele>
        <time>2019-01-18T08:08:32.000Z</time>
      </trkpt>
      <trkpt lat="43.34985" lon="5.66254">
        <ele>250</ele>
        <time>2019-01-18T08:08:33.000Z</time>
      </trkpt>
      <trkpt lat="43.34984" lon="5.66256">
        <ele>250</ele>
        <time>2019-01-18T08:08:34.000Z</time>
      </trkpt>
      <trkpt lat="43.34984" lon="5.66257">
        <ele>250</ele>
        <time>2019-01-18T08:08:35.000Z</time>
      </trkpt>
      <trkpt lat="43.34984" lon="5.66259">
        <ele>250</ele>
        <time>2019-01-18T08:08:36.000Z</time>
      </trkpt>
      <trkpt lat="43.34984" lon="5.6626">
        <ele>250</ele>
        <time>2019-01-18T08:08:37.000Z</time>
      </trkpt>
      <trkpt lat="43.34984" lon="5.66261">
        <ele>251</ele>
        <time>2019-01-18T08:08:38.000Z</time>
      </trkpt>
      <trkpt lat="43.34983" lon="5.66263">
        <ele>251</ele>
        <time>2019-01-18T08:08:39.000Z</time>
      </trkpt>
      <trkpt lat="43.34983" lon="5.66264">
        <ele>251</ele>
        <time>2019-01-18T08:08:40.000Z</time>
      </trkpt>
      <trkpt lat="43.34983" lon="5.66265">
        <ele>251</ele>
        <time>2019-01-18T08:08:41.000Z</time>
      </trkpt>
      <trkpt lat="43.34982" lon="5.66267">
        <ele>252</ele>
        <time>2019-01-18T08:08:42.000Z</time>
      </trkpt>
      <trkpt lat="43.34982" lon="5.66268">
        <ele>252</ele>
        <time>2019-01-18T08:08:43.000Z</time>
      </trkpt>
      <trkpt lat="43.34982" lon="5.6627">
        <ele>252</ele>
        <time>2019-01-18T08:08:44.000Z</time>
      </trkpt>
      <trkpt lat="43.34981" lon="5.66271">
        <ele>252</ele>
        <time>2019-01-18T08:08:45.000Z</time>
      </trkpt>
      <trkpt lat="43.34981" lon="5.66272">
        <ele>252</ele>
        <time>2019-01-18T08:08:46.000Z</time>
      </trkpt>
      <trkpt lat="43.34981" lon="5.66274">
        <ele>252</ele>
        <time>2019-01-18T08:08:47.000Z</time>
      </trkpt>
      <trkpt lat="43.3498" lon="5.66275">
        <ele>253</ele>
        <time>2019-01-18T08:08:48.000Z</time>
      </trkpt>
      <trkpt lat="43.3498" lon="5.66276">
        <ele>253</ele>
        <time>2019-01-18T08:08:49.000Z</time>
      </trkpt>
      <trkpt lat="43.34979" lon="5.66278">
        <ele>253</ele>
        <time>2019-01-18T08:08:50.000Z</time>
      </trkpt>
      <trkpt lat="43.34979" lon="5.66279">
        <ele>253</ele>
        <time>2019-01-18T08:08:51.000Z</time>
      </trkpt>
      <trkpt lat="43.34978" lon="5.66281">
        <ele>253</ele>
        <time>2019-01-18T08:08:52.000Z</time>
      </trkpt>
      <trkpt lat="43.34978" lon="5.66282">
        <ele>253</ele>
        <time>2019-01-18T08:08:53.000Z</time>
      </trkpt>
      <trkpt lat="43.34978" lon="5.66283">
        <ele>254</ele>
        <time>2019-01-18T08:08:54.000Z</time>
      </trkpt>
      <trkpt lat="43.34977" lon="5.66285">
        <ele>254</ele>
        <time>2019-01-18T08:08:55.000Z</time>
      </trkpt>
      <trkpt lat="43.34977" lon="5.66286">
        <ele>254</ele>
        <time>2019-01-18T08:08:56.000Z</time>
      </trkpt>
      <trkpt lat="43.34976" lon="5.66287">
        <ele>254</ele>
        <time>2019-01-18T08:08:57.000Z</time>
      </trkpt>
      <trkpt lat="43.34976" lon="5.66288">
        <ele>254</ele>
        <time>2019-01-18T08:08:58.000Z</time>
      </trkpt>
      <trkpt lat="43.34975" lon="5.6629">
        <ele>254</ele>
        <time>2019-01-18T08:08:59.000Z</time>
      </trkpt>
      <trkpt lat="43.34975" lon="5.66291">
        <ele>255</ele>
        <time>2019-01-18T08:09:00.000Z</time>
      </trkpt>
      <trkpt lat="43.34974" lon="5.66291">
        <ele>255</ele>
        <time>2019-01-18T08:09:01.000Z</time>
      </trkpt>
      <trkpt lat="43.34973" lon="5.66292">
        <ele>255</ele>
        <time>2019-01-18T08:09:02.000Z</time>
      </trkpt>
      <trkpt lat="43.34972" lon="5.66293">
        <ele>255</ele>
        <time>2019-01-18T08:09:03.000Z</time>
      </trkpt>
      <trkpt lat="43.34972" lon="5.66295">
        <ele>255</ele>
        <time>2019-01-18T08:09:04.000Z</time>
      </trkpt>
      <trkpt lat="43.34971" lon="5.66296">
        <ele>255</ele>
        <time>2019-01-18T08:09:05.000Z</time>
      </trkpt>
      <trkpt lat="43.3497" lon="5.66297">
        <ele>256</ele>
        <time>2019-01-18T08:09:06.000Z</time>
      </trkpt>
      <trkpt lat="43.34969" lon="5.66298">
        <ele>256</ele>
        <time>2019-01-18T08:09:07.000Z</time>
      </trkpt>
      <trkpt lat="43.34968" lon="5.66299">
        <ele>256</ele>
        <time>2019-01-18T08:09:08.000Z</time>
      </trkpt>
      <trkpt lat="43.34967" lon="5.66299">
        <ele>256</ele>
        <time>2019-01-18T08:09:09.000Z</time>
      </trkpt>
      <trkpt lat="43.34966" lon="5.663">
        <ele>256</ele>
        <time>2019-01-18T08:09:10.000Z</time>
      </trkpt>
      <trkpt lat="43.34965" lon="5.663">
        <ele>256</ele>
        <time>2019-01-18T08:09:11.000Z</time>
      </trkpt>
      <trkpt lat="43.34964" lon="5.66301">
        <ele>256</ele>
        <time>2019-01-18T08:09:12.000Z</time>
      </trkpt>
      <trkpt lat="43.34963" lon="5.66301">
        <ele>256</ele>
        <time>2019-01-18T08:09:13.000Z</time>
      </trkpt>
      <trkpt lat="43.34962" lon="5.66302">
        <ele>257</ele>
        <time>2019-01-18T08:09:14.000Z</time>
      </trkpt>
      <trkpt lat="43.34961" lon="5.66302">
        <ele>257</ele>
        <time>2019-01-18T08:09:15.000Z</time>
      </trkpt>
      <trkpt lat="43.3496" lon="5.66303">
        <ele>257</ele>
        <time>2019-01-18T08:09:16.000Z</time>
      </trkpt>
      <trkpt lat="43.34959" lon="5.66304">
        <ele>257</ele>
        <time>2019-01-18T08:09:17.000Z</time>
      </trkpt>
      <trkpt lat="43.34958" lon="5.66304">
        <ele>257</ele>
        <time>2019-01-18T08:09:18.000Z</time>
      </trkpt>
      <trkpt lat="43.34957" lon="5.66304">
        <ele>257</ele>
        <time>2019-01-18T08:09:19.000Z</time>
      </trkpt>
      <trkpt lat="43.34956" lon="5.66305">
        <ele>257</ele>
        <time>2019-01-18T08:09:20.000Z</time>
      </trkpt>
      <trkpt lat="43.34955" lon="5.66305">
        <ele>257</ele>
        <time>2019-01-18T08:09:21.000Z</time>
      </trkpt>
      <trkpt lat="43.34954" lon="5.66306">
        <ele>257</ele>
        <time>2019-01-18T08:09:22.000Z</time>
      </trkpt>
      <trkpt lat="43.34952" lon="5.66306">
        <ele>258</ele>
        <time>2019-01-18T08:09:23.000Z</time>
      </trkpt>
      <trkpt lat="43.34951" lon="5.66306">
        <ele>258</ele>
        <time>2019-01-18T08:09:24.000Z</time>
      </trkpt>
      <trkpt lat="43.3495" lon="5.66306">
        <ele>258</ele>
        <time>2019-01-18T08:09:25.000Z</time>
      </trkpt>
      <trkpt lat="43.34949" lon="5.66306">
        <ele>258</ele>
        <time>2019-01-18T08:09:26.000Z</time>
      </trkpt>
      <trkpt lat="43.34948" lon="5.66307">
        <ele>258</ele>
        <time>2019-01-18T08:09:27.000Z</time>
      </trkpt>
      <trkpt lat="43.34947" lon="5.66307">
        <ele>259</ele>
        <time>2019-01-18T08:09:28.000Z</time>
      </trkpt>
      <trkpt lat="43.34946" lon="5.66307">
        <ele>259</ele>
        <time>2019-01-18T08:09:29.000Z</time>
      </trkpt>
      <trkpt lat="43.34945" lon="5.66307">
        <ele>259</ele>
        <time>2019-01-18T08:09:30.000Z</time>
      </trkpt>
      <trkpt lat="43.34944" lon="5.66307">
        <ele>259</ele>
        <time>2019-01-18T08:09:31.000Z</time>
      </trkpt>
      <trkpt lat="43.34943" lon="5.66308">
        <ele>259</ele>
        <time>2019-01-18T08:09:32.000Z</time>
      </trkpt>
      <trkpt lat="43.34941" lon="5.66307">
        <ele>259</ele>
        <time>2019-01-18T08:09:33.000Z</time>
      </trkpt>
      <trkpt lat="43.3494" lon="5.66307">
        <ele>259</ele>
        <time>2019-01-18T08:09:34.000Z</time>
      </trkpt>
      <trkpt lat="43.34939" lon="5.66307">
        <ele>260</ele>
        <time>2019-01-18T08:09:35.000Z</time>
      </trkpt>
      <trkpt lat="43.34938" lon="5.66308">
        <ele>260</ele>
        <time>2019-01-18T08:09:36.000Z</time>
      </trkpt>
      <trkpt lat="43.34937" lon="5.66308">
        <ele>260</ele>
        <time>2019-01-18T08:09:37.000Z</time>
      </trkpt>
      <trkpt lat="43.34936" lon="5.66308">
        <ele>260</ele>
        <time>2019-01-18T08:09:38.000Z</time>
      </trkpt>
      <trkpt lat="43.34935" lon="5.66308">
        <ele>260</ele>
        <time>2019-01-18T08:09:39.000Z</time>
      </trkpt>
      <trkpt lat="43.34934" lon="5.66308">
        <ele>260</ele>
        <time>2019-01-18T08:09:40.000Z</time>
      </trkpt>
      <trkpt lat="43.34933" lon="5.66308">
        <ele>260</ele>
        <time>2019-01-18T08:09:41.000Z</time>
      </trkpt>
      <trkpt lat="43.34932" lon="5.66309">
        <ele>260</ele>
        <time>2019-01-18T08:09:42.000Z</time>
      </trkpt>
      <trkpt lat="43.3493" lon="5.66309">
        <ele>261</ele>
        <time>2019-01-18T08:09:43.000Z</time>
      </trkpt>
      <trkpt lat="43.34929" lon="5.66309">
        <ele>261</ele>
        <time>2019-01-18T08:09:44.000Z</time>
      </trkpt>
      <trkpt lat="43.34928" lon="5.6631">
        <ele>261</ele>
        <time>2019-01-18T08:09:45.000Z</time>
      </trkpt>
      <trkpt lat="43.34927" lon="5.6631">
        <ele>261</ele>
        <time>2019-01-18T08:09:46.000Z</time>
      </trkpt>
      <trkpt lat="43.34926" lon="5.6631">
        <ele>261</ele>
        <time>2019-01-18T08:09:47.000Z</time>
      </trkpt>
      <trkpt lat="43.34925" lon="5.6631">
        <ele>261</ele>
        <time>2019-01-18T08:09:48.000Z</time>
      </trkpt>
      <trkpt lat="43.34924" lon="5.6631">
        <ele>261</ele>
        <time>2019-01-18T08:09:49.000Z</time>
      </trkpt>
      <trkpt lat="43.34922" lon="5.66311">
        <ele>261</ele>
        <time>2019-01-18T08:09:50.000Z</time>
      </trkpt>
      <trkpt lat="43.34921" lon="5.66311">
        <ele>262</ele>
        <time>2019-01-18T08:09:51.000Z</time>
      </trkpt>
      <trkpt lat="43.3492" lon="5.66311">
        <ele>262</ele>
        <time>2019-01-18T08:09:52.000Z</time>
      </trkpt>
      <trkpt lat="43.3492" lon="5.6631">
        <ele>262</ele>
        <time>2019-01-18T08:09:53.000Z</time>
      </trkpt>
      <trkpt lat="43.34919" lon="5.6631">
        <ele>262</ele>
        <time>2019-01-18T08:09:54.000Z</time>
      </trkpt>
      <trkpt lat="43.34919" lon="5.6631">
        <ele>262</ele>
        <time>2019-01-18T08:09:55.000Z</time>
      </trkpt>
      <trkpt lat="43.34919" lon="5.66311">
        <ele>262</ele>
        <time>2019-01-18T08:09:56.000Z</time>
      </trkpt>
      <trkpt lat="43.34918" lon="5.66311">
        <ele>263</ele>
        <time>2019-01-18T08:09:57.000Z</time>
      </trkpt>
      <trkpt lat="43.34917" lon="5.66311">
        <ele>263</ele>
        <time>2019-01-18T08:09:58.000Z</time>
      </trkpt>
      <trkpt lat="43.34916" lon="5.66311">
        <ele>263</ele>
        <time>2019-01-18T08:09:59.000Z</time>
      </trkpt>
      <trkpt lat="43.34916" lon="5.66311">
        <ele>263</ele>
        <time>2019-01-18T08:10:00.000Z</time>
      </trkpt>
      <trkpt lat="43.34915" lon="5.66311">
        <ele>263</ele>
        <time>2019-01-18T08:10:01.000Z</time>
      </trkpt>
      <trkpt lat="43.34914" lon="5.66311">
        <ele>263</ele>
        <time>2019-01-18T08:10:02.000Z</time>
      </trkpt>
      <trkpt lat="43.34914" lon="5.66311">
        <ele>264</ele>
        <time>2019-01-18T08:10:03.000Z</time>
      </trkpt>
      <trkpt lat="43.34913" lon="5.66312">
        <ele>264</ele>
        <time>2019-01-18T08:10:04.000Z</time>
      </trkpt>
      <trkpt lat="43.34912" lon="5.66312">
        <ele>264</ele>
        <time>2019-01-18T08:10:05.000Z</time>
      </trkpt>
      <trkpt lat="43.34911" lon="5.66312">
        <ele>264</ele>
        <time>2019-01-18T08:10:06.000Z</time>
      </trkpt>
      <trkpt lat="43.3491" lon="5.66312">
        <ele>264</ele>
        <time>2019-01-18T08:10:07.000Z</time>
      </trkpt>
      <trkpt lat="43.34909" lon="5.66312">
        <ele>265</ele>
        <time>2019-01-18T08:10:08.000Z</time>
      </trkpt>
      <trkpt lat="43.34909" lon="5.66312">
        <ele>265</ele>
        <time>2019-01-18T08:10:09.000Z</time>
      </trkpt>
      <trkpt lat="43.34908" lon="5.66313">
        <ele>265</ele>
        <time>2019-01-18T08:10:10.000Z</time>
      </trkpt>
      <trkpt lat="43.34907" lon="5.66313">
        <ele>265</ele>
        <time>2019-01-18T08:10:11.000Z</time>
      </trkpt>
      <trkpt lat="43.34906" lon="5.66314">
        <ele>265</ele>
        <time>2019-01-18T08:10:12.000Z</time>
      </trkpt>
      <trkpt lat="43.34906" lon="5.66315">
        <ele>265</ele>
        <time>2019-01-18T08:10:13.000Z</time>
      </trkpt>
      <trkpt lat="43.34905" lon="5.66316">
        <ele>266</ele>
        <time>2019-01-18T08:10:14.000Z</time>
      </trkpt>
      <trkpt lat="43.34905" lon="5.66316">
        <ele>266</ele>
        <time>2019-01-18T08:10:15.000Z</time>
      </trkpt>
      <trkpt lat="43.34904" lon="5.66317">
        <ele>266</ele>
        <time>2019-01-18T08:10:16.000Z</time>
      </trkpt>
      <trkpt lat="43.34904" lon="5.66317">
        <ele>266</ele>
        <time>2019-01-18T08:10:17.000Z</time>
      </trkpt>
      <trkpt lat="43.34904" lon="5.66317">
        <ele>266</ele>
        <time>2019-01-18T08:10:18.000Z</time>
      </trkpt>
      <trkpt lat="43.34903" lon="5.66318">
        <ele>266</ele>
        <time>2019-01-18T08:10:19.000Z</time>
      </trkpt>
      <trkpt lat="43.34902" lon="5.66319">
        <ele>267</ele>
        <time>2019-01-18T08:10:20.000Z</time>
      </trkpt>
      <trkpt lat="43.34902" lon="5.66319">
        <ele>267</ele>
        <time>2019-01-18T08:10:21.000Z</time>
      </trkpt>
      <trkpt lat="43.34901" lon="5.6632">
        <ele>267</ele>
        <time>2019-01-18T08:10:22.000Z</time>
      </trkpt>
      <trkpt lat="43.349" lon="5.66321">
        <ele>267</ele>
        <time>2019-01-18T08:10:23.000Z</time>
      </trkpt>
      <trkpt lat="43.34899" lon="5.66322">
        <ele>267</ele>
        <time>2019-01-18T08:10:24.000Z</time>
      </trkpt>
      <trkpt lat="43.34899" lon="5.66322">
        <ele>267</ele>
        <time>2019-01-18T08:10:25.000Z</time>
      </trkpt>
      <trkpt lat="43.34899" lon="5.66322">
        <ele>268</ele>
        <time>2019-01-18T08:10:26.000Z</time>
      </trkpt>
      <trkpt lat="43.34898" lon="5.66323">
        <ele>268</ele>
        <time>2019-01-18T08:10:27.000Z</time>
      </trkpt>
      <trkpt lat="43.34897" lon="5.66323">
        <ele>268</ele>
        <time>2019-01-18T08:10:28.000Z</time>
      </trkpt>
      <trkpt lat="43.34896" lon="5.66324">
        <ele>268</ele>
        <time>2019-01-18T08:10:29.000Z</time>
      </trkpt>
      <trkpt lat="43.34896" lon="5.66325">
        <ele>268</ele>
        <time>2019-01-18T08:10:30.000Z</time>
      </trkpt>
      <trkpt lat="43.34895" lon="5.66326">
        <ele>268</ele>
        <time>2019-01-18T08:10:31.000Z</time>
      </trkpt>
      <trkpt lat="43.34894" lon="5.66327">
        <ele>268</ele>
        <time>2019-01-18T08:10:32.000Z</time>
      </trkpt>
      <trkpt lat="43.34893" lon="5.66328">
        <ele>268</ele>
        <time>2019-01-18T08:10:33.000Z</time>
      </trkpt>
      <trkpt lat="43.34892" lon="5.66329">
        <ele>268</ele>
        <time>2019-01-18T08:10:34.000Z</time>
      </trkpt>
      <trkpt lat="43.34891" lon="5.6633">
        <ele>268</ele>
        <time>2019-01-18T08:10:35.000Z</time>
      </trkpt>
      <trkpt lat="43.3489" lon="5.66331">
        <ele>268</ele>
        <time>2019-01-18T08:10:36.000Z</time>
      </trkpt>
      <trkpt lat="43.34889" lon="5.66332">
        <ele>269</ele>
        <time>2019-01-18T08:10:37.000Z</time>
      </trkpt>
      <trkpt lat="43.34888" lon="5.66333">
        <ele>269</ele>
        <time>2019-01-18T08:10:38.000Z</time>
      </trkpt>
      <trkpt lat="43.34888" lon="5.66334">
        <ele>269</ele>
        <time>2019-01-18T08:10:39.000Z</time>
      </trkpt>
      <trkpt lat="43.34887" lon="5.66335">
        <ele>269</ele>
        <time>2019-01-18T08:10:40.000Z</time>
      </trkpt>
      <trkpt lat="43.34886" lon="5.66336">
        <ele>269</ele>
        <time>2019-01-18T08:10:41.000Z</time>
      </trkpt>
      <trkpt lat="43.34885" lon="5.66337">
        <ele>269</ele>
        <time>2019-01-18T08:10:42.000Z</time>
      </trkpt>
      <trkpt lat="43.34884" lon="5.66338">
        <ele>269</ele>
        <time>2019-01-18T08:10:43.000Z</time>
      </trkpt>
      <trkpt lat="43.34884" lon="5.66339">
        <ele>269</ele>
        <time>2019-01-18T08:10:44.000Z</time>
      </trkpt>
      <trkpt lat="43.34883" lon="5.6634">
        <ele>269</ele>
        <time>2019-01-18T08:10:45.000Z</time>
      </trkpt>
      <trkpt lat="43.34882" lon="5.6634">
        <ele>269</ele>
        <time>2019-01-18T08:10:46.000Z</time>
      </trkpt>
      <trkpt lat="43.34881" lon="5.66341">
        <ele>269</ele>
        <time>2019-01-18T08:10:47.000Z</time>
      </trkpt>
      <trkpt lat="43.3488" lon="5.66342">
        <ele>269</ele>
        <time>2019-01-18T08:10:48.000Z</time>
      </trkpt>
      <trkpt lat="43.34879" lon="5.66343">
        <ele>269</ele>
        <time>2019-01-18T08:10:49.000Z</time>
      </trkpt>
      <trkpt lat="43.34878" lon="5.66343">
        <ele>270</ele>
        <time>2019-01-18T08:10:50.000Z</time>
      </trkpt>
      <trkpt lat="43.34877" lon="5.66345">
        <ele>270</ele>
        <time>2019-01-18T08:10:51.000Z</time>
      </trkpt>
      <trkpt lat="43.34876" lon="5.66346">
        <ele>270</ele>
        <time>2019-01-18T08:10:52.000Z</time>
      </trkpt>
      <trkpt lat="43.34875" lon="5.66347">
        <ele>270</ele>
        <time>2019-01-18T08:10:53.000Z</time>
      </trkpt>
      <trkpt lat="43.34874" lon="5.66347">
        <ele>270</ele>
        <time>2019-01-18T08:10:54.000Z</time>
      </trkpt>
      <trkpt lat="43.34873" lon="5.66348">
        <ele>270</ele>
        <time>2019-01-18T08:10:55.000Z</time>
      </trkpt>
      <trkpt lat="43.34872" lon="5.66349">
        <ele>270</ele>
        <time>2019-01-18T08:10:56.000Z</time>
      </trkpt>
      <trkpt lat="43.34871" lon="5.6635">
        <ele>270</ele>
        <time>2019-01-18T08:10:57.000Z</time>
      </trkpt>
      <trkpt lat="43.3487" lon="5.66351">
        <ele>271</ele>
        <time>2019-01-18T08:10:58.000Z</time>
      </trkpt>
      <trkpt lat="43.34869" lon="5.66352">
        <ele>271</ele>
        <time>2019-01-18T08:10:59.000Z</time>
      </trkpt>
      <trkpt lat="43.34868" lon="5.66352">
        <ele>271</ele>
        <time>2019-01-18T08:11:00.000Z</time>
      </trkpt>
      <trkpt lat="43.34867" lon="5.66353">
        <ele>271</ele>
        <time>2019-01-18T08:11:01.000Z</time>
      </trkpt>
      <trkpt lat="43.34867" lon="5.66354">
        <ele>271</ele>
        <time>2019-01-18T08:11:02.000Z</time>
      </trkpt>
      <trkpt lat="43.34866" lon="5.66354">
        <ele>272</ele>
        <time>2019-01-18T08:11:03.000Z</time>
      </trkpt>
      <trkpt lat="43.34865" lon="5.66355">
        <ele>272</ele>
        <time>2019-01-18T08:11:04.000Z</time>
      </trkpt>
      <trkpt lat="43.34865" lon="5.66356">
        <ele>272</ele>
        <time>2019-01-18T08:11:05.000Z</time>
      </trkpt>
      <trkpt lat="43.34865" lon="5.66357">
        <ele>272</ele>
        <time>2019-01-18T08:11:06.000Z</time>
      </trkpt>
      <trkpt lat="43.34865" lon="5.66358">
        <ele>273</ele>
        <time>2019-01-18T08:11:07.000Z</time>
      </trkpt>
      <trkpt lat="43.34864" lon="5.66358">
        <ele>273</ele>
        <time>2019-01-18T08:11:08.000Z</time>
      </trkpt>
      <trkpt lat="43.34864" lon="5.66359">
        <ele>273</ele>
        <time>2019-01-18T08:11:09.000Z</time>
      </trkpt>
      <trkpt lat="43.34863" lon="5.6636">
        <ele>273</ele>
        <time>2019-01-18T08:11:10.000Z</time>
      </trkpt>
      <trkpt lat="43.34862" lon="5.66361">
        <ele>273</ele>
        <time>2019-01-18T08:11:11.000Z</time>
      </trkpt>
      <trkpt lat="43.34862" lon="5.66361">
        <ele>274</ele>
        <time>2019-01-18T08:11:12.000Z</time>
      </trkpt>
      <trkpt lat="43.34861" lon="5.66362">
        <ele>274</ele>
        <time>2019-01-18T08:11:13.000Z</time>
      </trkpt>
      <trkpt lat="43.34861" lon="5.66364">
        <ele>274</ele>
        <time>2019-01-18T08:11:14.000Z</time>
      </trkpt>
      <trkpt lat="43.3486" lon="5.66365">
        <ele>274</ele>
        <time>2019-01-18T08:11:15.000Z</time>
      </trkpt>
      <trkpt lat="43.34859" lon="5.66366">
        <ele>274</ele>
        <time>2019-01-18T08:11:16.000Z</time>
      </trkpt>
      <trkpt lat="43.34859" lon="5.66367">
        <ele>274</ele>
        <time>2019-01-18T08:11:17.000Z</time>
      </trkpt>
      <trkpt lat="43.34858" lon="5.66369">
        <ele>274</ele>
        <time>2019-01-18T08:11:18.000Z</time>
      </trkpt>
      <trkpt lat="43.34857" lon="5.6637">
        <ele>274</ele>
        <time>2019-01-18T08:11:19.000Z</time>
      </trkpt>
      <trkpt lat="43.34857" lon="5.66371">
        <ele>275</ele>
        <time>2019-01-18T08:11:20.000Z</time>
      </trkpt>
      <trkpt lat="43.34856" lon="5.66373">
        <ele>275</ele>
        <time>2019-01-18T08:11:21.000Z</time>
      </trkpt>
      <trkpt lat="43.34856" lon="5.66374">
        <ele>275</ele>
        <time>2019-01-18T08:11:22.000Z</time>
      </trkpt>
      <trkpt lat="43.34855" lon="5.66375">
        <ele>275</ele>
        <time>2019-01-18T08:11:23.000Z</time>
      </trkpt>
      <trkpt lat="43.34855" lon="5.66376">
        <ele>275</ele>
        <time>2019-01-18T08:11:24.000Z</time>
      </trkpt>
      <trkpt lat="43.34854" lon="5.66378">
        <ele>275</ele>
        <time>2019-01-18T08:11:25.000Z</time>
      </trkpt>
      <trkpt lat="43.34853" lon="5.66379">
        <ele>275</ele>
        <time>2019-01-18T08:11:26.000Z</time>
      </trkpt>
      <trkpt lat="43.34853" lon="5.66381">
        <ele>275</ele>
        <time>2019-01-18T08:11:27.000Z</time>
      </trkpt>
      <trkpt lat="43.34852" lon="5.66383">
        <ele>275</ele>
        <time>2019-01-18T08:11:28.000Z</time>
      </trkpt>
      <trkpt lat="43.34851" lon="5.66385">
        <ele>274</ele>
        <time>2019-01-18T08:11:29.000Z</time>
      </trkpt>
      <trkpt lat="43.3485" lon="5.66386">
        <ele>274</ele>
        <time>2019-01-18T08:11:30.000Z</time>
      </trkpt>
      <trkpt lat="43.34849" lon="5.66388">
        <ele>274</ele>
        <time>2019-01-18T08:11:31.000Z</time>
      </trkpt>
      <trkpt lat="43.34848" lon="5.6639">
        <ele>274</ele>
        <time>2019-01-18T08:11:32.000Z</time>
      </trkpt>
      <trkpt lat="43.34848" lon="5.66391">
        <ele>274</ele>
        <time>2019-01-18T08:11:33.000Z</time>
      </trkpt>
      <trkpt lat="43.34847" lon="5.66393">
        <ele>274</ele>
        <time>2019-01-18T08:11:34.000Z</time>
      </trkpt>
      <trkpt lat="43.34846" lon="5.66394">
        <ele>274</ele>
        <time>2019-01-18T08:11:35.000Z</time>
      </trkpt>
      <trkpt lat="43.34844" lon="5.66395">
        <ele>274</ele>
        <time>2019-01-18T08:11:36.000Z</time>
      </trkpt>
      <trkpt lat="43.34843" lon="5.66397">
        <ele>274</ele>
        <time>2019-01-18T08:11:37.000Z</time>
      </trkpt>
      <trkpt lat="43.34842" lon="5.66399">
        <ele>274</ele>
        <time>2019-01-18T08:11:38.000Z</time>
      </trkpt>
      <trkpt lat="43.34842" lon="5.664">
        <ele>274</ele>
        <time>2019-01-18T08:11:39.000Z</time>
      </trkpt>
      <trkpt lat="43.34841" lon="5.66401">
        <ele>274</ele>
        <time>2019-01-18T08:11:40.000Z</time>
      </trkpt>
      <trkpt lat="43.3484" lon="5.66402">
        <ele>274</ele>
        <time>2019-01-18T08:11:41.000Z</time>
      </trkpt>
      <trkpt lat="43.3484" lon="5.66404">
        <ele>273</ele>
        <time>2019-01-18T08:11:42.000Z</time>
      </trkpt>
      <trkpt lat="43.34839" lon="5.66406">
        <ele>273</ele>
        <time>2019-01-18T08:11:43.000Z</time>
      </trkpt>
      <trkpt lat="43.34838" lon="5.66407">
        <ele>273</ele>
        <time>2019-01-18T08:11:44.000Z</time>
      </trkpt>
      <trkpt lat="43.34837" lon="5.66409">
        <ele>273</ele>
        <time>2019-01-18T08:11:45.000Z</time>
      </trkpt>
      <trkpt lat="43.34836" lon="5.6641">
        <ele>273</ele>
        <time>2019-01-18T08:11:46.000Z</time>
      </trkpt>
      <trkpt lat="43.34835" lon="5.66412">
        <ele>273</ele>
        <time>2019-01-18T08:11:47.000Z</time>
      </trkpt>
      <trkpt lat="43.34834" lon="5.66413">
        <ele>273</ele>
        <time>2019-01-18T08:11:48.000Z</time>
      </trkpt>
      <trkpt lat="43.34833" lon="5.66415">
        <ele>272</ele>
        <time>2019-01-18T08:11:49.000Z</time>
      </trkpt>
      <trkpt lat="43.34832" lon="5.66417">
        <ele>272</ele>
        <time>2019-01-18T08:11:50.000Z</time>
      </trkpt>
      <trkpt lat="43.34831" lon="5.66418">
        <ele>272</ele>
        <time>2019-01-18T08:11:51.000Z</time>
      </trkpt>
      <trkpt lat="43.34831" lon="5.6642">
        <ele>272</ele>
        <time>2019-01-18T08:11:52.000Z</time>
      </trkpt>
      <trkpt lat="43.3483" lon="5.66421">
        <ele>272</ele>
        <time>2019-01-18T08:11:53.000Z</time>
      </trkpt>
      <trkpt lat="43.34829" lon="5.66423">
        <ele>272</ele>
        <time>2019-01-18T08:11:54.000Z</time>
      </trkpt>
      <trkpt lat="43.34829" lon="5.66424">
        <ele>272</ele>
        <time>2019-01-18T08:11:55.000Z</time>
      </trkpt>
      <trkpt lat="43.34829" lon="5.66425">
        <ele>272</ele>
        <time>2019-01-18T08:11:56.000Z</time>
      </trkpt>
      <trkpt lat="43.34828" lon="5.66427">
        <ele>272</ele>
        <time>2019-01-18T08:11:57.000Z</time>
      </trkpt>
      <trkpt lat="43.34828" lon="5.66428">
        <ele>272</ele>
        <time>2019-01-18T08:11:58.000Z</time>
      </trkpt>
      <trkpt lat="43.34827" lon="5.66429">
        <ele>272</ele>
        <time>2019-01-18T08:11:59.000Z</time>
      </trkpt>
      <trkpt lat="43.34827" lon="5.66431">
        <ele>272</ele>
        <time>2019-01-18T08:12:00.000Z</time>
      </trkpt>
      <trkpt lat="43.34826" lon="5.66432">
        <ele>272</ele>
        <time>2019-01-18T08:12:01.000Z</time>
      </trkpt>
      <trkpt lat="43.34825" lon="5.66433">
        <ele>272</ele>
        <time>2019-01-18T08:12:02.000Z</time>
      </trkpt>
      <trkpt lat="43.34825" lon="5.66435">
        <ele>272</ele>
        <time>2019-01-18T08:12:03.000Z</time>
      </trkpt>
      <trkpt lat="43.34824" lon="5.66436">
        <ele>272</ele>
        <time>2019-01-18T08:12:04.000Z</time>
      </trkpt>
      <trkpt lat="43.34824" lon="5.66437">
        <ele>272</ele>
        <time>2019-01-18T08:12:05.000Z</time>
      </trkpt>
      <trkpt lat="43.34823" lon="5.66438">
        <ele>272</ele>
        <time>2019-01-18T08:12:06.000Z</time>
      </trkpt>
      <trkpt lat="43.34822" lon="5.66439">
        <ele>272</ele>
        <time>2019-01-18T08:12:07.000Z</time>
      </trkpt>
      <trkpt lat="43.34822" lon="5.66441">
        <ele>272</ele>
        <time>2019-01-18T08:12:08.000Z</time>
      </trkpt>
      <trkpt lat="43.34821" lon="5.66442">
        <ele>272</ele>
        <time>2019-01-18T08:12:09.000Z</time>
      </trkpt>
      <trkpt lat="43.34821" lon="5.66443">
        <ele>272</ele>
        <time>2019-01-18T08:12:10.000Z</time>
      </trkpt>
      <trkpt lat="43.3482" lon="5.66445">
        <ele>272</ele>
        <time>2019-01-18T08:12:11.000Z</time>
      </trkpt>
      <trkpt lat="43.3482" lon="5.66446">
        <ele>272</ele>
        <time>2019-01-18T08:12:12.000Z</time>
      </trkpt>
      <trkpt lat="43.34819" lon="5.66447">
        <ele>272</ele>
        <time>2019-01-18T08:12:13.000Z</time>
      </trkpt>
      <trkpt lat="43.34818" lon="5.66448">
        <ele>272</ele>
        <time>2019-01-18T08:12:14.000Z</time>
      </trkpt>
      <trkpt lat="43.34818" lon="5.66449">
        <ele>272</ele>
        <time>2019-01-18T08:12:15.000Z</time>
      </trkpt>
      <trkpt lat="43.34817" lon="5.66451">
        <ele>272</ele>
        <time>2019-01-18T08:12:16.000Z</time>
      </trkpt>
      <trkpt lat="43.34816" lon="5.66452">
        <ele>272</ele>
        <time>2019-01-18T08:12:17.000Z</time>
      </trkpt>
      <trkpt lat="43.34815" lon="5.66453">
        <ele>272</ele>
        <time>2019-01-18T08:12:18.000Z</time>
      </trkpt>
      <trkpt lat="43.34814" lon="5.66455">
        <ele>272</ele>
        <time>2019-01-18T08:12:19.000Z</time>
      </trkpt>
      <trkpt lat="43.34813" lon="5.66456">
        <ele>272</ele>
        <time>2019-01-18T08:12:20.000Z</time>
      </trkpt>
      <trkpt lat="43.34812" lon="5.66458">
        <ele>272</ele>
        <time>2019-01-18T08:12:21.000Z</time>
      </trkpt>
      <trkpt lat="43.34811" lon="5.66459">
        <ele>272</ele>
        <time>2019-01-18T08:12:22.000Z</time>
      </trkpt>
      <trkpt lat="43.34811" lon="5.6646">
        <ele>272</ele>
        <time>2019-01-18T08:12:23.000Z</time>
      </trkpt>
      <trkpt lat="43.3481" lon="5.66462">
        <ele>272</ele>
        <time>2019-01-18T08:12:24.000Z</time>
      </trkpt>
      <trkpt lat="43.34809" lon="5.66463">
        <ele>272</ele>
        <time>2019-01-18T08:12:25.000Z</time>
      </trkpt>
      <trkpt lat="43.34808" lon="5.66465">
        <ele>272</ele>
        <time>2019-01-18T08:12:26.000Z</time>
      </trkpt>
      <trkpt lat="43.34807" lon="5.66466">
        <ele>272</ele>
        <time>2019-01-18T08:12:27.000Z</time>
      </trkpt>
      <trkpt lat="43.34806" lon="5.66467">
        <ele>272</ele>
        <time>2019-01-18T08:12:28.000Z</time>
      </trkpt>
      <trkpt lat="43.34805" lon="5.66469">
        <ele>272</ele>
        <time>2019-01-18T08:12:29.000Z</time>
      </trkpt>
      <trkpt lat="43.34805" lon="5.6647">
        <ele>272</ele>
        <time>2019-01-18T08:12:30.000Z</time>
      </trkpt>
      <trkpt lat="43.34804" lon="5.66471">
        <ele>272</ele>
        <time>2019-01-18T08:12:31.000Z</time>
      </trkpt>
      <trkpt lat="43.34804" lon="5.66473">
        <ele>271</ele>
        <time>2019-01-18T08:12:32.000Z</time>
      </trkpt>
      <trkpt lat="43.34803" lon="5.66474">
        <ele>271</ele>
        <time>2019-01-18T08:12:33.000Z</time>
      </trkpt>
      <trkpt lat="43.34802" lon="5.66476">
        <ele>271</ele>
        <time>2019-01-18T08:12:34.000Z</time>
      </trkpt>
      <trkpt lat="43.34802" lon="5.66477">
        <ele>271</ele>
        <time>2019-01-18T08:12:35.000Z</time>
      </trkpt>
      <trkpt lat="43.34801" lon="5.66478">
        <ele>271</ele>
        <time>2019-01-18T08:12:36.000Z</time>
      </trkpt>
      <trkpt lat="43.348" lon="5.6648">
        <ele>271</ele>
        <time>2019-01-18T08:12:37.000Z</time>
      </trkpt>
      <trkpt lat="43.34799" lon="5.66481">
        <ele>272</ele>
        <time>2019-01-18T08:12:38.000Z</time>
      </trkpt>
      <trkpt lat="43.34799" lon="5.66482">
        <ele>272</ele>
        <time>2019-01-18T08:12:39.000Z</time>
      </trkpt>
      <trkpt lat="43.34798" lon="5.66483">
        <ele>271</ele>
        <time>2019-01-18T08:12:40.000Z</time>
      </trkpt>
      <trkpt lat="43.34797" lon="5.66484">
        <ele>271</ele>
        <time>2019-01-18T08:12:41.000Z</time>
      </trkpt>
      <trkpt lat="43.34797" lon="5.66486">
        <ele>271</ele>
        <time>2019-01-18T08:12:42.000Z</time>
      </trkpt>
      <trkpt lat="43.34796" lon="5.66487">
        <ele>271</ele>
        <time>2019-01-18T08:12:43.000Z</time>
      </trkpt>
      <trkpt lat="43.34794" lon="5.66487">
        <ele>271</ele>
        <time>2019-01-18T08:12:44.000Z</time>
      </trkpt>
      <trkpt lat="43.34793" lon="5.66488">
        <ele>271</ele>
        <time>2019-01-18T08:12:45.000Z</time>
      </trkpt>
      <trkpt lat="43.34792" lon="5.66489">
        <ele>271</ele>
        <time>2019-01-18T08:12:46.000Z</time>
      </trkpt>
      <trkpt lat="43.34791" lon="5.6649">
        <ele>271</ele>
        <time>2019-01-18T08:12:47.000Z</time>
      </trkpt>
      <trkpt lat="43.34789" lon="5.6649">
        <ele>271</ele>
        <time>2019-01-18T08:12:48.000Z</time>
      </trkpt>
      <trkpt lat="43.34788" lon="5.66491">
        <ele>271</ele>
        <time>2019-01-18T08:12:49.000Z</time>
      </trkpt>
      <trkpt lat="43.34787" lon="5.66492">
        <ele>270</ele>
        <time>2019-01-18T08:12:50.000Z</time>
      </trkpt>
      <trkpt lat="43.34786" lon="5.66493">
        <ele>270</ele>
        <time>2019-01-18T08:12:51.000Z</time>
      </trkpt>
      <trkpt lat="43.34784" lon="5.66494">
        <ele>270</ele>
        <time>2019-01-18T08:12:52.000Z</time>
      </trkpt>
      <trkpt lat="43.34783" lon="5.66495">
        <ele>270</ele>
        <time>2019-01-18T08:12:53.000Z</time>
      </trkpt>
      <trkpt lat="43.34782" lon="5.66496">
        <ele>270</ele>
        <time>2019-01-18T08:12:54.000Z</time>
      </trkpt>
      <trkpt lat="43.34781" lon="5.66497">
        <ele>270</ele>
        <time>2019-01-18T08:12:55.000Z</time>
      </trkpt>
      <trkpt lat="43.3478" lon="5.66497">
        <ele>270</ele>
        <time>2019-01-18T08:12:56.000Z</time>
      </trkpt>
      <trkpt lat="43.34779" lon="5.66498">
        <ele>270</ele>
        <time>2019-01-18T08:12:57.000Z</time>
      </trkpt>
      <trkpt lat="43.34779" lon="5.66498">
        <ele>270</ele>
        <time>2019-01-18T08:12:58.000Z</time>
      </trkpt>
      <trkpt lat="43.34778" lon="5.66498">
        <ele>269</ele>
        <time>2019-01-18T08:12:59.000Z</time>
      </trkpt>
      <trkpt lat="43.34777" lon="5.66498">
        <ele>269</ele>
        <time>2019-01-18T08:13:00.000Z</time>
      </trkpt>
      <trkpt lat="43.34776" lon="5.66499">
        <ele>269</ele>
        <time>2019-01-18T08:13:01.000Z</time>
      </trkpt>
      <trkpt lat="43.34774" lon="5.66499">
        <ele>269</ele>
        <time>2019-01-18T08:13:02.000Z</time>
      </trkpt>
      <trkpt lat="43.34773" lon="5.665">
        <ele>269</ele>
        <time>2019-01-18T08:13:03.000Z</time>
      </trkpt>
      <trkpt lat="43.34772" lon="5.665">
        <ele>268</ele>
        <time>2019-01-18T08:13:04.000Z</time>
      </trkpt>
      <trkpt lat="43.3477" lon="5.665">
        <ele>268</ele>
        <time>2019-01-18T08:13:05.000Z</time>
      </trkpt>
      <trkpt lat="43.34769" lon="5.665">
        <ele>268</ele>
        <time>2019-01-18T08:13:06.000Z</time>
      </trkpt>
      <trkpt lat="43.34767" lon="5.665">
        <ele>268</ele>
        <time>2019-01-18T08:13:07.000Z</time>
      </trkpt>
      <trkpt lat="43.34766" lon="5.665">
        <ele>268</ele>
        <time>2019-01-18T08:13:08.000Z</time>
      </trkpt>
      <trkpt lat="43.34765" lon="5.665">
        <ele>268</ele>
        <time>2019-01-18T08:13:09.000Z</time>
      </trkpt>
      <trkpt lat="43.34764" lon="5.66501">
        <ele>268</ele>
        <time>2019-01-18T08:13:10.000Z</time>
      </trkpt>
      <trkpt lat="43.34762" lon="5.66501">
        <ele>268</ele>
        <time>2019-01-18T08:13:11.000Z</time>
      </trkpt>
      <trkpt lat="43.34761" lon="5.66501">
        <ele>268</ele>
        <time>2019-01-18T08:13:12.000Z</time>
      </trkpt>
      <trkpt lat="43.34759" lon="5.66501">
        <ele>268</ele>
        <time>2019-01-18T08:13:13.000Z</time>
      </trkpt>
      <trkpt lat="43.34758" lon="5.66502">
        <ele>268</ele>
        <time>2019-01-18T08:13:14.000Z</time>
      </trkpt>
      <trkpt lat="43.34757" lon="5.66502">
        <ele>268</ele>
        <time>2019-01-18T08:13:15.000Z</time>
      </trkpt>
      <trkpt lat="43.34756" lon="5.66502">
        <ele>268</ele>
        <time>2019-01-18T08:13:16.000Z</time>
      </trkpt>
      <trkpt lat="43.34755" lon="5.66502">
        <ele>268</ele>
        <time>2019-01-18T08:13:17.000Z</time>
      </trkpt>
      <trkpt lat="43.34754" lon="5.66503">
        <ele>268</ele>
        <time>2019-01-18T08:13:18.000Z</time>
      </trkpt>
      <trkpt lat="43.34753" lon="5.66503">
        <ele>268</ele>
        <time>2019-01-18T08:13:19.000Z</time>
      </trkpt>
      <trkpt lat="43.34751" lon="5.66504">
        <ele>268</ele>
        <time>2019-01-18T08:13:20.000Z</time>
      </trkpt>
      <trkpt lat="43.3475" lon="5.66505">
        <ele>268</ele>
        <time>2019-01-18T08:13:21.000Z</time>
      </trkpt>
      <trkpt lat="43.34749" lon="5.66506">
        <ele>268</ele>
        <time>2019-01-18T08:13:22.000Z</time>
      </trkpt>
      <trkpt lat="43.34748" lon="5.66507">
        <ele>268</ele>
        <time>2019-01-18T08:13:23.000Z</time>
      </trkpt>
      <trkpt lat="43.34747" lon="5.66508">
        <ele>268</ele>
        <time>2019-01-18T08:13:24.000Z</time>
      </trkpt>
      <trkpt lat="43.34745" lon="5.66509">
        <ele>267</ele>
        <time>2019-01-18T08:13:25.000Z</time>
      </trkpt>
      <trkpt lat="43.34744" lon="5.6651">
        <ele>267</ele>
        <time>2019-01-18T08:13:26.000Z</time>
      </trkpt>
      <trkpt lat="43.34743" lon="5.6651">
        <ele>267</ele>
        <time>2019-01-18T08:13:27.000Z</time>
      </trkpt>
      <trkpt lat="43.34742" lon="5.66511">
        <ele>267</ele>
        <time>2019-01-18T08:13:28.000Z</time>
      </trkpt>
      <trkpt lat="43.3474" lon="5.66512">
        <ele>268</ele>
        <time>2019-01-18T08:13:29.000Z</time>
      </trkpt>
      <trkpt lat="43.34739" lon="5.66512">
        <ele>268</ele>
        <time>2019-01-18T08:13:30.000Z</time>
      </trkpt>
      <trkpt lat="43.34738" lon="5.66513">
        <ele>268</ele>
        <time>2019-01-18T08:13:31.000Z</time>
      </trkpt>
      <trkpt lat="43.34736" lon="5.66514">
        <ele>268</ele>
        <time>2019-01-18T08:13:32.000Z</time>
      </trkpt>
      <trkpt lat="43.34735" lon="5.66515">
        <ele>268</ele>
        <time>2019-01-18T08:13:33.000Z</time>
      </trkpt>
      <trkpt lat="43.34734" lon="5.66516">
        <ele>268</ele>
        <time>2019-01-18T08:13:34.000Z</time>
      </trkpt>
      <trkpt lat="43.34733" lon="5.66517">
        <ele>268</ele>
        <time>2019-01-18T08:13:35.000Z</time>
      </trkpt>
      <trkpt lat="43.34731" lon="5.66518">
        <ele>268</ele>
        <time>2019-01-18T08:13:36.000Z</time>
      </trkpt>
      <trkpt lat="43.3473" lon="5.66519">
        <ele>268</ele>
        <time>2019-01-18T08:13:37.000Z</time>
      </trkpt>
      <trkpt lat="43.34729" lon="5.66519">
        <ele>268</ele>
        <time>2019-01-18T08:13:38.000Z</time>
      </trkpt>
      <trkpt lat="43.34728" lon="5.6652">
        <ele>269</ele>
        <time>2019-01-18T08:13:39.000Z</time>
      </trkpt>
      <trkpt lat="43.34726" lon="5.6652">
        <ele>269</ele>
        <time>2019-01-18T08:13:40.000Z</time>
      </trkpt>
      <trkpt lat="43.34725" lon="5.66522">
        <ele>269</ele>
        <time>2019-01-18T08:13:41.000Z</time>
      </trkpt>
      <trkpt lat="43.34724" lon="5.66522">
        <ele>269</ele>
        <time>2019-01-18T08:13:42.000Z</time>
      </trkpt>
      <trkpt lat="43.34723" lon="5.66523">
        <ele>269</ele>
        <time>2019-01-18T08:13:43.000Z</time>
      </trkpt>
      <trkpt lat="43.34721" lon="5.66524">
        <ele>269</ele>
        <time>2019-01-18T08:13:44.000Z</time>
      </trkpt>
      <trkpt lat="43.3472" lon="5.66525">
        <ele>269</ele>
        <time>2019-01-18T08:13:45.000Z</time>
      </trkpt>
      <trkpt lat="43.34719" lon="5.66526">
        <ele>269</ele>
        <time>2019-01-18T08:13:46.000Z</time>
      </trkpt>
      <trkpt lat="43.34718" lon="5.66527">
        <ele>269</ele>
        <time>2019-01-18T08:13:47.000Z</time>
      </trkpt>
      <trkpt lat="43.34717" lon="5.66528">
        <ele>269</ele>
        <time>2019-01-18T08:13:48.000Z</time>
      </trkpt>
      <trkpt lat="43.34715" lon="5.66529">
        <ele>269</ele>
        <time>2019-01-18T08:13:49.000Z</time>
      </trkpt>
      <trkpt lat="43.34714" lon="5.6653">
        <ele>269</ele>
        <time>2019-01-18T08:13:50.000Z</time>
      </trkpt>
      <trkpt lat="43.34713" lon="5.66531">
        <ele>269</ele>
        <time>2019-01-18T08:13:51.000Z</time>
      </trkpt>
      <trkpt lat="43.34712" lon="5.66532">
        <ele>270</ele>
        <time>2019-01-18T08:13:52.000Z</time>
      </trkpt>
      <trkpt lat="43.34711" lon="5.66533">
        <ele>270</ele>
        <time>2019-01-18T08:13:53.000Z</time>
      </trkpt>
      <trkpt lat="43.3471" lon="5.66534">
        <ele>270</ele>
        <time>2019-01-18T08:13:54.000Z</time>
      </trkpt>
      <trkpt lat="43.34709" lon="5.66535">
        <ele>270</ele>
        <time>2019-01-18T08:13:55.000Z</time>
      </trkpt>
      <trkpt lat="43.34708" lon="5.66536">
        <ele>270</ele>
        <time>2019-01-18T08:13:56.000Z</time>
      </trkpt>
      <trkpt lat="43.34707" lon="5.66537">
        <ele>270</ele>
        <time>2019-01-18T08:13:57.000Z</time>
      </trkpt>
      <trkpt lat="43.34706" lon="5.66538">
        <ele>270</ele>
        <time>2019-01-18T08:13:58.000Z</time>
      </trkpt>
      <trkpt lat="43.34705" lon="5.66539">
        <ele>270</ele>
        <time>2019-01-18T08:13:59.000Z</time>
      </trkpt>
      <trkpt lat="43.34704" lon="5.6654">
        <ele>270</ele>
        <time>2019-01-18T08:14:00.000Z</time>
      </trkpt>
      <trkpt lat="43.34703" lon="5.66541">
        <ele>270</ele>
        <time>2019-01-18T08:14:01.000Z</time>
      </trkpt>
      <trkpt lat="43.34702" lon="5.66542">
        <ele>270</ele>
        <time>2019-01-18T08:14:02.000Z</time>
      </trkpt>
      <trkpt lat="43.34701" lon="5.66543">
        <ele>271</ele>
        <time>2019-01-18T08:14:03.000Z</time>
      </trkpt>
      <trkpt lat="43.347" lon="5.66544">
        <ele>271</ele>
        <time>2019-01-18T08:14:04.000Z</time>
      </trkpt>
      <trkpt lat="43.34699" lon="5.66545">
        <ele>271</ele>
        <time>2019-01-18T08:14:05.000Z</time>
      </trkpt>
      <trkpt lat="43.34698" lon="5.66545">
        <ele>271</ele>
        <time>2019-01-18T08:14:06.000Z</time>
      </trkpt>
      <trkpt lat="43.34697" lon="5.66546">
        <ele>271</ele>
        <time>2019-01-18T08:14:07.000Z</time>
      </trkpt>
      <trkpt lat="43.34696" lon="5.66546">
        <ele>271</ele>
        <time>2019-01-18T08:14:08.000Z</time>
      </trkpt>
      <trkpt lat="43.34696" lon="5.66547">
        <ele>271</ele>
        <time>2019-01-18T08:14:09.000Z</time>
      </trkpt>
      <trkpt lat="43.34696" lon="5.66547">
        <ele>271</ele>
        <time>2019-01-18T08:14:10.000Z</time>
      </trkpt>
      <trkpt lat="43.34696" lon="5.66547">
        <ele>271</ele>
        <time>2019-01-18T08:14:11.000Z</time>
      </trkpt>
      <trkpt lat="43.34695" lon="5.66548">
        <ele>271</ele>
        <time>2019-01-18T08:14:12.000Z</time>
      </trkpt>
      <trkpt lat="43.34694" lon="5.66548">
        <ele>271</ele>
        <time>2019-01-18T08:14:13.000Z</time>
      </trkpt>
      <trkpt lat="43.34693" lon="5.66549">
        <ele>271</ele>
        <time>2019-01-18T08:14:14.000Z</time>
      </trkpt>
      <trkpt lat="43.34692" lon="5.6655">
        <ele>271</ele>
        <time>2019-01-18T08:14:15.000Z</time>
      </trkpt>
      <trkpt lat="43.34691" lon="5.66551">
        <ele>271</ele>
        <time>2019-01-18T08:14:16.000Z</time>
      </trkpt>
      <trkpt lat="43.3469" lon="5.66553">
        <ele>271</ele>
        <time>2019-01-18T08:14:17.000Z</time>
      </trkpt>
      <trkpt lat="43.34689" lon="5.66554">
        <ele>271</ele>
        <time>2019-01-18T08:14:18.000Z</time>
      </trkpt>
      <trkpt lat="43.34687" lon="5.66555">
        <ele>271</ele>
        <time>2019-01-18T08:14:19.000Z</time>
      </trkpt>
      <trkpt lat="43.34686" lon="5.66556">
        <ele>271</ele>
        <time>2019-01-18T08:14:20.000Z</time>
      </trkpt>
      <trkpt lat="43.34685" lon="5.66557">
        <ele>271</ele>
        <time>2019-01-18T08:14:21.000Z</time>
      </trkpt>
      <trkpt lat="43.34684" lon="5.66558">
        <ele>271</ele>
        <time>2019-01-18T08:14:22.000Z</time>
      </trkpt>
      <trkpt lat="43.34683" lon="5.66559">
        <ele>271</ele>
        <time>2019-01-18T08:14:23.000Z</time>
      </trkpt>
      <trkpt lat="43.34682" lon="5.6656">
        <ele>271</ele>
        <time>2019-01-18T08:14:24.000Z</time>
      </trkpt>
      <trkpt lat="43.34681" lon="5.66561">
        <ele>271</ele>
        <time>2019-01-18T08:14:25.000Z</time>
      </trkpt>
      <trkpt lat="43.3468" lon="5.66562">
        <ele>271</ele>
        <time>2019-01-18T08:14:26.000Z</time>
      </trkpt>
      <trkpt lat="43.34679" lon="5.66562">
        <ele>271</ele>
        <time>2019-01-18T08:14:27.000Z</time>
      </trkpt>
      <trkpt lat="43.34678" lon="5.66563">
        <ele>271</ele>
        <time>2019-01-18T08:14:28.000Z</time>
      </trkpt>
      <trkpt lat="43.34677" lon="5.66564">
        <ele>271</ele>
        <time>2019-01-18T08:14:29.000Z</time>
      </trkpt>
      <trkpt lat="43.34677" lon="5.66565">
        <ele>271</ele>
        <time>2019-01-18T08:14:30.000Z</time>
      </trkpt>
      <trkpt lat="43.34676" lon="5.66565">
        <ele>271</ele>
        <time>2019-01-18T08:14:31.000Z</time>
      </trkpt>
      <trkpt lat="43.34675" lon="5.66566">
        <ele>271</ele>
        <time>2019-01-18T08:14:32.000Z</time>
      </trkpt>
      <trkpt lat="43.34674" lon="5.66567">
        <ele>271</ele>
        <time>2019-01-18T08:14:33.000Z</time>
      </trkpt>
      <trkpt lat="43.34674" lon="5.66567">
        <ele>271</ele>
        <time>2019-01-18T08:14:34.000Z</time>
      </trkpt>
      <trkpt lat="43.34673" lon="5.66568">
        <ele>271</ele>
        <time>2019-01-18T08:14:35.000Z</time>
      </trkpt>
      <trkpt lat="43.34672" lon="5.66568">
        <ele>271</ele>
        <time>2019-01-18T08:14:36.000Z</time>
      </trkpt>
      <trkpt lat="43.34672" lon="5.66569">
        <ele>271</ele>
        <time>2019-01-18T08:14:37.000Z</time>
      </trkpt>
      <trkpt lat="43.34671" lon="5.66569">
        <ele>271</ele>
        <time>2019-01-18T08:14:38.000Z</time>
      </trkpt>
      <trkpt lat="43.3467" lon="5.6657">
        <ele>271</ele>
        <time>2019-01-18T08:14:39.000Z</time>
      </trkpt>
      <trkpt lat="43.34669" lon="5.66571">
        <ele>271</ele>
        <time>2019-01-18T08:14:40.000Z</time>
      </trkpt>
      <trkpt lat="43.34668" lon="5.66571">
        <ele>271</ele>
        <time>2019-01-18T08:14:41.000Z</time>
      </trkpt>
      <trkpt lat="43.34667" lon="5.66572">
        <ele>271</ele>
        <time>2019-01-18T08:14:42.000Z</time>
      </trkpt>
      <trkpt lat="43.34666" lon="5.66574">
        <ele>271</ele>
        <time>2019-01-18T08:14:43.000Z</time>
      </trkpt>
      <trkpt lat="43.34665" lon="5.66575">
        <ele>271</ele>
        <time>2019-01-18T08:14:44.000Z</time>
      </trkpt>
      <trkpt lat="43.34664" lon="5.66576">
        <ele>271</ele>
        <time>2019-01-18T08:14:45.000Z</time>
      </trkpt>
      <trkpt lat="43.34664" lon="5.66577">
        <ele>271</ele>
        <time>2019-01-18T08:14:46.000Z</time>
      </trkpt>
      <trkpt lat="43.34663" lon="5.66579">
        <ele>271</ele>
        <time>2019-01-18T08:14:47.000Z</time>
      </trkpt>
      <trkpt lat="43.34662" lon="5.6658">
        <ele>271</ele>
        <time>2019-01-18T08:14:48.000Z</time>
      </trkpt>
      <trkpt lat="43.34662" lon="5.66582">
        <ele>271</ele>
        <time>2019-01-18T08:14:49.000Z</time>
      </trkpt>
      <trkpt lat="43.34661" lon="5.66583">
        <ele>271</ele>
        <time>2019-01-18T08:14:50.000Z</time>
      </trkpt>
      <trkpt lat="43.3466" lon="5.66585">
        <ele>271</ele>
        <time>2019-01-18T08:14:51.000Z</time>
      </trkpt>
      <trkpt lat="43.3466" lon="5.66586">
        <ele>271</ele>
        <time>2019-01-18T08:14:52.000Z</time>
      </trkpt>
      <trkpt lat="43.34659" lon="5.66587">
        <ele>271</ele>
        <time>2019-01-18T08:14:53.000Z</time>
      </trkpt>
      <trkpt lat="43.34659" lon="5.66588">
        <ele>271</ele>
        <time>2019-01-18T08:14:54.000Z</time>
      </trkpt>
      <trkpt lat="43.34659" lon="5.66588">
        <ele>271</ele>
        <time>2019-01-18T08:14:55.000Z</time>
      </trkpt>
      <trkpt lat="43.34659" lon="5.66588">
        <ele>271</ele>
        <time>2019-01-18T08:14:56.000Z</time>
      </trkpt>
      <trkpt lat="43.34659" lon="5.66588">
        <ele>271</ele>
        <time>2019-01-18T08:14:57.000Z</time>
      </trkpt>
      <trkpt lat="43.34659" lon="5.66588">
        <ele>271</ele>
        <time>2019-01-18T08:14:58.000Z</time>
      </trkpt>
      <trkpt lat="43.34658" lon="5.66588">
        <ele>271</ele>
        <time>2019-01-18T08:14:59.000Z</time>
      </trkpt>
      <trkpt lat="43.34658" lon="5.66588">
        <ele>271</ele>
        <time>2019-01-18T08:15:00.000Z</time>
      </trkpt>
      <trkpt lat="43.34658" lon="5.66588">
        <ele>271</ele>
        <time>2019-01-18T08:15:01.000Z</time>
      </trkpt>
      <trkpt lat="43.34658" lon="5.66588">
        <ele>271</ele>
        <time>2019-01-18T08:15:02.000Z</time>
      </trkpt>
      <trkpt lat="43.34659" lon="5.66588">
        <ele>271</ele>
        <time>2019-01-18T08:15:03.000Z</time>
      </trkpt>
      <trkpt lat="43.34659" lon="5.66588">
        <ele>271</ele>
        <time>2019-01-18T08:15:04.000Z</time>
      </trkpt>
      <trkpt lat="43.34659" lon="5.66588">
        <ele>272</ele>
        <time>2019-01-18T08:15:05.000Z</time>
      </trkpt>
      <trkpt lat="43.34659" lon="5.66588">
        <ele>272</ele>
        <time>2019-01-18T08:15:06.000Z</time>
      </trkpt>
      <trkpt lat="43.34658" lon="5.66588">
        <ele>272</ele>
        <time>2019-01-18T08:15:07.000Z</time>
      </trkpt>
      <trkpt lat="43.34658" lon="5.66588">
        <ele>272</ele>
        <time>2019-01-18T08:15:08.000Z</time>
      </trkpt>
      <trkpt lat="43.34658" lon="5.66588">
        <ele>272</ele>
        <time>2019-01-18T08:15:09.000Z</time>
      </trkpt>
      <trkpt lat="43.34658" lon="5.66589">
        <ele>272</ele>
        <time>2019-01-18T08:15:10.000Z</time>
      </trkpt>
      <trkpt lat="43.34658" lon="5.6659">
        <ele>272</ele>
        <time>2019-01-18T08:15:11.000Z</time>
      </trkpt>
      <trkpt lat="43.34658" lon="5.6659">
        <ele>272</ele>
        <time>2019-01-18T08:15:12.000Z</time>
      </trkpt>
      <trkpt lat="43.34657" lon="5.6659">
        <ele>272</ele>
        <time>2019-01-18T08:15:13.000Z</time>
      </trkpt>
      <trkpt lat="43.34657" lon="5.6659">
        <ele>272</ele>
        <time>2019-01-18T08:15:14.000Z</time>
      </trkpt>
      <trkpt lat="43.34657" lon="5.6659">
        <ele>272</ele>
        <time>2019-01-18T08:15:15.000Z</time>
      </trkpt>
      <trkpt lat="43.34657" lon="5.6659">
        <ele>272</ele>
        <time>2019-01-18T08:15:16.000Z</time>
      </trkpt>
      <trkpt lat="43.34657" lon="5.6659">
        <ele>273</ele>
        <time>2019-01-18T08:15:17.000Z</time>
      </trkpt>
      <trkpt lat="43.34657" lon="5.6659">
        <ele>273</ele>
        <time>2019-01-18T08:15:18.000Z</time>
      </trkpt>
      <trkpt lat="43.34657" lon="5.6659">
        <ele>273</ele>
        <time>2019-01-18T08:15:19.000Z</time>
      </trkpt>
      <trkpt lat="43.34657" lon="5.6659">
        <ele>273</ele>
        <time>2019-01-18T08:15:20.000Z</time>
      </trkpt>
      <trkpt lat="43.34657" lon="5.6659">
        <ele>273</ele>
        <time>2019-01-18T08:15:21.000Z</time>
      </trkpt>
      <trkpt lat="43.34657" lon="5.6659">
        <ele>273</ele>
        <time>2019-01-18T08:15:22.000Z</time>
      </trkpt>
      <trkpt lat="43.34657" lon="5.6659">
        <ele>273</ele>
        <time>2019-01-18T08:15:23.000Z</time>
      </trkpt>
      <trkpt lat="43.34657" lon="5.6659">
        <ele>273</ele>
        <time>2019-01-18T08:15:24.000Z</time>
      </trkpt>
      <trkpt lat="43.34657" lon="5.6659">
        <ele>273</ele>
        <time>2019-01-18T08:15:25.000Z</time>
      </trkpt>
      <trkpt lat="43.34657" lon="5.6659">
        <ele>273</ele>
        <time>2019-01-18T08:15:26.000Z</time>
      </trkpt>
      <trkpt lat="43.34656" lon="5.6659">
        <ele>273</ele>
        <time>2019-01-18T08:15:27.000Z</time>
      </trkpt>
      <trkpt lat="43.34656" lon="5.6659">
        <ele>273</ele>
        <time>2019-01-18T08:15:28.000Z</time>
      </trkpt>
      <trkpt lat="43.34656" lon="5.6659">
        <ele>273</ele>
        <time>2019-01-18T08:15:29.000Z</time>
      </trkpt>
      <trkpt lat="43.34656" lon="5.6659">
        <ele>273</ele>
        <time>2019-01-18T08:15:30.000Z</time>
      </trkpt>
      <trkpt lat="43.34656" lon="5.6659">
        <ele>273</ele>
        <time>2019-01-18T08:15:31.000Z</time>
      </trkpt>
      <trkpt lat="43.34656" lon="5.6659">
        <ele>274</ele>
        <time>2019-01-18T08:15:32.000Z</time>
      </trkpt>
      <trkpt lat="43.34656" lon="5.6659">
        <ele>274</ele>
        <time>2019-01-18T08:15:33.000Z</time>
      </trkpt>
      <trkpt lat="43.34656" lon="5.6659">
        <ele>274</ele>
        <time>2019-01-18T08:15:34.000Z</time>
      </trkpt>
      <trkpt lat="43.34655" lon="5.66591">
        <ele>274</ele>
        <time>2019-01-18T08:15:35.000Z</time>
      </trkpt>
      <trkpt lat="43.34654" lon="5.66591">
        <ele>274</ele>
        <time>2019-01-18T08:15:36.000Z</time>
      </trkpt>
      <trkpt lat="43.34653" lon="5.66591">
        <ele>274</ele>
        <time>2019-01-18T08:15:37.000Z</time>
      </trkpt>
      <trkpt lat="43.34652" lon="5.66591">
        <ele>274</ele>
        <time>2019-01-18T08:15:38.000Z</time>
      </trkpt>
      <trkpt lat="43.34651" lon="5.66591">
        <ele>274</ele>
        <time>2019-01-18T08:15:39.000Z</time>
      </trkpt>
      <trkpt lat="43.34649" lon="5.66591">
        <ele>275</ele>
        <time>2019-01-18T08:15:40.000Z</time>
      </trkpt>
      <trkpt lat="43.34648" lon="5.66591">
        <ele>275</ele>
        <time>2019-01-18T08:15:41.000Z</time>
      </trkpt>
      <trkpt lat="43.34647" lon="5.66591">
        <ele>275</ele>
        <time>2019-01-18T08:15:42.000Z</time>
      </trkpt>
      <trkpt lat="43.34647" lon="5.66591">
        <ele>275</ele>
        <time>2019-01-18T08:15:43.000Z</time>
      </trkpt>
      <trkpt lat="43.34646" lon="5.66591">
        <ele>275</ele>
        <time>2019-01-18T08:15:44.000Z</time>
      </trkpt>
      <trkpt lat="43.34645" lon="5.66591">
        <ele>275</ele>
        <time>2019-01-18T08:15:45.000Z</time>
      </trkpt>
      <trkpt lat="43.34644" lon="5.6659">
        <ele>275</ele>
        <time>2019-01-18T08:15:46.000Z</time>
      </trkpt>
      <trkpt lat="43.34643" lon="5.6659">
        <ele>275</ele>
        <time>2019-01-18T08:15:47.000Z</time>
      </trkpt>
      <trkpt lat="43.34642" lon="5.6659">
        <ele>275</ele>
        <time>2019-01-18T08:15:48.000Z</time>
      </trkpt>
      <trkpt lat="43.34641" lon="5.66589">
        <ele>275</ele>
        <time>2019-01-18T08:15:49.000Z</time>
      </trkpt>
      <trkpt lat="43.3464" lon="5.66589">
        <ele>275</ele>
        <time>2019-01-18T08:15:50.000Z</time>
      </trkpt>
      <trkpt lat="43.34638" lon="5.66588">
        <ele>275</ele>
        <time>2019-01-18T08:15:51.000Z</time>
      </trkpt>
      <trkpt lat="43.34637" lon="5.66588">
        <ele>275</ele>
        <time>2019-01-18T08:15:52.000Z</time>
      </trkpt>
      <trkpt lat="43.34636" lon="5.66588">
        <ele>275</ele>
        <time>2019-01-18T08:15:53.000Z</time>
      </trkpt>
      <trkpt lat="43.34635" lon="5.66588">
        <ele>275</ele>
        <time>2019-01-18T08:15:54.000Z</time>
      </trkpt>
      <trkpt lat="43.34634" lon="5.66588">
        <ele>275</ele>
        <time>2019-01-18T08:15:55.000Z</time>
      </trkpt>
      <trkpt lat="43.34633" lon="5.66588">
        <ele>275</ele>
        <time>2019-01-18T08:15:56.000Z</time>
      </trkpt>
      <trkpt lat="43.34632" lon="5.66588">
        <ele>275</ele>
        <time>2019-01-18T08:15:57.000Z</time>
      </trkpt>
      <trkpt lat="43.34631" lon="5.66589">
        <ele>275</ele>
        <time>2019-01-18T08:15:58.000Z</time>
      </trkpt>
      <trkpt lat="43.3463" lon="5.66589">
        <ele>276</ele>
        <time>2019-01-18T08:15:59.000Z</time>
      </trkpt>
      <trkpt lat="43.34629" lon="5.66589">
        <ele>276</ele>
        <time>2019-01-18T08:16:00.000Z</time>
      </trkpt>
      <trkpt lat="43.34628" lon="5.6659">
        <ele>276</ele>
        <time>2019-01-18T08:16:01.000Z</time>
      </trkpt>
      <trkpt lat="43.34627" lon="5.6659">
        <ele>276</ele>
        <time>2019-01-18T08:16:02.000Z</time>
      </trkpt>
      <trkpt lat="43.34626" lon="5.6659">
        <ele>276</ele>
        <time>2019-01-18T08:16:03.000Z</time>
      </trkpt>
      <trkpt lat="43.34624" lon="5.66591">
        <ele>276</ele>
        <time>2019-01-18T08:16:04.000Z</time>
      </trkpt>
      <trkpt lat="43.34623" lon="5.66592">
        <ele>275</ele>
        <time>2019-01-18T08:16:05.000Z</time>
      </trkpt>
      <trkpt lat="43.34622" lon="5.66592">
        <ele>275</ele>
        <time>2019-01-18T08:16:06.000Z</time>
      </trkpt>
      <trkpt lat="43.34621" lon="5.66593">
        <ele>275</ele>
        <time>2019-01-18T08:16:07.000Z</time>
      </trkpt>
      <trkpt lat="43.3462" lon="5.66594">
        <ele>275</ele>
        <time>2019-01-18T08:16:08.000Z</time>
      </trkpt>
      <trkpt lat="43.34619" lon="5.66594">
        <ele>275</ele>
        <time>2019-01-18T08:16:09.000Z</time>
      </trkpt>
      <trkpt lat="43.34618" lon="5.66595">
        <ele>275</ele>
        <time>2019-01-18T08:16:10.000Z</time>
      </trkpt>
      <trkpt lat="43.34616" lon="5.66595">
        <ele>275</ele>
        <time>2019-01-18T08:16:11.000Z</time>
      </trkpt>
      <trkpt lat="43.34615" lon="5.66596">
        <ele>275</ele>
        <time>2019-01-18T08:16:12.000Z</time>
      </trkpt>
      <trkpt lat="43.34614" lon="5.66597">
        <ele>274</ele>
        <time>2019-01-18T08:16:13.000Z</time>
      </trkpt>
      <trkpt lat="43.34613" lon="5.66597">
        <ele>274</ele>
        <time>2019-01-18T08:16:14.000Z</time>
      </trkpt>
      <trkpt lat="43.34611" lon="5.66597">
        <ele>274</ele>
        <time>2019-01-18T08:16:15.000Z</time>
      </trkpt>
      <trkpt lat="43.3461" lon="5.66598">
        <ele>274</ele>
        <time>2019-01-18T08:16:16.000Z</time>
      </trkpt>
      <trkpt lat="43.34609" lon="5.66598">
        <ele>274</ele>
        <time>2019-01-18T08:16:17.000Z</time>
      </trkpt>
      <trkpt lat="43.34608" lon="5.66598">
        <ele>274</ele>
        <time>2019-01-18T08:16:18.000Z</time>
      </trkpt>
      <trkpt lat="43.34606" lon="5.66598">
        <ele>274</ele>
        <time>2019-01-18T08:16:19.000Z</time>
      </trkpt>
      <trkpt lat="43.34605" lon="5.66598">
        <ele>274</ele>
        <time>2019-01-18T08:16:20.000Z</time>
      </trkpt>
      <trkpt lat="43.34604" lon="5.66598">
        <ele>274</ele>
        <time>2019-01-18T08:16:21.000Z</time>
      </trkpt>
      <trkpt lat="43.34603" lon="5.66599">
        <ele>274</ele>
        <time>2019-01-18T08:16:22.000Z</time>
      </trkpt>
      <trkpt lat="43.34602" lon="5.66599">
        <ele>274</ele>
        <time>2019-01-18T08:16:23.000Z</time>
      </trkpt>
      <trkpt lat="43.34601" lon="5.66599">
        <ele>274</ele>
        <time>2019-01-18T08:16:24.000Z</time>
      </trkpt>
      <trkpt lat="43.346" lon="5.666">
        <ele>273</ele>
        <time>2019-01-18T08:16:25.000Z</time>
      </trkpt>
      <trkpt lat="43.346" lon="5.66601">
        <ele>273</ele>
        <time>2019-01-18T08:16:26.000Z</time>
      </trkpt>
      <trkpt lat="43.34599" lon="5.66602">
        <ele>273</ele>
        <time>2019-01-18T08:16:27.000Z</time>
      </trkpt>
      <trkpt lat="43.34598" lon="5.66602">
        <ele>273</ele>
        <time>2019-01-18T08:16:28.000Z</time>
      </trkpt>
      <trkpt lat="43.34596" lon="5.66602">
        <ele>273</ele>
        <time>2019-01-18T08:16:29.000Z</time>
      </trkpt>
      <trkpt lat="43.34595" lon="5.66602">
        <ele>273</ele>
        <time>2019-01-18T08:16:30.000Z</time>
      </trkpt>
      <trkpt lat="43.34594" lon="5.66603">
        <ele>273</ele>
        <time>2019-01-18T08:16:31.000Z</time>
      </trkpt>
      <trkpt lat="43.34593" lon="5.66603">
        <ele>273</ele>
        <time>2019-01-18T08:16:32.000Z</time>
      </trkpt>
      <trkpt lat="43.34591" lon="5.66603">
        <ele>273</ele>
        <time>2019-01-18T08:16:33.000Z</time>
      </trkpt>
      <trkpt lat="43.3459" lon="5.66603">
        <ele>273</ele>
        <time>2019-01-18T08:16:34.000Z</time>
      </trkpt>
      <trkpt lat="43.34589" lon="5.66604">
        <ele>273</ele>
        <time>2019-01-18T08:16:35.000Z</time>
      </trkpt>
      <trkpt lat="43.34587" lon="5.66604">
        <ele>273</ele>
        <time>2019-01-18T08:16:36.000Z</time>
      </trkpt>
      <trkpt lat="43.34586" lon="5.66604">
        <ele>273</ele>
        <time>2019-01-18T08:16:37.000Z</time>
      </trkpt>
      <trkpt lat="43.34585" lon="5.66605">
        <ele>273</ele>
        <time>2019-01-18T08:16:38.000Z</time>
      </trkpt>
      <trkpt lat="43.34584" lon="5.66605">
        <ele>273</ele>
        <time>2019-01-18T08:16:39.000Z</time>
      </trkpt>
      <trkpt lat="43.34583" lon="5.66605">
        <ele>273</ele>
        <time>2019-01-18T08:16:40.000Z</time>
      </trkpt>
      <trkpt lat="43.34582" lon="5.66606">
        <ele>273</ele>
        <time>2019-01-18T08:16:41.000Z</time>
      </trkpt>
      <trkpt lat="43.34581" lon="5.66607">
        <ele>273</ele>
        <time>2019-01-18T08:16:42.000Z</time>
      </trkpt>
      <trkpt lat="43.3458" lon="5.66608">
        <ele>273</ele>
        <time>2019-01-18T08:16:43.000Z</time>
      </trkpt>
      <trkpt lat="43.34579" lon="5.66609">
        <ele>273</ele>
        <time>2019-01-18T08:16:44.000Z</time>
      </trkpt>
      <trkpt lat="43.34579" lon="5.66609">
        <ele>273</ele>
        <time>2019-01-18T08:16:45.000Z</time>
      </trkpt>
      <trkpt lat="43.34579" lon="5.6661">
        <ele>273</ele>
        <time>2019-01-18T08:16:46.000Z</time>
      </trkpt>
      <trkpt lat="43.34579" lon="5.6661">
        <ele>273</ele>
        <time>2019-01-18T08:16:47.000Z</time>
      </trkpt>
      <trkpt lat="43.34579" lon="5.6661">
        <ele>273</ele>
        <time>2019-01-18T08:16:48.000Z</time>
      </trkpt>
      <trkpt lat="43.34579" lon="5.6661">
        <ele>273</ele>
        <time>2019-01-18T08:16:49.000Z</time>
      </trkpt>
      <trkpt lat="43.34579" lon="5.66611">
        <ele>273</ele>
        <time>2019-01-18T08:16:50.000Z</time>
      </trkpt>
      <trkpt lat="43.34579" lon="5.66611">
        <ele>273</ele>
        <time>2019-01-18T08:16:51.000Z</time>
      </trkpt>
      <trkpt lat="43.34579" lon="5.66611">
        <ele>273</ele>
        <time>2019-01-18T08:16:52.000Z</time>
      </trkpt>
      <trkpt lat="43.34579" lon="5.66612">
        <ele>273</ele>
        <time>2019-01-18T08:16:53.000Z</time>
      </trkpt>
      <trkpt lat="43.34578" lon="5.66614">
        <ele>273</ele>
        <time>2019-01-18T08:16:54.000Z</time>
      </trkpt>
      <trkpt lat="43.34578" lon="5.66615">
        <ele>273</ele>
        <time>2019-01-18T08:16:55.000Z</time>
      </trkpt>
      <trkpt lat="43.34578" lon="5.66616">
        <ele>273</ele>
        <time>2019-01-18T08:16:56.000Z</time>
      </trkpt>
      <trkpt lat="43.34578" lon="5.66617">
        <ele>273</ele>
        <time>2019-01-18T08:16:57.000Z</time>
      </trkpt>
      <trkpt lat="43.34577" lon="5.66618">
        <ele>273</ele>
        <time>2019-01-18T08:16:58.000Z</time>
      </trkpt>
      <trkpt lat="43.34577" lon="5.6662">
        <ele>273</ele>
        <time>2019-01-18T08:16:59.000Z</time>
      </trkpt>
      <trkpt lat="43.34576" lon="5.66621">
        <ele>273</ele>
        <time>2019-01-18T08:17:00.000Z</time>
      </trkpt>
      <trkpt lat="43.34575" lon="5.66622">
        <ele>273</ele>
        <time>2019-01-18T08:17:01.000Z</time>
      </trkpt>
      <trkpt lat="43.34575" lon="5.66623">
        <ele>273</ele>
        <time>2019-01-18T08:17:02.000Z</time>
      </trkpt>
      <trkpt lat="43.34574" lon="5.66625">
        <ele>273</ele>
        <time>2019-01-18T08:17:03.000Z</time>
      </trkpt>
      <trkpt lat="43.34573" lon="5.66626">
        <ele>273</ele>
        <time>2019-01-18T08:17:04.000Z</time>
      </trkpt>
      <trkpt lat="43.34572" lon="5.66627">
        <ele>272</ele>
        <time>2019-01-18T08:17:05.000Z</time>
      </trkpt>
      <trkpt lat="43.34571" lon="5.66627">
        <ele>272</ele>
        <time>2019-01-18T08:17:06.000Z</time>
      </trkpt>
      <trkpt lat="43.34569" lon="5.66628">
        <ele>272</ele>
        <time>2019-01-18T08:17:07.000Z</time>
      </trkpt>
      <trkpt lat="43.34568" lon="5.66629">
        <ele>272</ele>
        <time>2019-01-18T08:17:08.000Z</time>
      </trkpt>
      <trkpt lat="43.34567" lon="5.6663">
        <ele>272</ele>
        <time>2019-01-18T08:17:09.000Z</time>
      </trkpt>
      <trkpt lat="43.34567" lon="5.6663">
        <ele>272</ele>
        <time>2019-01-18T08:17:10.000Z</time>
      </trkpt>
      <trkpt lat="43.34566" lon="5.66631">
        <ele>272</ele>
        <time>2019-01-18T08:17:11.000Z</time>
      </trkpt>
      <trkpt lat="43.34564" lon="5.66632">
        <ele>272</ele>
        <time>2019-01-18T08:17:12.000Z</time>
      </trkpt>
      <trkpt lat="43.34564" lon="5.66634">
        <ele>272</ele>
        <time>2019-01-18T08:17:13.000Z</time>
      </trkpt>
      <trkpt lat="43.34563" lon="5.66635">
        <ele>272</ele>
        <time>2019-01-18T08:17:14.000Z</time>
      </trkpt>
      <trkpt lat="43.34562" lon="5.66635">
        <ele>272</ele>
        <time>2019-01-18T08:17:15.000Z</time>
      </trkpt>
      <trkpt lat="43.34561" lon="5.66636">
        <ele>272</ele>
        <time>2019-01-18T08:17:16.000Z</time>
      </trkpt>
      <trkpt lat="43.3456" lon="5.66637">
        <ele>272</ele>
        <time>2019-01-18T08:17:17.000Z</time>
      </trkpt>
      <trkpt lat="43.34559" lon="5.66638">
        <ele>272</ele>
        <time>2019-01-18T08:17:18.000Z</time>
      </trkpt>
      <trkpt lat="43.34559" lon="5.66639">
        <ele>271</ele>
        <time>2019-01-18T08:17:19.000Z</time>
      </trkpt>
      <trkpt lat="43.34558" lon="5.6664">
        <ele>271</ele>
        <time>2019-01-18T08:17:20.000Z</time>
      </trkpt>
      <trkpt lat="43.34558" lon="5.6664">
        <ele>271</ele>
        <time>2019-01-18T08:17:21.000Z</time>
      </trkpt>
      <trkpt lat="43.34557" lon="5.66641">
        <ele>271</ele>
        <time>2019-01-18T08:17:22.000Z</time>
      </trkpt>
      <trkpt lat="43.34556" lon="5.66642">
        <ele>271</ele>
        <time>2019-01-18T08:17:23.000Z</time>
      </trkpt>
      <trkpt lat="43.34555" lon="5.66643">
        <ele>271</ele>
        <time>2019-01-18T08:17:24.000Z</time>
      </trkpt>
      <trkpt lat="43.34554" lon="5.66644">
        <ele>271</ele>
        <time>2019-01-18T08:17:25.000Z</time>
      </trkpt>
      <trkpt lat="43.34553" lon="5.66645">
        <ele>271</ele>
        <time>2019-01-18T08:17:26.000Z</time>
      </trkpt>
      <trkpt lat="43.34552" lon="5.66645">
        <ele>271</ele>
        <time>2019-01-18T08:17:27.000Z</time>
      </trkpt>
      <trkpt lat="43.34551" lon="5.66646">
        <ele>270</ele>
        <time>2019-01-18T08:17:28.000Z</time>
      </trkpt>
      <trkpt lat="43.3455" lon="5.66647">
        <ele>270</ele>
        <time>2019-01-18T08:17:29.000Z</time>
      </trkpt>
      <trkpt lat="43.3455" lon="5.66648">
        <ele>270</ele>
        <time>2019-01-18T08:17:30.000Z</time>
      </trkpt>
      <trkpt lat="43.34549" lon="5.66649">
        <ele>270</ele>
        <time>2019-01-18T08:17:31.000Z</time>
      </trkpt>
      <trkpt lat="43.34547" lon="5.6665">
        <ele>270</ele>
        <time>2019-01-18T08:17:32.000Z</time>
      </trkpt>
      <trkpt lat="43.34546" lon="5.6665">
        <ele>270</ele>
        <time>2019-01-18T08:17:33.000Z</time>
      </trkpt>
      <trkpt lat="43.34545" lon="5.66651">
        <ele>270</ele>
        <time>2019-01-18T08:17:34.000Z</time>
      </trkpt>
      <trkpt lat="43.34545" lon="5.66651">
        <ele>270</ele>
        <time>2019-01-18T08:17:35.000Z</time>
      </trkpt>
      <trkpt lat="43.34544" lon="5.66652">
        <ele>270</ele>
        <time>2019-01-18T08:17:36.000Z</time>
      </trkpt>
      <trkpt lat="43.34543" lon="5.66653">
        <ele>270</ele>
        <time>2019-01-18T08:17:37.000Z</time>
      </trkpt>
      <trkpt lat="43.34542" lon="5.66655">
        <ele>270</ele>
        <time>2019-01-18T08:17:38.000Z</time>
      </trkpt>
      <trkpt lat="43.34541" lon="5.66656">
        <ele>270</ele>
        <time>2019-01-18T08:17:39.000Z</time>
      </trkpt>
      <trkpt lat="43.3454" lon="5.66657">
        <ele>270</ele>
        <time>2019-01-18T08:17:40.000Z</time>
      </trkpt>
      <trkpt lat="43.3454" lon="5.66658">
        <ele>270</ele>
        <time>2019-01-18T08:17:41.000Z</time>
      </trkpt>
      <trkpt lat="43.34539" lon="5.66659">
        <ele>270</ele>
        <time>2019-01-18T08:17:42.000Z</time>
      </trkpt>
      <trkpt lat="43.34538" lon="5.6666">
        <ele>270</ele>
        <time>2019-01-18T08:17:43.000Z</time>
      </trkpt>
      <trkpt lat="43.34537" lon="5.66662">
        <ele>270</ele>
        <time>2019-01-18T08:17:44.000Z</time>
      </trkpt>
      <trkpt lat="43.34536" lon="5.66663">
        <ele>270</ele>
        <time>2019-01-18T08:17:45.000Z</time>
      </trkpt>
      <trkpt lat="43.34536" lon="5.66664">
        <ele>271</ele>
        <time>2019-01-18T08:17:46.000Z</time>
      </trkpt>
      <trkpt lat="43.34535" lon="5.66665">
        <ele>271</ele>
        <time>2019-01-18T08:17:47.000Z</time>
      </trkpt>
      <trkpt lat="43.34534" lon="5.66666">
        <ele>271</ele>
        <time>2019-01-18T08:17:48.000Z</time>
      </trkpt>
      <trkpt lat="43.34534" lon="5.66667">
        <ele>271</ele>
        <time>2019-01-18T08:17:49.000Z</time>
      </trkpt>
      <trkpt lat="43.34533" lon="5.66667">
        <ele>271</ele>
        <time>2019-01-18T08:17:50.000Z</time>
      </trkpt>
      <trkpt lat="43.34533" lon="5.66669">
        <ele>271</ele>
        <time>2019-01-18T08:17:51.000Z</time>
      </trkpt>
      <trkpt lat="43.34532" lon="5.6667">
        <ele>271</ele>
        <time>2019-01-18T08:17:52.000Z</time>
      </trkpt>
      <trkpt lat="43.34531" lon="5.66671">
        <ele>271</ele>
        <time>2019-01-18T08:17:53.000Z</time>
      </trkpt>
      <trkpt lat="43.34531" lon="5.66672">
        <ele>271</ele>
        <time>2019-01-18T08:17:54.000Z</time>
      </trkpt>
      <trkpt lat="43.3453" lon="5.66673">
        <ele>272</ele>
        <time>2019-01-18T08:17:55.000Z</time>
      </trkpt>
      <trkpt lat="43.34529" lon="5.66674">
        <ele>272</ele>
        <time>2019-01-18T08:17:56.000Z</time>
      </trkpt>
      <trkpt lat="43.34529" lon="5.66675">
        <ele>272</ele>
        <time>2019-01-18T08:17:57.000Z</time>
      </trkpt>
      <trkpt lat="43.34528" lon="5.66676">
        <ele>272</ele>
        <time>2019-01-18T08:17:58.000Z</time>
      </trkpt>
      <trkpt lat="43.34527" lon="5.66677">
        <ele>272</ele>
        <time>2019-01-18T08:17:59.000Z</time>
      </trkpt>
      <trkpt lat="43.34526" lon="5.66678">
        <ele>272</ele>
        <time>2019-01-18T08:18:00.000Z</time>
      </trkpt>
      <trkpt lat="43.34525" lon="5.66678">
        <ele>272</ele>
        <time>2019-01-18T08:18:01.000Z</time>
      </trkpt>
      <trkpt lat="43.34524" lon="5.66679">
        <ele>272</ele>
        <time>2019-01-18T08:18:02.000Z</time>
      </trkpt>
      <trkpt lat="43.34523" lon="5.66679">
        <ele>272</ele>
        <time>2019-01-18T08:18:03.000Z</time>
      </trkpt>
      <trkpt lat="43.34522" lon="5.6668">
        <ele>272</ele>
        <time>2019-01-18T08:18:04.000Z</time>
      </trkpt>
      <trkpt lat="43.34521" lon="5.66681">
        <ele>273</ele>
        <time>2019-01-18T08:18:05.000Z</time>
      </trkpt>
      <trkpt lat="43.3452" lon="5.66681">
        <ele>273</ele>
        <time>2019-01-18T08:18:06.000Z</time>
      </trkpt>
      <trkpt lat="43.34519" lon="5.66682">
        <ele>273</ele>
        <time>2019-01-18T08:18:07.000Z</time>
      </trkpt>
      <trkpt lat="43.34518" lon="5.66683">
        <ele>273</ele>
        <time>2019-01-18T08:18:08.000Z</time>
      </trkpt>
      <trkpt lat="43.34517" lon="5.66684">
        <ele>274</ele>
        <time>2019-01-18T08:18:09.000Z</time>
      </trkpt>
      <trkpt lat="43.34516" lon="5.66685">
        <ele>274</ele>
        <time>2019-01-18T08:18:10.000Z</time>
      </trkpt>
      <trkpt lat="43.34515" lon="5.66686">
        <ele>274</ele>
        <time>2019-01-18T08:18:11.000Z</time>
      </trkpt>
      <trkpt lat="43.34514" lon="5.66687">
        <ele>274</ele>
        <time>2019-01-18T08:18:12.000Z</time>
      </trkpt>
      <trkpt lat="43.34513" lon="5.66688">
        <ele>274</ele>
        <time>2019-01-18T08:18:13.000Z</time>
      </trkpt>
      <trkpt lat="43.34513" lon="5.66689">
        <ele>275</ele>
        <time>2019-01-18T08:18:14.000Z</time>
      </trkpt>
      <trkpt lat="43.34511" lon="5.6669">
        <ele>275</ele>
        <time>2019-01-18T08:18:15.000Z</time>
      </trkpt>
      <trkpt lat="43.3451" lon="5.66691">
        <ele>275</ele>
        <time>2019-01-18T08:18:16.000Z</time>
      </trkpt>
      <trkpt lat="43.34509" lon="5.66691">
        <ele>275</ele>
        <time>2019-01-18T08:18:17.000Z</time>
      </trkpt>
      <trkpt lat="43.34508" lon="5.66692">
        <ele>276</ele>
        <time>2019-01-18T08:18:18.000Z</time>
      </trkpt>
      <trkpt lat="43.34507" lon="5.66693">
        <ele>276</ele>
        <time>2019-01-18T08:18:19.000Z</time>
      </trkpt>
      <trkpt lat="43.34506" lon="5.66694">
        <ele>276</ele>
        <time>2019-01-18T08:18:20.000Z</time>
      </trkpt>
      <trkpt lat="43.34506" lon="5.66696">
        <ele>276</ele>
        <time>2019-01-18T08:18:21.000Z</time>
      </trkpt>
      <trkpt lat="43.34505" lon="5.66696">
        <ele>276</ele>
        <time>2019-01-18T08:18:22.000Z</time>
      </trkpt>
      <trkpt lat="43.34504" lon="5.66698">
        <ele>276</ele>
        <time>2019-01-18T08:18:23.000Z</time>
      </trkpt>
      <trkpt lat="43.34503" lon="5.66699">
        <ele>277</ele>
        <time>2019-01-18T08:18:24.000Z</time>
      </trkpt>
      <trkpt lat="43.34502" lon="5.667">
        <ele>277</ele>
        <time>2019-01-18T08:18:25.000Z</time>
      </trkpt>
      <trkpt lat="43.34502" lon="5.66701">
        <ele>277</ele>
        <time>2019-01-18T08:18:26.000Z</time>
      </trkpt>
      <trkpt lat="43.34501" lon="5.66702">
        <ele>277</ele>
        <time>2019-01-18T08:18:27.000Z</time>
      </trkpt>
      <trkpt lat="43.345" lon="5.66703">
        <ele>277</ele>
        <time>2019-01-18T08:18:28.000Z</time>
      </trkpt>
      <trkpt lat="43.34499" lon="5.66704">
        <ele>277</ele>
        <time>2019-01-18T08:18:29.000Z</time>
      </trkpt>
      <trkpt lat="43.34498" lon="5.66705">
        <ele>278</ele>
        <time>2019-01-18T08:18:30.000Z</time>
      </trkpt>
      <trkpt lat="43.34498" lon="5.66706">
        <ele>278</ele>
        <time>2019-01-18T08:18:31.000Z</time>
      </trkpt>
      <trkpt lat="43.34497" lon="5.66707">
        <ele>278</ele>
        <time>2019-01-18T08:18:32.000Z</time>
      </trkpt>
      <trkpt lat="43.34496" lon="5.66708">
        <ele>278</ele>
        <time>2019-01-18T08:18:33.000Z</time>
      </trkpt>
      <trkpt lat="43.34496" lon="5.66709">
        <ele>278</ele>
        <time>2019-01-18T08:18:34.000Z</time>
      </trkpt>
      <trkpt lat="43.34495" lon="5.6671">
        <ele>278</ele>
        <time>2019-01-18T08:18:35.000Z</time>
      </trkpt>
      <trkpt lat="43.34494" lon="5.66711">
        <ele>278</ele>
        <time>2019-01-18T08:18:36.000Z</time>
      </trkpt>
      <trkpt lat="43.34494" lon="5.66712">
        <ele>278</ele>
        <time>2019-01-18T08:18:37.000Z</time>
      </trkpt>
      <trkpt lat="43.34494" lon="5.66713">
        <ele>278</ele>
        <time>2019-01-18T08:18:38.000Z</time>
      </trkpt>
      <trkpt lat="43.34493" lon="5.66714">
        <ele>278</ele>
        <time>2019-01-18T08:18:39.000Z</time>
      </trkpt>
      <trkpt lat="43.34492" lon="5.66715">
        <ele>278</ele>
        <time>2019-01-18T08:18:40.000Z</time>
      </trkpt>
      <trkpt lat="43.34491" lon="5.66716">
        <ele>278</ele>
        <time>2019-01-18T08:18:41.000Z</time>
      </trkpt>
      <trkpt lat="43.3449" lon="5.66717">
        <ele>278</ele>
        <time>2019-01-18T08:18:42.000Z</time>
      </trkpt>
      <trkpt lat="43.34489" lon="5.66718">
        <ele>278</ele>
        <time>2019-01-18T08:18:43.000Z</time>
      </trkpt>
      <trkpt lat="43.34488" lon="5.66718">
        <ele>278</ele>
        <time>2019-01-18T08:18:44.000Z</time>
      </trkpt>
      <trkpt lat="43.34488" lon="5.66719">
        <ele>278</ele>
        <time>2019-01-18T08:18:45.000Z</time>
      </trkpt>
      <trkpt lat="43.34488" lon="5.6672">
        <ele>278</ele>
        <time>2019-01-18T08:18:46.000Z</time>
      </trkpt>
      <trkpt lat="43.34487" lon="5.66721">
        <ele>278</ele>
        <time>2019-01-18T08:18:47.000Z</time>
      </trkpt>
      <trkpt lat="43.34487" lon="5.66723">
        <ele>278</ele>
        <time>2019-01-18T08:18:48.000Z</time>
      </trkpt>
      <trkpt lat="43.34487" lon="5.66724">
        <ele>278</ele>
        <time>2019-01-18T08:18:49.000Z</time>
      </trkpt>
      <trkpt lat="43.34487" lon="5.66725">
        <ele>278</ele>
        <time>2019-01-18T08:18:50.000Z</time>
      </trkpt>
      <trkpt lat="43.34486" lon="5.66726">
        <ele>278</ele>
        <time>2019-01-18T08:18:51.000Z</time>
      </trkpt>
      <trkpt lat="43.34486" lon="5.66727">
        <ele>278</ele>
        <time>2019-01-18T08:18:52.000Z</time>
      </trkpt>
      <trkpt lat="43.34485" lon="5.66728">
        <ele>278</ele>
        <time>2019-01-18T08:18:53.000Z</time>
      </trkpt>
      <trkpt lat="43.34485" lon="5.66729">
        <ele>277</ele>
        <time>2019-01-18T08:18:54.000Z</time>
      </trkpt>
      <trkpt lat="43.34484" lon="5.6673">
        <ele>277</ele>
        <time>2019-01-18T08:18:55.000Z</time>
      </trkpt>
      <trkpt lat="43.34483" lon="5.66731">
        <ele>277</ele>
        <time>2019-01-18T08:18:56.000Z</time>
      </trkpt>
      <trkpt lat="43.34483" lon="5.66732">
        <ele>277</ele>
        <time>2019-01-18T08:18:57.000Z</time>
      </trkpt>
      <trkpt lat="43.34482" lon="5.66733">
        <ele>277</ele>
        <time>2019-01-18T08:18:58.000Z</time>
      </trkpt>
      <trkpt lat="43.34482" lon="5.66734">
        <ele>277</ele>
        <time>2019-01-18T08:18:59.000Z</time>
      </trkpt>
      <trkpt lat="43.34481" lon="5.66735">
        <ele>277</ele>
        <time>2019-01-18T08:19:00.000Z</time>
      </trkpt>
      <trkpt lat="43.34481" lon="5.66736">
        <ele>277</ele>
        <time>2019-01-18T08:19:01.000Z</time>
      </trkpt>
      <trkpt lat="43.34481" lon="5.66737">
        <ele>277</ele>
        <time>2019-01-18T08:19:02.000Z</time>
      </trkpt>
      <trkpt lat="43.34481" lon="5.66738">
        <ele>277</ele>
        <time>2019-01-18T08:19:03.000Z</time>
      </trkpt>
      <trkpt lat="43.3448" lon="5.66739">
        <ele>277</ele>
        <time>2019-01-18T08:19:04.000Z</time>
      </trkpt>
      <trkpt lat="43.34479" lon="5.6674">
        <ele>277</ele>
        <time>2019-01-18T08:19:05.000Z</time>
      </trkpt>
      <trkpt lat="43.34479" lon="5.66741">
        <ele>277</ele>
        <time>2019-01-18T08:19:06.000Z</time>
      </trkpt>
      <trkpt lat="43.34478" lon="5.66741">
        <ele>277</ele>
        <time>2019-01-18T08:19:07.000Z</time>
      </trkpt>
      <trkpt lat="43.34477" lon="5.66742">
        <ele>277</ele>
        <time>2019-01-18T08:19:08.000Z</time>
      </trkpt>
      <trkpt lat="43.34476" lon="5.66743">
        <ele>277</ele>
        <time>2019-01-18T08:19:09.000Z</time>
      </trkpt>
      <trkpt lat="43.34475" lon="5.66743">
        <ele>277</ele>
        <time>2019-01-18T08:19:10.000Z</time>
      </trkpt>
      <trkpt lat="43.34475" lon="5.66744">
        <ele>277</ele>
        <time>2019-01-18T08:19:11.000Z</time>
      </trkpt>
      <trkpt lat="43.34474" lon="5.66745">
        <ele>277</ele>
        <time>2019-01-18T08:19:12.000Z</time>
      </trkpt>
      <trkpt lat="43.34473" lon="5.66746">
        <ele>277</ele>
        <time>2019-01-18T08:19:13.000Z</time>
      </trkpt>
      <trkpt lat="43.34473" lon="5.66747">
        <ele>277</ele>
        <time>2019-01-18T08:19:14.000Z</time>
      </trkpt>
      <trkpt lat="43.34472" lon="5.66748">
        <ele>276</ele>
        <time>2019-01-18T08:19:15.000Z</time>
      </trkpt>
      <trkpt lat="43.34472" lon="5.66749">
        <ele>276</ele>
        <time>2019-01-18T08:19:16.000Z</time>
      </trkpt>
      <trkpt lat="43.34471" lon="5.66751">
        <ele>276</ele>
        <time>2019-01-18T08:19:17.000Z</time>
      </trkpt>
      <trkpt lat="43.3447" lon="5.66752">
        <ele>277</ele>
        <time>2019-01-18T08:19:18.000Z</time>
      </trkpt>
      <trkpt lat="43.3447" lon="5.66753">
        <ele>277</ele>
        <time>2019-01-18T08:19:19.000Z</time>
      </trkpt>
      <trkpt lat="43.34469" lon="5.66754">
        <ele>277</ele>
        <time>2019-01-18T08:19:20.000Z</time>
      </trkpt>
      <trkpt lat="43.34469" lon="5.66755">
        <ele>277</ele>
        <time>2019-01-18T08:19:21.000Z</time>
      </trkpt>
      <trkpt lat="43.34468" lon="5.66756">
        <ele>277</ele>
        <time>2019-01-18T08:19:22.000Z</time>
      </trkpt>
      <trkpt lat="43.34467" lon="5.66758">
        <ele>277</ele>
        <time>2019-01-18T08:19:23.000Z</time>
      </trkpt>
      <trkpt lat="43.34467" lon="5.66759">
        <ele>277</ele>
        <time>2019-01-18T08:19:24.000Z</time>
      </trkpt>
      <trkpt lat="43.34466" lon="5.6676">
        <ele>277</ele>
        <time>2019-01-18T08:19:25.000Z</time>
      </trkpt>
      <trkpt lat="43.34465" lon="5.66761">
        <ele>277</ele>
        <time>2019-01-18T08:19:26.000Z</time>
      </trkpt>
      <trkpt lat="43.34464" lon="5.66762">
        <ele>277</ele>
        <time>2019-01-18T08:19:27.000Z</time>
      </trkpt>
      <trkpt lat="43.34463" lon="5.66762">
        <ele>277</ele>
        <time>2019-01-18T08:19:28.000Z</time>
      </trkpt>
      <trkpt lat="43.34462" lon="5.66763">
        <ele>277</ele>
        <time>2019-01-18T08:19:29.000Z</time>
      </trkpt>
      <trkpt lat="43.3446" lon="5.66764">
        <ele>277</ele>
        <time>2019-01-18T08:19:30.000Z</time>
      </trkpt>
      <trkpt lat="43.34459" lon="5.66765">
        <ele>277</ele>
        <time>2019-01-18T08:19:31.000Z</time>
      </trkpt>
      <trkpt lat="43.34458" lon="5.66766">
        <ele>277</ele>
        <time>2019-01-18T08:19:32.000Z</time>
      </trkpt>
      <trkpt lat="43.34458" lon="5.66767">
        <ele>277</ele>
        <time>2019-01-18T08:19:33.000Z</time>
      </trkpt>
      <trkpt lat="43.34457" lon="5.66768">
        <ele>277</ele>
        <time>2019-01-18T08:19:34.000Z</time>
      </trkpt>
      <trkpt lat="43.34456" lon="5.66769">
        <ele>277</ele>
        <time>2019-01-18T08:19:35.000Z</time>
      </trkpt>
      <trkpt lat="43.34456" lon="5.6677">
        <ele>278</ele>
        <time>2019-01-18T08:19:36.000Z</time>
      </trkpt>
      <trkpt lat="43.34455" lon="5.66771">
        <ele>278</ele>
        <time>2019-01-18T08:19:37.000Z</time>
      </trkpt>
      <trkpt lat="43.34454" lon="5.66772">
        <ele>278</ele>
        <time>2019-01-18T08:19:38.000Z</time>
      </trkpt>
      <trkpt lat="43.34454" lon="5.66773">
        <ele>278</ele>
        <time>2019-01-18T08:19:39.000Z</time>
      </trkpt>
      <trkpt lat="43.34453" lon="5.66774">
        <ele>278</ele>
        <time>2019-01-18T08:19:40.000Z</time>
      </trkpt>
      <trkpt lat="43.34453" lon="5.66774">
        <ele>278</ele>
        <time>2019-01-18T08:19:41.000Z</time>
      </trkpt>
      <trkpt lat="43.34452" lon="5.66775">
        <ele>278</ele>
        <time>2019-01-18T08:19:42.000Z</time>
      </trkpt>
      <trkpt lat="43.34451" lon="5.66776">
        <ele>278</ele>
        <time>2019-01-18T08:19:43.000Z</time>
      </trkpt>
      <trkpt lat="43.3445" lon="5.66777">
        <ele>279</ele>
        <time>2019-01-18T08:19:44.000Z</time>
      </trkpt>
      <trkpt lat="43.3445" lon="5.66778">
        <ele>279</ele>
        <time>2019-01-18T08:19:45.000Z</time>
      </trkpt>
      <trkpt lat="43.34449" lon="5.66778">
        <ele>279</ele>
        <time>2019-01-18T08:19:46.000Z</time>
      </trkpt>
      <trkpt lat="43.34448" lon="5.66779">
        <ele>279</ele>
        <time>2019-01-18T08:19:47.000Z</time>
      </trkpt>
      <trkpt lat="43.34447" lon="5.6678">
        <ele>279</ele>
        <time>2019-01-18T08:19:48.000Z</time>
      </trkpt>
      <trkpt lat="43.34447" lon="5.66781">
        <ele>279</ele>
        <time>2019-01-18T08:19:49.000Z</time>
      </trkpt>
      <trkpt lat="43.34446" lon="5.66782">
        <ele>279</ele>
        <time>2019-01-18T08:19:50.000Z</time>
      </trkpt>
      <trkpt lat="43.34445" lon="5.66784">
        <ele>279</ele>
        <time>2019-01-18T08:19:51.000Z</time>
      </trkpt>
      <trkpt lat="43.34444" lon="5.66785">
        <ele>279</ele>
        <time>2019-01-18T08:19:52.000Z</time>
      </trkpt>
      <trkpt lat="43.34443" lon="5.66786">
        <ele>279</ele>
        <time>2019-01-18T08:19:53.000Z</time>
      </trkpt>
      <trkpt lat="43.34442" lon="5.66787">
        <ele>279</ele>
        <time>2019-01-18T08:19:54.000Z</time>
      </trkpt>
      <trkpt lat="43.34441" lon="5.66788">
        <ele>279</ele>
        <time>2019-01-18T08:19:55.000Z</time>
      </trkpt>
      <trkpt lat="43.34441" lon="5.66789">
        <ele>279</ele>
        <time>2019-01-18T08:19:56.000Z</time>
      </trkpt>
      <trkpt lat="43.3444" lon="5.6679">
        <ele>279</ele>
        <time>2019-01-18T08:19:57.000Z</time>
      </trkpt>
      <trkpt lat="43.34439" lon="5.66791">
        <ele>279</ele>
        <time>2019-01-18T08:19:58.000Z</time>
      </trkpt>
      <trkpt lat="43.34438" lon="5.66792">
        <ele>279</ele>
        <time>2019-01-18T08:19:59.000Z</time>
      </trkpt>
      <trkpt lat="43.34437" lon="5.66793">
        <ele>279</ele>
        <time>2019-01-18T08:20:00.000Z</time>
      </trkpt>
      <trkpt lat="43.34437" lon="5.66794">
        <ele>279</ele>
        <time>2019-01-18T08:20:01.000Z</time>
      </trkpt>
      <trkpt lat="43.34436" lon="5.66795">
        <ele>279</ele>
        <time>2019-01-18T08:20:02.000Z</time>
      </trkpt>
      <trkpt lat="43.34435" lon="5.66796">
        <ele>279</ele>
        <time>2019-01-18T08:20:03.000Z</time>
      </trkpt>
      <trkpt lat="43.34434" lon="5.66797">
        <ele>279</ele>
        <time>2019-01-18T08:20:04.000Z</time>
      </trkpt>
      <trkpt lat="43.34434" lon="5.66798">
        <ele>279</ele>
        <time>2019-01-18T08:20:05.000Z</time>
      </trkpt>
      <trkpt lat="43.34433" lon="5.66799">
        <ele>279</ele>
        <time>2019-01-18T08:20:06.000Z</time>
      </trkpt>
      <trkpt lat="43.34432" lon="5.668">
        <ele>279</ele>
        <time>2019-01-18T08:20:07.000Z</time>
      </trkpt>
      <trkpt lat="43.34432" lon="5.668">
        <ele>279</ele>
        <time>2019-01-18T08:20:08.000Z</time>
      </trkpt>
      <trkpt lat="43.34432" lon="5.66801">
        <ele>279</ele>
        <time>2019-01-18T08:20:09.000Z</time>
      </trkpt>
      <trkpt lat="43.34431" lon="5.66802">
        <ele>279</ele>
        <time>2019-01-18T08:20:10.000Z</time>
      </trkpt>
      <trkpt lat="43.34431" lon="5.66802">
        <ele>279</ele>
        <time>2019-01-18T08:20:11.000Z</time>
      </trkpt>
      <trkpt lat="43.34431" lon="5.66803">
        <ele>279</ele>
        <time>2019-01-18T08:20:12.000Z</time>
      </trkpt>
      <trkpt lat="43.34431" lon="5.66803">
        <ele>279</ele>
        <time>2019-01-18T08:20:13.000Z</time>
      </trkpt>
      <trkpt lat="43.34431" lon="5.66804">
        <ele>279</ele>
        <time>2019-01-18T08:20:14.000Z</time>
      </trkpt>
      <trkpt lat="43.34431" lon="5.66804">
        <ele>279</ele>
        <time>2019-01-18T08:20:15.000Z</time>
      </trkpt>
      <trkpt lat="43.34431" lon="5.66805">
        <ele>279</ele>
        <time>2019-01-18T08:20:16.000Z</time>
      </trkpt>
      <trkpt lat="43.34431" lon="5.66805">
        <ele>279</ele>
        <time>2019-01-18T08:20:17.000Z</time>
      </trkpt>
      <trkpt lat="43.3443" lon="5.66806">
        <ele>279</ele>
        <time>2019-01-18T08:20:18.000Z</time>
      </trkpt>
      <trkpt lat="43.3443" lon="5.66807">
        <ele>279</ele>
        <time>2019-01-18T08:20:19.000Z</time>
      </trkpt>
      <trkpt lat="43.3443" lon="5.66807">
        <ele>279</ele>
        <time>2019-01-18T08:20:20.000Z</time>
      </trkpt>
      <trkpt lat="43.34429" lon="5.66808">
        <ele>279</ele>
        <time>2019-01-18T08:20:21.000Z</time>
      </trkpt>
      <trkpt lat="43.34429" lon="5.66808">
        <ele>279</ele>
        <time>2019-01-18T08:20:22.000Z</time>
      </trkpt>
      <trkpt lat="43.34429" lon="5.66808">
        <ele>279</ele>
        <time>2019-01-18T08:20:23.000Z</time>
      </trkpt>
      <trkpt lat="43.34428" lon="5.66809">
        <ele>279</ele>
        <time>2019-01-18T08:20:24.000Z</time>
      </trkpt>
      <trkpt lat="43.34428" lon="5.66809">
        <ele>279</ele>
        <time>2019-01-18T08:20:25.000Z</time>
      </trkpt>
      <trkpt lat="43.34428" lon="5.6681">
        <ele>279</ele>
        <time>2019-01-18T08:20:26.000Z</time>
      </trkpt>
      <trkpt lat="43.34427" lon="5.66811">
        <ele>279</ele>
        <time>2019-01-18T08:20:27.000Z</time>
      </trkpt>
      <trkpt lat="43.34427" lon="5.66812">
        <ele>279</ele>
        <time>2019-01-18T08:20:28.000Z</time>
      </trkpt>
      <trkpt lat="43.34426" lon="5.66813">
        <ele>279</ele>
        <time>2019-01-18T08:20:29.000Z</time>
      </trkpt>
      <trkpt lat="43.34425" lon="5.66814">
        <ele>279</ele>
        <time>2019-01-18T08:20:30.000Z</time>
      </trkpt>
      <trkpt lat="43.34425" lon="5.66815">
        <ele>279</ele>
        <time>2019-01-18T08:20:31.000Z</time>
      </trkpt>
      <trkpt lat="43.34425" lon="5.66815">
        <ele>279</ele>
        <time>2019-01-18T08:20:32.000Z</time>
      </trkpt>
      <trkpt lat="43.34424" lon="5.66816">
        <ele>279</ele>
        <time>2019-01-18T08:20:33.000Z</time>
      </trkpt>
      <trkpt lat="43.34424" lon="5.66817">
        <ele>279</ele>
        <time>2019-01-18T08:20:34.000Z</time>
      </trkpt>
      <trkpt lat="43.34423" lon="5.66817">
        <ele>279</ele>
        <time>2019-01-18T08:20:35.000Z</time>
      </trkpt>
      <trkpt lat="43.34422" lon="5.66817">
        <ele>279</ele>
        <time>2019-01-18T08:20:36.000Z</time>
      </trkpt>
      <trkpt lat="43.34422" lon="5.66818">
        <ele>280</ele>
        <time>2019-01-18T08:20:37.000Z</time>
      </trkpt>
      <trkpt lat="43.34421" lon="5.66819">
        <ele>280</ele>
        <time>2019-01-18T08:20:38.000Z</time>
      </trkpt>
      <trkpt lat="43.34421" lon="5.66819">
        <ele>280</ele>
        <time>2019-01-18T08:20:39.000Z</time>
      </trkpt>
      <trkpt lat="43.3442" lon="5.6682">
        <ele>280</ele>
        <time>2019-01-18T08:20:40.000Z</time>
      </trkpt>
      <trkpt lat="43.3442" lon="5.66821">
        <ele>280</ele>
        <time>2019-01-18T08:20:41.000Z</time>
      </trkpt>
      <trkpt lat="43.34419" lon="5.66821">
        <ele>280</ele>
        <time>2019-01-18T08:20:42.000Z</time>
      </trkpt>
      <trkpt lat="43.34419" lon="5.66822">
        <ele>280</ele>
        <time>2019-01-18T08:20:43.000Z</time>
      </trkpt>
      <trkpt lat="43.34419" lon="5.66823">
        <ele>280</ele>
        <time>2019-01-18T08:20:44.000Z</time>
      </trkpt>
      <trkpt lat="43.34419" lon="5.66824">
        <ele>280</ele>
        <time>2019-01-18T08:20:45.000Z</time>
      </trkpt>
      <trkpt lat="43.34418" lon="5.66824">
        <ele>280</ele>
        <time>2019-01-18T08:20:46.000Z</time>
      </trkpt>
      <trkpt lat="43.34418" lon="5.66825">
        <ele>280</ele>
        <time>2019-01-18T08:20:47.000Z</time>
      </trkpt>
      <trkpt lat="43.34418" lon="5.66826">
        <ele>281</ele>
        <time>2019-01-18T08:20:48.000Z</time>
      </trkpt>
      <trkpt lat="43.34417" lon="5.66826">
        <ele>281</ele>
        <time>2019-01-18T08:20:49.000Z</time>
      </trkpt>
      <trkpt lat="43.34417" lon="5.66826">
        <ele>281</ele>
        <time>2019-01-18T08:20:50.000Z</time>
      </trkpt>
      <trkpt lat="43.34417" lon="5.66827">
        <ele>281</ele>
        <time>2019-01-18T08:20:51.000Z</time>
      </trkpt>
      <trkpt lat="43.34416" lon="5.66828">
        <ele>281</ele>
        <time>2019-01-18T08:20:52.000Z</time>
      </trkpt>
      <trkpt lat="43.34416" lon="5.66829">
        <ele>281</ele>
        <time>2019-01-18T08:20:53.000Z</time>
      </trkpt>
      <trkpt lat="43.34415" lon="5.6683">
        <ele>281</ele>
        <time>2019-01-18T08:20:54.000Z</time>
      </trkpt>
      <trkpt lat="43.34415" lon="5.6683">
        <ele>282</ele>
        <time>2019-01-18T08:20:55.000Z</time>
      </trkpt>
      <trkpt lat="43.34415" lon="5.66831">
        <ele>282</ele>
        <time>2019-01-18T08:20:56.000Z</time>
      </trkpt>
      <trkpt lat="43.34415" lon="5.66832">
        <ele>282</ele>
        <time>2019-01-18T08:20:57.000Z</time>
      </trkpt>
      <trkpt lat="43.34415" lon="5.66832">
        <ele>282</ele>
        <time>2019-01-18T08:20:58.000Z</time>
      </trkpt>
      <trkpt lat="43.34414" lon="5.66833">
        <ele>282</ele>
        <time>2019-01-18T08:20:59.000Z</time>
      </trkpt>
      <trkpt lat="43.34414" lon="5.66833">
        <ele>282</ele>
        <time>2019-01-18T08:21:00.000Z</time>
      </trkpt>
      <trkpt lat="43.34414" lon="5.66834">
        <ele>282</ele>
        <time>2019-01-18T08:21:01.000Z</time>
      </trkpt>
      <trkpt lat="43.34414" lon="5.66834">
        <ele>282</ele>
        <time>2019-01-18T08:21:02.000Z</time>
      </trkpt>
      <trkpt lat="43.34413" lon="5.66835">
        <ele>282</ele>
        <time>2019-01-18T08:21:03.000Z</time>
      </trkpt>
      <trkpt lat="43.34413" lon="5.66836">
        <ele>283</ele>
        <time>2019-01-18T08:21:04.000Z</time>
      </trkpt>
      <trkpt lat="43.34413" lon="5.66837">
        <ele>283</ele>
        <time>2019-01-18T08:21:05.000Z</time>
      </trkpt>
      <trkpt lat="43.34412" lon="5.66838">
        <ele>283</ele>
        <time>2019-01-18T08:21:06.000Z</time>
      </trkpt>
      <trkpt lat="43.34412" lon="5.66839">
        <ele>283</ele>
        <time>2019-01-18T08:21:07.000Z</time>
      </trkpt>
      <trkpt lat="43.34411" lon="5.6684">
        <ele>283</ele>
        <time>2019-01-18T08:21:08.000Z</time>
      </trkpt>
      <trkpt lat="43.34411" lon="5.6684">
        <ele>284</ele>
        <time>2019-01-18T08:21:09.000Z</time>
      </trkpt>
      <trkpt lat="43.34411" lon="5.6684">
        <ele>284</ele>
        <time>2019-01-18T08:21:10.000Z</time>
      </trkpt>
      <trkpt lat="43.34411" lon="5.6684">
        <ele>284</ele>
        <time>2019-01-18T08:21:11.000Z</time>
      </trkpt>
      <trkpt lat="43.34411" lon="5.66841">
        <ele>284</ele>
        <time>2019-01-18T08:21:12.000Z</time>
      </trkpt>
      <trkpt lat="43.34411" lon="5.66841">
        <ele>284</ele>
        <time>2019-01-18T08:21:13.000Z</time>
      </trkpt>
      <trkpt lat="43.34411" lon="5.66841">
        <ele>284</ele>
        <time>2019-01-18T08:21:14.000Z</time>
      </trkpt>
      <trkpt lat="43.34411" lon="5.66841">
        <ele>284</ele>
        <time>2019-01-18T08:21:15.000Z</time>
      </trkpt>
      <trkpt lat="43.34411" lon="5.66841">
        <ele>284</ele>
        <time>2019-01-18T08:21:16.000Z</time>
      </trkpt>
      <trkpt lat="43.34411" lon="5.6684">
        <ele>284</ele>
        <time>2019-01-18T08:21:17.000Z</time>
      </trkpt>
      <trkpt lat="43.34411" lon="5.6684">
        <ele>285</ele>
        <time>2019-01-18T08:21:18.000Z</time>
      </trkpt>
      <trkpt lat="43.34411" lon="5.66839">
        <ele>285</ele>
        <time>2019-01-18T08:21:19.000Z</time>
      </trkpt>
      <trkpt lat="43.34411" lon="5.66839">
        <ele>285</ele>
        <time>2019-01-18T08:21:20.000Z</time>
      </trkpt>
      <trkpt lat="43.34411" lon="5.66838">
        <ele>285</ele>
        <time>2019-01-18T08:21:21.000Z</time>
      </trkpt>
      <trkpt lat="43.34411" lon="5.66837">
        <ele>285</ele>
        <time>2019-01-18T08:21:22.000Z</time>
      </trkpt>
      <trkpt lat="43.34411" lon="5.66837">
        <ele>285</ele>
        <time>2019-01-18T08:21:23.000Z</time>
      </trkpt>
      <trkpt lat="43.34412" lon="5.66836">
        <ele>285</ele>
        <time>2019-01-18T08:21:24.000Z</time>
      </trkpt>
      <trkpt lat="43.34412" lon="5.66835">
        <ele>285</ele>
        <time>2019-01-18T08:21:25.000Z</time>
      </trkpt>
      <trkpt lat="43.34412" lon="5.66834">
        <ele>285</ele>
        <time>2019-01-18T08:21:26.000Z</time>
      </trkpt>
      <trkpt lat="43.34413" lon="5.66833">
        <ele>285</ele>
        <time>2019-01-18T08:21:27.000Z</time>
      </trkpt>
      <trkpt lat="43.34413" lon="5.66832">
        <ele>285</ele>
        <time>2019-01-18T08:21:28.000Z</time>
      </trkpt>
      <trkpt lat="43.34413" lon="5.66831">
        <ele>285</ele>
        <time>2019-01-18T08:21:29.000Z</time>
      </trkpt>
      <trkpt lat="43.34414" lon="5.66831">
        <ele>285</ele>
        <time>2019-01-18T08:21:30.000Z</time>
      </trkpt>
      <trkpt lat="43.34414" lon="5.6683">
        <ele>285</ele>
        <time>2019-01-18T08:21:31.000Z</time>
      </trkpt>
      <trkpt lat="43.34414" lon="5.66829">
        <ele>285</ele>
        <time>2019-01-18T08:21:32.000Z</time>
      </trkpt>
      <trkpt lat="43.34415" lon="5.66829">
        <ele>285</ele>
        <time>2019-01-18T08:21:33.000Z</time>
      </trkpt>
      <trkpt lat="43.34415" lon="5.66829">
        <ele>285</ele>
        <time>2019-01-18T08:21:34.000Z</time>
      </trkpt>
      <trkpt lat="43.34415" lon="5.66829">
        <ele>285</ele>
        <time>2019-01-18T08:21:35.000Z</time>
      </trkpt>
      <trkpt lat="43.34415" lon="5.66829">
        <ele>285</ele>
        <time>2019-01-18T08:21:36.000Z</time>
      </trkpt>
      <trkpt lat="43.34415" lon="5.66829">
        <ele>285</ele>
        <time>2019-01-18T08:21:37.000Z</time>
      </trkpt>
      <trkpt lat="43.34415" lon="5.66828">
        <ele>285</ele>
        <time>2019-01-18T08:21:38.000Z</time>
      </trkpt>
      <trkpt lat="43.34414" lon="5.66828">
        <ele>285</ele>
        <time>2019-01-18T08:21:39.000Z</time>
      </trkpt>
      <trkpt lat="43.34414" lon="5.66828">
        <ele>285</ele>
        <time>2019-01-18T08:21:40.000Z</time>
      </trkpt>
      <trkpt lat="43.34415" lon="5.66828">
        <ele>284</ele>
        <time>2019-01-18T08:21:41.000Z</time>
      </trkpt>
      <trkpt lat="43.34415" lon="5.66828">
        <ele>284</ele>
        <time>2019-01-18T08:21:42.000Z</time>
      </trkpt>
      <trkpt lat="43.34414" lon="5.66828">
        <ele>284</ele>
        <time>2019-01-18T08:21:43.000Z</time>
      </trkpt>
      <trkpt lat="43.34414" lon="5.66828">
        <ele>284</ele>
        <time>2019-01-18T08:21:44.000Z</time>
      </trkpt>
      <trkpt lat="43.34414" lon="5.66827">
        <ele>284</ele>
        <time>2019-01-18T08:21:45.000Z</time>
      </trkpt>
      <trkpt lat="43.34414" lon="5.66827">
        <ele>284</ele>
        <time>2019-01-18T08:21:46.000Z</time>
      </trkpt>
      <trkpt lat="43.34414" lon="5.66827">
        <ele>284</ele>
        <time>2019-01-18T08:21:47.000Z</time>
      </trkpt>
      <trkpt lat="43.34414" lon="5.66827">
        <ele>284</ele>
        <time>2019-01-18T08:21:48.000Z</time>
      </trkpt>
      <trkpt lat="43.34414" lon="5.66827">
        <ele>284</ele>
        <time>2019-01-18T08:21:49.000Z</time>
      </trkpt>
      <trkpt lat="43.34414" lon="5.66827">
        <ele>284</ele>
        <time>2019-01-18T08:21:50.000Z</time>
      </trkpt>
      <trkpt lat="43.34414" lon="5.66827">
        <ele>284</ele>
        <time>2019-01-18T08:21:51.000Z</time>
      </trkpt>
      <trkpt lat="43.34414" lon="5.66827">
        <ele>284</ele>
        <time>2019-01-18T08:21:52.000Z</time>
      </trkpt>
      <trkpt lat="43.34414" lon="5.66827">
        <ele>284</ele>
        <time>2019-01-18T08:21:53.000Z</time>
      </trkpt>
      <trkpt lat="43.34414" lon="5.66826">
        <ele>284</ele>
        <time>2019-01-18T08:21:54.000Z</time>
      </trkpt>
      <trkpt lat="43.34414" lon="5.66826">
        <ele>284</ele>
        <time>2019-01-18T08:21:55.000Z</time>
      </trkpt>
      <trkpt lat="43.34414" lon="5.66826">
        <ele>283</ele>
        <time>2019-01-18T08:21:56.000Z</time>
      </trkpt>
      <trkpt lat="43.34414" lon="5.66826">
        <ele>283</ele>
        <time>2019-01-18T08:21:57.000Z</time>
      </trkpt>
      <trkpt lat="43.34414" lon="5.66826">
        <ele>283</ele>
        <time>2019-01-18T08:21:58.000Z</time>
      </trkpt>
      <trkpt lat="43.34414" lon="5.66826">
        <ele>283</ele>
        <time>2019-01-18T08:21:59.000Z</time>
      </trkpt>
      <trkpt lat="43.34414" lon="5.66827">
        <ele>283</ele>
        <time>2019-01-18T08:22:00.000Z</time>
      </trkpt>
      <trkpt lat="43.34414" lon="5.66827">
        <ele>283</ele>
        <time>2019-01-18T08:22:01.000Z</time>
      </trkpt>
      <trkpt lat="43.34414" lon="5.66826">
        <ele>283</ele>
        <time>2019-01-18T08:22:02.000Z</time>
      </trkpt>
      <trkpt lat="43.34414" lon="5.66826">
        <ele>283</ele>
        <time>2019-01-18T08:22:03.000Z</time>
      </trkpt>
      <trkpt lat="43.34413" lon="5.66826">
        <ele>283</ele>
        <time>2019-01-18T08:22:04.000Z</time>
      </trkpt>
      <trkpt lat="43.34413" lon="5.66826">
        <ele>283</ele>
        <time>2019-01-18T08:22:05.000Z</time>
      </trkpt>
      <trkpt lat="43.34414" lon="5.66827">
        <ele>283</ele>
        <time>2019-01-18T08:22:06.000Z</time>
      </trkpt>
      <trkpt lat="43.34414" lon="5.66827">
        <ele>283</ele>
        <time>2019-01-18T08:22:07.000Z</time>
      </trkpt>
      <trkpt lat="43.34413" lon="5.66827">
        <ele>283</ele>
        <time>2019-01-18T08:22:08.000Z</time>
      </trkpt>
      <trkpt lat="43.34413" lon="5.66827">
        <ele>283</ele>
        <time>2019-01-18T08:22:09.000Z</time>
      </trkpt>
      <trkpt lat="43.34413" lon="5.66827">
        <ele>282</ele>
        <time>2019-01-18T08:22:10.000Z</time>
      </trkpt>
      <trkpt lat="43.34413" lon="5.66827">
        <ele>282</ele>
        <time>2019-01-18T08:22:11.000Z</time>
      </trkpt>
      <trkpt lat="43.34413" lon="5.66827">
        <ele>282</ele>
        <time>2019-01-18T08:22:12.000Z</time>
      </trkpt>
      <trkpt lat="43.34413" lon="5.66827">
        <ele>282</ele>
        <time>2019-01-18T08:22:13.000Z</time>
      </trkpt>
      <trkpt lat="43.34413" lon="5.66827">
        <ele>282</ele>
        <time>2019-01-18T08:22:14.000Z</time>
      </trkpt>
      <trkpt lat="43.34413" lon="5.66827">
        <ele>282</ele>
        <time>2019-01-18T08:22:15.000Z</time>
      </trkpt>
      <trkpt lat="43.34413" lon="5.66827">
        <ele>282</ele>
        <time>2019-01-18T08:22:16.000Z</time>
      </trkpt>
      <trkpt lat="43.34413" lon="5.66827">
        <ele>282</ele>
        <time>2019-01-18T08:22:17.000Z</time>
      </trkpt>
      <trkpt lat="43.34413" lon="5.66827">
        <ele>282</ele>
        <time>2019-01-18T08:22:18.000Z</time>
      </trkpt>
      <trkpt lat="43.34413" lon="5.66827">
        <ele>282</ele>
        <time>2019-01-18T08:22:19.000Z</time>
      </trkpt>
      <trkpt lat="43.34413" lon="5.66828">
        <ele>282</ele>
        <time>2019-01-18T08:22:20.000Z</time>
      </trkpt>
      <trkpt lat="43.34413" lon="5.66828">
        <ele>282</ele>
        <time>2019-01-18T08:22:21.000Z</time>
      </trkpt>
      <trkpt lat="43.34413" lon="5.66829">
        <ele>282</ele>
        <time>2019-01-18T08:22:22.000Z</time>
      </trkpt>
      <trkpt lat="43.34412" lon="5.66829">
        <ele>282</ele>
        <time>2019-01-18T08:22:23.000Z</time>
      </trkpt>
      <trkpt lat="43.34412" lon="5.6683">
        <ele>282</ele>
        <time>2019-01-18T08:22:24.000Z</time>
      </trkpt>
      <trkpt lat="43.34411" lon="5.66831">
        <ele>282</ele>
        <time>2019-01-18T08:22:25.000Z</time>
      </trkpt>
      <trkpt lat="43.34411" lon="5.66832">
        <ele>282</ele>
        <time>2019-01-18T08:22:26.000Z</time>
      </trkpt>
      <trkpt lat="43.3441" lon="5.66832">
        <ele>282</ele>
        <time>2019-01-18T08:22:27.000Z</time>
      </trkpt>
      <trkpt lat="43.3441" lon="5.66833">
        <ele>282</ele>
        <time>2019-01-18T08:22:28.000Z</time>
      </trkpt>
      <trkpt lat="43.3441" lon="5.66833">
        <ele>282</ele>
        <time>2019-01-18T08:22:29.000Z</time>
      </trkpt>
      <trkpt lat="43.3441" lon="5.66834">
        <ele>282</ele>
        <time>2019-01-18T08:22:30.000Z</time>
      </trkpt>
      <trkpt lat="43.3441" lon="5.66835">
        <ele>282</ele>
        <time>2019-01-18T08:22:31.000Z</time>
      </trkpt>
      <trkpt lat="43.3441" lon="5.66836">
        <ele>282</ele>
        <time>2019-01-18T08:22:32.000Z</time>
      </trkpt>
      <trkpt lat="43.3441" lon="5.66837">
        <ele>282</ele>
        <time>2019-01-18T08:22:33.000Z</time>
      </trkpt>
      <trkpt lat="43.3441" lon="5.66838">
        <ele>282</ele>
        <time>2019-01-18T08:22:34.000Z</time>
      </trkpt>
      <trkpt lat="43.34409" lon="5.66839">
        <ele>282</ele>
        <time>2019-01-18T08:22:35.000Z</time>
      </trkpt>
      <trkpt lat="43.34409" lon="5.6684">
        <ele>282</ele>
        <time>2019-01-18T08:22:36.000Z</time>
      </trkpt>
      <trkpt lat="43.34408" lon="5.66842">
        <ele>282</ele>
        <time>2019-01-18T08:22:37.000Z</time>
      </trkpt>
      <trkpt lat="43.34408" lon="5.66843">
        <ele>282</ele>
        <time>2019-01-18T08:22:38.000Z</time>
      </trkpt>
      <trkpt lat="43.34408" lon="5.66844">
        <ele>282</ele>
        <time>2019-01-18T08:22:39.000Z</time>
      </trkpt>
      <trkpt lat="43.34407" lon="5.66845">
        <ele>283</ele>
        <time>2019-01-18T08:22:40.000Z</time>
      </trkpt>
      <trkpt lat="43.34407" lon="5.66846">
        <ele>283</ele>
        <time>2019-01-18T08:22:41.000Z</time>
      </trkpt>
      <trkpt lat="43.34407" lon="5.66847">
        <ele>283</ele>
        <time>2019-01-18T08:22:42.000Z</time>
      </trkpt>
      <trkpt lat="43.34406" lon="5.66848">
        <ele>283</ele>
        <time>2019-01-18T08:22:43.000Z</time>
      </trkpt>
      <trkpt lat="43.34405" lon="5.66849">
        <ele>283</ele>
        <time>2019-01-18T08:22:44.000Z</time>
      </trkpt>
      <trkpt lat="43.34405" lon="5.6685">
        <ele>283</ele>
        <time>2019-01-18T08:22:45.000Z</time>
      </trkpt>
      <trkpt lat="43.34404" lon="5.6685">
        <ele>283</ele>
        <time>2019-01-18T08:22:46.000Z</time>
      </trkpt>
      <trkpt lat="43.34402" lon="5.66851">
        <ele>283</ele>
        <time>2019-01-18T08:22:47.000Z</time>
      </trkpt>
      <trkpt lat="43.34401" lon="5.66852">
        <ele>283</ele>
        <time>2019-01-18T08:22:48.000Z</time>
      </trkpt>
      <trkpt lat="43.344" lon="5.66853">
        <ele>283</ele>
        <time>2019-01-18T08:22:49.000Z</time>
      </trkpt>
      <trkpt lat="43.34399" lon="5.66854">
        <ele>283</ele>
        <time>2019-01-18T08:22:50.000Z</time>
      </trkpt>
      <trkpt lat="43.34397" lon="5.66855">
        <ele>283</ele>
        <time>2019-01-18T08:22:51.000Z</time>
      </trkpt>
      <trkpt lat="43.34396" lon="5.66855">
        <ele>283</ele>
        <time>2019-01-18T08:22:52.000Z</time>
      </trkpt>
      <trkpt lat="43.34395" lon="5.66856">
        <ele>283</ele>
        <time>2019-01-18T08:22:53.000Z</time>
      </trkpt>
      <trkpt lat="43.34394" lon="5.66856">
        <ele>283</ele>
        <time>2019-01-18T08:22:54.000Z</time>
      </trkpt>
      <trkpt lat="43.34393" lon="5.66856">
        <ele>283</ele>
        <time>2019-01-18T08:22:55.000Z</time>
      </trkpt>
      <trkpt lat="43.34392" lon="5.66857">
        <ele>283</ele>
        <time>2019-01-18T08:22:56.000Z</time>
      </trkpt>
      <trkpt lat="43.34391" lon="5.66858">
        <ele>283</ele>
        <time>2019-01-18T08:22:57.000Z</time>
      </trkpt>
      <trkpt lat="43.34391" lon="5.66859">
        <ele>283</ele>
        <time>2019-01-18T08:22:58.000Z</time>
      </trkpt>
      <trkpt lat="43.3439" lon="5.66859">
        <ele>283</ele>
        <time>2019-01-18T08:22:59.000Z</time>
      </trkpt>
      <trkpt lat="43.3439" lon="5.66859">
        <ele>283</ele>
        <time>2019-01-18T08:23:00.000Z</time>
      </trkpt>
      <trkpt lat="43.3439" lon="5.6686">
        <ele>283</ele>
        <time>2019-01-18T08:23:01.000Z</time>
      </trkpt>
      <trkpt lat="43.3439" lon="5.6686">
        <ele>283</ele>
        <time>2019-01-18T08:23:02.000Z</time>
      </trkpt>
      <trkpt lat="43.34389" lon="5.66861">
        <ele>283</ele>
        <time>2019-01-18T08:23:03.000Z</time>
      </trkpt>
      <trkpt lat="43.34389" lon="5.66861">
        <ele>283</ele>
        <time>2019-01-18T08:23:04.000Z</time>
      </trkpt>
      <trkpt lat="43.34389" lon="5.66861">
        <ele>283</ele>
        <time>2019-01-18T08:23:05.000Z</time>
      </trkpt>
      <trkpt lat="43.34389" lon="5.66861">
        <ele>283</ele>
        <time>2019-01-18T08:23:06.000Z</time>
      </trkpt>
      <trkpt lat="43.34388" lon="5.66862">
        <ele>283</ele>
        <time>2019-01-18T08:23:07.000Z</time>
      </trkpt>
      <trkpt lat="43.34388" lon="5.66862">
        <ele>283</ele>
        <time>2019-01-18T08:23:08.000Z</time>
      </trkpt>
      <trkpt lat="43.34388" lon="5.66862">
        <ele>283</ele>
        <time>2019-01-18T08:23:09.000Z</time>
      </trkpt>
      <trkpt lat="43.34387" lon="5.66862">
        <ele>283</ele>
        <time>2019-01-18T08:23:10.000Z</time>
      </trkpt>
      <trkpt lat="43.34387" lon="5.66862">
        <ele>283</ele>
        <time>2019-01-18T08:23:11.000Z</time>
      </trkpt>
      <trkpt lat="43.34387" lon="5.66862">
        <ele>283</ele>
        <time>2019-01-18T08:23:12.000Z</time>
      </trkpt>
      <trkpt lat="43.34387" lon="5.66863">
        <ele>283</ele>
        <time>2019-01-18T08:23:13.000Z</time>
      </trkpt>
      <trkpt lat="43.34387" lon="5.66863">
        <ele>283</ele>
        <time>2019-01-18T08:23:14.000Z</time>
      </trkpt>
      <trkpt lat="43.34387" lon="5.66862">
        <ele>283</ele>
        <time>2019-01-18T08:23:15.000Z</time>
      </trkpt>
      <trkpt lat="43.34387" lon="5.66863">
        <ele>283</ele>
        <time>2019-01-18T08:23:16.000Z</time>
      </trkpt>
      <trkpt lat="43.34387" lon="5.66863">
        <ele>283</ele>
        <time>2019-01-18T08:23:17.000Z</time>
      </trkpt>
      <trkpt lat="43.34386" lon="5.66864">
        <ele>283</ele>
        <time>2019-01-18T08:23:18.000Z</time>
      </trkpt>
      <trkpt lat="43.34386" lon="5.66864">
        <ele>284</ele>
        <time>2019-01-18T08:23:19.000Z</time>
      </trkpt>
      <trkpt lat="43.34386" lon="5.66865">
        <ele>284</ele>
        <time>2019-01-18T08:23:20.000Z</time>
      </trkpt>
      <trkpt lat="43.34386" lon="5.66866">
        <ele>284</ele>
        <time>2019-01-18T08:23:21.000Z</time>
      </trkpt>
      <trkpt lat="43.34386" lon="5.66866">
        <ele>284</ele>
        <time>2019-01-18T08:23:22.000Z</time>
      </trkpt>
      <trkpt lat="43.34386" lon="5.66867">
        <ele>284</ele>
        <time>2019-01-18T08:23:23.000Z</time>
      </trkpt>
      <trkpt lat="43.34386" lon="5.66867">
        <ele>284</ele>
        <time>2019-01-18T08:23:24.000Z</time>
      </trkpt>
      <trkpt lat="43.34386" lon="5.66868">
        <ele>284</ele>
        <time>2019-01-18T08:23:25.000Z</time>
      </trkpt>
      <trkpt lat="43.34385" lon="5.66869">
        <ele>284</ele>
        <time>2019-01-18T08:23:26.000Z</time>
      </trkpt>
      <trkpt lat="43.34385" lon="5.66869">
        <ele>284</ele>
        <time>2019-01-18T08:23:27.000Z</time>
      </trkpt>
      <trkpt lat="43.34384" lon="5.6687">
        <ele>284</ele>
        <time>2019-01-18T08:23:28.000Z</time>
      </trkpt>
      <trkpt lat="43.34383" lon="5.6687">
        <ele>284</ele>
        <time>2019-01-18T08:23:29.000Z</time>
      </trkpt>
      <trkpt lat="43.34383" lon="5.66871">
        <ele>284</ele>
        <time>2019-01-18T08:23:30.000Z</time>
      </trkpt>
      <trkpt lat="43.34382" lon="5.66871">
        <ele>284</ele>
        <time>2019-01-18T08:23:31.000Z</time>
      </trkpt>
      <trkpt lat="43.34382" lon="5.66871">
        <ele>284</ele>
        <time>2019-01-18T08:23:32.000Z</time>
      </trkpt>
      <trkpt lat="43.34381" lon="5.66872">
        <ele>284</ele>
        <time>2019-01-18T08:23:33.000Z</time>
      </trkpt>
      <trkpt lat="43.3438" lon="5.66873">
        <ele>284</ele>
        <time>2019-01-18T08:23:34.000Z</time>
      </trkpt>
      <trkpt lat="43.34379" lon="5.66874">
        <ele>284</ele>
        <time>2019-01-18T08:23:35.000Z</time>
      </trkpt>
      <trkpt lat="43.34379" lon="5.66875">
        <ele>284</ele>
        <time>2019-01-18T08:23:36.000Z</time>
      </trkpt>
      <trkpt lat="43.34379" lon="5.66875">
        <ele>284</ele>
        <time>2019-01-18T08:23:37.000Z</time>
      </trkpt>
      <trkpt lat="43.34378" lon="5.66876">
        <ele>284</ele>
        <time>2019-01-18T08:23:38.000Z</time>
      </trkpt>
      <trkpt lat="43.34378" lon="5.66876">
        <ele>284</ele>
        <time>2019-01-18T08:23:39.000Z</time>
      </trkpt>
      <trkpt lat="43.34377" lon="5.66877">
        <ele>284</ele>
        <time>2019-01-18T08:23:40.000Z</time>
      </trkpt>
      <trkpt lat="43.34377" lon="5.66877">
        <ele>284</ele>
        <time>2019-01-18T08:23:41.000Z</time>
      </trkpt>
      <trkpt lat="43.34377" lon="5.66878">
        <ele>284</ele>
        <time>2019-01-18T08:23:42.000Z</time>
      </trkpt>
      <trkpt lat="43.34377" lon="5.66878">
        <ele>284</ele>
        <time>2019-01-18T08:23:43.000Z</time>
      </trkpt>
      <trkpt lat="43.34376" lon="5.66879">
        <ele>284</ele>
        <time>2019-01-18T08:23:44.000Z</time>
      </trkpt>
      <trkpt lat="43.34376" lon="5.6688">
        <ele>284</ele>
        <time>2019-01-18T08:23:45.000Z</time>
      </trkpt>
      <trkpt lat="43.34375" lon="5.6688">
        <ele>284</ele>
        <time>2019-01-18T08:23:46.000Z</time>
      </trkpt>
      <trkpt lat="43.34375" lon="5.6688">
        <ele>284</ele>
        <time>2019-01-18T08:23:47.000Z</time>
      </trkpt>
      <trkpt lat="43.34375" lon="5.6688">
        <ele>284</ele>
        <time>2019-01-18T08:23:48.000Z</time>
      </trkpt>
      <trkpt lat="43.34375" lon="5.6688">
        <ele>284</ele>
        <time>2019-01-18T08:23:49.000Z</time>
      </trkpt>
      <trkpt lat="43.34375" lon="5.6688">
        <ele>284</ele>
        <time>2019-01-18T08:23:50.000Z</time>
      </trkpt>
      <trkpt lat="43.34375" lon="5.6688">
        <ele>284</ele>
        <time>2019-01-18T08:23:51.000Z</time>
      </trkpt>
      <trkpt lat="43.34375" lon="5.6688">
        <ele>284</ele>
        <time>2019-01-18T08:23:52.000Z</time>
      </trkpt>
      <trkpt lat="43.34375" lon="5.6688">
        <ele>284</ele>
        <time>2019-01-18T08:23:53.000Z</time>
      </trkpt>
      <trkpt lat="43.34375" lon="5.6688">
        <ele>284</ele>
        <time>2019-01-18T08:23:54.000Z</time>
      </trkpt>
      <trkpt lat="43.34375" lon="5.6688">
        <ele>284</ele>
        <time>2019-01-18T08:23:55.000Z</time>
      </trkpt>
      <trkpt lat="43.34375" lon="5.6688">
        <ele>284</ele>
        <time>2019-01-18T08:23:56.000Z</time>
      </trkpt>
      <trkpt lat="43.34374" lon="5.6688">
        <ele>284</ele>
        <time>2019-01-18T08:23:57.000Z</time>
      </trkpt>
      <trkpt lat="43.34374" lon="5.66881">
        <ele>283</ele>
        <time>2019-01-18T08:23:58.000Z</time>
      </trkpt>
      <trkpt lat="43.34374" lon="5.66881">
        <ele>283</ele>
        <time>2019-01-18T08:23:59.000Z</time>
      </trkpt>
      <trkpt lat="43.34373" lon="5.66881">
        <ele>283</ele>
        <time>2019-01-18T08:24:00.000Z</time>
      </trkpt>
      <trkpt lat="43.34373" lon="5.66881">
        <ele>284</ele>
        <time>2019-01-18T08:24:01.000Z</time>
      </trkpt>
      <trkpt lat="43.34373" lon="5.66882">
        <ele>284</ele>
        <time>2019-01-18T08:24:02.000Z</time>
      </trkpt>
      <trkpt lat="43.34372" lon="5.66883">
        <ele>284</ele>
        <time>2019-01-18T08:24:03.000Z</time>
      </trkpt>
      <trkpt lat="43.34372" lon="5.66884">
        <ele>284</ele>
        <time>2019-01-18T08:24:04.000Z</time>
      </trkpt>
      <trkpt lat="43.34371" lon="5.66885">
        <ele>284</ele>
        <time>2019-01-18T08:24:05.000Z</time>
      </trkpt>
      <trkpt lat="43.34371" lon="5.66885">
        <ele>284</ele>
        <time>2019-01-18T08:24:06.000Z</time>
      </trkpt>
      <trkpt lat="43.34371" lon="5.66885">
        <ele>284</ele>
        <time>2019-01-18T08:24:07.000Z</time>
      </trkpt>
      <trkpt lat="43.34371" lon="5.66885">
        <ele>284</ele>
        <time>2019-01-18T08:24:08.000Z</time>
      </trkpt>
      <trkpt lat="43.34371" lon="5.66885">
        <ele>284</ele>
        <time>2019-01-18T08:24:09.000Z</time>
      </trkpt>
      <trkpt lat="43.34371" lon="5.66885">
        <ele>284</ele>
        <time>2019-01-18T08:24:10.000Z</time>
      </trkpt>
      <trkpt lat="43.3437" lon="5.66885">
        <ele>285</ele>
        <time>2019-01-18T08:24:11.000Z</time>
      </trkpt>
      <trkpt lat="43.34369" lon="5.66885">
        <ele>285</ele>
        <time>2019-01-18T08:24:12.000Z</time>
      </trkpt>
      <trkpt lat="43.34369" lon="5.66885">
        <ele>285</ele>
        <time>2019-01-18T08:24:13.000Z</time>
      </trkpt>
      <trkpt lat="43.34368" lon="5.66885">
        <ele>284</ele>
        <time>2019-01-18T08:24:14.000Z</time>
      </trkpt>
      <trkpt lat="43.34368" lon="5.66885">
        <ele>284</ele>
        <time>2019-01-18T08:24:15.000Z</time>
      </trkpt>
      <trkpt lat="43.34367" lon="5.66885">
        <ele>284</ele>
        <time>2019-01-18T08:24:16.000Z</time>
      </trkpt>
      <trkpt lat="43.34367" lon="5.66886">
        <ele>285</ele>
        <time>2019-01-18T08:24:17.000Z</time>
      </trkpt>
      <trkpt lat="43.34366" lon="5.66886">
        <ele>285</ele>
        <time>2019-01-18T08:24:18.000Z</time>
      </trkpt>
      <trkpt lat="43.34365" lon="5.66886">
        <ele>285</ele>
        <time>2019-01-18T08:24:19.000Z</time>
      </trkpt>
      <trkpt lat="43.34365" lon="5.66886">
        <ele>285</ele>
        <time>2019-01-18T08:24:20.000Z</time>
      </trkpt>
      <trkpt lat="43.34364" lon="5.66885">
        <ele>285</ele>
        <time>2019-01-18T08:24:21.000Z</time>
      </trkpt>
      <trkpt lat="43.34364" lon="5.66885">
        <ele>285</ele>
        <time>2019-01-18T08:24:22.000Z</time>
      </trkpt>
      <trkpt lat="43.34364" lon="5.66885">
        <ele>285</ele>
        <time>2019-01-18T08:24:23.000Z</time>
      </trkpt>
      <trkpt lat="43.34363" lon="5.66885">
        <ele>285</ele>
        <time>2019-01-18T08:24:24.000Z</time>
      </trkpt>
      <trkpt lat="43.34363" lon="5.66885">
        <ele>285</ele>
        <time>2019-01-18T08:24:25.000Z</time>
      </trkpt>
      <trkpt lat="43.34363" lon="5.66885">
        <ele>285</ele>
        <time>2019-01-18T08:24:26.000Z</time>
      </trkpt>
      <trkpt lat="43.34363" lon="5.66885">
        <ele>285</ele>
        <time>2019-01-18T08:24:27.000Z</time>
      </trkpt>
      <trkpt lat="43.34363" lon="5.66884">
        <ele>285</ele>
        <time>2019-01-18T08:24:28.000Z</time>
      </trkpt>
      <trkpt lat="43.34363" lon="5.66884">
        <ele>285</ele>
        <time>2019-01-18T08:24:29.000Z</time>
      </trkpt>
      <trkpt lat="43.34362" lon="5.66884">
        <ele>285</ele>
        <time>2019-01-18T08:24:30.000Z</time>
      </trkpt>
      <trkpt lat="43.34362" lon="5.66884">
        <ele>285</ele>
        <time>2019-01-18T08:24:31.000Z</time>
      </trkpt>
      <trkpt lat="43.34362" lon="5.66884">
        <ele>285</ele>
        <time>2019-01-18T08:24:32.000Z</time>
      </trkpt>
      <trkpt lat="43.34362" lon="5.66884">
        <ele>285</ele>
        <time>2019-01-18T08:24:33.000Z</time>
      </trkpt>
      <trkpt lat="43.34361" lon="5.66884">
        <ele>285</ele>
        <time>2019-01-18T08:24:34.000Z</time>
      </trkpt>
      <trkpt lat="43.34361" lon="5.66884">
        <ele>285</ele>
        <time>2019-01-18T08:24:35.000Z</time>
      </trkpt>
      <trkpt lat="43.34361" lon="5.66884">
        <ele>285</ele>
        <time>2019-01-18T08:24:36.000Z</time>
      </trkpt>
      <trkpt lat="43.34361" lon="5.66884">
        <ele>285</ele>
        <time>2019-01-18T08:24:37.000Z</time>
      </trkpt>
      <trkpt lat="43.34361" lon="5.66884">
        <ele>285</ele>
        <time>2019-01-18T08:24:38.000Z</time>
      </trkpt>
      <trkpt lat="43.34361" lon="5.66884">
        <ele>285</ele>
        <time>2019-01-18T08:24:39.000Z</time>
      </trkpt>
      <trkpt lat="43.34361" lon="5.66884">
        <ele>285</ele>
        <time>2019-01-18T08:24:40.000Z</time>
      </trkpt>
      <trkpt lat="43.34361" lon="5.66884">
        <ele>285</ele>
        <time>2019-01-18T08:24:41.000Z</time>
      </trkpt>
      <trkpt lat="43.3436" lon="5.66884">
        <ele>285</ele>
        <time>2019-01-18T08:24:42.000Z</time>
      </trkpt>
      <trkpt lat="43.3436" lon="5.66884">
        <ele>285</ele>
        <time>2019-01-18T08:24:43.000Z</time>
      </trkpt>
      <trkpt lat="43.3436" lon="5.66884">
        <ele>285</ele>
        <time>2019-01-18T08:24:44.000Z</time>
      </trkpt>
      <trkpt lat="43.3436" lon="5.66884">
        <ele>285</ele>
        <time>2019-01-18T08:24:45.000Z</time>
      </trkpt>
      <trkpt lat="43.3436" lon="5.66884">
        <ele>285</ele>
        <time>2019-01-18T08:24:46.000Z</time>
      </trkpt>
      <trkpt lat="43.3436" lon="5.66884">
        <ele>285</ele>
        <time>2019-01-18T08:24:47.000Z</time>
      </trkpt>
      <trkpt lat="43.3436" lon="5.66884">
        <ele>285</ele>
        <time>2019-01-18T08:24:48.000Z</time>
      </trkpt>
      <trkpt lat="43.3436" lon="5.66884">
        <ele>285</ele>
        <time>2019-01-18T08:24:49.000Z</time>
      </trkpt>
      <trkpt lat="43.3436" lon="5.66884">
        <ele>285</ele>
        <time>2019-01-18T08:24:50.000Z</time>
      </trkpt>
      <trkpt lat="43.3436" lon="5.66884">
        <ele>285</ele>
        <time>2019-01-18T08:24:51.000Z</time>
      </trkpt>
      <trkpt lat="43.34359" lon="5.66884">
        <ele>285</ele>
        <time>2019-01-18T08:24:52.000Z</time>
      </trkpt>
      <trkpt lat="43.34359" lon="5.66885">
        <ele>285</ele>
        <time>2019-01-18T08:24:53.000Z</time>
      </trkpt>
      <trkpt lat="43.34359" lon="5.66885">
        <ele>285</ele>
        <time>2019-01-18T08:24:54.000Z</time>
      </trkpt>
      <trkpt lat="43.34359" lon="5.66885">
        <ele>285</ele>
        <time>2019-01-18T08:24:55.000Z</time>
      </trkpt>
      <trkpt lat="43.34359" lon="5.66884">
        <ele>285</ele>
        <time>2019-01-18T08:24:56.000Z</time>
      </trkpt>
      <trkpt lat="43.34359" lon="5.66884">
        <ele>285</ele>
        <time>2019-01-18T08:24:57.000Z</time>
      </trkpt>
      <trkpt lat="43.34359" lon="5.66884">
        <ele>285</ele>
        <time>2019-01-18T08:24:58.000Z</time>
      </trkpt>
      <trkpt lat="43.34359" lon="5.66884">
        <ele>285</ele>
        <time>2019-01-18T08:24:59.000Z</time>
      </trkpt>
      <trkpt lat="43.34359" lon="5.66884">
        <ele>285</ele>
        <time>2019-01-18T08:25:00.000Z</time>
      </trkpt>
      <trkpt lat="43.34359" lon="5.66884">
        <ele>285</ele>
        <time>2019-01-18T08:25:01.000Z</time>
      </trkpt>
      <trkpt lat="43.34358" lon="5.66884">
        <ele>286</ele>
        <time>2019-01-18T08:25:02.000Z</time>
      </trkpt>
      <trkpt lat="43.34358" lon="5.66884">
        <ele>286</ele>
        <time>2019-01-18T08:25:03.000Z</time>
      </trkpt>
      <trkpt lat="43.34358" lon="5.66883">
        <ele>286</ele>
        <time>2019-01-18T08:25:04.000Z</time>
      </trkpt>
      <trkpt lat="43.34358" lon="5.66884">
        <ele>286</ele>
        <time>2019-01-18T08:25:05.000Z</time>
      </trkpt>
      <trkpt lat="43.34358" lon="5.66884">
        <ele>286</ele>
        <time>2019-01-18T08:25:06.000Z</time>
      </trkpt>
      <trkpt lat="43.34358" lon="5.66884">
        <ele>286</ele>
        <time>2019-01-18T08:25:07.000Z</time>
      </trkpt>
      <trkpt lat="43.34358" lon="5.66884">
        <ele>286</ele>
        <time>2019-01-18T08:25:08.000Z</time>
      </trkpt>
      <trkpt lat="43.34358" lon="5.66884">
        <ele>286</ele>
        <time>2019-01-18T08:25:09.000Z</time>
      </trkpt>
      <trkpt lat="43.34358" lon="5.66884">
        <ele>286</ele>
        <time>2019-01-18T08:25:10.000Z</time>
      </trkpt>
      <trkpt lat="43.34358" lon="5.66884">
        <ele>286</ele>
        <time>2019-01-18T08:25:11.000Z</time>
      </trkpt>
      <trkpt lat="43.34358" lon="5.66884">
        <ele>286</ele>
        <time>2019-01-18T08:25:12.000Z</time>
      </trkpt>
      <trkpt lat="43.34358" lon="5.66884">
        <ele>286</ele>
        <time>2019-01-18T08:25:13.000Z</time>
      </trkpt>
      <trkpt lat="43.34358" lon="5.66884">
        <ele>286</ele>
        <time>2019-01-18T08:25:14.000Z</time>
      </trkpt>
      <trkpt lat="43.34358" lon="5.66884">
        <ele>286</ele>
        <time>2019-01-18T08:25:15.000Z</time>
      </trkpt>
      <trkpt lat="43.34357" lon="5.66884">
        <ele>286</ele>
        <time>2019-01-18T08:25:16.000Z</time>
      </trkpt>
      <trkpt lat="43.34357" lon="5.66884">
        <ele>286</ele>
        <time>2019-01-18T08:25:17.000Z</time>
      </trkpt>
      <trkpt lat="43.34357" lon="5.66884">
        <ele>286</ele>
        <time>2019-01-18T08:25:18.000Z</time>
      </trkpt>
      <trkpt lat="43.34357" lon="5.66884">
        <ele>286</ele>
        <time>2019-01-18T08:25:19.000Z</time>
      </trkpt>
      <trkpt lat="43.34357" lon="5.66884">
        <ele>286</ele>
        <time>2019-01-18T08:25:20.000Z</time>
      </trkpt>
      <trkpt lat="43.34357" lon="5.66883">
        <ele>286</ele>
        <time>2019-01-18T08:25:21.000Z</time>
      </trkpt>
      <trkpt lat="43.34357" lon="5.66883">
        <ele>286</ele>
        <time>2019-01-18T08:25:22.000Z</time>
      </trkpt>
      <trkpt lat="43.34357" lon="5.66883">
        <ele>286</ele>
        <time>2019-01-18T08:25:23.000Z</time>
      </trkpt>
      <trkpt lat="43.34357" lon="5.66883">
        <ele>286</ele>
        <time>2019-01-18T08:25:24.000Z</time>
      </trkpt>
      <trkpt lat="43.34357" lon="5.66883">
        <ele>286</ele>
        <time>2019-01-18T08:25:25.000Z</time>
      </trkpt>
      <trkpt lat="43.34357" lon="5.66883">
        <ele>286</ele>
        <time>2019-01-18T08:25:26.000Z</time>
      </trkpt>
      <trkpt lat="43.34357" lon="5.66883">
        <ele>286</ele>
        <time>2019-01-18T08:25:27.000Z</time>
      </trkpt>
      <trkpt lat="43.34357" lon="5.66883">
        <ele>286</ele>
        <time>2019-01-18T08:25:28.000Z</time>
      </trkpt>
      <trkpt lat="43.34357" lon="5.66883">
        <ele>286</ele>
        <time>2019-01-18T08:25:29.000Z</time>
      </trkpt>
      <trkpt lat="43.34356" lon="5.66883">
        <ele>286</ele>
        <time>2019-01-18T08:25:30.000Z</time>
      </trkpt>
      <trkpt lat="43.34356" lon="5.66884">
        <ele>286</ele>
        <time>2019-01-18T08:25:31.000Z</time>
      </trkpt>
      <trkpt lat="43.34355" lon="5.66884">
        <ele>286</ele>
        <time>2019-01-18T08:25:32.000Z</time>
      </trkpt>
      <trkpt lat="43.34354" lon="5.66884">
        <ele>286</ele>
        <time>2019-01-18T08:25:33.000Z</time>
      </trkpt>
      <trkpt lat="43.34354" lon="5.66884">
        <ele>286</ele>
        <time>2019-01-18T08:25:34.000Z</time>
      </trkpt>
      <trkpt lat="43.34353" lon="5.66885">
        <ele>286</ele>
        <time>2019-01-18T08:25:35.000Z</time>
      </trkpt>
      <trkpt lat="43.34352" lon="5.66885">
        <ele>286</ele>
        <time>2019-01-18T08:25:36.000Z</time>
      </trkpt>
      <trkpt lat="43.34351" lon="5.66885">
        <ele>286</ele>
        <time>2019-01-18T08:25:37.000Z</time>
      </trkpt>
      <trkpt lat="43.34349" lon="5.66885">
        <ele>286</ele>
        <time>2019-01-18T08:25:38.000Z</time>
      </trkpt>
      <trkpt lat="43.34348" lon="5.66886">
        <ele>286</ele>
        <time>2019-01-18T08:25:39.000Z</time>
      </trkpt>
      <trkpt lat="43.34347" lon="5.66886">
        <ele>286</ele>
        <time>2019-01-18T08:25:40.000Z</time>
      </trkpt>
      <trkpt lat="43.34347" lon="5.66885">
        <ele>286</ele>
        <time>2019-01-18T08:25:41.000Z</time>
      </trkpt>
      <trkpt lat="43.34346" lon="5.66885">
        <ele>286</ele>
        <time>2019-01-18T08:25:42.000Z</time>
      </trkpt>
      <trkpt lat="43.34346" lon="5.66885">
        <ele>286</ele>
        <time>2019-01-18T08:25:43.000Z</time>
      </trkpt>
      <trkpt lat="43.34346" lon="5.66885">
        <ele>286</ele>
        <time>2019-01-18T08:25:44.000Z</time>
      </trkpt>
      <trkpt lat="43.34346" lon="5.66885">
        <ele>286</ele>
        <time>2019-01-18T08:25:45.000Z</time>
      </trkpt>
      <trkpt lat="43.34346" lon="5.66885">
        <ele>287</ele>
        <time>2019-01-18T08:25:46.000Z</time>
      </trkpt>
      <trkpt lat="43.34346" lon="5.66885">
        <ele>287</ele>
        <time>2019-01-18T08:25:47.000Z</time>
      </trkpt>
      <trkpt lat="43.34346" lon="5.66885">
        <ele>287</ele>
        <time>2019-01-18T08:25:48.000Z</time>
      </trkpt>
      <trkpt lat="43.34345" lon="5.66885">
        <ele>287</ele>
        <time>2019-01-18T08:25:49.000Z</time>
      </trkpt>
      <trkpt lat="43.34345" lon="5.66885">
        <ele>287</ele>
        <time>2019-01-18T08:25:50.000Z</time>
      </trkpt>
      <trkpt lat="43.34345" lon="5.66885">
        <ele>287</ele>
        <time>2019-01-18T08:25:51.000Z</time>
      </trkpt>
      <trkpt lat="43.34344" lon="5.66886">
        <ele>287</ele>
        <time>2019-01-18T08:25:52.000Z</time>
      </trkpt>
      <trkpt lat="43.34343" lon="5.66886">
        <ele>287</ele>
        <time>2019-01-18T08:25:53.000Z</time>
      </trkpt>
      <trkpt lat="43.34343" lon="5.66886">
        <ele>287</ele>
        <time>2019-01-18T08:25:54.000Z</time>
      </trkpt>
      <trkpt lat="43.34342" lon="5.66886">
        <ele>287</ele>
        <time>2019-01-18T08:25:55.000Z</time>
      </trkpt>
      <trkpt lat="43.34342" lon="5.66886">
        <ele>287</ele>
        <time>2019-01-18T08:25:56.000Z</time>
      </trkpt>
      <trkpt lat="43.34341" lon="5.66886">
        <ele>287</ele>
        <time>2019-01-18T08:25:57.000Z</time>
      </trkpt>
      <trkpt lat="43.34341" lon="5.66885">
        <ele>287</ele>
        <time>2019-01-18T08:25:58.000Z</time>
      </trkpt>
      <trkpt lat="43.34341" lon="5.66885">
        <ele>287</ele>
        <time>2019-01-18T08:25:59.000Z</time>
      </trkpt>
      <trkpt lat="43.34341" lon="5.66885">
        <ele>287</ele>
        <time>2019-01-18T08:26:00.000Z</time>
      </trkpt>
      <trkpt lat="43.34341" lon="5.66885">
        <ele>287</ele>
        <time>2019-01-18T08:26:01.000Z</time>
      </trkpt>
      <trkpt lat="43.34341" lon="5.66885">
        <ele>287</ele>
        <time>2019-01-18T08:26:02.000Z</time>
      </trkpt>
      <trkpt lat="43.34341" lon="5.66885">
        <ele>287</ele>
        <time>2019-01-18T08:26:03.000Z</time>
      </trkpt>
      <trkpt lat="43.34341" lon="5.66885">
        <ele>287</ele>
        <time>2019-01-18T08:26:04.000Z</time>
      </trkpt>
      <trkpt lat="43.3434" lon="5.66885">
        <ele>287</ele>
        <time>2019-01-18T08:26:05.000Z</time>
      </trkpt>
      <trkpt lat="43.3434" lon="5.66885">
        <ele>287</ele>
        <time>2019-01-18T08:26:06.000Z</time>
      </trkpt>
      <trkpt lat="43.3434" lon="5.66885">
        <ele>287</ele>
        <time>2019-01-18T08:26:07.000Z</time>
      </trkpt>
      <trkpt lat="43.3434" lon="5.66885">
        <ele>287</ele>
        <time>2019-01-18T08:26:08.000Z</time>
      </trkpt>
      <trkpt lat="43.3434" lon="5.66885">
        <ele>288</ele>
        <time>2019-01-18T08:26:09.000Z</time>
      </trkpt>
      <trkpt lat="43.3434" lon="5.66885">
        <ele>288</ele>
        <time>2019-01-18T08:26:10.000Z</time>
      </trkpt>
      <trkpt lat="43.3434" lon="5.66885">
        <ele>288</ele>
        <time>2019-01-18T08:26:11.000Z</time>
      </trkpt>
      <trkpt lat="43.3434" lon="5.66885">
        <ele>288</ele>
        <time>2019-01-18T08:26:12.000Z</time>
      </trkpt>
      <trkpt lat="43.3434" lon="5.66885">
        <ele>288</ele>
        <time>2019-01-18T08:26:13.000Z</time>
      </trkpt>
      <trkpt lat="43.3434" lon="5.66886">
        <ele>288</ele>
        <time>2019-01-18T08:26:14.000Z</time>
      </trkpt>
      <trkpt lat="43.34339" lon="5.66886">
        <ele>288</ele>
        <time>2019-01-18T08:26:15.000Z</time>
      </trkpt>
      <trkpt lat="43.34339" lon="5.66886">
        <ele>288</ele>
        <time>2019-01-18T08:26:16.000Z</time>
      </trkpt>
      <trkpt lat="43.34339" lon="5.66885">
        <ele>288</ele>
        <time>2019-01-18T08:26:17.000Z</time>
      </trkpt>
      <trkpt lat="43.34338" lon="5.66885">
        <ele>288</ele>
        <time>2019-01-18T08:26:18.000Z</time>
      </trkpt>
      <trkpt lat="43.34338" lon="5.66885">
        <ele>288</ele>
        <time>2019-01-18T08:26:19.000Z</time>
      </trkpt>
      <trkpt lat="43.34338" lon="5.66885">
        <ele>288</ele>
        <time>2019-01-18T08:26:20.000Z</time>
      </trkpt>
      <trkpt lat="43.34337" lon="5.66885">
        <ele>288</ele>
        <time>2019-01-18T08:26:21.000Z</time>
      </trkpt>
      <trkpt lat="43.34337" lon="5.66885">
        <ele>288</ele>
        <time>2019-01-18T08:26:22.000Z</time>
      </trkpt>
      <trkpt lat="43.34337" lon="5.66885">
        <ele>288</ele>
        <time>2019-01-18T08:26:23.000Z</time>
      </trkpt>
      <trkpt lat="43.34337" lon="5.66885">
        <ele>288</ele>
        <time>2019-01-18T08:26:24.000Z</time>
      </trkpt>
      <trkpt lat="43.34336" lon="5.66885">
        <ele>289</ele>
        <time>2019-01-18T08:26:25.000Z</time>
      </trkpt>
      <trkpt lat="43.34336" lon="5.66885">
        <ele>289</ele>
        <time>2019-01-18T08:26:26.000Z</time>
      </trkpt>
      <trkpt lat="43.34335" lon="5.66885">
        <ele>289</ele>
        <time>2019-01-18T08:26:27.000Z</time>
      </trkpt>
      <trkpt lat="43.34335" lon="5.66885">
        <ele>289</ele>
        <time>2019-01-18T08:26:28.000Z</time>
      </trkpt>
      <trkpt lat="43.34335" lon="5.66885">
        <ele>289</ele>
        <time>2019-01-18T08:26:29.000Z</time>
      </trkpt>
      <trkpt lat="43.34334" lon="5.66885">
        <ele>289</ele>
        <time>2019-01-18T08:26:30.000Z</time>
      </trkpt>
      <trkpt lat="43.34334" lon="5.66885">
        <ele>289</ele>
        <time>2019-01-18T08:26:31.000Z</time>
      </trkpt>
      <trkpt lat="43.34333" lon="5.66885">
        <ele>290</ele>
        <time>2019-01-18T08:26:32.000Z</time>
      </trkpt>
      <trkpt lat="43.34333" lon="5.66886">
        <ele>290</ele>
        <time>2019-01-18T08:26:33.000Z</time>
      </trkpt>
      <trkpt lat="43.34333" lon="5.66886">
        <ele>290</ele>
        <time>2019-01-18T08:26:34.000Z</time>
      </trkpt>
      <trkpt lat="43.34332" lon="5.66886">
        <ele>290</ele>
        <time>2019-01-18T08:26:35.000Z</time>
      </trkpt>
      <trkpt lat="43.34332" lon="5.66887">
        <ele>291</ele>
        <time>2019-01-18T08:26:36.000Z</time>
      </trkpt>
      <trkpt lat="43.34333" lon="5.66887">
        <ele>291</ele>
        <time>2019-01-18T08:26:37.000Z</time>
      </trkpt>
      <trkpt lat="43.34333" lon="5.66887">
        <ele>291</ele>
        <time>2019-01-18T08:26:38.000Z</time>
      </trkpt>
      <trkpt lat="43.34333" lon="5.66887">
        <ele>292</ele>
        <time>2019-01-18T08:26:39.000Z</time>
      </trkpt>
      <trkpt lat="43.34333" lon="5.66887">
        <ele>292</ele>
        <time>2019-01-18T08:26:40.000Z</time>
      </trkpt>
      <trkpt lat="43.34333" lon="5.66887">
        <ele>292</ele>
        <time>2019-01-18T08:26:41.000Z</time>
      </trkpt>
      <trkpt lat="43.34333" lon="5.66887">
        <ele>293</ele>
        <time>2019-01-18T08:26:42.000Z</time>
      </trkpt>
      <trkpt lat="43.34333" lon="5.66887">
        <ele>293</ele>
        <time>2019-01-18T08:26:43.000Z</time>
      </trkpt>
      <trkpt lat="43.34333" lon="5.66888">
        <ele>293</ele>
        <time>2019-01-18T08:26:44.000Z</time>
      </trkpt>
      <trkpt lat="43.34333" lon="5.66888">
        <ele>293</ele>
        <time>2019-01-18T08:26:45.000Z</time>
      </trkpt>
      <trkpt lat="43.34333" lon="5.66888">
        <ele>293</ele>
        <time>2019-01-18T08:26:46.000Z</time>
      </trkpt>
      <trkpt lat="43.34332" lon="5.66888">
        <ele>293</ele>
        <time>2019-01-18T08:26:47.000Z</time>
      </trkpt>
      <trkpt lat="43.34333" lon="5.66888">
        <ele>293</ele>
        <time>2019-01-18T08:26:48.000Z</time>
      </trkpt>
      <trkpt lat="43.34333" lon="5.66888">
        <ele>294</ele>
        <time>2019-01-18T08:26:49.000Z</time>
      </trkpt>
      <trkpt lat="43.34333" lon="5.66888">
        <ele>294</ele>
        <time>2019-01-18T08:26:50.000Z</time>
      </trkpt>
      <trkpt lat="43.34333" lon="5.66888">
        <ele>294</ele>
        <time>2019-01-18T08:26:51.000Z</time>
      </trkpt>
      <trkpt lat="43.34333" lon="5.66888">
        <ele>294</ele>
        <time>2019-01-18T08:26:52.000Z</time>
      </trkpt>
      <trkpt lat="43.34333" lon="5.66888">
        <ele>294</ele>
        <time>2019-01-18T08:26:53.000Z</time>
      </trkpt>
      <trkpt lat="43.34333" lon="5.66888">
        <ele>294</ele>
        <time>2019-01-18T08:26:54.000Z</time>
      </trkpt>
      <trkpt lat="43.34333" lon="5.66888">
        <ele>294</ele>
        <time>2019-01-18T08:26:55.000Z</time>
      </trkpt>
      <trkpt lat="43.34333" lon="5.66888">
        <ele>295</ele>
        <time>2019-01-18T08:26:56.000Z</time>
      </trkpt>
      <trkpt lat="43.34333" lon="5.66889">
        <ele>295</ele>
        <time>2019-01-18T08:26:57.000Z</time>
      </trkpt>
      <trkpt lat="43.34333" lon="5.66889">
        <ele>295</ele>
        <time>2019-01-18T08:26:58.000Z</time>
      </trkpt>
      <trkpt lat="43.34333" lon="5.66889">
        <ele>295</ele>
        <time>2019-01-18T08:26:59.000Z</time>
      </trkpt>
      <trkpt lat="43.34333" lon="5.66889">
        <ele>295</ele>
        <time>2019-01-18T08:27:00.000Z</time>
      </trkpt>
      <trkpt lat="43.34333" lon="5.66889">
        <ele>295</ele>
        <time>2019-01-18T08:27:01.000Z</time>
      </trkpt>
      <trkpt lat="43.34333" lon="5.66889">
        <ele>296</ele>
        <time>2019-01-18T08:27:02.000Z</time>
      </trkpt>
      <trkpt lat="43.34333" lon="5.66889">
        <ele>296</ele>
        <time>2019-01-18T08:27:03.000Z</time>
      </trkpt>
      <trkpt lat="43.34333" lon="5.66889">
        <ele>296</ele>
        <time>2019-01-18T08:27:04.000Z</time>
      </trkpt>
      <trkpt lat="43.34333" lon="5.6689">
        <ele>296</ele>
        <time>2019-01-18T08:27:05.000Z</time>
      </trkpt>
      <trkpt lat="43.34333" lon="5.6689">
        <ele>296</ele>
        <time>2019-01-18T08:27:06.000Z</time>
      </trkpt>
      <trkpt lat="43.34333" lon="5.6689">
        <ele>296</ele>
        <time>2019-01-18T08:27:07.000Z</time>
      </trkpt>
      <trkpt lat="43.34333" lon="5.6689">
        <ele>296</ele>
        <time>2019-01-18T08:27:08.000Z</time>
      </trkpt>
      <trkpt lat="43.34333" lon="5.6689">
        <ele>296</ele>
        <time>2019-01-18T08:27:09.000Z</time>
      </trkpt>
      <trkpt lat="43.34333" lon="5.6689">
        <ele>297</ele>
        <time>2019-01-18T08:27:10.000Z</time>
      </trkpt>
      <trkpt lat="43.34332" lon="5.6689">
        <ele>297</ele>
        <time>2019-01-18T08:27:11.000Z</time>
      </trkpt>
      <trkpt lat="43.34332" lon="5.6689">
        <ele>297</ele>
        <time>2019-01-18T08:27:12.000Z</time>
      </trkpt>
      <trkpt lat="43.34332" lon="5.6689">
        <ele>297</ele>
        <time>2019-01-18T08:27:13.000Z</time>
      </trkpt>
      <trkpt lat="43.34332" lon="5.6689">
        <ele>297</ele>
        <time>2019-01-18T08:27:14.000Z</time>
      </trkpt>
      <trkpt lat="43.34332" lon="5.6689">
        <ele>297</ele>
        <time>2019-01-18T08:27:15.000Z</time>
      </trkpt>
      <trkpt lat="43.34332" lon="5.6689">
        <ele>297</ele>
        <time>2019-01-18T08:27:16.000Z</time>
      </trkpt>
      <trkpt lat="43.34332" lon="5.6689">
        <ele>297</ele>
        <time>2019-01-18T08:27:17.000Z</time>
      </trkpt>
      <trkpt lat="43.34332" lon="5.6689">
        <ele>297</ele>
        <time>2019-01-18T08:27:18.000Z</time>
      </trkpt>
      <trkpt lat="43.34332" lon="5.6689">
        <ele>297</ele>
        <time>2019-01-18T08:27:19.000Z</time>
      </trkpt>
      <trkpt lat="43.34332" lon="5.6689">
        <ele>297</ele>
        <time>2019-01-18T08:27:20.000Z</time>
      </trkpt>
      <trkpt lat="43.34332" lon="5.6689">
        <ele>297</ele>
        <time>2019-01-18T08:27:21.000Z</time>
      </trkpt>
      <trkpt lat="43.34332" lon="5.6689">
        <ele>297</ele>
        <time>2019-01-18T08:27:22.000Z</time>
      </trkpt>
      <trkpt lat="43.34332" lon="5.6689">
        <ele>298</ele>
        <time>2019-01-18T08:27:23.000Z</time>
      </trkpt>
      <trkpt lat="43.34332" lon="5.6689">
        <ele>298</ele>
        <time>2019-01-18T08:27:24.000Z</time>
      </trkpt>
      <trkpt lat="43.34332" lon="5.6689">
        <ele>298</ele>
        <time>2019-01-18T08:27:25.000Z</time>
      </trkpt>
      <trkpt lat="43.34332" lon="5.6689">
        <ele>298</ele>
        <time>2019-01-18T08:27:26.000Z</time>
      </trkpt>
      <trkpt lat="43.34332" lon="5.6689">
        <ele>298</ele>
        <time>2019-01-18T08:27:27.000Z</time>
      </trkpt>
      <trkpt lat="43.34332" lon="5.6689">
        <ele>298</ele>
        <time>2019-01-18T08:27:28.000Z</time>
      </trkpt>
      <trkpt lat="43.34332" lon="5.6689">
        <ele>298</ele>
        <time>2019-01-18T08:27:29.000Z</time>
      </trkpt>
      <trkpt lat="43.34332" lon="5.6689">
        <ele>298</ele>
        <time>2019-01-18T08:27:30.000Z</time>
      </trkpt>
      <trkpt lat="43.34332" lon="5.66891">
        <ele>298</ele>
        <time>2019-01-18T08:27:31.000Z</time>
      </trkpt>
      <trkpt lat="43.34332" lon="5.66891">
        <ele>298</ele>
        <time>2019-01-18T08:27:32.000Z</time>
      </trkpt>
      <trkpt lat="43.34332" lon="5.66891">
        <ele>298</ele>
        <time>2019-01-18T08:27:33.000Z</time>
      </trkpt>
      <trkpt lat="43.34332" lon="5.66891">
        <ele>298</ele>
        <time>2019-01-18T08:27:34.000Z</time>
      </trkpt>
      <trkpt lat="43.34332" lon="5.66891">
        <ele>298</ele>
        <time>2019-01-18T08:27:35.000Z</time>
      </trkpt>
      <trkpt lat="43.34332" lon="5.66891">
        <ele>298</ele>
        <time>2019-01-18T08:27:36.000Z</time>
      </trkpt>
      <trkpt lat="43.34332" lon="5.66891">
        <ele>298</ele>
        <time>2019-01-18T08:27:37.000Z</time>
      </trkpt>
      <trkpt lat="43.34332" lon="5.66891">
        <ele>298</ele>
        <time>2019-01-18T08:27:38.000Z</time>
      </trkpt>
      <trkpt lat="43.34332" lon="5.66891">
        <ele>298</ele>
        <time>2019-01-18T08:27:39.000Z</time>
      </trkpt>
      <trkpt lat="43.34332" lon="5.66891">
        <ele>298</ele>
        <time>2019-01-18T08:27:40.000Z</time>
      </trkpt>
      <trkpt lat="43.34332" lon="5.66891">
        <ele>298</ele>
        <time>2019-01-18T08:27:41.000Z</time>
      </trkpt>
      <trkpt lat="43.34332" lon="5.66891">
        <ele>298</ele>
        <time>2019-01-18T08:27:42.000Z</time>
      </trkpt>
      <trkpt lat="43.34332" lon="5.66891">
        <ele>298</ele>
        <time>2019-01-18T08:27:43.000Z</time>
      </trkpt>
      <trkpt lat="43.34332" lon="5.66891">
        <ele>298</ele>
        <time>2019-01-18T08:27:44.000Z</time>
      </trkpt>
      <trkpt lat="43.34332" lon="5.66891">
        <ele>298</ele>
        <time>2019-01-18T08:27:45.000Z</time>
      </trkpt>
      <trkpt lat="43.34332" lon="5.66891">
        <ele>298</ele>
        <time>2019-01-18T08:27:46.000Z</time>
      </trkpt>
      <trkpt lat="43.34332" lon="5.66891">
        <ele>298</ele>
        <time>2019-01-18T08:27:47.000Z</time>
      </trkpt>
      <trkpt lat="43.34332" lon="5.66891">
        <ele>298</ele>
        <time>2019-01-18T08:27:48.000Z</time>
      </trkpt>
      <trkpt lat="43.34332" lon="5.66891">
        <ele>298</ele>
        <time>2019-01-18T08:27:49.000Z</time>
      </trkpt>
      <trkpt lat="43.34332" lon="5.6689">
        <ele>298</ele>
        <time>2019-01-18T08:27:50.000Z</time>
      </trkpt>
      <trkpt lat="43.34332" lon="5.6689">
        <ele>298</ele>
        <time>2019-01-18T08:27:51.000Z</time>
      </trkpt>
      <trkpt lat="43.34332" lon="5.66891">
        <ele>298</ele>
        <time>2019-01-18T08:27:52.000Z</time>
      </trkpt>
      <trkpt lat="43.34332" lon="5.66891">
        <ele>298</ele>
        <time>2019-01-18T08:27:53.000Z</time>
      </trkpt>
      <trkpt lat="43.34333" lon="5.66891">
        <ele>298</ele>
        <time>2019-01-18T08:27:54.000Z</time>
      </trkpt>
      <trkpt lat="43.34333" lon="5.6689">
        <ele>298</ele>
        <time>2019-01-18T08:27:55.000Z</time>
      </trkpt>
      <trkpt lat="43.34333" lon="5.6689">
        <ele>298</ele>
        <time>2019-01-18T08:27:56.000Z</time>
      </trkpt>
      <trkpt lat="43.34334" lon="5.6689">
        <ele>298</ele>
        <time>2019-01-18T08:27:57.000Z</time>
      </trkpt>
      <trkpt lat="43.34334" lon="5.6689">
        <ele>298</ele>
        <time>2019-01-18T08:27:58.000Z</time>
      </trkpt>
      <trkpt lat="43.34334" lon="5.6689">
        <ele>298</ele>
        <time>2019-01-18T08:27:59.000Z</time>
      </trkpt>
      <trkpt lat="43.34334" lon="5.6689">
        <ele>298</ele>
        <time>2019-01-18T08:28:00.000Z</time>
      </trkpt>
      <trkpt lat="43.34334" lon="5.66891">
        <ele>299</ele>
        <time>2019-01-18T08:28:01.000Z</time>
      </trkpt>
      <trkpt lat="43.34335" lon="5.66891">
        <ele>299</ele>
        <time>2019-01-18T08:28:02.000Z</time>
      </trkpt>
      <trkpt lat="43.34335" lon="5.66891">
        <ele>299</ele>
        <time>2019-01-18T08:28:03.000Z</time>
      </trkpt>
      <trkpt lat="43.34336" lon="5.66892">
        <ele>299</ele>
        <time>2019-01-18T08:28:04.000Z</time>
      </trkpt>
      <trkpt lat="43.34336" lon="5.66892">
        <ele>299</ele>
        <time>2019-01-18T08:28:05.000Z</time>
      </trkpt>
      <trkpt lat="43.34336" lon="5.66892">
        <ele>299</ele>
        <time>2019-01-18T08:28:06.000Z</time>
      </trkpt>
      <trkpt lat="43.34336" lon="5.66893">
        <ele>299</ele>
        <time>2019-01-18T08:28:07.000Z</time>
      </trkpt>
      <trkpt lat="43.34336" lon="5.66893">
        <ele>300</ele>
        <time>2019-01-18T08:28:08.000Z</time>
      </trkpt>
      <trkpt lat="43.34336" lon="5.66893">
        <ele>300</ele>
        <time>2019-01-18T08:28:09.000Z</time>
      </trkpt>
      <trkpt lat="43.34336" lon="5.66893">
        <ele>300</ele>
        <time>2019-01-18T08:28:10.000Z</time>
      </trkpt>
      <trkpt lat="43.34336" lon="5.66893">
        <ele>300</ele>
        <time>2019-01-18T08:28:11.000Z</time>
      </trkpt>
      <trkpt lat="43.34337" lon="5.66893">
        <ele>300</ele>
        <time>2019-01-18T08:28:12.000Z</time>
      </trkpt>
      <trkpt lat="43.34337" lon="5.66893">
        <ele>300</ele>
        <time>2019-01-18T08:28:13.000Z</time>
      </trkpt>
      <trkpt lat="43.34338" lon="5.66894">
        <ele>300</ele>
        <time>2019-01-18T08:28:14.000Z</time>
      </trkpt>
      <trkpt lat="43.34338" lon="5.66894">
        <ele>300</ele>
        <time>2019-01-18T08:28:15.000Z</time>
      </trkpt>
      <trkpt lat="43.34338" lon="5.66894">
        <ele>300</ele>
        <time>2019-01-18T08:28:16.000Z</time>
      </trkpt>
      <trkpt lat="43.34338" lon="5.66894">
        <ele>300</ele>
        <time>2019-01-18T08:28:17.000Z</time>
      </trkpt>
      <trkpt lat="43.34338" lon="5.66894">
        <ele>300</ele>
        <time>2019-01-18T08:28:18.000Z</time>
      </trkpt>
      <trkpt lat="43.34338" lon="5.66894">
        <ele>300</ele>
        <time>2019-01-18T08:28:19.000Z</time>
      </trkpt>
      <trkpt lat="43.34338" lon="5.66894">
        <ele>300</ele>
        <time>2019-01-18T08:28:20.000Z</time>
      </trkpt>
      <trkpt lat="43.34338" lon="5.66894">
        <ele>300</ele>
        <time>2019-01-18T08:28:21.000Z</time>
      </trkpt>
      <trkpt lat="43.34338" lon="5.66893">
        <ele>300</ele>
        <time>2019-01-18T08:28:22.000Z</time>
      </trkpt>
      <trkpt lat="43.34339" lon="5.66893">
        <ele>300</ele>
        <time>2019-01-18T08:28:23.000Z</time>
      </trkpt>
      <trkpt lat="43.3434" lon="5.66892">
        <ele>299</ele>
        <time>2019-01-18T08:28:24.000Z</time>
      </trkpt>
      <trkpt lat="43.3434" lon="5.66892">
        <ele>299</ele>
        <time>2019-01-18T08:28:25.000Z</time>
      </trkpt>
      <trkpt lat="43.34341" lon="5.66891">
        <ele>299</ele>
        <time>2019-01-18T08:28:26.000Z</time>
      </trkpt>
      <trkpt lat="43.34343" lon="5.66891">
        <ele>299</ele>
        <time>2019-01-18T08:28:27.000Z</time>
      </trkpt>
      <trkpt lat="43.34344" lon="5.6689">
        <ele>299</ele>
        <time>2019-01-18T08:28:28.000Z</time>
      </trkpt>
      <trkpt lat="43.34345" lon="5.66889">
        <ele>298</ele>
        <time>2019-01-18T08:28:29.000Z</time>
      </trkpt>
      <trkpt lat="43.34346" lon="5.66889">
        <ele>298</ele>
        <time>2019-01-18T08:28:30.000Z</time>
      </trkpt>
      <trkpt lat="43.34347" lon="5.66889">
        <ele>298</ele>
        <time>2019-01-18T08:28:31.000Z</time>
      </trkpt>
      <trkpt lat="43.34348" lon="5.66889">
        <ele>298</ele>
        <time>2019-01-18T08:28:32.000Z</time>
      </trkpt>
      <trkpt lat="43.34348" lon="5.66889">
        <ele>297</ele>
        <time>2019-01-18T08:28:33.000Z</time>
      </trkpt>
      <trkpt lat="43.34349" lon="5.66889">
        <ele>297</ele>
        <time>2019-01-18T08:28:34.000Z</time>
      </trkpt>
      <trkpt lat="43.3435" lon="5.66889">
        <ele>297</ele>
        <time>2019-01-18T08:28:35.000Z</time>
      </trkpt>
      <trkpt lat="43.34351" lon="5.66889">
        <ele>297</ele>
        <time>2019-01-18T08:28:36.000Z</time>
      </trkpt>
      <trkpt lat="43.34352" lon="5.66889">
        <ele>297</ele>
        <time>2019-01-18T08:28:37.000Z</time>
      </trkpt>
      <trkpt lat="43.34352" lon="5.66889">
        <ele>296</ele>
        <time>2019-01-18T08:28:38.000Z</time>
      </trkpt>
      <trkpt lat="43.34352" lon="5.66889">
        <ele>296</ele>
        <time>2019-01-18T08:28:39.000Z</time>
      </trkpt>
      <trkpt lat="43.34352" lon="5.66889">
        <ele>296</ele>
        <time>2019-01-18T08:28:40.000Z</time>
      </trkpt>
      <trkpt lat="43.34352" lon="5.66889">
        <ele>296</ele>
        <time>2019-01-18T08:28:41.000Z</time>
      </trkpt>
      <trkpt lat="43.34352" lon="5.66889">
        <ele>296</ele>
        <time>2019-01-18T08:28:42.000Z</time>
      </trkpt>
      <trkpt lat="43.34351" lon="5.6689">
        <ele>296</ele>
        <time>2019-01-18T08:28:43.000Z</time>
      </trkpt>
      <trkpt lat="43.3435" lon="5.6689">
        <ele>296</ele>
        <time>2019-01-18T08:28:44.000Z</time>
      </trkpt>
      <trkpt lat="43.3435" lon="5.6689">
        <ele>296</ele>
        <time>2019-01-18T08:28:45.000Z</time>
      </trkpt>
      <trkpt lat="43.34349" lon="5.66891">
        <ele>296</ele>
        <time>2019-01-18T08:28:46.000Z</time>
      </trkpt>
      <trkpt lat="43.34349" lon="5.66891">
        <ele>295</ele>
        <time>2019-01-18T08:28:47.000Z</time>
      </trkpt>
      <trkpt lat="43.34349" lon="5.66892">
        <ele>295</ele>
        <time>2019-01-18T08:28:48.000Z</time>
      </trkpt>
      <trkpt lat="43.34348" lon="5.66892">
        <ele>295</ele>
        <time>2019-01-18T08:28:49.000Z</time>
      </trkpt>
      <trkpt lat="43.34348" lon="5.66892">
        <ele>295</ele>
        <time>2019-01-18T08:28:50.000Z</time>
      </trkpt>
      <trkpt lat="43.34347" lon="5.66893">
        <ele>295</ele>
        <time>2019-01-18T08:28:51.000Z</time>
      </trkpt>
      <trkpt lat="43.34347" lon="5.66893">
        <ele>295</ele>
        <time>2019-01-18T08:28:52.000Z</time>
      </trkpt>
      <trkpt lat="43.34347" lon="5.66894">
        <ele>295</ele>
        <time>2019-01-18T08:28:53.000Z</time>
      </trkpt>
      <trkpt lat="43.34347" lon="5.66894">
        <ele>294</ele>
        <time>2019-01-18T08:28:54.000Z</time>
      </trkpt>
      <trkpt lat="43.34347" lon="5.66894">
        <ele>294</ele>
        <time>2019-01-18T08:28:55.000Z</time>
      </trkpt>
      <trkpt lat="43.34347" lon="5.66895">
        <ele>294</ele>
        <time>2019-01-18T08:28:56.000Z</time>
      </trkpt>
      <trkpt lat="43.34347" lon="5.66895">
        <ele>294</ele>
        <time>2019-01-18T08:28:57.000Z</time>
      </trkpt>
      <trkpt lat="43.34347" lon="5.66896">
        <ele>294</ele>
        <time>2019-01-18T08:28:58.000Z</time>
      </trkpt>
      <trkpt lat="43.34347" lon="5.66896">
        <ele>294</ele>
        <time>2019-01-18T08:28:59.000Z</time>
      </trkpt>
      <trkpt lat="43.34347" lon="5.66897">
        <ele>294</ele>
        <time>2019-01-18T08:29:00.000Z</time>
      </trkpt>
      <trkpt lat="43.34346" lon="5.66897">
        <ele>294</ele>
        <time>2019-01-18T08:29:01.000Z</time>
      </trkpt>
      <trkpt lat="43.34346" lon="5.66898">
        <ele>294</ele>
        <time>2019-01-18T08:29:02.000Z</time>
      </trkpt>
      <trkpt lat="43.34345" lon="5.66899">
        <ele>294</ele>
        <time>2019-01-18T08:29:03.000Z</time>
      </trkpt>
      <trkpt lat="43.34344" lon="5.669">
        <ele>293</ele>
        <time>2019-01-18T08:29:04.000Z</time>
      </trkpt>
      <trkpt lat="43.34344" lon="5.669">
        <ele>293</ele>
        <time>2019-01-18T08:29:05.000Z</time>
      </trkpt>
      <trkpt lat="43.34343" lon="5.66901">
        <ele>293</ele>
        <time>2019-01-18T08:29:06.000Z</time>
      </trkpt>
      <trkpt lat="43.34342" lon="5.66902">
        <ele>293</ele>
        <time>2019-01-18T08:29:07.000Z</time>
      </trkpt>
      <trkpt lat="43.34341" lon="5.66902">
        <ele>293</ele>
        <time>2019-01-18T08:29:08.000Z</time>
      </trkpt>
      <trkpt lat="43.3434" lon="5.66902">
        <ele>292</ele>
        <time>2019-01-18T08:29:09.000Z</time>
      </trkpt>
      <trkpt lat="43.34339" lon="5.66902">
        <ele>292</ele>
        <time>2019-01-18T08:29:10.000Z</time>
      </trkpt>
      <trkpt lat="43.34338" lon="5.66902">
        <ele>292</ele>
        <time>2019-01-18T08:29:11.000Z</time>
      </trkpt>
      <trkpt lat="43.34337" lon="5.66902">
        <ele>292</ele>
        <time>2019-01-18T08:29:12.000Z</time>
      </trkpt>
      <trkpt lat="43.34336" lon="5.66902">
        <ele>292</ele>
        <time>2019-01-18T08:29:13.000Z</time>
      </trkpt>
      <trkpt lat="43.34336" lon="5.66903">
        <ele>292</ele>
        <time>2019-01-18T08:29:14.000Z</time>
      </trkpt>
      <trkpt lat="43.34335" lon="5.66903">
        <ele>292</ele>
        <time>2019-01-18T08:29:15.000Z</time>
      </trkpt>
      <trkpt lat="43.34335" lon="5.66903">
        <ele>292</ele>
        <time>2019-01-18T08:29:16.000Z</time>
      </trkpt>
      <trkpt lat="43.34334" lon="5.66904">
        <ele>291</ele>
        <time>2019-01-18T08:29:17.000Z</time>
      </trkpt>
      <trkpt lat="43.34333" lon="5.66904">
        <ele>291</ele>
        <time>2019-01-18T08:29:18.000Z</time>
      </trkpt>
      <trkpt lat="43.34332" lon="5.66905">
        <ele>291</ele>
        <time>2019-01-18T08:29:19.000Z</time>
      </trkpt>
      <trkpt lat="43.34332" lon="5.66905">
        <ele>292</ele>
        <time>2019-01-18T08:29:20.000Z</time>
      </trkpt>
      <trkpt lat="43.34331" lon="5.66906">
        <ele>292</ele>
        <time>2019-01-18T08:29:21.000Z</time>
      </trkpt>
      <trkpt lat="43.3433" lon="5.66906">
        <ele>292</ele>
        <time>2019-01-18T08:29:22.000Z</time>
      </trkpt>
      <trkpt lat="43.34329" lon="5.66907">
        <ele>292</ele>
        <time>2019-01-18T08:29:23.000Z</time>
      </trkpt>
      <trkpt lat="43.34328" lon="5.66907">
        <ele>292</ele>
        <time>2019-01-18T08:29:24.000Z</time>
      </trkpt>
      <trkpt lat="43.34328" lon="5.66908">
        <ele>292</ele>
        <time>2019-01-18T08:29:25.000Z</time>
      </trkpt>
      <trkpt lat="43.34328" lon="5.66908">
        <ele>292</ele>
        <time>2019-01-18T08:29:26.000Z</time>
      </trkpt>
      <trkpt lat="43.34327" lon="5.66909">
        <ele>292</ele>
        <time>2019-01-18T08:29:27.000Z</time>
      </trkpt>
      <trkpt lat="43.34327" lon="5.66909">
        <ele>292</ele>
        <time>2019-01-18T08:29:28.000Z</time>
      </trkpt>
      <trkpt lat="43.34326" lon="5.6691">
        <ele>292</ele>
        <time>2019-01-18T08:29:29.000Z</time>
      </trkpt>
      <trkpt lat="43.34326" lon="5.6691">
        <ele>292</ele>
        <time>2019-01-18T08:29:30.000Z</time>
      </trkpt>
      <trkpt lat="43.34326" lon="5.6691">
        <ele>292</ele>
        <time>2019-01-18T08:29:31.000Z</time>
      </trkpt>
      <trkpt lat="43.34325" lon="5.6691">
        <ele>292</ele>
        <time>2019-01-18T08:29:32.000Z</time>
      </trkpt>
      <trkpt lat="43.34325" lon="5.6691">
        <ele>292</ele>
        <time>2019-01-18T08:29:33.000Z</time>
      </trkpt>
      <trkpt lat="43.34325" lon="5.6691">
        <ele>292</ele>
        <time>2019-01-18T08:29:34.000Z</time>
      </trkpt>
      <trkpt lat="43.34325" lon="5.6691">
        <ele>292</ele>
        <time>2019-01-18T08:29:35.000Z</time>
      </trkpt>
      <trkpt lat="43.34324" lon="5.66909">
        <ele>292</ele>
        <time>2019-01-18T08:29:36.000Z</time>
      </trkpt>
      <trkpt lat="43.34324" lon="5.66909">
        <ele>292</ele>
        <time>2019-01-18T08:29:37.000Z</time>
      </trkpt>
      <trkpt lat="43.34323" lon="5.66909">
        <ele>292</ele>
        <time>2019-01-18T08:29:38.000Z</time>
      </trkpt>
      <trkpt lat="43.34323" lon="5.66909">
        <ele>292</ele>
        <time>2019-01-18T08:29:39.000Z</time>
      </trkpt>
      <trkpt lat="43.34323" lon="5.66909">
        <ele>292</ele>
        <time>2019-01-18T08:29:40.000Z</time>
      </trkpt>
      <trkpt lat="43.34323" lon="5.66909">
        <ele>292</ele>
        <time>2019-01-18T08:29:41.000Z</time>
      </trkpt>
      <trkpt lat="43.34322" lon="5.66909">
        <ele>292</ele>
        <time>2019-01-18T08:29:42.000Z</time>
      </trkpt>
      <trkpt lat="43.34322" lon="5.66909">
        <ele>292</ele>
        <time>2019-01-18T08:29:43.000Z</time>
      </trkpt>
      <trkpt lat="43.34321" lon="5.66909">
        <ele>292</ele>
        <time>2019-01-18T08:29:44.000Z</time>
      </trkpt>
      <trkpt lat="43.3432" lon="5.66909">
        <ele>291</ele>
        <time>2019-01-18T08:29:45.000Z</time>
      </trkpt>
      <trkpt lat="43.34319" lon="5.6691">
        <ele>291</ele>
        <time>2019-01-18T08:29:46.000Z</time>
      </trkpt>
      <trkpt lat="43.34318" lon="5.6691">
        <ele>291</ele>
        <time>2019-01-18T08:29:47.000Z</time>
      </trkpt>
      <trkpt lat="43.34317" lon="5.66911">
        <ele>291</ele>
        <time>2019-01-18T08:29:48.000Z</time>
      </trkpt>
      <trkpt lat="43.34317" lon="5.66911">
        <ele>291</ele>
        <time>2019-01-18T08:29:49.000Z</time>
      </trkpt>
      <trkpt lat="43.34316" lon="5.66912">
        <ele>291</ele>
        <time>2019-01-18T08:29:50.000Z</time>
      </trkpt>
      <trkpt lat="43.34316" lon="5.66912">
        <ele>291</ele>
        <time>2019-01-18T08:29:51.000Z</time>
      </trkpt>
      <trkpt lat="43.34315" lon="5.66913">
        <ele>291</ele>
        <time>2019-01-18T08:29:52.000Z</time>
      </trkpt>
      <trkpt lat="43.34315" lon="5.66914">
        <ele>291</ele>
        <time>2019-01-18T08:29:53.000Z</time>
      </trkpt>
      <trkpt lat="43.34315" lon="5.66914">
        <ele>291</ele>
        <time>2019-01-18T08:29:54.000Z</time>
      </trkpt>
      <trkpt lat="43.34315" lon="5.66915">
        <ele>291</ele>
        <time>2019-01-18T08:29:55.000Z</time>
      </trkpt>
      <trkpt lat="43.34314" lon="5.66917">
        <ele>291</ele>
        <time>2019-01-18T08:29:56.000Z</time>
      </trkpt>
      <trkpt lat="43.34314" lon="5.66918">
        <ele>292</ele>
        <time>2019-01-18T08:29:57.000Z</time>
      </trkpt>
      <trkpt lat="43.34314" lon="5.66919">
        <ele>292</ele>
        <time>2019-01-18T08:29:58.000Z</time>
      </trkpt>
      <trkpt lat="43.34313" lon="5.66919">
        <ele>292</ele>
        <time>2019-01-18T08:29:59.000Z</time>
      </trkpt>
      <trkpt lat="43.34313" lon="5.6692">
        <ele>292</ele>
        <time>2019-01-18T08:30:00.000Z</time>
      </trkpt>
      <trkpt lat="43.34312" lon="5.6692">
        <ele>292</ele>
        <time>2019-01-18T08:30:01.000Z</time>
      </trkpt>
      <trkpt lat="43.34312" lon="5.66921">
        <ele>292</ele>
        <time>2019-01-18T08:30:02.000Z</time>
      </trkpt>
      <trkpt lat="43.34312" lon="5.66922">
        <ele>292</ele>
        <time>2019-01-18T08:30:03.000Z</time>
      </trkpt>
      <trkpt lat="43.34311" lon="5.66922">
        <ele>292</ele>
        <time>2019-01-18T08:30:04.000Z</time>
      </trkpt>
      <trkpt lat="43.34311" lon="5.66923">
        <ele>292</ele>
        <time>2019-01-18T08:30:05.000Z</time>
      </trkpt>
      <trkpt lat="43.3431" lon="5.66923">
        <ele>292</ele>
        <time>2019-01-18T08:30:06.000Z</time>
      </trkpt>
      <trkpt lat="43.3431" lon="5.66924">
        <ele>292</ele>
        <time>2019-01-18T08:30:07.000Z</time>
      </trkpt>
      <trkpt lat="43.3431" lon="5.66925">
        <ele>292</ele>
        <time>2019-01-18T08:30:08.000Z</time>
      </trkpt>
      <trkpt lat="43.34311" lon="5.66926">
        <ele>293</ele>
        <time>2019-01-18T08:30:09.000Z</time>
      </trkpt>
      <trkpt lat="43.34311" lon="5.66927">
        <ele>293</ele>
        <time>2019-01-18T08:30:10.000Z</time>
      </trkpt>
      <trkpt lat="43.34311" lon="5.66927">
        <ele>293</ele>
        <time>2019-01-18T08:30:11.000Z</time>
      </trkpt>
      <trkpt lat="43.34311" lon="5.66928">
        <ele>293</ele>
        <time>2019-01-18T08:30:12.000Z</time>
      </trkpt>
      <trkpt lat="43.34311" lon="5.66928">
        <ele>293</ele>
        <time>2019-01-18T08:30:13.000Z</time>
      </trkpt>
      <trkpt lat="43.34311" lon="5.66928">
        <ele>293</ele>
        <time>2019-01-18T08:30:14.000Z</time>
      </trkpt>
      <trkpt lat="43.34311" lon="5.66929">
        <ele>294</ele>
        <time>2019-01-18T08:30:15.000Z</time>
      </trkpt>
      <trkpt lat="43.34311" lon="5.6693">
        <ele>294</ele>
        <time>2019-01-18T08:30:16.000Z</time>
      </trkpt>
      <trkpt lat="43.34311" lon="5.6693">
        <ele>294</ele>
        <time>2019-01-18T08:30:17.000Z</time>
      </trkpt>
      <trkpt lat="43.34311" lon="5.66931">
        <ele>294</ele>
        <time>2019-01-18T08:30:18.000Z</time>
      </trkpt>
      <trkpt lat="43.34311" lon="5.66931">
        <ele>294</ele>
        <time>2019-01-18T08:30:19.000Z</time>
      </trkpt>
      <trkpt lat="43.34311" lon="5.66932">
        <ele>294</ele>
        <time>2019-01-18T08:30:20.000Z</time>
      </trkpt>
      <trkpt lat="43.34311" lon="5.66933">
        <ele>294</ele>
        <time>2019-01-18T08:30:21.000Z</time>
      </trkpt>
      <trkpt lat="43.3431" lon="5.66934">
        <ele>294</ele>
        <time>2019-01-18T08:30:22.000Z</time>
      </trkpt>
      <trkpt lat="43.3431" lon="5.66934">
        <ele>294</ele>
        <time>2019-01-18T08:30:23.000Z</time>
      </trkpt>
      <trkpt lat="43.3431" lon="5.66935">
        <ele>294</ele>
        <time>2019-01-18T08:30:24.000Z</time>
      </trkpt>
      <trkpt lat="43.34309" lon="5.66936">
        <ele>294</ele>
        <time>2019-01-18T08:30:25.000Z</time>
      </trkpt>
      <trkpt lat="43.34309" lon="5.66936">
        <ele>294</ele>
        <time>2019-01-18T08:30:26.000Z</time>
      </trkpt>
      <trkpt lat="43.34309" lon="5.66936">
        <ele>295</ele>
        <time>2019-01-18T08:30:27.000Z</time>
      </trkpt>
      <trkpt lat="43.34308" lon="5.66937">
        <ele>295</ele>
        <time>2019-01-18T08:30:28.000Z</time>
      </trkpt>
      <trkpt lat="43.34308" lon="5.66938">
        <ele>295</ele>
        <time>2019-01-18T08:30:29.000Z</time>
      </trkpt>
      <trkpt lat="43.34308" lon="5.66938">
        <ele>295</ele>
        <time>2019-01-18T08:30:30.000Z</time>
      </trkpt>
      <trkpt lat="43.34308" lon="5.66939">
        <ele>295</ele>
        <time>2019-01-18T08:30:31.000Z</time>
      </trkpt>
      <trkpt lat="43.34307" lon="5.66939">
        <ele>295</ele>
        <time>2019-01-18T08:30:32.000Z</time>
      </trkpt>
      <trkpt lat="43.34307" lon="5.6694">
        <ele>295</ele>
        <time>2019-01-18T08:30:33.000Z</time>
      </trkpt>
      <trkpt lat="43.34307" lon="5.6694">
        <ele>295</ele>
        <time>2019-01-18T08:30:34.000Z</time>
      </trkpt>
      <trkpt lat="43.34306" lon="5.6694">
        <ele>296</ele>
        <time>2019-01-18T08:30:35.000Z</time>
      </trkpt>
      <trkpt lat="43.34306" lon="5.66941">
        <ele>296</ele>
        <time>2019-01-18T08:30:36.000Z</time>
      </trkpt>
      <trkpt lat="43.34305" lon="5.66942">
        <ele>296</ele>
        <time>2019-01-18T08:30:37.000Z</time>
      </trkpt>
      <trkpt lat="43.34304" lon="5.66943">
        <ele>296</ele>
        <time>2019-01-18T08:30:38.000Z</time>
      </trkpt>
      <trkpt lat="43.34304" lon="5.66944">
        <ele>296</ele>
        <time>2019-01-18T08:30:39.000Z</time>
      </trkpt>
      <trkpt lat="43.34303" lon="5.66944">
        <ele>296</ele>
        <time>2019-01-18T08:30:40.000Z</time>
      </trkpt>
      <trkpt lat="43.34302" lon="5.66945">
        <ele>296</ele>
        <time>2019-01-18T08:30:41.000Z</time>
      </trkpt>
      <trkpt lat="43.34301" lon="5.66945">
        <ele>296</ele>
        <time>2019-01-18T08:30:42.000Z</time>
      </trkpt>
      <trkpt lat="43.34301" lon="5.66945">
        <ele>296</ele>
        <time>2019-01-18T08:30:43.000Z</time>
      </trkpt>
      <trkpt lat="43.343" lon="5.66945">
        <ele>296</ele>
        <time>2019-01-18T08:30:44.000Z</time>
      </trkpt>
      <trkpt lat="43.343" lon="5.66946">
        <ele>296</ele>
        <time>2019-01-18T08:30:45.000Z</time>
      </trkpt>
      <trkpt lat="43.34299" lon="5.66947">
        <ele>296</ele>
        <time>2019-01-18T08:30:46.000Z</time>
      </trkpt>
      <trkpt lat="43.34298" lon="5.66947">
        <ele>296</ele>
        <time>2019-01-18T08:30:47.000Z</time>
      </trkpt>
      <trkpt lat="43.34298" lon="5.66948">
        <ele>296</ele>
        <time>2019-01-18T08:30:48.000Z</time>
      </trkpt>
      <trkpt lat="43.34297" lon="5.66949">
        <ele>296</ele>
        <time>2019-01-18T08:30:49.000Z</time>
      </trkpt>
      <trkpt lat="43.34297" lon="5.66949">
        <ele>296</ele>
        <time>2019-01-18T08:30:50.000Z</time>
      </trkpt>
      <trkpt lat="43.34297" lon="5.6695">
        <ele>296</ele>
        <time>2019-01-18T08:30:51.000Z</time>
      </trkpt>
      <trkpt lat="43.34297" lon="5.6695">
        <ele>296</ele>
        <time>2019-01-18T08:30:52.000Z</time>
      </trkpt>
      <trkpt lat="43.34297" lon="5.6695">
        <ele>296</ele>
        <time>2019-01-18T08:30:53.000Z</time>
      </trkpt>
      <trkpt lat="43.34296" lon="5.6695">
        <ele>296</ele>
        <time>2019-01-18T08:30:54.000Z</time>
      </trkpt>
      <trkpt lat="43.34296" lon="5.6695">
        <ele>296</ele>
        <time>2019-01-18T08:30:55.000Z</time>
      </trkpt>
      <trkpt lat="43.34297" lon="5.6695">
        <ele>296</ele>
        <time>2019-01-18T08:30:56.000Z</time>
      </trkpt>
      <trkpt lat="43.34296" lon="5.66951">
        <ele>296</ele>
        <time>2019-01-18T08:30:57.000Z</time>
      </trkpt>
      <trkpt lat="43.34296" lon="5.66951">
        <ele>296</ele>
        <time>2019-01-18T08:30:58.000Z</time>
      </trkpt>
      <trkpt lat="43.34296" lon="5.66952">
        <ele>296</ele>
        <time>2019-01-18T08:30:59.000Z</time>
      </trkpt>
      <trkpt lat="43.34296" lon="5.66952">
        <ele>296</ele>
        <time>2019-01-18T08:31:00.000Z</time>
      </trkpt>
      <trkpt lat="43.34295" lon="5.66953">
        <ele>296</ele>
        <time>2019-01-18T08:31:01.000Z</time>
      </trkpt>
      <trkpt lat="43.34294" lon="5.66953">
        <ele>296</ele>
        <time>2019-01-18T08:31:02.000Z</time>
      </trkpt>
      <trkpt lat="43.34294" lon="5.66954">
        <ele>296</ele>
        <time>2019-01-18T08:31:03.000Z</time>
      </trkpt>
      <trkpt lat="43.34293" lon="5.66954">
        <ele>296</ele>
        <time>2019-01-18T08:31:04.000Z</time>
      </trkpt>
      <trkpt lat="43.34292" lon="5.66955">
        <ele>296</ele>
        <time>2019-01-18T08:31:05.000Z</time>
      </trkpt>
      <trkpt lat="43.34292" lon="5.66956">
        <ele>296</ele>
        <time>2019-01-18T08:31:06.000Z</time>
      </trkpt>
      <trkpt lat="43.34291" lon="5.66956">
        <ele>296</ele>
        <time>2019-01-18T08:31:07.000Z</time>
      </trkpt>
      <trkpt lat="43.3429" lon="5.66956">
        <ele>296</ele>
        <time>2019-01-18T08:31:08.000Z</time>
      </trkpt>
      <trkpt lat="43.34289" lon="5.66957">
        <ele>295</ele>
        <time>2019-01-18T08:31:09.000Z</time>
      </trkpt>
      <trkpt lat="43.34289" lon="5.66957">
        <ele>295</ele>
        <time>2019-01-18T08:31:10.000Z</time>
      </trkpt>
      <trkpt lat="43.34288" lon="5.66958">
        <ele>295</ele>
        <time>2019-01-18T08:31:11.000Z</time>
      </trkpt>
      <trkpt lat="43.34288" lon="5.66958">
        <ele>295</ele>
        <time>2019-01-18T08:31:12.000Z</time>
      </trkpt>
      <trkpt lat="43.34288" lon="5.66958">
        <ele>295</ele>
        <time>2019-01-18T08:31:13.000Z</time>
      </trkpt>
      <trkpt lat="43.34287" lon="5.66958">
        <ele>295</ele>
        <time>2019-01-18T08:31:14.000Z</time>
      </trkpt>
      <trkpt lat="43.34287" lon="5.66958">
        <ele>295</ele>
        <time>2019-01-18T08:31:15.000Z</time>
      </trkpt>
      <trkpt lat="43.34287" lon="5.66959">
        <ele>295</ele>
        <time>2019-01-18T08:31:16.000Z</time>
      </trkpt>
      <trkpt lat="43.34287" lon="5.66959">
        <ele>296</ele>
        <time>2019-01-18T08:31:17.000Z</time>
      </trkpt>
      <trkpt lat="43.34286" lon="5.6696">
        <ele>296</ele>
        <time>2019-01-18T08:31:18.000Z</time>
      </trkpt>
      <trkpt lat="43.34286" lon="5.6696">
        <ele>296</ele>
        <time>2019-01-18T08:31:19.000Z</time>
      </trkpt>
      <trkpt lat="43.34285" lon="5.66961">
        <ele>296</ele>
        <time>2019-01-18T08:31:20.000Z</time>
      </trkpt>
      <trkpt lat="43.34285" lon="5.66961">
        <ele>296</ele>
        <time>2019-01-18T08:31:21.000Z</time>
      </trkpt>
      <trkpt lat="43.34284" lon="5.66961">
        <ele>296</ele>
        <time>2019-01-18T08:31:22.000Z</time>
      </trkpt>
      <trkpt lat="43.34283" lon="5.66962">
        <ele>296</ele>
        <time>2019-01-18T08:31:23.000Z</time>
      </trkpt>
      <trkpt lat="43.34283" lon="5.66962">
        <ele>297</ele>
        <time>2019-01-18T08:31:24.000Z</time>
      </trkpt>
      <trkpt lat="43.34283" lon="5.66963">
        <ele>297</ele>
        <time>2019-01-18T08:31:25.000Z</time>
      </trkpt>
      <trkpt lat="43.34283" lon="5.66963">
        <ele>297</ele>
        <time>2019-01-18T08:31:26.000Z</time>
      </trkpt>
      <trkpt lat="43.34282" lon="5.66964">
        <ele>297</ele>
        <time>2019-01-18T08:31:27.000Z</time>
      </trkpt>
      <trkpt lat="43.34282" lon="5.66964">
        <ele>297</ele>
        <time>2019-01-18T08:31:28.000Z</time>
      </trkpt>
      <trkpt lat="43.34281" lon="5.66965">
        <ele>297</ele>
        <time>2019-01-18T08:31:29.000Z</time>
      </trkpt>
      <trkpt lat="43.34281" lon="5.66965">
        <ele>297</ele>
        <time>2019-01-18T08:31:30.000Z</time>
      </trkpt>
      <trkpt lat="43.3428" lon="5.66965">
        <ele>297</ele>
        <time>2019-01-18T08:31:31.000Z</time>
      </trkpt>
      <trkpt lat="43.3428" lon="5.66965">
        <ele>297</ele>
        <time>2019-01-18T08:31:32.000Z</time>
      </trkpt>
      <trkpt lat="43.3428" lon="5.66965">
        <ele>297</ele>
        <time>2019-01-18T08:31:33.000Z</time>
      </trkpt>
      <trkpt lat="43.3428" lon="5.66966">
        <ele>298</ele>
        <time>2019-01-18T08:31:34.000Z</time>
      </trkpt>
      <trkpt lat="43.34279" lon="5.66967">
        <ele>298</ele>
        <time>2019-01-18T08:31:35.000Z</time>
      </trkpt>
      <trkpt lat="43.34279" lon="5.66967">
        <ele>298</ele>
        <time>2019-01-18T08:31:36.000Z</time>
      </trkpt>
      <trkpt lat="43.34278" lon="5.66968">
        <ele>298</ele>
        <time>2019-01-18T08:31:37.000Z</time>
      </trkpt>
      <trkpt lat="43.34278" lon="5.66969">
        <ele>298</ele>
        <time>2019-01-18T08:31:38.000Z</time>
      </trkpt>
      <trkpt lat="43.34277" lon="5.66969">
        <ele>297</ele>
        <time>2019-01-18T08:31:39.000Z</time>
      </trkpt>
      <trkpt lat="43.34276" lon="5.66969">
        <ele>297</ele>
        <time>2019-01-18T08:31:40.000Z</time>
      </trkpt>
      <trkpt lat="43.34276" lon="5.6697">
        <ele>297</ele>
        <time>2019-01-18T08:31:41.000Z</time>
      </trkpt>
      <trkpt lat="43.34275" lon="5.6697">
        <ele>297</ele>
        <time>2019-01-18T08:31:42.000Z</time>
      </trkpt>
      <trkpt lat="43.34275" lon="5.66971">
        <ele>297</ele>
        <time>2019-01-18T08:31:43.000Z</time>
      </trkpt>
      <trkpt lat="43.34274" lon="5.66972">
        <ele>297</ele>
        <time>2019-01-18T08:31:44.000Z</time>
      </trkpt>
      <trkpt lat="43.34274" lon="5.66972">
        <ele>297</ele>
        <time>2019-01-18T08:31:45.000Z</time>
      </trkpt>
      <trkpt lat="43.34274" lon="5.66972">
        <ele>297</ele>
        <time>2019-01-18T08:31:46.000Z</time>
      </trkpt>
      <trkpt lat="43.34274" lon="5.66973">
        <ele>297</ele>
        <time>2019-01-18T08:31:47.000Z</time>
      </trkpt>
      <trkpt lat="43.34274" lon="5.66973">
        <ele>298</ele>
        <time>2019-01-18T08:31:48.000Z</time>
      </trkpt>
      <trkpt lat="43.34273" lon="5.66973">
        <ele>298</ele>
        <time>2019-01-18T08:31:49.000Z</time>
      </trkpt>
      <trkpt lat="43.34274" lon="5.66974">
        <ele>298</ele>
        <time>2019-01-18T08:31:50.000Z</time>
      </trkpt>
      <trkpt lat="43.34273" lon="5.66975">
        <ele>298</ele>
        <time>2019-01-18T08:31:51.000Z</time>
      </trkpt>
      <trkpt lat="43.34273" lon="5.66975">
        <ele>298</ele>
        <time>2019-01-18T08:31:52.000Z</time>
      </trkpt>
      <trkpt lat="43.34273" lon="5.66975">
        <ele>298</ele>
        <time>2019-01-18T08:31:53.000Z</time>
      </trkpt>
      <trkpt lat="43.34273" lon="5.66976">
        <ele>298</ele>
        <time>2019-01-18T08:31:54.000Z</time>
      </trkpt>
      <trkpt lat="43.34272" lon="5.66976">
        <ele>299</ele>
        <time>2019-01-18T08:31:55.000Z</time>
      </trkpt>
      <trkpt lat="43.34272" lon="5.66976">
        <ele>299</ele>
        <time>2019-01-18T08:31:56.000Z</time>
      </trkpt>
      <trkpt lat="43.34271" lon="5.66976">
        <ele>299</ele>
        <time>2019-01-18T08:31:57.000Z</time>
      </trkpt>
      <trkpt lat="43.34271" lon="5.66976">
        <ele>299</ele>
        <time>2019-01-18T08:31:58.000Z</time>
      </trkpt>
      <trkpt lat="43.3427" lon="5.66976">
        <ele>299</ele>
        <time>2019-01-18T08:31:59.000Z</time>
      </trkpt>
      <trkpt lat="43.3427" lon="5.66975">
        <ele>299</ele>
        <time>2019-01-18T08:32:00.000Z</time>
      </trkpt>
      <trkpt lat="43.34269" lon="5.66975">
        <ele>299</ele>
        <time>2019-01-18T08:32:01.000Z</time>
      </trkpt>
      <trkpt lat="43.34269" lon="5.66975">
        <ele>299</ele>
        <time>2019-01-18T08:32:02.000Z</time>
      </trkpt>
      <trkpt lat="43.34268" lon="5.66975">
        <ele>299</ele>
        <time>2019-01-18T08:32:03.000Z</time>
      </trkpt>
      <trkpt lat="43.34268" lon="5.66975">
        <ele>299</ele>
        <time>2019-01-18T08:32:04.000Z</time>
      </trkpt>
      <trkpt lat="43.34268" lon="5.66975">
        <ele>299</ele>
        <time>2019-01-18T08:32:05.000Z</time>
      </trkpt>
      <trkpt lat="43.34268" lon="5.66975">
        <ele>299</ele>
        <time>2019-01-18T08:32:06.000Z</time>
      </trkpt>
      <trkpt lat="43.34267" lon="5.66975">
        <ele>299</ele>
        <time>2019-01-18T08:32:07.000Z</time>
      </trkpt>
      <trkpt lat="43.34266" lon="5.66975">
        <ele>299</ele>
        <time>2019-01-18T08:32:08.000Z</time>
      </trkpt>
      <trkpt lat="43.34266" lon="5.66976">
        <ele>299</ele>
        <time>2019-01-18T08:32:09.000Z</time>
      </trkpt>
      <trkpt lat="43.34265" lon="5.66975">
        <ele>299</ele>
        <time>2019-01-18T08:32:10.000Z</time>
      </trkpt>
      <trkpt lat="43.34265" lon="5.66975">
        <ele>299</ele>
        <time>2019-01-18T08:32:11.000Z</time>
      </trkpt>
      <trkpt lat="43.34264" lon="5.66975">
        <ele>299</ele>
        <time>2019-01-18T08:32:12.000Z</time>
      </trkpt>
      <trkpt lat="43.34264" lon="5.66975">
        <ele>299</ele>
        <time>2019-01-18T08:32:13.000Z</time>
      </trkpt>
      <trkpt lat="43.34263" lon="5.66975">
        <ele>299</ele>
        <time>2019-01-18T08:32:14.000Z</time>
      </trkpt>
      <trkpt lat="43.34263" lon="5.66975">
        <ele>299</ele>
        <time>2019-01-18T08:32:15.000Z</time>
      </trkpt>
      <trkpt lat="43.34262" lon="5.66975">
        <ele>300</ele>
        <time>2019-01-18T08:32:16.000Z</time>
      </trkpt>
      <trkpt lat="43.34262" lon="5.66975">
        <ele>300</ele>
        <time>2019-01-18T08:32:17.000Z</time>
      </trkpt>
      <trkpt lat="43.34262" lon="5.66975">
        <ele>300</ele>
        <time>2019-01-18T08:32:18.000Z</time>
      </trkpt>
      <trkpt lat="43.34262" lon="5.66975">
        <ele>300</ele>
        <time>2019-01-18T08:32:19.000Z</time>
      </trkpt>
      <trkpt lat="43.34261" lon="5.66975">
        <ele>300</ele>
        <time>2019-01-18T08:32:20.000Z</time>
      </trkpt>
      <trkpt lat="43.34261" lon="5.66975">
        <ele>300</ele>
        <time>2019-01-18T08:32:21.000Z</time>
      </trkpt>
      <trkpt lat="43.34261" lon="5.66974">
        <ele>300</ele>
        <time>2019-01-18T08:32:22.000Z</time>
      </trkpt>
      <trkpt lat="43.34261" lon="5.66974">
        <ele>300</ele>
        <time>2019-01-18T08:32:23.000Z</time>
      </trkpt>
      <trkpt lat="43.3426" lon="5.66974">
        <ele>300</ele>
        <time>2019-01-18T08:32:24.000Z</time>
      </trkpt>
      <trkpt lat="43.3426" lon="5.66974">
        <ele>301</ele>
        <time>2019-01-18T08:32:25.000Z</time>
      </trkpt>
      <trkpt lat="43.34259" lon="5.66973">
        <ele>301</ele>
        <time>2019-01-18T08:32:26.000Z</time>
      </trkpt>
      <trkpt lat="43.34259" lon="5.66973">
        <ele>301</ele>
        <time>2019-01-18T08:32:27.000Z</time>
      </trkpt>
      <trkpt lat="43.34258" lon="5.66972">
        <ele>301</ele>
        <time>2019-01-18T08:32:28.000Z</time>
      </trkpt>
      <trkpt lat="43.34258" lon="5.66972">
        <ele>301</ele>
        <time>2019-01-18T08:32:29.000Z</time>
      </trkpt>
      <trkpt lat="43.34257" lon="5.66972">
        <ele>301</ele>
        <time>2019-01-18T08:32:30.000Z</time>
      </trkpt>
      <trkpt lat="43.34257" lon="5.66971">
        <ele>301</ele>
        <time>2019-01-18T08:32:31.000Z</time>
      </trkpt>
      <trkpt lat="43.34256" lon="5.66971">
        <ele>301</ele>
        <time>2019-01-18T08:32:32.000Z</time>
      </trkpt>
      <trkpt lat="43.34256" lon="5.66971">
        <ele>302</ele>
        <time>2019-01-18T08:32:33.000Z</time>
      </trkpt>
      <trkpt lat="43.34255" lon="5.66971">
        <ele>302</ele>
        <time>2019-01-18T08:32:34.000Z</time>
      </trkpt>
      <trkpt lat="43.34255" lon="5.66971">
        <ele>302</ele>
        <time>2019-01-18T08:32:35.000Z</time>
      </trkpt>
      <trkpt lat="43.34255" lon="5.66971">
        <ele>302</ele>
        <time>2019-01-18T08:32:36.000Z</time>
      </trkpt>
      <trkpt lat="43.34255" lon="5.66971">
        <ele>302</ele>
        <time>2019-01-18T08:32:37.000Z</time>
      </trkpt>
      <trkpt lat="43.34254" lon="5.6697">
        <ele>302</ele>
        <time>2019-01-18T08:32:38.000Z</time>
      </trkpt>
      <trkpt lat="43.34254" lon="5.6697">
        <ele>302</ele>
        <time>2019-01-18T08:32:39.000Z</time>
      </trkpt>
      <trkpt lat="43.34253" lon="5.6697">
        <ele>302</ele>
        <time>2019-01-18T08:32:40.000Z</time>
      </trkpt>
      <trkpt lat="43.34253" lon="5.6697">
        <ele>302</ele>
        <time>2019-01-18T08:32:41.000Z</time>
      </trkpt>
      <trkpt lat="43.34252" lon="5.66969">
        <ele>302</ele>
        <time>2019-01-18T08:32:42.000Z</time>
      </trkpt>
      <trkpt lat="43.34251" lon="5.66969">
        <ele>302</ele>
        <time>2019-01-18T08:32:43.000Z</time>
      </trkpt>
      <trkpt lat="43.34251" lon="5.66969">
        <ele>302</ele>
        <time>2019-01-18T08:32:44.000Z</time>
      </trkpt>
      <trkpt lat="43.3425" lon="5.66969">
        <ele>302</ele>
        <time>2019-01-18T08:32:45.000Z</time>
      </trkpt>
      <trkpt lat="43.34249" lon="5.66968">
        <ele>302</ele>
        <time>2019-01-18T08:32:46.000Z</time>
      </trkpt>
      <trkpt lat="43.34248" lon="5.66968">
        <ele>302</ele>
        <time>2019-01-18T08:32:47.000Z</time>
      </trkpt>
      <trkpt lat="43.34247" lon="5.66967">
        <ele>302</ele>
        <time>2019-01-18T08:32:48.000Z</time>
      </trkpt>
      <trkpt lat="43.34246" lon="5.66967">
        <ele>302</ele>
        <time>2019-01-18T08:32:49.000Z</time>
      </trkpt>
      <trkpt lat="43.34245" lon="5.66967">
        <ele>302</ele>
        <time>2019-01-18T08:32:50.000Z</time>
      </trkpt>
      <trkpt lat="43.34243" lon="5.66967">
        <ele>302</ele>
        <time>2019-01-18T08:32:51.000Z</time>
      </trkpt>
      <trkpt lat="43.34242" lon="5.66967">
        <ele>302</ele>
        <time>2019-01-18T08:32:52.000Z</time>
      </trkpt>
      <trkpt lat="43.34242" lon="5.66967">
        <ele>302</ele>
        <time>2019-01-18T08:32:53.000Z</time>
      </trkpt>
      <trkpt lat="43.34241" lon="5.66967">
        <ele>302</ele>
        <time>2019-01-18T08:32:54.000Z</time>
      </trkpt>
      <trkpt lat="43.3424" lon="5.66967">
        <ele>302</ele>
        <time>2019-01-18T08:32:55.000Z</time>
      </trkpt>
      <trkpt lat="43.34239" lon="5.66966">
        <ele>302</ele>
        <time>2019-01-18T08:32:56.000Z</time>
      </trkpt>
      <trkpt lat="43.34239" lon="5.66966">
        <ele>302</ele>
        <time>2019-01-18T08:32:57.000Z</time>
      </trkpt>
      <trkpt lat="43.34238" lon="5.66965">
        <ele>302</ele>
        <time>2019-01-18T08:32:58.000Z</time>
      </trkpt>
      <trkpt lat="43.34238" lon="5.66965">
        <ele>302</ele>
        <time>2019-01-18T08:32:59.000Z</time>
      </trkpt>
      <trkpt lat="43.34237" lon="5.66965">
        <ele>303</ele>
        <time>2019-01-18T08:33:00.000Z</time>
      </trkpt>
      <trkpt lat="43.34236" lon="5.66965">
        <ele>303</ele>
        <time>2019-01-18T08:33:01.000Z</time>
      </trkpt>
      <trkpt lat="43.34235" lon="5.66964">
        <ele>303</ele>
        <time>2019-01-18T08:33:02.000Z</time>
      </trkpt>
      <trkpt lat="43.34234" lon="5.66963">
        <ele>303</ele>
        <time>2019-01-18T08:33:03.000Z</time>
      </trkpt>
      <trkpt lat="43.34233" lon="5.66963">
        <ele>303</ele>
        <time>2019-01-18T08:33:04.000Z</time>
      </trkpt>
      <trkpt lat="43.34232" lon="5.66962">
        <ele>303</ele>
        <time>2019-01-18T08:33:05.000Z</time>
      </trkpt>
      <trkpt lat="43.34232" lon="5.66962">
        <ele>303</ele>
        <time>2019-01-18T08:33:06.000Z</time>
      </trkpt>
      <trkpt lat="43.34231" lon="5.66962">
        <ele>303</ele>
        <time>2019-01-18T08:33:07.000Z</time>
      </trkpt>
      <trkpt lat="43.34231" lon="5.66962">
        <ele>303</ele>
        <time>2019-01-18T08:33:08.000Z</time>
      </trkpt>
      <trkpt lat="43.3423" lon="5.66962">
        <ele>303</ele>
        <time>2019-01-18T08:33:09.000Z</time>
      </trkpt>
      <trkpt lat="43.34229" lon="5.66962">
        <ele>303</ele>
        <time>2019-01-18T08:33:10.000Z</time>
      </trkpt>
      <trkpt lat="43.34229" lon="5.66962">
        <ele>303</ele>
        <time>2019-01-18T08:33:11.000Z</time>
      </trkpt>
      <trkpt lat="43.34228" lon="5.66962">
        <ele>303</ele>
        <time>2019-01-18T08:33:12.000Z</time>
      </trkpt>
      <trkpt lat="43.34227" lon="5.66962">
        <ele>303</ele>
        <time>2019-01-18T08:33:13.000Z</time>
      </trkpt>
      <trkpt lat="43.34227" lon="5.66962">
        <ele>303</ele>
        <time>2019-01-18T08:33:14.000Z</time>
      </trkpt>
      <trkpt lat="43.34227" lon="5.66962">
        <ele>303</ele>
        <time>2019-01-18T08:33:15.000Z</time>
      </trkpt>
      <trkpt lat="43.34226" lon="5.66962">
        <ele>304</ele>
        <time>2019-01-18T08:33:16.000Z</time>
      </trkpt>
      <trkpt lat="43.34226" lon="5.66962">
        <ele>304</ele>
        <time>2019-01-18T08:33:17.000Z</time>
      </trkpt>
      <trkpt lat="43.34226" lon="5.66962">
        <ele>304</ele>
        <time>2019-01-18T08:33:18.000Z</time>
      </trkpt>
      <trkpt lat="43.34226" lon="5.66962">
        <ele>304</ele>
        <time>2019-01-18T08:33:19.000Z</time>
      </trkpt>
      <trkpt lat="43.34225" lon="5.66962">
        <ele>304</ele>
        <time>2019-01-18T08:33:20.000Z</time>
      </trkpt>
      <trkpt lat="43.34224" lon="5.66962">
        <ele>304</ele>
        <time>2019-01-18T08:33:21.000Z</time>
      </trkpt>
      <trkpt lat="43.34224" lon="5.66962">
        <ele>304</ele>
        <time>2019-01-18T08:33:22.000Z</time>
      </trkpt>
      <trkpt lat="43.34223" lon="5.66962">
        <ele>304</ele>
        <time>2019-01-18T08:33:23.000Z</time>
      </trkpt>
      <trkpt lat="43.34223" lon="5.66962">
        <ele>304</ele>
        <time>2019-01-18T08:33:24.000Z</time>
      </trkpt>
      <trkpt lat="43.34223" lon="5.66962">
        <ele>304</ele>
        <time>2019-01-18T08:33:25.000Z</time>
      </trkpt>
      <trkpt lat="43.34223" lon="5.66962">
        <ele>304</ele>
        <time>2019-01-18T08:33:26.000Z</time>
      </trkpt>
      <trkpt lat="43.34223" lon="5.66961">
        <ele>304</ele>
        <time>2019-01-18T08:33:27.000Z</time>
      </trkpt>
      <trkpt lat="43.34223" lon="5.66961">
        <ele>304</ele>
        <time>2019-01-18T08:33:28.000Z</time>
      </trkpt>
      <trkpt lat="43.34222" lon="5.66961">
        <ele>304</ele>
        <time>2019-01-18T08:33:29.000Z</time>
      </trkpt>
      <trkpt lat="43.34222" lon="5.66961">
        <ele>304</ele>
        <time>2019-01-18T08:33:30.000Z</time>
      </trkpt>
      <trkpt lat="43.34222" lon="5.66961">
        <ele>304</ele>
        <time>2019-01-18T08:33:31.000Z</time>
      </trkpt>
      <trkpt lat="43.34222" lon="5.66961">
        <ele>304</ele>
        <time>2019-01-18T08:33:32.000Z</time>
      </trkpt>
      <trkpt lat="43.34222" lon="5.66961">
        <ele>304</ele>
        <time>2019-01-18T08:33:33.000Z</time>
      </trkpt>
      <trkpt lat="43.34222" lon="5.66961">
        <ele>304</ele>
        <time>2019-01-18T08:33:34.000Z</time>
      </trkpt>
      <trkpt lat="43.34221" lon="5.66961">
        <ele>304</ele>
        <time>2019-01-18T08:33:35.000Z</time>
      </trkpt>
      <trkpt lat="43.34221" lon="5.6696">
        <ele>304</ele>
        <time>2019-01-18T08:33:36.000Z</time>
      </trkpt>
      <trkpt lat="43.34221" lon="5.6696">
        <ele>304</ele>
        <time>2019-01-18T08:33:37.000Z</time>
      </trkpt>
      <trkpt lat="43.3422" lon="5.6696">
        <ele>304</ele>
        <time>2019-01-18T08:33:38.000Z</time>
      </trkpt>
      <trkpt lat="43.3422" lon="5.6696">
        <ele>304</ele>
        <time>2019-01-18T08:33:39.000Z</time>
      </trkpt>
      <trkpt lat="43.34219" lon="5.6696">
        <ele>304</ele>
        <time>2019-01-18T08:33:40.000Z</time>
      </trkpt>
      <trkpt lat="43.34218" lon="5.6696">
        <ele>304</ele>
        <time>2019-01-18T08:33:41.000Z</time>
      </trkpt>
      <trkpt lat="43.34218" lon="5.6696">
        <ele>304</ele>
        <time>2019-01-18T08:33:42.000Z</time>
      </trkpt>
      <trkpt lat="43.34217" lon="5.66959">
        <ele>304</ele>
        <time>2019-01-18T08:33:43.000Z</time>
      </trkpt>
      <trkpt lat="43.34216" lon="5.66959">
        <ele>304</ele>
        <time>2019-01-18T08:33:44.000Z</time>
      </trkpt>
      <trkpt lat="43.34216" lon="5.66958">
        <ele>304</ele>
        <time>2019-01-18T08:33:45.000Z</time>
      </trkpt>
      <trkpt lat="43.34215" lon="5.66958">
        <ele>304</ele>
        <time>2019-01-18T08:33:46.000Z</time>
      </trkpt>
      <trkpt lat="43.34214" lon="5.66958">
        <ele>305</ele>
        <time>2019-01-18T08:33:47.000Z</time>
      </trkpt>
      <trkpt lat="43.34213" lon="5.66957">
        <ele>305</ele>
        <time>2019-01-18T08:33:48.000Z</time>
      </trkpt>
      <trkpt lat="43.34212" lon="5.66957">
        <ele>305</ele>
        <time>2019-01-18T08:33:49.000Z</time>
      </trkpt>
      <trkpt lat="43.34212" lon="5.66956">
        <ele>305</ele>
        <time>2019-01-18T08:33:50.000Z</time>
      </trkpt>
      <trkpt lat="43.34211" lon="5.66956">
        <ele>305</ele>
        <time>2019-01-18T08:33:51.000Z</time>
      </trkpt>
      <trkpt lat="43.34211" lon="5.66955">
        <ele>305</ele>
        <time>2019-01-18T08:33:52.000Z</time>
      </trkpt>
      <trkpt lat="43.3421" lon="5.66954">
        <ele>305</ele>
        <time>2019-01-18T08:33:53.000Z</time>
      </trkpt>
      <trkpt lat="43.34209" lon="5.66954">
        <ele>305</ele>
        <time>2019-01-18T08:33:54.000Z</time>
      </trkpt>
      <trkpt lat="43.34209" lon="5.66953">
        <ele>305</ele>
        <time>2019-01-18T08:33:55.000Z</time>
      </trkpt>
      <trkpt lat="43.34208" lon="5.66952">
        <ele>305</ele>
        <time>2019-01-18T08:33:56.000Z</time>
      </trkpt>
      <trkpt lat="43.34208" lon="5.66951">
        <ele>305</ele>
        <time>2019-01-18T08:33:57.000Z</time>
      </trkpt>
      <trkpt lat="43.34207" lon="5.6695">
        <ele>305</ele>
        <time>2019-01-18T08:33:58.000Z</time>
      </trkpt>
      <trkpt lat="43.34207" lon="5.6695">
        <ele>305</ele>
        <time>2019-01-18T08:33:59.000Z</time>
      </trkpt>
      <trkpt lat="43.34206" lon="5.6695">
        <ele>305</ele>
        <time>2019-01-18T08:34:00.000Z</time>
      </trkpt>
      <trkpt lat="43.34206" lon="5.66949">
        <ele>305</ele>
        <time>2019-01-18T08:34:01.000Z</time>
      </trkpt>
      <trkpt lat="43.34205" lon="5.66949">
        <ele>305</ele>
        <time>2019-01-18T08:34:02.000Z</time>
      </trkpt>
      <trkpt lat="43.34205" lon="5.66949">
        <ele>305</ele>
        <time>2019-01-18T08:34:03.000Z</time>
      </trkpt>
      <trkpt lat="43.34205" lon="5.66949">
        <ele>305</ele>
        <time>2019-01-18T08:34:04.000Z</time>
      </trkpt>
      <trkpt lat="43.34204" lon="5.66949">
        <ele>306</ele>
        <time>2019-01-18T08:34:05.000Z</time>
      </trkpt>
      <trkpt lat="43.34204" lon="5.66949">
        <ele>306</ele>
        <time>2019-01-18T08:34:06.000Z</time>
      </trkpt>
      <trkpt lat="43.34203" lon="5.66949">
        <ele>306</ele>
        <time>2019-01-18T08:34:07.000Z</time>
      </trkpt>
      <trkpt lat="43.34203" lon="5.66949">
        <ele>306</ele>
        <time>2019-01-18T08:34:08.000Z</time>
      </trkpt>
      <trkpt lat="43.34203" lon="5.66949">
        <ele>306</ele>
        <time>2019-01-18T08:34:09.000Z</time>
      </trkpt>
      <trkpt lat="43.34203" lon="5.66949">
        <ele>306</ele>
        <time>2019-01-18T08:34:10.000Z</time>
      </trkpt>
      <trkpt lat="43.34203" lon="5.66949">
        <ele>306</ele>
        <time>2019-01-18T08:34:11.000Z</time>
      </trkpt>
      <trkpt lat="43.34203" lon="5.66949">
        <ele>306</ele>
        <time>2019-01-18T08:34:12.000Z</time>
      </trkpt>
      <trkpt lat="43.34202" lon="5.66949">
        <ele>306</ele>
        <time>2019-01-18T08:34:13.000Z</time>
      </trkpt>
      <trkpt lat="43.34202" lon="5.66948">
        <ele>306</ele>
        <time>2019-01-18T08:34:14.000Z</time>
      </trkpt>
      <trkpt lat="43.34202" lon="5.66948">
        <ele>306</ele>
        <time>2019-01-18T08:34:15.000Z</time>
      </trkpt>
      <trkpt lat="43.34201" lon="5.66948">
        <ele>306</ele>
        <time>2019-01-18T08:34:16.000Z</time>
      </trkpt>
      <trkpt lat="43.34201" lon="5.66948">
        <ele>306</ele>
        <time>2019-01-18T08:34:17.000Z</time>
      </trkpt>
      <trkpt lat="43.34201" lon="5.66948">
        <ele>305</ele>
        <time>2019-01-18T08:34:18.000Z</time>
      </trkpt>
      <trkpt lat="43.34201" lon="5.66948">
        <ele>305</ele>
        <time>2019-01-18T08:34:19.000Z</time>
      </trkpt>
      <trkpt lat="43.342" lon="5.66948">
        <ele>305</ele>
        <time>2019-01-18T08:34:20.000Z</time>
      </trkpt>
      <trkpt lat="43.342" lon="5.66948">
        <ele>305</ele>
        <time>2019-01-18T08:34:21.000Z</time>
      </trkpt>
      <trkpt lat="43.34199" lon="5.66948">
        <ele>305</ele>
        <time>2019-01-18T08:34:22.000Z</time>
      </trkpt>
      <trkpt lat="43.34199" lon="5.66948">
        <ele>305</ele>
        <time>2019-01-18T08:34:23.000Z</time>
      </trkpt>
      <trkpt lat="43.34198" lon="5.66948">
        <ele>305</ele>
        <time>2019-01-18T08:34:24.000Z</time>
      </trkpt>
      <trkpt lat="43.34198" lon="5.66948">
        <ele>305</ele>
        <time>2019-01-18T08:34:25.000Z</time>
      </trkpt>
      <trkpt lat="43.34198" lon="5.66948">
        <ele>305</ele>
        <time>2019-01-18T08:34:26.000Z</time>
      </trkpt>
      <trkpt lat="43.34199" lon="5.66949">
        <ele>305</ele>
        <time>2019-01-18T08:34:27.000Z</time>
      </trkpt>
      <trkpt lat="43.34199" lon="5.66948">
        <ele>305</ele>
        <time>2019-01-18T08:34:28.000Z</time>
      </trkpt>
      <trkpt lat="43.34199" lon="5.66949">
        <ele>306</ele>
        <time>2019-01-18T08:34:29.000Z</time>
      </trkpt>
      <trkpt lat="43.34199" lon="5.66948">
        <ele>306</ele>
        <time>2019-01-18T08:34:30.000Z</time>
      </trkpt>
      <trkpt lat="43.34199" lon="5.66948">
        <ele>306</ele>
        <time>2019-01-18T08:34:31.000Z</time>
      </trkpt>
      <trkpt lat="43.34199" lon="5.66948">
        <ele>306</ele>
        <time>2019-01-18T08:34:32.000Z</time>
      </trkpt>
      <trkpt lat="43.34199" lon="5.66948">
        <ele>306</ele>
        <time>2019-01-18T08:34:33.000Z</time>
      </trkpt>
      <trkpt lat="43.34199" lon="5.66948">
        <ele>306</ele>
        <time>2019-01-18T08:34:34.000Z</time>
      </trkpt>
      <trkpt lat="43.34199" lon="5.66948">
        <ele>306</ele>
        <time>2019-01-18T08:34:35.000Z</time>
      </trkpt>
      <trkpt lat="43.34199" lon="5.66948">
        <ele>306</ele>
        <time>2019-01-18T08:34:36.000Z</time>
      </trkpt>
      <trkpt lat="43.34199" lon="5.66948">
        <ele>306</ele>
        <time>2019-01-18T08:34:37.000Z</time>
      </trkpt>
      <trkpt lat="43.34199" lon="5.66948">
        <ele>306</ele>
        <time>2019-01-18T08:34:38.000Z</time>
      </trkpt>
      <trkpt lat="43.342" lon="5.66948">
        <ele>306</ele>
        <time>2019-01-18T08:34:39.000Z</time>
      </trkpt>
      <trkpt lat="43.342" lon="5.66947">
        <ele>306</ele>
        <time>2019-01-18T08:34:40.000Z</time>
      </trkpt>
      <trkpt lat="43.342" lon="5.66947">
        <ele>306</ele>
        <time>2019-01-18T08:34:41.000Z</time>
      </trkpt>
      <trkpt lat="43.342" lon="5.66947">
        <ele>307</ele>
        <time>2019-01-18T08:34:42.000Z</time>
      </trkpt>
      <trkpt lat="43.342" lon="5.66946">
        <ele>307</ele>
        <time>2019-01-18T08:34:43.000Z</time>
      </trkpt>
      <trkpt lat="43.342" lon="5.66946">
        <ele>307</ele>
        <time>2019-01-18T08:34:44.000Z</time>
      </trkpt>
      <trkpt lat="43.342" lon="5.66946">
        <ele>307</ele>
        <time>2019-01-18T08:34:45.000Z</time>
      </trkpt>
      <trkpt lat="43.342" lon="5.66946">
        <ele>307</ele>
        <time>2019-01-18T08:34:46.000Z</time>
      </trkpt>
      <trkpt lat="43.342" lon="5.66946">
        <ele>307</ele>
        <time>2019-01-18T08:34:47.000Z</time>
      </trkpt>
      <trkpt lat="43.342" lon="5.66945">
        <ele>308</ele>
        <time>2019-01-18T08:34:48.000Z</time>
      </trkpt>
      <trkpt lat="43.342" lon="5.66945">
        <ele>308</ele>
        <time>2019-01-18T08:34:49.000Z</time>
      </trkpt>
      <trkpt lat="43.342" lon="5.66945">
        <ele>308</ele>
        <time>2019-01-18T08:34:50.000Z</time>
      </trkpt>
      <trkpt lat="43.342" lon="5.66945">
        <ele>308</ele>
        <time>2019-01-18T08:34:51.000Z</time>
      </trkpt>
      <trkpt lat="43.342" lon="5.66944">
        <ele>308</ele>
        <time>2019-01-18T08:34:52.000Z</time>
      </trkpt>
      <trkpt lat="43.342" lon="5.66944">
        <ele>308</ele>
        <time>2019-01-18T08:34:53.000Z</time>
      </trkpt>
      <trkpt lat="43.342" lon="5.66943">
        <ele>309</ele>
        <time>2019-01-18T08:34:54.000Z</time>
      </trkpt>
      <trkpt lat="43.342" lon="5.66943">
        <ele>309</ele>
        <time>2019-01-18T08:34:55.000Z</time>
      </trkpt>
      <trkpt lat="43.342" lon="5.66943">
        <ele>309</ele>
        <time>2019-01-18T08:34:56.000Z</time>
      </trkpt>
      <trkpt lat="43.342" lon="5.66942">
        <ele>309</ele>
        <time>2019-01-18T08:34:57.000Z</time>
      </trkpt>
      <trkpt lat="43.34201" lon="5.66942">
        <ele>309</ele>
        <time>2019-01-18T08:34:58.000Z</time>
      </trkpt>
      <trkpt lat="43.34201" lon="5.66942">
        <ele>309</ele>
        <time>2019-01-18T08:34:59.000Z</time>
      </trkpt>
      <trkpt lat="43.34201" lon="5.66941">
        <ele>309</ele>
        <time>2019-01-18T08:35:00.000Z</time>
      </trkpt>
      <trkpt lat="43.342" lon="5.66941">
        <ele>309</ele>
        <time>2019-01-18T08:35:01.000Z</time>
      </trkpt>
      <trkpt lat="43.342" lon="5.66941">
        <ele>309</ele>
        <time>2019-01-18T08:35:02.000Z</time>
      </trkpt>
      <trkpt lat="43.34199" lon="5.6694">
        <ele>309</ele>
        <time>2019-01-18T08:35:03.000Z</time>
      </trkpt>
      <trkpt lat="43.34199" lon="5.6694">
        <ele>309</ele>
        <time>2019-01-18T08:35:04.000Z</time>
      </trkpt>
      <trkpt lat="43.34199" lon="5.6694">
        <ele>309</ele>
        <time>2019-01-18T08:35:05.000Z</time>
      </trkpt>
      <trkpt lat="43.34198" lon="5.6694">
        <ele>308</ele>
        <time>2019-01-18T08:35:06.000Z</time>
      </trkpt>
      <trkpt lat="43.34197" lon="5.66939">
        <ele>308</ele>
        <time>2019-01-18T08:35:07.000Z</time>
      </trkpt>
      <trkpt lat="43.34196" lon="5.66939">
        <ele>308</ele>
        <time>2019-01-18T08:35:08.000Z</time>
      </trkpt>
      <trkpt lat="43.34196" lon="5.66939">
        <ele>308</ele>
        <time>2019-01-18T08:35:09.000Z</time>
      </trkpt>
      <trkpt lat="43.34195" lon="5.66939">
        <ele>308</ele>
        <time>2019-01-18T08:35:10.000Z</time>
      </trkpt>
      <trkpt lat="43.34194" lon="5.66938">
        <ele>308</ele>
        <time>2019-01-18T08:35:11.000Z</time>
      </trkpt>
      <trkpt lat="43.34193" lon="5.66938">
        <ele>308</ele>
        <time>2019-01-18T08:35:12.000Z</time>
      </trkpt>
      <trkpt lat="43.34193" lon="5.66937">
        <ele>308</ele>
        <time>2019-01-18T08:35:13.000Z</time>
      </trkpt>
      <trkpt lat="43.34192" lon="5.66937">
        <ele>308</ele>
        <time>2019-01-18T08:35:14.000Z</time>
      </trkpt>
      <trkpt lat="43.34191" lon="5.66937">
        <ele>308</ele>
        <time>2019-01-18T08:35:15.000Z</time>
      </trkpt>
      <trkpt lat="43.34191" lon="5.66937">
        <ele>308</ele>
        <time>2019-01-18T08:35:16.000Z</time>
      </trkpt>
      <trkpt lat="43.3419" lon="5.66936">
        <ele>307</ele>
        <time>2019-01-18T08:35:17.000Z</time>
      </trkpt>
      <trkpt lat="43.3419" lon="5.66936">
        <ele>307</ele>
        <time>2019-01-18T08:35:18.000Z</time>
      </trkpt>
      <trkpt lat="43.34189" lon="5.66936">
        <ele>307</ele>
        <time>2019-01-18T08:35:19.000Z</time>
      </trkpt>
      <trkpt lat="43.34189" lon="5.66935">
        <ele>307</ele>
        <time>2019-01-18T08:35:20.000Z</time>
      </trkpt>
      <trkpt lat="43.34189" lon="5.66935">
        <ele>307</ele>
        <time>2019-01-18T08:35:21.000Z</time>
      </trkpt>
      <trkpt lat="43.34189" lon="5.66934">
        <ele>307</ele>
        <time>2019-01-18T08:35:22.000Z</time>
      </trkpt>
      <trkpt lat="43.34189" lon="5.66934">
        <ele>307</ele>
        <time>2019-01-18T08:35:23.000Z</time>
      </trkpt>
      <trkpt lat="43.34188" lon="5.66934">
        <ele>307</ele>
        <time>2019-01-18T08:35:24.000Z</time>
      </trkpt>
      <trkpt lat="43.34188" lon="5.66933">
        <ele>307</ele>
        <time>2019-01-18T08:35:25.000Z</time>
      </trkpt>
      <trkpt lat="43.34188" lon="5.66933">
        <ele>307</ele>
        <time>2019-01-18T08:35:26.000Z</time>
      </trkpt>
      <trkpt lat="43.34188" lon="5.66932">
        <ele>307</ele>
        <time>2019-01-18T08:35:27.000Z</time>
      </trkpt>
      <trkpt lat="43.34188" lon="5.66932">
        <ele>307</ele>
        <time>2019-01-18T08:35:28.000Z</time>
      </trkpt>
      <trkpt lat="43.34187" lon="5.66931">
        <ele>307</ele>
        <time>2019-01-18T08:35:29.000Z</time>
      </trkpt>
      <trkpt lat="43.34187" lon="5.66931">
        <ele>307</ele>
        <time>2019-01-18T08:35:30.000Z</time>
      </trkpt>
      <trkpt lat="43.34186" lon="5.6693">
        <ele>307</ele>
        <time>2019-01-18T08:35:31.000Z</time>
      </trkpt>
      <trkpt lat="43.34186" lon="5.6693">
        <ele>307</ele>
        <time>2019-01-18T08:35:32.000Z</time>
      </trkpt>
      <trkpt lat="43.34185" lon="5.6693">
        <ele>307</ele>
        <time>2019-01-18T08:35:33.000Z</time>
      </trkpt>
      <trkpt lat="43.34184" lon="5.66931">
        <ele>306</ele>
        <time>2019-01-18T08:35:34.000Z</time>
      </trkpt>
      <trkpt lat="43.34184" lon="5.66931">
        <ele>306</ele>
        <time>2019-01-18T08:35:35.000Z</time>
      </trkpt>
      <trkpt lat="43.34183" lon="5.66931">
        <ele>306</ele>
        <time>2019-01-18T08:35:36.000Z</time>
      </trkpt>
      <trkpt lat="43.34182" lon="5.66931">
        <ele>307</ele>
        <time>2019-01-18T08:35:37.000Z</time>
      </trkpt>
      <trkpt lat="43.34181" lon="5.6693">
        <ele>307</ele>
        <time>2019-01-18T08:35:38.000Z</time>
      </trkpt>
      <trkpt lat="43.3418" lon="5.66931">
        <ele>307</ele>
        <time>2019-01-18T08:35:39.000Z</time>
      </trkpt>
      <trkpt lat="43.3418" lon="5.66931">
        <ele>307</ele>
        <time>2019-01-18T08:35:40.000Z</time>
      </trkpt>
      <trkpt lat="43.34179" lon="5.66931">
        <ele>307</ele>
        <time>2019-01-18T08:35:41.000Z</time>
      </trkpt>
      <trkpt lat="43.34178" lon="5.66931">
        <ele>307</ele>
        <time>2019-01-18T08:35:42.000Z</time>
      </trkpt>
      <trkpt lat="43.34177" lon="5.66931">
        <ele>307</ele>
        <time>2019-01-18T08:35:43.000Z</time>
      </trkpt>
      <trkpt lat="43.34176" lon="5.66931">
        <ele>307</ele>
        <time>2019-01-18T08:35:44.000Z</time>
      </trkpt>
      <trkpt lat="43.34175" lon="5.66932">
        <ele>307</ele>
        <time>2019-01-18T08:35:45.000Z</time>
      </trkpt>
      <trkpt lat="43.34174" lon="5.66932">
        <ele>307</ele>
        <time>2019-01-18T08:35:46.000Z</time>
      </trkpt>
      <trkpt lat="43.34173" lon="5.66932">
        <ele>307</ele>
        <time>2019-01-18T08:35:47.000Z</time>
      </trkpt>
      <trkpt lat="43.34172" lon="5.66932">
        <ele>308</ele>
        <time>2019-01-18T08:35:48.000Z</time>
      </trkpt>
      <trkpt lat="43.34171" lon="5.66932">
        <ele>308</ele>
        <time>2019-01-18T08:35:49.000Z</time>
      </trkpt>
      <trkpt lat="43.3417" lon="5.66933">
        <ele>308</ele>
        <time>2019-01-18T08:35:50.000Z</time>
      </trkpt>
      <trkpt lat="43.34169" lon="5.66933">
        <ele>308</ele>
        <time>2019-01-18T08:35:51.000Z</time>
      </trkpt>
      <trkpt lat="43.34168" lon="5.66934">
        <ele>308</ele>
        <time>2019-01-18T08:35:52.000Z</time>
      </trkpt>
      <trkpt lat="43.34167" lon="5.66936">
        <ele>308</ele>
        <time>2019-01-18T08:35:53.000Z</time>
      </trkpt>
      <trkpt lat="43.34166" lon="5.66937">
        <ele>308</ele>
        <time>2019-01-18T08:35:54.000Z</time>
      </trkpt>
      <trkpt lat="43.34166" lon="5.66937">
        <ele>308</ele>
        <time>2019-01-18T08:35:55.000Z</time>
      </trkpt>
      <trkpt lat="43.34165" lon="5.66937">
        <ele>308</ele>
        <time>2019-01-18T08:35:56.000Z</time>
      </trkpt>
      <trkpt lat="43.34163" lon="5.66937">
        <ele>308</ele>
        <time>2019-01-18T08:35:57.000Z</time>
      </trkpt>
      <trkpt lat="43.34162" lon="5.66937">
        <ele>309</ele>
        <time>2019-01-18T08:35:58.000Z</time>
      </trkpt>
      <trkpt lat="43.34162" lon="5.66937">
        <ele>309</ele>
        <time>2019-01-18T08:35:59.000Z</time>
      </trkpt>
      <trkpt lat="43.34161" lon="5.66937">
        <ele>309</ele>
        <time>2019-01-18T08:36:00.000Z</time>
      </trkpt>
      <trkpt lat="43.3416" lon="5.66937">
        <ele>309</ele>
        <time>2019-01-18T08:36:01.000Z</time>
      </trkpt>
      <trkpt lat="43.3416" lon="5.66937">
        <ele>309</ele>
        <time>2019-01-18T08:36:02.000Z</time>
      </trkpt>
      <trkpt lat="43.3416" lon="5.66937">
        <ele>309</ele>
        <time>2019-01-18T08:36:03.000Z</time>
      </trkpt>
      <trkpt lat="43.34159" lon="5.66937">
        <ele>309</ele>
        <time>2019-01-18T08:36:04.000Z</time>
      </trkpt>
      <trkpt lat="43.34159" lon="5.66936">
        <ele>309</ele>
        <time>2019-01-18T08:36:05.000Z</time>
      </trkpt>
      <trkpt lat="43.34158" lon="5.66936">
        <ele>309</ele>
        <time>2019-01-18T08:36:06.000Z</time>
      </trkpt>
      <trkpt lat="43.34157" lon="5.66936">
        <ele>309</ele>
        <time>2019-01-18T08:36:07.000Z</time>
      </trkpt>
      <trkpt lat="43.34157" lon="5.66936">
        <ele>309</ele>
        <time>2019-01-18T08:36:08.000Z</time>
      </trkpt>
      <trkpt lat="43.34156" lon="5.66936">
        <ele>309</ele>
        <time>2019-01-18T08:36:09.000Z</time>
      </trkpt>
      <trkpt lat="43.34156" lon="5.66936">
        <ele>309</ele>
        <time>2019-01-18T08:36:10.000Z</time>
      </trkpt>
      <trkpt lat="43.34156" lon="5.66936">
        <ele>309</ele>
        <time>2019-01-18T08:36:11.000Z</time>
      </trkpt>
      <trkpt lat="43.34156" lon="5.66936">
        <ele>309</ele>
        <time>2019-01-18T08:36:12.000Z</time>
      </trkpt>
      <trkpt lat="43.34156" lon="5.66936">
        <ele>309</ele>
        <time>2019-01-18T08:36:13.000Z</time>
      </trkpt>
      <trkpt lat="43.34156" lon="5.66936">
        <ele>309</ele>
        <time>2019-01-18T08:36:14.000Z</time>
      </trkpt>
      <trkpt lat="43.34156" lon="5.66936">
        <ele>309</ele>
        <time>2019-01-18T08:36:15.000Z</time>
      </trkpt>
      <trkpt lat="43.34156" lon="5.66936">
        <ele>309</ele>
        <time>2019-01-18T08:36:16.000Z</time>
      </trkpt>
      <trkpt lat="43.34156" lon="5.66936">
        <ele>309</ele>
        <time>2019-01-18T08:36:17.000Z</time>
      </trkpt>
      <trkpt lat="43.34155" lon="5.66936">
        <ele>309</ele>
        <time>2019-01-18T08:36:18.000Z</time>
      </trkpt>
      <trkpt lat="43.34155" lon="5.66936">
        <ele>309</ele>
        <time>2019-01-18T08:36:19.000Z</time>
      </trkpt>
      <trkpt lat="43.34155" lon="5.66936">
        <ele>309</ele>
        <time>2019-01-18T08:36:20.000Z</time>
      </trkpt>
      <trkpt lat="43.34155" lon="5.66936">
        <ele>309</ele>
        <time>2019-01-18T08:36:21.000Z</time>
      </trkpt>
      <trkpt lat="43.34155" lon="5.66936">
        <ele>309</ele>
        <time>2019-01-18T08:36:22.000Z</time>
      </trkpt>
      <trkpt lat="43.34155" lon="5.66936">
        <ele>309</ele>
        <time>2019-01-18T08:36:23.000Z</time>
      </trkpt>
      <trkpt lat="43.34156" lon="5.66936">
        <ele>309</ele>
        <time>2019-01-18T08:36:24.000Z</time>
      </trkpt>
      <trkpt lat="43.34155" lon="5.66936">
        <ele>310</ele>
        <time>2019-01-18T08:36:25.000Z</time>
      </trkpt>
      <trkpt lat="43.34155" lon="5.66936">
        <ele>310</ele>
        <time>2019-01-18T08:36:26.000Z</time>
      </trkpt>
      <trkpt lat="43.34155" lon="5.66936">
        <ele>310</ele>
        <time>2019-01-18T08:36:27.000Z</time>
      </trkpt>
      <trkpt lat="43.34155" lon="5.66937">
        <ele>310</ele>
        <time>2019-01-18T08:36:28.000Z</time>
      </trkpt>
      <trkpt lat="43.34154" lon="5.66937">
        <ele>310</ele>
        <time>2019-01-18T08:36:29.000Z</time>
      </trkpt>
      <trkpt lat="43.34153" lon="5.66938">
        <ele>310</ele>
        <time>2019-01-18T08:36:30.000Z</time>
      </trkpt>
      <trkpt lat="43.34153" lon="5.66938">
        <ele>310</ele>
        <time>2019-01-18T08:36:31.000Z</time>
      </trkpt>
      <trkpt lat="43.34152" lon="5.66939">
        <ele>311</ele>
        <time>2019-01-18T08:36:32.000Z</time>
      </trkpt>
      <trkpt lat="43.34152" lon="5.66939">
        <ele>311</ele>
        <time>2019-01-18T08:36:33.000Z</time>
      </trkpt>
      <trkpt lat="43.34152" lon="5.6694">
        <ele>311</ele>
        <time>2019-01-18T08:36:34.000Z</time>
      </trkpt>
      <trkpt lat="43.34152" lon="5.6694">
        <ele>311</ele>
        <time>2019-01-18T08:36:35.000Z</time>
      </trkpt>
      <trkpt lat="43.34151" lon="5.6694">
        <ele>311</ele>
        <time>2019-01-18T08:36:36.000Z</time>
      </trkpt>
      <trkpt lat="43.34151" lon="5.66941">
        <ele>311</ele>
        <time>2019-01-18T08:36:37.000Z</time>
      </trkpt>
      <trkpt lat="43.34151" lon="5.66941">
        <ele>311</ele>
        <time>2019-01-18T08:36:38.000Z</time>
      </trkpt>
      <trkpt lat="43.3415" lon="5.66941">
        <ele>311</ele>
        <time>2019-01-18T08:36:39.000Z</time>
      </trkpt>
      <trkpt lat="43.3415" lon="5.66941">
        <ele>311</ele>
        <time>2019-01-18T08:36:40.000Z</time>
      </trkpt>
      <trkpt lat="43.3415" lon="5.66941">
        <ele>311</ele>
        <time>2019-01-18T08:36:41.000Z</time>
      </trkpt>
      <trkpt lat="43.3415" lon="5.66942">
        <ele>311</ele>
        <time>2019-01-18T08:36:42.000Z</time>
      </trkpt>
      <trkpt lat="43.34149" lon="5.66942">
        <ele>311</ele>
        <time>2019-01-18T08:36:43.000Z</time>
      </trkpt>
      <trkpt lat="43.34149" lon="5.66943">
        <ele>311</ele>
        <time>2019-01-18T08:36:44.000Z</time>
      </trkpt>
      <trkpt lat="43.34149" lon="5.66943">
        <ele>311</ele>
        <time>2019-01-18T08:36:45.000Z</time>
      </trkpt>
      <trkpt lat="43.34148" lon="5.66943">
        <ele>311</ele>
        <time>2019-01-18T08:36:46.000Z</time>
      </trkpt>
      <trkpt lat="43.34147" lon="5.66943">
        <ele>311</ele>
        <time>2019-01-18T08:36:47.000Z</time>
      </trkpt>
      <trkpt lat="43.34147" lon="5.66942">
        <ele>311</ele>
        <time>2019-01-18T08:36:48.000Z</time>
      </trkpt>
      <trkpt lat="43.34146" lon="5.66942">
        <ele>311</ele>
        <time>2019-01-18T08:36:49.000Z</time>
      </trkpt>
      <trkpt lat="43.34145" lon="5.66941">
        <ele>311</ele>
        <time>2019-01-18T08:36:50.000Z</time>
      </trkpt>
      <trkpt lat="43.34144" lon="5.66941">
        <ele>311</ele>
        <time>2019-01-18T08:36:51.000Z</time>
      </trkpt>
      <trkpt lat="43.34144" lon="5.66941">
        <ele>311</ele>
        <time>2019-01-18T08:36:52.000Z</time>
      </trkpt>
      <trkpt lat="43.34143" lon="5.66941">
        <ele>312</ele>
        <time>2019-01-18T08:36:53.000Z</time>
      </trkpt>
      <trkpt lat="43.34142" lon="5.66941">
        <ele>312</ele>
        <time>2019-01-18T08:36:54.000Z</time>
      </trkpt>
      <trkpt lat="43.34142" lon="5.66941">
        <ele>312</ele>
        <time>2019-01-18T08:36:55.000Z</time>
      </trkpt>
      <trkpt lat="43.34141" lon="5.66942">
        <ele>312</ele>
        <time>2019-01-18T08:36:56.000Z</time>
      </trkpt>
      <trkpt lat="43.3414" lon="5.66942">
        <ele>312</ele>
        <time>2019-01-18T08:36:57.000Z</time>
      </trkpt>
      <trkpt lat="43.34139" lon="5.66943">
        <ele>312</ele>
        <time>2019-01-18T08:36:58.000Z</time>
      </trkpt>
      <trkpt lat="43.34139" lon="5.66943">
        <ele>312</ele>
        <time>2019-01-18T08:36:59.000Z</time>
      </trkpt>
      <trkpt lat="43.34139" lon="5.66943">
        <ele>312</ele>
        <time>2019-01-18T08:37:00.000Z</time>
      </trkpt>
      <trkpt lat="43.34139" lon="5.66942">
        <ele>312</ele>
        <time>2019-01-18T08:37:01.000Z</time>
      </trkpt>
      <trkpt lat="43.34139" lon="5.66942">
        <ele>312</ele>
        <time>2019-01-18T08:37:02.000Z</time>
      </trkpt>
      <trkpt lat="43.34139" lon="5.66942">
        <ele>312</ele>
        <time>2019-01-18T08:37:03.000Z</time>
      </trkpt>
      <trkpt lat="43.34139" lon="5.66942">
        <ele>312</ele>
        <time>2019-01-18T08:37:04.000Z</time>
      </trkpt>
      <trkpt lat="43.34138" lon="5.66942">
        <ele>313</ele>
        <time>2019-01-18T08:37:05.000Z</time>
      </trkpt>
      <trkpt lat="43.34137" lon="5.66942">
        <ele>313</ele>
        <time>2019-01-18T08:37:06.000Z</time>
      </trkpt>
      <trkpt lat="43.34137" lon="5.66942">
        <ele>313</ele>
        <time>2019-01-18T08:37:07.000Z</time>
      </trkpt>
      <trkpt lat="43.34136" lon="5.66941">
        <ele>313</ele>
        <time>2019-01-18T08:37:08.000Z</time>
      </trkpt>
      <trkpt lat="43.34136" lon="5.66941">
        <ele>313</ele>
        <time>2019-01-18T08:37:09.000Z</time>
      </trkpt>
      <trkpt lat="43.34135" lon="5.6694">
        <ele>314</ele>
        <time>2019-01-18T08:37:10.000Z</time>
      </trkpt>
      <trkpt lat="43.34135" lon="5.66939">
        <ele>314</ele>
        <time>2019-01-18T08:37:11.000Z</time>
      </trkpt>
      <trkpt lat="43.34135" lon="5.66938">
        <ele>314</ele>
        <time>2019-01-18T08:37:12.000Z</time>
      </trkpt>
      <trkpt lat="43.34134" lon="5.66938">
        <ele>314</ele>
        <time>2019-01-18T08:37:13.000Z</time>
      </trkpt>
      <trkpt lat="43.34133" lon="5.66937">
        <ele>314</ele>
        <time>2019-01-18T08:37:14.000Z</time>
      </trkpt>
      <trkpt lat="43.34133" lon="5.66936">
        <ele>314</ele>
        <time>2019-01-18T08:37:15.000Z</time>
      </trkpt>
      <trkpt lat="43.34132" lon="5.66936">
        <ele>314</ele>
        <time>2019-01-18T08:37:16.000Z</time>
      </trkpt>
      <trkpt lat="43.34132" lon="5.66936">
        <ele>314</ele>
        <time>2019-01-18T08:37:17.000Z</time>
      </trkpt>
      <trkpt lat="43.34132" lon="5.66936">
        <ele>314</ele>
        <time>2019-01-18T08:37:18.000Z</time>
      </trkpt>
      <trkpt lat="43.34132" lon="5.66936">
        <ele>314</ele>
        <time>2019-01-18T08:37:19.000Z</time>
      </trkpt>
      <trkpt lat="43.34131" lon="5.66936">
        <ele>314</ele>
        <time>2019-01-18T08:37:20.000Z</time>
      </trkpt>
      <trkpt lat="43.34131" lon="5.66937">
        <ele>314</ele>
        <time>2019-01-18T08:37:21.000Z</time>
      </trkpt>
      <trkpt lat="43.34131" lon="5.66937">
        <ele>314</ele>
        <time>2019-01-18T08:37:22.000Z</time>
      </trkpt>
      <trkpt lat="43.3413" lon="5.66937">
        <ele>314</ele>
        <time>2019-01-18T08:37:23.000Z</time>
      </trkpt>
      <trkpt lat="43.34129" lon="5.66937">
        <ele>314</ele>
        <time>2019-01-18T08:37:24.000Z</time>
      </trkpt>
      <trkpt lat="43.34129" lon="5.66938">
        <ele>314</ele>
        <time>2019-01-18T08:37:25.000Z</time>
      </trkpt>
      <trkpt lat="43.34128" lon="5.66938">
        <ele>314</ele>
        <time>2019-01-18T08:37:26.000Z</time>
      </trkpt>
      <trkpt lat="43.34128" lon="5.66938">
        <ele>314</ele>
        <time>2019-01-18T08:37:27.000Z</time>
      </trkpt>
      <trkpt lat="43.34127" lon="5.66938">
        <ele>314</ele>
        <time>2019-01-18T08:37:28.000Z</time>
      </trkpt>
      <trkpt lat="43.34127" lon="5.66939">
        <ele>314</ele>
        <time>2019-01-18T08:37:29.000Z</time>
      </trkpt>
      <trkpt lat="43.34126" lon="5.66939">
        <ele>314</ele>
        <time>2019-01-18T08:37:30.000Z</time>
      </trkpt>
      <trkpt lat="43.34125" lon="5.66939">
        <ele>314</ele>
        <time>2019-01-18T08:37:31.000Z</time>
      </trkpt>
      <trkpt lat="43.34125" lon="5.66939">
        <ele>314</ele>
        <time>2019-01-18T08:37:32.000Z</time>
      </trkpt>
      <trkpt lat="43.34124" lon="5.66939">
        <ele>314</ele>
        <time>2019-01-18T08:37:33.000Z</time>
      </trkpt>
      <trkpt lat="43.34124" lon="5.66939">
        <ele>314</ele>
        <time>2019-01-18T08:37:34.000Z</time>
      </trkpt>
      <trkpt lat="43.34123" lon="5.66939">
        <ele>314</ele>
        <time>2019-01-18T08:37:35.000Z</time>
      </trkpt>
      <trkpt lat="43.34123" lon="5.6694">
        <ele>314</ele>
        <time>2019-01-18T08:37:36.000Z</time>
      </trkpt>
      <trkpt lat="43.34122" lon="5.6694">
        <ele>314</ele>
        <time>2019-01-18T08:37:37.000Z</time>
      </trkpt>
      <trkpt lat="43.34121" lon="5.66941">
        <ele>314</ele>
        <time>2019-01-18T08:37:38.000Z</time>
      </trkpt>
      <trkpt lat="43.34121" lon="5.66941">
        <ele>314</ele>
        <time>2019-01-18T08:37:39.000Z</time>
      </trkpt>
      <trkpt lat="43.3412" lon="5.66942">
        <ele>313</ele>
        <time>2019-01-18T08:37:40.000Z</time>
      </trkpt>
      <trkpt lat="43.34119" lon="5.66942">
        <ele>313</ele>
        <time>2019-01-18T08:37:41.000Z</time>
      </trkpt>
      <trkpt lat="43.34119" lon="5.66942">
        <ele>313</ele>
        <time>2019-01-18T08:37:42.000Z</time>
      </trkpt>
      <trkpt lat="43.34118" lon="5.66941">
        <ele>313</ele>
        <time>2019-01-18T08:37:43.000Z</time>
      </trkpt>
      <trkpt lat="43.34117" lon="5.66941">
        <ele>313</ele>
        <time>2019-01-18T08:37:44.000Z</time>
      </trkpt>
      <trkpt lat="43.34117" lon="5.66942">
        <ele>313</ele>
        <time>2019-01-18T08:37:45.000Z</time>
      </trkpt>
      <trkpt lat="43.34116" lon="5.66942">
        <ele>313</ele>
        <time>2019-01-18T08:37:46.000Z</time>
      </trkpt>
      <trkpt lat="43.34116" lon="5.66943">
        <ele>313</ele>
        <time>2019-01-18T08:37:47.000Z</time>
      </trkpt>
      <trkpt lat="43.34115" lon="5.66944">
        <ele>313</ele>
        <time>2019-01-18T08:37:48.000Z</time>
      </trkpt>
      <trkpt lat="43.34114" lon="5.66944">
        <ele>313</ele>
        <time>2019-01-18T08:37:49.000Z</time>
      </trkpt>
      <trkpt lat="43.34114" lon="5.66945">
        <ele>313</ele>
        <time>2019-01-18T08:37:50.000Z</time>
      </trkpt>
      <trkpt lat="43.34113" lon="5.66946">
        <ele>313</ele>
        <time>2019-01-18T08:37:51.000Z</time>
      </trkpt>
      <trkpt lat="43.34113" lon="5.66947">
        <ele>313</ele>
        <time>2019-01-18T08:37:52.000Z</time>
      </trkpt>
      <trkpt lat="43.34112" lon="5.66947">
        <ele>313</ele>
        <time>2019-01-18T08:37:53.000Z</time>
      </trkpt>
      <trkpt lat="43.34111" lon="5.66947">
        <ele>313</ele>
        <time>2019-01-18T08:37:54.000Z</time>
      </trkpt>
      <trkpt lat="43.34111" lon="5.66948">
        <ele>313</ele>
        <time>2019-01-18T08:37:55.000Z</time>
      </trkpt>
      <trkpt lat="43.3411" lon="5.66948">
        <ele>313</ele>
        <time>2019-01-18T08:37:56.000Z</time>
      </trkpt>
      <trkpt lat="43.34109" lon="5.66949">
        <ele>313</ele>
        <time>2019-01-18T08:37:57.000Z</time>
      </trkpt>
      <trkpt lat="43.34109" lon="5.66949">
        <ele>313</ele>
        <time>2019-01-18T08:37:58.000Z</time>
      </trkpt>
      <trkpt lat="43.34109" lon="5.66949">
        <ele>313</ele>
        <time>2019-01-18T08:37:59.000Z</time>
      </trkpt>
      <trkpt lat="43.34109" lon="5.6695">
        <ele>313</ele>
        <time>2019-01-18T08:38:00.000Z</time>
      </trkpt>
      <trkpt lat="43.34108" lon="5.6695">
        <ele>313</ele>
        <time>2019-01-18T08:38:01.000Z</time>
      </trkpt>
      <trkpt lat="43.34107" lon="5.6695">
        <ele>313</ele>
        <time>2019-01-18T08:38:02.000Z</time>
      </trkpt>
      <trkpt lat="43.34107" lon="5.66949">
        <ele>312</ele>
        <time>2019-01-18T08:38:03.000Z</time>
      </trkpt>
      <trkpt lat="43.34106" lon="5.66949">
        <ele>312</ele>
        <time>2019-01-18T08:38:04.000Z</time>
      </trkpt>
      <trkpt lat="43.34105" lon="5.66948">
        <ele>312</ele>
        <time>2019-01-18T08:38:05.000Z</time>
      </trkpt>
      <trkpt lat="43.34104" lon="5.66947">
        <ele>312</ele>
        <time>2019-01-18T08:38:06.000Z</time>
      </trkpt>
      <trkpt lat="43.34104" lon="5.66947">
        <ele>312</ele>
        <time>2019-01-18T08:38:07.000Z</time>
      </trkpt>
      <trkpt lat="43.34103" lon="5.66947">
        <ele>312</ele>
        <time>2019-01-18T08:38:08.000Z</time>
      </trkpt>
      <trkpt lat="43.34102" lon="5.66946">
        <ele>312</ele>
        <time>2019-01-18T08:38:09.000Z</time>
      </trkpt>
      <trkpt lat="43.34102" lon="5.66946">
        <ele>312</ele>
        <time>2019-01-18T08:38:10.000Z</time>
      </trkpt>
      <trkpt lat="43.34101" lon="5.66946">
        <ele>312</ele>
        <time>2019-01-18T08:38:11.000Z</time>
      </trkpt>
      <trkpt lat="43.34101" lon="5.66946">
        <ele>312</ele>
        <time>2019-01-18T08:38:12.000Z</time>
      </trkpt>
      <trkpt lat="43.341" lon="5.66946">
        <ele>312</ele>
        <time>2019-01-18T08:38:13.000Z</time>
      </trkpt>
      <trkpt lat="43.341" lon="5.66946">
        <ele>312</ele>
        <time>2019-01-18T08:38:14.000Z</time>
      </trkpt>
      <trkpt lat="43.34099" lon="5.66946">
        <ele>312</ele>
        <time>2019-01-18T08:38:15.000Z</time>
      </trkpt>
      <trkpt lat="43.34099" lon="5.66946">
        <ele>312</ele>
        <time>2019-01-18T08:38:16.000Z</time>
      </trkpt>
      <trkpt lat="43.34099" lon="5.66947">
        <ele>312</ele>
        <time>2019-01-18T08:38:17.000Z</time>
      </trkpt>
      <trkpt lat="43.34099" lon="5.66948">
        <ele>312</ele>
        <time>2019-01-18T08:38:18.000Z</time>
      </trkpt>
      <trkpt lat="43.34099" lon="5.66948">
        <ele>312</ele>
        <time>2019-01-18T08:38:19.000Z</time>
      </trkpt>
      <trkpt lat="43.34098" lon="5.66949">
        <ele>312</ele>
        <time>2019-01-18T08:38:20.000Z</time>
      </trkpt>
      <trkpt lat="43.34098" lon="5.6695">
        <ele>312</ele>
        <time>2019-01-18T08:38:21.000Z</time>
      </trkpt>
      <trkpt lat="43.34097" lon="5.66951">
        <ele>312</ele>
        <time>2019-01-18T08:38:22.000Z</time>
      </trkpt>
      <trkpt lat="43.34097" lon="5.66952">
        <ele>312</ele>
        <time>2019-01-18T08:38:23.000Z</time>
      </trkpt>
      <trkpt lat="43.34097" lon="5.66953">
        <ele>312</ele>
        <time>2019-01-18T08:38:24.000Z</time>
      </trkpt>
      <trkpt lat="43.34097" lon="5.66954">
        <ele>312</ele>
        <time>2019-01-18T08:38:25.000Z</time>
      </trkpt>
      <trkpt lat="43.34097" lon="5.66954">
        <ele>312</ele>
        <time>2019-01-18T08:38:26.000Z</time>
      </trkpt>
      <trkpt lat="43.34097" lon="5.66955">
        <ele>312</ele>
        <time>2019-01-18T08:38:27.000Z</time>
      </trkpt>
      <trkpt lat="43.34097" lon="5.66956">
        <ele>312</ele>
        <time>2019-01-18T08:38:28.000Z</time>
      </trkpt>
      <trkpt lat="43.34098" lon="5.66957">
        <ele>312</ele>
        <time>2019-01-18T08:38:29.000Z</time>
      </trkpt>
      <trkpt lat="43.34098" lon="5.66958">
        <ele>312</ele>
        <time>2019-01-18T08:38:30.000Z</time>
      </trkpt>
      <trkpt lat="43.34098" lon="5.66958">
        <ele>312</ele>
        <time>2019-01-18T08:38:31.000Z</time>
      </trkpt>
      <trkpt lat="43.34099" lon="5.66959">
        <ele>312</ele>
        <time>2019-01-18T08:38:32.000Z</time>
      </trkpt>
      <trkpt lat="43.34099" lon="5.66959">
        <ele>312</ele>
        <time>2019-01-18T08:38:33.000Z</time>
      </trkpt>
      <trkpt lat="43.34099" lon="5.6696">
        <ele>312</ele>
        <time>2019-01-18T08:38:34.000Z</time>
      </trkpt>
      <trkpt lat="43.34099" lon="5.66961">
        <ele>313</ele>
        <time>2019-01-18T08:38:35.000Z</time>
      </trkpt>
      <trkpt lat="43.341" lon="5.66961">
        <ele>313</ele>
        <time>2019-01-18T08:38:36.000Z</time>
      </trkpt>
      <trkpt lat="43.341" lon="5.66961">
        <ele>313</ele>
        <time>2019-01-18T08:38:37.000Z</time>
      </trkpt>
      <trkpt lat="43.341" lon="5.66962">
        <ele>313</ele>
        <time>2019-01-18T08:38:38.000Z</time>
      </trkpt>
      <trkpt lat="43.341" lon="5.66961">
        <ele>313</ele>
        <time>2019-01-18T08:38:39.000Z</time>
      </trkpt>
      <trkpt lat="43.341" lon="5.66961">
        <ele>313</ele>
        <time>2019-01-18T08:38:40.000Z</time>
      </trkpt>
      <trkpt lat="43.341" lon="5.66961">
        <ele>314</ele>
        <time>2019-01-18T08:38:41.000Z</time>
      </trkpt>
      <trkpt lat="43.34101" lon="5.66961">
        <ele>314</ele>
        <time>2019-01-18T08:38:42.000Z</time>
      </trkpt>
      <trkpt lat="43.34101" lon="5.66961">
        <ele>314</ele>
        <time>2019-01-18T08:38:43.000Z</time>
      </trkpt>
      <trkpt lat="43.34101" lon="5.66961">
        <ele>314</ele>
        <time>2019-01-18T08:38:44.000Z</time>
      </trkpt>
      <trkpt lat="43.34101" lon="5.66961">
        <ele>314</ele>
        <time>2019-01-18T08:38:45.000Z</time>
      </trkpt>
      <trkpt lat="43.34102" lon="5.66961">
        <ele>314</ele>
        <time>2019-01-18T08:38:46.000Z</time>
      </trkpt>
      <trkpt lat="43.34102" lon="5.66961">
        <ele>314</ele>
        <time>2019-01-18T08:38:47.000Z</time>
      </trkpt>
      <trkpt lat="43.34102" lon="5.66961">
        <ele>315</ele>
        <time>2019-01-18T08:38:48.000Z</time>
      </trkpt>
      <trkpt lat="43.34102" lon="5.66961">
        <ele>315</ele>
        <time>2019-01-18T08:38:49.000Z</time>
      </trkpt>
      <trkpt lat="43.34102" lon="5.66962">
        <ele>315</ele>
        <time>2019-01-18T08:38:50.000Z</time>
      </trkpt>
      <trkpt lat="43.34102" lon="5.66963">
        <ele>315</ele>
        <time>2019-01-18T08:38:51.000Z</time>
      </trkpt>
      <trkpt lat="43.34102" lon="5.66963">
        <ele>315</ele>
        <time>2019-01-18T08:38:52.000Z</time>
      </trkpt>
      <trkpt lat="43.34101" lon="5.66965">
        <ele>315</ele>
        <time>2019-01-18T08:38:53.000Z</time>
      </trkpt>
      <trkpt lat="43.341" lon="5.66965">
        <ele>315</ele>
        <time>2019-01-18T08:38:54.000Z</time>
      </trkpt>
      <trkpt lat="43.341" lon="5.66966">
        <ele>315</ele>
        <time>2019-01-18T08:38:55.000Z</time>
      </trkpt>
      <trkpt lat="43.34099" lon="5.66966">
        <ele>315</ele>
        <time>2019-01-18T08:38:56.000Z</time>
      </trkpt>
      <trkpt lat="43.34099" lon="5.66967">
        <ele>315</ele>
        <time>2019-01-18T08:38:57.000Z</time>
      </trkpt>
      <trkpt lat="43.34098" lon="5.66968">
        <ele>315</ele>
        <time>2019-01-18T08:38:58.000Z</time>
      </trkpt>
      <trkpt lat="43.34098" lon="5.66969">
        <ele>315</ele>
        <time>2019-01-18T08:38:59.000Z</time>
      </trkpt>
      <trkpt lat="43.34098" lon="5.66969">
        <ele>315</ele>
        <time>2019-01-18T08:39:00.000Z</time>
      </trkpt>
      <trkpt lat="43.34097" lon="5.6697">
        <ele>315</ele>
        <time>2019-01-18T08:39:01.000Z</time>
      </trkpt>
      <trkpt lat="43.34097" lon="5.66971">
        <ele>315</ele>
        <time>2019-01-18T08:39:02.000Z</time>
      </trkpt>
      <trkpt lat="43.34097" lon="5.66972">
        <ele>315</ele>
        <time>2019-01-18T08:39:03.000Z</time>
      </trkpt>
      <trkpt lat="43.34097" lon="5.66972">
        <ele>315</ele>
        <time>2019-01-18T08:39:04.000Z</time>
      </trkpt>
      <trkpt lat="43.34096" lon="5.66973">
        <ele>315</ele>
        <time>2019-01-18T08:39:05.000Z</time>
      </trkpt>
      <trkpt lat="43.34096" lon="5.66974">
        <ele>316</ele>
        <time>2019-01-18T08:39:06.000Z</time>
      </trkpt>
      <trkpt lat="43.34095" lon="5.66975">
        <ele>316</ele>
        <time>2019-01-18T08:39:07.000Z</time>
      </trkpt>
      <trkpt lat="43.34094" lon="5.66975">
        <ele>316</ele>
        <time>2019-01-18T08:39:08.000Z</time>
      </trkpt>
      <trkpt lat="43.34094" lon="5.66976">
        <ele>316</ele>
        <time>2019-01-18T08:39:09.000Z</time>
      </trkpt>
      <trkpt lat="43.34094" lon="5.66977">
        <ele>316</ele>
        <time>2019-01-18T08:39:10.000Z</time>
      </trkpt>
      <trkpt lat="43.34094" lon="5.66978">
        <ele>316</ele>
        <time>2019-01-18T08:39:11.000Z</time>
      </trkpt>
      <trkpt lat="43.34094" lon="5.66979">
        <ele>317</ele>
        <time>2019-01-18T08:39:12.000Z</time>
      </trkpt>
      <trkpt lat="43.34094" lon="5.6698">
        <ele>317</ele>
        <time>2019-01-18T08:39:13.000Z</time>
      </trkpt>
      <trkpt lat="43.34094" lon="5.66981">
        <ele>317</ele>
        <time>2019-01-18T08:39:14.000Z</time>
      </trkpt>
      <trkpt lat="43.34094" lon="5.66982">
        <ele>317</ele>
        <time>2019-01-18T08:39:15.000Z</time>
      </trkpt>
      <trkpt lat="43.34094" lon="5.66982">
        <ele>317</ele>
        <time>2019-01-18T08:39:16.000Z</time>
      </trkpt>
      <trkpt lat="43.34094" lon="5.66983">
        <ele>317</ele>
        <time>2019-01-18T08:39:17.000Z</time>
      </trkpt>
      <trkpt lat="43.34094" lon="5.66984">
        <ele>317</ele>
        <time>2019-01-18T08:39:18.000Z</time>
      </trkpt>
      <trkpt lat="43.34094" lon="5.66985">
        <ele>318</ele>
        <time>2019-01-18T08:39:19.000Z</time>
      </trkpt>
      <trkpt lat="43.34094" lon="5.66986">
        <ele>318</ele>
        <time>2019-01-18T08:39:20.000Z</time>
      </trkpt>
      <trkpt lat="43.34093" lon="5.66986">
        <ele>318</ele>
        <time>2019-01-18T08:39:21.000Z</time>
      </trkpt>
      <trkpt lat="43.34092" lon="5.66987">
        <ele>318</ele>
        <time>2019-01-18T08:39:22.000Z</time>
      </trkpt>
      <trkpt lat="43.34092" lon="5.66988">
        <ele>318</ele>
        <time>2019-01-18T08:39:23.000Z</time>
      </trkpt>
      <trkpt lat="43.34091" lon="5.66989">
        <ele>318</ele>
        <time>2019-01-18T08:39:24.000Z</time>
      </trkpt>
      <trkpt lat="43.3409" lon="5.6699">
        <ele>318</ele>
        <time>2019-01-18T08:39:25.000Z</time>
      </trkpt>
      <trkpt lat="43.34089" lon="5.6699">
        <ele>318</ele>
        <time>2019-01-18T08:39:26.000Z</time>
      </trkpt>
      <trkpt lat="43.34089" lon="5.66991">
        <ele>318</ele>
        <time>2019-01-18T08:39:27.000Z</time>
      </trkpt>
      <trkpt lat="43.34088" lon="5.66992">
        <ele>318</ele>
        <time>2019-01-18T08:39:28.000Z</time>
      </trkpt>
      <trkpt lat="43.34087" lon="5.66993">
        <ele>318</ele>
        <time>2019-01-18T08:39:29.000Z</time>
      </trkpt>
      <trkpt lat="43.34086" lon="5.66994">
        <ele>318</ele>
        <time>2019-01-18T08:39:30.000Z</time>
      </trkpt>
      <trkpt lat="43.34085" lon="5.66995">
        <ele>318</ele>
        <time>2019-01-18T08:39:31.000Z</time>
      </trkpt>
      <trkpt lat="43.34084" lon="5.66996">
        <ele>318</ele>
        <time>2019-01-18T08:39:32.000Z</time>
      </trkpt>
      <trkpt lat="43.34083" lon="5.66997">
        <ele>318</ele>
        <time>2019-01-18T08:39:33.000Z</time>
      </trkpt>
      <trkpt lat="43.34082" lon="5.66998">
        <ele>318</ele>
        <time>2019-01-18T08:39:34.000Z</time>
      </trkpt>
      <trkpt lat="43.34081" lon="5.66999">
        <ele>318</ele>
        <time>2019-01-18T08:39:35.000Z</time>
      </trkpt>
      <trkpt lat="43.3408" lon="5.66999">
        <ele>318</ele>
        <time>2019-01-18T08:39:36.000Z</time>
      </trkpt>
      <trkpt lat="43.34079" lon="5.66999">
        <ele>318</ele>
        <time>2019-01-18T08:39:37.000Z</time>
      </trkpt>
      <trkpt lat="43.34078" lon="5.67">
        <ele>318</ele>
        <time>2019-01-18T08:39:38.000Z</time>
      </trkpt>
      <trkpt lat="43.34077" lon="5.67">
        <ele>318</ele>
        <time>2019-01-18T08:39:39.000Z</time>
      </trkpt>
      <trkpt lat="43.34076" lon="5.67001">
        <ele>318</ele>
        <time>2019-01-18T08:39:40.000Z</time>
      </trkpt>
      <trkpt lat="43.34076" lon="5.67001">
        <ele>318</ele>
        <time>2019-01-18T08:39:41.000Z</time>
      </trkpt>
      <trkpt lat="43.34075" lon="5.67001">
        <ele>318</ele>
        <time>2019-01-18T08:39:42.000Z</time>
      </trkpt>
      <trkpt lat="43.34074" lon="5.67001">
        <ele>318</ele>
        <time>2019-01-18T08:39:43.000Z</time>
      </trkpt>
      <trkpt lat="43.34073" lon="5.67002">
        <ele>318</ele>
        <time>2019-01-18T08:39:44.000Z</time>
      </trkpt>
      <trkpt lat="43.34072" lon="5.67002">
        <ele>318</ele>
        <time>2019-01-18T08:39:45.000Z</time>
      </trkpt>
      <trkpt lat="43.34071" lon="5.67002">
        <ele>318</ele>
        <time>2019-01-18T08:39:46.000Z</time>
      </trkpt>
      <trkpt lat="43.3407" lon="5.67002">
        <ele>318</ele>
        <time>2019-01-18T08:39:47.000Z</time>
      </trkpt>
      <trkpt lat="43.34069" lon="5.67002">
        <ele>318</ele>
        <time>2019-01-18T08:39:48.000Z</time>
      </trkpt>
      <trkpt lat="43.34068" lon="5.67002">
        <ele>318</ele>
        <time>2019-01-18T08:39:49.000Z</time>
      </trkpt>
      <trkpt lat="43.34068" lon="5.67002">
        <ele>318</ele>
        <time>2019-01-18T08:39:50.000Z</time>
      </trkpt>
      <trkpt lat="43.34067" lon="5.67002">
        <ele>318</ele>
        <time>2019-01-18T08:39:51.000Z</time>
      </trkpt>
      <trkpt lat="43.34067" lon="5.67002">
        <ele>318</ele>
        <time>2019-01-18T08:39:52.000Z</time>
      </trkpt>
      <trkpt lat="43.34067" lon="5.67002">
        <ele>318</ele>
        <time>2019-01-18T08:39:53.000Z</time>
      </trkpt>
      <trkpt lat="43.34066" lon="5.67002">
        <ele>318</ele>
        <time>2019-01-18T08:39:54.000Z</time>
      </trkpt>
      <trkpt lat="43.34066" lon="5.67002">
        <ele>318</ele>
        <time>2019-01-18T08:39:55.000Z</time>
      </trkpt>
      <trkpt lat="43.34066" lon="5.67002">
        <ele>318</ele>
        <time>2019-01-18T08:39:56.000Z</time>
      </trkpt>
      <trkpt lat="43.34066" lon="5.67002">
        <ele>318</ele>
        <time>2019-01-18T08:39:57.000Z</time>
      </trkpt>
      <trkpt lat="43.34066" lon="5.67002">
        <ele>318</ele>
        <time>2019-01-18T08:39:58.000Z</time>
      </trkpt>
      <trkpt lat="43.34066" lon="5.67002">
        <ele>318</ele>
        <time>2019-01-18T08:39:59.000Z</time>
      </trkpt>
      <trkpt lat="43.34066" lon="5.67001">
        <ele>318</ele>
        <time>2019-01-18T08:40:00.000Z</time>
      </trkpt>
      <trkpt lat="43.34065" lon="5.67001">
        <ele>318</ele>
        <time>2019-01-18T08:40:01.000Z</time>
      </trkpt>
      <trkpt lat="43.34065" lon="5.67">
        <ele>318</ele>
        <time>2019-01-18T08:40:02.000Z</time>
      </trkpt>
      <trkpt lat="43.34065" lon="5.67">
        <ele>318</ele>
        <time>2019-01-18T08:40:03.000Z</time>
      </trkpt>
      <trkpt lat="43.34065" lon="5.66999">
        <ele>319</ele>
        <time>2019-01-18T08:40:04.000Z</time>
      </trkpt>
      <trkpt lat="43.34065" lon="5.66999">
        <ele>318</ele>
        <time>2019-01-18T08:40:05.000Z</time>
      </trkpt>
      <trkpt lat="43.34065" lon="5.66999">
        <ele>318</ele>
        <time>2019-01-18T08:40:06.000Z</time>
      </trkpt>
      <trkpt lat="43.34065" lon="5.66999">
        <ele>318</ele>
        <time>2019-01-18T08:40:07.000Z</time>
      </trkpt>
      <trkpt lat="43.34064" lon="5.66999">
        <ele>318</ele>
        <time>2019-01-18T08:40:08.000Z</time>
      </trkpt>
      <trkpt lat="43.34064" lon="5.66999">
        <ele>318</ele>
        <time>2019-01-18T08:40:09.000Z</time>
      </trkpt>
      <trkpt lat="43.34064" lon="5.66999">
        <ele>318</ele>
        <time>2019-01-18T08:40:10.000Z</time>
      </trkpt>
      <trkpt lat="43.34064" lon="5.66998">
        <ele>318</ele>
        <time>2019-01-18T08:40:11.000Z</time>
      </trkpt>
      <trkpt lat="43.34064" lon="5.66998">
        <ele>318</ele>
        <time>2019-01-18T08:40:12.000Z</time>
      </trkpt>
      <trkpt lat="43.34063" lon="5.66997">
        <ele>318</ele>
        <time>2019-01-18T08:40:13.000Z</time>
      </trkpt>
      <trkpt lat="43.34062" lon="5.66996">
        <ele>318</ele>
        <time>2019-01-18T08:40:14.000Z</time>
      </trkpt>
      <trkpt lat="43.34061" lon="5.66996">
        <ele>318</ele>
        <time>2019-01-18T08:40:15.000Z</time>
      </trkpt>
      <trkpt lat="43.3406" lon="5.66995">
        <ele>318</ele>
        <time>2019-01-18T08:40:16.000Z</time>
      </trkpt>
      <trkpt lat="43.3406" lon="5.66994">
        <ele>318</ele>
        <time>2019-01-18T08:40:17.000Z</time>
      </trkpt>
      <trkpt lat="43.34059" lon="5.66994">
        <ele>318</ele>
        <time>2019-01-18T08:40:18.000Z</time>
      </trkpt>
      <trkpt lat="43.34059" lon="5.66993">
        <ele>318</ele>
        <time>2019-01-18T08:40:19.000Z</time>
      </trkpt>
      <trkpt lat="43.34059" lon="5.66993">
        <ele>319</ele>
        <time>2019-01-18T08:40:20.000Z</time>
      </trkpt>
      <trkpt lat="43.34058" lon="5.66993">
        <ele>319</ele>
        <time>2019-01-18T08:40:21.000Z</time>
      </trkpt>
      <trkpt lat="43.34058" lon="5.66992">
        <ele>319</ele>
        <time>2019-01-18T08:40:22.000Z</time>
      </trkpt>
      <trkpt lat="43.34057" lon="5.66992">
        <ele>319</ele>
        <time>2019-01-18T08:40:23.000Z</time>
      </trkpt>
      <trkpt lat="43.34057" lon="5.66991">
        <ele>319</ele>
        <time>2019-01-18T08:40:24.000Z</time>
      </trkpt>
      <trkpt lat="43.34057" lon="5.66991">
        <ele>319</ele>
        <time>2019-01-18T08:40:25.000Z</time>
      </trkpt>
      <trkpt lat="43.34057" lon="5.66991">
        <ele>319</ele>
        <time>2019-01-18T08:40:26.000Z</time>
      </trkpt>
      <trkpt lat="43.34057" lon="5.66991">
        <ele>319</ele>
        <time>2019-01-18T08:40:27.000Z</time>
      </trkpt>
      <trkpt lat="43.34057" lon="5.6699">
        <ele>319</ele>
        <time>2019-01-18T08:40:28.000Z</time>
      </trkpt>
      <trkpt lat="43.34057" lon="5.6699">
        <ele>319</ele>
        <time>2019-01-18T08:40:29.000Z</time>
      </trkpt>
      <trkpt lat="43.34057" lon="5.6699">
        <ele>319</ele>
        <time>2019-01-18T08:40:30.000Z</time>
      </trkpt>
      <trkpt lat="43.34057" lon="5.6699">
        <ele>319</ele>
        <time>2019-01-18T08:40:31.000Z</time>
      </trkpt>
      <trkpt lat="43.34057" lon="5.6699">
        <ele>320</ele>
        <time>2019-01-18T08:40:32.000Z</time>
      </trkpt>
      <trkpt lat="43.34057" lon="5.6699">
        <ele>320</ele>
        <time>2019-01-18T08:40:33.000Z</time>
      </trkpt>
      <trkpt lat="43.34057" lon="5.6699">
        <ele>320</ele>
        <time>2019-01-18T08:40:34.000Z</time>
      </trkpt>
      <trkpt lat="43.34056" lon="5.6699">
        <ele>320</ele>
        <time>2019-01-18T08:40:35.000Z</time>
      </trkpt>
      <trkpt lat="43.34056" lon="5.66989">
        <ele>320</ele>
        <time>2019-01-18T08:40:36.000Z</time>
      </trkpt>
      <trkpt lat="43.34056" lon="5.66988">
        <ele>320</ele>
        <time>2019-01-18T08:40:37.000Z</time>
      </trkpt>
      <trkpt lat="43.34055" lon="5.66987">
        <ele>320</ele>
        <time>2019-01-18T08:40:38.000Z</time>
      </trkpt>
      <trkpt lat="43.34055" lon="5.66987">
        <ele>320</ele>
        <time>2019-01-18T08:40:39.000Z</time>
      </trkpt>
      <trkpt lat="43.34054" lon="5.66987">
        <ele>320</ele>
        <time>2019-01-18T08:40:40.000Z</time>
      </trkpt>
      <trkpt lat="43.34054" lon="5.66987">
        <ele>320</ele>
        <time>2019-01-18T08:40:41.000Z</time>
      </trkpt>
      <trkpt lat="43.34054" lon="5.66987">
        <ele>320</ele>
        <time>2019-01-18T08:40:42.000Z</time>
      </trkpt>
      <trkpt lat="43.34054" lon="5.66987">
        <ele>320</ele>
        <time>2019-01-18T08:40:43.000Z</time>
      </trkpt>
      <trkpt lat="43.34054" lon="5.66987">
        <ele>320</ele>
        <time>2019-01-18T08:40:44.000Z</time>
      </trkpt>
      <trkpt lat="43.34053" lon="5.66987">
        <ele>320</ele>
        <time>2019-01-18T08:40:45.000Z</time>
      </trkpt>
      <trkpt lat="43.34053" lon="5.66987">
        <ele>320</ele>
        <time>2019-01-18T08:40:46.000Z</time>
      </trkpt>
      <trkpt lat="43.34052" lon="5.66987">
        <ele>321</ele>
        <time>2019-01-18T08:40:47.000Z</time>
      </trkpt>
      <trkpt lat="43.34051" lon="5.66987">
        <ele>321</ele>
        <time>2019-01-18T08:40:48.000Z</time>
      </trkpt>
      <trkpt lat="43.3405" lon="5.66987">
        <ele>321</ele>
        <time>2019-01-18T08:40:49.000Z</time>
      </trkpt>
      <trkpt lat="43.34049" lon="5.66986">
        <ele>321</ele>
        <time>2019-01-18T08:40:50.000Z</time>
      </trkpt>
      <trkpt lat="43.34049" lon="5.66986">
        <ele>321</ele>
        <time>2019-01-18T08:40:51.000Z</time>
      </trkpt>
      <trkpt lat="43.34048" lon="5.66985">
        <ele>321</ele>
        <time>2019-01-18T08:40:52.000Z</time>
      </trkpt>
      <trkpt lat="43.34048" lon="5.66984">
        <ele>321</ele>
        <time>2019-01-18T08:40:53.000Z</time>
      </trkpt>
      <trkpt lat="43.34047" lon="5.66984">
        <ele>321</ele>
        <time>2019-01-18T08:40:54.000Z</time>
      </trkpt>
      <trkpt lat="43.34047" lon="5.66983">
        <ele>321</ele>
        <time>2019-01-18T08:40:55.000Z</time>
      </trkpt>
      <trkpt lat="43.34046" lon="5.66983">
        <ele>321</ele>
        <time>2019-01-18T08:40:56.000Z</time>
      </trkpt>
      <trkpt lat="43.34045" lon="5.66983">
        <ele>321</ele>
        <time>2019-01-18T08:40:57.000Z</time>
      </trkpt>
      <trkpt lat="43.34044" lon="5.66982">
        <ele>321</ele>
        <time>2019-01-18T08:40:58.000Z</time>
      </trkpt>
      <trkpt lat="43.34043" lon="5.66982">
        <ele>321</ele>
        <time>2019-01-18T08:40:59.000Z</time>
      </trkpt>
      <trkpt lat="43.34042" lon="5.66982">
        <ele>321</ele>
        <time>2019-01-18T08:41:00.000Z</time>
      </trkpt>
      <trkpt lat="43.34042" lon="5.66982">
        <ele>321</ele>
        <time>2019-01-18T08:41:01.000Z</time>
      </trkpt>
      <trkpt lat="43.34041" lon="5.66982">
        <ele>321</ele>
        <time>2019-01-18T08:41:02.000Z</time>
      </trkpt>
      <trkpt lat="43.34041" lon="5.66981">
        <ele>322</ele>
        <time>2019-01-18T08:41:03.000Z</time>
      </trkpt>
      <trkpt lat="43.3404" lon="5.6698">
        <ele>322</ele>
        <time>2019-01-18T08:41:04.000Z</time>
      </trkpt>
      <trkpt lat="43.34039" lon="5.6698">
        <ele>322</ele>
        <time>2019-01-18T08:41:05.000Z</time>
      </trkpt>
      <trkpt lat="43.34039" lon="5.66979">
        <ele>322</ele>
        <time>2019-01-18T08:41:06.000Z</time>
      </trkpt>
      <trkpt lat="43.34038" lon="5.66979">
        <ele>322</ele>
        <time>2019-01-18T08:41:07.000Z</time>
      </trkpt>
      <trkpt lat="43.34038" lon="5.66979">
        <ele>322</ele>
        <time>2019-01-18T08:41:08.000Z</time>
      </trkpt>
      <trkpt lat="43.34037" lon="5.66979">
        <ele>322</ele>
        <time>2019-01-18T08:41:09.000Z</time>
      </trkpt>
      <trkpt lat="43.34037" lon="5.66979">
        <ele>322</ele>
        <time>2019-01-18T08:41:10.000Z</time>
      </trkpt>
      <trkpt lat="43.34037" lon="5.66979">
        <ele>322</ele>
        <time>2019-01-18T08:41:11.000Z</time>
      </trkpt>
      <trkpt lat="43.34037" lon="5.66979">
        <ele>322</ele>
        <time>2019-01-18T08:41:12.000Z</time>
      </trkpt>
      <trkpt lat="43.34037" lon="5.66979">
        <ele>323</ele>
        <time>2019-01-18T08:41:13.000Z</time>
      </trkpt>
      <trkpt lat="43.34037" lon="5.66979">
        <ele>323</ele>
        <time>2019-01-18T08:41:14.000Z</time>
      </trkpt>
      <trkpt lat="43.34037" lon="5.66979">
        <ele>323</ele>
        <time>2019-01-18T08:41:15.000Z</time>
      </trkpt>
      <trkpt lat="43.34036" lon="5.66979">
        <ele>323</ele>
        <time>2019-01-18T08:41:16.000Z</time>
      </trkpt>
      <trkpt lat="43.34036" lon="5.6698">
        <ele>323</ele>
        <time>2019-01-18T08:41:17.000Z</time>
      </trkpt>
      <trkpt lat="43.34035" lon="5.66979">
        <ele>324</ele>
        <time>2019-01-18T08:41:18.000Z</time>
      </trkpt>
      <trkpt lat="43.34035" lon="5.66979">
        <ele>324</ele>
        <time>2019-01-18T08:41:19.000Z</time>
      </trkpt>
      <trkpt lat="43.34035" lon="5.6698">
        <ele>324</ele>
        <time>2019-01-18T08:41:20.000Z</time>
      </trkpt>
      <trkpt lat="43.34035" lon="5.6698">
        <ele>324</ele>
        <time>2019-01-18T08:41:21.000Z</time>
      </trkpt>
      <trkpt lat="43.34035" lon="5.6698">
        <ele>324</ele>
        <time>2019-01-18T08:41:22.000Z</time>
      </trkpt>
      <trkpt lat="43.34035" lon="5.6698">
        <ele>324</ele>
        <time>2019-01-18T08:41:23.000Z</time>
      </trkpt>
      <trkpt lat="43.34035" lon="5.6698">
        <ele>325</ele>
        <time>2019-01-18T08:41:24.000Z</time>
      </trkpt>
      <trkpt lat="43.34035" lon="5.6698">
        <ele>325</ele>
        <time>2019-01-18T08:41:25.000Z</time>
      </trkpt>
      <trkpt lat="43.34035" lon="5.6698">
        <ele>325</ele>
        <time>2019-01-18T08:41:26.000Z</time>
      </trkpt>
      <trkpt lat="43.34035" lon="5.6698">
        <ele>325</ele>
        <time>2019-01-18T08:41:27.000Z</time>
      </trkpt>
      <trkpt lat="43.34035" lon="5.6698">
        <ele>325</ele>
        <time>2019-01-18T08:41:28.000Z</time>
      </trkpt>
      <trkpt lat="43.34035" lon="5.6698">
        <ele>325</ele>
        <time>2019-01-18T08:41:29.000Z</time>
      </trkpt>
      <trkpt lat="43.34035" lon="5.6698">
        <ele>325</ele>
        <time>2019-01-18T08:41:30.000Z</time>
      </trkpt>
      <trkpt lat="43.34035" lon="5.66981">
        <ele>325</ele>
        <time>2019-01-18T08:41:31.000Z</time>
      </trkpt>
      <trkpt lat="43.34035" lon="5.6698">
        <ele>325</ele>
        <time>2019-01-18T08:41:32.000Z</time>
      </trkpt>
      <trkpt lat="43.34035" lon="5.6698">
        <ele>325</ele>
        <time>2019-01-18T08:41:33.000Z</time>
      </trkpt>
      <trkpt lat="43.34034" lon="5.6698">
        <ele>325</ele>
        <time>2019-01-18T08:41:34.000Z</time>
      </trkpt>
      <trkpt lat="43.34034" lon="5.6698">
        <ele>325</ele>
        <time>2019-01-18T08:41:35.000Z</time>
      </trkpt>
      <trkpt lat="43.34034" lon="5.6698">
        <ele>326</ele>
        <time>2019-01-18T08:41:36.000Z</time>
      </trkpt>
      <trkpt lat="43.34034" lon="5.6698">
        <ele>326</ele>
        <time>2019-01-18T08:41:37.000Z</time>
      </trkpt>
      <trkpt lat="43.34034" lon="5.6698">
        <ele>326</ele>
        <time>2019-01-18T08:41:38.000Z</time>
      </trkpt>
      <trkpt lat="43.34034" lon="5.6698">
        <ele>326</ele>
        <time>2019-01-18T08:41:39.000Z</time>
      </trkpt>
      <trkpt lat="43.34034" lon="5.6698">
        <ele>326</ele>
        <time>2019-01-18T08:41:40.000Z</time>
      </trkpt>
      <trkpt lat="43.34034" lon="5.66981">
        <ele>326</ele>
        <time>2019-01-18T08:41:41.000Z</time>
      </trkpt>
      <trkpt lat="43.34034" lon="5.66981">
        <ele>326</ele>
        <time>2019-01-18T08:41:42.000Z</time>
      </trkpt>
      <trkpt lat="43.34034" lon="5.66981">
        <ele>326</ele>
        <time>2019-01-18T08:41:43.000Z</time>
      </trkpt>
      <trkpt lat="43.34034" lon="5.66981">
        <ele>326</ele>
        <time>2019-01-18T08:41:44.000Z</time>
      </trkpt>
      <trkpt lat="43.34034" lon="5.66981">
        <ele>326</ele>
        <time>2019-01-18T08:41:45.000Z</time>
      </trkpt>
      <trkpt lat="43.34034" lon="5.66981">
        <ele>326</ele>
        <time>2019-01-18T08:41:46.000Z</time>
      </trkpt>
      <trkpt lat="43.34034" lon="5.6698">
        <ele>326</ele>
        <time>2019-01-18T08:41:47.000Z</time>
      </trkpt>
      <trkpt lat="43.34034" lon="5.6698">
        <ele>326</ele>
        <time>2019-01-18T08:41:48.000Z</time>
      </trkpt>
      <trkpt lat="43.34034" lon="5.6698">
        <ele>326</ele>
        <time>2019-01-18T08:41:49.000Z</time>
      </trkpt>
      <trkpt lat="43.34034" lon="5.6698">
        <ele>326</ele>
        <time>2019-01-18T08:41:50.000Z</time>
      </trkpt>
      <trkpt lat="43.34034" lon="5.6698">
        <ele>326</ele>
        <time>2019-01-18T08:41:51.000Z</time>
      </trkpt>
      <trkpt lat="43.34034" lon="5.6698">
        <ele>326</ele>
        <time>2019-01-18T08:41:52.000Z</time>
      </trkpt>
      <trkpt lat="43.34034" lon="5.6698">
        <ele>326</ele>
        <time>2019-01-18T08:41:53.000Z</time>
      </trkpt>
      <trkpt lat="43.34034" lon="5.66981">
        <ele>326</ele>
        <time>2019-01-18T08:41:54.000Z</time>
      </trkpt>
      <trkpt lat="43.34033" lon="5.66981">
        <ele>326</ele>
        <time>2019-01-18T08:41:55.000Z</time>
      </trkpt>
      <trkpt lat="43.34033" lon="5.66981">
        <ele>326</ele>
        <time>2019-01-18T08:41:56.000Z</time>
      </trkpt>
      <trkpt lat="43.34033" lon="5.66981">
        <ele>326</ele>
        <time>2019-01-18T08:41:57.000Z</time>
      </trkpt>
      <trkpt lat="43.34034" lon="5.66981">
        <ele>326</ele>
        <time>2019-01-18T08:41:58.000Z</time>
      </trkpt>
      <trkpt lat="43.34033" lon="5.66981">
        <ele>327</ele>
        <time>2019-01-18T08:41:59.000Z</time>
      </trkpt>
      <trkpt lat="43.34033" lon="5.66981">
        <ele>327</ele>
        <time>2019-01-18T08:42:00.000Z</time>
      </trkpt>
      <trkpt lat="43.34033" lon="5.66981">
        <ele>327</ele>
        <time>2019-01-18T08:42:01.000Z</time>
      </trkpt>
      <trkpt lat="43.34033" lon="5.66981">
        <ele>327</ele>
        <time>2019-01-18T08:42:02.000Z</time>
      </trkpt>
      <trkpt lat="43.34033" lon="5.66981">
        <ele>327</ele>
        <time>2019-01-18T08:42:03.000Z</time>
      </trkpt>
      <trkpt lat="43.34032" lon="5.66981">
        <ele>327</ele>
        <time>2019-01-18T08:42:04.000Z</time>
      </trkpt>
      <trkpt lat="43.34031" lon="5.66982">
        <ele>327</ele>
        <time>2019-01-18T08:42:05.000Z</time>
      </trkpt>
      <trkpt lat="43.34031" lon="5.66982">
        <ele>327</ele>
        <time>2019-01-18T08:42:06.000Z</time>
      </trkpt>
      <trkpt lat="43.3403" lon="5.66982">
        <ele>327</ele>
        <time>2019-01-18T08:42:07.000Z</time>
      </trkpt>
      <trkpt lat="43.3403" lon="5.66983">
        <ele>327</ele>
        <time>2019-01-18T08:42:08.000Z</time>
      </trkpt>
      <trkpt lat="43.34029" lon="5.66983">
        <ele>327</ele>
        <time>2019-01-18T08:42:09.000Z</time>
      </trkpt>
      <trkpt lat="43.34029" lon="5.66983">
        <ele>327</ele>
        <time>2019-01-18T08:42:10.000Z</time>
      </trkpt>
      <trkpt lat="43.34028" lon="5.66984">
        <ele>327</ele>
        <time>2019-01-18T08:42:11.000Z</time>
      </trkpt>
      <trkpt lat="43.34028" lon="5.66985">
        <ele>327</ele>
        <time>2019-01-18T08:42:12.000Z</time>
      </trkpt>
      <trkpt lat="43.34027" lon="5.66985">
        <ele>327</ele>
        <time>2019-01-18T08:42:13.000Z</time>
      </trkpt>
      <trkpt lat="43.34026" lon="5.66986">
        <ele>327</ele>
        <time>2019-01-18T08:42:14.000Z</time>
      </trkpt>
      <trkpt lat="43.34026" lon="5.66986">
        <ele>327</ele>
        <time>2019-01-18T08:42:15.000Z</time>
      </trkpt>
      <trkpt lat="43.34026" lon="5.66986">
        <ele>327</ele>
        <time>2019-01-18T08:42:16.000Z</time>
      </trkpt>
      <trkpt lat="43.34025" lon="5.66987">
        <ele>327</ele>
        <time>2019-01-18T08:42:17.000Z</time>
      </trkpt>
      <trkpt lat="43.34025" lon="5.66987">
        <ele>327</ele>
        <time>2019-01-18T08:42:18.000Z</time>
      </trkpt>
      <trkpt lat="43.34025" lon="5.66988">
        <ele>327</ele>
        <time>2019-01-18T08:42:19.000Z</time>
      </trkpt>
      <trkpt lat="43.34024" lon="5.66989">
        <ele>326</ele>
        <time>2019-01-18T08:42:20.000Z</time>
      </trkpt>
      <trkpt lat="43.34024" lon="5.66989">
        <ele>326</ele>
        <time>2019-01-18T08:42:21.000Z</time>
      </trkpt>
      <trkpt lat="43.34024" lon="5.66989">
        <ele>326</ele>
        <time>2019-01-18T08:42:22.000Z</time>
      </trkpt>
      <trkpt lat="43.34024" lon="5.66989">
        <ele>326</ele>
        <time>2019-01-18T08:42:23.000Z</time>
      </trkpt>
      <trkpt lat="43.34024" lon="5.66989">
        <ele>326</ele>
        <time>2019-01-18T08:42:24.000Z</time>
      </trkpt>
      <trkpt lat="43.34023" lon="5.6699">
        <ele>326</ele>
        <time>2019-01-18T08:42:25.000Z</time>
      </trkpt>
      <trkpt lat="43.34023" lon="5.6699">
        <ele>325</ele>
        <time>2019-01-18T08:42:26.000Z</time>
      </trkpt>
      <trkpt lat="43.34023" lon="5.6699">
        <ele>325</ele>
        <time>2019-01-18T08:42:27.000Z</time>
      </trkpt>
      <trkpt lat="43.34023" lon="5.6699">
        <ele>325</ele>
        <time>2019-01-18T08:42:28.000Z</time>
      </trkpt>
      <trkpt lat="43.34022" lon="5.6699">
        <ele>325</ele>
        <time>2019-01-18T08:42:29.000Z</time>
      </trkpt>
      <trkpt lat="43.34022" lon="5.6699">
        <ele>325</ele>
        <time>2019-01-18T08:42:30.000Z</time>
      </trkpt>
      <trkpt lat="43.34021" lon="5.6699">
        <ele>325</ele>
        <time>2019-01-18T08:42:31.000Z</time>
      </trkpt>
      <trkpt lat="43.3402" lon="5.66991">
        <ele>325</ele>
        <time>2019-01-18T08:42:32.000Z</time>
      </trkpt>
      <trkpt lat="43.3402" lon="5.66991">
        <ele>325</ele>
        <time>2019-01-18T08:42:33.000Z</time>
      </trkpt>
      <trkpt lat="43.34019" lon="5.66992">
        <ele>324</ele>
        <time>2019-01-18T08:42:34.000Z</time>
      </trkpt>
      <trkpt lat="43.34019" lon="5.66992">
        <ele>324</ele>
        <time>2019-01-18T08:42:35.000Z</time>
      </trkpt>
      <trkpt lat="43.34018" lon="5.66993">
        <ele>324</ele>
        <time>2019-01-18T08:42:36.000Z</time>
      </trkpt>
      <trkpt lat="43.34017" lon="5.66993">
        <ele>324</ele>
        <time>2019-01-18T08:42:37.000Z</time>
      </trkpt>
      <trkpt lat="43.34017" lon="5.66994">
        <ele>324</ele>
        <time>2019-01-18T08:42:38.000Z</time>
      </trkpt>
      <trkpt lat="43.34016" lon="5.66993">
        <ele>324</ele>
        <time>2019-01-18T08:42:39.000Z</time>
      </trkpt>
      <trkpt lat="43.34016" lon="5.66993">
        <ele>324</ele>
        <time>2019-01-18T08:42:40.000Z</time>
      </trkpt>
      <trkpt lat="43.34015" lon="5.66993">
        <ele>324</ele>
        <time>2019-01-18T08:42:41.000Z</time>
      </trkpt>
      <trkpt lat="43.34015" lon="5.66993">
        <ele>324</ele>
        <time>2019-01-18T08:42:42.000Z</time>
      </trkpt>
      <trkpt lat="43.34014" lon="5.66992">
        <ele>324</ele>
        <time>2019-01-18T08:42:43.000Z</time>
      </trkpt>
      <trkpt lat="43.34013" lon="5.66992">
        <ele>324</ele>
        <time>2019-01-18T08:42:44.000Z</time>
      </trkpt>
      <trkpt lat="43.34012" lon="5.66993">
        <ele>324</ele>
        <time>2019-01-18T08:42:45.000Z</time>
      </trkpt>
      <trkpt lat="43.34011" lon="5.66993">
        <ele>324</ele>
        <time>2019-01-18T08:42:46.000Z</time>
      </trkpt>
      <trkpt lat="43.3401" lon="5.66993">
        <ele>324</ele>
        <time>2019-01-18T08:42:47.000Z</time>
      </trkpt>
      <trkpt lat="43.3401" lon="5.66993">
        <ele>324</ele>
        <time>2019-01-18T08:42:48.000Z</time>
      </trkpt>
      <trkpt lat="43.34009" lon="5.66994">
        <ele>324</ele>
        <time>2019-01-18T08:42:49.000Z</time>
      </trkpt>
      <trkpt lat="43.34009" lon="5.66995">
        <ele>324</ele>
        <time>2019-01-18T08:42:50.000Z</time>
      </trkpt>
      <trkpt lat="43.34008" lon="5.66995">
        <ele>324</ele>
        <time>2019-01-18T08:42:51.000Z</time>
      </trkpt>
      <trkpt lat="43.34007" lon="5.66995">
        <ele>324</ele>
        <time>2019-01-18T08:42:52.000Z</time>
      </trkpt>
      <trkpt lat="43.34007" lon="5.66995">
        <ele>324</ele>
        <time>2019-01-18T08:42:53.000Z</time>
      </trkpt>
      <trkpt lat="43.34006" lon="5.66995">
        <ele>324</ele>
        <time>2019-01-18T08:42:54.000Z</time>
      </trkpt>
      <trkpt lat="43.34005" lon="5.66995">
        <ele>324</ele>
        <time>2019-01-18T08:42:55.000Z</time>
      </trkpt>
      <trkpt lat="43.34005" lon="5.66995">
        <ele>324</ele>
        <time>2019-01-18T08:42:56.000Z</time>
      </trkpt>
      <trkpt lat="43.34004" lon="5.66996">
        <ele>324</ele>
        <time>2019-01-18T08:42:57.000Z</time>
      </trkpt>
      <trkpt lat="43.34004" lon="5.66996">
        <ele>324</ele>
        <time>2019-01-18T08:42:58.000Z</time>
      </trkpt>
      <trkpt lat="43.34003" lon="5.66997">
        <ele>324</ele>
        <time>2019-01-18T08:42:59.000Z</time>
      </trkpt>
      <trkpt lat="43.34003" lon="5.66997">
        <ele>324</ele>
        <time>2019-01-18T08:43:00.000Z</time>
      </trkpt>
      <trkpt lat="43.34003" lon="5.66998">
        <ele>324</ele>
        <time>2019-01-18T08:43:01.000Z</time>
      </trkpt>
      <trkpt lat="43.34003" lon="5.66999">
        <ele>324</ele>
        <time>2019-01-18T08:43:02.000Z</time>
      </trkpt>
      <trkpt lat="43.34003" lon="5.67">
        <ele>325</ele>
        <time>2019-01-18T08:43:03.000Z</time>
      </trkpt>
      <trkpt lat="43.34003" lon="5.67001">
        <ele>325</ele>
        <time>2019-01-18T08:43:04.000Z</time>
      </trkpt>
      <trkpt lat="43.34003" lon="5.67002">
        <ele>325</ele>
        <time>2019-01-18T08:43:05.000Z</time>
      </trkpt>
      <trkpt lat="43.34002" lon="5.67002">
        <ele>325</ele>
        <time>2019-01-18T08:43:06.000Z</time>
      </trkpt>
      <trkpt lat="43.34002" lon="5.67003">
        <ele>325</ele>
        <time>2019-01-18T08:43:07.000Z</time>
      </trkpt>
      <trkpt lat="43.34002" lon="5.67004">
        <ele>325</ele>
        <time>2019-01-18T08:43:08.000Z</time>
      </trkpt>
      <trkpt lat="43.34001" lon="5.67004">
        <ele>325</ele>
        <time>2019-01-18T08:43:09.000Z</time>
      </trkpt>
      <trkpt lat="43.34001" lon="5.67004">
        <ele>325</ele>
        <time>2019-01-18T08:43:10.000Z</time>
      </trkpt>
      <trkpt lat="43.34001" lon="5.67004">
        <ele>325</ele>
        <time>2019-01-18T08:43:11.000Z</time>
      </trkpt>
      <trkpt lat="43.34001" lon="5.67005">
        <ele>325</ele>
        <time>2019-01-18T08:43:12.000Z</time>
      </trkpt>
      <trkpt lat="43.34001" lon="5.67005">
        <ele>325</ele>
        <time>2019-01-18T08:43:13.000Z</time>
      </trkpt>
      <trkpt lat="43.34001" lon="5.67006">
        <ele>324</ele>
        <time>2019-01-18T08:43:14.000Z</time>
      </trkpt>
      <trkpt lat="43.34" lon="5.67007">
        <ele>324</ele>
        <time>2019-01-18T08:43:15.000Z</time>
      </trkpt>
      <trkpt lat="43.33999" lon="5.67007">
        <ele>324</ele>
        <time>2019-01-18T08:43:16.000Z</time>
      </trkpt>
      <trkpt lat="43.33999" lon="5.67008">
        <ele>324</ele>
        <time>2019-01-18T08:43:17.000Z</time>
      </trkpt>
      <trkpt lat="43.33998" lon="5.67009">
        <ele>324</ele>
        <time>2019-01-18T08:43:18.000Z</time>
      </trkpt>
      <trkpt lat="43.33997" lon="5.67009">
        <ele>324</ele>
        <time>2019-01-18T08:43:19.000Z</time>
      </trkpt>
      <trkpt lat="43.33996" lon="5.67009">
        <ele>324</ele>
        <time>2019-01-18T08:43:20.000Z</time>
      </trkpt>
      <trkpt lat="43.33996" lon="5.6701">
        <ele>324</ele>
        <time>2019-01-18T08:43:21.000Z</time>
      </trkpt>
      <trkpt lat="43.33995" lon="5.6701">
        <ele>324</ele>
        <time>2019-01-18T08:43:22.000Z</time>
      </trkpt>
      <trkpt lat="43.33995" lon="5.6701">
        <ele>324</ele>
        <time>2019-01-18T08:43:23.000Z</time>
      </trkpt>
      <trkpt lat="43.33994" lon="5.67011">
        <ele>324</ele>
        <time>2019-01-18T08:43:24.000Z</time>
      </trkpt>
      <trkpt lat="43.33993" lon="5.67011">
        <ele>324</ele>
        <time>2019-01-18T08:43:25.000Z</time>
      </trkpt>
      <trkpt lat="43.33992" lon="5.67012">
        <ele>324</ele>
        <time>2019-01-18T08:43:26.000Z</time>
      </trkpt>
      <trkpt lat="43.33991" lon="5.67012">
        <ele>324</ele>
        <time>2019-01-18T08:43:27.000Z</time>
      </trkpt>
      <trkpt lat="43.3399" lon="5.67012">
        <ele>324</ele>
        <time>2019-01-18T08:43:28.000Z</time>
      </trkpt>
      <trkpt lat="43.33989" lon="5.67013">
        <ele>324</ele>
        <time>2019-01-18T08:43:29.000Z</time>
      </trkpt>
      <trkpt lat="43.33988" lon="5.67013">
        <ele>324</ele>
        <time>2019-01-18T08:43:30.000Z</time>
      </trkpt>
      <trkpt lat="43.33988" lon="5.67013">
        <ele>324</ele>
        <time>2019-01-18T08:43:31.000Z</time>
      </trkpt>
      <trkpt lat="43.33986" lon="5.67014">
        <ele>324</ele>
        <time>2019-01-18T08:43:32.000Z</time>
      </trkpt>
      <trkpt lat="43.33986" lon="5.67014">
        <ele>324</ele>
        <time>2019-01-18T08:43:33.000Z</time>
      </trkpt>
      <trkpt lat="43.33985" lon="5.67014">
        <ele>324</ele>
        <time>2019-01-18T08:43:34.000Z</time>
      </trkpt>
      <trkpt lat="43.33984" lon="5.67015">
        <ele>324</ele>
        <time>2019-01-18T08:43:35.000Z</time>
      </trkpt>
      <trkpt lat="43.33984" lon="5.67015">
        <ele>324</ele>
        <time>2019-01-18T08:43:36.000Z</time>
      </trkpt>
      <trkpt lat="43.33983" lon="5.67015">
        <ele>324</ele>
        <time>2019-01-18T08:43:37.000Z</time>
      </trkpt>
      <trkpt lat="43.33983" lon="5.67015">
        <ele>324</ele>
        <time>2019-01-18T08:43:38.000Z</time>
      </trkpt>
      <trkpt lat="43.33983" lon="5.67015">
        <ele>324</ele>
        <time>2019-01-18T08:43:39.000Z</time>
      </trkpt>
      <trkpt lat="43.33983" lon="5.67015">
        <ele>324</ele>
        <time>2019-01-18T08:43:40.000Z</time>
      </trkpt>
      <trkpt lat="43.33983" lon="5.67016">
        <ele>324</ele>
        <time>2019-01-18T08:43:41.000Z</time>
      </trkpt>
      <trkpt lat="43.33983" lon="5.67017">
        <ele>324</ele>
        <time>2019-01-18T08:43:42.000Z</time>
      </trkpt>
      <trkpt lat="43.33983" lon="5.67017">
        <ele>324</ele>
        <time>2019-01-18T08:43:43.000Z</time>
      </trkpt>
      <trkpt lat="43.33983" lon="5.67017">
        <ele>324</ele>
        <time>2019-01-18T08:43:44.000Z</time>
      </trkpt>
      <trkpt lat="43.33983" lon="5.67017">
        <ele>324</ele>
        <time>2019-01-18T08:43:45.000Z</time>
      </trkpt>
      <trkpt lat="43.33983" lon="5.67018">
        <ele>324</ele>
        <time>2019-01-18T08:43:46.000Z</time>
      </trkpt>
      <trkpt lat="43.33983" lon="5.67017">
        <ele>324</ele>
        <time>2019-01-18T08:43:47.000Z</time>
      </trkpt>
      <trkpt lat="43.33983" lon="5.67017">
        <ele>324</ele>
        <time>2019-01-18T08:43:48.000Z</time>
      </trkpt>
      <trkpt lat="43.33983" lon="5.67017">
        <ele>324</ele>
        <time>2019-01-18T08:43:49.000Z</time>
      </trkpt>
      <trkpt lat="43.33983" lon="5.67017">
        <ele>324</ele>
        <time>2019-01-18T08:43:50.000Z</time>
      </trkpt>
      <trkpt lat="43.33983" lon="5.67017">
        <ele>324</ele>
        <time>2019-01-18T08:43:51.000Z</time>
      </trkpt>
      <trkpt lat="43.33983" lon="5.67017">
        <ele>324</ele>
        <time>2019-01-18T08:43:52.000Z</time>
      </trkpt>
      <trkpt lat="43.33983" lon="5.67017">
        <ele>324</ele>
        <time>2019-01-18T08:43:53.000Z</time>
      </trkpt>
      <trkpt lat="43.33983" lon="5.67017">
        <ele>324</ele>
        <time>2019-01-18T08:43:54.000Z</time>
      </trkpt>
      <trkpt lat="43.33983" lon="5.67017">
        <ele>324</ele>
        <time>2019-01-18T08:43:55.000Z</time>
      </trkpt>
      <trkpt lat="43.33983" lon="5.67017">
        <ele>324</ele>
        <time>2019-01-18T08:43:56.000Z</time>
      </trkpt>
      <trkpt lat="43.33983" lon="5.67017">
        <ele>325</ele>
        <time>2019-01-18T08:43:57.000Z</time>
      </trkpt>
      <trkpt lat="43.33983" lon="5.67017">
        <ele>325</ele>
        <time>2019-01-18T08:43:58.000Z</time>
      </trkpt>
      <trkpt lat="43.33983" lon="5.67017">
        <ele>325</ele>
        <time>2019-01-18T08:43:59.000Z</time>
      </trkpt>
      <trkpt lat="43.33983" lon="5.67017">
        <ele>325</ele>
        <time>2019-01-18T08:44:00.000Z</time>
      </trkpt>
      <trkpt lat="43.33982" lon="5.67018">
        <ele>325</ele>
        <time>2019-01-18T08:44:01.000Z</time>
      </trkpt>
      <trkpt lat="43.33982" lon="5.67018">
        <ele>325</ele>
        <time>2019-01-18T08:44:02.000Z</time>
      </trkpt>
      <trkpt lat="43.33982" lon="5.67018">
        <ele>325</ele>
        <time>2019-01-18T08:44:03.000Z</time>
      </trkpt>
      <trkpt lat="43.33982" lon="5.67018">
        <ele>325</ele>
        <time>2019-01-18T08:44:04.000Z</time>
      </trkpt>
      <trkpt lat="43.33982" lon="5.67018">
        <ele>325</ele>
        <time>2019-01-18T08:44:05.000Z</time>
      </trkpt>
      <trkpt lat="43.33982" lon="5.67018">
        <ele>325</ele>
        <time>2019-01-18T08:44:06.000Z</time>
      </trkpt>
      <trkpt lat="43.33983" lon="5.67018">
        <ele>325</ele>
        <time>2019-01-18T08:44:07.000Z</time>
      </trkpt>
      <trkpt lat="43.33982" lon="5.67018">
        <ele>325</ele>
        <time>2019-01-18T08:44:08.000Z</time>
      </trkpt>
      <trkpt lat="43.33982" lon="5.67018">
        <ele>325</ele>
        <time>2019-01-18T08:44:09.000Z</time>
      </trkpt>
      <trkpt lat="43.33981" lon="5.67019">
        <ele>325</ele>
        <time>2019-01-18T08:44:10.000Z</time>
      </trkpt>
      <trkpt lat="43.3398" lon="5.67019">
        <ele>325</ele>
        <time>2019-01-18T08:44:11.000Z</time>
      </trkpt>
      <trkpt lat="43.33979" lon="5.67019">
        <ele>325</ele>
        <time>2019-01-18T08:44:12.000Z</time>
      </trkpt>
      <trkpt lat="43.33978" lon="5.6702">
        <ele>325</ele>
        <time>2019-01-18T08:44:13.000Z</time>
      </trkpt>
      <trkpt lat="43.33978" lon="5.6702">
        <ele>325</ele>
        <time>2019-01-18T08:44:14.000Z</time>
      </trkpt>
      <trkpt lat="43.33978" lon="5.67021">
        <ele>325</ele>
        <time>2019-01-18T08:44:15.000Z</time>
      </trkpt>
      <trkpt lat="43.33977" lon="5.67021">
        <ele>325</ele>
        <time>2019-01-18T08:44:16.000Z</time>
      </trkpt>
      <trkpt lat="43.33977" lon="5.67021">
        <ele>325</ele>
        <time>2019-01-18T08:44:17.000Z</time>
      </trkpt>
      <trkpt lat="43.33976" lon="5.67021">
        <ele>325</ele>
        <time>2019-01-18T08:44:18.000Z</time>
      </trkpt>
      <trkpt lat="43.33976" lon="5.67022">
        <ele>325</ele>
        <time>2019-01-18T08:44:19.000Z</time>
      </trkpt>
      <trkpt lat="43.33976" lon="5.67022">
        <ele>325</ele>
        <time>2019-01-18T08:44:20.000Z</time>
      </trkpt>
      <trkpt lat="43.33975" lon="5.67022">
        <ele>325</ele>
        <time>2019-01-18T08:44:21.000Z</time>
      </trkpt>
      <trkpt lat="43.33974" lon="5.67022">
        <ele>325</ele>
        <time>2019-01-18T08:44:22.000Z</time>
      </trkpt>
      <trkpt lat="43.33974" lon="5.67022">
        <ele>325</ele>
        <time>2019-01-18T08:44:23.000Z</time>
      </trkpt>
      <trkpt lat="43.33973" lon="5.67022">
        <ele>325</ele>
        <time>2019-01-18T08:44:24.000Z</time>
      </trkpt>
      <trkpt lat="43.33973" lon="5.67022">
        <ele>325</ele>
        <time>2019-01-18T08:44:25.000Z</time>
      </trkpt>
      <trkpt lat="43.33973" lon="5.67021">
        <ele>325</ele>
        <time>2019-01-18T08:44:26.000Z</time>
      </trkpt>
      <trkpt lat="43.33972" lon="5.67021">
        <ele>325</ele>
        <time>2019-01-18T08:44:27.000Z</time>
      </trkpt>
      <trkpt lat="43.33972" lon="5.67021">
        <ele>325</ele>
        <time>2019-01-18T08:44:28.000Z</time>
      </trkpt>
      <trkpt lat="43.33971" lon="5.67022">
        <ele>325</ele>
        <time>2019-01-18T08:44:29.000Z</time>
      </trkpt>
      <trkpt lat="43.33971" lon="5.67022">
        <ele>326</ele>
        <time>2019-01-18T08:44:30.000Z</time>
      </trkpt>
      <trkpt lat="43.3397" lon="5.67023">
        <ele>325</ele>
        <time>2019-01-18T08:44:31.000Z</time>
      </trkpt>
      <trkpt lat="43.33969" lon="5.67023">
        <ele>325</ele>
        <time>2019-01-18T08:44:32.000Z</time>
      </trkpt>
      <trkpt lat="43.33969" lon="5.67024">
        <ele>325</ele>
        <time>2019-01-18T08:44:33.000Z</time>
      </trkpt>
      <trkpt lat="43.33968" lon="5.67025">
        <ele>325</ele>
        <time>2019-01-18T08:44:34.000Z</time>
      </trkpt>
      <trkpt lat="43.33968" lon="5.67025">
        <ele>325</ele>
        <time>2019-01-18T08:44:35.000Z</time>
      </trkpt>
      <trkpt lat="43.33968" lon="5.67025">
        <ele>325</ele>
        <time>2019-01-18T08:44:36.000Z</time>
      </trkpt>
      <trkpt lat="43.33967" lon="5.67025">
        <ele>325</ele>
        <time>2019-01-18T08:44:37.000Z</time>
      </trkpt>
      <trkpt lat="43.33967" lon="5.67025">
        <ele>325</ele>
        <time>2019-01-18T08:44:38.000Z</time>
      </trkpt>
      <trkpt lat="43.33966" lon="5.67025">
        <ele>325</ele>
        <time>2019-01-18T08:44:39.000Z</time>
      </trkpt>
      <trkpt lat="43.33965" lon="5.67026">
        <ele>325</ele>
        <time>2019-01-18T08:44:40.000Z</time>
      </trkpt>
      <trkpt lat="43.33964" lon="5.67027">
        <ele>325</ele>
        <time>2019-01-18T08:44:41.000Z</time>
      </trkpt>
      <trkpt lat="43.33964" lon="5.67027">
        <ele>325</ele>
        <time>2019-01-18T08:44:42.000Z</time>
      </trkpt>
      <trkpt lat="43.33964" lon="5.67027">
        <ele>325</ele>
        <time>2019-01-18T08:44:43.000Z</time>
      </trkpt>
      <trkpt lat="43.33964" lon="5.67027">
        <ele>325</ele>
        <time>2019-01-18T08:44:44.000Z</time>
      </trkpt>
      <trkpt lat="43.33963" lon="5.67028">
        <ele>325</ele>
        <time>2019-01-18T08:44:45.000Z</time>
      </trkpt>
      <trkpt lat="43.33963" lon="5.6703">
        <ele>325</ele>
        <time>2019-01-18T08:44:46.000Z</time>
      </trkpt>
      <trkpt lat="43.33962" lon="5.67031">
        <ele>325</ele>
        <time>2019-01-18T08:44:47.000Z</time>
      </trkpt>
      <trkpt lat="43.33961" lon="5.67032">
        <ele>326</ele>
        <time>2019-01-18T08:44:48.000Z</time>
      </trkpt>
      <trkpt lat="43.33961" lon="5.67033">
        <ele>326</ele>
        <time>2019-01-18T08:44:49.000Z</time>
      </trkpt>
      <trkpt lat="43.3396" lon="5.67034">
        <ele>326</ele>
        <time>2019-01-18T08:44:50.000Z</time>
      </trkpt>
      <trkpt lat="43.3396" lon="5.67035">
        <ele>326</ele>
        <time>2019-01-18T08:44:51.000Z</time>
      </trkpt>
      <trkpt lat="43.33959" lon="5.67035">
        <ele>326</ele>
        <time>2019-01-18T08:44:52.000Z</time>
      </trkpt>
      <trkpt lat="43.33959" lon="5.67036">
        <ele>326</ele>
        <time>2019-01-18T08:44:53.000Z</time>
      </trkpt>
      <trkpt lat="43.33959" lon="5.67036">
        <ele>326</ele>
        <time>2019-01-18T08:44:54.000Z</time>
      </trkpt>
      <trkpt lat="43.33958" lon="5.67036">
        <ele>326</ele>
        <time>2019-01-18T08:44:55.000Z</time>
      </trkpt>
      <trkpt lat="43.33958" lon="5.67036">
        <ele>326</ele>
        <time>2019-01-18T08:44:56.000Z</time>
      </trkpt>
      <trkpt lat="43.33958" lon="5.67037">
        <ele>327</ele>
        <time>2019-01-18T08:44:57.000Z</time>
      </trkpt>
      <trkpt lat="43.33958" lon="5.67037">
        <ele>327</ele>
        <time>2019-01-18T08:44:58.000Z</time>
      </trkpt>
      <trkpt lat="43.33959" lon="5.67039">
        <ele>327</ele>
        <time>2019-01-18T08:44:59.000Z</time>
      </trkpt>
      <trkpt lat="43.33958" lon="5.6704">
        <ele>327</ele>
        <time>2019-01-18T08:45:00.000Z</time>
      </trkpt>
      <trkpt lat="43.33958" lon="5.67041">
        <ele>327</ele>
        <time>2019-01-18T08:45:01.000Z</time>
      </trkpt>
      <trkpt lat="43.33958" lon="5.67042">
        <ele>327</ele>
        <time>2019-01-18T08:45:02.000Z</time>
      </trkpt>
      <trkpt lat="43.33958" lon="5.67043">
        <ele>327</ele>
        <time>2019-01-18T08:45:03.000Z</time>
      </trkpt>
      <trkpt lat="43.33958" lon="5.67043">
        <ele>327</ele>
        <time>2019-01-18T08:45:04.000Z</time>
      </trkpt>
      <trkpt lat="43.33958" lon="5.67043">
        <ele>328</ele>
        <time>2019-01-18T08:45:05.000Z</time>
      </trkpt>
      <trkpt lat="43.33957" lon="5.67044">
        <ele>328</ele>
        <time>2019-01-18T08:45:06.000Z</time>
      </trkpt>
      <trkpt lat="43.33958" lon="5.67045">
        <ele>328</ele>
        <time>2019-01-18T08:45:07.000Z</time>
      </trkpt>
      <trkpt lat="43.33957" lon="5.67045">
        <ele>328</ele>
        <time>2019-01-18T08:45:08.000Z</time>
      </trkpt>
      <trkpt lat="43.33958" lon="5.67046">
        <ele>328</ele>
        <time>2019-01-18T08:45:09.000Z</time>
      </trkpt>
      <trkpt lat="43.33958" lon="5.67047">
        <ele>328</ele>
        <time>2019-01-18T08:45:10.000Z</time>
      </trkpt>
      <trkpt lat="43.33958" lon="5.67048">
        <ele>328</ele>
        <time>2019-01-18T08:45:11.000Z</time>
      </trkpt>
      <trkpt lat="43.33958" lon="5.67048">
        <ele>328</ele>
        <time>2019-01-18T08:45:12.000Z</time>
      </trkpt>
      <trkpt lat="43.33958" lon="5.67048">
        <ele>329</ele>
        <time>2019-01-18T08:45:13.000Z</time>
      </trkpt>
      <trkpt lat="43.33958" lon="5.67048">
        <ele>329</ele>
        <time>2019-01-18T08:45:14.000Z</time>
      </trkpt>
      <trkpt lat="43.33958" lon="5.67049">
        <ele>329</ele>
        <time>2019-01-18T08:45:15.000Z</time>
      </trkpt>
      <trkpt lat="43.33958" lon="5.67049">
        <ele>329</ele>
        <time>2019-01-18T08:45:16.000Z</time>
      </trkpt>
      <trkpt lat="43.33958" lon="5.67049">
        <ele>329</ele>
        <time>2019-01-18T08:45:17.000Z</time>
      </trkpt>
      <trkpt lat="43.33958" lon="5.67049">
        <ele>330</ele>
        <time>2019-01-18T08:45:18.000Z</time>
      </trkpt>
      <trkpt lat="43.33958" lon="5.67049">
        <ele>330</ele>
        <time>2019-01-18T08:45:19.000Z</time>
      </trkpt>
      <trkpt lat="43.33958" lon="5.67049">
        <ele>330</ele>
        <time>2019-01-18T08:45:20.000Z</time>
      </trkpt>
      <trkpt lat="43.33958" lon="5.67049">
        <ele>330</ele>
        <time>2019-01-18T08:45:21.000Z</time>
      </trkpt>
      <trkpt lat="43.33958" lon="5.67049">
        <ele>330</ele>
        <time>2019-01-18T08:45:22.000Z</time>
      </trkpt>
      <trkpt lat="43.33958" lon="5.67049">
        <ele>330</ele>
        <time>2019-01-18T08:45:23.000Z</time>
      </trkpt>
      <trkpt lat="43.33958" lon="5.67049">
        <ele>330</ele>
        <time>2019-01-18T08:45:24.000Z</time>
      </trkpt>
      <trkpt lat="43.33958" lon="5.67049">
        <ele>330</ele>
        <time>2019-01-18T08:45:25.000Z</time>
      </trkpt>
      <trkpt lat="43.33958" lon="5.67049">
        <ele>331</ele>
        <time>2019-01-18T08:45:26.000Z</time>
      </trkpt>
      <trkpt lat="43.33958" lon="5.67049">
        <ele>331</ele>
        <time>2019-01-18T08:45:27.000Z</time>
      </trkpt>
      <trkpt lat="43.33958" lon="5.67049">
        <ele>331</ele>
        <time>2019-01-18T08:45:28.000Z</time>
      </trkpt>
      <trkpt lat="43.33958" lon="5.67049">
        <ele>331</ele>
        <time>2019-01-18T08:45:29.000Z</time>
      </trkpt>
      <trkpt lat="43.33958" lon="5.67049">
        <ele>331</ele>
        <time>2019-01-18T08:45:30.000Z</time>
      </trkpt>
      <trkpt lat="43.33958" lon="5.67049">
        <ele>331</ele>
        <time>2019-01-18T08:45:31.000Z</time>
      </trkpt>
      <trkpt lat="43.33958" lon="5.67049">
        <ele>331</ele>
        <time>2019-01-18T08:45:32.000Z</time>
      </trkpt>
      <trkpt lat="43.33958" lon="5.6705">
        <ele>331</ele>
        <time>2019-01-18T08:45:33.000Z</time>
      </trkpt>
      <trkpt lat="43.33958" lon="5.6705">
        <ele>331</ele>
        <time>2019-01-18T08:45:34.000Z</time>
      </trkpt>
      <trkpt lat="43.33958" lon="5.6705">
        <ele>331</ele>
        <time>2019-01-18T08:45:35.000Z</time>
      </trkpt>
      <trkpt lat="43.33958" lon="5.6705">
        <ele>331</ele>
        <time>2019-01-18T08:45:36.000Z</time>
      </trkpt>
      <trkpt lat="43.33958" lon="5.6705">
        <ele>331</ele>
        <time>2019-01-18T08:45:37.000Z</time>
      </trkpt>
      <trkpt lat="43.33958" lon="5.6705">
        <ele>331</ele>
        <time>2019-01-18T08:45:38.000Z</time>
      </trkpt>
      <trkpt lat="43.33958" lon="5.6705">
        <ele>331</ele>
        <time>2019-01-18T08:45:39.000Z</time>
      </trkpt>
      <trkpt lat="43.33958" lon="5.6705">
        <ele>331</ele>
        <time>2019-01-18T08:45:40.000Z</time>
      </trkpt>
      <trkpt lat="43.33958" lon="5.6705">
        <ele>331</ele>
        <time>2019-01-18T08:45:41.000Z</time>
      </trkpt>
      <trkpt lat="43.33958" lon="5.6705">
        <ele>331</ele>
        <time>2019-01-18T08:45:42.000Z</time>
      </trkpt>
      <trkpt lat="43.33958" lon="5.6705">
        <ele>331</ele>
        <time>2019-01-18T08:45:43.000Z</time>
      </trkpt>
      <trkpt lat="43.33958" lon="5.6705">
        <ele>331</ele>
        <time>2019-01-18T08:45:44.000Z</time>
      </trkpt>
      <trkpt lat="43.33958" lon="5.6705">
        <ele>331</ele>
        <time>2019-01-18T08:45:45.000Z</time>
      </trkpt>
      <trkpt lat="43.33958" lon="5.6705">
        <ele>331</ele>
        <time>2019-01-18T08:45:46.000Z</time>
      </trkpt>
      <trkpt lat="43.33958" lon="5.6705">
        <ele>331</ele>
        <time>2019-01-18T08:45:47.000Z</time>
      </trkpt>
      <trkpt lat="43.33958" lon="5.6705">
        <ele>331</ele>
        <time>2019-01-18T08:45:48.000Z</time>
      </trkpt>
      <trkpt lat="43.33958" lon="5.6705">
        <ele>331</ele>
        <time>2019-01-18T08:45:49.000Z</time>
      </trkpt>
      <trkpt lat="43.33958" lon="5.6705">
        <ele>331</ele>
        <time>2019-01-18T08:45:50.000Z</time>
      </trkpt>
      <trkpt lat="43.33958" lon="5.6705">
        <ele>331</ele>
        <time>2019-01-18T08:45:51.000Z</time>
      </trkpt>
      <trkpt lat="43.33958" lon="5.6705">
        <ele>331</ele>
        <time>2019-01-18T08:45:52.000Z</time>
      </trkpt>
      <trkpt lat="43.33958" lon="5.6705">
        <ele>331</ele>
        <time>2019-01-18T08:45:53.000Z</time>
      </trkpt>
      <trkpt lat="43.33958" lon="5.6705">
        <ele>331</ele>
        <time>2019-01-18T08:45:54.000Z</time>
      </trkpt>
      <trkpt lat="43.33958" lon="5.6705">
        <ele>331</ele>
        <time>2019-01-18T08:45:55.000Z</time>
      </trkpt>
      <trkpt lat="43.33958" lon="5.6705">
        <ele>331</ele>
        <time>2019-01-18T08:45:56.000Z</time>
      </trkpt>
      <trkpt lat="43.33958" lon="5.6705">
        <ele>331</ele>
        <time>2019-01-18T08:45:57.000Z</time>
      </trkpt>
      <trkpt lat="43.33958" lon="5.6705">
        <ele>331</ele>
        <time>2019-01-18T08:45:58.000Z</time>
      </trkpt>
      <trkpt lat="43.33958" lon="5.6705">
        <ele>331</ele>
        <time>2019-01-18T08:45:59.000Z</time>
      </trkpt>
      <trkpt lat="43.33958" lon="5.6705">
        <ele>331</ele>
        <time>2019-01-18T08:46:00.000Z</time>
      </trkpt>
      <trkpt lat="43.33958" lon="5.6705">
        <ele>331</ele>
        <time>2019-01-18T08:46:01.000Z</time>
      </trkpt>
      <trkpt lat="43.33958" lon="5.6705">
        <ele>331</ele>
        <time>2019-01-18T08:46:02.000Z</time>
      </trkpt>
      <trkpt lat="43.33958" lon="5.6705">
        <ele>331</ele>
        <time>2019-01-18T08:46:03.000Z</time>
      </trkpt>
      <trkpt lat="43.33958" lon="5.6705">
        <ele>331</ele>
        <time>2019-01-18T08:46:04.000Z</time>
      </trkpt>
      <trkpt lat="43.33958" lon="5.6705">
        <ele>332</ele>
        <time>2019-01-18T08:46:05.000Z</time>
      </trkpt>
      <trkpt lat="43.33958" lon="5.6705">
        <ele>332</ele>
        <time>2019-01-18T08:46:06.000Z</time>
      </trkpt>
      <trkpt lat="43.33958" lon="5.6705">
        <ele>332</ele>
        <time>2019-01-18T08:46:07.000Z</time>
      </trkpt>
      <trkpt lat="43.33958" lon="5.6705">
        <ele>332</ele>
        <time>2019-01-18T08:46:08.000Z</time>
      </trkpt>
      <trkpt lat="43.33958" lon="5.6705">
        <ele>332</ele>
        <time>2019-01-18T08:46:09.000Z</time>
      </trkpt>
      <trkpt lat="43.33958" lon="5.6705">
        <ele>332</ele>
        <time>2019-01-18T08:46:10.000Z</time>
      </trkpt>
      <trkpt lat="43.33958" lon="5.6705">
        <ele>332</ele>
        <time>2019-01-18T08:46:11.000Z</time>
      </trkpt>
      <trkpt lat="43.33958" lon="5.6705">
        <ele>332</ele>
        <time>2019-01-18T08:46:12.000Z</time>
      </trkpt>
      <trkpt lat="43.33958" lon="5.6705">
        <ele>332</ele>
        <time>2019-01-18T08:46:13.000Z</time>
      </trkpt>
      <trkpt lat="43.33958" lon="5.6705">
        <ele>332</ele>
        <time>2019-01-18T08:46:14.000Z</time>
      </trkpt>
      <trkpt lat="43.33958" lon="5.6705">
        <ele>332</ele>
        <time>2019-01-18T08:46:15.000Z</time>
      </trkpt>
      <trkpt lat="43.33958" lon="5.6705">
        <ele>332</ele>
        <time>2019-01-18T08:46:16.000Z</time>
      </trkpt>
      <trkpt lat="43.33958" lon="5.6705">
        <ele>332</ele>
        <time>2019-01-18T08:46:17.000Z</time>
      </trkpt>
      <trkpt lat="43.33958" lon="5.6705">
        <ele>332</ele>
        <time>2019-01-18T08:46:18.000Z</time>
      </trkpt>
      <trkpt lat="43.33958" lon="5.6705">
        <ele>332</ele>
        <time>2019-01-18T08:46:19.000Z</time>
      </trkpt>
      <trkpt lat="43.33958" lon="5.6705">
        <ele>332</ele>
        <time>2019-01-18T08:46:20.000Z</time>
      </trkpt>
      <trkpt lat="43.33958" lon="5.6705">
        <ele>332</ele>
        <time>2019-01-18T08:46:21.000Z</time>
      </trkpt>
      <trkpt lat="43.33958" lon="5.6705">
        <ele>332</ele>
        <time>2019-01-18T08:46:22.000Z</time>
      </trkpt>
      <trkpt lat="43.33958" lon="5.6705">
        <ele>332</ele>
        <time>2019-01-18T08:46:23.000Z</time>
      </trkpt>
      <trkpt lat="43.33958" lon="5.6705">
        <ele>332</ele>
        <time>2019-01-18T08:46:24.000Z</time>
      </trkpt>
      <trkpt lat="43.33958" lon="5.6705">
        <ele>332</ele>
        <time>2019-01-18T08:46:25.000Z</time>
      </trkpt>
      <trkpt lat="43.33958" lon="5.6705">
        <ele>332</ele>
        <time>2019-01-18T08:46:26.000Z</time>
      </trkpt>
      <trkpt lat="43.33958" lon="5.6705">
        <ele>332</ele>
        <time>2019-01-18T08:46:27.000Z</time>
      </trkpt>
      <trkpt lat="43.33958" lon="5.6705">
        <ele>332</ele>
        <time>2019-01-18T08:46:28.000Z</time>
      </trkpt>
      <trkpt lat="43.33958" lon="5.6705">
        <ele>332</ele>
        <time>2019-01-18T08:46:29.000Z</time>
      </trkpt>
      <trkpt lat="43.33958" lon="5.6705">
        <ele>332</ele>
        <time>2019-01-18T08:46:30.000Z</time>
      </trkpt>
      <trkpt lat="43.33958" lon="5.6705">
        <ele>332</ele>
        <time>2019-01-18T08:46:31.000Z</time>
      </trkpt>
      <trkpt lat="43.33958" lon="5.6705">
        <ele>332</ele>
        <time>2019-01-18T08:46:32.000Z</time>
      </trkpt>
      <trkpt lat="43.33958" lon="5.6705">
        <ele>332</ele>
        <time>2019-01-18T08:46:33.000Z</time>
      </trkpt>
      <trkpt lat="43.33958" lon="5.6705">
        <ele>332</ele>
        <time>2019-01-18T08:46:34.000Z</time>
      </trkpt>
      <trkpt lat="43.33958" lon="5.6705">
        <ele>332</ele>
        <time>2019-01-18T08:46:35.000Z</time>
      </trkpt>
      <trkpt lat="43.33958" lon="5.6705">
        <ele>332</ele>
        <time>2019-01-18T08:46:36.000Z</time>
      </trkpt>
      <trkpt lat="43.33958" lon="5.6705">
        <ele>332</ele>
        <time>2019-01-18T08:46:37.000Z</time>
      </trkpt>
      <trkpt lat="43.33958" lon="5.6705">
        <ele>332</ele>
        <time>2019-01-18T08:46:38.000Z</time>
      </trkpt>
      <trkpt lat="43.33958" lon="5.6705">
        <ele>332</ele>
        <time>2019-01-18T08:46:39.000Z</time>
      </trkpt>
      <trkpt lat="43.33958" lon="5.6705">
        <ele>332</ele>
        <time>2019-01-18T08:46:40.000Z</time>
      </trkpt>
      <trkpt lat="43.33958" lon="5.67051">
        <ele>332</ele>
        <time>2019-01-18T08:46:41.000Z</time>
      </trkpt>
      <trkpt lat="43.33959" lon="5.67052">
        <ele>332</ele>
        <time>2019-01-18T08:46:42.000Z</time>
      </trkpt>
      <trkpt lat="43.33959" lon="5.67053">
        <ele>332</ele>
        <time>2019-01-18T08:46:43.000Z</time>
      </trkpt>
      <trkpt lat="43.33959" lon="5.67055">
        <ele>332</ele>
        <time>2019-01-18T08:46:44.000Z</time>
      </trkpt>
      <trkpt lat="43.33959" lon="5.67056">
        <ele>332</ele>
        <time>2019-01-18T08:46:45.000Z</time>
      </trkpt>
      <trkpt lat="43.33958" lon="5.67057">
        <ele>332</ele>
        <time>2019-01-18T08:46:46.000Z</time>
      </trkpt>
      <trkpt lat="43.33958" lon="5.67058">
        <ele>332</ele>
        <time>2019-01-18T08:46:47.000Z</time>
      </trkpt>
      <trkpt lat="43.33958" lon="5.67059">
        <ele>331</ele>
        <time>2019-01-18T08:46:48.000Z</time>
      </trkpt>
      <trkpt lat="43.33958" lon="5.67059">
        <ele>331</ele>
        <time>2019-01-18T08:46:49.000Z</time>
      </trkpt>
      <trkpt lat="43.33957" lon="5.6706">
        <ele>331</ele>
        <time>2019-01-18T08:46:50.000Z</time>
      </trkpt>
      <trkpt lat="43.33957" lon="5.67062">
        <ele>331</ele>
        <time>2019-01-18T08:46:51.000Z</time>
      </trkpt>
      <trkpt lat="43.33957" lon="5.67063">
        <ele>331</ele>
        <time>2019-01-18T08:46:52.000Z</time>
      </trkpt>
      <trkpt lat="43.33956" lon="5.67064">
        <ele>331</ele>
        <time>2019-01-18T08:46:53.000Z</time>
      </trkpt>
      <trkpt lat="43.33956" lon="5.67065">
        <ele>331</ele>
        <time>2019-01-18T08:46:54.000Z</time>
      </trkpt>
      <trkpt lat="43.33955" lon="5.67066">
        <ele>331</ele>
        <time>2019-01-18T08:46:55.000Z</time>
      </trkpt>
      <trkpt lat="43.33955" lon="5.67067">
        <ele>331</ele>
        <time>2019-01-18T08:46:56.000Z</time>
      </trkpt>
      <trkpt lat="43.33955" lon="5.67068">
        <ele>331</ele>
        <time>2019-01-18T08:46:57.000Z</time>
      </trkpt>
      <trkpt lat="43.33955" lon="5.67069">
        <ele>331</ele>
        <time>2019-01-18T08:46:58.000Z</time>
      </trkpt>
      <trkpt lat="43.33954" lon="5.67069">
        <ele>331</ele>
        <time>2019-01-18T08:46:59.000Z</time>
      </trkpt>
      <trkpt lat="43.33954" lon="5.6707">
        <ele>331</ele>
        <time>2019-01-18T08:47:00.000Z</time>
      </trkpt>
      <trkpt lat="43.33954" lon="5.67071">
        <ele>331</ele>
        <time>2019-01-18T08:47:01.000Z</time>
      </trkpt>
      <trkpt lat="43.33954" lon="5.67072">
        <ele>331</ele>
        <time>2019-01-18T08:47:02.000Z</time>
      </trkpt>
      <trkpt lat="43.33954" lon="5.67073">
        <ele>331</ele>
        <time>2019-01-18T08:47:03.000Z</time>
      </trkpt>
      <trkpt lat="43.33954" lon="5.67072">
        <ele>331</ele>
        <time>2019-01-18T08:47:04.000Z</time>
      </trkpt>
      <trkpt lat="43.33954" lon="5.67073">
        <ele>331</ele>
        <time>2019-01-18T08:47:05.000Z</time>
      </trkpt>
      <trkpt lat="43.33953" lon="5.67073">
        <ele>331</ele>
        <time>2019-01-18T08:47:06.000Z</time>
      </trkpt>
      <trkpt lat="43.33954" lon="5.67073">
        <ele>331</ele>
        <time>2019-01-18T08:47:07.000Z</time>
      </trkpt>
      <trkpt lat="43.33953" lon="5.67073">
        <ele>331</ele>
        <time>2019-01-18T08:47:08.000Z</time>
      </trkpt>
      <trkpt lat="43.33953" lon="5.67073">
        <ele>331</ele>
        <time>2019-01-18T08:47:09.000Z</time>
      </trkpt>
      <trkpt lat="43.33953" lon="5.67074">
        <ele>331</ele>
        <time>2019-01-18T08:47:10.000Z</time>
      </trkpt>
      <trkpt lat="43.33953" lon="5.67074">
        <ele>331</ele>
        <time>2019-01-18T08:47:11.000Z</time>
      </trkpt>
      <trkpt lat="43.33952" lon="5.67074">
        <ele>331</ele>
        <time>2019-01-18T08:47:12.000Z</time>
      </trkpt>
      <trkpt lat="43.33951" lon="5.67074">
        <ele>331</ele>
        <time>2019-01-18T08:47:13.000Z</time>
      </trkpt>
      <trkpt lat="43.33951" lon="5.67075">
        <ele>331</ele>
        <time>2019-01-18T08:47:14.000Z</time>
      </trkpt>
      <trkpt lat="43.33951" lon="5.67075">
        <ele>331</ele>
        <time>2019-01-18T08:47:15.000Z</time>
      </trkpt>
      <trkpt lat="43.3395" lon="5.67076">
        <ele>331</ele>
        <time>2019-01-18T08:47:16.000Z</time>
      </trkpt>
      <trkpt lat="43.3395" lon="5.67076">
        <ele>331</ele>
        <time>2019-01-18T08:47:17.000Z</time>
      </trkpt>
      <trkpt lat="43.33949" lon="5.67077">
        <ele>331</ele>
        <time>2019-01-18T08:47:18.000Z</time>
      </trkpt>
      <trkpt lat="43.33949" lon="5.67078">
        <ele>331</ele>
        <time>2019-01-18T08:47:19.000Z</time>
      </trkpt>
      <trkpt lat="43.33949" lon="5.67078">
        <ele>331</ele>
        <time>2019-01-18T08:47:20.000Z</time>
      </trkpt>
      <trkpt lat="43.33949" lon="5.67079">
        <ele>331</ele>
        <time>2019-01-18T08:47:21.000Z</time>
      </trkpt>
      <trkpt lat="43.33949" lon="5.6708">
        <ele>331</ele>
        <time>2019-01-18T08:47:22.000Z</time>
      </trkpt>
      <trkpt lat="43.33949" lon="5.67081">
        <ele>331</ele>
        <time>2019-01-18T08:47:23.000Z</time>
      </trkpt>
      <trkpt lat="43.33949" lon="5.67082">
        <ele>331</ele>
        <time>2019-01-18T08:47:24.000Z</time>
      </trkpt>
      <trkpt lat="43.33949" lon="5.67083">
        <ele>331</ele>
        <time>2019-01-18T08:47:25.000Z</time>
      </trkpt>
      <trkpt lat="43.33949" lon="5.67084">
        <ele>331</ele>
        <time>2019-01-18T08:47:26.000Z</time>
      </trkpt>
      <trkpt lat="43.33949" lon="5.67085">
        <ele>331</ele>
        <time>2019-01-18T08:47:27.000Z</time>
      </trkpt>
      <trkpt lat="43.33949" lon="5.67087">
        <ele>331</ele>
        <time>2019-01-18T08:47:28.000Z</time>
      </trkpt>
      <trkpt lat="43.33949" lon="5.67088">
        <ele>331</ele>
        <time>2019-01-18T08:47:29.000Z</time>
      </trkpt>
      <trkpt lat="43.33949" lon="5.67089">
        <ele>331</ele>
        <time>2019-01-18T08:47:30.000Z</time>
      </trkpt>
      <trkpt lat="43.33948" lon="5.6709">
        <ele>330</ele>
        <time>2019-01-18T08:47:31.000Z</time>
      </trkpt>
      <trkpt lat="43.33947" lon="5.6709">
        <ele>330</ele>
        <time>2019-01-18T08:47:32.000Z</time>
      </trkpt>
      <trkpt lat="43.33947" lon="5.6709">
        <ele>330</ele>
        <time>2019-01-18T08:47:33.000Z</time>
      </trkpt>
      <trkpt lat="43.33946" lon="5.67091">
        <ele>330</ele>
        <time>2019-01-18T08:47:34.000Z</time>
      </trkpt>
      <trkpt lat="43.33946" lon="5.67091">
        <ele>330</ele>
        <time>2019-01-18T08:47:35.000Z</time>
      </trkpt>
      <trkpt lat="43.33946" lon="5.67091">
        <ele>330</ele>
        <time>2019-01-18T08:47:36.000Z</time>
      </trkpt>
      <trkpt lat="43.33945" lon="5.67092">
        <ele>330</ele>
        <time>2019-01-18T08:47:37.000Z</time>
      </trkpt>
      <trkpt lat="43.33945" lon="5.67093">
        <ele>330</ele>
        <time>2019-01-18T08:47:38.000Z</time>
      </trkpt>
      <trkpt lat="43.33944" lon="5.67093">
        <ele>330</ele>
        <time>2019-01-18T08:47:39.000Z</time>
      </trkpt>
      <trkpt lat="43.33944" lon="5.67093">
        <ele>330</ele>
        <time>2019-01-18T08:47:40.000Z</time>
      </trkpt>
      <trkpt lat="43.33944" lon="5.67093">
        <ele>330</ele>
        <time>2019-01-18T08:47:41.000Z</time>
      </trkpt>
      <trkpt lat="43.33945" lon="5.67093">
        <ele>330</ele>
        <time>2019-01-18T08:47:42.000Z</time>
      </trkpt>
      <trkpt lat="43.33944" lon="5.67094">
        <ele>330</ele>
        <time>2019-01-18T08:47:43.000Z</time>
      </trkpt>
      <trkpt lat="43.33944" lon="5.67095">
        <ele>330</ele>
        <time>2019-01-18T08:47:44.000Z</time>
      </trkpt>
      <trkpt lat="43.33944" lon="5.67096">
        <ele>330</ele>
        <time>2019-01-18T08:47:45.000Z</time>
      </trkpt>
      <trkpt lat="43.33944" lon="5.67097">
        <ele>330</ele>
        <time>2019-01-18T08:47:46.000Z</time>
      </trkpt>
      <trkpt lat="43.33944" lon="5.67098">
        <ele>330</ele>
        <time>2019-01-18T08:47:47.000Z</time>
      </trkpt>
      <trkpt lat="43.33944" lon="5.67099">
        <ele>330</ele>
        <time>2019-01-18T08:47:48.000Z</time>
      </trkpt>
      <trkpt lat="43.33944" lon="5.671">
        <ele>330</ele>
        <time>2019-01-18T08:47:49.000Z</time>
      </trkpt>
      <trkpt lat="43.33944" lon="5.67101">
        <ele>330</ele>
        <time>2019-01-18T08:47:50.000Z</time>
      </trkpt>
      <trkpt lat="43.33943" lon="5.67102">
        <ele>330</ele>
        <time>2019-01-18T08:47:51.000Z</time>
      </trkpt>
      <trkpt lat="43.33942" lon="5.67102">
        <ele>330</ele>
        <time>2019-01-18T08:47:52.000Z</time>
      </trkpt>
      <trkpt lat="43.33942" lon="5.67103">
        <ele>330</ele>
        <time>2019-01-18T08:47:53.000Z</time>
      </trkpt>
      <trkpt lat="43.33942" lon="5.67104">
        <ele>330</ele>
        <time>2019-01-18T08:47:54.000Z</time>
      </trkpt>
      <trkpt lat="43.33942" lon="5.67104">
        <ele>330</ele>
        <time>2019-01-18T08:47:55.000Z</time>
      </trkpt>
      <trkpt lat="43.33942" lon="5.67104">
        <ele>330</ele>
        <time>2019-01-18T08:47:56.000Z</time>
      </trkpt>
      <trkpt lat="43.33941" lon="5.67104">
        <ele>330</ele>
        <time>2019-01-18T08:47:57.000Z</time>
      </trkpt>
      <trkpt lat="43.33941" lon="5.67105">
        <ele>331</ele>
        <time>2019-01-18T08:47:58.000Z</time>
      </trkpt>
      <trkpt lat="43.33941" lon="5.67106">
        <ele>331</ele>
        <time>2019-01-18T08:47:59.000Z</time>
      </trkpt>
      <trkpt lat="43.33941" lon="5.67106">
        <ele>331</ele>
        <time>2019-01-18T08:48:00.000Z</time>
      </trkpt>
      <trkpt lat="43.33941" lon="5.67106">
        <ele>331</ele>
        <time>2019-01-18T08:48:01.000Z</time>
      </trkpt>
      <trkpt lat="43.33941" lon="5.67106">
        <ele>331</ele>
        <time>2019-01-18T08:48:02.000Z</time>
      </trkpt>
      <trkpt lat="43.33941" lon="5.67107">
        <ele>331</ele>
        <time>2019-01-18T08:48:03.000Z</time>
      </trkpt>
      <trkpt lat="43.33941" lon="5.67108">
        <ele>331</ele>
        <time>2019-01-18T08:48:04.000Z</time>
      </trkpt>
      <trkpt lat="43.33941" lon="5.67109">
        <ele>331</ele>
        <time>2019-01-18T08:48:05.000Z</time>
      </trkpt>
      <trkpt lat="43.3394" lon="5.67109">
        <ele>331</ele>
        <time>2019-01-18T08:48:06.000Z</time>
      </trkpt>
      <trkpt lat="43.3394" lon="5.6711">
        <ele>331</ele>
        <time>2019-01-18T08:48:07.000Z</time>
      </trkpt>
      <trkpt lat="43.3394" lon="5.67111">
        <ele>331</ele>
        <time>2019-01-18T08:48:08.000Z</time>
      </trkpt>
      <trkpt lat="43.33939" lon="5.67111">
        <ele>331</ele>
        <time>2019-01-18T08:48:09.000Z</time>
      </trkpt>
      <trkpt lat="43.33939" lon="5.67112">
        <ele>331</ele>
        <time>2019-01-18T08:48:10.000Z</time>
      </trkpt>
      <trkpt lat="43.33939" lon="5.67112">
        <ele>331</ele>
        <time>2019-01-18T08:48:11.000Z</time>
      </trkpt>
      <trkpt lat="43.33938" lon="5.67112">
        <ele>331</ele>
        <time>2019-01-18T08:48:12.000Z</time>
      </trkpt>
      <trkpt lat="43.33938" lon="5.67112">
        <ele>331</ele>
        <time>2019-01-18T08:48:13.000Z</time>
      </trkpt>
      <trkpt lat="43.33938" lon="5.67112">
        <ele>331</ele>
        <time>2019-01-18T08:48:14.000Z</time>
      </trkpt>
      <trkpt lat="43.33938" lon="5.67112">
        <ele>331</ele>
        <time>2019-01-18T08:48:15.000Z</time>
      </trkpt>
      <trkpt lat="43.33938" lon="5.67112">
        <ele>331</ele>
        <time>2019-01-18T08:48:16.000Z</time>
      </trkpt>
      <trkpt lat="43.33938" lon="5.67112">
        <ele>331</ele>
        <time>2019-01-18T08:48:17.000Z</time>
      </trkpt>
      <trkpt lat="43.33938" lon="5.67112">
        <ele>331</ele>
        <time>2019-01-18T08:48:18.000Z</time>
      </trkpt>
      <trkpt lat="43.33938" lon="5.67112">
        <ele>331</ele>
        <time>2019-01-18T08:48:19.000Z</time>
      </trkpt>
      <trkpt lat="43.33938" lon="5.67112">
        <ele>331</ele>
        <time>2019-01-18T08:48:20.000Z</time>
      </trkpt>
      <trkpt lat="43.33938" lon="5.67112">
        <ele>331</ele>
        <time>2019-01-18T08:48:21.000Z</time>
      </trkpt>
      <trkpt lat="43.33937" lon="5.67113">
        <ele>331</ele>
        <time>2019-01-18T08:48:22.000Z</time>
      </trkpt>
      <trkpt lat="43.33937" lon="5.67113">
        <ele>331</ele>
        <time>2019-01-18T08:48:23.000Z</time>
      </trkpt>
      <trkpt lat="43.33937" lon="5.67113">
        <ele>331</ele>
        <time>2019-01-18T08:48:24.000Z</time>
      </trkpt>
      <trkpt lat="43.33937" lon="5.67113">
        <ele>331</ele>
        <time>2019-01-18T08:48:25.000Z</time>
      </trkpt>
      <trkpt lat="43.33937" lon="5.67113">
        <ele>331</ele>
        <time>2019-01-18T08:48:26.000Z</time>
      </trkpt>
      <trkpt lat="43.33937" lon="5.67113">
        <ele>331</ele>
        <time>2019-01-18T08:48:27.000Z</time>
      </trkpt>
      <trkpt lat="43.33936" lon="5.67113">
        <ele>331</ele>
        <time>2019-01-18T08:48:28.000Z</time>
      </trkpt>
      <trkpt lat="43.33936" lon="5.67113">
        <ele>331</ele>
        <time>2019-01-18T08:48:29.000Z</time>
      </trkpt>
      <trkpt lat="43.33936" lon="5.67113">
        <ele>331</ele>
        <time>2019-01-18T08:48:30.000Z</time>
      </trkpt>
      <trkpt lat="43.33936" lon="5.67113">
        <ele>331</ele>
        <time>2019-01-18T08:48:31.000Z</time>
      </trkpt>
      <trkpt lat="43.33936" lon="5.67113">
        <ele>331</ele>
        <time>2019-01-18T08:48:32.000Z</time>
      </trkpt>
      <trkpt lat="43.33936" lon="5.67113">
        <ele>331</ele>
        <time>2019-01-18T08:48:33.000Z</time>
      </trkpt>
      <trkpt lat="43.33936" lon="5.67114">
        <ele>331</ele>
        <time>2019-01-18T08:48:34.000Z</time>
      </trkpt>
      <trkpt lat="43.33936" lon="5.67114">
        <ele>331</ele>
        <time>2019-01-18T08:48:35.000Z</time>
      </trkpt>
      <trkpt lat="43.33936" lon="5.67114">
        <ele>332</ele>
        <time>2019-01-18T08:48:36.000Z</time>
      </trkpt>
      <trkpt lat="43.33936" lon="5.67115">
        <ele>332</ele>
        <time>2019-01-18T08:48:37.000Z</time>
      </trkpt>
      <trkpt lat="43.33936" lon="5.67115">
        <ele>332</ele>
        <time>2019-01-18T08:48:38.000Z</time>
      </trkpt>
      <trkpt lat="43.33935" lon="5.67115">
        <ele>332</ele>
        <time>2019-01-18T08:48:39.000Z</time>
      </trkpt>
      <trkpt lat="43.33935" lon="5.67116">
        <ele>332</ele>
        <time>2019-01-18T08:48:40.000Z</time>
      </trkpt>
      <trkpt lat="43.33935" lon="5.67116">
        <ele>332</ele>
        <time>2019-01-18T08:48:41.000Z</time>
      </trkpt>
      <trkpt lat="43.33935" lon="5.67116">
        <ele>332</ele>
        <time>2019-01-18T08:48:42.000Z</time>
      </trkpt>
      <trkpt lat="43.33935" lon="5.67116">
        <ele>332</ele>
        <time>2019-01-18T08:48:43.000Z</time>
      </trkpt>
      <trkpt lat="43.33935" lon="5.67116">
        <ele>332</ele>
        <time>2019-01-18T08:48:44.000Z</time>
      </trkpt>
      <trkpt lat="43.33935" lon="5.67116">
        <ele>332</ele>
        <time>2019-01-18T08:48:45.000Z</time>
      </trkpt>
      <trkpt lat="43.33935" lon="5.67116">
        <ele>333</ele>
        <time>2019-01-18T08:48:46.000Z</time>
      </trkpt>
      <trkpt lat="43.33935" lon="5.67117">
        <ele>333</ele>
        <time>2019-01-18T08:48:47.000Z</time>
      </trkpt>
      <trkpt lat="43.33934" lon="5.67117">
        <ele>333</ele>
        <time>2019-01-18T08:48:48.000Z</time>
      </trkpt>
      <trkpt lat="43.33934" lon="5.67117">
        <ele>333</ele>
        <time>2019-01-18T08:48:49.000Z</time>
      </trkpt>
      <trkpt lat="43.33934" lon="5.67117">
        <ele>333</ele>
        <time>2019-01-18T08:48:50.000Z</time>
      </trkpt>
      <trkpt lat="43.33934" lon="5.67117">
        <ele>333</ele>
        <time>2019-01-18T08:48:51.000Z</time>
      </trkpt>
      <trkpt lat="43.33934" lon="5.67117">
        <ele>333</ele>
        <time>2019-01-18T08:48:52.000Z</time>
      </trkpt>
      <trkpt lat="43.33934" lon="5.67117">
        <ele>333</ele>
        <time>2019-01-18T08:48:53.000Z</time>
      </trkpt>
      <trkpt lat="43.33934" lon="5.67117">
        <ele>333</ele>
        <time>2019-01-18T08:48:54.000Z</time>
      </trkpt>
      <trkpt lat="43.33934" lon="5.67117">
        <ele>333</ele>
        <time>2019-01-18T08:48:55.000Z</time>
      </trkpt>
      <trkpt lat="43.33934" lon="5.67117">
        <ele>333</ele>
        <time>2019-01-18T08:48:56.000Z</time>
      </trkpt>
      <trkpt lat="43.33934" lon="5.67117">
        <ele>333</ele>
        <time>2019-01-18T08:48:57.000Z</time>
      </trkpt>
      <trkpt lat="43.33934" lon="5.67117">
        <ele>333</ele>
        <time>2019-01-18T08:48:58.000Z</time>
      </trkpt>
      <trkpt lat="43.33934" lon="5.67117">
        <ele>333</ele>
        <time>2019-01-18T08:48:59.000Z</time>
      </trkpt>
      <trkpt lat="43.33934" lon="5.67117">
        <ele>333</ele>
        <time>2019-01-18T08:49:00.000Z</time>
      </trkpt>
      <trkpt lat="43.33934" lon="5.67117">
        <ele>333</ele>
        <time>2019-01-18T08:49:01.000Z</time>
      </trkpt>
      <trkpt lat="43.33935" lon="5.67117">
        <ele>333</ele>
        <time>2019-01-18T08:49:02.000Z</time>
      </trkpt>
      <trkpt lat="43.33935" lon="5.67117">
        <ele>333</ele>
        <time>2019-01-18T08:49:03.000Z</time>
      </trkpt>
      <trkpt lat="43.33935" lon="5.67117">
        <ele>333</ele>
        <time>2019-01-18T08:49:04.000Z</time>
      </trkpt>
      <trkpt lat="43.33934" lon="5.67118">
        <ele>333</ele>
        <time>2019-01-18T08:49:05.000Z</time>
      </trkpt>
      <trkpt lat="43.33934" lon="5.67118">
        <ele>333</ele>
        <time>2019-01-18T08:49:06.000Z</time>
      </trkpt>
      <trkpt lat="43.33934" lon="5.67118">
        <ele>333</ele>
        <time>2019-01-18T08:49:07.000Z</time>
      </trkpt>
      <trkpt lat="43.33934" lon="5.67118">
        <ele>333</ele>
        <time>2019-01-18T08:49:08.000Z</time>
      </trkpt>
      <trkpt lat="43.33934" lon="5.67118">
        <ele>333</ele>
        <time>2019-01-18T08:49:09.000Z</time>
      </trkpt>
      <trkpt lat="43.33934" lon="5.67118">
        <ele>333</ele>
        <time>2019-01-18T08:49:10.000Z</time>
      </trkpt>
      <trkpt lat="43.33934" lon="5.67118">
        <ele>333</ele>
        <time>2019-01-18T08:49:11.000Z</time>
      </trkpt>
      <trkpt lat="43.33934" lon="5.67119">
        <ele>334</ele>
        <time>2019-01-18T08:49:12.000Z</time>
      </trkpt>
      <trkpt lat="43.33934" lon="5.67119">
        <ele>334</ele>
        <time>2019-01-18T08:49:13.000Z</time>
      </trkpt>
      <trkpt lat="43.33933" lon="5.6712">
        <ele>334</ele>
        <time>2019-01-18T08:49:14.000Z</time>
      </trkpt>
      <trkpt lat="43.33933" lon="5.67121">
        <ele>334</ele>
        <time>2019-01-18T08:49:15.000Z</time>
      </trkpt>
      <trkpt lat="43.33933" lon="5.67121">
        <ele>334</ele>
        <time>2019-01-18T08:49:16.000Z</time>
      </trkpt>
      <trkpt lat="43.33932" lon="5.67122">
        <ele>334</ele>
        <time>2019-01-18T08:49:17.000Z</time>
      </trkpt>
      <trkpt lat="43.33932" lon="5.67122">
        <ele>334</ele>
        <time>2019-01-18T08:49:18.000Z</time>
      </trkpt>
      <trkpt lat="43.33932" lon="5.67122">
        <ele>334</ele>
        <time>2019-01-18T08:49:19.000Z</time>
      </trkpt>
      <trkpt lat="43.33932" lon="5.67122">
        <ele>334</ele>
        <time>2019-01-18T08:49:20.000Z</time>
      </trkpt>
      <trkpt lat="43.33932" lon="5.67122">
        <ele>334</ele>
        <time>2019-01-18T08:49:21.000Z</time>
      </trkpt>
      <trkpt lat="43.33932" lon="5.67122">
        <ele>334</ele>
        <time>2019-01-18T08:49:22.000Z</time>
      </trkpt>
      <trkpt lat="43.33932" lon="5.67122">
        <ele>334</ele>
        <time>2019-01-18T08:49:23.000Z</time>
      </trkpt>
      <trkpt lat="43.33932" lon="5.67122">
        <ele>334</ele>
        <time>2019-01-18T08:49:24.000Z</time>
      </trkpt>
      <trkpt lat="43.33932" lon="5.67122">
        <ele>334</ele>
        <time>2019-01-18T08:49:25.000Z</time>
      </trkpt>
      <trkpt lat="43.33932" lon="5.67122">
        <ele>334</ele>
        <time>2019-01-18T08:49:26.000Z</time>
      </trkpt>
      <trkpt lat="43.33932" lon="5.67122">
        <ele>334</ele>
        <time>2019-01-18T08:49:27.000Z</time>
      </trkpt>
      <trkpt lat="43.33932" lon="5.67122">
        <ele>334</ele>
        <time>2019-01-18T08:49:28.000Z</time>
      </trkpt>
      <trkpt lat="43.33931" lon="5.67122">
        <ele>334</ele>
        <time>2019-01-18T08:49:29.000Z</time>
      </trkpt>
      <trkpt lat="43.33931" lon="5.67122">
        <ele>334</ele>
        <time>2019-01-18T08:49:30.000Z</time>
      </trkpt>
      <trkpt lat="43.33931" lon="5.67123">
        <ele>334</ele>
        <time>2019-01-18T08:49:31.000Z</time>
      </trkpt>
      <trkpt lat="43.33931" lon="5.67123">
        <ele>334</ele>
        <time>2019-01-18T08:49:32.000Z</time>
      </trkpt>
      <trkpt lat="43.33931" lon="5.67123">
        <ele>334</ele>
        <time>2019-01-18T08:49:33.000Z</time>
      </trkpt>
      <trkpt lat="43.33931" lon="5.67123">
        <ele>334</ele>
        <time>2019-01-18T08:49:34.000Z</time>
      </trkpt>
      <trkpt lat="43.3393" lon="5.67123">
        <ele>334</ele>
        <time>2019-01-18T08:49:35.000Z</time>
      </trkpt>
      <trkpt lat="43.3393" lon="5.67123">
        <ele>334</ele>
        <time>2019-01-18T08:49:36.000Z</time>
      </trkpt>
      <trkpt lat="43.3393" lon="5.67123">
        <ele>334</ele>
        <time>2019-01-18T08:49:37.000Z</time>
      </trkpt>
      <trkpt lat="43.33929" lon="5.67124">
        <ele>334</ele>
        <time>2019-01-18T08:49:38.000Z</time>
      </trkpt>
      <trkpt lat="43.33929" lon="5.67124">
        <ele>334</ele>
        <time>2019-01-18T08:49:39.000Z</time>
      </trkpt>
      <trkpt lat="43.33929" lon="5.67125">
        <ele>334</ele>
        <time>2019-01-18T08:49:40.000Z</time>
      </trkpt>
      <trkpt lat="43.33928" lon="5.67125">
        <ele>334</ele>
        <time>2019-01-18T08:49:41.000Z</time>
      </trkpt>
      <trkpt lat="43.33928" lon="5.67126">
        <ele>334</ele>
        <time>2019-01-18T08:49:42.000Z</time>
      </trkpt>
      <trkpt lat="43.33927" lon="5.67126">
        <ele>334</ele>
        <time>2019-01-18T08:49:43.000Z</time>
      </trkpt>
      <trkpt lat="43.33927" lon="5.67127">
        <ele>334</ele>
        <time>2019-01-18T08:49:44.000Z</time>
      </trkpt>
      <trkpt lat="43.33926" lon="5.67127">
        <ele>334</ele>
        <time>2019-01-18T08:49:45.000Z</time>
      </trkpt>
      <trkpt lat="43.33926" lon="5.67127">
        <ele>334</ele>
        <time>2019-01-18T08:49:46.000Z</time>
      </trkpt>
      <trkpt lat="43.33925" lon="5.67128">
        <ele>334</ele>
        <time>2019-01-18T08:49:47.000Z</time>
      </trkpt>
      <trkpt lat="43.33925" lon="5.67129">
        <ele>335</ele>
        <time>2019-01-18T08:49:48.000Z</time>
      </trkpt>
      <trkpt lat="43.33924" lon="5.67129">
        <ele>335</ele>
        <time>2019-01-18T08:49:49.000Z</time>
      </trkpt>
      <trkpt lat="43.33924" lon="5.67129">
        <ele>335</ele>
        <time>2019-01-18T08:49:50.000Z</time>
      </trkpt>
      <trkpt lat="43.33923" lon="5.67129">
        <ele>334</ele>
        <time>2019-01-18T08:49:51.000Z</time>
      </trkpt>
      <trkpt lat="43.33923" lon="5.67129">
        <ele>334</ele>
        <time>2019-01-18T08:49:52.000Z</time>
      </trkpt>
      <trkpt lat="43.33923" lon="5.67129">
        <ele>334</ele>
        <time>2019-01-18T08:49:53.000Z</time>
      </trkpt>
      <trkpt lat="43.33922" lon="5.67129">
        <ele>334</ele>
        <time>2019-01-18T08:49:54.000Z</time>
      </trkpt>
      <trkpt lat="43.33922" lon="5.67129">
        <ele>334</ele>
        <time>2019-01-18T08:49:55.000Z</time>
      </trkpt>
      <trkpt lat="43.33921" lon="5.67129">
        <ele>334</ele>
        <time>2019-01-18T08:49:56.000Z</time>
      </trkpt>
      <trkpt lat="43.33921" lon="5.67129">
        <ele>334</ele>
        <time>2019-01-18T08:49:57.000Z</time>
      </trkpt>
      <trkpt lat="43.33921" lon="5.6713">
        <ele>334</ele>
        <time>2019-01-18T08:49:58.000Z</time>
      </trkpt>
      <trkpt lat="43.33921" lon="5.6713">
        <ele>334</ele>
        <time>2019-01-18T08:49:59.000Z</time>
      </trkpt>
      <trkpt lat="43.3392" lon="5.6713">
        <ele>334</ele>
        <time>2019-01-18T08:50:00.000Z</time>
      </trkpt>
      <trkpt lat="43.3392" lon="5.67131">
        <ele>334</ele>
        <time>2019-01-18T08:50:01.000Z</time>
      </trkpt>
      <trkpt lat="43.33919" lon="5.67131">
        <ele>334</ele>
        <time>2019-01-18T08:50:02.000Z</time>
      </trkpt>
      <trkpt lat="43.33919" lon="5.67131">
        <ele>334</ele>
        <time>2019-01-18T08:50:03.000Z</time>
      </trkpt>
      <trkpt lat="43.33919" lon="5.67131">
        <ele>334</ele>
        <time>2019-01-18T08:50:04.000Z</time>
      </trkpt>
      <trkpt lat="43.33918" lon="5.67132">
        <ele>334</ele>
        <time>2019-01-18T08:50:05.000Z</time>
      </trkpt>
      <trkpt lat="43.33918" lon="5.67132">
        <ele>334</ele>
        <time>2019-01-18T08:50:06.000Z</time>
      </trkpt>
      <trkpt lat="43.33918" lon="5.67132">
        <ele>334</ele>
        <time>2019-01-18T08:50:07.000Z</time>
      </trkpt>
      <trkpt lat="43.33918" lon="5.67132">
        <ele>334</ele>
        <time>2019-01-18T08:50:08.000Z</time>
      </trkpt>
      <trkpt lat="43.33917" lon="5.67132">
        <ele>334</ele>
        <time>2019-01-18T08:50:09.000Z</time>
      </trkpt>
      <trkpt lat="43.33917" lon="5.67132">
        <ele>334</ele>
        <time>2019-01-18T08:50:10.000Z</time>
      </trkpt>
      <trkpt lat="43.33917" lon="5.67133">
        <ele>334</ele>
        <time>2019-01-18T08:50:11.000Z</time>
      </trkpt>
      <trkpt lat="43.33917" lon="5.67133">
        <ele>334</ele>
        <time>2019-01-18T08:50:12.000Z</time>
      </trkpt>
      <trkpt lat="43.33917" lon="5.67133">
        <ele>334</ele>
        <time>2019-01-18T08:50:13.000Z</time>
      </trkpt>
      <trkpt lat="43.33916" lon="5.67133">
        <ele>334</ele>
        <time>2019-01-18T08:50:14.000Z</time>
      </trkpt>
      <trkpt lat="43.33916" lon="5.67133">
        <ele>334</ele>
        <time>2019-01-18T08:50:15.000Z</time>
      </trkpt>
      <trkpt lat="43.33916" lon="5.67133">
        <ele>334</ele>
        <time>2019-01-18T08:50:16.000Z</time>
      </trkpt>
      <trkpt lat="43.33916" lon="5.67133">
        <ele>334</ele>
        <time>2019-01-18T08:50:17.000Z</time>
      </trkpt>
      <trkpt lat="43.33915" lon="5.67134">
        <ele>334</ele>
        <time>2019-01-18T08:50:18.000Z</time>
      </trkpt>
      <trkpt lat="43.33915" lon="5.67134">
        <ele>334</ele>
        <time>2019-01-18T08:50:19.000Z</time>
      </trkpt>
      <trkpt lat="43.33915" lon="5.67134">
        <ele>334</ele>
        <time>2019-01-18T08:50:20.000Z</time>
      </trkpt>
      <trkpt lat="43.33915" lon="5.67134">
        <ele>334</ele>
        <time>2019-01-18T08:50:21.000Z</time>
      </trkpt>
      <trkpt lat="43.33915" lon="5.67134">
        <ele>334</ele>
        <time>2019-01-18T08:50:22.000Z</time>
      </trkpt>
      <trkpt lat="43.33915" lon="5.67134">
        <ele>334</ele>
        <time>2019-01-18T08:50:23.000Z</time>
      </trkpt>
      <trkpt lat="43.33915" lon="5.67134">
        <ele>334</ele>
        <time>2019-01-18T08:50:24.000Z</time>
      </trkpt>
      <trkpt lat="43.33915" lon="5.67134">
        <ele>334</ele>
        <time>2019-01-18T08:50:25.000Z</time>
      </trkpt>
      <trkpt lat="43.33915" lon="5.67134">
        <ele>334</ele>
        <time>2019-01-18T08:50:26.000Z</time>
      </trkpt>
      <trkpt lat="43.33915" lon="5.67134">
        <ele>334</ele>
        <time>2019-01-18T08:50:27.000Z</time>
      </trkpt>
      <trkpt lat="43.33915" lon="5.67134">
        <ele>334</ele>
        <time>2019-01-18T08:50:28.000Z</time>
      </trkpt>
      <trkpt lat="43.33915" lon="5.67134">
        <ele>334</ele>
        <time>2019-01-18T08:50:29.000Z</time>
      </trkpt>
      <trkpt lat="43.33915" lon="5.67134">
        <ele>334</ele>
        <time>2019-01-18T08:50:30.000Z</time>
      </trkpt>
      <trkpt lat="43.33914" lon="5.67135">
        <ele>334</ele>
        <time>2019-01-18T08:50:31.000Z</time>
      </trkpt>
      <trkpt lat="43.33914" lon="5.67135">
        <ele>334</ele>
        <time>2019-01-18T08:50:32.000Z</time>
      </trkpt>
      <trkpt lat="43.33913" lon="5.67136">
        <ele>334</ele>
        <time>2019-01-18T08:50:33.000Z</time>
      </trkpt>
      <trkpt lat="43.33913" lon="5.67136">
        <ele>334</ele>
        <time>2019-01-18T08:50:34.000Z</time>
      </trkpt>
      <trkpt lat="43.33913" lon="5.67137">
        <ele>335</ele>
        <time>2019-01-18T08:50:35.000Z</time>
      </trkpt>
      <trkpt lat="43.33912" lon="5.67138">
        <ele>335</ele>
        <time>2019-01-18T08:50:36.000Z</time>
      </trkpt>
      <trkpt lat="43.33911" lon="5.67138">
        <ele>335</ele>
        <time>2019-01-18T08:50:37.000Z</time>
      </trkpt>
      <trkpt lat="43.33911" lon="5.67139">
        <ele>335</ele>
        <time>2019-01-18T08:50:38.000Z</time>
      </trkpt>
      <trkpt lat="43.3391" lon="5.67139">
        <ele>335</ele>
        <time>2019-01-18T08:50:39.000Z</time>
      </trkpt>
      <trkpt lat="43.33909" lon="5.6714">
        <ele>335</ele>
        <time>2019-01-18T08:50:40.000Z</time>
      </trkpt>
      <trkpt lat="43.33909" lon="5.6714">
        <ele>335</ele>
        <time>2019-01-18T08:50:41.000Z</time>
      </trkpt>
      <trkpt lat="43.33908" lon="5.6714">
        <ele>335</ele>
        <time>2019-01-18T08:50:42.000Z</time>
      </trkpt>
      <trkpt lat="43.33908" lon="5.67141">
        <ele>335</ele>
        <time>2019-01-18T08:50:43.000Z</time>
      </trkpt>
      <trkpt lat="43.33908" lon="5.67141">
        <ele>335</ele>
        <time>2019-01-18T08:50:44.000Z</time>
      </trkpt>
      <trkpt lat="43.33907" lon="5.67141">
        <ele>335</ele>
        <time>2019-01-18T08:50:45.000Z</time>
      </trkpt>
      <trkpt lat="43.33906" lon="5.67142">
        <ele>335</ele>
        <time>2019-01-18T08:50:46.000Z</time>
      </trkpt>
      <trkpt lat="43.33905" lon="5.67142">
        <ele>335</ele>
        <time>2019-01-18T08:50:47.000Z</time>
      </trkpt>
      <trkpt lat="43.33905" lon="5.67142">
        <ele>335</ele>
        <time>2019-01-18T08:50:48.000Z</time>
      </trkpt>
      <trkpt lat="43.33904" lon="5.67142">
        <ele>335</ele>
        <time>2019-01-18T08:50:49.000Z</time>
      </trkpt>
      <trkpt lat="43.33903" lon="5.67142">
        <ele>336</ele>
        <time>2019-01-18T08:50:50.000Z</time>
      </trkpt>
      <trkpt lat="43.33903" lon="5.67142">
        <ele>336</ele>
        <time>2019-01-18T08:50:51.000Z</time>
      </trkpt>
      <trkpt lat="43.33902" lon="5.67143">
        <ele>336</ele>
        <time>2019-01-18T08:50:52.000Z</time>
      </trkpt>
      <trkpt lat="43.33902" lon="5.67143">
        <ele>336</ele>
        <time>2019-01-18T08:50:53.000Z</time>
      </trkpt>
      <trkpt lat="43.33902" lon="5.67143">
        <ele>336</ele>
        <time>2019-01-18T08:50:54.000Z</time>
      </trkpt>
      <trkpt lat="43.33902" lon="5.67142">
        <ele>336</ele>
        <time>2019-01-18T08:50:55.000Z</time>
      </trkpt>
      <trkpt lat="43.33901" lon="5.67142">
        <ele>336</ele>
        <time>2019-01-18T08:50:56.000Z</time>
      </trkpt>
      <trkpt lat="43.33901" lon="5.67142">
        <ele>336</ele>
        <time>2019-01-18T08:50:57.000Z</time>
      </trkpt>
      <trkpt lat="43.33901" lon="5.67142">
        <ele>336</ele>
        <time>2019-01-18T08:50:58.000Z</time>
      </trkpt>
      <trkpt lat="43.339" lon="5.67142">
        <ele>336</ele>
        <time>2019-01-18T08:50:59.000Z</time>
      </trkpt>
      <trkpt lat="43.339" lon="5.67142">
        <ele>337</ele>
        <time>2019-01-18T08:51:00.000Z</time>
      </trkpt>
      <trkpt lat="43.33899" lon="5.67142">
        <ele>337</ele>
        <time>2019-01-18T08:51:01.000Z</time>
      </trkpt>
      <trkpt lat="43.33898" lon="5.67143">
        <ele>337</ele>
        <time>2019-01-18T08:51:02.000Z</time>
      </trkpt>
      <trkpt lat="43.33897" lon="5.67142">
        <ele>337</ele>
        <time>2019-01-18T08:51:03.000Z</time>
      </trkpt>
      <trkpt lat="43.33897" lon="5.67142">
        <ele>337</ele>
        <time>2019-01-18T08:51:04.000Z</time>
      </trkpt>
      <trkpt lat="43.33897" lon="5.67142">
        <ele>337</ele>
        <time>2019-01-18T08:51:05.000Z</time>
      </trkpt>
      <trkpt lat="43.33897" lon="5.67142">
        <ele>337</ele>
        <time>2019-01-18T08:51:06.000Z</time>
      </trkpt>
      <trkpt lat="43.33897" lon="5.67142">
        <ele>337</ele>
        <time>2019-01-18T08:51:07.000Z</time>
      </trkpt>
      <trkpt lat="43.33896" lon="5.67142">
        <ele>337</ele>
        <time>2019-01-18T08:51:08.000Z</time>
      </trkpt>
      <trkpt lat="43.33896" lon="5.67142">
        <ele>337</ele>
        <time>2019-01-18T08:51:09.000Z</time>
      </trkpt>
      <trkpt lat="43.33895" lon="5.67141">
        <ele>337</ele>
        <time>2019-01-18T08:51:10.000Z</time>
      </trkpt>
      <trkpt lat="43.33894" lon="5.67141">
        <ele>338</ele>
        <time>2019-01-18T08:51:11.000Z</time>
      </trkpt>
      <trkpt lat="43.33894" lon="5.6714">
        <ele>338</ele>
        <time>2019-01-18T08:51:12.000Z</time>
      </trkpt>
      <trkpt lat="43.33893" lon="5.67139">
        <ele>338</ele>
        <time>2019-01-18T08:51:13.000Z</time>
      </trkpt>
      <trkpt lat="43.33893" lon="5.67139">
        <ele>338</ele>
        <time>2019-01-18T08:51:14.000Z</time>
      </trkpt>
      <trkpt lat="43.33893" lon="5.67139">
        <ele>338</ele>
        <time>2019-01-18T08:51:15.000Z</time>
      </trkpt>
      <trkpt lat="43.33893" lon="5.67139">
        <ele>338</ele>
        <time>2019-01-18T08:51:16.000Z</time>
      </trkpt>
      <trkpt lat="43.33893" lon="5.67139">
        <ele>338</ele>
        <time>2019-01-18T08:51:17.000Z</time>
      </trkpt>
      <trkpt lat="43.33892" lon="5.67139">
        <ele>338</ele>
        <time>2019-01-18T08:51:18.000Z</time>
      </trkpt>
      <trkpt lat="43.33892" lon="5.67139">
        <ele>338</ele>
        <time>2019-01-18T08:51:19.000Z</time>
      </trkpt>
      <trkpt lat="43.33892" lon="5.67139">
        <ele>339</ele>
        <time>2019-01-18T08:51:20.000Z</time>
      </trkpt>
      <trkpt lat="43.33891" lon="5.67138">
        <ele>339</ele>
        <time>2019-01-18T08:51:21.000Z</time>
      </trkpt>
      <trkpt lat="43.3389" lon="5.67138">
        <ele>339</ele>
        <time>2019-01-18T08:51:22.000Z</time>
      </trkpt>
      <trkpt lat="43.33889" lon="5.67138">
        <ele>339</ele>
        <time>2019-01-18T08:51:23.000Z</time>
      </trkpt>
      <trkpt lat="43.33889" lon="5.67138">
        <ele>339</ele>
        <time>2019-01-18T08:51:24.000Z</time>
      </trkpt>
      <trkpt lat="43.33888" lon="5.67137">
        <ele>339</ele>
        <time>2019-01-18T08:51:25.000Z</time>
      </trkpt>
      <trkpt lat="43.33887" lon="5.67136">
        <ele>339</ele>
        <time>2019-01-18T08:51:26.000Z</time>
      </trkpt>
      <trkpt lat="43.33886" lon="5.67136">
        <ele>339</ele>
        <time>2019-01-18T08:51:27.000Z</time>
      </trkpt>
      <trkpt lat="43.33886" lon="5.67135">
        <ele>339</ele>
        <time>2019-01-18T08:51:28.000Z</time>
      </trkpt>
      <trkpt lat="43.33885" lon="5.67135">
        <ele>339</ele>
        <time>2019-01-18T08:51:29.000Z</time>
      </trkpt>
      <trkpt lat="43.33885" lon="5.67135">
        <ele>339</ele>
        <time>2019-01-18T08:51:30.000Z</time>
      </trkpt>
      <trkpt lat="43.33884" lon="5.67134">
        <ele>338</ele>
        <time>2019-01-18T08:51:31.000Z</time>
      </trkpt>
      <trkpt lat="43.33883" lon="5.67134">
        <ele>338</ele>
        <time>2019-01-18T08:51:32.000Z</time>
      </trkpt>
      <trkpt lat="43.33882" lon="5.67134">
        <ele>338</ele>
        <time>2019-01-18T08:51:33.000Z</time>
      </trkpt>
      <trkpt lat="43.33882" lon="5.67133">
        <ele>338</ele>
        <time>2019-01-18T08:51:34.000Z</time>
      </trkpt>
      <trkpt lat="43.33882" lon="5.67134">
        <ele>338</ele>
        <time>2019-01-18T08:51:35.000Z</time>
      </trkpt>
      <trkpt lat="43.33882" lon="5.67134">
        <ele>338</ele>
        <time>2019-01-18T08:51:36.000Z</time>
      </trkpt>
      <trkpt lat="43.33882" lon="5.67133">
        <ele>338</ele>
        <time>2019-01-18T08:51:37.000Z</time>
      </trkpt>
      <trkpt lat="43.33882" lon="5.67133">
        <ele>338</ele>
        <time>2019-01-18T08:51:38.000Z</time>
      </trkpt>
      <trkpt lat="43.33882" lon="5.67134">
        <ele>338</ele>
        <time>2019-01-18T08:51:39.000Z</time>
      </trkpt>
      <trkpt lat="43.33882" lon="5.67134">
        <ele>338</ele>
        <time>2019-01-18T08:51:40.000Z</time>
      </trkpt>
      <trkpt lat="43.33881" lon="5.67133">
        <ele>338</ele>
        <time>2019-01-18T08:51:41.000Z</time>
      </trkpt>
      <trkpt lat="43.33881" lon="5.67133">
        <ele>338</ele>
        <time>2019-01-18T08:51:42.000Z</time>
      </trkpt>
      <trkpt lat="43.33881" lon="5.67133">
        <ele>338</ele>
        <time>2019-01-18T08:51:43.000Z</time>
      </trkpt>
      <trkpt lat="43.33881" lon="5.67133">
        <ele>338</ele>
        <time>2019-01-18T08:51:44.000Z</time>
      </trkpt>
      <trkpt lat="43.33881" lon="5.67133">
        <ele>338</ele>
        <time>2019-01-18T08:51:45.000Z</time>
      </trkpt>
      <trkpt lat="43.33881" lon="5.67133">
        <ele>338</ele>
        <time>2019-01-18T08:51:46.000Z</time>
      </trkpt>
      <trkpt lat="43.33881" lon="5.67133">
        <ele>338</ele>
        <time>2019-01-18T08:51:47.000Z</time>
      </trkpt>
      <trkpt lat="43.33881" lon="5.67133">
        <ele>338</ele>
        <time>2019-01-18T08:51:48.000Z</time>
      </trkpt>
      <trkpt lat="43.33881" lon="5.67133">
        <ele>338</ele>
        <time>2019-01-18T08:51:49.000Z</time>
      </trkpt>
      <trkpt lat="43.33881" lon="5.67133">
        <ele>338</ele>
        <time>2019-01-18T08:51:50.000Z</time>
      </trkpt>
      <trkpt lat="43.3388" lon="5.67132">
        <ele>339</ele>
        <time>2019-01-18T08:51:51.000Z</time>
      </trkpt>
      <trkpt lat="43.3388" lon="5.67131">
        <ele>339</ele>
        <time>2019-01-18T08:51:52.000Z</time>
      </trkpt>
      <trkpt lat="43.33879" lon="5.67131">
        <ele>339</ele>
        <time>2019-01-18T08:51:53.000Z</time>
      </trkpt>
      <trkpt lat="43.33879" lon="5.6713">
        <ele>339</ele>
        <time>2019-01-18T08:51:54.000Z</time>
      </trkpt>
      <trkpt lat="43.33879" lon="5.6713">
        <ele>339</ele>
        <time>2019-01-18T08:51:55.000Z</time>
      </trkpt>
      <trkpt lat="43.33878" lon="5.67129">
        <ele>339</ele>
        <time>2019-01-18T08:51:56.000Z</time>
      </trkpt>
      <trkpt lat="43.33878" lon="5.67129">
        <ele>339</ele>
        <time>2019-01-18T08:51:57.000Z</time>
      </trkpt>
      <trkpt lat="43.33878" lon="5.67128">
        <ele>339</ele>
        <time>2019-01-18T08:51:58.000Z</time>
      </trkpt>
      <trkpt lat="43.33878" lon="5.67128">
        <ele>339</ele>
        <time>2019-01-18T08:51:59.000Z</time>
      </trkpt>
      <trkpt lat="43.33878" lon="5.67127">
        <ele>339</ele>
        <time>2019-01-18T08:52:00.000Z</time>
      </trkpt>
      <trkpt lat="43.33878" lon="5.67127">
        <ele>339</ele>
        <time>2019-01-18T08:52:01.000Z</time>
      </trkpt>
      <trkpt lat="43.33878" lon="5.67127">
        <ele>339</ele>
        <time>2019-01-18T08:52:02.000Z</time>
      </trkpt>
      <trkpt lat="43.33877" lon="5.67126">
        <ele>339</ele>
        <time>2019-01-18T08:52:03.000Z</time>
      </trkpt>
      <trkpt lat="43.33877" lon="5.67126">
        <ele>339</ele>
        <time>2019-01-18T08:52:04.000Z</time>
      </trkpt>
      <trkpt lat="43.33877" lon="5.67125">
        <ele>339</ele>
        <time>2019-01-18T08:52:05.000Z</time>
      </trkpt>
      <trkpt lat="43.33877" lon="5.67125">
        <ele>339</ele>
        <time>2019-01-18T08:52:06.000Z</time>
      </trkpt>
      <trkpt lat="43.33877" lon="5.67124">
        <ele>340</ele>
        <time>2019-01-18T08:52:07.000Z</time>
      </trkpt>
      <trkpt lat="43.33877" lon="5.67124">
        <ele>340</ele>
        <time>2019-01-18T08:52:08.000Z</time>
      </trkpt>
      <trkpt lat="43.33877" lon="5.67123">
        <ele>340</ele>
        <time>2019-01-18T08:52:09.000Z</time>
      </trkpt>
      <trkpt lat="43.33877" lon="5.67123">
        <ele>340</ele>
        <time>2019-01-18T08:52:10.000Z</time>
      </trkpt>
      <trkpt lat="43.33877" lon="5.67123">
        <ele>340</ele>
        <time>2019-01-18T08:52:11.000Z</time>
      </trkpt>
      <trkpt lat="43.33876" lon="5.67123">
        <ele>340</ele>
        <time>2019-01-18T08:52:12.000Z</time>
      </trkpt>
      <trkpt lat="43.33876" lon="5.67123">
        <ele>340</ele>
        <time>2019-01-18T08:52:13.000Z</time>
      </trkpt>
      <trkpt lat="43.33876" lon="5.67123">
        <ele>340</ele>
        <time>2019-01-18T08:52:14.000Z</time>
      </trkpt>
      <trkpt lat="43.33876" lon="5.67123">
        <ele>340</ele>
        <time>2019-01-18T08:52:15.000Z</time>
      </trkpt>
      <trkpt lat="43.33876" lon="5.67123">
        <ele>340</ele>
        <time>2019-01-18T08:52:16.000Z</time>
      </trkpt>
      <trkpt lat="43.33876" lon="5.67123">
        <ele>341</ele>
        <time>2019-01-18T08:52:17.000Z</time>
      </trkpt>
      <trkpt lat="43.33876" lon="5.67123">
        <ele>341</ele>
        <time>2019-01-18T08:52:18.000Z</time>
      </trkpt>
      <trkpt lat="43.33876" lon="5.67123">
        <ele>341</ele>
        <time>2019-01-18T08:52:19.000Z</time>
      </trkpt>
      <trkpt lat="43.33876" lon="5.67123">
        <ele>341</ele>
        <time>2019-01-18T08:52:20.000Z</time>
      </trkpt>
      <trkpt lat="43.33876" lon="5.67123">
        <ele>341</ele>
        <time>2019-01-18T08:52:21.000Z</time>
      </trkpt>
      <trkpt lat="43.33876" lon="5.67123">
        <ele>341</ele>
        <time>2019-01-18T08:52:22.000Z</time>
      </trkpt>
      <trkpt lat="43.33876" lon="5.67123">
        <ele>341</ele>
        <time>2019-01-18T08:52:23.000Z</time>
      </trkpt>
      <trkpt lat="43.33876" lon="5.67123">
        <ele>341</ele>
        <time>2019-01-18T08:52:24.000Z</time>
      </trkpt>
      <trkpt lat="43.33876" lon="5.67123">
        <ele>341</ele>
        <time>2019-01-18T08:52:25.000Z</time>
      </trkpt>
      <trkpt lat="43.33876" lon="5.67122">
        <ele>341</ele>
        <time>2019-01-18T08:52:26.000Z</time>
      </trkpt>
      <trkpt lat="43.33876" lon="5.67122">
        <ele>341</ele>
        <time>2019-01-18T08:52:27.000Z</time>
      </trkpt>
      <trkpt lat="43.33876" lon="5.67121">
        <ele>341</ele>
        <time>2019-01-18T08:52:28.000Z</time>
      </trkpt>
      <trkpt lat="43.33876" lon="5.67121">
        <ele>341</ele>
        <time>2019-01-18T08:52:29.000Z</time>
      </trkpt>
      <trkpt lat="43.33876" lon="5.67121">
        <ele>341</ele>
        <time>2019-01-18T08:52:30.000Z</time>
      </trkpt>
      <trkpt lat="43.33876" lon="5.67121">
        <ele>341</ele>
        <time>2019-01-18T08:52:31.000Z</time>
      </trkpt>
      <trkpt lat="43.33876" lon="5.67121">
        <ele>341</ele>
        <time>2019-01-18T08:52:32.000Z</time>
      </trkpt>
      <trkpt lat="43.33876" lon="5.67121">
        <ele>341</ele>
        <time>2019-01-18T08:52:33.000Z</time>
      </trkpt>
      <trkpt lat="43.33876" lon="5.6712">
        <ele>341</ele>
        <time>2019-01-18T08:52:34.000Z</time>
      </trkpt>
      <trkpt lat="43.33875" lon="5.6712">
        <ele>341</ele>
        <time>2019-01-18T08:52:35.000Z</time>
      </trkpt>
      <trkpt lat="43.33875" lon="5.6712">
        <ele>341</ele>
        <time>2019-01-18T08:52:36.000Z</time>
      </trkpt>
      <trkpt lat="43.33875" lon="5.6712">
        <ele>341</ele>
        <time>2019-01-18T08:52:37.000Z</time>
      </trkpt>
      <trkpt lat="43.33875" lon="5.67119">
        <ele>341</ele>
        <time>2019-01-18T08:52:38.000Z</time>
      </trkpt>
      <trkpt lat="43.33875" lon="5.67119">
        <ele>341</ele>
        <time>2019-01-18T08:52:39.000Z</time>
      </trkpt>
      <trkpt lat="43.33875" lon="5.67118">
        <ele>341</ele>
        <time>2019-01-18T08:52:40.000Z</time>
      </trkpt>
      <trkpt lat="43.33874" lon="5.67118">
        <ele>341</ele>
        <time>2019-01-18T08:52:41.000Z</time>
      </trkpt>
      <trkpt lat="43.33874" lon="5.67118">
        <ele>341</ele>
        <time>2019-01-18T08:52:42.000Z</time>
      </trkpt>
      <trkpt lat="43.33873" lon="5.67118">
        <ele>341</ele>
        <time>2019-01-18T08:52:43.000Z</time>
      </trkpt>
      <trkpt lat="43.33872" lon="5.67117">
        <ele>341</ele>
        <time>2019-01-18T08:52:44.000Z</time>
      </trkpt>
      <trkpt lat="43.33872" lon="5.67117">
        <ele>341</ele>
        <time>2019-01-18T08:52:45.000Z</time>
      </trkpt>
      <trkpt lat="43.33872" lon="5.67116">
        <ele>341</ele>
        <time>2019-01-18T08:52:46.000Z</time>
      </trkpt>
      <trkpt lat="43.33871" lon="5.67116">
        <ele>341</ele>
        <time>2019-01-18T08:52:47.000Z</time>
      </trkpt>
      <trkpt lat="43.33871" lon="5.67116">
        <ele>341</ele>
        <time>2019-01-18T08:52:48.000Z</time>
      </trkpt>
      <trkpt lat="43.3387" lon="5.67116">
        <ele>341</ele>
        <time>2019-01-18T08:52:49.000Z</time>
      </trkpt>
      <trkpt lat="43.3387" lon="5.67117">
        <ele>341</ele>
        <time>2019-01-18T08:52:50.000Z</time>
      </trkpt>
      <trkpt lat="43.33869" lon="5.67117">
        <ele>341</ele>
        <time>2019-01-18T08:52:51.000Z</time>
      </trkpt>
      <trkpt lat="43.33869" lon="5.67117">
        <ele>341</ele>
        <time>2019-01-18T08:52:52.000Z</time>
      </trkpt>
      <trkpt lat="43.33868" lon="5.67117">
        <ele>341</ele>
        <time>2019-01-18T08:52:53.000Z</time>
      </trkpt>
      <trkpt lat="43.33868" lon="5.67118">
        <ele>341</ele>
        <time>2019-01-18T08:52:54.000Z</time>
      </trkpt>
      <trkpt lat="43.33868" lon="5.67118">
        <ele>341</ele>
        <time>2019-01-18T08:52:55.000Z</time>
      </trkpt>
      <trkpt lat="43.33868" lon="5.67118">
        <ele>341</ele>
        <time>2019-01-18T08:52:56.000Z</time>
      </trkpt>
      <trkpt lat="43.33867" lon="5.67118">
        <ele>341</ele>
        <time>2019-01-18T08:52:57.000Z</time>
      </trkpt>
      <trkpt lat="43.33867" lon="5.67118">
        <ele>342</ele>
        <time>2019-01-18T08:52:58.000Z</time>
      </trkpt>
      <trkpt lat="43.33867" lon="5.67118">
        <ele>342</ele>
        <time>2019-01-18T08:52:59.000Z</time>
      </trkpt>
      <trkpt lat="43.33867" lon="5.67118">
        <ele>342</ele>
        <time>2019-01-18T08:53:00.000Z</time>
      </trkpt>
      <trkpt lat="43.33867" lon="5.67118">
        <ele>342</ele>
        <time>2019-01-18T08:53:01.000Z</time>
      </trkpt>
      <trkpt lat="43.33867" lon="5.67118">
        <ele>342</ele>
        <time>2019-01-18T08:53:02.000Z</time>
      </trkpt>
      <trkpt lat="43.33867" lon="5.67118">
        <ele>342</ele>
        <time>2019-01-18T08:53:03.000Z</time>
      </trkpt>
      <trkpt lat="43.33867" lon="5.67118">
        <ele>342</ele>
        <time>2019-01-18T08:53:04.000Z</time>
      </trkpt>
      <trkpt lat="43.33867" lon="5.67118">
        <ele>342</ele>
        <time>2019-01-18T08:53:05.000Z</time>
      </trkpt>
      <trkpt lat="43.33867" lon="5.67118">
        <ele>342</ele>
        <time>2019-01-18T08:53:06.000Z</time>
      </trkpt>
      <trkpt lat="43.33867" lon="5.67118">
        <ele>343</ele>
        <time>2019-01-18T08:53:07.000Z</time>
      </trkpt>
      <trkpt lat="43.33867" lon="5.67118">
        <ele>343</ele>
        <time>2019-01-18T08:53:08.000Z</time>
      </trkpt>
      <trkpt lat="43.33867" lon="5.67118">
        <ele>343</ele>
        <time>2019-01-18T08:53:09.000Z</time>
      </trkpt>
      <trkpt lat="43.33867" lon="5.67118">
        <ele>343</ele>
        <time>2019-01-18T08:53:10.000Z</time>
      </trkpt>
      <trkpt lat="43.33867" lon="5.67118">
        <ele>343</ele>
        <time>2019-01-18T08:53:11.000Z</time>
      </trkpt>
      <trkpt lat="43.33867" lon="5.67118">
        <ele>343</ele>
        <time>2019-01-18T08:53:12.000Z</time>
      </trkpt>
      <trkpt lat="43.33867" lon="5.67118">
        <ele>343</ele>
        <time>2019-01-18T08:53:13.000Z</time>
      </trkpt>
      <trkpt lat="43.33867" lon="5.67118">
        <ele>343</ele>
        <time>2019-01-18T08:53:14.000Z</time>
      </trkpt>
      <trkpt lat="43.33867" lon="5.67118">
        <ele>344</ele>
        <time>2019-01-18T08:53:15.000Z</time>
      </trkpt>
      <trkpt lat="43.33867" lon="5.67118">
        <ele>344</ele>
        <time>2019-01-18T08:53:16.000Z</time>
      </trkpt>
      <trkpt lat="43.33867" lon="5.67118">
        <ele>344</ele>
        <time>2019-01-18T08:53:17.000Z</time>
      </trkpt>
      <trkpt lat="43.33867" lon="5.67118">
        <ele>344</ele>
        <time>2019-01-18T08:53:18.000Z</time>
      </trkpt>
      <trkpt lat="43.33868" lon="5.67118">
        <ele>344</ele>
        <time>2019-01-18T08:53:19.000Z</time>
      </trkpt>
      <trkpt lat="43.33868" lon="5.67118">
        <ele>344</ele>
        <time>2019-01-18T08:53:20.000Z</time>
      </trkpt>
      <trkpt lat="43.33868" lon="5.67118">
        <ele>344</ele>
        <time>2019-01-18T08:53:21.000Z</time>
      </trkpt>
      <trkpt lat="43.33868" lon="5.67118">
        <ele>344</ele>
        <time>2019-01-18T08:53:22.000Z</time>
      </trkpt>
      <trkpt lat="43.33868" lon="5.67118">
        <ele>344</ele>
        <time>2019-01-18T08:53:23.000Z</time>
      </trkpt>
      <trkpt lat="43.33868" lon="5.67118">
        <ele>345</ele>
        <time>2019-01-18T08:53:24.000Z</time>
      </trkpt>
      <trkpt lat="43.33868" lon="5.67118">
        <ele>345</ele>
        <time>2019-01-18T08:53:25.000Z</time>
      </trkpt>
      <trkpt lat="43.33868" lon="5.67118">
        <ele>345</ele>
        <time>2019-01-18T08:53:26.000Z</time>
      </trkpt>
      <trkpt lat="43.33868" lon="5.67118">
        <ele>345</ele>
        <time>2019-01-18T08:53:27.000Z</time>
      </trkpt>
      <trkpt lat="43.33868" lon="5.67118">
        <ele>345</ele>
        <time>2019-01-18T08:53:28.000Z</time>
      </trkpt>
      <trkpt lat="43.33868" lon="5.67118">
        <ele>345</ele>
        <time>2019-01-18T08:53:29.000Z</time>
      </trkpt>
      <trkpt lat="43.33868" lon="5.67118">
        <ele>345</ele>
        <time>2019-01-18T08:53:30.000Z</time>
      </trkpt>
      <trkpt lat="43.33867" lon="5.67118">
        <ele>345</ele>
        <time>2019-01-18T08:53:31.000Z</time>
      </trkpt>
      <trkpt lat="43.33868" lon="5.67118">
        <ele>346</ele>
        <time>2019-01-18T08:53:32.000Z</time>
      </trkpt>
      <trkpt lat="43.33868" lon="5.67117">
        <ele>346</ele>
        <time>2019-01-18T08:53:33.000Z</time>
      </trkpt>
      <trkpt lat="43.33867" lon="5.67117">
        <ele>346</ele>
        <time>2019-01-18T08:53:34.000Z</time>
      </trkpt>
      <trkpt lat="43.33867" lon="5.67117">
        <ele>346</ele>
        <time>2019-01-18T08:53:35.000Z</time>
      </trkpt>
      <trkpt lat="43.33867" lon="5.67117">
        <ele>346</ele>
        <time>2019-01-18T08:53:36.000Z</time>
      </trkpt>
      <trkpt lat="43.33867" lon="5.67117">
        <ele>346</ele>
        <time>2019-01-18T08:53:37.000Z</time>
      </trkpt>
      <trkpt lat="43.33867" lon="5.67117">
        <ele>346</ele>
        <time>2019-01-18T08:53:38.000Z</time>
      </trkpt>
      <trkpt lat="43.33868" lon="5.67117">
        <ele>346</ele>
        <time>2019-01-18T08:53:39.000Z</time>
      </trkpt>
      <trkpt lat="43.33868" lon="5.67117">
        <ele>346</ele>
        <time>2019-01-18T08:53:40.000Z</time>
      </trkpt>
      <trkpt lat="43.33868" lon="5.67117">
        <ele>346</ele>
        <time>2019-01-18T08:53:41.000Z</time>
      </trkpt>
      <trkpt lat="43.33867" lon="5.67117">
        <ele>346</ele>
        <time>2019-01-18T08:53:42.000Z</time>
      </trkpt>
      <trkpt lat="43.33867" lon="5.67117">
        <ele>346</ele>
        <time>2019-01-18T08:53:43.000Z</time>
      </trkpt>
      <trkpt lat="43.33867" lon="5.67116">
        <ele>346</ele>
        <time>2019-01-18T08:53:44.000Z</time>
      </trkpt>
      <trkpt lat="43.33867" lon="5.67116">
        <ele>347</ele>
        <time>2019-01-18T08:53:45.000Z</time>
      </trkpt>
      <trkpt lat="43.33867" lon="5.67116">
        <ele>347</ele>
        <time>2019-01-18T08:53:46.000Z</time>
      </trkpt>
      <trkpt lat="43.33867" lon="5.67116">
        <ele>347</ele>
        <time>2019-01-18T08:53:47.000Z</time>
      </trkpt>
      <trkpt lat="43.33867" lon="5.67116">
        <ele>347</ele>
        <time>2019-01-18T08:53:48.000Z</time>
      </trkpt>
      <trkpt lat="43.33867" lon="5.67116">
        <ele>347</ele>
        <time>2019-01-18T08:53:49.000Z</time>
      </trkpt>
      <trkpt lat="43.33867" lon="5.67117">
        <ele>347</ele>
        <time>2019-01-18T08:53:50.000Z</time>
      </trkpt>
      <trkpt lat="43.33867" lon="5.67117">
        <ele>347</ele>
        <time>2019-01-18T08:53:51.000Z</time>
      </trkpt>
      <trkpt lat="43.33867" lon="5.67117">
        <ele>347</ele>
        <time>2019-01-18T08:53:52.000Z</time>
      </trkpt>
      <trkpt lat="43.33867" lon="5.67117">
        <ele>347</ele>
        <time>2019-01-18T08:53:53.000Z</time>
      </trkpt>
      <trkpt lat="43.33867" lon="5.67117">
        <ele>347</ele>
        <time>2019-01-18T08:53:54.000Z</time>
      </trkpt>
      <trkpt lat="43.33867" lon="5.67117">
        <ele>347</ele>
        <time>2019-01-18T08:53:55.000Z</time>
      </trkpt>
      <trkpt lat="43.33867" lon="5.67117">
        <ele>347</ele>
        <time>2019-01-18T08:53:56.000Z</time>
      </trkpt>
      <trkpt lat="43.33867" lon="5.67117">
        <ele>347</ele>
        <time>2019-01-18T08:53:57.000Z</time>
      </trkpt>
      <trkpt lat="43.33867" lon="5.67116">
        <ele>347</ele>
        <time>2019-01-18T08:53:58.000Z</time>
      </trkpt>
      <trkpt lat="43.33866" lon="5.67117">
        <ele>347</ele>
        <time>2019-01-18T08:53:59.000Z</time>
      </trkpt>
      <trkpt lat="43.33866" lon="5.67117">
        <ele>347</ele>
        <time>2019-01-18T08:54:00.000Z</time>
      </trkpt>
      <trkpt lat="43.33866" lon="5.67117">
        <ele>348</ele>
        <time>2019-01-18T08:54:01.000Z</time>
      </trkpt>
      <trkpt lat="43.33866" lon="5.67117">
        <ele>348</ele>
        <time>2019-01-18T08:54:02.000Z</time>
      </trkpt>
      <trkpt lat="43.33866" lon="5.67117">
        <ele>348</ele>
        <time>2019-01-18T08:54:03.000Z</time>
      </trkpt>
      <trkpt lat="43.33866" lon="5.67117">
        <ele>348</ele>
        <time>2019-01-18T08:54:04.000Z</time>
      </trkpt>
      <trkpt lat="43.33866" lon="5.67117">
        <ele>348</ele>
        <time>2019-01-18T08:54:05.000Z</time>
      </trkpt>
      <trkpt lat="43.33866" lon="5.67117">
        <ele>348</ele>
        <time>2019-01-18T08:54:06.000Z</time>
      </trkpt>
      <trkpt lat="43.33866" lon="5.67117">
        <ele>348</ele>
        <time>2019-01-18T08:54:07.000Z</time>
      </trkpt>
      <trkpt lat="43.33866" lon="5.67117">
        <ele>348</ele>
        <time>2019-01-18T08:54:08.000Z</time>
      </trkpt>
      <trkpt lat="43.33866" lon="5.67117">
        <ele>348</ele>
        <time>2019-01-18T08:54:09.000Z</time>
      </trkpt>
      <trkpt lat="43.33866" lon="5.67117">
        <ele>348</ele>
        <time>2019-01-18T08:54:10.000Z</time>
      </trkpt>
      <trkpt lat="43.33866" lon="5.67117">
        <ele>348</ele>
        <time>2019-01-18T08:54:11.000Z</time>
      </trkpt>
      <trkpt lat="43.33866" lon="5.67117">
        <ele>348</ele>
        <time>2019-01-18T08:54:12.000Z</time>
      </trkpt>
      <trkpt lat="43.33866" lon="5.67117">
        <ele>348</ele>
        <time>2019-01-18T08:54:13.000Z</time>
      </trkpt>
      <trkpt lat="43.33866" lon="5.67116">
        <ele>348</ele>
        <time>2019-01-18T08:54:14.000Z</time>
      </trkpt>
      <trkpt lat="43.33866" lon="5.67116">
        <ele>349</ele>
        <time>2019-01-18T08:54:15.000Z</time>
      </trkpt>
      <trkpt lat="43.33866" lon="5.67117">
        <ele>349</ele>
        <time>2019-01-18T08:54:16.000Z</time>
      </trkpt>
      <trkpt lat="43.33866" lon="5.67117">
        <ele>349</ele>
        <time>2019-01-18T08:54:17.000Z</time>
      </trkpt>
      <trkpt lat="43.33866" lon="5.67117">
        <ele>349</ele>
        <time>2019-01-18T08:54:18.000Z</time>
      </trkpt>
      <trkpt lat="43.33866" lon="5.67117">
        <ele>349</ele>
        <time>2019-01-18T08:54:19.000Z</time>
      </trkpt>
      <trkpt lat="43.33866" lon="5.67117">
        <ele>349</ele>
        <time>2019-01-18T08:54:20.000Z</time>
      </trkpt>
      <trkpt lat="43.33866" lon="5.67117">
        <ele>349</ele>
        <time>2019-01-18T08:54:21.000Z</time>
      </trkpt>
      <trkpt lat="43.33866" lon="5.67117">
        <ele>349</ele>
        <time>2019-01-18T08:54:22.000Z</time>
      </trkpt>
      <trkpt lat="43.33866" lon="5.67117">
        <ele>349</ele>
        <time>2019-01-18T08:54:23.000Z</time>
      </trkpt>
      <trkpt lat="43.33866" lon="5.67117">
        <ele>349</ele>
        <time>2019-01-18T08:54:24.000Z</time>
      </trkpt>
      <trkpt lat="43.33866" lon="5.67117">
        <ele>349</ele>
        <time>2019-01-18T08:54:25.000Z</time>
      </trkpt>
      <trkpt lat="43.33866" lon="5.67117">
        <ele>349</ele>
        <time>2019-01-18T08:54:26.000Z</time>
      </trkpt>
      <trkpt lat="43.33866" lon="5.67117">
        <ele>349</ele>
        <time>2019-01-18T08:54:27.000Z</time>
      </trkpt>
      <trkpt lat="43.33866" lon="5.67117">
        <ele>349</ele>
        <time>2019-01-18T08:54:28.000Z</time>
      </trkpt>
      <trkpt lat="43.33866" lon="5.67117">
        <ele>349</ele>
        <time>2019-01-18T08:54:29.000Z</time>
      </trkpt>
      <trkpt lat="43.33866" lon="5.67117">
        <ele>349</ele>
        <time>2019-01-18T08:54:30.000Z</time>
      </trkpt>
      <trkpt lat="43.33867" lon="5.67116">
        <ele>349</ele>
        <time>2019-01-18T08:54:31.000Z</time>
      </trkpt>
      <trkpt lat="43.33867" lon="5.67116">
        <ele>349</ele>
        <time>2019-01-18T08:54:32.000Z</time>
      </trkpt>
      <trkpt lat="43.33866" lon="5.67116">
        <ele>349</ele>
        <time>2019-01-18T08:54:33.000Z</time>
      </trkpt>
      <trkpt lat="43.33866" lon="5.67116">
        <ele>349</ele>
        <time>2019-01-18T08:54:34.000Z</time>
      </trkpt>
      <trkpt lat="43.33866" lon="5.67116">
        <ele>349</ele>
        <time>2019-01-18T08:54:35.000Z</time>
      </trkpt>
      <trkpt lat="43.33866" lon="5.67116">
        <ele>349</ele>
        <time>2019-01-18T08:54:36.000Z</time>
      </trkpt>
      <trkpt lat="43.33866" lon="5.67116">
        <ele>349</ele>
        <time>2019-01-18T08:54:37.000Z</time>
      </trkpt>
      <trkpt lat="43.33867" lon="5.67116">
        <ele>349</ele>
        <time>2019-01-18T08:54:38.000Z</time>
      </trkpt>
      <trkpt lat="43.33867" lon="5.67116">
        <ele>349</ele>
        <time>2019-01-18T08:54:39.000Z</time>
      </trkpt>
      <trkpt lat="43.33867" lon="5.67116">
        <ele>349</ele>
        <time>2019-01-18T08:54:40.000Z</time>
      </trkpt>
      <trkpt lat="43.33867" lon="5.67117">
        <ele>349</ele>
        <time>2019-01-18T08:54:41.000Z</time>
      </trkpt>
      <trkpt lat="43.33867" lon="5.67117">
        <ele>349</ele>
        <time>2019-01-18T08:54:42.000Z</time>
      </trkpt>
      <trkpt lat="43.33866" lon="5.67117">
        <ele>349</ele>
        <time>2019-01-18T08:54:43.000Z</time>
      </trkpt>
      <trkpt lat="43.33866" lon="5.67117">
        <ele>349</ele>
        <time>2019-01-18T08:54:44.000Z</time>
      </trkpt>
      <trkpt lat="43.33866" lon="5.67117">
        <ele>349</ele>
        <time>2019-01-18T08:54:45.000Z</time>
      </trkpt>
      <trkpt lat="43.33866" lon="5.67117">
        <ele>349</ele>
        <time>2019-01-18T08:54:46.000Z</time>
      </trkpt>
      <trkpt lat="43.33866" lon="5.67117">
        <ele>349</ele>
        <time>2019-01-18T08:54:47.000Z</time>
      </trkpt>
      <trkpt lat="43.33866" lon="5.67117">
        <ele>349</ele>
        <time>2019-01-18T08:54:48.000Z</time>
      </trkpt>
      <trkpt lat="43.33866" lon="5.67116">
        <ele>349</ele>
        <time>2019-01-18T08:54:49.000Z</time>
      </trkpt>
      <trkpt lat="43.33866" lon="5.67116">
        <ele>349</ele>
        <time>2019-01-18T08:54:50.000Z</time>
      </trkpt>
      <trkpt lat="43.33866" lon="5.67116">
        <ele>349</ele>
        <time>2019-01-18T08:54:51.000Z</time>
      </trkpt>
      <trkpt lat="43.33866" lon="5.67116">
        <ele>349</ele>
        <time>2019-01-18T08:54:52.000Z</time>
      </trkpt>
      <trkpt lat="43.33865" lon="5.67116">
        <ele>349</ele>
        <time>2019-01-18T08:54:53.000Z</time>
      </trkpt>
      <trkpt lat="43.33865" lon="5.67116">
        <ele>349</ele>
        <time>2019-01-18T08:54:54.000Z</time>
      </trkpt>
      <trkpt lat="43.33865" lon="5.67116">
        <ele>349</ele>
        <time>2019-01-18T08:54:55.000Z</time>
      </trkpt>
      <trkpt lat="43.33865" lon="5.67116">
        <ele>349</ele>
        <time>2019-01-18T08:54:56.000Z</time>
      </trkpt>
      <trkpt lat="43.33865" lon="5.67116">
        <ele>349</ele>
        <time>2019-01-18T08:54:57.000Z</time>
      </trkpt>
      <trkpt lat="43.33865" lon="5.67116">
        <ele>349</ele>
        <time>2019-01-18T08:54:58.000Z</time>
      </trkpt>
      <trkpt lat="43.33865" lon="5.67116">
        <ele>350</ele>
        <time>2019-01-18T08:54:59.000Z</time>
      </trkpt>
      <trkpt lat="43.33865" lon="5.67116">
        <ele>350</ele>
        <time>2019-01-18T08:55:00.000Z</time>
      </trkpt>
      <trkpt lat="43.33865" lon="5.67116">
        <ele>350</ele>
        <time>2019-01-18T08:55:01.000Z</time>
      </trkpt>
      <trkpt lat="43.33865" lon="5.67116">
        <ele>350</ele>
        <time>2019-01-18T08:55:02.000Z</time>
      </trkpt>
      <trkpt lat="43.33865" lon="5.67116">
        <ele>350</ele>
        <time>2019-01-18T08:55:03.000Z</time>
      </trkpt>
      <trkpt lat="43.33865" lon="5.67116">
        <ele>350</ele>
        <time>2019-01-18T08:55:04.000Z</time>
      </trkpt>
      <trkpt lat="43.33865" lon="5.67116">
        <ele>350</ele>
        <time>2019-01-18T08:55:05.000Z</time>
      </trkpt>
      <trkpt lat="43.33865" lon="5.67116">
        <ele>350</ele>
        <time>2019-01-18T08:55:06.000Z</time>
      </trkpt>
      <trkpt lat="43.33865" lon="5.67116">
        <ele>350</ele>
        <time>2019-01-18T08:55:07.000Z</time>
      </trkpt>
      <trkpt lat="43.33865" lon="5.67116">
        <ele>350</ele>
        <time>2019-01-18T08:55:08.000Z</time>
      </trkpt>
      <trkpt lat="43.33865" lon="5.67116">
        <ele>350</ele>
        <time>2019-01-18T08:55:09.000Z</time>
      </trkpt>
      <trkpt lat="43.33865" lon="5.67116">
        <ele>350</ele>
        <time>2019-01-18T08:55:10.000Z</time>
      </trkpt>
      <trkpt lat="43.33865" lon="5.67117">
        <ele>350</ele>
        <time>2019-01-18T08:55:11.000Z</time>
      </trkpt>
      <trkpt lat="43.33865" lon="5.67116">
        <ele>350</ele>
        <time>2019-01-18T08:55:12.000Z</time>
      </trkpt>
      <trkpt lat="43.33865" lon="5.67117">
        <ele>350</ele>
        <time>2019-01-18T08:55:13.000Z</time>
      </trkpt>
      <trkpt lat="43.33865" lon="5.67116">
        <ele>351</ele>
        <time>2019-01-18T08:55:14.000Z</time>
      </trkpt>
      <trkpt lat="43.33865" lon="5.67117">
        <ele>351</ele>
        <time>2019-01-18T08:55:15.000Z</time>
      </trkpt>
      <trkpt lat="43.33865" lon="5.67117">
        <ele>351</ele>
        <time>2019-01-18T08:55:16.000Z</time>
      </trkpt>
      <trkpt lat="43.33865" lon="5.67117">
        <ele>351</ele>
        <time>2019-01-18T08:55:17.000Z</time>
      </trkpt>
      <trkpt lat="43.33865" lon="5.67117">
        <ele>351</ele>
        <time>2019-01-18T08:55:18.000Z</time>
      </trkpt>
      <trkpt lat="43.33865" lon="5.67117">
        <ele>351</ele>
        <time>2019-01-18T08:55:19.000Z</time>
      </trkpt>
      <trkpt lat="43.33865" lon="5.67117">
        <ele>351</ele>
        <time>2019-01-18T08:55:20.000Z</time>
      </trkpt>
      <trkpt lat="43.33865" lon="5.67117">
        <ele>351</ele>
        <time>2019-01-18T08:55:21.000Z</time>
      </trkpt>
      <trkpt lat="43.33865" lon="5.67118">
        <ele>351</ele>
        <time>2019-01-18T08:55:22.000Z</time>
      </trkpt>
      <trkpt lat="43.33865" lon="5.67118">
        <ele>352</ele>
        <time>2019-01-18T08:55:23.000Z</time>
      </trkpt>
      <trkpt lat="43.33865" lon="5.67119">
        <ele>352</ele>
        <time>2019-01-18T08:55:24.000Z</time>
      </trkpt>
      <trkpt lat="43.33865" lon="5.67119">
        <ele>352</ele>
        <time>2019-01-18T08:55:25.000Z</time>
      </trkpt>
      <trkpt lat="43.33864" lon="5.67119">
        <ele>352</ele>
        <time>2019-01-18T08:55:26.000Z</time>
      </trkpt>
      <trkpt lat="43.33864" lon="5.67119">
        <ele>352</ele>
        <time>2019-01-18T08:55:27.000Z</time>
      </trkpt>
      <trkpt lat="43.33864" lon="5.67119">
        <ele>352</ele>
        <time>2019-01-18T08:55:28.000Z</time>
      </trkpt>
      <trkpt lat="43.33864" lon="5.6712">
        <ele>352</ele>
        <time>2019-01-18T08:55:29.000Z</time>
      </trkpt>
      <trkpt lat="43.33864" lon="5.67119">
        <ele>352</ele>
        <time>2019-01-18T08:55:30.000Z</time>
      </trkpt>
      <trkpt lat="43.33864" lon="5.67119">
        <ele>352</ele>
        <time>2019-01-18T08:55:31.000Z</time>
      </trkpt>
      <trkpt lat="43.33864" lon="5.67119">
        <ele>352</ele>
        <time>2019-01-18T08:55:32.000Z</time>
      </trkpt>
      <trkpt lat="43.33864" lon="5.67119">
        <ele>352</ele>
        <time>2019-01-18T08:55:33.000Z</time>
      </trkpt>
      <trkpt lat="43.33864" lon="5.67119">
        <ele>352</ele>
        <time>2019-01-18T08:55:34.000Z</time>
      </trkpt>
      <trkpt lat="43.33864" lon="5.67119">
        <ele>352</ele>
        <time>2019-01-18T08:55:35.000Z</time>
      </trkpt>
      <trkpt lat="43.33865" lon="5.67119">
        <ele>352</ele>
        <time>2019-01-18T08:55:36.000Z</time>
      </trkpt>
      <trkpt lat="43.33865" lon="5.67119">
        <ele>351</ele>
        <time>2019-01-18T08:55:37.000Z</time>
      </trkpt>
      <trkpt lat="43.33865" lon="5.67119">
        <ele>351</ele>
        <time>2019-01-18T08:55:38.000Z</time>
      </trkpt>
      <trkpt lat="43.33865" lon="5.67119">
        <ele>351</ele>
        <time>2019-01-18T08:55:39.000Z</time>
      </trkpt>
      <trkpt lat="43.33865" lon="5.67119">
        <ele>351</ele>
        <time>2019-01-18T08:55:40.000Z</time>
      </trkpt>
      <trkpt lat="43.33865" lon="5.67119">
        <ele>351</ele>
        <time>2019-01-18T08:55:41.000Z</time>
      </trkpt>
      <trkpt lat="43.33865" lon="5.67119">
        <ele>351</ele>
        <time>2019-01-18T08:55:42.000Z</time>
      </trkpt>
      <trkpt lat="43.33865" lon="5.67119">
        <ele>351</ele>
        <time>2019-01-18T08:55:43.000Z</time>
      </trkpt>
      <trkpt lat="43.33866" lon="5.67119">
        <ele>350</ele>
        <time>2019-01-18T08:55:44.000Z</time>
      </trkpt>
      <trkpt lat="43.33866" lon="5.67119">
        <ele>350</ele>
        <time>2019-01-18T08:55:45.000Z</time>
      </trkpt>
      <trkpt lat="43.33866" lon="5.67119">
        <ele>350</ele>
        <time>2019-01-18T08:55:46.000Z</time>
      </trkpt>
      <trkpt lat="43.33866" lon="5.67119">
        <ele>350</ele>
        <time>2019-01-18T08:55:47.000Z</time>
      </trkpt>
      <trkpt lat="43.33866" lon="5.67119">
        <ele>350</ele>
        <time>2019-01-18T08:55:48.000Z</time>
      </trkpt>
      <trkpt lat="43.33866" lon="5.67119">
        <ele>350</ele>
        <time>2019-01-18T08:55:49.000Z</time>
      </trkpt>
      <trkpt lat="43.33866" lon="5.67119">
        <ele>350</ele>
        <time>2019-01-18T08:55:50.000Z</time>
      </trkpt>
      <trkpt lat="43.33866" lon="5.67119">
        <ele>350</ele>
        <time>2019-01-18T08:55:51.000Z</time>
      </trkpt>
      <trkpt lat="43.33866" lon="5.67119">
        <ele>350</ele>
        <time>2019-01-18T08:55:52.000Z</time>
      </trkpt>
      <trkpt lat="43.33865" lon="5.67119">
        <ele>350</ele>
        <time>2019-01-18T08:55:53.000Z</time>
      </trkpt>
      <trkpt lat="43.33865" lon="5.67119">
        <ele>350</ele>
        <time>2019-01-18T08:55:54.000Z</time>
      </trkpt>
      <trkpt lat="43.33865" lon="5.67118">
        <ele>350</ele>
        <time>2019-01-18T08:55:55.000Z</time>
      </trkpt>
      <trkpt lat="43.33865" lon="5.67118">
        <ele>351</ele>
        <time>2019-01-18T08:55:56.000Z</time>
      </trkpt>
      <trkpt lat="43.33865" lon="5.67118">
        <ele>351</ele>
        <time>2019-01-18T08:55:57.000Z</time>
      </trkpt>
      <trkpt lat="43.33865" lon="5.67119">
        <ele>351</ele>
        <time>2019-01-18T08:55:58.000Z</time>
      </trkpt>
      <trkpt lat="43.33865" lon="5.67119">
        <ele>351</ele>
        <time>2019-01-18T08:55:59.000Z</time>
      </trkpt>
      <trkpt lat="43.33865" lon="5.67119">
        <ele>351</ele>
        <time>2019-01-18T08:56:00.000Z</time>
      </trkpt>
      <trkpt lat="43.33865" lon="5.67119">
        <ele>351</ele>
        <time>2019-01-18T08:56:01.000Z</time>
      </trkpt>
      <trkpt lat="43.33865" lon="5.67119">
        <ele>351</ele>
        <time>2019-01-18T08:56:02.000Z</time>
      </trkpt>
      <trkpt lat="43.33865" lon="5.67119">
        <ele>351</ele>
        <time>2019-01-18T08:56:03.000Z</time>
      </trkpt>
      <trkpt lat="43.33865" lon="5.67119">
        <ele>351</ele>
        <time>2019-01-18T08:56:04.000Z</time>
      </trkpt>
      <trkpt lat="43.33865" lon="5.67119">
        <ele>352</ele>
        <time>2019-01-18T08:56:05.000Z</time>
      </trkpt>
      <trkpt lat="43.33865" lon="5.67119">
        <ele>352</ele>
        <time>2019-01-18T08:56:06.000Z</time>
      </trkpt>
      <trkpt lat="43.33865" lon="5.67119">
        <ele>352</ele>
        <time>2019-01-18T08:56:07.000Z</time>
      </trkpt>
      <trkpt lat="43.33865" lon="5.67119">
        <ele>352</ele>
        <time>2019-01-18T08:56:08.000Z</time>
      </trkpt>
      <trkpt lat="43.33865" lon="5.67119">
        <ele>352</ele>
        <time>2019-01-18T08:56:09.000Z</time>
      </trkpt>
      <trkpt lat="43.33865" lon="5.67119">
        <ele>352</ele>
        <time>2019-01-18T08:56:10.000Z</time>
      </trkpt>
      <trkpt lat="43.33865" lon="5.67119">
        <ele>352</ele>
        <time>2019-01-18T08:56:11.000Z</time>
      </trkpt>
      <trkpt lat="43.33865" lon="5.67119">
        <ele>352</ele>
        <time>2019-01-18T08:56:12.000Z</time>
      </trkpt>
      <trkpt lat="43.33865" lon="5.67119">
        <ele>352</ele>
        <time>2019-01-18T08:56:13.000Z</time>
      </trkpt>
      <trkpt lat="43.33865" lon="5.67119">
        <ele>352</ele>
        <time>2019-01-18T08:56:14.000Z</time>
      </trkpt>
      <trkpt lat="43.33865" lon="5.67119">
        <ele>353</ele>
        <time>2019-01-18T08:56:15.000Z</time>
      </trkpt>
      <trkpt lat="43.33865" lon="5.67119">
        <ele>353</ele>
        <time>2019-01-18T08:56:16.000Z</time>
      </trkpt>
      <trkpt lat="43.33865" lon="5.67119">
        <ele>353</ele>
        <time>2019-01-18T08:56:17.000Z</time>
      </trkpt>
      <trkpt lat="43.33865" lon="5.67118">
        <ele>353</ele>
        <time>2019-01-18T08:56:18.000Z</time>
      </trkpt>
      <trkpt lat="43.33865" lon="5.67118">
        <ele>353</ele>
        <time>2019-01-18T08:56:19.000Z</time>
      </trkpt>
      <trkpt lat="43.33865" lon="5.67119">
        <ele>353</ele>
        <time>2019-01-18T08:56:20.000Z</time>
      </trkpt>
      <trkpt lat="43.33865" lon="5.67119">
        <ele>353</ele>
        <time>2019-01-18T08:56:21.000Z</time>
      </trkpt>
      <trkpt lat="43.33865" lon="5.67119">
        <ele>354</ele>
        <time>2019-01-18T08:56:22.000Z</time>
      </trkpt>
      <trkpt lat="43.33865" lon="5.67119">
        <ele>354</ele>
        <time>2019-01-18T08:56:23.000Z</time>
      </trkpt>
      <trkpt lat="43.33864" lon="5.6712">
        <ele>354</ele>
        <time>2019-01-18T08:56:24.000Z</time>
      </trkpt>
      <trkpt lat="43.33864" lon="5.6712">
        <ele>354</ele>
        <time>2019-01-18T08:56:25.000Z</time>
      </trkpt>
      <trkpt lat="43.33863" lon="5.67119">
        <ele>354</ele>
        <time>2019-01-18T08:56:26.000Z</time>
      </trkpt>
      <trkpt lat="43.33863" lon="5.67119">
        <ele>354</ele>
        <time>2019-01-18T08:56:27.000Z</time>
      </trkpt>
      <trkpt lat="43.33863" lon="5.67119">
        <ele>354</ele>
        <time>2019-01-18T08:56:28.000Z</time>
      </trkpt>
      <trkpt lat="43.33862" lon="5.67118">
        <ele>353</ele>
        <time>2019-01-18T08:56:29.000Z</time>
      </trkpt>
      <trkpt lat="43.33862" lon="5.67117">
        <ele>353</ele>
        <time>2019-01-18T08:56:30.000Z</time>
      </trkpt>
      <trkpt lat="43.33862" lon="5.67117">
        <ele>353</ele>
        <time>2019-01-18T08:56:31.000Z</time>
      </trkpt>
      <trkpt lat="43.33862" lon="5.67117">
        <ele>353</ele>
        <time>2019-01-18T08:56:32.000Z</time>
      </trkpt>
      <trkpt lat="43.33862" lon="5.67115">
        <ele>353</ele>
        <time>2019-01-18T08:56:33.000Z</time>
      </trkpt>
      <trkpt lat="43.33862" lon="5.67115">
        <ele>354</ele>
        <time>2019-01-18T08:56:34.000Z</time>
      </trkpt>
      <trkpt lat="43.33862" lon="5.67115">
        <ele>353</ele>
        <time>2019-01-18T08:56:35.000Z</time>
      </trkpt>
      <trkpt lat="43.33861" lon="5.67114">
        <ele>353</ele>
        <time>2019-01-18T08:56:36.000Z</time>
      </trkpt>
      <trkpt lat="43.33861" lon="5.67113">
        <ele>353</ele>
        <time>2019-01-18T08:56:37.000Z</time>
      </trkpt>
      <trkpt lat="43.33861" lon="5.67113">
        <ele>353</ele>
        <time>2019-01-18T08:56:38.000Z</time>
      </trkpt>
      <trkpt lat="43.33861" lon="5.67113">
        <ele>353</ele>
        <time>2019-01-18T08:56:39.000Z</time>
      </trkpt>
      <trkpt lat="43.33861" lon="5.67113">
        <ele>353</ele>
        <time>2019-01-18T08:56:40.000Z</time>
      </trkpt>
      <trkpt lat="43.33861" lon="5.67113">
        <ele>353</ele>
        <time>2019-01-18T08:56:41.000Z</time>
      </trkpt>
      <trkpt lat="43.33861" lon="5.67113">
        <ele>353</ele>
        <time>2019-01-18T08:56:42.000Z</time>
      </trkpt>
      <trkpt lat="43.33861" lon="5.67113">
        <ele>353</ele>
        <time>2019-01-18T08:56:43.000Z</time>
      </trkpt>
      <trkpt lat="43.33861" lon="5.67113">
        <ele>354</ele>
        <time>2019-01-18T08:56:44.000Z</time>
      </trkpt>
      <trkpt lat="43.33861" lon="5.67113">
        <ele>354</ele>
        <time>2019-01-18T08:56:45.000Z</time>
      </trkpt>
      <trkpt lat="43.33861" lon="5.67113">
        <ele>353</ele>
        <time>2019-01-18T08:56:46.000Z</time>
      </trkpt>
      <trkpt lat="43.33861" lon="5.67112">
        <ele>353</ele>
        <time>2019-01-18T08:56:47.000Z</time>
      </trkpt>
      <trkpt lat="43.33861" lon="5.67112">
        <ele>353</ele>
        <time>2019-01-18T08:56:48.000Z</time>
      </trkpt>
      <trkpt lat="43.33861" lon="5.67112">
        <ele>353</ele>
        <time>2019-01-18T08:56:49.000Z</time>
      </trkpt>
      <trkpt lat="43.33861" lon="5.67111">
        <ele>353</ele>
        <time>2019-01-18T08:56:50.000Z</time>
      </trkpt>
      <trkpt lat="43.33861" lon="5.67111">
        <ele>353</ele>
        <time>2019-01-18T08:56:51.000Z</time>
      </trkpt>
      <trkpt lat="43.33861" lon="5.6711">
        <ele>353</ele>
        <time>2019-01-18T08:56:52.000Z</time>
      </trkpt>
      <trkpt lat="43.33861" lon="5.67109">
        <ele>353</ele>
        <time>2019-01-18T08:56:53.000Z</time>
      </trkpt>
      <trkpt lat="43.33861" lon="5.67108">
        <ele>353</ele>
        <time>2019-01-18T08:56:54.000Z</time>
      </trkpt>
      <trkpt lat="43.33861" lon="5.67107">
        <ele>353</ele>
        <time>2019-01-18T08:56:55.000Z</time>
      </trkpt>
      <trkpt lat="43.33861" lon="5.67107">
        <ele>353</ele>
        <time>2019-01-18T08:56:56.000Z</time>
      </trkpt>
      <trkpt lat="43.33861" lon="5.67106">
        <ele>353</ele>
        <time>2019-01-18T08:56:57.000Z</time>
      </trkpt>
      <trkpt lat="43.33861" lon="5.67105">
        <ele>353</ele>
        <time>2019-01-18T08:56:58.000Z</time>
      </trkpt>
      <trkpt lat="43.33861" lon="5.67104">
        <ele>353</ele>
        <time>2019-01-18T08:56:59.000Z</time>
      </trkpt>
      <trkpt lat="43.33861" lon="5.67104">
        <ele>353</ele>
        <time>2019-01-18T08:57:00.000Z</time>
      </trkpt>
      <trkpt lat="43.33861" lon="5.67102">
        <ele>352</ele>
        <time>2019-01-18T08:57:01.000Z</time>
      </trkpt>
      <trkpt lat="43.3386" lon="5.67102">
        <ele>352</ele>
        <time>2019-01-18T08:57:02.000Z</time>
      </trkpt>
      <trkpt lat="43.3386" lon="5.67101">
        <ele>352</ele>
        <time>2019-01-18T08:57:03.000Z</time>
      </trkpt>
      <trkpt lat="43.3386" lon="5.671">
        <ele>352</ele>
        <time>2019-01-18T08:57:04.000Z</time>
      </trkpt>
      <trkpt lat="43.3386" lon="5.67099">
        <ele>352</ele>
        <time>2019-01-18T08:57:05.000Z</time>
      </trkpt>
      <trkpt lat="43.3386" lon="5.67098">
        <ele>352</ele>
        <time>2019-01-18T08:57:06.000Z</time>
      </trkpt>
      <trkpt lat="43.3386" lon="5.67096">
        <ele>352</ele>
        <time>2019-01-18T08:57:07.000Z</time>
      </trkpt>
      <trkpt lat="43.3386" lon="5.67095">
        <ele>352</ele>
        <time>2019-01-18T08:57:08.000Z</time>
      </trkpt>
      <trkpt lat="43.3386" lon="5.67094">
        <ele>352</ele>
        <time>2019-01-18T08:57:09.000Z</time>
      </trkpt>
      <trkpt lat="43.3386" lon="5.67092">
        <ele>352</ele>
        <time>2019-01-18T08:57:10.000Z</time>
      </trkpt>
      <trkpt lat="43.33861" lon="5.67091">
        <ele>352</ele>
        <time>2019-01-18T08:57:11.000Z</time>
      </trkpt>
      <trkpt lat="43.33861" lon="5.6709">
        <ele>352</ele>
        <time>2019-01-18T08:57:12.000Z</time>
      </trkpt>
      <trkpt lat="43.33862" lon="5.67089">
        <ele>352</ele>
        <time>2019-01-18T08:57:13.000Z</time>
      </trkpt>
      <trkpt lat="43.33862" lon="5.67089">
        <ele>352</ele>
        <time>2019-01-18T08:57:14.000Z</time>
      </trkpt>
      <trkpt lat="43.33863" lon="5.67089">
        <ele>352</ele>
        <time>2019-01-18T08:57:15.000Z</time>
      </trkpt>
      <trkpt lat="43.33863" lon="5.67089">
        <ele>352</ele>
        <time>2019-01-18T08:57:16.000Z</time>
      </trkpt>
      <trkpt lat="43.33863" lon="5.67089">
        <ele>352</ele>
        <time>2019-01-18T08:57:17.000Z</time>
      </trkpt>
      <trkpt lat="43.33863" lon="5.67089">
        <ele>352</ele>
        <time>2019-01-18T08:57:18.000Z</time>
      </trkpt>
      <trkpt lat="43.33863" lon="5.67088">
        <ele>352</ele>
        <time>2019-01-18T08:57:19.000Z</time>
      </trkpt>
      <trkpt lat="43.33862" lon="5.67088">
        <ele>352</ele>
        <time>2019-01-18T08:57:20.000Z</time>
      </trkpt>
      <trkpt lat="43.33862" lon="5.67087">
        <ele>352</ele>
        <time>2019-01-18T08:57:21.000Z</time>
      </trkpt>
      <trkpt lat="43.33862" lon="5.67087">
        <ele>352</ele>
        <time>2019-01-18T08:57:22.000Z</time>
      </trkpt>
      <trkpt lat="43.33861" lon="5.67086">
        <ele>351</ele>
        <time>2019-01-18T08:57:23.000Z</time>
      </trkpt>
      <trkpt lat="43.33861" lon="5.67086">
        <ele>351</ele>
        <time>2019-01-18T08:57:24.000Z</time>
      </trkpt>
      <trkpt lat="43.33861" lon="5.67086">
        <ele>351</ele>
        <time>2019-01-18T08:57:25.000Z</time>
      </trkpt>
      <trkpt lat="43.33861" lon="5.67086">
        <ele>351</ele>
        <time>2019-01-18T08:57:26.000Z</time>
      </trkpt>
      <trkpt lat="43.33861" lon="5.67086">
        <ele>351</ele>
        <time>2019-01-18T08:57:27.000Z</time>
      </trkpt>
      <trkpt lat="43.3386" lon="5.67085">
        <ele>351</ele>
        <time>2019-01-18T08:57:28.000Z</time>
      </trkpt>
      <trkpt lat="43.33859" lon="5.67085">
        <ele>351</ele>
        <time>2019-01-18T08:57:29.000Z</time>
      </trkpt>
      <trkpt lat="43.33859" lon="5.67085">
        <ele>351</ele>
        <time>2019-01-18T08:57:30.000Z</time>
      </trkpt>
      <trkpt lat="43.33858" lon="5.67085">
        <ele>351</ele>
        <time>2019-01-18T08:57:31.000Z</time>
      </trkpt>
      <trkpt lat="43.33857" lon="5.67085">
        <ele>351</ele>
        <time>2019-01-18T08:57:32.000Z</time>
      </trkpt>
      <trkpt lat="43.33857" lon="5.67085">
        <ele>351</ele>
        <time>2019-01-18T08:57:33.000Z</time>
      </trkpt>
      <trkpt lat="43.33856" lon="5.67085">
        <ele>351</ele>
        <time>2019-01-18T08:57:34.000Z</time>
      </trkpt>
      <trkpt lat="43.33855" lon="5.67085">
        <ele>351</ele>
        <time>2019-01-18T08:57:35.000Z</time>
      </trkpt>
      <trkpt lat="43.33855" lon="5.67085">
        <ele>351</ele>
        <time>2019-01-18T08:57:36.000Z</time>
      </trkpt>
      <trkpt lat="43.33854" lon="5.67085">
        <ele>351</ele>
        <time>2019-01-18T08:57:37.000Z</time>
      </trkpt>
      <trkpt lat="43.33854" lon="5.67086">
        <ele>351</ele>
        <time>2019-01-18T08:57:38.000Z</time>
      </trkpt>
      <trkpt lat="43.33853" lon="5.67086">
        <ele>351</ele>
        <time>2019-01-18T08:57:39.000Z</time>
      </trkpt>
      <trkpt lat="43.33853" lon="5.67086">
        <ele>352</ele>
        <time>2019-01-18T08:57:40.000Z</time>
      </trkpt>
      <trkpt lat="43.33852" lon="5.67086">
        <ele>352</ele>
        <time>2019-01-18T08:57:41.000Z</time>
      </trkpt>
      <trkpt lat="43.33852" lon="5.67086">
        <ele>352</ele>
        <time>2019-01-18T08:57:42.000Z</time>
      </trkpt>
      <trkpt lat="43.33851" lon="5.67086">
        <ele>352</ele>
        <time>2019-01-18T08:57:43.000Z</time>
      </trkpt>
      <trkpt lat="43.33851" lon="5.67086">
        <ele>352</ele>
        <time>2019-01-18T08:57:44.000Z</time>
      </trkpt>
      <trkpt lat="43.3385" lon="5.67087">
        <ele>352</ele>
        <time>2019-01-18T08:57:45.000Z</time>
      </trkpt>
      <trkpt lat="43.3385" lon="5.67087">
        <ele>352</ele>
        <time>2019-01-18T08:57:46.000Z</time>
      </trkpt>
      <trkpt lat="43.3385" lon="5.67087">
        <ele>352</ele>
        <time>2019-01-18T08:57:47.000Z</time>
      </trkpt>
      <trkpt lat="43.3385" lon="5.67087">
        <ele>352</ele>
        <time>2019-01-18T08:57:48.000Z</time>
      </trkpt>
      <trkpt lat="43.33849" lon="5.67087">
        <ele>352</ele>
        <time>2019-01-18T08:57:49.000Z</time>
      </trkpt>
      <trkpt lat="43.33849" lon="5.67088">
        <ele>352</ele>
        <time>2019-01-18T08:57:50.000Z</time>
      </trkpt>
      <trkpt lat="43.33849" lon="5.67088">
        <ele>352</ele>
        <time>2019-01-18T08:57:51.000Z</time>
      </trkpt>
      <trkpt lat="43.33849" lon="5.67088">
        <ele>352</ele>
        <time>2019-01-18T08:57:52.000Z</time>
      </trkpt>
      <trkpt lat="43.33849" lon="5.67088">
        <ele>352</ele>
        <time>2019-01-18T08:57:53.000Z</time>
      </trkpt>
      <trkpt lat="43.33848" lon="5.67088">
        <ele>352</ele>
        <time>2019-01-18T08:57:54.000Z</time>
      </trkpt>
      <trkpt lat="43.33848" lon="5.67088">
        <ele>352</ele>
        <time>2019-01-18T08:57:55.000Z</time>
      </trkpt>
      <trkpt lat="43.33848" lon="5.67088">
        <ele>352</ele>
        <time>2019-01-18T08:57:56.000Z</time>
      </trkpt>
      <trkpt lat="43.33847" lon="5.67087">
        <ele>352</ele>
        <time>2019-01-18T08:57:57.000Z</time>
      </trkpt>
      <trkpt lat="43.33847" lon="5.67087">
        <ele>352</ele>
        <time>2019-01-18T08:57:58.000Z</time>
      </trkpt>
      <trkpt lat="43.33847" lon="5.67088">
        <ele>352</ele>
        <time>2019-01-18T08:57:59.000Z</time>
      </trkpt>
      <trkpt lat="43.33846" lon="5.67087">
        <ele>352</ele>
        <time>2019-01-18T08:58:00.000Z</time>
      </trkpt>
      <trkpt lat="43.33846" lon="5.67087">
        <ele>352</ele>
        <time>2019-01-18T08:58:01.000Z</time>
      </trkpt>
      <trkpt lat="43.33845" lon="5.67087">
        <ele>353</ele>
        <time>2019-01-18T08:58:02.000Z</time>
      </trkpt>
      <trkpt lat="43.33845" lon="5.67087">
        <ele>353</ele>
        <time>2019-01-18T08:58:03.000Z</time>
      </trkpt>
      <trkpt lat="43.33845" lon="5.67087">
        <ele>353</ele>
        <time>2019-01-18T08:58:04.000Z</time>
      </trkpt>
      <trkpt lat="43.33844" lon="5.67086">
        <ele>353</ele>
        <time>2019-01-18T08:58:05.000Z</time>
      </trkpt>
      <trkpt lat="43.33844" lon="5.67086">
        <ele>353</ele>
        <time>2019-01-18T08:58:06.000Z</time>
      </trkpt>
      <trkpt lat="43.33843" lon="5.67086">
        <ele>353</ele>
        <time>2019-01-18T08:58:07.000Z</time>
      </trkpt>
      <trkpt lat="43.33842" lon="5.67086">
        <ele>353</ele>
        <time>2019-01-18T08:58:08.000Z</time>
      </trkpt>
      <trkpt lat="43.33842" lon="5.67086">
        <ele>353</ele>
        <time>2019-01-18T08:58:09.000Z</time>
      </trkpt>
      <trkpt lat="43.33841" lon="5.67086">
        <ele>353</ele>
        <time>2019-01-18T08:58:10.000Z</time>
      </trkpt>
      <trkpt lat="43.33841" lon="5.67086">
        <ele>353</ele>
        <time>2019-01-18T08:58:11.000Z</time>
      </trkpt>
      <trkpt lat="43.3384" lon="5.67086">
        <ele>353</ele>
        <time>2019-01-18T08:58:12.000Z</time>
      </trkpt>
      <trkpt lat="43.3384" lon="5.67086">
        <ele>353</ele>
        <time>2019-01-18T08:58:13.000Z</time>
      </trkpt>
      <trkpt lat="43.33839" lon="5.67086">
        <ele>353</ele>
        <time>2019-01-18T08:58:14.000Z</time>
      </trkpt>
      <trkpt lat="43.33838" lon="5.67086">
        <ele>353</ele>
        <time>2019-01-18T08:58:15.000Z</time>
      </trkpt>
      <trkpt lat="43.33837" lon="5.67086">
        <ele>353</ele>
        <time>2019-01-18T08:58:16.000Z</time>
      </trkpt>
      <trkpt lat="43.33836" lon="5.67086">
        <ele>354</ele>
        <time>2019-01-18T08:58:17.000Z</time>
      </trkpt>
      <trkpt lat="43.33836" lon="5.67086">
        <ele>354</ele>
        <time>2019-01-18T08:58:18.000Z</time>
      </trkpt>
      <trkpt lat="43.33836" lon="5.67086">
        <ele>354</ele>
        <time>2019-01-18T08:58:19.000Z</time>
      </trkpt>
      <trkpt lat="43.33836" lon="5.67087">
        <ele>354</ele>
        <time>2019-01-18T08:58:20.000Z</time>
      </trkpt>
      <trkpt lat="43.33836" lon="5.67087">
        <ele>354</ele>
        <time>2019-01-18T08:58:21.000Z</time>
      </trkpt>
      <trkpt lat="43.33835" lon="5.67088">
        <ele>354</ele>
        <time>2019-01-18T08:58:22.000Z</time>
      </trkpt>
      <trkpt lat="43.33835" lon="5.67088">
        <ele>354</ele>
        <time>2019-01-18T08:58:23.000Z</time>
      </trkpt>
      <trkpt lat="43.33834" lon="5.67089">
        <ele>354</ele>
        <time>2019-01-18T08:58:24.000Z</time>
      </trkpt>
      <trkpt lat="43.33834" lon="5.67089">
        <ele>354</ele>
        <time>2019-01-18T08:58:25.000Z</time>
      </trkpt>
      <trkpt lat="43.33833" lon="5.67089">
        <ele>354</ele>
        <time>2019-01-18T08:58:26.000Z</time>
      </trkpt>
      <trkpt lat="43.33832" lon="5.67089">
        <ele>354</ele>
        <time>2019-01-18T08:58:27.000Z</time>
      </trkpt>
      <trkpt lat="43.33832" lon="5.67089">
        <ele>354</ele>
        <time>2019-01-18T08:58:28.000Z</time>
      </trkpt>
      <trkpt lat="43.33831" lon="5.67089">
        <ele>354</ele>
        <time>2019-01-18T08:58:29.000Z</time>
      </trkpt>
      <trkpt lat="43.33831" lon="5.67089">
        <ele>354</ele>
        <time>2019-01-18T08:58:30.000Z</time>
      </trkpt>
      <trkpt lat="43.33831" lon="5.67089">
        <ele>354</ele>
        <time>2019-01-18T08:58:31.000Z</time>
      </trkpt>
      <trkpt lat="43.33831" lon="5.67089">
        <ele>354</ele>
        <time>2019-01-18T08:58:32.000Z</time>
      </trkpt>
      <trkpt lat="43.3383" lon="5.67089">
        <ele>354</ele>
        <time>2019-01-18T08:58:33.000Z</time>
      </trkpt>
      <trkpt lat="43.3383" lon="5.67089">
        <ele>354</ele>
        <time>2019-01-18T08:58:34.000Z</time>
      </trkpt>
      <trkpt lat="43.3383" lon="5.67089">
        <ele>354</ele>
        <time>2019-01-18T08:58:35.000Z</time>
      </trkpt>
      <trkpt lat="43.3383" lon="5.67089">
        <ele>355</ele>
        <time>2019-01-18T08:58:36.000Z</time>
      </trkpt>
      <trkpt lat="43.3383" lon="5.67089">
        <ele>355</ele>
        <time>2019-01-18T08:58:37.000Z</time>
      </trkpt>
      <trkpt lat="43.3383" lon="5.67089">
        <ele>355</ele>
        <time>2019-01-18T08:58:38.000Z</time>
      </trkpt>
      <trkpt lat="43.3383" lon="5.6709">
        <ele>355</ele>
        <time>2019-01-18T08:58:39.000Z</time>
      </trkpt>
      <trkpt lat="43.3383" lon="5.6709">
        <ele>355</ele>
        <time>2019-01-18T08:58:40.000Z</time>
      </trkpt>
      <trkpt lat="43.3383" lon="5.6709">
        <ele>355</ele>
        <time>2019-01-18T08:58:41.000Z</time>
      </trkpt>
      <trkpt lat="43.33829" lon="5.6709">
        <ele>355</ele>
        <time>2019-01-18T08:58:42.000Z</time>
      </trkpt>
      <trkpt lat="43.33829" lon="5.6709">
        <ele>355</ele>
        <time>2019-01-18T08:58:43.000Z</time>
      </trkpt>
      <trkpt lat="43.33829" lon="5.6709">
        <ele>355</ele>
        <time>2019-01-18T08:58:44.000Z</time>
      </trkpt>
      <trkpt lat="43.33829" lon="5.6709">
        <ele>355</ele>
        <time>2019-01-18T08:58:45.000Z</time>
      </trkpt>
      <trkpt lat="43.33829" lon="5.6709">
        <ele>355</ele>
        <time>2019-01-18T08:58:46.000Z</time>
      </trkpt>
      <trkpt lat="43.33829" lon="5.6709">
        <ele>355</ele>
        <time>2019-01-18T08:58:47.000Z</time>
      </trkpt>
      <trkpt lat="43.33829" lon="5.6709">
        <ele>355</ele>
        <time>2019-01-18T08:58:48.000Z</time>
      </trkpt>
      <trkpt lat="43.33829" lon="5.6709">
        <ele>355</ele>
        <time>2019-01-18T08:58:49.000Z</time>
      </trkpt>
      <trkpt lat="43.33829" lon="5.6709">
        <ele>355</ele>
        <time>2019-01-18T08:58:50.000Z</time>
      </trkpt>
      <trkpt lat="43.33829" lon="5.6709">
        <ele>355</ele>
        <time>2019-01-18T08:58:51.000Z</time>
      </trkpt>
      <trkpt lat="43.33829" lon="5.6709">
        <ele>355</ele>
        <time>2019-01-18T08:58:52.000Z</time>
      </trkpt>
      <trkpt lat="43.33829" lon="5.6709">
        <ele>355</ele>
        <time>2019-01-18T08:58:53.000Z</time>
      </trkpt>
      <trkpt lat="43.33829" lon="5.6709">
        <ele>355</ele>
        <time>2019-01-18T08:58:54.000Z</time>
      </trkpt>
      <trkpt lat="43.33829" lon="5.6709">
        <ele>355</ele>
        <time>2019-01-18T08:58:55.000Z</time>
      </trkpt>
      <trkpt lat="43.33829" lon="5.6709">
        <ele>355</ele>
        <time>2019-01-18T08:58:56.000Z</time>
      </trkpt>
      <trkpt lat="43.33829" lon="5.6709">
        <ele>355</ele>
        <time>2019-01-18T08:58:57.000Z</time>
      </trkpt>
      <trkpt lat="43.33829" lon="5.6709">
        <ele>355</ele>
        <time>2019-01-18T08:58:58.000Z</time>
      </trkpt>
      <trkpt lat="43.33829" lon="5.6709">
        <ele>355</ele>
        <time>2019-01-18T08:58:59.000Z</time>
      </trkpt>
      <trkpt lat="43.33829" lon="5.6709">
        <ele>355</ele>
        <time>2019-01-18T08:59:00.000Z</time>
      </trkpt>
      <trkpt lat="43.33829" lon="5.6709">
        <ele>355</ele>
        <time>2019-01-18T08:59:01.000Z</time>
      </trkpt>
      <trkpt lat="43.33829" lon="5.6709">
        <ele>355</ele>
        <time>2019-01-18T08:59:02.000Z</time>
      </trkpt>
      <trkpt lat="43.33829" lon="5.6709">
        <ele>355</ele>
        <time>2019-01-18T08:59:03.000Z</time>
      </trkpt>
      <trkpt lat="43.33829" lon="5.6709">
        <ele>355</ele>
        <time>2019-01-18T08:59:04.000Z</time>
      </trkpt>
      <trkpt lat="43.33829" lon="5.6709">
        <ele>355</ele>
        <time>2019-01-18T08:59:05.000Z</time>
      </trkpt>
      <trkpt lat="43.33829" lon="5.6709">
        <ele>355</ele>
        <time>2019-01-18T08:59:06.000Z</time>
      </trkpt>
      <trkpt lat="43.33829" lon="5.6709">
        <ele>355</ele>
        <time>2019-01-18T08:59:07.000Z</time>
      </trkpt>
      <trkpt lat="43.33829" lon="5.6709">
        <ele>355</ele>
        <time>2019-01-18T08:59:08.000Z</time>
      </trkpt>
      <trkpt lat="43.33829" lon="5.6709">
        <ele>355</ele>
        <time>2019-01-18T08:59:09.000Z</time>
      </trkpt>
      <trkpt lat="43.33829" lon="5.6709">
        <ele>355</ele>
        <time>2019-01-18T08:59:10.000Z</time>
      </trkpt>
      <trkpt lat="43.33829" lon="5.6709">
        <ele>355</ele>
        <time>2019-01-18T08:59:11.000Z</time>
      </trkpt>
      <trkpt lat="43.33829" lon="5.6709">
        <ele>355</ele>
        <time>2019-01-18T08:59:12.000Z</time>
      </trkpt>
      <trkpt lat="43.33829" lon="5.6709">
        <ele>355</ele>
        <time>2019-01-18T08:59:13.000Z</time>
      </trkpt>
      <trkpt lat="43.33829" lon="5.6709">
        <ele>355</ele>
        <time>2019-01-18T08:59:14.000Z</time>
      </trkpt>
      <trkpt lat="43.33829" lon="5.6709">
        <ele>355</ele>
        <time>2019-01-18T08:59:15.000Z</time>
      </trkpt>
      <trkpt lat="43.33829" lon="5.6709">
        <ele>355</ele>
        <time>2019-01-18T08:59:16.000Z</time>
      </trkpt>
      <trkpt lat="43.33829" lon="5.6709">
        <ele>355</ele>
        <time>2019-01-18T08:59:17.000Z</time>
      </trkpt>
      <trkpt lat="43.33829" lon="5.6709">
        <ele>355</ele>
        <time>2019-01-18T08:59:18.000Z</time>
      </trkpt>
      <trkpt lat="43.33829" lon="5.6709">
        <ele>355</ele>
        <time>2019-01-18T08:59:19.000Z</time>
      </trkpt>
      <trkpt lat="43.33829" lon="5.6709">
        <ele>355</ele>
        <time>2019-01-18T08:59:20.000Z</time>
      </trkpt>
      <trkpt lat="43.33829" lon="5.6709">
        <ele>355</ele>
        <time>2019-01-18T08:59:21.000Z</time>
      </trkpt>
      <trkpt lat="43.33829" lon="5.6709">
        <ele>355</ele>
        <time>2019-01-18T08:59:22.000Z</time>
      </trkpt>
      <trkpt lat="43.33829" lon="5.6709">
        <ele>355</ele>
        <time>2019-01-18T08:59:23.000Z</time>
      </trkpt>
      <trkpt lat="43.33829" lon="5.6709">
        <ele>355</ele>
        <time>2019-01-18T08:59:24.000Z</time>
      </trkpt>
      <trkpt lat="43.33829" lon="5.6709">
        <ele>355</ele>
        <time>2019-01-18T08:59:25.000Z</time>
      </trkpt>
      <trkpt lat="43.33829" lon="5.6709">
        <ele>355</ele>
        <time>2019-01-18T08:59:26.000Z</time>
      </trkpt>
      <trkpt lat="43.33829" lon="5.6709">
        <ele>355</ele>
        <time>2019-01-18T08:59:27.000Z</time>
      </trkpt>
      <trkpt lat="43.33828" lon="5.6709">
        <ele>355</ele>
        <time>2019-01-18T08:59:28.000Z</time>
      </trkpt>
      <trkpt lat="43.33828" lon="5.6709">
        <ele>355</ele>
        <time>2019-01-18T08:59:29.000Z</time>
      </trkpt>
      <trkpt lat="43.33828" lon="5.6709">
        <ele>355</ele>
        <time>2019-01-18T08:59:30.000Z</time>
      </trkpt>
      <trkpt lat="43.33828" lon="5.6709">
        <ele>355</ele>
        <time>2019-01-18T08:59:31.000Z</time>
      </trkpt>
      <trkpt lat="43.33829" lon="5.6709">
        <ele>355</ele>
        <time>2019-01-18T08:59:32.000Z</time>
      </trkpt>
      <trkpt lat="43.33829" lon="5.6709">
        <ele>355</ele>
        <time>2019-01-18T08:59:33.000Z</time>
      </trkpt>
      <trkpt lat="43.33828" lon="5.6709">
        <ele>355</ele>
        <time>2019-01-18T08:59:34.000Z</time>
      </trkpt>
      <trkpt lat="43.33828" lon="5.6709">
        <ele>355</ele>
        <time>2019-01-18T08:59:35.000Z</time>
      </trkpt>
      <trkpt lat="43.33828" lon="5.6709">
        <ele>355</ele>
        <time>2019-01-18T08:59:36.000Z</time>
      </trkpt>
      <trkpt lat="43.33828" lon="5.6709">
        <ele>355</ele>
        <time>2019-01-18T08:59:37.000Z</time>
      </trkpt>
      <trkpt lat="43.33828" lon="5.6709">
        <ele>355</ele>
        <time>2019-01-18T08:59:38.000Z</time>
      </trkpt>
      <trkpt lat="43.33828" lon="5.67091">
        <ele>355</ele>
        <time>2019-01-18T08:59:39.000Z</time>
      </trkpt>
      <trkpt lat="43.33828" lon="5.67091">
        <ele>355</ele>
        <time>2019-01-18T08:59:40.000Z</time>
      </trkpt>
      <trkpt lat="43.33828" lon="5.67091">
        <ele>355</ele>
        <time>2019-01-18T08:59:41.000Z</time>
      </trkpt>
      <trkpt lat="43.33827" lon="5.67091">
        <ele>355</ele>
        <time>2019-01-18T08:59:42.000Z</time>
      </trkpt>
      <trkpt lat="43.33827" lon="5.67091">
        <ele>355</ele>
        <time>2019-01-18T08:59:43.000Z</time>
      </trkpt>
      <trkpt lat="43.33827" lon="5.67092">
        <ele>356</ele>
        <time>2019-01-18T08:59:44.000Z</time>
      </trkpt>
      <trkpt lat="43.33827" lon="5.67092">
        <ele>356</ele>
        <time>2019-01-18T08:59:45.000Z</time>
      </trkpt>
      <trkpt lat="43.33827" lon="5.67092">
        <ele>356</ele>
        <time>2019-01-18T08:59:46.000Z</time>
      </trkpt>
      <trkpt lat="43.33827" lon="5.67092">
        <ele>356</ele>
        <time>2019-01-18T08:59:47.000Z</time>
      </trkpt>
      <trkpt lat="43.33826" lon="5.67093">
        <ele>357</ele>
        <time>2019-01-18T08:59:48.000Z</time>
      </trkpt>
      <trkpt lat="43.33826" lon="5.67093">
        <ele>357</ele>
        <time>2019-01-18T08:59:49.000Z</time>
      </trkpt>
      <trkpt lat="43.33826" lon="5.67093">
        <ele>357</ele>
        <time>2019-01-18T08:59:50.000Z</time>
      </trkpt>
      <trkpt lat="43.33826" lon="5.67093">
        <ele>357</ele>
        <time>2019-01-18T08:59:51.000Z</time>
      </trkpt>
      <trkpt lat="43.33826" lon="5.67093">
        <ele>357</ele>
        <time>2019-01-18T08:59:52.000Z</time>
      </trkpt>
      <trkpt lat="43.33825" lon="5.67094">
        <ele>358</ele>
        <time>2019-01-18T08:59:53.000Z</time>
      </trkpt>
      <trkpt lat="43.33825" lon="5.67094">
        <ele>358</ele>
        <time>2019-01-18T08:59:54.000Z</time>
      </trkpt>
      <trkpt lat="43.33825" lon="5.67094">
        <ele>358</ele>
        <time>2019-01-18T08:59:55.000Z</time>
      </trkpt>
      <trkpt lat="43.33825" lon="5.67094">
        <ele>358</ele>
        <time>2019-01-18T08:59:56.000Z</time>
      </trkpt>
      <trkpt lat="43.33825" lon="5.67094">
        <ele>358</ele>
        <time>2019-01-18T08:59:57.000Z</time>
      </trkpt>
      <trkpt lat="43.33825" lon="5.67094">
        <ele>359</ele>
        <time>2019-01-18T08:59:58.000Z</time>
      </trkpt>
      <trkpt lat="43.33825" lon="5.67094">
        <ele>359</ele>
        <time>2019-01-18T08:59:59.000Z</time>
      </trkpt>
      <trkpt lat="43.33825" lon="5.67094">
        <ele>359</ele>
        <time>2019-01-18T09:00:00.000Z</time>
      </trkpt>
      <trkpt lat="43.33824" lon="5.67094">
        <ele>359</ele>
        <time>2019-01-18T09:00:01.000Z</time>
      </trkpt>
      <trkpt lat="43.33824" lon="5.67095">
        <ele>359</ele>
        <time>2019-01-18T09:00:02.000Z</time>
      </trkpt>
      <trkpt lat="43.33823" lon="5.67095">
        <ele>359</ele>
        <time>2019-01-18T09:00:03.000Z</time>
      </trkpt>
      <trkpt lat="43.33823" lon="5.67095">
        <ele>359</ele>
        <time>2019-01-18T09:00:04.000Z</time>
      </trkpt>
      <trkpt lat="43.33823" lon="5.67095">
        <ele>359</ele>
        <time>2019-01-18T09:00:05.000Z</time>
      </trkpt>
      <trkpt lat="43.33823" lon="5.67095">
        <ele>360</ele>
        <time>2019-01-18T09:00:06.000Z</time>
      </trkpt>
      <trkpt lat="43.33823" lon="5.67096">
        <ele>360</ele>
        <time>2019-01-18T09:00:07.000Z</time>
      </trkpt>
      <trkpt lat="43.33823" lon="5.67096">
        <ele>360</ele>
        <time>2019-01-18T09:00:08.000Z</time>
      </trkpt>
      <trkpt lat="43.33823" lon="5.67096">
        <ele>360</ele>
        <time>2019-01-18T09:00:09.000Z</time>
      </trkpt>
      <trkpt lat="43.33823" lon="5.67096">
        <ele>360</ele>
        <time>2019-01-18T09:00:10.000Z</time>
      </trkpt>
      <trkpt lat="43.33823" lon="5.67097">
        <ele>360</ele>
        <time>2019-01-18T09:00:11.000Z</time>
      </trkpt>
      <trkpt lat="43.33823" lon="5.67097">
        <ele>360</ele>
        <time>2019-01-18T09:00:12.000Z</time>
      </trkpt>
      <trkpt lat="43.33823" lon="5.67097">
        <ele>360</ele>
        <time>2019-01-18T09:00:13.000Z</time>
      </trkpt>
      <trkpt lat="43.33823" lon="5.67097">
        <ele>360</ele>
        <time>2019-01-18T09:00:14.000Z</time>
      </trkpt>
      <trkpt lat="43.33823" lon="5.67097">
        <ele>360</ele>
        <time>2019-01-18T09:00:15.000Z</time>
      </trkpt>
      <trkpt lat="43.33823" lon="5.67097">
        <ele>360</ele>
        <time>2019-01-18T09:00:16.000Z</time>
      </trkpt>
      <trkpt lat="43.33823" lon="5.67098">
        <ele>360</ele>
        <time>2019-01-18T09:00:17.000Z</time>
      </trkpt>
      <trkpt lat="43.33823" lon="5.67098">
        <ele>360</ele>
        <time>2019-01-18T09:00:18.000Z</time>
      </trkpt>
      <trkpt lat="43.33822" lon="5.67098">
        <ele>360</ele>
        <time>2019-01-18T09:00:19.000Z</time>
      </trkpt>
      <trkpt lat="43.33822" lon="5.67098">
        <ele>360</ele>
        <time>2019-01-18T09:00:20.000Z</time>
      </trkpt>
      <trkpt lat="43.33822" lon="5.67098">
        <ele>360</ele>
        <time>2019-01-18T09:00:21.000Z</time>
      </trkpt>
      <trkpt lat="43.33822" lon="5.67098">
        <ele>361</ele>
        <time>2019-01-18T09:00:22.000Z</time>
      </trkpt>
      <trkpt lat="43.33822" lon="5.67098">
        <ele>361</ele>
        <time>2019-01-18T09:00:23.000Z</time>
      </trkpt>
      <trkpt lat="43.33822" lon="5.67098">
        <ele>361</ele>
        <time>2019-01-18T09:00:24.000Z</time>
      </trkpt>
      <trkpt lat="43.33822" lon="5.67099">
        <ele>361</ele>
        <time>2019-01-18T09:00:25.000Z</time>
      </trkpt>
      <trkpt lat="43.33822" lon="5.67099">
        <ele>361</ele>
        <time>2019-01-18T09:00:26.000Z</time>
      </trkpt>
      <trkpt lat="43.33822" lon="5.67099">
        <ele>361</ele>
        <time>2019-01-18T09:00:27.000Z</time>
      </trkpt>
      <trkpt lat="43.33822" lon="5.67099">
        <ele>361</ele>
        <time>2019-01-18T09:00:28.000Z</time>
      </trkpt>
      <trkpt lat="43.33821" lon="5.67099">
        <ele>361</ele>
        <time>2019-01-18T09:00:29.000Z</time>
      </trkpt>
      <trkpt lat="43.33821" lon="5.67099">
        <ele>361</ele>
        <time>2019-01-18T09:00:30.000Z</time>
      </trkpt>
      <trkpt lat="43.33821" lon="5.67099">
        <ele>361</ele>
        <time>2019-01-18T09:00:31.000Z</time>
      </trkpt>
      <trkpt lat="43.33821" lon="5.67099">
        <ele>361</ele>
        <time>2019-01-18T09:00:32.000Z</time>
      </trkpt>
      <trkpt lat="43.33821" lon="5.67099">
        <ele>361</ele>
        <time>2019-01-18T09:00:33.000Z</time>
      </trkpt>
      <trkpt lat="43.33821" lon="5.67099">
        <ele>361</ele>
        <time>2019-01-18T09:00:34.000Z</time>
      </trkpt>
      <trkpt lat="43.33821" lon="5.67099">
        <ele>361</ele>
        <time>2019-01-18T09:00:35.000Z</time>
      </trkpt>
      <trkpt lat="43.33821" lon="5.67099">
        <ele>361</ele>
        <time>2019-01-18T09:00:36.000Z</time>
      </trkpt>
      <trkpt lat="43.33821" lon="5.671">
        <ele>361</ele>
        <time>2019-01-18T09:00:37.000Z</time>
      </trkpt>
      <trkpt lat="43.3382" lon="5.671">
        <ele>361</ele>
        <time>2019-01-18T09:00:38.000Z</time>
      </trkpt>
      <trkpt lat="43.3382" lon="5.671">
        <ele>361</ele>
        <time>2019-01-18T09:00:39.000Z</time>
      </trkpt>
      <trkpt lat="43.3382" lon="5.671">
        <ele>361</ele>
        <time>2019-01-18T09:00:40.000Z</time>
      </trkpt>
      <trkpt lat="43.3382" lon="5.67101">
        <ele>361</ele>
        <time>2019-01-18T09:00:41.000Z</time>
      </trkpt>
      <trkpt lat="43.3382" lon="5.67101">
        <ele>361</ele>
        <time>2019-01-18T09:00:42.000Z</time>
      </trkpt>
      <trkpt lat="43.3382" lon="5.67101">
        <ele>361</ele>
        <time>2019-01-18T09:00:43.000Z</time>
      </trkpt>
      <trkpt lat="43.3382" lon="5.67101">
        <ele>361</ele>
        <time>2019-01-18T09:00:44.000Z</time>
      </trkpt>
      <trkpt lat="43.3382" lon="5.67101">
        <ele>361</ele>
        <time>2019-01-18T09:00:45.000Z</time>
      </trkpt>
      <trkpt lat="43.3382" lon="5.67102">
        <ele>361</ele>
        <time>2019-01-18T09:00:46.000Z</time>
      </trkpt>
      <trkpt lat="43.3382" lon="5.67102">
        <ele>361</ele>
        <time>2019-01-18T09:00:47.000Z</time>
      </trkpt>
      <trkpt lat="43.3382" lon="5.67102">
        <ele>361</ele>
        <time>2019-01-18T09:00:48.000Z</time>
      </trkpt>
      <trkpt lat="43.3382" lon="5.67102">
        <ele>361</ele>
        <time>2019-01-18T09:00:49.000Z</time>
      </trkpt>
      <trkpt lat="43.3382" lon="5.67102">
        <ele>361</ele>
        <time>2019-01-18T09:00:50.000Z</time>
      </trkpt>
      <trkpt lat="43.3382" lon="5.67102">
        <ele>361</ele>
        <time>2019-01-18T09:00:51.000Z</time>
      </trkpt>
      <trkpt lat="43.3382" lon="5.67102">
        <ele>361</ele>
        <time>2019-01-18T09:00:52.000Z</time>
      </trkpt>
      <trkpt lat="43.3382" lon="5.67102">
        <ele>361</ele>
        <time>2019-01-18T09:00:53.000Z</time>
      </trkpt>
      <trkpt lat="43.3382" lon="5.67102">
        <ele>362</ele>
        <time>2019-01-18T09:00:54.000Z</time>
      </trkpt>
      <trkpt lat="43.3382" lon="5.67103">
        <ele>362</ele>
        <time>2019-01-18T09:00:55.000Z</time>
      </trkpt>
      <trkpt lat="43.3382" lon="5.67103">
        <ele>362</ele>
        <time>2019-01-18T09:00:56.000Z</time>
      </trkpt>
      <trkpt lat="43.3382" lon="5.67103">
        <ele>362</ele>
        <time>2019-01-18T09:00:57.000Z</time>
      </trkpt>
      <trkpt lat="43.3382" lon="5.67102">
        <ele>362</ele>
        <time>2019-01-18T09:00:58.000Z</time>
      </trkpt>
      <trkpt lat="43.3382" lon="5.67102">
        <ele>362</ele>
        <time>2019-01-18T09:00:59.000Z</time>
      </trkpt>
      <trkpt lat="43.3382" lon="5.67102">
        <ele>362</ele>
        <time>2019-01-18T09:01:00.000Z</time>
      </trkpt>
      <trkpt lat="43.3382" lon="5.67102">
        <ele>362</ele>
        <time>2019-01-18T09:01:01.000Z</time>
      </trkpt>
      <trkpt lat="43.3382" lon="5.67102">
        <ele>362</ele>
        <time>2019-01-18T09:01:02.000Z</time>
      </trkpt>
      <trkpt lat="43.3382" lon="5.67102">
        <ele>362</ele>
        <time>2019-01-18T09:01:03.000Z</time>
      </trkpt>
      <trkpt lat="43.3382" lon="5.67102">
        <ele>362</ele>
        <time>2019-01-18T09:01:04.000Z</time>
      </trkpt>
      <trkpt lat="43.3382" lon="5.67102">
        <ele>362</ele>
        <time>2019-01-18T09:01:05.000Z</time>
      </trkpt>
      <trkpt lat="43.3382" lon="5.67103">
        <ele>362</ele>
        <time>2019-01-18T09:01:06.000Z</time>
      </trkpt>
      <trkpt lat="43.3382" lon="5.67103">
        <ele>362</ele>
        <time>2019-01-18T09:01:07.000Z</time>
      </trkpt>
      <trkpt lat="43.33819" lon="5.67103">
        <ele>362</ele>
        <time>2019-01-18T09:01:08.000Z</time>
      </trkpt>
      <trkpt lat="43.33819" lon="5.67103">
        <ele>362</ele>
        <time>2019-01-18T09:01:09.000Z</time>
      </trkpt>
      <trkpt lat="43.3382" lon="5.67103">
        <ele>362</ele>
        <time>2019-01-18T09:01:10.000Z</time>
      </trkpt>
      <trkpt lat="43.3382" lon="5.67104">
        <ele>362</ele>
        <time>2019-01-18T09:01:11.000Z</time>
      </trkpt>
      <trkpt lat="43.33819" lon="5.67104">
        <ele>362</ele>
        <time>2019-01-18T09:01:12.000Z</time>
      </trkpt>
      <trkpt lat="43.33819" lon="5.67104">
        <ele>362</ele>
        <time>2019-01-18T09:01:13.000Z</time>
      </trkpt>
      <trkpt lat="43.33819" lon="5.67104">
        <ele>362</ele>
        <time>2019-01-18T09:01:14.000Z</time>
      </trkpt>
      <trkpt lat="43.33819" lon="5.67104">
        <ele>362</ele>
        <time>2019-01-18T09:01:15.000Z</time>
      </trkpt>
      <trkpt lat="43.33819" lon="5.67104">
        <ele>362</ele>
        <time>2019-01-18T09:01:16.000Z</time>
      </trkpt>
      <trkpt lat="43.33819" lon="5.67105">
        <ele>362</ele>
        <time>2019-01-18T09:01:17.000Z</time>
      </trkpt>
      <trkpt lat="43.33819" lon="5.67105">
        <ele>362</ele>
        <time>2019-01-18T09:01:18.000Z</time>
      </trkpt>
      <trkpt lat="43.33819" lon="5.67105">
        <ele>362</ele>
        <time>2019-01-18T09:01:19.000Z</time>
      </trkpt>
      <trkpt lat="43.33819" lon="5.67105">
        <ele>362</ele>
        <time>2019-01-18T09:01:20.000Z</time>
      </trkpt>
      <trkpt lat="43.33819" lon="5.67105">
        <ele>362</ele>
        <time>2019-01-18T09:01:21.000Z</time>
      </trkpt>
      <trkpt lat="43.33819" lon="5.67105">
        <ele>362</ele>
        <time>2019-01-18T09:01:22.000Z</time>
      </trkpt>
      <trkpt lat="43.33819" lon="5.67105">
        <ele>362</ele>
        <time>2019-01-18T09:01:23.000Z</time>
      </trkpt>
      <trkpt lat="43.33819" lon="5.67106">
        <ele>362</ele>
        <time>2019-01-18T09:01:24.000Z</time>
      </trkpt>
      <trkpt lat="43.33819" lon="5.67106">
        <ele>362</ele>
        <time>2019-01-18T09:01:25.000Z</time>
      </trkpt>
      <trkpt lat="43.33819" lon="5.67106">
        <ele>362</ele>
        <time>2019-01-18T09:01:26.000Z</time>
      </trkpt>
      <trkpt lat="43.33819" lon="5.67106">
        <ele>362</ele>
        <time>2019-01-18T09:01:27.000Z</time>
      </trkpt>
      <trkpt lat="43.33819" lon="5.67106">
        <ele>362</ele>
        <time>2019-01-18T09:01:28.000Z</time>
      </trkpt>
      <trkpt lat="43.33819" lon="5.67106">
        <ele>362</ele>
        <time>2019-01-18T09:01:29.000Z</time>
      </trkpt>
      <trkpt lat="43.33819" lon="5.67106">
        <ele>362</ele>
        <time>2019-01-18T09:01:30.000Z</time>
      </trkpt>
      <trkpt lat="43.33819" lon="5.67106">
        <ele>362</ele>
        <time>2019-01-18T09:01:31.000Z</time>
      </trkpt>
      <trkpt lat="43.33819" lon="5.67106">
        <ele>362</ele>
        <time>2019-01-18T09:01:32.000Z</time>
      </trkpt>
      <trkpt lat="43.33819" lon="5.67106">
        <ele>362</ele>
        <time>2019-01-18T09:01:33.000Z</time>
      </trkpt>
      <trkpt lat="43.33819" lon="5.67106">
        <ele>362</ele>
        <time>2019-01-18T09:01:34.000Z</time>
      </trkpt>
      <trkpt lat="43.33819" lon="5.67106">
        <ele>362</ele>
        <time>2019-01-18T09:01:35.000Z</time>
      </trkpt>
      <trkpt lat="43.33819" lon="5.67107">
        <ele>362</ele>
        <time>2019-01-18T09:01:36.000Z</time>
      </trkpt>
      <trkpt lat="43.33819" lon="5.67106">
        <ele>362</ele>
        <time>2019-01-18T09:01:37.000Z</time>
      </trkpt>
      <trkpt lat="43.33819" lon="5.67106">
        <ele>362</ele>
        <time>2019-01-18T09:01:38.000Z</time>
      </trkpt>
      <trkpt lat="43.33819" lon="5.67106">
        <ele>362</ele>
        <time>2019-01-18T09:01:39.000Z</time>
      </trkpt>
      <trkpt lat="43.33819" lon="5.67106">
        <ele>362</ele>
        <time>2019-01-18T09:01:40.000Z</time>
      </trkpt>
      <trkpt lat="43.33819" lon="5.67106">
        <ele>363</ele>
        <time>2019-01-18T09:01:41.000Z</time>
      </trkpt>
      <trkpt lat="43.33819" lon="5.67106">
        <ele>363</ele>
        <time>2019-01-18T09:01:42.000Z</time>
      </trkpt>
      <trkpt lat="43.33819" lon="5.67107">
        <ele>363</ele>
        <time>2019-01-18T09:01:43.000Z</time>
      </trkpt>
      <trkpt lat="43.33819" lon="5.67107">
        <ele>363</ele>
        <time>2019-01-18T09:01:44.000Z</time>
      </trkpt>
      <trkpt lat="43.33819" lon="5.67107">
        <ele>363</ele>
        <time>2019-01-18T09:01:45.000Z</time>
      </trkpt>
      <trkpt lat="43.33819" lon="5.67107">
        <ele>363</ele>
        <time>2019-01-18T09:01:46.000Z</time>
      </trkpt>
      <trkpt lat="43.3382" lon="5.67107">
        <ele>363</ele>
        <time>2019-01-18T09:01:47.000Z</time>
      </trkpt>
      <trkpt lat="43.3382" lon="5.67107">
        <ele>363</ele>
        <time>2019-01-18T09:01:48.000Z</time>
      </trkpt>
      <trkpt lat="43.3382" lon="5.67107">
        <ele>363</ele>
        <time>2019-01-18T09:01:49.000Z</time>
      </trkpt>
      <trkpt lat="43.3382" lon="5.67107">
        <ele>363</ele>
        <time>2019-01-18T09:01:50.000Z</time>
      </trkpt>
      <trkpt lat="43.3382" lon="5.67107">
        <ele>363</ele>
        <time>2019-01-18T09:01:51.000Z</time>
      </trkpt>
      <trkpt lat="43.3382" lon="5.67107">
        <ele>363</ele>
        <time>2019-01-18T09:01:52.000Z</time>
      </trkpt>
      <trkpt lat="43.3382" lon="5.67107">
        <ele>363</ele>
        <time>2019-01-18T09:01:53.000Z</time>
      </trkpt>
      <trkpt lat="43.33819" lon="5.67108">
        <ele>363</ele>
        <time>2019-01-18T09:01:54.000Z</time>
      </trkpt>
      <trkpt lat="43.33819" lon="5.67108">
        <ele>362</ele>
        <time>2019-01-18T09:01:55.000Z</time>
      </trkpt>
      <trkpt lat="43.33819" lon="5.67108">
        <ele>362</ele>
        <time>2019-01-18T09:01:56.000Z</time>
      </trkpt>
      <trkpt lat="43.33819" lon="5.67108">
        <ele>362</ele>
        <time>2019-01-18T09:01:57.000Z</time>
      </trkpt>
      <trkpt lat="43.33819" lon="5.67108">
        <ele>363</ele>
        <time>2019-01-18T09:01:58.000Z</time>
      </trkpt>
      <trkpt lat="43.33819" lon="5.67108">
        <ele>363</ele>
        <time>2019-01-18T09:01:59.000Z</time>
      </trkpt>
      <trkpt lat="43.33819" lon="5.67108">
        <ele>363</ele>
        <time>2019-01-18T09:02:00.000Z</time>
      </trkpt>
      <trkpt lat="43.33819" lon="5.67108">
        <ele>363</ele>
        <time>2019-01-18T09:02:01.000Z</time>
      </trkpt>
      <trkpt lat="43.33819" lon="5.67108">
        <ele>363</ele>
        <time>2019-01-18T09:02:02.000Z</time>
      </trkpt>
      <trkpt lat="43.33819" lon="5.67108">
        <ele>363</ele>
        <time>2019-01-18T09:02:03.000Z</time>
      </trkpt>
      <trkpt lat="43.33819" lon="5.67108">
        <ele>363</ele>
        <time>2019-01-18T09:02:04.000Z</time>
      </trkpt>
      <trkpt lat="43.33819" lon="5.67108">
        <ele>363</ele>
        <time>2019-01-18T09:02:05.000Z</time>
      </trkpt>
      <trkpt lat="43.33819" lon="5.67108">
        <ele>363</ele>
        <time>2019-01-18T09:02:06.000Z</time>
      </trkpt>
      <trkpt lat="43.33819" lon="5.67108">
        <ele>363</ele>
        <time>2019-01-18T09:02:07.000Z</time>
      </trkpt>
      <trkpt lat="43.33819" lon="5.67108">
        <ele>363</ele>
        <time>2019-01-18T09:02:08.000Z</time>
      </trkpt>
      <trkpt lat="43.33819" lon="5.67108">
        <ele>363</ele>
        <time>2019-01-18T09:02:09.000Z</time>
      </trkpt>
      <trkpt lat="43.33819" lon="5.67108">
        <ele>363</ele>
        <time>2019-01-18T09:02:10.000Z</time>
      </trkpt>
      <trkpt lat="43.33819" lon="5.67108">
        <ele>363</ele>
        <time>2019-01-18T09:02:11.000Z</time>
      </trkpt>
      <trkpt lat="43.33819" lon="5.67108">
        <ele>363</ele>
        <time>2019-01-18T09:02:12.000Z</time>
      </trkpt>
      <trkpt lat="43.33819" lon="5.67108">
        <ele>363</ele>
        <time>2019-01-18T09:02:13.000Z</time>
      </trkpt>
      <trkpt lat="43.33819" lon="5.67108">
        <ele>363</ele>
        <time>2019-01-18T09:02:14.000Z</time>
      </trkpt>
      <trkpt lat="43.33819" lon="5.67108">
        <ele>363</ele>
        <time>2019-01-18T09:02:15.000Z</time>
      </trkpt>
      <trkpt lat="43.33819" lon="5.67108">
        <ele>363</ele>
        <time>2019-01-18T09:02:16.000Z</time>
      </trkpt>
      <trkpt lat="43.33819" lon="5.67108">
        <ele>363</ele>
        <time>2019-01-18T09:02:17.000Z</time>
      </trkpt>
      <trkpt lat="43.33819" lon="5.67108">
        <ele>363</ele>
        <time>2019-01-18T09:02:18.000Z</time>
      </trkpt>
      <trkpt lat="43.33819" lon="5.67108">
        <ele>363</ele>
        <time>2019-01-18T09:02:19.000Z</time>
      </trkpt>
      <trkpt lat="43.33819" lon="5.67108">
        <ele>363</ele>
        <time>2019-01-18T09:02:20.000Z</time>
      </trkpt>
      <trkpt lat="43.33819" lon="5.67109">
        <ele>363</ele>
        <time>2019-01-18T09:02:21.000Z</time>
      </trkpt>
      <trkpt lat="43.33819" lon="5.67109">
        <ele>363</ele>
        <time>2019-01-18T09:02:22.000Z</time>
      </trkpt>
      <trkpt lat="43.33819" lon="5.67109">
        <ele>362</ele>
        <time>2019-01-18T09:02:23.000Z</time>
      </trkpt>
      <trkpt lat="43.33819" lon="5.67109">
        <ele>362</ele>
        <time>2019-01-18T09:02:24.000Z</time>
      </trkpt>
      <trkpt lat="43.33819" lon="5.67109">
        <ele>362</ele>
        <time>2019-01-18T09:02:25.000Z</time>
      </trkpt>
      <trkpt lat="43.33819" lon="5.67109">
        <ele>362</ele>
        <time>2019-01-18T09:02:26.000Z</time>
      </trkpt>
      <trkpt lat="43.33819" lon="5.67109">
        <ele>362</ele>
        <time>2019-01-18T09:02:27.000Z</time>
      </trkpt>
      <trkpt lat="43.33819" lon="5.67109">
        <ele>362</ele>
        <time>2019-01-18T09:02:28.000Z</time>
      </trkpt>
      <trkpt lat="43.33819" lon="5.67109">
        <ele>362</ele>
        <time>2019-01-18T09:02:29.000Z</time>
      </trkpt>
      <trkpt lat="43.33819" lon="5.67109">
        <ele>362</ele>
        <time>2019-01-18T09:02:30.000Z</time>
      </trkpt>
      <trkpt lat="43.33819" lon="5.67109">
        <ele>362</ele>
        <time>2019-01-18T09:02:31.000Z</time>
      </trkpt>
      <trkpt lat="43.33819" lon="5.67109">
        <ele>362</ele>
        <time>2019-01-18T09:02:32.000Z</time>
      </trkpt>
      <trkpt lat="43.33819" lon="5.67109">
        <ele>362</ele>
        <time>2019-01-18T09:02:33.000Z</time>
      </trkpt>
      <trkpt lat="43.33819" lon="5.67109">
        <ele>362</ele>
        <time>2019-01-18T09:02:34.000Z</time>
      </trkpt>
      <trkpt lat="43.33819" lon="5.67109">
        <ele>362</ele>
        <time>2019-01-18T09:02:35.000Z</time>
      </trkpt>
      <trkpt lat="43.33819" lon="5.67109">
        <ele>362</ele>
        <time>2019-01-18T09:02:36.000Z</time>
      </trkpt>
      <trkpt lat="43.33819" lon="5.67109">
        <ele>362</ele>
        <time>2019-01-18T09:02:37.000Z</time>
      </trkpt>
      <trkpt lat="43.33819" lon="5.67109">
        <ele>362</ele>
        <time>2019-01-18T09:02:38.000Z</time>
      </trkpt>
      <trkpt lat="43.33819" lon="5.67109">
        <ele>362</ele>
        <time>2019-01-18T09:02:39.000Z</time>
      </trkpt>
      <trkpt lat="43.33819" lon="5.67109">
        <ele>362</ele>
        <time>2019-01-18T09:02:40.000Z</time>
      </trkpt>
      <trkpt lat="43.33819" lon="5.67109">
        <ele>362</ele>
        <time>2019-01-18T09:02:41.000Z</time>
      </trkpt>
      <trkpt lat="43.33819" lon="5.67109">
        <ele>362</ele>
        <time>2019-01-18T09:02:42.000Z</time>
      </trkpt>
      <trkpt lat="43.33819" lon="5.67109">
        <ele>362</ele>
        <time>2019-01-18T09:02:43.000Z</time>
      </trkpt>
      <trkpt lat="43.33819" lon="5.67109">
        <ele>362</ele>
        <time>2019-01-18T09:02:44.000Z</time>
      </trkpt>
      <trkpt lat="43.33819" lon="5.67109">
        <ele>362</ele>
        <time>2019-01-18T09:02:45.000Z</time>
      </trkpt>
      <trkpt lat="43.33819" lon="5.67109">
        <ele>361</ele>
        <time>2019-01-18T09:02:46.000Z</time>
      </trkpt>
      <trkpt lat="43.33819" lon="5.67109">
        <ele>361</ele>
        <time>2019-01-18T09:02:47.000Z</time>
      </trkpt>
      <trkpt lat="43.3382" lon="5.67109">
        <ele>361</ele>
        <time>2019-01-18T09:02:48.000Z</time>
      </trkpt>
      <trkpt lat="43.3382" lon="5.67109">
        <ele>361</ele>
        <time>2019-01-18T09:02:49.000Z</time>
      </trkpt>
      <trkpt lat="43.3382" lon="5.67109">
        <ele>361</ele>
        <time>2019-01-18T09:02:50.000Z</time>
      </trkpt>
      <trkpt lat="43.3382" lon="5.67109">
        <ele>361</ele>
        <time>2019-01-18T09:02:51.000Z</time>
      </trkpt>
      <trkpt lat="43.3382" lon="5.67109">
        <ele>361</ele>
        <time>2019-01-18T09:02:52.000Z</time>
      </trkpt>
      <trkpt lat="43.3382" lon="5.67109">
        <ele>361</ele>
        <time>2019-01-18T09:02:53.000Z</time>
      </trkpt>
      <trkpt lat="43.3382" lon="5.67109">
        <ele>361</ele>
        <time>2019-01-18T09:02:54.000Z</time>
      </trkpt>
      <trkpt lat="43.3382" lon="5.67109">
        <ele>361</ele>
        <time>2019-01-18T09:02:55.000Z</time>
      </trkpt>
      <trkpt lat="43.3382" lon="5.67109">
        <ele>361</ele>
        <time>2019-01-18T09:02:56.000Z</time>
      </trkpt>
      <trkpt lat="43.3382" lon="5.67109">
        <ele>361</ele>
        <time>2019-01-18T09:02:57.000Z</time>
      </trkpt>
      <trkpt lat="43.3382" lon="5.67109">
        <ele>361</ele>
        <time>2019-01-18T09:02:58.000Z</time>
      </trkpt>
      <trkpt lat="43.3382" lon="5.67109">
        <ele>361</ele>
        <time>2019-01-18T09:02:59.000Z</time>
      </trkpt>
      <trkpt lat="43.3382" lon="5.67109">
        <ele>361</ele>
        <time>2019-01-18T09:03:00.000Z</time>
      </trkpt>
      <trkpt lat="43.3382" lon="5.67109">
        <ele>361</ele>
        <time>2019-01-18T09:03:01.000Z</time>
      </trkpt>
      <trkpt lat="43.3382" lon="5.67109">
        <ele>361</ele>
        <time>2019-01-18T09:03:02.000Z</time>
      </trkpt>
      <trkpt lat="43.3382" lon="5.67109">
        <ele>361</ele>
        <time>2019-01-18T09:03:03.000Z</time>
      </trkpt>
      <trkpt lat="43.3382" lon="5.67109">
        <ele>361</ele>
        <time>2019-01-18T09:03:04.000Z</time>
      </trkpt>
      <trkpt lat="43.3382" lon="5.67109">
        <ele>361</ele>
        <time>2019-01-18T09:03:05.000Z</time>
      </trkpt>
      <trkpt lat="43.3382" lon="5.67109">
        <ele>361</ele>
        <time>2019-01-18T09:03:06.000Z</time>
      </trkpt>
      <trkpt lat="43.3382" lon="5.67109">
        <ele>361</ele>
        <time>2019-01-18T09:03:07.000Z</time>
      </trkpt>
      <trkpt lat="43.3382" lon="5.67109">
        <ele>361</ele>
        <time>2019-01-18T09:03:08.000Z</time>
      </trkpt>
      <trkpt lat="43.3382" lon="5.67109">
        <ele>361</ele>
        <time>2019-01-18T09:03:09.000Z</time>
      </trkpt>
      <trkpt lat="43.3382" lon="5.67109">
        <ele>361</ele>
        <time>2019-01-18T09:03:10.000Z</time>
      </trkpt>
      <trkpt lat="43.3382" lon="5.67109">
        <ele>361</ele>
        <time>2019-01-18T09:03:11.000Z</time>
      </trkpt>
      <trkpt lat="43.3382" lon="5.67109">
        <ele>361</ele>
        <time>2019-01-18T09:03:12.000Z</time>
      </trkpt>
      <trkpt lat="43.3382" lon="5.67109">
        <ele>361</ele>
        <time>2019-01-18T09:03:13.000Z</time>
      </trkpt>
      <trkpt lat="43.3382" lon="5.67109">
        <ele>361</ele>
        <time>2019-01-18T09:03:14.000Z</time>
      </trkpt>
      <trkpt lat="43.3382" lon="5.67109">
        <ele>361</ele>
        <time>2019-01-18T09:03:15.000Z</time>
      </trkpt>
      <trkpt lat="43.3382" lon="5.67109">
        <ele>361</ele>
        <time>2019-01-18T09:03:16.000Z</time>
      </trkpt>
      <trkpt lat="43.3382" lon="5.67109">
        <ele>361</ele>
        <time>2019-01-18T09:03:17.000Z</time>
      </trkpt>
      <trkpt lat="43.3382" lon="5.67109">
        <ele>361</ele>
        <time>2019-01-18T09:03:18.000Z</time>
      </trkpt>
      <trkpt lat="43.3382" lon="5.67109">
        <ele>360</ele>
        <time>2019-01-18T09:03:19.000Z</time>
      </trkpt>
      <trkpt lat="43.3382" lon="5.67109">
        <ele>360</ele>
        <time>2019-01-18T09:03:20.000Z</time>
      </trkpt>
      <trkpt lat="43.3382" lon="5.67109">
        <ele>360</ele>
        <time>2019-01-18T09:03:21.000Z</time>
      </trkpt>
      <trkpt lat="43.3382" lon="5.67109">
        <ele>360</ele>
        <time>2019-01-18T09:03:22.000Z</time>
      </trkpt>
      <trkpt lat="43.3382" lon="5.67108">
        <ele>360</ele>
        <time>2019-01-18T09:03:23.000Z</time>
      </trkpt>
      <trkpt lat="43.3382" lon="5.67108">
        <ele>360</ele>
        <time>2019-01-18T09:03:24.000Z</time>
      </trkpt>
      <trkpt lat="43.3382" lon="5.67109">
        <ele>360</ele>
        <time>2019-01-18T09:03:25.000Z</time>
      </trkpt>
      <trkpt lat="43.3382" lon="5.67109">
        <ele>360</ele>
        <time>2019-01-18T09:03:26.000Z</time>
      </trkpt>
      <trkpt lat="43.3382" lon="5.67109">
        <ele>360</ele>
        <time>2019-01-18T09:03:27.000Z</time>
      </trkpt>
      <trkpt lat="43.3382" lon="5.67108">
        <ele>360</ele>
        <time>2019-01-18T09:03:28.000Z</time>
      </trkpt>
      <trkpt lat="43.3382" lon="5.67108">
        <ele>360</ele>
        <time>2019-01-18T09:03:29.000Z</time>
      </trkpt>
      <trkpt lat="43.3382" lon="5.67108">
        <ele>360</ele>
        <time>2019-01-18T09:03:30.000Z</time>
      </trkpt>
      <trkpt lat="43.3382" lon="5.67108">
        <ele>360</ele>
        <time>2019-01-18T09:03:31.000Z</time>
      </trkpt>
      <trkpt lat="43.3382" lon="5.67108">
        <ele>360</ele>
        <time>2019-01-18T09:03:32.000Z</time>
      </trkpt>
      <trkpt lat="43.3382" lon="5.67108">
        <ele>360</ele>
        <time>2019-01-18T09:03:33.000Z</time>
      </trkpt>
      <trkpt lat="43.3382" lon="5.67108">
        <ele>360</ele>
        <time>2019-01-18T09:03:34.000Z</time>
      </trkpt>
      <trkpt lat="43.3382" lon="5.67108">
        <ele>360</ele>
        <time>2019-01-18T09:03:35.000Z</time>
      </trkpt>
      <trkpt lat="43.3382" lon="5.67108">
        <ele>360</ele>
        <time>2019-01-18T09:03:36.000Z</time>
      </trkpt>
      <trkpt lat="43.3382" lon="5.67109">
        <ele>360</ele>
        <time>2019-01-18T09:03:37.000Z</time>
      </trkpt>
      <trkpt lat="43.33819" lon="5.67109">
        <ele>360</ele>
        <time>2019-01-18T09:03:38.000Z</time>
      </trkpt>
      <trkpt lat="43.33819" lon="5.67109">
        <ele>360</ele>
        <time>2019-01-18T09:03:39.000Z</time>
      </trkpt>
      <trkpt lat="43.33819" lon="5.67109">
        <ele>360</ele>
        <time>2019-01-18T09:03:40.000Z</time>
      </trkpt>
      <trkpt lat="43.33819" lon="5.67109">
        <ele>360</ele>
        <time>2019-01-18T09:03:41.000Z</time>
      </trkpt>
      <trkpt lat="43.33819" lon="5.67109">
        <ele>360</ele>
        <time>2019-01-18T09:03:42.000Z</time>
      </trkpt>
      <trkpt lat="43.3382" lon="5.67109">
        <ele>360</ele>
        <time>2019-01-18T09:03:43.000Z</time>
      </trkpt>
      <trkpt lat="43.3382" lon="5.67109">
        <ele>360</ele>
        <time>2019-01-18T09:03:44.000Z</time>
      </trkpt>
      <trkpt lat="43.3382" lon="5.67109">
        <ele>360</ele>
        <time>2019-01-18T09:03:45.000Z</time>
      </trkpt>
      <trkpt lat="43.3382" lon="5.67109">
        <ele>360</ele>
        <time>2019-01-18T09:03:46.000Z</time>
      </trkpt>
      <trkpt lat="43.3382" lon="5.67109">
        <ele>360</ele>
        <time>2019-01-18T09:03:47.000Z</time>
      </trkpt>
      <trkpt lat="43.3382" lon="5.67108">
        <ele>360</ele>
        <time>2019-01-18T09:03:48.000Z</time>
      </trkpt>
      <trkpt lat="43.3382" lon="5.67108">
        <ele>360</ele>
        <time>2019-01-18T09:03:49.000Z</time>
      </trkpt>
      <trkpt lat="43.3382" lon="5.67108">
        <ele>360</ele>
        <time>2019-01-18T09:03:50.000Z</time>
      </trkpt>
      <trkpt lat="43.3382" lon="5.67108">
        <ele>360</ele>
        <time>2019-01-18T09:03:51.000Z</time>
      </trkpt>
      <trkpt lat="43.3382" lon="5.67108">
        <ele>359</ele>
        <time>2019-01-18T09:03:52.000Z</time>
      </trkpt>
      <trkpt lat="43.3382" lon="5.67108">
        <ele>359</ele>
        <time>2019-01-18T09:03:53.000Z</time>
      </trkpt>
      <trkpt lat="43.3382" lon="5.67108">
        <ele>359</ele>
        <time>2019-01-18T09:03:54.000Z</time>
      </trkpt>
      <trkpt lat="43.3382" lon="5.67108">
        <ele>359</ele>
        <time>2019-01-18T09:03:55.000Z</time>
      </trkpt>
      <trkpt lat="43.3382" lon="5.67108">
        <ele>359</ele>
        <time>2019-01-18T09:03:56.000Z</time>
      </trkpt>
      <trkpt lat="43.3382" lon="5.67108">
        <ele>359</ele>
        <time>2019-01-18T09:03:57.000Z</time>
      </trkpt>
      <trkpt lat="43.3382" lon="5.67108">
        <ele>359</ele>
        <time>2019-01-18T09:03:58.000Z</time>
      </trkpt>
      <trkpt lat="43.3382" lon="5.67108">
        <ele>359</ele>
        <time>2019-01-18T09:03:59.000Z</time>
      </trkpt>
      <trkpt lat="43.3382" lon="5.67108">
        <ele>359</ele>
        <time>2019-01-18T09:04:00.000Z</time>
      </trkpt>
      <trkpt lat="43.3382" lon="5.67108">
        <ele>359</ele>
        <time>2019-01-18T09:04:01.000Z</time>
      </trkpt>
      <trkpt lat="43.3382" lon="5.67108">
        <ele>359</ele>
        <time>2019-01-18T09:04:02.000Z</time>
      </trkpt>
      <trkpt lat="43.3382" lon="5.67108">
        <ele>359</ele>
        <time>2019-01-18T09:04:03.000Z</time>
      </trkpt>
      <trkpt lat="43.3382" lon="5.67108">
        <ele>359</ele>
        <time>2019-01-18T09:04:04.000Z</time>
      </trkpt>
      <trkpt lat="43.3382" lon="5.67108">
        <ele>359</ele>
        <time>2019-01-18T09:04:05.000Z</time>
      </trkpt>
      <trkpt lat="43.3382" lon="5.67108">
        <ele>359</ele>
        <time>2019-01-18T09:04:06.000Z</time>
      </trkpt>
      <trkpt lat="43.3382" lon="5.67108">
        <ele>359</ele>
        <time>2019-01-18T09:04:07.000Z</time>
      </trkpt>
      <trkpt lat="43.3382" lon="5.67108">
        <ele>359</ele>
        <time>2019-01-18T09:04:08.000Z</time>
      </trkpt>
      <trkpt lat="43.3382" lon="5.67108">
        <ele>359</ele>
        <time>2019-01-18T09:04:09.000Z</time>
      </trkpt>
      <trkpt lat="43.3382" lon="5.67108">
        <ele>359</ele>
        <time>2019-01-18T09:04:10.000Z</time>
      </trkpt>
      <trkpt lat="43.3382" lon="5.67108">
        <ele>359</ele>
        <time>2019-01-18T09:04:11.000Z</time>
      </trkpt>
      <trkpt lat="43.3382" lon="5.67108">
        <ele>359</ele>
        <time>2019-01-18T09:04:12.000Z</time>
      </trkpt>
      <trkpt lat="43.3382" lon="5.67108">
        <ele>359</ele>
        <time>2019-01-18T09:04:13.000Z</time>
      </trkpt>
      <trkpt lat="43.3382" lon="5.67108">
        <ele>359</ele>
        <time>2019-01-18T09:04:14.000Z</time>
      </trkpt>
      <trkpt lat="43.3382" lon="5.67108">
        <ele>359</ele>
        <time>2019-01-18T09:04:15.000Z</time>
      </trkpt>
      <trkpt lat="43.3382" lon="5.67108">
        <ele>359</ele>
        <time>2019-01-18T09:04:16.000Z</time>
      </trkpt>
      <trkpt lat="43.3382" lon="5.67108">
        <ele>359</ele>
        <time>2019-01-18T09:04:17.000Z</time>
      </trkpt>
      <trkpt lat="43.3382" lon="5.67108">
        <ele>359</ele>
        <time>2019-01-18T09:04:18.000Z</time>
      </trkpt>
      <trkpt lat="43.3382" lon="5.67108">
        <ele>359</ele>
        <time>2019-01-18T09:04:19.000Z</time>
      </trkpt>
      <trkpt lat="43.3382" lon="5.67108">
        <ele>359</ele>
        <time>2019-01-18T09:04:20.000Z</time>
      </trkpt>
      <trkpt lat="43.3382" lon="5.67108">
        <ele>359</ele>
        <time>2019-01-18T09:04:21.000Z</time>
      </trkpt>
      <trkpt lat="43.3382" lon="5.67108">
        <ele>359</ele>
        <time>2019-01-18T09:04:22.000Z</time>
      </trkpt>
      <trkpt lat="43.3382" lon="5.67108">
        <ele>359</ele>
        <time>2019-01-18T09:04:23.000Z</time>
      </trkpt>
      <trkpt lat="43.3382" lon="5.67107">
        <ele>359</ele>
        <time>2019-01-18T09:04:24.000Z</time>
      </trkpt>
      <trkpt lat="43.3382" lon="5.67108">
        <ele>359</ele>
        <time>2019-01-18T09:04:25.000Z</time>
      </trkpt>
      <trkpt lat="43.3382" lon="5.67108">
        <ele>359</ele>
        <time>2019-01-18T09:04:26.000Z</time>
      </trkpt>
      <trkpt lat="43.3382" lon="5.67108">
        <ele>360</ele>
        <time>2019-01-18T09:04:27.000Z</time>
      </trkpt>
      <trkpt lat="43.3382" lon="5.67108">
        <ele>360</ele>
        <time>2019-01-18T09:04:28.000Z</time>
      </trkpt>
      <trkpt lat="43.3382" lon="5.67108">
        <ele>360</ele>
        <time>2019-01-18T09:04:29.000Z</time>
      </trkpt>
      <trkpt lat="43.3382" lon="5.67108">
        <ele>360</ele>
        <time>2019-01-18T09:04:30.000Z</time>
      </trkpt>
      <trkpt lat="43.3382" lon="5.67108">
        <ele>360</ele>
        <time>2019-01-18T09:04:31.000Z</time>
      </trkpt>
      <trkpt lat="43.3382" lon="5.67108">
        <ele>360</ele>
        <time>2019-01-18T09:04:32.000Z</time>
      </trkpt>
      <trkpt lat="43.3382" lon="5.67108">
        <ele>360</ele>
        <time>2019-01-18T09:04:33.000Z</time>
      </trkpt>
      <trkpt lat="43.3382" lon="5.67107">
        <ele>360</ele>
        <time>2019-01-18T09:04:34.000Z</time>
      </trkpt>
      <trkpt lat="43.33821" lon="5.67107">
        <ele>360</ele>
        <time>2019-01-18T09:04:35.000Z</time>
      </trkpt>
      <trkpt lat="43.33821" lon="5.67107">
        <ele>360</ele>
        <time>2019-01-18T09:04:36.000Z</time>
      </trkpt>
      <trkpt lat="43.33821" lon="5.67107">
        <ele>360</ele>
        <time>2019-01-18T09:04:37.000Z</time>
      </trkpt>
      <trkpt lat="43.33821" lon="5.67107">
        <ele>360</ele>
        <time>2019-01-18T09:04:38.000Z</time>
      </trkpt>
      <trkpt lat="43.33821" lon="5.67107">
        <ele>360</ele>
        <time>2019-01-18T09:04:39.000Z</time>
      </trkpt>
      <trkpt lat="43.33821" lon="5.67107">
        <ele>360</ele>
        <time>2019-01-18T09:04:40.000Z</time>
      </trkpt>
      <trkpt lat="43.33821" lon="5.67107">
        <ele>360</ele>
        <time>2019-01-18T09:04:41.000Z</time>
      </trkpt>
      <trkpt lat="43.33821" lon="5.67107">
        <ele>360</ele>
        <time>2019-01-18T09:04:42.000Z</time>
      </trkpt>
      <trkpt lat="43.33821" lon="5.67107">
        <ele>360</ele>
        <time>2019-01-18T09:04:43.000Z</time>
      </trkpt>
      <trkpt lat="43.33821" lon="5.67108">
        <ele>360</ele>
        <time>2019-01-18T09:04:44.000Z</time>
      </trkpt>
      <trkpt lat="43.33821" lon="5.67108">
        <ele>360</ele>
        <time>2019-01-18T09:04:45.000Z</time>
      </trkpt>
      <trkpt lat="43.33821" lon="5.67108">
        <ele>360</ele>
        <time>2019-01-18T09:04:46.000Z</time>
      </trkpt>
      <trkpt lat="43.33821" lon="5.67108">
        <ele>360</ele>
        <time>2019-01-18T09:04:47.000Z</time>
      </trkpt>
      <trkpt lat="43.33821" lon="5.67108">
        <ele>360</ele>
        <time>2019-01-18T09:04:48.000Z</time>
      </trkpt>
      <trkpt lat="43.33821" lon="5.67108">
        <ele>360</ele>
        <time>2019-01-18T09:04:49.000Z</time>
      </trkpt>
      <trkpt lat="43.33821" lon="5.67108">
        <ele>360</ele>
        <time>2019-01-18T09:04:50.000Z</time>
      </trkpt>
      <trkpt lat="43.33821" lon="5.67108">
        <ele>360</ele>
        <time>2019-01-18T09:04:51.000Z</time>
      </trkpt>
      <trkpt lat="43.33821" lon="5.67108">
        <ele>360</ele>
        <time>2019-01-18T09:04:52.000Z</time>
      </trkpt>
      <trkpt lat="43.33821" lon="5.67108">
        <ele>360</ele>
        <time>2019-01-18T09:04:53.000Z</time>
      </trkpt>
      <trkpt lat="43.33821" lon="5.67108">
        <ele>360</ele>
        <time>2019-01-18T09:04:54.000Z</time>
      </trkpt>
      <trkpt lat="43.33821" lon="5.67108">
        <ele>360</ele>
        <time>2019-01-18T09:04:55.000Z</time>
      </trkpt>
      <trkpt lat="43.33821" lon="5.67108">
        <ele>360</ele>
        <time>2019-01-18T09:04:56.000Z</time>
      </trkpt>
      <trkpt lat="43.33821" lon="5.67109">
        <ele>360</ele>
        <time>2019-01-18T09:04:57.000Z</time>
      </trkpt>
      <trkpt lat="43.33821" lon="5.67108">
        <ele>360</ele>
        <time>2019-01-18T09:04:58.000Z</time>
      </trkpt>
      <trkpt lat="43.33821" lon="5.67108">
        <ele>360</ele>
        <time>2019-01-18T09:04:59.000Z</time>
      </trkpt>
      <trkpt lat="43.33821" lon="5.67108">
        <ele>360</ele>
        <time>2019-01-18T09:05:00.000Z</time>
      </trkpt>
      <trkpt lat="43.33821" lon="5.67108">
        <ele>360</ele>
        <time>2019-01-18T09:05:01.000Z</time>
      </trkpt>
      <trkpt lat="43.33821" lon="5.67108">
        <ele>360</ele>
        <time>2019-01-18T09:05:02.000Z</time>
      </trkpt>
      <trkpt lat="43.33821" lon="5.67108">
        <ele>360</ele>
        <time>2019-01-18T09:05:03.000Z</time>
      </trkpt>
      <trkpt lat="43.33821" lon="5.67108">
        <ele>360</ele>
        <time>2019-01-18T09:05:04.000Z</time>
      </trkpt>
      <trkpt lat="43.33821" lon="5.67108">
        <ele>360</ele>
        <time>2019-01-18T09:05:05.000Z</time>
      </trkpt>
      <trkpt lat="43.33821" lon="5.67108">
        <ele>360</ele>
        <time>2019-01-18T09:05:06.000Z</time>
      </trkpt>
      <trkpt lat="43.33821" lon="5.67109">
        <ele>360</ele>
        <time>2019-01-18T09:05:07.000Z</time>
      </trkpt>
      <trkpt lat="43.33821" lon="5.67109">
        <ele>360</ele>
        <time>2019-01-18T09:05:08.000Z</time>
      </trkpt>
      <trkpt lat="43.33821" lon="5.67109">
        <ele>360</ele>
        <time>2019-01-18T09:05:09.000Z</time>
      </trkpt>
      <trkpt lat="43.33821" lon="5.67109">
        <ele>360</ele>
        <time>2019-01-18T09:05:10.000Z</time>
      </trkpt>
      <trkpt lat="43.33821" lon="5.67109">
        <ele>360</ele>
        <time>2019-01-18T09:05:11.000Z</time>
      </trkpt>
      <trkpt lat="43.33821" lon="5.67109">
        <ele>360</ele>
        <time>2019-01-18T09:05:12.000Z</time>
      </trkpt>
      <trkpt lat="43.33821" lon="5.67109">
        <ele>360</ele>
        <time>2019-01-18T09:05:13.000Z</time>
      </trkpt>
      <trkpt lat="43.33821" lon="5.67109">
        <ele>360</ele>
        <time>2019-01-18T09:05:14.000Z</time>
      </trkpt>
      <trkpt lat="43.33821" lon="5.67109">
        <ele>360</ele>
        <time>2019-01-18T09:05:15.000Z</time>
      </trkpt>
      <trkpt lat="43.33821" lon="5.67109">
        <ele>360</ele>
        <time>2019-01-18T09:05:16.000Z</time>
      </trkpt>
      <trkpt lat="43.33821" lon="5.67109">
        <ele>360</ele>
        <time>2019-01-18T09:05:17.000Z</time>
      </trkpt>
      <trkpt lat="43.33821" lon="5.67109">
        <ele>360</ele>
        <time>2019-01-18T09:05:18.000Z</time>
      </trkpt>
      <trkpt lat="43.33821" lon="5.67109">
        <ele>360</ele>
        <time>2019-01-18T09:05:19.000Z</time>
      </trkpt>
      <trkpt lat="43.33822" lon="5.67109">
        <ele>361</ele>
        <time>2019-01-18T09:05:20.000Z</time>
      </trkpt>
      <trkpt lat="43.33821" lon="5.67109">
        <ele>361</ele>
        <time>2019-01-18T09:05:21.000Z</time>
      </trkpt>
      <trkpt lat="43.33821" lon="5.67109">
        <ele>361</ele>
        <time>2019-01-18T09:05:22.000Z</time>
      </trkpt>
      <trkpt lat="43.33821" lon="5.67109">
        <ele>361</ele>
        <time>2019-01-18T09:05:23.000Z</time>
      </trkpt>
      <trkpt lat="43.33821" lon="5.67109">
        <ele>361</ele>
        <time>2019-01-18T09:05:24.000Z</time>
      </trkpt>
      <trkpt lat="43.33821" lon="5.67109">
        <ele>361</ele>
        <time>2019-01-18T09:05:25.000Z</time>
      </trkpt>
      <trkpt lat="43.33821" lon="5.6711">
        <ele>361</ele>
        <time>2019-01-18T09:05:26.000Z</time>
      </trkpt>
      <trkpt lat="43.33821" lon="5.6711">
        <ele>361</ele>
        <time>2019-01-18T09:05:27.000Z</time>
      </trkpt>
      <trkpt lat="43.33821" lon="5.6711">
        <ele>361</ele>
        <time>2019-01-18T09:05:28.000Z</time>
      </trkpt>
      <trkpt lat="43.3382" lon="5.6711">
        <ele>361</ele>
        <time>2019-01-18T09:05:29.000Z</time>
      </trkpt>
      <trkpt lat="43.3382" lon="5.6711">
        <ele>361</ele>
        <time>2019-01-18T09:05:30.000Z</time>
      </trkpt>
      <trkpt lat="43.3382" lon="5.67111">
        <ele>361</ele>
        <time>2019-01-18T09:05:31.000Z</time>
      </trkpt>
      <trkpt lat="43.3382" lon="5.67111">
        <ele>361</ele>
        <time>2019-01-18T09:05:32.000Z</time>
      </trkpt>
      <trkpt lat="43.3382" lon="5.67111">
        <ele>361</ele>
        <time>2019-01-18T09:05:33.000Z</time>
      </trkpt>
      <trkpt lat="43.33819" lon="5.67111">
        <ele>361</ele>
        <time>2019-01-18T09:05:34.000Z</time>
      </trkpt>
      <trkpt lat="43.33819" lon="5.67111">
        <ele>361</ele>
        <time>2019-01-18T09:05:35.000Z</time>
      </trkpt>
      <trkpt lat="43.33819" lon="5.67111">
        <ele>361</ele>
        <time>2019-01-18T09:05:36.000Z</time>
      </trkpt>
      <trkpt lat="43.33818" lon="5.67112">
        <ele>361</ele>
        <time>2019-01-18T09:05:37.000Z</time>
      </trkpt>
      <trkpt lat="43.33818" lon="5.67112">
        <ele>360</ele>
        <time>2019-01-18T09:05:38.000Z</time>
      </trkpt>
      <trkpt lat="43.33817" lon="5.67112">
        <ele>360</ele>
        <time>2019-01-18T09:05:39.000Z</time>
      </trkpt>
      <trkpt lat="43.33817" lon="5.67112">
        <ele>360</ele>
        <time>2019-01-18T09:05:40.000Z</time>
      </trkpt>
      <trkpt lat="43.33817" lon="5.67112">
        <ele>360</ele>
        <time>2019-01-18T09:05:41.000Z</time>
      </trkpt>
      <trkpt lat="43.33816" lon="5.67112">
        <ele>360</ele>
        <time>2019-01-18T09:05:42.000Z</time>
      </trkpt>
      <trkpt lat="43.33816" lon="5.67113">
        <ele>360</ele>
        <time>2019-01-18T09:05:43.000Z</time>
      </trkpt>
      <trkpt lat="43.33816" lon="5.67113">
        <ele>360</ele>
        <time>2019-01-18T09:05:44.000Z</time>
      </trkpt>
      <trkpt lat="43.33816" lon="5.67113">
        <ele>360</ele>
        <time>2019-01-18T09:05:45.000Z</time>
      </trkpt>
      <trkpt lat="43.33815" lon="5.67113">
        <ele>360</ele>
        <time>2019-01-18T09:05:46.000Z</time>
      </trkpt>
      <trkpt lat="43.33815" lon="5.67113">
        <ele>359</ele>
        <time>2019-01-18T09:05:47.000Z</time>
      </trkpt>
      <trkpt lat="43.33815" lon="5.67113">
        <ele>359</ele>
        <time>2019-01-18T09:05:48.000Z</time>
      </trkpt>
      <trkpt lat="43.33815" lon="5.67113">
        <ele>359</ele>
        <time>2019-01-18T09:05:49.000Z</time>
      </trkpt>
      <trkpt lat="43.33815" lon="5.67113">
        <ele>359</ele>
        <time>2019-01-18T09:05:50.000Z</time>
      </trkpt>
      <trkpt lat="43.33814" lon="5.67113">
        <ele>359</ele>
        <time>2019-01-18T09:05:51.000Z</time>
      </trkpt>
      <trkpt lat="43.33814" lon="5.67113">
        <ele>359</ele>
        <time>2019-01-18T09:05:52.000Z</time>
      </trkpt>
      <trkpt lat="43.33814" lon="5.67113">
        <ele>359</ele>
        <time>2019-01-18T09:05:53.000Z</time>
      </trkpt>
      <trkpt lat="43.33814" lon="5.67113">
        <ele>359</ele>
        <time>2019-01-18T09:05:54.000Z</time>
      </trkpt>
      <trkpt lat="43.33814" lon="5.67113">
        <ele>359</ele>
        <time>2019-01-18T09:05:55.000Z</time>
      </trkpt>
      <trkpt lat="43.33814" lon="5.67113">
        <ele>359</ele>
        <time>2019-01-18T09:05:56.000Z</time>
      </trkpt>
      <trkpt lat="43.33814" lon="5.67113">
        <ele>359</ele>
        <time>2019-01-18T09:05:57.000Z</time>
      </trkpt>
      <trkpt lat="43.33813" lon="5.67113">
        <ele>359</ele>
        <time>2019-01-18T09:05:58.000Z</time>
      </trkpt>
      <trkpt lat="43.33813" lon="5.67113">
        <ele>359</ele>
        <time>2019-01-18T09:05:59.000Z</time>
      </trkpt>
      <trkpt lat="43.33813" lon="5.67113">
        <ele>359</ele>
        <time>2019-01-18T09:06:00.000Z</time>
      </trkpt>
      <trkpt lat="43.33813" lon="5.67113">
        <ele>359</ele>
        <time>2019-01-18T09:06:01.000Z</time>
      </trkpt>
      <trkpt lat="43.33813" lon="5.67113">
        <ele>359</ele>
        <time>2019-01-18T09:06:02.000Z</time>
      </trkpt>
      <trkpt lat="43.33813" lon="5.67113">
        <ele>359</ele>
        <time>2019-01-18T09:06:03.000Z</time>
      </trkpt>
      <trkpt lat="43.33813" lon="5.67113">
        <ele>359</ele>
        <time>2019-01-18T09:06:04.000Z</time>
      </trkpt>
      <trkpt lat="43.33813" lon="5.67113">
        <ele>359</ele>
        <time>2019-01-18T09:06:05.000Z</time>
      </trkpt>
      <trkpt lat="43.33813" lon="5.67113">
        <ele>359</ele>
        <time>2019-01-18T09:06:06.000Z</time>
      </trkpt>
      <trkpt lat="43.33813" lon="5.67113">
        <ele>359</ele>
        <time>2019-01-18T09:06:07.000Z</time>
      </trkpt>
      <trkpt lat="43.33813" lon="5.67113">
        <ele>359</ele>
        <time>2019-01-18T09:06:08.000Z</time>
      </trkpt>
      <trkpt lat="43.33813" lon="5.67113">
        <ele>359</ele>
        <time>2019-01-18T09:06:09.000Z</time>
      </trkpt>
      <trkpt lat="43.33812" lon="5.67113">
        <ele>359</ele>
        <time>2019-01-18T09:06:10.000Z</time>
      </trkpt>
      <trkpt lat="43.33812" lon="5.67113">
        <ele>359</ele>
        <time>2019-01-18T09:06:11.000Z</time>
      </trkpt>
      <trkpt lat="43.33812" lon="5.67113">
        <ele>359</ele>
        <time>2019-01-18T09:06:12.000Z</time>
      </trkpt>
      <trkpt lat="43.33812" lon="5.67113">
        <ele>359</ele>
        <time>2019-01-18T09:06:13.000Z</time>
      </trkpt>
      <trkpt lat="43.33812" lon="5.67113">
        <ele>359</ele>
        <time>2019-01-18T09:06:14.000Z</time>
      </trkpt>
      <trkpt lat="43.33812" lon="5.67113">
        <ele>359</ele>
        <time>2019-01-18T09:06:15.000Z</time>
      </trkpt>
      <trkpt lat="43.33812" lon="5.67113">
        <ele>359</ele>
        <time>2019-01-18T09:06:16.000Z</time>
      </trkpt>
      <trkpt lat="43.33812" lon="5.67113">
        <ele>359</ele>
        <time>2019-01-18T09:06:17.000Z</time>
      </trkpt>
      <trkpt lat="43.33812" lon="5.67113">
        <ele>359</ele>
        <time>2019-01-18T09:06:18.000Z</time>
      </trkpt>
      <trkpt lat="43.33812" lon="5.67113">
        <ele>359</ele>
        <time>2019-01-18T09:06:19.000Z</time>
      </trkpt>
      <trkpt lat="43.33812" lon="5.67113">
        <ele>359</ele>
        <time>2019-01-18T09:06:20.000Z</time>
      </trkpt>
      <trkpt lat="43.33812" lon="5.67113">
        <ele>359</ele>
        <time>2019-01-18T09:06:21.000Z</time>
      </trkpt>
      <trkpt lat="43.33812" lon="5.67113">
        <ele>359</ele>
        <time>2019-01-18T09:06:22.000Z</time>
      </trkpt>
      <trkpt lat="43.33812" lon="5.67113">
        <ele>359</ele>
        <time>2019-01-18T09:06:23.000Z</time>
      </trkpt>
      <trkpt lat="43.33812" lon="5.67113">
        <ele>359</ele>
        <time>2019-01-18T09:06:24.000Z</time>
      </trkpt>
      <trkpt lat="43.33812" lon="5.67113">
        <ele>359</ele>
        <time>2019-01-18T09:06:25.000Z</time>
      </trkpt>
      <trkpt lat="43.33812" lon="5.67113">
        <ele>359</ele>
        <time>2019-01-18T09:06:26.000Z</time>
      </trkpt>
      <trkpt lat="43.33812" lon="5.67113">
        <ele>359</ele>
        <time>2019-01-18T09:06:27.000Z</time>
      </trkpt>
      <trkpt lat="43.33812" lon="5.67113">
        <ele>359</ele>
        <time>2019-01-18T09:06:28.000Z</time>
      </trkpt>
      <trkpt lat="43.33812" lon="5.67113">
        <ele>359</ele>
        <time>2019-01-18T09:06:29.000Z</time>
      </trkpt>
      <trkpt lat="43.33812" lon="5.67113">
        <ele>359</ele>
        <time>2019-01-18T09:06:30.000Z</time>
      </trkpt>
      <trkpt lat="43.33812" lon="5.67113">
        <ele>359</ele>
        <time>2019-01-18T09:06:31.000Z</time>
      </trkpt>
      <trkpt lat="43.33812" lon="5.67113">
        <ele>359</ele>
        <time>2019-01-18T09:06:32.000Z</time>
      </trkpt>
      <trkpt lat="43.33812" lon="5.67113">
        <ele>359</ele>
        <time>2019-01-18T09:06:33.000Z</time>
      </trkpt>
      <trkpt lat="43.33812" lon="5.67113">
        <ele>359</ele>
        <time>2019-01-18T09:06:34.000Z</time>
      </trkpt>
      <trkpt lat="43.33812" lon="5.67113">
        <ele>359</ele>
        <time>2019-01-18T09:06:35.000Z</time>
      </trkpt>
      <trkpt lat="43.33812" lon="5.67113">
        <ele>359</ele>
        <time>2019-01-18T09:06:36.000Z</time>
      </trkpt>
      <trkpt lat="43.33812" lon="5.67113">
        <ele>359</ele>
        <time>2019-01-18T09:06:37.000Z</time>
      </trkpt>
      <trkpt lat="43.33812" lon="5.67113">
        <ele>359</ele>
        <time>2019-01-18T09:06:38.000Z</time>
      </trkpt>
      <trkpt lat="43.33812" lon="5.67113">
        <ele>359</ele>
        <time>2019-01-18T09:06:39.000Z</time>
      </trkpt>
      <trkpt lat="43.33812" lon="5.67113">
        <ele>359</ele>
        <time>2019-01-18T09:06:40.000Z</time>
      </trkpt>
      <trkpt lat="43.33812" lon="5.67113">
        <ele>359</ele>
        <time>2019-01-18T09:06:41.000Z</time>
      </trkpt>
      <trkpt lat="43.33812" lon="5.67113">
        <ele>359</ele>
        <time>2019-01-18T09:06:42.000Z</time>
      </trkpt>
      <trkpt lat="43.33813" lon="5.67113">
        <ele>359</ele>
        <time>2019-01-18T09:06:43.000Z</time>
      </trkpt>
      <trkpt lat="43.33813" lon="5.67113">
        <ele>359</ele>
        <time>2019-01-18T09:06:44.000Z</time>
      </trkpt>
      <trkpt lat="43.33813" lon="5.67113">
        <ele>359</ele>
        <time>2019-01-18T09:06:45.000Z</time>
      </trkpt>
      <trkpt lat="43.33812" lon="5.67113">
        <ele>359</ele>
        <time>2019-01-18T09:06:46.000Z</time>
      </trkpt>
      <trkpt lat="43.33812" lon="5.67113">
        <ele>360</ele>
        <time>2019-01-18T09:06:47.000Z</time>
      </trkpt>
      <trkpt lat="43.33812" lon="5.67113">
        <ele>360</ele>
        <time>2019-01-18T09:06:48.000Z</time>
      </trkpt>
      <trkpt lat="43.33812" lon="5.67113">
        <ele>360</ele>
        <time>2019-01-18T09:06:49.000Z</time>
      </trkpt>
      <trkpt lat="43.33812" lon="5.67113">
        <ele>360</ele>
        <time>2019-01-18T09:06:50.000Z</time>
      </trkpt>
      <trkpt lat="43.33811" lon="5.67113">
        <ele>360</ele>
        <time>2019-01-18T09:06:51.000Z</time>
      </trkpt>
      <trkpt lat="43.33811" lon="5.67113">
        <ele>360</ele>
        <time>2019-01-18T09:06:52.000Z</time>
      </trkpt>
      <trkpt lat="43.33812" lon="5.67112">
        <ele>360</ele>
        <time>2019-01-18T09:06:53.000Z</time>
      </trkpt>
      <trkpt lat="43.33812" lon="5.67112">
        <ele>360</ele>
        <time>2019-01-18T09:06:54.000Z</time>
      </trkpt>
      <trkpt lat="43.33812" lon="5.67112">
        <ele>360</ele>
        <time>2019-01-18T09:06:55.000Z</time>
      </trkpt>
      <trkpt lat="43.33812" lon="5.67111">
        <ele>360</ele>
        <time>2019-01-18T09:06:56.000Z</time>
      </trkpt>
      <trkpt lat="43.33812" lon="5.67111">
        <ele>360</ele>
        <time>2019-01-18T09:06:57.000Z</time>
      </trkpt>
      <trkpt lat="43.33811" lon="5.67111">
        <ele>360</ele>
        <time>2019-01-18T09:06:58.000Z</time>
      </trkpt>
      <trkpt lat="43.33811" lon="5.67111">
        <ele>360</ele>
        <time>2019-01-18T09:06:59.000Z</time>
      </trkpt>
      <trkpt lat="43.33812" lon="5.67111">
        <ele>360</ele>
        <time>2019-01-18T09:07:00.000Z</time>
      </trkpt>
      <trkpt lat="43.33812" lon="5.67111">
        <ele>360</ele>
        <time>2019-01-18T09:07:01.000Z</time>
      </trkpt>
      <trkpt lat="43.33812" lon="5.6711">
        <ele>360</ele>
        <time>2019-01-18T09:07:02.000Z</time>
      </trkpt>
      <trkpt lat="43.33813" lon="5.6711">
        <ele>360</ele>
        <time>2019-01-18T09:07:03.000Z</time>
      </trkpt>
      <trkpt lat="43.33813" lon="5.6711">
        <ele>360</ele>
        <time>2019-01-18T09:07:04.000Z</time>
      </trkpt>
      <trkpt lat="43.33813" lon="5.6711">
        <ele>360</ele>
        <time>2019-01-18T09:07:05.000Z</time>
      </trkpt>
      <trkpt lat="43.33813" lon="5.6711">
        <ele>360</ele>
        <time>2019-01-18T09:07:06.000Z</time>
      </trkpt>
      <trkpt lat="43.33813" lon="5.6711">
        <ele>360</ele>
        <time>2019-01-18T09:07:07.000Z</time>
      </trkpt>
      <trkpt lat="43.33813" lon="5.6711">
        <ele>360</ele>
        <time>2019-01-18T09:07:08.000Z</time>
      </trkpt>
      <trkpt lat="43.33813" lon="5.6711">
        <ele>360</ele>
        <time>2019-01-18T09:07:09.000Z</time>
      </trkpt>
      <trkpt lat="43.33813" lon="5.6711">
        <ele>360</ele>
        <time>2019-01-18T09:07:10.000Z</time>
      </trkpt>
      <trkpt lat="43.33814" lon="5.67111">
        <ele>360</ele>
        <time>2019-01-18T09:07:11.000Z</time>
      </trkpt>
      <trkpt lat="43.33814" lon="5.67111">
        <ele>360</ele>
        <time>2019-01-18T09:07:12.000Z</time>
      </trkpt>
      <trkpt lat="43.33814" lon="5.67111">
        <ele>360</ele>
        <time>2019-01-18T09:07:13.000Z</time>
      </trkpt>
      <trkpt lat="43.33814" lon="5.67111">
        <ele>360</ele>
        <time>2019-01-18T09:07:14.000Z</time>
      </trkpt>
      <trkpt lat="43.33814" lon="5.67111">
        <ele>360</ele>
        <time>2019-01-18T09:07:15.000Z</time>
      </trkpt>
      <trkpt lat="43.33814" lon="5.6711">
        <ele>360</ele>
        <time>2019-01-18T09:07:16.000Z</time>
      </trkpt>
      <trkpt lat="43.33814" lon="5.6711">
        <ele>360</ele>
        <time>2019-01-18T09:07:17.000Z</time>
      </trkpt>
      <trkpt lat="43.33814" lon="5.6711">
        <ele>360</ele>
        <time>2019-01-18T09:07:18.000Z</time>
      </trkpt>
      <trkpt lat="43.33814" lon="5.6711">
        <ele>359</ele>
        <time>2019-01-18T09:07:19.000Z</time>
      </trkpt>
      <trkpt lat="43.33814" lon="5.6711">
        <ele>359</ele>
        <time>2019-01-18T09:07:20.000Z</time>
      </trkpt>
      <trkpt lat="43.33815" lon="5.6711">
        <ele>359</ele>
        <time>2019-01-18T09:07:21.000Z</time>
      </trkpt>
      <trkpt lat="43.33815" lon="5.6711">
        <ele>359</ele>
        <time>2019-01-18T09:07:22.000Z</time>
      </trkpt>
      <trkpt lat="43.33815" lon="5.6711">
        <ele>359</ele>
        <time>2019-01-18T09:07:23.000Z</time>
      </trkpt>
      <trkpt lat="43.33815" lon="5.6711">
        <ele>359</ele>
        <time>2019-01-18T09:07:24.000Z</time>
      </trkpt>
      <trkpt lat="43.33815" lon="5.6711">
        <ele>359</ele>
        <time>2019-01-18T09:07:25.000Z</time>
      </trkpt>
      <trkpt lat="43.33815" lon="5.6711">
        <ele>359</ele>
        <time>2019-01-18T09:07:26.000Z</time>
      </trkpt>
      <trkpt lat="43.33815" lon="5.6711">
        <ele>359</ele>
        <time>2019-01-18T09:07:27.000Z</time>
      </trkpt>
      <trkpt lat="43.33815" lon="5.6711">
        <ele>359</ele>
        <time>2019-01-18T09:07:28.000Z</time>
      </trkpt>
      <trkpt lat="43.33814" lon="5.67109">
        <ele>359</ele>
        <time>2019-01-18T09:07:29.000Z</time>
      </trkpt>
      <trkpt lat="43.33814" lon="5.67109">
        <ele>359</ele>
        <time>2019-01-18T09:07:30.000Z</time>
      </trkpt>
      <trkpt lat="43.33813" lon="5.67108">
        <ele>359</ele>
        <time>2019-01-18T09:07:31.000Z</time>
      </trkpt>
      <trkpt lat="43.33814" lon="5.67108">
        <ele>359</ele>
        <time>2019-01-18T09:07:32.000Z</time>
      </trkpt>
      <trkpt lat="43.33814" lon="5.67109">
        <ele>359</ele>
        <time>2019-01-18T09:07:33.000Z</time>
      </trkpt>
      <trkpt lat="43.33814" lon="5.6711">
        <ele>360</ele>
        <time>2019-01-18T09:07:34.000Z</time>
      </trkpt>
      <trkpt lat="43.33814" lon="5.6711">
        <ele>360</ele>
        <time>2019-01-18T09:07:35.000Z</time>
      </trkpt>
      <trkpt lat="43.33813" lon="5.6711">
        <ele>360</ele>
        <time>2019-01-18T09:07:36.000Z</time>
      </trkpt>
      <trkpt lat="43.33813" lon="5.6711">
        <ele>360</ele>
        <time>2019-01-18T09:07:37.000Z</time>
      </trkpt>
      <trkpt lat="43.33813" lon="5.6711">
        <ele>360</ele>
        <time>2019-01-18T09:07:38.000Z</time>
      </trkpt>
      <trkpt lat="43.33813" lon="5.6711">
        <ele>360</ele>
        <time>2019-01-18T09:07:39.000Z</time>
      </trkpt>
      <trkpt lat="43.33812" lon="5.6711">
        <ele>360</ele>
        <time>2019-01-18T09:07:40.000Z</time>
      </trkpt>
      <trkpt lat="43.33813" lon="5.6711">
        <ele>359</ele>
        <time>2019-01-18T09:07:41.000Z</time>
      </trkpt>
      <trkpt lat="43.33813" lon="5.6711">
        <ele>360</ele>
        <time>2019-01-18T09:07:42.000Z</time>
      </trkpt>
      <trkpt lat="43.33813" lon="5.6711">
        <ele>360</ele>
        <time>2019-01-18T09:07:43.000Z</time>
      </trkpt>
      <trkpt lat="43.33813" lon="5.6711">
        <ele>360</ele>
        <time>2019-01-18T09:07:44.000Z</time>
      </trkpt>
      <trkpt lat="43.33813" lon="5.6711">
        <ele>360</ele>
        <time>2019-01-18T09:07:45.000Z</time>
      </trkpt>
      <trkpt lat="43.33813" lon="5.6711">
        <ele>360</ele>
        <time>2019-01-18T09:07:46.000Z</time>
      </trkpt>
      <trkpt lat="43.33813" lon="5.6711">
        <ele>360</ele>
        <time>2019-01-18T09:07:47.000Z</time>
      </trkpt>
      <trkpt lat="43.33812" lon="5.67111">
        <ele>360</ele>
        <time>2019-01-18T09:07:48.000Z</time>
      </trkpt>
      <trkpt lat="43.33813" lon="5.67111">
        <ele>360</ele>
        <time>2019-01-18T09:07:49.000Z</time>
      </trkpt>
      <trkpt lat="43.33813" lon="5.67111">
        <ele>360</ele>
        <time>2019-01-18T09:07:50.000Z</time>
      </trkpt>
      <trkpt lat="43.33813" lon="5.67112">
        <ele>360</ele>
        <time>2019-01-18T09:07:51.000Z</time>
      </trkpt>
      <trkpt lat="43.33813" lon="5.67113">
        <ele>361</ele>
        <time>2019-01-18T09:07:52.000Z</time>
      </trkpt>
      <trkpt lat="43.33813" lon="5.67114">
        <ele>361</ele>
        <time>2019-01-18T09:07:53.000Z</time>
      </trkpt>
      <trkpt lat="43.33813" lon="5.67114">
        <ele>361</ele>
        <time>2019-01-18T09:07:54.000Z</time>
      </trkpt>
      <trkpt lat="43.33813" lon="5.67114">
        <ele>361</ele>
        <time>2019-01-18T09:07:55.000Z</time>
      </trkpt>
      <trkpt lat="43.33813" lon="5.67115">
        <ele>361</ele>
        <time>2019-01-18T09:07:56.000Z</time>
      </trkpt>
      <trkpt lat="43.33813" lon="5.67115">
        <ele>361</ele>
        <time>2019-01-18T09:07:57.000Z</time>
      </trkpt>
      <trkpt lat="43.33813" lon="5.67116">
        <ele>361</ele>
        <time>2019-01-18T09:07:58.000Z</time>
      </trkpt>
      <trkpt lat="43.33813" lon="5.67116">
        <ele>361</ele>
        <time>2019-01-18T09:07:59.000Z</time>
      </trkpt>
      <trkpt lat="43.33813" lon="5.67116">
        <ele>360</ele>
        <time>2019-01-18T09:08:00.000Z</time>
      </trkpt>
      <trkpt lat="43.33813" lon="5.67117">
        <ele>360</ele>
        <time>2019-01-18T09:08:01.000Z</time>
      </trkpt>
      <trkpt lat="43.33813" lon="5.67117">
        <ele>360</ele>
        <time>2019-01-18T09:08:02.000Z</time>
      </trkpt>
      <trkpt lat="43.33813" lon="5.67117">
        <ele>360</ele>
        <time>2019-01-18T09:08:03.000Z</time>
      </trkpt>
      <trkpt lat="43.33813" lon="5.67117">
        <ele>360</ele>
        <time>2019-01-18T09:08:04.000Z</time>
      </trkpt>
      <trkpt lat="43.33813" lon="5.67118">
        <ele>360</ele>
        <time>2019-01-18T09:08:05.000Z</time>
      </trkpt>
      <trkpt lat="43.33813" lon="5.67118">
        <ele>361</ele>
        <time>2019-01-18T09:08:06.000Z</time>
      </trkpt>
      <trkpt lat="43.33813" lon="5.67119">
        <ele>361</ele>
        <time>2019-01-18T09:08:07.000Z</time>
      </trkpt>
      <trkpt lat="43.33813" lon="5.67119">
        <ele>361</ele>
        <time>2019-01-18T09:08:08.000Z</time>
      </trkpt>
      <trkpt lat="43.33813" lon="5.67119">
        <ele>361</ele>
        <time>2019-01-18T09:08:09.000Z</time>
      </trkpt>
      <trkpt lat="43.33813" lon="5.67119">
        <ele>361</ele>
        <time>2019-01-18T09:08:10.000Z</time>
      </trkpt>
      <trkpt lat="43.33813" lon="5.67119">
        <ele>361</ele>
        <time>2019-01-18T09:08:11.000Z</time>
      </trkpt>
      <trkpt lat="43.33812" lon="5.6712">
        <ele>361</ele>
        <time>2019-01-18T09:08:12.000Z</time>
      </trkpt>
      <trkpt lat="43.33812" lon="5.6712">
        <ele>362</ele>
        <time>2019-01-18T09:08:13.000Z</time>
      </trkpt>
      <trkpt lat="43.33811" lon="5.67121">
        <ele>362</ele>
        <time>2019-01-18T09:08:14.000Z</time>
      </trkpt>
      <trkpt lat="43.33811" lon="5.67121">
        <ele>362</ele>
        <time>2019-01-18T09:08:15.000Z</time>
      </trkpt>
      <trkpt lat="43.33811" lon="5.67121">
        <ele>362</ele>
        <time>2019-01-18T09:08:16.000Z</time>
      </trkpt>
      <trkpt lat="43.33811" lon="5.67121">
        <ele>362</ele>
        <time>2019-01-18T09:08:17.000Z</time>
      </trkpt>
      <trkpt lat="43.33811" lon="5.67121">
        <ele>362</ele>
        <time>2019-01-18T09:08:18.000Z</time>
      </trkpt>
      <trkpt lat="43.3381" lon="5.67122">
        <ele>362</ele>
        <time>2019-01-18T09:08:19.000Z</time>
      </trkpt>
      <trkpt lat="43.3381" lon="5.67122">
        <ele>363</ele>
        <time>2019-01-18T09:08:21.000Z</time>
      </trkpt>
      <trkpt lat="43.3381" lon="5.67122">
        <ele>363</ele>
        <time>2019-01-18T09:08:22.000Z</time>
      </trkpt>
      <trkpt lat="43.3381" lon="5.67123">
        <ele>363</ele>
        <time>2019-01-18T09:08:23.000Z</time>
      </trkpt>
      <trkpt lat="43.3381" lon="5.67123">
        <ele>363</ele>
        <time>2019-01-18T09:08:24.000Z</time>
      </trkpt>
      <trkpt lat="43.33809" lon="5.67123">
        <ele>363</ele>
        <time>2019-01-18T09:08:25.000Z</time>
      </trkpt>
      <trkpt lat="43.33809" lon="5.67123">
        <ele>363</ele>
        <time>2019-01-18T09:08:26.000Z</time>
      </trkpt>
      <trkpt lat="43.33809" lon="5.67123">
        <ele>364</ele>
        <time>2019-01-18T09:08:27.000Z</time>
      </trkpt>
      <trkpt lat="43.3381" lon="5.67123">
        <ele>364</ele>
        <time>2019-01-18T09:08:28.000Z</time>
      </trkpt>
      <trkpt lat="43.3381" lon="5.67123">
        <ele>364</ele>
        <time>2019-01-18T09:08:29.000Z</time>
      </trkpt>
      <trkpt lat="43.3381" lon="5.67123">
        <ele>365</ele>
        <time>2019-01-18T09:08:30.000Z</time>
      </trkpt>
      <trkpt lat="43.33811" lon="5.67123">
        <ele>365</ele>
        <time>2019-01-18T09:08:31.000Z</time>
      </trkpt>
      <trkpt lat="43.33811" lon="5.67124">
        <ele>365</ele>
        <time>2019-01-18T09:08:32.000Z</time>
      </trkpt>
      <trkpt lat="43.3381" lon="5.67124">
        <ele>366</ele>
        <time>2019-01-18T09:08:33.000Z</time>
      </trkpt>
      <trkpt lat="43.3381" lon="5.67125">
        <ele>366</ele>
        <time>2019-01-18T09:08:34.000Z</time>
      </trkpt>
      <trkpt lat="43.3381" lon="5.67126">
        <ele>366</ele>
        <time>2019-01-18T09:08:35.000Z</time>
      </trkpt>
      <trkpt lat="43.33809" lon="5.67125">
        <ele>366</ele>
        <time>2019-01-18T09:08:36.000Z</time>
      </trkpt>
      <trkpt lat="43.33809" lon="5.67125">
        <ele>367</ele>
        <time>2019-01-18T09:08:37.000Z</time>
      </trkpt>
      <trkpt lat="43.33809" lon="5.67125">
        <ele>367</ele>
        <time>2019-01-18T09:08:38.000Z</time>
      </trkpt>
      <trkpt lat="43.33808" lon="5.67125">
        <ele>367</ele>
        <time>2019-01-18T09:08:39.000Z</time>
      </trkpt>
      <trkpt lat="43.33808" lon="5.67124">
        <ele>367</ele>
        <time>2019-01-18T09:08:40.000Z</time>
      </trkpt>
      <trkpt lat="43.33807" lon="5.67123">
        <ele>367</ele>
        <time>2019-01-18T09:08:41.000Z</time>
      </trkpt>
      <trkpt lat="43.33806" lon="5.67123">
        <ele>367</ele>
        <time>2019-01-18T09:08:42.000Z</time>
      </trkpt>
      <trkpt lat="43.33806" lon="5.67122">
        <ele>367</ele>
        <time>2019-01-18T09:08:43.000Z</time>
      </trkpt>
      <trkpt lat="43.33806" lon="5.67122">
        <ele>367</ele>
        <time>2019-01-18T09:08:44.000Z</time>
      </trkpt>
      <trkpt lat="43.33806" lon="5.67122">
        <ele>367</ele>
        <time>2019-01-18T09:08:45.000Z</time>
      </trkpt>
      <trkpt lat="43.33806" lon="5.67122">
        <ele>367</ele>
        <time>2019-01-18T09:08:46.000Z</time>
      </trkpt>
      <trkpt lat="43.33806" lon="5.67122">
        <ele>367</ele>
        <time>2019-01-18T09:08:47.000Z</time>
      </trkpt>
      <trkpt lat="43.33806" lon="5.67122">
        <ele>367</ele>
        <time>2019-01-18T09:08:48.000Z</time>
      </trkpt>
      <trkpt lat="43.33806" lon="5.67122">
        <ele>367</ele>
        <time>2019-01-18T09:08:49.000Z</time>
      </trkpt>
      <trkpt lat="43.33806" lon="5.67122">
        <ele>367</ele>
        <time>2019-01-18T09:08:50.000Z</time>
      </trkpt>
      <trkpt lat="43.33806" lon="5.67122">
        <ele>368</ele>
        <time>2019-01-18T09:08:51.000Z</time>
      </trkpt>
      <trkpt lat="43.33805" lon="5.67122">
        <ele>368</ele>
        <time>2019-01-18T09:08:52.000Z</time>
      </trkpt>
      <trkpt lat="43.33805" lon="5.67122">
        <ele>368</ele>
        <time>2019-01-18T09:08:53.000Z</time>
      </trkpt>
      <trkpt lat="43.33805" lon="5.67122">
        <ele>368</ele>
        <time>2019-01-18T09:08:54.000Z</time>
      </trkpt>
      <trkpt lat="43.33805" lon="5.67122">
        <ele>368</ele>
        <time>2019-01-18T09:08:55.000Z</time>
      </trkpt>
      <trkpt lat="43.33805" lon="5.67122">
        <ele>368</ele>
        <time>2019-01-18T09:08:56.000Z</time>
      </trkpt>
      <trkpt lat="43.33806" lon="5.67122">
        <ele>368</ele>
        <time>2019-01-18T09:08:57.000Z</time>
      </trkpt>
      <trkpt lat="43.33806" lon="5.67122">
        <ele>368</ele>
        <time>2019-01-18T09:08:58.000Z</time>
      </trkpt>
      <trkpt lat="43.33806" lon="5.67122">
        <ele>369</ele>
        <time>2019-01-18T09:08:59.000Z</time>
      </trkpt>
      <trkpt lat="43.33806" lon="5.67122">
        <ele>369</ele>
        <time>2019-01-18T09:09:00.000Z</time>
      </trkpt>
      <trkpt lat="43.33806" lon="5.67121">
        <ele>369</ele>
        <time>2019-01-18T09:09:01.000Z</time>
      </trkpt>
      <trkpt lat="43.33806" lon="5.67121">
        <ele>369</ele>
        <time>2019-01-18T09:09:02.000Z</time>
      </trkpt>
      <trkpt lat="43.33806" lon="5.67121">
        <ele>369</ele>
        <time>2019-01-18T09:09:03.000Z</time>
      </trkpt>
      <trkpt lat="43.33806" lon="5.67122">
        <ele>369</ele>
        <time>2019-01-18T09:09:04.000Z</time>
      </trkpt>
      <trkpt lat="43.33806" lon="5.67122">
        <ele>369</ele>
        <time>2019-01-18T09:09:05.000Z</time>
      </trkpt>
      <trkpt lat="43.33806" lon="5.67122">
        <ele>369</ele>
        <time>2019-01-18T09:09:06.000Z</time>
      </trkpt>
      <trkpt lat="43.33806" lon="5.67122">
        <ele>369</ele>
        <time>2019-01-18T09:09:07.000Z</time>
      </trkpt>
      <trkpt lat="43.33806" lon="5.67121">
        <ele>370</ele>
        <time>2019-01-18T09:09:08.000Z</time>
      </trkpt>
      <trkpt lat="43.33806" lon="5.67121">
        <ele>370</ele>
        <time>2019-01-18T09:09:09.000Z</time>
      </trkpt>
      <trkpt lat="43.33806" lon="5.67121">
        <ele>370</ele>
        <time>2019-01-18T09:09:10.000Z</time>
      </trkpt>
      <trkpt lat="43.33806" lon="5.67121">
        <ele>370</ele>
        <time>2019-01-18T09:09:11.000Z</time>
      </trkpt>
      <trkpt lat="43.33806" lon="5.67121">
        <ele>370</ele>
        <time>2019-01-18T09:09:12.000Z</time>
      </trkpt>
      <trkpt lat="43.33806" lon="5.6712">
        <ele>370</ele>
        <time>2019-01-18T09:09:13.000Z</time>
      </trkpt>
      <trkpt lat="43.33806" lon="5.6712">
        <ele>371</ele>
        <time>2019-01-18T09:09:14.000Z</time>
      </trkpt>
      <trkpt lat="43.33806" lon="5.6712">
        <ele>371</ele>
        <time>2019-01-18T09:09:15.000Z</time>
      </trkpt>
      <trkpt lat="43.33806" lon="5.6712">
        <ele>371</ele>
        <time>2019-01-18T09:09:16.000Z</time>
      </trkpt>
      <trkpt lat="43.33806" lon="5.6712">
        <ele>371</ele>
        <time>2019-01-18T09:09:17.000Z</time>
      </trkpt>
      <trkpt lat="43.33806" lon="5.6712">
        <ele>371</ele>
        <time>2019-01-18T09:09:18.000Z</time>
      </trkpt>
      <trkpt lat="43.33806" lon="5.6712">
        <ele>371</ele>
        <time>2019-01-18T09:09:19.000Z</time>
      </trkpt>
      <trkpt lat="43.33806" lon="5.6712">
        <ele>371</ele>
        <time>2019-01-18T09:09:20.000Z</time>
      </trkpt>
      <trkpt lat="43.33806" lon="5.6712">
        <ele>372</ele>
        <time>2019-01-18T09:09:21.000Z</time>
      </trkpt>
      <trkpt lat="43.33806" lon="5.6712">
        <ele>372</ele>
        <time>2019-01-18T09:09:22.000Z</time>
      </trkpt>
      <trkpt lat="43.33806" lon="5.6712">
        <ele>372</ele>
        <time>2019-01-18T09:09:23.000Z</time>
      </trkpt>
      <trkpt lat="43.33806" lon="5.6712">
        <ele>372</ele>
        <time>2019-01-18T09:09:24.000Z</time>
      </trkpt>
      <trkpt lat="43.33806" lon="5.6712">
        <ele>372</ele>
        <time>2019-01-18T09:09:25.000Z</time>
      </trkpt>
      <trkpt lat="43.33806" lon="5.6712">
        <ele>372</ele>
        <time>2019-01-18T09:09:26.000Z</time>
      </trkpt>
      <trkpt lat="43.33806" lon="5.6712">
        <ele>372</ele>
        <time>2019-01-18T09:09:27.000Z</time>
      </trkpt>
      <trkpt lat="43.33806" lon="5.67119">
        <ele>372</ele>
        <time>2019-01-18T09:09:28.000Z</time>
      </trkpt>
      <trkpt lat="43.33806" lon="5.67119">
        <ele>372</ele>
        <time>2019-01-18T09:09:29.000Z</time>
      </trkpt>
      <trkpt lat="43.33806" lon="5.67119">
        <ele>372</ele>
        <time>2019-01-18T09:09:30.000Z</time>
      </trkpt>
      <trkpt lat="43.33806" lon="5.67119">
        <ele>373</ele>
        <time>2019-01-18T09:09:31.000Z</time>
      </trkpt>
      <trkpt lat="43.33805" lon="5.67119">
        <ele>373</ele>
        <time>2019-01-18T09:09:32.000Z</time>
      </trkpt>
      <trkpt lat="43.33805" lon="5.67119">
        <ele>373</ele>
        <time>2019-01-18T09:09:33.000Z</time>
      </trkpt>
      <trkpt lat="43.33806" lon="5.67119">
        <ele>373</ele>
        <time>2019-01-18T09:09:34.000Z</time>
      </trkpt>
      <trkpt lat="43.33806" lon="5.67119">
        <ele>373</ele>
        <time>2019-01-18T09:09:35.000Z</time>
      </trkpt>
      <trkpt lat="43.33806" lon="5.67119">
        <ele>373</ele>
        <time>2019-01-18T09:09:36.000Z</time>
      </trkpt>
      <trkpt lat="43.33806" lon="5.6712">
        <ele>373</ele>
        <time>2019-01-18T09:09:37.000Z</time>
      </trkpt>
      <trkpt lat="43.33806" lon="5.67119">
        <ele>374</ele>
        <time>2019-01-18T09:09:38.000Z</time>
      </trkpt>
      <trkpt lat="43.33806" lon="5.67119">
        <ele>374</ele>
        <time>2019-01-18T09:09:39.000Z</time>
      </trkpt>
      <trkpt lat="43.33806" lon="5.6712">
        <ele>374</ele>
        <time>2019-01-18T09:09:40.000Z</time>
      </trkpt>
      <trkpt lat="43.33806" lon="5.67119">
        <ele>374</ele>
        <time>2019-01-18T09:09:41.000Z</time>
      </trkpt>
      <trkpt lat="43.33806" lon="5.67119">
        <ele>374</ele>
        <time>2019-01-18T09:09:42.000Z</time>
      </trkpt>
      <trkpt lat="43.33806" lon="5.6712">
        <ele>374</ele>
        <time>2019-01-18T09:09:43.000Z</time>
      </trkpt>
      <trkpt lat="43.33806" lon="5.6712">
        <ele>374</ele>
        <time>2019-01-18T09:09:44.000Z</time>
      </trkpt>
      <trkpt lat="43.33806" lon="5.6712">
        <ele>374</ele>
        <time>2019-01-18T09:09:45.000Z</time>
      </trkpt>
      <trkpt lat="43.33806" lon="5.6712">
        <ele>374</ele>
        <time>2019-01-18T09:09:46.000Z</time>
      </trkpt>
      <trkpt lat="43.33806" lon="5.67119">
        <ele>374</ele>
        <time>2019-01-18T09:09:47.000Z</time>
      </trkpt>
      <trkpt lat="43.33806" lon="5.67119">
        <ele>375</ele>
        <time>2019-01-18T09:09:48.000Z</time>
      </trkpt>
      <trkpt lat="43.33806" lon="5.67119">
        <ele>375</ele>
        <time>2019-01-18T09:09:49.000Z</time>
      </trkpt>
      <trkpt lat="43.33806" lon="5.67119">
        <ele>375</ele>
        <time>2019-01-18T09:09:50.000Z</time>
      </trkpt>
      <trkpt lat="43.33806" lon="5.67119">
        <ele>375</ele>
        <time>2019-01-18T09:09:51.000Z</time>
      </trkpt>
      <trkpt lat="43.33806" lon="5.67118">
        <ele>375</ele>
        <time>2019-01-18T09:09:52.000Z</time>
      </trkpt>
      <trkpt lat="43.33806" lon="5.67118">
        <ele>375</ele>
        <time>2019-01-18T09:09:53.000Z</time>
      </trkpt>
      <trkpt lat="43.33806" lon="5.67118">
        <ele>375</ele>
        <time>2019-01-18T09:09:54.000Z</time>
      </trkpt>
      <trkpt lat="43.33806" lon="5.67118">
        <ele>375</ele>
        <time>2019-01-18T09:09:55.000Z</time>
      </trkpt>
      <trkpt lat="43.33806" lon="5.67119">
        <ele>375</ele>
        <time>2019-01-18T09:09:56.000Z</time>
      </trkpt>
      <trkpt lat="43.33806" lon="5.67119">
        <ele>375</ele>
        <time>2019-01-18T09:09:57.000Z</time>
      </trkpt>
      <trkpt lat="43.33806" lon="5.67119">
        <ele>375</ele>
        <time>2019-01-18T09:09:58.000Z</time>
      </trkpt>
      <trkpt lat="43.33806" lon="5.67119">
        <ele>375</ele>
        <time>2019-01-18T09:09:59.000Z</time>
      </trkpt>
      <trkpt lat="43.33806" lon="5.67119">
        <ele>375</ele>
        <time>2019-01-18T09:10:00.000Z</time>
      </trkpt>
      <trkpt lat="43.33806" lon="5.67119">
        <ele>375</ele>
        <time>2019-01-18T09:10:01.000Z</time>
      </trkpt>
      <trkpt lat="43.33806" lon="5.67119">
        <ele>375</ele>
        <time>2019-01-18T09:10:02.000Z</time>
      </trkpt>
      <trkpt lat="43.33806" lon="5.67119">
        <ele>375</ele>
        <time>2019-01-18T09:10:03.000Z</time>
      </trkpt>
      <trkpt lat="43.33806" lon="5.67119">
        <ele>375</ele>
        <time>2019-01-18T09:10:04.000Z</time>
      </trkpt>
      <trkpt lat="43.33806" lon="5.67119">
        <ele>375</ele>
        <time>2019-01-18T09:10:05.000Z</time>
      </trkpt>
      <trkpt lat="43.33806" lon="5.67119">
        <ele>375</ele>
        <time>2019-01-18T09:10:06.000Z</time>
      </trkpt>
      <trkpt lat="43.33806" lon="5.67119">
        <ele>375</ele>
        <time>2019-01-18T09:10:07.000Z</time>
      </trkpt>
      <trkpt lat="43.33806" lon="5.67119">
        <ele>375</ele>
        <time>2019-01-18T09:10:08.000Z</time>
      </trkpt>
      <trkpt lat="43.33807" lon="5.67119">
        <ele>375</ele>
        <time>2019-01-18T09:10:09.000Z</time>
      </trkpt>
      <trkpt lat="43.33807" lon="5.67119">
        <ele>375</ele>
        <time>2019-01-18T09:10:10.000Z</time>
      </trkpt>
      <trkpt lat="43.33807" lon="5.67119">
        <ele>375</ele>
        <time>2019-01-18T09:10:11.000Z</time>
      </trkpt>
      <trkpt lat="43.33807" lon="5.67119">
        <ele>375</ele>
        <time>2019-01-18T09:10:12.000Z</time>
      </trkpt>
      <trkpt lat="43.33807" lon="5.67119">
        <ele>375</ele>
        <time>2019-01-18T09:10:13.000Z</time>
      </trkpt>
      <trkpt lat="43.33807" lon="5.67119">
        <ele>375</ele>
        <time>2019-01-18T09:10:14.000Z</time>
      </trkpt>
      <trkpt lat="43.33807" lon="5.67119">
        <ele>375</ele>
        <time>2019-01-18T09:10:15.000Z</time>
      </trkpt>
      <trkpt lat="43.33807" lon="5.67119">
        <ele>375</ele>
        <time>2019-01-18T09:10:16.000Z</time>
      </trkpt>
      <trkpt lat="43.33807" lon="5.67119">
        <ele>375</ele>
        <time>2019-01-18T09:10:17.000Z</time>
      </trkpt>
      <trkpt lat="43.33807" lon="5.67119">
        <ele>375</ele>
        <time>2019-01-18T09:10:18.000Z</time>
      </trkpt>
      <trkpt lat="43.33807" lon="5.67119">
        <ele>375</ele>
        <time>2019-01-18T09:10:19.000Z</time>
      </trkpt>
      <trkpt lat="43.33807" lon="5.67119">
        <ele>375</ele>
        <time>2019-01-18T09:10:20.000Z</time>
      </trkpt>
      <trkpt lat="43.33807" lon="5.67119">
        <ele>375</ele>
        <time>2019-01-18T09:10:21.000Z</time>
      </trkpt>
      <trkpt lat="43.33807" lon="5.67119">
        <ele>375</ele>
        <time>2019-01-18T09:10:22.000Z</time>
      </trkpt>
      <trkpt lat="43.33807" lon="5.67119">
        <ele>375</ele>
        <time>2019-01-18T09:10:23.000Z</time>
      </trkpt>
      <trkpt lat="43.33807" lon="5.67119">
        <ele>375</ele>
        <time>2019-01-18T09:10:24.000Z</time>
      </trkpt>
      <trkpt lat="43.33807" lon="5.67119">
        <ele>375</ele>
        <time>2019-01-18T09:10:25.000Z</time>
      </trkpt>
      <trkpt lat="43.33807" lon="5.67118">
        <ele>375</ele>
        <time>2019-01-18T09:10:26.000Z</time>
      </trkpt>
      <trkpt lat="43.33807" lon="5.67118">
        <ele>375</ele>
        <time>2019-01-18T09:10:27.000Z</time>
      </trkpt>
      <trkpt lat="43.33807" lon="5.67118">
        <ele>375</ele>
        <time>2019-01-18T09:10:28.000Z</time>
      </trkpt>
      <trkpt lat="43.33806" lon="5.67118">
        <ele>374</ele>
        <time>2019-01-18T09:10:29.000Z</time>
      </trkpt>
      <trkpt lat="43.33806" lon="5.67118">
        <ele>374</ele>
        <time>2019-01-18T09:10:30.000Z</time>
      </trkpt>
      <trkpt lat="43.33806" lon="5.67118">
        <ele>374</ele>
        <time>2019-01-18T09:10:31.000Z</time>
      </trkpt>
      <trkpt lat="43.33806" lon="5.67118">
        <ele>374</ele>
        <time>2019-01-18T09:10:32.000Z</time>
      </trkpt>
      <trkpt lat="43.33806" lon="5.67118">
        <ele>374</ele>
        <time>2019-01-18T09:10:33.000Z</time>
      </trkpt>
      <trkpt lat="43.33806" lon="5.67118">
        <ele>374</ele>
        <time>2019-01-18T09:10:34.000Z</time>
      </trkpt>
      <trkpt lat="43.33806" lon="5.67118">
        <ele>374</ele>
        <time>2019-01-18T09:10:35.000Z</time>
      </trkpt>
      <trkpt lat="43.33806" lon="5.67118">
        <ele>374</ele>
        <time>2019-01-18T09:10:36.000Z</time>
      </trkpt>
      <trkpt lat="43.33806" lon="5.67118">
        <ele>374</ele>
        <time>2019-01-18T09:10:37.000Z</time>
      </trkpt>
      <trkpt lat="43.33806" lon="5.67118">
        <ele>374</ele>
        <time>2019-01-18T09:10:38.000Z</time>
      </trkpt>
      <trkpt lat="43.33806" lon="5.67118">
        <ele>374</ele>
        <time>2019-01-18T09:10:39.000Z</time>
      </trkpt>
      <trkpt lat="43.33806" lon="5.67118">
        <ele>374</ele>
        <time>2019-01-18T09:10:40.000Z</time>
      </trkpt>
      <trkpt lat="43.33806" lon="5.67118">
        <ele>374</ele>
        <time>2019-01-18T09:10:41.000Z</time>
      </trkpt>
      <trkpt lat="43.33806" lon="5.67118">
        <ele>374</ele>
        <time>2019-01-18T09:10:42.000Z</time>
      </trkpt>
      <trkpt lat="43.33806" lon="5.67118">
        <ele>374</ele>
        <time>2019-01-18T09:10:43.000Z</time>
      </trkpt>
      <trkpt lat="43.33806" lon="5.67118">
        <ele>374</ele>
        <time>2019-01-18T09:10:44.000Z</time>
      </trkpt>
      <trkpt lat="43.33806" lon="5.67118">
        <ele>374</ele>
        <time>2019-01-18T09:10:45.000Z</time>
      </trkpt>
      <trkpt lat="43.33806" lon="5.67118">
        <ele>374</ele>
        <time>2019-01-18T09:10:46.000Z</time>
      </trkpt>
      <trkpt lat="43.33806" lon="5.67118">
        <ele>374</ele>
        <time>2019-01-18T09:10:47.000Z</time>
      </trkpt>
      <trkpt lat="43.33806" lon="5.67118">
        <ele>374</ele>
        <time>2019-01-18T09:10:48.000Z</time>
      </trkpt>
      <trkpt lat="43.33806" lon="5.67118">
        <ele>374</ele>
        <time>2019-01-18T09:10:49.000Z</time>
      </trkpt>
      <trkpt lat="43.33806" lon="5.67118">
        <ele>374</ele>
        <time>2019-01-18T09:10:50.000Z</time>
      </trkpt>
      <trkpt lat="43.33806" lon="5.67118">
        <ele>374</ele>
        <time>2019-01-18T09:10:51.000Z</time>
      </trkpt>
      <trkpt lat="43.33806" lon="5.67118">
        <ele>374</ele>
        <time>2019-01-18T09:10:52.000Z</time>
      </trkpt>
      <trkpt lat="43.33806" lon="5.67118">
        <ele>374</ele>
        <time>2019-01-18T09:10:53.000Z</time>
      </trkpt>
      <trkpt lat="43.33806" lon="5.67118">
        <ele>374</ele>
        <time>2019-01-18T09:10:54.000Z</time>
      </trkpt>
      <trkpt lat="43.33806" lon="5.67118">
        <ele>374</ele>
        <time>2019-01-18T09:10:55.000Z</time>
      </trkpt>
      <trkpt lat="43.33806" lon="5.67118">
        <ele>374</ele>
        <time>2019-01-18T09:10:56.000Z</time>
      </trkpt>
      <trkpt lat="43.33806" lon="5.67118">
        <ele>374</ele>
        <time>2019-01-18T09:10:57.000Z</time>
      </trkpt>
      <trkpt lat="43.33806" lon="5.67118">
        <ele>374</ele>
        <time>2019-01-18T09:10:58.000Z</time>
      </trkpt>
      <trkpt lat="43.33806" lon="5.67118">
        <ele>374</ele>
        <time>2019-01-18T09:10:59.000Z</time>
      </trkpt>
      <trkpt lat="43.33806" lon="5.67118">
        <ele>374</ele>
        <time>2019-01-18T09:11:00.000Z</time>
      </trkpt>
      <trkpt lat="43.33807" lon="5.67118">
        <ele>374</ele>
        <time>2019-01-18T09:11:01.000Z</time>
      </trkpt>
      <trkpt lat="43.33806" lon="5.67118">
        <ele>374</ele>
        <time>2019-01-18T09:11:02.000Z</time>
      </trkpt>
      <trkpt lat="43.33806" lon="5.67118">
        <ele>374</ele>
        <time>2019-01-18T09:11:03.000Z</time>
      </trkpt>
      <trkpt lat="43.33806" lon="5.67118">
        <ele>374</ele>
        <time>2019-01-18T09:11:04.000Z</time>
      </trkpt>
      <trkpt lat="43.33806" lon="5.67118">
        <ele>374</ele>
        <time>2019-01-18T09:11:05.000Z</time>
      </trkpt>
      <trkpt lat="43.33806" lon="5.67117">
        <ele>374</ele>
        <time>2019-01-18T09:11:06.000Z</time>
      </trkpt>
      <trkpt lat="43.33806" lon="5.67118">
        <ele>374</ele>
        <time>2019-01-18T09:11:07.000Z</time>
      </trkpt>
      <trkpt lat="43.33806" lon="5.67118">
        <ele>374</ele>
        <time>2019-01-18T09:11:08.000Z</time>
      </trkpt>
      <trkpt lat="43.33806" lon="5.67117">
        <ele>374</ele>
        <time>2019-01-18T09:11:09.000Z</time>
      </trkpt>
      <trkpt lat="43.33806" lon="5.67117">
        <ele>374</ele>
        <time>2019-01-18T09:11:10.000Z</time>
      </trkpt>
      <trkpt lat="43.33806" lon="5.67117">
        <ele>374</ele>
        <time>2019-01-18T09:11:11.000Z</time>
      </trkpt>
      <trkpt lat="43.33806" lon="5.67117">
        <ele>374</ele>
        <time>2019-01-18T09:11:12.000Z</time>
      </trkpt>
      <trkpt lat="43.33806" lon="5.67117">
        <ele>374</ele>
        <time>2019-01-18T09:11:13.000Z</time>
      </trkpt>
      <trkpt lat="43.33806" lon="5.67117">
        <ele>374</ele>
        <time>2019-01-18T09:11:14.000Z</time>
      </trkpt>
      <trkpt lat="43.33806" lon="5.67117">
        <ele>374</ele>
        <time>2019-01-18T09:11:15.000Z</time>
      </trkpt>
      <trkpt lat="43.33806" lon="5.67117">
        <ele>374</ele>
        <time>2019-01-18T09:11:16.000Z</time>
      </trkpt>
      <trkpt lat="43.33806" lon="5.67117">
        <ele>374</ele>
        <time>2019-01-18T09:11:17.000Z</time>
      </trkpt>
      <trkpt lat="43.33806" lon="5.67117">
        <ele>374</ele>
        <time>2019-01-18T09:11:18.000Z</time>
      </trkpt>
      <trkpt lat="43.33806" lon="5.67117">
        <ele>374</ele>
        <time>2019-01-18T09:11:19.000Z</time>
      </trkpt>
      <trkpt lat="43.33806" lon="5.67117">
        <ele>374</ele>
        <time>2019-01-18T09:11:20.000Z</time>
      </trkpt>
      <trkpt lat="43.33806" lon="5.67117">
        <ele>374</ele>
        <time>2019-01-18T09:11:21.000Z</time>
      </trkpt>
      <trkpt lat="43.33806" lon="5.67117">
        <ele>374</ele>
        <time>2019-01-18T09:11:22.000Z</time>
      </trkpt>
      <trkpt lat="43.33805" lon="5.67118">
        <ele>374</ele>
        <time>2019-01-18T09:11:23.000Z</time>
      </trkpt>
      <trkpt lat="43.33805" lon="5.67118">
        <ele>374</ele>
        <time>2019-01-18T09:11:24.000Z</time>
      </trkpt>
      <trkpt lat="43.33804" lon="5.67119">
        <ele>374</ele>
        <time>2019-01-18T09:11:25.000Z</time>
      </trkpt>
      <trkpt lat="43.33804" lon="5.6712">
        <ele>374</ele>
        <time>2019-01-18T09:11:26.000Z</time>
      </trkpt>
      <trkpt lat="43.33804" lon="5.6712">
        <ele>374</ele>
        <time>2019-01-18T09:11:27.000Z</time>
      </trkpt>
      <trkpt lat="43.33803" lon="5.67121">
        <ele>374</ele>
        <time>2019-01-18T09:11:28.000Z</time>
      </trkpt>
      <trkpt lat="43.33803" lon="5.67122">
        <ele>374</ele>
        <time>2019-01-18T09:11:29.000Z</time>
      </trkpt>
      <trkpt lat="43.33803" lon="5.67123">
        <ele>374</ele>
        <time>2019-01-18T09:11:30.000Z</time>
      </trkpt>
      <trkpt lat="43.33803" lon="5.67123">
        <ele>374</ele>
        <time>2019-01-18T09:11:31.000Z</time>
      </trkpt>
      <trkpt lat="43.33802" lon="5.67124">
        <ele>374</ele>
        <time>2019-01-18T09:11:32.000Z</time>
      </trkpt>
      <trkpt lat="43.33802" lon="5.67124">
        <ele>374</ele>
        <time>2019-01-18T09:11:33.000Z</time>
      </trkpt>
      <trkpt lat="43.33801" lon="5.67124">
        <ele>373</ele>
        <time>2019-01-18T09:11:34.000Z</time>
      </trkpt>
      <trkpt lat="43.33801" lon="5.67124">
        <ele>373</ele>
        <time>2019-01-18T09:11:35.000Z</time>
      </trkpt>
      <trkpt lat="43.33801" lon="5.67125">
        <ele>373</ele>
        <time>2019-01-18T09:11:36.000Z</time>
      </trkpt>
      <trkpt lat="43.338" lon="5.67126">
        <ele>373</ele>
        <time>2019-01-18T09:11:37.000Z</time>
      </trkpt>
      <trkpt lat="43.338" lon="5.67127">
        <ele>373</ele>
        <time>2019-01-18T09:11:38.000Z</time>
      </trkpt>
      <trkpt lat="43.338" lon="5.67128">
        <ele>373</ele>
        <time>2019-01-18T09:11:39.000Z</time>
      </trkpt>
      <trkpt lat="43.338" lon="5.67129">
        <ele>372</ele>
        <time>2019-01-18T09:11:40.000Z</time>
      </trkpt>
      <trkpt lat="43.33799" lon="5.6713">
        <ele>372</ele>
        <time>2019-01-18T09:11:41.000Z</time>
      </trkpt>
      <trkpt lat="43.33799" lon="5.67131">
        <ele>372</ele>
        <time>2019-01-18T09:11:42.000Z</time>
      </trkpt>
      <trkpt lat="43.33798" lon="5.67131">
        <ele>372</ele>
        <time>2019-01-18T09:11:43.000Z</time>
      </trkpt>
      <trkpt lat="43.33798" lon="5.67132">
        <ele>372</ele>
        <time>2019-01-18T09:11:44.000Z</time>
      </trkpt>
      <trkpt lat="43.33797" lon="5.67133">
        <ele>372</ele>
        <time>2019-01-18T09:11:45.000Z</time>
      </trkpt>
      <trkpt lat="43.33797" lon="5.67133">
        <ele>372</ele>
        <time>2019-01-18T09:11:46.000Z</time>
      </trkpt>
      <trkpt lat="43.33796" lon="5.67133">
        <ele>371</ele>
        <time>2019-01-18T09:11:47.000Z</time>
      </trkpt>
      <trkpt lat="43.33796" lon="5.67134">
        <ele>371</ele>
        <time>2019-01-18T09:11:48.000Z</time>
      </trkpt>
      <trkpt lat="43.33795" lon="5.67134">
        <ele>371</ele>
        <time>2019-01-18T09:11:49.000Z</time>
      </trkpt>
      <trkpt lat="43.33795" lon="5.67135">
        <ele>371</ele>
        <time>2019-01-18T09:11:50.000Z</time>
      </trkpt>
      <trkpt lat="43.33794" lon="5.67136">
        <ele>371</ele>
        <time>2019-01-18T09:11:51.000Z</time>
      </trkpt>
      <trkpt lat="43.33794" lon="5.67137">
        <ele>370</ele>
        <time>2019-01-18T09:11:52.000Z</time>
      </trkpt>
      <trkpt lat="43.33794" lon="5.67137">
        <ele>370</ele>
        <time>2019-01-18T09:11:53.000Z</time>
      </trkpt>
      <trkpt lat="43.33794" lon="5.67138">
        <ele>370</ele>
        <time>2019-01-18T09:11:54.000Z</time>
      </trkpt>
      <trkpt lat="43.33793" lon="5.67139">
        <ele>370</ele>
        <time>2019-01-18T09:11:55.000Z</time>
      </trkpt>
      <trkpt lat="43.33793" lon="5.6714">
        <ele>370</ele>
        <time>2019-01-18T09:11:56.000Z</time>
      </trkpt>
      <trkpt lat="43.33792" lon="5.67141">
        <ele>369</ele>
        <time>2019-01-18T09:11:57.000Z</time>
      </trkpt>
      <trkpt lat="43.33792" lon="5.67142">
        <ele>369</ele>
        <time>2019-01-18T09:11:58.000Z</time>
      </trkpt>
      <trkpt lat="43.33792" lon="5.67143">
        <ele>369</ele>
        <time>2019-01-18T09:11:59.000Z</time>
      </trkpt>
      <trkpt lat="43.33791" lon="5.67144">
        <ele>369</ele>
        <time>2019-01-18T09:12:00.000Z</time>
      </trkpt>
      <trkpt lat="43.33791" lon="5.67145">
        <ele>369</ele>
        <time>2019-01-18T09:12:01.000Z</time>
      </trkpt>
      <trkpt lat="43.33791" lon="5.67146">
        <ele>369</ele>
        <time>2019-01-18T09:12:02.000Z</time>
      </trkpt>
      <trkpt lat="43.3379" lon="5.67147">
        <ele>369</ele>
        <time>2019-01-18T09:12:03.000Z</time>
      </trkpt>
      <trkpt lat="43.33791" lon="5.67148">
        <ele>369</ele>
        <time>2019-01-18T09:12:04.000Z</time>
      </trkpt>
      <trkpt lat="43.3379" lon="5.67149">
        <ele>369</ele>
        <time>2019-01-18T09:12:05.000Z</time>
      </trkpt>
      <trkpt lat="43.3379" lon="5.6715">
        <ele>369</ele>
        <time>2019-01-18T09:12:06.000Z</time>
      </trkpt>
      <trkpt lat="43.3379" lon="5.67151">
        <ele>369</ele>
        <time>2019-01-18T09:12:07.000Z</time>
      </trkpt>
      <trkpt lat="43.33789" lon="5.67152">
        <ele>369</ele>
        <time>2019-01-18T09:12:08.000Z</time>
      </trkpt>
      <trkpt lat="43.33788" lon="5.67153">
        <ele>369</ele>
        <time>2019-01-18T09:12:09.000Z</time>
      </trkpt>
      <trkpt lat="43.33788" lon="5.67154">
        <ele>369</ele>
        <time>2019-01-18T09:12:10.000Z</time>
      </trkpt>
      <trkpt lat="43.33787" lon="5.67155">
        <ele>369</ele>
        <time>2019-01-18T09:12:11.000Z</time>
      </trkpt>
      <trkpt lat="43.33786" lon="5.67156">
        <ele>369</ele>
        <time>2019-01-18T09:12:12.000Z</time>
      </trkpt>
      <trkpt lat="43.33786" lon="5.67157">
        <ele>369</ele>
        <time>2019-01-18T09:12:13.000Z</time>
      </trkpt>
      <trkpt lat="43.33786" lon="5.67157">
        <ele>368</ele>
        <time>2019-01-18T09:12:14.000Z</time>
      </trkpt>
      <trkpt lat="43.33785" lon="5.67158">
        <ele>368</ele>
        <time>2019-01-18T09:12:15.000Z</time>
      </trkpt>
      <trkpt lat="43.33784" lon="5.67159">
        <ele>368</ele>
        <time>2019-01-18T09:12:16.000Z</time>
      </trkpt>
      <trkpt lat="43.33784" lon="5.6716">
        <ele>368</ele>
        <time>2019-01-18T09:12:17.000Z</time>
      </trkpt>
      <trkpt lat="43.33783" lon="5.67161">
        <ele>368</ele>
        <time>2019-01-18T09:12:18.000Z</time>
      </trkpt>
      <trkpt lat="43.33783" lon="5.67162">
        <ele>368</ele>
        <time>2019-01-18T09:12:19.000Z</time>
      </trkpt>
      <trkpt lat="43.33783" lon="5.67162">
        <ele>368</ele>
        <time>2019-01-18T09:12:20.000Z</time>
      </trkpt>
      <trkpt lat="43.33782" lon="5.67163">
        <ele>368</ele>
        <time>2019-01-18T09:12:21.000Z</time>
      </trkpt>
      <trkpt lat="43.33781" lon="5.67164">
        <ele>368</ele>
        <time>2019-01-18T09:12:22.000Z</time>
      </trkpt>
      <trkpt lat="43.33781" lon="5.67164">
        <ele>368</ele>
        <time>2019-01-18T09:12:23.000Z</time>
      </trkpt>
      <trkpt lat="43.3378" lon="5.67165">
        <ele>368</ele>
        <time>2019-01-18T09:12:24.000Z</time>
      </trkpt>
      <trkpt lat="43.3378" lon="5.67165">
        <ele>368</ele>
        <time>2019-01-18T09:12:25.000Z</time>
      </trkpt>
      <trkpt lat="43.3378" lon="5.67165">
        <ele>368</ele>
        <time>2019-01-18T09:12:26.000Z</time>
      </trkpt>
      <trkpt lat="43.3378" lon="5.67165">
        <ele>368</ele>
        <time>2019-01-18T09:12:27.000Z</time>
      </trkpt>
      <trkpt lat="43.3378" lon="5.67166">
        <ele>368</ele>
        <time>2019-01-18T09:12:28.000Z</time>
      </trkpt>
      <trkpt lat="43.3378" lon="5.67166">
        <ele>368</ele>
        <time>2019-01-18T09:12:29.000Z</time>
      </trkpt>
      <trkpt lat="43.33779" lon="5.67167">
        <ele>368</ele>
        <time>2019-01-18T09:12:30.000Z</time>
      </trkpt>
      <trkpt lat="43.33779" lon="5.67168">
        <ele>368</ele>
        <time>2019-01-18T09:12:31.000Z</time>
      </trkpt>
      <trkpt lat="43.33778" lon="5.67168">
        <ele>367</ele>
        <time>2019-01-18T09:12:32.000Z</time>
      </trkpt>
      <trkpt lat="43.33778" lon="5.67169">
        <ele>367</ele>
        <time>2019-01-18T09:12:33.000Z</time>
      </trkpt>
      <trkpt lat="43.33778" lon="5.6717">
        <ele>367</ele>
        <time>2019-01-18T09:12:34.000Z</time>
      </trkpt>
      <trkpt lat="43.33777" lon="5.67171">
        <ele>367</ele>
        <time>2019-01-18T09:12:35.000Z</time>
      </trkpt>
      <trkpt lat="43.33777" lon="5.67172">
        <ele>367</ele>
        <time>2019-01-18T09:12:36.000Z</time>
      </trkpt>
      <trkpt lat="43.33776" lon="5.67172">
        <ele>367</ele>
        <time>2019-01-18T09:12:37.000Z</time>
      </trkpt>
      <trkpt lat="43.33775" lon="5.67173">
        <ele>367</ele>
        <time>2019-01-18T09:12:38.000Z</time>
      </trkpt>
      <trkpt lat="43.33775" lon="5.67173">
        <ele>367</ele>
        <time>2019-01-18T09:12:39.000Z</time>
      </trkpt>
      <trkpt lat="43.33775" lon="5.67173">
        <ele>367</ele>
        <time>2019-01-18T09:12:40.000Z</time>
      </trkpt>
      <trkpt lat="43.33776" lon="5.67174">
        <ele>367</ele>
        <time>2019-01-18T09:12:41.000Z</time>
      </trkpt>
      <trkpt lat="43.33776" lon="5.67175">
        <ele>367</ele>
        <time>2019-01-18T09:12:42.000Z</time>
      </trkpt>
      <trkpt lat="43.33776" lon="5.67175">
        <ele>367</ele>
        <time>2019-01-18T09:12:43.000Z</time>
      </trkpt>
      <trkpt lat="43.33776" lon="5.67176">
        <ele>367</ele>
        <time>2019-01-18T09:12:44.000Z</time>
      </trkpt>
      <trkpt lat="43.33776" lon="5.67176">
        <ele>367</ele>
        <time>2019-01-18T09:12:45.000Z</time>
      </trkpt>
      <trkpt lat="43.33776" lon="5.67176">
        <ele>368</ele>
        <time>2019-01-18T09:12:46.000Z</time>
      </trkpt>
      <trkpt lat="43.33776" lon="5.67176">
        <ele>368</ele>
        <time>2019-01-18T09:12:47.000Z</time>
      </trkpt>
      <trkpt lat="43.33775" lon="5.67176">
        <ele>368</ele>
        <time>2019-01-18T09:12:48.000Z</time>
      </trkpt>
      <trkpt lat="43.33775" lon="5.67176">
        <ele>368</ele>
        <time>2019-01-18T09:12:49.000Z</time>
      </trkpt>
      <trkpt lat="43.33775" lon="5.67176">
        <ele>368</ele>
        <time>2019-01-18T09:12:50.000Z</time>
      </trkpt>
      <trkpt lat="43.33775" lon="5.67176">
        <ele>368</ele>
        <time>2019-01-18T09:12:51.000Z</time>
      </trkpt>
      <trkpt lat="43.33775" lon="5.67176">
        <ele>368</ele>
        <time>2019-01-18T09:12:52.000Z</time>
      </trkpt>
      <trkpt lat="43.33775" lon="5.67177">
        <ele>368</ele>
        <time>2019-01-18T09:12:53.000Z</time>
      </trkpt>
      <trkpt lat="43.33775" lon="5.67177">
        <ele>368</ele>
        <time>2019-01-18T09:12:54.000Z</time>
      </trkpt>
      <trkpt lat="43.33775" lon="5.67177">
        <ele>368</ele>
        <time>2019-01-18T09:12:55.000Z</time>
      </trkpt>
      <trkpt lat="43.33775" lon="5.67177">
        <ele>368</ele>
        <time>2019-01-18T09:12:56.000Z</time>
      </trkpt>
      <trkpt lat="43.33775" lon="5.67177">
        <ele>368</ele>
        <time>2019-01-18T09:12:57.000Z</time>
      </trkpt>
      <trkpt lat="43.33775" lon="5.67177">
        <ele>368</ele>
        <time>2019-01-18T09:12:58.000Z</time>
      </trkpt>
      <trkpt lat="43.33775" lon="5.67177">
        <ele>368</ele>
        <time>2019-01-18T09:12:59.000Z</time>
      </trkpt>
      <trkpt lat="43.33774" lon="5.67178">
        <ele>368</ele>
        <time>2019-01-18T09:13:00.000Z</time>
      </trkpt>
      <trkpt lat="43.33773" lon="5.67178">
        <ele>368</ele>
        <time>2019-01-18T09:13:01.000Z</time>
      </trkpt>
      <trkpt lat="43.33773" lon="5.67178">
        <ele>368</ele>
        <time>2019-01-18T09:13:02.000Z</time>
      </trkpt>
      <trkpt lat="43.33773" lon="5.67178">
        <ele>368</ele>
        <time>2019-01-18T09:13:03.000Z</time>
      </trkpt>
      <trkpt lat="43.33772" lon="5.67179">
        <ele>368</ele>
        <time>2019-01-18T09:13:04.000Z</time>
      </trkpt>
      <trkpt lat="43.33772" lon="5.67179">
        <ele>368</ele>
        <time>2019-01-18T09:13:05.000Z</time>
      </trkpt>
      <trkpt lat="43.33771" lon="5.67179">
        <ele>368</ele>
        <time>2019-01-18T09:13:06.000Z</time>
      </trkpt>
      <trkpt lat="43.33771" lon="5.67179">
        <ele>368</ele>
        <time>2019-01-18T09:13:07.000Z</time>
      </trkpt>
      <trkpt lat="43.33771" lon="5.67179">
        <ele>368</ele>
        <time>2019-01-18T09:13:08.000Z</time>
      </trkpt>
      <trkpt lat="43.3377" lon="5.67179">
        <ele>368</ele>
        <time>2019-01-18T09:13:09.000Z</time>
      </trkpt>
      <trkpt lat="43.3377" lon="5.6718">
        <ele>368</ele>
        <time>2019-01-18T09:13:10.000Z</time>
      </trkpt>
      <trkpt lat="43.33769" lon="5.6718">
        <ele>367</ele>
        <time>2019-01-18T09:13:11.000Z</time>
      </trkpt>
      <trkpt lat="43.33769" lon="5.67181">
        <ele>367</ele>
        <time>2019-01-18T09:13:12.000Z</time>
      </trkpt>
      <trkpt lat="43.33769" lon="5.67182">
        <ele>367</ele>
        <time>2019-01-18T09:13:13.000Z</time>
      </trkpt>
      <trkpt lat="43.33768" lon="5.67182">
        <ele>367</ele>
        <time>2019-01-18T09:13:14.000Z</time>
      </trkpt>
      <trkpt lat="43.33768" lon="5.67182">
        <ele>367</ele>
        <time>2019-01-18T09:13:15.000Z</time>
      </trkpt>
      <trkpt lat="43.33768" lon="5.67183">
        <ele>367</ele>
        <time>2019-01-18T09:13:16.000Z</time>
      </trkpt>
      <trkpt lat="43.33767" lon="5.67183">
        <ele>367</ele>
        <time>2019-01-18T09:13:17.000Z</time>
      </trkpt>
      <trkpt lat="43.33767" lon="5.67184">
        <ele>367</ele>
        <time>2019-01-18T09:13:18.000Z</time>
      </trkpt>
      <trkpt lat="43.33767" lon="5.67185">
        <ele>367</ele>
        <time>2019-01-18T09:13:19.000Z</time>
      </trkpt>
      <trkpt lat="43.33767" lon="5.67185">
        <ele>367</ele>
        <time>2019-01-18T09:13:20.000Z</time>
      </trkpt>
      <trkpt lat="43.33766" lon="5.67186">
        <ele>367</ele>
        <time>2019-01-18T09:13:21.000Z</time>
      </trkpt>
      <trkpt lat="43.33766" lon="5.67187">
        <ele>366</ele>
        <time>2019-01-18T09:13:22.000Z</time>
      </trkpt>
      <trkpt lat="43.33766" lon="5.67188">
        <ele>366</ele>
        <time>2019-01-18T09:13:23.000Z</time>
      </trkpt>
      <trkpt lat="43.33766" lon="5.67189">
        <ele>366</ele>
        <time>2019-01-18T09:13:24.000Z</time>
      </trkpt>
      <trkpt lat="43.33766" lon="5.6719">
        <ele>366</ele>
        <time>2019-01-18T09:13:25.000Z</time>
      </trkpt>
      <trkpt lat="43.33765" lon="5.6719">
        <ele>366</ele>
        <time>2019-01-18T09:13:26.000Z</time>
      </trkpt>
      <trkpt lat="43.33765" lon="5.67191">
        <ele>366</ele>
        <time>2019-01-18T09:13:27.000Z</time>
      </trkpt>
      <trkpt lat="43.33765" lon="5.67192">
        <ele>366</ele>
        <time>2019-01-18T09:13:28.000Z</time>
      </trkpt>
      <trkpt lat="43.33765" lon="5.67192">
        <ele>366</ele>
        <time>2019-01-18T09:13:29.000Z</time>
      </trkpt>
      <trkpt lat="43.33765" lon="5.67192">
        <ele>366</ele>
        <time>2019-01-18T09:13:30.000Z</time>
      </trkpt>
      <trkpt lat="43.33765" lon="5.67193">
        <ele>366</ele>
        <time>2019-01-18T09:13:31.000Z</time>
      </trkpt>
      <trkpt lat="43.33765" lon="5.67195">
        <ele>366</ele>
        <time>2019-01-18T09:13:32.000Z</time>
      </trkpt>
      <trkpt lat="43.33765" lon="5.67196">
        <ele>366</ele>
        <time>2019-01-18T09:13:33.000Z</time>
      </trkpt>
      <trkpt lat="43.33765" lon="5.67196">
        <ele>366</ele>
        <time>2019-01-18T09:13:34.000Z</time>
      </trkpt>
      <trkpt lat="43.33765" lon="5.67197">
        <ele>366</ele>
        <time>2019-01-18T09:13:35.000Z</time>
      </trkpt>
      <trkpt lat="43.33765" lon="5.67197">
        <ele>366</ele>
        <time>2019-01-18T09:13:36.000Z</time>
      </trkpt>
      <trkpt lat="43.33765" lon="5.67197">
        <ele>366</ele>
        <time>2019-01-18T09:13:37.000Z</time>
      </trkpt>
      <trkpt lat="43.33765" lon="5.67197">
        <ele>366</ele>
        <time>2019-01-18T09:13:38.000Z</time>
      </trkpt>
      <trkpt lat="43.33765" lon="5.67198">
        <ele>365</ele>
        <time>2019-01-18T09:13:39.000Z</time>
      </trkpt>
      <trkpt lat="43.33764" lon="5.67199">
        <ele>365</ele>
        <time>2019-01-18T09:13:40.000Z</time>
      </trkpt>
      <trkpt lat="43.33764" lon="5.672">
        <ele>365</ele>
        <time>2019-01-18T09:13:41.000Z</time>
      </trkpt>
      <trkpt lat="43.33764" lon="5.67201">
        <ele>365</ele>
        <time>2019-01-18T09:13:42.000Z</time>
      </trkpt>
      <trkpt lat="43.33764" lon="5.67202">
        <ele>365</ele>
        <time>2019-01-18T09:13:43.000Z</time>
      </trkpt>
      <trkpt lat="43.33764" lon="5.67203">
        <ele>365</ele>
        <time>2019-01-18T09:13:44.000Z</time>
      </trkpt>
      <trkpt lat="43.33764" lon="5.67204">
        <ele>365</ele>
        <time>2019-01-18T09:13:45.000Z</time>
      </trkpt>
      <trkpt lat="43.33765" lon="5.67205">
        <ele>365</ele>
        <time>2019-01-18T09:13:46.000Z</time>
      </trkpt>
      <trkpt lat="43.33765" lon="5.67206">
        <ele>365</ele>
        <time>2019-01-18T09:13:47.000Z</time>
      </trkpt>
      <trkpt lat="43.33765" lon="5.67208">
        <ele>365</ele>
        <time>2019-01-18T09:13:48.000Z</time>
      </trkpt>
      <trkpt lat="43.33765" lon="5.67209">
        <ele>365</ele>
        <time>2019-01-18T09:13:49.000Z</time>
      </trkpt>
      <trkpt lat="43.33765" lon="5.6721">
        <ele>365</ele>
        <time>2019-01-18T09:13:50.000Z</time>
      </trkpt>
      <trkpt lat="43.33765" lon="5.67211">
        <ele>365</ele>
        <time>2019-01-18T09:13:51.000Z</time>
      </trkpt>
      <trkpt lat="43.33766" lon="5.67212">
        <ele>365</ele>
        <time>2019-01-18T09:13:52.000Z</time>
      </trkpt>
      <trkpt lat="43.33766" lon="5.67213">
        <ele>365</ele>
        <time>2019-01-18T09:13:53.000Z</time>
      </trkpt>
      <trkpt lat="43.33766" lon="5.67213">
        <ele>365</ele>
        <time>2019-01-18T09:13:54.000Z</time>
      </trkpt>
      <trkpt lat="43.33766" lon="5.67213">
        <ele>365</ele>
        <time>2019-01-18T09:13:55.000Z</time>
      </trkpt>
      <trkpt lat="43.33766" lon="5.67213">
        <ele>365</ele>
        <time>2019-01-18T09:13:56.000Z</time>
      </trkpt>
      <trkpt lat="43.33766" lon="5.67213">
        <ele>365</ele>
        <time>2019-01-18T09:13:57.000Z</time>
      </trkpt>
      <trkpt lat="43.33766" lon="5.67213">
        <ele>365</ele>
        <time>2019-01-18T09:13:58.000Z</time>
      </trkpt>
      <trkpt lat="43.33766" lon="5.67213">
        <ele>365</ele>
        <time>2019-01-18T09:13:59.000Z</time>
      </trkpt>
      <trkpt lat="43.33766" lon="5.67213">
        <ele>364</ele>
        <time>2019-01-18T09:14:00.000Z</time>
      </trkpt>
      <trkpt lat="43.33766" lon="5.67214">
        <ele>364</ele>
        <time>2019-01-18T09:14:01.000Z</time>
      </trkpt>
      <trkpt lat="43.33766" lon="5.67214">
        <ele>364</ele>
        <time>2019-01-18T09:14:02.000Z</time>
      </trkpt>
      <trkpt lat="43.33766" lon="5.67214">
        <ele>364</ele>
        <time>2019-01-18T09:14:03.000Z</time>
      </trkpt>
      <trkpt lat="43.33765" lon="5.67214">
        <ele>364</ele>
        <time>2019-01-18T09:14:04.000Z</time>
      </trkpt>
      <trkpt lat="43.33765" lon="5.67214">
        <ele>364</ele>
        <time>2019-01-18T09:14:05.000Z</time>
      </trkpt>
      <trkpt lat="43.33765" lon="5.67214">
        <ele>364</ele>
        <time>2019-01-18T09:14:06.000Z</time>
      </trkpt>
      <trkpt lat="43.33766" lon="5.67214">
        <ele>364</ele>
        <time>2019-01-18T09:14:07.000Z</time>
      </trkpt>
      <trkpt lat="43.33766" lon="5.67215">
        <ele>364</ele>
        <time>2019-01-18T09:14:08.000Z</time>
      </trkpt>
      <trkpt lat="43.33766" lon="5.67215">
        <ele>364</ele>
        <time>2019-01-18T09:14:09.000Z</time>
      </trkpt>
      <trkpt lat="43.33767" lon="5.67216">
        <ele>364</ele>
        <time>2019-01-18T09:14:10.000Z</time>
      </trkpt>
      <trkpt lat="43.33767" lon="5.67217">
        <ele>364</ele>
        <time>2019-01-18T09:14:11.000Z</time>
      </trkpt>
      <trkpt lat="43.33767" lon="5.67219">
        <ele>364</ele>
        <time>2019-01-18T09:14:12.000Z</time>
      </trkpt>
      <trkpt lat="43.33768" lon="5.6722">
        <ele>364</ele>
        <time>2019-01-18T09:14:13.000Z</time>
      </trkpt>
      <trkpt lat="43.33768" lon="5.67221">
        <ele>364</ele>
        <time>2019-01-18T09:14:14.000Z</time>
      </trkpt>
      <trkpt lat="43.33768" lon="5.67222">
        <ele>364</ele>
        <time>2019-01-18T09:14:15.000Z</time>
      </trkpt>
      <trkpt lat="43.33769" lon="5.67222">
        <ele>364</ele>
        <time>2019-01-18T09:14:16.000Z</time>
      </trkpt>
      <trkpt lat="43.33769" lon="5.67223">
        <ele>364</ele>
        <time>2019-01-18T09:14:17.000Z</time>
      </trkpt>
      <trkpt lat="43.33769" lon="5.67223">
        <ele>364</ele>
        <time>2019-01-18T09:14:18.000Z</time>
      </trkpt>
      <trkpt lat="43.33769" lon="5.67224">
        <ele>364</ele>
        <time>2019-01-18T09:14:19.000Z</time>
      </trkpt>
      <trkpt lat="43.33769" lon="5.67224">
        <ele>364</ele>
        <time>2019-01-18T09:14:20.000Z</time>
      </trkpt>
      <trkpt lat="43.33769" lon="5.67224">
        <ele>364</ele>
        <time>2019-01-18T09:14:21.000Z</time>
      </trkpt>
      <trkpt lat="43.33769" lon="5.67224">
        <ele>364</ele>
        <time>2019-01-18T09:14:22.000Z</time>
      </trkpt>
      <trkpt lat="43.33769" lon="5.67225">
        <ele>364</ele>
        <time>2019-01-18T09:14:23.000Z</time>
      </trkpt>
      <trkpt lat="43.33769" lon="5.67225">
        <ele>364</ele>
        <time>2019-01-18T09:14:24.000Z</time>
      </trkpt>
      <trkpt lat="43.33769" lon="5.67226">
        <ele>364</ele>
        <time>2019-01-18T09:14:25.000Z</time>
      </trkpt>
      <trkpt lat="43.33769" lon="5.67226">
        <ele>364</ele>
        <time>2019-01-18T09:14:26.000Z</time>
      </trkpt>
      <trkpt lat="43.3377" lon="5.67226">
        <ele>364</ele>
        <time>2019-01-18T09:14:27.000Z</time>
      </trkpt>
      <trkpt lat="43.3377" lon="5.67226">
        <ele>364</ele>
        <time>2019-01-18T09:14:28.000Z</time>
      </trkpt>
      <trkpt lat="43.3377" lon="5.67227">
        <ele>364</ele>
        <time>2019-01-18T09:14:29.000Z</time>
      </trkpt>
      <trkpt lat="43.3377" lon="5.67227">
        <ele>365</ele>
        <time>2019-01-18T09:14:30.000Z</time>
      </trkpt>
      <trkpt lat="43.3377" lon="5.67227">
        <ele>365</ele>
        <time>2019-01-18T09:14:31.000Z</time>
      </trkpt>
      <trkpt lat="43.3377" lon="5.67227">
        <ele>365</ele>
        <time>2019-01-18T09:14:32.000Z</time>
      </trkpt>
      <trkpt lat="43.3377" lon="5.67227">
        <ele>365</ele>
        <time>2019-01-18T09:14:33.000Z</time>
      </trkpt>
      <trkpt lat="43.33769" lon="5.67227">
        <ele>365</ele>
        <time>2019-01-18T09:14:34.000Z</time>
      </trkpt>
      <trkpt lat="43.33769" lon="5.67227">
        <ele>365</ele>
        <time>2019-01-18T09:14:35.000Z</time>
      </trkpt>
      <trkpt lat="43.33769" lon="5.67227">
        <ele>365</ele>
        <time>2019-01-18T09:14:36.000Z</time>
      </trkpt>
      <trkpt lat="43.33769" lon="5.67227">
        <ele>365</ele>
        <time>2019-01-18T09:14:37.000Z</time>
      </trkpt>
      <trkpt lat="43.33769" lon="5.67227">
        <ele>365</ele>
        <time>2019-01-18T09:14:38.000Z</time>
      </trkpt>
      <trkpt lat="43.33769" lon="5.67227">
        <ele>365</ele>
        <time>2019-01-18T09:14:39.000Z</time>
      </trkpt>
      <trkpt lat="43.33769" lon="5.67227">
        <ele>365</ele>
        <time>2019-01-18T09:14:40.000Z</time>
      </trkpt>
      <trkpt lat="43.33769" lon="5.67227">
        <ele>365</ele>
        <time>2019-01-18T09:14:41.000Z</time>
      </trkpt>
      <trkpt lat="43.33769" lon="5.67227">
        <ele>365</ele>
        <time>2019-01-18T09:14:42.000Z</time>
      </trkpt>
      <trkpt lat="43.33769" lon="5.67227">
        <ele>365</ele>
        <time>2019-01-18T09:14:43.000Z</time>
      </trkpt>
      <trkpt lat="43.33769" lon="5.67227">
        <ele>365</ele>
        <time>2019-01-18T09:14:44.000Z</time>
      </trkpt>
      <trkpt lat="43.33769" lon="5.67228">
        <ele>365</ele>
        <time>2019-01-18T09:14:45.000Z</time>
      </trkpt>
      <trkpt lat="43.33769" lon="5.67228">
        <ele>365</ele>
        <time>2019-01-18T09:14:46.000Z</time>
      </trkpt>
      <trkpt lat="43.33768" lon="5.67228">
        <ele>365</ele>
        <time>2019-01-18T09:14:47.000Z</time>
      </trkpt>
      <trkpt lat="43.33768" lon="5.67228">
        <ele>365</ele>
        <time>2019-01-18T09:14:48.000Z</time>
      </trkpt>
      <trkpt lat="43.33768" lon="5.67228">
        <ele>365</ele>
        <time>2019-01-18T09:14:49.000Z</time>
      </trkpt>
      <trkpt lat="43.33768" lon="5.67228">
        <ele>365</ele>
        <time>2019-01-18T09:14:50.000Z</time>
      </trkpt>
      <trkpt lat="43.33768" lon="5.67228">
        <ele>365</ele>
        <time>2019-01-18T09:14:51.000Z</time>
      </trkpt>
      <trkpt lat="43.33768" lon="5.67228">
        <ele>365</ele>
        <time>2019-01-18T09:14:52.000Z</time>
      </trkpt>
      <trkpt lat="43.33769" lon="5.67228">
        <ele>365</ele>
        <time>2019-01-18T09:14:53.000Z</time>
      </trkpt>
      <trkpt lat="43.33769" lon="5.67228">
        <ele>365</ele>
        <time>2019-01-18T09:14:54.000Z</time>
      </trkpt>
      <trkpt lat="43.33769" lon="5.67228">
        <ele>365</ele>
        <time>2019-01-18T09:14:55.000Z</time>
      </trkpt>
      <trkpt lat="43.33769" lon="5.67229">
        <ele>365</ele>
        <time>2019-01-18T09:14:56.000Z</time>
      </trkpt>
      <trkpt lat="43.33768" lon="5.67229">
        <ele>365</ele>
        <time>2019-01-18T09:14:57.000Z</time>
      </trkpt>
      <trkpt lat="43.33768" lon="5.6723">
        <ele>365</ele>
        <time>2019-01-18T09:14:58.000Z</time>
      </trkpt>
      <trkpt lat="43.33768" lon="5.6723">
        <ele>365</ele>
        <time>2019-01-18T09:14:59.000Z</time>
      </trkpt>
      <trkpt lat="43.33768" lon="5.6723">
        <ele>365</ele>
        <time>2019-01-18T09:15:00.000Z</time>
      </trkpt>
      <trkpt lat="43.33768" lon="5.6723">
        <ele>365</ele>
        <time>2019-01-18T09:15:01.000Z</time>
      </trkpt>
      <trkpt lat="43.33768" lon="5.67232">
        <ele>365</ele>
        <time>2019-01-18T09:15:02.000Z</time>
      </trkpt>
      <trkpt lat="43.33768" lon="5.67232">
        <ele>365</ele>
        <time>2019-01-18T09:15:03.000Z</time>
      </trkpt>
      <trkpt lat="43.33768" lon="5.67232">
        <ele>365</ele>
        <time>2019-01-18T09:15:04.000Z</time>
      </trkpt>
      <trkpt lat="43.33768" lon="5.67233">
        <ele>366</ele>
        <time>2019-01-18T09:15:05.000Z</time>
      </trkpt>
      <trkpt lat="43.33767" lon="5.67233">
        <ele>366</ele>
        <time>2019-01-18T09:15:06.000Z</time>
      </trkpt>
      <trkpt lat="43.33767" lon="5.67233">
        <ele>366</ele>
        <time>2019-01-18T09:15:07.000Z</time>
      </trkpt>
      <trkpt lat="43.33767" lon="5.67234">
        <ele>366</ele>
        <time>2019-01-18T09:15:08.000Z</time>
      </trkpt>
      <trkpt lat="43.33767" lon="5.67235">
        <ele>366</ele>
        <time>2019-01-18T09:15:09.000Z</time>
      </trkpt>
      <trkpt lat="43.33767" lon="5.67236">
        <ele>366</ele>
        <time>2019-01-18T09:15:10.000Z</time>
      </trkpt>
      <trkpt lat="43.33767" lon="5.67236">
        <ele>366</ele>
        <time>2019-01-18T09:15:11.000Z</time>
      </trkpt>
      <trkpt lat="43.33767" lon="5.67236">
        <ele>366</ele>
        <time>2019-01-18T09:15:12.000Z</time>
      </trkpt>
      <trkpt lat="43.33767" lon="5.67236">
        <ele>366</ele>
        <time>2019-01-18T09:15:13.000Z</time>
      </trkpt>
      <trkpt lat="43.33767" lon="5.67236">
        <ele>366</ele>
        <time>2019-01-18T09:15:14.000Z</time>
      </trkpt>
      <trkpt lat="43.33767" lon="5.67236">
        <ele>366</ele>
        <time>2019-01-18T09:15:15.000Z</time>
      </trkpt>
      <trkpt lat="43.33767" lon="5.67236">
        <ele>366</ele>
        <time>2019-01-18T09:15:16.000Z</time>
      </trkpt>
      <trkpt lat="43.33767" lon="5.67236">
        <ele>367</ele>
        <time>2019-01-18T09:15:17.000Z</time>
      </trkpt>
      <trkpt lat="43.33767" lon="5.67236">
        <ele>367</ele>
        <time>2019-01-18T09:15:18.000Z</time>
      </trkpt>
      <trkpt lat="43.33766" lon="5.67236">
        <ele>367</ele>
        <time>2019-01-18T09:15:19.000Z</time>
      </trkpt>
      <trkpt lat="43.33766" lon="5.67236">
        <ele>367</ele>
        <time>2019-01-18T09:15:20.000Z</time>
      </trkpt>
      <trkpt lat="43.33766" lon="5.67236">
        <ele>367</ele>
        <time>2019-01-18T09:15:21.000Z</time>
      </trkpt>
      <trkpt lat="43.33766" lon="5.67236">
        <ele>367</ele>
        <time>2019-01-18T09:15:22.000Z</time>
      </trkpt>
      <trkpt lat="43.33767" lon="5.67236">
        <ele>367</ele>
        <time>2019-01-18T09:15:23.000Z</time>
      </trkpt>
      <trkpt lat="43.33767" lon="5.67236">
        <ele>367</ele>
        <time>2019-01-18T09:15:24.000Z</time>
      </trkpt>
      <trkpt lat="43.33767" lon="5.67236">
        <ele>367</ele>
        <time>2019-01-18T09:15:25.000Z</time>
      </trkpt>
      <trkpt lat="43.33767" lon="5.67237">
        <ele>367</ele>
        <time>2019-01-18T09:15:26.000Z</time>
      </trkpt>
      <trkpt lat="43.33767" lon="5.67237">
        <ele>367</ele>
        <time>2019-01-18T09:15:27.000Z</time>
      </trkpt>
      <trkpt lat="43.33767" lon="5.67236">
        <ele>367</ele>
        <time>2019-01-18T09:15:28.000Z</time>
      </trkpt>
      <trkpt lat="43.33767" lon="5.67237">
        <ele>367</ele>
        <time>2019-01-18T09:15:29.000Z</time>
      </trkpt>
      <trkpt lat="43.33768" lon="5.67237">
        <ele>367</ele>
        <time>2019-01-18T09:15:30.000Z</time>
      </trkpt>
      <trkpt lat="43.33768" lon="5.67237">
        <ele>367</ele>
        <time>2019-01-18T09:15:31.000Z</time>
      </trkpt>
      <trkpt lat="43.33768" lon="5.67237">
        <ele>367</ele>
        <time>2019-01-18T09:15:32.000Z</time>
      </trkpt>
      <trkpt lat="43.33768" lon="5.67237">
        <ele>367</ele>
        <time>2019-01-18T09:15:33.000Z</time>
      </trkpt>
      <trkpt lat="43.33768" lon="5.67237">
        <ele>367</ele>
        <time>2019-01-18T09:15:34.000Z</time>
      </trkpt>
      <trkpt lat="43.33768" lon="5.67237">
        <ele>367</ele>
        <time>2019-01-18T09:15:35.000Z</time>
      </trkpt>
      <trkpt lat="43.33768" lon="5.67237">
        <ele>367</ele>
        <time>2019-01-18T09:15:36.000Z</time>
      </trkpt>
      <trkpt lat="43.33768" lon="5.67237">
        <ele>368</ele>
        <time>2019-01-18T09:15:37.000Z</time>
      </trkpt>
      <trkpt lat="43.33769" lon="5.67237">
        <ele>368</ele>
        <time>2019-01-18T09:15:38.000Z</time>
      </trkpt>
      <trkpt lat="43.33769" lon="5.67237">
        <ele>368</ele>
        <time>2019-01-18T09:15:39.000Z</time>
      </trkpt>
      <trkpt lat="43.33769" lon="5.67237">
        <ele>368</ele>
        <time>2019-01-18T09:15:40.000Z</time>
      </trkpt>
      <trkpt lat="43.33769" lon="5.67237">
        <ele>368</ele>
        <time>2019-01-18T09:15:41.000Z</time>
      </trkpt>
      <trkpt lat="43.33769" lon="5.67236">
        <ele>368</ele>
        <time>2019-01-18T09:15:42.000Z</time>
      </trkpt>
      <trkpt lat="43.33769" lon="5.67236">
        <ele>368</ele>
        <time>2019-01-18T09:15:43.000Z</time>
      </trkpt>
      <trkpt lat="43.33769" lon="5.67236">
        <ele>368</ele>
        <time>2019-01-18T09:15:44.000Z</time>
      </trkpt>
      <trkpt lat="43.33769" lon="5.67236">
        <ele>368</ele>
        <time>2019-01-18T09:15:45.000Z</time>
      </trkpt>
      <trkpt lat="43.33769" lon="5.67236">
        <ele>368</ele>
        <time>2019-01-18T09:15:46.000Z</time>
      </trkpt>
      <trkpt lat="43.33769" lon="5.67236">
        <ele>368</ele>
        <time>2019-01-18T09:15:47.000Z</time>
      </trkpt>
      <trkpt lat="43.33769" lon="5.67236">
        <ele>368</ele>
        <time>2019-01-18T09:15:48.000Z</time>
      </trkpt>
      <trkpt lat="43.33769" lon="5.67236">
        <ele>368</ele>
        <time>2019-01-18T09:15:49.000Z</time>
      </trkpt>
      <trkpt lat="43.33769" lon="5.67236">
        <ele>368</ele>
        <time>2019-01-18T09:15:50.000Z</time>
      </trkpt>
      <trkpt lat="43.33769" lon="5.67236">
        <ele>368</ele>
        <time>2019-01-18T09:15:51.000Z</time>
      </trkpt>
      <trkpt lat="43.33769" lon="5.67236">
        <ele>368</ele>
        <time>2019-01-18T09:15:52.000Z</time>
      </trkpt>
      <trkpt lat="43.33769" lon="5.67236">
        <ele>368</ele>
        <time>2019-01-18T09:15:53.000Z</time>
      </trkpt>
      <trkpt lat="43.33769" lon="5.67236">
        <ele>368</ele>
        <time>2019-01-18T09:15:54.000Z</time>
      </trkpt>
      <trkpt lat="43.33769" lon="5.67236">
        <ele>368</ele>
        <time>2019-01-18T09:15:55.000Z</time>
      </trkpt>
      <trkpt lat="43.33768" lon="5.67236">
        <ele>368</ele>
        <time>2019-01-18T09:15:56.000Z</time>
      </trkpt>
      <trkpt lat="43.33768" lon="5.67236">
        <ele>368</ele>
        <time>2019-01-18T09:15:57.000Z</time>
      </trkpt>
      <trkpt lat="43.33769" lon="5.67236">
        <ele>368</ele>
        <time>2019-01-18T09:15:58.000Z</time>
      </trkpt>
      <trkpt lat="43.33769" lon="5.67236">
        <ele>368</ele>
        <time>2019-01-18T09:15:59.000Z</time>
      </trkpt>
      <trkpt lat="43.33769" lon="5.67237">
        <ele>367</ele>
        <time>2019-01-18T09:16:00.000Z</time>
      </trkpt>
      <trkpt lat="43.33769" lon="5.67237">
        <ele>367</ele>
        <time>2019-01-18T09:16:01.000Z</time>
      </trkpt>
      <trkpt lat="43.33769" lon="5.67239">
        <ele>367</ele>
        <time>2019-01-18T09:16:02.000Z</time>
      </trkpt>
      <trkpt lat="43.3377" lon="5.6724">
        <ele>367</ele>
        <time>2019-01-18T09:16:03.000Z</time>
      </trkpt>
      <trkpt lat="43.3377" lon="5.67241">
        <ele>367</ele>
        <time>2019-01-18T09:16:04.000Z</time>
      </trkpt>
      <trkpt lat="43.3377" lon="5.67243">
        <ele>367</ele>
        <time>2019-01-18T09:16:05.000Z</time>
      </trkpt>
      <trkpt lat="43.3377" lon="5.67244">
        <ele>367</ele>
        <time>2019-01-18T09:16:06.000Z</time>
      </trkpt>
      <trkpt lat="43.3377" lon="5.67245">
        <ele>367</ele>
        <time>2019-01-18T09:16:07.000Z</time>
      </trkpt>
      <trkpt lat="43.3377" lon="5.67246">
        <ele>367</ele>
        <time>2019-01-18T09:16:08.000Z</time>
      </trkpt>
      <trkpt lat="43.3377" lon="5.67246">
        <ele>367</ele>
        <time>2019-01-18T09:16:09.000Z</time>
      </trkpt>
      <trkpt lat="43.33769" lon="5.67247">
        <ele>367</ele>
        <time>2019-01-18T09:16:10.000Z</time>
      </trkpt>
      <trkpt lat="43.33769" lon="5.67248">
        <ele>367</ele>
        <time>2019-01-18T09:16:11.000Z</time>
      </trkpt>
      <trkpt lat="43.33769" lon="5.67248">
        <ele>367</ele>
        <time>2019-01-18T09:16:12.000Z</time>
      </trkpt>
      <trkpt lat="43.33768" lon="5.67249">
        <ele>367</ele>
        <time>2019-01-18T09:16:13.000Z</time>
      </trkpt>
      <trkpt lat="43.33768" lon="5.67249">
        <ele>366</ele>
        <time>2019-01-18T09:16:14.000Z</time>
      </trkpt>
      <trkpt lat="43.33767" lon="5.67249">
        <ele>366</ele>
        <time>2019-01-18T09:16:15.000Z</time>
      </trkpt>
      <trkpt lat="43.33767" lon="5.6725">
        <ele>366</ele>
        <time>2019-01-18T09:16:16.000Z</time>
      </trkpt>
      <trkpt lat="43.33767" lon="5.6725">
        <ele>366</ele>
        <time>2019-01-18T09:16:17.000Z</time>
      </trkpt>
      <trkpt lat="43.33766" lon="5.6725">
        <ele>366</ele>
        <time>2019-01-18T09:16:18.000Z</time>
      </trkpt>
      <trkpt lat="43.33766" lon="5.6725">
        <ele>366</ele>
        <time>2019-01-18T09:16:19.000Z</time>
      </trkpt>
      <trkpt lat="43.33766" lon="5.67251">
        <ele>366</ele>
        <time>2019-01-18T09:16:20.000Z</time>
      </trkpt>
      <trkpt lat="43.33766" lon="5.67251">
        <ele>366</ele>
        <time>2019-01-18T09:16:21.000Z</time>
      </trkpt>
      <trkpt lat="43.33766" lon="5.67251">
        <ele>366</ele>
        <time>2019-01-18T09:16:22.000Z</time>
      </trkpt>
      <trkpt lat="43.33765" lon="5.67252">
        <ele>366</ele>
        <time>2019-01-18T09:16:23.000Z</time>
      </trkpt>
      <trkpt lat="43.33765" lon="5.67252">
        <ele>367</ele>
        <time>2019-01-18T09:16:24.000Z</time>
      </trkpt>
      <trkpt lat="43.33765" lon="5.67253">
        <ele>367</ele>
        <time>2019-01-18T09:16:25.000Z</time>
      </trkpt>
      <trkpt lat="43.33765" lon="5.67254">
        <ele>367</ele>
        <time>2019-01-18T09:16:26.000Z</time>
      </trkpt>
      <trkpt lat="43.33766" lon="5.67255">
        <ele>367</ele>
        <time>2019-01-18T09:16:27.000Z</time>
      </trkpt>
      <trkpt lat="43.33766" lon="5.67255">
        <ele>367</ele>
        <time>2019-01-18T09:16:28.000Z</time>
      </trkpt>
      <trkpt lat="43.33766" lon="5.67256">
        <ele>367</ele>
        <time>2019-01-18T09:16:29.000Z</time>
      </trkpt>
      <trkpt lat="43.33766" lon="5.67257">
        <ele>367</ele>
        <time>2019-01-18T09:16:30.000Z</time>
      </trkpt>
      <trkpt lat="43.33766" lon="5.67258">
        <ele>368</ele>
        <time>2019-01-18T09:16:31.000Z</time>
      </trkpt>
      <trkpt lat="43.33766" lon="5.67258">
        <ele>368</ele>
        <time>2019-01-18T09:16:32.000Z</time>
      </trkpt>
      <trkpt lat="43.33766" lon="5.67258">
        <ele>368</ele>
        <time>2019-01-18T09:16:33.000Z</time>
      </trkpt>
      <trkpt lat="43.33766" lon="5.67259">
        <ele>368</ele>
        <time>2019-01-18T09:16:34.000Z</time>
      </trkpt>
      <trkpt lat="43.33766" lon="5.67261">
        <ele>368</ele>
        <time>2019-01-18T09:16:35.000Z</time>
      </trkpt>
      <trkpt lat="43.33765" lon="5.67262">
        <ele>368</ele>
        <time>2019-01-18T09:16:36.000Z</time>
      </trkpt>
      <trkpt lat="43.33765" lon="5.67262">
        <ele>368</ele>
        <time>2019-01-18T09:16:37.000Z</time>
      </trkpt>
      <trkpt lat="43.33765" lon="5.67263">
        <ele>368</ele>
        <time>2019-01-18T09:16:38.000Z</time>
      </trkpt>
      <trkpt lat="43.33765" lon="5.67264">
        <ele>369</ele>
        <time>2019-01-18T09:16:39.000Z</time>
      </trkpt>
      <trkpt lat="43.33765" lon="5.67264">
        <ele>369</ele>
        <time>2019-01-18T09:16:40.000Z</time>
      </trkpt>
      <trkpt lat="43.33765" lon="5.67265">
        <ele>369</ele>
        <time>2019-01-18T09:16:41.000Z</time>
      </trkpt>
      <trkpt lat="43.33765" lon="5.67265">
        <ele>369</ele>
        <time>2019-01-18T09:16:42.000Z</time>
      </trkpt>
      <trkpt lat="43.33765" lon="5.67264">
        <ele>369</ele>
        <time>2019-01-18T09:16:43.000Z</time>
      </trkpt>
      <trkpt lat="43.33765" lon="5.67265">
        <ele>369</ele>
        <time>2019-01-18T09:16:44.000Z</time>
      </trkpt>
      <trkpt lat="43.33765" lon="5.67265">
        <ele>369</ele>
        <time>2019-01-18T09:16:45.000Z</time>
      </trkpt>
      <trkpt lat="43.33765" lon="5.67265">
        <ele>369</ele>
        <time>2019-01-18T09:16:46.000Z</time>
      </trkpt>
      <trkpt lat="43.33765" lon="5.67266">
        <ele>369</ele>
        <time>2019-01-18T09:16:47.000Z</time>
      </trkpt>
      <trkpt lat="43.33765" lon="5.67267">
        <ele>369</ele>
        <time>2019-01-18T09:16:48.000Z</time>
      </trkpt>
      <trkpt lat="43.33766" lon="5.67268">
        <ele>370</ele>
        <time>2019-01-18T09:16:49.000Z</time>
      </trkpt>
      <trkpt lat="43.33766" lon="5.67269">
        <ele>370</ele>
        <time>2019-01-18T09:16:50.000Z</time>
      </trkpt>
      <trkpt lat="43.33766" lon="5.67271">
        <ele>370</ele>
        <time>2019-01-18T09:16:51.000Z</time>
      </trkpt>
      <trkpt lat="43.33766" lon="5.67271">
        <ele>370</ele>
        <time>2019-01-18T09:16:52.000Z</time>
      </trkpt>
      <trkpt lat="43.33766" lon="5.67271">
        <ele>370</ele>
        <time>2019-01-18T09:16:53.000Z</time>
      </trkpt>
      <trkpt lat="43.33766" lon="5.67272">
        <ele>370</ele>
        <time>2019-01-18T09:16:54.000Z</time>
      </trkpt>
      <trkpt lat="43.33767" lon="5.67272">
        <ele>370</ele>
        <time>2019-01-18T09:16:55.000Z</time>
      </trkpt>
      <trkpt lat="43.33767" lon="5.67273">
        <ele>370</ele>
        <time>2019-01-18T09:16:56.000Z</time>
      </trkpt>
      <trkpt lat="43.33767" lon="5.67274">
        <ele>371</ele>
        <time>2019-01-18T09:16:57.000Z</time>
      </trkpt>
      <trkpt lat="43.33767" lon="5.67275">
        <ele>371</ele>
        <time>2019-01-18T09:16:58.000Z</time>
      </trkpt>
      <trkpt lat="43.33767" lon="5.67276">
        <ele>371</ele>
        <time>2019-01-18T09:16:59.000Z</time>
      </trkpt>
      <trkpt lat="43.33767" lon="5.67277">
        <ele>371</ele>
        <time>2019-01-18T09:17:00.000Z</time>
      </trkpt>
      <trkpt lat="43.33767" lon="5.67277">
        <ele>371</ele>
        <time>2019-01-18T09:17:01.000Z</time>
      </trkpt>
      <trkpt lat="43.33767" lon="5.67278">
        <ele>371</ele>
        <time>2019-01-18T09:17:02.000Z</time>
      </trkpt>
      <trkpt lat="43.33767" lon="5.67279">
        <ele>371</ele>
        <time>2019-01-18T09:17:03.000Z</time>
      </trkpt>
      <trkpt lat="43.33767" lon="5.6728">
        <ele>371</ele>
        <time>2019-01-18T09:17:04.000Z</time>
      </trkpt>
      <trkpt lat="43.33767" lon="5.67281">
        <ele>371</ele>
        <time>2019-01-18T09:17:05.000Z</time>
      </trkpt>
      <trkpt lat="43.33767" lon="5.67282">
        <ele>371</ele>
        <time>2019-01-18T09:17:06.000Z</time>
      </trkpt>
      <trkpt lat="43.33767" lon="5.67282">
        <ele>372</ele>
        <time>2019-01-18T09:17:07.000Z</time>
      </trkpt>
      <trkpt lat="43.33767" lon="5.67283">
        <ele>372</ele>
        <time>2019-01-18T09:17:08.000Z</time>
      </trkpt>
      <trkpt lat="43.33767" lon="5.67284">
        <ele>372</ele>
        <time>2019-01-18T09:17:09.000Z</time>
      </trkpt>
      <trkpt lat="43.33768" lon="5.67285">
        <ele>372</ele>
        <time>2019-01-18T09:17:10.000Z</time>
      </trkpt>
      <trkpt lat="43.33768" lon="5.67286">
        <ele>372</ele>
        <time>2019-01-18T09:17:11.000Z</time>
      </trkpt>
      <trkpt lat="43.33769" lon="5.67287">
        <ele>372</ele>
        <time>2019-01-18T09:17:12.000Z</time>
      </trkpt>
      <trkpt lat="43.33769" lon="5.67288">
        <ele>372</ele>
        <time>2019-01-18T09:17:13.000Z</time>
      </trkpt>
      <trkpt lat="43.33769" lon="5.67289">
        <ele>372</ele>
        <time>2019-01-18T09:17:14.000Z</time>
      </trkpt>
      <trkpt lat="43.33769" lon="5.67289">
        <ele>373</ele>
        <time>2019-01-18T09:17:15.000Z</time>
      </trkpt>
      <trkpt lat="43.33769" lon="5.67289">
        <ele>373</ele>
        <time>2019-01-18T09:17:16.000Z</time>
      </trkpt>
      <trkpt lat="43.33769" lon="5.67289">
        <ele>373</ele>
        <time>2019-01-18T09:17:17.000Z</time>
      </trkpt>
      <trkpt lat="43.33769" lon="5.67289">
        <ele>373</ele>
        <time>2019-01-18T09:17:18.000Z</time>
      </trkpt>
      <trkpt lat="43.33769" lon="5.67289">
        <ele>373</ele>
        <time>2019-01-18T09:17:19.000Z</time>
      </trkpt>
      <trkpt lat="43.33769" lon="5.67289">
        <ele>373</ele>
        <time>2019-01-18T09:17:20.000Z</time>
      </trkpt>
      <trkpt lat="43.33769" lon="5.67289">
        <ele>373</ele>
        <time>2019-01-18T09:17:21.000Z</time>
      </trkpt>
      <trkpt lat="43.33768" lon="5.67289">
        <ele>373</ele>
        <time>2019-01-18T09:17:22.000Z</time>
      </trkpt>
      <trkpt lat="43.33768" lon="5.6729">
        <ele>373</ele>
        <time>2019-01-18T09:17:23.000Z</time>
      </trkpt>
      <trkpt lat="43.33768" lon="5.6729">
        <ele>373</ele>
        <time>2019-01-18T09:17:24.000Z</time>
      </trkpt>
      <trkpt lat="43.33768" lon="5.67291">
        <ele>373</ele>
        <time>2019-01-18T09:17:25.000Z</time>
      </trkpt>
      <trkpt lat="43.33768" lon="5.67291">
        <ele>373</ele>
        <time>2019-01-18T09:17:26.000Z</time>
      </trkpt>
      <trkpt lat="43.33768" lon="5.67291">
        <ele>373</ele>
        <time>2019-01-18T09:17:27.000Z</time>
      </trkpt>
      <trkpt lat="43.33768" lon="5.67291">
        <ele>373</ele>
        <time>2019-01-18T09:17:28.000Z</time>
      </trkpt>
      <trkpt lat="43.33768" lon="5.67291">
        <ele>373</ele>
        <time>2019-01-18T09:17:29.000Z</time>
      </trkpt>
      <trkpt lat="43.33768" lon="5.67291">
        <ele>373</ele>
        <time>2019-01-18T09:17:30.000Z</time>
      </trkpt>
      <trkpt lat="43.33768" lon="5.67291">
        <ele>373</ele>
        <time>2019-01-18T09:17:31.000Z</time>
      </trkpt>
      <trkpt lat="43.33768" lon="5.67291">
        <ele>373</ele>
        <time>2019-01-18T09:17:32.000Z</time>
      </trkpt>
      <trkpt lat="43.33768" lon="5.67291">
        <ele>373</ele>
        <time>2019-01-18T09:17:33.000Z</time>
      </trkpt>
      <trkpt lat="43.33768" lon="5.67291">
        <ele>373</ele>
        <time>2019-01-18T09:17:34.000Z</time>
      </trkpt>
      <trkpt lat="43.33768" lon="5.67291">
        <ele>373</ele>
        <time>2019-01-18T09:17:35.000Z</time>
      </trkpt>
      <trkpt lat="43.33768" lon="5.67291">
        <ele>373</ele>
        <time>2019-01-18T09:17:36.000Z</time>
      </trkpt>
      <trkpt lat="43.33768" lon="5.67291">
        <ele>373</ele>
        <time>2019-01-18T09:17:37.000Z</time>
      </trkpt>
      <trkpt lat="43.33768" lon="5.67291">
        <ele>373</ele>
        <time>2019-01-18T09:17:38.000Z</time>
      </trkpt>
      <trkpt lat="43.33767" lon="5.67291">
        <ele>373</ele>
        <time>2019-01-18T09:17:39.000Z</time>
      </trkpt>
      <trkpt lat="43.33767" lon="5.67291">
        <ele>373</ele>
        <time>2019-01-18T09:17:40.000Z</time>
      </trkpt>
      <trkpt lat="43.33768" lon="5.67291">
        <ele>373</ele>
        <time>2019-01-18T09:17:41.000Z</time>
      </trkpt>
      <trkpt lat="43.33768" lon="5.67291">
        <ele>374</ele>
        <time>2019-01-18T09:17:42.000Z</time>
      </trkpt>
      <trkpt lat="43.33769" lon="5.67291">
        <ele>374</ele>
        <time>2019-01-18T09:17:43.000Z</time>
      </trkpt>
      <trkpt lat="43.33769" lon="5.67292">
        <ele>374</ele>
        <time>2019-01-18T09:17:44.000Z</time>
      </trkpt>
      <trkpt lat="43.3377" lon="5.67292">
        <ele>374</ele>
        <time>2019-01-18T09:17:45.000Z</time>
      </trkpt>
      <trkpt lat="43.3377" lon="5.67292">
        <ele>374</ele>
        <time>2019-01-18T09:17:46.000Z</time>
      </trkpt>
      <trkpt lat="43.3377" lon="5.67292">
        <ele>374</ele>
        <time>2019-01-18T09:17:47.000Z</time>
      </trkpt>
      <trkpt lat="43.3377" lon="5.67292">
        <ele>374</ele>
        <time>2019-01-18T09:17:48.000Z</time>
      </trkpt>
      <trkpt lat="43.3377" lon="5.67292">
        <ele>374</ele>
        <time>2019-01-18T09:17:49.000Z</time>
      </trkpt>
      <trkpt lat="43.3377" lon="5.67292">
        <ele>374</ele>
        <time>2019-01-18T09:17:50.000Z</time>
      </trkpt>
      <trkpt lat="43.3377" lon="5.67292">
        <ele>374</ele>
        <time>2019-01-18T09:17:51.000Z</time>
      </trkpt>
      <trkpt lat="43.3377" lon="5.67292">
        <ele>374</ele>
        <time>2019-01-18T09:17:52.000Z</time>
      </trkpt>
      <trkpt lat="43.3377" lon="5.67292">
        <ele>374</ele>
        <time>2019-01-18T09:17:53.000Z</time>
      </trkpt>
      <trkpt lat="43.3377" lon="5.67292">
        <ele>374</ele>
        <time>2019-01-18T09:17:54.000Z</time>
      </trkpt>
      <trkpt lat="43.3377" lon="5.67292">
        <ele>374</ele>
        <time>2019-01-18T09:17:55.000Z</time>
      </trkpt>
      <trkpt lat="43.3377" lon="5.67292">
        <ele>374</ele>
        <time>2019-01-18T09:17:56.000Z</time>
      </trkpt>
      <trkpt lat="43.3377" lon="5.67292">
        <ele>374</ele>
        <time>2019-01-18T09:17:57.000Z</time>
      </trkpt>
      <trkpt lat="43.3377" lon="5.67292">
        <ele>374</ele>
        <time>2019-01-18T09:17:58.000Z</time>
      </trkpt>
      <trkpt lat="43.3377" lon="5.67292">
        <ele>374</ele>
        <time>2019-01-18T09:17:59.000Z</time>
      </trkpt>
      <trkpt lat="43.3377" lon="5.67292">
        <ele>374</ele>
        <time>2019-01-18T09:18:00.000Z</time>
      </trkpt>
      <trkpt lat="43.3377" lon="5.67292">
        <ele>374</ele>
        <time>2019-01-18T09:18:01.000Z</time>
      </trkpt>
      <trkpt lat="43.3377" lon="5.67292">
        <ele>374</ele>
        <time>2019-01-18T09:18:02.000Z</time>
      </trkpt>
      <trkpt lat="43.3377" lon="5.67292">
        <ele>374</ele>
        <time>2019-01-18T09:18:03.000Z</time>
      </trkpt>
      <trkpt lat="43.3377" lon="5.67292">
        <ele>374</ele>
        <time>2019-01-18T09:18:04.000Z</time>
      </trkpt>
      <trkpt lat="43.33769" lon="5.67292">
        <ele>374</ele>
        <time>2019-01-18T09:18:05.000Z</time>
      </trkpt>
      <trkpt lat="43.33769" lon="5.67292">
        <ele>374</ele>
        <time>2019-01-18T09:18:06.000Z</time>
      </trkpt>
      <trkpt lat="43.33769" lon="5.67292">
        <ele>374</ele>
        <time>2019-01-18T09:18:07.000Z</time>
      </trkpt>
      <trkpt lat="43.33769" lon="5.67292">
        <ele>374</ele>
        <time>2019-01-18T09:18:08.000Z</time>
      </trkpt>
      <trkpt lat="43.33769" lon="5.67292">
        <ele>374</ele>
        <time>2019-01-18T09:18:09.000Z</time>
      </trkpt>
      <trkpt lat="43.33769" lon="5.67292">
        <ele>374</ele>
        <time>2019-01-18T09:18:10.000Z</time>
      </trkpt>
      <trkpt lat="43.33769" lon="5.67292">
        <ele>374</ele>
        <time>2019-01-18T09:18:11.000Z</time>
      </trkpt>
      <trkpt lat="43.3377" lon="5.67292">
        <ele>374</ele>
        <time>2019-01-18T09:18:12.000Z</time>
      </trkpt>
      <trkpt lat="43.3377" lon="5.67292">
        <ele>374</ele>
        <time>2019-01-18T09:18:13.000Z</time>
      </trkpt>
      <trkpt lat="43.3377" lon="5.67292">
        <ele>374</ele>
        <time>2019-01-18T09:18:14.000Z</time>
      </trkpt>
      <trkpt lat="43.3377" lon="5.67292">
        <ele>374</ele>
        <time>2019-01-18T09:18:15.000Z</time>
      </trkpt>
      <trkpt lat="43.3377" lon="5.67292">
        <ele>374</ele>
        <time>2019-01-18T09:18:16.000Z</time>
      </trkpt>
      <trkpt lat="43.3377" lon="5.67292">
        <ele>374</ele>
        <time>2019-01-18T09:18:17.000Z</time>
      </trkpt>
      <trkpt lat="43.3377" lon="5.67292">
        <ele>374</ele>
        <time>2019-01-18T09:18:18.000Z</time>
      </trkpt>
      <trkpt lat="43.3377" lon="5.67292">
        <ele>374</ele>
        <time>2019-01-18T09:18:19.000Z</time>
      </trkpt>
      <trkpt lat="43.3377" lon="5.67292">
        <ele>374</ele>
        <time>2019-01-18T09:18:20.000Z</time>
      </trkpt>
      <trkpt lat="43.3377" lon="5.67292">
        <ele>374</ele>
        <time>2019-01-18T09:18:21.000Z</time>
      </trkpt>
      <trkpt lat="43.3377" lon="5.67292">
        <ele>374</ele>
        <time>2019-01-18T09:18:22.000Z</time>
      </trkpt>
      <trkpt lat="43.3377" lon="5.67292">
        <ele>374</ele>
        <time>2019-01-18T09:18:23.000Z</time>
      </trkpt>
      <trkpt lat="43.3377" lon="5.67292">
        <ele>374</ele>
        <time>2019-01-18T09:18:24.000Z</time>
      </trkpt>
      <trkpt lat="43.3377" lon="5.67293">
        <ele>374</ele>
        <time>2019-01-18T09:18:25.000Z</time>
      </trkpt>
      <trkpt lat="43.3377" lon="5.67293">
        <ele>374</ele>
        <time>2019-01-18T09:18:26.000Z</time>
      </trkpt>
      <trkpt lat="43.3377" lon="5.67292">
        <ele>375</ele>
        <time>2019-01-18T09:18:27.000Z</time>
      </trkpt>
      <trkpt lat="43.3377" lon="5.67293">
        <ele>375</ele>
        <time>2019-01-18T09:18:28.000Z</time>
      </trkpt>
      <trkpt lat="43.3377" lon="5.67293">
        <ele>375</ele>
        <time>2019-01-18T09:18:29.000Z</time>
      </trkpt>
      <trkpt lat="43.3377" lon="5.67293">
        <ele>375</ele>
        <time>2019-01-18T09:18:30.000Z</time>
      </trkpt>
      <trkpt lat="43.33769" lon="5.67293">
        <ele>375</ele>
        <time>2019-01-18T09:18:31.000Z</time>
      </trkpt>
      <trkpt lat="43.33769" lon="5.67293">
        <ele>375</ele>
        <time>2019-01-18T09:18:32.000Z</time>
      </trkpt>
      <trkpt lat="43.33769" lon="5.67292">
        <ele>375</ele>
        <time>2019-01-18T09:18:33.000Z</time>
      </trkpt>
      <trkpt lat="43.3377" lon="5.67292">
        <ele>375</ele>
        <time>2019-01-18T09:18:34.000Z</time>
      </trkpt>
      <trkpt lat="43.3377" lon="5.67292">
        <ele>375</ele>
        <time>2019-01-18T09:18:35.000Z</time>
      </trkpt>
      <trkpt lat="43.3377" lon="5.67292">
        <ele>375</ele>
        <time>2019-01-18T09:18:36.000Z</time>
      </trkpt>
      <trkpt lat="43.3377" lon="5.67292">
        <ele>375</ele>
        <time>2019-01-18T09:18:37.000Z</time>
      </trkpt>
      <trkpt lat="43.3377" lon="5.67292">
        <ele>375</ele>
        <time>2019-01-18T09:18:38.000Z</time>
      </trkpt>
      <trkpt lat="43.3377" lon="5.67292">
        <ele>375</ele>
        <time>2019-01-18T09:18:39.000Z</time>
      </trkpt>
      <trkpt lat="43.3377" lon="5.67292">
        <ele>375</ele>
        <time>2019-01-18T09:18:40.000Z</time>
      </trkpt>
      <trkpt lat="43.3377" lon="5.67292">
        <ele>375</ele>
        <time>2019-01-18T09:18:41.000Z</time>
      </trkpt>
      <trkpt lat="43.3377" lon="5.67292">
        <ele>375</ele>
        <time>2019-01-18T09:18:42.000Z</time>
      </trkpt>
      <trkpt lat="43.3377" lon="5.67292">
        <ele>375</ele>
        <time>2019-01-18T09:18:43.000Z</time>
      </trkpt>
      <trkpt lat="43.3377" lon="5.67292">
        <ele>375</ele>
        <time>2019-01-18T09:18:44.000Z</time>
      </trkpt>
      <trkpt lat="43.3377" lon="5.67292">
        <ele>375</ele>
        <time>2019-01-18T09:18:45.000Z</time>
      </trkpt>
      <trkpt lat="43.3377" lon="5.67292">
        <ele>375</ele>
        <time>2019-01-18T09:18:46.000Z</time>
      </trkpt>
      <trkpt lat="43.3377" lon="5.67292">
        <ele>375</ele>
        <time>2019-01-18T09:18:47.000Z</time>
      </trkpt>
      <trkpt lat="43.3377" lon="5.67292">
        <ele>375</ele>
        <time>2019-01-18T09:18:48.000Z</time>
      </trkpt>
      <trkpt lat="43.3377" lon="5.67292">
        <ele>375</ele>
        <time>2019-01-18T09:18:49.000Z</time>
      </trkpt>
      <trkpt lat="43.3377" lon="5.67292">
        <ele>375</ele>
        <time>2019-01-18T09:18:50.000Z</time>
      </trkpt>
      <trkpt lat="43.3377" lon="5.67292">
        <ele>375</ele>
        <time>2019-01-18T09:18:51.000Z</time>
      </trkpt>
      <trkpt lat="43.3377" lon="5.67292">
        <ele>375</ele>
        <time>2019-01-18T09:18:52.000Z</time>
      </trkpt>
      <trkpt lat="43.3377" lon="5.67292">
        <ele>375</ele>
        <time>2019-01-18T09:18:53.000Z</time>
      </trkpt>
      <trkpt lat="43.3377" lon="5.67292">
        <ele>375</ele>
        <time>2019-01-18T09:18:54.000Z</time>
      </trkpt>
      <trkpt lat="43.3377" lon="5.67292">
        <ele>375</ele>
        <time>2019-01-18T09:18:55.000Z</time>
      </trkpt>
      <trkpt lat="43.3377" lon="5.67292">
        <ele>375</ele>
        <time>2019-01-18T09:18:56.000Z</time>
      </trkpt>
      <trkpt lat="43.3377" lon="5.67293">
        <ele>375</ele>
        <time>2019-01-18T09:18:57.000Z</time>
      </trkpt>
      <trkpt lat="43.3377" lon="5.67293">
        <ele>375</ele>
        <time>2019-01-18T09:18:58.000Z</time>
      </trkpt>
      <trkpt lat="43.3377" lon="5.67293">
        <ele>375</ele>
        <time>2019-01-18T09:18:59.000Z</time>
      </trkpt>
      <trkpt lat="43.3377" lon="5.67293">
        <ele>375</ele>
        <time>2019-01-18T09:19:00.000Z</time>
      </trkpt>
      <trkpt lat="43.3377" lon="5.67293">
        <ele>375</ele>
        <time>2019-01-18T09:19:01.000Z</time>
      </trkpt>
      <trkpt lat="43.3377" lon="5.67293">
        <ele>375</ele>
        <time>2019-01-18T09:19:02.000Z</time>
      </trkpt>
      <trkpt lat="43.3377" lon="5.67293">
        <ele>375</ele>
        <time>2019-01-18T09:19:03.000Z</time>
      </trkpt>
      <trkpt lat="43.3377" lon="5.67293">
        <ele>375</ele>
        <time>2019-01-18T09:19:04.000Z</time>
      </trkpt>
      <trkpt lat="43.3377" lon="5.67293">
        <ele>375</ele>
        <time>2019-01-18T09:19:05.000Z</time>
      </trkpt>
      <trkpt lat="43.3377" lon="5.67293">
        <ele>375</ele>
        <time>2019-01-18T09:19:06.000Z</time>
      </trkpt>
      <trkpt lat="43.33771" lon="5.67293">
        <ele>375</ele>
        <time>2019-01-18T09:19:07.000Z</time>
      </trkpt>
      <trkpt lat="43.33771" lon="5.67293">
        <ele>375</ele>
        <time>2019-01-18T09:19:08.000Z</time>
      </trkpt>
      <trkpt lat="43.33771" lon="5.67293">
        <ele>375</ele>
        <time>2019-01-18T09:19:09.000Z</time>
      </trkpt>
      <trkpt lat="43.33771" lon="5.67293">
        <ele>375</ele>
        <time>2019-01-18T09:19:10.000Z</time>
      </trkpt>
      <trkpt lat="43.33771" lon="5.67293">
        <ele>375</ele>
        <time>2019-01-18T09:19:11.000Z</time>
      </trkpt>
      <trkpt lat="43.33771" lon="5.67293">
        <ele>375</ele>
        <time>2019-01-18T09:19:12.000Z</time>
      </trkpt>
      <trkpt lat="43.33771" lon="5.67292">
        <ele>375</ele>
        <time>2019-01-18T09:19:13.000Z</time>
      </trkpt>
      <trkpt lat="43.33771" lon="5.67292">
        <ele>376</ele>
        <time>2019-01-18T09:19:14.000Z</time>
      </trkpt>
      <trkpt lat="43.33771" lon="5.67292">
        <ele>376</ele>
        <time>2019-01-18T09:19:15.000Z</time>
      </trkpt>
      <trkpt lat="43.33771" lon="5.67292">
        <ele>376</ele>
        <time>2019-01-18T09:19:16.000Z</time>
      </trkpt>
      <trkpt lat="43.33771" lon="5.67292">
        <ele>376</ele>
        <time>2019-01-18T09:19:17.000Z</time>
      </trkpt>
      <trkpt lat="43.33771" lon="5.67292">
        <ele>376</ele>
        <time>2019-01-18T09:19:18.000Z</time>
      </trkpt>
      <trkpt lat="43.33771" lon="5.67292">
        <ele>376</ele>
        <time>2019-01-18T09:19:19.000Z</time>
      </trkpt>
      <trkpt lat="43.33771" lon="5.67292">
        <ele>376</ele>
        <time>2019-01-18T09:19:20.000Z</time>
      </trkpt>
      <trkpt lat="43.33771" lon="5.67292">
        <ele>376</ele>
        <time>2019-01-18T09:19:21.000Z</time>
      </trkpt>
      <trkpt lat="43.33771" lon="5.67292">
        <ele>376</ele>
        <time>2019-01-18T09:19:22.000Z</time>
      </trkpt>
      <trkpt lat="43.33771" lon="5.67292">
        <ele>376</ele>
        <time>2019-01-18T09:19:23.000Z</time>
      </trkpt>
      <trkpt lat="43.33771" lon="5.67292">
        <ele>376</ele>
        <time>2019-01-18T09:19:24.000Z</time>
      </trkpt>
      <trkpt lat="43.33771" lon="5.67292">
        <ele>376</ele>
        <time>2019-01-18T09:19:25.000Z</time>
      </trkpt>
      <trkpt lat="43.33771" lon="5.67292">
        <ele>376</ele>
        <time>2019-01-18T09:19:26.000Z</time>
      </trkpt>
      <trkpt lat="43.33771" lon="5.67292">
        <ele>376</ele>
        <time>2019-01-18T09:19:27.000Z</time>
      </trkpt>
      <trkpt lat="43.33771" lon="5.67292">
        <ele>376</ele>
        <time>2019-01-18T09:19:28.000Z</time>
      </trkpt>
      <trkpt lat="43.33771" lon="5.67292">
        <ele>376</ele>
        <time>2019-01-18T09:19:29.000Z</time>
      </trkpt>
      <trkpt lat="43.33771" lon="5.67291">
        <ele>376</ele>
        <time>2019-01-18T09:19:30.000Z</time>
      </trkpt>
      <trkpt lat="43.33771" lon="5.67291">
        <ele>376</ele>
        <time>2019-01-18T09:19:31.000Z</time>
      </trkpt>
      <trkpt lat="43.33771" lon="5.67291">
        <ele>376</ele>
        <time>2019-01-18T09:19:32.000Z</time>
      </trkpt>
      <trkpt lat="43.33771" lon="5.67292">
        <ele>376</ele>
        <time>2019-01-18T09:19:33.000Z</time>
      </trkpt>
      <trkpt lat="43.33771" lon="5.67292">
        <ele>377</ele>
        <time>2019-01-18T09:19:34.000Z</time>
      </trkpt>
      <trkpt lat="43.33771" lon="5.67292">
        <ele>377</ele>
        <time>2019-01-18T09:19:35.000Z</time>
      </trkpt>
      <trkpt lat="43.3377" lon="5.67292">
        <ele>377</ele>
        <time>2019-01-18T09:19:36.000Z</time>
      </trkpt>
      <trkpt lat="43.3377" lon="5.67293">
        <ele>377</ele>
        <time>2019-01-18T09:19:37.000Z</time>
      </trkpt>
      <trkpt lat="43.3377" lon="5.67294">
        <ele>377</ele>
        <time>2019-01-18T09:19:38.000Z</time>
      </trkpt>
      <trkpt lat="43.3377" lon="5.67294">
        <ele>377</ele>
        <time>2019-01-18T09:19:39.000Z</time>
      </trkpt>
      <trkpt lat="43.3377" lon="5.67295">
        <ele>377</ele>
        <time>2019-01-18T09:19:40.000Z</time>
      </trkpt>
      <trkpt lat="43.3377" lon="5.67296">
        <ele>377</ele>
        <time>2019-01-18T09:19:41.000Z</time>
      </trkpt>
      <trkpt lat="43.3377" lon="5.67296">
        <ele>377</ele>
        <time>2019-01-18T09:19:42.000Z</time>
      </trkpt>
      <trkpt lat="43.3377" lon="5.67297">
        <ele>377</ele>
        <time>2019-01-18T09:19:43.000Z</time>
      </trkpt>
      <trkpt lat="43.3377" lon="5.67297">
        <ele>378</ele>
        <time>2019-01-18T09:19:44.000Z</time>
      </trkpt>
      <trkpt lat="43.3377" lon="5.67297">
        <ele>378</ele>
        <time>2019-01-18T09:19:45.000Z</time>
      </trkpt>
      <trkpt lat="43.3377" lon="5.67297">
        <ele>378</ele>
        <time>2019-01-18T09:19:46.000Z</time>
      </trkpt>
      <trkpt lat="43.3377" lon="5.67298">
        <ele>378</ele>
        <time>2019-01-18T09:19:47.000Z</time>
      </trkpt>
      <trkpt lat="43.33769" lon="5.67298">
        <ele>378</ele>
        <time>2019-01-18T09:19:48.000Z</time>
      </trkpt>
      <trkpt lat="43.33769" lon="5.67299">
        <ele>378</ele>
        <time>2019-01-18T09:19:49.000Z</time>
      </trkpt>
      <trkpt lat="43.33769" lon="5.67299">
        <ele>378</ele>
        <time>2019-01-18T09:19:50.000Z</time>
      </trkpt>
      <trkpt lat="43.3377" lon="5.673">
        <ele>378</ele>
        <time>2019-01-18T09:19:51.000Z</time>
      </trkpt>
      <trkpt lat="43.3377" lon="5.673">
        <ele>378</ele>
        <time>2019-01-18T09:19:52.000Z</time>
      </trkpt>
      <trkpt lat="43.3377" lon="5.67301">
        <ele>378</ele>
        <time>2019-01-18T09:19:53.000Z</time>
      </trkpt>
      <trkpt lat="43.3377" lon="5.67301">
        <ele>379</ele>
        <time>2019-01-18T09:19:54.000Z</time>
      </trkpt>
      <trkpt lat="43.3377" lon="5.67301">
        <ele>379</ele>
        <time>2019-01-18T09:19:55.000Z</time>
      </trkpt>
      <trkpt lat="43.3377" lon="5.67302">
        <ele>379</ele>
        <time>2019-01-18T09:19:56.000Z</time>
      </trkpt>
      <trkpt lat="43.3377" lon="5.67302">
        <ele>379</ele>
        <time>2019-01-18T09:19:57.000Z</time>
      </trkpt>
      <trkpt lat="43.3377" lon="5.67303">
        <ele>379</ele>
        <time>2019-01-18T09:19:58.000Z</time>
      </trkpt>
      <trkpt lat="43.3377" lon="5.67303">
        <ele>379</ele>
        <time>2019-01-18T09:19:59.000Z</time>
      </trkpt>
      <trkpt lat="43.3377" lon="5.67303">
        <ele>379</ele>
        <time>2019-01-18T09:20:00.000Z</time>
      </trkpt>
      <trkpt lat="43.33771" lon="5.67304">
        <ele>379</ele>
        <time>2019-01-18T09:20:01.000Z</time>
      </trkpt>
      <trkpt lat="43.33771" lon="5.67304">
        <ele>379</ele>
        <time>2019-01-18T09:20:02.000Z</time>
      </trkpt>
      <trkpt lat="43.33771" lon="5.67305">
        <ele>379</ele>
        <time>2019-01-18T09:20:03.000Z</time>
      </trkpt>
      <trkpt lat="43.33771" lon="5.67306">
        <ele>379</ele>
        <time>2019-01-18T09:20:04.000Z</time>
      </trkpt>
      <trkpt lat="43.33771" lon="5.67306">
        <ele>379</ele>
        <time>2019-01-18T09:20:05.000Z</time>
      </trkpt>
      <trkpt lat="43.33772" lon="5.67306">
        <ele>379</ele>
        <time>2019-01-18T09:20:06.000Z</time>
      </trkpt>
      <trkpt lat="43.33772" lon="5.67307">
        <ele>379</ele>
        <time>2019-01-18T09:20:07.000Z</time>
      </trkpt>
      <trkpt lat="43.33772" lon="5.67308">
        <ele>380</ele>
        <time>2019-01-18T09:20:08.000Z</time>
      </trkpt>
      <trkpt lat="43.33772" lon="5.67309">
        <ele>380</ele>
        <time>2019-01-18T09:20:09.000Z</time>
      </trkpt>
      <trkpt lat="43.33772" lon="5.67309">
        <ele>380</ele>
        <time>2019-01-18T09:20:10.000Z</time>
      </trkpt>
      <trkpt lat="43.33772" lon="5.67309">
        <ele>380</ele>
        <time>2019-01-18T09:20:11.000Z</time>
      </trkpt>
      <trkpt lat="43.33772" lon="5.6731">
        <ele>380</ele>
        <time>2019-01-18T09:20:12.000Z</time>
      </trkpt>
      <trkpt lat="43.33772" lon="5.67311">
        <ele>380</ele>
        <time>2019-01-18T09:20:13.000Z</time>
      </trkpt>
      <trkpt lat="43.33772" lon="5.67312">
        <ele>380</ele>
        <time>2019-01-18T09:20:14.000Z</time>
      </trkpt>
      <trkpt lat="43.33772" lon="5.67314">
        <ele>380</ele>
        <time>2019-01-18T09:20:15.000Z</time>
      </trkpt>
      <trkpt lat="43.33772" lon="5.67314">
        <ele>380</ele>
        <time>2019-01-18T09:20:16.000Z</time>
      </trkpt>
      <trkpt lat="43.33771" lon="5.67314">
        <ele>381</ele>
        <time>2019-01-18T09:20:17.000Z</time>
      </trkpt>
      <trkpt lat="43.33771" lon="5.67314">
        <ele>381</ele>
        <time>2019-01-18T09:20:18.000Z</time>
      </trkpt>
      <trkpt lat="43.33771" lon="5.67315">
        <ele>381</ele>
        <time>2019-01-18T09:20:19.000Z</time>
      </trkpt>
      <trkpt lat="43.3377" lon="5.67316">
        <ele>381</ele>
        <time>2019-01-18T09:20:20.000Z</time>
      </trkpt>
      <trkpt lat="43.3377" lon="5.67317">
        <ele>381</ele>
        <time>2019-01-18T09:20:21.000Z</time>
      </trkpt>
      <trkpt lat="43.3377" lon="5.67317">
        <ele>381</ele>
        <time>2019-01-18T09:20:22.000Z</time>
      </trkpt>
      <trkpt lat="43.33769" lon="5.67318">
        <ele>381</ele>
        <time>2019-01-18T09:20:23.000Z</time>
      </trkpt>
      <trkpt lat="43.33769" lon="5.67318">
        <ele>381</ele>
        <time>2019-01-18T09:20:24.000Z</time>
      </trkpt>
      <trkpt lat="43.33769" lon="5.67319">
        <ele>381</ele>
        <time>2019-01-18T09:20:25.000Z</time>
      </trkpt>
      <trkpt lat="43.33768" lon="5.6732">
        <ele>381</ele>
        <time>2019-01-18T09:20:26.000Z</time>
      </trkpt>
      <trkpt lat="43.33768" lon="5.6732">
        <ele>381</ele>
        <time>2019-01-18T09:20:27.000Z</time>
      </trkpt>
      <trkpt lat="43.33768" lon="5.67321">
        <ele>381</ele>
        <time>2019-01-18T09:20:28.000Z</time>
      </trkpt>
      <trkpt lat="43.33768" lon="5.67321">
        <ele>381</ele>
        <time>2019-01-18T09:20:29.000Z</time>
      </trkpt>
      <trkpt lat="43.33768" lon="5.67321">
        <ele>381</ele>
        <time>2019-01-18T09:20:30.000Z</time>
      </trkpt>
      <trkpt lat="43.33767" lon="5.67321">
        <ele>381</ele>
        <time>2019-01-18T09:20:31.000Z</time>
      </trkpt>
      <trkpt lat="43.33767" lon="5.67321">
        <ele>381</ele>
        <time>2019-01-18T09:20:32.000Z</time>
      </trkpt>
      <trkpt lat="43.33766" lon="5.67322">
        <ele>381</ele>
        <time>2019-01-18T09:20:33.000Z</time>
      </trkpt>
      <trkpt lat="43.33766" lon="5.67323">
        <ele>381</ele>
        <time>2019-01-18T09:20:34.000Z</time>
      </trkpt>
      <trkpt lat="43.33765" lon="5.67324">
        <ele>381</ele>
        <time>2019-01-18T09:20:35.000Z</time>
      </trkpt>
      <trkpt lat="43.33765" lon="5.67325">
        <ele>381</ele>
        <time>2019-01-18T09:20:36.000Z</time>
      </trkpt>
      <trkpt lat="43.33764" lon="5.67325">
        <ele>381</ele>
        <time>2019-01-18T09:20:37.000Z</time>
      </trkpt>
      <trkpt lat="43.33764" lon="5.67326">
        <ele>381</ele>
        <time>2019-01-18T09:20:38.000Z</time>
      </trkpt>
      <trkpt lat="43.33764" lon="5.67327">
        <ele>382</ele>
        <time>2019-01-18T09:20:39.000Z</time>
      </trkpt>
      <trkpt lat="43.33764" lon="5.67327">
        <ele>382</ele>
        <time>2019-01-18T09:20:40.000Z</time>
      </trkpt>
      <trkpt lat="43.33764" lon="5.67327">
        <ele>382</ele>
        <time>2019-01-18T09:20:41.000Z</time>
      </trkpt>
      <trkpt lat="43.33764" lon="5.67327">
        <ele>382</ele>
        <time>2019-01-18T09:20:42.000Z</time>
      </trkpt>
      <trkpt lat="43.33764" lon="5.67327">
        <ele>382</ele>
        <time>2019-01-18T09:20:43.000Z</time>
      </trkpt>
      <trkpt lat="43.33764" lon="5.67327">
        <ele>382</ele>
        <time>2019-01-18T09:20:44.000Z</time>
      </trkpt>
      <trkpt lat="43.33764" lon="5.67327">
        <ele>382</ele>
        <time>2019-01-18T09:20:45.000Z</time>
      </trkpt>
      <trkpt lat="43.33764" lon="5.67327">
        <ele>382</ele>
        <time>2019-01-18T09:20:46.000Z</time>
      </trkpt>
      <trkpt lat="43.33763" lon="5.67327">
        <ele>382</ele>
        <time>2019-01-18T09:20:47.000Z</time>
      </trkpt>
      <trkpt lat="43.33764" lon="5.67327">
        <ele>382</ele>
        <time>2019-01-18T09:20:48.000Z</time>
      </trkpt>
      <trkpt lat="43.33764" lon="5.67328">
        <ele>382</ele>
        <time>2019-01-18T09:20:49.000Z</time>
      </trkpt>
      <trkpt lat="43.33764" lon="5.67329">
        <ele>382</ele>
        <time>2019-01-18T09:20:50.000Z</time>
      </trkpt>
      <trkpt lat="43.33764" lon="5.6733">
        <ele>382</ele>
        <time>2019-01-18T09:20:51.000Z</time>
      </trkpt>
      <trkpt lat="43.33764" lon="5.67331">
        <ele>382</ele>
        <time>2019-01-18T09:20:52.000Z</time>
      </trkpt>
      <trkpt lat="43.33764" lon="5.67332">
        <ele>383</ele>
        <time>2019-01-18T09:20:53.000Z</time>
      </trkpt>
      <trkpt lat="43.33764" lon="5.67332">
        <ele>383</ele>
        <time>2019-01-18T09:20:54.000Z</time>
      </trkpt>
      <trkpt lat="43.33764" lon="5.67332">
        <ele>383</ele>
        <time>2019-01-18T09:20:55.000Z</time>
      </trkpt>
      <trkpt lat="43.33764" lon="5.67333">
        <ele>383</ele>
        <time>2019-01-18T09:20:56.000Z</time>
      </trkpt>
      <trkpt lat="43.33763" lon="5.67335">
        <ele>383</ele>
        <time>2019-01-18T09:20:57.000Z</time>
      </trkpt>
      <trkpt lat="43.33763" lon="5.67336">
        <ele>383</ele>
        <time>2019-01-18T09:20:58.000Z</time>
      </trkpt>
      <trkpt lat="43.33762" lon="5.67337">
        <ele>383</ele>
        <time>2019-01-18T09:20:59.000Z</time>
      </trkpt>
      <trkpt lat="43.33762" lon="5.67338">
        <ele>383</ele>
        <time>2019-01-18T09:21:00.000Z</time>
      </trkpt>
      <trkpt lat="43.33761" lon="5.67339">
        <ele>383</ele>
        <time>2019-01-18T09:21:01.000Z</time>
      </trkpt>
      <trkpt lat="43.33761" lon="5.6734">
        <ele>383</ele>
        <time>2019-01-18T09:21:02.000Z</time>
      </trkpt>
      <trkpt lat="43.33761" lon="5.67341">
        <ele>384</ele>
        <time>2019-01-18T09:21:03.000Z</time>
      </trkpt>
      <trkpt lat="43.3376" lon="5.67342">
        <ele>384</ele>
        <time>2019-01-18T09:21:04.000Z</time>
      </trkpt>
      <trkpt lat="43.3376" lon="5.67342">
        <ele>384</ele>
        <time>2019-01-18T09:21:05.000Z</time>
      </trkpt>
      <trkpt lat="43.3376" lon="5.67343">
        <ele>384</ele>
        <time>2019-01-18T09:21:06.000Z</time>
      </trkpt>
      <trkpt lat="43.3376" lon="5.67343">
        <ele>384</ele>
        <time>2019-01-18T09:21:07.000Z</time>
      </trkpt>
      <trkpt lat="43.3376" lon="5.67344">
        <ele>384</ele>
        <time>2019-01-18T09:21:08.000Z</time>
      </trkpt>
      <trkpt lat="43.3376" lon="5.67345">
        <ele>384</ele>
        <time>2019-01-18T09:21:09.000Z</time>
      </trkpt>
      <trkpt lat="43.3376" lon="5.67346">
        <ele>384</ele>
        <time>2019-01-18T09:21:10.000Z</time>
      </trkpt>
      <trkpt lat="43.33759" lon="5.67347">
        <ele>384</ele>
        <time>2019-01-18T09:21:11.000Z</time>
      </trkpt>
      <trkpt lat="43.33759" lon="5.67348">
        <ele>384</ele>
        <time>2019-01-18T09:21:12.000Z</time>
      </trkpt>
      <trkpt lat="43.33759" lon="5.67349">
        <ele>384</ele>
        <time>2019-01-18T09:21:13.000Z</time>
      </trkpt>
      <trkpt lat="43.33759" lon="5.6735">
        <ele>384</ele>
        <time>2019-01-18T09:21:14.000Z</time>
      </trkpt>
      <trkpt lat="43.33758" lon="5.67351">
        <ele>384</ele>
        <time>2019-01-18T09:21:15.000Z</time>
      </trkpt>
      <trkpt lat="43.33758" lon="5.67352">
        <ele>384</ele>
        <time>2019-01-18T09:21:16.000Z</time>
      </trkpt>
      <trkpt lat="43.33758" lon="5.67353">
        <ele>384</ele>
        <time>2019-01-18T09:21:17.000Z</time>
      </trkpt>
      <trkpt lat="43.33758" lon="5.67354">
        <ele>384</ele>
        <time>2019-01-18T09:21:18.000Z</time>
      </trkpt>
      <trkpt lat="43.33758" lon="5.67355">
        <ele>385</ele>
        <time>2019-01-18T09:21:19.000Z</time>
      </trkpt>
      <trkpt lat="43.33758" lon="5.67356">
        <ele>385</ele>
        <time>2019-01-18T09:21:20.000Z</time>
      </trkpt>
      <trkpt lat="43.33758" lon="5.67357">
        <ele>385</ele>
        <time>2019-01-18T09:21:21.000Z</time>
      </trkpt>
      <trkpt lat="43.33758" lon="5.67358">
        <ele>385</ele>
        <time>2019-01-18T09:21:22.000Z</time>
      </trkpt>
      <trkpt lat="43.33758" lon="5.67358">
        <ele>385</ele>
        <time>2019-01-18T09:21:23.000Z</time>
      </trkpt>
      <trkpt lat="43.33758" lon="5.67359">
        <ele>386</ele>
        <time>2019-01-18T09:21:24.000Z</time>
      </trkpt>
      <trkpt lat="43.33758" lon="5.6736">
        <ele>386</ele>
        <time>2019-01-18T09:21:25.000Z</time>
      </trkpt>
      <trkpt lat="43.33758" lon="5.67361">
        <ele>386</ele>
        <time>2019-01-18T09:21:26.000Z</time>
      </trkpt>
      <trkpt lat="43.33758" lon="5.67362">
        <ele>386</ele>
        <time>2019-01-18T09:21:27.000Z</time>
      </trkpt>
      <trkpt lat="43.33758" lon="5.67363">
        <ele>386</ele>
        <time>2019-01-18T09:21:28.000Z</time>
      </trkpt>
      <trkpt lat="43.33758" lon="5.67364">
        <ele>387</ele>
        <time>2019-01-18T09:21:29.000Z</time>
      </trkpt>
      <trkpt lat="43.33758" lon="5.67364">
        <ele>387</ele>
        <time>2019-01-18T09:21:30.000Z</time>
      </trkpt>
      <trkpt lat="43.33758" lon="5.67365">
        <ele>387</ele>
        <time>2019-01-18T09:21:31.000Z</time>
      </trkpt>
      <trkpt lat="43.33757" lon="5.67366">
        <ele>387</ele>
        <time>2019-01-18T09:21:32.000Z</time>
      </trkpt>
      <trkpt lat="43.33757" lon="5.67366">
        <ele>387</ele>
        <time>2019-01-18T09:21:33.000Z</time>
      </trkpt>
      <trkpt lat="43.33757" lon="5.67367">
        <ele>387</ele>
        <time>2019-01-18T09:21:34.000Z</time>
      </trkpt>
      <trkpt lat="43.33757" lon="5.67368">
        <ele>387</ele>
        <time>2019-01-18T09:21:35.000Z</time>
      </trkpt>
      <trkpt lat="43.33757" lon="5.67369">
        <ele>387</ele>
        <time>2019-01-18T09:21:36.000Z</time>
      </trkpt>
      <trkpt lat="43.33757" lon="5.6737">
        <ele>387</ele>
        <time>2019-01-18T09:21:37.000Z</time>
      </trkpt>
      <trkpt lat="43.33757" lon="5.67371">
        <ele>387</ele>
        <time>2019-01-18T09:21:38.000Z</time>
      </trkpt>
      <trkpt lat="43.33756" lon="5.67372">
        <ele>387</ele>
        <time>2019-01-18T09:21:39.000Z</time>
      </trkpt>
      <trkpt lat="43.33756" lon="5.67373">
        <ele>387</ele>
        <time>2019-01-18T09:21:40.000Z</time>
      </trkpt>
      <trkpt lat="43.33756" lon="5.67374">
        <ele>387</ele>
        <time>2019-01-18T09:21:41.000Z</time>
      </trkpt>
      <trkpt lat="43.33756" lon="5.67375">
        <ele>387</ele>
        <time>2019-01-18T09:21:42.000Z</time>
      </trkpt>
      <trkpt lat="43.33756" lon="5.67375">
        <ele>387</ele>
        <time>2019-01-18T09:21:43.000Z</time>
      </trkpt>
      <trkpt lat="43.33756" lon="5.67375">
        <ele>387</ele>
        <time>2019-01-18T09:21:44.000Z</time>
      </trkpt>
      <trkpt lat="43.33756" lon="5.67375">
        <ele>387</ele>
        <time>2019-01-18T09:21:45.000Z</time>
      </trkpt>
      <trkpt lat="43.33756" lon="5.67375">
        <ele>386</ele>
        <time>2019-01-18T09:21:46.000Z</time>
      </trkpt>
      <trkpt lat="43.33756" lon="5.67376">
        <ele>386</ele>
        <time>2019-01-18T09:21:47.000Z</time>
      </trkpt>
      <trkpt lat="43.33756" lon="5.67377">
        <ele>386</ele>
        <time>2019-01-18T09:21:48.000Z</time>
      </trkpt>
      <trkpt lat="43.33755" lon="5.67378">
        <ele>386</ele>
        <time>2019-01-18T09:21:49.000Z</time>
      </trkpt>
      <trkpt lat="43.33755" lon="5.67379">
        <ele>386</ele>
        <time>2019-01-18T09:21:50.000Z</time>
      </trkpt>
      <trkpt lat="43.33754" lon="5.6738">
        <ele>386</ele>
        <time>2019-01-18T09:21:51.000Z</time>
      </trkpt>
      <trkpt lat="43.33754" lon="5.67381">
        <ele>386</ele>
        <time>2019-01-18T09:21:52.000Z</time>
      </trkpt>
      <trkpt lat="43.33753" lon="5.67382">
        <ele>386</ele>
        <time>2019-01-18T09:21:53.000Z</time>
      </trkpt>
      <trkpt lat="43.33753" lon="5.67383">
        <ele>386</ele>
        <time>2019-01-18T09:21:54.000Z</time>
      </trkpt>
      <trkpt lat="43.33753" lon="5.67385">
        <ele>386</ele>
        <time>2019-01-18T09:21:55.000Z</time>
      </trkpt>
      <trkpt lat="43.33753" lon="5.67386">
        <ele>386</ele>
        <time>2019-01-18T09:21:56.000Z</time>
      </trkpt>
      <trkpt lat="43.33752" lon="5.67387">
        <ele>386</ele>
        <time>2019-01-18T09:21:57.000Z</time>
      </trkpt>
      <trkpt lat="43.33752" lon="5.67388">
        <ele>386</ele>
        <time>2019-01-18T09:21:58.000Z</time>
      </trkpt>
      <trkpt lat="43.33752" lon="5.67388">
        <ele>386</ele>
        <time>2019-01-18T09:21:59.000Z</time>
      </trkpt>
      <trkpt lat="43.33752" lon="5.67389">
        <ele>386</ele>
        <time>2019-01-18T09:22:00.000Z</time>
      </trkpt>
      <trkpt lat="43.33752" lon="5.67389">
        <ele>386</ele>
        <time>2019-01-18T09:22:01.000Z</time>
      </trkpt>
      <trkpt lat="43.33752" lon="5.6739">
        <ele>386</ele>
        <time>2019-01-18T09:22:02.000Z</time>
      </trkpt>
      <trkpt lat="43.33752" lon="5.6739">
        <ele>386</ele>
        <time>2019-01-18T09:22:03.000Z</time>
      </trkpt>
      <trkpt lat="43.33752" lon="5.67391">
        <ele>386</ele>
        <time>2019-01-18T09:22:04.000Z</time>
      </trkpt>
      <trkpt lat="43.33752" lon="5.67391">
        <ele>386</ele>
        <time>2019-01-18T09:22:05.000Z</time>
      </trkpt>
      <trkpt lat="43.33751" lon="5.67392">
        <ele>387</ele>
        <time>2019-01-18T09:22:06.000Z</time>
      </trkpt>
      <trkpt lat="43.33751" lon="5.67392">
        <ele>387</ele>
        <time>2019-01-18T09:22:07.000Z</time>
      </trkpt>
      <trkpt lat="43.33751" lon="5.67393">
        <ele>387</ele>
        <time>2019-01-18T09:22:08.000Z</time>
      </trkpt>
      <trkpt lat="43.33751" lon="5.67393">
        <ele>387</ele>
        <time>2019-01-18T09:22:09.000Z</time>
      </trkpt>
      <trkpt lat="43.3375" lon="5.67394">
        <ele>387</ele>
        <time>2019-01-18T09:22:10.000Z</time>
      </trkpt>
      <trkpt lat="43.3375" lon="5.67395">
        <ele>387</ele>
        <time>2019-01-18T09:22:11.000Z</time>
      </trkpt>
      <trkpt lat="43.3375" lon="5.67395">
        <ele>387</ele>
        <time>2019-01-18T09:22:12.000Z</time>
      </trkpt>
      <trkpt lat="43.3375" lon="5.67396">
        <ele>387</ele>
        <time>2019-01-18T09:22:13.000Z</time>
      </trkpt>
      <trkpt lat="43.33749" lon="5.67397">
        <ele>388</ele>
        <time>2019-01-18T09:22:14.000Z</time>
      </trkpt>
      <trkpt lat="43.33749" lon="5.67397">
        <ele>388</ele>
        <time>2019-01-18T09:22:15.000Z</time>
      </trkpt>
      <trkpt lat="43.33749" lon="5.67398">
        <ele>388</ele>
        <time>2019-01-18T09:22:16.000Z</time>
      </trkpt>
      <trkpt lat="43.33748" lon="5.67398">
        <ele>388</ele>
        <time>2019-01-18T09:22:17.000Z</time>
      </trkpt>
      <trkpt lat="43.33748" lon="5.67397">
        <ele>388</ele>
        <time>2019-01-18T09:22:18.000Z</time>
      </trkpt>
      <trkpt lat="43.33747" lon="5.67398">
        <ele>388</ele>
        <time>2019-01-18T09:22:19.000Z</time>
      </trkpt>
      <trkpt lat="43.33747" lon="5.67398">
        <ele>388</ele>
        <time>2019-01-18T09:22:20.000Z</time>
      </trkpt>
      <trkpt lat="43.33746" lon="5.67399">
        <ele>388</ele>
        <time>2019-01-18T09:22:21.000Z</time>
      </trkpt>
      <trkpt lat="43.33745" lon="5.674">
        <ele>388</ele>
        <time>2019-01-18T09:22:22.000Z</time>
      </trkpt>
      <trkpt lat="43.33745" lon="5.67401">
        <ele>388</ele>
        <time>2019-01-18T09:22:23.000Z</time>
      </trkpt>
      <trkpt lat="43.33745" lon="5.67402">
        <ele>388</ele>
        <time>2019-01-18T09:22:24.000Z</time>
      </trkpt>
      <trkpt lat="43.33745" lon="5.67403">
        <ele>388</ele>
        <time>2019-01-18T09:22:25.000Z</time>
      </trkpt>
      <trkpt lat="43.33744" lon="5.67403">
        <ele>388</ele>
        <time>2019-01-18T09:22:26.000Z</time>
      </trkpt>
      <trkpt lat="43.33744" lon="5.67403">
        <ele>389</ele>
        <time>2019-01-18T09:22:27.000Z</time>
      </trkpt>
      <trkpt lat="43.33743" lon="5.67403">
        <ele>389</ele>
        <time>2019-01-18T09:22:28.000Z</time>
      </trkpt>
      <trkpt lat="43.33743" lon="5.67403">
        <ele>389</ele>
        <time>2019-01-18T09:22:29.000Z</time>
      </trkpt>
      <trkpt lat="43.33742" lon="5.67403">
        <ele>389</ele>
        <time>2019-01-18T09:22:30.000Z</time>
      </trkpt>
      <trkpt lat="43.33742" lon="5.67404">
        <ele>389</ele>
        <time>2019-01-18T09:22:31.000Z</time>
      </trkpt>
      <trkpt lat="43.33741" lon="5.67403">
        <ele>389</ele>
        <time>2019-01-18T09:22:32.000Z</time>
      </trkpt>
      <trkpt lat="43.33741" lon="5.67403">
        <ele>389</ele>
        <time>2019-01-18T09:22:33.000Z</time>
      </trkpt>
      <trkpt lat="43.3374" lon="5.67403">
        <ele>389</ele>
        <time>2019-01-18T09:22:34.000Z</time>
      </trkpt>
      <trkpt lat="43.3374" lon="5.67403">
        <ele>389</ele>
        <time>2019-01-18T09:22:35.000Z</time>
      </trkpt>
      <trkpt lat="43.33739" lon="5.67403">
        <ele>389</ele>
        <time>2019-01-18T09:22:36.000Z</time>
      </trkpt>
      <trkpt lat="43.33739" lon="5.67403">
        <ele>389</ele>
        <time>2019-01-18T09:22:37.000Z</time>
      </trkpt>
      <trkpt lat="43.33739" lon="5.67403">
        <ele>389</ele>
        <time>2019-01-18T09:22:38.000Z</time>
      </trkpt>
      <trkpt lat="43.33738" lon="5.67404">
        <ele>389</ele>
        <time>2019-01-18T09:22:39.000Z</time>
      </trkpt>
      <trkpt lat="43.33737" lon="5.67404">
        <ele>389</ele>
        <time>2019-01-18T09:22:40.000Z</time>
      </trkpt>
      <trkpt lat="43.33736" lon="5.67404">
        <ele>389</ele>
        <time>2019-01-18T09:22:41.000Z</time>
      </trkpt>
      <trkpt lat="43.33736" lon="5.67404">
        <ele>389</ele>
        <time>2019-01-18T09:22:42.000Z</time>
      </trkpt>
      <trkpt lat="43.33736" lon="5.67404">
        <ele>389</ele>
        <time>2019-01-18T09:22:43.000Z</time>
      </trkpt>
      <trkpt lat="43.33735" lon="5.67404">
        <ele>389</ele>
        <time>2019-01-18T09:22:44.000Z</time>
      </trkpt>
      <trkpt lat="43.33735" lon="5.67404">
        <ele>389</ele>
        <time>2019-01-18T09:22:45.000Z</time>
      </trkpt>
      <trkpt lat="43.33734" lon="5.67405">
        <ele>389</ele>
        <time>2019-01-18T09:22:46.000Z</time>
      </trkpt>
      <trkpt lat="43.33734" lon="5.67405">
        <ele>390</ele>
        <time>2019-01-18T09:22:47.000Z</time>
      </trkpt>
      <trkpt lat="43.33733" lon="5.67405">
        <ele>390</ele>
        <time>2019-01-18T09:22:48.000Z</time>
      </trkpt>
      <trkpt lat="43.33733" lon="5.67405">
        <ele>390</ele>
        <time>2019-01-18T09:22:49.000Z</time>
      </trkpt>
      <trkpt lat="43.33732" lon="5.67405">
        <ele>390</ele>
        <time>2019-01-18T09:22:50.000Z</time>
      </trkpt>
      <trkpt lat="43.33732" lon="5.67405">
        <ele>390</ele>
        <time>2019-01-18T09:22:51.000Z</time>
      </trkpt>
      <trkpt lat="43.33731" lon="5.67406">
        <ele>390</ele>
        <time>2019-01-18T09:22:52.000Z</time>
      </trkpt>
      <trkpt lat="43.33731" lon="5.67407">
        <ele>390</ele>
        <time>2019-01-18T09:22:53.000Z</time>
      </trkpt>
      <trkpt lat="43.3373" lon="5.67407">
        <ele>390</ele>
        <time>2019-01-18T09:22:54.000Z</time>
      </trkpt>
      <trkpt lat="43.3373" lon="5.67407">
        <ele>390</ele>
        <time>2019-01-18T09:22:55.000Z</time>
      </trkpt>
      <trkpt lat="43.3373" lon="5.67408">
        <ele>391</ele>
        <time>2019-01-18T09:22:56.000Z</time>
      </trkpt>
      <trkpt lat="43.33729" lon="5.67408">
        <ele>391</ele>
        <time>2019-01-18T09:22:57.000Z</time>
      </trkpt>
      <trkpt lat="43.33729" lon="5.67409">
        <ele>391</ele>
        <time>2019-01-18T09:22:58.000Z</time>
      </trkpt>
      <trkpt lat="43.33728" lon="5.67409">
        <ele>391</ele>
        <time>2019-01-18T09:22:59.000Z</time>
      </trkpt>
      <trkpt lat="43.33728" lon="5.6741">
        <ele>391</ele>
        <time>2019-01-18T09:23:00.000Z</time>
      </trkpt>
      <trkpt lat="43.33727" lon="5.67411">
        <ele>391</ele>
        <time>2019-01-18T09:23:01.000Z</time>
      </trkpt>
      <trkpt lat="43.33727" lon="5.67412">
        <ele>391</ele>
        <time>2019-01-18T09:23:02.000Z</time>
      </trkpt>
      <trkpt lat="43.33726" lon="5.67412">
        <ele>391</ele>
        <time>2019-01-18T09:23:03.000Z</time>
      </trkpt>
      <trkpt lat="43.33725" lon="5.67412">
        <ele>391</ele>
        <time>2019-01-18T09:23:04.000Z</time>
      </trkpt>
      <trkpt lat="43.33725" lon="5.67413">
        <ele>392</ele>
        <time>2019-01-18T09:23:05.000Z</time>
      </trkpt>
      <trkpt lat="43.33724" lon="5.67413">
        <ele>392</ele>
        <time>2019-01-18T09:23:06.000Z</time>
      </trkpt>
      <trkpt lat="43.33723" lon="5.67414">
        <ele>392</ele>
        <time>2019-01-18T09:23:07.000Z</time>
      </trkpt>
      <trkpt lat="43.33723" lon="5.67414">
        <ele>392</ele>
        <time>2019-01-18T09:23:08.000Z</time>
      </trkpt>
      <trkpt lat="43.33722" lon="5.67414">
        <ele>392</ele>
        <time>2019-01-18T09:23:09.000Z</time>
      </trkpt>
      <trkpt lat="43.33721" lon="5.67414">
        <ele>392</ele>
        <time>2019-01-18T09:23:10.000Z</time>
      </trkpt>
      <trkpt lat="43.33721" lon="5.67414">
        <ele>392</ele>
        <time>2019-01-18T09:23:11.000Z</time>
      </trkpt>
      <trkpt lat="43.3372" lon="5.67414">
        <ele>392</ele>
        <time>2019-01-18T09:23:12.000Z</time>
      </trkpt>
      <trkpt lat="43.3372" lon="5.67414">
        <ele>392</ele>
        <time>2019-01-18T09:23:13.000Z</time>
      </trkpt>
      <trkpt lat="43.33719" lon="5.67414">
        <ele>393</ele>
        <time>2019-01-18T09:23:14.000Z</time>
      </trkpt>
      <trkpt lat="43.33719" lon="5.67414">
        <ele>393</ele>
        <time>2019-01-18T09:23:15.000Z</time>
      </trkpt>
      <trkpt lat="43.33718" lon="5.67414">
        <ele>393</ele>
        <time>2019-01-18T09:23:16.000Z</time>
      </trkpt>
      <trkpt lat="43.33718" lon="5.67414">
        <ele>393</ele>
        <time>2019-01-18T09:23:17.000Z</time>
      </trkpt>
      <trkpt lat="43.33717" lon="5.67414">
        <ele>393</ele>
        <time>2019-01-18T09:23:18.000Z</time>
      </trkpt>
      <trkpt lat="43.33716" lon="5.67413">
        <ele>393</ele>
        <time>2019-01-18T09:23:19.000Z</time>
      </trkpt>
      <trkpt lat="43.33716" lon="5.67413">
        <ele>393</ele>
        <time>2019-01-18T09:23:20.000Z</time>
      </trkpt>
      <trkpt lat="43.33715" lon="5.67413">
        <ele>393</ele>
        <time>2019-01-18T09:23:21.000Z</time>
      </trkpt>
      <trkpt lat="43.33714" lon="5.67413">
        <ele>393</ele>
        <time>2019-01-18T09:23:22.000Z</time>
      </trkpt>
      <trkpt lat="43.33713" lon="5.67414">
        <ele>393</ele>
        <time>2019-01-18T09:23:23.000Z</time>
      </trkpt>
      <trkpt lat="43.33712" lon="5.67414">
        <ele>393</ele>
        <time>2019-01-18T09:23:24.000Z</time>
      </trkpt>
      <trkpt lat="43.33712" lon="5.67414">
        <ele>393</ele>
        <time>2019-01-18T09:23:25.000Z</time>
      </trkpt>
      <trkpt lat="43.33711" lon="5.67414">
        <ele>393</ele>
        <time>2019-01-18T09:23:26.000Z</time>
      </trkpt>
      <trkpt lat="43.33711" lon="5.67414">
        <ele>394</ele>
        <time>2019-01-18T09:23:27.000Z</time>
      </trkpt>
      <trkpt lat="43.33711" lon="5.67414">
        <ele>394</ele>
        <time>2019-01-18T09:23:28.000Z</time>
      </trkpt>
      <trkpt lat="43.3371" lon="5.67414">
        <ele>394</ele>
        <time>2019-01-18T09:23:29.000Z</time>
      </trkpt>
      <trkpt lat="43.33709" lon="5.67413">
        <ele>394</ele>
        <time>2019-01-18T09:23:30.000Z</time>
      </trkpt>
      <trkpt lat="43.33709" lon="5.67413">
        <ele>394</ele>
        <time>2019-01-18T09:23:31.000Z</time>
      </trkpt>
      <trkpt lat="43.33709" lon="5.67414">
        <ele>394</ele>
        <time>2019-01-18T09:23:32.000Z</time>
      </trkpt>
      <trkpt lat="43.33709" lon="5.67414">
        <ele>394</ele>
        <time>2019-01-18T09:23:33.000Z</time>
      </trkpt>
      <trkpt lat="43.33708" lon="5.67414">
        <ele>394</ele>
        <time>2019-01-18T09:23:34.000Z</time>
      </trkpt>
      <trkpt lat="43.33708" lon="5.67415">
        <ele>394</ele>
        <time>2019-01-18T09:23:35.000Z</time>
      </trkpt>
      <trkpt lat="43.33707" lon="5.67415">
        <ele>394</ele>
        <time>2019-01-18T09:23:36.000Z</time>
      </trkpt>
      <trkpt lat="43.33707" lon="5.67416">
        <ele>394</ele>
        <time>2019-01-18T09:23:37.000Z</time>
      </trkpt>
      <trkpt lat="43.33706" lon="5.67417">
        <ele>394</ele>
        <time>2019-01-18T09:23:38.000Z</time>
      </trkpt>
      <trkpt lat="43.33706" lon="5.67418">
        <ele>394</ele>
        <time>2019-01-18T09:23:39.000Z</time>
      </trkpt>
      <trkpt lat="43.33705" lon="5.67418">
        <ele>394</ele>
        <time>2019-01-18T09:23:40.000Z</time>
      </trkpt>
      <trkpt lat="43.33704" lon="5.67419">
        <ele>394</ele>
        <time>2019-01-18T09:23:41.000Z</time>
      </trkpt>
      <trkpt lat="43.33704" lon="5.67419">
        <ele>394</ele>
        <time>2019-01-18T09:23:42.000Z</time>
      </trkpt>
      <trkpt lat="43.33704" lon="5.6742">
        <ele>394</ele>
        <time>2019-01-18T09:23:43.000Z</time>
      </trkpt>
      <trkpt lat="43.33703" lon="5.6742">
        <ele>394</ele>
        <time>2019-01-18T09:23:44.000Z</time>
      </trkpt>
      <trkpt lat="43.33703" lon="5.6742">
        <ele>394</ele>
        <time>2019-01-18T09:23:45.000Z</time>
      </trkpt>
      <trkpt lat="43.33703" lon="5.67421">
        <ele>394</ele>
        <time>2019-01-18T09:23:46.000Z</time>
      </trkpt>
      <trkpt lat="43.33702" lon="5.67422">
        <ele>394</ele>
        <time>2019-01-18T09:23:47.000Z</time>
      </trkpt>
      <trkpt lat="43.33702" lon="5.67422">
        <ele>394</ele>
        <time>2019-01-18T09:23:48.000Z</time>
      </trkpt>
      <trkpt lat="43.33701" lon="5.67423">
        <ele>395</ele>
        <time>2019-01-18T09:23:49.000Z</time>
      </trkpt>
      <trkpt lat="43.337" lon="5.67423">
        <ele>395</ele>
        <time>2019-01-18T09:23:50.000Z</time>
      </trkpt>
      <trkpt lat="43.337" lon="5.67424">
        <ele>395</ele>
        <time>2019-01-18T09:23:51.000Z</time>
      </trkpt>
      <trkpt lat="43.337" lon="5.67424">
        <ele>395</ele>
        <time>2019-01-18T09:23:52.000Z</time>
      </trkpt>
      <trkpt lat="43.33699" lon="5.67425">
        <ele>395</ele>
        <time>2019-01-18T09:23:53.000Z</time>
      </trkpt>
      <trkpt lat="43.33698" lon="5.67425">
        <ele>395</ele>
        <time>2019-01-18T09:23:54.000Z</time>
      </trkpt>
      <trkpt lat="43.33697" lon="5.67426">
        <ele>395</ele>
        <time>2019-01-18T09:23:55.000Z</time>
      </trkpt>
      <trkpt lat="43.33697" lon="5.67426">
        <ele>395</ele>
        <time>2019-01-18T09:23:56.000Z</time>
      </trkpt>
      <trkpt lat="43.33696" lon="5.67426">
        <ele>396</ele>
        <time>2019-01-18T09:23:57.000Z</time>
      </trkpt>
      <trkpt lat="43.33695" lon="5.67427">
        <ele>396</ele>
        <time>2019-01-18T09:23:58.000Z</time>
      </trkpt>
      <trkpt lat="43.33694" lon="5.67427">
        <ele>396</ele>
        <time>2019-01-18T09:23:59.000Z</time>
      </trkpt>
      <trkpt lat="43.33694" lon="5.67428">
        <ele>396</ele>
        <time>2019-01-18T09:24:00.000Z</time>
      </trkpt>
      <trkpt lat="43.33693" lon="5.67428">
        <ele>396</ele>
        <time>2019-01-18T09:24:01.000Z</time>
      </trkpt>
      <trkpt lat="43.33693" lon="5.67428">
        <ele>396</ele>
        <time>2019-01-18T09:24:02.000Z</time>
      </trkpt>
      <trkpt lat="43.33693" lon="5.67428">
        <ele>396</ele>
        <time>2019-01-18T09:24:03.000Z</time>
      </trkpt>
      <trkpt lat="43.33693" lon="5.67429">
        <ele>396</ele>
        <time>2019-01-18T09:24:04.000Z</time>
      </trkpt>
      <trkpt lat="43.33693" lon="5.67429">
        <ele>396</ele>
        <time>2019-01-18T09:24:05.000Z</time>
      </trkpt>
      <trkpt lat="43.33693" lon="5.67429">
        <ele>396</ele>
        <time>2019-01-18T09:24:06.000Z</time>
      </trkpt>
      <trkpt lat="43.33693" lon="5.67429">
        <ele>396</ele>
        <time>2019-01-18T09:24:07.000Z</time>
      </trkpt>
      <trkpt lat="43.33693" lon="5.67429">
        <ele>396</ele>
        <time>2019-01-18T09:24:08.000Z</time>
      </trkpt>
      <trkpt lat="43.33693" lon="5.67429">
        <ele>396</ele>
        <time>2019-01-18T09:24:09.000Z</time>
      </trkpt>
      <trkpt lat="43.33693" lon="5.67429">
        <ele>396</ele>
        <time>2019-01-18T09:24:10.000Z</time>
      </trkpt>
      <trkpt lat="43.33693" lon="5.67429">
        <ele>396</ele>
        <time>2019-01-18T09:24:11.000Z</time>
      </trkpt>
      <trkpt lat="43.33693" lon="5.67429">
        <ele>396</ele>
        <time>2019-01-18T09:24:12.000Z</time>
      </trkpt>
      <trkpt lat="43.33693" lon="5.67429">
        <ele>396</ele>
        <time>2019-01-18T09:24:13.000Z</time>
      </trkpt>
      <trkpt lat="43.33693" lon="5.67429">
        <ele>396</ele>
        <time>2019-01-18T09:24:14.000Z</time>
      </trkpt>
      <trkpt lat="43.33693" lon="5.67429">
        <ele>396</ele>
        <time>2019-01-18T09:24:15.000Z</time>
      </trkpt>
      <trkpt lat="43.33693" lon="5.67429">
        <ele>396</ele>
        <time>2019-01-18T09:24:16.000Z</time>
      </trkpt>
      <trkpt lat="43.33693" lon="5.6743">
        <ele>396</ele>
        <time>2019-01-18T09:24:17.000Z</time>
      </trkpt>
      <trkpt lat="43.33693" lon="5.6743">
        <ele>396</ele>
        <time>2019-01-18T09:24:18.000Z</time>
      </trkpt>
      <trkpt lat="43.33693" lon="5.6743">
        <ele>396</ele>
        <time>2019-01-18T09:24:19.000Z</time>
      </trkpt>
      <trkpt lat="43.33693" lon="5.6743">
        <ele>396</ele>
        <time>2019-01-18T09:24:20.000Z</time>
      </trkpt>
      <trkpt lat="43.33693" lon="5.6743">
        <ele>396</ele>
        <time>2019-01-18T09:24:21.000Z</time>
      </trkpt>
      <trkpt lat="43.33693" lon="5.6743">
        <ele>396</ele>
        <time>2019-01-18T09:24:22.000Z</time>
      </trkpt>
      <trkpt lat="43.33693" lon="5.6743">
        <ele>396</ele>
        <time>2019-01-18T09:24:23.000Z</time>
      </trkpt>
      <trkpt lat="43.33693" lon="5.6743">
        <ele>396</ele>
        <time>2019-01-18T09:24:24.000Z</time>
      </trkpt>
      <trkpt lat="43.33693" lon="5.6743">
        <ele>396</ele>
        <time>2019-01-18T09:24:25.000Z</time>
      </trkpt>
      <trkpt lat="43.33693" lon="5.6743">
        <ele>396</ele>
        <time>2019-01-18T09:24:26.000Z</time>
      </trkpt>
      <trkpt lat="43.33693" lon="5.6743">
        <ele>396</ele>
        <time>2019-01-18T09:24:27.000Z</time>
      </trkpt>
      <trkpt lat="43.33693" lon="5.6743">
        <ele>396</ele>
        <time>2019-01-18T09:24:28.000Z</time>
      </trkpt>
      <trkpt lat="43.33693" lon="5.6743">
        <ele>396</ele>
        <time>2019-01-18T09:24:29.000Z</time>
      </trkpt>
      <trkpt lat="43.33693" lon="5.6743">
        <ele>396</ele>
        <time>2019-01-18T09:24:30.000Z</time>
      </trkpt>
      <trkpt lat="43.33693" lon="5.6743">
        <ele>396</ele>
        <time>2019-01-18T09:24:31.000Z</time>
      </trkpt>
      <trkpt lat="43.33693" lon="5.6743">
        <ele>396</ele>
        <time>2019-01-18T09:24:32.000Z</time>
      </trkpt>
      <trkpt lat="43.33693" lon="5.6743">
        <ele>396</ele>
        <time>2019-01-18T09:24:33.000Z</time>
      </trkpt>
      <trkpt lat="43.33693" lon="5.6743">
        <ele>397</ele>
        <time>2019-01-18T09:24:34.000Z</time>
      </trkpt>
      <trkpt lat="43.33693" lon="5.6743">
        <ele>397</ele>
        <time>2019-01-18T09:24:35.000Z</time>
      </trkpt>
      <trkpt lat="43.33693" lon="5.6743">
        <ele>397</ele>
        <time>2019-01-18T09:24:36.000Z</time>
      </trkpt>
      <trkpt lat="43.33693" lon="5.6743">
        <ele>397</ele>
        <time>2019-01-18T09:24:37.000Z</time>
      </trkpt>
      <trkpt lat="43.33693" lon="5.6743">
        <ele>397</ele>
        <time>2019-01-18T09:24:38.000Z</time>
      </trkpt>
      <trkpt lat="43.33693" lon="5.67431">
        <ele>397</ele>
        <time>2019-01-18T09:24:39.000Z</time>
      </trkpt>
      <trkpt lat="43.33693" lon="5.67431">
        <ele>397</ele>
        <time>2019-01-18T09:24:40.000Z</time>
      </trkpt>
      <trkpt lat="43.33692" lon="5.67431">
        <ele>397</ele>
        <time>2019-01-18T09:24:41.000Z</time>
      </trkpt>
      <trkpt lat="43.33692" lon="5.67431">
        <ele>397</ele>
        <time>2019-01-18T09:24:42.000Z</time>
      </trkpt>
      <trkpt lat="43.33692" lon="5.67431">
        <ele>397</ele>
        <time>2019-01-18T09:24:43.000Z</time>
      </trkpt>
      <trkpt lat="43.33692" lon="5.67431">
        <ele>397</ele>
        <time>2019-01-18T09:24:44.000Z</time>
      </trkpt>
      <trkpt lat="43.33692" lon="5.67431">
        <ele>397</ele>
        <time>2019-01-18T09:24:45.000Z</time>
      </trkpt>
      <trkpt lat="43.33692" lon="5.67431">
        <ele>397</ele>
        <time>2019-01-18T09:24:46.000Z</time>
      </trkpt>
      <trkpt lat="43.33692" lon="5.67431">
        <ele>397</ele>
        <time>2019-01-18T09:24:47.000Z</time>
      </trkpt>
      <trkpt lat="43.33692" lon="5.67431">
        <ele>397</ele>
        <time>2019-01-18T09:24:48.000Z</time>
      </trkpt>
      <trkpt lat="43.33692" lon="5.67431">
        <ele>397</ele>
        <time>2019-01-18T09:24:49.000Z</time>
      </trkpt>
      <trkpt lat="43.33692" lon="5.67431">
        <ele>397</ele>
        <time>2019-01-18T09:24:50.000Z</time>
      </trkpt>
      <trkpt lat="43.33692" lon="5.67431">
        <ele>397</ele>
        <time>2019-01-18T09:24:51.000Z</time>
      </trkpt>
      <trkpt lat="43.33692" lon="5.67431">
        <ele>397</ele>
        <time>2019-01-18T09:24:52.000Z</time>
      </trkpt>
      <trkpt lat="43.33693" lon="5.67431">
        <ele>397</ele>
        <time>2019-01-18T09:24:53.000Z</time>
      </trkpt>
      <trkpt lat="43.33693" lon="5.67431">
        <ele>397</ele>
        <time>2019-01-18T09:24:54.000Z</time>
      </trkpt>
      <trkpt lat="43.33693" lon="5.67431">
        <ele>397</ele>
        <time>2019-01-18T09:24:55.000Z</time>
      </trkpt>
      <trkpt lat="43.33693" lon="5.67431">
        <ele>397</ele>
        <time>2019-01-18T09:24:56.000Z</time>
      </trkpt>
      <trkpt lat="43.33692" lon="5.67431">
        <ele>397</ele>
        <time>2019-01-18T09:24:57.000Z</time>
      </trkpt>
      <trkpt lat="43.33692" lon="5.67431">
        <ele>397</ele>
        <time>2019-01-18T09:24:58.000Z</time>
      </trkpt>
      <trkpt lat="43.33692" lon="5.67431">
        <ele>397</ele>
        <time>2019-01-18T09:24:59.000Z</time>
      </trkpt>
      <trkpt lat="43.33692" lon="5.67431">
        <ele>397</ele>
        <time>2019-01-18T09:25:00.000Z</time>
      </trkpt>
      <trkpt lat="43.33692" lon="5.67431">
        <ele>397</ele>
        <time>2019-01-18T09:25:01.000Z</time>
      </trkpt>
      <trkpt lat="43.33692" lon="5.67431">
        <ele>397</ele>
        <time>2019-01-18T09:25:02.000Z</time>
      </trkpt>
      <trkpt lat="43.33692" lon="5.67431">
        <ele>397</ele>
        <time>2019-01-18T09:25:03.000Z</time>
      </trkpt>
      <trkpt lat="43.33692" lon="5.67432">
        <ele>397</ele>
        <time>2019-01-18T09:25:04.000Z</time>
      </trkpt>
      <trkpt lat="43.33692" lon="5.67432">
        <ele>397</ele>
        <time>2019-01-18T09:25:05.000Z</time>
      </trkpt>
      <trkpt lat="43.33691" lon="5.67433">
        <ele>397</ele>
        <time>2019-01-18T09:25:06.000Z</time>
      </trkpt>
      <trkpt lat="43.33691" lon="5.67434">
        <ele>397</ele>
        <time>2019-01-18T09:25:07.000Z</time>
      </trkpt>
      <trkpt lat="43.33691" lon="5.67435">
        <ele>397</ele>
        <time>2019-01-18T09:25:08.000Z</time>
      </trkpt>
      <trkpt lat="43.3369" lon="5.67436">
        <ele>397</ele>
        <time>2019-01-18T09:25:09.000Z</time>
      </trkpt>
      <trkpt lat="43.33689" lon="5.67437">
        <ele>397</ele>
        <time>2019-01-18T09:25:10.000Z</time>
      </trkpt>
      <trkpt lat="43.33689" lon="5.67438">
        <ele>397</ele>
        <time>2019-01-18T09:25:11.000Z</time>
      </trkpt>
      <trkpt lat="43.33688" lon="5.67439">
        <ele>397</ele>
        <time>2019-01-18T09:25:12.000Z</time>
      </trkpt>
      <trkpt lat="43.33688" lon="5.6744">
        <ele>397</ele>
        <time>2019-01-18T09:25:13.000Z</time>
      </trkpt>
      <trkpt lat="43.33687" lon="5.67441">
        <ele>397</ele>
        <time>2019-01-18T09:25:14.000Z</time>
      </trkpt>
      <trkpt lat="43.33687" lon="5.67442">
        <ele>397</ele>
        <time>2019-01-18T09:25:15.000Z</time>
      </trkpt>
      <trkpt lat="43.33686" lon="5.67443">
        <ele>397</ele>
        <time>2019-01-18T09:25:16.000Z</time>
      </trkpt>
      <trkpt lat="43.33686" lon="5.67444">
        <ele>398</ele>
        <time>2019-01-18T09:25:17.000Z</time>
      </trkpt>
      <trkpt lat="43.33685" lon="5.67445">
        <ele>398</ele>
        <time>2019-01-18T09:25:18.000Z</time>
      </trkpt>
      <trkpt lat="43.33684" lon="5.67446">
        <ele>398</ele>
        <time>2019-01-18T09:25:19.000Z</time>
      </trkpt>
      <trkpt lat="43.33684" lon="5.67447">
        <ele>398</ele>
        <time>2019-01-18T09:25:20.000Z</time>
      </trkpt>
      <trkpt lat="43.33684" lon="5.67449">
        <ele>398</ele>
        <time>2019-01-18T09:25:21.000Z</time>
      </trkpt>
      <trkpt lat="43.33684" lon="5.6745">
        <ele>398</ele>
        <time>2019-01-18T09:25:22.000Z</time>
      </trkpt>
      <trkpt lat="43.33684" lon="5.67452">
        <ele>398</ele>
        <time>2019-01-18T09:25:23.000Z</time>
      </trkpt>
      <trkpt lat="43.33683" lon="5.67453">
        <ele>398</ele>
        <time>2019-01-18T09:25:24.000Z</time>
      </trkpt>
      <trkpt lat="43.33683" lon="5.67454">
        <ele>398</ele>
        <time>2019-01-18T09:25:25.000Z</time>
      </trkpt>
      <trkpt lat="43.33683" lon="5.67455">
        <ele>398</ele>
        <time>2019-01-18T09:25:26.000Z</time>
      </trkpt>
      <trkpt lat="43.33682" lon="5.67455">
        <ele>398</ele>
        <time>2019-01-18T09:25:27.000Z</time>
      </trkpt>
      <trkpt lat="43.33682" lon="5.67456">
        <ele>398</ele>
        <time>2019-01-18T09:25:28.000Z</time>
      </trkpt>
      <trkpt lat="43.33682" lon="5.67456">
        <ele>398</ele>
        <time>2019-01-18T09:25:29.000Z</time>
      </trkpt>
      <trkpt lat="43.33681" lon="5.67457">
        <ele>398</ele>
        <time>2019-01-18T09:25:30.000Z</time>
      </trkpt>
      <trkpt lat="43.33681" lon="5.67457">
        <ele>399</ele>
        <time>2019-01-18T09:25:31.000Z</time>
      </trkpt>
      <trkpt lat="43.33681" lon="5.67458">
        <ele>399</ele>
        <time>2019-01-18T09:25:32.000Z</time>
      </trkpt>
      <trkpt lat="43.33681" lon="5.67459">
        <ele>399</ele>
        <time>2019-01-18T09:25:33.000Z</time>
      </trkpt>
      <trkpt lat="43.33681" lon="5.67459">
        <ele>399</ele>
        <time>2019-01-18T09:25:34.000Z</time>
      </trkpt>
      <trkpt lat="43.33681" lon="5.6746">
        <ele>399</ele>
        <time>2019-01-18T09:25:35.000Z</time>
      </trkpt>
      <trkpt lat="43.33681" lon="5.67461">
        <ele>399</ele>
        <time>2019-01-18T09:25:36.000Z</time>
      </trkpt>
      <trkpt lat="43.33681" lon="5.67462">
        <ele>399</ele>
        <time>2019-01-18T09:25:37.000Z</time>
      </trkpt>
      <trkpt lat="43.33681" lon="5.67462">
        <ele>399</ele>
        <time>2019-01-18T09:25:38.000Z</time>
      </trkpt>
      <trkpt lat="43.33681" lon="5.67462">
        <ele>400</ele>
        <time>2019-01-18T09:25:39.000Z</time>
      </trkpt>
      <trkpt lat="43.33681" lon="5.67462">
        <ele>400</ele>
        <time>2019-01-18T09:25:40.000Z</time>
      </trkpt>
      <trkpt lat="43.33681" lon="5.67462">
        <ele>400</ele>
        <time>2019-01-18T09:25:41.000Z</time>
      </trkpt>
      <trkpt lat="43.33681" lon="5.67462">
        <ele>400</ele>
        <time>2019-01-18T09:25:42.000Z</time>
      </trkpt>
      <trkpt lat="43.33681" lon="5.67462">
        <ele>400</ele>
        <time>2019-01-18T09:25:43.000Z</time>
      </trkpt>
      <trkpt lat="43.33681" lon="5.67463">
        <ele>400</ele>
        <time>2019-01-18T09:25:44.000Z</time>
      </trkpt>
      <trkpt lat="43.33681" lon="5.67463">
        <ele>400</ele>
        <time>2019-01-18T09:25:45.000Z</time>
      </trkpt>
      <trkpt lat="43.3368" lon="5.67463">
        <ele>400</ele>
        <time>2019-01-18T09:25:46.000Z</time>
      </trkpt>
      <trkpt lat="43.3368" lon="5.67464">
        <ele>400</ele>
        <time>2019-01-18T09:25:47.000Z</time>
      </trkpt>
      <trkpt lat="43.3368" lon="5.67465">
        <ele>400</ele>
        <time>2019-01-18T09:25:48.000Z</time>
      </trkpt>
      <trkpt lat="43.33679" lon="5.67467">
        <ele>401</ele>
        <time>2019-01-18T09:25:49.000Z</time>
      </trkpt>
      <trkpt lat="43.3368" lon="5.67468">
        <ele>401</ele>
        <time>2019-01-18T09:25:50.000Z</time>
      </trkpt>
      <trkpt lat="43.3368" lon="5.67468">
        <ele>401</ele>
        <time>2019-01-18T09:25:51.000Z</time>
      </trkpt>
      <trkpt lat="43.33679" lon="5.67468">
        <ele>401</ele>
        <time>2019-01-18T09:25:52.000Z</time>
      </trkpt>
      <trkpt lat="43.33679" lon="5.67468">
        <ele>401</ele>
        <time>2019-01-18T09:25:53.000Z</time>
      </trkpt>
      <trkpt lat="43.33679" lon="5.67468">
        <ele>401</ele>
        <time>2019-01-18T09:25:54.000Z</time>
      </trkpt>
      <trkpt lat="43.33679" lon="5.67468">
        <ele>401</ele>
        <time>2019-01-18T09:25:55.000Z</time>
      </trkpt>
      <trkpt lat="43.33679" lon="5.67468">
        <ele>401</ele>
        <time>2019-01-18T09:25:56.000Z</time>
      </trkpt>
      <trkpt lat="43.3368" lon="5.67469">
        <ele>401</ele>
        <time>2019-01-18T09:25:57.000Z</time>
      </trkpt>
      <trkpt lat="43.3368" lon="5.67469">
        <ele>401</ele>
        <time>2019-01-18T09:25:58.000Z</time>
      </trkpt>
      <trkpt lat="43.3368" lon="5.67469">
        <ele>401</ele>
        <time>2019-01-18T09:25:59.000Z</time>
      </trkpt>
      <trkpt lat="43.33679" lon="5.6747">
        <ele>401</ele>
        <time>2019-01-18T09:26:00.000Z</time>
      </trkpt>
      <trkpt lat="43.33679" lon="5.6747">
        <ele>401</ele>
        <time>2019-01-18T09:26:01.000Z</time>
      </trkpt>
      <trkpt lat="43.33679" lon="5.67471">
        <ele>401</ele>
        <time>2019-01-18T09:26:02.000Z</time>
      </trkpt>
      <trkpt lat="43.33679" lon="5.67471">
        <ele>401</ele>
        <time>2019-01-18T09:26:03.000Z</time>
      </trkpt>
      <trkpt lat="43.33679" lon="5.67472">
        <ele>401</ele>
        <time>2019-01-18T09:26:04.000Z</time>
      </trkpt>
      <trkpt lat="43.33678" lon="5.67473">
        <ele>401</ele>
        <time>2019-01-18T09:26:05.000Z</time>
      </trkpt>
      <trkpt lat="43.33678" lon="5.67473">
        <ele>401</ele>
        <time>2019-01-18T09:26:06.000Z</time>
      </trkpt>
      <trkpt lat="43.33678" lon="5.67475">
        <ele>401</ele>
        <time>2019-01-18T09:26:07.000Z</time>
      </trkpt>
      <trkpt lat="43.33677" lon="5.67476">
        <ele>401</ele>
        <time>2019-01-18T09:26:08.000Z</time>
      </trkpt>
      <trkpt lat="43.33677" lon="5.67477">
        <ele>401</ele>
        <time>2019-01-18T09:26:09.000Z</time>
      </trkpt>
      <trkpt lat="43.33676" lon="5.67478">
        <ele>401</ele>
        <time>2019-01-18T09:26:10.000Z</time>
      </trkpt>
      <trkpt lat="43.33676" lon="5.67479">
        <ele>402</ele>
        <time>2019-01-18T09:26:11.000Z</time>
      </trkpt>
      <trkpt lat="43.33676" lon="5.67479">
        <ele>402</ele>
        <time>2019-01-18T09:26:12.000Z</time>
      </trkpt>
      <trkpt lat="43.33676" lon="5.67481">
        <ele>402</ele>
        <time>2019-01-18T09:26:13.000Z</time>
      </trkpt>
      <trkpt lat="43.33675" lon="5.67482">
        <ele>402</ele>
        <time>2019-01-18T09:26:14.000Z</time>
      </trkpt>
      <trkpt lat="43.33675" lon="5.67483">
        <ele>402</ele>
        <time>2019-01-18T09:26:15.000Z</time>
      </trkpt>
      <trkpt lat="43.33675" lon="5.67483">
        <ele>402</ele>
        <time>2019-01-18T09:26:16.000Z</time>
      </trkpt>
      <trkpt lat="43.33675" lon="5.67484">
        <ele>402</ele>
        <time>2019-01-18T09:26:17.000Z</time>
      </trkpt>
      <trkpt lat="43.33674" lon="5.67484">
        <ele>402</ele>
        <time>2019-01-18T09:26:18.000Z</time>
      </trkpt>
      <trkpt lat="43.33674" lon="5.67485">
        <ele>402</ele>
        <time>2019-01-18T09:26:19.000Z</time>
      </trkpt>
      <trkpt lat="43.33674" lon="5.67486">
        <ele>402</ele>
        <time>2019-01-18T09:26:20.000Z</time>
      </trkpt>
      <trkpt lat="43.33674" lon="5.67487">
        <ele>403</ele>
        <time>2019-01-18T09:26:21.000Z</time>
      </trkpt>
      <trkpt lat="43.33673" lon="5.67489">
        <ele>403</ele>
        <time>2019-01-18T09:26:22.000Z</time>
      </trkpt>
      <trkpt lat="43.33673" lon="5.67489">
        <ele>403</ele>
        <time>2019-01-18T09:26:23.000Z</time>
      </trkpt>
      <trkpt lat="43.33672" lon="5.6749">
        <ele>403</ele>
        <time>2019-01-18T09:26:24.000Z</time>
      </trkpt>
      <trkpt lat="43.33673" lon="5.67491">
        <ele>403</ele>
        <time>2019-01-18T09:26:25.000Z</time>
      </trkpt>
      <trkpt lat="43.33673" lon="5.67492">
        <ele>403</ele>
        <time>2019-01-18T09:26:26.000Z</time>
      </trkpt>
      <trkpt lat="43.33673" lon="5.67493">
        <ele>403</ele>
        <time>2019-01-18T09:26:27.000Z</time>
      </trkpt>
      <trkpt lat="43.33673" lon="5.67493">
        <ele>404</ele>
        <time>2019-01-18T09:26:28.000Z</time>
      </trkpt>
      <trkpt lat="43.33673" lon="5.67494">
        <ele>404</ele>
        <time>2019-01-18T09:26:29.000Z</time>
      </trkpt>
      <trkpt lat="43.33673" lon="5.67494">
        <ele>404</ele>
        <time>2019-01-18T09:26:30.000Z</time>
      </trkpt>
      <trkpt lat="43.33673" lon="5.67495">
        <ele>404</ele>
        <time>2019-01-18T09:26:31.000Z</time>
      </trkpt>
      <trkpt lat="43.33673" lon="5.67495">
        <ele>404</ele>
        <time>2019-01-18T09:26:32.000Z</time>
      </trkpt>
      <trkpt lat="43.33673" lon="5.67495">
        <ele>404</ele>
        <time>2019-01-18T09:26:33.000Z</time>
      </trkpt>
      <trkpt lat="43.33673" lon="5.67495">
        <ele>404</ele>
        <time>2019-01-18T09:26:34.000Z</time>
      </trkpt>
      <trkpt lat="43.33673" lon="5.67495">
        <ele>404</ele>
        <time>2019-01-18T09:26:35.000Z</time>
      </trkpt>
      <trkpt lat="43.33673" lon="5.67495">
        <ele>404</ele>
        <time>2019-01-18T09:26:36.000Z</time>
      </trkpt>
      <trkpt lat="43.33673" lon="5.67495">
        <ele>405</ele>
        <time>2019-01-18T09:26:37.000Z</time>
      </trkpt>
      <trkpt lat="43.33673" lon="5.67494">
        <ele>405</ele>
        <time>2019-01-18T09:26:38.000Z</time>
      </trkpt>
      <trkpt lat="43.33673" lon="5.67494">
        <ele>405</ele>
        <time>2019-01-18T09:26:39.000Z</time>
      </trkpt>
      <trkpt lat="43.33673" lon="5.67494">
        <ele>405</ele>
        <time>2019-01-18T09:26:40.000Z</time>
      </trkpt>
      <trkpt lat="43.33673" lon="5.67494">
        <ele>405</ele>
        <time>2019-01-18T09:26:41.000Z</time>
      </trkpt>
      <trkpt lat="43.33672" lon="5.67493">
        <ele>405</ele>
        <time>2019-01-18T09:26:42.000Z</time>
      </trkpt>
      <trkpt lat="43.33672" lon="5.67492">
        <ele>405</ele>
        <time>2019-01-18T09:26:43.000Z</time>
      </trkpt>
      <trkpt lat="43.33671" lon="5.67492">
        <ele>405</ele>
        <time>2019-01-18T09:26:44.000Z</time>
      </trkpt>
      <trkpt lat="43.3367" lon="5.67491">
        <ele>405</ele>
        <time>2019-01-18T09:26:45.000Z</time>
      </trkpt>
      <trkpt lat="43.3367" lon="5.67491">
        <ele>405</ele>
        <time>2019-01-18T09:26:46.000Z</time>
      </trkpt>
      <trkpt lat="43.33669" lon="5.67491">
        <ele>406</ele>
        <time>2019-01-18T09:26:47.000Z</time>
      </trkpt>
      <trkpt lat="43.33668" lon="5.67491">
        <ele>406</ele>
        <time>2019-01-18T09:26:48.000Z</time>
      </trkpt>
      <trkpt lat="43.33667" lon="5.67491">
        <ele>406</ele>
        <time>2019-01-18T09:26:49.000Z</time>
      </trkpt>
      <trkpt lat="43.33666" lon="5.67492">
        <ele>406</ele>
        <time>2019-01-18T09:26:50.000Z</time>
      </trkpt>
      <trkpt lat="43.33665" lon="5.67492">
        <ele>406</ele>
        <time>2019-01-18T09:26:51.000Z</time>
      </trkpt>
      <trkpt lat="43.33664" lon="5.67493">
        <ele>406</ele>
        <time>2019-01-18T09:26:52.000Z</time>
      </trkpt>
      <trkpt lat="43.33664" lon="5.67493">
        <ele>406</ele>
        <time>2019-01-18T09:26:53.000Z</time>
      </trkpt>
      <trkpt lat="43.33663" lon="5.67494">
        <ele>406</ele>
        <time>2019-01-18T09:26:54.000Z</time>
      </trkpt>
      <trkpt lat="43.33663" lon="5.67495">
        <ele>406</ele>
        <time>2019-01-18T09:26:55.000Z</time>
      </trkpt>
      <trkpt lat="43.33663" lon="5.67497">
        <ele>406</ele>
        <time>2019-01-18T09:26:56.000Z</time>
      </trkpt>
      <trkpt lat="43.33663" lon="5.67498">
        <ele>405</ele>
        <time>2019-01-18T09:26:57.000Z</time>
      </trkpt>
      <trkpt lat="43.33663" lon="5.67499">
        <ele>405</ele>
        <time>2019-01-18T09:26:58.000Z</time>
      </trkpt>
      <trkpt lat="43.33663" lon="5.675">
        <ele>405</ele>
        <time>2019-01-18T09:26:59.000Z</time>
      </trkpt>
      <trkpt lat="43.33663" lon="5.67501">
        <ele>405</ele>
        <time>2019-01-18T09:27:00.000Z</time>
      </trkpt>
      <trkpt lat="43.33663" lon="5.67502">
        <ele>404</ele>
        <time>2019-01-18T09:27:01.000Z</time>
      </trkpt>
      <trkpt lat="43.33664" lon="5.67502">
        <ele>404</ele>
        <time>2019-01-18T09:27:02.000Z</time>
      </trkpt>
      <trkpt lat="43.33664" lon="5.67503">
        <ele>404</ele>
        <time>2019-01-18T09:27:03.000Z</time>
      </trkpt>
      <trkpt lat="43.33664" lon="5.67503">
        <ele>403</ele>
        <time>2019-01-18T09:27:04.000Z</time>
      </trkpt>
      <trkpt lat="43.33664" lon="5.67503">
        <ele>403</ele>
        <time>2019-01-18T09:27:05.000Z</time>
      </trkpt>
      <trkpt lat="43.33664" lon="5.67503">
        <ele>403</ele>
        <time>2019-01-18T09:27:06.000Z</time>
      </trkpt>
      <trkpt lat="43.33664" lon="5.67505">
        <ele>403</ele>
        <time>2019-01-18T09:27:07.000Z</time>
      </trkpt>
      <trkpt lat="43.33664" lon="5.67506">
        <ele>403</ele>
        <time>2019-01-18T09:27:08.000Z</time>
      </trkpt>
      <trkpt lat="43.33665" lon="5.67507">
        <ele>403</ele>
        <time>2019-01-18T09:27:09.000Z</time>
      </trkpt>
      <trkpt lat="43.33665" lon="5.67508">
        <ele>402</ele>
        <time>2019-01-18T09:27:10.000Z</time>
      </trkpt>
      <trkpt lat="43.33665" lon="5.67509">
        <ele>402</ele>
        <time>2019-01-18T09:27:11.000Z</time>
      </trkpt>
      <trkpt lat="43.33666" lon="5.67509">
        <ele>402</ele>
        <time>2019-01-18T09:27:12.000Z</time>
      </trkpt>
      <trkpt lat="43.33666" lon="5.67509">
        <ele>402</ele>
        <time>2019-01-18T09:27:13.000Z</time>
      </trkpt>
      <trkpt lat="43.33666" lon="5.67509">
        <ele>402</ele>
        <time>2019-01-18T09:27:14.000Z</time>
      </trkpt>
      <trkpt lat="43.33666" lon="5.67509">
        <ele>402</ele>
        <time>2019-01-18T09:27:15.000Z</time>
      </trkpt>
      <trkpt lat="43.33665" lon="5.67509">
        <ele>402</ele>
        <time>2019-01-18T09:27:16.000Z</time>
      </trkpt>
      <trkpt lat="43.33665" lon="5.67508">
        <ele>402</ele>
        <time>2019-01-18T09:27:17.000Z</time>
      </trkpt>
      <trkpt lat="43.33665" lon="5.67508">
        <ele>402</ele>
        <time>2019-01-18T09:27:18.000Z</time>
      </trkpt>
      <trkpt lat="43.33664" lon="5.67508">
        <ele>401</ele>
        <time>2019-01-18T09:27:19.000Z</time>
      </trkpt>
      <trkpt lat="43.33664" lon="5.67508">
        <ele>401</ele>
        <time>2019-01-18T09:27:20.000Z</time>
      </trkpt>
      <trkpt lat="43.33664" lon="5.67508">
        <ele>401</ele>
        <time>2019-01-18T09:27:21.000Z</time>
      </trkpt>
      <trkpt lat="43.33664" lon="5.67508">
        <ele>401</ele>
        <time>2019-01-18T09:27:22.000Z</time>
      </trkpt>
      <trkpt lat="43.33664" lon="5.67509">
        <ele>401</ele>
        <time>2019-01-18T09:27:23.000Z</time>
      </trkpt>
      <trkpt lat="43.33664" lon="5.67509">
        <ele>401</ele>
        <time>2019-01-18T09:27:24.000Z</time>
      </trkpt>
      <trkpt lat="43.33664" lon="5.67511">
        <ele>401</ele>
        <time>2019-01-18T09:27:25.000Z</time>
      </trkpt>
      <trkpt lat="43.33664" lon="5.67512">
        <ele>401</ele>
        <time>2019-01-18T09:27:26.000Z</time>
      </trkpt>
      <trkpt lat="43.33665" lon="5.67512">
        <ele>401</ele>
        <time>2019-01-18T09:27:27.000Z</time>
      </trkpt>
      <trkpt lat="43.33665" lon="5.67512">
        <ele>401</ele>
        <time>2019-01-18T09:27:28.000Z</time>
      </trkpt>
      <trkpt lat="43.33665" lon="5.67512">
        <ele>401</ele>
        <time>2019-01-18T09:27:29.000Z</time>
      </trkpt>
      <trkpt lat="43.33665" lon="5.67512">
        <ele>400</ele>
        <time>2019-01-18T09:27:30.000Z</time>
      </trkpt>
      <trkpt lat="43.33665" lon="5.67512">
        <ele>400</ele>
        <time>2019-01-18T09:27:31.000Z</time>
      </trkpt>
      <trkpt lat="43.33665" lon="5.67512">
        <ele>400</ele>
        <time>2019-01-18T09:27:32.000Z</time>
      </trkpt>
      <trkpt lat="43.33665" lon="5.67512">
        <ele>400</ele>
        <time>2019-01-18T09:27:33.000Z</time>
      </trkpt>
      <trkpt lat="43.33665" lon="5.67513">
        <ele>400</ele>
        <time>2019-01-18T09:27:34.000Z</time>
      </trkpt>
      <trkpt lat="43.33665" lon="5.67513">
        <ele>400</ele>
        <time>2019-01-18T09:27:35.000Z</time>
      </trkpt>
      <trkpt lat="43.33665" lon="5.67514">
        <ele>400</ele>
        <time>2019-01-18T09:27:36.000Z</time>
      </trkpt>
      <trkpt lat="43.33665" lon="5.67515">
        <ele>400</ele>
        <time>2019-01-18T09:27:37.000Z</time>
      </trkpt>
      <trkpt lat="43.33666" lon="5.67516">
        <ele>400</ele>
        <time>2019-01-18T09:27:38.000Z</time>
      </trkpt>
      <trkpt lat="43.33666" lon="5.67517">
        <ele>400</ele>
        <time>2019-01-18T09:27:39.000Z</time>
      </trkpt>
      <trkpt lat="43.33666" lon="5.67518">
        <ele>400</ele>
        <time>2019-01-18T09:27:40.000Z</time>
      </trkpt>
      <trkpt lat="43.33666" lon="5.67519">
        <ele>400</ele>
        <time>2019-01-18T09:27:41.000Z</time>
      </trkpt>
      <trkpt lat="43.33667" lon="5.6752">
        <ele>400</ele>
        <time>2019-01-18T09:27:42.000Z</time>
      </trkpt>
      <trkpt lat="43.33667" lon="5.6752">
        <ele>400</ele>
        <time>2019-01-18T09:27:43.000Z</time>
      </trkpt>
      <trkpt lat="43.33667" lon="5.67521">
        <ele>400</ele>
        <time>2019-01-18T09:27:44.000Z</time>
      </trkpt>
      <trkpt lat="43.33667" lon="5.67521">
        <ele>400</ele>
        <time>2019-01-18T09:27:45.000Z</time>
      </trkpt>
      <trkpt lat="43.33668" lon="5.67521">
        <ele>400</ele>
        <time>2019-01-18T09:27:46.000Z</time>
      </trkpt>
      <trkpt lat="43.33668" lon="5.67521">
        <ele>400</ele>
        <time>2019-01-18T09:27:47.000Z</time>
      </trkpt>
      <trkpt lat="43.33668" lon="5.67521">
        <ele>400</ele>
        <time>2019-01-18T09:27:48.000Z</time>
      </trkpt>
      <trkpt lat="43.33668" lon="5.67521">
        <ele>400</ele>
        <time>2019-01-18T09:27:49.000Z</time>
      </trkpt>
      <trkpt lat="43.33668" lon="5.67521">
        <ele>400</ele>
        <time>2019-01-18T09:27:50.000Z</time>
      </trkpt>
      <trkpt lat="43.33668" lon="5.6752">
        <ele>400</ele>
        <time>2019-01-18T09:27:51.000Z</time>
      </trkpt>
      <trkpt lat="43.33668" lon="5.67521">
        <ele>400</ele>
        <time>2019-01-18T09:27:52.000Z</time>
      </trkpt>
      <trkpt lat="43.33668" lon="5.67522">
        <ele>400</ele>
        <time>2019-01-18T09:27:53.000Z</time>
      </trkpt>
      <trkpt lat="43.33669" lon="5.67523">
        <ele>400</ele>
        <time>2019-01-18T09:27:54.000Z</time>
      </trkpt>
      <trkpt lat="43.3367" lon="5.67523">
        <ele>400</ele>
        <time>2019-01-18T09:27:55.000Z</time>
      </trkpt>
      <trkpt lat="43.3367" lon="5.67524">
        <ele>400</ele>
        <time>2019-01-18T09:27:56.000Z</time>
      </trkpt>
      <trkpt lat="43.33671" lon="5.67525">
        <ele>400</ele>
        <time>2019-01-18T09:27:57.000Z</time>
      </trkpt>
      <trkpt lat="43.33671" lon="5.67525">
        <ele>400</ele>
        <time>2019-01-18T09:27:58.000Z</time>
      </trkpt>
      <trkpt lat="43.33671" lon="5.67525">
        <ele>400</ele>
        <time>2019-01-18T09:27:59.000Z</time>
      </trkpt>
      <trkpt lat="43.33672" lon="5.67525">
        <ele>400</ele>
        <time>2019-01-18T09:28:00.000Z</time>
      </trkpt>
      <trkpt lat="43.33672" lon="5.67526">
        <ele>400</ele>
        <time>2019-01-18T09:28:01.000Z</time>
      </trkpt>
      <trkpt lat="43.33672" lon="5.67526">
        <ele>400</ele>
        <time>2019-01-18T09:28:02.000Z</time>
      </trkpt>
      <trkpt lat="43.33672" lon="5.67526">
        <ele>400</ele>
        <time>2019-01-18T09:28:03.000Z</time>
      </trkpt>
      <trkpt lat="43.33672" lon="5.67526">
        <ele>400</ele>
        <time>2019-01-18T09:28:04.000Z</time>
      </trkpt>
      <trkpt lat="43.33672" lon="5.67526">
        <ele>400</ele>
        <time>2019-01-18T09:28:05.000Z</time>
      </trkpt>
      <trkpt lat="43.33673" lon="5.67526">
        <ele>400</ele>
        <time>2019-01-18T09:28:06.000Z</time>
      </trkpt>
      <trkpt lat="43.33673" lon="5.67527">
        <ele>401</ele>
        <time>2019-01-18T09:28:07.000Z</time>
      </trkpt>
      <trkpt lat="43.33673" lon="5.67527">
        <ele>401</ele>
        <time>2019-01-18T09:28:08.000Z</time>
      </trkpt>
      <trkpt lat="43.33673" lon="5.67527">
        <ele>401</ele>
        <time>2019-01-18T09:28:09.000Z</time>
      </trkpt>
      <trkpt lat="43.33673" lon="5.67527">
        <ele>401</ele>
        <time>2019-01-18T09:28:10.000Z</time>
      </trkpt>
      <trkpt lat="43.33673" lon="5.67527">
        <ele>401</ele>
        <time>2019-01-18T09:28:11.000Z</time>
      </trkpt>
      <trkpt lat="43.33673" lon="5.67527">
        <ele>401</ele>
        <time>2019-01-18T09:28:12.000Z</time>
      </trkpt>
      <trkpt lat="43.33673" lon="5.67528">
        <ele>401</ele>
        <time>2019-01-18T09:28:13.000Z</time>
      </trkpt>
      <trkpt lat="43.33673" lon="5.67528">
        <ele>401</ele>
        <time>2019-01-18T09:28:14.000Z</time>
      </trkpt>
      <trkpt lat="43.33673" lon="5.67528">
        <ele>401</ele>
        <time>2019-01-18T09:28:15.000Z</time>
      </trkpt>
      <trkpt lat="43.33673" lon="5.67528">
        <ele>401</ele>
        <time>2019-01-18T09:28:16.000Z</time>
      </trkpt>
      <trkpt lat="43.33673" lon="5.67528">
        <ele>401</ele>
        <time>2019-01-18T09:28:17.000Z</time>
      </trkpt>
      <trkpt lat="43.33673" lon="5.67528">
        <ele>401</ele>
        <time>2019-01-18T09:28:18.000Z</time>
      </trkpt>
      <trkpt lat="43.33673" lon="5.67528">
        <ele>401</ele>
        <time>2019-01-18T09:28:19.000Z</time>
      </trkpt>
      <trkpt lat="43.33673" lon="5.67528">
        <ele>401</ele>
        <time>2019-01-18T09:28:20.000Z</time>
      </trkpt>
      <trkpt lat="43.33673" lon="5.67528">
        <ele>401</ele>
        <time>2019-01-18T09:28:21.000Z</time>
      </trkpt>
      <trkpt lat="43.33673" lon="5.67528">
        <ele>401</ele>
        <time>2019-01-18T09:28:22.000Z</time>
      </trkpt>
      <trkpt lat="43.33673" lon="5.67528">
        <ele>401</ele>
        <time>2019-01-18T09:28:23.000Z</time>
      </trkpt>
      <trkpt lat="43.33673" lon="5.67529">
        <ele>401</ele>
        <time>2019-01-18T09:28:24.000Z</time>
      </trkpt>
      <trkpt lat="43.33673" lon="5.67529">
        <ele>401</ele>
        <time>2019-01-18T09:28:25.000Z</time>
      </trkpt>
      <trkpt lat="43.33673" lon="5.6753">
        <ele>401</ele>
        <time>2019-01-18T09:28:26.000Z</time>
      </trkpt>
      <trkpt lat="43.33673" lon="5.67531">
        <ele>402</ele>
        <time>2019-01-18T09:28:27.000Z</time>
      </trkpt>
      <trkpt lat="43.33672" lon="5.67532">
        <ele>402</ele>
        <time>2019-01-18T09:28:28.000Z</time>
      </trkpt>
      <trkpt lat="43.33672" lon="5.67533">
        <ele>402</ele>
        <time>2019-01-18T09:28:29.000Z</time>
      </trkpt>
      <trkpt lat="43.33672" lon="5.67534">
        <ele>402</ele>
        <time>2019-01-18T09:28:30.000Z</time>
      </trkpt>
      <trkpt lat="43.33672" lon="5.67534">
        <ele>402</ele>
        <time>2019-01-18T09:28:31.000Z</time>
      </trkpt>
      <trkpt lat="43.33672" lon="5.67534">
        <ele>402</ele>
        <time>2019-01-18T09:28:32.000Z</time>
      </trkpt>
      <trkpt lat="43.33672" lon="5.67534">
        <ele>402</ele>
        <time>2019-01-18T09:28:33.000Z</time>
      </trkpt>
      <trkpt lat="43.33672" lon="5.67534">
        <ele>402</ele>
        <time>2019-01-18T09:28:34.000Z</time>
      </trkpt>
      <trkpt lat="43.33672" lon="5.67535">
        <ele>402</ele>
        <time>2019-01-18T09:28:35.000Z</time>
      </trkpt>
      <trkpt lat="43.33672" lon="5.67535">
        <ele>402</ele>
        <time>2019-01-18T09:28:36.000Z</time>
      </trkpt>
      <trkpt lat="43.33672" lon="5.67535">
        <ele>403</ele>
        <time>2019-01-18T09:28:37.000Z</time>
      </trkpt>
      <trkpt lat="43.33672" lon="5.67535">
        <ele>403</ele>
        <time>2019-01-18T09:28:38.000Z</time>
      </trkpt>
      <trkpt lat="43.33672" lon="5.67536">
        <ele>403</ele>
        <time>2019-01-18T09:28:39.000Z</time>
      </trkpt>
      <trkpt lat="43.33672" lon="5.67537">
        <ele>403</ele>
        <time>2019-01-18T09:28:40.000Z</time>
      </trkpt>
      <trkpt lat="43.33672" lon="5.67538">
        <ele>403</ele>
        <time>2019-01-18T09:28:41.000Z</time>
      </trkpt>
      <trkpt lat="43.33672" lon="5.67538">
        <ele>403</ele>
        <time>2019-01-18T09:28:42.000Z</time>
      </trkpt>
      <trkpt lat="43.33672" lon="5.67538">
        <ele>403</ele>
        <time>2019-01-18T09:28:43.000Z</time>
      </trkpt>
      <trkpt lat="43.33672" lon="5.67537">
        <ele>403</ele>
        <time>2019-01-18T09:28:44.000Z</time>
      </trkpt>
      <trkpt lat="43.33673" lon="5.67537">
        <ele>404</ele>
        <time>2019-01-18T09:28:45.000Z</time>
      </trkpt>
      <trkpt lat="43.33673" lon="5.67537">
        <ele>404</ele>
        <time>2019-01-18T09:28:46.000Z</time>
      </trkpt>
      <trkpt lat="43.33673" lon="5.67537">
        <ele>404</ele>
        <time>2019-01-18T09:28:47.000Z</time>
      </trkpt>
      <trkpt lat="43.33673" lon="5.67537">
        <ele>404</ele>
        <time>2019-01-18T09:28:48.000Z</time>
      </trkpt>
      <trkpt lat="43.33673" lon="5.67537">
        <ele>404</ele>
        <time>2019-01-18T09:28:49.000Z</time>
      </trkpt>
      <trkpt lat="43.33673" lon="5.67537">
        <ele>404</ele>
        <time>2019-01-18T09:28:50.000Z</time>
      </trkpt>
      <trkpt lat="43.33673" lon="5.67537">
        <ele>404</ele>
        <time>2019-01-18T09:28:51.000Z</time>
      </trkpt>
      <trkpt lat="43.33673" lon="5.67537">
        <ele>404</ele>
        <time>2019-01-18T09:28:52.000Z</time>
      </trkpt>
      <trkpt lat="43.33673" lon="5.67537">
        <ele>405</ele>
        <time>2019-01-18T09:28:53.000Z</time>
      </trkpt>
      <trkpt lat="43.33673" lon="5.67537">
        <ele>405</ele>
        <time>2019-01-18T09:28:54.000Z</time>
      </trkpt>
      <trkpt lat="43.33673" lon="5.67537">
        <ele>405</ele>
        <time>2019-01-18T09:28:55.000Z</time>
      </trkpt>
      <trkpt lat="43.33673" lon="5.67537">
        <ele>405</ele>
        <time>2019-01-18T09:28:56.000Z</time>
      </trkpt>
      <trkpt lat="43.33673" lon="5.67537">
        <ele>405</ele>
        <time>2019-01-18T09:28:57.000Z</time>
      </trkpt>
      <trkpt lat="43.33673" lon="5.67537">
        <ele>405</ele>
        <time>2019-01-18T09:28:58.000Z</time>
      </trkpt>
      <trkpt lat="43.33673" lon="5.67537">
        <ele>405</ele>
        <time>2019-01-18T09:28:59.000Z</time>
      </trkpt>
      <trkpt lat="43.33674" lon="5.67536">
        <ele>405</ele>
        <time>2019-01-18T09:29:00.000Z</time>
      </trkpt>
      <trkpt lat="43.33674" lon="5.67535">
        <ele>405</ele>
        <time>2019-01-18T09:29:01.000Z</time>
      </trkpt>
      <trkpt lat="43.33675" lon="5.67535">
        <ele>405</ele>
        <time>2019-01-18T09:29:02.000Z</time>
      </trkpt>
      <trkpt lat="43.33675" lon="5.67534">
        <ele>405</ele>
        <time>2019-01-18T09:29:03.000Z</time>
      </trkpt>
      <trkpt lat="43.33675" lon="5.67535">
        <ele>406</ele>
        <time>2019-01-18T09:29:04.000Z</time>
      </trkpt>
      <trkpt lat="43.33674" lon="5.67535">
        <ele>406</ele>
        <time>2019-01-18T09:29:05.000Z</time>
      </trkpt>
      <trkpt lat="43.33674" lon="5.67536">
        <ele>406</ele>
        <time>2019-01-18T09:29:06.000Z</time>
      </trkpt>
      <trkpt lat="43.33673" lon="5.67536">
        <ele>406</ele>
        <time>2019-01-18T09:29:07.000Z</time>
      </trkpt>
      <trkpt lat="43.33672" lon="5.67536">
        <ele>406</ele>
        <time>2019-01-18T09:29:08.000Z</time>
      </trkpt>
      <trkpt lat="43.33672" lon="5.67537">
        <ele>406</ele>
        <time>2019-01-18T09:29:09.000Z</time>
      </trkpt>
      <trkpt lat="43.33671" lon="5.67538">
        <ele>406</ele>
        <time>2019-01-18T09:29:10.000Z</time>
      </trkpt>
      <trkpt lat="43.33671" lon="5.6754">
        <ele>406</ele>
        <time>2019-01-18T09:29:11.000Z</time>
      </trkpt>
      <trkpt lat="43.3367" lon="5.67541">
        <ele>406</ele>
        <time>2019-01-18T09:29:12.000Z</time>
      </trkpt>
      <trkpt lat="43.3367" lon="5.67543">
        <ele>406</ele>
        <time>2019-01-18T09:29:13.000Z</time>
      </trkpt>
      <trkpt lat="43.3367" lon="5.67543">
        <ele>406</ele>
        <time>2019-01-18T09:29:14.000Z</time>
      </trkpt>
      <trkpt lat="43.3367" lon="5.67544">
        <ele>406</ele>
        <time>2019-01-18T09:29:15.000Z</time>
      </trkpt>
      <trkpt lat="43.3367" lon="5.67544">
        <ele>406</ele>
        <time>2019-01-18T09:29:16.000Z</time>
      </trkpt>
      <trkpt lat="43.3367" lon="5.67544">
        <ele>406</ele>
        <time>2019-01-18T09:29:17.000Z</time>
      </trkpt>
      <trkpt lat="43.3367" lon="5.67544">
        <ele>406</ele>
        <time>2019-01-18T09:29:18.000Z</time>
      </trkpt>
      <trkpt lat="43.3367" lon="5.67544">
        <ele>406</ele>
        <time>2019-01-18T09:29:19.000Z</time>
      </trkpt>
      <trkpt lat="43.3367" lon="5.67545">
        <ele>406</ele>
        <time>2019-01-18T09:29:20.000Z</time>
      </trkpt>
      <trkpt lat="43.3367" lon="5.67545">
        <ele>407</ele>
        <time>2019-01-18T09:29:21.000Z</time>
      </trkpt>
      <trkpt lat="43.3367" lon="5.67545">
        <ele>407</ele>
        <time>2019-01-18T09:29:22.000Z</time>
      </trkpt>
      <trkpt lat="43.3367" lon="5.67545">
        <ele>407</ele>
        <time>2019-01-18T09:29:23.000Z</time>
      </trkpt>
      <trkpt lat="43.3367" lon="5.67545">
        <ele>407</ele>
        <time>2019-01-18T09:29:24.000Z</time>
      </trkpt>
      <trkpt lat="43.3367" lon="5.67545">
        <ele>407</ele>
        <time>2019-01-18T09:29:25.000Z</time>
      </trkpt>
      <trkpt lat="43.3367" lon="5.67546">
        <ele>407</ele>
        <time>2019-01-18T09:29:26.000Z</time>
      </trkpt>
      <trkpt lat="43.3367" lon="5.67546">
        <ele>407</ele>
        <time>2019-01-18T09:29:27.000Z</time>
      </trkpt>
      <trkpt lat="43.3367" lon="5.67547">
        <ele>407</ele>
        <time>2019-01-18T09:29:28.000Z</time>
      </trkpt>
      <trkpt lat="43.3367" lon="5.67547">
        <ele>407</ele>
        <time>2019-01-18T09:29:29.000Z</time>
      </trkpt>
      <trkpt lat="43.3367" lon="5.67547">
        <ele>407</ele>
        <time>2019-01-18T09:29:30.000Z</time>
      </trkpt>
      <trkpt lat="43.3367" lon="5.67547">
        <ele>407</ele>
        <time>2019-01-18T09:29:31.000Z</time>
      </trkpt>
      <trkpt lat="43.3367" lon="5.67547">
        <ele>407</ele>
        <time>2019-01-18T09:29:32.000Z</time>
      </trkpt>
      <trkpt lat="43.3367" lon="5.67547">
        <ele>407</ele>
        <time>2019-01-18T09:29:33.000Z</time>
      </trkpt>
      <trkpt lat="43.33671" lon="5.67547">
        <ele>407</ele>
        <time>2019-01-18T09:29:34.000Z</time>
      </trkpt>
      <trkpt lat="43.33671" lon="5.67547">
        <ele>407</ele>
        <time>2019-01-18T09:29:35.000Z</time>
      </trkpt>
      <trkpt lat="43.33671" lon="5.67547">
        <ele>407</ele>
        <time>2019-01-18T09:29:36.000Z</time>
      </trkpt>
      <trkpt lat="43.33671" lon="5.67547">
        <ele>407</ele>
        <time>2019-01-18T09:29:37.000Z</time>
      </trkpt>
      <trkpt lat="43.33671" lon="5.67547">
        <ele>407</ele>
        <time>2019-01-18T09:29:38.000Z</time>
      </trkpt>
      <trkpt lat="43.33671" lon="5.67547">
        <ele>407</ele>
        <time>2019-01-18T09:29:39.000Z</time>
      </trkpt>
      <trkpt lat="43.33671" lon="5.67547">
        <ele>407</ele>
        <time>2019-01-18T09:29:40.000Z</time>
      </trkpt>
      <trkpt lat="43.33671" lon="5.67547">
        <ele>407</ele>
        <time>2019-01-18T09:29:41.000Z</time>
      </trkpt>
      <trkpt lat="43.33671" lon="5.67547">
        <ele>407</ele>
        <time>2019-01-18T09:29:42.000Z</time>
      </trkpt>
      <trkpt lat="43.33671" lon="5.67547">
        <ele>407</ele>
        <time>2019-01-18T09:29:43.000Z</time>
      </trkpt>
      <trkpt lat="43.33671" lon="5.67548">
        <ele>407</ele>
        <time>2019-01-18T09:29:44.000Z</time>
      </trkpt>
      <trkpt lat="43.33671" lon="5.67548">
        <ele>407</ele>
        <time>2019-01-18T09:29:45.000Z</time>
      </trkpt>
      <trkpt lat="43.33671" lon="5.67548">
        <ele>407</ele>
        <time>2019-01-18T09:29:46.000Z</time>
      </trkpt>
      <trkpt lat="43.33671" lon="5.67548">
        <ele>407</ele>
        <time>2019-01-18T09:29:47.000Z</time>
      </trkpt>
      <trkpt lat="43.33671" lon="5.67548">
        <ele>407</ele>
        <time>2019-01-18T09:29:48.000Z</time>
      </trkpt>
      <trkpt lat="43.33671" lon="5.67548">
        <ele>407</ele>
        <time>2019-01-18T09:29:49.000Z</time>
      </trkpt>
      <trkpt lat="43.33671" lon="5.67548">
        <ele>407</ele>
        <time>2019-01-18T09:29:50.000Z</time>
      </trkpt>
      <trkpt lat="43.33671" lon="5.67548">
        <ele>407</ele>
        <time>2019-01-18T09:29:51.000Z</time>
      </trkpt>
      <trkpt lat="43.33671" lon="5.67548">
        <ele>407</ele>
        <time>2019-01-18T09:29:52.000Z</time>
      </trkpt>
      <trkpt lat="43.33671" lon="5.67548">
        <ele>407</ele>
        <time>2019-01-18T09:29:53.000Z</time>
      </trkpt>
      <trkpt lat="43.33671" lon="5.67548">
        <ele>407</ele>
        <time>2019-01-18T09:29:54.000Z</time>
      </trkpt>
      <trkpt lat="43.33671" lon="5.67548">
        <ele>407</ele>
        <time>2019-01-18T09:29:55.000Z</time>
      </trkpt>
      <trkpt lat="43.33671" lon="5.67548">
        <ele>407</ele>
        <time>2019-01-18T09:29:56.000Z</time>
      </trkpt>
      <trkpt lat="43.33671" lon="5.67548">
        <ele>407</ele>
        <time>2019-01-18T09:29:57.000Z</time>
      </trkpt>
      <trkpt lat="43.33671" lon="5.67548">
        <ele>407</ele>
        <time>2019-01-18T09:29:58.000Z</time>
      </trkpt>
      <trkpt lat="43.33671" lon="5.67548">
        <ele>407</ele>
        <time>2019-01-18T09:29:59.000Z</time>
      </trkpt>
      <trkpt lat="43.3367" lon="5.67548">
        <ele>407</ele>
        <time>2019-01-18T09:30:00.000Z</time>
      </trkpt>
      <trkpt lat="43.3367" lon="5.67548">
        <ele>407</ele>
        <time>2019-01-18T09:30:01.000Z</time>
      </trkpt>
      <trkpt lat="43.3367" lon="5.67548">
        <ele>407</ele>
        <time>2019-01-18T09:30:02.000Z</time>
      </trkpt>
      <trkpt lat="43.3367" lon="5.67548">
        <ele>407</ele>
        <time>2019-01-18T09:30:03.000Z</time>
      </trkpt>
      <trkpt lat="43.3367" lon="5.67549">
        <ele>407</ele>
        <time>2019-01-18T09:30:04.000Z</time>
      </trkpt>
      <trkpt lat="43.3367" lon="5.6755">
        <ele>407</ele>
        <time>2019-01-18T09:30:05.000Z</time>
      </trkpt>
      <trkpt lat="43.3367" lon="5.67551">
        <ele>407</ele>
        <time>2019-01-18T09:30:06.000Z</time>
      </trkpt>
      <trkpt lat="43.3367" lon="5.67552">
        <ele>407</ele>
        <time>2019-01-18T09:30:07.000Z</time>
      </trkpt>
      <trkpt lat="43.3367" lon="5.67553">
        <ele>407</ele>
        <time>2019-01-18T09:30:08.000Z</time>
      </trkpt>
      <trkpt lat="43.3367" lon="5.67553">
        <ele>407</ele>
        <time>2019-01-18T09:30:09.000Z</time>
      </trkpt>
      <trkpt lat="43.3367" lon="5.67553">
        <ele>407</ele>
        <time>2019-01-18T09:30:10.000Z</time>
      </trkpt>
      <trkpt lat="43.3367" lon="5.67553">
        <ele>407</ele>
        <time>2019-01-18T09:30:11.000Z</time>
      </trkpt>
      <trkpt lat="43.3367" lon="5.67554">
        <ele>407</ele>
        <time>2019-01-18T09:30:12.000Z</time>
      </trkpt>
      <trkpt lat="43.3367" lon="5.67555">
        <ele>408</ele>
        <time>2019-01-18T09:30:13.000Z</time>
      </trkpt>
      <trkpt lat="43.3367" lon="5.67555">
        <ele>407</ele>
        <time>2019-01-18T09:30:14.000Z</time>
      </trkpt>
      <trkpt lat="43.3367" lon="5.67556">
        <ele>407</ele>
        <time>2019-01-18T09:30:15.000Z</time>
      </trkpt>
      <trkpt lat="43.33671" lon="5.67557">
        <ele>407</ele>
        <time>2019-01-18T09:30:16.000Z</time>
      </trkpt>
      <trkpt lat="43.33671" lon="5.67558">
        <ele>407</ele>
        <time>2019-01-18T09:30:17.000Z</time>
      </trkpt>
      <trkpt lat="43.33671" lon="5.67559">
        <ele>407</ele>
        <time>2019-01-18T09:30:18.000Z</time>
      </trkpt>
      <trkpt lat="43.33672" lon="5.6756">
        <ele>408</ele>
        <time>2019-01-18T09:30:19.000Z</time>
      </trkpt>
      <trkpt lat="43.33672" lon="5.67561">
        <ele>408</ele>
        <time>2019-01-18T09:30:20.000Z</time>
      </trkpt>
      <trkpt lat="43.33672" lon="5.67562">
        <ele>408</ele>
        <time>2019-01-18T09:30:21.000Z</time>
      </trkpt>
      <trkpt lat="43.33672" lon="5.67562">
        <ele>408</ele>
        <time>2019-01-18T09:30:22.000Z</time>
      </trkpt>
      <trkpt lat="43.33672" lon="5.67562">
        <ele>408</ele>
        <time>2019-01-18T09:30:23.000Z</time>
      </trkpt>
      <trkpt lat="43.33672" lon="5.67562">
        <ele>408</ele>
        <time>2019-01-18T09:30:24.000Z</time>
      </trkpt>
      <trkpt lat="43.33672" lon="5.67562">
        <ele>408</ele>
        <time>2019-01-18T09:30:25.000Z</time>
      </trkpt>
      <trkpt lat="43.33672" lon="5.67562">
        <ele>409</ele>
        <time>2019-01-18T09:30:26.000Z</time>
      </trkpt>
      <trkpt lat="43.33672" lon="5.67563">
        <ele>409</ele>
        <time>2019-01-18T09:30:27.000Z</time>
      </trkpt>
      <trkpt lat="43.33673" lon="5.67562">
        <ele>409</ele>
        <time>2019-01-18T09:30:28.000Z</time>
      </trkpt>
      <trkpt lat="43.33673" lon="5.67562">
        <ele>409</ele>
        <time>2019-01-18T09:30:29.000Z</time>
      </trkpt>
      <trkpt lat="43.33673" lon="5.67562">
        <ele>409</ele>
        <time>2019-01-18T09:30:30.000Z</time>
      </trkpt>
      <trkpt lat="43.33673" lon="5.67563">
        <ele>409</ele>
        <time>2019-01-18T09:30:31.000Z</time>
      </trkpt>
      <trkpt lat="43.33673" lon="5.67563">
        <ele>409</ele>
        <time>2019-01-18T09:30:32.000Z</time>
      </trkpt>
      <trkpt lat="43.33674" lon="5.67564">
        <ele>409</ele>
        <time>2019-01-18T09:30:33.000Z</time>
      </trkpt>
      <trkpt lat="43.33674" lon="5.67564">
        <ele>410</ele>
        <time>2019-01-18T09:30:34.000Z</time>
      </trkpt>
      <trkpt lat="43.33674" lon="5.67565">
        <ele>410</ele>
        <time>2019-01-18T09:30:35.000Z</time>
      </trkpt>
      <trkpt lat="43.33674" lon="5.67565">
        <ele>410</ele>
        <time>2019-01-18T09:30:36.000Z</time>
      </trkpt>
      <trkpt lat="43.33674" lon="5.67566">
        <ele>410</ele>
        <time>2019-01-18T09:30:37.000Z</time>
      </trkpt>
      <trkpt lat="43.33674" lon="5.67566">
        <ele>410</ele>
        <time>2019-01-18T09:30:38.000Z</time>
      </trkpt>
      <trkpt lat="43.33674" lon="5.67566">
        <ele>410</ele>
        <time>2019-01-18T09:30:39.000Z</time>
      </trkpt>
      <trkpt lat="43.33674" lon="5.67567">
        <ele>410</ele>
        <time>2019-01-18T09:30:40.000Z</time>
      </trkpt>
      <trkpt lat="43.33674" lon="5.67567">
        <ele>410</ele>
        <time>2019-01-18T09:30:41.000Z</time>
      </trkpt>
      <trkpt lat="43.33675" lon="5.67567">
        <ele>411</ele>
        <time>2019-01-18T09:30:42.000Z</time>
      </trkpt>
      <trkpt lat="43.33675" lon="5.67567">
        <ele>411</ele>
        <time>2019-01-18T09:30:43.000Z</time>
      </trkpt>
      <trkpt lat="43.33675" lon="5.67568">
        <ele>411</ele>
        <time>2019-01-18T09:30:44.000Z</time>
      </trkpt>
      <trkpt lat="43.33675" lon="5.67567">
        <ele>411</ele>
        <time>2019-01-18T09:30:45.000Z</time>
      </trkpt>
      <trkpt lat="43.33675" lon="5.67567">
        <ele>411</ele>
        <time>2019-01-18T09:30:46.000Z</time>
      </trkpt>
      <trkpt lat="43.33675" lon="5.67567">
        <ele>411</ele>
        <time>2019-01-18T09:30:47.000Z</time>
      </trkpt>
      <trkpt lat="43.33676" lon="5.67567">
        <ele>411</ele>
        <time>2019-01-18T09:30:48.000Z</time>
      </trkpt>
      <trkpt lat="43.33676" lon="5.67567">
        <ele>411</ele>
        <time>2019-01-18T09:30:49.000Z</time>
      </trkpt>
      <trkpt lat="43.33676" lon="5.67567">
        <ele>412</ele>
        <time>2019-01-18T09:30:50.000Z</time>
      </trkpt>
      <trkpt lat="43.33676" lon="5.67568">
        <ele>412</ele>
        <time>2019-01-18T09:30:51.000Z</time>
      </trkpt>
      <trkpt lat="43.33676" lon="5.67568">
        <ele>412</ele>
        <time>2019-01-18T09:30:52.000Z</time>
      </trkpt>
      <trkpt lat="43.33676" lon="5.67568">
        <ele>412</ele>
        <time>2019-01-18T09:30:53.000Z</time>
      </trkpt>
      <trkpt lat="43.33676" lon="5.67568">
        <ele>412</ele>
        <time>2019-01-18T09:30:54.000Z</time>
      </trkpt>
      <trkpt lat="43.33676" lon="5.67568">
        <ele>412</ele>
        <time>2019-01-18T09:30:55.000Z</time>
      </trkpt>
      <trkpt lat="43.33676" lon="5.67568">
        <ele>412</ele>
        <time>2019-01-18T09:30:56.000Z</time>
      </trkpt>
      <trkpt lat="43.33676" lon="5.67568">
        <ele>412</ele>
        <time>2019-01-18T09:30:57.000Z</time>
      </trkpt>
      <trkpt lat="43.33676" lon="5.67568">
        <ele>412</ele>
        <time>2019-01-18T09:30:58.000Z</time>
      </trkpt>
      <trkpt lat="43.33676" lon="5.67568">
        <ele>412</ele>
        <time>2019-01-18T09:30:59.000Z</time>
      </trkpt>
      <trkpt lat="43.33676" lon="5.67568">
        <ele>412</ele>
        <time>2019-01-18T09:31:00.000Z</time>
      </trkpt>
      <trkpt lat="43.33676" lon="5.67568">
        <ele>412</ele>
        <time>2019-01-18T09:31:01.000Z</time>
      </trkpt>
      <trkpt lat="43.33676" lon="5.67568">
        <ele>413</ele>
        <time>2019-01-18T09:31:02.000Z</time>
      </trkpt>
      <trkpt lat="43.33676" lon="5.67568">
        <ele>413</ele>
        <time>2019-01-18T09:31:03.000Z</time>
      </trkpt>
      <trkpt lat="43.33676" lon="5.67568">
        <ele>413</ele>
        <time>2019-01-18T09:31:04.000Z</time>
      </trkpt>
      <trkpt lat="43.33676" lon="5.67568">
        <ele>413</ele>
        <time>2019-01-18T09:31:05.000Z</time>
      </trkpt>
      <trkpt lat="43.33676" lon="5.67568">
        <ele>413</ele>
        <time>2019-01-18T09:31:06.000Z</time>
      </trkpt>
      <trkpt lat="43.33676" lon="5.67568">
        <ele>413</ele>
        <time>2019-01-18T09:31:07.000Z</time>
      </trkpt>
      <trkpt lat="43.33677" lon="5.67568">
        <ele>413</ele>
        <time>2019-01-18T09:31:08.000Z</time>
      </trkpt>
      <trkpt lat="43.33677" lon="5.67568">
        <ele>413</ele>
        <time>2019-01-18T09:31:09.000Z</time>
      </trkpt>
      <trkpt lat="43.33677" lon="5.67569">
        <ele>413</ele>
        <time>2019-01-18T09:31:10.000Z</time>
      </trkpt>
      <trkpt lat="43.33677" lon="5.6757">
        <ele>414</ele>
        <time>2019-01-18T09:31:11.000Z</time>
      </trkpt>
      <trkpt lat="43.33677" lon="5.6757">
        <ele>414</ele>
        <time>2019-01-18T09:31:12.000Z</time>
      </trkpt>
      <trkpt lat="43.33677" lon="5.67571">
        <ele>414</ele>
        <time>2019-01-18T09:31:13.000Z</time>
      </trkpt>
      <trkpt lat="43.33677" lon="5.67571">
        <ele>414</ele>
        <time>2019-01-18T09:31:14.000Z</time>
      </trkpt>
      <trkpt lat="43.33677" lon="5.67571">
        <ele>414</ele>
        <time>2019-01-18T09:31:15.000Z</time>
      </trkpt>
      <trkpt lat="43.33677" lon="5.67571">
        <ele>414</ele>
        <time>2019-01-18T09:31:16.000Z</time>
      </trkpt>
      <trkpt lat="43.33677" lon="5.6757">
        <ele>414</ele>
        <time>2019-01-18T09:31:17.000Z</time>
      </trkpt>
      <trkpt lat="43.33677" lon="5.6757">
        <ele>414</ele>
        <time>2019-01-18T09:31:18.000Z</time>
      </trkpt>
      <trkpt lat="43.33677" lon="5.6757">
        <ele>415</ele>
        <time>2019-01-18T09:31:19.000Z</time>
      </trkpt>
      <trkpt lat="43.33677" lon="5.6757">
        <ele>415</ele>
        <time>2019-01-18T09:31:20.000Z</time>
      </trkpt>
      <trkpt lat="43.33677" lon="5.6757">
        <ele>415</ele>
        <time>2019-01-18T09:31:21.000Z</time>
      </trkpt>
      <trkpt lat="43.33677" lon="5.6757">
        <ele>415</ele>
        <time>2019-01-18T09:31:22.000Z</time>
      </trkpt>
      <trkpt lat="43.33677" lon="5.67569">
        <ele>415</ele>
        <time>2019-01-18T09:31:23.000Z</time>
      </trkpt>
      <trkpt lat="43.33677" lon="5.67569">
        <ele>415</ele>
        <time>2019-01-18T09:31:24.000Z</time>
      </trkpt>
      <trkpt lat="43.33677" lon="5.67568">
        <ele>415</ele>
        <time>2019-01-18T09:31:25.000Z</time>
      </trkpt>
      <trkpt lat="43.33677" lon="5.67568">
        <ele>416</ele>
        <time>2019-01-18T09:31:26.000Z</time>
      </trkpt>
      <trkpt lat="43.33677" lon="5.67568">
        <ele>416</ele>
        <time>2019-01-18T09:31:27.000Z</time>
      </trkpt>
      <trkpt lat="43.33677" lon="5.67568">
        <ele>416</ele>
        <time>2019-01-18T09:31:28.000Z</time>
      </trkpt>
      <trkpt lat="43.33677" lon="5.67568">
        <ele>416</ele>
        <time>2019-01-18T09:31:29.000Z</time>
      </trkpt>
      <trkpt lat="43.33677" lon="5.67568">
        <ele>416</ele>
        <time>2019-01-18T09:31:30.000Z</time>
      </trkpt>
      <trkpt lat="43.33677" lon="5.67568">
        <ele>416</ele>
        <time>2019-01-18T09:31:31.000Z</time>
      </trkpt>
      <trkpt lat="43.33677" lon="5.67568">
        <ele>417</ele>
        <time>2019-01-18T09:31:32.000Z</time>
      </trkpt>
      <trkpt lat="43.33677" lon="5.67568">
        <ele>417</ele>
        <time>2019-01-18T09:31:33.000Z</time>
      </trkpt>
      <trkpt lat="43.33677" lon="5.67568">
        <ele>417</ele>
        <time>2019-01-18T09:31:34.000Z</time>
      </trkpt>
      <trkpt lat="43.33677" lon="5.67568">
        <ele>417</ele>
        <time>2019-01-18T09:31:35.000Z</time>
      </trkpt>
      <trkpt lat="43.33677" lon="5.67568">
        <ele>417</ele>
        <time>2019-01-18T09:31:36.000Z</time>
      </trkpt>
      <trkpt lat="43.33677" lon="5.67568">
        <ele>417</ele>
        <time>2019-01-18T09:31:37.000Z</time>
      </trkpt>
      <trkpt lat="43.33677" lon="5.67568">
        <ele>418</ele>
        <time>2019-01-18T09:31:38.000Z</time>
      </trkpt>
      <trkpt lat="43.33677" lon="5.67568">
        <ele>418</ele>
        <time>2019-01-18T09:31:39.000Z</time>
      </trkpt>
      <trkpt lat="43.33677" lon="5.67568">
        <ele>418</ele>
        <time>2019-01-18T09:31:40.000Z</time>
      </trkpt>
      <trkpt lat="43.33677" lon="5.67568">
        <ele>418</ele>
        <time>2019-01-18T09:31:41.000Z</time>
      </trkpt>
      <trkpt lat="43.33676" lon="5.67568">
        <ele>418</ele>
        <time>2019-01-18T09:31:42.000Z</time>
      </trkpt>
      <trkpt lat="43.33676" lon="5.67568">
        <ele>418</ele>
        <time>2019-01-18T09:31:43.000Z</time>
      </trkpt>
      <trkpt lat="43.33676" lon="5.67568">
        <ele>418</ele>
        <time>2019-01-18T09:31:44.000Z</time>
      </trkpt>
      <trkpt lat="43.33676" lon="5.67568">
        <ele>419</ele>
        <time>2019-01-18T09:31:45.000Z</time>
      </trkpt>
      <trkpt lat="43.33676" lon="5.67569">
        <ele>419</ele>
        <time>2019-01-18T09:31:46.000Z</time>
      </trkpt>
      <trkpt lat="43.33676" lon="5.67569">
        <ele>419</ele>
        <time>2019-01-18T09:31:47.000Z</time>
      </trkpt>
      <trkpt lat="43.33676" lon="5.67569">
        <ele>419</ele>
        <time>2019-01-18T09:31:48.000Z</time>
      </trkpt>
      <trkpt lat="43.33676" lon="5.67569">
        <ele>419</ele>
        <time>2019-01-18T09:31:49.000Z</time>
      </trkpt>
      <trkpt lat="43.33676" lon="5.67569">
        <ele>419</ele>
        <time>2019-01-18T09:31:50.000Z</time>
      </trkpt>
      <trkpt lat="43.33676" lon="5.67569">
        <ele>419</ele>
        <time>2019-01-18T09:31:51.000Z</time>
      </trkpt>
      <trkpt lat="43.33675" lon="5.67569">
        <ele>419</ele>
        <time>2019-01-18T09:31:52.000Z</time>
      </trkpt>
      <trkpt lat="43.33675" lon="5.67569">
        <ele>420</ele>
        <time>2019-01-18T09:31:53.000Z</time>
      </trkpt>
      <trkpt lat="43.33675" lon="5.67569">
        <ele>420</ele>
        <time>2019-01-18T09:31:54.000Z</time>
      </trkpt>
      <trkpt lat="43.33675" lon="5.67569">
        <ele>420</ele>
        <time>2019-01-18T09:31:55.000Z</time>
      </trkpt>
      <trkpt lat="43.33675" lon="5.67569">
        <ele>420</ele>
        <time>2019-01-18T09:31:56.000Z</time>
      </trkpt>
      <trkpt lat="43.33675" lon="5.67569">
        <ele>420</ele>
        <time>2019-01-18T09:31:57.000Z</time>
      </trkpt>
      <trkpt lat="43.33675" lon="5.67568">
        <ele>420</ele>
        <time>2019-01-18T09:31:58.000Z</time>
      </trkpt>
      <trkpt lat="43.33676" lon="5.67568">
        <ele>421</ele>
        <time>2019-01-18T09:31:59.000Z</time>
      </trkpt>
      <trkpt lat="43.33675" lon="5.67568">
        <ele>421</ele>
        <time>2019-01-18T09:32:00.000Z</time>
      </trkpt>
      <trkpt lat="43.33675" lon="5.67569">
        <ele>421</ele>
        <time>2019-01-18T09:32:01.000Z</time>
      </trkpt>
      <trkpt lat="43.33675" lon="5.67569">
        <ele>421</ele>
        <time>2019-01-18T09:32:02.000Z</time>
      </trkpt>
      <trkpt lat="43.33675" lon="5.67569">
        <ele>421</ele>
        <time>2019-01-18T09:32:03.000Z</time>
      </trkpt>
      <trkpt lat="43.33675" lon="5.67569">
        <ele>421</ele>
        <time>2019-01-18T09:32:04.000Z</time>
      </trkpt>
      <trkpt lat="43.33675" lon="5.67569">
        <ele>422</ele>
        <time>2019-01-18T09:32:05.000Z</time>
      </trkpt>
      <trkpt lat="43.33675" lon="5.67569">
        <ele>422</ele>
        <time>2019-01-18T09:32:06.000Z</time>
      </trkpt>
      <trkpt lat="43.33675" lon="5.67569">
        <ele>422</ele>
        <time>2019-01-18T09:32:07.000Z</time>
      </trkpt>
      <trkpt lat="43.33675" lon="5.67569">
        <ele>422</ele>
        <time>2019-01-18T09:32:08.000Z</time>
      </trkpt>
      <trkpt lat="43.33675" lon="5.67569">
        <ele>422</ele>
        <time>2019-01-18T09:32:09.000Z</time>
      </trkpt>
      <trkpt lat="43.33675" lon="5.67569">
        <ele>422</ele>
        <time>2019-01-18T09:32:10.000Z</time>
      </trkpt>
      <trkpt lat="43.33675" lon="5.67569">
        <ele>422</ele>
        <time>2019-01-18T09:32:11.000Z</time>
      </trkpt>
      <trkpt lat="43.33675" lon="5.67569">
        <ele>422</ele>
        <time>2019-01-18T09:32:12.000Z</time>
      </trkpt>
      <trkpt lat="43.33675" lon="5.6757">
        <ele>422</ele>
        <time>2019-01-18T09:32:13.000Z</time>
      </trkpt>
      <trkpt lat="43.33675" lon="5.6757">
        <ele>422</ele>
        <time>2019-01-18T09:32:14.000Z</time>
      </trkpt>
      <trkpt lat="43.33675" lon="5.6757">
        <ele>422</ele>
        <time>2019-01-18T09:32:15.000Z</time>
      </trkpt>
      <trkpt lat="43.33674" lon="5.67569">
        <ele>423</ele>
        <time>2019-01-18T09:32:16.000Z</time>
      </trkpt>
      <trkpt lat="43.33674" lon="5.67569">
        <ele>423</ele>
        <time>2019-01-18T09:32:17.000Z</time>
      </trkpt>
      <trkpt lat="43.33674" lon="5.67569">
        <ele>423</ele>
        <time>2019-01-18T09:32:18.000Z</time>
      </trkpt>
      <trkpt lat="43.33674" lon="5.67569">
        <ele>423</ele>
        <time>2019-01-18T09:32:19.000Z</time>
      </trkpt>
      <trkpt lat="43.33674" lon="5.67569">
        <ele>423</ele>
        <time>2019-01-18T09:32:20.000Z</time>
      </trkpt>
      <trkpt lat="43.33675" lon="5.67569">
        <ele>423</ele>
        <time>2019-01-18T09:32:21.000Z</time>
      </trkpt>
      <trkpt lat="43.33675" lon="5.67568">
        <ele>423</ele>
        <time>2019-01-18T09:32:22.000Z</time>
      </trkpt>
      <trkpt lat="43.33675" lon="5.67568">
        <ele>423</ele>
        <time>2019-01-18T09:32:23.000Z</time>
      </trkpt>
      <trkpt lat="43.33675" lon="5.67568">
        <ele>423</ele>
        <time>2019-01-18T09:32:24.000Z</time>
      </trkpt>
      <trkpt lat="43.33675" lon="5.67568">
        <ele>423</ele>
        <time>2019-01-18T09:32:25.000Z</time>
      </trkpt>
      <trkpt lat="43.33675" lon="5.67568">
        <ele>424</ele>
        <time>2019-01-18T09:32:26.000Z</time>
      </trkpt>
      <trkpt lat="43.33675" lon="5.67568">
        <ele>424</ele>
        <time>2019-01-18T09:32:27.000Z</time>
      </trkpt>
      <trkpt lat="43.33675" lon="5.67568">
        <ele>424</ele>
        <time>2019-01-18T09:32:28.000Z</time>
      </trkpt>
      <trkpt lat="43.33675" lon="5.67568">
        <ele>424</ele>
        <time>2019-01-18T09:32:29.000Z</time>
      </trkpt>
      <trkpt lat="43.33675" lon="5.67568">
        <ele>424</ele>
        <time>2019-01-18T09:32:30.000Z</time>
      </trkpt>
      <trkpt lat="43.33675" lon="5.67568">
        <ele>424</ele>
        <time>2019-01-18T09:32:31.000Z</time>
      </trkpt>
      <trkpt lat="43.33674" lon="5.67568">
        <ele>424</ele>
        <time>2019-01-18T09:32:32.000Z</time>
      </trkpt>
      <trkpt lat="43.33674" lon="5.67568">
        <ele>424</ele>
        <time>2019-01-18T09:32:33.000Z</time>
      </trkpt>
      <trkpt lat="43.33674" lon="5.67567">
        <ele>424</ele>
        <time>2019-01-18T09:32:34.000Z</time>
      </trkpt>
      <trkpt lat="43.33674" lon="5.67566">
        <ele>424</ele>
        <time>2019-01-18T09:32:35.000Z</time>
      </trkpt>
      <trkpt lat="43.33673" lon="5.67566">
        <ele>424</ele>
        <time>2019-01-18T09:32:36.000Z</time>
      </trkpt>
      <trkpt lat="43.33673" lon="5.67566">
        <ele>425</ele>
        <time>2019-01-18T09:32:37.000Z</time>
      </trkpt>
      <trkpt lat="43.33673" lon="5.67566">
        <ele>425</ele>
        <time>2019-01-18T09:32:38.000Z</time>
      </trkpt>
      <trkpt lat="43.33673" lon="5.67566">
        <ele>425</ele>
        <time>2019-01-18T09:32:39.000Z</time>
      </trkpt>
      <trkpt lat="43.33673" lon="5.67566">
        <ele>425</ele>
        <time>2019-01-18T09:32:40.000Z</time>
      </trkpt>
      <trkpt lat="43.33673" lon="5.67565">
        <ele>425</ele>
        <time>2019-01-18T09:32:41.000Z</time>
      </trkpt>
      <trkpt lat="43.33673" lon="5.67565">
        <ele>426</ele>
        <time>2019-01-18T09:32:42.000Z</time>
      </trkpt>
      <trkpt lat="43.33672" lon="5.67565">
        <ele>426</ele>
        <time>2019-01-18T09:32:43.000Z</time>
      </trkpt>
      <trkpt lat="43.33672" lon="5.67565">
        <ele>426</ele>
        <time>2019-01-18T09:32:44.000Z</time>
      </trkpt>
      <trkpt lat="43.33672" lon="5.67565">
        <ele>426</ele>
        <time>2019-01-18T09:32:45.000Z</time>
      </trkpt>
      <trkpt lat="43.33671" lon="5.67564">
        <ele>426</ele>
        <time>2019-01-18T09:32:46.000Z</time>
      </trkpt>
      <trkpt lat="43.33671" lon="5.67564">
        <ele>426</ele>
        <time>2019-01-18T09:32:47.000Z</time>
      </trkpt>
      <trkpt lat="43.33671" lon="5.67563">
        <ele>427</ele>
        <time>2019-01-18T09:32:48.000Z</time>
      </trkpt>
      <trkpt lat="43.33671" lon="5.67562">
        <ele>427</ele>
        <time>2019-01-18T09:32:49.000Z</time>
      </trkpt>
      <trkpt lat="43.33671" lon="5.67561">
        <ele>427</ele>
        <time>2019-01-18T09:32:50.000Z</time>
      </trkpt>
      <trkpt lat="43.33671" lon="5.67561">
        <ele>427</ele>
        <time>2019-01-18T09:32:51.000Z</time>
      </trkpt>
      <trkpt lat="43.33671" lon="5.67561">
        <ele>428</ele>
        <time>2019-01-18T09:32:52.000Z</time>
      </trkpt>
      <trkpt lat="43.33671" lon="5.67561">
        <ele>428</ele>
        <time>2019-01-18T09:32:53.000Z</time>
      </trkpt>
      <trkpt lat="43.33672" lon="5.67561">
        <ele>428</ele>
        <time>2019-01-18T09:32:54.000Z</time>
      </trkpt>
      <trkpt lat="43.33672" lon="5.67561">
        <ele>428</ele>
        <time>2019-01-18T09:32:55.000Z</time>
      </trkpt>
      <trkpt lat="43.33672" lon="5.67561">
        <ele>429</ele>
        <time>2019-01-18T09:32:56.000Z</time>
      </trkpt>
      <trkpt lat="43.33672" lon="5.67561">
        <ele>429</ele>
        <time>2019-01-18T09:32:57.000Z</time>
      </trkpt>
      <trkpt lat="43.33672" lon="5.6756">
        <ele>429</ele>
        <time>2019-01-18T09:32:58.000Z</time>
      </trkpt>
      <trkpt lat="43.33672" lon="5.6756">
        <ele>429</ele>
        <time>2019-01-18T09:32:59.000Z</time>
      </trkpt>
      <trkpt lat="43.33672" lon="5.6756">
        <ele>430</ele>
        <time>2019-01-18T09:33:00.000Z</time>
      </trkpt>
      <trkpt lat="43.33672" lon="5.6756">
        <ele>430</ele>
        <time>2019-01-18T09:33:01.000Z</time>
      </trkpt>
      <trkpt lat="43.33672" lon="5.67559">
        <ele>430</ele>
        <time>2019-01-18T09:33:02.000Z</time>
      </trkpt>
      <trkpt lat="43.33672" lon="5.6756">
        <ele>430</ele>
        <time>2019-01-18T09:33:03.000Z</time>
      </trkpt>
      <trkpt lat="43.33672" lon="5.67559">
        <ele>431</ele>
        <time>2019-01-18T09:33:04.000Z</time>
      </trkpt>
      <trkpt lat="43.33672" lon="5.67559">
        <ele>431</ele>
        <time>2019-01-18T09:33:05.000Z</time>
      </trkpt>
      <trkpt lat="43.33672" lon="5.67558">
        <ele>431</ele>
        <time>2019-01-18T09:33:06.000Z</time>
      </trkpt>
      <trkpt lat="43.33672" lon="5.67558">
        <ele>432</ele>
        <time>2019-01-18T09:33:07.000Z</time>
      </trkpt>
      <trkpt lat="43.33672" lon="5.67558">
        <ele>432</ele>
        <time>2019-01-18T09:33:08.000Z</time>
      </trkpt>
      <trkpt lat="43.33671" lon="5.67559">
        <ele>432</ele>
        <time>2019-01-18T09:33:09.000Z</time>
      </trkpt>
      <trkpt lat="43.33671" lon="5.67559">
        <ele>433</ele>
        <time>2019-01-18T09:33:10.000Z</time>
      </trkpt>
      <trkpt lat="43.33671" lon="5.67559">
        <ele>433</ele>
        <time>2019-01-18T09:33:11.000Z</time>
      </trkpt>
      <trkpt lat="43.3367" lon="5.67559">
        <ele>434</ele>
        <time>2019-01-18T09:33:12.000Z</time>
      </trkpt>
      <trkpt lat="43.3367" lon="5.67559">
        <ele>434</ele>
        <time>2019-01-18T09:33:13.000Z</time>
      </trkpt>
      <trkpt lat="43.3367" lon="5.67559">
        <ele>435</ele>
        <time>2019-01-18T09:33:14.000Z</time>
      </trkpt>
      <trkpt lat="43.3367" lon="5.67559">
        <ele>435</ele>
        <time>2019-01-18T09:33:15.000Z</time>
      </trkpt>
      <trkpt lat="43.3367" lon="5.67559">
        <ele>435</ele>
        <time>2019-01-18T09:33:16.000Z</time>
      </trkpt>
      <trkpt lat="43.3367" lon="5.67559">
        <ele>436</ele>
        <time>2019-01-18T09:33:17.000Z</time>
      </trkpt>
      <trkpt lat="43.3367" lon="5.6756">
        <ele>436</ele>
        <time>2019-01-18T09:33:18.000Z</time>
      </trkpt>
      <trkpt lat="43.33669" lon="5.6756">
        <ele>437</ele>
        <time>2019-01-18T09:33:19.000Z</time>
      </trkpt>
      <trkpt lat="43.33669" lon="5.67561">
        <ele>437</ele>
        <time>2019-01-18T09:33:20.000Z</time>
      </trkpt>
      <trkpt lat="43.33669" lon="5.67562">
        <ele>437</ele>
        <time>2019-01-18T09:33:21.000Z</time>
      </trkpt>
      <trkpt lat="43.33668" lon="5.67563">
        <ele>438</ele>
        <time>2019-01-18T09:33:22.000Z</time>
      </trkpt>
      <trkpt lat="43.33668" lon="5.67564">
        <ele>438</ele>
        <time>2019-01-18T09:33:23.000Z</time>
      </trkpt>
      <trkpt lat="43.33668" lon="5.67564">
        <ele>438</ele>
        <time>2019-01-18T09:33:24.000Z</time>
      </trkpt>
      <trkpt lat="43.33668" lon="5.67565">
        <ele>438</ele>
        <time>2019-01-18T09:33:25.000Z</time>
      </trkpt>
      <trkpt lat="43.33667" lon="5.67566">
        <ele>439</ele>
        <time>2019-01-18T09:33:26.000Z</time>
      </trkpt>
      <trkpt lat="43.33667" lon="5.67566">
        <ele>439</ele>
        <time>2019-01-18T09:33:27.000Z</time>
      </trkpt>
      <trkpt lat="43.33667" lon="5.67567">
        <ele>439</ele>
        <time>2019-01-18T09:33:28.000Z</time>
      </trkpt>
      <trkpt lat="43.33667" lon="5.67567">
        <ele>440</ele>
        <time>2019-01-18T09:33:29.000Z</time>
      </trkpt>
      <trkpt lat="43.33667" lon="5.67568">
        <ele>440</ele>
        <time>2019-01-18T09:33:30.000Z</time>
      </trkpt>
      <trkpt lat="43.33667" lon="5.67569">
        <ele>440</ele>
        <time>2019-01-18T09:33:31.000Z</time>
      </trkpt>
      <trkpt lat="43.33667" lon="5.6757">
        <ele>441</ele>
        <time>2019-01-18T09:33:32.000Z</time>
      </trkpt>
      <trkpt lat="43.33667" lon="5.67571">
        <ele>441</ele>
        <time>2019-01-18T09:33:33.000Z</time>
      </trkpt>
      <trkpt lat="43.33667" lon="5.67571">
        <ele>441</ele>
        <time>2019-01-18T09:33:34.000Z</time>
      </trkpt>
      <trkpt lat="43.33667" lon="5.67571">
        <ele>441</ele>
        <time>2019-01-18T09:33:35.000Z</time>
      </trkpt>
      <trkpt lat="43.33666" lon="5.67572">
        <ele>441</ele>
        <time>2019-01-18T09:33:36.000Z</time>
      </trkpt>
      <trkpt lat="43.33666" lon="5.67572">
        <ele>441</ele>
        <time>2019-01-18T09:33:37.000Z</time>
      </trkpt>
      <trkpt lat="43.33666" lon="5.67572">
        <ele>442</ele>
        <time>2019-01-18T09:33:38.000Z</time>
      </trkpt>
      <trkpt lat="43.33665" lon="5.67573">
        <ele>442</ele>
        <time>2019-01-18T09:33:39.000Z</time>
      </trkpt>
      <trkpt lat="43.33665" lon="5.67573">
        <ele>442</ele>
        <time>2019-01-18T09:33:40.000Z</time>
      </trkpt>
      <trkpt lat="43.33664" lon="5.67573">
        <ele>442</ele>
        <time>2019-01-18T09:33:41.000Z</time>
      </trkpt>
      <trkpt lat="43.33664" lon="5.67574">
        <ele>442</ele>
        <time>2019-01-18T09:33:42.000Z</time>
      </trkpt>
      <trkpt lat="43.33664" lon="5.67574">
        <ele>442</ele>
        <time>2019-01-18T09:33:43.000Z</time>
      </trkpt>
      <trkpt lat="43.33664" lon="5.67574">
        <ele>442</ele>
        <time>2019-01-18T09:33:44.000Z</time>
      </trkpt>
      <trkpt lat="43.33664" lon="5.67574">
        <ele>442</ele>
        <time>2019-01-18T09:33:45.000Z</time>
      </trkpt>
      <trkpt lat="43.33663" lon="5.67575">
        <ele>442</ele>
        <time>2019-01-18T09:33:46.000Z</time>
      </trkpt>
      <trkpt lat="43.33663" lon="5.67575">
        <ele>442</ele>
        <time>2019-01-18T09:33:47.000Z</time>
      </trkpt>
      <trkpt lat="43.33662" lon="5.67576">
        <ele>442</ele>
        <time>2019-01-18T09:33:48.000Z</time>
      </trkpt>
      <trkpt lat="43.33662" lon="5.67576">
        <ele>442</ele>
        <time>2019-01-18T09:33:49.000Z</time>
      </trkpt>
      <trkpt lat="43.33662" lon="5.67576">
        <ele>442</ele>
        <time>2019-01-18T09:33:50.000Z</time>
      </trkpt>
      <trkpt lat="43.33662" lon="5.67576">
        <ele>442</ele>
        <time>2019-01-18T09:33:51.000Z</time>
      </trkpt>
      <trkpt lat="43.33662" lon="5.67576">
        <ele>442</ele>
        <time>2019-01-18T09:33:52.000Z</time>
      </trkpt>
      <trkpt lat="43.33662" lon="5.67576">
        <ele>442</ele>
        <time>2019-01-18T09:33:53.000Z</time>
      </trkpt>
      <trkpt lat="43.33662" lon="5.67576">
        <ele>441</ele>
        <time>2019-01-18T09:33:54.000Z</time>
      </trkpt>
      <trkpt lat="43.33662" lon="5.67576">
        <ele>441</ele>
        <time>2019-01-18T09:33:55.000Z</time>
      </trkpt>
      <trkpt lat="43.33662" lon="5.67576">
        <ele>440</ele>
        <time>2019-01-18T09:33:56.000Z</time>
      </trkpt>
      <trkpt lat="43.33662" lon="5.67576">
        <ele>440</ele>
        <time>2019-01-18T09:33:57.000Z</time>
      </trkpt>
      <trkpt lat="43.33662" lon="5.67577">
        <ele>439</ele>
        <time>2019-01-18T09:33:58.000Z</time>
      </trkpt>
      <trkpt lat="43.33662" lon="5.67577">
        <ele>439</ele>
        <time>2019-01-18T09:33:59.000Z</time>
      </trkpt>
      <trkpt lat="43.33662" lon="5.67577">
        <ele>438</ele>
        <time>2019-01-18T09:34:00.000Z</time>
      </trkpt>
      <trkpt lat="43.33662" lon="5.67577">
        <ele>438</ele>
        <time>2019-01-18T09:34:01.000Z</time>
      </trkpt>
      <trkpt lat="43.33662" lon="5.67577">
        <ele>437</ele>
        <time>2019-01-18T09:34:02.000Z</time>
      </trkpt>
      <trkpt lat="43.33662" lon="5.67577">
        <ele>437</ele>
        <time>2019-01-18T09:34:03.000Z</time>
      </trkpt>
      <trkpt lat="43.33662" lon="5.67578">
        <ele>436</ele>
        <time>2019-01-18T09:34:04.000Z</time>
      </trkpt>
      <trkpt lat="43.33662" lon="5.67578">
        <ele>436</ele>
        <time>2019-01-18T09:34:05.000Z</time>
      </trkpt>
      <trkpt lat="43.33662" lon="5.67578">
        <ele>435</ele>
        <time>2019-01-18T09:34:06.000Z</time>
      </trkpt>
      <trkpt lat="43.33662" lon="5.67578">
        <ele>435</ele>
        <time>2019-01-18T09:34:07.000Z</time>
      </trkpt>
      <trkpt lat="43.33662" lon="5.67578">
        <ele>435</ele>
        <time>2019-01-18T09:34:08.000Z</time>
      </trkpt>
      <trkpt lat="43.33663" lon="5.67578">
        <ele>434</ele>
        <time>2019-01-18T09:34:09.000Z</time>
      </trkpt>
      <trkpt lat="43.33663" lon="5.67578">
        <ele>434</ele>
        <time>2019-01-18T09:34:10.000Z</time>
      </trkpt>
      <trkpt lat="43.33663" lon="5.67578">
        <ele>433</ele>
        <time>2019-01-18T09:34:11.000Z</time>
      </trkpt>
      <trkpt lat="43.33663" lon="5.67578">
        <ele>433</ele>
        <time>2019-01-18T09:34:12.000Z</time>
      </trkpt>
      <trkpt lat="43.33663" lon="5.67578">
        <ele>433</ele>
        <time>2019-01-18T09:34:13.000Z</time>
      </trkpt>
      <trkpt lat="43.33663" lon="5.67578">
        <ele>432</ele>
        <time>2019-01-18T09:34:14.000Z</time>
      </trkpt>
      <trkpt lat="43.33663" lon="5.67579">
        <ele>432</ele>
        <time>2019-01-18T09:34:15.000Z</time>
      </trkpt>
      <trkpt lat="43.33663" lon="5.67579">
        <ele>432</ele>
        <time>2019-01-18T09:34:16.000Z</time>
      </trkpt>
      <trkpt lat="43.33663" lon="5.67579">
        <ele>431</ele>
        <time>2019-01-18T09:34:17.000Z</time>
      </trkpt>
      <trkpt lat="43.33663" lon="5.67579">
        <ele>431</ele>
        <time>2019-01-18T09:34:18.000Z</time>
      </trkpt>
      <trkpt lat="43.33663" lon="5.67579">
        <ele>430</ele>
        <time>2019-01-18T09:34:19.000Z</time>
      </trkpt>
      <trkpt lat="43.33662" lon="5.67579">
        <ele>430</ele>
        <time>2019-01-18T09:34:20.000Z</time>
      </trkpt>
      <trkpt lat="43.33662" lon="5.67579">
        <ele>429</ele>
        <time>2019-01-18T09:34:21.000Z</time>
      </trkpt>
      <trkpt lat="43.33662" lon="5.67579">
        <ele>429</ele>
        <time>2019-01-18T09:34:22.000Z</time>
      </trkpt>
      <trkpt lat="43.33662" lon="5.6758">
        <ele>428</ele>
        <time>2019-01-18T09:34:23.000Z</time>
      </trkpt>
      <trkpt lat="43.33662" lon="5.6758">
        <ele>428</ele>
        <time>2019-01-18T09:34:24.000Z</time>
      </trkpt>
      <trkpt lat="43.33662" lon="5.6758">
        <ele>428</ele>
        <time>2019-01-18T09:34:25.000Z</time>
      </trkpt>
      <trkpt lat="43.33662" lon="5.6758">
        <ele>427</ele>
        <time>2019-01-18T09:34:26.000Z</time>
      </trkpt>
      <trkpt lat="43.33662" lon="5.6758">
        <ele>427</ele>
        <time>2019-01-18T09:34:27.000Z</time>
      </trkpt>
      <trkpt lat="43.33662" lon="5.6758">
        <ele>427</ele>
        <time>2019-01-18T09:34:28.000Z</time>
      </trkpt>
      <trkpt lat="43.33662" lon="5.6758">
        <ele>427</ele>
        <time>2019-01-18T09:34:29.000Z</time>
      </trkpt>
      <trkpt lat="43.33662" lon="5.6758">
        <ele>426</ele>
        <time>2019-01-18T09:34:30.000Z</time>
      </trkpt>
      <trkpt lat="43.33662" lon="5.6758">
        <ele>426</ele>
        <time>2019-01-18T09:34:31.000Z</time>
      </trkpt>
      <trkpt lat="43.33662" lon="5.6758">
        <ele>426</ele>
        <time>2019-01-18T09:34:32.000Z</time>
      </trkpt>
      <trkpt lat="43.33662" lon="5.6758">
        <ele>426</ele>
        <time>2019-01-18T09:34:33.000Z</time>
      </trkpt>
      <trkpt lat="43.33662" lon="5.6758">
        <ele>425</ele>
        <time>2019-01-18T09:34:34.000Z</time>
      </trkpt>
      <trkpt lat="43.33662" lon="5.67581">
        <ele>425</ele>
        <time>2019-01-18T09:34:35.000Z</time>
      </trkpt>
      <trkpt lat="43.33662" lon="5.67581">
        <ele>425</ele>
        <time>2019-01-18T09:34:36.000Z</time>
      </trkpt>
      <trkpt lat="43.33662" lon="5.67581">
        <ele>425</ele>
        <time>2019-01-18T09:34:37.000Z</time>
      </trkpt>
      <trkpt lat="43.33662" lon="5.67581">
        <ele>425</ele>
        <time>2019-01-18T09:34:38.000Z</time>
      </trkpt>
      <trkpt lat="43.33661" lon="5.67581">
        <ele>425</ele>
        <time>2019-01-18T09:34:39.000Z</time>
      </trkpt>
      <trkpt lat="43.33661" lon="5.67581">
        <ele>425</ele>
        <time>2019-01-18T09:34:40.000Z</time>
      </trkpt>
      <trkpt lat="43.33661" lon="5.67582">
        <ele>425</ele>
        <time>2019-01-18T09:34:41.000Z</time>
      </trkpt>
      <trkpt lat="43.33661" lon="5.67582">
        <ele>424</ele>
        <time>2019-01-18T09:34:42.000Z</time>
      </trkpt>
      <trkpt lat="43.33661" lon="5.67583">
        <ele>424</ele>
        <time>2019-01-18T09:34:43.000Z</time>
      </trkpt>
      <trkpt lat="43.33661" lon="5.67584">
        <ele>424</ele>
        <time>2019-01-18T09:34:44.000Z</time>
      </trkpt>
      <trkpt lat="43.33661" lon="5.67584">
        <ele>423</ele>
        <time>2019-01-18T09:34:45.000Z</time>
      </trkpt>
      <trkpt lat="43.33661" lon="5.67585">
        <ele>423</ele>
        <time>2019-01-18T09:34:46.000Z</time>
      </trkpt>
      <trkpt lat="43.3366" lon="5.67586">
        <ele>423</ele>
        <time>2019-01-18T09:34:47.000Z</time>
      </trkpt>
      <trkpt lat="43.3366" lon="5.67586">
        <ele>422</ele>
        <time>2019-01-18T09:34:48.000Z</time>
      </trkpt>
      <trkpt lat="43.33659" lon="5.67586">
        <ele>422</ele>
        <time>2019-01-18T09:34:49.000Z</time>
      </trkpt>
      <trkpt lat="43.33659" lon="5.67587">
        <ele>422</ele>
        <time>2019-01-18T09:34:50.000Z</time>
      </trkpt>
      <trkpt lat="43.33658" lon="5.67587">
        <ele>422</ele>
        <time>2019-01-18T09:34:51.000Z</time>
      </trkpt>
      <trkpt lat="43.33657" lon="5.67587">
        <ele>421</ele>
        <time>2019-01-18T09:34:52.000Z</time>
      </trkpt>
      <trkpt lat="43.33657" lon="5.67588">
        <ele>421</ele>
        <time>2019-01-18T09:34:53.000Z</time>
      </trkpt>
      <trkpt lat="43.33656" lon="5.67589">
        <ele>421</ele>
        <time>2019-01-18T09:34:54.000Z</time>
      </trkpt>
      <trkpt lat="43.33655" lon="5.67589">
        <ele>421</ele>
        <time>2019-01-18T09:34:55.000Z</time>
      </trkpt>
      <trkpt lat="43.33655" lon="5.67589">
        <ele>421</ele>
        <time>2019-01-18T09:34:56.000Z</time>
      </trkpt>
      <trkpt lat="43.33655" lon="5.67589">
        <ele>420</ele>
        <time>2019-01-18T09:34:57.000Z</time>
      </trkpt>
      <trkpt lat="43.33654" lon="5.67589">
        <ele>420</ele>
        <time>2019-01-18T09:34:58.000Z</time>
      </trkpt>
      <trkpt lat="43.33654" lon="5.67589">
        <ele>420</ele>
        <time>2019-01-18T09:34:59.000Z</time>
      </trkpt>
      <trkpt lat="43.33654" lon="5.67589">
        <ele>420</ele>
        <time>2019-01-18T09:35:00.000Z</time>
      </trkpt>
      <trkpt lat="43.33653" lon="5.67588">
        <ele>420</ele>
        <time>2019-01-18T09:35:01.000Z</time>
      </trkpt>
      <trkpt lat="43.33653" lon="5.67589">
        <ele>419</ele>
        <time>2019-01-18T09:35:02.000Z</time>
      </trkpt>
      <trkpt lat="43.33653" lon="5.67589">
        <ele>419</ele>
        <time>2019-01-18T09:35:03.000Z</time>
      </trkpt>
      <trkpt lat="43.33652" lon="5.67588">
        <ele>419</ele>
        <time>2019-01-18T09:35:04.000Z</time>
      </trkpt>
      <trkpt lat="43.33652" lon="5.67588">
        <ele>419</ele>
        <time>2019-01-18T09:35:05.000Z</time>
      </trkpt>
      <trkpt lat="43.33652" lon="5.67588">
        <ele>419</ele>
        <time>2019-01-18T09:35:06.000Z</time>
      </trkpt>
      <trkpt lat="43.33652" lon="5.67588">
        <ele>419</ele>
        <time>2019-01-18T09:35:07.000Z</time>
      </trkpt>
      <trkpt lat="43.33651" lon="5.67588">
        <ele>419</ele>
        <time>2019-01-18T09:35:08.000Z</time>
      </trkpt>
      <trkpt lat="43.33651" lon="5.67588">
        <ele>419</ele>
        <time>2019-01-18T09:35:09.000Z</time>
      </trkpt>
      <trkpt lat="43.33651" lon="5.67589">
        <ele>419</ele>
        <time>2019-01-18T09:35:10.000Z</time>
      </trkpt>
      <trkpt lat="43.33651" lon="5.67588">
        <ele>419</ele>
        <time>2019-01-18T09:35:11.000Z</time>
      </trkpt>
      <trkpt lat="43.3365" lon="5.67588">
        <ele>419</ele>
        <time>2019-01-18T09:35:12.000Z</time>
      </trkpt>
      <trkpt lat="43.3365" lon="5.67588">
        <ele>419</ele>
        <time>2019-01-18T09:35:13.000Z</time>
      </trkpt>
      <trkpt lat="43.3365" lon="5.67588">
        <ele>419</ele>
        <time>2019-01-18T09:35:14.000Z</time>
      </trkpt>
      <trkpt lat="43.33649" lon="5.67587">
        <ele>419</ele>
        <time>2019-01-18T09:35:15.000Z</time>
      </trkpt>
      <trkpt lat="43.33649" lon="5.67587">
        <ele>419</ele>
        <time>2019-01-18T09:35:16.000Z</time>
      </trkpt>
      <trkpt lat="43.33649" lon="5.67586">
        <ele>419</ele>
        <time>2019-01-18T09:35:17.000Z</time>
      </trkpt>
      <trkpt lat="43.33649" lon="5.67586">
        <ele>419</ele>
        <time>2019-01-18T09:35:18.000Z</time>
      </trkpt>
      <trkpt lat="43.33649" lon="5.67585">
        <ele>419</ele>
        <time>2019-01-18T09:35:19.000Z</time>
      </trkpt>
      <trkpt lat="43.33648" lon="5.67586">
        <ele>419</ele>
        <time>2019-01-18T09:35:20.000Z</time>
      </trkpt>
      <trkpt lat="43.33648" lon="5.67585">
        <ele>419</ele>
        <time>2019-01-18T09:35:21.000Z</time>
      </trkpt>
      <trkpt lat="43.33647" lon="5.67586">
        <ele>419</ele>
        <time>2019-01-18T09:35:22.000Z</time>
      </trkpt>
      <trkpt lat="43.33646" lon="5.67586">
        <ele>419</ele>
        <time>2019-01-18T09:35:23.000Z</time>
      </trkpt>
      <trkpt lat="43.33646" lon="5.67586">
        <ele>419</ele>
        <time>2019-01-18T09:35:24.000Z</time>
      </trkpt>
      <trkpt lat="43.33645" lon="5.67586">
        <ele>419</ele>
        <time>2019-01-18T09:35:25.000Z</time>
      </trkpt>
      <trkpt lat="43.33645" lon="5.67587">
        <ele>419</ele>
        <time>2019-01-18T09:35:26.000Z</time>
      </trkpt>
      <trkpt lat="43.33645" lon="5.67587">
        <ele>419</ele>
        <time>2019-01-18T09:35:27.000Z</time>
      </trkpt>
      <trkpt lat="43.33645" lon="5.67587">
        <ele>419</ele>
        <time>2019-01-18T09:35:28.000Z</time>
      </trkpt>
      <trkpt lat="43.33645" lon="5.67587">
        <ele>419</ele>
        <time>2019-01-18T09:35:29.000Z</time>
      </trkpt>
      <trkpt lat="43.33645" lon="5.67587">
        <ele>419</ele>
        <time>2019-01-18T09:35:30.000Z</time>
      </trkpt>
      <trkpt lat="43.33645" lon="5.67588">
        <ele>419</ele>
        <time>2019-01-18T09:35:31.000Z</time>
      </trkpt>
      <trkpt lat="43.33645" lon="5.67588">
        <ele>419</ele>
        <time>2019-01-18T09:35:32.000Z</time>
      </trkpt>
      <trkpt lat="43.33645" lon="5.67589">
        <ele>419</ele>
        <time>2019-01-18T09:35:33.000Z</time>
      </trkpt>
      <trkpt lat="43.33644" lon="5.67589">
        <ele>419</ele>
        <time>2019-01-18T09:35:34.000Z</time>
      </trkpt>
      <trkpt lat="43.33644" lon="5.6759">
        <ele>419</ele>
        <time>2019-01-18T09:35:35.000Z</time>
      </trkpt>
      <trkpt lat="43.33644" lon="5.67591">
        <ele>420</ele>
        <time>2019-01-18T09:35:36.000Z</time>
      </trkpt>
      <trkpt lat="43.33643" lon="5.67591">
        <ele>420</ele>
        <time>2019-01-18T09:35:37.000Z</time>
      </trkpt>
      <trkpt lat="43.33643" lon="5.67592">
        <ele>420</ele>
        <time>2019-01-18T09:35:38.000Z</time>
      </trkpt>
      <trkpt lat="43.33642" lon="5.67592">
        <ele>420</ele>
        <time>2019-01-18T09:35:39.000Z</time>
      </trkpt>
      <trkpt lat="43.33642" lon="5.67592">
        <ele>420</ele>
        <time>2019-01-18T09:35:40.000Z</time>
      </trkpt>
      <trkpt lat="43.33641" lon="5.67593">
        <ele>420</ele>
        <time>2019-01-18T09:35:41.000Z</time>
      </trkpt>
      <trkpt lat="43.33641" lon="5.67593">
        <ele>420</ele>
        <time>2019-01-18T09:35:42.000Z</time>
      </trkpt>
      <trkpt lat="43.33641" lon="5.67593">
        <ele>420</ele>
        <time>2019-01-18T09:35:43.000Z</time>
      </trkpt>
      <trkpt lat="43.3364" lon="5.67594">
        <ele>420</ele>
        <time>2019-01-18T09:35:44.000Z</time>
      </trkpt>
      <trkpt lat="43.3364" lon="5.67595">
        <ele>420</ele>
        <time>2019-01-18T09:35:45.000Z</time>
      </trkpt>
      <trkpt lat="43.3364" lon="5.67596">
        <ele>421</ele>
        <time>2019-01-18T09:35:46.000Z</time>
      </trkpt>
      <trkpt lat="43.33639" lon="5.67596">
        <ele>421</ele>
        <time>2019-01-18T09:35:47.000Z</time>
      </trkpt>
      <trkpt lat="43.33638" lon="5.67597">
        <ele>421</ele>
        <time>2019-01-18T09:35:48.000Z</time>
      </trkpt>
      <trkpt lat="43.33637" lon="5.67597">
        <ele>421</ele>
        <time>2019-01-18T09:35:49.000Z</time>
      </trkpt>
      <trkpt lat="43.33636" lon="5.67597">
        <ele>421</ele>
        <time>2019-01-18T09:35:50.000Z</time>
      </trkpt>
      <trkpt lat="43.33635" lon="5.67598">
        <ele>421</ele>
        <time>2019-01-18T09:35:51.000Z</time>
      </trkpt>
      <trkpt lat="43.33634" lon="5.67598">
        <ele>421</ele>
        <time>2019-01-18T09:35:52.000Z</time>
      </trkpt>
      <trkpt lat="43.33634" lon="5.67598">
        <ele>421</ele>
        <time>2019-01-18T09:35:53.000Z</time>
      </trkpt>
      <trkpt lat="43.33633" lon="5.67598">
        <ele>421</ele>
        <time>2019-01-18T09:35:54.000Z</time>
      </trkpt>
      <trkpt lat="43.33633" lon="5.67598">
        <ele>421</ele>
        <time>2019-01-18T09:35:55.000Z</time>
      </trkpt>
      <trkpt lat="43.33633" lon="5.67598">
        <ele>421</ele>
        <time>2019-01-18T09:35:56.000Z</time>
      </trkpt>
      <trkpt lat="43.33633" lon="5.67599">
        <ele>421</ele>
        <time>2019-01-18T09:35:57.000Z</time>
      </trkpt>
      <trkpt lat="43.33633" lon="5.67599">
        <ele>421</ele>
        <time>2019-01-18T09:35:58.000Z</time>
      </trkpt>
      <trkpt lat="43.33632" lon="5.67599">
        <ele>421</ele>
        <time>2019-01-18T09:35:59.000Z</time>
      </trkpt>
      <trkpt lat="43.33632" lon="5.67599">
        <ele>421</ele>
        <time>2019-01-18T09:36:00.000Z</time>
      </trkpt>
      <trkpt lat="43.33632" lon="5.67599">
        <ele>421</ele>
        <time>2019-01-18T09:36:01.000Z</time>
      </trkpt>
      <trkpt lat="43.33632" lon="5.67599">
        <ele>421</ele>
        <time>2019-01-18T09:36:02.000Z</time>
      </trkpt>
      <trkpt lat="43.33632" lon="5.67599">
        <ele>421</ele>
        <time>2019-01-18T09:36:03.000Z</time>
      </trkpt>
      <trkpt lat="43.33632" lon="5.67599">
        <ele>421</ele>
        <time>2019-01-18T09:36:04.000Z</time>
      </trkpt>
      <trkpt lat="43.33632" lon="5.676">
        <ele>421</ele>
        <time>2019-01-18T09:36:05.000Z</time>
      </trkpt>
      <trkpt lat="43.33631" lon="5.676">
        <ele>421</ele>
        <time>2019-01-18T09:36:06.000Z</time>
      </trkpt>
      <trkpt lat="43.33631" lon="5.67601">
        <ele>421</ele>
        <time>2019-01-18T09:36:07.000Z</time>
      </trkpt>
      <trkpt lat="43.3363" lon="5.67601">
        <ele>421</ele>
        <time>2019-01-18T09:36:08.000Z</time>
      </trkpt>
      <trkpt lat="43.33629" lon="5.67601">
        <ele>421</ele>
        <time>2019-01-18T09:36:09.000Z</time>
      </trkpt>
      <trkpt lat="43.33629" lon="5.67602">
        <ele>421</ele>
        <time>2019-01-18T09:36:10.000Z</time>
      </trkpt>
      <trkpt lat="43.33628" lon="5.67602">
        <ele>421</ele>
        <time>2019-01-18T09:36:11.000Z</time>
      </trkpt>
      <trkpt lat="43.33628" lon="5.67603">
        <ele>421</ele>
        <time>2019-01-18T09:36:12.000Z</time>
      </trkpt>
      <trkpt lat="43.33628" lon="5.67603">
        <ele>421</ele>
        <time>2019-01-18T09:36:13.000Z</time>
      </trkpt>
      <trkpt lat="43.33629" lon="5.67604">
        <ele>421</ele>
        <time>2019-01-18T09:36:14.000Z</time>
      </trkpt>
      <trkpt lat="43.33629" lon="5.67604">
        <ele>421</ele>
        <time>2019-01-18T09:36:15.000Z</time>
      </trkpt>
      <trkpt lat="43.33629" lon="5.67604">
        <ele>421</ele>
        <time>2019-01-18T09:36:16.000Z</time>
      </trkpt>
      <trkpt lat="43.33629" lon="5.67605">
        <ele>421</ele>
        <time>2019-01-18T09:36:17.000Z</time>
      </trkpt>
      <trkpt lat="43.33629" lon="5.67605">
        <ele>421</ele>
        <time>2019-01-18T09:36:18.000Z</time>
      </trkpt>
      <trkpt lat="43.33629" lon="5.67605">
        <ele>421</ele>
        <time>2019-01-18T09:36:19.000Z</time>
      </trkpt>
      <trkpt lat="43.33629" lon="5.67606">
        <ele>421</ele>
        <time>2019-01-18T09:36:20.000Z</time>
      </trkpt>
      <trkpt lat="43.33629" lon="5.67606">
        <ele>422</ele>
        <time>2019-01-18T09:36:21.000Z</time>
      </trkpt>
      <trkpt lat="43.33628" lon="5.67606">
        <ele>422</ele>
        <time>2019-01-18T09:36:22.000Z</time>
      </trkpt>
      <trkpt lat="43.33628" lon="5.67606">
        <ele>422</ele>
        <time>2019-01-18T09:36:23.000Z</time>
      </trkpt>
      <trkpt lat="43.33628" lon="5.67606">
        <ele>422</ele>
        <time>2019-01-18T09:36:24.000Z</time>
      </trkpt>
      <trkpt lat="43.33628" lon="5.67606">
        <ele>422</ele>
        <time>2019-01-18T09:36:25.000Z</time>
      </trkpt>
      <trkpt lat="43.33628" lon="5.67606">
        <ele>422</ele>
        <time>2019-01-18T09:36:26.000Z</time>
      </trkpt>
      <trkpt lat="43.33628" lon="5.67606">
        <ele>422</ele>
        <time>2019-01-18T09:36:27.000Z</time>
      </trkpt>
      <trkpt lat="43.33628" lon="5.67606">
        <ele>422</ele>
        <time>2019-01-18T09:36:28.000Z</time>
      </trkpt>
      <trkpt lat="43.33628" lon="5.67606">
        <ele>422</ele>
        <time>2019-01-18T09:36:29.000Z</time>
      </trkpt>
      <trkpt lat="43.33628" lon="5.67606">
        <ele>422</ele>
        <time>2019-01-18T09:36:30.000Z</time>
      </trkpt>
      <trkpt lat="43.33627" lon="5.67606">
        <ele>422</ele>
        <time>2019-01-18T09:36:31.000Z</time>
      </trkpt>
      <trkpt lat="43.33627" lon="5.67607">
        <ele>422</ele>
        <time>2019-01-18T09:36:32.000Z</time>
      </trkpt>
      <trkpt lat="43.33627" lon="5.67607">
        <ele>422</ele>
        <time>2019-01-18T09:36:33.000Z</time>
      </trkpt>
      <trkpt lat="43.33627" lon="5.67607">
        <ele>422</ele>
        <time>2019-01-18T09:36:34.000Z</time>
      </trkpt>
      <trkpt lat="43.33627" lon="5.67607">
        <ele>422</ele>
        <time>2019-01-18T09:36:35.000Z</time>
      </trkpt>
      <trkpt lat="43.33627" lon="5.67608">
        <ele>422</ele>
        <time>2019-01-18T09:36:36.000Z</time>
      </trkpt>
      <trkpt lat="43.33627" lon="5.67608">
        <ele>422</ele>
        <time>2019-01-18T09:36:37.000Z</time>
      </trkpt>
      <trkpt lat="43.33627" lon="5.67608">
        <ele>423</ele>
        <time>2019-01-18T09:36:38.000Z</time>
      </trkpt>
      <trkpt lat="43.33626" lon="5.67608">
        <ele>423</ele>
        <time>2019-01-18T09:36:39.000Z</time>
      </trkpt>
      <trkpt lat="43.33626" lon="5.67608">
        <ele>423</ele>
        <time>2019-01-18T09:36:40.000Z</time>
      </trkpt>
      <trkpt lat="43.33626" lon="5.67608">
        <ele>423</ele>
        <time>2019-01-18T09:36:41.000Z</time>
      </trkpt>
      <trkpt lat="43.33626" lon="5.67609">
        <ele>423</ele>
        <time>2019-01-18T09:36:42.000Z</time>
      </trkpt>
      <trkpt lat="43.33625" lon="5.67609">
        <ele>422</ele>
        <time>2019-01-18T09:36:43.000Z</time>
      </trkpt>
      <trkpt lat="43.33625" lon="5.6761">
        <ele>422</ele>
        <time>2019-01-18T09:36:44.000Z</time>
      </trkpt>
      <trkpt lat="43.33625" lon="5.67611">
        <ele>422</ele>
        <time>2019-01-18T09:36:45.000Z</time>
      </trkpt>
      <trkpt lat="43.33624" lon="5.67611">
        <ele>422</ele>
        <time>2019-01-18T09:36:46.000Z</time>
      </trkpt>
      <trkpt lat="43.33623" lon="5.67611">
        <ele>422</ele>
        <time>2019-01-18T09:36:47.000Z</time>
      </trkpt>
      <trkpt lat="43.33623" lon="5.67612">
        <ele>422</ele>
        <time>2019-01-18T09:36:48.000Z</time>
      </trkpt>
      <trkpt lat="43.33622" lon="5.67613">
        <ele>422</ele>
        <time>2019-01-18T09:36:49.000Z</time>
      </trkpt>
      <trkpt lat="43.33622" lon="5.67613">
        <ele>422</ele>
        <time>2019-01-18T09:36:50.000Z</time>
      </trkpt>
      <trkpt lat="43.33622" lon="5.67613">
        <ele>422</ele>
        <time>2019-01-18T09:36:51.000Z</time>
      </trkpt>
      <trkpt lat="43.33621" lon="5.67614">
        <ele>422</ele>
        <time>2019-01-18T09:36:52.000Z</time>
      </trkpt>
      <trkpt lat="43.33621" lon="5.67614">
        <ele>422</ele>
        <time>2019-01-18T09:36:53.000Z</time>
      </trkpt>
      <trkpt lat="43.3362" lon="5.67614">
        <ele>422</ele>
        <time>2019-01-18T09:36:54.000Z</time>
      </trkpt>
      <trkpt lat="43.3362" lon="5.67615">
        <ele>422</ele>
        <time>2019-01-18T09:36:55.000Z</time>
      </trkpt>
      <trkpt lat="43.3362" lon="5.67615">
        <ele>422</ele>
        <time>2019-01-18T09:36:56.000Z</time>
      </trkpt>
      <trkpt lat="43.3362" lon="5.67615">
        <ele>422</ele>
        <time>2019-01-18T09:36:57.000Z</time>
      </trkpt>
      <trkpt lat="43.3362" lon="5.67615">
        <ele>422</ele>
        <time>2019-01-18T09:36:58.000Z</time>
      </trkpt>
      <trkpt lat="43.3362" lon="5.67615">
        <ele>422</ele>
        <time>2019-01-18T09:36:59.000Z</time>
      </trkpt>
      <trkpt lat="43.33619" lon="5.67615">
        <ele>422</ele>
        <time>2019-01-18T09:37:00.000Z</time>
      </trkpt>
      <trkpt lat="43.33619" lon="5.67615">
        <ele>422</ele>
        <time>2019-01-18T09:37:01.000Z</time>
      </trkpt>
      <trkpt lat="43.33619" lon="5.67616">
        <ele>422</ele>
        <time>2019-01-18T09:37:02.000Z</time>
      </trkpt>
      <trkpt lat="43.33619" lon="5.67616">
        <ele>422</ele>
        <time>2019-01-18T09:37:03.000Z</time>
      </trkpt>
      <trkpt lat="43.33619" lon="5.67616">
        <ele>422</ele>
        <time>2019-01-18T09:37:04.000Z</time>
      </trkpt>
      <trkpt lat="43.33619" lon="5.67616">
        <ele>422</ele>
        <time>2019-01-18T09:37:05.000Z</time>
      </trkpt>
      <trkpt lat="43.33618" lon="5.67616">
        <ele>423</ele>
        <time>2019-01-18T09:37:06.000Z</time>
      </trkpt>
      <trkpt lat="43.33618" lon="5.67616">
        <ele>423</ele>
        <time>2019-01-18T09:37:07.000Z</time>
      </trkpt>
      <trkpt lat="43.33618" lon="5.67616">
        <ele>423</ele>
        <time>2019-01-18T09:37:08.000Z</time>
      </trkpt>
      <trkpt lat="43.33618" lon="5.67616">
        <ele>423</ele>
        <time>2019-01-18T09:37:09.000Z</time>
      </trkpt>
      <trkpt lat="43.33618" lon="5.67616">
        <ele>423</ele>
        <time>2019-01-18T09:37:10.000Z</time>
      </trkpt>
      <trkpt lat="43.33618" lon="5.67616">
        <ele>423</ele>
        <time>2019-01-18T09:37:11.000Z</time>
      </trkpt>
      <trkpt lat="43.33617" lon="5.67616">
        <ele>423</ele>
        <time>2019-01-18T09:37:12.000Z</time>
      </trkpt>
      <trkpt lat="43.33617" lon="5.67616">
        <ele>423</ele>
        <time>2019-01-18T09:37:13.000Z</time>
      </trkpt>
      <trkpt lat="43.33617" lon="5.67616">
        <ele>424</ele>
        <time>2019-01-18T09:37:14.000Z</time>
      </trkpt>
      <trkpt lat="43.33617" lon="5.67616">
        <ele>424</ele>
        <time>2019-01-18T09:37:15.000Z</time>
      </trkpt>
      <trkpt lat="43.33617" lon="5.67616">
        <ele>424</ele>
        <time>2019-01-18T09:37:16.000Z</time>
      </trkpt>
      <trkpt lat="43.33617" lon="5.67616">
        <ele>424</ele>
        <time>2019-01-18T09:37:17.000Z</time>
      </trkpt>
      <trkpt lat="43.33616" lon="5.67616">
        <ele>424</ele>
        <time>2019-01-18T09:37:18.000Z</time>
      </trkpt>
      <trkpt lat="43.33616" lon="5.67616">
        <ele>424</ele>
        <time>2019-01-18T09:37:19.000Z</time>
      </trkpt>
      <trkpt lat="43.33615" lon="5.67616">
        <ele>424</ele>
        <time>2019-01-18T09:37:20.000Z</time>
      </trkpt>
      <trkpt lat="43.33615" lon="5.67616">
        <ele>425</ele>
        <time>2019-01-18T09:37:21.000Z</time>
      </trkpt>
      <trkpt lat="43.33615" lon="5.67616">
        <ele>425</ele>
        <time>2019-01-18T09:37:22.000Z</time>
      </trkpt>
      <trkpt lat="43.33615" lon="5.67616">
        <ele>425</ele>
        <time>2019-01-18T09:37:23.000Z</time>
      </trkpt>
      <trkpt lat="43.33615" lon="5.67615">
        <ele>425</ele>
        <time>2019-01-18T09:37:24.000Z</time>
      </trkpt>
      <trkpt lat="43.33615" lon="5.67616">
        <ele>425</ele>
        <time>2019-01-18T09:37:25.000Z</time>
      </trkpt>
      <trkpt lat="43.33614" lon="5.67615">
        <ele>425</ele>
        <time>2019-01-18T09:37:26.000Z</time>
      </trkpt>
      <trkpt lat="43.33614" lon="5.67615">
        <ele>425</ele>
        <time>2019-01-18T09:37:27.000Z</time>
      </trkpt>
      <trkpt lat="43.33614" lon="5.67616">
        <ele>425</ele>
        <time>2019-01-18T09:37:28.000Z</time>
      </trkpt>
      <trkpt lat="43.33614" lon="5.67616">
        <ele>425</ele>
        <time>2019-01-18T09:37:29.000Z</time>
      </trkpt>
      <trkpt lat="43.33614" lon="5.67616">
        <ele>425</ele>
        <time>2019-01-18T09:37:30.000Z</time>
      </trkpt>
      <trkpt lat="43.33614" lon="5.67615">
        <ele>425</ele>
        <time>2019-01-18T09:37:31.000Z</time>
      </trkpt>
      <trkpt lat="43.33614" lon="5.67615">
        <ele>425</ele>
        <time>2019-01-18T09:37:32.000Z</time>
      </trkpt>
      <trkpt lat="43.33613" lon="5.67616">
        <ele>425</ele>
        <time>2019-01-18T09:37:33.000Z</time>
      </trkpt>
      <trkpt lat="43.33613" lon="5.67616">
        <ele>425</ele>
        <time>2019-01-18T09:37:34.000Z</time>
      </trkpt>
      <trkpt lat="43.33613" lon="5.67616">
        <ele>425</ele>
        <time>2019-01-18T09:37:35.000Z</time>
      </trkpt>
      <trkpt lat="43.33613" lon="5.67616">
        <ele>425</ele>
        <time>2019-01-18T09:37:36.000Z</time>
      </trkpt>
      <trkpt lat="43.33613" lon="5.67616">
        <ele>425</ele>
        <time>2019-01-18T09:37:37.000Z</time>
      </trkpt>
      <trkpt lat="43.33613" lon="5.67616">
        <ele>425</ele>
        <time>2019-01-18T09:37:38.000Z</time>
      </trkpt>
      <trkpt lat="43.33614" lon="5.67616">
        <ele>425</ele>
        <time>2019-01-18T09:37:39.000Z</time>
      </trkpt>
      <trkpt lat="43.33614" lon="5.67617">
        <ele>425</ele>
        <time>2019-01-18T09:37:40.000Z</time>
      </trkpt>
      <trkpt lat="43.33614" lon="5.67617">
        <ele>425</ele>
        <time>2019-01-18T09:37:41.000Z</time>
      </trkpt>
      <trkpt lat="43.33614" lon="5.67617">
        <ele>426</ele>
        <time>2019-01-18T09:37:42.000Z</time>
      </trkpt>
      <trkpt lat="43.33614" lon="5.67618">
        <ele>426</ele>
        <time>2019-01-18T09:37:43.000Z</time>
      </trkpt>
      <trkpt lat="43.33614" lon="5.67618">
        <ele>426</ele>
        <time>2019-01-18T09:37:44.000Z</time>
      </trkpt>
      <trkpt lat="43.33614" lon="5.67618">
        <ele>426</ele>
        <time>2019-01-18T09:37:45.000Z</time>
      </trkpt>
      <trkpt lat="43.33614" lon="5.67618">
        <ele>426</ele>
        <time>2019-01-18T09:37:46.000Z</time>
      </trkpt>
      <trkpt lat="43.33614" lon="5.67618">
        <ele>426</ele>
        <time>2019-01-18T09:37:47.000Z</time>
      </trkpt>
      <trkpt lat="43.33614" lon="5.67618">
        <ele>426</ele>
        <time>2019-01-18T09:37:48.000Z</time>
      </trkpt>
      <trkpt lat="43.33614" lon="5.67618">
        <ele>426</ele>
        <time>2019-01-18T09:37:49.000Z</time>
      </trkpt>
      <trkpt lat="43.33614" lon="5.67618">
        <ele>426</ele>
        <time>2019-01-18T09:37:50.000Z</time>
      </trkpt>
      <trkpt lat="43.33614" lon="5.67618">
        <ele>426</ele>
        <time>2019-01-18T09:37:51.000Z</time>
      </trkpt>
      <trkpt lat="43.33614" lon="5.67619">
        <ele>426</ele>
        <time>2019-01-18T09:37:52.000Z</time>
      </trkpt>
      <trkpt lat="43.33614" lon="5.67619">
        <ele>426</ele>
        <time>2019-01-18T09:37:53.000Z</time>
      </trkpt>
      <trkpt lat="43.33614" lon="5.67619">
        <ele>426</ele>
        <time>2019-01-18T09:37:54.000Z</time>
      </trkpt>
      <trkpt lat="43.33614" lon="5.67619">
        <ele>426</ele>
        <time>2019-01-18T09:37:55.000Z</time>
      </trkpt>
      <trkpt lat="43.33614" lon="5.67619">
        <ele>426</ele>
        <time>2019-01-18T09:37:56.000Z</time>
      </trkpt>
      <trkpt lat="43.33614" lon="5.67619">
        <ele>426</ele>
        <time>2019-01-18T09:37:57.000Z</time>
      </trkpt>
      <trkpt lat="43.33614" lon="5.67619">
        <ele>426</ele>
        <time>2019-01-18T09:37:58.000Z</time>
      </trkpt>
      <trkpt lat="43.33615" lon="5.67619">
        <ele>426</ele>
        <time>2019-01-18T09:37:59.000Z</time>
      </trkpt>
      <trkpt lat="43.33615" lon="5.6762">
        <ele>426</ele>
        <time>2019-01-18T09:38:00.000Z</time>
      </trkpt>
      <trkpt lat="43.33615" lon="5.6762">
        <ele>426</ele>
        <time>2019-01-18T09:38:01.000Z</time>
      </trkpt>
      <trkpt lat="43.33615" lon="5.6762">
        <ele>426</ele>
        <time>2019-01-18T09:38:02.000Z</time>
      </trkpt>
      <trkpt lat="43.33615" lon="5.6762">
        <ele>426</ele>
        <time>2019-01-18T09:38:03.000Z</time>
      </trkpt>
      <trkpt lat="43.33615" lon="5.6762">
        <ele>426</ele>
        <time>2019-01-18T09:38:04.000Z</time>
      </trkpt>
      <trkpt lat="43.33615" lon="5.6762">
        <ele>426</ele>
        <time>2019-01-18T09:38:05.000Z</time>
      </trkpt>
      <trkpt lat="43.33615" lon="5.6762">
        <ele>426</ele>
        <time>2019-01-18T09:38:06.000Z</time>
      </trkpt>
      <trkpt lat="43.33615" lon="5.6762">
        <ele>426</ele>
        <time>2019-01-18T09:38:07.000Z</time>
      </trkpt>
      <trkpt lat="43.33615" lon="5.67619">
        <ele>426</ele>
        <time>2019-01-18T09:38:08.000Z</time>
      </trkpt>
      <trkpt lat="43.33615" lon="5.67619">
        <ele>426</ele>
        <time>2019-01-18T09:38:09.000Z</time>
      </trkpt>
      <trkpt lat="43.33615" lon="5.67619">
        <ele>426</ele>
        <time>2019-01-18T09:38:10.000Z</time>
      </trkpt>
      <trkpt lat="43.33615" lon="5.67619">
        <ele>426</ele>
        <time>2019-01-18T09:38:11.000Z</time>
      </trkpt>
      <trkpt lat="43.33615" lon="5.67619">
        <ele>426</ele>
        <time>2019-01-18T09:38:12.000Z</time>
      </trkpt>
      <trkpt lat="43.33615" lon="5.67619">
        <ele>426</ele>
        <time>2019-01-18T09:38:13.000Z</time>
      </trkpt>
      <trkpt lat="43.33615" lon="5.67619">
        <ele>426</ele>
        <time>2019-01-18T09:38:14.000Z</time>
      </trkpt>
      <trkpt lat="43.33615" lon="5.67619">
        <ele>426</ele>
        <time>2019-01-18T09:38:15.000Z</time>
      </trkpt>
      <trkpt lat="43.33615" lon="5.67619">
        <ele>426</ele>
        <time>2019-01-18T09:38:16.000Z</time>
      </trkpt>
      <trkpt lat="43.33614" lon="5.67619">
        <ele>426</ele>
        <time>2019-01-18T09:38:17.000Z</time>
      </trkpt>
      <trkpt lat="43.33614" lon="5.67619">
        <ele>426</ele>
        <time>2019-01-18T09:38:18.000Z</time>
      </trkpt>
      <trkpt lat="43.33614" lon="5.67619">
        <ele>426</ele>
        <time>2019-01-18T09:38:19.000Z</time>
      </trkpt>
      <trkpt lat="43.33614" lon="5.67619">
        <ele>426</ele>
        <time>2019-01-18T09:38:20.000Z</time>
      </trkpt>
      <trkpt lat="43.33614" lon="5.6762">
        <ele>426</ele>
        <time>2019-01-18T09:38:21.000Z</time>
      </trkpt>
      <trkpt lat="43.33614" lon="5.67621">
        <ele>426</ele>
        <time>2019-01-18T09:38:22.000Z</time>
      </trkpt>
      <trkpt lat="43.33614" lon="5.67622">
        <ele>426</ele>
        <time>2019-01-18T09:38:23.000Z</time>
      </trkpt>
      <trkpt lat="43.33613" lon="5.67623">
        <ele>426</ele>
        <time>2019-01-18T09:38:24.000Z</time>
      </trkpt>
      <trkpt lat="43.33613" lon="5.67623">
        <ele>426</ele>
        <time>2019-01-18T09:38:25.000Z</time>
      </trkpt>
      <trkpt lat="43.33613" lon="5.67624">
        <ele>426</ele>
        <time>2019-01-18T09:38:26.000Z</time>
      </trkpt>
      <trkpt lat="43.33613" lon="5.67624">
        <ele>425</ele>
        <time>2019-01-18T09:38:27.000Z</time>
      </trkpt>
      <trkpt lat="43.33613" lon="5.67624">
        <ele>425</ele>
        <time>2019-01-18T09:38:28.000Z</time>
      </trkpt>
      <trkpt lat="43.33612" lon="5.67625">
        <ele>425</ele>
        <time>2019-01-18T09:38:29.000Z</time>
      </trkpt>
      <trkpt lat="43.33612" lon="5.67625">
        <ele>425</ele>
        <time>2019-01-18T09:38:30.000Z</time>
      </trkpt>
      <trkpt lat="43.33612" lon="5.67626">
        <ele>425</ele>
        <time>2019-01-18T09:38:31.000Z</time>
      </trkpt>
      <trkpt lat="43.33612" lon="5.67626">
        <ele>425</ele>
        <time>2019-01-18T09:38:32.000Z</time>
      </trkpt>
      <trkpt lat="43.33612" lon="5.67627">
        <ele>425</ele>
        <time>2019-01-18T09:38:33.000Z</time>
      </trkpt>
      <trkpt lat="43.33612" lon="5.67627">
        <ele>425</ele>
        <time>2019-01-18T09:38:34.000Z</time>
      </trkpt>
      <trkpt lat="43.33612" lon="5.67627">
        <ele>425</ele>
        <time>2019-01-18T09:38:35.000Z</time>
      </trkpt>
      <trkpt lat="43.33612" lon="5.67627">
        <ele>425</ele>
        <time>2019-01-18T09:38:36.000Z</time>
      </trkpt>
      <trkpt lat="43.33612" lon="5.67627">
        <ele>425</ele>
        <time>2019-01-18T09:38:37.000Z</time>
      </trkpt>
      <trkpt lat="43.33612" lon="5.67626">
        <ele>425</ele>
        <time>2019-01-18T09:38:38.000Z</time>
      </trkpt>
      <trkpt lat="43.33611" lon="5.67626">
        <ele>425</ele>
        <time>2019-01-18T09:38:39.000Z</time>
      </trkpt>
      <trkpt lat="43.33611" lon="5.67626">
        <ele>425</ele>
        <time>2019-01-18T09:38:40.000Z</time>
      </trkpt>
      <trkpt lat="43.33611" lon="5.67627">
        <ele>425</ele>
        <time>2019-01-18T09:38:41.000Z</time>
      </trkpt>
      <trkpt lat="43.33611" lon="5.67628">
        <ele>426</ele>
        <time>2019-01-18T09:38:42.000Z</time>
      </trkpt>
      <trkpt lat="43.33611" lon="5.67629">
        <ele>426</ele>
        <time>2019-01-18T09:38:43.000Z</time>
      </trkpt>
      <trkpt lat="43.3361" lon="5.6763">
        <ele>426</ele>
        <time>2019-01-18T09:38:44.000Z</time>
      </trkpt>
      <trkpt lat="43.3361" lon="5.67631">
        <ele>426</ele>
        <time>2019-01-18T09:38:45.000Z</time>
      </trkpt>
      <trkpt lat="43.33609" lon="5.67632">
        <ele>426</ele>
        <time>2019-01-18T09:38:46.000Z</time>
      </trkpt>
      <trkpt lat="43.33609" lon="5.67633">
        <ele>426</ele>
        <time>2019-01-18T09:38:47.000Z</time>
      </trkpt>
      <trkpt lat="43.33608" lon="5.67634">
        <ele>426</ele>
        <time>2019-01-18T09:38:48.000Z</time>
      </trkpt>
      <trkpt lat="43.33608" lon="5.67635">
        <ele>426</ele>
        <time>2019-01-18T09:38:49.000Z</time>
      </trkpt>
      <trkpt lat="43.33608" lon="5.67636">
        <ele>426</ele>
        <time>2019-01-18T09:38:50.000Z</time>
      </trkpt>
      <trkpt lat="43.33608" lon="5.67637">
        <ele>426</ele>
        <time>2019-01-18T09:38:51.000Z</time>
      </trkpt>
      <trkpt lat="43.33607" lon="5.67638">
        <ele>426</ele>
        <time>2019-01-18T09:38:52.000Z</time>
      </trkpt>
      <trkpt lat="43.33607" lon="5.67639">
        <ele>426</ele>
        <time>2019-01-18T09:38:53.000Z</time>
      </trkpt>
      <trkpt lat="43.33607" lon="5.6764">
        <ele>426</ele>
        <time>2019-01-18T09:38:54.000Z</time>
      </trkpt>
      <trkpt lat="43.33606" lon="5.67642">
        <ele>426</ele>
        <time>2019-01-18T09:38:55.000Z</time>
      </trkpt>
      <trkpt lat="43.33606" lon="5.67643">
        <ele>426</ele>
        <time>2019-01-18T09:38:56.000Z</time>
      </trkpt>
      <trkpt lat="43.33605" lon="5.67644">
        <ele>426</ele>
        <time>2019-01-18T09:38:57.000Z</time>
      </trkpt>
      <trkpt lat="43.33605" lon="5.67644">
        <ele>426</ele>
        <time>2019-01-18T09:38:58.000Z</time>
      </trkpt>
      <trkpt lat="43.33604" lon="5.67645">
        <ele>426</ele>
        <time>2019-01-18T09:38:59.000Z</time>
      </trkpt>
      <trkpt lat="43.33604" lon="5.67646">
        <ele>426</ele>
        <time>2019-01-18T09:39:00.000Z</time>
      </trkpt>
      <trkpt lat="43.33604" lon="5.67647">
        <ele>426</ele>
        <time>2019-01-18T09:39:01.000Z</time>
      </trkpt>
      <trkpt lat="43.33603" lon="5.67647">
        <ele>426</ele>
        <time>2019-01-18T09:39:02.000Z</time>
      </trkpt>
      <trkpt lat="43.33603" lon="5.67648">
        <ele>426</ele>
        <time>2019-01-18T09:39:03.000Z</time>
      </trkpt>
      <trkpt lat="43.33602" lon="5.67648">
        <ele>426</ele>
        <time>2019-01-18T09:39:04.000Z</time>
      </trkpt>
      <trkpt lat="43.33602" lon="5.67648">
        <ele>426</ele>
        <time>2019-01-18T09:39:05.000Z</time>
      </trkpt>
      <trkpt lat="43.33601" lon="5.67648">
        <ele>426</ele>
        <time>2019-01-18T09:39:06.000Z</time>
      </trkpt>
      <trkpt lat="43.33601" lon="5.67648">
        <ele>426</ele>
        <time>2019-01-18T09:39:07.000Z</time>
      </trkpt>
      <trkpt lat="43.33601" lon="5.67648">
        <ele>426</ele>
        <time>2019-01-18T09:39:08.000Z</time>
      </trkpt>
      <trkpt lat="43.33601" lon="5.67649">
        <ele>426</ele>
        <time>2019-01-18T09:39:09.000Z</time>
      </trkpt>
      <trkpt lat="43.33601" lon="5.6765">
        <ele>426</ele>
        <time>2019-01-18T09:39:10.000Z</time>
      </trkpt>
      <trkpt lat="43.33601" lon="5.67651">
        <ele>426</ele>
        <time>2019-01-18T09:39:11.000Z</time>
      </trkpt>
      <trkpt lat="43.33601" lon="5.67652">
        <ele>426</ele>
        <time>2019-01-18T09:39:12.000Z</time>
      </trkpt>
      <trkpt lat="43.33601" lon="5.67653">
        <ele>426</ele>
        <time>2019-01-18T09:39:13.000Z</time>
      </trkpt>
      <trkpt lat="43.33601" lon="5.67653">
        <ele>426</ele>
        <time>2019-01-18T09:39:14.000Z</time>
      </trkpt>
      <trkpt lat="43.33601" lon="5.67654">
        <ele>426</ele>
        <time>2019-01-18T09:39:15.000Z</time>
      </trkpt>
      <trkpt lat="43.33601" lon="5.67654">
        <ele>426</ele>
        <time>2019-01-18T09:39:16.000Z</time>
      </trkpt>
      <trkpt lat="43.33601" lon="5.67654">
        <ele>426</ele>
        <time>2019-01-18T09:39:17.000Z</time>
      </trkpt>
      <trkpt lat="43.33602" lon="5.67655">
        <ele>426</ele>
        <time>2019-01-18T09:39:18.000Z</time>
      </trkpt>
      <trkpt lat="43.33602" lon="5.67656">
        <ele>426</ele>
        <time>2019-01-18T09:39:19.000Z</time>
      </trkpt>
      <trkpt lat="43.33602" lon="5.67655">
        <ele>426</ele>
        <time>2019-01-18T09:39:20.000Z</time>
      </trkpt>
      <trkpt lat="43.33602" lon="5.67655">
        <ele>426</ele>
        <time>2019-01-18T09:39:21.000Z</time>
      </trkpt>
      <trkpt lat="43.33602" lon="5.67655">
        <ele>426</ele>
        <time>2019-01-18T09:39:22.000Z</time>
      </trkpt>
      <trkpt lat="43.33602" lon="5.67656">
        <ele>426</ele>
        <time>2019-01-18T09:39:23.000Z</time>
      </trkpt>
      <trkpt lat="43.33602" lon="5.67657">
        <ele>426</ele>
        <time>2019-01-18T09:39:24.000Z</time>
      </trkpt>
      <trkpt lat="43.33603" lon="5.67658">
        <ele>426</ele>
        <time>2019-01-18T09:39:25.000Z</time>
      </trkpt>
      <trkpt lat="43.33602" lon="5.67659">
        <ele>426</ele>
        <time>2019-01-18T09:39:26.000Z</time>
      </trkpt>
      <trkpt lat="43.33602" lon="5.6766">
        <ele>426</ele>
        <time>2019-01-18T09:39:27.000Z</time>
      </trkpt>
      <trkpt lat="43.33602" lon="5.6766">
        <ele>426</ele>
        <time>2019-01-18T09:39:28.000Z</time>
      </trkpt>
      <trkpt lat="43.33602" lon="5.67661">
        <ele>426</ele>
        <time>2019-01-18T09:39:29.000Z</time>
      </trkpt>
      <trkpt lat="43.33602" lon="5.67661">
        <ele>426</ele>
        <time>2019-01-18T09:39:30.000Z</time>
      </trkpt>
      <trkpt lat="43.33602" lon="5.67662">
        <ele>426</ele>
        <time>2019-01-18T09:39:31.000Z</time>
      </trkpt>
      <trkpt lat="43.33602" lon="5.67663">
        <ele>426</ele>
        <time>2019-01-18T09:39:32.000Z</time>
      </trkpt>
      <trkpt lat="43.33602" lon="5.67663">
        <ele>426</ele>
        <time>2019-01-18T09:39:33.000Z</time>
      </trkpt>
      <trkpt lat="43.33602" lon="5.67664">
        <ele>427</ele>
        <time>2019-01-18T09:39:34.000Z</time>
      </trkpt>
      <trkpt lat="43.33602" lon="5.67664">
        <ele>427</ele>
        <time>2019-01-18T09:39:35.000Z</time>
      </trkpt>
      <trkpt lat="43.33602" lon="5.67665">
        <ele>427</ele>
        <time>2019-01-18T09:39:36.000Z</time>
      </trkpt>
      <trkpt lat="43.33602" lon="5.67666">
        <ele>427</ele>
        <time>2019-01-18T09:39:37.000Z</time>
      </trkpt>
      <trkpt lat="43.33601" lon="5.67668">
        <ele>427</ele>
        <time>2019-01-18T09:39:38.000Z</time>
      </trkpt>
      <trkpt lat="43.33601" lon="5.67669">
        <ele>427</ele>
        <time>2019-01-18T09:39:39.000Z</time>
      </trkpt>
      <trkpt lat="43.336" lon="5.6767">
        <ele>427</ele>
        <time>2019-01-18T09:39:40.000Z</time>
      </trkpt>
      <trkpt lat="43.336" lon="5.67671">
        <ele>427</ele>
        <time>2019-01-18T09:39:41.000Z</time>
      </trkpt>
      <trkpt lat="43.336" lon="5.67672">
        <ele>427</ele>
        <time>2019-01-18T09:39:42.000Z</time>
      </trkpt>
      <trkpt lat="43.33599" lon="5.67673">
        <ele>427</ele>
        <time>2019-01-18T09:39:43.000Z</time>
      </trkpt>
      <trkpt lat="43.33599" lon="5.67674">
        <ele>427</ele>
        <time>2019-01-18T09:39:44.000Z</time>
      </trkpt>
      <trkpt lat="43.33599" lon="5.67675">
        <ele>427</ele>
        <time>2019-01-18T09:39:45.000Z</time>
      </trkpt>
      <trkpt lat="43.33599" lon="5.67676">
        <ele>427</ele>
        <time>2019-01-18T09:39:46.000Z</time>
      </trkpt>
      <trkpt lat="43.33599" lon="5.67676">
        <ele>427</ele>
        <time>2019-01-18T09:39:47.000Z</time>
      </trkpt>
      <trkpt lat="43.33599" lon="5.67676">
        <ele>427</ele>
        <time>2019-01-18T09:39:48.000Z</time>
      </trkpt>
      <trkpt lat="43.33599" lon="5.67676">
        <ele>427</ele>
        <time>2019-01-18T09:39:49.000Z</time>
      </trkpt>
      <trkpt lat="43.33599" lon="5.67676">
        <ele>427</ele>
        <time>2019-01-18T09:39:50.000Z</time>
      </trkpt>
      <trkpt lat="43.33599" lon="5.67676">
        <ele>427</ele>
        <time>2019-01-18T09:39:51.000Z</time>
      </trkpt>
      <trkpt lat="43.33599" lon="5.67677">
        <ele>427</ele>
        <time>2019-01-18T09:39:52.000Z</time>
      </trkpt>
      <trkpt lat="43.33599" lon="5.67677">
        <ele>427</ele>
        <time>2019-01-18T09:39:53.000Z</time>
      </trkpt>
      <trkpt lat="43.33599" lon="5.67678">
        <ele>427</ele>
        <time>2019-01-18T09:39:54.000Z</time>
      </trkpt>
      <trkpt lat="43.33599" lon="5.67678">
        <ele>427</ele>
        <time>2019-01-18T09:39:55.000Z</time>
      </trkpt>
      <trkpt lat="43.33599" lon="5.67679">
        <ele>428</ele>
        <time>2019-01-18T09:39:56.000Z</time>
      </trkpt>
      <trkpt lat="43.33599" lon="5.67679">
        <ele>428</ele>
        <time>2019-01-18T09:39:57.000Z</time>
      </trkpt>
      <trkpt lat="43.33599" lon="5.6768">
        <ele>428</ele>
        <time>2019-01-18T09:39:58.000Z</time>
      </trkpt>
      <trkpt lat="43.33599" lon="5.67681">
        <ele>428</ele>
        <time>2019-01-18T09:39:59.000Z</time>
      </trkpt>
      <trkpt lat="43.336" lon="5.67681">
        <ele>428</ele>
        <time>2019-01-18T09:40:00.000Z</time>
      </trkpt>
      <trkpt lat="43.336" lon="5.67682">
        <ele>429</ele>
        <time>2019-01-18T09:40:01.000Z</time>
      </trkpt>
      <trkpt lat="43.336" lon="5.67683">
        <ele>429</ele>
        <time>2019-01-18T09:40:02.000Z</time>
      </trkpt>
      <trkpt lat="43.336" lon="5.67683">
        <ele>429</ele>
        <time>2019-01-18T09:40:03.000Z</time>
      </trkpt>
      <trkpt lat="43.336" lon="5.67684">
        <ele>429</ele>
        <time>2019-01-18T09:40:04.000Z</time>
      </trkpt>
      <trkpt lat="43.336" lon="5.67685">
        <ele>429</ele>
        <time>2019-01-18T09:40:05.000Z</time>
      </trkpt>
      <trkpt lat="43.336" lon="5.67685">
        <ele>429</ele>
        <time>2019-01-18T09:40:06.000Z</time>
      </trkpt>
      <trkpt lat="43.336" lon="5.67686">
        <ele>429</ele>
        <time>2019-01-18T09:40:07.000Z</time>
      </trkpt>
      <trkpt lat="43.33599" lon="5.67686">
        <ele>429</ele>
        <time>2019-01-18T09:40:08.000Z</time>
      </trkpt>
      <trkpt lat="43.33599" lon="5.67687">
        <ele>429</ele>
        <time>2019-01-18T09:40:09.000Z</time>
      </trkpt>
      <trkpt lat="43.33599" lon="5.67687">
        <ele>429</ele>
        <time>2019-01-18T09:40:10.000Z</time>
      </trkpt>
      <trkpt lat="43.33599" lon="5.67688">
        <ele>429</ele>
        <time>2019-01-18T09:40:11.000Z</time>
      </trkpt>
      <trkpt lat="43.33599" lon="5.67689">
        <ele>429</ele>
        <time>2019-01-18T09:40:12.000Z</time>
      </trkpt>
      <trkpt lat="43.33599" lon="5.67689">
        <ele>430</ele>
        <time>2019-01-18T09:40:13.000Z</time>
      </trkpt>
      <trkpt lat="43.33599" lon="5.6769">
        <ele>430</ele>
        <time>2019-01-18T09:40:14.000Z</time>
      </trkpt>
      <trkpt lat="43.33599" lon="5.67691">
        <ele>430</ele>
        <time>2019-01-18T09:40:15.000Z</time>
      </trkpt>
      <trkpt lat="43.33599" lon="5.67691">
        <ele>430</ele>
        <time>2019-01-18T09:40:16.000Z</time>
      </trkpt>
      <trkpt lat="43.33598" lon="5.67692">
        <ele>430</ele>
        <time>2019-01-18T09:40:17.000Z</time>
      </trkpt>
      <trkpt lat="43.33598" lon="5.67692">
        <ele>430</ele>
        <time>2019-01-18T09:40:18.000Z</time>
      </trkpt>
      <trkpt lat="43.33599" lon="5.67693">
        <ele>430</ele>
        <time>2019-01-18T09:40:19.000Z</time>
      </trkpt>
      <trkpt lat="43.33599" lon="5.67694">
        <ele>430</ele>
        <time>2019-01-18T09:40:20.000Z</time>
      </trkpt>
      <trkpt lat="43.33599" lon="5.67695">
        <ele>431</ele>
        <time>2019-01-18T09:40:21.000Z</time>
      </trkpt>
      <trkpt lat="43.33599" lon="5.67696">
        <ele>431</ele>
        <time>2019-01-18T09:40:22.000Z</time>
      </trkpt>
      <trkpt lat="43.33599" lon="5.67696">
        <ele>431</ele>
        <time>2019-01-18T09:40:23.000Z</time>
      </trkpt>
      <trkpt lat="43.33599" lon="5.67697">
        <ele>431</ele>
        <time>2019-01-18T09:40:24.000Z</time>
      </trkpt>
      <trkpt lat="43.33599" lon="5.67698">
        <ele>431</ele>
        <time>2019-01-18T09:40:25.000Z</time>
      </trkpt>
      <trkpt lat="43.33599" lon="5.67699">
        <ele>431</ele>
        <time>2019-01-18T09:40:26.000Z</time>
      </trkpt>
      <trkpt lat="43.33598" lon="5.677">
        <ele>431</ele>
        <time>2019-01-18T09:40:27.000Z</time>
      </trkpt>
      <trkpt lat="43.33598" lon="5.67701">
        <ele>431</ele>
        <time>2019-01-18T09:40:28.000Z</time>
      </trkpt>
      <trkpt lat="43.33598" lon="5.67702">
        <ele>431</ele>
        <time>2019-01-18T09:40:29.000Z</time>
      </trkpt>
      <trkpt lat="43.33597" lon="5.67703">
        <ele>431</ele>
        <time>2019-01-18T09:40:30.000Z</time>
      </trkpt>
      <trkpt lat="43.33597" lon="5.67703">
        <ele>431</ele>
        <time>2019-01-18T09:40:31.000Z</time>
      </trkpt>
      <trkpt lat="43.33597" lon="5.67705">
        <ele>431</ele>
        <time>2019-01-18T09:40:32.000Z</time>
      </trkpt>
      <trkpt lat="43.33596" lon="5.67706">
        <ele>431</ele>
        <time>2019-01-18T09:40:33.000Z</time>
      </trkpt>
      <trkpt lat="43.33596" lon="5.67707">
        <ele>431</ele>
        <time>2019-01-18T09:40:34.000Z</time>
      </trkpt>
      <trkpt lat="43.33595" lon="5.67708">
        <ele>431</ele>
        <time>2019-01-18T09:40:35.000Z</time>
      </trkpt>
      <trkpt lat="43.33595" lon="5.67709">
        <ele>431</ele>
        <time>2019-01-18T09:40:36.000Z</time>
      </trkpt>
      <trkpt lat="43.33595" lon="5.67709">
        <ele>431</ele>
        <time>2019-01-18T09:40:37.000Z</time>
      </trkpt>
      <trkpt lat="43.33594" lon="5.67709">
        <ele>431</ele>
        <time>2019-01-18T09:40:38.000Z</time>
      </trkpt>
      <trkpt lat="43.33594" lon="5.67709">
        <ele>431</ele>
        <time>2019-01-18T09:40:39.000Z</time>
      </trkpt>
      <trkpt lat="43.33594" lon="5.67709">
        <ele>431</ele>
        <time>2019-01-18T09:40:40.000Z</time>
      </trkpt>
      <trkpt lat="43.33594" lon="5.67709">
        <ele>431</ele>
        <time>2019-01-18T09:40:41.000Z</time>
      </trkpt>
      <trkpt lat="43.33594" lon="5.67709">
        <ele>431</ele>
        <time>2019-01-18T09:40:42.000Z</time>
      </trkpt>
      <trkpt lat="43.33594" lon="5.67709">
        <ele>431</ele>
        <time>2019-01-18T09:40:43.000Z</time>
      </trkpt>
      <trkpt lat="43.33594" lon="5.67709">
        <ele>431</ele>
        <time>2019-01-18T09:40:44.000Z</time>
      </trkpt>
      <trkpt lat="43.33594" lon="5.67709">
        <ele>431</ele>
        <time>2019-01-18T09:40:45.000Z</time>
      </trkpt>
      <trkpt lat="43.33594" lon="5.67709">
        <ele>431</ele>
        <time>2019-01-18T09:40:46.000Z</time>
      </trkpt>
      <trkpt lat="43.33594" lon="5.67709">
        <ele>431</ele>
        <time>2019-01-18T09:40:47.000Z</time>
      </trkpt>
      <trkpt lat="43.33594" lon="5.67709">
        <ele>431</ele>
        <time>2019-01-18T09:40:48.000Z</time>
      </trkpt>
      <trkpt lat="43.33594" lon="5.67709">
        <ele>431</ele>
        <time>2019-01-18T09:40:49.000Z</time>
      </trkpt>
      <trkpt lat="43.33594" lon="5.67709">
        <ele>431</ele>
        <time>2019-01-18T09:40:50.000Z</time>
      </trkpt>
      <trkpt lat="43.33594" lon="5.6771">
        <ele>431</ele>
        <time>2019-01-18T09:40:51.000Z</time>
      </trkpt>
      <trkpt lat="43.33594" lon="5.6771">
        <ele>431</ele>
        <time>2019-01-18T09:40:52.000Z</time>
      </trkpt>
      <trkpt lat="43.33594" lon="5.6771">
        <ele>431</ele>
        <time>2019-01-18T09:40:53.000Z</time>
      </trkpt>
      <trkpt lat="43.33594" lon="5.6771">
        <ele>432</ele>
        <time>2019-01-18T09:40:54.000Z</time>
      </trkpt>
      <trkpt lat="43.33594" lon="5.6771">
        <ele>432</ele>
        <time>2019-01-18T09:40:55.000Z</time>
      </trkpt>
      <trkpt lat="43.33594" lon="5.6771">
        <ele>432</ele>
        <time>2019-01-18T09:40:56.000Z</time>
      </trkpt>
      <trkpt lat="43.33594" lon="5.6771">
        <ele>432</ele>
        <time>2019-01-18T09:40:57.000Z</time>
      </trkpt>
      <trkpt lat="43.33594" lon="5.6771">
        <ele>432</ele>
        <time>2019-01-18T09:40:58.000Z</time>
      </trkpt>
      <trkpt lat="43.33594" lon="5.6771">
        <ele>432</ele>
        <time>2019-01-18T09:40:59.000Z</time>
      </trkpt>
      <trkpt lat="43.33593" lon="5.6771">
        <ele>432</ele>
        <time>2019-01-18T09:41:00.000Z</time>
      </trkpt>
      <trkpt lat="43.33593" lon="5.6771">
        <ele>432</ele>
        <time>2019-01-18T09:41:01.000Z</time>
      </trkpt>
      <trkpt lat="43.33593" lon="5.6771">
        <ele>432</ele>
        <time>2019-01-18T09:41:02.000Z</time>
      </trkpt>
      <trkpt lat="43.33593" lon="5.6771">
        <ele>432</ele>
        <time>2019-01-18T09:41:03.000Z</time>
      </trkpt>
      <trkpt lat="43.33593" lon="5.6771">
        <ele>432</ele>
        <time>2019-01-18T09:41:04.000Z</time>
      </trkpt>
      <trkpt lat="43.33593" lon="5.6771">
        <ele>432</ele>
        <time>2019-01-18T09:41:05.000Z</time>
      </trkpt>
      <trkpt lat="43.33593" lon="5.6771">
        <ele>432</ele>
        <time>2019-01-18T09:41:06.000Z</time>
      </trkpt>
      <trkpt lat="43.33593" lon="5.6771">
        <ele>432</ele>
        <time>2019-01-18T09:41:07.000Z</time>
      </trkpt>
      <trkpt lat="43.33593" lon="5.67711">
        <ele>433</ele>
        <time>2019-01-18T09:41:08.000Z</time>
      </trkpt>
      <trkpt lat="43.33592" lon="5.67711">
        <ele>433</ele>
        <time>2019-01-18T09:41:09.000Z</time>
      </trkpt>
      <trkpt lat="43.33592" lon="5.67712">
        <ele>433</ele>
        <time>2019-01-18T09:41:10.000Z</time>
      </trkpt>
      <trkpt lat="43.33592" lon="5.67713">
        <ele>433</ele>
        <time>2019-01-18T09:41:11.000Z</time>
      </trkpt>
      <trkpt lat="43.33592" lon="5.67714">
        <ele>433</ele>
        <time>2019-01-18T09:41:12.000Z</time>
      </trkpt>
      <trkpt lat="43.33592" lon="5.67715">
        <ele>433</ele>
        <time>2019-01-18T09:41:13.000Z</time>
      </trkpt>
      <trkpt lat="43.33591" lon="5.67716">
        <ele>433</ele>
        <time>2019-01-18T09:41:14.000Z</time>
      </trkpt>
      <trkpt lat="43.33591" lon="5.67717">
        <ele>433</ele>
        <time>2019-01-18T09:41:15.000Z</time>
      </trkpt>
      <trkpt lat="43.33591" lon="5.67717">
        <ele>433</ele>
        <time>2019-01-18T09:41:16.000Z</time>
      </trkpt>
      <trkpt lat="43.33591" lon="5.67718">
        <ele>433</ele>
        <time>2019-01-18T09:41:17.000Z</time>
      </trkpt>
      <trkpt lat="43.33591" lon="5.67718">
        <ele>433</ele>
        <time>2019-01-18T09:41:18.000Z</time>
      </trkpt>
      <trkpt lat="43.33591" lon="5.67719">
        <ele>434</ele>
        <time>2019-01-18T09:41:19.000Z</time>
      </trkpt>
      <trkpt lat="43.3359" lon="5.67719">
        <ele>434</ele>
        <time>2019-01-18T09:41:20.000Z</time>
      </trkpt>
      <trkpt lat="43.3359" lon="5.6772">
        <ele>434</ele>
        <time>2019-01-18T09:41:21.000Z</time>
      </trkpt>
      <trkpt lat="43.33589" lon="5.67721">
        <ele>434</ele>
        <time>2019-01-18T09:41:22.000Z</time>
      </trkpt>
      <trkpt lat="43.33589" lon="5.67722">
        <ele>434</ele>
        <time>2019-01-18T09:41:23.000Z</time>
      </trkpt>
      <trkpt lat="43.33589" lon="5.67724">
        <ele>434</ele>
        <time>2019-01-18T09:41:24.000Z</time>
      </trkpt>
      <trkpt lat="43.33588" lon="5.67725">
        <ele>434</ele>
        <time>2019-01-18T09:41:25.000Z</time>
      </trkpt>
      <trkpt lat="43.33588" lon="5.67726">
        <ele>434</ele>
        <time>2019-01-18T09:41:26.000Z</time>
      </trkpt>
      <trkpt lat="43.33587" lon="5.67726">
        <ele>434</ele>
        <time>2019-01-18T09:41:27.000Z</time>
      </trkpt>
      <trkpt lat="43.33587" lon="5.67727">
        <ele>434</ele>
        <time>2019-01-18T09:41:28.000Z</time>
      </trkpt>
      <trkpt lat="43.33586" lon="5.67729">
        <ele>434</ele>
        <time>2019-01-18T09:41:29.000Z</time>
      </trkpt>
      <trkpt lat="43.33586" lon="5.6773">
        <ele>434</ele>
        <time>2019-01-18T09:41:30.000Z</time>
      </trkpt>
      <trkpt lat="43.33585" lon="5.67731">
        <ele>434</ele>
        <time>2019-01-18T09:41:31.000Z</time>
      </trkpt>
      <trkpt lat="43.33585" lon="5.67732">
        <ele>435</ele>
        <time>2019-01-18T09:41:32.000Z</time>
      </trkpt>
      <trkpt lat="43.33584" lon="5.67733">
        <ele>435</ele>
        <time>2019-01-18T09:41:33.000Z</time>
      </trkpt>
      <trkpt lat="43.33584" lon="5.67734">
        <ele>435</ele>
        <time>2019-01-18T09:41:34.000Z</time>
      </trkpt>
      <trkpt lat="43.33584" lon="5.67734">
        <ele>435</ele>
        <time>2019-01-18T09:41:35.000Z</time>
      </trkpt>
      <trkpt lat="43.33584" lon="5.67734">
        <ele>435</ele>
        <time>2019-01-18T09:41:36.000Z</time>
      </trkpt>
      <trkpt lat="43.33583" lon="5.67735">
        <ele>435</ele>
        <time>2019-01-18T09:41:37.000Z</time>
      </trkpt>
      <trkpt lat="43.33583" lon="5.67735">
        <ele>435</ele>
        <time>2019-01-18T09:41:38.000Z</time>
      </trkpt>
      <trkpt lat="43.33583" lon="5.67735">
        <ele>435</ele>
        <time>2019-01-18T09:41:39.000Z</time>
      </trkpt>
      <trkpt lat="43.33582" lon="5.67735">
        <ele>435</ele>
        <time>2019-01-18T09:41:40.000Z</time>
      </trkpt>
      <trkpt lat="43.33582" lon="5.67735">
        <ele>435</ele>
        <time>2019-01-18T09:41:41.000Z</time>
      </trkpt>
      <trkpt lat="43.33582" lon="5.67735">
        <ele>435</ele>
        <time>2019-01-18T09:41:42.000Z</time>
      </trkpt>
      <trkpt lat="43.33582" lon="5.67735">
        <ele>435</ele>
        <time>2019-01-18T09:41:43.000Z</time>
      </trkpt>
      <trkpt lat="43.33582" lon="5.67735">
        <ele>435</ele>
        <time>2019-01-18T09:41:44.000Z</time>
      </trkpt>
      <trkpt lat="43.33581" lon="5.67735">
        <ele>435</ele>
        <time>2019-01-18T09:41:45.000Z</time>
      </trkpt>
      <trkpt lat="43.33581" lon="5.67734">
        <ele>435</ele>
        <time>2019-01-18T09:41:46.000Z</time>
      </trkpt>
      <trkpt lat="43.33581" lon="5.67734">
        <ele>435</ele>
        <time>2019-01-18T09:41:47.000Z</time>
      </trkpt>
      <trkpt lat="43.3358" lon="5.67734">
        <ele>435</ele>
        <time>2019-01-18T09:41:48.000Z</time>
      </trkpt>
      <trkpt lat="43.3358" lon="5.67734">
        <ele>435</ele>
        <time>2019-01-18T09:41:49.000Z</time>
      </trkpt>
      <trkpt lat="43.3358" lon="5.67733">
        <ele>435</ele>
        <time>2019-01-18T09:41:50.000Z</time>
      </trkpt>
      <trkpt lat="43.3358" lon="5.67733">
        <ele>435</ele>
        <time>2019-01-18T09:41:51.000Z</time>
      </trkpt>
      <trkpt lat="43.33579" lon="5.67733">
        <ele>435</ele>
        <time>2019-01-18T09:41:52.000Z</time>
      </trkpt>
      <trkpt lat="43.33579" lon="5.67733">
        <ele>435</ele>
        <time>2019-01-18T09:41:53.000Z</time>
      </trkpt>
      <trkpt lat="43.33579" lon="5.67732">
        <ele>435</ele>
        <time>2019-01-18T09:41:54.000Z</time>
      </trkpt>
      <trkpt lat="43.33578" lon="5.67732">
        <ele>435</ele>
        <time>2019-01-18T09:41:55.000Z</time>
      </trkpt>
      <trkpt lat="43.33578" lon="5.67732">
        <ele>435</ele>
        <time>2019-01-18T09:41:56.000Z</time>
      </trkpt>
      <trkpt lat="43.33578" lon="5.67732">
        <ele>435</ele>
        <time>2019-01-18T09:41:57.000Z</time>
      </trkpt>
      <trkpt lat="43.33578" lon="5.67732">
        <ele>435</ele>
        <time>2019-01-18T09:41:58.000Z</time>
      </trkpt>
      <trkpt lat="43.33578" lon="5.67732">
        <ele>435</ele>
        <time>2019-01-18T09:41:59.000Z</time>
      </trkpt>
      <trkpt lat="43.33578" lon="5.67732">
        <ele>435</ele>
        <time>2019-01-18T09:42:00.000Z</time>
      </trkpt>
      <trkpt lat="43.33578" lon="5.67732">
        <ele>435</ele>
        <time>2019-01-18T09:42:01.000Z</time>
      </trkpt>
      <trkpt lat="43.33578" lon="5.67731">
        <ele>435</ele>
        <time>2019-01-18T09:42:02.000Z</time>
      </trkpt>
      <trkpt lat="43.33577" lon="5.67731">
        <ele>435</ele>
        <time>2019-01-18T09:42:03.000Z</time>
      </trkpt>
      <trkpt lat="43.33577" lon="5.67731">
        <ele>435</ele>
        <time>2019-01-18T09:42:04.000Z</time>
      </trkpt>
      <trkpt lat="43.33577" lon="5.67731">
        <ele>435</ele>
        <time>2019-01-18T09:42:05.000Z</time>
      </trkpt>
      <trkpt lat="43.33577" lon="5.67731">
        <ele>435</ele>
        <time>2019-01-18T09:42:06.000Z</time>
      </trkpt>
      <trkpt lat="43.33577" lon="5.67732">
        <ele>435</ele>
        <time>2019-01-18T09:42:07.000Z</time>
      </trkpt>
      <trkpt lat="43.33576" lon="5.67732">
        <ele>435</ele>
        <time>2019-01-18T09:42:08.000Z</time>
      </trkpt>
      <trkpt lat="43.33576" lon="5.67732">
        <ele>435</ele>
        <time>2019-01-18T09:42:09.000Z</time>
      </trkpt>
      <trkpt lat="43.33576" lon="5.67732">
        <ele>435</ele>
        <time>2019-01-18T09:42:10.000Z</time>
      </trkpt>
      <trkpt lat="43.33576" lon="5.67732">
        <ele>435</ele>
        <time>2019-01-18T09:42:11.000Z</time>
      </trkpt>
      <trkpt lat="43.33576" lon="5.67732">
        <ele>435</ele>
        <time>2019-01-18T09:42:12.000Z</time>
      </trkpt>
      <trkpt lat="43.33577" lon="5.67732">
        <ele>435</ele>
        <time>2019-01-18T09:42:13.000Z</time>
      </trkpt>
      <trkpt lat="43.33577" lon="5.67732">
        <ele>435</ele>
        <time>2019-01-18T09:42:14.000Z</time>
      </trkpt>
      <trkpt lat="43.33577" lon="5.67732">
        <ele>436</ele>
        <time>2019-01-18T09:42:15.000Z</time>
      </trkpt>
      <trkpt lat="43.33577" lon="5.67733">
        <ele>436</ele>
        <time>2019-01-18T09:42:16.000Z</time>
      </trkpt>
      <trkpt lat="43.33577" lon="5.67733">
        <ele>436</ele>
        <time>2019-01-18T09:42:17.000Z</time>
      </trkpt>
      <trkpt lat="43.33577" lon="5.67733">
        <ele>436</ele>
        <time>2019-01-18T09:42:18.000Z</time>
      </trkpt>
      <trkpt lat="43.33577" lon="5.67733">
        <ele>436</ele>
        <time>2019-01-18T09:42:19.000Z</time>
      </trkpt>
      <trkpt lat="43.33577" lon="5.67733">
        <ele>436</ele>
        <time>2019-01-18T09:42:20.000Z</time>
      </trkpt>
      <trkpt lat="43.33576" lon="5.67733">
        <ele>436</ele>
        <time>2019-01-18T09:42:21.000Z</time>
      </trkpt>
      <trkpt lat="43.33576" lon="5.67733">
        <ele>436</ele>
        <time>2019-01-18T09:42:22.000Z</time>
      </trkpt>
      <trkpt lat="43.33576" lon="5.67733">
        <ele>436</ele>
        <time>2019-01-18T09:42:23.000Z</time>
      </trkpt>
      <trkpt lat="43.33577" lon="5.67733">
        <ele>436</ele>
        <time>2019-01-18T09:42:24.000Z</time>
      </trkpt>
      <trkpt lat="43.33576" lon="5.67733">
        <ele>436</ele>
        <time>2019-01-18T09:42:25.000Z</time>
      </trkpt>
      <trkpt lat="43.33576" lon="5.67733">
        <ele>436</ele>
        <time>2019-01-18T09:42:26.000Z</time>
      </trkpt>
      <trkpt lat="43.33576" lon="5.67734">
        <ele>436</ele>
        <time>2019-01-18T09:42:27.000Z</time>
      </trkpt>
      <trkpt lat="43.33576" lon="5.67734">
        <ele>436</ele>
        <time>2019-01-18T09:42:28.000Z</time>
      </trkpt>
      <trkpt lat="43.33576" lon="5.67734">
        <ele>436</ele>
        <time>2019-01-18T09:42:29.000Z</time>
      </trkpt>
      <trkpt lat="43.33576" lon="5.67734">
        <ele>436</ele>
        <time>2019-01-18T09:42:30.000Z</time>
      </trkpt>
      <trkpt lat="43.33576" lon="5.67734">
        <ele>436</ele>
        <time>2019-01-18T09:42:31.000Z</time>
      </trkpt>
      <trkpt lat="43.33576" lon="5.67734">
        <ele>436</ele>
        <time>2019-01-18T09:42:32.000Z</time>
      </trkpt>
      <trkpt lat="43.33576" lon="5.67734">
        <ele>436</ele>
        <time>2019-01-18T09:42:33.000Z</time>
      </trkpt>
      <trkpt lat="43.33576" lon="5.67734">
        <ele>436</ele>
        <time>2019-01-18T09:42:34.000Z</time>
      </trkpt>
      <trkpt lat="43.33576" lon="5.67734">
        <ele>437</ele>
        <time>2019-01-18T09:42:35.000Z</time>
      </trkpt>
      <trkpt lat="43.33576" lon="5.67734">
        <ele>437</ele>
        <time>2019-01-18T09:42:36.000Z</time>
      </trkpt>
      <trkpt lat="43.33576" lon="5.67734">
        <ele>437</ele>
        <time>2019-01-18T09:42:37.000Z</time>
      </trkpt>
      <trkpt lat="43.33576" lon="5.67734">
        <ele>437</ele>
        <time>2019-01-18T09:42:38.000Z</time>
      </trkpt>
      <trkpt lat="43.33576" lon="5.67734">
        <ele>437</ele>
        <time>2019-01-18T09:42:39.000Z</time>
      </trkpt>
      <trkpt lat="43.33576" lon="5.67734">
        <ele>437</ele>
        <time>2019-01-18T09:42:40.000Z</time>
      </trkpt>
      <trkpt lat="43.33576" lon="5.67734">
        <ele>437</ele>
        <time>2019-01-18T09:42:41.000Z</time>
      </trkpt>
      <trkpt lat="43.33576" lon="5.67734">
        <ele>437</ele>
        <time>2019-01-18T09:42:42.000Z</time>
      </trkpt>
      <trkpt lat="43.33576" lon="5.67734">
        <ele>437</ele>
        <time>2019-01-18T09:42:43.000Z</time>
      </trkpt>
      <trkpt lat="43.33576" lon="5.67734">
        <ele>437</ele>
        <time>2019-01-18T09:42:44.000Z</time>
      </trkpt>
      <trkpt lat="43.33576" lon="5.67734">
        <ele>437</ele>
        <time>2019-01-18T09:42:45.000Z</time>
      </trkpt>
      <trkpt lat="43.33576" lon="5.67734">
        <ele>437</ele>
        <time>2019-01-18T09:42:46.000Z</time>
      </trkpt>
      <trkpt lat="43.33576" lon="5.67734">
        <ele>437</ele>
        <time>2019-01-18T09:42:47.000Z</time>
      </trkpt>
      <trkpt lat="43.33576" lon="5.67734">
        <ele>437</ele>
        <time>2019-01-18T09:42:48.000Z</time>
      </trkpt>
      <trkpt lat="43.33576" lon="5.67735">
        <ele>437</ele>
        <time>2019-01-18T09:42:49.000Z</time>
      </trkpt>
      <trkpt lat="43.33576" lon="5.67735">
        <ele>437</ele>
        <time>2019-01-18T09:42:50.000Z</time>
      </trkpt>
      <trkpt lat="43.33576" lon="5.67735">
        <ele>437</ele>
        <time>2019-01-18T09:42:51.000Z</time>
      </trkpt>
      <trkpt lat="43.33576" lon="5.67735">
        <ele>437</ele>
        <time>2019-01-18T09:42:52.000Z</time>
      </trkpt>
      <trkpt lat="43.33576" lon="5.67735">
        <ele>437</ele>
        <time>2019-01-18T09:42:53.000Z</time>
      </trkpt>
      <trkpt lat="43.33576" lon="5.67735">
        <ele>437</ele>
        <time>2019-01-18T09:42:54.000Z</time>
      </trkpt>
      <trkpt lat="43.33576" lon="5.67735">
        <ele>437</ele>
        <time>2019-01-18T09:42:55.000Z</time>
      </trkpt>
      <trkpt lat="43.33576" lon="5.67735">
        <ele>437</ele>
        <time>2019-01-18T09:42:56.000Z</time>
      </trkpt>
      <trkpt lat="43.33576" lon="5.67735">
        <ele>437</ele>
        <time>2019-01-18T09:42:57.000Z</time>
      </trkpt>
      <trkpt lat="43.33576" lon="5.67735">
        <ele>437</ele>
        <time>2019-01-18T09:42:58.000Z</time>
      </trkpt>
      <trkpt lat="43.33576" lon="5.67735">
        <ele>437</ele>
        <time>2019-01-18T09:42:59.000Z</time>
      </trkpt>
      <trkpt lat="43.33576" lon="5.67735">
        <ele>437</ele>
        <time>2019-01-18T09:43:00.000Z</time>
      </trkpt>
      <trkpt lat="43.33576" lon="5.67735">
        <ele>437</ele>
        <time>2019-01-18T09:43:01.000Z</time>
      </trkpt>
      <trkpt lat="43.33575" lon="5.67735">
        <ele>437</ele>
        <time>2019-01-18T09:43:02.000Z</time>
      </trkpt>
      <trkpt lat="43.33575" lon="5.67735">
        <ele>437</ele>
        <time>2019-01-18T09:43:03.000Z</time>
      </trkpt>
      <trkpt lat="43.33575" lon="5.67735">
        <ele>437</ele>
        <time>2019-01-18T09:43:04.000Z</time>
      </trkpt>
      <trkpt lat="43.33575" lon="5.67735">
        <ele>437</ele>
        <time>2019-01-18T09:43:05.000Z</time>
      </trkpt>
      <trkpt lat="43.33575" lon="5.67735">
        <ele>437</ele>
        <time>2019-01-18T09:43:06.000Z</time>
      </trkpt>
      <trkpt lat="43.33575" lon="5.67735">
        <ele>437</ele>
        <time>2019-01-18T09:43:07.000Z</time>
      </trkpt>
      <trkpt lat="43.33575" lon="5.67735">
        <ele>437</ele>
        <time>2019-01-18T09:43:08.000Z</time>
      </trkpt>
      <trkpt lat="43.33575" lon="5.67735">
        <ele>437</ele>
        <time>2019-01-18T09:43:09.000Z</time>
      </trkpt>
      <trkpt lat="43.33575" lon="5.67735">
        <ele>437</ele>
        <time>2019-01-18T09:43:10.000Z</time>
      </trkpt>
      <trkpt lat="43.33575" lon="5.67735">
        <ele>437</ele>
        <time>2019-01-18T09:43:11.000Z</time>
      </trkpt>
      <trkpt lat="43.33575" lon="5.67735">
        <ele>437</ele>
        <time>2019-01-18T09:43:12.000Z</time>
      </trkpt>
      <trkpt lat="43.33575" lon="5.67735">
        <ele>437</ele>
        <time>2019-01-18T09:43:13.000Z</time>
      </trkpt>
      <trkpt lat="43.33575" lon="5.67735">
        <ele>437</ele>
        <time>2019-01-18T09:43:14.000Z</time>
      </trkpt>
      <trkpt lat="43.33575" lon="5.67735">
        <ele>437</ele>
        <time>2019-01-18T09:43:15.000Z</time>
      </trkpt>
      <trkpt lat="43.33575" lon="5.67735">
        <ele>437</ele>
        <time>2019-01-18T09:43:16.000Z</time>
      </trkpt>
      <trkpt lat="43.33575" lon="5.67735">
        <ele>437</ele>
        <time>2019-01-18T09:43:17.000Z</time>
      </trkpt>
      <trkpt lat="43.33575" lon="5.67735">
        <ele>436</ele>
        <time>2019-01-18T09:43:18.000Z</time>
      </trkpt>
      <trkpt lat="43.33575" lon="5.67735">
        <ele>436</ele>
        <time>2019-01-18T09:43:19.000Z</time>
      </trkpt>
      <trkpt lat="43.33575" lon="5.67735">
        <ele>436</ele>
        <time>2019-01-18T09:43:20.000Z</time>
      </trkpt>
      <trkpt lat="43.33575" lon="5.67735">
        <ele>436</ele>
        <time>2019-01-18T09:43:21.000Z</time>
      </trkpt>
      <trkpt lat="43.33575" lon="5.67735">
        <ele>436</ele>
        <time>2019-01-18T09:43:22.000Z</time>
      </trkpt>
      <trkpt lat="43.33574" lon="5.67735">
        <ele>436</ele>
        <time>2019-01-18T09:43:23.000Z</time>
      </trkpt>
      <trkpt lat="43.33574" lon="5.67735">
        <ele>436</ele>
        <time>2019-01-18T09:43:24.000Z</time>
      </trkpt>
      <trkpt lat="43.33574" lon="5.67734">
        <ele>436</ele>
        <time>2019-01-18T09:43:25.000Z</time>
      </trkpt>
      <trkpt lat="43.33574" lon="5.67735">
        <ele>436</ele>
        <time>2019-01-18T09:43:26.000Z</time>
      </trkpt>
      <trkpt lat="43.33574" lon="5.67735">
        <ele>436</ele>
        <time>2019-01-18T09:43:27.000Z</time>
      </trkpt>
      <trkpt lat="43.33574" lon="5.67735">
        <ele>436</ele>
        <time>2019-01-18T09:43:28.000Z</time>
      </trkpt>
      <trkpt lat="43.33574" lon="5.67735">
        <ele>436</ele>
        <time>2019-01-18T09:43:29.000Z</time>
      </trkpt>
      <trkpt lat="43.33574" lon="5.67735">
        <ele>436</ele>
        <time>2019-01-18T09:43:30.000Z</time>
      </trkpt>
      <trkpt lat="43.33574" lon="5.67735">
        <ele>436</ele>
        <time>2019-01-18T09:43:31.000Z</time>
      </trkpt>
      <trkpt lat="43.33574" lon="5.67735">
        <ele>436</ele>
        <time>2019-01-18T09:43:32.000Z</time>
      </trkpt>
      <trkpt lat="43.33574" lon="5.67735">
        <ele>436</ele>
        <time>2019-01-18T09:43:33.000Z</time>
      </trkpt>
      <trkpt lat="43.33574" lon="5.67735">
        <ele>436</ele>
        <time>2019-01-18T09:43:34.000Z</time>
      </trkpt>
      <trkpt lat="43.33574" lon="5.67736">
        <ele>436</ele>
        <time>2019-01-18T09:43:35.000Z</time>
      </trkpt>
      <trkpt lat="43.33574" lon="5.67736">
        <ele>436</ele>
        <time>2019-01-18T09:43:36.000Z</time>
      </trkpt>
      <trkpt lat="43.33574" lon="5.67736">
        <ele>436</ele>
        <time>2019-01-18T09:43:37.000Z</time>
      </trkpt>
      <trkpt lat="43.33574" lon="5.67736">
        <ele>436</ele>
        <time>2019-01-18T09:43:38.000Z</time>
      </trkpt>
      <trkpt lat="43.33574" lon="5.67736">
        <ele>436</ele>
        <time>2019-01-18T09:43:39.000Z</time>
      </trkpt>
      <trkpt lat="43.33574" lon="5.67736">
        <ele>436</ele>
        <time>2019-01-18T09:43:40.000Z</time>
      </trkpt>
      <trkpt lat="43.33574" lon="5.67736">
        <ele>436</ele>
        <time>2019-01-18T09:43:41.000Z</time>
      </trkpt>
      <trkpt lat="43.33574" lon="5.67736">
        <ele>436</ele>
        <time>2019-01-18T09:43:42.000Z</time>
      </trkpt>
      <trkpt lat="43.33574" lon="5.67736">
        <ele>436</ele>
        <time>2019-01-18T09:43:43.000Z</time>
      </trkpt>
      <trkpt lat="43.33574" lon="5.67736">
        <ele>436</ele>
        <time>2019-01-18T09:43:44.000Z</time>
      </trkpt>
      <trkpt lat="43.33574" lon="5.67737">
        <ele>436</ele>
        <time>2019-01-18T09:43:45.000Z</time>
      </trkpt>
      <trkpt lat="43.33574" lon="5.67737">
        <ele>436</ele>
        <time>2019-01-18T09:43:46.000Z</time>
      </trkpt>
      <trkpt lat="43.33574" lon="5.67737">
        <ele>436</ele>
        <time>2019-01-18T09:43:47.000Z</time>
      </trkpt>
      <trkpt lat="43.33574" lon="5.67737">
        <ele>436</ele>
        <time>2019-01-18T09:43:48.000Z</time>
      </trkpt>
      <trkpt lat="43.33574" lon="5.67737">
        <ele>436</ele>
        <time>2019-01-18T09:43:49.000Z</time>
      </trkpt>
      <trkpt lat="43.33574" lon="5.67737">
        <ele>436</ele>
        <time>2019-01-18T09:43:50.000Z</time>
      </trkpt>
      <trkpt lat="43.33574" lon="5.67737">
        <ele>436</ele>
        <time>2019-01-18T09:43:51.000Z</time>
      </trkpt>
      <trkpt lat="43.33574" lon="5.67737">
        <ele>436</ele>
        <time>2019-01-18T09:43:52.000Z</time>
      </trkpt>
      <trkpt lat="43.33574" lon="5.67737">
        <ele>436</ele>
        <time>2019-01-18T09:43:53.000Z</time>
      </trkpt>
      <trkpt lat="43.33574" lon="5.67737">
        <ele>436</ele>
        <time>2019-01-18T09:43:54.000Z</time>
      </trkpt>
      <trkpt lat="43.33574" lon="5.67737">
        <ele>436</ele>
        <time>2019-01-18T09:43:55.000Z</time>
      </trkpt>
      <trkpt lat="43.33574" lon="5.67737">
        <ele>436</ele>
        <time>2019-01-18T09:43:56.000Z</time>
      </trkpt>
      <trkpt lat="43.33574" lon="5.67737">
        <ele>436</ele>
        <time>2019-01-18T09:43:57.000Z</time>
      </trkpt>
      <trkpt lat="43.33574" lon="5.67738">
        <ele>436</ele>
        <time>2019-01-18T09:43:58.000Z</time>
      </trkpt>
      <trkpt lat="43.33574" lon="5.67738">
        <ele>436</ele>
        <time>2019-01-18T09:43:59.000Z</time>
      </trkpt>
      <trkpt lat="43.33574" lon="5.67738">
        <ele>436</ele>
        <time>2019-01-18T09:44:00.000Z</time>
      </trkpt>
      <trkpt lat="43.33574" lon="5.67738">
        <ele>436</ele>
        <time>2019-01-18T09:44:01.000Z</time>
      </trkpt>
      <trkpt lat="43.33574" lon="5.67738">
        <ele>436</ele>
        <time>2019-01-18T09:44:02.000Z</time>
      </trkpt>
      <trkpt lat="43.33574" lon="5.67738">
        <ele>436</ele>
        <time>2019-01-18T09:44:03.000Z</time>
      </trkpt>
      <trkpt lat="43.33574" lon="5.67738">
        <ele>436</ele>
        <time>2019-01-18T09:44:04.000Z</time>
      </trkpt>
      <trkpt lat="43.33574" lon="5.67738">
        <ele>436</ele>
        <time>2019-01-18T09:44:05.000Z</time>
      </trkpt>
      <trkpt lat="43.33574" lon="5.67738">
        <ele>435</ele>
        <time>2019-01-18T09:44:06.000Z</time>
      </trkpt>
      <trkpt lat="43.33574" lon="5.67738">
        <ele>435</ele>
        <time>2019-01-18T09:44:07.000Z</time>
      </trkpt>
      <trkpt lat="43.33574" lon="5.67738">
        <ele>436</ele>
        <time>2019-01-18T09:44:08.000Z</time>
      </trkpt>
      <trkpt lat="43.33574" lon="5.67739">
        <ele>436</ele>
        <time>2019-01-18T09:44:09.000Z</time>
      </trkpt>
      <trkpt lat="43.33575" lon="5.67739">
        <ele>436</ele>
        <time>2019-01-18T09:44:10.000Z</time>
      </trkpt>
      <trkpt lat="43.33575" lon="5.67739">
        <ele>436</ele>
        <time>2019-01-18T09:44:11.000Z</time>
      </trkpt>
      <trkpt lat="43.33575" lon="5.67739">
        <ele>436</ele>
        <time>2019-01-18T09:44:12.000Z</time>
      </trkpt>
      <trkpt lat="43.33575" lon="5.67739">
        <ele>436</ele>
        <time>2019-01-18T09:44:13.000Z</time>
      </trkpt>
      <trkpt lat="43.33575" lon="5.67739">
        <ele>436</ele>
        <time>2019-01-18T09:44:14.000Z</time>
      </trkpt>
      <trkpt lat="43.33575" lon="5.67739">
        <ele>436</ele>
        <time>2019-01-18T09:44:15.000Z</time>
      </trkpt>
      <trkpt lat="43.33575" lon="5.67738">
        <ele>436</ele>
        <time>2019-01-18T09:44:16.000Z</time>
      </trkpt>
      <trkpt lat="43.33575" lon="5.67738">
        <ele>435</ele>
        <time>2019-01-18T09:44:17.000Z</time>
      </trkpt>
      <trkpt lat="43.33575" lon="5.67739">
        <ele>435</ele>
        <time>2019-01-18T09:44:18.000Z</time>
      </trkpt>
      <trkpt lat="43.33575" lon="5.67739">
        <ele>435</ele>
        <time>2019-01-18T09:44:19.000Z</time>
      </trkpt>
      <trkpt lat="43.33575" lon="5.67739">
        <ele>435</ele>
        <time>2019-01-18T09:44:20.000Z</time>
      </trkpt>
      <trkpt lat="43.33575" lon="5.67739">
        <ele>435</ele>
        <time>2019-01-18T09:44:21.000Z</time>
      </trkpt>
      <trkpt lat="43.33575" lon="5.67739">
        <ele>435</ele>
        <time>2019-01-18T09:44:22.000Z</time>
      </trkpt>
      <trkpt lat="43.33575" lon="5.67739">
        <ele>435</ele>
        <time>2019-01-18T09:44:23.000Z</time>
      </trkpt>
      <trkpt lat="43.33575" lon="5.67739">
        <ele>435</ele>
        <time>2019-01-18T09:44:24.000Z</time>
      </trkpt>
      <trkpt lat="43.33575" lon="5.67739">
        <ele>435</ele>
        <time>2019-01-18T09:44:25.000Z</time>
      </trkpt>
      <trkpt lat="43.33575" lon="5.67739">
        <ele>435</ele>
        <time>2019-01-18T09:44:26.000Z</time>
      </trkpt>
      <trkpt lat="43.33575" lon="5.67739">
        <ele>435</ele>
        <time>2019-01-18T09:44:27.000Z</time>
      </trkpt>
      <trkpt lat="43.33575" lon="5.67739">
        <ele>435</ele>
        <time>2019-01-18T09:44:28.000Z</time>
      </trkpt>
      <trkpt lat="43.33575" lon="5.67739">
        <ele>435</ele>
        <time>2019-01-18T09:44:29.000Z</time>
      </trkpt>
      <trkpt lat="43.33575" lon="5.67739">
        <ele>435</ele>
        <time>2019-01-18T09:44:30.000Z</time>
      </trkpt>
      <trkpt lat="43.33575" lon="5.67739">
        <ele>435</ele>
        <time>2019-01-18T09:44:31.000Z</time>
      </trkpt>
      <trkpt lat="43.33575" lon="5.67739">
        <ele>435</ele>
        <time>2019-01-18T09:44:32.000Z</time>
      </trkpt>
      <trkpt lat="43.33575" lon="5.67739">
        <ele>435</ele>
        <time>2019-01-18T09:44:33.000Z</time>
      </trkpt>
      <trkpt lat="43.33575" lon="5.67739">
        <ele>435</ele>
        <time>2019-01-18T09:44:34.000Z</time>
      </trkpt>
      <trkpt lat="43.33575" lon="5.67739">
        <ele>435</ele>
        <time>2019-01-18T09:44:35.000Z</time>
      </trkpt>
      <trkpt lat="43.33575" lon="5.67739">
        <ele>435</ele>
        <time>2019-01-18T09:44:36.000Z</time>
      </trkpt>
      <trkpt lat="43.33575" lon="5.67739">
        <ele>435</ele>
        <time>2019-01-18T09:44:37.000Z</time>
      </trkpt>
      <trkpt lat="43.33575" lon="5.67739">
        <ele>435</ele>
        <time>2019-01-18T09:44:38.000Z</time>
      </trkpt>
      <trkpt lat="43.33575" lon="5.67739">
        <ele>435</ele>
        <time>2019-01-18T09:44:39.000Z</time>
      </trkpt>
      <trkpt lat="43.33575" lon="5.67739">
        <ele>435</ele>
        <time>2019-01-18T09:44:40.000Z</time>
      </trkpt>
      <trkpt lat="43.33575" lon="5.67739">
        <ele>435</ele>
        <time>2019-01-18T09:44:41.000Z</time>
      </trkpt>
      <trkpt lat="43.33575" lon="5.67739">
        <ele>435</ele>
        <time>2019-01-18T09:44:42.000Z</time>
      </trkpt>
      <trkpt lat="43.33575" lon="5.67739">
        <ele>435</ele>
        <time>2019-01-18T09:44:43.000Z</time>
      </trkpt>
      <trkpt lat="43.33575" lon="5.67739">
        <ele>435</ele>
        <time>2019-01-18T09:44:44.000Z</time>
      </trkpt>
      <trkpt lat="43.33575" lon="5.67739">
        <ele>435</ele>
        <time>2019-01-18T09:44:45.000Z</time>
      </trkpt>
      <trkpt lat="43.33575" lon="5.67739">
        <ele>435</ele>
        <time>2019-01-18T09:44:46.000Z</time>
      </trkpt>
      <trkpt lat="43.33575" lon="5.67739">
        <ele>435</ele>
        <time>2019-01-18T09:44:47.000Z</time>
      </trkpt>
      <trkpt lat="43.33576" lon="5.67739">
        <ele>435</ele>
        <time>2019-01-18T09:44:48.000Z</time>
      </trkpt>
      <trkpt lat="43.33576" lon="5.67739">
        <ele>435</ele>
        <time>2019-01-18T09:44:49.000Z</time>
      </trkpt>
      <trkpt lat="43.33576" lon="5.67739">
        <ele>435</ele>
        <time>2019-01-18T09:44:50.000Z</time>
      </trkpt>
      <trkpt lat="43.33576" lon="5.67739">
        <ele>435</ele>
        <time>2019-01-18T09:44:51.000Z</time>
      </trkpt>
      <trkpt lat="43.33576" lon="5.67739">
        <ele>435</ele>
        <time>2019-01-18T09:44:52.000Z</time>
      </trkpt>
      <trkpt lat="43.33576" lon="5.67739">
        <ele>435</ele>
        <time>2019-01-18T09:44:53.000Z</time>
      </trkpt>
      <trkpt lat="43.33576" lon="5.6774">
        <ele>435</ele>
        <time>2019-01-18T09:44:54.000Z</time>
      </trkpt>
      <trkpt lat="43.33576" lon="5.6774">
        <ele>435</ele>
        <time>2019-01-18T09:44:55.000Z</time>
      </trkpt>
      <trkpt lat="43.33576" lon="5.6774">
        <ele>435</ele>
        <time>2019-01-18T09:44:56.000Z</time>
      </trkpt>
      <trkpt lat="43.33576" lon="5.6774">
        <ele>435</ele>
        <time>2019-01-18T09:44:57.000Z</time>
      </trkpt>
      <trkpt lat="43.33576" lon="5.6774">
        <ele>435</ele>
        <time>2019-01-18T09:44:58.000Z</time>
      </trkpt>
      <trkpt lat="43.33576" lon="5.6774">
        <ele>435</ele>
        <time>2019-01-18T09:44:59.000Z</time>
      </trkpt>
      <trkpt lat="43.33576" lon="5.6774">
        <ele>435</ele>
        <time>2019-01-18T09:45:00.000Z</time>
      </trkpt>
      <trkpt lat="43.33576" lon="5.6774">
        <ele>435</ele>
        <time>2019-01-18T09:45:01.000Z</time>
      </trkpt>
      <trkpt lat="43.33576" lon="5.6774">
        <ele>435</ele>
        <time>2019-01-18T09:45:02.000Z</time>
      </trkpt>
      <trkpt lat="43.33576" lon="5.6774">
        <ele>435</ele>
        <time>2019-01-18T09:45:03.000Z</time>
      </trkpt>
      <trkpt lat="43.33576" lon="5.6774">
        <ele>435</ele>
        <time>2019-01-18T09:45:04.000Z</time>
      </trkpt>
      <trkpt lat="43.33576" lon="5.6774">
        <ele>435</ele>
        <time>2019-01-18T09:45:05.000Z</time>
      </trkpt>
      <trkpt lat="43.33576" lon="5.6774">
        <ele>435</ele>
        <time>2019-01-18T09:45:06.000Z</time>
      </trkpt>
      <trkpt lat="43.33576" lon="5.6774">
        <ele>435</ele>
        <time>2019-01-18T09:45:07.000Z</time>
      </trkpt>
      <trkpt lat="43.33576" lon="5.6774">
        <ele>435</ele>
        <time>2019-01-18T09:45:08.000Z</time>
      </trkpt>
      <trkpt lat="43.33576" lon="5.6774">
        <ele>435</ele>
        <time>2019-01-18T09:45:09.000Z</time>
      </trkpt>
      <trkpt lat="43.33576" lon="5.6774">
        <ele>435</ele>
        <time>2019-01-18T09:45:10.000Z</time>
      </trkpt>
      <trkpt lat="43.33576" lon="5.6774">
        <ele>435</ele>
        <time>2019-01-18T09:45:11.000Z</time>
      </trkpt>
      <trkpt lat="43.33576" lon="5.6774">
        <ele>435</ele>
        <time>2019-01-18T09:45:12.000Z</time>
      </trkpt>
      <trkpt lat="43.33576" lon="5.6774">
        <ele>435</ele>
        <time>2019-01-18T09:45:13.000Z</time>
      </trkpt>
      <trkpt lat="43.33576" lon="5.6774">
        <ele>435</ele>
        <time>2019-01-18T09:45:14.000Z</time>
      </trkpt>
      <trkpt lat="43.33576" lon="5.6774">
        <ele>435</ele>
        <time>2019-01-18T09:45:15.000Z</time>
      </trkpt>
      <trkpt lat="43.33576" lon="5.6774">
        <ele>435</ele>
        <time>2019-01-18T09:45:16.000Z</time>
      </trkpt>
      <trkpt lat="43.33576" lon="5.6774">
        <ele>435</ele>
        <time>2019-01-18T09:45:17.000Z</time>
      </trkpt>
      <trkpt lat="43.33576" lon="5.6774">
        <ele>435</ele>
        <time>2019-01-18T09:45:18.000Z</time>
      </trkpt>
      <trkpt lat="43.33576" lon="5.6774">
        <ele>435</ele>
        <time>2019-01-18T09:45:19.000Z</time>
      </trkpt>
      <trkpt lat="43.33576" lon="5.6774">
        <ele>435</ele>
        <time>2019-01-18T09:45:20.000Z</time>
      </trkpt>
      <trkpt lat="43.33576" lon="5.6774">
        <ele>435</ele>
        <time>2019-01-18T09:45:21.000Z</time>
      </trkpt>
      <trkpt lat="43.33576" lon="5.6774">
        <ele>435</ele>
        <time>2019-01-18T09:45:22.000Z</time>
      </trkpt>
      <trkpt lat="43.33576" lon="5.6774">
        <ele>435</ele>
        <time>2019-01-18T09:45:23.000Z</time>
      </trkpt>
      <trkpt lat="43.33576" lon="5.6774">
        <ele>435</ele>
        <time>2019-01-18T09:45:24.000Z</time>
      </trkpt>
      <trkpt lat="43.33575" lon="5.6774">
        <ele>435</ele>
        <time>2019-01-18T09:45:25.000Z</time>
      </trkpt>
      <trkpt lat="43.33575" lon="5.6774">
        <ele>435</ele>
        <time>2019-01-18T09:45:26.000Z</time>
      </trkpt>
      <trkpt lat="43.33575" lon="5.6774">
        <ele>435</ele>
        <time>2019-01-18T09:45:27.000Z</time>
      </trkpt>
      <trkpt lat="43.33575" lon="5.6774">
        <ele>435</ele>
        <time>2019-01-18T09:45:28.000Z</time>
      </trkpt>
      <trkpt lat="43.33575" lon="5.6774">
        <ele>435</ele>
        <time>2019-01-18T09:45:29.000Z</time>
      </trkpt>
      <trkpt lat="43.33575" lon="5.6774">
        <ele>435</ele>
        <time>2019-01-18T09:45:30.000Z</time>
      </trkpt>
      <trkpt lat="43.33575" lon="5.6774">
        <ele>435</ele>
        <time>2019-01-18T09:45:31.000Z</time>
      </trkpt>
      <trkpt lat="43.33575" lon="5.6774">
        <ele>435</ele>
        <time>2019-01-18T09:45:32.000Z</time>
      </trkpt>
      <trkpt lat="43.33575" lon="5.6774">
        <ele>435</ele>
        <time>2019-01-18T09:45:33.000Z</time>
      </trkpt>
      <trkpt lat="43.33575" lon="5.6774">
        <ele>435</ele>
        <time>2019-01-18T09:45:34.000Z</time>
      </trkpt>
      <trkpt lat="43.33575" lon="5.6774">
        <ele>435</ele>
        <time>2019-01-18T09:45:35.000Z</time>
      </trkpt>
      <trkpt lat="43.33575" lon="5.6774">
        <ele>435</ele>
        <time>2019-01-18T09:45:36.000Z</time>
      </trkpt>
      <trkpt lat="43.33575" lon="5.6774">
        <ele>435</ele>
        <time>2019-01-18T09:45:37.000Z</time>
      </trkpt>
      <trkpt lat="43.33575" lon="5.67741">
        <ele>435</ele>
        <time>2019-01-18T09:45:38.000Z</time>
      </trkpt>
      <trkpt lat="43.33575" lon="5.67741">
        <ele>435</ele>
        <time>2019-01-18T09:45:39.000Z</time>
      </trkpt>
      <trkpt lat="43.33575" lon="5.67741">
        <ele>435</ele>
        <time>2019-01-18T09:45:40.000Z</time>
      </trkpt>
      <trkpt lat="43.33575" lon="5.67741">
        <ele>435</ele>
        <time>2019-01-18T09:45:41.000Z</time>
      </trkpt>
      <trkpt lat="43.33575" lon="5.67741">
        <ele>435</ele>
        <time>2019-01-18T09:45:42.000Z</time>
      </trkpt>
      <trkpt lat="43.33575" lon="5.67741">
        <ele>435</ele>
        <time>2019-01-18T09:45:43.000Z</time>
      </trkpt>
      <trkpt lat="43.33575" lon="5.67741">
        <ele>435</ele>
        <time>2019-01-18T09:45:44.000Z</time>
      </trkpt>
      <trkpt lat="43.33575" lon="5.67741">
        <ele>435</ele>
        <time>2019-01-18T09:45:45.000Z</time>
      </trkpt>
      <trkpt lat="43.33575" lon="5.67741">
        <ele>435</ele>
        <time>2019-01-18T09:45:46.000Z</time>
      </trkpt>
      <trkpt lat="43.33575" lon="5.67741">
        <ele>434</ele>
        <time>2019-01-18T09:45:47.000Z</time>
      </trkpt>
      <trkpt lat="43.33575" lon="5.67741">
        <ele>434</ele>
        <time>2019-01-18T09:45:48.000Z</time>
      </trkpt>
      <trkpt lat="43.33575" lon="5.67741">
        <ele>434</ele>
        <time>2019-01-18T09:45:49.000Z</time>
      </trkpt>
      <trkpt lat="43.33575" lon="5.67741">
        <ele>434</ele>
        <time>2019-01-18T09:45:50.000Z</time>
      </trkpt>
      <trkpt lat="43.33575" lon="5.67741">
        <ele>434</ele>
        <time>2019-01-18T09:45:51.000Z</time>
      </trkpt>
      <trkpt lat="43.33575" lon="5.67741">
        <ele>434</ele>
        <time>2019-01-18T09:45:52.000Z</time>
      </trkpt>
      <trkpt lat="43.33575" lon="5.67741">
        <ele>434</ele>
        <time>2019-01-18T09:45:53.000Z</time>
      </trkpt>
      <trkpt lat="43.33575" lon="5.67741">
        <ele>434</ele>
        <time>2019-01-18T09:45:54.000Z</time>
      </trkpt>
      <trkpt lat="43.33575" lon="5.67741">
        <ele>434</ele>
        <time>2019-01-18T09:45:55.000Z</time>
      </trkpt>
      <trkpt lat="43.33575" lon="5.67741">
        <ele>434</ele>
        <time>2019-01-18T09:45:56.000Z</time>
      </trkpt>
      <trkpt lat="43.33575" lon="5.67741">
        <ele>434</ele>
        <time>2019-01-18T09:45:57.000Z</time>
      </trkpt>
      <trkpt lat="43.33575" lon="5.67741">
        <ele>434</ele>
        <time>2019-01-18T09:45:58.000Z</time>
      </trkpt>
      <trkpt lat="43.33575" lon="5.67741">
        <ele>434</ele>
        <time>2019-01-18T09:45:59.000Z</time>
      </trkpt>
      <trkpt lat="43.33574" lon="5.67742">
        <ele>434</ele>
        <time>2019-01-18T09:46:00.000Z</time>
      </trkpt>
      <trkpt lat="43.33574" lon="5.67742">
        <ele>434</ele>
        <time>2019-01-18T09:46:01.000Z</time>
      </trkpt>
      <trkpt lat="43.33574" lon="5.67742">
        <ele>434</ele>
        <time>2019-01-18T09:46:02.000Z</time>
      </trkpt>
      <trkpt lat="43.33574" lon="5.67742">
        <ele>434</ele>
        <time>2019-01-18T09:46:03.000Z</time>
      </trkpt>
      <trkpt lat="43.33574" lon="5.67742">
        <ele>434</ele>
        <time>2019-01-18T09:46:04.000Z</time>
      </trkpt>
      <trkpt lat="43.33574" lon="5.67741">
        <ele>434</ele>
        <time>2019-01-18T09:46:05.000Z</time>
      </trkpt>
      <trkpt lat="43.33574" lon="5.67741">
        <ele>434</ele>
        <time>2019-01-18T09:46:06.000Z</time>
      </trkpt>
      <trkpt lat="43.33574" lon="5.67741">
        <ele>434</ele>
        <time>2019-01-18T09:46:07.000Z</time>
      </trkpt>
      <trkpt lat="43.33574" lon="5.67741">
        <ele>434</ele>
        <time>2019-01-18T09:46:08.000Z</time>
      </trkpt>
      <trkpt lat="43.33574" lon="5.67741">
        <ele>434</ele>
        <time>2019-01-18T09:46:09.000Z</time>
      </trkpt>
      <trkpt lat="43.33574" lon="5.67741">
        <ele>434</ele>
        <time>2019-01-18T09:46:10.000Z</time>
      </trkpt>
      <trkpt lat="43.33574" lon="5.67741">
        <ele>434</ele>
        <time>2019-01-18T09:46:11.000Z</time>
      </trkpt>
      <trkpt lat="43.33574" lon="5.67741">
        <ele>434</ele>
        <time>2019-01-18T09:46:12.000Z</time>
      </trkpt>
      <trkpt lat="43.33574" lon="5.67741">
        <ele>434</ele>
        <time>2019-01-18T09:46:13.000Z</time>
      </trkpt>
      <trkpt lat="43.33574" lon="5.67742">
        <ele>434</ele>
        <time>2019-01-18T09:46:14.000Z</time>
      </trkpt>
      <trkpt lat="43.33574" lon="5.67742">
        <ele>434</ele>
        <time>2019-01-18T09:46:15.000Z</time>
      </trkpt>
      <trkpt lat="43.33574" lon="5.67742">
        <ele>434</ele>
        <time>2019-01-18T09:46:16.000Z</time>
      </trkpt>
      <trkpt lat="43.33574" lon="5.67742">
        <ele>434</ele>
        <time>2019-01-18T09:46:17.000Z</time>
      </trkpt>
      <trkpt lat="43.33574" lon="5.67742">
        <ele>434</ele>
        <time>2019-01-18T09:46:18.000Z</time>
      </trkpt>
      <trkpt lat="43.33574" lon="5.67742">
        <ele>434</ele>
        <time>2019-01-18T09:46:19.000Z</time>
      </trkpt>
      <trkpt lat="43.33574" lon="5.67742">
        <ele>434</ele>
        <time>2019-01-18T09:46:20.000Z</time>
      </trkpt>
      <trkpt lat="43.33574" lon="5.67742">
        <ele>434</ele>
        <time>2019-01-18T09:46:21.000Z</time>
      </trkpt>
      <trkpt lat="43.33574" lon="5.67742">
        <ele>434</ele>
        <time>2019-01-18T09:46:22.000Z</time>
      </trkpt>
      <trkpt lat="43.33574" lon="5.67741">
        <ele>434</ele>
        <time>2019-01-18T09:46:23.000Z</time>
      </trkpt>
      <trkpt lat="43.33574" lon="5.67741">
        <ele>434</ele>
        <time>2019-01-18T09:46:24.000Z</time>
      </trkpt>
      <trkpt lat="43.33574" lon="5.67741">
        <ele>434</ele>
        <time>2019-01-18T09:46:25.000Z</time>
      </trkpt>
      <trkpt lat="43.33574" lon="5.67741">
        <ele>434</ele>
        <time>2019-01-18T09:46:26.000Z</time>
      </trkpt>
      <trkpt lat="43.33574" lon="5.67741">
        <ele>434</ele>
        <time>2019-01-18T09:46:27.000Z</time>
      </trkpt>
      <trkpt lat="43.33574" lon="5.67741">
        <ele>434</ele>
        <time>2019-01-18T09:46:28.000Z</time>
      </trkpt>
      <trkpt lat="43.33574" lon="5.67741">
        <ele>434</ele>
        <time>2019-01-18T09:46:29.000Z</time>
      </trkpt>
      <trkpt lat="43.33573" lon="5.67741">
        <ele>434</ele>
        <time>2019-01-18T09:46:30.000Z</time>
      </trkpt>
      <trkpt lat="43.33573" lon="5.67741">
        <ele>434</ele>
        <time>2019-01-18T09:46:31.000Z</time>
      </trkpt>
      <trkpt lat="43.33573" lon="5.67741">
        <ele>434</ele>
        <time>2019-01-18T09:46:32.000Z</time>
      </trkpt>
      <trkpt lat="43.33573" lon="5.67741">
        <ele>434</ele>
        <time>2019-01-18T09:46:33.000Z</time>
      </trkpt>
      <trkpt lat="43.33573" lon="5.67741">
        <ele>434</ele>
        <time>2019-01-18T09:46:34.000Z</time>
      </trkpt>
      <trkpt lat="43.33573" lon="5.67741">
        <ele>434</ele>
        <time>2019-01-18T09:46:35.000Z</time>
      </trkpt>
      <trkpt lat="43.33573" lon="5.67741">
        <ele>434</ele>
        <time>2019-01-18T09:46:36.000Z</time>
      </trkpt>
      <trkpt lat="43.33574" lon="5.67741">
        <ele>434</ele>
        <time>2019-01-18T09:46:37.000Z</time>
      </trkpt>
      <trkpt lat="43.33574" lon="5.67741">
        <ele>434</ele>
        <time>2019-01-18T09:46:38.000Z</time>
      </trkpt>
      <trkpt lat="43.33574" lon="5.67741">
        <ele>434</ele>
        <time>2019-01-18T09:46:39.000Z</time>
      </trkpt>
      <trkpt lat="43.33574" lon="5.67741">
        <ele>435</ele>
        <time>2019-01-18T09:46:40.000Z</time>
      </trkpt>
      <trkpt lat="43.33574" lon="5.67741">
        <ele>435</ele>
        <time>2019-01-18T09:46:41.000Z</time>
      </trkpt>
      <trkpt lat="43.33574" lon="5.67741">
        <ele>435</ele>
        <time>2019-01-18T09:46:42.000Z</time>
      </trkpt>
      <trkpt lat="43.33574" lon="5.6774">
        <ele>435</ele>
        <time>2019-01-18T09:46:43.000Z</time>
      </trkpt>
      <trkpt lat="43.33574" lon="5.6774">
        <ele>435</ele>
        <time>2019-01-18T09:46:44.000Z</time>
      </trkpt>
      <trkpt lat="43.33574" lon="5.6774">
        <ele>435</ele>
        <time>2019-01-18T09:46:45.000Z</time>
      </trkpt>
      <trkpt lat="43.33574" lon="5.67741">
        <ele>435</ele>
        <time>2019-01-18T09:46:46.000Z</time>
      </trkpt>
      <trkpt lat="43.33574" lon="5.67741">
        <ele>435</ele>
        <time>2019-01-18T09:46:47.000Z</time>
      </trkpt>
      <trkpt lat="43.33574" lon="5.67741">
        <ele>435</ele>
        <time>2019-01-18T09:46:48.000Z</time>
      </trkpt>
      <trkpt lat="43.33574" lon="5.67741">
        <ele>435</ele>
        <time>2019-01-18T09:46:49.000Z</time>
      </trkpt>
      <trkpt lat="43.33574" lon="5.67741">
        <ele>435</ele>
        <time>2019-01-18T09:46:50.000Z</time>
      </trkpt>
      <trkpt lat="43.33574" lon="5.67741">
        <ele>435</ele>
        <time>2019-01-18T09:46:51.000Z</time>
      </trkpt>
      <trkpt lat="43.33574" lon="5.67741">
        <ele>435</ele>
        <time>2019-01-18T09:46:52.000Z</time>
      </trkpt>
      <trkpt lat="43.33574" lon="5.67741">
        <ele>435</ele>
        <time>2019-01-18T09:46:53.000Z</time>
      </trkpt>
      <trkpt lat="43.33574" lon="5.67741">
        <ele>435</ele>
        <time>2019-01-18T09:46:54.000Z</time>
      </trkpt>
      <trkpt lat="43.33574" lon="5.67741">
        <ele>435</ele>
        <time>2019-01-18T09:46:55.000Z</time>
      </trkpt>
      <trkpt lat="43.33574" lon="5.67741">
        <ele>435</ele>
        <time>2019-01-18T09:46:56.000Z</time>
      </trkpt>
      <trkpt lat="43.33574" lon="5.67741">
        <ele>435</ele>
        <time>2019-01-18T09:46:57.000Z</time>
      </trkpt>
      <trkpt lat="43.33574" lon="5.67741">
        <ele>435</ele>
        <time>2019-01-18T09:46:58.000Z</time>
      </trkpt>
      <trkpt lat="43.33574" lon="5.67741">
        <ele>435</ele>
        <time>2019-01-18T09:46:59.000Z</time>
      </trkpt>
      <trkpt lat="43.33574" lon="5.67741">
        <ele>435</ele>
        <time>2019-01-18T09:47:00.000Z</time>
      </trkpt>
      <trkpt lat="43.33574" lon="5.67741">
        <ele>435</ele>
        <time>2019-01-18T09:47:01.000Z</time>
      </trkpt>
      <trkpt lat="43.33574" lon="5.67741">
        <ele>435</ele>
        <time>2019-01-18T09:47:02.000Z</time>
      </trkpt>
      <trkpt lat="43.33574" lon="5.67741">
        <ele>435</ele>
        <time>2019-01-18T09:47:03.000Z</time>
      </trkpt>
      <trkpt lat="43.33574" lon="5.67741">
        <ele>435</ele>
        <time>2019-01-18T09:47:04.000Z</time>
      </trkpt>
      <trkpt lat="43.33574" lon="5.67741">
        <ele>435</ele>
        <time>2019-01-18T09:47:05.000Z</time>
      </trkpt>
      <trkpt lat="43.33574" lon="5.67741">
        <ele>435</ele>
        <time>2019-01-18T09:47:06.000Z</time>
      </trkpt>
      <trkpt lat="43.33574" lon="5.67741">
        <ele>435</ele>
        <time>2019-01-18T09:47:07.000Z</time>
      </trkpt>
      <trkpt lat="43.33574" lon="5.67741">
        <ele>435</ele>
        <time>2019-01-18T09:47:08.000Z</time>
      </trkpt>
      <trkpt lat="43.33574" lon="5.67741">
        <ele>435</ele>
        <time>2019-01-18T09:47:09.000Z</time>
      </trkpt>
      <trkpt lat="43.33574" lon="5.67741">
        <ele>435</ele>
        <time>2019-01-18T09:47:10.000Z</time>
      </trkpt>
      <trkpt lat="43.33574" lon="5.67741">
        <ele>435</ele>
        <time>2019-01-18T09:47:11.000Z</time>
      </trkpt>
      <trkpt lat="43.33574" lon="5.67741">
        <ele>435</ele>
        <time>2019-01-18T09:47:12.000Z</time>
      </trkpt>
      <trkpt lat="43.33574" lon="5.67741">
        <ele>435</ele>
        <time>2019-01-18T09:47:13.000Z</time>
      </trkpt>
      <trkpt lat="43.33574" lon="5.67741">
        <ele>435</ele>
        <time>2019-01-18T09:47:14.000Z</time>
      </trkpt>
      <trkpt lat="43.33574" lon="5.67741">
        <ele>435</ele>
        <time>2019-01-18T09:47:15.000Z</time>
      </trkpt>
      <trkpt lat="43.33574" lon="5.67741">
        <ele>435</ele>
        <time>2019-01-18T09:47:16.000Z</time>
      </trkpt>
      <trkpt lat="43.33574" lon="5.6774">
        <ele>435</ele>
        <time>2019-01-18T09:47:17.000Z</time>
      </trkpt>
      <trkpt lat="43.33574" lon="5.67741">
        <ele>435</ele>
        <time>2019-01-18T09:47:18.000Z</time>
      </trkpt>
      <trkpt lat="43.33574" lon="5.6774">
        <ele>435</ele>
        <time>2019-01-18T09:47:19.000Z</time>
      </trkpt>
      <trkpt lat="43.33574" lon="5.6774">
        <ele>435</ele>
        <time>2019-01-18T09:47:20.000Z</time>
      </trkpt>
      <trkpt lat="43.33574" lon="5.6774">
        <ele>435</ele>
        <time>2019-01-18T09:47:21.000Z</time>
      </trkpt>
      <trkpt lat="43.33574" lon="5.6774">
        <ele>435</ele>
        <time>2019-01-18T09:47:22.000Z</time>
      </trkpt>
      <trkpt lat="43.33574" lon="5.6774">
        <ele>435</ele>
        <time>2019-01-18T09:47:23.000Z</time>
      </trkpt>
      <trkpt lat="43.33574" lon="5.6774">
        <ele>435</ele>
        <time>2019-01-18T09:47:24.000Z</time>
      </trkpt>
      <trkpt lat="43.33574" lon="5.6774">
        <ele>435</ele>
        <time>2019-01-18T09:47:25.000Z</time>
      </trkpt>
      <trkpt lat="43.33574" lon="5.6774">
        <ele>435</ele>
        <time>2019-01-18T09:47:26.000Z</time>
      </trkpt>
      <trkpt lat="43.33574" lon="5.6774">
        <ele>435</ele>
        <time>2019-01-18T09:47:27.000Z</time>
      </trkpt>
      <trkpt lat="43.33574" lon="5.6774">
        <ele>435</ele>
        <time>2019-01-18T09:47:28.000Z</time>
      </trkpt>
      <trkpt lat="43.33574" lon="5.6774">
        <ele>435</ele>
        <time>2019-01-18T09:47:29.000Z</time>
      </trkpt>
      <trkpt lat="43.33574" lon="5.6774">
        <ele>435</ele>
        <time>2019-01-18T09:47:30.000Z</time>
      </trkpt>
      <trkpt lat="43.33574" lon="5.6774">
        <ele>435</ele>
        <time>2019-01-18T09:47:31.000Z</time>
      </trkpt>
      <trkpt lat="43.33574" lon="5.6774">
        <ele>435</ele>
        <time>2019-01-18T09:47:32.000Z</time>
      </trkpt>
      <trkpt lat="43.33575" lon="5.6774">
        <ele>435</ele>
        <time>2019-01-18T09:47:33.000Z</time>
      </trkpt>
      <trkpt lat="43.33575" lon="5.6774">
        <ele>435</ele>
        <time>2019-01-18T09:47:34.000Z</time>
      </trkpt>
      <trkpt lat="43.33575" lon="5.67739">
        <ele>434</ele>
        <time>2019-01-18T09:47:35.000Z</time>
      </trkpt>
      <trkpt lat="43.33575" lon="5.67739">
        <ele>434</ele>
        <time>2019-01-18T09:47:36.000Z</time>
      </trkpt>
      <trkpt lat="43.33575" lon="5.67739">
        <ele>434</ele>
        <time>2019-01-18T09:47:37.000Z</time>
      </trkpt>
      <trkpt lat="43.33575" lon="5.67739">
        <ele>434</ele>
        <time>2019-01-18T09:47:38.000Z</time>
      </trkpt>
      <trkpt lat="43.33575" lon="5.67739">
        <ele>434</ele>
        <time>2019-01-18T09:47:39.000Z</time>
      </trkpt>
      <trkpt lat="43.33575" lon="5.67739">
        <ele>434</ele>
        <time>2019-01-18T09:47:40.000Z</time>
      </trkpt>
      <trkpt lat="43.33575" lon="5.67739">
        <ele>434</ele>
        <time>2019-01-18T09:47:41.000Z</time>
      </trkpt>
      <trkpt lat="43.33576" lon="5.67738">
        <ele>434</ele>
        <time>2019-01-18T09:47:42.000Z</time>
      </trkpt>
      <trkpt lat="43.33575" lon="5.67738">
        <ele>434</ele>
        <time>2019-01-18T09:47:43.000Z</time>
      </trkpt>
      <trkpt lat="43.33575" lon="5.67738">
        <ele>434</ele>
        <time>2019-01-18T09:47:44.000Z</time>
      </trkpt>
      <trkpt lat="43.33575" lon="5.67738">
        <ele>434</ele>
        <time>2019-01-18T09:47:45.000Z</time>
      </trkpt>
      <trkpt lat="43.33575" lon="5.67738">
        <ele>434</ele>
        <time>2019-01-18T09:47:46.000Z</time>
      </trkpt>
      <trkpt lat="43.33575" lon="5.67738">
        <ele>434</ele>
        <time>2019-01-18T09:47:47.000Z</time>
      </trkpt>
      <trkpt lat="43.33576" lon="5.67738">
        <ele>434</ele>
        <time>2019-01-18T09:47:48.000Z</time>
      </trkpt>
      <trkpt lat="43.33576" lon="5.67738">
        <ele>434</ele>
        <time>2019-01-18T09:47:49.000Z</time>
      </trkpt>
      <trkpt lat="43.33576" lon="5.67738">
        <ele>434</ele>
        <time>2019-01-18T09:47:50.000Z</time>
      </trkpt>
      <trkpt lat="43.33576" lon="5.67738">
        <ele>434</ele>
        <time>2019-01-18T09:47:51.000Z</time>
      </trkpt>
      <trkpt lat="43.33576" lon="5.67738">
        <ele>434</ele>
        <time>2019-01-18T09:47:52.000Z</time>
      </trkpt>
      <trkpt lat="43.33576" lon="5.67738">
        <ele>434</ele>
        <time>2019-01-18T09:47:53.000Z</time>
      </trkpt>
      <trkpt lat="43.33576" lon="5.67738">
        <ele>434</ele>
        <time>2019-01-18T09:47:54.000Z</time>
      </trkpt>
      <trkpt lat="43.33575" lon="5.67738">
        <ele>434</ele>
        <time>2019-01-18T09:47:55.000Z</time>
      </trkpt>
      <trkpt lat="43.33575" lon="5.67738">
        <ele>434</ele>
        <time>2019-01-18T09:47:56.000Z</time>
      </trkpt>
      <trkpt lat="43.33575" lon="5.67738">
        <ele>434</ele>
        <time>2019-01-18T09:47:57.000Z</time>
      </trkpt>
      <trkpt lat="43.33575" lon="5.67738">
        <ele>434</ele>
        <time>2019-01-18T09:47:58.000Z</time>
      </trkpt>
      <trkpt lat="43.33575" lon="5.67738">
        <ele>434</ele>
        <time>2019-01-18T09:47:59.000Z</time>
      </trkpt>
      <trkpt lat="43.33575" lon="5.67738">
        <ele>434</ele>
        <time>2019-01-18T09:48:00.000Z</time>
      </trkpt>
      <trkpt lat="43.33575" lon="5.67738">
        <ele>434</ele>
        <time>2019-01-18T09:48:01.000Z</time>
      </trkpt>
      <trkpt lat="43.33575" lon="5.67738">
        <ele>434</ele>
        <time>2019-01-18T09:48:02.000Z</time>
      </trkpt>
      <trkpt lat="43.33575" lon="5.67738">
        <ele>434</ele>
        <time>2019-01-18T09:48:03.000Z</time>
      </trkpt>
      <trkpt lat="43.33575" lon="5.67738">
        <ele>434</ele>
        <time>2019-01-18T09:48:04.000Z</time>
      </trkpt>
      <trkpt lat="43.33575" lon="5.67738">
        <ele>434</ele>
        <time>2019-01-18T09:48:05.000Z</time>
      </trkpt>
      <trkpt lat="43.33575" lon="5.67738">
        <ele>434</ele>
        <time>2019-01-18T09:48:06.000Z</time>
      </trkpt>
      <trkpt lat="43.33575" lon="5.67738">
        <ele>434</ele>
        <time>2019-01-18T09:48:07.000Z</time>
      </trkpt>
      <trkpt lat="43.33575" lon="5.67738">
        <ele>434</ele>
        <time>2019-01-18T09:48:08.000Z</time>
      </trkpt>
      <trkpt lat="43.33575" lon="5.67738">
        <ele>434</ele>
        <time>2019-01-18T09:48:09.000Z</time>
      </trkpt>
      <trkpt lat="43.33575" lon="5.67738">
        <ele>434</ele>
        <time>2019-01-18T09:48:10.000Z</time>
      </trkpt>
      <trkpt lat="43.33575" lon="5.67738">
        <ele>434</ele>
        <time>2019-01-18T09:48:11.000Z</time>
      </trkpt>
      <trkpt lat="43.33575" lon="5.67738">
        <ele>434</ele>
        <time>2019-01-18T09:48:12.000Z</time>
      </trkpt>
      <trkpt lat="43.33575" lon="5.67738">
        <ele>434</ele>
        <time>2019-01-18T09:48:13.000Z</time>
      </trkpt>
      <trkpt lat="43.33575" lon="5.67738">
        <ele>434</ele>
        <time>2019-01-18T09:48:14.000Z</time>
      </trkpt>
      <trkpt lat="43.33575" lon="5.67738">
        <ele>434</ele>
        <time>2019-01-18T09:48:15.000Z</time>
      </trkpt>
      <trkpt lat="43.33575" lon="5.67738">
        <ele>434</ele>
        <time>2019-01-18T09:48:16.000Z</time>
      </trkpt>
      <trkpt lat="43.33575" lon="5.67738">
        <ele>434</ele>
        <time>2019-01-18T09:48:17.000Z</time>
      </trkpt>
      <trkpt lat="43.33575" lon="5.67738">
        <ele>434</ele>
        <time>2019-01-18T09:48:18.000Z</time>
      </trkpt>
      <trkpt lat="43.33575" lon="5.67738">
        <ele>434</ele>
        <time>2019-01-18T09:48:19.000Z</time>
      </trkpt>
      <trkpt lat="43.33575" lon="5.67738">
        <ele>434</ele>
        <time>2019-01-18T09:48:20.000Z</time>
      </trkpt>
      <trkpt lat="43.33575" lon="5.67738">
        <ele>434</ele>
        <time>2019-01-18T09:48:21.000Z</time>
      </trkpt>
      <trkpt lat="43.33575" lon="5.67738">
        <ele>434</ele>
        <time>2019-01-18T09:48:22.000Z</time>
      </trkpt>
      <trkpt lat="43.33575" lon="5.67738">
        <ele>434</ele>
        <time>2019-01-18T09:48:23.000Z</time>
      </trkpt>
      <trkpt lat="43.33575" lon="5.67738">
        <ele>434</ele>
        <time>2019-01-18T09:48:24.000Z</time>
      </trkpt>
      <trkpt lat="43.33575" lon="5.67738">
        <ele>434</ele>
        <time>2019-01-18T09:48:25.000Z</time>
      </trkpt>
      <trkpt lat="43.33575" lon="5.67738">
        <ele>434</ele>
        <time>2019-01-18T09:48:26.000Z</time>
      </trkpt>
      <trkpt lat="43.33575" lon="5.67738">
        <ele>434</ele>
        <time>2019-01-18T09:48:27.000Z</time>
      </trkpt>
      <trkpt lat="43.33575" lon="5.67738">
        <ele>434</ele>
        <time>2019-01-18T09:48:28.000Z</time>
      </trkpt>
      <trkpt lat="43.33575" lon="5.67738">
        <ele>434</ele>
        <time>2019-01-18T09:48:29.000Z</time>
      </trkpt>
      <trkpt lat="43.33575" lon="5.67738">
        <ele>434</ele>
        <time>2019-01-18T09:48:30.000Z</time>
      </trkpt>
      <trkpt lat="43.33575" lon="5.67738">
        <ele>434</ele>
        <time>2019-01-18T09:48:31.000Z</time>
      </trkpt>
      <trkpt lat="43.33576" lon="5.67738">
        <ele>434</ele>
        <time>2019-01-18T09:48:32.000Z</time>
      </trkpt>
      <trkpt lat="43.33576" lon="5.67738">
        <ele>434</ele>
        <time>2019-01-18T09:48:33.000Z</time>
      </trkpt>
      <trkpt lat="43.33575" lon="5.67737">
        <ele>434</ele>
        <time>2019-01-18T09:48:34.000Z</time>
      </trkpt>
      <trkpt lat="43.33575" lon="5.67737">
        <ele>434</ele>
        <time>2019-01-18T09:48:35.000Z</time>
      </trkpt>
      <trkpt lat="43.33576" lon="5.67736">
        <ele>434</ele>
        <time>2019-01-18T09:48:36.000Z</time>
      </trkpt>
      <trkpt lat="43.33576" lon="5.67736">
        <ele>434</ele>
        <time>2019-01-18T09:48:37.000Z</time>
      </trkpt>
      <trkpt lat="43.33576" lon="5.67735">
        <ele>434</ele>
        <time>2019-01-18T09:48:38.000Z</time>
      </trkpt>
      <trkpt lat="43.33576" lon="5.67735">
        <ele>434</ele>
        <time>2019-01-18T09:48:39.000Z</time>
      </trkpt>
      <trkpt lat="43.33576" lon="5.67734">
        <ele>434</ele>
        <time>2019-01-18T09:48:40.000Z</time>
      </trkpt>
      <trkpt lat="43.33577" lon="5.67734">
        <ele>434</ele>
        <time>2019-01-18T09:48:41.000Z</time>
      </trkpt>
      <trkpt lat="43.33577" lon="5.67734">
        <ele>434</ele>
        <time>2019-01-18T09:48:42.000Z</time>
      </trkpt>
      <trkpt lat="43.33577" lon="5.67734">
        <ele>434</ele>
        <time>2019-01-18T09:48:43.000Z</time>
      </trkpt>
      <trkpt lat="43.33577" lon="5.67733">
        <ele>434</ele>
        <time>2019-01-18T09:48:44.000Z</time>
      </trkpt>
      <trkpt lat="43.33578" lon="5.67733">
        <ele>434</ele>
        <time>2019-01-18T09:48:45.000Z</time>
      </trkpt>
      <trkpt lat="43.33578" lon="5.67732">
        <ele>434</ele>
        <time>2019-01-18T09:48:46.000Z</time>
      </trkpt>
      <trkpt lat="43.33578" lon="5.67732">
        <ele>434</ele>
        <time>2019-01-18T09:48:47.000Z</time>
      </trkpt>
      <trkpt lat="43.33578" lon="5.67731">
        <ele>434</ele>
        <time>2019-01-18T09:48:48.000Z</time>
      </trkpt>
      <trkpt lat="43.33578" lon="5.6773">
        <ele>434</ele>
        <time>2019-01-18T09:48:49.000Z</time>
      </trkpt>
      <trkpt lat="43.33579" lon="5.6773">
        <ele>434</ele>
        <time>2019-01-18T09:48:50.000Z</time>
      </trkpt>
      <trkpt lat="43.33579" lon="5.67729">
        <ele>434</ele>
        <time>2019-01-18T09:48:51.000Z</time>
      </trkpt>
      <trkpt lat="43.33579" lon="5.67729">
        <ele>434</ele>
        <time>2019-01-18T09:48:52.000Z</time>
      </trkpt>
      <trkpt lat="43.3358" lon="5.67729">
        <ele>434</ele>
        <time>2019-01-18T09:48:53.000Z</time>
      </trkpt>
      <trkpt lat="43.3358" lon="5.67728">
        <ele>434</ele>
        <time>2019-01-18T09:48:54.000Z</time>
      </trkpt>
      <trkpt lat="43.33581" lon="5.67727">
        <ele>434</ele>
        <time>2019-01-18T09:48:55.000Z</time>
      </trkpt>
      <trkpt lat="43.33581" lon="5.67727">
        <ele>434</ele>
        <time>2019-01-18T09:48:56.000Z</time>
      </trkpt>
      <trkpt lat="43.33582" lon="5.67726">
        <ele>434</ele>
        <time>2019-01-18T09:48:57.000Z</time>
      </trkpt>
      <trkpt lat="43.33582" lon="5.67725">
        <ele>434</ele>
        <time>2019-01-18T09:48:58.000Z</time>
      </trkpt>
      <trkpt lat="43.33583" lon="5.67724">
        <ele>434</ele>
        <time>2019-01-18T09:48:59.000Z</time>
      </trkpt>
      <trkpt lat="43.33584" lon="5.67723">
        <ele>434</ele>
        <time>2019-01-18T09:49:00.000Z</time>
      </trkpt>
      <trkpt lat="43.33585" lon="5.67723">
        <ele>434</ele>
        <time>2019-01-18T09:49:01.000Z</time>
      </trkpt>
      <trkpt lat="43.33585" lon="5.67722">
        <ele>434</ele>
        <time>2019-01-18T09:49:02.000Z</time>
      </trkpt>
      <trkpt lat="43.33586" lon="5.67722">
        <ele>434</ele>
        <time>2019-01-18T09:49:03.000Z</time>
      </trkpt>
      <trkpt lat="43.33586" lon="5.67722">
        <ele>434</ele>
        <time>2019-01-18T09:49:04.000Z</time>
      </trkpt>
      <trkpt lat="43.33587" lon="5.67721">
        <ele>435</ele>
        <time>2019-01-18T09:49:05.000Z</time>
      </trkpt>
      <trkpt lat="43.33587" lon="5.67721">
        <ele>435</ele>
        <time>2019-01-18T09:49:06.000Z</time>
      </trkpt>
      <trkpt lat="43.33587" lon="5.67721">
        <ele>435</ele>
        <time>2019-01-18T09:49:07.000Z</time>
      </trkpt>
      <trkpt lat="43.33587" lon="5.67721">
        <ele>435</ele>
        <time>2019-01-18T09:49:08.000Z</time>
      </trkpt>
      <trkpt lat="43.33588" lon="5.67721">
        <ele>435</ele>
        <time>2019-01-18T09:49:09.000Z</time>
      </trkpt>
      <trkpt lat="43.33588" lon="5.67721">
        <ele>435</ele>
        <time>2019-01-18T09:49:10.000Z</time>
      </trkpt>
      <trkpt lat="43.33588" lon="5.6772">
        <ele>435</ele>
        <time>2019-01-18T09:49:11.000Z</time>
      </trkpt>
      <trkpt lat="43.33588" lon="5.67721">
        <ele>435</ele>
        <time>2019-01-18T09:49:12.000Z</time>
      </trkpt>
      <trkpt lat="43.33588" lon="5.67721">
        <ele>435</ele>
        <time>2019-01-18T09:49:13.000Z</time>
      </trkpt>
      <trkpt lat="43.33588" lon="5.67721">
        <ele>435</ele>
        <time>2019-01-18T09:49:14.000Z</time>
      </trkpt>
      <trkpt lat="43.33588" lon="5.6772">
        <ele>436</ele>
        <time>2019-01-18T09:49:15.000Z</time>
      </trkpt>
      <trkpt lat="43.33589" lon="5.6772">
        <ele>436</ele>
        <time>2019-01-18T09:49:16.000Z</time>
      </trkpt>
      <trkpt lat="43.33589" lon="5.6772">
        <ele>436</ele>
        <time>2019-01-18T09:49:17.000Z</time>
      </trkpt>
      <trkpt lat="43.33589" lon="5.6772">
        <ele>436</ele>
        <time>2019-01-18T09:49:18.000Z</time>
      </trkpt>
      <trkpt lat="43.33589" lon="5.6772">
        <ele>436</ele>
        <time>2019-01-18T09:49:19.000Z</time>
      </trkpt>
      <trkpt lat="43.33589" lon="5.6772">
        <ele>436</ele>
        <time>2019-01-18T09:49:20.000Z</time>
      </trkpt>
      <trkpt lat="43.33589" lon="5.6772">
        <ele>436</ele>
        <time>2019-01-18T09:49:21.000Z</time>
      </trkpt>
      <trkpt lat="43.3359" lon="5.67719">
        <ele>436</ele>
        <time>2019-01-18T09:49:22.000Z</time>
      </trkpt>
      <trkpt lat="43.3359" lon="5.67718">
        <ele>436</ele>
        <time>2019-01-18T09:49:23.000Z</time>
      </trkpt>
      <trkpt lat="43.3359" lon="5.67718">
        <ele>436</ele>
        <time>2019-01-18T09:49:24.000Z</time>
      </trkpt>
      <trkpt lat="43.33591" lon="5.67717">
        <ele>436</ele>
        <time>2019-01-18T09:49:25.000Z</time>
      </trkpt>
      <trkpt lat="43.33591" lon="5.67717">
        <ele>436</ele>
        <time>2019-01-18T09:49:26.000Z</time>
      </trkpt>
      <trkpt lat="43.33591" lon="5.67717">
        <ele>436</ele>
        <time>2019-01-18T09:49:27.000Z</time>
      </trkpt>
      <trkpt lat="43.33592" lon="5.67716">
        <ele>437</ele>
        <time>2019-01-18T09:49:28.000Z</time>
      </trkpt>
      <trkpt lat="43.33592" lon="5.67715">
        <ele>437</ele>
        <time>2019-01-18T09:49:29.000Z</time>
      </trkpt>
      <trkpt lat="43.33593" lon="5.67715">
        <ele>437</ele>
        <time>2019-01-18T09:49:30.000Z</time>
      </trkpt>
      <trkpt lat="43.33593" lon="5.67714">
        <ele>437</ele>
        <time>2019-01-18T09:49:31.000Z</time>
      </trkpt>
      <trkpt lat="43.33593" lon="5.67714">
        <ele>437</ele>
        <time>2019-01-18T09:49:32.000Z</time>
      </trkpt>
      <trkpt lat="43.33593" lon="5.67714">
        <ele>437</ele>
        <time>2019-01-18T09:49:33.000Z</time>
      </trkpt>
      <trkpt lat="43.33593" lon="5.67714">
        <ele>437</ele>
        <time>2019-01-18T09:49:34.000Z</time>
      </trkpt>
      <trkpt lat="43.33593" lon="5.67714">
        <ele>437</ele>
        <time>2019-01-18T09:49:35.000Z</time>
      </trkpt>
      <trkpt lat="43.33593" lon="5.67714">
        <ele>437</ele>
        <time>2019-01-18T09:49:36.000Z</time>
      </trkpt>
      <trkpt lat="43.33593" lon="5.67713">
        <ele>437</ele>
        <time>2019-01-18T09:49:37.000Z</time>
      </trkpt>
      <trkpt lat="43.33594" lon="5.67713">
        <ele>437</ele>
        <time>2019-01-18T09:49:38.000Z</time>
      </trkpt>
      <trkpt lat="43.33594" lon="5.67713">
        <ele>437</ele>
        <time>2019-01-18T09:49:39.000Z</time>
      </trkpt>
      <trkpt lat="43.33594" lon="5.67712">
        <ele>437</ele>
        <time>2019-01-18T09:49:40.000Z</time>
      </trkpt>
      <trkpt lat="43.33595" lon="5.67711">
        <ele>437</ele>
        <time>2019-01-18T09:49:41.000Z</time>
      </trkpt>
      <trkpt lat="43.33596" lon="5.67709">
        <ele>437</ele>
        <time>2019-01-18T09:49:42.000Z</time>
      </trkpt>
      <trkpt lat="43.33596" lon="5.67708">
        <ele>437</ele>
        <time>2019-01-18T09:49:43.000Z</time>
      </trkpt>
      <trkpt lat="43.33597" lon="5.67707">
        <ele>437</ele>
        <time>2019-01-18T09:49:44.000Z</time>
      </trkpt>
      <trkpt lat="43.33597" lon="5.67706">
        <ele>437</ele>
        <time>2019-01-18T09:49:45.000Z</time>
      </trkpt>
      <trkpt lat="43.33598" lon="5.67705">
        <ele>437</ele>
        <time>2019-01-18T09:49:46.000Z</time>
      </trkpt>
      <trkpt lat="43.33598" lon="5.67704">
        <ele>437</ele>
        <time>2019-01-18T09:49:47.000Z</time>
      </trkpt>
      <trkpt lat="43.33598" lon="5.67702">
        <ele>437</ele>
        <time>2019-01-18T09:49:48.000Z</time>
      </trkpt>
      <trkpt lat="43.33598" lon="5.67702">
        <ele>437</ele>
        <time>2019-01-18T09:49:49.000Z</time>
      </trkpt>
      <trkpt lat="43.33598" lon="5.67701">
        <ele>438</ele>
        <time>2019-01-18T09:49:50.000Z</time>
      </trkpt>
      <trkpt lat="43.33599" lon="5.677">
        <ele>438</ele>
        <time>2019-01-18T09:49:51.000Z</time>
      </trkpt>
      <trkpt lat="43.33599" lon="5.67699">
        <ele>438</ele>
        <time>2019-01-18T09:49:52.000Z</time>
      </trkpt>
      <trkpt lat="43.33599" lon="5.67698">
        <ele>438</ele>
        <time>2019-01-18T09:49:53.000Z</time>
      </trkpt>
      <trkpt lat="43.336" lon="5.67697">
        <ele>438</ele>
        <time>2019-01-18T09:49:54.000Z</time>
      </trkpt>
      <trkpt lat="43.336" lon="5.67697">
        <ele>438</ele>
        <time>2019-01-18T09:49:55.000Z</time>
      </trkpt>
      <trkpt lat="43.336" lon="5.67696">
        <ele>438</ele>
        <time>2019-01-18T09:49:56.000Z</time>
      </trkpt>
      <trkpt lat="43.336" lon="5.67696">
        <ele>438</ele>
        <time>2019-01-18T09:49:57.000Z</time>
      </trkpt>
      <trkpt lat="43.336" lon="5.67696">
        <ele>438</ele>
        <time>2019-01-18T09:49:58.000Z</time>
      </trkpt>
      <trkpt lat="43.336" lon="5.67696">
        <ele>438</ele>
        <time>2019-01-18T09:49:59.000Z</time>
      </trkpt>
      <trkpt lat="43.336" lon="5.67696">
        <ele>438</ele>
        <time>2019-01-18T09:50:00.000Z</time>
      </trkpt>
      <trkpt lat="43.336" lon="5.67695">
        <ele>439</ele>
        <time>2019-01-18T09:50:01.000Z</time>
      </trkpt>
      <trkpt lat="43.336" lon="5.67695">
        <ele>439</ele>
        <time>2019-01-18T09:50:02.000Z</time>
      </trkpt>
      <trkpt lat="43.336" lon="5.67695">
        <ele>439</ele>
        <time>2019-01-18T09:50:03.000Z</time>
      </trkpt>
      <trkpt lat="43.336" lon="5.67694">
        <ele>439</ele>
        <time>2019-01-18T09:50:04.000Z</time>
      </trkpt>
      <trkpt lat="43.336" lon="5.67694">
        <ele>439</ele>
        <time>2019-01-18T09:50:05.000Z</time>
      </trkpt>
      <trkpt lat="43.336" lon="5.67694">
        <ele>439</ele>
        <time>2019-01-18T09:50:06.000Z</time>
      </trkpt>
      <trkpt lat="43.336" lon="5.67694">
        <ele>439</ele>
        <time>2019-01-18T09:50:07.000Z</time>
      </trkpt>
      <trkpt lat="43.336" lon="5.67694">
        <ele>439</ele>
        <time>2019-01-18T09:50:08.000Z</time>
      </trkpt>
      <trkpt lat="43.336" lon="5.67694">
        <ele>439</ele>
        <time>2019-01-18T09:50:09.000Z</time>
      </trkpt>
      <trkpt lat="43.336" lon="5.67694">
        <ele>439</ele>
        <time>2019-01-18T09:50:10.000Z</time>
      </trkpt>
      <trkpt lat="43.336" lon="5.67694">
        <ele>439</ele>
        <time>2019-01-18T09:50:11.000Z</time>
      </trkpt>
      <trkpt lat="43.336" lon="5.67694">
        <ele>439</ele>
        <time>2019-01-18T09:50:12.000Z</time>
      </trkpt>
      <trkpt lat="43.336" lon="5.67694">
        <ele>439</ele>
        <time>2019-01-18T09:50:13.000Z</time>
      </trkpt>
      <trkpt lat="43.33601" lon="5.67694">
        <ele>439</ele>
        <time>2019-01-18T09:50:14.000Z</time>
      </trkpt>
      <trkpt lat="43.33601" lon="5.67694">
        <ele>439</ele>
        <time>2019-01-18T09:50:15.000Z</time>
      </trkpt>
      <trkpt lat="43.33601" lon="5.67694">
        <ele>439</ele>
        <time>2019-01-18T09:50:16.000Z</time>
      </trkpt>
      <trkpt lat="43.33601" lon="5.67694">
        <ele>440</ele>
        <time>2019-01-18T09:50:17.000Z</time>
      </trkpt>
      <trkpt lat="43.33601" lon="5.67694">
        <ele>440</ele>
        <time>2019-01-18T09:50:18.000Z</time>
      </trkpt>
      <trkpt lat="43.33601" lon="5.67694">
        <ele>440</ele>
        <time>2019-01-18T09:50:19.000Z</time>
      </trkpt>
      <trkpt lat="43.33601" lon="5.67694">
        <ele>440</ele>
        <time>2019-01-18T09:50:20.000Z</time>
      </trkpt>
      <trkpt lat="43.336" lon="5.67694">
        <ele>440</ele>
        <time>2019-01-18T09:50:21.000Z</time>
      </trkpt>
      <trkpt lat="43.336" lon="5.67694">
        <ele>440</ele>
        <time>2019-01-18T09:50:22.000Z</time>
      </trkpt>
      <trkpt lat="43.336" lon="5.67694">
        <ele>440</ele>
        <time>2019-01-18T09:50:23.000Z</time>
      </trkpt>
      <trkpt lat="43.336" lon="5.67694">
        <ele>440</ele>
        <time>2019-01-18T09:50:24.000Z</time>
      </trkpt>
      <trkpt lat="43.336" lon="5.67694">
        <ele>440</ele>
        <time>2019-01-18T09:50:25.000Z</time>
      </trkpt>
      <trkpt lat="43.336" lon="5.67695">
        <ele>440</ele>
        <time>2019-01-18T09:50:26.000Z</time>
      </trkpt>
      <trkpt lat="43.336" lon="5.67695">
        <ele>440</ele>
        <time>2019-01-18T09:50:27.000Z</time>
      </trkpt>
      <trkpt lat="43.336" lon="5.67695">
        <ele>440</ele>
        <time>2019-01-18T09:50:28.000Z</time>
      </trkpt>
      <trkpt lat="43.336" lon="5.67695">
        <ele>440</ele>
        <time>2019-01-18T09:50:29.000Z</time>
      </trkpt>
      <trkpt lat="43.336" lon="5.67695">
        <ele>440</ele>
        <time>2019-01-18T09:50:30.000Z</time>
      </trkpt>
      <trkpt lat="43.336" lon="5.67695">
        <ele>440</ele>
        <time>2019-01-18T09:50:31.000Z</time>
      </trkpt>
      <trkpt lat="43.336" lon="5.67695">
        <ele>440</ele>
        <time>2019-01-18T09:50:32.000Z</time>
      </trkpt>
      <trkpt lat="43.336" lon="5.67695">
        <ele>440</ele>
        <time>2019-01-18T09:50:33.000Z</time>
      </trkpt>
      <trkpt lat="43.336" lon="5.67694">
        <ele>440</ele>
        <time>2019-01-18T09:50:34.000Z</time>
      </trkpt>
      <trkpt lat="43.336" lon="5.67694">
        <ele>440</ele>
        <time>2019-01-18T09:50:35.000Z</time>
      </trkpt>
      <trkpt lat="43.336" lon="5.67694">
        <ele>440</ele>
        <time>2019-01-18T09:50:36.000Z</time>
      </trkpt>
      <trkpt lat="43.336" lon="5.67694">
        <ele>440</ele>
        <time>2019-01-18T09:50:37.000Z</time>
      </trkpt>
      <trkpt lat="43.336" lon="5.67694">
        <ele>440</ele>
        <time>2019-01-18T09:50:38.000Z</time>
      </trkpt>
      <trkpt lat="43.336" lon="5.67694">
        <ele>440</ele>
        <time>2019-01-18T09:50:39.000Z</time>
      </trkpt>
      <trkpt lat="43.336" lon="5.67694">
        <ele>440</ele>
        <time>2019-01-18T09:50:40.000Z</time>
      </trkpt>
      <trkpt lat="43.336" lon="5.67694">
        <ele>440</ele>
        <time>2019-01-18T09:50:41.000Z</time>
      </trkpt>
      <trkpt lat="43.33601" lon="5.67693">
        <ele>440</ele>
        <time>2019-01-18T09:50:42.000Z</time>
      </trkpt>
      <trkpt lat="43.33601" lon="5.67693">
        <ele>440</ele>
        <time>2019-01-18T09:50:43.000Z</time>
      </trkpt>
      <trkpt lat="43.33601" lon="5.67693">
        <ele>440</ele>
        <time>2019-01-18T09:50:44.000Z</time>
      </trkpt>
      <trkpt lat="43.336" lon="5.67693">
        <ele>440</ele>
        <time>2019-01-18T09:50:45.000Z</time>
      </trkpt>
      <trkpt lat="43.336" lon="5.67693">
        <ele>440</ele>
        <time>2019-01-18T09:50:46.000Z</time>
      </trkpt>
      <trkpt lat="43.336" lon="5.67694">
        <ele>440</ele>
        <time>2019-01-18T09:50:47.000Z</time>
      </trkpt>
      <trkpt lat="43.33601" lon="5.67694">
        <ele>440</ele>
        <time>2019-01-18T09:50:48.000Z</time>
      </trkpt>
      <trkpt lat="43.33601" lon="5.67694">
        <ele>440</ele>
        <time>2019-01-18T09:50:49.000Z</time>
      </trkpt>
      <trkpt lat="43.33601" lon="5.67694">
        <ele>440</ele>
        <time>2019-01-18T09:50:50.000Z</time>
      </trkpt>
      <trkpt lat="43.33601" lon="5.67694">
        <ele>440</ele>
        <time>2019-01-18T09:50:51.000Z</time>
      </trkpt>
      <trkpt lat="43.33601" lon="5.67694">
        <ele>440</ele>
        <time>2019-01-18T09:50:52.000Z</time>
      </trkpt>
      <trkpt lat="43.33601" lon="5.67695">
        <ele>440</ele>
        <time>2019-01-18T09:50:53.000Z</time>
      </trkpt>
      <trkpt lat="43.33601" lon="5.67695">
        <ele>440</ele>
        <time>2019-01-18T09:50:54.000Z</time>
      </trkpt>
      <trkpt lat="43.33601" lon="5.67695">
        <ele>440</ele>
        <time>2019-01-18T09:50:55.000Z</time>
      </trkpt>
      <trkpt lat="43.33601" lon="5.67696">
        <ele>440</ele>
        <time>2019-01-18T09:50:56.000Z</time>
      </trkpt>
      <trkpt lat="43.33601" lon="5.67696">
        <ele>440</ele>
        <time>2019-01-18T09:50:57.000Z</time>
      </trkpt>
      <trkpt lat="43.33602" lon="5.67696">
        <ele>440</ele>
        <time>2019-01-18T09:50:58.000Z</time>
      </trkpt>
      <trkpt lat="43.33602" lon="5.67696">
        <ele>440</ele>
        <time>2019-01-18T09:50:59.000Z</time>
      </trkpt>
      <trkpt lat="43.33602" lon="5.67696">
        <ele>440</ele>
        <time>2019-01-18T09:51:00.000Z</time>
      </trkpt>
      <trkpt lat="43.33602" lon="5.67697">
        <ele>440</ele>
        <time>2019-01-18T09:51:01.000Z</time>
      </trkpt>
      <trkpt lat="43.33602" lon="5.67697">
        <ele>440</ele>
        <time>2019-01-18T09:51:02.000Z</time>
      </trkpt>
      <trkpt lat="43.33602" lon="5.67697">
        <ele>440</ele>
        <time>2019-01-18T09:51:03.000Z</time>
      </trkpt>
      <trkpt lat="43.33602" lon="5.67698">
        <ele>440</ele>
        <time>2019-01-18T09:51:04.000Z</time>
      </trkpt>
      <trkpt lat="43.33602" lon="5.67698">
        <ele>440</ele>
        <time>2019-01-18T09:51:05.000Z</time>
      </trkpt>
      <trkpt lat="43.33602" lon="5.67698">
        <ele>440</ele>
        <time>2019-01-18T09:51:06.000Z</time>
      </trkpt>
      <trkpt lat="43.33603" lon="5.67698">
        <ele>440</ele>
        <time>2019-01-18T09:51:07.000Z</time>
      </trkpt>
      <trkpt lat="43.33603" lon="5.67699">
        <ele>441</ele>
        <time>2019-01-18T09:51:08.000Z</time>
      </trkpt>
      <trkpt lat="43.33603" lon="5.67699">
        <ele>441</ele>
        <time>2019-01-18T09:51:09.000Z</time>
      </trkpt>
      <trkpt lat="43.33603" lon="5.67699">
        <ele>441</ele>
        <time>2019-01-18T09:51:10.000Z</time>
      </trkpt>
      <trkpt lat="43.33603" lon="5.677">
        <ele>441</ele>
        <time>2019-01-18T09:51:11.000Z</time>
      </trkpt>
      <trkpt lat="43.33603" lon="5.677">
        <ele>441</ele>
        <time>2019-01-18T09:51:12.000Z</time>
      </trkpt>
      <trkpt lat="43.33603" lon="5.677">
        <ele>441</ele>
        <time>2019-01-18T09:51:13.000Z</time>
      </trkpt>
      <trkpt lat="43.33603" lon="5.677">
        <ele>441</ele>
        <time>2019-01-18T09:51:14.000Z</time>
      </trkpt>
      <trkpt lat="43.33603" lon="5.677">
        <ele>441</ele>
        <time>2019-01-18T09:51:15.000Z</time>
      </trkpt>
      <trkpt lat="43.33603" lon="5.677">
        <ele>441</ele>
        <time>2019-01-18T09:51:16.000Z</time>
      </trkpt>
      <trkpt lat="43.33603" lon="5.67701">
        <ele>441</ele>
        <time>2019-01-18T09:51:17.000Z</time>
      </trkpt>
      <trkpt lat="43.33603" lon="5.67701">
        <ele>441</ele>
        <time>2019-01-18T09:51:18.000Z</time>
      </trkpt>
      <trkpt lat="43.33603" lon="5.67701">
        <ele>441</ele>
        <time>2019-01-18T09:51:19.000Z</time>
      </trkpt>
      <trkpt lat="43.33603" lon="5.67702">
        <ele>441</ele>
        <time>2019-01-18T09:51:20.000Z</time>
      </trkpt>
      <trkpt lat="43.33603" lon="5.67702">
        <ele>442</ele>
        <time>2019-01-18T09:51:21.000Z</time>
      </trkpt>
      <trkpt lat="43.33603" lon="5.67703">
        <ele>442</ele>
        <time>2019-01-18T09:51:22.000Z</time>
      </trkpt>
      <trkpt lat="43.33603" lon="5.67703">
        <ele>442</ele>
        <time>2019-01-18T09:51:23.000Z</time>
      </trkpt>
      <trkpt lat="43.33603" lon="5.67704">
        <ele>442</ele>
        <time>2019-01-18T09:51:24.000Z</time>
      </trkpt>
      <trkpt lat="43.33603" lon="5.67705">
        <ele>442</ele>
        <time>2019-01-18T09:51:25.000Z</time>
      </trkpt>
      <trkpt lat="43.33603" lon="5.67706">
        <ele>442</ele>
        <time>2019-01-18T09:51:26.000Z</time>
      </trkpt>
      <trkpt lat="43.33603" lon="5.67707">
        <ele>442</ele>
        <time>2019-01-18T09:51:27.000Z</time>
      </trkpt>
      <trkpt lat="43.33602" lon="5.67707">
        <ele>442</ele>
        <time>2019-01-18T09:51:28.000Z</time>
      </trkpt>
      <trkpt lat="43.33602" lon="5.67708">
        <ele>442</ele>
        <time>2019-01-18T09:51:29.000Z</time>
      </trkpt>
      <trkpt lat="43.33602" lon="5.67708">
        <ele>443</ele>
        <time>2019-01-18T09:51:30.000Z</time>
      </trkpt>
      <trkpt lat="43.33603" lon="5.67709">
        <ele>443</ele>
        <time>2019-01-18T09:51:31.000Z</time>
      </trkpt>
      <trkpt lat="43.33603" lon="5.6771">
        <ele>443</ele>
        <time>2019-01-18T09:51:32.000Z</time>
      </trkpt>
      <trkpt lat="43.33602" lon="5.67711">
        <ele>443</ele>
        <time>2019-01-18T09:51:33.000Z</time>
      </trkpt>
      <trkpt lat="43.33602" lon="5.67712">
        <ele>443</ele>
        <time>2019-01-18T09:51:34.000Z</time>
      </trkpt>
      <trkpt lat="43.33602" lon="5.67713">
        <ele>443</ele>
        <time>2019-01-18T09:51:35.000Z</time>
      </trkpt>
      <trkpt lat="43.33601" lon="5.67714">
        <ele>443</ele>
        <time>2019-01-18T09:51:36.000Z</time>
      </trkpt>
      <trkpt lat="43.33601" lon="5.67715">
        <ele>443</ele>
        <time>2019-01-18T09:51:37.000Z</time>
      </trkpt>
      <trkpt lat="43.33601" lon="5.67716">
        <ele>443</ele>
        <time>2019-01-18T09:51:38.000Z</time>
      </trkpt>
      <trkpt lat="43.33601" lon="5.67717">
        <ele>443</ele>
        <time>2019-01-18T09:51:39.000Z</time>
      </trkpt>
      <trkpt lat="43.336" lon="5.67718">
        <ele>443</ele>
        <time>2019-01-18T09:51:40.000Z</time>
      </trkpt>
      <trkpt lat="43.336" lon="5.67718">
        <ele>444</ele>
        <time>2019-01-18T09:51:41.000Z</time>
      </trkpt>
      <trkpt lat="43.33599" lon="5.67719">
        <ele>444</ele>
        <time>2019-01-18T09:51:42.000Z</time>
      </trkpt>
      <trkpt lat="43.33599" lon="5.6772">
        <ele>444</ele>
        <time>2019-01-18T09:51:43.000Z</time>
      </trkpt>
      <trkpt lat="43.33599" lon="5.6772">
        <ele>444</ele>
        <time>2019-01-18T09:51:44.000Z</time>
      </trkpt>
      <trkpt lat="43.33598" lon="5.67721">
        <ele>444</ele>
        <time>2019-01-18T09:51:45.000Z</time>
      </trkpt>
      <trkpt lat="43.33598" lon="5.67721">
        <ele>444</ele>
        <time>2019-01-18T09:51:46.000Z</time>
      </trkpt>
      <trkpt lat="43.33598" lon="5.67721">
        <ele>444</ele>
        <time>2019-01-18T09:51:47.000Z</time>
      </trkpt>
      <trkpt lat="43.33598" lon="5.67721">
        <ele>444</ele>
        <time>2019-01-18T09:51:48.000Z</time>
      </trkpt>
      <trkpt lat="43.33598" lon="5.67721">
        <ele>444</ele>
        <time>2019-01-18T09:51:49.000Z</time>
      </trkpt>
      <trkpt lat="43.33598" lon="5.67722">
        <ele>444</ele>
        <time>2019-01-18T09:51:50.000Z</time>
      </trkpt>
      <trkpt lat="43.33598" lon="5.67722">
        <ele>444</ele>
        <time>2019-01-18T09:51:51.000Z</time>
      </trkpt>
      <trkpt lat="43.33598" lon="5.67722">
        <ele>444</ele>
        <time>2019-01-18T09:51:52.000Z</time>
      </trkpt>
      <trkpt lat="43.33598" lon="5.67722">
        <ele>444</ele>
        <time>2019-01-18T09:51:53.000Z</time>
      </trkpt>
      <trkpt lat="43.33598" lon="5.67722">
        <ele>444</ele>
        <time>2019-01-18T09:51:54.000Z</time>
      </trkpt>
      <trkpt lat="43.33598" lon="5.67722">
        <ele>444</ele>
        <time>2019-01-18T09:51:55.000Z</time>
      </trkpt>
      <trkpt lat="43.33598" lon="5.67722">
        <ele>444</ele>
        <time>2019-01-18T09:51:56.000Z</time>
      </trkpt>
      <trkpt lat="43.33598" lon="5.67722">
        <ele>444</ele>
        <time>2019-01-18T09:51:57.000Z</time>
      </trkpt>
      <trkpt lat="43.33598" lon="5.67722">
        <ele>444</ele>
        <time>2019-01-18T09:51:58.000Z</time>
      </trkpt>
      <trkpt lat="43.33598" lon="5.67722">
        <ele>444</ele>
        <time>2019-01-18T09:51:59.000Z</time>
      </trkpt>
      <trkpt lat="43.33598" lon="5.67723">
        <ele>444</ele>
        <time>2019-01-18T09:52:00.000Z</time>
      </trkpt>
      <trkpt lat="43.33598" lon="5.67723">
        <ele>444</ele>
        <time>2019-01-18T09:52:01.000Z</time>
      </trkpt>
      <trkpt lat="43.33598" lon="5.67723">
        <ele>444</ele>
        <time>2019-01-18T09:52:02.000Z</time>
      </trkpt>
      <trkpt lat="43.33598" lon="5.67723">
        <ele>444</ele>
        <time>2019-01-18T09:52:03.000Z</time>
      </trkpt>
      <trkpt lat="43.33598" lon="5.67724">
        <ele>444</ele>
        <time>2019-01-18T09:52:04.000Z</time>
      </trkpt>
      <trkpt lat="43.33598" lon="5.67725">
        <ele>444</ele>
        <time>2019-01-18T09:52:05.000Z</time>
      </trkpt>
      <trkpt lat="43.33597" lon="5.67726">
        <ele>444</ele>
        <time>2019-01-18T09:52:06.000Z</time>
      </trkpt>
      <trkpt lat="43.33597" lon="5.67727">
        <ele>443</ele>
        <time>2019-01-18T09:52:07.000Z</time>
      </trkpt>
      <trkpt lat="43.33597" lon="5.67728">
        <ele>444</ele>
        <time>2019-01-18T09:52:08.000Z</time>
      </trkpt>
      <trkpt lat="43.33596" lon="5.67729">
        <ele>444</ele>
        <time>2019-01-18T09:52:09.000Z</time>
      </trkpt>
      <trkpt lat="43.33596" lon="5.6773">
        <ele>444</ele>
        <time>2019-01-18T09:52:10.000Z</time>
      </trkpt>
      <trkpt lat="43.33595" lon="5.67731">
        <ele>444</ele>
        <time>2019-01-18T09:52:11.000Z</time>
      </trkpt>
      <trkpt lat="43.33595" lon="5.67732">
        <ele>444</ele>
        <time>2019-01-18T09:52:12.000Z</time>
      </trkpt>
      <trkpt lat="43.33594" lon="5.67733">
        <ele>444</ele>
        <time>2019-01-18T09:52:13.000Z</time>
      </trkpt>
      <trkpt lat="43.33594" lon="5.67733">
        <ele>444</ele>
        <time>2019-01-18T09:52:14.000Z</time>
      </trkpt>
      <trkpt lat="43.33594" lon="5.67734">
        <ele>444</ele>
        <time>2019-01-18T09:52:15.000Z</time>
      </trkpt>
      <trkpt lat="43.33593" lon="5.67734">
        <ele>444</ele>
        <time>2019-01-18T09:52:16.000Z</time>
      </trkpt>
      <trkpt lat="43.33593" lon="5.67734">
        <ele>444</ele>
        <time>2019-01-18T09:52:17.000Z</time>
      </trkpt>
      <trkpt lat="43.33593" lon="5.67734">
        <ele>444</ele>
        <time>2019-01-18T09:52:18.000Z</time>
      </trkpt>
      <trkpt lat="43.33592" lon="5.67734">
        <ele>444</ele>
        <time>2019-01-18T09:52:19.000Z</time>
      </trkpt>
      <trkpt lat="43.33592" lon="5.67735">
        <ele>444</ele>
        <time>2019-01-18T09:52:20.000Z</time>
      </trkpt>
      <trkpt lat="43.33592" lon="5.67735">
        <ele>444</ele>
        <time>2019-01-18T09:52:21.000Z</time>
      </trkpt>
      <trkpt lat="43.33592" lon="5.67735">
        <ele>444</ele>
        <time>2019-01-18T09:52:22.000Z</time>
      </trkpt>
      <trkpt lat="43.33592" lon="5.67735">
        <ele>444</ele>
        <time>2019-01-18T09:52:23.000Z</time>
      </trkpt>
      <trkpt lat="43.33592" lon="5.67735">
        <ele>444</ele>
        <time>2019-01-18T09:52:24.000Z</time>
      </trkpt>
      <trkpt lat="43.33592" lon="5.67735">
        <ele>444</ele>
        <time>2019-01-18T09:52:25.000Z</time>
      </trkpt>
      <trkpt lat="43.33591" lon="5.67735">
        <ele>444</ele>
        <time>2019-01-18T09:52:26.000Z</time>
      </trkpt>
      <trkpt lat="43.33591" lon="5.67736">
        <ele>444</ele>
        <time>2019-01-18T09:52:27.000Z</time>
      </trkpt>
      <trkpt lat="43.3359" lon="5.67736">
        <ele>444</ele>
        <time>2019-01-18T09:52:28.000Z</time>
      </trkpt>
      <trkpt lat="43.3359" lon="5.67737">
        <ele>444</ele>
        <time>2019-01-18T09:52:29.000Z</time>
      </trkpt>
      <trkpt lat="43.3359" lon="5.67738">
        <ele>444</ele>
        <time>2019-01-18T09:52:30.000Z</time>
      </trkpt>
      <trkpt lat="43.3359" lon="5.67738">
        <ele>444</ele>
        <time>2019-01-18T09:52:31.000Z</time>
      </trkpt>
      <trkpt lat="43.33589" lon="5.67739">
        <ele>444</ele>
        <time>2019-01-18T09:52:32.000Z</time>
      </trkpt>
      <trkpt lat="43.33588" lon="5.6774">
        <ele>444</ele>
        <time>2019-01-18T09:52:33.000Z</time>
      </trkpt>
      <trkpt lat="43.33588" lon="5.67741">
        <ele>444</ele>
        <time>2019-01-18T09:52:34.000Z</time>
      </trkpt>
      <trkpt lat="43.33587" lon="5.67741">
        <ele>444</ele>
        <time>2019-01-18T09:52:35.000Z</time>
      </trkpt>
      <trkpt lat="43.33587" lon="5.67742">
        <ele>444</ele>
        <time>2019-01-18T09:52:36.000Z</time>
      </trkpt>
      <trkpt lat="43.33587" lon="5.67743">
        <ele>445</ele>
        <time>2019-01-18T09:52:37.000Z</time>
      </trkpt>
      <trkpt lat="43.33586" lon="5.67744">
        <ele>445</ele>
        <time>2019-01-18T09:52:38.000Z</time>
      </trkpt>
      <trkpt lat="43.33586" lon="5.67745">
        <ele>445</ele>
        <time>2019-01-18T09:52:39.000Z</time>
      </trkpt>
      <trkpt lat="43.33585" lon="5.67746">
        <ele>445</ele>
        <time>2019-01-18T09:52:40.000Z</time>
      </trkpt>
      <trkpt lat="43.33584" lon="5.67746">
        <ele>445</ele>
        <time>2019-01-18T09:52:41.000Z</time>
      </trkpt>
      <trkpt lat="43.33584" lon="5.67747">
        <ele>445</ele>
        <time>2019-01-18T09:52:42.000Z</time>
      </trkpt>
      <trkpt lat="43.33584" lon="5.67748">
        <ele>445</ele>
        <time>2019-01-18T09:52:43.000Z</time>
      </trkpt>
      <trkpt lat="43.33584" lon="5.67749">
        <ele>445</ele>
        <time>2019-01-18T09:52:44.000Z</time>
      </trkpt>
      <trkpt lat="43.33584" lon="5.6775">
        <ele>445</ele>
        <time>2019-01-18T09:52:45.000Z</time>
      </trkpt>
      <trkpt lat="43.33584" lon="5.67751">
        <ele>445</ele>
        <time>2019-01-18T09:52:46.000Z</time>
      </trkpt>
      <trkpt lat="43.33583" lon="5.67752">
        <ele>445</ele>
        <time>2019-01-18T09:52:47.000Z</time>
      </trkpt>
      <trkpt lat="43.33582" lon="5.67753">
        <ele>445</ele>
        <time>2019-01-18T09:52:48.000Z</time>
      </trkpt>
      <trkpt lat="43.33582" lon="5.67754">
        <ele>445</ele>
        <time>2019-01-18T09:52:49.000Z</time>
      </trkpt>
      <trkpt lat="43.33582" lon="5.67755">
        <ele>445</ele>
        <time>2019-01-18T09:52:50.000Z</time>
      </trkpt>
      <trkpt lat="43.33582" lon="5.67756">
        <ele>445</ele>
        <time>2019-01-18T09:52:51.000Z</time>
      </trkpt>
      <trkpt lat="43.33582" lon="5.67757">
        <ele>445</ele>
        <time>2019-01-18T09:52:52.000Z</time>
      </trkpt>
      <trkpt lat="43.33582" lon="5.67757">
        <ele>445</ele>
        <time>2019-01-18T09:52:53.000Z</time>
      </trkpt>
      <trkpt lat="43.33581" lon="5.67758">
        <ele>445</ele>
        <time>2019-01-18T09:52:54.000Z</time>
      </trkpt>
      <trkpt lat="43.33581" lon="5.67759">
        <ele>445</ele>
        <time>2019-01-18T09:52:55.000Z</time>
      </trkpt>
      <trkpt lat="43.33581" lon="5.6776">
        <ele>445</ele>
        <time>2019-01-18T09:52:56.000Z</time>
      </trkpt>
      <trkpt lat="43.33581" lon="5.67761">
        <ele>445</ele>
        <time>2019-01-18T09:52:57.000Z</time>
      </trkpt>
      <trkpt lat="43.33581" lon="5.67762">
        <ele>445</ele>
        <time>2019-01-18T09:52:58.000Z</time>
      </trkpt>
      <trkpt lat="43.33581" lon="5.67762">
        <ele>445</ele>
        <time>2019-01-18T09:52:59.000Z</time>
      </trkpt>
      <trkpt lat="43.33581" lon="5.67763">
        <ele>445</ele>
        <time>2019-01-18T09:53:00.000Z</time>
      </trkpt>
      <trkpt lat="43.33581" lon="5.67764">
        <ele>445</ele>
        <time>2019-01-18T09:53:01.000Z</time>
      </trkpt>
      <trkpt lat="43.33581" lon="5.67765">
        <ele>445</ele>
        <time>2019-01-18T09:53:02.000Z</time>
      </trkpt>
      <trkpt lat="43.33581" lon="5.67766">
        <ele>445</ele>
        <time>2019-01-18T09:53:03.000Z</time>
      </trkpt>
      <trkpt lat="43.33581" lon="5.67767">
        <ele>445</ele>
        <time>2019-01-18T09:53:04.000Z</time>
      </trkpt>
      <trkpt lat="43.33581" lon="5.67768">
        <ele>445</ele>
        <time>2019-01-18T09:53:05.000Z</time>
      </trkpt>
      <trkpt lat="43.33581" lon="5.67769">
        <ele>445</ele>
        <time>2019-01-18T09:53:06.000Z</time>
      </trkpt>
      <trkpt lat="43.33581" lon="5.67769">
        <ele>445</ele>
        <time>2019-01-18T09:53:07.000Z</time>
      </trkpt>
      <trkpt lat="43.33581" lon="5.6777">
        <ele>445</ele>
        <time>2019-01-18T09:53:08.000Z</time>
      </trkpt>
      <trkpt lat="43.3358" lon="5.6777">
        <ele>445</ele>
        <time>2019-01-18T09:53:09.000Z</time>
      </trkpt>
      <trkpt lat="43.3358" lon="5.67771">
        <ele>445</ele>
        <time>2019-01-18T09:53:10.000Z</time>
      </trkpt>
      <trkpt lat="43.3358" lon="5.67771">
        <ele>445</ele>
        <time>2019-01-18T09:53:11.000Z</time>
      </trkpt>
      <trkpt lat="43.3358" lon="5.67771">
        <ele>445</ele>
        <time>2019-01-18T09:53:12.000Z</time>
      </trkpt>
      <trkpt lat="43.33579" lon="5.67772">
        <ele>445</ele>
        <time>2019-01-18T09:53:13.000Z</time>
      </trkpt>
      <trkpt lat="43.33579" lon="5.67773">
        <ele>445</ele>
        <time>2019-01-18T09:53:14.000Z</time>
      </trkpt>
      <trkpt lat="43.33578" lon="5.67773">
        <ele>445</ele>
        <time>2019-01-18T09:53:15.000Z</time>
      </trkpt>
      <trkpt lat="43.33578" lon="5.67772">
        <ele>445</ele>
        <time>2019-01-18T09:53:16.000Z</time>
      </trkpt>
      <trkpt lat="43.33577" lon="5.67772">
        <ele>445</ele>
        <time>2019-01-18T09:53:17.000Z</time>
      </trkpt>
      <trkpt lat="43.33577" lon="5.67772">
        <ele>445</ele>
        <time>2019-01-18T09:53:18.000Z</time>
      </trkpt>
      <trkpt lat="43.33577" lon="5.67772">
        <ele>445</ele>
        <time>2019-01-18T09:53:19.000Z</time>
      </trkpt>
      <trkpt lat="43.33577" lon="5.67771">
        <ele>445</ele>
        <time>2019-01-18T09:53:20.000Z</time>
      </trkpt>
      <trkpt lat="43.33577" lon="5.67771">
        <ele>445</ele>
        <time>2019-01-18T09:53:21.000Z</time>
      </trkpt>
      <trkpt lat="43.33576" lon="5.67771">
        <ele>445</ele>
        <time>2019-01-18T09:53:22.000Z</time>
      </trkpt>
      <trkpt lat="43.33576" lon="5.67771">
        <ele>445</ele>
        <time>2019-01-18T09:53:23.000Z</time>
      </trkpt>
      <trkpt lat="43.33576" lon="5.6777">
        <ele>445</ele>
        <time>2019-01-18T09:53:24.000Z</time>
      </trkpt>
      <trkpt lat="43.33576" lon="5.6777">
        <ele>445</ele>
        <time>2019-01-18T09:53:25.000Z</time>
      </trkpt>
      <trkpt lat="43.33576" lon="5.6777">
        <ele>445</ele>
        <time>2019-01-18T09:53:26.000Z</time>
      </trkpt>
      <trkpt lat="43.33576" lon="5.6777">
        <ele>445</ele>
        <time>2019-01-18T09:53:27.000Z</time>
      </trkpt>
      <trkpt lat="43.33576" lon="5.6777">
        <ele>444</ele>
        <time>2019-01-18T09:53:28.000Z</time>
      </trkpt>
      <trkpt lat="43.33576" lon="5.6777">
        <ele>444</ele>
        <time>2019-01-18T09:53:29.000Z</time>
      </trkpt>
      <trkpt lat="43.33575" lon="5.6777">
        <ele>444</ele>
        <time>2019-01-18T09:53:30.000Z</time>
      </trkpt>
      <trkpt lat="43.33575" lon="5.6777">
        <ele>444</ele>
        <time>2019-01-18T09:53:31.000Z</time>
      </trkpt>
      <trkpt lat="43.33575" lon="5.67769">
        <ele>444</ele>
        <time>2019-01-18T09:53:32.000Z</time>
      </trkpt>
      <trkpt lat="43.33575" lon="5.67769">
        <ele>444</ele>
        <time>2019-01-18T09:53:33.000Z</time>
      </trkpt>
      <trkpt lat="43.33574" lon="5.67769">
        <ele>444</ele>
        <time>2019-01-18T09:53:34.000Z</time>
      </trkpt>
      <trkpt lat="43.33574" lon="5.67769">
        <ele>444</ele>
        <time>2019-01-18T09:53:35.000Z</time>
      </trkpt>
      <trkpt lat="43.33574" lon="5.67769">
        <ele>444</ele>
        <time>2019-01-18T09:53:36.000Z</time>
      </trkpt>
      <trkpt lat="43.33574" lon="5.67768">
        <ele>444</ele>
        <time>2019-01-18T09:53:37.000Z</time>
      </trkpt>
      <trkpt lat="43.33573" lon="5.67769">
        <ele>444</ele>
        <time>2019-01-18T09:53:38.000Z</time>
      </trkpt>
      <trkpt lat="43.33573" lon="5.67769">
        <ele>444</ele>
        <time>2019-01-18T09:53:39.000Z</time>
      </trkpt>
      <trkpt lat="43.33573" lon="5.67769">
        <ele>444</ele>
        <time>2019-01-18T09:53:40.000Z</time>
      </trkpt>
      <trkpt lat="43.33573" lon="5.67769">
        <ele>444</ele>
        <time>2019-01-18T09:53:41.000Z</time>
      </trkpt>
      <trkpt lat="43.33573" lon="5.67769">
        <ele>443</ele>
        <time>2019-01-18T09:53:42.000Z</time>
      </trkpt>
      <trkpt lat="43.33573" lon="5.67769">
        <ele>443</ele>
        <time>2019-01-18T09:53:43.000Z</time>
      </trkpt>
      <trkpt lat="43.33573" lon="5.67769">
        <ele>443</ele>
        <time>2019-01-18T09:53:44.000Z</time>
      </trkpt>
      <trkpt lat="43.33572" lon="5.67769">
        <ele>443</ele>
        <time>2019-01-18T09:53:45.000Z</time>
      </trkpt>
      <trkpt lat="43.33572" lon="5.67769">
        <ele>443</ele>
        <time>2019-01-18T09:53:46.000Z</time>
      </trkpt>
      <trkpt lat="43.33572" lon="5.67769">
        <ele>443</ele>
        <time>2019-01-18T09:53:47.000Z</time>
      </trkpt>
      <trkpt lat="43.33571" lon="5.67769">
        <ele>443</ele>
        <time>2019-01-18T09:53:48.000Z</time>
      </trkpt>
      <trkpt lat="43.33571" lon="5.67769">
        <ele>443</ele>
        <time>2019-01-18T09:53:49.000Z</time>
      </trkpt>
      <trkpt lat="43.33571" lon="5.67769">
        <ele>443</ele>
        <time>2019-01-18T09:53:50.000Z</time>
      </trkpt>
      <trkpt lat="43.33571" lon="5.67769">
        <ele>443</ele>
        <time>2019-01-18T09:53:51.000Z</time>
      </trkpt>
      <trkpt lat="43.33571" lon="5.67769">
        <ele>443</ele>
        <time>2019-01-18T09:53:52.000Z</time>
      </trkpt>
      <trkpt lat="43.33571" lon="5.67769">
        <ele>443</ele>
        <time>2019-01-18T09:53:53.000Z</time>
      </trkpt>
      <trkpt lat="43.3357" lon="5.67769">
        <ele>443</ele>
        <time>2019-01-18T09:53:54.000Z</time>
      </trkpt>
      <trkpt lat="43.3357" lon="5.67769">
        <ele>443</ele>
        <time>2019-01-18T09:53:55.000Z</time>
      </trkpt>
      <trkpt lat="43.33569" lon="5.67768">
        <ele>443</ele>
        <time>2019-01-18T09:53:56.000Z</time>
      </trkpt>
      <trkpt lat="43.33569" lon="5.67768">
        <ele>443</ele>
        <time>2019-01-18T09:53:57.000Z</time>
      </trkpt>
      <trkpt lat="43.33569" lon="5.67767">
        <ele>443</ele>
        <time>2019-01-18T09:53:58.000Z</time>
      </trkpt>
      <trkpt lat="43.33569" lon="5.67766">
        <ele>443</ele>
        <time>2019-01-18T09:53:59.000Z</time>
      </trkpt>
      <trkpt lat="43.33568" lon="5.67765">
        <ele>443</ele>
        <time>2019-01-18T09:54:00.000Z</time>
      </trkpt>
      <trkpt lat="43.33569" lon="5.67764">
        <ele>443</ele>
        <time>2019-01-18T09:54:01.000Z</time>
      </trkpt>
      <trkpt lat="43.33569" lon="5.67763">
        <ele>442</ele>
        <time>2019-01-18T09:54:02.000Z</time>
      </trkpt>
      <trkpt lat="43.33569" lon="5.67762">
        <ele>442</ele>
        <time>2019-01-18T09:54:03.000Z</time>
      </trkpt>
      <trkpt lat="43.33569" lon="5.67761">
        <ele>442</ele>
        <time>2019-01-18T09:54:04.000Z</time>
      </trkpt>
      <trkpt lat="43.33569" lon="5.67759">
        <ele>442</ele>
        <time>2019-01-18T09:54:05.000Z</time>
      </trkpt>
      <trkpt lat="43.3357" lon="5.67758">
        <ele>442</ele>
        <time>2019-01-18T09:54:06.000Z</time>
      </trkpt>
      <trkpt lat="43.3357" lon="5.67756">
        <ele>442</ele>
        <time>2019-01-18T09:54:07.000Z</time>
      </trkpt>
      <trkpt lat="43.3357" lon="5.67755">
        <ele>442</ele>
        <time>2019-01-18T09:54:08.000Z</time>
      </trkpt>
      <trkpt lat="43.33571" lon="5.67753">
        <ele>442</ele>
        <time>2019-01-18T09:54:09.000Z</time>
      </trkpt>
      <trkpt lat="43.33571" lon="5.67753">
        <ele>442</ele>
        <time>2019-01-18T09:54:10.000Z</time>
      </trkpt>
      <trkpt lat="43.33571" lon="5.67752">
        <ele>442</ele>
        <time>2019-01-18T09:54:11.000Z</time>
      </trkpt>
      <trkpt lat="43.33572" lon="5.67751">
        <ele>442</ele>
        <time>2019-01-18T09:54:12.000Z</time>
      </trkpt>
      <trkpt lat="43.33572" lon="5.6775">
        <ele>442</ele>
        <time>2019-01-18T09:54:13.000Z</time>
      </trkpt>
      <trkpt lat="43.33572" lon="5.67749">
        <ele>442</ele>
        <time>2019-01-18T09:54:14.000Z</time>
      </trkpt>
      <trkpt lat="43.33572" lon="5.67748">
        <ele>442</ele>
        <time>2019-01-18T09:54:15.000Z</time>
      </trkpt>
      <trkpt lat="43.33572" lon="5.67747">
        <ele>442</ele>
        <time>2019-01-18T09:54:16.000Z</time>
      </trkpt>
      <trkpt lat="43.33572" lon="5.67747">
        <ele>442</ele>
        <time>2019-01-18T09:54:17.000Z</time>
      </trkpt>
      <trkpt lat="43.33572" lon="5.67747">
        <ele>442</ele>
        <time>2019-01-18T09:54:18.000Z</time>
      </trkpt>
      <trkpt lat="43.33572" lon="5.67746">
        <ele>442</ele>
        <time>2019-01-18T09:54:19.000Z</time>
      </trkpt>
      <trkpt lat="43.33572" lon="5.67746">
        <ele>442</ele>
        <time>2019-01-18T09:54:20.000Z</time>
      </trkpt>
      <trkpt lat="43.33572" lon="5.67746">
        <ele>442</ele>
        <time>2019-01-18T09:54:21.000Z</time>
      </trkpt>
      <trkpt lat="43.33572" lon="5.67746">
        <ele>442</ele>
        <time>2019-01-18T09:54:22.000Z</time>
      </trkpt>
      <trkpt lat="43.33572" lon="5.67746">
        <ele>442</ele>
        <time>2019-01-18T09:54:23.000Z</time>
      </trkpt>
      <trkpt lat="43.33572" lon="5.67746">
        <ele>442</ele>
        <time>2019-01-18T09:54:24.000Z</time>
      </trkpt>
      <trkpt lat="43.33573" lon="5.67745">
        <ele>442</ele>
        <time>2019-01-18T09:54:25.000Z</time>
      </trkpt>
      <trkpt lat="43.33573" lon="5.67745">
        <ele>442</ele>
        <time>2019-01-18T09:54:26.000Z</time>
      </trkpt>
      <trkpt lat="43.33573" lon="5.67745">
        <ele>442</ele>
        <time>2019-01-18T09:54:27.000Z</time>
      </trkpt>
      <trkpt lat="43.33573" lon="5.67745">
        <ele>442</ele>
        <time>2019-01-18T09:54:28.000Z</time>
      </trkpt>
      <trkpt lat="43.33572" lon="5.67745">
        <ele>442</ele>
        <time>2019-01-18T09:54:29.000Z</time>
      </trkpt>
      <trkpt lat="43.33572" lon="5.67745">
        <ele>442</ele>
        <time>2019-01-18T09:54:30.000Z</time>
      </trkpt>
      <trkpt lat="43.33572" lon="5.67745">
        <ele>442</ele>
        <time>2019-01-18T09:54:31.000Z</time>
      </trkpt>
      <trkpt lat="43.33572" lon="5.67745">
        <ele>442</ele>
        <time>2019-01-18T09:54:32.000Z</time>
      </trkpt>
      <trkpt lat="43.33572" lon="5.67745">
        <ele>442</ele>
        <time>2019-01-18T09:54:33.000Z</time>
      </trkpt>
      <trkpt lat="43.33572" lon="5.67745">
        <ele>442</ele>
        <time>2019-01-18T09:54:34.000Z</time>
      </trkpt>
      <trkpt lat="43.33572" lon="5.67745">
        <ele>442</ele>
        <time>2019-01-18T09:54:35.000Z</time>
      </trkpt>
      <trkpt lat="43.33572" lon="5.67745">
        <ele>442</ele>
        <time>2019-01-18T09:54:36.000Z</time>
      </trkpt>
      <trkpt lat="43.33572" lon="5.67745">
        <ele>442</ele>
        <time>2019-01-18T09:54:37.000Z</time>
      </trkpt>
      <trkpt lat="43.33572" lon="5.67745">
        <ele>442</ele>
        <time>2019-01-18T09:54:38.000Z</time>
      </trkpt>
      <trkpt lat="43.33572" lon="5.67744">
        <ele>442</ele>
        <time>2019-01-18T09:54:39.000Z</time>
      </trkpt>
      <trkpt lat="43.33572" lon="5.67744">
        <ele>442</ele>
        <time>2019-01-18T09:54:40.000Z</time>
      </trkpt>
      <trkpt lat="43.33572" lon="5.67744">
        <ele>442</ele>
        <time>2019-01-18T09:54:41.000Z</time>
      </trkpt>
      <trkpt lat="43.33572" lon="5.67744">
        <ele>442</ele>
        <time>2019-01-18T09:54:42.000Z</time>
      </trkpt>
      <trkpt lat="43.33572" lon="5.67744">
        <ele>442</ele>
        <time>2019-01-18T09:54:43.000Z</time>
      </trkpt>
      <trkpt lat="43.33572" lon="5.67744">
        <ele>442</ele>
        <time>2019-01-18T09:54:44.000Z</time>
      </trkpt>
      <trkpt lat="43.33572" lon="5.67744">
        <ele>442</ele>
        <time>2019-01-18T09:54:45.000Z</time>
      </trkpt>
      <trkpt lat="43.33572" lon="5.67744">
        <ele>442</ele>
        <time>2019-01-18T09:54:46.000Z</time>
      </trkpt>
      <trkpt lat="43.33572" lon="5.67744">
        <ele>442</ele>
        <time>2019-01-18T09:54:47.000Z</time>
      </trkpt>
      <trkpt lat="43.33572" lon="5.67744">
        <ele>442</ele>
        <time>2019-01-18T09:54:48.000Z</time>
      </trkpt>
      <trkpt lat="43.33572" lon="5.67744">
        <ele>442</ele>
        <time>2019-01-18T09:54:49.000Z</time>
      </trkpt>
      <trkpt lat="43.33572" lon="5.67744">
        <ele>442</ele>
        <time>2019-01-18T09:54:50.000Z</time>
      </trkpt>
      <trkpt lat="43.33572" lon="5.67744">
        <ele>442</ele>
        <time>2019-01-18T09:54:51.000Z</time>
      </trkpt>
      <trkpt lat="43.33572" lon="5.67745">
        <ele>442</ele>
        <time>2019-01-18T09:54:52.000Z</time>
      </trkpt>
      <trkpt lat="43.33571" lon="5.67745">
        <ele>442</ele>
        <time>2019-01-18T09:54:53.000Z</time>
      </trkpt>
      <trkpt lat="43.33571" lon="5.67746">
        <ele>442</ele>
        <time>2019-01-18T09:54:54.000Z</time>
      </trkpt>
      <trkpt lat="43.33571" lon="5.67746">
        <ele>441</ele>
        <time>2019-01-18T09:54:55.000Z</time>
      </trkpt>
      <trkpt lat="43.33571" lon="5.67746">
        <ele>441</ele>
        <time>2019-01-18T09:54:56.000Z</time>
      </trkpt>
      <trkpt lat="43.33571" lon="5.67746">
        <ele>441</ele>
        <time>2019-01-18T09:54:57.000Z</time>
      </trkpt>
      <trkpt lat="43.33571" lon="5.67746">
        <ele>441</ele>
        <time>2019-01-18T09:54:58.000Z</time>
      </trkpt>
      <trkpt lat="43.33571" lon="5.67746">
        <ele>441</ele>
        <time>2019-01-18T09:54:59.000Z</time>
      </trkpt>
      <trkpt lat="43.33571" lon="5.67746">
        <ele>441</ele>
        <time>2019-01-18T09:55:00.000Z</time>
      </trkpt>
      <trkpt lat="43.33571" lon="5.67746">
        <ele>441</ele>
        <time>2019-01-18T09:55:01.000Z</time>
      </trkpt>
      <trkpt lat="43.33571" lon="5.67746">
        <ele>441</ele>
        <time>2019-01-18T09:55:02.000Z</time>
      </trkpt>
      <trkpt lat="43.33572" lon="5.67747">
        <ele>441</ele>
        <time>2019-01-18T09:55:03.000Z</time>
      </trkpt>
      <trkpt lat="43.33572" lon="5.67747">
        <ele>441</ele>
        <time>2019-01-18T09:55:04.000Z</time>
      </trkpt>
      <trkpt lat="43.33572" lon="5.67748">
        <ele>441</ele>
        <time>2019-01-18T09:55:05.000Z</time>
      </trkpt>
      <trkpt lat="43.33572" lon="5.67749">
        <ele>441</ele>
        <time>2019-01-18T09:55:06.000Z</time>
      </trkpt>
      <trkpt lat="43.33572" lon="5.6775">
        <ele>441</ele>
        <time>2019-01-18T09:55:07.000Z</time>
      </trkpt>
      <trkpt lat="43.33572" lon="5.67751">
        <ele>441</ele>
        <time>2019-01-18T09:55:08.000Z</time>
      </trkpt>
      <trkpt lat="43.33571" lon="5.67752">
        <ele>441</ele>
        <time>2019-01-18T09:55:09.000Z</time>
      </trkpt>
      <trkpt lat="43.33571" lon="5.67753">
        <ele>441</ele>
        <time>2019-01-18T09:55:10.000Z</time>
      </trkpt>
      <trkpt lat="43.33571" lon="5.67754">
        <ele>441</ele>
        <time>2019-01-18T09:55:11.000Z</time>
      </trkpt>
      <trkpt lat="43.33571" lon="5.67755">
        <ele>441</ele>
        <time>2019-01-18T09:55:12.000Z</time>
      </trkpt>
      <trkpt lat="43.3357" lon="5.67756">
        <ele>441</ele>
        <time>2019-01-18T09:55:13.000Z</time>
      </trkpt>
      <trkpt lat="43.3357" lon="5.67757">
        <ele>441</ele>
        <time>2019-01-18T09:55:14.000Z</time>
      </trkpt>
      <trkpt lat="43.33569" lon="5.67759">
        <ele>441</ele>
        <time>2019-01-18T09:55:15.000Z</time>
      </trkpt>
      <trkpt lat="43.33569" lon="5.6776">
        <ele>441</ele>
        <time>2019-01-18T09:55:16.000Z</time>
      </trkpt>
      <trkpt lat="43.33569" lon="5.67761">
        <ele>441</ele>
        <time>2019-01-18T09:55:17.000Z</time>
      </trkpt>
      <trkpt lat="43.33569" lon="5.67762">
        <ele>441</ele>
        <time>2019-01-18T09:55:18.000Z</time>
      </trkpt>
      <trkpt lat="43.33569" lon="5.67763">
        <ele>441</ele>
        <time>2019-01-18T09:55:19.000Z</time>
      </trkpt>
      <trkpt lat="43.33569" lon="5.67764">
        <ele>441</ele>
        <time>2019-01-18T09:55:20.000Z</time>
      </trkpt>
      <trkpt lat="43.33569" lon="5.67764">
        <ele>441</ele>
        <time>2019-01-18T09:55:21.000Z</time>
      </trkpt>
      <trkpt lat="43.33569" lon="5.67765">
        <ele>440</ele>
        <time>2019-01-18T09:55:22.000Z</time>
      </trkpt>
      <trkpt lat="43.33568" lon="5.67766">
        <ele>440</ele>
        <time>2019-01-18T09:55:23.000Z</time>
      </trkpt>
      <trkpt lat="43.33568" lon="5.67766">
        <ele>440</ele>
        <time>2019-01-18T09:55:24.000Z</time>
      </trkpt>
      <trkpt lat="43.33568" lon="5.67767">
        <ele>440</ele>
        <time>2019-01-18T09:55:25.000Z</time>
      </trkpt>
      <trkpt lat="43.33568" lon="5.67768">
        <ele>440</ele>
        <time>2019-01-18T09:55:26.000Z</time>
      </trkpt>
      <trkpt lat="43.33568" lon="5.67768">
        <ele>440</ele>
        <time>2019-01-18T09:55:27.000Z</time>
      </trkpt>
      <trkpt lat="43.33568" lon="5.67768">
        <ele>440</ele>
        <time>2019-01-18T09:55:28.000Z</time>
      </trkpt>
      <trkpt lat="43.33568" lon="5.67768">
        <ele>440</ele>
        <time>2019-01-18T09:55:29.000Z</time>
      </trkpt>
      <trkpt lat="43.33568" lon="5.67769">
        <ele>440</ele>
        <time>2019-01-18T09:55:30.000Z</time>
      </trkpt>
      <trkpt lat="43.33568" lon="5.67769">
        <ele>440</ele>
        <time>2019-01-18T09:55:31.000Z</time>
      </trkpt>
      <trkpt lat="43.33568" lon="5.67769">
        <ele>440</ele>
        <time>2019-01-18T09:55:32.000Z</time>
      </trkpt>
      <trkpt lat="43.33568" lon="5.67769">
        <ele>440</ele>
        <time>2019-01-18T09:55:33.000Z</time>
      </trkpt>
      <trkpt lat="43.33568" lon="5.6777">
        <ele>440</ele>
        <time>2019-01-18T09:55:34.000Z</time>
      </trkpt>
      <trkpt lat="43.33568" lon="5.6777">
        <ele>441</ele>
        <time>2019-01-18T09:55:35.000Z</time>
      </trkpt>
      <trkpt lat="43.33568" lon="5.6777">
        <ele>441</ele>
        <time>2019-01-18T09:55:36.000Z</time>
      </trkpt>
      <trkpt lat="43.33568" lon="5.67771">
        <ele>441</ele>
        <time>2019-01-18T09:55:37.000Z</time>
      </trkpt>
      <trkpt lat="43.33569" lon="5.67771">
        <ele>441</ele>
        <time>2019-01-18T09:55:38.000Z</time>
      </trkpt>
      <trkpt lat="43.33569" lon="5.67771">
        <ele>441</ele>
        <time>2019-01-18T09:55:39.000Z</time>
      </trkpt>
      <trkpt lat="43.33569" lon="5.67771">
        <ele>441</ele>
        <time>2019-01-18T09:55:40.000Z</time>
      </trkpt>
      <trkpt lat="43.33569" lon="5.67772">
        <ele>441</ele>
        <time>2019-01-18T09:55:41.000Z</time>
      </trkpt>
      <trkpt lat="43.33569" lon="5.67772">
        <ele>441</ele>
        <time>2019-01-18T09:55:42.000Z</time>
      </trkpt>
      <trkpt lat="43.33569" lon="5.67772">
        <ele>441</ele>
        <time>2019-01-18T09:55:43.000Z</time>
      </trkpt>
      <trkpt lat="43.33569" lon="5.67772">
        <ele>441</ele>
        <time>2019-01-18T09:55:44.000Z</time>
      </trkpt>
      <trkpt lat="43.33569" lon="5.67772">
        <ele>441</ele>
        <time>2019-01-18T09:55:45.000Z</time>
      </trkpt>
      <trkpt lat="43.33569" lon="5.67772">
        <ele>441</ele>
        <time>2019-01-18T09:55:46.000Z</time>
      </trkpt>
      <trkpt lat="43.33569" lon="5.67773">
        <ele>441</ele>
        <time>2019-01-18T09:55:47.000Z</time>
      </trkpt>
      <trkpt lat="43.33569" lon="5.67774">
        <ele>441</ele>
        <time>2019-01-18T09:55:48.000Z</time>
      </trkpt>
      <trkpt lat="43.33569" lon="5.67774">
        <ele>441</ele>
        <time>2019-01-18T09:55:49.000Z</time>
      </trkpt>
      <trkpt lat="43.33569" lon="5.67775">
        <ele>441</ele>
        <time>2019-01-18T09:55:50.000Z</time>
      </trkpt>
      <trkpt lat="43.33569" lon="5.67776">
        <ele>441</ele>
        <time>2019-01-18T09:55:51.000Z</time>
      </trkpt>
      <trkpt lat="43.33569" lon="5.67777">
        <ele>441</ele>
        <time>2019-01-18T09:55:52.000Z</time>
      </trkpt>
      <trkpt lat="43.33569" lon="5.67777">
        <ele>441</ele>
        <time>2019-01-18T09:55:53.000Z</time>
      </trkpt>
      <trkpt lat="43.33569" lon="5.67778">
        <ele>441</ele>
        <time>2019-01-18T09:55:54.000Z</time>
      </trkpt>
      <trkpt lat="43.33569" lon="5.67779">
        <ele>441</ele>
        <time>2019-01-18T09:55:55.000Z</time>
      </trkpt>
      <trkpt lat="43.33569" lon="5.6778">
        <ele>441</ele>
        <time>2019-01-18T09:55:56.000Z</time>
      </trkpt>
      <trkpt lat="43.33569" lon="5.67781">
        <ele>441</ele>
        <time>2019-01-18T09:55:57.000Z</time>
      </trkpt>
      <trkpt lat="43.3357" lon="5.67782">
        <ele>441</ele>
        <time>2019-01-18T09:55:58.000Z</time>
      </trkpt>
      <trkpt lat="43.33569" lon="5.67783">
        <ele>441</ele>
        <time>2019-01-18T09:55:59.000Z</time>
      </trkpt>
      <trkpt lat="43.33569" lon="5.67783">
        <ele>441</ele>
        <time>2019-01-18T09:56:00.000Z</time>
      </trkpt>
      <trkpt lat="43.33569" lon="5.67783">
        <ele>441</ele>
        <time>2019-01-18T09:56:01.000Z</time>
      </trkpt>
      <trkpt lat="43.33569" lon="5.67783">
        <ele>441</ele>
        <time>2019-01-18T09:56:02.000Z</time>
      </trkpt>
      <trkpt lat="43.33569" lon="5.67782">
        <ele>441</ele>
        <time>2019-01-18T09:56:03.000Z</time>
      </trkpt>
      <trkpt lat="43.33569" lon="5.67781">
        <ele>441</ele>
        <time>2019-01-18T09:56:04.000Z</time>
      </trkpt>
      <trkpt lat="43.33569" lon="5.6778">
        <ele>441</ele>
        <time>2019-01-18T09:56:05.000Z</time>
      </trkpt>
      <trkpt lat="43.3357" lon="5.6778">
        <ele>441</ele>
        <time>2019-01-18T09:56:06.000Z</time>
      </trkpt>
      <trkpt lat="43.3357" lon="5.6778">
        <ele>441</ele>
        <time>2019-01-18T09:56:07.000Z</time>
      </trkpt>
      <trkpt lat="43.3357" lon="5.6778">
        <ele>441</ele>
        <time>2019-01-18T09:56:08.000Z</time>
      </trkpt>
      <trkpt lat="43.3357" lon="5.6778">
        <ele>441</ele>
        <time>2019-01-18T09:56:09.000Z</time>
      </trkpt>
      <trkpt lat="43.3357" lon="5.6778">
        <ele>441</ele>
        <time>2019-01-18T09:56:10.000Z</time>
      </trkpt>
      <trkpt lat="43.3357" lon="5.6778">
        <ele>441</ele>
        <time>2019-01-18T09:56:11.000Z</time>
      </trkpt>
      <trkpt lat="43.3357" lon="5.67781">
        <ele>441</ele>
        <time>2019-01-18T09:56:12.000Z</time>
      </trkpt>
      <trkpt lat="43.3357" lon="5.67782">
        <ele>441</ele>
        <time>2019-01-18T09:56:13.000Z</time>
      </trkpt>
      <trkpt lat="43.33571" lon="5.67782">
        <ele>441</ele>
        <time>2019-01-18T09:56:14.000Z</time>
      </trkpt>
      <trkpt lat="43.33571" lon="5.67783">
        <ele>441</ele>
        <time>2019-01-18T09:56:15.000Z</time>
      </trkpt>
      <trkpt lat="43.33571" lon="5.67784">
        <ele>441</ele>
        <time>2019-01-18T09:56:16.000Z</time>
      </trkpt>
      <trkpt lat="43.33571" lon="5.67785">
        <ele>441</ele>
        <time>2019-01-18T09:56:17.000Z</time>
      </trkpt>
      <trkpt lat="43.33571" lon="5.67786">
        <ele>441</ele>
        <time>2019-01-18T09:56:18.000Z</time>
      </trkpt>
      <trkpt lat="43.33571" lon="5.67786">
        <ele>441</ele>
        <time>2019-01-18T09:56:19.000Z</time>
      </trkpt>
      <trkpt lat="43.33571" lon="5.67786">
        <ele>441</ele>
        <time>2019-01-18T09:56:20.000Z</time>
      </trkpt>
      <trkpt lat="43.33571" lon="5.67787">
        <ele>441</ele>
        <time>2019-01-18T09:56:21.000Z</time>
      </trkpt>
      <trkpt lat="43.33571" lon="5.67788">
        <ele>441</ele>
        <time>2019-01-18T09:56:22.000Z</time>
      </trkpt>
      <trkpt lat="43.33571" lon="5.67788">
        <ele>441</ele>
        <time>2019-01-18T09:56:23.000Z</time>
      </trkpt>
      <trkpt lat="43.33571" lon="5.67789">
        <ele>442</ele>
        <time>2019-01-18T09:56:24.000Z</time>
      </trkpt>
      <trkpt lat="43.33571" lon="5.6779">
        <ele>442</ele>
        <time>2019-01-18T09:56:25.000Z</time>
      </trkpt>
      <trkpt lat="43.33571" lon="5.6779">
        <ele>442</ele>
        <time>2019-01-18T09:56:26.000Z</time>
      </trkpt>
      <trkpt lat="43.33571" lon="5.6779">
        <ele>442</ele>
        <time>2019-01-18T09:56:27.000Z</time>
      </trkpt>
      <trkpt lat="43.3357" lon="5.67791">
        <ele>442</ele>
        <time>2019-01-18T09:56:28.000Z</time>
      </trkpt>
      <trkpt lat="43.3357" lon="5.67793">
        <ele>442</ele>
        <time>2019-01-18T09:56:29.000Z</time>
      </trkpt>
      <trkpt lat="43.3357" lon="5.67793">
        <ele>442</ele>
        <time>2019-01-18T09:56:30.000Z</time>
      </trkpt>
      <trkpt lat="43.3357" lon="5.67794">
        <ele>442</ele>
        <time>2019-01-18T09:56:31.000Z</time>
      </trkpt>
      <trkpt lat="43.33569" lon="5.67794">
        <ele>442</ele>
        <time>2019-01-18T09:56:32.000Z</time>
      </trkpt>
      <trkpt lat="43.33569" lon="5.67795">
        <ele>442</ele>
        <time>2019-01-18T09:56:33.000Z</time>
      </trkpt>
      <trkpt lat="43.33569" lon="5.67795">
        <ele>442</ele>
        <time>2019-01-18T09:56:34.000Z</time>
      </trkpt>
      <trkpt lat="43.33569" lon="5.67795">
        <ele>442</ele>
        <time>2019-01-18T09:56:35.000Z</time>
      </trkpt>
      <trkpt lat="43.33569" lon="5.67795">
        <ele>442</ele>
        <time>2019-01-18T09:56:36.000Z</time>
      </trkpt>
      <trkpt lat="43.33569" lon="5.67795">
        <ele>442</ele>
        <time>2019-01-18T09:56:37.000Z</time>
      </trkpt>
      <trkpt lat="43.33569" lon="5.67795">
        <ele>442</ele>
        <time>2019-01-18T09:56:38.000Z</time>
      </trkpt>
      <trkpt lat="43.33569" lon="5.67796">
        <ele>442</ele>
        <time>2019-01-18T09:56:39.000Z</time>
      </trkpt>
      <trkpt lat="43.33569" lon="5.67796">
        <ele>442</ele>
        <time>2019-01-18T09:56:40.000Z</time>
      </trkpt>
      <trkpt lat="43.33569" lon="5.67797">
        <ele>442</ele>
        <time>2019-01-18T09:56:41.000Z</time>
      </trkpt>
      <trkpt lat="43.33569" lon="5.67797">
        <ele>442</ele>
        <time>2019-01-18T09:56:42.000Z</time>
      </trkpt>
      <trkpt lat="43.33569" lon="5.67797">
        <ele>442</ele>
        <time>2019-01-18T09:56:43.000Z</time>
      </trkpt>
      <trkpt lat="43.33569" lon="5.67798">
        <ele>442</ele>
        <time>2019-01-18T09:56:44.000Z</time>
      </trkpt>
      <trkpt lat="43.33569" lon="5.67799">
        <ele>442</ele>
        <time>2019-01-18T09:56:45.000Z</time>
      </trkpt>
      <trkpt lat="43.33569" lon="5.678">
        <ele>442</ele>
        <time>2019-01-18T09:56:46.000Z</time>
      </trkpt>
      <trkpt lat="43.33569" lon="5.67801">
        <ele>442</ele>
        <time>2019-01-18T09:56:47.000Z</time>
      </trkpt>
      <trkpt lat="43.33569" lon="5.67802">
        <ele>442</ele>
        <time>2019-01-18T09:56:48.000Z</time>
      </trkpt>
      <trkpt lat="43.33569" lon="5.67804">
        <ele>442</ele>
        <time>2019-01-18T09:56:49.000Z</time>
      </trkpt>
      <trkpt lat="43.33569" lon="5.67805">
        <ele>442</ele>
        <time>2019-01-18T09:56:50.000Z</time>
      </trkpt>
      <trkpt lat="43.33569" lon="5.67806">
        <ele>442</ele>
        <time>2019-01-18T09:56:51.000Z</time>
      </trkpt>
      <trkpt lat="43.33568" lon="5.67807">
        <ele>442</ele>
        <time>2019-01-18T09:56:52.000Z</time>
      </trkpt>
      <trkpt lat="43.33568" lon="5.67807">
        <ele>442</ele>
        <time>2019-01-18T09:56:53.000Z</time>
      </trkpt>
      <trkpt lat="43.33568" lon="5.67808">
        <ele>441</ele>
        <time>2019-01-18T09:56:54.000Z</time>
      </trkpt>
      <trkpt lat="43.33568" lon="5.67808">
        <ele>441</ele>
        <time>2019-01-18T09:56:55.000Z</time>
      </trkpt>
      <trkpt lat="43.33568" lon="5.67809">
        <ele>441</ele>
        <time>2019-01-18T09:56:56.000Z</time>
      </trkpt>
      <trkpt lat="43.33568" lon="5.6781">
        <ele>441</ele>
        <time>2019-01-18T09:56:57.000Z</time>
      </trkpt>
      <trkpt lat="43.33568" lon="5.6781">
        <ele>441</ele>
        <time>2019-01-18T09:56:58.000Z</time>
      </trkpt>
      <trkpt lat="43.33568" lon="5.6781">
        <ele>441</ele>
        <time>2019-01-18T09:56:59.000Z</time>
      </trkpt>
      <trkpt lat="43.33567" lon="5.6781">
        <ele>441</ele>
        <time>2019-01-18T09:57:00.000Z</time>
      </trkpt>
      <trkpt lat="43.33567" lon="5.6781">
        <ele>441</ele>
        <time>2019-01-18T09:57:01.000Z</time>
      </trkpt>
      <trkpt lat="43.33567" lon="5.6781">
        <ele>441</ele>
        <time>2019-01-18T09:57:02.000Z</time>
      </trkpt>
      <trkpt lat="43.33567" lon="5.67811">
        <ele>441</ele>
        <time>2019-01-18T09:57:03.000Z</time>
      </trkpt>
      <trkpt lat="43.33567" lon="5.67811">
        <ele>441</ele>
        <time>2019-01-18T09:57:04.000Z</time>
      </trkpt>
      <trkpt lat="43.33567" lon="5.67811">
        <ele>441</ele>
        <time>2019-01-18T09:57:05.000Z</time>
      </trkpt>
      <trkpt lat="43.33566" lon="5.67811">
        <ele>441</ele>
        <time>2019-01-18T09:57:06.000Z</time>
      </trkpt>
      <trkpt lat="43.33565" lon="5.67811">
        <ele>441</ele>
        <time>2019-01-18T09:57:07.000Z</time>
      </trkpt>
      <trkpt lat="43.33565" lon="5.67812">
        <ele>441</ele>
        <time>2019-01-18T09:57:08.000Z</time>
      </trkpt>
      <trkpt lat="43.33564" lon="5.67813">
        <ele>441</ele>
        <time>2019-01-18T09:57:09.000Z</time>
      </trkpt>
      <trkpt lat="43.33563" lon="5.67813">
        <ele>441</ele>
        <time>2019-01-18T09:57:10.000Z</time>
      </trkpt>
      <trkpt lat="43.33563" lon="5.67814">
        <ele>441</ele>
        <time>2019-01-18T09:57:11.000Z</time>
      </trkpt>
      <trkpt lat="43.33563" lon="5.67815">
        <ele>441</ele>
        <time>2019-01-18T09:57:12.000Z</time>
      </trkpt>
      <trkpt lat="43.33562" lon="5.67816">
        <ele>441</ele>
        <time>2019-01-18T09:57:13.000Z</time>
      </trkpt>
      <trkpt lat="43.33561" lon="5.67817">
        <ele>441</ele>
        <time>2019-01-18T09:57:14.000Z</time>
      </trkpt>
      <trkpt lat="43.33561" lon="5.67817">
        <ele>441</ele>
        <time>2019-01-18T09:57:15.000Z</time>
      </trkpt>
      <trkpt lat="43.33561" lon="5.67817">
        <ele>441</ele>
        <time>2019-01-18T09:57:16.000Z</time>
      </trkpt>
      <trkpt lat="43.33561" lon="5.67818">
        <ele>441</ele>
        <time>2019-01-18T09:57:17.000Z</time>
      </trkpt>
      <trkpt lat="43.33561" lon="5.67818">
        <ele>441</ele>
        <time>2019-01-18T09:57:18.000Z</time>
      </trkpt>
      <trkpt lat="43.33561" lon="5.67818">
        <ele>441</ele>
        <time>2019-01-18T09:57:19.000Z</time>
      </trkpt>
      <trkpt lat="43.3356" lon="5.67818">
        <ele>441</ele>
        <time>2019-01-18T09:57:20.000Z</time>
      </trkpt>
      <trkpt lat="43.3356" lon="5.67818">
        <ele>441</ele>
        <time>2019-01-18T09:57:21.000Z</time>
      </trkpt>
      <trkpt lat="43.3356" lon="5.67818">
        <ele>441</ele>
        <time>2019-01-18T09:57:22.000Z</time>
      </trkpt>
      <trkpt lat="43.3356" lon="5.67818">
        <ele>441</ele>
        <time>2019-01-18T09:57:23.000Z</time>
      </trkpt>
      <trkpt lat="43.3356" lon="5.67818">
        <ele>441</ele>
        <time>2019-01-18T09:57:24.000Z</time>
      </trkpt>
      <trkpt lat="43.3356" lon="5.67818">
        <ele>441</ele>
        <time>2019-01-18T09:57:25.000Z</time>
      </trkpt>
      <trkpt lat="43.3356" lon="5.67818">
        <ele>441</ele>
        <time>2019-01-18T09:57:26.000Z</time>
      </trkpt>
      <trkpt lat="43.3356" lon="5.67819">
        <ele>441</ele>
        <time>2019-01-18T09:57:27.000Z</time>
      </trkpt>
      <trkpt lat="43.33559" lon="5.67819">
        <ele>441</ele>
        <time>2019-01-18T09:57:28.000Z</time>
      </trkpt>
      <trkpt lat="43.33559" lon="5.6782">
        <ele>441</ele>
        <time>2019-01-18T09:57:29.000Z</time>
      </trkpt>
      <trkpt lat="43.33559" lon="5.6782">
        <ele>441</ele>
        <time>2019-01-18T09:57:30.000Z</time>
      </trkpt>
      <trkpt lat="43.33559" lon="5.6782">
        <ele>441</ele>
        <time>2019-01-18T09:57:31.000Z</time>
      </trkpt>
      <trkpt lat="43.33559" lon="5.67819">
        <ele>441</ele>
        <time>2019-01-18T09:57:32.000Z</time>
      </trkpt>
      <trkpt lat="43.33559" lon="5.6782">
        <ele>441</ele>
        <time>2019-01-18T09:57:33.000Z</time>
      </trkpt>
      <trkpt lat="43.33559" lon="5.6782">
        <ele>441</ele>
        <time>2019-01-18T09:57:34.000Z</time>
      </trkpt>
      <trkpt lat="43.33559" lon="5.6782">
        <ele>441</ele>
        <time>2019-01-18T09:57:35.000Z</time>
      </trkpt>
      <trkpt lat="43.33559" lon="5.6782">
        <ele>441</ele>
        <time>2019-01-18T09:57:36.000Z</time>
      </trkpt>
      <trkpt lat="43.33559" lon="5.67819">
        <ele>441</ele>
        <time>2019-01-18T09:57:37.000Z</time>
      </trkpt>
      <trkpt lat="43.33558" lon="5.67819">
        <ele>441</ele>
        <time>2019-01-18T09:57:38.000Z</time>
      </trkpt>
      <trkpt lat="43.33558" lon="5.67819">
        <ele>441</ele>
        <time>2019-01-18T09:57:39.000Z</time>
      </trkpt>
      <trkpt lat="43.33558" lon="5.67819">
        <ele>441</ele>
        <time>2019-01-18T09:57:40.000Z</time>
      </trkpt>
      <trkpt lat="43.33558" lon="5.67819">
        <ele>441</ele>
        <time>2019-01-18T09:57:41.000Z</time>
      </trkpt>
      <trkpt lat="43.33558" lon="5.67819">
        <ele>441</ele>
        <time>2019-01-18T09:57:42.000Z</time>
      </trkpt>
      <trkpt lat="43.33558" lon="5.67819">
        <ele>441</ele>
        <time>2019-01-18T09:57:43.000Z</time>
      </trkpt>
      <trkpt lat="43.33558" lon="5.67819">
        <ele>441</ele>
        <time>2019-01-18T09:57:44.000Z</time>
      </trkpt>
      <trkpt lat="43.33557" lon="5.67818">
        <ele>441</ele>
        <time>2019-01-18T09:57:45.000Z</time>
      </trkpt>
      <trkpt lat="43.33557" lon="5.67818">
        <ele>441</ele>
        <time>2019-01-18T09:57:46.000Z</time>
      </trkpt>
      <trkpt lat="43.33557" lon="5.67818">
        <ele>441</ele>
        <time>2019-01-18T09:57:47.000Z</time>
      </trkpt>
      <trkpt lat="43.33557" lon="5.67818">
        <ele>441</ele>
        <time>2019-01-18T09:57:48.000Z</time>
      </trkpt>
      <trkpt lat="43.33557" lon="5.67818">
        <ele>441</ele>
        <time>2019-01-18T09:57:49.000Z</time>
      </trkpt>
      <trkpt lat="43.33557" lon="5.67818">
        <ele>441</ele>
        <time>2019-01-18T09:57:50.000Z</time>
      </trkpt>
      <trkpt lat="43.33557" lon="5.67818">
        <ele>441</ele>
        <time>2019-01-18T09:57:51.000Z</time>
      </trkpt>
      <trkpt lat="43.33557" lon="5.67818">
        <ele>441</ele>
        <time>2019-01-18T09:57:52.000Z</time>
      </trkpt>
      <trkpt lat="43.33557" lon="5.67818">
        <ele>441</ele>
        <time>2019-01-18T09:57:53.000Z</time>
      </trkpt>
      <trkpt lat="43.33557" lon="5.67818">
        <ele>441</ele>
        <time>2019-01-18T09:57:54.000Z</time>
      </trkpt>
      <trkpt lat="43.33557" lon="5.67818">
        <ele>441</ele>
        <time>2019-01-18T09:57:55.000Z</time>
      </trkpt>
      <trkpt lat="43.33557" lon="5.67818">
        <ele>441</ele>
        <time>2019-01-18T09:57:56.000Z</time>
      </trkpt>
      <trkpt lat="43.33557" lon="5.67818">
        <ele>441</ele>
        <time>2019-01-18T09:57:57.000Z</time>
      </trkpt>
      <trkpt lat="43.33557" lon="5.67818">
        <ele>441</ele>
        <time>2019-01-18T09:57:58.000Z</time>
      </trkpt>
      <trkpt lat="43.33557" lon="5.67818">
        <ele>441</ele>
        <time>2019-01-18T09:57:59.000Z</time>
      </trkpt>
      <trkpt lat="43.33556" lon="5.67818">
        <ele>441</ele>
        <time>2019-01-18T09:58:00.000Z</time>
      </trkpt>
      <trkpt lat="43.33556" lon="5.67818">
        <ele>441</ele>
        <time>2019-01-18T09:58:01.000Z</time>
      </trkpt>
      <trkpt lat="43.33556" lon="5.67818">
        <ele>441</ele>
        <time>2019-01-18T09:58:02.000Z</time>
      </trkpt>
      <trkpt lat="43.33556" lon="5.67818">
        <ele>441</ele>
        <time>2019-01-18T09:58:03.000Z</time>
      </trkpt>
      <trkpt lat="43.33556" lon="5.67818">
        <ele>441</ele>
        <time>2019-01-18T09:58:04.000Z</time>
      </trkpt>
      <trkpt lat="43.33556" lon="5.67818">
        <ele>441</ele>
        <time>2019-01-18T09:58:05.000Z</time>
      </trkpt>
      <trkpt lat="43.33556" lon="5.67817">
        <ele>441</ele>
        <time>2019-01-18T09:58:06.000Z</time>
      </trkpt>
      <trkpt lat="43.33555" lon="5.67817">
        <ele>441</ele>
        <time>2019-01-18T09:58:07.000Z</time>
      </trkpt>
      <trkpt lat="43.33555" lon="5.67817">
        <ele>441</ele>
        <time>2019-01-18T09:58:08.000Z</time>
      </trkpt>
      <trkpt lat="43.33555" lon="5.67817">
        <ele>441</ele>
        <time>2019-01-18T09:58:09.000Z</time>
      </trkpt>
      <trkpt lat="43.33554" lon="5.67817">
        <ele>441</ele>
        <time>2019-01-18T09:58:10.000Z</time>
      </trkpt>
      <trkpt lat="43.33554" lon="5.67817">
        <ele>441</ele>
        <time>2019-01-18T09:58:11.000Z</time>
      </trkpt>
      <trkpt lat="43.33553" lon="5.67817">
        <ele>441</ele>
        <time>2019-01-18T09:58:12.000Z</time>
      </trkpt>
      <trkpt lat="43.33553" lon="5.67817">
        <ele>441</ele>
        <time>2019-01-18T09:58:13.000Z</time>
      </trkpt>
      <trkpt lat="43.33552" lon="5.67816">
        <ele>441</ele>
        <time>2019-01-18T09:58:14.000Z</time>
      </trkpt>
      <trkpt lat="43.33552" lon="5.67816">
        <ele>441</ele>
        <time>2019-01-18T09:58:15.000Z</time>
      </trkpt>
      <trkpt lat="43.33552" lon="5.67816">
        <ele>441</ele>
        <time>2019-01-18T09:58:16.000Z</time>
      </trkpt>
      <trkpt lat="43.33552" lon="5.67816">
        <ele>441</ele>
        <time>2019-01-18T09:58:17.000Z</time>
      </trkpt>
      <trkpt lat="43.33552" lon="5.67816">
        <ele>441</ele>
        <time>2019-01-18T09:58:18.000Z</time>
      </trkpt>
      <trkpt lat="43.33552" lon="5.67816">
        <ele>441</ele>
        <time>2019-01-18T09:58:19.000Z</time>
      </trkpt>
      <trkpt lat="43.33551" lon="5.67816">
        <ele>441</ele>
        <time>2019-01-18T09:58:20.000Z</time>
      </trkpt>
      <trkpt lat="43.33551" lon="5.67816">
        <ele>441</ele>
        <time>2019-01-18T09:58:21.000Z</time>
      </trkpt>
      <trkpt lat="43.33551" lon="5.67816">
        <ele>441</ele>
        <time>2019-01-18T09:58:22.000Z</time>
      </trkpt>
      <trkpt lat="43.3355" lon="5.67816">
        <ele>441</ele>
        <time>2019-01-18T09:58:23.000Z</time>
      </trkpt>
      <trkpt lat="43.3355" lon="5.67816">
        <ele>441</ele>
        <time>2019-01-18T09:58:24.000Z</time>
      </trkpt>
      <trkpt lat="43.3355" lon="5.67817">
        <ele>441</ele>
        <time>2019-01-18T09:58:25.000Z</time>
      </trkpt>
      <trkpt lat="43.3355" lon="5.67818">
        <ele>441</ele>
        <time>2019-01-18T09:58:26.000Z</time>
      </trkpt>
      <trkpt lat="43.3355" lon="5.67818">
        <ele>441</ele>
        <time>2019-01-18T09:58:27.000Z</time>
      </trkpt>
      <trkpt lat="43.3355" lon="5.67818">
        <ele>441</ele>
        <time>2019-01-18T09:58:28.000Z</time>
      </trkpt>
      <trkpt lat="43.3355" lon="5.67818">
        <ele>441</ele>
        <time>2019-01-18T09:58:29.000Z</time>
      </trkpt>
      <trkpt lat="43.3355" lon="5.67819">
        <ele>441</ele>
        <time>2019-01-18T09:58:30.000Z</time>
      </trkpt>
      <trkpt lat="43.33549" lon="5.6782">
        <ele>441</ele>
        <time>2019-01-18T09:58:31.000Z</time>
      </trkpt>
      <trkpt lat="43.33549" lon="5.6782">
        <ele>441</ele>
        <time>2019-01-18T09:58:32.000Z</time>
      </trkpt>
      <trkpt lat="43.33549" lon="5.6782">
        <ele>441</ele>
        <time>2019-01-18T09:58:33.000Z</time>
      </trkpt>
      <trkpt lat="43.33549" lon="5.67821">
        <ele>441</ele>
        <time>2019-01-18T09:58:34.000Z</time>
      </trkpt>
      <trkpt lat="43.33549" lon="5.67822">
        <ele>441</ele>
        <time>2019-01-18T09:58:35.000Z</time>
      </trkpt>
      <trkpt lat="43.33549" lon="5.67823">
        <ele>442</ele>
        <time>2019-01-18T09:58:36.000Z</time>
      </trkpt>
      <trkpt lat="43.33549" lon="5.67824">
        <ele>442</ele>
        <time>2019-01-18T09:58:37.000Z</time>
      </trkpt>
      <trkpt lat="43.33549" lon="5.67825">
        <ele>442</ele>
        <time>2019-01-18T09:58:38.000Z</time>
      </trkpt>
      <trkpt lat="43.33549" lon="5.67825">
        <ele>442</ele>
        <time>2019-01-18T09:58:39.000Z</time>
      </trkpt>
      <trkpt lat="43.33549" lon="5.67825">
        <ele>442</ele>
        <time>2019-01-18T09:58:40.000Z</time>
      </trkpt>
      <trkpt lat="43.33549" lon="5.67825">
        <ele>442</ele>
        <time>2019-01-18T09:58:41.000Z</time>
      </trkpt>
      <trkpt lat="43.33549" lon="5.67825">
        <ele>442</ele>
        <time>2019-01-18T09:58:42.000Z</time>
      </trkpt>
      <trkpt lat="43.33549" lon="5.67825">
        <ele>442</ele>
        <time>2019-01-18T09:58:43.000Z</time>
      </trkpt>
      <trkpt lat="43.33549" lon="5.67825">
        <ele>442</ele>
        <time>2019-01-18T09:58:44.000Z</time>
      </trkpt>
      <trkpt lat="43.33549" lon="5.67826">
        <ele>442</ele>
        <time>2019-01-18T09:58:45.000Z</time>
      </trkpt>
      <trkpt lat="43.33549" lon="5.67826">
        <ele>442</ele>
        <time>2019-01-18T09:58:46.000Z</time>
      </trkpt>
      <trkpt lat="43.33549" lon="5.67826">
        <ele>443</ele>
        <time>2019-01-18T09:58:47.000Z</time>
      </trkpt>
      <trkpt lat="43.3355" lon="5.67826">
        <ele>443</ele>
        <time>2019-01-18T09:58:48.000Z</time>
      </trkpt>
      <trkpt lat="43.3355" lon="5.67826">
        <ele>443</ele>
        <time>2019-01-18T09:58:49.000Z</time>
      </trkpt>
      <trkpt lat="43.3355" lon="5.67826">
        <ele>443</ele>
        <time>2019-01-18T09:58:50.000Z</time>
      </trkpt>
      <trkpt lat="43.3355" lon="5.67826">
        <ele>443</ele>
        <time>2019-01-18T09:58:51.000Z</time>
      </trkpt>
      <trkpt lat="43.3355" lon="5.67826">
        <ele>443</ele>
        <time>2019-01-18T09:58:52.000Z</time>
      </trkpt>
      <trkpt lat="43.3355" lon="5.67826">
        <ele>443</ele>
        <time>2019-01-18T09:58:53.000Z</time>
      </trkpt>
      <trkpt lat="43.3355" lon="5.67826">
        <ele>443</ele>
        <time>2019-01-18T09:58:54.000Z</time>
      </trkpt>
      <trkpt lat="43.3355" lon="5.67826">
        <ele>443</ele>
        <time>2019-01-18T09:58:55.000Z</time>
      </trkpt>
      <trkpt lat="43.3355" lon="5.67826">
        <ele>443</ele>
        <time>2019-01-18T09:58:56.000Z</time>
      </trkpt>
      <trkpt lat="43.3355" lon="5.67826">
        <ele>443</ele>
        <time>2019-01-18T09:58:57.000Z</time>
      </trkpt>
      <trkpt lat="43.33551" lon="5.67826">
        <ele>444</ele>
        <time>2019-01-18T09:58:58.000Z</time>
      </trkpt>
      <trkpt lat="43.33551" lon="5.67826">
        <ele>444</ele>
        <time>2019-01-18T09:58:59.000Z</time>
      </trkpt>
      <trkpt lat="43.33551" lon="5.67827">
        <ele>444</ele>
        <time>2019-01-18T09:59:00.000Z</time>
      </trkpt>
      <trkpt lat="43.33551" lon="5.67827">
        <ele>444</ele>
        <time>2019-01-18T09:59:01.000Z</time>
      </trkpt>
      <trkpt lat="43.33551" lon="5.67828">
        <ele>444</ele>
        <time>2019-01-18T09:59:02.000Z</time>
      </trkpt>
      <trkpt lat="43.33551" lon="5.67828">
        <ele>444</ele>
        <time>2019-01-18T09:59:03.000Z</time>
      </trkpt>
      <trkpt lat="43.33551" lon="5.67829">
        <ele>444</ele>
        <time>2019-01-18T09:59:04.000Z</time>
      </trkpt>
      <trkpt lat="43.3355" lon="5.67829">
        <ele>444</ele>
        <time>2019-01-18T09:59:05.000Z</time>
      </trkpt>
      <trkpt lat="43.3355" lon="5.67829">
        <ele>444</ele>
        <time>2019-01-18T09:59:06.000Z</time>
      </trkpt>
      <trkpt lat="43.3355" lon="5.67829">
        <ele>444</ele>
        <time>2019-01-18T09:59:07.000Z</time>
      </trkpt>
      <trkpt lat="43.3355" lon="5.67829">
        <ele>444</ele>
        <time>2019-01-18T09:59:08.000Z</time>
      </trkpt>
      <trkpt lat="43.33549" lon="5.67829">
        <ele>444</ele>
        <time>2019-01-18T09:59:09.000Z</time>
      </trkpt>
      <trkpt lat="43.33549" lon="5.67829">
        <ele>444</ele>
        <time>2019-01-18T09:59:10.000Z</time>
      </trkpt>
      <trkpt lat="43.33549" lon="5.67829">
        <ele>444</ele>
        <time>2019-01-18T09:59:11.000Z</time>
      </trkpt>
      <trkpt lat="43.33549" lon="5.67829">
        <ele>444</ele>
        <time>2019-01-18T09:59:12.000Z</time>
      </trkpt>
      <trkpt lat="43.33548" lon="5.67829">
        <ele>444</ele>
        <time>2019-01-18T09:59:13.000Z</time>
      </trkpt>
      <trkpt lat="43.33548" lon="5.67829">
        <ele>444</ele>
        <time>2019-01-18T09:59:14.000Z</time>
      </trkpt>
      <trkpt lat="43.33548" lon="5.67829">
        <ele>444</ele>
        <time>2019-01-18T09:59:15.000Z</time>
      </trkpt>
      <trkpt lat="43.33548" lon="5.67829">
        <ele>444</ele>
        <time>2019-01-18T09:59:16.000Z</time>
      </trkpt>
      <trkpt lat="43.33548" lon="5.6783">
        <ele>444</ele>
        <time>2019-01-18T09:59:17.000Z</time>
      </trkpt>
      <trkpt lat="43.33548" lon="5.6783">
        <ele>444</ele>
        <time>2019-01-18T09:59:18.000Z</time>
      </trkpt>
      <trkpt lat="43.33548" lon="5.6783">
        <ele>444</ele>
        <time>2019-01-18T09:59:19.000Z</time>
      </trkpt>
      <trkpt lat="43.33548" lon="5.6783">
        <ele>444</ele>
        <time>2019-01-18T09:59:20.000Z</time>
      </trkpt>
      <trkpt lat="43.33548" lon="5.6783">
        <ele>444</ele>
        <time>2019-01-18T09:59:21.000Z</time>
      </trkpt>
      <trkpt lat="43.33547" lon="5.6783">
        <ele>444</ele>
        <time>2019-01-18T09:59:22.000Z</time>
      </trkpt>
      <trkpt lat="43.33547" lon="5.67831">
        <ele>444</ele>
        <time>2019-01-18T09:59:23.000Z</time>
      </trkpt>
      <trkpt lat="43.33548" lon="5.6783">
        <ele>444</ele>
        <time>2019-01-18T09:59:24.000Z</time>
      </trkpt>
      <trkpt lat="43.33548" lon="5.6783">
        <ele>444</ele>
        <time>2019-01-18T09:59:25.000Z</time>
      </trkpt>
      <trkpt lat="43.33548" lon="5.6783">
        <ele>444</ele>
        <time>2019-01-18T09:59:26.000Z</time>
      </trkpt>
      <trkpt lat="43.33547" lon="5.67831">
        <ele>444</ele>
        <time>2019-01-18T09:59:27.000Z</time>
      </trkpt>
      <trkpt lat="43.33547" lon="5.67831">
        <ele>444</ele>
        <time>2019-01-18T09:59:28.000Z</time>
      </trkpt>
      <trkpt lat="43.33547" lon="5.67831">
        <ele>444</ele>
        <time>2019-01-18T09:59:29.000Z</time>
      </trkpt>
      <trkpt lat="43.33546" lon="5.67831">
        <ele>444</ele>
        <time>2019-01-18T09:59:30.000Z</time>
      </trkpt>
      <trkpt lat="43.33546" lon="5.67831">
        <ele>444</ele>
        <time>2019-01-18T09:59:31.000Z</time>
      </trkpt>
      <trkpt lat="43.33545" lon="5.67831">
        <ele>444</ele>
        <time>2019-01-18T09:59:32.000Z</time>
      </trkpt>
      <trkpt lat="43.33546" lon="5.67831">
        <ele>444</ele>
        <time>2019-01-18T09:59:33.000Z</time>
      </trkpt>
      <trkpt lat="43.33546" lon="5.67831">
        <ele>444</ele>
        <time>2019-01-18T09:59:34.000Z</time>
      </trkpt>
      <trkpt lat="43.33546" lon="5.67831">
        <ele>444</ele>
        <time>2019-01-18T09:59:35.000Z</time>
      </trkpt>
      <trkpt lat="43.33545" lon="5.67832">
        <ele>444</ele>
        <time>2019-01-18T09:59:36.000Z</time>
      </trkpt>
      <trkpt lat="43.33546" lon="5.67832">
        <ele>444</ele>
        <time>2019-01-18T09:59:37.000Z</time>
      </trkpt>
      <trkpt lat="43.33546" lon="5.67833">
        <ele>444</ele>
        <time>2019-01-18T09:59:38.000Z</time>
      </trkpt>
      <trkpt lat="43.33546" lon="5.67833">
        <ele>444</ele>
        <time>2019-01-18T09:59:39.000Z</time>
      </trkpt>
      <trkpt lat="43.33546" lon="5.67833">
        <ele>444</ele>
        <time>2019-01-18T09:59:40.000Z</time>
      </trkpt>
      <trkpt lat="43.33546" lon="5.67833">
        <ele>444</ele>
        <time>2019-01-18T09:59:41.000Z</time>
      </trkpt>
      <trkpt lat="43.33546" lon="5.67833">
        <ele>444</ele>
        <time>2019-01-18T09:59:42.000Z</time>
      </trkpt>
      <trkpt lat="43.33546" lon="5.67833">
        <ele>444</ele>
        <time>2019-01-18T09:59:43.000Z</time>
      </trkpt>
      <trkpt lat="43.33546" lon="5.67834">
        <ele>444</ele>
        <time>2019-01-18T09:59:44.000Z</time>
      </trkpt>
      <trkpt lat="43.33546" lon="5.67834">
        <ele>444</ele>
        <time>2019-01-18T09:59:45.000Z</time>
      </trkpt>
      <trkpt lat="43.33546" lon="5.67833">
        <ele>444</ele>
        <time>2019-01-18T09:59:46.000Z</time>
      </trkpt>
      <trkpt lat="43.33546" lon="5.67833">
        <ele>445</ele>
        <time>2019-01-18T09:59:47.000Z</time>
      </trkpt>
      <trkpt lat="43.33547" lon="5.67833">
        <ele>445</ele>
        <time>2019-01-18T09:59:48.000Z</time>
      </trkpt>
      <trkpt lat="43.33547" lon="5.67833">
        <ele>445</ele>
        <time>2019-01-18T09:59:49.000Z</time>
      </trkpt>
      <trkpt lat="43.33547" lon="5.67834">
        <ele>445</ele>
        <time>2019-01-18T09:59:50.000Z</time>
      </trkpt>
      <trkpt lat="43.33547" lon="5.67834">
        <ele>445</ele>
        <time>2019-01-18T09:59:51.000Z</time>
      </trkpt>
      <trkpt lat="43.33546" lon="5.67834">
        <ele>445</ele>
        <time>2019-01-18T09:59:52.000Z</time>
      </trkpt>
      <trkpt lat="43.33546" lon="5.67834">
        <ele>445</ele>
        <time>2019-01-18T09:59:53.000Z</time>
      </trkpt>
      <trkpt lat="43.33546" lon="5.67834">
        <ele>445</ele>
        <time>2019-01-18T09:59:54.000Z</time>
      </trkpt>
      <trkpt lat="43.33546" lon="5.67835">
        <ele>445</ele>
        <time>2019-01-18T09:59:55.000Z</time>
      </trkpt>
      <trkpt lat="43.33546" lon="5.67835">
        <ele>445</ele>
        <time>2019-01-18T09:59:56.000Z</time>
      </trkpt>
      <trkpt lat="43.33546" lon="5.67835">
        <ele>445</ele>
        <time>2019-01-18T09:59:57.000Z</time>
      </trkpt>
      <trkpt lat="43.33545" lon="5.67835">
        <ele>445</ele>
        <time>2019-01-18T09:59:58.000Z</time>
      </trkpt>
      <trkpt lat="43.33545" lon="5.67835">
        <ele>445</ele>
        <time>2019-01-18T09:59:59.000Z</time>
      </trkpt>
      <trkpt lat="43.33545" lon="5.67835">
        <ele>445</ele>
        <time>2019-01-18T10:00:00.000Z</time>
      </trkpt>
      <trkpt lat="43.33545" lon="5.67836">
        <ele>445</ele>
        <time>2019-01-18T10:00:01.000Z</time>
      </trkpt>
      <trkpt lat="43.33544" lon="5.67836">
        <ele>446</ele>
        <time>2019-01-18T10:00:02.000Z</time>
      </trkpt>
      <trkpt lat="43.33544" lon="5.67837">
        <ele>446</ele>
        <time>2019-01-18T10:00:03.000Z</time>
      </trkpt>
      <trkpt lat="43.33544" lon="5.67837">
        <ele>446</ele>
        <time>2019-01-18T10:00:04.000Z</time>
      </trkpt>
      <trkpt lat="43.33543" lon="5.67837">
        <ele>446</ele>
        <time>2019-01-18T10:00:05.000Z</time>
      </trkpt>
      <trkpt lat="43.33543" lon="5.67838">
        <ele>446</ele>
        <time>2019-01-18T10:00:06.000Z</time>
      </trkpt>
      <trkpt lat="43.33543" lon="5.67838">
        <ele>446</ele>
        <time>2019-01-18T10:00:07.000Z</time>
      </trkpt>
      <trkpt lat="43.33542" lon="5.67838">
        <ele>446</ele>
        <time>2019-01-18T10:00:08.000Z</time>
      </trkpt>
      <trkpt lat="43.33542" lon="5.67838">
        <ele>446</ele>
        <time>2019-01-18T10:00:09.000Z</time>
      </trkpt>
      <trkpt lat="43.33542" lon="5.67838">
        <ele>447</ele>
        <time>2019-01-18T10:00:10.000Z</time>
      </trkpt>
      <trkpt lat="43.33542" lon="5.67838">
        <ele>447</ele>
        <time>2019-01-18T10:00:11.000Z</time>
      </trkpt>
      <trkpt lat="43.33542" lon="5.67838">
        <ele>447</ele>
        <time>2019-01-18T10:00:12.000Z</time>
      </trkpt>
      <trkpt lat="43.33542" lon="5.67838">
        <ele>447</ele>
        <time>2019-01-18T10:00:13.000Z</time>
      </trkpt>
      <trkpt lat="43.33542" lon="5.67838">
        <ele>447</ele>
        <time>2019-01-18T10:00:14.000Z</time>
      </trkpt>
      <trkpt lat="43.33542" lon="5.67838">
        <ele>447</ele>
        <time>2019-01-18T10:00:15.000Z</time>
      </trkpt>
      <trkpt lat="43.33542" lon="5.67838">
        <ele>447</ele>
        <time>2019-01-18T10:00:16.000Z</time>
      </trkpt>
      <trkpt lat="43.33542" lon="5.67838">
        <ele>447</ele>
        <time>2019-01-18T10:00:17.000Z</time>
      </trkpt>
      <trkpt lat="43.33542" lon="5.67838">
        <ele>447</ele>
        <time>2019-01-18T10:00:18.000Z</time>
      </trkpt>
      <trkpt lat="43.33542" lon="5.67838">
        <ele>448</ele>
        <time>2019-01-18T10:00:19.000Z</time>
      </trkpt>
      <trkpt lat="43.33542" lon="5.67838">
        <ele>448</ele>
        <time>2019-01-18T10:00:20.000Z</time>
      </trkpt>
      <trkpt lat="43.33542" lon="5.67838">
        <ele>448</ele>
        <time>2019-01-18T10:00:21.000Z</time>
      </trkpt>
      <trkpt lat="43.33542" lon="5.67838">
        <ele>448</ele>
        <time>2019-01-18T10:00:22.000Z</time>
      </trkpt>
      <trkpt lat="43.33542" lon="5.67837">
        <ele>448</ele>
        <time>2019-01-18T10:00:23.000Z</time>
      </trkpt>
      <trkpt lat="43.33542" lon="5.67837">
        <ele>448</ele>
        <time>2019-01-18T10:00:24.000Z</time>
      </trkpt>
      <trkpt lat="43.33542" lon="5.67838">
        <ele>448</ele>
        <time>2019-01-18T10:00:25.000Z</time>
      </trkpt>
      <trkpt lat="43.33543" lon="5.67839">
        <ele>448</ele>
        <time>2019-01-18T10:00:26.000Z</time>
      </trkpt>
      <trkpt lat="43.33543" lon="5.6784">
        <ele>448</ele>
        <time>2019-01-18T10:00:27.000Z</time>
      </trkpt>
      <trkpt lat="43.33542" lon="5.67841">
        <ele>448</ele>
        <time>2019-01-18T10:00:28.000Z</time>
      </trkpt>
      <trkpt lat="43.33542" lon="5.67842">
        <ele>448</ele>
        <time>2019-01-18T10:00:29.000Z</time>
      </trkpt>
      <trkpt lat="43.33542" lon="5.67842">
        <ele>448</ele>
        <time>2019-01-18T10:00:30.000Z</time>
      </trkpt>
      <trkpt lat="43.33542" lon="5.67843">
        <ele>449</ele>
        <time>2019-01-18T10:00:31.000Z</time>
      </trkpt>
      <trkpt lat="43.33541" lon="5.67843">
        <ele>449</ele>
        <time>2019-01-18T10:00:32.000Z</time>
      </trkpt>
      <trkpt lat="43.3354" lon="5.67844">
        <ele>449</ele>
        <time>2019-01-18T10:00:33.000Z</time>
      </trkpt>
      <trkpt lat="43.3354" lon="5.67845">
        <ele>449</ele>
        <time>2019-01-18T10:00:34.000Z</time>
      </trkpt>
      <trkpt lat="43.3354" lon="5.67845">
        <ele>449</ele>
        <time>2019-01-18T10:00:35.000Z</time>
      </trkpt>
      <trkpt lat="43.33539" lon="5.67846">
        <ele>449</ele>
        <time>2019-01-18T10:00:36.000Z</time>
      </trkpt>
      <trkpt lat="43.33538" lon="5.67847">
        <ele>449</ele>
        <time>2019-01-18T10:00:37.000Z</time>
      </trkpt>
      <trkpt lat="43.33538" lon="5.67848">
        <ele>450</ele>
        <time>2019-01-18T10:00:38.000Z</time>
      </trkpt>
      <trkpt lat="43.33537" lon="5.67849">
        <ele>450</ele>
        <time>2019-01-18T10:00:39.000Z</time>
      </trkpt>
      <trkpt lat="43.33536" lon="5.67849">
        <ele>450</ele>
        <time>2019-01-18T10:00:40.000Z</time>
      </trkpt>
      <trkpt lat="43.33536" lon="5.67849">
        <ele>450</ele>
        <time>2019-01-18T10:00:41.000Z</time>
      </trkpt>
      <trkpt lat="43.33535" lon="5.6785">
        <ele>450</ele>
        <time>2019-01-18T10:00:42.000Z</time>
      </trkpt>
      <trkpt lat="43.33535" lon="5.6785">
        <ele>450</ele>
        <time>2019-01-18T10:00:43.000Z</time>
      </trkpt>
      <trkpt lat="43.33535" lon="5.6785">
        <ele>450</ele>
        <time>2019-01-18T10:00:44.000Z</time>
      </trkpt>
      <trkpt lat="43.33534" lon="5.67851">
        <ele>450</ele>
        <time>2019-01-18T10:00:45.000Z</time>
      </trkpt>
      <trkpt lat="43.33534" lon="5.67851">
        <ele>450</ele>
        <time>2019-01-18T10:00:46.000Z</time>
      </trkpt>
      <trkpt lat="43.33533" lon="5.67852">
        <ele>450</ele>
        <time>2019-01-18T10:00:47.000Z</time>
      </trkpt>
      <trkpt lat="43.33533" lon="5.67852">
        <ele>451</ele>
        <time>2019-01-18T10:00:48.000Z</time>
      </trkpt>
      <trkpt lat="43.33532" lon="5.67853">
        <ele>451</ele>
        <time>2019-01-18T10:00:49.000Z</time>
      </trkpt>
      <trkpt lat="43.33531" lon="5.67853">
        <ele>451</ele>
        <time>2019-01-18T10:00:50.000Z</time>
      </trkpt>
      <trkpt lat="43.33531" lon="5.67854">
        <ele>451</ele>
        <time>2019-01-18T10:00:51.000Z</time>
      </trkpt>
      <trkpt lat="43.33531" lon="5.67854">
        <ele>451</ele>
        <time>2019-01-18T10:00:52.000Z</time>
      </trkpt>
      <trkpt lat="43.3353" lon="5.67854">
        <ele>451</ele>
        <time>2019-01-18T10:00:53.000Z</time>
      </trkpt>
      <trkpt lat="43.3353" lon="5.67854">
        <ele>451</ele>
        <time>2019-01-18T10:00:54.000Z</time>
      </trkpt>
      <trkpt lat="43.3353" lon="5.67854">
        <ele>452</ele>
        <time>2019-01-18T10:00:55.000Z</time>
      </trkpt>
      <trkpt lat="43.3353" lon="5.67854">
        <ele>452</ele>
        <time>2019-01-18T10:00:56.000Z</time>
      </trkpt>
      <trkpt lat="43.33529" lon="5.67854">
        <ele>452</ele>
        <time>2019-01-18T10:00:57.000Z</time>
      </trkpt>
      <trkpt lat="43.33529" lon="5.67855">
        <ele>452</ele>
        <time>2019-01-18T10:00:58.000Z</time>
      </trkpt>
      <trkpt lat="43.33529" lon="5.67855">
        <ele>452</ele>
        <time>2019-01-18T10:00:59.000Z</time>
      </trkpt>
      <trkpt lat="43.33528" lon="5.67856">
        <ele>452</ele>
        <time>2019-01-18T10:01:00.000Z</time>
      </trkpt>
      <trkpt lat="43.33527" lon="5.67856">
        <ele>452</ele>
        <time>2019-01-18T10:01:01.000Z</time>
      </trkpt>
      <trkpt lat="43.33527" lon="5.67857">
        <ele>452</ele>
        <time>2019-01-18T10:01:02.000Z</time>
      </trkpt>
      <trkpt lat="43.33526" lon="5.67857">
        <ele>453</ele>
        <time>2019-01-18T10:01:03.000Z</time>
      </trkpt>
      <trkpt lat="43.33526" lon="5.67858">
        <ele>453</ele>
        <time>2019-01-18T10:01:04.000Z</time>
      </trkpt>
      <trkpt lat="43.33525" lon="5.67858">
        <ele>453</ele>
        <time>2019-01-18T10:01:05.000Z</time>
      </trkpt>
      <trkpt lat="43.33525" lon="5.67859">
        <ele>453</ele>
        <time>2019-01-18T10:01:06.000Z</time>
      </trkpt>
      <trkpt lat="43.33525" lon="5.67859">
        <ele>453</ele>
        <time>2019-01-18T10:01:07.000Z</time>
      </trkpt>
      <trkpt lat="43.33524" lon="5.6786">
        <ele>453</ele>
        <time>2019-01-18T10:01:08.000Z</time>
      </trkpt>
      <trkpt lat="43.33524" lon="5.67861">
        <ele>453</ele>
        <time>2019-01-18T10:01:09.000Z</time>
      </trkpt>
      <trkpt lat="43.33523" lon="5.67861">
        <ele>453</ele>
        <time>2019-01-18T10:01:10.000Z</time>
      </trkpt>
      <trkpt lat="43.33523" lon="5.67862">
        <ele>454</ele>
        <time>2019-01-18T10:01:11.000Z</time>
      </trkpt>
      <trkpt lat="43.33522" lon="5.67862">
        <ele>454</ele>
        <time>2019-01-18T10:01:12.000Z</time>
      </trkpt>
      <trkpt lat="43.33522" lon="5.67863">
        <ele>454</ele>
        <time>2019-01-18T10:01:13.000Z</time>
      </trkpt>
      <trkpt lat="43.33521" lon="5.67863">
        <ele>454</ele>
        <time>2019-01-18T10:01:14.000Z</time>
      </trkpt>
      <trkpt lat="43.33521" lon="5.67863">
        <ele>454</ele>
        <time>2019-01-18T10:01:15.000Z</time>
      </trkpt>
      <trkpt lat="43.33521" lon="5.67864">
        <ele>454</ele>
        <time>2019-01-18T10:01:16.000Z</time>
      </trkpt>
      <trkpt lat="43.3352" lon="5.67864">
        <ele>454</ele>
        <time>2019-01-18T10:01:17.000Z</time>
      </trkpt>
      <trkpt lat="43.3352" lon="5.67865">
        <ele>454</ele>
        <time>2019-01-18T10:01:18.000Z</time>
      </trkpt>
      <trkpt lat="43.33519" lon="5.67866">
        <ele>454</ele>
        <time>2019-01-18T10:01:19.000Z</time>
      </trkpt>
      <trkpt lat="43.33519" lon="5.67867">
        <ele>454</ele>
        <time>2019-01-18T10:01:20.000Z</time>
      </trkpt>
      <trkpt lat="43.33518" lon="5.67867">
        <ele>454</ele>
        <time>2019-01-18T10:01:21.000Z</time>
      </trkpt>
      <trkpt lat="43.33518" lon="5.67867">
        <ele>454</ele>
        <time>2019-01-18T10:01:22.000Z</time>
      </trkpt>
      <trkpt lat="43.33517" lon="5.67868">
        <ele>454</ele>
        <time>2019-01-18T10:01:23.000Z</time>
      </trkpt>
      <trkpt lat="43.33517" lon="5.67869">
        <ele>454</ele>
        <time>2019-01-18T10:01:24.000Z</time>
      </trkpt>
      <trkpt lat="43.33516" lon="5.67869">
        <ele>454</ele>
        <time>2019-01-18T10:01:25.000Z</time>
      </trkpt>
      <trkpt lat="43.33516" lon="5.67869">
        <ele>454</ele>
        <time>2019-01-18T10:01:26.000Z</time>
      </trkpt>
      <trkpt lat="43.33515" lon="5.6787">
        <ele>454</ele>
        <time>2019-01-18T10:01:27.000Z</time>
      </trkpt>
      <trkpt lat="43.33515" lon="5.6787">
        <ele>454</ele>
        <time>2019-01-18T10:01:28.000Z</time>
      </trkpt>
      <trkpt lat="43.33514" lon="5.6787">
        <ele>454</ele>
        <time>2019-01-18T10:01:29.000Z</time>
      </trkpt>
      <trkpt lat="43.33513" lon="5.67871">
        <ele>454</ele>
        <time>2019-01-18T10:01:30.000Z</time>
      </trkpt>
      <trkpt lat="43.33512" lon="5.67871">
        <ele>454</ele>
        <time>2019-01-18T10:01:31.000Z</time>
      </trkpt>
      <trkpt lat="43.33512" lon="5.67872">
        <ele>454</ele>
        <time>2019-01-18T10:01:32.000Z</time>
      </trkpt>
      <trkpt lat="43.33511" lon="5.67872">
        <ele>454</ele>
        <time>2019-01-18T10:01:33.000Z</time>
      </trkpt>
      <trkpt lat="43.33511" lon="5.67873">
        <ele>454</ele>
        <time>2019-01-18T10:01:34.000Z</time>
      </trkpt>
      <trkpt lat="43.3351" lon="5.67873">
        <ele>454</ele>
        <time>2019-01-18T10:01:35.000Z</time>
      </trkpt>
      <trkpt lat="43.3351" lon="5.67874">
        <ele>454</ele>
        <time>2019-01-18T10:01:36.000Z</time>
      </trkpt>
      <trkpt lat="43.3351" lon="5.67874">
        <ele>454</ele>
        <time>2019-01-18T10:01:37.000Z</time>
      </trkpt>
      <trkpt lat="43.3351" lon="5.67875">
        <ele>454</ele>
        <time>2019-01-18T10:01:38.000Z</time>
      </trkpt>
      <trkpt lat="43.33509" lon="5.67875">
        <ele>454</ele>
        <time>2019-01-18T10:01:39.000Z</time>
      </trkpt>
      <trkpt lat="43.3351" lon="5.67876">
        <ele>454</ele>
        <time>2019-01-18T10:01:40.000Z</time>
      </trkpt>
      <trkpt lat="43.3351" lon="5.67876">
        <ele>454</ele>
        <time>2019-01-18T10:01:41.000Z</time>
      </trkpt>
      <trkpt lat="43.3351" lon="5.67877">
        <ele>454</ele>
        <time>2019-01-18T10:01:42.000Z</time>
      </trkpt>
      <trkpt lat="43.3351" lon="5.67878">
        <ele>455</ele>
        <time>2019-01-18T10:01:43.000Z</time>
      </trkpt>
      <trkpt lat="43.33509" lon="5.67879">
        <ele>455</ele>
        <time>2019-01-18T10:01:44.000Z</time>
      </trkpt>
      <trkpt lat="43.33509" lon="5.67879">
        <ele>455</ele>
        <time>2019-01-18T10:01:45.000Z</time>
      </trkpt>
      <trkpt lat="43.33509" lon="5.6788">
        <ele>455</ele>
        <time>2019-01-18T10:01:46.000Z</time>
      </trkpt>
      <trkpt lat="43.33508" lon="5.67881">
        <ele>455</ele>
        <time>2019-01-18T10:01:47.000Z</time>
      </trkpt>
      <trkpt lat="43.33508" lon="5.67882">
        <ele>455</ele>
        <time>2019-01-18T10:01:48.000Z</time>
      </trkpt>
      <trkpt lat="43.33508" lon="5.67883">
        <ele>456</ele>
        <time>2019-01-18T10:01:49.000Z</time>
      </trkpt>
      <trkpt lat="43.33507" lon="5.67883">
        <ele>456</ele>
        <time>2019-01-18T10:01:50.000Z</time>
      </trkpt>
      <trkpt lat="43.33507" lon="5.67883">
        <ele>456</ele>
        <time>2019-01-18T10:01:51.000Z</time>
      </trkpt>
      <trkpt lat="43.33506" lon="5.67884">
        <ele>456</ele>
        <time>2019-01-18T10:01:52.000Z</time>
      </trkpt>
      <trkpt lat="43.33506" lon="5.67884">
        <ele>456</ele>
        <time>2019-01-18T10:01:53.000Z</time>
      </trkpt>
      <trkpt lat="43.33505" lon="5.67885">
        <ele>456</ele>
        <time>2019-01-18T10:01:54.000Z</time>
      </trkpt>
      <trkpt lat="43.33505" lon="5.67886">
        <ele>456</ele>
        <time>2019-01-18T10:01:55.000Z</time>
      </trkpt>
      <trkpt lat="43.33505" lon="5.67886">
        <ele>457</ele>
        <time>2019-01-18T10:01:56.000Z</time>
      </trkpt>
      <trkpt lat="43.33505" lon="5.67886">
        <ele>457</ele>
        <time>2019-01-18T10:01:57.000Z</time>
      </trkpt>
      <trkpt lat="43.33505" lon="5.67887">
        <ele>457</ele>
        <time>2019-01-18T10:01:58.000Z</time>
      </trkpt>
      <trkpt lat="43.33504" lon="5.67887">
        <ele>457</ele>
        <time>2019-01-18T10:01:59.000Z</time>
      </trkpt>
      <trkpt lat="43.33504" lon="5.67887">
        <ele>457</ele>
        <time>2019-01-18T10:02:00.000Z</time>
      </trkpt>
      <trkpt lat="43.33504" lon="5.67888">
        <ele>457</ele>
        <time>2019-01-18T10:02:01.000Z</time>
      </trkpt>
      <trkpt lat="43.33504" lon="5.67889">
        <ele>457</ele>
        <time>2019-01-18T10:02:02.000Z</time>
      </trkpt>
      <trkpt lat="43.33503" lon="5.67889">
        <ele>457</ele>
        <time>2019-01-18T10:02:03.000Z</time>
      </trkpt>
      <trkpt lat="43.33503" lon="5.6789">
        <ele>457</ele>
        <time>2019-01-18T10:02:04.000Z</time>
      </trkpt>
      <trkpt lat="43.33503" lon="5.67891">
        <ele>457</ele>
        <time>2019-01-18T10:02:05.000Z</time>
      </trkpt>
      <trkpt lat="43.33502" lon="5.67893">
        <ele>457</ele>
        <time>2019-01-18T10:02:06.000Z</time>
      </trkpt>
      <trkpt lat="43.33502" lon="5.67894">
        <ele>457</ele>
        <time>2019-01-18T10:02:07.000Z</time>
      </trkpt>
      <trkpt lat="43.33501" lon="5.67895">
        <ele>457</ele>
        <time>2019-01-18T10:02:08.000Z</time>
      </trkpt>
      <trkpt lat="43.335" lon="5.67896">
        <ele>457</ele>
        <time>2019-01-18T10:02:09.000Z</time>
      </trkpt>
      <trkpt lat="43.335" lon="5.67897">
        <ele>458</ele>
        <time>2019-01-18T10:02:10.000Z</time>
      </trkpt>
      <trkpt lat="43.33499" lon="5.67897">
        <ele>458</ele>
        <time>2019-01-18T10:02:11.000Z</time>
      </trkpt>
      <trkpt lat="43.33499" lon="5.67898">
        <ele>458</ele>
        <time>2019-01-18T10:02:12.000Z</time>
      </trkpt>
      <trkpt lat="43.33499" lon="5.67898">
        <ele>458</ele>
        <time>2019-01-18T10:02:13.000Z</time>
      </trkpt>
      <trkpt lat="43.33499" lon="5.67898">
        <ele>458</ele>
        <time>2019-01-18T10:02:14.000Z</time>
      </trkpt>
      <trkpt lat="43.33499" lon="5.67898">
        <ele>458</ele>
        <time>2019-01-18T10:02:15.000Z</time>
      </trkpt>
      <trkpt lat="43.33499" lon="5.67898">
        <ele>458</ele>
        <time>2019-01-18T10:02:16.000Z</time>
      </trkpt>
      <trkpt lat="43.33499" lon="5.67899">
        <ele>458</ele>
        <time>2019-01-18T10:02:17.000Z</time>
      </trkpt>
      <trkpt lat="43.33498" lon="5.679">
        <ele>458</ele>
        <time>2019-01-18T10:02:18.000Z</time>
      </trkpt>
      <trkpt lat="43.33498" lon="5.679">
        <ele>458</ele>
        <time>2019-01-18T10:02:19.000Z</time>
      </trkpt>
      <trkpt lat="43.33498" lon="5.67901">
        <ele>458</ele>
        <time>2019-01-18T10:02:20.000Z</time>
      </trkpt>
      <trkpt lat="43.33498" lon="5.67902">
        <ele>458</ele>
        <time>2019-01-18T10:02:21.000Z</time>
      </trkpt>
      <trkpt lat="43.33498" lon="5.67903">
        <ele>458</ele>
        <time>2019-01-18T10:02:22.000Z</time>
      </trkpt>
      <trkpt lat="43.33497" lon="5.67904">
        <ele>458</ele>
        <time>2019-01-18T10:02:23.000Z</time>
      </trkpt>
      <trkpt lat="43.33497" lon="5.67904">
        <ele>458</ele>
        <time>2019-01-18T10:02:24.000Z</time>
      </trkpt>
      <trkpt lat="43.33497" lon="5.67905">
        <ele>458</ele>
        <time>2019-01-18T10:02:25.000Z</time>
      </trkpt>
      <trkpt lat="43.33496" lon="5.67906">
        <ele>458</ele>
        <time>2019-01-18T10:02:26.000Z</time>
      </trkpt>
      <trkpt lat="43.33496" lon="5.67908">
        <ele>458</ele>
        <time>2019-01-18T10:02:27.000Z</time>
      </trkpt>
      <trkpt lat="43.33496" lon="5.67909">
        <ele>458</ele>
        <time>2019-01-18T10:02:28.000Z</time>
      </trkpt>
      <trkpt lat="43.33496" lon="5.6791">
        <ele>458</ele>
        <time>2019-01-18T10:02:29.000Z</time>
      </trkpt>
      <trkpt lat="43.33496" lon="5.67911">
        <ele>458</ele>
        <time>2019-01-18T10:02:30.000Z</time>
      </trkpt>
      <trkpt lat="43.33496" lon="5.67912">
        <ele>458</ele>
        <time>2019-01-18T10:02:31.000Z</time>
      </trkpt>
      <trkpt lat="43.33496" lon="5.67913">
        <ele>458</ele>
        <time>2019-01-18T10:02:32.000Z</time>
      </trkpt>
      <trkpt lat="43.33496" lon="5.67914">
        <ele>458</ele>
        <time>2019-01-18T10:02:33.000Z</time>
      </trkpt>
      <trkpt lat="43.33496" lon="5.67915">
        <ele>458</ele>
        <time>2019-01-18T10:02:34.000Z</time>
      </trkpt>
      <trkpt lat="43.33496" lon="5.67916">
        <ele>458</ele>
        <time>2019-01-18T10:02:35.000Z</time>
      </trkpt>
      <trkpt lat="43.33496" lon="5.67916">
        <ele>459</ele>
        <time>2019-01-18T10:02:36.000Z</time>
      </trkpt>
      <trkpt lat="43.33496" lon="5.67917">
        <ele>459</ele>
        <time>2019-01-18T10:02:37.000Z</time>
      </trkpt>
      <trkpt lat="43.33496" lon="5.67918">
        <ele>459</ele>
        <time>2019-01-18T10:02:38.000Z</time>
      </trkpt>
      <trkpt lat="43.33496" lon="5.67919">
        <ele>459</ele>
        <time>2019-01-18T10:02:39.000Z</time>
      </trkpt>
      <trkpt lat="43.33495" lon="5.6792">
        <ele>459</ele>
        <time>2019-01-18T10:02:40.000Z</time>
      </trkpt>
      <trkpt lat="43.33495" lon="5.6792">
        <ele>459</ele>
        <time>2019-01-18T10:02:41.000Z</time>
      </trkpt>
      <trkpt lat="43.33495" lon="5.67921">
        <ele>459</ele>
        <time>2019-01-18T10:02:42.000Z</time>
      </trkpt>
      <trkpt lat="43.33495" lon="5.67921">
        <ele>459</ele>
        <time>2019-01-18T10:02:43.000Z</time>
      </trkpt>
      <trkpt lat="43.33494" lon="5.67922">
        <ele>459</ele>
        <time>2019-01-18T10:02:44.000Z</time>
      </trkpt>
      <trkpt lat="43.33494" lon="5.67922">
        <ele>459</ele>
        <time>2019-01-18T10:02:45.000Z</time>
      </trkpt>
      <trkpt lat="43.33494" lon="5.67923">
        <ele>459</ele>
        <time>2019-01-18T10:02:46.000Z</time>
      </trkpt>
      <trkpt lat="43.33494" lon="5.67924">
        <ele>459</ele>
        <time>2019-01-18T10:02:47.000Z</time>
      </trkpt>
      <trkpt lat="43.33494" lon="5.67924">
        <ele>459</ele>
        <time>2019-01-18T10:02:48.000Z</time>
      </trkpt>
      <trkpt lat="43.33494" lon="5.67925">
        <ele>459</ele>
        <time>2019-01-18T10:02:49.000Z</time>
      </trkpt>
      <trkpt lat="43.33495" lon="5.67926">
        <ele>459</ele>
        <time>2019-01-18T10:02:50.000Z</time>
      </trkpt>
      <trkpt lat="43.33495" lon="5.67927">
        <ele>459</ele>
        <time>2019-01-18T10:02:51.000Z</time>
      </trkpt>
      <trkpt lat="43.33495" lon="5.67927">
        <ele>459</ele>
        <time>2019-01-18T10:02:52.000Z</time>
      </trkpt>
      <trkpt lat="43.33495" lon="5.67928">
        <ele>459</ele>
        <time>2019-01-18T10:02:53.000Z</time>
      </trkpt>
      <trkpt lat="43.33495" lon="5.67928">
        <ele>459</ele>
        <time>2019-01-18T10:02:54.000Z</time>
      </trkpt>
      <trkpt lat="43.33495" lon="5.67929">
        <ele>459</ele>
        <time>2019-01-18T10:02:55.000Z</time>
      </trkpt>
      <trkpt lat="43.33495" lon="5.6793">
        <ele>459</ele>
        <time>2019-01-18T10:02:56.000Z</time>
      </trkpt>
      <trkpt lat="43.33494" lon="5.67931">
        <ele>459</ele>
        <time>2019-01-18T10:02:57.000Z</time>
      </trkpt>
      <trkpt lat="43.33494" lon="5.67931">
        <ele>459</ele>
        <time>2019-01-18T10:02:58.000Z</time>
      </trkpt>
      <trkpt lat="43.33494" lon="5.67932">
        <ele>459</ele>
        <time>2019-01-18T10:02:59.000Z</time>
      </trkpt>
      <trkpt lat="43.33494" lon="5.67933">
        <ele>459</ele>
        <time>2019-01-18T10:03:00.000Z</time>
      </trkpt>
      <trkpt lat="43.33494" lon="5.67933">
        <ele>459</ele>
        <time>2019-01-18T10:03:01.000Z</time>
      </trkpt>
      <trkpt lat="43.33494" lon="5.67934">
        <ele>459</ele>
        <time>2019-01-18T10:03:02.000Z</time>
      </trkpt>
      <trkpt lat="43.33493" lon="5.67936">
        <ele>459</ele>
        <time>2019-01-18T10:03:03.000Z</time>
      </trkpt>
      <trkpt lat="43.33493" lon="5.67937">
        <ele>459</ele>
        <time>2019-01-18T10:03:04.000Z</time>
      </trkpt>
      <trkpt lat="43.33493" lon="5.67937">
        <ele>459</ele>
        <time>2019-01-18T10:03:05.000Z</time>
      </trkpt>
      <trkpt lat="43.33493" lon="5.67939">
        <ele>459</ele>
        <time>2019-01-18T10:03:06.000Z</time>
      </trkpt>
      <trkpt lat="43.33493" lon="5.6794">
        <ele>459</ele>
        <time>2019-01-18T10:03:07.000Z</time>
      </trkpt>
      <trkpt lat="43.33493" lon="5.67941">
        <ele>458</ele>
        <time>2019-01-18T10:03:08.000Z</time>
      </trkpt>
      <trkpt lat="43.33493" lon="5.67943">
        <ele>458</ele>
        <time>2019-01-18T10:03:09.000Z</time>
      </trkpt>
      <trkpt lat="43.33493" lon="5.67943">
        <ele>458</ele>
        <time>2019-01-18T10:03:10.000Z</time>
      </trkpt>
      <trkpt lat="43.33493" lon="5.67945">
        <ele>458</ele>
        <time>2019-01-18T10:03:11.000Z</time>
      </trkpt>
      <trkpt lat="43.33493" lon="5.67945">
        <ele>458</ele>
        <time>2019-01-18T10:03:12.000Z</time>
      </trkpt>
      <trkpt lat="43.33493" lon="5.67947">
        <ele>458</ele>
        <time>2019-01-18T10:03:13.000Z</time>
      </trkpt>
      <trkpt lat="43.33493" lon="5.67948">
        <ele>458</ele>
        <time>2019-01-18T10:03:14.000Z</time>
      </trkpt>
      <trkpt lat="43.33493" lon="5.67949">
        <ele>457</ele>
        <time>2019-01-18T10:03:15.000Z</time>
      </trkpt>
      <trkpt lat="43.33493" lon="5.6795">
        <ele>457</ele>
        <time>2019-01-18T10:03:16.000Z</time>
      </trkpt>
      <trkpt lat="43.33493" lon="5.67951">
        <ele>457</ele>
        <time>2019-01-18T10:03:17.000Z</time>
      </trkpt>
      <trkpt lat="43.33493" lon="5.67952">
        <ele>457</ele>
        <time>2019-01-18T10:03:18.000Z</time>
      </trkpt>
      <trkpt lat="43.33493" lon="5.67953">
        <ele>457</ele>
        <time>2019-01-18T10:03:19.000Z</time>
      </trkpt>
      <trkpt lat="43.33493" lon="5.67954">
        <ele>456</ele>
        <time>2019-01-18T10:03:20.000Z</time>
      </trkpt>
      <trkpt lat="43.33493" lon="5.67954">
        <ele>456</ele>
        <time>2019-01-18T10:03:21.000Z</time>
      </trkpt>
      <trkpt lat="43.33493" lon="5.67955">
        <ele>456</ele>
        <time>2019-01-18T10:03:22.000Z</time>
      </trkpt>
      <trkpt lat="43.33493" lon="5.67955">
        <ele>456</ele>
        <time>2019-01-18T10:03:23.000Z</time>
      </trkpt>
      <trkpt lat="43.33493" lon="5.67955">
        <ele>455</ele>
        <time>2019-01-18T10:03:24.000Z</time>
      </trkpt>
      <trkpt lat="43.33493" lon="5.67955">
        <ele>455</ele>
        <time>2019-01-18T10:03:25.000Z</time>
      </trkpt>
      <trkpt lat="43.33493" lon="5.67956">
        <ele>455</ele>
        <time>2019-01-18T10:03:26.000Z</time>
      </trkpt>
      <trkpt lat="43.33493" lon="5.67957">
        <ele>455</ele>
        <time>2019-01-18T10:03:27.000Z</time>
      </trkpt>
      <trkpt lat="43.33493" lon="5.67958">
        <ele>455</ele>
        <time>2019-01-18T10:03:28.000Z</time>
      </trkpt>
      <trkpt lat="43.33493" lon="5.67958">
        <ele>455</ele>
        <time>2019-01-18T10:03:29.000Z</time>
      </trkpt>
      <trkpt lat="43.33493" lon="5.67959">
        <ele>455</ele>
        <time>2019-01-18T10:03:30.000Z</time>
      </trkpt>
      <trkpt lat="43.33494" lon="5.6796">
        <ele>455</ele>
        <time>2019-01-18T10:03:31.000Z</time>
      </trkpt>
      <trkpt lat="43.33494" lon="5.67961">
        <ele>455</ele>
        <time>2019-01-18T10:03:32.000Z</time>
      </trkpt>
      <trkpt lat="43.33495" lon="5.67962">
        <ele>455</ele>
        <time>2019-01-18T10:03:33.000Z</time>
      </trkpt>
      <trkpt lat="43.33495" lon="5.67963">
        <ele>455</ele>
        <time>2019-01-18T10:03:34.000Z</time>
      </trkpt>
      <trkpt lat="43.33495" lon="5.67964">
        <ele>455</ele>
        <time>2019-01-18T10:03:35.000Z</time>
      </trkpt>
      <trkpt lat="43.33495" lon="5.67966">
        <ele>455</ele>
        <time>2019-01-18T10:03:36.000Z</time>
      </trkpt>
      <trkpt lat="43.33495" lon="5.67967">
        <ele>455</ele>
        <time>2019-01-18T10:03:37.000Z</time>
      </trkpt>
      <trkpt lat="43.33495" lon="5.67968">
        <ele>455</ele>
        <time>2019-01-18T10:03:38.000Z</time>
      </trkpt>
      <trkpt lat="43.33495" lon="5.67969">
        <ele>455</ele>
        <time>2019-01-18T10:03:39.000Z</time>
      </trkpt>
      <trkpt lat="43.33495" lon="5.6797">
        <ele>455</ele>
        <time>2019-01-18T10:03:40.000Z</time>
      </trkpt>
      <trkpt lat="43.33495" lon="5.67971">
        <ele>455</ele>
        <time>2019-01-18T10:03:41.000Z</time>
      </trkpt>
      <trkpt lat="43.33495" lon="5.67972">
        <ele>455</ele>
        <time>2019-01-18T10:03:42.000Z</time>
      </trkpt>
      <trkpt lat="43.33495" lon="5.67973">
        <ele>455</ele>
        <time>2019-01-18T10:03:43.000Z</time>
      </trkpt>
      <trkpt lat="43.33495" lon="5.67974">
        <ele>455</ele>
        <time>2019-01-18T10:03:44.000Z</time>
      </trkpt>
      <trkpt lat="43.33495" lon="5.67974">
        <ele>455</ele>
        <time>2019-01-18T10:03:45.000Z</time>
      </trkpt>
      <trkpt lat="43.33495" lon="5.67975">
        <ele>455</ele>
        <time>2019-01-18T10:03:46.000Z</time>
      </trkpt>
      <trkpt lat="43.33495" lon="5.67976">
        <ele>455</ele>
        <time>2019-01-18T10:03:47.000Z</time>
      </trkpt>
      <trkpt lat="43.33495" lon="5.67977">
        <ele>455</ele>
        <time>2019-01-18T10:03:48.000Z</time>
      </trkpt>
      <trkpt lat="43.33496" lon="5.67978">
        <ele>455</ele>
        <time>2019-01-18T10:03:49.000Z</time>
      </trkpt>
      <trkpt lat="43.33496" lon="5.67979">
        <ele>455</ele>
        <time>2019-01-18T10:03:50.000Z</time>
      </trkpt>
      <trkpt lat="43.33496" lon="5.6798">
        <ele>455</ele>
        <time>2019-01-18T10:03:51.000Z</time>
      </trkpt>
      <trkpt lat="43.33496" lon="5.6798">
        <ele>455</ele>
        <time>2019-01-18T10:03:52.000Z</time>
      </trkpt>
      <trkpt lat="43.33496" lon="5.67981">
        <ele>455</ele>
        <time>2019-01-18T10:03:53.000Z</time>
      </trkpt>
      <trkpt lat="43.33496" lon="5.67982">
        <ele>455</ele>
        <time>2019-01-18T10:03:54.000Z</time>
      </trkpt>
      <trkpt lat="43.33496" lon="5.67983">
        <ele>455</ele>
        <time>2019-01-18T10:03:55.000Z</time>
      </trkpt>
      <trkpt lat="43.33496" lon="5.67984">
        <ele>455</ele>
        <time>2019-01-18T10:03:56.000Z</time>
      </trkpt>
      <trkpt lat="43.33496" lon="5.67985">
        <ele>455</ele>
        <time>2019-01-18T10:03:57.000Z</time>
      </trkpt>
      <trkpt lat="43.33495" lon="5.67986">
        <ele>455</ele>
        <time>2019-01-18T10:03:58.000Z</time>
      </trkpt>
      <trkpt lat="43.33495" lon="5.67987">
        <ele>455</ele>
        <time>2019-01-18T10:03:59.000Z</time>
      </trkpt>
      <trkpt lat="43.33495" lon="5.67988">
        <ele>456</ele>
        <time>2019-01-18T10:04:00.000Z</time>
      </trkpt>
      <trkpt lat="43.33495" lon="5.67989">
        <ele>456</ele>
        <time>2019-01-18T10:04:01.000Z</time>
      </trkpt>
      <trkpt lat="43.33495" lon="5.67989">
        <ele>456</ele>
        <time>2019-01-18T10:04:02.000Z</time>
      </trkpt>
      <trkpt lat="43.33494" lon="5.6799">
        <ele>456</ele>
        <time>2019-01-18T10:04:03.000Z</time>
      </trkpt>
      <trkpt lat="43.33494" lon="5.67991">
        <ele>456</ele>
        <time>2019-01-18T10:04:04.000Z</time>
      </trkpt>
      <trkpt lat="43.33494" lon="5.67991">
        <ele>456</ele>
        <time>2019-01-18T10:04:05.000Z</time>
      </trkpt>
      <trkpt lat="43.33494" lon="5.67992">
        <ele>456</ele>
        <time>2019-01-18T10:04:06.000Z</time>
      </trkpt>
      <trkpt lat="43.33494" lon="5.67993">
        <ele>456</ele>
        <time>2019-01-18T10:04:07.000Z</time>
      </trkpt>
      <trkpt lat="43.33494" lon="5.67994">
        <ele>456</ele>
        <time>2019-01-18T10:04:08.000Z</time>
      </trkpt>
      <trkpt lat="43.33494" lon="5.67994">
        <ele>456</ele>
        <time>2019-01-18T10:04:09.000Z</time>
      </trkpt>
      <trkpt lat="43.33494" lon="5.67996">
        <ele>456</ele>
        <time>2019-01-18T10:04:10.000Z</time>
      </trkpt>
      <trkpt lat="43.33494" lon="5.67997">
        <ele>456</ele>
        <time>2019-01-18T10:04:11.000Z</time>
      </trkpt>
      <trkpt lat="43.33494" lon="5.67997">
        <ele>456</ele>
        <time>2019-01-18T10:04:12.000Z</time>
      </trkpt>
      <trkpt lat="43.33495" lon="5.67998">
        <ele>456</ele>
        <time>2019-01-18T10:04:13.000Z</time>
      </trkpt>
      <trkpt lat="43.33495" lon="5.67998">
        <ele>456</ele>
        <time>2019-01-18T10:04:14.000Z</time>
      </trkpt>
      <trkpt lat="43.33495" lon="5.67998">
        <ele>456</ele>
        <time>2019-01-18T10:04:15.000Z</time>
      </trkpt>
      <trkpt lat="43.33495" lon="5.67998">
        <ele>456</ele>
        <time>2019-01-18T10:04:16.000Z</time>
      </trkpt>
      <trkpt lat="43.33495" lon="5.67998">
        <ele>456</ele>
        <time>2019-01-18T10:04:17.000Z</time>
      </trkpt>
      <trkpt lat="43.33495" lon="5.67998">
        <ele>456</ele>
        <time>2019-01-18T10:04:18.000Z</time>
      </trkpt>
      <trkpt lat="43.33495" lon="5.67999">
        <ele>456</ele>
        <time>2019-01-18T10:04:19.000Z</time>
      </trkpt>
      <trkpt lat="43.33495" lon="5.68">
        <ele>456</ele>
        <time>2019-01-18T10:04:20.000Z</time>
      </trkpt>
      <trkpt lat="43.33494" lon="5.68001">
        <ele>456</ele>
        <time>2019-01-18T10:04:21.000Z</time>
      </trkpt>
      <trkpt lat="43.33494" lon="5.68001">
        <ele>456</ele>
        <time>2019-01-18T10:04:22.000Z</time>
      </trkpt>
      <trkpt lat="43.33494" lon="5.68002">
        <ele>456</ele>
        <time>2019-01-18T10:04:23.000Z</time>
      </trkpt>
      <trkpt lat="43.33494" lon="5.68003">
        <ele>456</ele>
        <time>2019-01-18T10:04:24.000Z</time>
      </trkpt>
      <trkpt lat="43.33494" lon="5.68004">
        <ele>456</ele>
        <time>2019-01-18T10:04:25.000Z</time>
      </trkpt>
      <trkpt lat="43.33494" lon="5.68005">
        <ele>456</ele>
        <time>2019-01-18T10:04:26.000Z</time>
      </trkpt>
      <trkpt lat="43.33494" lon="5.68006">
        <ele>456</ele>
        <time>2019-01-18T10:04:27.000Z</time>
      </trkpt>
      <trkpt lat="43.33494" lon="5.68008">
        <ele>456</ele>
        <time>2019-01-18T10:04:28.000Z</time>
      </trkpt>
      <trkpt lat="43.33494" lon="5.68009">
        <ele>456</ele>
        <time>2019-01-18T10:04:29.000Z</time>
      </trkpt>
      <trkpt lat="43.33494" lon="5.6801">
        <ele>456</ele>
        <time>2019-01-18T10:04:30.000Z</time>
      </trkpt>
      <trkpt lat="43.33494" lon="5.68011">
        <ele>456</ele>
        <time>2019-01-18T10:04:31.000Z</time>
      </trkpt>
      <trkpt lat="43.33494" lon="5.68012">
        <ele>456</ele>
        <time>2019-01-18T10:04:32.000Z</time>
      </trkpt>
      <trkpt lat="43.33494" lon="5.68014">
        <ele>456</ele>
        <time>2019-01-18T10:04:33.000Z</time>
      </trkpt>
      <trkpt lat="43.33494" lon="5.68014">
        <ele>456</ele>
        <time>2019-01-18T10:04:34.000Z</time>
      </trkpt>
      <trkpt lat="43.33495" lon="5.68015">
        <ele>456</ele>
        <time>2019-01-18T10:04:35.000Z</time>
      </trkpt>
      <trkpt lat="43.33495" lon="5.68016">
        <ele>456</ele>
        <time>2019-01-18T10:04:36.000Z</time>
      </trkpt>
      <trkpt lat="43.33495" lon="5.68017">
        <ele>456</ele>
        <time>2019-01-18T10:04:37.000Z</time>
      </trkpt>
      <trkpt lat="43.33495" lon="5.68018">
        <ele>456</ele>
        <time>2019-01-18T10:04:38.000Z</time>
      </trkpt>
      <trkpt lat="43.33495" lon="5.68019">
        <ele>456</ele>
        <time>2019-01-18T10:04:39.000Z</time>
      </trkpt>
      <trkpt lat="43.33495" lon="5.6802">
        <ele>456</ele>
        <time>2019-01-18T10:04:40.000Z</time>
      </trkpt>
      <trkpt lat="43.33496" lon="5.6802">
        <ele>456</ele>
        <time>2019-01-18T10:04:41.000Z</time>
      </trkpt>
      <trkpt lat="43.33495" lon="5.68021">
        <ele>456</ele>
        <time>2019-01-18T10:04:42.000Z</time>
      </trkpt>
      <trkpt lat="43.33496" lon="5.68022">
        <ele>456</ele>
        <time>2019-01-18T10:04:43.000Z</time>
      </trkpt>
      <trkpt lat="43.33495" lon="5.68023">
        <ele>456</ele>
        <time>2019-01-18T10:04:44.000Z</time>
      </trkpt>
      <trkpt lat="43.33495" lon="5.68024">
        <ele>456</ele>
        <time>2019-01-18T10:04:45.000Z</time>
      </trkpt>
      <trkpt lat="43.33495" lon="5.68025">
        <ele>456</ele>
        <time>2019-01-18T10:04:46.000Z</time>
      </trkpt>
      <trkpt lat="43.33495" lon="5.68026">
        <ele>456</ele>
        <time>2019-01-18T10:04:47.000Z</time>
      </trkpt>
      <trkpt lat="43.33495" lon="5.68027">
        <ele>456</ele>
        <time>2019-01-18T10:04:48.000Z</time>
      </trkpt>
      <trkpt lat="43.33495" lon="5.68029">
        <ele>456</ele>
        <time>2019-01-18T10:04:49.000Z</time>
      </trkpt>
      <trkpt lat="43.33495" lon="5.68029">
        <ele>457</ele>
        <time>2019-01-18T10:04:50.000Z</time>
      </trkpt>
      <trkpt lat="43.33495" lon="5.68029">
        <ele>457</ele>
        <time>2019-01-18T10:04:51.000Z</time>
      </trkpt>
      <trkpt lat="43.33495" lon="5.68029">
        <ele>456</ele>
        <time>2019-01-18T10:04:52.000Z</time>
      </trkpt>
      <trkpt lat="43.33495" lon="5.68029">
        <ele>456</ele>
        <time>2019-01-18T10:04:53.000Z</time>
      </trkpt>
      <trkpt lat="43.33495" lon="5.68029">
        <ele>456</ele>
        <time>2019-01-18T10:04:54.000Z</time>
      </trkpt>
      <trkpt lat="43.33496" lon="5.6803">
        <ele>456</ele>
        <time>2019-01-18T10:04:55.000Z</time>
      </trkpt>
      <trkpt lat="43.33496" lon="5.6803">
        <ele>456</ele>
        <time>2019-01-18T10:04:56.000Z</time>
      </trkpt>
      <trkpt lat="43.33496" lon="5.68031">
        <ele>457</ele>
        <time>2019-01-18T10:04:57.000Z</time>
      </trkpt>
      <trkpt lat="43.33496" lon="5.68033">
        <ele>457</ele>
        <time>2019-01-18T10:04:58.000Z</time>
      </trkpt>
      <trkpt lat="43.33496" lon="5.68034">
        <ele>457</ele>
        <time>2019-01-18T10:04:59.000Z</time>
      </trkpt>
      <trkpt lat="43.33496" lon="5.68035">
        <ele>457</ele>
        <time>2019-01-18T10:05:00.000Z</time>
      </trkpt>
      <trkpt lat="43.33496" lon="5.68035">
        <ele>457</ele>
        <time>2019-01-18T10:05:01.000Z</time>
      </trkpt>
      <trkpt lat="43.33495" lon="5.68036">
        <ele>457</ele>
        <time>2019-01-18T10:05:02.000Z</time>
      </trkpt>
      <trkpt lat="43.33495" lon="5.68037">
        <ele>457</ele>
        <time>2019-01-18T10:05:03.000Z</time>
      </trkpt>
      <trkpt lat="43.33495" lon="5.68038">
        <ele>457</ele>
        <time>2019-01-18T10:05:04.000Z</time>
      </trkpt>
      <trkpt lat="43.33495" lon="5.68038">
        <ele>457</ele>
        <time>2019-01-18T10:05:05.000Z</time>
      </trkpt>
      <trkpt lat="43.33494" lon="5.68039">
        <ele>457</ele>
        <time>2019-01-18T10:05:06.000Z</time>
      </trkpt>
      <trkpt lat="43.33494" lon="5.6804">
        <ele>457</ele>
        <time>2019-01-18T10:05:07.000Z</time>
      </trkpt>
      <trkpt lat="43.33493" lon="5.68041">
        <ele>457</ele>
        <time>2019-01-18T10:05:08.000Z</time>
      </trkpt>
      <trkpt lat="43.33493" lon="5.68043">
        <ele>457</ele>
        <time>2019-01-18T10:05:09.000Z</time>
      </trkpt>
      <trkpt lat="43.33493" lon="5.68044">
        <ele>457</ele>
        <time>2019-01-18T10:05:10.000Z</time>
      </trkpt>
      <trkpt lat="43.33493" lon="5.68044">
        <ele>458</ele>
        <time>2019-01-18T10:05:11.000Z</time>
      </trkpt>
      <trkpt lat="43.33493" lon="5.68045">
        <ele>458</ele>
        <time>2019-01-18T10:05:12.000Z</time>
      </trkpt>
      <trkpt lat="43.33492" lon="5.68047">
        <ele>458</ele>
        <time>2019-01-18T10:05:13.000Z</time>
      </trkpt>
      <trkpt lat="43.33492" lon="5.68048">
        <ele>458</ele>
        <time>2019-01-18T10:05:14.000Z</time>
      </trkpt>
      <trkpt lat="43.33492" lon="5.68048">
        <ele>458</ele>
        <time>2019-01-18T10:05:15.000Z</time>
      </trkpt>
      <trkpt lat="43.33492" lon="5.68049">
        <ele>458</ele>
        <time>2019-01-18T10:05:16.000Z</time>
      </trkpt>
      <trkpt lat="43.33491" lon="5.6805">
        <ele>458</ele>
        <time>2019-01-18T10:05:17.000Z</time>
      </trkpt>
      <trkpt lat="43.33491" lon="5.68051">
        <ele>458</ele>
        <time>2019-01-18T10:05:18.000Z</time>
      </trkpt>
      <trkpt lat="43.33491" lon="5.68051">
        <ele>458</ele>
        <time>2019-01-18T10:05:19.000Z</time>
      </trkpt>
      <trkpt lat="43.33491" lon="5.68052">
        <ele>458</ele>
        <time>2019-01-18T10:05:20.000Z</time>
      </trkpt>
      <trkpt lat="43.33491" lon="5.68053">
        <ele>458</ele>
        <time>2019-01-18T10:05:21.000Z</time>
      </trkpt>
      <trkpt lat="43.33491" lon="5.68054">
        <ele>458</ele>
        <time>2019-01-18T10:05:22.000Z</time>
      </trkpt>
      <trkpt lat="43.33492" lon="5.68054">
        <ele>459</ele>
        <time>2019-01-18T10:05:23.000Z</time>
      </trkpt>
      <trkpt lat="43.33492" lon="5.68055">
        <ele>459</ele>
        <time>2019-01-18T10:05:24.000Z</time>
      </trkpt>
      <trkpt lat="43.33492" lon="5.68056">
        <ele>459</ele>
        <time>2019-01-18T10:05:25.000Z</time>
      </trkpt>
      <trkpt lat="43.33492" lon="5.68056">
        <ele>459</ele>
        <time>2019-01-18T10:05:26.000Z</time>
      </trkpt>
      <trkpt lat="43.33492" lon="5.68057">
        <ele>459</ele>
        <time>2019-01-18T10:05:27.000Z</time>
      </trkpt>
      <trkpt lat="43.33492" lon="5.68057">
        <ele>459</ele>
        <time>2019-01-18T10:05:28.000Z</time>
      </trkpt>
      <trkpt lat="43.33492" lon="5.68058">
        <ele>459</ele>
        <time>2019-01-18T10:05:29.000Z</time>
      </trkpt>
      <trkpt lat="43.33492" lon="5.68059">
        <ele>459</ele>
        <time>2019-01-18T10:05:30.000Z</time>
      </trkpt>
      <trkpt lat="43.33492" lon="5.68059">
        <ele>459</ele>
        <time>2019-01-18T10:05:31.000Z</time>
      </trkpt>
      <trkpt lat="43.33493" lon="5.6806">
        <ele>459</ele>
        <time>2019-01-18T10:05:32.000Z</time>
      </trkpt>
      <trkpt lat="43.33493" lon="5.68061">
        <ele>459</ele>
        <time>2019-01-18T10:05:33.000Z</time>
      </trkpt>
      <trkpt lat="43.33493" lon="5.68062">
        <ele>460</ele>
        <time>2019-01-18T10:05:34.000Z</time>
      </trkpt>
      <trkpt lat="43.33493" lon="5.68062">
        <ele>460</ele>
        <time>2019-01-18T10:05:35.000Z</time>
      </trkpt>
      <trkpt lat="43.33493" lon="5.68062">
        <ele>460</ele>
        <time>2019-01-18T10:05:36.000Z</time>
      </trkpt>
      <trkpt lat="43.33493" lon="5.68062">
        <ele>460</ele>
        <time>2019-01-18T10:05:37.000Z</time>
      </trkpt>
      <trkpt lat="43.33493" lon="5.68063">
        <ele>460</ele>
        <time>2019-01-18T10:05:38.000Z</time>
      </trkpt>
      <trkpt lat="43.33494" lon="5.68063">
        <ele>460</ele>
        <time>2019-01-18T10:05:39.000Z</time>
      </trkpt>
      <trkpt lat="43.33494" lon="5.68064">
        <ele>460</ele>
        <time>2019-01-18T10:05:40.000Z</time>
      </trkpt>
      <trkpt lat="43.33494" lon="5.68064">
        <ele>460</ele>
        <time>2019-01-18T10:05:41.000Z</time>
      </trkpt>
      <trkpt lat="43.33494" lon="5.68064">
        <ele>460</ele>
        <time>2019-01-18T10:05:42.000Z</time>
      </trkpt>
      <trkpt lat="43.33495" lon="5.68065">
        <ele>460</ele>
        <time>2019-01-18T10:05:43.000Z</time>
      </trkpt>
      <trkpt lat="43.33495" lon="5.68065">
        <ele>461</ele>
        <time>2019-01-18T10:05:44.000Z</time>
      </trkpt>
      <trkpt lat="43.33495" lon="5.68065">
        <ele>461</ele>
        <time>2019-01-18T10:05:45.000Z</time>
      </trkpt>
      <trkpt lat="43.33495" lon="5.68065">
        <ele>461</ele>
        <time>2019-01-18T10:05:46.000Z</time>
      </trkpt>
      <trkpt lat="43.33495" lon="5.68066">
        <ele>461</ele>
        <time>2019-01-18T10:05:47.000Z</time>
      </trkpt>
      <trkpt lat="43.33495" lon="5.68066">
        <ele>461</ele>
        <time>2019-01-18T10:05:48.000Z</time>
      </trkpt>
      <trkpt lat="43.33495" lon="5.68066">
        <ele>461</ele>
        <time>2019-01-18T10:05:49.000Z</time>
      </trkpt>
      <trkpt lat="43.33495" lon="5.68066">
        <ele>461</ele>
        <time>2019-01-18T10:05:50.000Z</time>
      </trkpt>
      <trkpt lat="43.33496" lon="5.68067">
        <ele>461</ele>
        <time>2019-01-18T10:05:51.000Z</time>
      </trkpt>
      <trkpt lat="43.33496" lon="5.68068">
        <ele>461</ele>
        <time>2019-01-18T10:05:52.000Z</time>
      </trkpt>
      <trkpt lat="43.33497" lon="5.68068">
        <ele>461</ele>
        <time>2019-01-18T10:05:53.000Z</time>
      </trkpt>
      <trkpt lat="43.33497" lon="5.68069">
        <ele>461</ele>
        <time>2019-01-18T10:05:54.000Z</time>
      </trkpt>
      <trkpt lat="43.33498" lon="5.68069">
        <ele>461</ele>
        <time>2019-01-18T10:05:55.000Z</time>
      </trkpt>
      <trkpt lat="43.33498" lon="5.6807">
        <ele>461</ele>
        <time>2019-01-18T10:05:56.000Z</time>
      </trkpt>
      <trkpt lat="43.33498" lon="5.68071">
        <ele>461</ele>
        <time>2019-01-18T10:05:57.000Z</time>
      </trkpt>
      <trkpt lat="43.33499" lon="5.68071">
        <ele>461</ele>
        <time>2019-01-18T10:05:58.000Z</time>
      </trkpt>
      <trkpt lat="43.335" lon="5.68072">
        <ele>461</ele>
        <time>2019-01-18T10:05:59.000Z</time>
      </trkpt>
      <trkpt lat="43.335" lon="5.68073">
        <ele>461</ele>
        <time>2019-01-18T10:06:00.000Z</time>
      </trkpt>
      <trkpt lat="43.335" lon="5.68073">
        <ele>461</ele>
        <time>2019-01-18T10:06:01.000Z</time>
      </trkpt>
      <trkpt lat="43.335" lon="5.68073">
        <ele>461</ele>
        <time>2019-01-18T10:06:02.000Z</time>
      </trkpt>
      <trkpt lat="43.335" lon="5.68073">
        <ele>461</ele>
        <time>2019-01-18T10:06:03.000Z</time>
      </trkpt>
      <trkpt lat="43.33501" lon="5.68074">
        <ele>461</ele>
        <time>2019-01-18T10:06:04.000Z</time>
      </trkpt>
      <trkpt lat="43.33501" lon="5.68075">
        <ele>461</ele>
        <time>2019-01-18T10:06:05.000Z</time>
      </trkpt>
      <trkpt lat="43.33502" lon="5.68075">
        <ele>462</ele>
        <time>2019-01-18T10:06:06.000Z</time>
      </trkpt>
      <trkpt lat="43.33502" lon="5.68076">
        <ele>462</ele>
        <time>2019-01-18T10:06:07.000Z</time>
      </trkpt>
      <trkpt lat="43.33502" lon="5.68076">
        <ele>462</ele>
        <time>2019-01-18T10:06:08.000Z</time>
      </trkpt>
      <trkpt lat="43.33502" lon="5.68077">
        <ele>462</ele>
        <time>2019-01-18T10:06:09.000Z</time>
      </trkpt>
      <trkpt lat="43.33502" lon="5.68077">
        <ele>462</ele>
        <time>2019-01-18T10:06:10.000Z</time>
      </trkpt>
      <trkpt lat="43.33502" lon="5.68077">
        <ele>462</ele>
        <time>2019-01-18T10:06:11.000Z</time>
      </trkpt>
      <trkpt lat="43.33502" lon="5.68077">
        <ele>462</ele>
        <time>2019-01-18T10:06:12.000Z</time>
      </trkpt>
      <trkpt lat="43.33502" lon="5.68077">
        <ele>462</ele>
        <time>2019-01-18T10:06:13.000Z</time>
      </trkpt>
      <trkpt lat="43.33502" lon="5.68077">
        <ele>462</ele>
        <time>2019-01-18T10:06:14.000Z</time>
      </trkpt>
      <trkpt lat="43.33502" lon="5.68078">
        <ele>462</ele>
        <time>2019-01-18T10:06:15.000Z</time>
      </trkpt>
      <trkpt lat="43.33502" lon="5.68078">
        <ele>462</ele>
        <time>2019-01-18T10:06:16.000Z</time>
      </trkpt>
      <trkpt lat="43.33502" lon="5.68078">
        <ele>462</ele>
        <time>2019-01-18T10:06:17.000Z</time>
      </trkpt>
      <trkpt lat="43.33502" lon="5.68078">
        <ele>462</ele>
        <time>2019-01-18T10:06:18.000Z</time>
      </trkpt>
      <trkpt lat="43.33502" lon="5.68078">
        <ele>462</ele>
        <time>2019-01-18T10:06:19.000Z</time>
      </trkpt>
      <trkpt lat="43.33502" lon="5.68078">
        <ele>462</ele>
        <time>2019-01-18T10:06:20.000Z</time>
      </trkpt>
      <trkpt lat="43.33502" lon="5.68078">
        <ele>462</ele>
        <time>2019-01-18T10:06:21.000Z</time>
      </trkpt>
      <trkpt lat="43.33503" lon="5.68078">
        <ele>462</ele>
        <time>2019-01-18T10:06:22.000Z</time>
      </trkpt>
      <trkpt lat="43.33503" lon="5.68078">
        <ele>462</ele>
        <time>2019-01-18T10:06:23.000Z</time>
      </trkpt>
      <trkpt lat="43.33503" lon="5.68078">
        <ele>462</ele>
        <time>2019-01-18T10:06:24.000Z</time>
      </trkpt>
      <trkpt lat="43.33503" lon="5.68078">
        <ele>462</ele>
        <time>2019-01-18T10:06:25.000Z</time>
      </trkpt>
      <trkpt lat="43.33503" lon="5.68078">
        <ele>462</ele>
        <time>2019-01-18T10:06:26.000Z</time>
      </trkpt>
      <trkpt lat="43.33503" lon="5.68078">
        <ele>462</ele>
        <time>2019-01-18T10:06:27.000Z</time>
      </trkpt>
      <trkpt lat="43.33503" lon="5.68078">
        <ele>462</ele>
        <time>2019-01-18T10:06:28.000Z</time>
      </trkpt>
      <trkpt lat="43.33503" lon="5.68078">
        <ele>462</ele>
        <time>2019-01-18T10:06:29.000Z</time>
      </trkpt>
      <trkpt lat="43.33503" lon="5.68078">
        <ele>462</ele>
        <time>2019-01-18T10:06:30.000Z</time>
      </trkpt>
      <trkpt lat="43.33503" lon="5.68078">
        <ele>461</ele>
        <time>2019-01-18T10:06:31.000Z</time>
      </trkpt>
      <trkpt lat="43.33503" lon="5.68079">
        <ele>461</ele>
        <time>2019-01-18T10:06:32.000Z</time>
      </trkpt>
      <trkpt lat="43.33503" lon="5.68079">
        <ele>461</ele>
        <time>2019-01-18T10:06:33.000Z</time>
      </trkpt>
      <trkpt lat="43.33503" lon="5.68079">
        <ele>461</ele>
        <time>2019-01-18T10:06:34.000Z</time>
      </trkpt>
      <trkpt lat="43.33503" lon="5.68079">
        <ele>461</ele>
        <time>2019-01-18T10:06:35.000Z</time>
      </trkpt>
      <trkpt lat="43.33503" lon="5.6808">
        <ele>461</ele>
        <time>2019-01-18T10:06:36.000Z</time>
      </trkpt>
      <trkpt lat="43.33503" lon="5.68081">
        <ele>461</ele>
        <time>2019-01-18T10:06:37.000Z</time>
      </trkpt>
      <trkpt lat="43.33504" lon="5.68081">
        <ele>461</ele>
        <time>2019-01-18T10:06:38.000Z</time>
      </trkpt>
      <trkpt lat="43.33504" lon="5.68082">
        <ele>461</ele>
        <time>2019-01-18T10:06:39.000Z</time>
      </trkpt>
      <trkpt lat="43.33504" lon="5.68082">
        <ele>461</ele>
        <time>2019-01-18T10:06:40.000Z</time>
      </trkpt>
      <trkpt lat="43.33504" lon="5.68082">
        <ele>461</ele>
        <time>2019-01-18T10:06:41.000Z</time>
      </trkpt>
      <trkpt lat="43.33505" lon="5.68082">
        <ele>461</ele>
        <time>2019-01-18T10:06:42.000Z</time>
      </trkpt>
      <trkpt lat="43.33505" lon="5.68082">
        <ele>461</ele>
        <time>2019-01-18T10:06:43.000Z</time>
      </trkpt>
      <trkpt lat="43.33505" lon="5.68082">
        <ele>461</ele>
        <time>2019-01-18T10:06:44.000Z</time>
      </trkpt>
      <trkpt lat="43.33505" lon="5.68083">
        <ele>461</ele>
        <time>2019-01-18T10:06:45.000Z</time>
      </trkpt>
      <trkpt lat="43.33505" lon="5.68084">
        <ele>461</ele>
        <time>2019-01-18T10:06:46.000Z</time>
      </trkpt>
      <trkpt lat="43.33506" lon="5.68084">
        <ele>461</ele>
        <time>2019-01-18T10:06:47.000Z</time>
      </trkpt>
      <trkpt lat="43.33506" lon="5.68084">
        <ele>461</ele>
        <time>2019-01-18T10:06:48.000Z</time>
      </trkpt>
      <trkpt lat="43.33506" lon="5.68085">
        <ele>461</ele>
        <time>2019-01-18T10:06:49.000Z</time>
      </trkpt>
      <trkpt lat="43.33506" lon="5.68086">
        <ele>461</ele>
        <time>2019-01-18T10:06:50.000Z</time>
      </trkpt>
      <trkpt lat="43.33506" lon="5.68086">
        <ele>461</ele>
        <time>2019-01-18T10:06:51.000Z</time>
      </trkpt>
      <trkpt lat="43.33507" lon="5.68086">
        <ele>461</ele>
        <time>2019-01-18T10:06:52.000Z</time>
      </trkpt>
      <trkpt lat="43.33508" lon="5.68085">
        <ele>461</ele>
        <time>2019-01-18T10:06:53.000Z</time>
      </trkpt>
      <trkpt lat="43.33509" lon="5.68085">
        <ele>461</ele>
        <time>2019-01-18T10:06:54.000Z</time>
      </trkpt>
      <trkpt lat="43.3351" lon="5.68085">
        <ele>461</ele>
        <time>2019-01-18T10:06:55.000Z</time>
      </trkpt>
      <trkpt lat="43.33511" lon="5.68086">
        <ele>461</ele>
        <time>2019-01-18T10:06:56.000Z</time>
      </trkpt>
      <trkpt lat="43.33511" lon="5.68086">
        <ele>461</ele>
        <time>2019-01-18T10:06:57.000Z</time>
      </trkpt>
      <trkpt lat="43.33512" lon="5.68087">
        <ele>461</ele>
        <time>2019-01-18T10:06:58.000Z</time>
      </trkpt>
      <trkpt lat="43.33513" lon="5.68087">
        <ele>461</ele>
        <time>2019-01-18T10:06:59.000Z</time>
      </trkpt>
      <trkpt lat="43.33513" lon="5.68087">
        <ele>461</ele>
        <time>2019-01-18T10:07:00.000Z</time>
      </trkpt>
      <trkpt lat="43.33514" lon="5.68087">
        <ele>461</ele>
        <time>2019-01-18T10:07:01.000Z</time>
      </trkpt>
      <trkpt lat="43.33514" lon="5.68088">
        <ele>461</ele>
        <time>2019-01-18T10:07:02.000Z</time>
      </trkpt>
      <trkpt lat="43.33515" lon="5.68088">
        <ele>461</ele>
        <time>2019-01-18T10:07:03.000Z</time>
      </trkpt>
      <trkpt lat="43.33515" lon="5.68089">
        <ele>461</ele>
        <time>2019-01-18T10:07:04.000Z</time>
      </trkpt>
      <trkpt lat="43.33516" lon="5.6809">
        <ele>461</ele>
        <time>2019-01-18T10:07:05.000Z</time>
      </trkpt>
      <trkpt lat="43.33517" lon="5.68091">
        <ele>461</ele>
        <time>2019-01-18T10:07:06.000Z</time>
      </trkpt>
      <trkpt lat="43.33517" lon="5.68092">
        <ele>461</ele>
        <time>2019-01-18T10:07:07.000Z</time>
      </trkpt>
      <trkpt lat="43.33518" lon="5.68093">
        <ele>461</ele>
        <time>2019-01-18T10:07:08.000Z</time>
      </trkpt>
      <trkpt lat="43.33519" lon="5.68095">
        <ele>461</ele>
        <time>2019-01-18T10:07:09.000Z</time>
      </trkpt>
      <trkpt lat="43.33519" lon="5.68095">
        <ele>461</ele>
        <time>2019-01-18T10:07:10.000Z</time>
      </trkpt>
      <trkpt lat="43.3352" lon="5.68096">
        <ele>461</ele>
        <time>2019-01-18T10:07:11.000Z</time>
      </trkpt>
      <trkpt lat="43.33521" lon="5.68097">
        <ele>461</ele>
        <time>2019-01-18T10:07:12.000Z</time>
      </trkpt>
      <trkpt lat="43.33522" lon="5.68098">
        <ele>461</ele>
        <time>2019-01-18T10:07:13.000Z</time>
      </trkpt>
      <trkpt lat="43.33522" lon="5.68099">
        <ele>461</ele>
        <time>2019-01-18T10:07:14.000Z</time>
      </trkpt>
      <trkpt lat="43.33523" lon="5.68099">
        <ele>461</ele>
        <time>2019-01-18T10:07:15.000Z</time>
      </trkpt>
      <trkpt lat="43.33523" lon="5.681">
        <ele>461</ele>
        <time>2019-01-18T10:07:16.000Z</time>
      </trkpt>
      <trkpt lat="43.33524" lon="5.681">
        <ele>461</ele>
        <time>2019-01-18T10:07:17.000Z</time>
      </trkpt>
      <trkpt lat="43.33525" lon="5.68101">
        <ele>462</ele>
        <time>2019-01-18T10:07:18.000Z</time>
      </trkpt>
      <trkpt lat="43.33526" lon="5.68101">
        <ele>462</ele>
        <time>2019-01-18T10:07:19.000Z</time>
      </trkpt>
      <trkpt lat="43.33526" lon="5.68102">
        <ele>462</ele>
        <time>2019-01-18T10:07:20.000Z</time>
      </trkpt>
      <trkpt lat="43.33527" lon="5.68102">
        <ele>462</ele>
        <time>2019-01-18T10:07:21.000Z</time>
      </trkpt>
      <trkpt lat="43.33527" lon="5.68103">
        <ele>461</ele>
        <time>2019-01-18T10:07:22.000Z</time>
      </trkpt>
      <trkpt lat="43.33528" lon="5.68103">
        <ele>461</ele>
        <time>2019-01-18T10:07:23.000Z</time>
      </trkpt>
      <trkpt lat="43.33529" lon="5.68104">
        <ele>461</ele>
        <time>2019-01-18T10:07:24.000Z</time>
      </trkpt>
      <trkpt lat="43.33529" lon="5.68105">
        <ele>461</ele>
        <time>2019-01-18T10:07:25.000Z</time>
      </trkpt>
      <trkpt lat="43.3353" lon="5.68106">
        <ele>461</ele>
        <time>2019-01-18T10:07:26.000Z</time>
      </trkpt>
      <trkpt lat="43.33531" lon="5.68106">
        <ele>462</ele>
        <time>2019-01-18T10:07:27.000Z</time>
      </trkpt>
      <trkpt lat="43.33531" lon="5.68107">
        <ele>462</ele>
        <time>2019-01-18T10:07:28.000Z</time>
      </trkpt>
      <trkpt lat="43.33532" lon="5.68108">
        <ele>462</ele>
        <time>2019-01-18T10:07:29.000Z</time>
      </trkpt>
      <trkpt lat="43.33532" lon="5.68109">
        <ele>462</ele>
        <time>2019-01-18T10:07:30.000Z</time>
      </trkpt>
      <trkpt lat="43.33533" lon="5.68109">
        <ele>462</ele>
        <time>2019-01-18T10:07:31.000Z</time>
      </trkpt>
      <trkpt lat="43.33533" lon="5.6811">
        <ele>462</ele>
        <time>2019-01-18T10:07:32.000Z</time>
      </trkpt>
      <trkpt lat="43.33534" lon="5.68111">
        <ele>462</ele>
        <time>2019-01-18T10:07:33.000Z</time>
      </trkpt>
      <trkpt lat="43.33534" lon="5.68112">
        <ele>462</ele>
        <time>2019-01-18T10:07:34.000Z</time>
      </trkpt>
      <trkpt lat="43.33534" lon="5.68112">
        <ele>462</ele>
        <time>2019-01-18T10:07:35.000Z</time>
      </trkpt>
      <trkpt lat="43.33535" lon="5.68113">
        <ele>462</ele>
        <time>2019-01-18T10:07:36.000Z</time>
      </trkpt>
      <trkpt lat="43.33535" lon="5.68114">
        <ele>462</ele>
        <time>2019-01-18T10:07:37.000Z</time>
      </trkpt>
      <trkpt lat="43.33536" lon="5.68114">
        <ele>462</ele>
        <time>2019-01-18T10:07:38.000Z</time>
      </trkpt>
      <trkpt lat="43.33537" lon="5.68115">
        <ele>462</ele>
        <time>2019-01-18T10:07:39.000Z</time>
      </trkpt>
      <trkpt lat="43.33537" lon="5.68116">
        <ele>462</ele>
        <time>2019-01-18T10:07:40.000Z</time>
      </trkpt>
      <trkpt lat="43.33538" lon="5.68116">
        <ele>462</ele>
        <time>2019-01-18T10:07:41.000Z</time>
      </trkpt>
      <trkpt lat="43.33539" lon="5.68117">
        <ele>462</ele>
        <time>2019-01-18T10:07:42.000Z</time>
      </trkpt>
      <trkpt lat="43.33539" lon="5.68116">
        <ele>462</ele>
        <time>2019-01-18T10:07:43.000Z</time>
      </trkpt>
      <trkpt lat="43.3354" lon="5.68116">
        <ele>462</ele>
        <time>2019-01-18T10:07:44.000Z</time>
      </trkpt>
      <trkpt lat="43.3354" lon="5.68117">
        <ele>463</ele>
        <time>2019-01-18T10:07:45.000Z</time>
      </trkpt>
      <trkpt lat="43.3354" lon="5.68116">
        <ele>463</ele>
        <time>2019-01-18T10:07:46.000Z</time>
      </trkpt>
      <trkpt lat="43.3354" lon="5.68116">
        <ele>463</ele>
        <time>2019-01-18T10:07:47.000Z</time>
      </trkpt>
      <trkpt lat="43.3354" lon="5.68116">
        <ele>463</ele>
        <time>2019-01-18T10:07:48.000Z</time>
      </trkpt>
      <trkpt lat="43.33541" lon="5.68116">
        <ele>463</ele>
        <time>2019-01-18T10:07:49.000Z</time>
      </trkpt>
      <trkpt lat="43.33541" lon="5.68116">
        <ele>463</ele>
        <time>2019-01-18T10:07:50.000Z</time>
      </trkpt>
      <trkpt lat="43.33541" lon="5.68116">
        <ele>463</ele>
        <time>2019-01-18T10:07:51.000Z</time>
      </trkpt>
      <trkpt lat="43.33541" lon="5.68116">
        <ele>463</ele>
        <time>2019-01-18T10:07:52.000Z</time>
      </trkpt>
      <trkpt lat="43.33541" lon="5.68117">
        <ele>464</ele>
        <time>2019-01-18T10:07:53.000Z</time>
      </trkpt>
      <trkpt lat="43.33542" lon="5.68118">
        <ele>464</ele>
        <time>2019-01-18T10:07:54.000Z</time>
      </trkpt>
      <trkpt lat="43.33542" lon="5.68118">
        <ele>464</ele>
        <time>2019-01-18T10:07:55.000Z</time>
      </trkpt>
      <trkpt lat="43.33543" lon="5.68119">
        <ele>464</ele>
        <time>2019-01-18T10:07:56.000Z</time>
      </trkpt>
      <trkpt lat="43.33543" lon="5.68119">
        <ele>464</ele>
        <time>2019-01-18T10:07:57.000Z</time>
      </trkpt>
      <trkpt lat="43.33544" lon="5.6812">
        <ele>464</ele>
        <time>2019-01-18T10:07:58.000Z</time>
      </trkpt>
      <trkpt lat="43.33544" lon="5.6812">
        <ele>464</ele>
        <time>2019-01-18T10:07:59.000Z</time>
      </trkpt>
      <trkpt lat="43.33545" lon="5.68121">
        <ele>464</ele>
        <time>2019-01-18T10:08:00.000Z</time>
      </trkpt>
      <trkpt lat="43.33545" lon="5.68121">
        <ele>464</ele>
        <time>2019-01-18T10:08:01.000Z</time>
      </trkpt>
      <trkpt lat="43.33545" lon="5.68121">
        <ele>464</ele>
        <time>2019-01-18T10:08:02.000Z</time>
      </trkpt>
      <trkpt lat="43.33545" lon="5.68121">
        <ele>464</ele>
        <time>2019-01-18T10:08:03.000Z</time>
      </trkpt>
      <trkpt lat="43.33545" lon="5.68121">
        <ele>464</ele>
        <time>2019-01-18T10:08:04.000Z</time>
      </trkpt>
      <trkpt lat="43.33545" lon="5.68121">
        <ele>464</ele>
        <time>2019-01-18T10:08:05.000Z</time>
      </trkpt>
      <trkpt lat="43.33545" lon="5.68121">
        <ele>464</ele>
        <time>2019-01-18T10:08:06.000Z</time>
      </trkpt>
      <trkpt lat="43.33545" lon="5.68121">
        <ele>464</ele>
        <time>2019-01-18T10:08:07.000Z</time>
      </trkpt>
      <trkpt lat="43.33545" lon="5.68121">
        <ele>464</ele>
        <time>2019-01-18T10:08:08.000Z</time>
      </trkpt>
      <trkpt lat="43.33546" lon="5.68122">
        <ele>464</ele>
        <time>2019-01-18T10:08:09.000Z</time>
      </trkpt>
      <trkpt lat="43.33546" lon="5.68123">
        <ele>464</ele>
        <time>2019-01-18T10:08:10.000Z</time>
      </trkpt>
      <trkpt lat="43.33546" lon="5.68123">
        <ele>464</ele>
        <time>2019-01-18T10:08:11.000Z</time>
      </trkpt>
      <trkpt lat="43.33546" lon="5.68124">
        <ele>464</ele>
        <time>2019-01-18T10:08:12.000Z</time>
      </trkpt>
      <trkpt lat="43.33546" lon="5.68124">
        <ele>464</ele>
        <time>2019-01-18T10:08:13.000Z</time>
      </trkpt>
      <trkpt lat="43.33546" lon="5.68125">
        <ele>464</ele>
        <time>2019-01-18T10:08:14.000Z</time>
      </trkpt>
      <trkpt lat="43.33546" lon="5.68125">
        <ele>464</ele>
        <time>2019-01-18T10:08:15.000Z</time>
      </trkpt>
      <trkpt lat="43.33546" lon="5.68125">
        <ele>464</ele>
        <time>2019-01-18T10:08:16.000Z</time>
      </trkpt>
      <trkpt lat="43.33546" lon="5.68126">
        <ele>464</ele>
        <time>2019-01-18T10:08:17.000Z</time>
      </trkpt>
      <trkpt lat="43.33546" lon="5.68127">
        <ele>464</ele>
        <time>2019-01-18T10:08:18.000Z</time>
      </trkpt>
      <trkpt lat="43.33547" lon="5.68128">
        <ele>464</ele>
        <time>2019-01-18T10:08:19.000Z</time>
      </trkpt>
      <trkpt lat="43.33547" lon="5.68128">
        <ele>464</ele>
        <time>2019-01-18T10:08:20.000Z</time>
      </trkpt>
      <trkpt lat="43.33547" lon="5.68127">
        <ele>464</ele>
        <time>2019-01-18T10:08:21.000Z</time>
      </trkpt>
      <trkpt lat="43.33546" lon="5.68127">
        <ele>464</ele>
        <time>2019-01-18T10:08:22.000Z</time>
      </trkpt>
      <trkpt lat="43.33547" lon="5.68128">
        <ele>464</ele>
        <time>2019-01-18T10:08:23.000Z</time>
      </trkpt>
      <trkpt lat="43.33547" lon="5.68128">
        <ele>464</ele>
        <time>2019-01-18T10:08:24.000Z</time>
      </trkpt>
      <trkpt lat="43.33547" lon="5.68128">
        <ele>464</ele>
        <time>2019-01-18T10:08:25.000Z</time>
      </trkpt>
      <trkpt lat="43.33547" lon="5.68128">
        <ele>464</ele>
        <time>2019-01-18T10:08:26.000Z</time>
      </trkpt>
      <trkpt lat="43.33547" lon="5.68128">
        <ele>464</ele>
        <time>2019-01-18T10:08:27.000Z</time>
      </trkpt>
      <trkpt lat="43.33547" lon="5.68128">
        <ele>464</ele>
        <time>2019-01-18T10:08:28.000Z</time>
      </trkpt>
      <trkpt lat="43.33547" lon="5.68128">
        <ele>464</ele>
        <time>2019-01-18T10:08:29.000Z</time>
      </trkpt>
      <trkpt lat="43.33547" lon="5.68128">
        <ele>464</ele>
        <time>2019-01-18T10:08:30.000Z</time>
      </trkpt>
      <trkpt lat="43.33547" lon="5.68128">
        <ele>464</ele>
        <time>2019-01-18T10:08:31.000Z</time>
      </trkpt>
      <trkpt lat="43.33547" lon="5.68128">
        <ele>464</ele>
        <time>2019-01-18T10:08:32.000Z</time>
      </trkpt>
      <trkpt lat="43.33547" lon="5.68128">
        <ele>464</ele>
        <time>2019-01-18T10:08:33.000Z</time>
      </trkpt>
      <trkpt lat="43.33547" lon="5.68128">
        <ele>464</ele>
        <time>2019-01-18T10:08:34.000Z</time>
      </trkpt>
      <trkpt lat="43.33547" lon="5.68128">
        <ele>464</ele>
        <time>2019-01-18T10:08:35.000Z</time>
      </trkpt>
      <trkpt lat="43.33547" lon="5.68128">
        <ele>464</ele>
        <time>2019-01-18T10:08:36.000Z</time>
      </trkpt>
      <trkpt lat="43.33547" lon="5.68128">
        <ele>464</ele>
        <time>2019-01-18T10:08:37.000Z</time>
      </trkpt>
      <trkpt lat="43.33547" lon="5.68128">
        <ele>464</ele>
        <time>2019-01-18T10:08:38.000Z</time>
      </trkpt>
      <trkpt lat="43.33547" lon="5.68128">
        <ele>464</ele>
        <time>2019-01-18T10:08:39.000Z</time>
      </trkpt>
      <trkpt lat="43.33547" lon="5.68128">
        <ele>464</ele>
        <time>2019-01-18T10:08:40.000Z</time>
      </trkpt>
      <trkpt lat="43.33547" lon="5.68128">
        <ele>464</ele>
        <time>2019-01-18T10:08:41.000Z</time>
      </trkpt>
      <trkpt lat="43.33547" lon="5.68128">
        <ele>464</ele>
        <time>2019-01-18T10:08:42.000Z</time>
      </trkpt>
      <trkpt lat="43.33547" lon="5.68128">
        <ele>464</ele>
        <time>2019-01-18T10:08:43.000Z</time>
      </trkpt>
      <trkpt lat="43.33547" lon="5.68128">
        <ele>464</ele>
        <time>2019-01-18T10:08:44.000Z</time>
      </trkpt>
      <trkpt lat="43.33547" lon="5.68128">
        <ele>464</ele>
        <time>2019-01-18T10:08:45.000Z</time>
      </trkpt>
      <trkpt lat="43.33547" lon="5.68129">
        <ele>464</ele>
        <time>2019-01-18T10:08:46.000Z</time>
      </trkpt>
      <trkpt lat="43.33547" lon="5.68129">
        <ele>464</ele>
        <time>2019-01-18T10:08:47.000Z</time>
      </trkpt>
      <trkpt lat="43.33548" lon="5.68129">
        <ele>464</ele>
        <time>2019-01-18T10:08:48.000Z</time>
      </trkpt>
      <trkpt lat="43.33548" lon="5.6813">
        <ele>464</ele>
        <time>2019-01-18T10:08:49.000Z</time>
      </trkpt>
      <trkpt lat="43.33549" lon="5.68132">
        <ele>464</ele>
        <time>2019-01-18T10:08:50.000Z</time>
      </trkpt>
      <trkpt lat="43.33549" lon="5.68132">
        <ele>464</ele>
        <time>2019-01-18T10:08:51.000Z</time>
      </trkpt>
      <trkpt lat="43.3355" lon="5.68133">
        <ele>464</ele>
        <time>2019-01-18T10:08:52.000Z</time>
      </trkpt>
      <trkpt lat="43.3355" lon="5.68134">
        <ele>464</ele>
        <time>2019-01-18T10:08:53.000Z</time>
      </trkpt>
      <trkpt lat="43.3355" lon="5.68136">
        <ele>464</ele>
        <time>2019-01-18T10:08:54.000Z</time>
      </trkpt>
      <trkpt lat="43.33551" lon="5.68137">
        <ele>464</ele>
        <time>2019-01-18T10:08:55.000Z</time>
      </trkpt>
      <trkpt lat="43.33551" lon="5.68138">
        <ele>464</ele>
        <time>2019-01-18T10:08:56.000Z</time>
      </trkpt>
      <trkpt lat="43.33551" lon="5.6814">
        <ele>464</ele>
        <time>2019-01-18T10:08:57.000Z</time>
      </trkpt>
      <trkpt lat="43.33551" lon="5.68141">
        <ele>464</ele>
        <time>2019-01-18T10:08:58.000Z</time>
      </trkpt>
      <trkpt lat="43.33552" lon="5.68142">
        <ele>464</ele>
        <time>2019-01-18T10:08:59.000Z</time>
      </trkpt>
      <trkpt lat="43.33552" lon="5.68143">
        <ele>464</ele>
        <time>2019-01-18T10:09:00.000Z</time>
      </trkpt>
      <trkpt lat="43.33553" lon="5.68144">
        <ele>465</ele>
        <time>2019-01-18T10:09:01.000Z</time>
      </trkpt>
      <trkpt lat="43.33553" lon="5.68145">
        <ele>465</ele>
        <time>2019-01-18T10:09:02.000Z</time>
      </trkpt>
      <trkpt lat="43.33554" lon="5.68146">
        <ele>465</ele>
        <time>2019-01-18T10:09:03.000Z</time>
      </trkpt>
      <trkpt lat="43.33554" lon="5.68147">
        <ele>465</ele>
        <time>2019-01-18T10:09:04.000Z</time>
      </trkpt>
      <trkpt lat="43.33555" lon="5.68147">
        <ele>465</ele>
        <time>2019-01-18T10:09:05.000Z</time>
      </trkpt>
      <trkpt lat="43.33555" lon="5.68147">
        <ele>465</ele>
        <time>2019-01-18T10:09:06.000Z</time>
      </trkpt>
      <trkpt lat="43.33556" lon="5.68148">
        <ele>465</ele>
        <time>2019-01-18T10:09:07.000Z</time>
      </trkpt>
      <trkpt lat="43.33557" lon="5.68149">
        <ele>465</ele>
        <time>2019-01-18T10:09:08.000Z</time>
      </trkpt>
      <trkpt lat="43.33558" lon="5.68149">
        <ele>465</ele>
        <time>2019-01-18T10:09:09.000Z</time>
      </trkpt>
      <trkpt lat="43.33558" lon="5.6815">
        <ele>465</ele>
        <time>2019-01-18T10:09:10.000Z</time>
      </trkpt>
      <trkpt lat="43.33559" lon="5.68151">
        <ele>465</ele>
        <time>2019-01-18T10:09:11.000Z</time>
      </trkpt>
      <trkpt lat="43.3356" lon="5.68152">
        <ele>465</ele>
        <time>2019-01-18T10:09:12.000Z</time>
      </trkpt>
      <trkpt lat="43.33561" lon="5.68152">
        <ele>465</ele>
        <time>2019-01-18T10:09:13.000Z</time>
      </trkpt>
      <trkpt lat="43.33562" lon="5.68153">
        <ele>465</ele>
        <time>2019-01-18T10:09:14.000Z</time>
      </trkpt>
      <trkpt lat="43.33562" lon="5.68154">
        <ele>465</ele>
        <time>2019-01-18T10:09:15.000Z</time>
      </trkpt>
      <trkpt lat="43.33563" lon="5.68154">
        <ele>465</ele>
        <time>2019-01-18T10:09:16.000Z</time>
      </trkpt>
      <trkpt lat="43.33564" lon="5.68155">
        <ele>465</ele>
        <time>2019-01-18T10:09:17.000Z</time>
      </trkpt>
      <trkpt lat="43.33564" lon="5.68156">
        <ele>465</ele>
        <time>2019-01-18T10:09:18.000Z</time>
      </trkpt>
      <trkpt lat="43.33565" lon="5.68157">
        <ele>465</ele>
        <time>2019-01-18T10:09:19.000Z</time>
      </trkpt>
      <trkpt lat="43.33565" lon="5.68158">
        <ele>465</ele>
        <time>2019-01-18T10:09:20.000Z</time>
      </trkpt>
      <trkpt lat="43.33566" lon="5.68159">
        <ele>465</ele>
        <time>2019-01-18T10:09:21.000Z</time>
      </trkpt>
      <trkpt lat="43.33566" lon="5.68161">
        <ele>465</ele>
        <time>2019-01-18T10:09:22.000Z</time>
      </trkpt>
      <trkpt lat="43.33567" lon="5.68162">
        <ele>465</ele>
        <time>2019-01-18T10:09:23.000Z</time>
      </trkpt>
      <trkpt lat="43.33567" lon="5.68162">
        <ele>465</ele>
        <time>2019-01-18T10:09:24.000Z</time>
      </trkpt>
      <trkpt lat="43.33568" lon="5.68163">
        <ele>465</ele>
        <time>2019-01-18T10:09:25.000Z</time>
      </trkpt>
      <trkpt lat="43.33568" lon="5.68164">
        <ele>465</ele>
        <time>2019-01-18T10:09:26.000Z</time>
      </trkpt>
      <trkpt lat="43.33569" lon="5.68165">
        <ele>465</ele>
        <time>2019-01-18T10:09:27.000Z</time>
      </trkpt>
      <trkpt lat="43.3357" lon="5.68165">
        <ele>465</ele>
        <time>2019-01-18T10:09:28.000Z</time>
      </trkpt>
      <trkpt lat="43.3357" lon="5.68166">
        <ele>465</ele>
        <time>2019-01-18T10:09:29.000Z</time>
      </trkpt>
      <trkpt lat="43.33571" lon="5.68167">
        <ele>465</ele>
        <time>2019-01-18T10:09:30.000Z</time>
      </trkpt>
      <trkpt lat="43.33572" lon="5.68167">
        <ele>465</ele>
        <time>2019-01-18T10:09:31.000Z</time>
      </trkpt>
      <trkpt lat="43.33572" lon="5.68168">
        <ele>465</ele>
        <time>2019-01-18T10:09:32.000Z</time>
      </trkpt>
      <trkpt lat="43.33573" lon="5.68169">
        <ele>465</ele>
        <time>2019-01-18T10:09:33.000Z</time>
      </trkpt>
      <trkpt lat="43.33573" lon="5.6817">
        <ele>465</ele>
        <time>2019-01-18T10:09:34.000Z</time>
      </trkpt>
      <trkpt lat="43.33574" lon="5.68171">
        <ele>465</ele>
        <time>2019-01-18T10:09:35.000Z</time>
      </trkpt>
      <trkpt lat="43.33574" lon="5.68172">
        <ele>465</ele>
        <time>2019-01-18T10:09:36.000Z</time>
      </trkpt>
      <trkpt lat="43.33575" lon="5.68173">
        <ele>465</ele>
        <time>2019-01-18T10:09:37.000Z</time>
      </trkpt>
      <trkpt lat="43.33575" lon="5.68174">
        <ele>465</ele>
        <time>2019-01-18T10:09:38.000Z</time>
      </trkpt>
      <trkpt lat="43.33576" lon="5.68175">
        <ele>465</ele>
        <time>2019-01-18T10:09:39.000Z</time>
      </trkpt>
      <trkpt lat="43.33576" lon="5.68176">
        <ele>465</ele>
        <time>2019-01-18T10:09:40.000Z</time>
      </trkpt>
      <trkpt lat="43.33577" lon="5.68177">
        <ele>465</ele>
        <time>2019-01-18T10:09:41.000Z</time>
      </trkpt>
      <trkpt lat="43.33577" lon="5.68178">
        <ele>465</ele>
        <time>2019-01-18T10:09:42.000Z</time>
      </trkpt>
      <trkpt lat="43.33578" lon="5.68179">
        <ele>465</ele>
        <time>2019-01-18T10:09:43.000Z</time>
      </trkpt>
      <trkpt lat="43.33578" lon="5.6818">
        <ele>465</ele>
        <time>2019-01-18T10:09:44.000Z</time>
      </trkpt>
      <trkpt lat="43.33579" lon="5.6818">
        <ele>465</ele>
        <time>2019-01-18T10:09:45.000Z</time>
      </trkpt>
      <trkpt lat="43.33579" lon="5.68182">
        <ele>465</ele>
        <time>2019-01-18T10:09:46.000Z</time>
      </trkpt>
      <trkpt lat="43.33579" lon="5.68183">
        <ele>466</ele>
        <time>2019-01-18T10:09:47.000Z</time>
      </trkpt>
      <trkpt lat="43.3358" lon="5.68183">
        <ele>466</ele>
        <time>2019-01-18T10:09:48.000Z</time>
      </trkpt>
      <trkpt lat="43.3358" lon="5.68184">
        <ele>466</ele>
        <time>2019-01-18T10:09:49.000Z</time>
      </trkpt>
      <trkpt lat="43.33581" lon="5.68185">
        <ele>466</ele>
        <time>2019-01-18T10:09:50.000Z</time>
      </trkpt>
      <trkpt lat="43.33581" lon="5.68185">
        <ele>466</ele>
        <time>2019-01-18T10:09:51.000Z</time>
      </trkpt>
      <trkpt lat="43.33582" lon="5.68187">
        <ele>466</ele>
        <time>2019-01-18T10:09:52.000Z</time>
      </trkpt>
      <trkpt lat="43.33582" lon="5.68188">
        <ele>466</ele>
        <time>2019-01-18T10:09:53.000Z</time>
      </trkpt>
      <trkpt lat="43.33583" lon="5.68188">
        <ele>467</ele>
        <time>2019-01-18T10:09:54.000Z</time>
      </trkpt>
      <trkpt lat="43.33583" lon="5.68189">
        <ele>467</ele>
        <time>2019-01-18T10:09:55.000Z</time>
      </trkpt>
      <trkpt lat="43.33583" lon="5.68189">
        <ele>467</ele>
        <time>2019-01-18T10:09:56.000Z</time>
      </trkpt>
      <trkpt lat="43.33583" lon="5.6819">
        <ele>467</ele>
        <time>2019-01-18T10:09:57.000Z</time>
      </trkpt>
      <trkpt lat="43.33583" lon="5.6819">
        <ele>467</ele>
        <time>2019-01-18T10:09:58.000Z</time>
      </trkpt>
      <trkpt lat="43.33583" lon="5.6819">
        <ele>467</ele>
        <time>2019-01-18T10:09:59.000Z</time>
      </trkpt>
      <trkpt lat="43.33583" lon="5.68191">
        <ele>467</ele>
        <time>2019-01-18T10:10:00.000Z</time>
      </trkpt>
      <trkpt lat="43.33584" lon="5.68192">
        <ele>467</ele>
        <time>2019-01-18T10:10:01.000Z</time>
      </trkpt>
      <trkpt lat="43.33584" lon="5.68193">
        <ele>467</ele>
        <time>2019-01-18T10:10:02.000Z</time>
      </trkpt>
      <trkpt lat="43.33585" lon="5.68194">
        <ele>467</ele>
        <time>2019-01-18T10:10:03.000Z</time>
      </trkpt>
      <trkpt lat="43.33586" lon="5.68195">
        <ele>467</ele>
        <time>2019-01-18T10:10:04.000Z</time>
      </trkpt>
      <trkpt lat="43.33586" lon="5.68196">
        <ele>467</ele>
        <time>2019-01-18T10:10:05.000Z</time>
      </trkpt>
      <trkpt lat="43.33587" lon="5.68197">
        <ele>467</ele>
        <time>2019-01-18T10:10:06.000Z</time>
      </trkpt>
      <trkpt lat="43.33588" lon="5.68198">
        <ele>467</ele>
        <time>2019-01-18T10:10:07.000Z</time>
      </trkpt>
      <trkpt lat="43.33588" lon="5.68198">
        <ele>467</ele>
        <time>2019-01-18T10:10:08.000Z</time>
      </trkpt>
      <trkpt lat="43.33588" lon="5.68199">
        <ele>467</ele>
        <time>2019-01-18T10:10:09.000Z</time>
      </trkpt>
      <trkpt lat="43.33589" lon="5.68199">
        <ele>468</ele>
        <time>2019-01-18T10:10:10.000Z</time>
      </trkpt>
      <trkpt lat="43.33589" lon="5.682">
        <ele>468</ele>
        <time>2019-01-18T10:10:11.000Z</time>
      </trkpt>
      <trkpt lat="43.3359" lon="5.682">
        <ele>468</ele>
        <time>2019-01-18T10:10:12.000Z</time>
      </trkpt>
      <trkpt lat="43.3359" lon="5.68201">
        <ele>468</ele>
        <time>2019-01-18T10:10:13.000Z</time>
      </trkpt>
      <trkpt lat="43.33591" lon="5.68202">
        <ele>468</ele>
        <time>2019-01-18T10:10:14.000Z</time>
      </trkpt>
      <trkpt lat="43.33591" lon="5.68203">
        <ele>468</ele>
        <time>2019-01-18T10:10:15.000Z</time>
      </trkpt>
      <trkpt lat="43.33592" lon="5.68204">
        <ele>468</ele>
        <time>2019-01-18T10:10:16.000Z</time>
      </trkpt>
      <trkpt lat="43.33592" lon="5.68204">
        <ele>469</ele>
        <time>2019-01-18T10:10:17.000Z</time>
      </trkpt>
      <trkpt lat="43.33593" lon="5.68205">
        <ele>469</ele>
        <time>2019-01-18T10:10:18.000Z</time>
      </trkpt>
      <trkpt lat="43.33593" lon="5.68206">
        <ele>469</ele>
        <time>2019-01-18T10:10:19.000Z</time>
      </trkpt>
      <trkpt lat="43.33593" lon="5.68207">
        <ele>469</ele>
        <time>2019-01-18T10:10:20.000Z</time>
      </trkpt>
      <trkpt lat="43.33594" lon="5.68208">
        <ele>469</ele>
        <time>2019-01-18T10:10:21.000Z</time>
      </trkpt>
      <trkpt lat="43.33594" lon="5.68209">
        <ele>469</ele>
        <time>2019-01-18T10:10:22.000Z</time>
      </trkpt>
      <trkpt lat="43.33594" lon="5.6821">
        <ele>470</ele>
        <time>2019-01-18T10:10:23.000Z</time>
      </trkpt>
      <trkpt lat="43.33595" lon="5.68211">
        <ele>470</ele>
        <time>2019-01-18T10:10:24.000Z</time>
      </trkpt>
      <trkpt lat="43.33595" lon="5.68212">
        <ele>470</ele>
        <time>2019-01-18T10:10:25.000Z</time>
      </trkpt>
      <trkpt lat="43.33595" lon="5.68213">
        <ele>470</ele>
        <time>2019-01-18T10:10:26.000Z</time>
      </trkpt>
      <trkpt lat="43.33596" lon="5.68214">
        <ele>470</ele>
        <time>2019-01-18T10:10:27.000Z</time>
      </trkpt>
      <trkpt lat="43.33596" lon="5.68215">
        <ele>470</ele>
        <time>2019-01-18T10:10:28.000Z</time>
      </trkpt>
      <trkpt lat="43.33597" lon="5.68216">
        <ele>470</ele>
        <time>2019-01-18T10:10:29.000Z</time>
      </trkpt>
      <trkpt lat="43.33597" lon="5.68216">
        <ele>470</ele>
        <time>2019-01-18T10:10:30.000Z</time>
      </trkpt>
      <trkpt lat="43.33597" lon="5.68217">
        <ele>470</ele>
        <time>2019-01-18T10:10:31.000Z</time>
      </trkpt>
      <trkpt lat="43.33597" lon="5.68218">
        <ele>470</ele>
        <time>2019-01-18T10:10:32.000Z</time>
      </trkpt>
      <trkpt lat="43.33597" lon="5.68218">
        <ele>471</ele>
        <time>2019-01-18T10:10:33.000Z</time>
      </trkpt>
      <trkpt lat="43.33597" lon="5.68219">
        <ele>471</ele>
        <time>2019-01-18T10:10:34.000Z</time>
      </trkpt>
      <trkpt lat="43.33597" lon="5.68219">
        <ele>471</ele>
        <time>2019-01-18T10:10:35.000Z</time>
      </trkpt>
      <trkpt lat="43.33598" lon="5.6822">
        <ele>471</ele>
        <time>2019-01-18T10:10:36.000Z</time>
      </trkpt>
      <trkpt lat="43.33598" lon="5.6822">
        <ele>471</ele>
        <time>2019-01-18T10:10:37.000Z</time>
      </trkpt>
      <trkpt lat="43.33599" lon="5.6822">
        <ele>471</ele>
        <time>2019-01-18T10:10:38.000Z</time>
      </trkpt>
      <trkpt lat="43.336" lon="5.68221">
        <ele>471</ele>
        <time>2019-01-18T10:10:39.000Z</time>
      </trkpt>
      <trkpt lat="43.336" lon="5.68221">
        <ele>471</ele>
        <time>2019-01-18T10:10:40.000Z</time>
      </trkpt>
      <trkpt lat="43.33601" lon="5.68222">
        <ele>471</ele>
        <time>2019-01-18T10:10:41.000Z</time>
      </trkpt>
      <trkpt lat="43.33601" lon="5.68223">
        <ele>471</ele>
        <time>2019-01-18T10:10:42.000Z</time>
      </trkpt>
      <trkpt lat="43.33601" lon="5.68224">
        <ele>471</ele>
        <time>2019-01-18T10:10:43.000Z</time>
      </trkpt>
      <trkpt lat="43.33601" lon="5.68224">
        <ele>471</ele>
        <time>2019-01-18T10:10:44.000Z</time>
      </trkpt>
      <trkpt lat="43.33601" lon="5.68225">
        <ele>471</ele>
        <time>2019-01-18T10:10:45.000Z</time>
      </trkpt>
      <trkpt lat="43.33601" lon="5.68226">
        <ele>472</ele>
        <time>2019-01-18T10:10:46.000Z</time>
      </trkpt>
      <trkpt lat="43.336" lon="5.68226">
        <ele>472</ele>
        <time>2019-01-18T10:10:47.000Z</time>
      </trkpt>
      <trkpt lat="43.336" lon="5.68227">
        <ele>472</ele>
        <time>2019-01-18T10:10:48.000Z</time>
      </trkpt>
      <trkpt lat="43.336" lon="5.68228">
        <ele>472</ele>
        <time>2019-01-18T10:10:49.000Z</time>
      </trkpt>
      <trkpt lat="43.336" lon="5.68229">
        <ele>472</ele>
        <time>2019-01-18T10:10:50.000Z</time>
      </trkpt>
      <trkpt lat="43.336" lon="5.68229">
        <ele>472</ele>
        <time>2019-01-18T10:10:51.000Z</time>
      </trkpt>
      <trkpt lat="43.336" lon="5.6823">
        <ele>472</ele>
        <time>2019-01-18T10:10:52.000Z</time>
      </trkpt>
      <trkpt lat="43.336" lon="5.68231">
        <ele>472</ele>
        <time>2019-01-18T10:10:53.000Z</time>
      </trkpt>
      <trkpt lat="43.336" lon="5.68232">
        <ele>473</ele>
        <time>2019-01-18T10:10:54.000Z</time>
      </trkpt>
      <trkpt lat="43.336" lon="5.68233">
        <ele>473</ele>
        <time>2019-01-18T10:10:55.000Z</time>
      </trkpt>
      <trkpt lat="43.336" lon="5.68233">
        <ele>473</ele>
        <time>2019-01-18T10:10:56.000Z</time>
      </trkpt>
      <trkpt lat="43.33601" lon="5.68234">
        <ele>473</ele>
        <time>2019-01-18T10:10:57.000Z</time>
      </trkpt>
      <trkpt lat="43.33601" lon="5.68235">
        <ele>473</ele>
        <time>2019-01-18T10:10:58.000Z</time>
      </trkpt>
      <trkpt lat="43.33601" lon="5.68236">
        <ele>473</ele>
        <time>2019-01-18T10:10:59.000Z</time>
      </trkpt>
      <trkpt lat="43.33601" lon="5.68237">
        <ele>473</ele>
        <time>2019-01-18T10:11:00.000Z</time>
      </trkpt>
      <trkpt lat="43.33601" lon="5.68238">
        <ele>473</ele>
        <time>2019-01-18T10:11:01.000Z</time>
      </trkpt>
      <trkpt lat="43.33601" lon="5.68239">
        <ele>474</ele>
        <time>2019-01-18T10:11:02.000Z</time>
      </trkpt>
      <trkpt lat="43.33601" lon="5.68239">
        <ele>474</ele>
        <time>2019-01-18T10:11:03.000Z</time>
      </trkpt>
      <trkpt lat="43.33601" lon="5.6824">
        <ele>474</ele>
        <time>2019-01-18T10:11:04.000Z</time>
      </trkpt>
      <trkpt lat="43.33602" lon="5.68241">
        <ele>474</ele>
        <time>2019-01-18T10:11:05.000Z</time>
      </trkpt>
      <trkpt lat="43.33602" lon="5.68242">
        <ele>474</ele>
        <time>2019-01-18T10:11:06.000Z</time>
      </trkpt>
      <trkpt lat="43.33603" lon="5.68242">
        <ele>474</ele>
        <time>2019-01-18T10:11:07.000Z</time>
      </trkpt>
      <trkpt lat="43.33603" lon="5.68243">
        <ele>474</ele>
        <time>2019-01-18T10:11:08.000Z</time>
      </trkpt>
      <trkpt lat="43.33604" lon="5.68244">
        <ele>475</ele>
        <time>2019-01-18T10:11:09.000Z</time>
      </trkpt>
      <trkpt lat="43.33604" lon="5.68244">
        <ele>475</ele>
        <time>2019-01-18T10:11:10.000Z</time>
      </trkpt>
      <trkpt lat="43.33604" lon="5.68244">
        <ele>475</ele>
        <time>2019-01-18T10:11:11.000Z</time>
      </trkpt>
      <trkpt lat="43.33604" lon="5.68244">
        <ele>475</ele>
        <time>2019-01-18T10:11:12.000Z</time>
      </trkpt>
      <trkpt lat="43.33604" lon="5.68244">
        <ele>475</ele>
        <time>2019-01-18T10:11:13.000Z</time>
      </trkpt>
      <trkpt lat="43.33604" lon="5.68244">
        <ele>475</ele>
        <time>2019-01-18T10:11:14.000Z</time>
      </trkpt>
      <trkpt lat="43.33604" lon="5.68245">
        <ele>475</ele>
        <time>2019-01-18T10:11:15.000Z</time>
      </trkpt>
      <trkpt lat="43.33604" lon="5.68245">
        <ele>475</ele>
        <time>2019-01-18T10:11:16.000Z</time>
      </trkpt>
      <trkpt lat="43.33604" lon="5.68246">
        <ele>476</ele>
        <time>2019-01-18T10:11:17.000Z</time>
      </trkpt>
      <trkpt lat="43.33604" lon="5.68247">
        <ele>476</ele>
        <time>2019-01-18T10:11:18.000Z</time>
      </trkpt>
      <trkpt lat="43.33604" lon="5.68248">
        <ele>476</ele>
        <time>2019-01-18T10:11:19.000Z</time>
      </trkpt>
      <trkpt lat="43.33603" lon="5.68249">
        <ele>476</ele>
        <time>2019-01-18T10:11:20.000Z</time>
      </trkpt>
      <trkpt lat="43.33603" lon="5.6825">
        <ele>476</ele>
        <time>2019-01-18T10:11:21.000Z</time>
      </trkpt>
      <trkpt lat="43.33603" lon="5.68251">
        <ele>476</ele>
        <time>2019-01-18T10:11:22.000Z</time>
      </trkpt>
      <trkpt lat="43.33603" lon="5.68251">
        <ele>476</ele>
        <time>2019-01-18T10:11:23.000Z</time>
      </trkpt>
      <trkpt lat="43.33603" lon="5.68252">
        <ele>476</ele>
        <time>2019-01-18T10:11:24.000Z</time>
      </trkpt>
      <trkpt lat="43.33603" lon="5.68253">
        <ele>476</ele>
        <time>2019-01-18T10:11:25.000Z</time>
      </trkpt>
      <trkpt lat="43.33603" lon="5.68253">
        <ele>476</ele>
        <time>2019-01-18T10:11:26.000Z</time>
      </trkpt>
      <trkpt lat="43.33603" lon="5.68254">
        <ele>476</ele>
        <time>2019-01-18T10:11:27.000Z</time>
      </trkpt>
      <trkpt lat="43.33603" lon="5.68255">
        <ele>477</ele>
        <time>2019-01-18T10:11:28.000Z</time>
      </trkpt>
      <trkpt lat="43.33603" lon="5.68255">
        <ele>477</ele>
        <time>2019-01-18T10:11:29.000Z</time>
      </trkpt>
      <trkpt lat="43.33603" lon="5.68256">
        <ele>477</ele>
        <time>2019-01-18T10:11:30.000Z</time>
      </trkpt>
      <trkpt lat="43.33604" lon="5.68256">
        <ele>477</ele>
        <time>2019-01-18T10:11:31.000Z</time>
      </trkpt>
      <trkpt lat="43.33604" lon="5.68256">
        <ele>477</ele>
        <time>2019-01-18T10:11:32.000Z</time>
      </trkpt>
      <trkpt lat="43.33604" lon="5.68256">
        <ele>477</ele>
        <time>2019-01-18T10:11:33.000Z</time>
      </trkpt>
      <trkpt lat="43.33604" lon="5.68256">
        <ele>478</ele>
        <time>2019-01-18T10:11:34.000Z</time>
      </trkpt>
      <trkpt lat="43.33604" lon="5.68256">
        <ele>478</ele>
        <time>2019-01-18T10:11:35.000Z</time>
      </trkpt>
      <trkpt lat="43.33604" lon="5.68256">
        <ele>478</ele>
        <time>2019-01-18T10:11:36.000Z</time>
      </trkpt>
      <trkpt lat="43.33604" lon="5.68256">
        <ele>478</ele>
        <time>2019-01-18T10:11:37.000Z</time>
      </trkpt>
      <trkpt lat="43.33604" lon="5.68256">
        <ele>478</ele>
        <time>2019-01-18T10:11:38.000Z</time>
      </trkpt>
      <trkpt lat="43.33604" lon="5.68256">
        <ele>478</ele>
        <time>2019-01-18T10:11:39.000Z</time>
      </trkpt>
      <trkpt lat="43.33604" lon="5.68256">
        <ele>478</ele>
        <time>2019-01-18T10:11:40.000Z</time>
      </trkpt>
      <trkpt lat="43.33605" lon="5.68256">
        <ele>479</ele>
        <time>2019-01-18T10:11:41.000Z</time>
      </trkpt>
      <trkpt lat="43.33605" lon="5.68256">
        <ele>479</ele>
        <time>2019-01-18T10:11:42.000Z</time>
      </trkpt>
      <trkpt lat="43.33605" lon="5.68256">
        <ele>479</ele>
        <time>2019-01-18T10:11:43.000Z</time>
      </trkpt>
      <trkpt lat="43.33605" lon="5.68256">
        <ele>479</ele>
        <time>2019-01-18T10:11:44.000Z</time>
      </trkpt>
      <trkpt lat="43.33605" lon="5.68256">
        <ele>479</ele>
        <time>2019-01-18T10:11:45.000Z</time>
      </trkpt>
      <trkpt lat="43.33605" lon="5.68256">
        <ele>479</ele>
        <time>2019-01-18T10:11:46.000Z</time>
      </trkpt>
      <trkpt lat="43.33605" lon="5.68256">
        <ele>479</ele>
        <time>2019-01-18T10:11:47.000Z</time>
      </trkpt>
      <trkpt lat="43.33605" lon="5.68257">
        <ele>479</ele>
        <time>2019-01-18T10:11:48.000Z</time>
      </trkpt>
      <trkpt lat="43.33605" lon="5.68257">
        <ele>479</ele>
        <time>2019-01-18T10:11:49.000Z</time>
      </trkpt>
      <trkpt lat="43.33605" lon="5.68257">
        <ele>479</ele>
        <time>2019-01-18T10:11:50.000Z</time>
      </trkpt>
      <trkpt lat="43.33605" lon="5.68257">
        <ele>479</ele>
        <time>2019-01-18T10:11:51.000Z</time>
      </trkpt>
      <trkpt lat="43.33605" lon="5.68258">
        <ele>479</ele>
        <time>2019-01-18T10:11:52.000Z</time>
      </trkpt>
      <trkpt lat="43.33605" lon="5.68258">
        <ele>480</ele>
        <time>2019-01-18T10:11:53.000Z</time>
      </trkpt>
      <trkpt lat="43.33605" lon="5.6826">
        <ele>480</ele>
        <time>2019-01-18T10:11:54.000Z</time>
      </trkpt>
      <trkpt lat="43.33605" lon="5.68261">
        <ele>480</ele>
        <time>2019-01-18T10:11:55.000Z</time>
      </trkpt>
      <trkpt lat="43.33605" lon="5.68262">
        <ele>480</ele>
        <time>2019-01-18T10:11:56.000Z</time>
      </trkpt>
      <trkpt lat="43.33605" lon="5.68262">
        <ele>480</ele>
        <time>2019-01-18T10:11:57.000Z</time>
      </trkpt>
      <trkpt lat="43.33604" lon="5.68262">
        <ele>480</ele>
        <time>2019-01-18T10:11:58.000Z</time>
      </trkpt>
      <trkpt lat="43.33604" lon="5.68263">
        <ele>480</ele>
        <time>2019-01-18T10:11:59.000Z</time>
      </trkpt>
      <trkpt lat="43.33604" lon="5.68263">
        <ele>480</ele>
        <time>2019-01-18T10:12:00.000Z</time>
      </trkpt>
      <trkpt lat="43.33603" lon="5.68264">
        <ele>480</ele>
        <time>2019-01-18T10:12:01.000Z</time>
      </trkpt>
      <trkpt lat="43.33603" lon="5.68264">
        <ele>480</ele>
        <time>2019-01-18T10:12:02.000Z</time>
      </trkpt>
      <trkpt lat="43.33603" lon="5.68265">
        <ele>480</ele>
        <time>2019-01-18T10:12:03.000Z</time>
      </trkpt>
      <trkpt lat="43.33602" lon="5.68265">
        <ele>480</ele>
        <time>2019-01-18T10:12:04.000Z</time>
      </trkpt>
      <trkpt lat="43.33602" lon="5.68266">
        <ele>480</ele>
        <time>2019-01-18T10:12:05.000Z</time>
      </trkpt>
      <trkpt lat="43.33602" lon="5.68267">
        <ele>480</ele>
        <time>2019-01-18T10:12:06.000Z</time>
      </trkpt>
      <trkpt lat="43.33601" lon="5.68268">
        <ele>480</ele>
        <time>2019-01-18T10:12:07.000Z</time>
      </trkpt>
      <trkpt lat="43.33601" lon="5.68269">
        <ele>480</ele>
        <time>2019-01-18T10:12:08.000Z</time>
      </trkpt>
      <trkpt lat="43.336" lon="5.68269">
        <ele>480</ele>
        <time>2019-01-18T10:12:09.000Z</time>
      </trkpt>
      <trkpt lat="43.336" lon="5.6827">
        <ele>480</ele>
        <time>2019-01-18T10:12:10.000Z</time>
      </trkpt>
      <trkpt lat="43.33599" lon="5.68271">
        <ele>480</ele>
        <time>2019-01-18T10:12:11.000Z</time>
      </trkpt>
      <trkpt lat="43.33599" lon="5.68271">
        <ele>480</ele>
        <time>2019-01-18T10:12:12.000Z</time>
      </trkpt>
      <trkpt lat="43.33599" lon="5.68272">
        <ele>480</ele>
        <time>2019-01-18T10:12:13.000Z</time>
      </trkpt>
      <trkpt lat="43.33598" lon="5.68273">
        <ele>481</ele>
        <time>2019-01-18T10:12:14.000Z</time>
      </trkpt>
      <trkpt lat="43.33598" lon="5.68274">
        <ele>481</ele>
        <time>2019-01-18T10:12:15.000Z</time>
      </trkpt>
      <trkpt lat="43.33598" lon="5.68275">
        <ele>481</ele>
        <time>2019-01-18T10:12:16.000Z</time>
      </trkpt>
      <trkpt lat="43.33597" lon="5.68276">
        <ele>481</ele>
        <time>2019-01-18T10:12:17.000Z</time>
      </trkpt>
      <trkpt lat="43.33596" lon="5.68277">
        <ele>481</ele>
        <time>2019-01-18T10:12:18.000Z</time>
      </trkpt>
      <trkpt lat="43.33596" lon="5.68277">
        <ele>481</ele>
        <time>2019-01-18T10:12:19.000Z</time>
      </trkpt>
      <trkpt lat="43.33596" lon="5.68278">
        <ele>481</ele>
        <time>2019-01-18T10:12:20.000Z</time>
      </trkpt>
      <trkpt lat="43.33596" lon="5.68278">
        <ele>481</ele>
        <time>2019-01-18T10:12:21.000Z</time>
      </trkpt>
      <trkpt lat="43.33596" lon="5.68278">
        <ele>481</ele>
        <time>2019-01-18T10:12:22.000Z</time>
      </trkpt>
      <trkpt lat="43.33596" lon="5.68278">
        <ele>481</ele>
        <time>2019-01-18T10:12:23.000Z</time>
      </trkpt>
      <trkpt lat="43.33596" lon="5.68278">
        <ele>481</ele>
        <time>2019-01-18T10:12:24.000Z</time>
      </trkpt>
      <trkpt lat="43.33595" lon="5.68278">
        <ele>481</ele>
        <time>2019-01-18T10:12:25.000Z</time>
      </trkpt>
      <trkpt lat="43.33595" lon="5.68278">
        <ele>481</ele>
        <time>2019-01-18T10:12:26.000Z</time>
      </trkpt>
      <trkpt lat="43.33595" lon="5.68279">
        <ele>481</ele>
        <time>2019-01-18T10:12:27.000Z</time>
      </trkpt>
      <trkpt lat="43.33595" lon="5.68279">
        <ele>481</ele>
        <time>2019-01-18T10:12:28.000Z</time>
      </trkpt>
      <trkpt lat="43.33595" lon="5.68279">
        <ele>481</ele>
        <time>2019-01-18T10:12:29.000Z</time>
      </trkpt>
      <trkpt lat="43.33595" lon="5.68279">
        <ele>481</ele>
        <time>2019-01-18T10:12:30.000Z</time>
      </trkpt>
      <trkpt lat="43.33595" lon="5.68279">
        <ele>481</ele>
        <time>2019-01-18T10:12:31.000Z</time>
      </trkpt>
      <trkpt lat="43.33595" lon="5.68278">
        <ele>481</ele>
        <time>2019-01-18T10:12:32.000Z</time>
      </trkpt>
      <trkpt lat="43.33595" lon="5.68278">
        <ele>480</ele>
        <time>2019-01-18T10:12:33.000Z</time>
      </trkpt>
      <trkpt lat="43.33595" lon="5.68278">
        <ele>480</ele>
        <time>2019-01-18T10:12:34.000Z</time>
      </trkpt>
      <trkpt lat="43.33595" lon="5.68278">
        <ele>480</ele>
        <time>2019-01-18T10:12:35.000Z</time>
      </trkpt>
      <trkpt lat="43.33595" lon="5.68279">
        <ele>480</ele>
        <time>2019-01-18T10:12:36.000Z</time>
      </trkpt>
      <trkpt lat="43.33595" lon="5.68279">
        <ele>480</ele>
        <time>2019-01-18T10:12:37.000Z</time>
      </trkpt>
      <trkpt lat="43.33595" lon="5.68279">
        <ele>480</ele>
        <time>2019-01-18T10:12:38.000Z</time>
      </trkpt>
      <trkpt lat="43.33595" lon="5.68279">
        <ele>480</ele>
        <time>2019-01-18T10:12:39.000Z</time>
      </trkpt>
      <trkpt lat="43.33595" lon="5.68279">
        <ele>480</ele>
        <time>2019-01-18T10:12:40.000Z</time>
      </trkpt>
      <trkpt lat="43.33595" lon="5.68279">
        <ele>480</ele>
        <time>2019-01-18T10:12:41.000Z</time>
      </trkpt>
      <trkpt lat="43.33595" lon="5.68278">
        <ele>480</ele>
        <time>2019-01-18T10:12:42.000Z</time>
      </trkpt>
      <trkpt lat="43.33595" lon="5.68278">
        <ele>481</ele>
        <time>2019-01-18T10:12:43.000Z</time>
      </trkpt>
      <trkpt lat="43.33594" lon="5.68278">
        <ele>481</ele>
        <time>2019-01-18T10:12:44.000Z</time>
      </trkpt>
      <trkpt lat="43.33594" lon="5.68278">
        <ele>481</ele>
        <time>2019-01-18T10:12:45.000Z</time>
      </trkpt>
      <trkpt lat="43.33594" lon="5.68278">
        <ele>481</ele>
        <time>2019-01-18T10:12:46.000Z</time>
      </trkpt>
      <trkpt lat="43.33594" lon="5.68279">
        <ele>481</ele>
        <time>2019-01-18T10:12:47.000Z</time>
      </trkpt>
      <trkpt lat="43.33594" lon="5.68279">
        <ele>481</ele>
        <time>2019-01-18T10:12:48.000Z</time>
      </trkpt>
      <trkpt lat="43.33594" lon="5.68279">
        <ele>481</ele>
        <time>2019-01-18T10:12:49.000Z</time>
      </trkpt>
      <trkpt lat="43.33594" lon="5.68278">
        <ele>481</ele>
        <time>2019-01-18T10:12:50.000Z</time>
      </trkpt>
      <trkpt lat="43.33593" lon="5.68279">
        <ele>481</ele>
        <time>2019-01-18T10:12:51.000Z</time>
      </trkpt>
      <trkpt lat="43.33593" lon="5.68279">
        <ele>481</ele>
        <time>2019-01-18T10:12:52.000Z</time>
      </trkpt>
      <trkpt lat="43.33593" lon="5.68279">
        <ele>481</ele>
        <time>2019-01-18T10:12:53.000Z</time>
      </trkpt>
      <trkpt lat="43.33593" lon="5.68279">
        <ele>481</ele>
        <time>2019-01-18T10:12:54.000Z</time>
      </trkpt>
      <trkpt lat="43.33593" lon="5.68278">
        <ele>481</ele>
        <time>2019-01-18T10:12:55.000Z</time>
      </trkpt>
      <trkpt lat="43.33593" lon="5.68278">
        <ele>481</ele>
        <time>2019-01-18T10:12:56.000Z</time>
      </trkpt>
      <trkpt lat="43.33593" lon="5.68278">
        <ele>481</ele>
        <time>2019-01-18T10:12:57.000Z</time>
      </trkpt>
      <trkpt lat="43.33593" lon="5.68278">
        <ele>481</ele>
        <time>2019-01-18T10:12:58.000Z</time>
      </trkpt>
      <trkpt lat="43.33593" lon="5.68278">
        <ele>481</ele>
        <time>2019-01-18T10:12:59.000Z</time>
      </trkpt>
      <trkpt lat="43.33592" lon="5.68277">
        <ele>481</ele>
        <time>2019-01-18T10:13:00.000Z</time>
      </trkpt>
      <trkpt lat="43.33592" lon="5.68277">
        <ele>481</ele>
        <time>2019-01-18T10:13:01.000Z</time>
      </trkpt>
      <trkpt lat="43.33591" lon="5.68276">
        <ele>481</ele>
        <time>2019-01-18T10:13:02.000Z</time>
      </trkpt>
      <trkpt lat="43.33591" lon="5.68276">
        <ele>481</ele>
        <time>2019-01-18T10:13:03.000Z</time>
      </trkpt>
      <trkpt lat="43.3359" lon="5.68276">
        <ele>481</ele>
        <time>2019-01-18T10:13:04.000Z</time>
      </trkpt>
      <trkpt lat="43.3359" lon="5.68275">
        <ele>481</ele>
        <time>2019-01-18T10:13:05.000Z</time>
      </trkpt>
      <trkpt lat="43.3359" lon="5.68275">
        <ele>481</ele>
        <time>2019-01-18T10:13:06.000Z</time>
      </trkpt>
      <trkpt lat="43.3359" lon="5.68275">
        <ele>481</ele>
        <time>2019-01-18T10:13:07.000Z</time>
      </trkpt>
      <trkpt lat="43.3359" lon="5.68275">
        <ele>481</ele>
        <time>2019-01-18T10:13:08.000Z</time>
      </trkpt>
      <trkpt lat="43.3359" lon="5.68275">
        <ele>482</ele>
        <time>2019-01-18T10:13:09.000Z</time>
      </trkpt>
      <trkpt lat="43.33589" lon="5.68275">
        <ele>482</ele>
        <time>2019-01-18T10:13:10.000Z</time>
      </trkpt>
      <trkpt lat="43.33589" lon="5.68275">
        <ele>482</ele>
        <time>2019-01-18T10:13:11.000Z</time>
      </trkpt>
      <trkpt lat="43.33589" lon="5.68275">
        <ele>482</ele>
        <time>2019-01-18T10:13:12.000Z</time>
      </trkpt>
      <trkpt lat="43.33589" lon="5.68275">
        <ele>482</ele>
        <time>2019-01-18T10:13:13.000Z</time>
      </trkpt>
      <trkpt lat="43.33589" lon="5.68275">
        <ele>482</ele>
        <time>2019-01-18T10:13:14.000Z</time>
      </trkpt>
      <trkpt lat="43.33589" lon="5.68275">
        <ele>482</ele>
        <time>2019-01-18T10:13:15.000Z</time>
      </trkpt>
      <trkpt lat="43.33588" lon="5.68275">
        <ele>482</ele>
        <time>2019-01-18T10:13:16.000Z</time>
      </trkpt>
      <trkpt lat="43.33588" lon="5.68275">
        <ele>482</ele>
        <time>2019-01-18T10:13:17.000Z</time>
      </trkpt>
      <trkpt lat="43.33588" lon="5.68275">
        <ele>482</ele>
        <time>2019-01-18T10:13:18.000Z</time>
      </trkpt>
      <trkpt lat="43.33587" lon="5.68276">
        <ele>483</ele>
        <time>2019-01-18T10:13:19.000Z</time>
      </trkpt>
      <trkpt lat="43.33587" lon="5.68276">
        <ele>483</ele>
        <time>2019-01-18T10:13:20.000Z</time>
      </trkpt>
      <trkpt lat="43.33587" lon="5.68277">
        <ele>483</ele>
        <time>2019-01-18T10:13:21.000Z</time>
      </trkpt>
      <trkpt lat="43.33587" lon="5.68277">
        <ele>483</ele>
        <time>2019-01-18T10:13:22.000Z</time>
      </trkpt>
      <trkpt lat="43.33587" lon="5.68277">
        <ele>483</ele>
        <time>2019-01-18T10:13:23.000Z</time>
      </trkpt>
      <trkpt lat="43.33587" lon="5.68277">
        <ele>483</ele>
        <time>2019-01-18T10:13:24.000Z</time>
      </trkpt>
      <trkpt lat="43.33587" lon="5.68277">
        <ele>483</ele>
        <time>2019-01-18T10:13:25.000Z</time>
      </trkpt>
      <trkpt lat="43.33587" lon="5.68277">
        <ele>483</ele>
        <time>2019-01-18T10:13:26.000Z</time>
      </trkpt>
      <trkpt lat="43.33586" lon="5.68278">
        <ele>483</ele>
        <time>2019-01-18T10:13:27.000Z</time>
      </trkpt>
      <trkpt lat="43.33586" lon="5.68278">
        <ele>483</ele>
        <time>2019-01-18T10:13:28.000Z</time>
      </trkpt>
      <trkpt lat="43.33586" lon="5.68277">
        <ele>483</ele>
        <time>2019-01-18T10:13:29.000Z</time>
      </trkpt>
      <trkpt lat="43.33586" lon="5.68277">
        <ele>483</ele>
        <time>2019-01-18T10:13:30.000Z</time>
      </trkpt>
      <trkpt lat="43.33586" lon="5.68278">
        <ele>483</ele>
        <time>2019-01-18T10:13:31.000Z</time>
      </trkpt>
      <trkpt lat="43.33586" lon="5.68278">
        <ele>484</ele>
        <time>2019-01-18T10:13:32.000Z</time>
      </trkpt>
      <trkpt lat="43.33585" lon="5.68278">
        <ele>484</ele>
        <time>2019-01-18T10:13:33.000Z</time>
      </trkpt>
      <trkpt lat="43.33585" lon="5.68278">
        <ele>484</ele>
        <time>2019-01-18T10:13:34.000Z</time>
      </trkpt>
      <trkpt lat="43.33585" lon="5.68278">
        <ele>484</ele>
        <time>2019-01-18T10:13:35.000Z</time>
      </trkpt>
      <trkpt lat="43.33585" lon="5.68278">
        <ele>484</ele>
        <time>2019-01-18T10:13:36.000Z</time>
      </trkpt>
      <trkpt lat="43.33584" lon="5.68278">
        <ele>484</ele>
        <time>2019-01-18T10:13:37.000Z</time>
      </trkpt>
      <trkpt lat="43.33584" lon="5.68279">
        <ele>484</ele>
        <time>2019-01-18T10:13:38.000Z</time>
      </trkpt>
      <trkpt lat="43.33584" lon="5.68279">
        <ele>484</ele>
        <time>2019-01-18T10:13:39.000Z</time>
      </trkpt>
      <trkpt lat="43.33584" lon="5.68279">
        <ele>484</ele>
        <time>2019-01-18T10:13:40.000Z</time>
      </trkpt>
      <trkpt lat="43.33584" lon="5.68279">
        <ele>484</ele>
        <time>2019-01-18T10:13:41.000Z</time>
      </trkpt>
      <trkpt lat="43.33584" lon="5.68279">
        <ele>484</ele>
        <time>2019-01-18T10:13:42.000Z</time>
      </trkpt>
      <trkpt lat="43.33584" lon="5.68279">
        <ele>484</ele>
        <time>2019-01-18T10:13:43.000Z</time>
      </trkpt>
      <trkpt lat="43.33584" lon="5.68279">
        <ele>485</ele>
        <time>2019-01-18T10:13:44.000Z</time>
      </trkpt>
      <trkpt lat="43.33584" lon="5.68279">
        <ele>485</ele>
        <time>2019-01-18T10:13:45.000Z</time>
      </trkpt>
      <trkpt lat="43.33584" lon="5.68279">
        <ele>485</ele>
        <time>2019-01-18T10:13:46.000Z</time>
      </trkpt>
      <trkpt lat="43.33584" lon="5.6828">
        <ele>485</ele>
        <time>2019-01-18T10:13:47.000Z</time>
      </trkpt>
      <trkpt lat="43.33584" lon="5.6828">
        <ele>485</ele>
        <time>2019-01-18T10:13:48.000Z</time>
      </trkpt>
      <trkpt lat="43.33584" lon="5.6828">
        <ele>485</ele>
        <time>2019-01-18T10:13:49.000Z</time>
      </trkpt>
      <trkpt lat="43.33584" lon="5.6828">
        <ele>485</ele>
        <time>2019-01-18T10:13:50.000Z</time>
      </trkpt>
      <trkpt lat="43.33584" lon="5.68279">
        <ele>485</ele>
        <time>2019-01-18T10:13:51.000Z</time>
      </trkpt>
      <trkpt lat="43.33584" lon="5.68279">
        <ele>485</ele>
        <time>2019-01-18T10:13:52.000Z</time>
      </trkpt>
      <trkpt lat="43.33584" lon="5.68279">
        <ele>485</ele>
        <time>2019-01-18T10:13:53.000Z</time>
      </trkpt>
      <trkpt lat="43.33584" lon="5.6828">
        <ele>485</ele>
        <time>2019-01-18T10:13:54.000Z</time>
      </trkpt>
      <trkpt lat="43.33584" lon="5.6828">
        <ele>485</ele>
        <time>2019-01-18T10:13:55.000Z</time>
      </trkpt>
      <trkpt lat="43.33584" lon="5.6828">
        <ele>485</ele>
        <time>2019-01-18T10:13:56.000Z</time>
      </trkpt>
      <trkpt lat="43.33584" lon="5.68281">
        <ele>485</ele>
        <time>2019-01-18T10:13:57.000Z</time>
      </trkpt>
      <trkpt lat="43.33584" lon="5.68281">
        <ele>485</ele>
        <time>2019-01-18T10:13:58.000Z</time>
      </trkpt>
      <trkpt lat="43.33584" lon="5.68281">
        <ele>485</ele>
        <time>2019-01-18T10:13:59.000Z</time>
      </trkpt>
      <trkpt lat="43.33583" lon="5.68281">
        <ele>485</ele>
        <time>2019-01-18T10:14:00.000Z</time>
      </trkpt>
      <trkpt lat="43.33583" lon="5.68281">
        <ele>485</ele>
        <time>2019-01-18T10:14:01.000Z</time>
      </trkpt>
      <trkpt lat="43.33583" lon="5.68281">
        <ele>485</ele>
        <time>2019-01-18T10:14:02.000Z</time>
      </trkpt>
      <trkpt lat="43.33583" lon="5.68281">
        <ele>485</ele>
        <time>2019-01-18T10:14:03.000Z</time>
      </trkpt>
      <trkpt lat="43.33583" lon="5.68281">
        <ele>485</ele>
        <time>2019-01-18T10:14:04.000Z</time>
      </trkpt>
      <trkpt lat="43.33583" lon="5.68281">
        <ele>485</ele>
        <time>2019-01-18T10:14:05.000Z</time>
      </trkpt>
      <trkpt lat="43.33583" lon="5.68281">
        <ele>485</ele>
        <time>2019-01-18T10:14:06.000Z</time>
      </trkpt>
      <trkpt lat="43.33583" lon="5.68281">
        <ele>485</ele>
        <time>2019-01-18T10:14:07.000Z</time>
      </trkpt>
      <trkpt lat="43.33583" lon="5.6828">
        <ele>485</ele>
        <time>2019-01-18T10:14:08.000Z</time>
      </trkpt>
      <trkpt lat="43.33583" lon="5.68281">
        <ele>485</ele>
        <time>2019-01-18T10:14:09.000Z</time>
      </trkpt>
      <trkpt lat="43.33582" lon="5.68281">
        <ele>485</ele>
        <time>2019-01-18T10:14:10.000Z</time>
      </trkpt>
      <trkpt lat="43.33582" lon="5.68281">
        <ele>485</ele>
        <time>2019-01-18T10:14:11.000Z</time>
      </trkpt>
      <trkpt lat="43.33582" lon="5.68281">
        <ele>485</ele>
        <time>2019-01-18T10:14:12.000Z</time>
      </trkpt>
      <trkpt lat="43.33582" lon="5.68281">
        <ele>485</ele>
        <time>2019-01-18T10:14:13.000Z</time>
      </trkpt>
      <trkpt lat="43.33582" lon="5.68281">
        <ele>485</ele>
        <time>2019-01-18T10:14:14.000Z</time>
      </trkpt>
      <trkpt lat="43.33581" lon="5.6828">
        <ele>485</ele>
        <time>2019-01-18T10:14:15.000Z</time>
      </trkpt>
      <trkpt lat="43.33581" lon="5.6828">
        <ele>485</ele>
        <time>2019-01-18T10:14:16.000Z</time>
      </trkpt>
      <trkpt lat="43.33581" lon="5.6828">
        <ele>485</ele>
        <time>2019-01-18T10:14:17.000Z</time>
      </trkpt>
      <trkpt lat="43.33581" lon="5.6828">
        <ele>485</ele>
        <time>2019-01-18T10:14:18.000Z</time>
      </trkpt>
      <trkpt lat="43.33581" lon="5.6828">
        <ele>485</ele>
        <time>2019-01-18T10:14:19.000Z</time>
      </trkpt>
      <trkpt lat="43.3358" lon="5.6828">
        <ele>485</ele>
        <time>2019-01-18T10:14:20.000Z</time>
      </trkpt>
      <trkpt lat="43.3358" lon="5.6828">
        <ele>485</ele>
        <time>2019-01-18T10:14:21.000Z</time>
      </trkpt>
      <trkpt lat="43.3358" lon="5.6828">
        <ele>485</ele>
        <time>2019-01-18T10:14:22.000Z</time>
      </trkpt>
      <trkpt lat="43.3358" lon="5.6828">
        <ele>486</ele>
        <time>2019-01-18T10:14:23.000Z</time>
      </trkpt>
      <trkpt lat="43.3358" lon="5.6828">
        <ele>486</ele>
        <time>2019-01-18T10:14:24.000Z</time>
      </trkpt>
      <trkpt lat="43.3358" lon="5.6828">
        <ele>486</ele>
        <time>2019-01-18T10:14:25.000Z</time>
      </trkpt>
      <trkpt lat="43.3358" lon="5.68281">
        <ele>486</ele>
        <time>2019-01-18T10:14:26.000Z</time>
      </trkpt>
      <trkpt lat="43.3358" lon="5.68281">
        <ele>486</ele>
        <time>2019-01-18T10:14:27.000Z</time>
      </trkpt>
      <trkpt lat="43.3358" lon="5.68282">
        <ele>486</ele>
        <time>2019-01-18T10:14:28.000Z</time>
      </trkpt>
      <trkpt lat="43.33579" lon="5.68283">
        <ele>486</ele>
        <time>2019-01-18T10:14:29.000Z</time>
      </trkpt>
      <trkpt lat="43.33579" lon="5.68284">
        <ele>486</ele>
        <time>2019-01-18T10:14:30.000Z</time>
      </trkpt>
      <trkpt lat="43.33579" lon="5.68284">
        <ele>486</ele>
        <time>2019-01-18T10:14:31.000Z</time>
      </trkpt>
      <trkpt lat="43.33579" lon="5.68285">
        <ele>486</ele>
        <time>2019-01-18T10:14:32.000Z</time>
      </trkpt>
      <trkpt lat="43.33579" lon="5.68285">
        <ele>486</ele>
        <time>2019-01-18T10:14:33.000Z</time>
      </trkpt>
      <trkpt lat="43.3358" lon="5.68285">
        <ele>486</ele>
        <time>2019-01-18T10:14:34.000Z</time>
      </trkpt>
      <trkpt lat="43.3358" lon="5.68286">
        <ele>486</ele>
        <time>2019-01-18T10:14:35.000Z</time>
      </trkpt>
      <trkpt lat="43.3358" lon="5.68286">
        <ele>486</ele>
        <time>2019-01-18T10:14:36.000Z</time>
      </trkpt>
      <trkpt lat="43.3358" lon="5.68286">
        <ele>486</ele>
        <time>2019-01-18T10:14:37.000Z</time>
      </trkpt>
      <trkpt lat="43.3358" lon="5.68286">
        <ele>486</ele>
        <time>2019-01-18T10:14:38.000Z</time>
      </trkpt>
      <trkpt lat="43.3358" lon="5.68286">
        <ele>486</ele>
        <time>2019-01-18T10:14:39.000Z</time>
      </trkpt>
      <trkpt lat="43.3358" lon="5.68286">
        <ele>486</ele>
        <time>2019-01-18T10:14:40.000Z</time>
      </trkpt>
      <trkpt lat="43.3358" lon="5.68286">
        <ele>486</ele>
        <time>2019-01-18T10:14:41.000Z</time>
      </trkpt>
      <trkpt lat="43.33581" lon="5.68286">
        <ele>486</ele>
        <time>2019-01-18T10:14:42.000Z</time>
      </trkpt>
      <trkpt lat="43.33581" lon="5.68286">
        <ele>486</ele>
        <time>2019-01-18T10:14:43.000Z</time>
      </trkpt>
      <trkpt lat="43.33582" lon="5.68287">
        <ele>486</ele>
        <time>2019-01-18T10:14:44.000Z</time>
      </trkpt>
      <trkpt lat="43.33582" lon="5.68289">
        <ele>486</ele>
        <time>2019-01-18T10:14:45.000Z</time>
      </trkpt>
      <trkpt lat="43.33582" lon="5.68289">
        <ele>486</ele>
        <time>2019-01-18T10:14:46.000Z</time>
      </trkpt>
      <trkpt lat="43.33582" lon="5.6829">
        <ele>486</ele>
        <time>2019-01-18T10:14:47.000Z</time>
      </trkpt>
      <trkpt lat="43.33582" lon="5.68291">
        <ele>486</ele>
        <time>2019-01-18T10:14:48.000Z</time>
      </trkpt>
      <trkpt lat="43.33582" lon="5.68292">
        <ele>487</ele>
        <time>2019-01-18T10:14:49.000Z</time>
      </trkpt>
      <trkpt lat="43.33582" lon="5.68293">
        <ele>487</ele>
        <time>2019-01-18T10:14:50.000Z</time>
      </trkpt>
      <trkpt lat="43.33582" lon="5.68293">
        <ele>487</ele>
        <time>2019-01-18T10:14:51.000Z</time>
      </trkpt>
      <trkpt lat="43.33581" lon="5.68294">
        <ele>487</ele>
        <time>2019-01-18T10:14:52.000Z</time>
      </trkpt>
      <trkpt lat="43.33581" lon="5.68295">
        <ele>487</ele>
        <time>2019-01-18T10:14:53.000Z</time>
      </trkpt>
      <trkpt lat="43.3358" lon="5.68295">
        <ele>487</ele>
        <time>2019-01-18T10:14:54.000Z</time>
      </trkpt>
      <trkpt lat="43.3358" lon="5.68295">
        <ele>487</ele>
        <time>2019-01-18T10:14:55.000Z</time>
      </trkpt>
      <trkpt lat="43.3358" lon="5.68295">
        <ele>487</ele>
        <time>2019-01-18T10:14:56.000Z</time>
      </trkpt>
      <trkpt lat="43.3358" lon="5.68296">
        <ele>487</ele>
        <time>2019-01-18T10:14:57.000Z</time>
      </trkpt>
      <trkpt lat="43.33581" lon="5.68297">
        <ele>488</ele>
        <time>2019-01-18T10:14:58.000Z</time>
      </trkpt>
      <trkpt lat="43.33581" lon="5.68297">
        <ele>488</ele>
        <time>2019-01-18T10:14:59.000Z</time>
      </trkpt>
      <trkpt lat="43.33581" lon="5.68297">
        <ele>488</ele>
        <time>2019-01-18T10:15:00.000Z</time>
      </trkpt>
      <trkpt lat="43.33581" lon="5.68297">
        <ele>488</ele>
        <time>2019-01-18T10:15:01.000Z</time>
      </trkpt>
      <trkpt lat="43.33581" lon="5.68297">
        <ele>488</ele>
        <time>2019-01-18T10:15:02.000Z</time>
      </trkpt>
      <trkpt lat="43.33581" lon="5.68297">
        <ele>488</ele>
        <time>2019-01-18T10:15:03.000Z</time>
      </trkpt>
      <trkpt lat="43.33581" lon="5.68297">
        <ele>488</ele>
        <time>2019-01-18T10:15:04.000Z</time>
      </trkpt>
      <trkpt lat="43.33581" lon="5.68297">
        <ele>488</ele>
        <time>2019-01-18T10:15:05.000Z</time>
      </trkpt>
      <trkpt lat="43.33582" lon="5.68297">
        <ele>488</ele>
        <time>2019-01-18T10:15:06.000Z</time>
      </trkpt>
      <trkpt lat="43.33582" lon="5.68297">
        <ele>488</ele>
        <time>2019-01-18T10:15:07.000Z</time>
      </trkpt>
      <trkpt lat="43.33582" lon="5.68297">
        <ele>488</ele>
        <time>2019-01-18T10:15:08.000Z</time>
      </trkpt>
      <trkpt lat="43.33582" lon="5.68297">
        <ele>488</ele>
        <time>2019-01-18T10:15:09.000Z</time>
      </trkpt>
      <trkpt lat="43.33582" lon="5.68297">
        <ele>489</ele>
        <time>2019-01-18T10:15:10.000Z</time>
      </trkpt>
      <trkpt lat="43.33582" lon="5.68297">
        <ele>489</ele>
        <time>2019-01-18T10:15:11.000Z</time>
      </trkpt>
      <trkpt lat="43.33582" lon="5.68297">
        <ele>489</ele>
        <time>2019-01-18T10:15:12.000Z</time>
      </trkpt>
      <trkpt lat="43.33582" lon="5.68297">
        <ele>489</ele>
        <time>2019-01-18T10:15:13.000Z</time>
      </trkpt>
      <trkpt lat="43.33582" lon="5.68297">
        <ele>489</ele>
        <time>2019-01-18T10:15:14.000Z</time>
      </trkpt>
      <trkpt lat="43.33582" lon="5.68297">
        <ele>489</ele>
        <time>2019-01-18T10:15:15.000Z</time>
      </trkpt>
      <trkpt lat="43.33582" lon="5.68297">
        <ele>489</ele>
        <time>2019-01-18T10:15:16.000Z</time>
      </trkpt>
      <trkpt lat="43.33582" lon="5.68297">
        <ele>489</ele>
        <time>2019-01-18T10:15:17.000Z</time>
      </trkpt>
      <trkpt lat="43.33582" lon="5.68297">
        <ele>489</ele>
        <time>2019-01-18T10:15:18.000Z</time>
      </trkpt>
      <trkpt lat="43.33582" lon="5.68297">
        <ele>489</ele>
        <time>2019-01-18T10:15:19.000Z</time>
      </trkpt>
      <trkpt lat="43.33582" lon="5.68298">
        <ele>489</ele>
        <time>2019-01-18T10:15:20.000Z</time>
      </trkpt>
      <trkpt lat="43.33582" lon="5.68298">
        <ele>489</ele>
        <time>2019-01-18T10:15:21.000Z</time>
      </trkpt>
      <trkpt lat="43.33582" lon="5.68298">
        <ele>489</ele>
        <time>2019-01-18T10:15:22.000Z</time>
      </trkpt>
      <trkpt lat="43.33582" lon="5.68298">
        <ele>489</ele>
        <time>2019-01-18T10:15:23.000Z</time>
      </trkpt>
      <trkpt lat="43.33582" lon="5.68298">
        <ele>488</ele>
        <time>2019-01-18T10:15:24.000Z</time>
      </trkpt>
      <trkpt lat="43.33582" lon="5.68298">
        <ele>488</ele>
        <time>2019-01-18T10:15:25.000Z</time>
      </trkpt>
      <trkpt lat="43.33582" lon="5.68298">
        <ele>488</ele>
        <time>2019-01-18T10:15:26.000Z</time>
      </trkpt>
      <trkpt lat="43.33582" lon="5.68298">
        <ele>488</ele>
        <time>2019-01-18T10:15:27.000Z</time>
      </trkpt>
      <trkpt lat="43.33582" lon="5.68298">
        <ele>488</ele>
        <time>2019-01-18T10:15:28.000Z</time>
      </trkpt>
      <trkpt lat="43.33582" lon="5.68298">
        <ele>488</ele>
        <time>2019-01-18T10:15:29.000Z</time>
      </trkpt>
      <trkpt lat="43.33582" lon="5.68298">
        <ele>488</ele>
        <time>2019-01-18T10:15:30.000Z</time>
      </trkpt>
      <trkpt lat="43.33582" lon="5.68298">
        <ele>488</ele>
        <time>2019-01-18T10:15:31.000Z</time>
      </trkpt>
      <trkpt lat="43.33582" lon="5.68298">
        <ele>488</ele>
        <time>2019-01-18T10:15:32.000Z</time>
      </trkpt>
      <trkpt lat="43.33582" lon="5.68298">
        <ele>488</ele>
        <time>2019-01-18T10:15:33.000Z</time>
      </trkpt>
      <trkpt lat="43.33582" lon="5.68298">
        <ele>488</ele>
        <time>2019-01-18T10:15:34.000Z</time>
      </trkpt>
      <trkpt lat="43.33582" lon="5.68298">
        <ele>488</ele>
        <time>2019-01-18T10:15:35.000Z</time>
      </trkpt>
      <trkpt lat="43.33582" lon="5.68298">
        <ele>488</ele>
        <time>2019-01-18T10:15:36.000Z</time>
      </trkpt>
      <trkpt lat="43.33582" lon="5.68298">
        <ele>488</ele>
        <time>2019-01-18T10:15:37.000Z</time>
      </trkpt>
      <trkpt lat="43.33582" lon="5.68298">
        <ele>488</ele>
        <time>2019-01-18T10:15:38.000Z</time>
      </trkpt>
      <trkpt lat="43.33582" lon="5.68298">
        <ele>488</ele>
        <time>2019-01-18T10:15:39.000Z</time>
      </trkpt>
      <trkpt lat="43.33582" lon="5.68298">
        <ele>488</ele>
        <time>2019-01-18T10:15:40.000Z</time>
      </trkpt>
      <trkpt lat="43.33582" lon="5.68299">
        <ele>488</ele>
        <time>2019-01-18T10:15:41.000Z</time>
      </trkpt>
      <trkpt lat="43.33582" lon="5.683">
        <ele>488</ele>
        <time>2019-01-18T10:15:42.000Z</time>
      </trkpt>
      <trkpt lat="43.33582" lon="5.68301">
        <ele>488</ele>
        <time>2019-01-18T10:15:43.000Z</time>
      </trkpt>
      <trkpt lat="43.33582" lon="5.68303">
        <ele>488</ele>
        <time>2019-01-18T10:15:44.000Z</time>
      </trkpt>
      <trkpt lat="43.33583" lon="5.68304">
        <ele>488</ele>
        <time>2019-01-18T10:15:45.000Z</time>
      </trkpt>
      <trkpt lat="43.33583" lon="5.68305">
        <ele>488</ele>
        <time>2019-01-18T10:15:46.000Z</time>
      </trkpt>
      <trkpt lat="43.33583" lon="5.68306">
        <ele>489</ele>
        <time>2019-01-18T10:15:47.000Z</time>
      </trkpt>
      <trkpt lat="43.33583" lon="5.68307">
        <ele>489</ele>
        <time>2019-01-18T10:15:48.000Z</time>
      </trkpt>
      <trkpt lat="43.33584" lon="5.68307">
        <ele>489</ele>
        <time>2019-01-18T10:15:49.000Z</time>
      </trkpt>
      <trkpt lat="43.33584" lon="5.68307">
        <ele>489</ele>
        <time>2019-01-18T10:15:50.000Z</time>
      </trkpt>
      <trkpt lat="43.33583" lon="5.68308">
        <ele>489</ele>
        <time>2019-01-18T10:15:51.000Z</time>
      </trkpt>
      <trkpt lat="43.33583" lon="5.68308">
        <ele>489</ele>
        <time>2019-01-18T10:15:52.000Z</time>
      </trkpt>
      <trkpt lat="43.33583" lon="5.68308">
        <ele>489</ele>
        <time>2019-01-18T10:15:53.000Z</time>
      </trkpt>
      <trkpt lat="43.33583" lon="5.68308">
        <ele>489</ele>
        <time>2019-01-18T10:15:54.000Z</time>
      </trkpt>
      <trkpt lat="43.33583" lon="5.68308">
        <ele>489</ele>
        <time>2019-01-18T10:15:55.000Z</time>
      </trkpt>
      <trkpt lat="43.33583" lon="5.68308">
        <ele>489</ele>
        <time>2019-01-18T10:15:56.000Z</time>
      </trkpt>
      <trkpt lat="43.33583" lon="5.68308">
        <ele>489</ele>
        <time>2019-01-18T10:15:57.000Z</time>
      </trkpt>
      <trkpt lat="43.33583" lon="5.68308">
        <ele>489</ele>
        <time>2019-01-18T10:15:58.000Z</time>
      </trkpt>
      <trkpt lat="43.33583" lon="5.68308">
        <ele>489</ele>
        <time>2019-01-18T10:15:59.000Z</time>
      </trkpt>
      <trkpt lat="43.33583" lon="5.68308">
        <ele>489</ele>
        <time>2019-01-18T10:16:00.000Z</time>
      </trkpt>
      <trkpt lat="43.33583" lon="5.68308">
        <ele>489</ele>
        <time>2019-01-18T10:16:01.000Z</time>
      </trkpt>
      <trkpt lat="43.33583" lon="5.68309">
        <ele>489</ele>
        <time>2019-01-18T10:16:02.000Z</time>
      </trkpt>
      <trkpt lat="43.33583" lon="5.6831">
        <ele>489</ele>
        <time>2019-01-18T10:16:03.000Z</time>
      </trkpt>
      <trkpt lat="43.33583" lon="5.6831">
        <ele>489</ele>
        <time>2019-01-18T10:16:04.000Z</time>
      </trkpt>
      <trkpt lat="43.33583" lon="5.68311">
        <ele>489</ele>
        <time>2019-01-18T10:16:05.000Z</time>
      </trkpt>
      <trkpt lat="43.33583" lon="5.68311">
        <ele>489</ele>
        <time>2019-01-18T10:16:06.000Z</time>
      </trkpt>
      <trkpt lat="43.33584" lon="5.68312">
        <ele>489</ele>
        <time>2019-01-18T10:16:07.000Z</time>
      </trkpt>
      <trkpt lat="43.33584" lon="5.68313">
        <ele>489</ele>
        <time>2019-01-18T10:16:08.000Z</time>
      </trkpt>
      <trkpt lat="43.33585" lon="5.68314">
        <ele>489</ele>
        <time>2019-01-18T10:16:09.000Z</time>
      </trkpt>
      <trkpt lat="43.33585" lon="5.68315">
        <ele>489</ele>
        <time>2019-01-18T10:16:10.000Z</time>
      </trkpt>
      <trkpt lat="43.33585" lon="5.68315">
        <ele>489</ele>
        <time>2019-01-18T10:16:11.000Z</time>
      </trkpt>
      <trkpt lat="43.33585" lon="5.68315">
        <ele>489</ele>
        <time>2019-01-18T10:16:12.000Z</time>
      </trkpt>
      <trkpt lat="43.33585" lon="5.68315">
        <ele>490</ele>
        <time>2019-01-18T10:16:13.000Z</time>
      </trkpt>
      <trkpt lat="43.33585" lon="5.68316">
        <ele>490</ele>
        <time>2019-01-18T10:16:14.000Z</time>
      </trkpt>
      <trkpt lat="43.33585" lon="5.68316">
        <ele>490</ele>
        <time>2019-01-18T10:16:15.000Z</time>
      </trkpt>
      <trkpt lat="43.33585" lon="5.68316">
        <ele>490</ele>
        <time>2019-01-18T10:16:16.000Z</time>
      </trkpt>
      <trkpt lat="43.33585" lon="5.68316">
        <ele>490</ele>
        <time>2019-01-18T10:16:17.000Z</time>
      </trkpt>
      <trkpt lat="43.33585" lon="5.68317">
        <ele>490</ele>
        <time>2019-01-18T10:16:18.000Z</time>
      </trkpt>
      <trkpt lat="43.33585" lon="5.68317">
        <ele>490</ele>
        <time>2019-01-18T10:16:19.000Z</time>
      </trkpt>
      <trkpt lat="43.33586" lon="5.68318">
        <ele>490</ele>
        <time>2019-01-18T10:16:20.000Z</time>
      </trkpt>
      <trkpt lat="43.33586" lon="5.68319">
        <ele>490</ele>
        <time>2019-01-18T10:16:21.000Z</time>
      </trkpt>
      <trkpt lat="43.33586" lon="5.6832">
        <ele>490</ele>
        <time>2019-01-18T10:16:22.000Z</time>
      </trkpt>
      <trkpt lat="43.33585" lon="5.68321">
        <ele>491</ele>
        <time>2019-01-18T10:16:23.000Z</time>
      </trkpt>
      <trkpt lat="43.33585" lon="5.68322">
        <ele>491</ele>
        <time>2019-01-18T10:16:24.000Z</time>
      </trkpt>
      <trkpt lat="43.33584" lon="5.68322">
        <ele>490</ele>
        <time>2019-01-18T10:16:25.000Z</time>
      </trkpt>
      <trkpt lat="43.33584" lon="5.68322">
        <ele>490</ele>
        <time>2019-01-18T10:16:26.000Z</time>
      </trkpt>
      <trkpt lat="43.33583" lon="5.68322">
        <ele>490</ele>
        <time>2019-01-18T10:16:27.000Z</time>
      </trkpt>
      <trkpt lat="43.33583" lon="5.68322">
        <ele>490</ele>
        <time>2019-01-18T10:16:28.000Z</time>
      </trkpt>
      <trkpt lat="43.33582" lon="5.68323">
        <ele>490</ele>
        <time>2019-01-18T10:16:29.000Z</time>
      </trkpt>
      <trkpt lat="43.33582" lon="5.68324">
        <ele>490</ele>
        <time>2019-01-18T10:16:30.000Z</time>
      </trkpt>
      <trkpt lat="43.33581" lon="5.68325">
        <ele>490</ele>
        <time>2019-01-18T10:16:31.000Z</time>
      </trkpt>
      <trkpt lat="43.3358" lon="5.68326">
        <ele>490</ele>
        <time>2019-01-18T10:16:32.000Z</time>
      </trkpt>
      <trkpt lat="43.3358" lon="5.68326">
        <ele>490</ele>
        <time>2019-01-18T10:16:33.000Z</time>
      </trkpt>
      <trkpt lat="43.3358" lon="5.68327">
        <ele>490</ele>
        <time>2019-01-18T10:16:34.000Z</time>
      </trkpt>
      <trkpt lat="43.3358" lon="5.68327">
        <ele>490</ele>
        <time>2019-01-18T10:16:35.000Z</time>
      </trkpt>
      <trkpt lat="43.3358" lon="5.68327">
        <ele>490</ele>
        <time>2019-01-18T10:16:36.000Z</time>
      </trkpt>
      <trkpt lat="43.3358" lon="5.68327">
        <ele>490</ele>
        <time>2019-01-18T10:16:37.000Z</time>
      </trkpt>
      <trkpt lat="43.3358" lon="5.68328">
        <ele>490</ele>
        <time>2019-01-18T10:16:38.000Z</time>
      </trkpt>
      <trkpt lat="43.33581" lon="5.68329">
        <ele>490</ele>
        <time>2019-01-18T10:16:39.000Z</time>
      </trkpt>
      <trkpt lat="43.33581" lon="5.6833">
        <ele>490</ele>
        <time>2019-01-18T10:16:40.000Z</time>
      </trkpt>
      <trkpt lat="43.33582" lon="5.68331">
        <ele>490</ele>
        <time>2019-01-18T10:16:41.000Z</time>
      </trkpt>
      <trkpt lat="43.33582" lon="5.68332">
        <ele>490</ele>
        <time>2019-01-18T10:16:42.000Z</time>
      </trkpt>
      <trkpt lat="43.33583" lon="5.68333">
        <ele>490</ele>
        <time>2019-01-18T10:16:43.000Z</time>
      </trkpt>
      <trkpt lat="43.33583" lon="5.68334">
        <ele>490</ele>
        <time>2019-01-18T10:16:44.000Z</time>
      </trkpt>
      <trkpt lat="43.33583" lon="5.68335">
        <ele>490</ele>
        <time>2019-01-18T10:16:45.000Z</time>
      </trkpt>
      <trkpt lat="43.33583" lon="5.68337">
        <ele>490</ele>
        <time>2019-01-18T10:16:46.000Z</time>
      </trkpt>
      <trkpt lat="43.33583" lon="5.68338">
        <ele>490</ele>
        <time>2019-01-18T10:16:47.000Z</time>
      </trkpt>
      <trkpt lat="43.33584" lon="5.68339">
        <ele>491</ele>
        <time>2019-01-18T10:16:48.000Z</time>
      </trkpt>
      <trkpt lat="43.33584" lon="5.6834">
        <ele>491</ele>
        <time>2019-01-18T10:16:49.000Z</time>
      </trkpt>
      <trkpt lat="43.33584" lon="5.68341">
        <ele>491</ele>
        <time>2019-01-18T10:16:50.000Z</time>
      </trkpt>
      <trkpt lat="43.33585" lon="5.68343">
        <ele>491</ele>
        <time>2019-01-18T10:16:51.000Z</time>
      </trkpt>
      <trkpt lat="43.33585" lon="5.68344">
        <ele>491</ele>
        <time>2019-01-18T10:16:52.000Z</time>
      </trkpt>
      <trkpt lat="43.33585" lon="5.68346">
        <ele>491</ele>
        <time>2019-01-18T10:16:53.000Z</time>
      </trkpt>
      <trkpt lat="43.33585" lon="5.68347">
        <ele>491</ele>
        <time>2019-01-18T10:16:54.000Z</time>
      </trkpt>
      <trkpt lat="43.33584" lon="5.68348">
        <ele>492</ele>
        <time>2019-01-18T10:16:55.000Z</time>
      </trkpt>
      <trkpt lat="43.33584" lon="5.68349">
        <ele>492</ele>
        <time>2019-01-18T10:16:56.000Z</time>
      </trkpt>
      <trkpt lat="43.33584" lon="5.6835">
        <ele>492</ele>
        <time>2019-01-18T10:16:57.000Z</time>
      </trkpt>
      <trkpt lat="43.33584" lon="5.68351">
        <ele>492</ele>
        <time>2019-01-18T10:16:58.000Z</time>
      </trkpt>
      <trkpt lat="43.33585" lon="5.68352">
        <ele>492</ele>
        <time>2019-01-18T10:16:59.000Z</time>
      </trkpt>
      <trkpt lat="43.33585" lon="5.68353">
        <ele>492</ele>
        <time>2019-01-18T10:17:00.000Z</time>
      </trkpt>
      <trkpt lat="43.33586" lon="5.68354">
        <ele>492</ele>
        <time>2019-01-18T10:17:01.000Z</time>
      </trkpt>
      <trkpt lat="43.33586" lon="5.68355">
        <ele>492</ele>
        <time>2019-01-18T10:17:02.000Z</time>
      </trkpt>
      <trkpt lat="43.33587" lon="5.68356">
        <ele>492</ele>
        <time>2019-01-18T10:17:03.000Z</time>
      </trkpt>
      <trkpt lat="43.33587" lon="5.68357">
        <ele>493</ele>
        <time>2019-01-18T10:17:04.000Z</time>
      </trkpt>
      <trkpt lat="43.33588" lon="5.68358">
        <ele>493</ele>
        <time>2019-01-18T10:17:05.000Z</time>
      </trkpt>
      <trkpt lat="43.33588" lon="5.68359">
        <ele>493</ele>
        <time>2019-01-18T10:17:06.000Z</time>
      </trkpt>
      <trkpt lat="43.33588" lon="5.6836">
        <ele>493</ele>
        <time>2019-01-18T10:17:07.000Z</time>
      </trkpt>
      <trkpt lat="43.33589" lon="5.68361">
        <ele>493</ele>
        <time>2019-01-18T10:17:08.000Z</time>
      </trkpt>
      <trkpt lat="43.33589" lon="5.68362">
        <ele>493</ele>
        <time>2019-01-18T10:17:09.000Z</time>
      </trkpt>
      <trkpt lat="43.33589" lon="5.68362">
        <ele>493</ele>
        <time>2019-01-18T10:17:10.000Z</time>
      </trkpt>
      <trkpt lat="43.33589" lon="5.68363">
        <ele>493</ele>
        <time>2019-01-18T10:17:11.000Z</time>
      </trkpt>
      <trkpt lat="43.33589" lon="5.68364">
        <ele>493</ele>
        <time>2019-01-18T10:17:12.000Z</time>
      </trkpt>
      <trkpt lat="43.3359" lon="5.68364">
        <ele>493</ele>
        <time>2019-01-18T10:17:13.000Z</time>
      </trkpt>
      <trkpt lat="43.3359" lon="5.68364">
        <ele>494</ele>
        <time>2019-01-18T10:17:14.000Z</time>
      </trkpt>
      <trkpt lat="43.3359" lon="5.68365">
        <ele>494</ele>
        <time>2019-01-18T10:17:15.000Z</time>
      </trkpt>
      <trkpt lat="43.3359" lon="5.68365">
        <ele>494</ele>
        <time>2019-01-18T10:17:16.000Z</time>
      </trkpt>
      <trkpt lat="43.3359" lon="5.68365">
        <ele>494</ele>
        <time>2019-01-18T10:17:17.000Z</time>
      </trkpt>
      <trkpt lat="43.3359" lon="5.68365">
        <ele>494</ele>
        <time>2019-01-18T10:17:18.000Z</time>
      </trkpt>
      <trkpt lat="43.3359" lon="5.68366">
        <ele>494</ele>
        <time>2019-01-18T10:17:19.000Z</time>
      </trkpt>
      <trkpt lat="43.33591" lon="5.68366">
        <ele>494</ele>
        <time>2019-01-18T10:17:20.000Z</time>
      </trkpt>
      <trkpt lat="43.33591" lon="5.68366">
        <ele>494</ele>
        <time>2019-01-18T10:17:21.000Z</time>
      </trkpt>
      <trkpt lat="43.33591" lon="5.68367">
        <ele>494</ele>
        <time>2019-01-18T10:17:22.000Z</time>
      </trkpt>
      <trkpt lat="43.33591" lon="5.68367">
        <ele>494</ele>
        <time>2019-01-18T10:17:23.000Z</time>
      </trkpt>
      <trkpt lat="43.33591" lon="5.68367">
        <ele>494</ele>
        <time>2019-01-18T10:17:24.000Z</time>
      </trkpt>
      <trkpt lat="43.33592" lon="5.68368">
        <ele>494</ele>
        <time>2019-01-18T10:17:25.000Z</time>
      </trkpt>
      <trkpt lat="43.33592" lon="5.68368">
        <ele>494</ele>
        <time>2019-01-18T10:17:26.000Z</time>
      </trkpt>
      <trkpt lat="43.33592" lon="5.68369">
        <ele>494</ele>
        <time>2019-01-18T10:17:27.000Z</time>
      </trkpt>
      <trkpt lat="43.33592" lon="5.68369">
        <ele>493</ele>
        <time>2019-01-18T10:17:28.000Z</time>
      </trkpt>
      <trkpt lat="43.33592" lon="5.6837">
        <ele>493</ele>
        <time>2019-01-18T10:17:29.000Z</time>
      </trkpt>
      <trkpt lat="43.33592" lon="5.68371">
        <ele>493</ele>
        <time>2019-01-18T10:17:30.000Z</time>
      </trkpt>
      <trkpt lat="43.33592" lon="5.68371">
        <ele>493</ele>
        <time>2019-01-18T10:17:31.000Z</time>
      </trkpt>
      <trkpt lat="43.33592" lon="5.68372">
        <ele>493</ele>
        <time>2019-01-18T10:17:32.000Z</time>
      </trkpt>
      <trkpt lat="43.33592" lon="5.68373">
        <ele>493</ele>
        <time>2019-01-18T10:17:33.000Z</time>
      </trkpt>
      <trkpt lat="43.33592" lon="5.68374">
        <ele>493</ele>
        <time>2019-01-18T10:17:34.000Z</time>
      </trkpt>
      <trkpt lat="43.33592" lon="5.68374">
        <ele>493</ele>
        <time>2019-01-18T10:17:35.000Z</time>
      </trkpt>
      <trkpt lat="43.33592" lon="5.68375">
        <ele>493</ele>
        <time>2019-01-18T10:17:36.000Z</time>
      </trkpt>
      <trkpt lat="43.33592" lon="5.68376">
        <ele>493</ele>
        <time>2019-01-18T10:17:37.000Z</time>
      </trkpt>
      <trkpt lat="43.33592" lon="5.68377">
        <ele>493</ele>
        <time>2019-01-18T10:17:38.000Z</time>
      </trkpt>
      <trkpt lat="43.33592" lon="5.68377">
        <ele>493</ele>
        <time>2019-01-18T10:17:39.000Z</time>
      </trkpt>
      <trkpt lat="43.33592" lon="5.68377">
        <ele>493</ele>
        <time>2019-01-18T10:17:40.000Z</time>
      </trkpt>
      <trkpt lat="43.33592" lon="5.68377">
        <ele>493</ele>
        <time>2019-01-18T10:17:41.000Z</time>
      </trkpt>
      <trkpt lat="43.33592" lon="5.68377">
        <ele>493</ele>
        <time>2019-01-18T10:17:42.000Z</time>
      </trkpt>
      <trkpt lat="43.33592" lon="5.68377">
        <ele>493</ele>
        <time>2019-01-18T10:17:43.000Z</time>
      </trkpt>
      <trkpt lat="43.33592" lon="5.68377">
        <ele>493</ele>
        <time>2019-01-18T10:17:44.000Z</time>
      </trkpt>
      <trkpt lat="43.33592" lon="5.68377">
        <ele>493</ele>
        <time>2019-01-18T10:17:45.000Z</time>
      </trkpt>
      <trkpt lat="43.33592" lon="5.68378">
        <ele>493</ele>
        <time>2019-01-18T10:17:46.000Z</time>
      </trkpt>
      <trkpt lat="43.33592" lon="5.68378">
        <ele>493</ele>
        <time>2019-01-18T10:17:47.000Z</time>
      </trkpt>
      <trkpt lat="43.33592" lon="5.6838">
        <ele>493</ele>
        <time>2019-01-18T10:17:48.000Z</time>
      </trkpt>
      <trkpt lat="43.33593" lon="5.68381">
        <ele>493</ele>
        <time>2019-01-18T10:17:49.000Z</time>
      </trkpt>
      <trkpt lat="43.33593" lon="5.68381">
        <ele>493</ele>
        <time>2019-01-18T10:17:50.000Z</time>
      </trkpt>
      <trkpt lat="43.33593" lon="5.68382">
        <ele>493</ele>
        <time>2019-01-18T10:17:51.000Z</time>
      </trkpt>
      <trkpt lat="43.33594" lon="5.68383">
        <ele>493</ele>
        <time>2019-01-18T10:17:52.000Z</time>
      </trkpt>
      <trkpt lat="43.33594" lon="5.68384">
        <ele>493</ele>
        <time>2019-01-18T10:17:53.000Z</time>
      </trkpt>
      <trkpt lat="43.33594" lon="5.68385">
        <ele>493</ele>
        <time>2019-01-18T10:17:54.000Z</time>
      </trkpt>
      <trkpt lat="43.33594" lon="5.68385">
        <ele>493</ele>
        <time>2019-01-18T10:17:55.000Z</time>
      </trkpt>
      <trkpt lat="43.33595" lon="5.68386">
        <ele>493</ele>
        <time>2019-01-18T10:17:56.000Z</time>
      </trkpt>
      <trkpt lat="43.33595" lon="5.68386">
        <ele>493</ele>
        <time>2019-01-18T10:17:57.000Z</time>
      </trkpt>
      <trkpt lat="43.33596" lon="5.68387">
        <ele>493</ele>
        <time>2019-01-18T10:17:58.000Z</time>
      </trkpt>
      <trkpt lat="43.33596" lon="5.68387">
        <ele>493</ele>
        <time>2019-01-18T10:17:59.000Z</time>
      </trkpt>
      <trkpt lat="43.33597" lon="5.68388">
        <ele>493</ele>
        <time>2019-01-18T10:18:00.000Z</time>
      </trkpt>
      <trkpt lat="43.33597" lon="5.68389">
        <ele>493</ele>
        <time>2019-01-18T10:18:01.000Z</time>
      </trkpt>
      <trkpt lat="43.33597" lon="5.6839">
        <ele>493</ele>
        <time>2019-01-18T10:18:02.000Z</time>
      </trkpt>
      <trkpt lat="43.33598" lon="5.68391">
        <ele>493</ele>
        <time>2019-01-18T10:18:03.000Z</time>
      </trkpt>
      <trkpt lat="43.33598" lon="5.68392">
        <ele>493</ele>
        <time>2019-01-18T10:18:04.000Z</time>
      </trkpt>
      <trkpt lat="43.33598" lon="5.68393">
        <ele>493</ele>
        <time>2019-01-18T10:18:05.000Z</time>
      </trkpt>
      <trkpt lat="43.33598" lon="5.68393">
        <ele>493</ele>
        <time>2019-01-18T10:18:06.000Z</time>
      </trkpt>
      <trkpt lat="43.33598" lon="5.68394">
        <ele>493</ele>
        <time>2019-01-18T10:18:07.000Z</time>
      </trkpt>
      <trkpt lat="43.33599" lon="5.68395">
        <ele>493</ele>
        <time>2019-01-18T10:18:08.000Z</time>
      </trkpt>
      <trkpt lat="43.33599" lon="5.68395">
        <ele>493</ele>
        <time>2019-01-18T10:18:09.000Z</time>
      </trkpt>
      <trkpt lat="43.336" lon="5.68396">
        <ele>493</ele>
        <time>2019-01-18T10:18:10.000Z</time>
      </trkpt>
      <trkpt lat="43.336" lon="5.68397">
        <ele>493</ele>
        <time>2019-01-18T10:18:11.000Z</time>
      </trkpt>
      <trkpt lat="43.33601" lon="5.68397">
        <ele>493</ele>
        <time>2019-01-18T10:18:12.000Z</time>
      </trkpt>
      <trkpt lat="43.33601" lon="5.68398">
        <ele>493</ele>
        <time>2019-01-18T10:18:13.000Z</time>
      </trkpt>
      <trkpt lat="43.33601" lon="5.68399">
        <ele>493</ele>
        <time>2019-01-18T10:18:14.000Z</time>
      </trkpt>
      <trkpt lat="43.33601" lon="5.684">
        <ele>493</ele>
        <time>2019-01-18T10:18:15.000Z</time>
      </trkpt>
      <trkpt lat="43.33602" lon="5.68401">
        <ele>493</ele>
        <time>2019-01-18T10:18:16.000Z</time>
      </trkpt>
      <trkpt lat="43.33602" lon="5.68402">
        <ele>493</ele>
        <time>2019-01-18T10:18:17.000Z</time>
      </trkpt>
      <trkpt lat="43.33602" lon="5.68402">
        <ele>493</ele>
        <time>2019-01-18T10:18:18.000Z</time>
      </trkpt>
      <trkpt lat="43.33603" lon="5.68402">
        <ele>493</ele>
        <time>2019-01-18T10:18:19.000Z</time>
      </trkpt>
      <trkpt lat="43.33603" lon="5.68403">
        <ele>493</ele>
        <time>2019-01-18T10:18:20.000Z</time>
      </trkpt>
      <trkpt lat="43.33603" lon="5.68403">
        <ele>493</ele>
        <time>2019-01-18T10:18:21.000Z</time>
      </trkpt>
      <trkpt lat="43.33604" lon="5.68403">
        <ele>493</ele>
        <time>2019-01-18T10:18:22.000Z</time>
      </trkpt>
      <trkpt lat="43.33604" lon="5.68404">
        <ele>493</ele>
        <time>2019-01-18T10:18:23.000Z</time>
      </trkpt>
      <trkpt lat="43.33605" lon="5.68404">
        <ele>494</ele>
        <time>2019-01-18T10:18:24.000Z</time>
      </trkpt>
      <trkpt lat="43.33605" lon="5.68404">
        <ele>494</ele>
        <time>2019-01-18T10:18:25.000Z</time>
      </trkpt>
      <trkpt lat="43.33606" lon="5.68404">
        <ele>494</ele>
        <time>2019-01-18T10:18:26.000Z</time>
      </trkpt>
      <trkpt lat="43.33606" lon="5.68404">
        <ele>494</ele>
        <time>2019-01-18T10:18:27.000Z</time>
      </trkpt>
      <trkpt lat="43.33607" lon="5.68404">
        <ele>494</ele>
        <time>2019-01-18T10:18:28.000Z</time>
      </trkpt>
      <trkpt lat="43.33608" lon="5.68405">
        <ele>494</ele>
        <time>2019-01-18T10:18:29.000Z</time>
      </trkpt>
      <trkpt lat="43.33609" lon="5.68406">
        <ele>494</ele>
        <time>2019-01-18T10:18:30.000Z</time>
      </trkpt>
      <trkpt lat="43.33609" lon="5.68407">
        <ele>494</ele>
        <time>2019-01-18T10:18:31.000Z</time>
      </trkpt>
      <trkpt lat="43.3361" lon="5.68407">
        <ele>494</ele>
        <time>2019-01-18T10:18:32.000Z</time>
      </trkpt>
      <trkpt lat="43.3361" lon="5.68408">
        <ele>494</ele>
        <time>2019-01-18T10:18:33.000Z</time>
      </trkpt>
      <trkpt lat="43.33611" lon="5.68409">
        <ele>494</ele>
        <time>2019-01-18T10:18:34.000Z</time>
      </trkpt>
      <trkpt lat="43.33611" lon="5.68409">
        <ele>494</ele>
        <time>2019-01-18T10:18:35.000Z</time>
      </trkpt>
      <trkpt lat="43.33611" lon="5.68411">
        <ele>494</ele>
        <time>2019-01-18T10:18:36.000Z</time>
      </trkpt>
      <trkpt lat="43.33612" lon="5.68412">
        <ele>494</ele>
        <time>2019-01-18T10:18:37.000Z</time>
      </trkpt>
      <trkpt lat="43.33612" lon="5.68412">
        <ele>494</ele>
        <time>2019-01-18T10:18:38.000Z</time>
      </trkpt>
      <trkpt lat="43.33611" lon="5.68413">
        <ele>493</ele>
        <time>2019-01-18T10:18:39.000Z</time>
      </trkpt>
      <trkpt lat="43.33612" lon="5.68414">
        <ele>493</ele>
        <time>2019-01-18T10:18:40.000Z</time>
      </trkpt>
      <trkpt lat="43.33612" lon="5.68415">
        <ele>493</ele>
        <time>2019-01-18T10:18:41.000Z</time>
      </trkpt>
      <trkpt lat="43.33612" lon="5.68416">
        <ele>493</ele>
        <time>2019-01-18T10:18:42.000Z</time>
      </trkpt>
      <trkpt lat="43.33612" lon="5.68416">
        <ele>493</ele>
        <time>2019-01-18T10:18:43.000Z</time>
      </trkpt>
      <trkpt lat="43.33613" lon="5.68416">
        <ele>493</ele>
        <time>2019-01-18T10:18:44.000Z</time>
      </trkpt>
      <trkpt lat="43.33613" lon="5.68417">
        <ele>493</ele>
        <time>2019-01-18T10:18:45.000Z</time>
      </trkpt>
      <trkpt lat="43.33613" lon="5.68417">
        <ele>493</ele>
        <time>2019-01-18T10:18:46.000Z</time>
      </trkpt>
      <trkpt lat="43.33613" lon="5.68418">
        <ele>493</ele>
        <time>2019-01-18T10:18:47.000Z</time>
      </trkpt>
      <trkpt lat="43.33612" lon="5.68418">
        <ele>493</ele>
        <time>2019-01-18T10:18:48.000Z</time>
      </trkpt>
      <trkpt lat="43.33612" lon="5.68419">
        <ele>493</ele>
        <time>2019-01-18T10:18:49.000Z</time>
      </trkpt>
      <trkpt lat="43.33612" lon="5.68419">
        <ele>494</ele>
        <time>2019-01-18T10:18:50.000Z</time>
      </trkpt>
      <trkpt lat="43.33612" lon="5.68419">
        <ele>494</ele>
        <time>2019-01-18T10:18:51.000Z</time>
      </trkpt>
      <trkpt lat="43.33612" lon="5.68419">
        <ele>494</ele>
        <time>2019-01-18T10:18:52.000Z</time>
      </trkpt>
      <trkpt lat="43.33612" lon="5.68419">
        <ele>494</ele>
        <time>2019-01-18T10:18:53.000Z</time>
      </trkpt>
      <trkpt lat="43.33612" lon="5.6842">
        <ele>494</ele>
        <time>2019-01-18T10:18:54.000Z</time>
      </trkpt>
      <trkpt lat="43.33612" lon="5.6842">
        <ele>494</ele>
        <time>2019-01-18T10:18:55.000Z</time>
      </trkpt>
      <trkpt lat="43.33612" lon="5.6842">
        <ele>494</ele>
        <time>2019-01-18T10:18:56.000Z</time>
      </trkpt>
      <trkpt lat="43.33612" lon="5.6842">
        <ele>494</ele>
        <time>2019-01-18T10:18:57.000Z</time>
      </trkpt>
      <trkpt lat="43.33612" lon="5.68421">
        <ele>494</ele>
        <time>2019-01-18T10:18:58.000Z</time>
      </trkpt>
      <trkpt lat="43.33612" lon="5.68422">
        <ele>494</ele>
        <time>2019-01-18T10:18:59.000Z</time>
      </trkpt>
      <trkpt lat="43.33613" lon="5.68422">
        <ele>494</ele>
        <time>2019-01-18T10:19:00.000Z</time>
      </trkpt>
      <trkpt lat="43.33613" lon="5.68423">
        <ele>494</ele>
        <time>2019-01-18T10:19:01.000Z</time>
      </trkpt>
      <trkpt lat="43.33613" lon="5.68424">
        <ele>494</ele>
        <time>2019-01-18T10:19:02.000Z</time>
      </trkpt>
      <trkpt lat="43.33613" lon="5.68424">
        <ele>494</ele>
        <time>2019-01-18T10:19:03.000Z</time>
      </trkpt>
      <trkpt lat="43.33613" lon="5.68425">
        <ele>494</ele>
        <time>2019-01-18T10:19:04.000Z</time>
      </trkpt>
      <trkpt lat="43.33613" lon="5.68425">
        <ele>495</ele>
        <time>2019-01-18T10:19:05.000Z</time>
      </trkpt>
      <trkpt lat="43.33613" lon="5.68426">
        <ele>495</ele>
        <time>2019-01-18T10:19:06.000Z</time>
      </trkpt>
      <trkpt lat="43.33612" lon="5.68427">
        <ele>495</ele>
        <time>2019-01-18T10:19:07.000Z</time>
      </trkpt>
      <trkpt lat="43.33612" lon="5.68427">
        <ele>495</ele>
        <time>2019-01-18T10:19:08.000Z</time>
      </trkpt>
      <trkpt lat="43.33612" lon="5.68428">
        <ele>495</ele>
        <time>2019-01-18T10:19:09.000Z</time>
      </trkpt>
      <trkpt lat="43.33612" lon="5.68429">
        <ele>495</ele>
        <time>2019-01-18T10:19:10.000Z</time>
      </trkpt>
      <trkpt lat="43.33612" lon="5.68429">
        <ele>495</ele>
        <time>2019-01-18T10:19:11.000Z</time>
      </trkpt>
      <trkpt lat="43.33611" lon="5.68429">
        <ele>495</ele>
        <time>2019-01-18T10:19:12.000Z</time>
      </trkpt>
      <trkpt lat="43.33611" lon="5.68429">
        <ele>495</ele>
        <time>2019-01-18T10:19:13.000Z</time>
      </trkpt>
      <trkpt lat="43.33611" lon="5.6843">
        <ele>495</ele>
        <time>2019-01-18T10:19:14.000Z</time>
      </trkpt>
      <trkpt lat="43.33611" lon="5.6843">
        <ele>495</ele>
        <time>2019-01-18T10:19:15.000Z</time>
      </trkpt>
      <trkpt lat="43.33611" lon="5.68431">
        <ele>495</ele>
        <time>2019-01-18T10:19:16.000Z</time>
      </trkpt>
      <trkpt lat="43.33611" lon="5.68432">
        <ele>495</ele>
        <time>2019-01-18T10:19:17.000Z</time>
      </trkpt>
      <trkpt lat="43.33611" lon="5.68432">
        <ele>496</ele>
        <time>2019-01-18T10:19:18.000Z</time>
      </trkpt>
      <trkpt lat="43.3361" lon="5.68433">
        <ele>496</ele>
        <time>2019-01-18T10:19:19.000Z</time>
      </trkpt>
      <trkpt lat="43.3361" lon="5.68433">
        <ele>496</ele>
        <time>2019-01-18T10:19:20.000Z</time>
      </trkpt>
      <trkpt lat="43.3361" lon="5.68434">
        <ele>496</ele>
        <time>2019-01-18T10:19:21.000Z</time>
      </trkpt>
      <trkpt lat="43.3361" lon="5.68435">
        <ele>496</ele>
        <time>2019-01-18T10:19:22.000Z</time>
      </trkpt>
      <trkpt lat="43.33609" lon="5.68436">
        <ele>496</ele>
        <time>2019-01-18T10:19:23.000Z</time>
      </trkpt>
      <trkpt lat="43.33609" lon="5.68436">
        <ele>496</ele>
        <time>2019-01-18T10:19:24.000Z</time>
      </trkpt>
      <trkpt lat="43.33608" lon="5.68437">
        <ele>496</ele>
        <time>2019-01-18T10:19:25.000Z</time>
      </trkpt>
      <trkpt lat="43.33608" lon="5.68437">
        <ele>496</ele>
        <time>2019-01-18T10:19:26.000Z</time>
      </trkpt>
      <trkpt lat="43.33607" lon="5.68438">
        <ele>497</ele>
        <time>2019-01-18T10:19:27.000Z</time>
      </trkpt>
      <trkpt lat="43.33606" lon="5.68438">
        <ele>497</ele>
        <time>2019-01-18T10:19:28.000Z</time>
      </trkpt>
      <trkpt lat="43.33606" lon="5.68438">
        <ele>497</ele>
        <time>2019-01-18T10:19:29.000Z</time>
      </trkpt>
      <trkpt lat="43.33606" lon="5.68438">
        <ele>497</ele>
        <time>2019-01-18T10:19:30.000Z</time>
      </trkpt>
      <trkpt lat="43.33606" lon="5.68439">
        <ele>497</ele>
        <time>2019-01-18T10:19:31.000Z</time>
      </trkpt>
      <trkpt lat="43.33605" lon="5.6844">
        <ele>497</ele>
        <time>2019-01-18T10:19:32.000Z</time>
      </trkpt>
      <trkpt lat="43.33605" lon="5.6844">
        <ele>497</ele>
        <time>2019-01-18T10:19:33.000Z</time>
      </trkpt>
      <trkpt lat="43.33605" lon="5.6844">
        <ele>497</ele>
        <time>2019-01-18T10:19:34.000Z</time>
      </trkpt>
      <trkpt lat="43.33605" lon="5.6844">
        <ele>497</ele>
        <time>2019-01-18T10:19:35.000Z</time>
      </trkpt>
      <trkpt lat="43.33605" lon="5.6844">
        <ele>497</ele>
        <time>2019-01-18T10:19:36.000Z</time>
      </trkpt>
      <trkpt lat="43.33605" lon="5.6844">
        <ele>497</ele>
        <time>2019-01-18T10:19:37.000Z</time>
      </trkpt>
      <trkpt lat="43.33605" lon="5.68441">
        <ele>497</ele>
        <time>2019-01-18T10:19:38.000Z</time>
      </trkpt>
      <trkpt lat="43.33605" lon="5.68441">
        <ele>497</ele>
        <time>2019-01-18T10:19:39.000Z</time>
      </trkpt>
      <trkpt lat="43.33605" lon="5.68441">
        <ele>497</ele>
        <time>2019-01-18T10:19:40.000Z</time>
      </trkpt>
      <trkpt lat="43.33605" lon="5.68441">
        <ele>497</ele>
        <time>2019-01-18T10:19:41.000Z</time>
      </trkpt>
      <trkpt lat="43.33605" lon="5.68442">
        <ele>497</ele>
        <time>2019-01-18T10:19:42.000Z</time>
      </trkpt>
      <trkpt lat="43.33605" lon="5.68442">
        <ele>497</ele>
        <time>2019-01-18T10:19:43.000Z</time>
      </trkpt>
      <trkpt lat="43.33605" lon="5.68442">
        <ele>497</ele>
        <time>2019-01-18T10:19:44.000Z</time>
      </trkpt>
      <trkpt lat="43.33605" lon="5.68443">
        <ele>497</ele>
        <time>2019-01-18T10:19:45.000Z</time>
      </trkpt>
      <trkpt lat="43.33605" lon="5.68444">
        <ele>497</ele>
        <time>2019-01-18T10:19:46.000Z</time>
      </trkpt>
      <trkpt lat="43.33605" lon="5.68444">
        <ele>497</ele>
        <time>2019-01-18T10:19:47.000Z</time>
      </trkpt>
      <trkpt lat="43.33605" lon="5.68445">
        <ele>497</ele>
        <time>2019-01-18T10:19:48.000Z</time>
      </trkpt>
      <trkpt lat="43.33605" lon="5.68446">
        <ele>497</ele>
        <time>2019-01-18T10:19:49.000Z</time>
      </trkpt>
      <trkpt lat="43.33605" lon="5.68446">
        <ele>497</ele>
        <time>2019-01-18T10:19:50.000Z</time>
      </trkpt>
      <trkpt lat="43.33605" lon="5.68446">
        <ele>497</ele>
        <time>2019-01-18T10:19:51.000Z</time>
      </trkpt>
      <trkpt lat="43.33605" lon="5.68446">
        <ele>497</ele>
        <time>2019-01-18T10:19:52.000Z</time>
      </trkpt>
      <trkpt lat="43.33605" lon="5.68446">
        <ele>497</ele>
        <time>2019-01-18T10:19:53.000Z</time>
      </trkpt>
      <trkpt lat="43.33605" lon="5.68446">
        <ele>497</ele>
        <time>2019-01-18T10:19:54.000Z</time>
      </trkpt>
      <trkpt lat="43.33605" lon="5.68447">
        <ele>497</ele>
        <time>2019-01-18T10:19:55.000Z</time>
      </trkpt>
      <trkpt lat="43.33605" lon="5.68447">
        <ele>497</ele>
        <time>2019-01-18T10:19:56.000Z</time>
      </trkpt>
      <trkpt lat="43.33605" lon="5.68447">
        <ele>497</ele>
        <time>2019-01-18T10:19:57.000Z</time>
      </trkpt>
      <trkpt lat="43.33605" lon="5.68447">
        <ele>498</ele>
        <time>2019-01-18T10:19:58.000Z</time>
      </trkpt>
      <trkpt lat="43.33605" lon="5.68447">
        <ele>498</ele>
        <time>2019-01-18T10:19:59.000Z</time>
      </trkpt>
      <trkpt lat="43.33605" lon="5.68447">
        <ele>498</ele>
        <time>2019-01-18T10:20:00.000Z</time>
      </trkpt>
      <trkpt lat="43.33605" lon="5.68447">
        <ele>498</ele>
        <time>2019-01-18T10:20:01.000Z</time>
      </trkpt>
      <trkpt lat="43.33605" lon="5.68447">
        <ele>498</ele>
        <time>2019-01-18T10:20:02.000Z</time>
      </trkpt>
      <trkpt lat="43.33605" lon="5.68447">
        <ele>498</ele>
        <time>2019-01-18T10:20:03.000Z</time>
      </trkpt>
      <trkpt lat="43.33605" lon="5.68447">
        <ele>498</ele>
        <time>2019-01-18T10:20:04.000Z</time>
      </trkpt>
      <trkpt lat="43.33605" lon="5.68447">
        <ele>498</ele>
        <time>2019-01-18T10:20:05.000Z</time>
      </trkpt>
      <trkpt lat="43.33605" lon="5.68447">
        <ele>498</ele>
        <time>2019-01-18T10:20:06.000Z</time>
      </trkpt>
      <trkpt lat="43.33605" lon="5.68447">
        <ele>498</ele>
        <time>2019-01-18T10:20:07.000Z</time>
      </trkpt>
      <trkpt lat="43.33605" lon="5.68448">
        <ele>498</ele>
        <time>2019-01-18T10:20:08.000Z</time>
      </trkpt>
      <trkpt lat="43.33604" lon="5.68449">
        <ele>498</ele>
        <time>2019-01-18T10:20:09.000Z</time>
      </trkpt>
      <trkpt lat="43.33604" lon="5.68449">
        <ele>498</ele>
        <time>2019-01-18T10:20:10.000Z</time>
      </trkpt>
      <trkpt lat="43.33603" lon="5.6845">
        <ele>498</ele>
        <time>2019-01-18T10:20:11.000Z</time>
      </trkpt>
      <trkpt lat="43.33602" lon="5.6845">
        <ele>498</ele>
        <time>2019-01-18T10:20:12.000Z</time>
      </trkpt>
      <trkpt lat="43.33602" lon="5.6845">
        <ele>498</ele>
        <time>2019-01-18T10:20:13.000Z</time>
      </trkpt>
      <trkpt lat="43.33602" lon="5.68451">
        <ele>498</ele>
        <time>2019-01-18T10:20:14.000Z</time>
      </trkpt>
      <trkpt lat="43.33601" lon="5.68453">
        <ele>498</ele>
        <time>2019-01-18T10:20:15.000Z</time>
      </trkpt>
      <trkpt lat="43.33601" lon="5.68454">
        <ele>498</ele>
        <time>2019-01-18T10:20:16.000Z</time>
      </trkpt>
      <trkpt lat="43.336" lon="5.68455">
        <ele>498</ele>
        <time>2019-01-18T10:20:17.000Z</time>
      </trkpt>
      <trkpt lat="43.336" lon="5.68456">
        <ele>498</ele>
        <time>2019-01-18T10:20:18.000Z</time>
      </trkpt>
      <trkpt lat="43.33599" lon="5.68457">
        <ele>498</ele>
        <time>2019-01-18T10:20:19.000Z</time>
      </trkpt>
      <trkpt lat="43.33598" lon="5.68457">
        <ele>498</ele>
        <time>2019-01-18T10:20:20.000Z</time>
      </trkpt>
      <trkpt lat="43.33598" lon="5.68458">
        <ele>498</ele>
        <time>2019-01-18T10:20:21.000Z</time>
      </trkpt>
      <trkpt lat="43.33598" lon="5.68458">
        <ele>498</ele>
        <time>2019-01-18T10:20:22.000Z</time>
      </trkpt>
      <trkpt lat="43.33598" lon="5.68458">
        <ele>498</ele>
        <time>2019-01-18T10:20:23.000Z</time>
      </trkpt>
      <trkpt lat="43.33598" lon="5.68458">
        <ele>498</ele>
        <time>2019-01-18T10:20:24.000Z</time>
      </trkpt>
      <trkpt lat="43.33597" lon="5.68459">
        <ele>498</ele>
        <time>2019-01-18T10:20:25.000Z</time>
      </trkpt>
      <trkpt lat="43.33597" lon="5.68459">
        <ele>498</ele>
        <time>2019-01-18T10:20:26.000Z</time>
      </trkpt>
      <trkpt lat="43.33597" lon="5.68459">
        <ele>498</ele>
        <time>2019-01-18T10:20:27.000Z</time>
      </trkpt>
      <trkpt lat="43.33596" lon="5.68459">
        <ele>498</ele>
        <time>2019-01-18T10:20:28.000Z</time>
      </trkpt>
      <trkpt lat="43.33596" lon="5.6846">
        <ele>498</ele>
        <time>2019-01-18T10:20:29.000Z</time>
      </trkpt>
      <trkpt lat="43.33596" lon="5.6846">
        <ele>498</ele>
        <time>2019-01-18T10:20:30.000Z</time>
      </trkpt>
      <trkpt lat="43.33596" lon="5.6846">
        <ele>498</ele>
        <time>2019-01-18T10:20:31.000Z</time>
      </trkpt>
      <trkpt lat="43.33596" lon="5.6846">
        <ele>498</ele>
        <time>2019-01-18T10:20:32.000Z</time>
      </trkpt>
      <trkpt lat="43.33596" lon="5.6846">
        <ele>498</ele>
        <time>2019-01-18T10:20:33.000Z</time>
      </trkpt>
      <trkpt lat="43.33595" lon="5.6846">
        <ele>498</ele>
        <time>2019-01-18T10:20:34.000Z</time>
      </trkpt>
      <trkpt lat="43.33595" lon="5.6846">
        <ele>498</ele>
        <time>2019-01-18T10:20:35.000Z</time>
      </trkpt>
      <trkpt lat="43.33595" lon="5.6846">
        <ele>498</ele>
        <time>2019-01-18T10:20:36.000Z</time>
      </trkpt>
      <trkpt lat="43.33595" lon="5.6846">
        <ele>498</ele>
        <time>2019-01-18T10:20:37.000Z</time>
      </trkpt>
      <trkpt lat="43.33595" lon="5.6846">
        <ele>498</ele>
        <time>2019-01-18T10:20:38.000Z</time>
      </trkpt>
      <trkpt lat="43.33594" lon="5.68461">
        <ele>498</ele>
        <time>2019-01-18T10:20:39.000Z</time>
      </trkpt>
      <trkpt lat="43.33594" lon="5.68461">
        <ele>498</ele>
        <time>2019-01-18T10:20:40.000Z</time>
      </trkpt>
      <trkpt lat="43.33594" lon="5.68461">
        <ele>498</ele>
        <time>2019-01-18T10:20:41.000Z</time>
      </trkpt>
      <trkpt lat="43.33594" lon="5.68461">
        <ele>498</ele>
        <time>2019-01-18T10:20:42.000Z</time>
      </trkpt>
      <trkpt lat="43.33594" lon="5.68461">
        <ele>498</ele>
        <time>2019-01-18T10:20:43.000Z</time>
      </trkpt>
      <trkpt lat="43.33594" lon="5.68461">
        <ele>498</ele>
        <time>2019-01-18T10:20:44.000Z</time>
      </trkpt>
      <trkpt lat="43.33594" lon="5.68461">
        <ele>498</ele>
        <time>2019-01-18T10:20:45.000Z</time>
      </trkpt>
      <trkpt lat="43.33594" lon="5.68461">
        <ele>498</ele>
        <time>2019-01-18T10:20:46.000Z</time>
      </trkpt>
      <trkpt lat="43.33594" lon="5.68461">
        <ele>498</ele>
        <time>2019-01-18T10:20:47.000Z</time>
      </trkpt>
      <trkpt lat="43.33594" lon="5.68461">
        <ele>498</ele>
        <time>2019-01-18T10:20:48.000Z</time>
      </trkpt>
      <trkpt lat="43.33594" lon="5.68461">
        <ele>498</ele>
        <time>2019-01-18T10:20:49.000Z</time>
      </trkpt>
      <trkpt lat="43.33594" lon="5.68461">
        <ele>498</ele>
        <time>2019-01-18T10:20:50.000Z</time>
      </trkpt>
      <trkpt lat="43.33593" lon="5.68461">
        <ele>498</ele>
        <time>2019-01-18T10:20:51.000Z</time>
      </trkpt>
      <trkpt lat="43.33593" lon="5.68461">
        <ele>498</ele>
        <time>2019-01-18T10:20:52.000Z</time>
      </trkpt>
      <trkpt lat="43.33593" lon="5.68461">
        <ele>498</ele>
        <time>2019-01-18T10:20:53.000Z</time>
      </trkpt>
      <trkpt lat="43.33593" lon="5.68461">
        <ele>498</ele>
        <time>2019-01-18T10:20:54.000Z</time>
      </trkpt>
      <trkpt lat="43.33593" lon="5.68462">
        <ele>498</ele>
        <time>2019-01-18T10:20:55.000Z</time>
      </trkpt>
      <trkpt lat="43.33593" lon="5.68462">
        <ele>498</ele>
        <time>2019-01-18T10:20:56.000Z</time>
      </trkpt>
      <trkpt lat="43.33593" lon="5.68463">
        <ele>498</ele>
        <time>2019-01-18T10:20:57.000Z</time>
      </trkpt>
      <trkpt lat="43.33592" lon="5.68464">
        <ele>498</ele>
        <time>2019-01-18T10:20:58.000Z</time>
      </trkpt>
      <trkpt lat="43.33591" lon="5.68464">
        <ele>498</ele>
        <time>2019-01-18T10:20:59.000Z</time>
      </trkpt>
      <trkpt lat="43.33591" lon="5.68465">
        <ele>498</ele>
        <time>2019-01-18T10:21:00.000Z</time>
      </trkpt>
      <trkpt lat="43.33591" lon="5.68465">
        <ele>498</ele>
        <time>2019-01-18T10:21:01.000Z</time>
      </trkpt>
      <trkpt lat="43.33591" lon="5.68465">
        <ele>498</ele>
        <time>2019-01-18T10:21:02.000Z</time>
      </trkpt>
      <trkpt lat="43.33591" lon="5.68465">
        <ele>497</ele>
        <time>2019-01-18T10:21:03.000Z</time>
      </trkpt>
      <trkpt lat="43.3359" lon="5.68465">
        <ele>497</ele>
        <time>2019-01-18T10:21:04.000Z</time>
      </trkpt>
      <trkpt lat="43.3359" lon="5.68465">
        <ele>497</ele>
        <time>2019-01-18T10:21:05.000Z</time>
      </trkpt>
      <trkpt lat="43.3359" lon="5.68465">
        <ele>497</ele>
        <time>2019-01-18T10:21:06.000Z</time>
      </trkpt>
      <trkpt lat="43.3359" lon="5.68465">
        <ele>497</ele>
        <time>2019-01-18T10:21:07.000Z</time>
      </trkpt>
      <trkpt lat="43.3359" lon="5.68465">
        <ele>497</ele>
        <time>2019-01-18T10:21:08.000Z</time>
      </trkpt>
      <trkpt lat="43.3359" lon="5.68466">
        <ele>497</ele>
        <time>2019-01-18T10:21:09.000Z</time>
      </trkpt>
      <trkpt lat="43.3359" lon="5.68467">
        <ele>497</ele>
        <time>2019-01-18T10:21:10.000Z</time>
      </trkpt>
      <trkpt lat="43.3359" lon="5.68467">
        <ele>497</ele>
        <time>2019-01-18T10:21:11.000Z</time>
      </trkpt>
      <trkpt lat="43.33589" lon="5.68467">
        <ele>497</ele>
        <time>2019-01-18T10:21:12.000Z</time>
      </trkpt>
      <trkpt lat="43.33588" lon="5.68468">
        <ele>497</ele>
        <time>2019-01-18T10:21:13.000Z</time>
      </trkpt>
      <trkpt lat="43.33588" lon="5.68468">
        <ele>497</ele>
        <time>2019-01-18T10:21:14.000Z</time>
      </trkpt>
      <trkpt lat="43.33588" lon="5.68468">
        <ele>497</ele>
        <time>2019-01-18T10:21:15.000Z</time>
      </trkpt>
      <trkpt lat="43.33588" lon="5.68468">
        <ele>497</ele>
        <time>2019-01-18T10:21:16.000Z</time>
      </trkpt>
      <trkpt lat="43.33588" lon="5.68467">
        <ele>497</ele>
        <time>2019-01-18T10:21:17.000Z</time>
      </trkpt>
      <trkpt lat="43.33587" lon="5.68467">
        <ele>498</ele>
        <time>2019-01-18T10:21:18.000Z</time>
      </trkpt>
      <trkpt lat="43.33587" lon="5.68467">
        <ele>498</ele>
        <time>2019-01-18T10:21:19.000Z</time>
      </trkpt>
      <trkpt lat="43.33587" lon="5.68466">
        <ele>498</ele>
        <time>2019-01-18T10:21:20.000Z</time>
      </trkpt>
      <trkpt lat="43.33587" lon="5.68466">
        <ele>498</ele>
        <time>2019-01-18T10:21:21.000Z</time>
      </trkpt>
      <trkpt lat="43.33587" lon="5.68466">
        <ele>498</ele>
        <time>2019-01-18T10:21:22.000Z</time>
      </trkpt>
      <trkpt lat="43.33587" lon="5.68466">
        <ele>498</ele>
        <time>2019-01-18T10:21:23.000Z</time>
      </trkpt>
      <trkpt lat="43.33587" lon="5.68466">
        <ele>498</ele>
        <time>2019-01-18T10:21:24.000Z</time>
      </trkpt>
      <trkpt lat="43.33587" lon="5.68466">
        <ele>498</ele>
        <time>2019-01-18T10:21:25.000Z</time>
      </trkpt>
      <trkpt lat="43.33587" lon="5.68467">
        <ele>498</ele>
        <time>2019-01-18T10:21:26.000Z</time>
      </trkpt>
      <trkpt lat="43.33587" lon="5.68467">
        <ele>498</ele>
        <time>2019-01-18T10:21:27.000Z</time>
      </trkpt>
      <trkpt lat="43.33587" lon="5.68468">
        <ele>498</ele>
        <time>2019-01-18T10:21:28.000Z</time>
      </trkpt>
      <trkpt lat="43.33586" lon="5.68468">
        <ele>498</ele>
        <time>2019-01-18T10:21:29.000Z</time>
      </trkpt>
      <trkpt lat="43.33585" lon="5.68469">
        <ele>498</ele>
        <time>2019-01-18T10:21:30.000Z</time>
      </trkpt>
      <trkpt lat="43.33586" lon="5.68469">
        <ele>499</ele>
        <time>2019-01-18T10:21:31.000Z</time>
      </trkpt>
      <trkpt lat="43.33586" lon="5.68469">
        <ele>499</ele>
        <time>2019-01-18T10:21:32.000Z</time>
      </trkpt>
      <trkpt lat="43.33586" lon="5.68469">
        <ele>499</ele>
        <time>2019-01-18T10:21:33.000Z</time>
      </trkpt>
      <trkpt lat="43.33586" lon="5.68469">
        <ele>499</ele>
        <time>2019-01-18T10:21:34.000Z</time>
      </trkpt>
      <trkpt lat="43.33586" lon="5.68469">
        <ele>499</ele>
        <time>2019-01-18T10:21:35.000Z</time>
      </trkpt>
      <trkpt lat="43.33586" lon="5.68469">
        <ele>499</ele>
        <time>2019-01-18T10:21:36.000Z</time>
      </trkpt>
      <trkpt lat="43.33586" lon="5.68469">
        <ele>499</ele>
        <time>2019-01-18T10:21:37.000Z</time>
      </trkpt>
      <trkpt lat="43.33585" lon="5.68469">
        <ele>499</ele>
        <time>2019-01-18T10:21:38.000Z</time>
      </trkpt>
      <trkpt lat="43.33585" lon="5.68469">
        <ele>499</ele>
        <time>2019-01-18T10:21:39.000Z</time>
      </trkpt>
      <trkpt lat="43.33584" lon="5.6847">
        <ele>499</ele>
        <time>2019-01-18T10:21:40.000Z</time>
      </trkpt>
      <trkpt lat="43.33584" lon="5.6847">
        <ele>499</ele>
        <time>2019-01-18T10:21:41.000Z</time>
      </trkpt>
      <trkpt lat="43.33583" lon="5.6847">
        <ele>499</ele>
        <time>2019-01-18T10:21:42.000Z</time>
      </trkpt>
      <trkpt lat="43.33583" lon="5.6847">
        <ele>499</ele>
        <time>2019-01-18T10:21:43.000Z</time>
      </trkpt>
      <trkpt lat="43.33583" lon="5.6847">
        <ele>499</ele>
        <time>2019-01-18T10:21:44.000Z</time>
      </trkpt>
      <trkpt lat="43.33583" lon="5.6847">
        <ele>499</ele>
        <time>2019-01-18T10:21:45.000Z</time>
      </trkpt>
      <trkpt lat="43.33583" lon="5.6847">
        <ele>499</ele>
        <time>2019-01-18T10:21:46.000Z</time>
      </trkpt>
      <trkpt lat="43.33583" lon="5.68471">
        <ele>499</ele>
        <time>2019-01-18T10:21:47.000Z</time>
      </trkpt>
      <trkpt lat="43.33583" lon="5.68471">
        <ele>499</ele>
        <time>2019-01-18T10:21:48.000Z</time>
      </trkpt>
      <trkpt lat="43.33583" lon="5.68472">
        <ele>499</ele>
        <time>2019-01-18T10:21:49.000Z</time>
      </trkpt>
      <trkpt lat="43.33583" lon="5.68472">
        <ele>499</ele>
        <time>2019-01-18T10:21:50.000Z</time>
      </trkpt>
      <trkpt lat="43.33583" lon="5.68472">
        <ele>499</ele>
        <time>2019-01-18T10:21:51.000Z</time>
      </trkpt>
      <trkpt lat="43.33583" lon="5.68472">
        <ele>500</ele>
        <time>2019-01-18T10:21:52.000Z</time>
      </trkpt>
      <trkpt lat="43.33583" lon="5.68473">
        <ele>500</ele>
        <time>2019-01-18T10:21:53.000Z</time>
      </trkpt>
      <trkpt lat="43.33584" lon="5.68473">
        <ele>500</ele>
        <time>2019-01-18T10:21:54.000Z</time>
      </trkpt>
      <trkpt lat="43.33584" lon="5.68473">
        <ele>500</ele>
        <time>2019-01-18T10:21:55.000Z</time>
      </trkpt>
      <trkpt lat="43.33583" lon="5.68473">
        <ele>500</ele>
        <time>2019-01-18T10:21:56.000Z</time>
      </trkpt>
      <trkpt lat="43.33583" lon="5.68473">
        <ele>500</ele>
        <time>2019-01-18T10:21:57.000Z</time>
      </trkpt>
      <trkpt lat="43.33583" lon="5.68474">
        <ele>500</ele>
        <time>2019-01-18T10:21:58.000Z</time>
      </trkpt>
      <trkpt lat="43.33582" lon="5.68474">
        <ele>500</ele>
        <time>2019-01-18T10:21:59.000Z</time>
      </trkpt>
      <trkpt lat="43.33582" lon="5.68474">
        <ele>500</ele>
        <time>2019-01-18T10:22:00.000Z</time>
      </trkpt>
      <trkpt lat="43.33581" lon="5.68475">
        <ele>500</ele>
        <time>2019-01-18T10:22:01.000Z</time>
      </trkpt>
      <trkpt lat="43.33581" lon="5.68475">
        <ele>500</ele>
        <time>2019-01-18T10:22:02.000Z</time>
      </trkpt>
      <trkpt lat="43.3358" lon="5.68476">
        <ele>501</ele>
        <time>2019-01-18T10:22:03.000Z</time>
      </trkpt>
      <trkpt lat="43.3358" lon="5.68476">
        <ele>501</ele>
        <time>2019-01-18T10:22:04.000Z</time>
      </trkpt>
      <trkpt lat="43.33579" lon="5.68476">
        <ele>501</ele>
        <time>2019-01-18T10:22:05.000Z</time>
      </trkpt>
      <trkpt lat="43.33579" lon="5.68476">
        <ele>501</ele>
        <time>2019-01-18T10:22:06.000Z</time>
      </trkpt>
      <trkpt lat="43.33579" lon="5.68476">
        <ele>501</ele>
        <time>2019-01-18T10:22:07.000Z</time>
      </trkpt>
      <trkpt lat="43.33579" lon="5.68477">
        <ele>501</ele>
        <time>2019-01-18T10:22:08.000Z</time>
      </trkpt>
      <trkpt lat="43.33578" lon="5.68477">
        <ele>501</ele>
        <time>2019-01-18T10:22:09.000Z</time>
      </trkpt>
      <trkpt lat="43.33578" lon="5.68478">
        <ele>501</ele>
        <time>2019-01-18T10:22:10.000Z</time>
      </trkpt>
      <trkpt lat="43.33577" lon="5.68479">
        <ele>501</ele>
        <time>2019-01-18T10:22:11.000Z</time>
      </trkpt>
      <trkpt lat="43.33578" lon="5.68479">
        <ele>501</ele>
        <time>2019-01-18T10:22:12.000Z</time>
      </trkpt>
      <trkpt lat="43.33578" lon="5.6848">
        <ele>501</ele>
        <time>2019-01-18T10:22:13.000Z</time>
      </trkpt>
      <trkpt lat="43.33578" lon="5.6848">
        <ele>501</ele>
        <time>2019-01-18T10:22:14.000Z</time>
      </trkpt>
      <trkpt lat="43.33577" lon="5.6848">
        <ele>501</ele>
        <time>2019-01-18T10:22:15.000Z</time>
      </trkpt>
      <trkpt lat="43.33577" lon="5.6848">
        <ele>501</ele>
        <time>2019-01-18T10:22:16.000Z</time>
      </trkpt>
      <trkpt lat="43.33577" lon="5.6848">
        <ele>501</ele>
        <time>2019-01-18T10:22:17.000Z</time>
      </trkpt>
      <trkpt lat="43.33577" lon="5.6848">
        <ele>501</ele>
        <time>2019-01-18T10:22:18.000Z</time>
      </trkpt>
      <trkpt lat="43.33577" lon="5.6848">
        <ele>502</ele>
        <time>2019-01-18T10:22:19.000Z</time>
      </trkpt>
      <trkpt lat="43.33577" lon="5.68481">
        <ele>502</ele>
        <time>2019-01-18T10:22:20.000Z</time>
      </trkpt>
      <trkpt lat="43.33577" lon="5.68481">
        <ele>502</ele>
        <time>2019-01-18T10:22:21.000Z</time>
      </trkpt>
      <trkpt lat="43.33577" lon="5.68482">
        <ele>502</ele>
        <time>2019-01-18T10:22:22.000Z</time>
      </trkpt>
      <trkpt lat="43.33577" lon="5.68482">
        <ele>502</ele>
        <time>2019-01-18T10:22:23.000Z</time>
      </trkpt>
      <trkpt lat="43.33577" lon="5.68483">
        <ele>502</ele>
        <time>2019-01-18T10:22:24.000Z</time>
      </trkpt>
      <trkpt lat="43.33577" lon="5.68483">
        <ele>502</ele>
        <time>2019-01-18T10:22:25.000Z</time>
      </trkpt>
      <trkpt lat="43.33578" lon="5.68484">
        <ele>502</ele>
        <time>2019-01-18T10:22:26.000Z</time>
      </trkpt>
      <trkpt lat="43.33578" lon="5.68484">
        <ele>502</ele>
        <time>2019-01-18T10:22:27.000Z</time>
      </trkpt>
      <trkpt lat="43.33578" lon="5.68485">
        <ele>502</ele>
        <time>2019-01-18T10:22:28.000Z</time>
      </trkpt>
      <trkpt lat="43.33578" lon="5.68485">
        <ele>502</ele>
        <time>2019-01-18T10:22:29.000Z</time>
      </trkpt>
      <trkpt lat="43.33577" lon="5.68486">
        <ele>502</ele>
        <time>2019-01-18T10:22:30.000Z</time>
      </trkpt>
      <trkpt lat="43.33577" lon="5.68486">
        <ele>503</ele>
        <time>2019-01-18T10:22:31.000Z</time>
      </trkpt>
      <trkpt lat="43.33577" lon="5.68486">
        <ele>503</ele>
        <time>2019-01-18T10:22:32.000Z</time>
      </trkpt>
      <trkpt lat="43.33577" lon="5.68487">
        <ele>503</ele>
        <time>2019-01-18T10:22:33.000Z</time>
      </trkpt>
      <trkpt lat="43.33577" lon="5.68487">
        <ele>503</ele>
        <time>2019-01-18T10:22:34.000Z</time>
      </trkpt>
      <trkpt lat="43.33576" lon="5.68487">
        <ele>503</ele>
        <time>2019-01-18T10:22:35.000Z</time>
      </trkpt>
      <trkpt lat="43.33576" lon="5.68487">
        <ele>503</ele>
        <time>2019-01-18T10:22:36.000Z</time>
      </trkpt>
      <trkpt lat="43.33576" lon="5.68488">
        <ele>503</ele>
        <time>2019-01-18T10:22:37.000Z</time>
      </trkpt>
      <trkpt lat="43.33576" lon="5.68488">
        <ele>503</ele>
        <time>2019-01-18T10:22:38.000Z</time>
      </trkpt>
      <trkpt lat="43.33576" lon="5.68488">
        <ele>503</ele>
        <time>2019-01-18T10:22:39.000Z</time>
      </trkpt>
      <trkpt lat="43.33576" lon="5.68489">
        <ele>503</ele>
        <time>2019-01-18T10:22:40.000Z</time>
      </trkpt>
      <trkpt lat="43.33575" lon="5.6849">
        <ele>503</ele>
        <time>2019-01-18T10:22:41.000Z</time>
      </trkpt>
      <trkpt lat="43.33575" lon="5.6849">
        <ele>503</ele>
        <time>2019-01-18T10:22:42.000Z</time>
      </trkpt>
      <trkpt lat="43.33575" lon="5.68491">
        <ele>503</ele>
        <time>2019-01-18T10:22:43.000Z</time>
      </trkpt>
      <trkpt lat="43.33575" lon="5.68492">
        <ele>503</ele>
        <time>2019-01-18T10:22:44.000Z</time>
      </trkpt>
      <trkpt lat="43.33575" lon="5.68493">
        <ele>503</ele>
        <time>2019-01-18T10:22:45.000Z</time>
      </trkpt>
      <trkpt lat="43.33575" lon="5.68493">
        <ele>503</ele>
        <time>2019-01-18T10:22:46.000Z</time>
      </trkpt>
      <trkpt lat="43.33575" lon="5.68494">
        <ele>503</ele>
        <time>2019-01-18T10:22:47.000Z</time>
      </trkpt>
      <trkpt lat="43.33575" lon="5.68495">
        <ele>504</ele>
        <time>2019-01-18T10:22:48.000Z</time>
      </trkpt>
      <trkpt lat="43.33575" lon="5.68496">
        <ele>504</ele>
        <time>2019-01-18T10:22:49.000Z</time>
      </trkpt>
      <trkpt lat="43.33575" lon="5.68497">
        <ele>504</ele>
        <time>2019-01-18T10:22:50.000Z</time>
      </trkpt>
      <trkpt lat="43.33575" lon="5.68498">
        <ele>504</ele>
        <time>2019-01-18T10:22:51.000Z</time>
      </trkpt>
      <trkpt lat="43.33575" lon="5.68498">
        <ele>504</ele>
        <time>2019-01-18T10:22:52.000Z</time>
      </trkpt>
      <trkpt lat="43.33575" lon="5.68499">
        <ele>504</ele>
        <time>2019-01-18T10:22:53.000Z</time>
      </trkpt>
      <trkpt lat="43.33575" lon="5.685">
        <ele>504</ele>
        <time>2019-01-18T10:22:54.000Z</time>
      </trkpt>
      <trkpt lat="43.33575" lon="5.685">
        <ele>504</ele>
        <time>2019-01-18T10:22:55.000Z</time>
      </trkpt>
      <trkpt lat="43.33575" lon="5.68501">
        <ele>504</ele>
        <time>2019-01-18T10:22:56.000Z</time>
      </trkpt>
      <trkpt lat="43.33574" lon="5.68502">
        <ele>504</ele>
        <time>2019-01-18T10:22:57.000Z</time>
      </trkpt>
      <trkpt lat="43.33574" lon="5.68503">
        <ele>504</ele>
        <time>2019-01-18T10:22:58.000Z</time>
      </trkpt>
      <trkpt lat="43.33574" lon="5.68504">
        <ele>504</ele>
        <time>2019-01-18T10:22:59.000Z</time>
      </trkpt>
      <trkpt lat="43.33574" lon="5.68505">
        <ele>504</ele>
        <time>2019-01-18T10:23:00.000Z</time>
      </trkpt>
      <trkpt lat="43.33574" lon="5.68506">
        <ele>505</ele>
        <time>2019-01-18T10:23:01.000Z</time>
      </trkpt>
      <trkpt lat="43.33574" lon="5.68507">
        <ele>505</ele>
        <time>2019-01-18T10:23:02.000Z</time>
      </trkpt>
      <trkpt lat="43.33575" lon="5.68509">
        <ele>505</ele>
        <time>2019-01-18T10:23:03.000Z</time>
      </trkpt>
      <trkpt lat="43.33575" lon="5.68509">
        <ele>505</ele>
        <time>2019-01-18T10:23:04.000Z</time>
      </trkpt>
      <trkpt lat="43.33575" lon="5.6851">
        <ele>505</ele>
        <time>2019-01-18T10:23:05.000Z</time>
      </trkpt>
      <trkpt lat="43.33575" lon="5.68511">
        <ele>505</ele>
        <time>2019-01-18T10:23:06.000Z</time>
      </trkpt>
      <trkpt lat="43.33575" lon="5.68512">
        <ele>505</ele>
        <time>2019-01-18T10:23:07.000Z</time>
      </trkpt>
      <trkpt lat="43.33575" lon="5.68513">
        <ele>505</ele>
        <time>2019-01-18T10:23:08.000Z</time>
      </trkpt>
      <trkpt lat="43.33574" lon="5.68513">
        <ele>505</ele>
        <time>2019-01-18T10:23:09.000Z</time>
      </trkpt>
      <trkpt lat="43.33574" lon="5.68513">
        <ele>505</ele>
        <time>2019-01-18T10:23:10.000Z</time>
      </trkpt>
      <trkpt lat="43.33573" lon="5.68514">
        <ele>505</ele>
        <time>2019-01-18T10:23:11.000Z</time>
      </trkpt>
      <trkpt lat="43.33573" lon="5.68514">
        <ele>505</ele>
        <time>2019-01-18T10:23:12.000Z</time>
      </trkpt>
      <trkpt lat="43.33573" lon="5.68514">
        <ele>505</ele>
        <time>2019-01-18T10:23:13.000Z</time>
      </trkpt>
      <trkpt lat="43.33573" lon="5.68514">
        <ele>505</ele>
        <time>2019-01-18T10:23:14.000Z</time>
      </trkpt>
      <trkpt lat="43.33573" lon="5.68514">
        <ele>505</ele>
        <time>2019-01-18T10:23:15.000Z</time>
      </trkpt>
      <trkpt lat="43.33573" lon="5.68514">
        <ele>505</ele>
        <time>2019-01-18T10:23:16.000Z</time>
      </trkpt>
      <trkpt lat="43.33572" lon="5.68513">
        <ele>505</ele>
        <time>2019-01-18T10:23:17.000Z</time>
      </trkpt>
      <trkpt lat="43.33572" lon="5.68513">
        <ele>505</ele>
        <time>2019-01-18T10:23:18.000Z</time>
      </trkpt>
      <trkpt lat="43.33572" lon="5.68513">
        <ele>505</ele>
        <time>2019-01-18T10:23:19.000Z</time>
      </trkpt>
      <trkpt lat="43.33571" lon="5.68512">
        <ele>506</ele>
        <time>2019-01-18T10:23:20.000Z</time>
      </trkpt>
      <trkpt lat="43.3357" lon="5.68512">
        <ele>506</ele>
        <time>2019-01-18T10:23:21.000Z</time>
      </trkpt>
      <trkpt lat="43.3357" lon="5.68511">
        <ele>506</ele>
        <time>2019-01-18T10:23:22.000Z</time>
      </trkpt>
      <trkpt lat="43.33569" lon="5.68511">
        <ele>506</ele>
        <time>2019-01-18T10:23:23.000Z</time>
      </trkpt>
      <trkpt lat="43.33569" lon="5.68511">
        <ele>506</ele>
        <time>2019-01-18T10:23:24.000Z</time>
      </trkpt>
      <trkpt lat="43.33569" lon="5.68511">
        <ele>506</ele>
        <time>2019-01-18T10:23:25.000Z</time>
      </trkpt>
      <trkpt lat="43.33568" lon="5.68511">
        <ele>506</ele>
        <time>2019-01-18T10:23:26.000Z</time>
      </trkpt>
      <trkpt lat="43.33568" lon="5.68511">
        <ele>506</ele>
        <time>2019-01-18T10:23:27.000Z</time>
      </trkpt>
      <trkpt lat="43.33568" lon="5.68511">
        <ele>506</ele>
        <time>2019-01-18T10:23:28.000Z</time>
      </trkpt>
      <trkpt lat="43.33568" lon="5.68511">
        <ele>506</ele>
        <time>2019-01-18T10:23:29.000Z</time>
      </trkpt>
      <trkpt lat="43.33567" lon="5.68511">
        <ele>506</ele>
        <time>2019-01-18T10:23:30.000Z</time>
      </trkpt>
      <trkpt lat="43.33567" lon="5.68511">
        <ele>506</ele>
        <time>2019-01-18T10:23:31.000Z</time>
      </trkpt>
      <trkpt lat="43.33567" lon="5.68511">
        <ele>507</ele>
        <time>2019-01-18T10:23:32.000Z</time>
      </trkpt>
      <trkpt lat="43.33567" lon="5.68511">
        <ele>507</ele>
        <time>2019-01-18T10:23:33.000Z</time>
      </trkpt>
      <trkpt lat="43.33567" lon="5.68511">
        <ele>507</ele>
        <time>2019-01-18T10:23:34.000Z</time>
      </trkpt>
      <trkpt lat="43.33567" lon="5.68511">
        <ele>507</ele>
        <time>2019-01-18T10:23:35.000Z</time>
      </trkpt>
      <trkpt lat="43.33566" lon="5.68511">
        <ele>507</ele>
        <time>2019-01-18T10:23:36.000Z</time>
      </trkpt>
      <trkpt lat="43.33566" lon="5.68511">
        <ele>507</ele>
        <time>2019-01-18T10:23:37.000Z</time>
      </trkpt>
      <trkpt lat="43.33566" lon="5.68511">
        <ele>507</ele>
        <time>2019-01-18T10:23:38.000Z</time>
      </trkpt>
      <trkpt lat="43.33566" lon="5.68511">
        <ele>507</ele>
        <time>2019-01-18T10:23:39.000Z</time>
      </trkpt>
      <trkpt lat="43.33566" lon="5.68512">
        <ele>507</ele>
        <time>2019-01-18T10:23:40.000Z</time>
      </trkpt>
      <trkpt lat="43.33565" lon="5.68512">
        <ele>508</ele>
        <time>2019-01-18T10:23:41.000Z</time>
      </trkpt>
      <trkpt lat="43.33565" lon="5.68512">
        <ele>508</ele>
        <time>2019-01-18T10:23:42.000Z</time>
      </trkpt>
      <trkpt lat="43.33565" lon="5.68512">
        <ele>508</ele>
        <time>2019-01-18T10:23:43.000Z</time>
      </trkpt>
      <trkpt lat="43.33565" lon="5.68513">
        <ele>508</ele>
        <time>2019-01-18T10:23:44.000Z</time>
      </trkpt>
      <trkpt lat="43.33565" lon="5.68513">
        <ele>508</ele>
        <time>2019-01-18T10:23:45.000Z</time>
      </trkpt>
      <trkpt lat="43.33565" lon="5.68514">
        <ele>508</ele>
        <time>2019-01-18T10:23:46.000Z</time>
      </trkpt>
      <trkpt lat="43.33564" lon="5.68514">
        <ele>508</ele>
        <time>2019-01-18T10:23:47.000Z</time>
      </trkpt>
      <trkpt lat="43.33564" lon="5.68514">
        <ele>508</ele>
        <time>2019-01-18T10:23:48.000Z</time>
      </trkpt>
      <trkpt lat="43.33564" lon="5.68514">
        <ele>508</ele>
        <time>2019-01-18T10:23:49.000Z</time>
      </trkpt>
      <trkpt lat="43.33564" lon="5.68514">
        <ele>508</ele>
        <time>2019-01-18T10:23:50.000Z</time>
      </trkpt>
      <trkpt lat="43.33564" lon="5.68514">
        <ele>508</ele>
        <time>2019-01-18T10:23:51.000Z</time>
      </trkpt>
      <trkpt lat="43.33564" lon="5.68514">
        <ele>508</ele>
        <time>2019-01-18T10:23:52.000Z</time>
      </trkpt>
      <trkpt lat="43.33564" lon="5.68514">
        <ele>508</ele>
        <time>2019-01-18T10:23:53.000Z</time>
      </trkpt>
      <trkpt lat="43.33564" lon="5.68515">
        <ele>508</ele>
        <time>2019-01-18T10:23:54.000Z</time>
      </trkpt>
      <trkpt lat="43.33564" lon="5.68515">
        <ele>508</ele>
        <time>2019-01-18T10:23:55.000Z</time>
      </trkpt>
      <trkpt lat="43.33564" lon="5.68516">
        <ele>508</ele>
        <time>2019-01-18T10:23:56.000Z</time>
      </trkpt>
      <trkpt lat="43.33564" lon="5.68516">
        <ele>508</ele>
        <time>2019-01-18T10:23:57.000Z</time>
      </trkpt>
      <trkpt lat="43.33564" lon="5.68516">
        <ele>508</ele>
        <time>2019-01-18T10:23:58.000Z</time>
      </trkpt>
      <trkpt lat="43.33564" lon="5.68516">
        <ele>508</ele>
        <time>2019-01-18T10:23:59.000Z</time>
      </trkpt>
      <trkpt lat="43.33564" lon="5.68516">
        <ele>508</ele>
        <time>2019-01-18T10:24:00.000Z</time>
      </trkpt>
      <trkpt lat="43.33564" lon="5.68517">
        <ele>508</ele>
        <time>2019-01-18T10:24:01.000Z</time>
      </trkpt>
      <trkpt lat="43.33564" lon="5.68517">
        <ele>509</ele>
        <time>2019-01-18T10:24:02.000Z</time>
      </trkpt>
      <trkpt lat="43.33564" lon="5.68517">
        <ele>509</ele>
        <time>2019-01-18T10:24:03.000Z</time>
      </trkpt>
      <trkpt lat="43.33565" lon="5.68517">
        <ele>509</ele>
        <time>2019-01-18T10:24:04.000Z</time>
      </trkpt>
      <trkpt lat="43.33565" lon="5.68517">
        <ele>509</ele>
        <time>2019-01-18T10:24:05.000Z</time>
      </trkpt>
      <trkpt lat="43.33565" lon="5.68517">
        <ele>509</ele>
        <time>2019-01-18T10:24:06.000Z</time>
      </trkpt>
      <trkpt lat="43.33565" lon="5.68517">
        <ele>509</ele>
        <time>2019-01-18T10:24:07.000Z</time>
      </trkpt>
      <trkpt lat="43.33565" lon="5.68517">
        <ele>509</ele>
        <time>2019-01-18T10:24:08.000Z</time>
      </trkpt>
      <trkpt lat="43.33565" lon="5.68516">
        <ele>509</ele>
        <time>2019-01-18T10:24:09.000Z</time>
      </trkpt>
      <trkpt lat="43.33565" lon="5.68516">
        <ele>509</ele>
        <time>2019-01-18T10:24:10.000Z</time>
      </trkpt>
      <trkpt lat="43.33565" lon="5.68516">
        <ele>509</ele>
        <time>2019-01-18T10:24:11.000Z</time>
      </trkpt>
      <trkpt lat="43.33565" lon="5.68516">
        <ele>509</ele>
        <time>2019-01-18T10:24:12.000Z</time>
      </trkpt>
      <trkpt lat="43.33565" lon="5.68516">
        <ele>509</ele>
        <time>2019-01-18T10:24:13.000Z</time>
      </trkpt>
      <trkpt lat="43.33565" lon="5.68516">
        <ele>509</ele>
        <time>2019-01-18T10:24:14.000Z</time>
      </trkpt>
      <trkpt lat="43.33565" lon="5.68516">
        <ele>509</ele>
        <time>2019-01-18T10:24:15.000Z</time>
      </trkpt>
      <trkpt lat="43.33565" lon="5.68516">
        <ele>509</ele>
        <time>2019-01-18T10:24:16.000Z</time>
      </trkpt>
      <trkpt lat="43.33565" lon="5.68516">
        <ele>509</ele>
        <time>2019-01-18T10:24:17.000Z</time>
      </trkpt>
      <trkpt lat="43.33565" lon="5.68516">
        <ele>509</ele>
        <time>2019-01-18T10:24:18.000Z</time>
      </trkpt>
      <trkpt lat="43.33565" lon="5.68516">
        <ele>509</ele>
        <time>2019-01-18T10:24:19.000Z</time>
      </trkpt>
      <trkpt lat="43.33565" lon="5.68516">
        <ele>509</ele>
        <time>2019-01-18T10:24:20.000Z</time>
      </trkpt>
      <trkpt lat="43.33565" lon="5.68516">
        <ele>509</ele>
        <time>2019-01-18T10:24:21.000Z</time>
      </trkpt>
      <trkpt lat="43.33565" lon="5.68516">
        <ele>509</ele>
        <time>2019-01-18T10:24:22.000Z</time>
      </trkpt>
      <trkpt lat="43.33565" lon="5.68516">
        <ele>509</ele>
        <time>2019-01-18T10:24:23.000Z</time>
      </trkpt>
      <trkpt lat="43.33565" lon="5.68516">
        <ele>509</ele>
        <time>2019-01-18T10:24:24.000Z</time>
      </trkpt>
      <trkpt lat="43.33565" lon="5.68516">
        <ele>509</ele>
        <time>2019-01-18T10:24:25.000Z</time>
      </trkpt>
      <trkpt lat="43.33566" lon="5.68516">
        <ele>509</ele>
        <time>2019-01-18T10:24:26.000Z</time>
      </trkpt>
      <trkpt lat="43.33566" lon="5.68516">
        <ele>509</ele>
        <time>2019-01-18T10:24:27.000Z</time>
      </trkpt>
      <trkpt lat="43.33566" lon="5.68516">
        <ele>509</ele>
        <time>2019-01-18T10:24:28.000Z</time>
      </trkpt>
      <trkpt lat="43.33566" lon="5.68516">
        <ele>509</ele>
        <time>2019-01-18T10:24:29.000Z</time>
      </trkpt>
      <trkpt lat="43.33566" lon="5.68516">
        <ele>509</ele>
        <time>2019-01-18T10:24:30.000Z</time>
      </trkpt>
      <trkpt lat="43.33566" lon="5.68516">
        <ele>509</ele>
        <time>2019-01-18T10:24:31.000Z</time>
      </trkpt>
      <trkpt lat="43.33566" lon="5.68516">
        <ele>509</ele>
        <time>2019-01-18T10:24:32.000Z</time>
      </trkpt>
      <trkpt lat="43.33566" lon="5.68516">
        <ele>509</ele>
        <time>2019-01-18T10:24:33.000Z</time>
      </trkpt>
      <trkpt lat="43.33566" lon="5.68516">
        <ele>509</ele>
        <time>2019-01-18T10:24:34.000Z</time>
      </trkpt>
      <trkpt lat="43.33566" lon="5.68516">
        <ele>509</ele>
        <time>2019-01-18T10:24:35.000Z</time>
      </trkpt>
      <trkpt lat="43.33566" lon="5.68516">
        <ele>509</ele>
        <time>2019-01-18T10:24:36.000Z</time>
      </trkpt>
      <trkpt lat="43.33566" lon="5.68516">
        <ele>509</ele>
        <time>2019-01-18T10:24:37.000Z</time>
      </trkpt>
      <trkpt lat="43.33566" lon="5.68516">
        <ele>509</ele>
        <time>2019-01-18T10:24:38.000Z</time>
      </trkpt>
      <trkpt lat="43.33566" lon="5.68516">
        <ele>509</ele>
        <time>2019-01-18T10:24:39.000Z</time>
      </trkpt>
      <trkpt lat="43.33566" lon="5.68516">
        <ele>509</ele>
        <time>2019-01-18T10:24:40.000Z</time>
      </trkpt>
      <trkpt lat="43.33566" lon="5.68516">
        <ele>509</ele>
        <time>2019-01-18T10:24:41.000Z</time>
      </trkpt>
      <trkpt lat="43.33566" lon="5.68516">
        <ele>509</ele>
        <time>2019-01-18T10:24:42.000Z</time>
      </trkpt>
      <trkpt lat="43.33566" lon="5.68516">
        <ele>509</ele>
        <time>2019-01-18T10:24:43.000Z</time>
      </trkpt>
      <trkpt lat="43.33566" lon="5.68516">
        <ele>509</ele>
        <time>2019-01-18T10:24:44.000Z</time>
      </trkpt>
      <trkpt lat="43.33566" lon="5.68516">
        <ele>509</ele>
        <time>2019-01-18T10:24:45.000Z</time>
      </trkpt>
      <trkpt lat="43.33566" lon="5.68516">
        <ele>509</ele>
        <time>2019-01-18T10:24:46.000Z</time>
      </trkpt>
      <trkpt lat="43.33566" lon="5.68516">
        <ele>509</ele>
        <time>2019-01-18T10:24:47.000Z</time>
      </trkpt>
      <trkpt lat="43.33566" lon="5.68516">
        <ele>509</ele>
        <time>2019-01-18T10:24:48.000Z</time>
      </trkpt>
      <trkpt lat="43.33566" lon="5.68516">
        <ele>509</ele>
        <time>2019-01-18T10:24:49.000Z</time>
      </trkpt>
      <trkpt lat="43.33566" lon="5.68516">
        <ele>509</ele>
        <time>2019-01-18T10:24:50.000Z</time>
      </trkpt>
      <trkpt lat="43.33566" lon="5.68517">
        <ele>510</ele>
        <time>2019-01-18T10:24:51.000Z</time>
      </trkpt>
      <trkpt lat="43.33566" lon="5.68517">
        <ele>510</ele>
        <time>2019-01-18T10:24:52.000Z</time>
      </trkpt>
      <trkpt lat="43.33566" lon="5.68517">
        <ele>510</ele>
        <time>2019-01-18T10:24:53.000Z</time>
      </trkpt>
      <trkpt lat="43.33566" lon="5.68518">
        <ele>510</ele>
        <time>2019-01-18T10:24:54.000Z</time>
      </trkpt>
      <trkpt lat="43.33567" lon="5.68519">
        <ele>510</ele>
        <time>2019-01-18T10:24:55.000Z</time>
      </trkpt>
      <trkpt lat="43.33567" lon="5.68519">
        <ele>510</ele>
        <time>2019-01-18T10:24:56.000Z</time>
      </trkpt>
      <trkpt lat="43.33567" lon="5.68519">
        <ele>510</ele>
        <time>2019-01-18T10:24:57.000Z</time>
      </trkpt>
      <trkpt lat="43.33567" lon="5.6852">
        <ele>510</ele>
        <time>2019-01-18T10:24:58.000Z</time>
      </trkpt>
      <trkpt lat="43.33567" lon="5.6852">
        <ele>510</ele>
        <time>2019-01-18T10:24:59.000Z</time>
      </trkpt>
      <trkpt lat="43.33567" lon="5.6852">
        <ele>510</ele>
        <time>2019-01-18T10:25:00.000Z</time>
      </trkpt>
      <trkpt lat="43.33568" lon="5.6852">
        <ele>510</ele>
        <time>2019-01-18T10:25:01.000Z</time>
      </trkpt>
      <trkpt lat="43.33568" lon="5.6852">
        <ele>510</ele>
        <time>2019-01-18T10:25:02.000Z</time>
      </trkpt>
      <trkpt lat="43.33567" lon="5.68521">
        <ele>510</ele>
        <time>2019-01-18T10:25:03.000Z</time>
      </trkpt>
      <trkpt lat="43.33567" lon="5.68521">
        <ele>510</ele>
        <time>2019-01-18T10:25:04.000Z</time>
      </trkpt>
      <trkpt lat="43.33567" lon="5.68521">
        <ele>510</ele>
        <time>2019-01-18T10:25:05.000Z</time>
      </trkpt>
      <trkpt lat="43.33567" lon="5.68521">
        <ele>510</ele>
        <time>2019-01-18T10:25:06.000Z</time>
      </trkpt>
      <trkpt lat="43.33567" lon="5.68521">
        <ele>511</ele>
        <time>2019-01-18T10:25:07.000Z</time>
      </trkpt>
      <trkpt lat="43.33568" lon="5.68521">
        <ele>511</ele>
        <time>2019-01-18T10:25:08.000Z</time>
      </trkpt>
      <trkpt lat="43.33568" lon="5.68521">
        <ele>511</ele>
        <time>2019-01-18T10:25:09.000Z</time>
      </trkpt>
      <trkpt lat="43.33568" lon="5.68522">
        <ele>511</ele>
        <time>2019-01-18T10:25:10.000Z</time>
      </trkpt>
      <trkpt lat="43.33567" lon="5.68522">
        <ele>511</ele>
        <time>2019-01-18T10:25:11.000Z</time>
      </trkpt>
      <trkpt lat="43.33567" lon="5.68522">
        <ele>511</ele>
        <time>2019-01-18T10:25:12.000Z</time>
      </trkpt>
      <trkpt lat="43.33568" lon="5.68522">
        <ele>511</ele>
        <time>2019-01-18T10:25:13.000Z</time>
      </trkpt>
      <trkpt lat="43.33568" lon="5.68522">
        <ele>511</ele>
        <time>2019-01-18T10:25:14.000Z</time>
      </trkpt>
      <trkpt lat="43.33568" lon="5.68522">
        <ele>511</ele>
        <time>2019-01-18T10:25:15.000Z</time>
      </trkpt>
      <trkpt lat="43.33568" lon="5.68522">
        <ele>511</ele>
        <time>2019-01-18T10:25:16.000Z</time>
      </trkpt>
      <trkpt lat="43.33568" lon="5.68522">
        <ele>511</ele>
        <time>2019-01-18T10:25:17.000Z</time>
      </trkpt>
      <trkpt lat="43.33568" lon="5.68522">
        <ele>511</ele>
        <time>2019-01-18T10:25:18.000Z</time>
      </trkpt>
      <trkpt lat="43.33568" lon="5.68522">
        <ele>511</ele>
        <time>2019-01-18T10:25:19.000Z</time>
      </trkpt>
      <trkpt lat="43.33568" lon="5.68522">
        <ele>511</ele>
        <time>2019-01-18T10:25:20.000Z</time>
      </trkpt>
      <trkpt lat="43.33568" lon="5.68522">
        <ele>511</ele>
        <time>2019-01-18T10:25:21.000Z</time>
      </trkpt>
      <trkpt lat="43.33568" lon="5.68522">
        <ele>511</ele>
        <time>2019-01-18T10:25:22.000Z</time>
      </trkpt>
      <trkpt lat="43.33568" lon="5.68522">
        <ele>511</ele>
        <time>2019-01-18T10:25:23.000Z</time>
      </trkpt>
      <trkpt lat="43.33569" lon="5.68522">
        <ele>511</ele>
        <time>2019-01-18T10:25:24.000Z</time>
      </trkpt>
      <trkpt lat="43.33569" lon="5.68522">
        <ele>511</ele>
        <time>2019-01-18T10:25:25.000Z</time>
      </trkpt>
      <trkpt lat="43.33569" lon="5.68522">
        <ele>511</ele>
        <time>2019-01-18T10:25:26.000Z</time>
      </trkpt>
      <trkpt lat="43.33569" lon="5.68522">
        <ele>511</ele>
        <time>2019-01-18T10:25:27.000Z</time>
      </trkpt>
      <trkpt lat="43.33569" lon="5.68522">
        <ele>511</ele>
        <time>2019-01-18T10:25:28.000Z</time>
      </trkpt>
      <trkpt lat="43.33569" lon="5.68522">
        <ele>511</ele>
        <time>2019-01-18T10:25:29.000Z</time>
      </trkpt>
      <trkpt lat="43.33569" lon="5.68522">
        <ele>511</ele>
        <time>2019-01-18T10:25:30.000Z</time>
      </trkpt>
      <trkpt lat="43.33569" lon="5.68522">
        <ele>511</ele>
        <time>2019-01-18T10:25:31.000Z</time>
      </trkpt>
      <trkpt lat="43.33569" lon="5.68522">
        <ele>511</ele>
        <time>2019-01-18T10:25:32.000Z</time>
      </trkpt>
      <trkpt lat="43.33569" lon="5.68522">
        <ele>511</ele>
        <time>2019-01-18T10:25:33.000Z</time>
      </trkpt>
      <trkpt lat="43.33569" lon="5.68522">
        <ele>511</ele>
        <time>2019-01-18T10:25:34.000Z</time>
      </trkpt>
      <trkpt lat="43.33569" lon="5.68522">
        <ele>511</ele>
        <time>2019-01-18T10:25:35.000Z</time>
      </trkpt>
      <trkpt lat="43.33569" lon="5.68522">
        <ele>511</ele>
        <time>2019-01-18T10:25:36.000Z</time>
      </trkpt>
      <trkpt lat="43.33569" lon="5.68522">
        <ele>511</ele>
        <time>2019-01-18T10:25:37.000Z</time>
      </trkpt>
      <trkpt lat="43.33569" lon="5.68522">
        <ele>511</ele>
        <time>2019-01-18T10:25:38.000Z</time>
      </trkpt>
      <trkpt lat="43.33569" lon="5.68522">
        <ele>511</ele>
        <time>2019-01-18T10:25:39.000Z</time>
      </trkpt>
      <trkpt lat="43.33569" lon="5.68522">
        <ele>511</ele>
        <time>2019-01-18T10:25:40.000Z</time>
      </trkpt>
      <trkpt lat="43.33569" lon="5.68522">
        <ele>511</ele>
        <time>2019-01-18T10:25:41.000Z</time>
      </trkpt>
      <trkpt lat="43.33569" lon="5.68522">
        <ele>511</ele>
        <time>2019-01-18T10:25:42.000Z</time>
      </trkpt>
      <trkpt lat="43.33569" lon="5.68522">
        <ele>511</ele>
        <time>2019-01-18T10:25:43.000Z</time>
      </trkpt>
      <trkpt lat="43.33569" lon="5.68522">
        <ele>511</ele>
        <time>2019-01-18T10:25:44.000Z</time>
      </trkpt>
      <trkpt lat="43.33569" lon="5.68522">
        <ele>511</ele>
        <time>2019-01-18T10:25:45.000Z</time>
      </trkpt>
      <trkpt lat="43.33569" lon="5.68522">
        <ele>511</ele>
        <time>2019-01-18T10:25:46.000Z</time>
      </trkpt>
      <trkpt lat="43.33569" lon="5.68522">
        <ele>511</ele>
        <time>2019-01-18T10:25:47.000Z</time>
      </trkpt>
      <trkpt lat="43.33569" lon="5.68522">
        <ele>511</ele>
        <time>2019-01-18T10:25:48.000Z</time>
      </trkpt>
      <trkpt lat="43.33569" lon="5.68522">
        <ele>511</ele>
        <time>2019-01-18T10:25:49.000Z</time>
      </trkpt>
      <trkpt lat="43.33569" lon="5.68522">
        <ele>511</ele>
        <time>2019-01-18T10:25:50.000Z</time>
      </trkpt>
      <trkpt lat="43.33569" lon="5.68522">
        <ele>511</ele>
        <time>2019-01-18T10:25:51.000Z</time>
      </trkpt>
      <trkpt lat="43.33569" lon="5.68522">
        <ele>511</ele>
        <time>2019-01-18T10:25:52.000Z</time>
      </trkpt>
      <trkpt lat="43.33569" lon="5.68522">
        <ele>511</ele>
        <time>2019-01-18T10:25:53.000Z</time>
      </trkpt>
      <trkpt lat="43.33569" lon="5.68522">
        <ele>511</ele>
        <time>2019-01-18T10:25:54.000Z</time>
      </trkpt>
      <trkpt lat="43.33569" lon="5.68522">
        <ele>511</ele>
        <time>2019-01-18T10:25:55.000Z</time>
      </trkpt>
      <trkpt lat="43.33569" lon="5.68522">
        <ele>511</ele>
        <time>2019-01-18T10:25:56.000Z</time>
      </trkpt>
      <trkpt lat="43.33569" lon="5.68522">
        <ele>511</ele>
        <time>2019-01-18T10:25:57.000Z</time>
      </trkpt>
      <trkpt lat="43.33569" lon="5.68522">
        <ele>511</ele>
        <time>2019-01-18T10:25:58.000Z</time>
      </trkpt>
      <trkpt lat="43.33569" lon="5.68522">
        <ele>511</ele>
        <time>2019-01-18T10:25:59.000Z</time>
      </trkpt>
      <trkpt lat="43.33569" lon="5.68522">
        <ele>511</ele>
        <time>2019-01-18T10:26:00.000Z</time>
      </trkpt>
      <trkpt lat="43.33569" lon="5.68522">
        <ele>511</ele>
        <time>2019-01-18T10:26:01.000Z</time>
      </trkpt>
      <trkpt lat="43.33569" lon="5.68522">
        <ele>511</ele>
        <time>2019-01-18T10:26:02.000Z</time>
      </trkpt>
      <trkpt lat="43.33569" lon="5.68522">
        <ele>511</ele>
        <time>2019-01-18T10:26:03.000Z</time>
      </trkpt>
      <trkpt lat="43.33569" lon="5.68522">
        <ele>511</ele>
        <time>2019-01-18T10:26:04.000Z</time>
      </trkpt>
      <trkpt lat="43.33569" lon="5.68522">
        <ele>511</ele>
        <time>2019-01-18T10:26:05.000Z</time>
      </trkpt>
      <trkpt lat="43.33569" lon="5.68522">
        <ele>511</ele>
        <time>2019-01-18T10:26:06.000Z</time>
      </trkpt>
      <trkpt lat="43.33569" lon="5.68522">
        <ele>511</ele>
        <time>2019-01-18T10:26:07.000Z</time>
      </trkpt>
      <trkpt lat="43.33569" lon="5.68522">
        <ele>511</ele>
        <time>2019-01-18T10:26:08.000Z</time>
      </trkpt>
      <trkpt lat="43.33569" lon="5.68522">
        <ele>511</ele>
        <time>2019-01-18T10:26:09.000Z</time>
      </trkpt>
      <trkpt lat="43.33569" lon="5.68522">
        <ele>511</ele>
        <time>2019-01-18T10:26:10.000Z</time>
      </trkpt>
      <trkpt lat="43.33569" lon="5.68522">
        <ele>511</ele>
        <time>2019-01-18T10:26:11.000Z</time>
      </trkpt>
      <trkpt lat="43.33569" lon="5.68522">
        <ele>511</ele>
        <time>2019-01-18T10:26:12.000Z</time>
      </trkpt>
      <trkpt lat="43.33569" lon="5.68522">
        <ele>511</ele>
        <time>2019-01-18T10:26:13.000Z</time>
      </trkpt>
      <trkpt lat="43.33569" lon="5.68522">
        <ele>511</ele>
        <time>2019-01-18T10:26:14.000Z</time>
      </trkpt>
      <trkpt lat="43.33569" lon="5.68522">
        <ele>511</ele>
        <time>2019-01-18T10:26:15.000Z</time>
      </trkpt>
      <trkpt lat="43.33569" lon="5.68522">
        <ele>511</ele>
        <time>2019-01-18T10:26:16.000Z</time>
      </trkpt>
      <trkpt lat="43.33569" lon="5.68522">
        <ele>511</ele>
        <time>2019-01-18T10:26:17.000Z</time>
      </trkpt>
      <trkpt lat="43.33569" lon="5.68522">
        <ele>511</ele>
        <time>2019-01-18T10:26:18.000Z</time>
      </trkpt>
      <trkpt lat="43.33569" lon="5.68522">
        <ele>511</ele>
        <time>2019-01-18T10:26:19.000Z</time>
      </trkpt>
      <trkpt lat="43.33569" lon="5.68522">
        <ele>511</ele>
        <time>2019-01-18T10:26:20.000Z</time>
      </trkpt>
      <trkpt lat="43.33569" lon="5.68522">
        <ele>511</ele>
        <time>2019-01-18T10:26:21.000Z</time>
      </trkpt>
      <trkpt lat="43.33569" lon="5.68522">
        <ele>511</ele>
        <time>2019-01-18T10:26:22.000Z</time>
      </trkpt>
      <trkpt lat="43.33569" lon="5.68522">
        <ele>511</ele>
        <time>2019-01-18T10:26:23.000Z</time>
      </trkpt>
      <trkpt lat="43.33569" lon="5.68522">
        <ele>511</ele>
        <time>2019-01-18T10:26:24.000Z</time>
      </trkpt>
      <trkpt lat="43.33569" lon="5.68522">
        <ele>512</ele>
        <time>2019-01-18T10:26:25.000Z</time>
      </trkpt>
      <trkpt lat="43.33569" lon="5.68522">
        <ele>512</ele>
        <time>2019-01-18T10:26:26.000Z</time>
      </trkpt>
      <trkpt lat="43.33569" lon="5.68522">
        <ele>512</ele>
        <time>2019-01-18T10:26:27.000Z</time>
      </trkpt>
      <trkpt lat="43.33569" lon="5.68522">
        <ele>512</ele>
        <time>2019-01-18T10:26:28.000Z</time>
      </trkpt>
      <trkpt lat="43.3357" lon="5.68522">
        <ele>512</ele>
        <time>2019-01-18T10:26:29.000Z</time>
      </trkpt>
      <trkpt lat="43.3357" lon="5.68522">
        <ele>512</ele>
        <time>2019-01-18T10:26:30.000Z</time>
      </trkpt>
      <trkpt lat="43.3357" lon="5.68523">
        <ele>512</ele>
        <time>2019-01-18T10:26:31.000Z</time>
      </trkpt>
      <trkpt lat="43.3357" lon="5.68523">
        <ele>512</ele>
        <time>2019-01-18T10:26:32.000Z</time>
      </trkpt>
      <trkpt lat="43.3357" lon="5.68523">
        <ele>512</ele>
        <time>2019-01-18T10:26:33.000Z</time>
      </trkpt>
      <trkpt lat="43.3357" lon="5.68523">
        <ele>512</ele>
        <time>2019-01-18T10:26:34.000Z</time>
      </trkpt>
      <trkpt lat="43.3357" lon="5.68523">
        <ele>512</ele>
        <time>2019-01-18T10:26:35.000Z</time>
      </trkpt>
      <trkpt lat="43.3357" lon="5.68523">
        <ele>512</ele>
        <time>2019-01-18T10:26:36.000Z</time>
      </trkpt>
      <trkpt lat="43.33569" lon="5.68523">
        <ele>512</ele>
        <time>2019-01-18T10:26:37.000Z</time>
      </trkpt>
      <trkpt lat="43.33569" lon="5.68523">
        <ele>512</ele>
        <time>2019-01-18T10:26:38.000Z</time>
      </trkpt>
      <trkpt lat="43.33569" lon="5.68523">
        <ele>512</ele>
        <time>2019-01-18T10:26:39.000Z</time>
      </trkpt>
      <trkpt lat="43.33569" lon="5.68523">
        <ele>512</ele>
        <time>2019-01-18T10:26:40.000Z</time>
      </trkpt>
      <trkpt lat="43.33569" lon="5.68523">
        <ele>512</ele>
        <time>2019-01-18T10:26:41.000Z</time>
      </trkpt>
      <trkpt lat="43.33569" lon="5.68523">
        <ele>512</ele>
        <time>2019-01-18T10:26:42.000Z</time>
      </trkpt>
      <trkpt lat="43.33569" lon="5.68523">
        <ele>512</ele>
        <time>2019-01-18T10:26:43.000Z</time>
      </trkpt>
      <trkpt lat="43.33569" lon="5.68523">
        <ele>512</ele>
        <time>2019-01-18T10:26:44.000Z</time>
      </trkpt>
      <trkpt lat="43.33569" lon="5.68523">
        <ele>512</ele>
        <time>2019-01-18T10:26:45.000Z</time>
      </trkpt>
      <trkpt lat="43.33569" lon="5.68523">
        <ele>512</ele>
        <time>2019-01-18T10:26:46.000Z</time>
      </trkpt>
      <trkpt lat="43.33569" lon="5.68523">
        <ele>512</ele>
        <time>2019-01-18T10:26:47.000Z</time>
      </trkpt>
      <trkpt lat="43.33569" lon="5.68523">
        <ele>512</ele>
        <time>2019-01-18T10:26:48.000Z</time>
      </trkpt>
      <trkpt lat="43.33569" lon="5.68523">
        <ele>512</ele>
        <time>2019-01-18T10:26:49.000Z</time>
      </trkpt>
      <trkpt lat="43.33569" lon="5.68523">
        <ele>512</ele>
        <time>2019-01-18T10:26:50.000Z</time>
      </trkpt>
      <trkpt lat="43.33569" lon="5.68523">
        <ele>512</ele>
        <time>2019-01-18T10:26:51.000Z</time>
      </trkpt>
      <trkpt lat="43.33569" lon="5.68523">
        <ele>512</ele>
        <time>2019-01-18T10:26:52.000Z</time>
      </trkpt>
      <trkpt lat="43.33569" lon="5.68523">
        <ele>512</ele>
        <time>2019-01-18T10:26:53.000Z</time>
      </trkpt>
      <trkpt lat="43.33569" lon="5.68523">
        <ele>512</ele>
        <time>2019-01-18T10:26:54.000Z</time>
      </trkpt>
      <trkpt lat="43.33569" lon="5.68523">
        <ele>512</ele>
        <time>2019-01-18T10:26:55.000Z</time>
      </trkpt>
      <trkpt lat="43.33569" lon="5.68523">
        <ele>512</ele>
        <time>2019-01-18T10:26:56.000Z</time>
      </trkpt>
      <trkpt lat="43.33569" lon="5.68523">
        <ele>512</ele>
        <time>2019-01-18T10:26:57.000Z</time>
      </trkpt>
      <trkpt lat="43.33569" lon="5.68523">
        <ele>512</ele>
        <time>2019-01-18T10:26:58.000Z</time>
      </trkpt>
      <trkpt lat="43.33569" lon="5.68523">
        <ele>512</ele>
        <time>2019-01-18T10:26:59.000Z</time>
      </trkpt>
      <trkpt lat="43.33569" lon="5.68523">
        <ele>512</ele>
        <time>2019-01-18T10:27:00.000Z</time>
      </trkpt>
      <trkpt lat="43.33569" lon="5.68523">
        <ele>512</ele>
        <time>2019-01-18T10:27:01.000Z</time>
      </trkpt>
      <trkpt lat="43.33569" lon="5.68523">
        <ele>512</ele>
        <time>2019-01-18T10:27:02.000Z</time>
      </trkpt>
      <trkpt lat="43.33569" lon="5.68523">
        <ele>512</ele>
        <time>2019-01-18T10:27:03.000Z</time>
      </trkpt>
      <trkpt lat="43.33568" lon="5.68523">
        <ele>512</ele>
        <time>2019-01-18T10:27:04.000Z</time>
      </trkpt>
      <trkpt lat="43.33568" lon="5.68523">
        <ele>512</ele>
        <time>2019-01-18T10:27:05.000Z</time>
      </trkpt>
      <trkpt lat="43.33568" lon="5.68523">
        <ele>512</ele>
        <time>2019-01-18T10:27:06.000Z</time>
      </trkpt>
      <trkpt lat="43.33568" lon="5.68523">
        <ele>512</ele>
        <time>2019-01-18T10:27:07.000Z</time>
      </trkpt>
      <trkpt lat="43.33568" lon="5.68523">
        <ele>512</ele>
        <time>2019-01-18T10:27:08.000Z</time>
      </trkpt>
      <trkpt lat="43.33568" lon="5.68523">
        <ele>512</ele>
        <time>2019-01-18T10:27:09.000Z</time>
      </trkpt>
      <trkpt lat="43.33568" lon="5.68523">
        <ele>512</ele>
        <time>2019-01-18T10:27:10.000Z</time>
      </trkpt>
      <trkpt lat="43.33568" lon="5.68523">
        <ele>512</ele>
        <time>2019-01-18T10:27:11.000Z</time>
      </trkpt>
      <trkpt lat="43.33568" lon="5.68523">
        <ele>512</ele>
        <time>2019-01-18T10:27:12.000Z</time>
      </trkpt>
      <trkpt lat="43.33568" lon="5.68523">
        <ele>512</ele>
        <time>2019-01-18T10:27:13.000Z</time>
      </trkpt>
      <trkpt lat="43.33568" lon="5.68523">
        <ele>512</ele>
        <time>2019-01-18T10:27:14.000Z</time>
      </trkpt>
      <trkpt lat="43.33568" lon="5.68523">
        <ele>512</ele>
        <time>2019-01-18T10:27:15.000Z</time>
      </trkpt>
      <trkpt lat="43.33568" lon="5.68523">
        <ele>512</ele>
        <time>2019-01-18T10:27:16.000Z</time>
      </trkpt>
      <trkpt lat="43.33568" lon="5.68523">
        <ele>513</ele>
        <time>2019-01-18T10:27:17.000Z</time>
      </trkpt>
      <trkpt lat="43.33568" lon="5.68523">
        <ele>513</ele>
        <time>2019-01-18T10:27:18.000Z</time>
      </trkpt>
      <trkpt lat="43.33568" lon="5.68523">
        <ele>513</ele>
        <time>2019-01-18T10:27:19.000Z</time>
      </trkpt>
      <trkpt lat="43.33568" lon="5.68523">
        <ele>513</ele>
        <time>2019-01-18T10:27:20.000Z</time>
      </trkpt>
      <trkpt lat="43.33568" lon="5.68523">
        <ele>513</ele>
        <time>2019-01-18T10:27:21.000Z</time>
      </trkpt>
      <trkpt lat="43.33568" lon="5.68523">
        <ele>513</ele>
        <time>2019-01-18T10:27:22.000Z</time>
      </trkpt>
      <trkpt lat="43.33568" lon="5.68523">
        <ele>513</ele>
        <time>2019-01-18T10:27:23.000Z</time>
      </trkpt>
      <trkpt lat="43.33568" lon="5.68523">
        <ele>513</ele>
        <time>2019-01-18T10:27:24.000Z</time>
      </trkpt>
      <trkpt lat="43.33568" lon="5.68523">
        <ele>513</ele>
        <time>2019-01-18T10:27:25.000Z</time>
      </trkpt>
      <trkpt lat="43.33568" lon="5.68523">
        <ele>513</ele>
        <time>2019-01-18T10:27:26.000Z</time>
      </trkpt>
      <trkpt lat="43.33568" lon="5.68523">
        <ele>513</ele>
        <time>2019-01-18T10:27:27.000Z</time>
      </trkpt>
      <trkpt lat="43.33568" lon="5.68522">
        <ele>513</ele>
        <time>2019-01-18T10:27:28.000Z</time>
      </trkpt>
      <trkpt lat="43.33568" lon="5.68522">
        <ele>513</ele>
        <time>2019-01-18T10:27:29.000Z</time>
      </trkpt>
      <trkpt lat="43.33568" lon="5.68522">
        <ele>513</ele>
        <time>2019-01-18T10:27:30.000Z</time>
      </trkpt>
      <trkpt lat="43.33569" lon="5.68522">
        <ele>514</ele>
        <time>2019-01-18T10:27:31.000Z</time>
      </trkpt>
      <trkpt lat="43.33569" lon="5.68522">
        <ele>514</ele>
        <time>2019-01-18T10:27:32.000Z</time>
      </trkpt>
      <trkpt lat="43.33569" lon="5.68522">
        <ele>514</ele>
        <time>2019-01-18T10:27:33.000Z</time>
      </trkpt>
      <trkpt lat="43.33569" lon="5.68522">
        <ele>514</ele>
        <time>2019-01-18T10:27:34.000Z</time>
      </trkpt>
      <trkpt lat="43.3357" lon="5.68522">
        <ele>514</ele>
        <time>2019-01-18T10:27:35.000Z</time>
      </trkpt>
      <trkpt lat="43.3357" lon="5.68522">
        <ele>514</ele>
        <time>2019-01-18T10:27:36.000Z</time>
      </trkpt>
      <trkpt lat="43.3357" lon="5.68522">
        <ele>514</ele>
        <time>2019-01-18T10:27:37.000Z</time>
      </trkpt>
      <trkpt lat="43.3357" lon="5.68521">
        <ele>514</ele>
        <time>2019-01-18T10:27:38.000Z</time>
      </trkpt>
      <trkpt lat="43.3357" lon="5.68521">
        <ele>514</ele>
        <time>2019-01-18T10:27:39.000Z</time>
      </trkpt>
      <trkpt lat="43.33571" lon="5.68521">
        <ele>514</ele>
        <time>2019-01-18T10:27:40.000Z</time>
      </trkpt>
      <trkpt lat="43.33571" lon="5.68521">
        <ele>514</ele>
        <time>2019-01-18T10:27:41.000Z</time>
      </trkpt>
      <trkpt lat="43.33571" lon="5.68521">
        <ele>514</ele>
        <time>2019-01-18T10:27:42.000Z</time>
      </trkpt>
      <trkpt lat="43.33571" lon="5.68521">
        <ele>513</ele>
        <time>2019-01-18T10:27:43.000Z</time>
      </trkpt>
      <trkpt lat="43.33571" lon="5.68521">
        <ele>513</ele>
        <time>2019-01-18T10:27:44.000Z</time>
      </trkpt>
      <trkpt lat="43.33571" lon="5.68521">
        <ele>513</ele>
        <time>2019-01-18T10:27:45.000Z</time>
      </trkpt>
      <trkpt lat="43.33571" lon="5.6852">
        <ele>513</ele>
        <time>2019-01-18T10:27:46.000Z</time>
      </trkpt>
      <trkpt lat="43.33571" lon="5.68521">
        <ele>513</ele>
        <time>2019-01-18T10:27:47.000Z</time>
      </trkpt>
      <trkpt lat="43.33571" lon="5.68521">
        <ele>513</ele>
        <time>2019-01-18T10:27:48.000Z</time>
      </trkpt>
      <trkpt lat="43.33571" lon="5.68521">
        <ele>513</ele>
        <time>2019-01-18T10:27:49.000Z</time>
      </trkpt>
      <trkpt lat="43.33572" lon="5.68521">
        <ele>513</ele>
        <time>2019-01-18T10:27:50.000Z</time>
      </trkpt>
      <trkpt lat="43.33572" lon="5.68521">
        <ele>513</ele>
        <time>2019-01-18T10:27:51.000Z</time>
      </trkpt>
      <trkpt lat="43.33572" lon="5.68521">
        <ele>513</ele>
        <time>2019-01-18T10:27:52.000Z</time>
      </trkpt>
      <trkpt lat="43.33572" lon="5.6852">
        <ele>513</ele>
        <time>2019-01-18T10:27:53.000Z</time>
      </trkpt>
      <trkpt lat="43.33572" lon="5.6852">
        <ele>513</ele>
        <time>2019-01-18T10:27:54.000Z</time>
      </trkpt>
      <trkpt lat="43.33572" lon="5.6852">
        <ele>513</ele>
        <time>2019-01-18T10:27:55.000Z</time>
      </trkpt>
      <trkpt lat="43.33572" lon="5.6852">
        <ele>512</ele>
        <time>2019-01-18T10:27:56.000Z</time>
      </trkpt>
      <trkpt lat="43.33572" lon="5.6852">
        <ele>512</ele>
        <time>2019-01-18T10:27:57.000Z</time>
      </trkpt>
      <trkpt lat="43.33572" lon="5.6852">
        <ele>512</ele>
        <time>2019-01-18T10:27:58.000Z</time>
      </trkpt>
      <trkpt lat="43.33572" lon="5.6852">
        <ele>512</ele>
        <time>2019-01-18T10:27:59.000Z</time>
      </trkpt>
      <trkpt lat="43.33572" lon="5.6852">
        <ele>512</ele>
        <time>2019-01-18T10:28:00.000Z</time>
      </trkpt>
      <trkpt lat="43.33572" lon="5.6852">
        <ele>512</ele>
        <time>2019-01-18T10:28:01.000Z</time>
      </trkpt>
      <trkpt lat="43.33572" lon="5.6852">
        <ele>512</ele>
        <time>2019-01-18T10:28:02.000Z</time>
      </trkpt>
      <trkpt lat="43.33572" lon="5.6852">
        <ele>512</ele>
        <time>2019-01-18T10:28:03.000Z</time>
      </trkpt>
      <trkpt lat="43.33572" lon="5.6852">
        <ele>512</ele>
        <time>2019-01-18T10:28:04.000Z</time>
      </trkpt>
      <trkpt lat="43.33572" lon="5.6852">
        <ele>511</ele>
        <time>2019-01-18T10:28:05.000Z</time>
      </trkpt>
      <trkpt lat="43.33572" lon="5.6852">
        <ele>511</ele>
        <time>2019-01-18T10:28:06.000Z</time>
      </trkpt>
      <trkpt lat="43.33572" lon="5.6852">
        <ele>511</ele>
        <time>2019-01-18T10:28:07.000Z</time>
      </trkpt>
      <trkpt lat="43.33571" lon="5.6852">
        <ele>511</ele>
        <time>2019-01-18T10:28:08.000Z</time>
      </trkpt>
      <trkpt lat="43.33571" lon="5.6852">
        <ele>511</ele>
        <time>2019-01-18T10:28:09.000Z</time>
      </trkpt>
      <trkpt lat="43.33571" lon="5.6852">
        <ele>511</ele>
        <time>2019-01-18T10:28:10.000Z</time>
      </trkpt>
      <trkpt lat="43.33571" lon="5.6852">
        <ele>511</ele>
        <time>2019-01-18T10:28:11.000Z</time>
      </trkpt>
      <trkpt lat="43.33571" lon="5.6852">
        <ele>510</ele>
        <time>2019-01-18T10:28:12.000Z</time>
      </trkpt>
      <trkpt lat="43.33571" lon="5.6852">
        <ele>510</ele>
        <time>2019-01-18T10:28:13.000Z</time>
      </trkpt>
      <trkpt lat="43.33572" lon="5.6852">
        <ele>510</ele>
        <time>2019-01-18T10:28:14.000Z</time>
      </trkpt>
      <trkpt lat="43.33572" lon="5.6852">
        <ele>510</ele>
        <time>2019-01-18T10:28:15.000Z</time>
      </trkpt>
      <trkpt lat="43.33572" lon="5.6852">
        <ele>510</ele>
        <time>2019-01-18T10:28:16.000Z</time>
      </trkpt>
      <trkpt lat="43.33572" lon="5.6852">
        <ele>510</ele>
        <time>2019-01-18T10:28:17.000Z</time>
      </trkpt>
      <trkpt lat="43.33572" lon="5.6852">
        <ele>510</ele>
        <time>2019-01-18T10:28:18.000Z</time>
      </trkpt>
      <trkpt lat="43.33572" lon="5.6852">
        <ele>510</ele>
        <time>2019-01-18T10:28:19.000Z</time>
      </trkpt>
      <trkpt lat="43.33572" lon="5.6852">
        <ele>509</ele>
        <time>2019-01-18T10:28:20.000Z</time>
      </trkpt>
      <trkpt lat="43.33572" lon="5.6852">
        <ele>509</ele>
        <time>2019-01-18T10:28:21.000Z</time>
      </trkpt>
      <trkpt lat="43.33572" lon="5.6852">
        <ele>509</ele>
        <time>2019-01-18T10:28:22.000Z</time>
      </trkpt>
      <trkpt lat="43.33572" lon="5.6852">
        <ele>509</ele>
        <time>2019-01-18T10:28:23.000Z</time>
      </trkpt>
      <trkpt lat="43.33572" lon="5.68519">
        <ele>509</ele>
        <time>2019-01-18T10:28:24.000Z</time>
      </trkpt>
      <trkpt lat="43.33572" lon="5.68519">
        <ele>509</ele>
        <time>2019-01-18T10:28:25.000Z</time>
      </trkpt>
      <trkpt lat="43.33572" lon="5.68519">
        <ele>509</ele>
        <time>2019-01-18T10:28:26.000Z</time>
      </trkpt>
      <trkpt lat="43.33572" lon="5.68519">
        <ele>509</ele>
        <time>2019-01-18T10:28:27.000Z</time>
      </trkpt>
      <trkpt lat="43.33572" lon="5.68519">
        <ele>509</ele>
        <time>2019-01-18T10:28:28.000Z</time>
      </trkpt>
      <trkpt lat="43.33572" lon="5.68519">
        <ele>509</ele>
        <time>2019-01-18T10:28:29.000Z</time>
      </trkpt>
      <trkpt lat="43.33572" lon="5.68519">
        <ele>509</ele>
        <time>2019-01-18T10:28:30.000Z</time>
      </trkpt>
      <trkpt lat="43.33572" lon="5.68519">
        <ele>509</ele>
        <time>2019-01-18T10:28:31.000Z</time>
      </trkpt>
      <trkpt lat="43.33572" lon="5.68519">
        <ele>509</ele>
        <time>2019-01-18T10:28:32.000Z</time>
      </trkpt>
      <trkpt lat="43.33572" lon="5.68519">
        <ele>508</ele>
        <time>2019-01-18T10:28:33.000Z</time>
      </trkpt>
      <trkpt lat="43.33572" lon="5.68519">
        <ele>508</ele>
        <time>2019-01-18T10:28:34.000Z</time>
      </trkpt>
      <trkpt lat="43.33572" lon="5.68519">
        <ele>508</ele>
        <time>2019-01-18T10:28:35.000Z</time>
      </trkpt>
      <trkpt lat="43.33572" lon="5.68519">
        <ele>508</ele>
        <time>2019-01-18T10:28:36.000Z</time>
      </trkpt>
      <trkpt lat="43.33572" lon="5.68519">
        <ele>508</ele>
        <time>2019-01-18T10:28:37.000Z</time>
      </trkpt>
      <trkpt lat="43.33572" lon="5.68519">
        <ele>508</ele>
        <time>2019-01-18T10:28:38.000Z</time>
      </trkpt>
      <trkpt lat="43.33572" lon="5.68519">
        <ele>508</ele>
        <time>2019-01-18T10:28:39.000Z</time>
      </trkpt>
      <trkpt lat="43.33572" lon="5.68519">
        <ele>508</ele>
        <time>2019-01-18T10:28:40.000Z</time>
      </trkpt>
      <trkpt lat="43.33572" lon="5.68519">
        <ele>508</ele>
        <time>2019-01-18T10:28:41.000Z</time>
      </trkpt>
      <trkpt lat="43.33572" lon="5.68519">
        <ele>508</ele>
        <time>2019-01-18T10:28:42.000Z</time>
      </trkpt>
      <trkpt lat="43.33572" lon="5.68519">
        <ele>508</ele>
        <time>2019-01-18T10:28:43.000Z</time>
      </trkpt>
      <trkpt lat="43.33572" lon="5.68519">
        <ele>508</ele>
        <time>2019-01-18T10:28:44.000Z</time>
      </trkpt>
      <trkpt lat="43.33572" lon="5.68519">
        <ele>508</ele>
        <time>2019-01-18T10:28:45.000Z</time>
      </trkpt>
      <trkpt lat="43.33572" lon="5.68519">
        <ele>508</ele>
        <time>2019-01-18T10:28:46.000Z</time>
      </trkpt>
      <trkpt lat="43.33572" lon="5.68519">
        <ele>508</ele>
        <time>2019-01-18T10:28:47.000Z</time>
      </trkpt>
      <trkpt lat="43.33572" lon="5.68519">
        <ele>508</ele>
        <time>2019-01-18T10:28:48.000Z</time>
      </trkpt>
      <trkpt lat="43.33572" lon="5.68519">
        <ele>508</ele>
        <time>2019-01-18T10:28:49.000Z</time>
      </trkpt>
      <trkpt lat="43.33572" lon="5.68519">
        <ele>508</ele>
        <time>2019-01-18T10:28:50.000Z</time>
      </trkpt>
      <trkpt lat="43.33572" lon="5.68519">
        <ele>508</ele>
        <time>2019-01-18T10:28:51.000Z</time>
      </trkpt>
      <trkpt lat="43.33572" lon="5.68519">
        <ele>508</ele>
        <time>2019-01-18T10:28:52.000Z</time>
      </trkpt>
      <trkpt lat="43.33572" lon="5.68519">
        <ele>508</ele>
        <time>2019-01-18T10:28:53.000Z</time>
      </trkpt>
      <trkpt lat="43.33572" lon="5.68519">
        <ele>507</ele>
        <time>2019-01-18T10:28:54.000Z</time>
      </trkpt>
      <trkpt lat="43.33572" lon="5.68519">
        <ele>507</ele>
        <time>2019-01-18T10:28:55.000Z</time>
      </trkpt>
      <trkpt lat="43.33572" lon="5.68519">
        <ele>507</ele>
        <time>2019-01-18T10:28:56.000Z</time>
      </trkpt>
      <trkpt lat="43.33573" lon="5.68519">
        <ele>507</ele>
        <time>2019-01-18T10:28:57.000Z</time>
      </trkpt>
      <trkpt lat="43.33573" lon="5.68519">
        <ele>507</ele>
        <time>2019-01-18T10:28:58.000Z</time>
      </trkpt>
      <trkpt lat="43.33573" lon="5.68519">
        <ele>507</ele>
        <time>2019-01-18T10:28:59.000Z</time>
      </trkpt>
      <trkpt lat="43.33573" lon="5.68518">
        <ele>507</ele>
        <time>2019-01-18T10:29:00.000Z</time>
      </trkpt>
      <trkpt lat="43.33573" lon="5.68518">
        <ele>507</ele>
        <time>2019-01-18T10:29:01.000Z</time>
      </trkpt>
      <trkpt lat="43.33573" lon="5.68518">
        <ele>507</ele>
        <time>2019-01-18T10:29:02.000Z</time>
      </trkpt>
      <trkpt lat="43.33573" lon="5.68518">
        <ele>506</ele>
        <time>2019-01-18T10:29:03.000Z</time>
      </trkpt>
      <trkpt lat="43.33573" lon="5.68518">
        <ele>506</ele>
        <time>2019-01-18T10:29:04.000Z</time>
      </trkpt>
      <trkpt lat="43.33573" lon="5.68518">
        <ele>506</ele>
        <time>2019-01-18T10:29:05.000Z</time>
      </trkpt>
      <trkpt lat="43.33573" lon="5.68518">
        <ele>506</ele>
        <time>2019-01-18T10:29:06.000Z</time>
      </trkpt>
      <trkpt lat="43.33573" lon="5.68518">
        <ele>506</ele>
        <time>2019-01-18T10:29:07.000Z</time>
      </trkpt>
      <trkpt lat="43.33573" lon="5.68518">
        <ele>506</ele>
        <time>2019-01-18T10:29:08.000Z</time>
      </trkpt>
      <trkpt lat="43.33573" lon="5.68518">
        <ele>506</ele>
        <time>2019-01-18T10:29:09.000Z</time>
      </trkpt>
      <trkpt lat="43.33573" lon="5.68518">
        <ele>506</ele>
        <time>2019-01-18T10:29:10.000Z</time>
      </trkpt>
      <trkpt lat="43.33573" lon="5.68518">
        <ele>506</ele>
        <time>2019-01-18T10:29:11.000Z</time>
      </trkpt>
      <trkpt lat="43.33573" lon="5.68518">
        <ele>506</ele>
        <time>2019-01-18T10:29:12.000Z</time>
      </trkpt>
      <trkpt lat="43.33573" lon="5.68518">
        <ele>506</ele>
        <time>2019-01-18T10:29:13.000Z</time>
      </trkpt>
      <trkpt lat="43.33573" lon="5.68518">
        <ele>506</ele>
        <time>2019-01-18T10:29:14.000Z</time>
      </trkpt>
      <trkpt lat="43.33572" lon="5.68518">
        <ele>506</ele>
        <time>2019-01-18T10:29:15.000Z</time>
      </trkpt>
      <trkpt lat="43.33572" lon="5.68518">
        <ele>505</ele>
        <time>2019-01-18T10:29:16.000Z</time>
      </trkpt>
      <trkpt lat="43.33572" lon="5.68518">
        <ele>505</ele>
        <time>2019-01-18T10:29:17.000Z</time>
      </trkpt>
      <trkpt lat="43.33572" lon="5.68518">
        <ele>505</ele>
        <time>2019-01-18T10:29:18.000Z</time>
      </trkpt>
      <trkpt lat="43.33572" lon="5.68518">
        <ele>505</ele>
        <time>2019-01-18T10:29:19.000Z</time>
      </trkpt>
      <trkpt lat="43.33572" lon="5.68518">
        <ele>505</ele>
        <time>2019-01-18T10:29:20.000Z</time>
      </trkpt>
      <trkpt lat="43.33572" lon="5.68518">
        <ele>505</ele>
        <time>2019-01-18T10:29:21.000Z</time>
      </trkpt>
      <trkpt lat="43.33572" lon="5.68518">
        <ele>505</ele>
        <time>2019-01-18T10:29:22.000Z</time>
      </trkpt>
      <trkpt lat="43.33572" lon="5.68518">
        <ele>505</ele>
        <time>2019-01-18T10:29:23.000Z</time>
      </trkpt>
      <trkpt lat="43.33572" lon="5.68518">
        <ele>505</ele>
        <time>2019-01-18T10:29:24.000Z</time>
      </trkpt>
      <trkpt lat="43.33573" lon="5.68518">
        <ele>505</ele>
        <time>2019-01-18T10:29:25.000Z</time>
      </trkpt>
      <trkpt lat="43.33573" lon="5.68518">
        <ele>505</ele>
        <time>2019-01-18T10:29:26.000Z</time>
      </trkpt>
      <trkpt lat="43.33573" lon="5.68519">
        <ele>505</ele>
        <time>2019-01-18T10:29:27.000Z</time>
      </trkpt>
      <trkpt lat="43.33573" lon="5.68519">
        <ele>505</ele>
        <time>2019-01-18T10:29:28.000Z</time>
      </trkpt>
      <trkpt lat="43.33573" lon="5.68519">
        <ele>505</ele>
        <time>2019-01-18T10:29:29.000Z</time>
      </trkpt>
      <trkpt lat="43.33573" lon="5.68519">
        <ele>505</ele>
        <time>2019-01-18T10:29:30.000Z</time>
      </trkpt>
      <trkpt lat="43.33573" lon="5.68519">
        <ele>505</ele>
        <time>2019-01-18T10:29:31.000Z</time>
      </trkpt>
      <trkpt lat="43.33572" lon="5.68519">
        <ele>505</ele>
        <time>2019-01-18T10:29:32.000Z</time>
      </trkpt>
      <trkpt lat="43.33572" lon="5.68519">
        <ele>505</ele>
        <time>2019-01-18T10:29:33.000Z</time>
      </trkpt>
      <trkpt lat="43.33572" lon="5.68519">
        <ele>504</ele>
        <time>2019-01-18T10:29:34.000Z</time>
      </trkpt>
      <trkpt lat="43.33572" lon="5.68519">
        <ele>504</ele>
        <time>2019-01-18T10:29:35.000Z</time>
      </trkpt>
      <trkpt lat="43.33572" lon="5.68519">
        <ele>504</ele>
        <time>2019-01-18T10:29:36.000Z</time>
      </trkpt>
      <trkpt lat="43.33571" lon="5.68519">
        <ele>504</ele>
        <time>2019-01-18T10:29:37.000Z</time>
      </trkpt>
      <trkpt lat="43.33571" lon="5.68519">
        <ele>504</ele>
        <time>2019-01-18T10:29:38.000Z</time>
      </trkpt>
      <trkpt lat="43.33571" lon="5.68519">
        <ele>504</ele>
        <time>2019-01-18T10:29:39.000Z</time>
      </trkpt>
      <trkpt lat="43.33571" lon="5.68519">
        <ele>504</ele>
        <time>2019-01-18T10:29:40.000Z</time>
      </trkpt>
      <trkpt lat="43.33571" lon="5.68519">
        <ele>504</ele>
        <time>2019-01-18T10:29:41.000Z</time>
      </trkpt>
      <trkpt lat="43.33571" lon="5.68519">
        <ele>504</ele>
        <time>2019-01-18T10:29:42.000Z</time>
      </trkpt>
      <trkpt lat="43.33571" lon="5.68519">
        <ele>504</ele>
        <time>2019-01-18T10:29:43.000Z</time>
      </trkpt>
      <trkpt lat="43.33571" lon="5.68519">
        <ele>504</ele>
        <time>2019-01-18T10:29:44.000Z</time>
      </trkpt>
      <trkpt lat="43.33571" lon="5.68519">
        <ele>504</ele>
        <time>2019-01-18T10:29:45.000Z</time>
      </trkpt>
      <trkpt lat="43.33571" lon="5.68519">
        <ele>504</ele>
        <time>2019-01-18T10:29:46.000Z</time>
      </trkpt>
      <trkpt lat="43.33571" lon="5.68519">
        <ele>505</ele>
        <time>2019-01-18T10:29:47.000Z</time>
      </trkpt>
      <trkpt lat="43.3357" lon="5.68519">
        <ele>505</ele>
        <time>2019-01-18T10:29:48.000Z</time>
      </trkpt>
      <trkpt lat="43.3357" lon="5.68519">
        <ele>505</ele>
        <time>2019-01-18T10:29:49.000Z</time>
      </trkpt>
      <trkpt lat="43.3357" lon="5.68519">
        <ele>505</ele>
        <time>2019-01-18T10:29:50.000Z</time>
      </trkpt>
      <trkpt lat="43.33569" lon="5.68518">
        <ele>505</ele>
        <time>2019-01-18T10:29:51.000Z</time>
      </trkpt>
      <trkpt lat="43.33569" lon="5.68518">
        <ele>505</ele>
        <time>2019-01-18T10:29:52.000Z</time>
      </trkpt>
      <trkpt lat="43.33569" lon="5.68518">
        <ele>505</ele>
        <time>2019-01-18T10:29:53.000Z</time>
      </trkpt>
      <trkpt lat="43.33569" lon="5.68518">
        <ele>505</ele>
        <time>2019-01-18T10:29:54.000Z</time>
      </trkpt>
      <trkpt lat="43.33569" lon="5.68518">
        <ele>505</ele>
        <time>2019-01-18T10:29:55.000Z</time>
      </trkpt>
      <trkpt lat="43.33569" lon="5.68518">
        <ele>505</ele>
        <time>2019-01-18T10:29:56.000Z</time>
      </trkpt>
      <trkpt lat="43.33568" lon="5.68518">
        <ele>505</ele>
        <time>2019-01-18T10:29:57.000Z</time>
      </trkpt>
      <trkpt lat="43.33568" lon="5.68517">
        <ele>505</ele>
        <time>2019-01-18T10:29:58.000Z</time>
      </trkpt>
      <trkpt lat="43.33567" lon="5.68517">
        <ele>506</ele>
        <time>2019-01-18T10:29:59.000Z</time>
      </trkpt>
      <trkpt lat="43.33567" lon="5.68517">
        <ele>506</ele>
        <time>2019-01-18T10:30:00.000Z</time>
      </trkpt>
      <trkpt lat="43.33566" lon="5.68517">
        <ele>506</ele>
        <time>2019-01-18T10:30:01.000Z</time>
      </trkpt>
      <trkpt lat="43.33566" lon="5.68516">
        <ele>506</ele>
        <time>2019-01-18T10:30:02.000Z</time>
      </trkpt>
      <trkpt lat="43.33566" lon="5.68516">
        <ele>506</ele>
        <time>2019-01-18T10:30:03.000Z</time>
      </trkpt>
      <trkpt lat="43.33566" lon="5.68516">
        <ele>506</ele>
        <time>2019-01-18T10:30:04.000Z</time>
      </trkpt>
      <trkpt lat="43.33565" lon="5.68516">
        <ele>506</ele>
        <time>2019-01-18T10:30:05.000Z</time>
      </trkpt>
      <trkpt lat="43.33565" lon="5.68516">
        <ele>506</ele>
        <time>2019-01-18T10:30:06.000Z</time>
      </trkpt>
      <trkpt lat="43.33565" lon="5.68515">
        <ele>506</ele>
        <time>2019-01-18T10:30:07.000Z</time>
      </trkpt>
      <trkpt lat="43.33565" lon="5.68515">
        <ele>506</ele>
        <time>2019-01-18T10:30:08.000Z</time>
      </trkpt>
      <trkpt lat="43.33565" lon="5.68515">
        <ele>506</ele>
        <time>2019-01-18T10:30:09.000Z</time>
      </trkpt>
      <trkpt lat="43.33565" lon="5.68515">
        <ele>506</ele>
        <time>2019-01-18T10:30:10.000Z</time>
      </trkpt>
      <trkpt lat="43.33565" lon="5.68515">
        <ele>506</ele>
        <time>2019-01-18T10:30:11.000Z</time>
      </trkpt>
      <trkpt lat="43.33565" lon="5.68515">
        <ele>506</ele>
        <time>2019-01-18T10:30:12.000Z</time>
      </trkpt>
      <trkpt lat="43.33564" lon="5.68514">
        <ele>506</ele>
        <time>2019-01-18T10:30:13.000Z</time>
      </trkpt>
      <trkpt lat="43.33564" lon="5.68514">
        <ele>506</ele>
        <time>2019-01-18T10:30:14.000Z</time>
      </trkpt>
      <trkpt lat="43.33564" lon="5.68514">
        <ele>506</ele>
        <time>2019-01-18T10:30:15.000Z</time>
      </trkpt>
      <trkpt lat="43.33564" lon="5.68514">
        <ele>506</ele>
        <time>2019-01-18T10:30:16.000Z</time>
      </trkpt>
      <trkpt lat="43.33564" lon="5.68514">
        <ele>506</ele>
        <time>2019-01-18T10:30:17.000Z</time>
      </trkpt>
      <trkpt lat="43.33564" lon="5.68514">
        <ele>506</ele>
        <time>2019-01-18T10:30:18.000Z</time>
      </trkpt>
      <trkpt lat="43.33563" lon="5.68514">
        <ele>506</ele>
        <time>2019-01-18T10:30:19.000Z</time>
      </trkpt>
      <trkpt lat="43.33563" lon="5.68514">
        <ele>506</ele>
        <time>2019-01-18T10:30:20.000Z</time>
      </trkpt>
      <trkpt lat="43.33563" lon="5.68514">
        <ele>506</ele>
        <time>2019-01-18T10:30:21.000Z</time>
      </trkpt>
      <trkpt lat="43.33564" lon="5.68513">
        <ele>506</ele>
        <time>2019-01-18T10:30:22.000Z</time>
      </trkpt>
      <trkpt lat="43.33564" lon="5.68513">
        <ele>506</ele>
        <time>2019-01-18T10:30:23.000Z</time>
      </trkpt>
      <trkpt lat="43.33564" lon="5.68512">
        <ele>506</ele>
        <time>2019-01-18T10:30:24.000Z</time>
      </trkpt>
      <trkpt lat="43.33564" lon="5.68512">
        <ele>506</ele>
        <time>2019-01-18T10:30:25.000Z</time>
      </trkpt>
      <trkpt lat="43.33564" lon="5.68511">
        <ele>506</ele>
        <time>2019-01-18T10:30:26.000Z</time>
      </trkpt>
      <trkpt lat="43.33565" lon="5.68511">
        <ele>506</ele>
        <time>2019-01-18T10:30:27.000Z</time>
      </trkpt>
      <trkpt lat="43.33565" lon="5.6851">
        <ele>506</ele>
        <time>2019-01-18T10:30:28.000Z</time>
      </trkpt>
      <trkpt lat="43.33566" lon="5.6851">
        <ele>506</ele>
        <time>2019-01-18T10:30:29.000Z</time>
      </trkpt>
      <trkpt lat="43.33566" lon="5.68509">
        <ele>506</ele>
        <time>2019-01-18T10:30:30.000Z</time>
      </trkpt>
      <trkpt lat="43.33567" lon="5.68509">
        <ele>506</ele>
        <time>2019-01-18T10:30:31.000Z</time>
      </trkpt>
      <trkpt lat="43.33567" lon="5.68509">
        <ele>506</ele>
        <time>2019-01-18T10:30:32.000Z</time>
      </trkpt>
      <trkpt lat="43.33567" lon="5.68509">
        <ele>506</ele>
        <time>2019-01-18T10:30:33.000Z</time>
      </trkpt>
      <trkpt lat="43.33567" lon="5.68509">
        <ele>507</ele>
        <time>2019-01-18T10:30:34.000Z</time>
      </trkpt>
      <trkpt lat="43.33567" lon="5.68509">
        <ele>507</ele>
        <time>2019-01-18T10:30:35.000Z</time>
      </trkpt>
      <trkpt lat="43.33567" lon="5.68509">
        <ele>507</ele>
        <time>2019-01-18T10:30:36.000Z</time>
      </trkpt>
      <trkpt lat="43.33567" lon="5.68509">
        <ele>507</ele>
        <time>2019-01-18T10:30:37.000Z</time>
      </trkpt>
      <trkpt lat="43.33567" lon="5.68509">
        <ele>507</ele>
        <time>2019-01-18T10:30:38.000Z</time>
      </trkpt>
      <trkpt lat="43.33567" lon="5.6851">
        <ele>507</ele>
        <time>2019-01-18T10:30:39.000Z</time>
      </trkpt>
      <trkpt lat="43.33567" lon="5.68511">
        <ele>507</ele>
        <time>2019-01-18T10:30:40.000Z</time>
      </trkpt>
      <trkpt lat="43.33567" lon="5.68512">
        <ele>507</ele>
        <time>2019-01-18T10:30:41.000Z</time>
      </trkpt>
      <trkpt lat="43.33567" lon="5.68512">
        <ele>507</ele>
        <time>2019-01-18T10:30:42.000Z</time>
      </trkpt>
      <trkpt lat="43.33568" lon="5.68513">
        <ele>507</ele>
        <time>2019-01-18T10:30:43.000Z</time>
      </trkpt>
      <trkpt lat="43.33568" lon="5.68513">
        <ele>506</ele>
        <time>2019-01-18T10:30:44.000Z</time>
      </trkpt>
      <trkpt lat="43.33568" lon="5.68513">
        <ele>506</ele>
        <time>2019-01-18T10:30:45.000Z</time>
      </trkpt>
      <trkpt lat="43.33568" lon="5.68513">
        <ele>506</ele>
        <time>2019-01-18T10:30:46.000Z</time>
      </trkpt>
      <trkpt lat="43.33568" lon="5.68513">
        <ele>506</ele>
        <time>2019-01-18T10:30:47.000Z</time>
      </trkpt>
      <trkpt lat="43.33568" lon="5.68513">
        <ele>506</ele>
        <time>2019-01-18T10:30:48.000Z</time>
      </trkpt>
      <trkpt lat="43.33569" lon="5.68513">
        <ele>506</ele>
        <time>2019-01-18T10:30:49.000Z</time>
      </trkpt>
      <trkpt lat="43.33569" lon="5.68513">
        <ele>506</ele>
        <time>2019-01-18T10:30:50.000Z</time>
      </trkpt>
      <trkpt lat="43.33569" lon="5.68513">
        <ele>506</ele>
        <time>2019-01-18T10:30:51.000Z</time>
      </trkpt>
      <trkpt lat="43.33569" lon="5.68513">
        <ele>506</ele>
        <time>2019-01-18T10:30:52.000Z</time>
      </trkpt>
      <trkpt lat="43.33569" lon="5.68514">
        <ele>506</ele>
        <time>2019-01-18T10:30:53.000Z</time>
      </trkpt>
      <trkpt lat="43.33569" lon="5.68514">
        <ele>506</ele>
        <time>2019-01-18T10:30:54.000Z</time>
      </trkpt>
      <trkpt lat="43.33569" lon="5.68514">
        <ele>506</ele>
        <time>2019-01-18T10:30:55.000Z</time>
      </trkpt>
      <trkpt lat="43.33569" lon="5.68514">
        <ele>506</ele>
        <time>2019-01-18T10:30:56.000Z</time>
      </trkpt>
      <trkpt lat="43.33569" lon="5.68514">
        <ele>506</ele>
        <time>2019-01-18T10:30:57.000Z</time>
      </trkpt>
      <trkpt lat="43.33569" lon="5.68514">
        <ele>506</ele>
        <time>2019-01-18T10:30:58.000Z</time>
      </trkpt>
      <trkpt lat="43.33569" lon="5.68514">
        <ele>506</ele>
        <time>2019-01-18T10:30:59.000Z</time>
      </trkpt>
      <trkpt lat="43.33569" lon="5.68514">
        <ele>506</ele>
        <time>2019-01-18T10:31:00.000Z</time>
      </trkpt>
      <trkpt lat="43.33569" lon="5.68514">
        <ele>506</ele>
        <time>2019-01-18T10:31:01.000Z</time>
      </trkpt>
      <trkpt lat="43.33569" lon="5.68514">
        <ele>506</ele>
        <time>2019-01-18T10:31:02.000Z</time>
      </trkpt>
      <trkpt lat="43.33569" lon="5.68515">
        <ele>506</ele>
        <time>2019-01-18T10:31:03.000Z</time>
      </trkpt>
      <trkpt lat="43.33569" lon="5.68515">
        <ele>506</ele>
        <time>2019-01-18T10:31:04.000Z</time>
      </trkpt>
      <trkpt lat="43.33569" lon="5.68515">
        <ele>506</ele>
        <time>2019-01-18T10:31:05.000Z</time>
      </trkpt>
      <trkpt lat="43.33569" lon="5.68515">
        <ele>506</ele>
        <time>2019-01-18T10:31:06.000Z</time>
      </trkpt>
      <trkpt lat="43.33569" lon="5.68515">
        <ele>506</ele>
        <time>2019-01-18T10:31:07.000Z</time>
      </trkpt>
      <trkpt lat="43.33569" lon="5.68515">
        <ele>506</ele>
        <time>2019-01-18T10:31:08.000Z</time>
      </trkpt>
      <trkpt lat="43.33569" lon="5.68515">
        <ele>506</ele>
        <time>2019-01-18T10:31:09.000Z</time>
      </trkpt>
      <trkpt lat="43.33569" lon="5.68515">
        <ele>506</ele>
        <time>2019-01-18T10:31:10.000Z</time>
      </trkpt>
      <trkpt lat="43.33569" lon="5.68515">
        <ele>506</ele>
        <time>2019-01-18T10:31:11.000Z</time>
      </trkpt>
      <trkpt lat="43.33569" lon="5.68515">
        <ele>506</ele>
        <time>2019-01-18T10:31:12.000Z</time>
      </trkpt>
      <trkpt lat="43.33569" lon="5.68515">
        <ele>506</ele>
        <time>2019-01-18T10:31:13.000Z</time>
      </trkpt>
      <trkpt lat="43.33569" lon="5.68515">
        <ele>506</ele>
        <time>2019-01-18T10:31:14.000Z</time>
      </trkpt>
      <trkpt lat="43.33569" lon="5.68515">
        <ele>506</ele>
        <time>2019-01-18T10:31:15.000Z</time>
      </trkpt>
      <trkpt lat="43.33569" lon="5.68515">
        <ele>506</ele>
        <time>2019-01-18T10:31:16.000Z</time>
      </trkpt>
      <trkpt lat="43.33569" lon="5.68515">
        <ele>506</ele>
        <time>2019-01-18T10:31:17.000Z</time>
      </trkpt>
      <trkpt lat="43.33569" lon="5.68516">
        <ele>506</ele>
        <time>2019-01-18T10:31:18.000Z</time>
      </trkpt>
      <trkpt lat="43.33569" lon="5.68516">
        <ele>506</ele>
        <time>2019-01-18T10:31:19.000Z</time>
      </trkpt>
      <trkpt lat="43.33569" lon="5.68516">
        <ele>506</ele>
        <time>2019-01-18T10:31:20.000Z</time>
      </trkpt>
      <trkpt lat="43.33569" lon="5.68516">
        <ele>506</ele>
        <time>2019-01-18T10:31:21.000Z</time>
      </trkpt>
      <trkpt lat="43.33569" lon="5.68516">
        <ele>506</ele>
        <time>2019-01-18T10:31:22.000Z</time>
      </trkpt>
      <trkpt lat="43.33569" lon="5.68516">
        <ele>506</ele>
        <time>2019-01-18T10:31:23.000Z</time>
      </trkpt>
      <trkpt lat="43.33569" lon="5.68516">
        <ele>506</ele>
        <time>2019-01-18T10:31:24.000Z</time>
      </trkpt>
      <trkpt lat="43.33569" lon="5.68516">
        <ele>506</ele>
        <time>2019-01-18T10:31:25.000Z</time>
      </trkpt>
      <trkpt lat="43.33569" lon="5.68516">
        <ele>506</ele>
        <time>2019-01-18T10:31:26.000Z</time>
      </trkpt>
      <trkpt lat="43.33569" lon="5.68516">
        <ele>506</ele>
        <time>2019-01-18T10:31:27.000Z</time>
      </trkpt>
      <trkpt lat="43.33569" lon="5.68516">
        <ele>506</ele>
        <time>2019-01-18T10:31:28.000Z</time>
      </trkpt>
      <trkpt lat="43.33569" lon="5.68516">
        <ele>507</ele>
        <time>2019-01-18T10:31:29.000Z</time>
      </trkpt>
      <trkpt lat="43.33569" lon="5.68517">
        <ele>507</ele>
        <time>2019-01-18T10:31:30.000Z</time>
      </trkpt>
      <trkpt lat="43.33569" lon="5.68517">
        <ele>507</ele>
        <time>2019-01-18T10:31:31.000Z</time>
      </trkpt>
      <trkpt lat="43.33569" lon="5.68517">
        <ele>507</ele>
        <time>2019-01-18T10:31:32.000Z</time>
      </trkpt>
      <trkpt lat="43.33569" lon="5.68517">
        <ele>507</ele>
        <time>2019-01-18T10:31:33.000Z</time>
      </trkpt>
      <trkpt lat="43.33569" lon="5.68517">
        <ele>507</ele>
        <time>2019-01-18T10:31:34.000Z</time>
      </trkpt>
      <trkpt lat="43.33569" lon="5.68517">
        <ele>507</ele>
        <time>2019-01-18T10:31:35.000Z</time>
      </trkpt>
      <trkpt lat="43.33568" lon="5.68517">
        <ele>507</ele>
        <time>2019-01-18T10:31:36.000Z</time>
      </trkpt>
      <trkpt lat="43.33568" lon="5.68517">
        <ele>507</ele>
        <time>2019-01-18T10:31:37.000Z</time>
      </trkpt>
      <trkpt lat="43.33568" lon="5.68517">
        <ele>507</ele>
        <time>2019-01-18T10:31:38.000Z</time>
      </trkpt>
      <trkpt lat="43.33568" lon="5.68517">
        <ele>507</ele>
        <time>2019-01-18T10:31:39.000Z</time>
      </trkpt>
      <trkpt lat="43.33568" lon="5.68517">
        <ele>507</ele>
        <time>2019-01-18T10:31:40.000Z</time>
      </trkpt>
      <trkpt lat="43.33568" lon="5.68517">
        <ele>507</ele>
        <time>2019-01-18T10:31:41.000Z</time>
      </trkpt>
      <trkpt lat="43.33568" lon="5.68517">
        <ele>507</ele>
        <time>2019-01-18T10:31:42.000Z</time>
      </trkpt>
      <trkpt lat="43.33568" lon="5.68517">
        <ele>507</ele>
        <time>2019-01-18T10:31:43.000Z</time>
      </trkpt>
      <trkpt lat="43.33568" lon="5.68517">
        <ele>507</ele>
        <time>2019-01-18T10:31:44.000Z</time>
      </trkpt>
      <trkpt lat="43.33568" lon="5.68517">
        <ele>507</ele>
        <time>2019-01-18T10:31:45.000Z</time>
      </trkpt>
      <trkpt lat="43.33568" lon="5.68517">
        <ele>507</ele>
        <time>2019-01-18T10:31:46.000Z</time>
      </trkpt>
      <trkpt lat="43.33568" lon="5.68517">
        <ele>507</ele>
        <time>2019-01-18T10:31:47.000Z</time>
      </trkpt>
      <trkpt lat="43.33568" lon="5.68517">
        <ele>507</ele>
        <time>2019-01-18T10:31:48.000Z</time>
      </trkpt>
      <trkpt lat="43.33568" lon="5.68517">
        <ele>507</ele>
        <time>2019-01-18T10:31:49.000Z</time>
      </trkpt>
      <trkpt lat="43.33568" lon="5.68517">
        <ele>507</ele>
        <time>2019-01-18T10:31:50.000Z</time>
      </trkpt>
      <trkpt lat="43.33568" lon="5.68517">
        <ele>507</ele>
        <time>2019-01-18T10:31:51.000Z</time>
      </trkpt>
      <trkpt lat="43.33568" lon="5.68517">
        <ele>507</ele>
        <time>2019-01-18T10:31:52.000Z</time>
      </trkpt>
      <trkpt lat="43.33568" lon="5.68517">
        <ele>507</ele>
        <time>2019-01-18T10:31:53.000Z</time>
      </trkpt>
      <trkpt lat="43.33568" lon="5.68517">
        <ele>507</ele>
        <time>2019-01-18T10:31:54.000Z</time>
      </trkpt>
      <trkpt lat="43.33568" lon="5.68517">
        <ele>507</ele>
        <time>2019-01-18T10:31:55.000Z</time>
      </trkpt>
      <trkpt lat="43.33568" lon="5.68517">
        <ele>507</ele>
        <time>2019-01-18T10:31:56.000Z</time>
      </trkpt>
      <trkpt lat="43.33568" lon="5.68517">
        <ele>507</ele>
        <time>2019-01-18T10:31:57.000Z</time>
      </trkpt>
      <trkpt lat="43.33568" lon="5.68517">
        <ele>507</ele>
        <time>2019-01-18T10:31:58.000Z</time>
      </trkpt>
      <trkpt lat="43.33568" lon="5.68517">
        <ele>507</ele>
        <time>2019-01-18T10:31:59.000Z</time>
      </trkpt>
      <trkpt lat="43.33568" lon="5.68517">
        <ele>507</ele>
        <time>2019-01-18T10:32:00.000Z</time>
      </trkpt>
      <trkpt lat="43.33568" lon="5.68517">
        <ele>507</ele>
        <time>2019-01-18T10:32:01.000Z</time>
      </trkpt>
      <trkpt lat="43.33568" lon="5.68517">
        <ele>507</ele>
        <time>2019-01-18T10:32:02.000Z</time>
      </trkpt>
      <trkpt lat="43.33568" lon="5.68517">
        <ele>507</ele>
        <time>2019-01-18T10:32:03.000Z</time>
      </trkpt>
      <trkpt lat="43.33568" lon="5.68517">
        <ele>507</ele>
        <time>2019-01-18T10:32:04.000Z</time>
      </trkpt>
      <trkpt lat="43.33568" lon="5.68517">
        <ele>507</ele>
        <time>2019-01-18T10:32:05.000Z</time>
      </trkpt>
      <trkpt lat="43.33568" lon="5.68517">
        <ele>507</ele>
        <time>2019-01-18T10:32:06.000Z</time>
      </trkpt>
      <trkpt lat="43.33568" lon="5.68517">
        <ele>507</ele>
        <time>2019-01-18T10:32:07.000Z</time>
      </trkpt>
      <trkpt lat="43.33568" lon="5.68517">
        <ele>507</ele>
        <time>2019-01-18T10:32:08.000Z</time>
      </trkpt>
      <trkpt lat="43.33568" lon="5.68517">
        <ele>507</ele>
        <time>2019-01-18T10:32:09.000Z</time>
      </trkpt>
      <trkpt lat="43.33568" lon="5.68517">
        <ele>507</ele>
        <time>2019-01-18T10:32:10.000Z</time>
      </trkpt>
      <trkpt lat="43.33568" lon="5.68517">
        <ele>507</ele>
        <time>2019-01-18T10:32:11.000Z</time>
      </trkpt>
      <trkpt lat="43.33568" lon="5.68517">
        <ele>507</ele>
        <time>2019-01-18T10:32:12.000Z</time>
      </trkpt>
      <trkpt lat="43.33568" lon="5.68517">
        <ele>507</ele>
        <time>2019-01-18T10:32:13.000Z</time>
      </trkpt>
      <trkpt lat="43.33568" lon="5.68517">
        <ele>507</ele>
        <time>2019-01-18T10:32:14.000Z</time>
      </trkpt>
      <trkpt lat="43.33568" lon="5.68517">
        <ele>507</ele>
        <time>2019-01-18T10:32:15.000Z</time>
      </trkpt>
      <trkpt lat="43.33568" lon="5.68517">
        <ele>507</ele>
        <time>2019-01-18T10:32:16.000Z</time>
      </trkpt>
      <trkpt lat="43.33568" lon="5.68517">
        <ele>507</ele>
        <time>2019-01-18T10:32:17.000Z</time>
      </trkpt>
      <trkpt lat="43.33568" lon="5.68517">
        <ele>507</ele>
        <time>2019-01-18T10:32:18.000Z</time>
      </trkpt>
      <trkpt lat="43.33568" lon="5.68517">
        <ele>507</ele>
        <time>2019-01-18T10:32:19.000Z</time>
      </trkpt>
      <trkpt lat="43.33568" lon="5.68517">
        <ele>507</ele>
        <time>2019-01-18T10:32:20.000Z</time>
      </trkpt>
      <trkpt lat="43.33568" lon="5.68517">
        <ele>507</ele>
        <time>2019-01-18T10:32:21.000Z</time>
      </trkpt>
      <trkpt lat="43.33568" lon="5.68517">
        <ele>507</ele>
        <time>2019-01-18T10:32:22.000Z</time>
      </trkpt>
      <trkpt lat="43.33568" lon="5.68517">
        <ele>507</ele>
        <time>2019-01-18T10:32:23.000Z</time>
      </trkpt>
      <trkpt lat="43.33568" lon="5.68517">
        <ele>507</ele>
        <time>2019-01-18T10:32:24.000Z</time>
      </trkpt>
      <trkpt lat="43.33568" lon="5.68517">
        <ele>507</ele>
        <time>2019-01-18T10:32:25.000Z</time>
      </trkpt>
      <trkpt lat="43.33568" lon="5.68517">
        <ele>507</ele>
        <time>2019-01-18T10:32:26.000Z</time>
      </trkpt>
      <trkpt lat="43.33568" lon="5.68517">
        <ele>507</ele>
        <time>2019-01-18T10:32:27.000Z</time>
      </trkpt>
      <trkpt lat="43.33568" lon="5.68517">
        <ele>507</ele>
        <time>2019-01-18T10:32:28.000Z</time>
      </trkpt>
      <trkpt lat="43.33568" lon="5.68517">
        <ele>507</ele>
        <time>2019-01-18T10:32:29.000Z</time>
      </trkpt>
      <trkpt lat="43.33568" lon="5.68517">
        <ele>507</ele>
        <time>2019-01-18T10:32:30.000Z</time>
      </trkpt>
      <trkpt lat="43.33568" lon="5.68517">
        <ele>507</ele>
        <time>2019-01-18T10:32:31.000Z</time>
      </trkpt>
      <trkpt lat="43.33568" lon="5.68517">
        <ele>507</ele>
        <time>2019-01-18T10:32:32.000Z</time>
      </trkpt>
      <trkpt lat="43.33568" lon="5.68517">
        <ele>507</ele>
        <time>2019-01-18T10:32:33.000Z</time>
      </trkpt>
      <trkpt lat="43.33568" lon="5.68517">
        <ele>507</ele>
        <time>2019-01-18T10:32:34.000Z</time>
      </trkpt>
      <trkpt lat="43.33568" lon="5.68517">
        <ele>507</ele>
        <time>2019-01-18T10:32:35.000Z</time>
      </trkpt>
      <trkpt lat="43.33567" lon="5.68517">
        <ele>507</ele>
        <time>2019-01-18T10:32:36.000Z</time>
      </trkpt>
      <trkpt lat="43.33567" lon="5.68517">
        <ele>507</ele>
        <time>2019-01-18T10:32:37.000Z</time>
      </trkpt>
      <trkpt lat="43.33567" lon="5.68517">
        <ele>507</ele>
        <time>2019-01-18T10:32:38.000Z</time>
      </trkpt>
      <trkpt lat="43.33567" lon="5.68517">
        <ele>507</ele>
        <time>2019-01-18T10:32:39.000Z</time>
      </trkpt>
      <trkpt lat="43.33567" lon="5.68517">
        <ele>507</ele>
        <time>2019-01-18T10:32:40.000Z</time>
      </trkpt>
      <trkpt lat="43.33567" lon="5.68517">
        <ele>507</ele>
        <time>2019-01-18T10:32:41.000Z</time>
      </trkpt>
      <trkpt lat="43.33567" lon="5.68517">
        <ele>507</ele>
        <time>2019-01-18T10:32:42.000Z</time>
      </trkpt>
      <trkpt lat="43.33567" lon="5.68517">
        <ele>507</ele>
        <time>2019-01-18T10:32:43.000Z</time>
      </trkpt>
      <trkpt lat="43.33567" lon="5.68517">
        <ele>507</ele>
        <time>2019-01-18T10:32:44.000Z</time>
      </trkpt>
      <trkpt lat="43.33567" lon="5.68517">
        <ele>507</ele>
        <time>2019-01-18T10:32:45.000Z</time>
      </trkpt>
      <trkpt lat="43.33567" lon="5.68517">
        <ele>507</ele>
        <time>2019-01-18T10:32:46.000Z</time>
      </trkpt>
      <trkpt lat="43.33567" lon="5.68517">
        <ele>507</ele>
        <time>2019-01-18T10:32:47.000Z</time>
      </trkpt>
      <trkpt lat="43.33568" lon="5.68517">
        <ele>507</ele>
        <time>2019-01-18T10:32:48.000Z</time>
      </trkpt>
      <trkpt lat="43.33568" lon="5.68517">
        <ele>507</ele>
        <time>2019-01-18T10:32:49.000Z</time>
      </trkpt>
      <trkpt lat="43.33568" lon="5.68517">
        <ele>507</ele>
        <time>2019-01-18T10:32:50.000Z</time>
      </trkpt>
      <trkpt lat="43.33568" lon="5.68517">
        <ele>507</ele>
        <time>2019-01-18T10:32:51.000Z</time>
      </trkpt>
      <trkpt lat="43.33568" lon="5.68517">
        <ele>507</ele>
        <time>2019-01-18T10:32:52.000Z</time>
      </trkpt>
      <trkpt lat="43.33568" lon="5.68517">
        <ele>507</ele>
        <time>2019-01-18T10:32:53.000Z</time>
      </trkpt>
      <trkpt lat="43.33568" lon="5.68517">
        <ele>507</ele>
        <time>2019-01-18T10:32:54.000Z</time>
      </trkpt>
      <trkpt lat="43.33568" lon="5.68517">
        <ele>507</ele>
        <time>2019-01-18T10:32:55.000Z</time>
      </trkpt>
      <trkpt lat="43.33568" lon="5.68518">
        <ele>507</ele>
        <time>2019-01-18T10:32:56.000Z</time>
      </trkpt>
      <trkpt lat="43.33568" lon="5.68518">
        <ele>507</ele>
        <time>2019-01-18T10:32:57.000Z</time>
      </trkpt>
      <trkpt lat="43.33568" lon="5.68518">
        <ele>507</ele>
        <time>2019-01-18T10:32:58.000Z</time>
      </trkpt>
      <trkpt lat="43.33568" lon="5.68518">
        <ele>507</ele>
        <time>2019-01-18T10:32:59.000Z</time>
      </trkpt>
      <trkpt lat="43.33568" lon="5.68518">
        <ele>507</ele>
        <time>2019-01-18T10:33:00.000Z</time>
      </trkpt>
      <trkpt lat="43.33568" lon="5.68518">
        <ele>507</ele>
        <time>2019-01-18T10:33:01.000Z</time>
      </trkpt>
      <trkpt lat="43.33568" lon="5.68518">
        <ele>507</ele>
        <time>2019-01-18T10:33:02.000Z</time>
      </trkpt>
      <trkpt lat="43.33568" lon="5.68518">
        <ele>507</ele>
        <time>2019-01-18T10:33:03.000Z</time>
      </trkpt>
      <trkpt lat="43.33568" lon="5.68518">
        <ele>507</ele>
        <time>2019-01-18T10:33:04.000Z</time>
      </trkpt>
      <trkpt lat="43.33568" lon="5.68518">
        <ele>507</ele>
        <time>2019-01-18T10:33:05.000Z</time>
      </trkpt>
      <trkpt lat="43.33568" lon="5.68518">
        <ele>507</ele>
        <time>2019-01-18T10:33:06.000Z</time>
      </trkpt>
      <trkpt lat="43.33568" lon="5.68518">
        <ele>507</ele>
        <time>2019-01-18T10:33:07.000Z</time>
      </trkpt>
      <trkpt lat="43.33568" lon="5.68518">
        <ele>507</ele>
        <time>2019-01-18T10:33:08.000Z</time>
      </trkpt>
      <trkpt lat="43.33568" lon="5.68518">
        <ele>507</ele>
        <time>2019-01-18T10:33:09.000Z</time>
      </trkpt>
      <trkpt lat="43.33568" lon="5.68518">
        <ele>507</ele>
        <time>2019-01-18T10:33:10.000Z</time>
      </trkpt>
      <trkpt lat="43.33568" lon="5.68518">
        <ele>507</ele>
        <time>2019-01-18T10:33:11.000Z</time>
      </trkpt>
      <trkpt lat="43.33568" lon="5.68518">
        <ele>507</ele>
        <time>2019-01-18T10:33:12.000Z</time>
      </trkpt>
      <trkpt lat="43.33568" lon="5.68518">
        <ele>507</ele>
        <time>2019-01-18T10:33:13.000Z</time>
      </trkpt>
      <trkpt lat="43.33568" lon="5.68518">
        <ele>507</ele>
        <time>2019-01-18T10:33:14.000Z</time>
      </trkpt>
      <trkpt lat="43.33568" lon="5.68518">
        <ele>507</ele>
        <time>2019-01-18T10:33:15.000Z</time>
      </trkpt>
      <trkpt lat="43.33568" lon="5.68518">
        <ele>507</ele>
        <time>2019-01-18T10:33:16.000Z</time>
      </trkpt>
      <trkpt lat="43.33568" lon="5.68518">
        <ele>507</ele>
        <time>2019-01-18T10:33:17.000Z</time>
      </trkpt>
      <trkpt lat="43.33568" lon="5.68518">
        <ele>507</ele>
        <time>2019-01-18T10:33:18.000Z</time>
      </trkpt>
      <trkpt lat="43.33568" lon="5.68518">
        <ele>507</ele>
        <time>2019-01-18T10:33:19.000Z</time>
      </trkpt>
      <trkpt lat="43.33568" lon="5.68519">
        <ele>507</ele>
        <time>2019-01-18T10:33:20.000Z</time>
      </trkpt>
      <trkpt lat="43.33568" lon="5.68519">
        <ele>507</ele>
        <time>2019-01-18T10:33:21.000Z</time>
      </trkpt>
      <trkpt lat="43.33568" lon="5.68519">
        <ele>507</ele>
        <time>2019-01-18T10:33:22.000Z</time>
      </trkpt>
      <trkpt lat="43.33568" lon="5.68519">
        <ele>507</ele>
        <time>2019-01-18T10:33:23.000Z</time>
      </trkpt>
      <trkpt lat="43.33568" lon="5.68519">
        <ele>507</ele>
        <time>2019-01-18T10:33:24.000Z</time>
      </trkpt>
      <trkpt lat="43.33568" lon="5.68519">
        <ele>507</ele>
        <time>2019-01-18T10:33:25.000Z</time>
      </trkpt>
      <trkpt lat="43.33568" lon="5.68519">
        <ele>507</ele>
        <time>2019-01-18T10:33:26.000Z</time>
      </trkpt>
      <trkpt lat="43.33568" lon="5.68519">
        <ele>507</ele>
        <time>2019-01-18T10:33:27.000Z</time>
      </trkpt>
      <trkpt lat="43.33568" lon="5.68519">
        <ele>507</ele>
        <time>2019-01-18T10:33:28.000Z</time>
      </trkpt>
      <trkpt lat="43.33568" lon="5.68519">
        <ele>507</ele>
        <time>2019-01-18T10:33:29.000Z</time>
      </trkpt>
      <trkpt lat="43.33568" lon="5.68519">
        <ele>507</ele>
        <time>2019-01-18T10:33:30.000Z</time>
      </trkpt>
      <trkpt lat="43.33568" lon="5.68519">
        <ele>507</ele>
        <time>2019-01-18T10:33:31.000Z</time>
      </trkpt>
      <trkpt lat="43.33568" lon="5.68519">
        <ele>507</ele>
        <time>2019-01-18T10:33:32.000Z</time>
      </trkpt>
      <trkpt lat="43.33568" lon="5.68519">
        <ele>507</ele>
        <time>2019-01-18T10:33:33.000Z</time>
      </trkpt>
      <trkpt lat="43.33568" lon="5.68519">
        <ele>507</ele>
        <time>2019-01-18T10:33:34.000Z</time>
      </trkpt>
      <trkpt lat="43.33568" lon="5.68518">
        <ele>507</ele>
        <time>2019-01-18T10:33:35.000Z</time>
      </trkpt>
      <trkpt lat="43.33568" lon="5.68518">
        <ele>507</ele>
        <time>2019-01-18T10:33:36.000Z</time>
      </trkpt>
      <trkpt lat="43.33568" lon="5.68518">
        <ele>507</ele>
        <time>2019-01-18T10:33:37.000Z</time>
      </trkpt>
      <trkpt lat="43.33568" lon="5.68518">
        <ele>507</ele>
        <time>2019-01-18T10:33:38.000Z</time>
      </trkpt>
      <trkpt lat="43.33568" lon="5.68518">
        <ele>507</ele>
        <time>2019-01-18T10:33:39.000Z</time>
      </trkpt>
      <trkpt lat="43.33568" lon="5.68518">
        <ele>507</ele>
        <time>2019-01-18T10:33:40.000Z</time>
      </trkpt>
      <trkpt lat="43.33568" lon="5.68518">
        <ele>507</ele>
        <time>2019-01-18T10:33:41.000Z</time>
      </trkpt>
      <trkpt lat="43.33568" lon="5.68518">
        <ele>507</ele>
        <time>2019-01-18T10:33:42.000Z</time>
      </trkpt>
      <trkpt lat="43.33568" lon="5.68518">
        <ele>507</ele>
        <time>2019-01-18T10:33:43.000Z</time>
      </trkpt>
      <trkpt lat="43.33569" lon="5.68518">
        <ele>507</ele>
        <time>2019-01-18T10:33:44.000Z</time>
      </trkpt>
      <trkpt lat="43.33569" lon="5.68518">
        <ele>507</ele>
        <time>2019-01-18T10:33:45.000Z</time>
      </trkpt>
      <trkpt lat="43.33569" lon="5.68518">
        <ele>507</ele>
        <time>2019-01-18T10:33:46.000Z</time>
      </trkpt>
      <trkpt lat="43.33569" lon="5.68518">
        <ele>507</ele>
        <time>2019-01-18T10:33:47.000Z</time>
      </trkpt>
      <trkpt lat="43.33569" lon="5.68518">
        <ele>507</ele>
        <time>2019-01-18T10:33:48.000Z</time>
      </trkpt>
      <trkpt lat="43.33569" lon="5.68518">
        <ele>507</ele>
        <time>2019-01-18T10:33:49.000Z</time>
      </trkpt>
      <trkpt lat="43.33569" lon="5.68517">
        <ele>507</ele>
        <time>2019-01-18T10:33:50.000Z</time>
      </trkpt>
      <trkpt lat="43.33569" lon="5.68517">
        <ele>507</ele>
        <time>2019-01-18T10:33:51.000Z</time>
      </trkpt>
      <trkpt lat="43.3357" lon="5.68517">
        <ele>507</ele>
        <time>2019-01-18T10:33:52.000Z</time>
      </trkpt>
      <trkpt lat="43.3357" lon="5.68517">
        <ele>507</ele>
        <time>2019-01-18T10:33:53.000Z</time>
      </trkpt>
      <trkpt lat="43.3357" lon="5.68517">
        <ele>507</ele>
        <time>2019-01-18T10:33:54.000Z</time>
      </trkpt>
      <trkpt lat="43.3357" lon="5.68517">
        <ele>507</ele>
        <time>2019-01-18T10:33:55.000Z</time>
      </trkpt>
      <trkpt lat="43.3357" lon="5.68517">
        <ele>507</ele>
        <time>2019-01-18T10:33:56.000Z</time>
      </trkpt>
      <trkpt lat="43.3357" lon="5.68516">
        <ele>507</ele>
        <time>2019-01-18T10:33:57.000Z</time>
      </trkpt>
      <trkpt lat="43.3357" lon="5.68516">
        <ele>507</ele>
        <time>2019-01-18T10:33:58.000Z</time>
      </trkpt>
      <trkpt lat="43.3357" lon="5.68516">
        <ele>507</ele>
        <time>2019-01-18T10:33:59.000Z</time>
      </trkpt>
      <trkpt lat="43.3357" lon="5.68517">
        <ele>507</ele>
        <time>2019-01-18T10:34:00.000Z</time>
      </trkpt>
      <trkpt lat="43.3357" lon="5.68517">
        <ele>507</ele>
        <time>2019-01-18T10:34:01.000Z</time>
      </trkpt>
      <trkpt lat="43.3357" lon="5.68517">
        <ele>507</ele>
        <time>2019-01-18T10:34:02.000Z</time>
      </trkpt>
      <trkpt lat="43.3357" lon="5.68517">
        <ele>507</ele>
        <time>2019-01-18T10:34:03.000Z</time>
      </trkpt>
      <trkpt lat="43.33571" lon="5.68516">
        <ele>507</ele>
        <time>2019-01-18T10:34:04.000Z</time>
      </trkpt>
      <trkpt lat="43.33571" lon="5.68516">
        <ele>507</ele>
        <time>2019-01-18T10:34:05.000Z</time>
      </trkpt>
      <trkpt lat="43.33571" lon="5.68516">
        <ele>507</ele>
        <time>2019-01-18T10:34:06.000Z</time>
      </trkpt>
      <trkpt lat="43.33572" lon="5.68516">
        <ele>507</ele>
        <time>2019-01-18T10:34:07.000Z</time>
      </trkpt>
      <trkpt lat="43.33572" lon="5.68515">
        <ele>507</ele>
        <time>2019-01-18T10:34:08.000Z</time>
      </trkpt>
      <trkpt lat="43.33572" lon="5.68514">
        <ele>507</ele>
        <time>2019-01-18T10:34:09.000Z</time>
      </trkpt>
      <trkpt lat="43.33572" lon="5.68513">
        <ele>507</ele>
        <time>2019-01-18T10:34:10.000Z</time>
      </trkpt>
      <trkpt lat="43.33572" lon="5.68512">
        <ele>507</ele>
        <time>2019-01-18T10:34:11.000Z</time>
      </trkpt>
      <trkpt lat="43.33572" lon="5.68512">
        <ele>507</ele>
        <time>2019-01-18T10:34:12.000Z</time>
      </trkpt>
      <trkpt lat="43.33572" lon="5.68511">
        <ele>507</ele>
        <time>2019-01-18T10:34:13.000Z</time>
      </trkpt>
      <trkpt lat="43.33572" lon="5.68511">
        <ele>507</ele>
        <time>2019-01-18T10:34:14.000Z</time>
      </trkpt>
      <trkpt lat="43.33572" lon="5.6851">
        <ele>507</ele>
        <time>2019-01-18T10:34:15.000Z</time>
      </trkpt>
      <trkpt lat="43.33572" lon="5.6851">
        <ele>507</ele>
        <time>2019-01-18T10:34:16.000Z</time>
      </trkpt>
      <trkpt lat="43.33572" lon="5.6851">
        <ele>507</ele>
        <time>2019-01-18T10:34:17.000Z</time>
      </trkpt>
      <trkpt lat="43.33572" lon="5.6851">
        <ele>507</ele>
        <time>2019-01-18T10:34:18.000Z</time>
      </trkpt>
      <trkpt lat="43.33573" lon="5.68509">
        <ele>507</ele>
        <time>2019-01-18T10:34:19.000Z</time>
      </trkpt>
      <trkpt lat="43.33573" lon="5.68509">
        <ele>507</ele>
        <time>2019-01-18T10:34:20.000Z</time>
      </trkpt>
      <trkpt lat="43.33573" lon="5.6851">
        <ele>507</ele>
        <time>2019-01-18T10:34:21.000Z</time>
      </trkpt>
      <trkpt lat="43.33573" lon="5.6851">
        <ele>507</ele>
        <time>2019-01-18T10:34:22.000Z</time>
      </trkpt>
      <trkpt lat="43.33573" lon="5.6851">
        <ele>507</ele>
        <time>2019-01-18T10:34:23.000Z</time>
      </trkpt>
      <trkpt lat="43.33574" lon="5.6851">
        <ele>507</ele>
        <time>2019-01-18T10:34:24.000Z</time>
      </trkpt>
      <trkpt lat="43.33574" lon="5.6851">
        <ele>507</ele>
        <time>2019-01-18T10:34:25.000Z</time>
      </trkpt>
      <trkpt lat="43.33574" lon="5.6851">
        <ele>507</ele>
        <time>2019-01-18T10:34:26.000Z</time>
      </trkpt>
      <trkpt lat="43.33574" lon="5.6851">
        <ele>507</ele>
        <time>2019-01-18T10:34:27.000Z</time>
      </trkpt>
      <trkpt lat="43.33574" lon="5.6851">
        <ele>507</ele>
        <time>2019-01-18T10:34:28.000Z</time>
      </trkpt>
      <trkpt lat="43.33574" lon="5.6851">
        <ele>507</ele>
        <time>2019-01-18T10:34:29.000Z</time>
      </trkpt>
      <trkpt lat="43.33574" lon="5.6851">
        <ele>507</ele>
        <time>2019-01-18T10:34:30.000Z</time>
      </trkpt>
      <trkpt lat="43.33575" lon="5.6851">
        <ele>507</ele>
        <time>2019-01-18T10:34:31.000Z</time>
      </trkpt>
      <trkpt lat="43.33575" lon="5.6851">
        <ele>507</ele>
        <time>2019-01-18T10:34:32.000Z</time>
      </trkpt>
      <trkpt lat="43.33575" lon="5.6851">
        <ele>507</ele>
        <time>2019-01-18T10:34:33.000Z</time>
      </trkpt>
      <trkpt lat="43.33575" lon="5.6851">
        <ele>508</ele>
        <time>2019-01-18T10:34:34.000Z</time>
      </trkpt>
      <trkpt lat="43.33575" lon="5.68509">
        <ele>508</ele>
        <time>2019-01-18T10:34:35.000Z</time>
      </trkpt>
      <trkpt lat="43.33575" lon="5.68509">
        <ele>508</ele>
        <time>2019-01-18T10:34:36.000Z</time>
      </trkpt>
      <trkpt lat="43.33575" lon="5.68509">
        <ele>508</ele>
        <time>2019-01-18T10:34:37.000Z</time>
      </trkpt>
      <trkpt lat="43.33575" lon="5.68509">
        <ele>508</ele>
        <time>2019-01-18T10:34:38.000Z</time>
      </trkpt>
      <trkpt lat="43.33575" lon="5.68509">
        <ele>508</ele>
        <time>2019-01-18T10:34:39.000Z</time>
      </trkpt>
      <trkpt lat="43.33576" lon="5.68509">
        <ele>508</ele>
        <time>2019-01-18T10:34:40.000Z</time>
      </trkpt>
      <trkpt lat="43.33576" lon="5.68508">
        <ele>508</ele>
        <time>2019-01-18T10:34:41.000Z</time>
      </trkpt>
      <trkpt lat="43.33576" lon="5.68508">
        <ele>508</ele>
        <time>2019-01-18T10:34:42.000Z</time>
      </trkpt>
      <trkpt lat="43.33576" lon="5.68508">
        <ele>508</ele>
        <time>2019-01-18T10:34:43.000Z</time>
      </trkpt>
      <trkpt lat="43.33576" lon="5.68508">
        <ele>508</ele>
        <time>2019-01-18T10:34:44.000Z</time>
      </trkpt>
      <trkpt lat="43.33576" lon="5.68507">
        <ele>508</ele>
        <time>2019-01-18T10:34:45.000Z</time>
      </trkpt>
      <trkpt lat="43.33576" lon="5.68507">
        <ele>509</ele>
        <time>2019-01-18T10:34:46.000Z</time>
      </trkpt>
      <trkpt lat="43.33576" lon="5.68507">
        <ele>509</ele>
        <time>2019-01-18T10:34:47.000Z</time>
      </trkpt>
      <trkpt lat="43.33576" lon="5.68506">
        <ele>509</ele>
        <time>2019-01-18T10:34:48.000Z</time>
      </trkpt>
      <trkpt lat="43.33576" lon="5.68506">
        <ele>509</ele>
        <time>2019-01-18T10:34:49.000Z</time>
      </trkpt>
      <trkpt lat="43.33577" lon="5.68505">
        <ele>509</ele>
        <time>2019-01-18T10:34:50.000Z</time>
      </trkpt>
      <trkpt lat="43.33577" lon="5.68505">
        <ele>509</ele>
        <time>2019-01-18T10:34:51.000Z</time>
      </trkpt>
      <trkpt lat="43.33577" lon="5.68505">
        <ele>509</ele>
        <time>2019-01-18T10:34:52.000Z</time>
      </trkpt>
      <trkpt lat="43.33577" lon="5.68504">
        <ele>510</ele>
        <time>2019-01-18T10:34:53.000Z</time>
      </trkpt>
      <trkpt lat="43.33577" lon="5.68504">
        <ele>510</ele>
        <time>2019-01-18T10:34:54.000Z</time>
      </trkpt>
      <trkpt lat="43.33577" lon="5.68504">
        <ele>510</ele>
        <time>2019-01-18T10:34:55.000Z</time>
      </trkpt>
      <trkpt lat="43.33577" lon="5.68503">
        <ele>510</ele>
        <time>2019-01-18T10:34:56.000Z</time>
      </trkpt>
      <trkpt lat="43.33578" lon="5.68502">
        <ele>510</ele>
        <time>2019-01-18T10:34:57.000Z</time>
      </trkpt>
      <trkpt lat="43.33578" lon="5.68501">
        <ele>510</ele>
        <time>2019-01-18T10:34:58.000Z</time>
      </trkpt>
      <trkpt lat="43.33579" lon="5.68501">
        <ele>511</ele>
        <time>2019-01-18T10:34:59.000Z</time>
      </trkpt>
      <trkpt lat="43.33579" lon="5.68501">
        <ele>511</ele>
        <time>2019-01-18T10:35:00.000Z</time>
      </trkpt>
      <trkpt lat="43.33579" lon="5.685">
        <ele>511</ele>
        <time>2019-01-18T10:35:01.000Z</time>
      </trkpt>
      <trkpt lat="43.33579" lon="5.68499">
        <ele>511</ele>
        <time>2019-01-18T10:35:02.000Z</time>
      </trkpt>
      <trkpt lat="43.3358" lon="5.68499">
        <ele>511</ele>
        <time>2019-01-18T10:35:03.000Z</time>
      </trkpt>
      <trkpt lat="43.3358" lon="5.68499">
        <ele>512</ele>
        <time>2019-01-18T10:35:04.000Z</time>
      </trkpt>
      <trkpt lat="43.33581" lon="5.685">
        <ele>512</ele>
        <time>2019-01-18T10:35:05.000Z</time>
      </trkpt>
      <trkpt lat="43.33581" lon="5.685">
        <ele>512</ele>
        <time>2019-01-18T10:35:06.000Z</time>
      </trkpt>
      <trkpt lat="43.33581" lon="5.685">
        <ele>512</ele>
        <time>2019-01-18T10:35:07.000Z</time>
      </trkpt>
      <trkpt lat="43.33581" lon="5.68501">
        <ele>512</ele>
        <time>2019-01-18T10:35:08.000Z</time>
      </trkpt>
      <trkpt lat="43.33582" lon="5.68501">
        <ele>512</ele>
        <time>2019-01-18T10:35:09.000Z</time>
      </trkpt>
      <trkpt lat="43.33582" lon="5.68501">
        <ele>513</ele>
        <time>2019-01-18T10:35:10.000Z</time>
      </trkpt>
      <trkpt lat="43.33583" lon="5.68501">
        <ele>513</ele>
        <time>2019-01-18T10:35:11.000Z</time>
      </trkpt>
      <trkpt lat="43.33583" lon="5.68501">
        <ele>513</ele>
        <time>2019-01-18T10:35:12.000Z</time>
      </trkpt>
      <trkpt lat="43.33583" lon="5.685">
        <ele>513</ele>
        <time>2019-01-18T10:35:13.000Z</time>
      </trkpt>
      <trkpt lat="43.33583" lon="5.685">
        <ele>513</ele>
        <time>2019-01-18T10:35:14.000Z</time>
      </trkpt>
      <trkpt lat="43.33584" lon="5.685">
        <ele>513</ele>
        <time>2019-01-18T10:35:15.000Z</time>
      </trkpt>
      <trkpt lat="43.33584" lon="5.68501">
        <ele>514</ele>
        <time>2019-01-18T10:35:16.000Z</time>
      </trkpt>
      <trkpt lat="43.33585" lon="5.68501">
        <ele>514</ele>
        <time>2019-01-18T10:35:17.000Z</time>
      </trkpt>
      <trkpt lat="43.33585" lon="5.68501">
        <ele>514</ele>
        <time>2019-01-18T10:35:18.000Z</time>
      </trkpt>
      <trkpt lat="43.33585" lon="5.68501">
        <ele>514</ele>
        <time>2019-01-18T10:35:19.000Z</time>
      </trkpt>
      <trkpt lat="43.33586" lon="5.68501">
        <ele>514</ele>
        <time>2019-01-18T10:35:20.000Z</time>
      </trkpt>
      <trkpt lat="43.33586" lon="5.68501">
        <ele>514</ele>
        <time>2019-01-18T10:35:21.000Z</time>
      </trkpt>
      <trkpt lat="43.33586" lon="5.68501">
        <ele>514</ele>
        <time>2019-01-18T10:35:22.000Z</time>
      </trkpt>
      <trkpt lat="43.33586" lon="5.68501">
        <ele>514</ele>
        <time>2019-01-18T10:35:23.000Z</time>
      </trkpt>
      <trkpt lat="43.33586" lon="5.68501">
        <ele>514</ele>
        <time>2019-01-18T10:35:24.000Z</time>
      </trkpt>
      <trkpt lat="43.33586" lon="5.68502">
        <ele>515</ele>
        <time>2019-01-18T10:35:25.000Z</time>
      </trkpt>
      <trkpt lat="43.33587" lon="5.68502">
        <ele>515</ele>
        <time>2019-01-18T10:35:26.000Z</time>
      </trkpt>
      <trkpt lat="43.33587" lon="5.68503">
        <ele>515</ele>
        <time>2019-01-18T10:35:27.000Z</time>
      </trkpt>
      <trkpt lat="43.33587" lon="5.68503">
        <ele>515</ele>
        <time>2019-01-18T10:35:28.000Z</time>
      </trkpt>
      <trkpt lat="43.33587" lon="5.68504">
        <ele>515</ele>
        <time>2019-01-18T10:35:29.000Z</time>
      </trkpt>
      <trkpt lat="43.33588" lon="5.68504">
        <ele>516</ele>
        <time>2019-01-18T10:35:30.000Z</time>
      </trkpt>
      <trkpt lat="43.33588" lon="5.68504">
        <ele>516</ele>
        <time>2019-01-18T10:35:31.000Z</time>
      </trkpt>
      <trkpt lat="43.33588" lon="5.68505">
        <ele>516</ele>
        <time>2019-01-18T10:35:32.000Z</time>
      </trkpt>
      <trkpt lat="43.33588" lon="5.68505">
        <ele>516</ele>
        <time>2019-01-18T10:35:33.000Z</time>
      </trkpt>
      <trkpt lat="43.33588" lon="5.68505">
        <ele>516</ele>
        <time>2019-01-18T10:35:34.000Z</time>
      </trkpt>
      <trkpt lat="43.33589" lon="5.68506">
        <ele>517</ele>
        <time>2019-01-18T10:35:35.000Z</time>
      </trkpt>
      <trkpt lat="43.33588" lon="5.68506">
        <ele>517</ele>
        <time>2019-01-18T10:35:36.000Z</time>
      </trkpt>
      <trkpt lat="43.33589" lon="5.68506">
        <ele>517</ele>
        <time>2019-01-18T10:35:37.000Z</time>
      </trkpt>
      <trkpt lat="43.33589" lon="5.68506">
        <ele>517</ele>
        <time>2019-01-18T10:35:38.000Z</time>
      </trkpt>
      <trkpt lat="43.33589" lon="5.68506">
        <ele>517</ele>
        <time>2019-01-18T10:35:39.000Z</time>
      </trkpt>
      <trkpt lat="43.33589" lon="5.68505">
        <ele>517</ele>
        <time>2019-01-18T10:35:40.000Z</time>
      </trkpt>
      <trkpt lat="43.3359" lon="5.68505">
        <ele>517</ele>
        <time>2019-01-18T10:35:41.000Z</time>
      </trkpt>
      <trkpt lat="43.3359" lon="5.68505">
        <ele>517</ele>
        <time>2019-01-18T10:35:42.000Z</time>
      </trkpt>
      <trkpt lat="43.3359" lon="5.68505">
        <ele>517</ele>
        <time>2019-01-18T10:35:43.000Z</time>
      </trkpt>
      <trkpt lat="43.3359" lon="5.68504">
        <ele>518</ele>
        <time>2019-01-18T10:35:44.000Z</time>
      </trkpt>
      <trkpt lat="43.33591" lon="5.68504">
        <ele>518</ele>
        <time>2019-01-18T10:35:45.000Z</time>
      </trkpt>
      <trkpt lat="43.33591" lon="5.68504">
        <ele>518</ele>
        <time>2019-01-18T10:35:46.000Z</time>
      </trkpt>
      <trkpt lat="43.33591" lon="5.68503">
        <ele>518</ele>
        <time>2019-01-18T10:35:47.000Z</time>
      </trkpt>
      <trkpt lat="43.33592" lon="5.68502">
        <ele>518</ele>
        <time>2019-01-18T10:35:48.000Z</time>
      </trkpt>
      <trkpt lat="43.33592" lon="5.68502">
        <ele>518</ele>
        <time>2019-01-18T10:35:49.000Z</time>
      </trkpt>
      <trkpt lat="43.33593" lon="5.68502">
        <ele>518</ele>
        <time>2019-01-18T10:35:50.000Z</time>
      </trkpt>
      <trkpt lat="43.33593" lon="5.68502">
        <ele>518</ele>
        <time>2019-01-18T10:35:51.000Z</time>
      </trkpt>
      <trkpt lat="43.33593" lon="5.68502">
        <ele>518</ele>
        <time>2019-01-18T10:35:52.000Z</time>
      </trkpt>
      <trkpt lat="43.33593" lon="5.68502">
        <ele>518</ele>
        <time>2019-01-18T10:35:53.000Z</time>
      </trkpt>
      <trkpt lat="43.33593" lon="5.68502">
        <ele>519</ele>
        <time>2019-01-18T10:35:54.000Z</time>
      </trkpt>
      <trkpt lat="43.33594" lon="5.68502">
        <ele>519</ele>
        <time>2019-01-18T10:35:55.000Z</time>
      </trkpt>
      <trkpt lat="43.33594" lon="5.68501">
        <ele>519</ele>
        <time>2019-01-18T10:35:56.000Z</time>
      </trkpt>
      <trkpt lat="43.33594" lon="5.68501">
        <ele>519</ele>
        <time>2019-01-18T10:35:57.000Z</time>
      </trkpt>
      <trkpt lat="43.33594" lon="5.685">
        <ele>520</ele>
        <time>2019-01-18T10:35:58.000Z</time>
      </trkpt>
      <trkpt lat="43.33594" lon="5.685">
        <ele>520</ele>
        <time>2019-01-18T10:35:59.000Z</time>
      </trkpt>
      <trkpt lat="43.33595" lon="5.685">
        <ele>520</ele>
        <time>2019-01-18T10:36:00.000Z</time>
      </trkpt>
      <trkpt lat="43.33594" lon="5.685">
        <ele>520</ele>
        <time>2019-01-18T10:36:01.000Z</time>
      </trkpt>
      <trkpt lat="43.33594" lon="5.685">
        <ele>521</ele>
        <time>2019-01-18T10:36:02.000Z</time>
      </trkpt>
      <trkpt lat="43.33595" lon="5.68499">
        <ele>521</ele>
        <time>2019-01-18T10:36:03.000Z</time>
      </trkpt>
      <trkpt lat="43.33595" lon="5.68499">
        <ele>521</ele>
        <time>2019-01-18T10:36:04.000Z</time>
      </trkpt>
      <trkpt lat="43.33595" lon="5.68498">
        <ele>521</ele>
        <time>2019-01-18T10:36:05.000Z</time>
      </trkpt>
      <trkpt lat="43.33595" lon="5.68498">
        <ele>522</ele>
        <time>2019-01-18T10:36:06.000Z</time>
      </trkpt>
      <trkpt lat="43.33595" lon="5.68499">
        <ele>522</ele>
        <time>2019-01-18T10:36:07.000Z</time>
      </trkpt>
      <trkpt lat="43.33595" lon="5.68499">
        <ele>522</ele>
        <time>2019-01-18T10:36:08.000Z</time>
      </trkpt>
      <trkpt lat="43.33595" lon="5.68498">
        <ele>523</ele>
        <time>2019-01-18T10:36:09.000Z</time>
      </trkpt>
      <trkpt lat="43.33596" lon="5.68498">
        <ele>523</ele>
        <time>2019-01-18T10:36:10.000Z</time>
      </trkpt>
      <trkpt lat="43.33596" lon="5.68498">
        <ele>523</ele>
        <time>2019-01-18T10:36:11.000Z</time>
      </trkpt>
      <trkpt lat="43.33596" lon="5.68498">
        <ele>524</ele>
        <time>2019-01-18T10:36:12.000Z</time>
      </trkpt>
      <trkpt lat="43.33596" lon="5.68498">
        <ele>524</ele>
        <time>2019-01-18T10:36:13.000Z</time>
      </trkpt>
      <trkpt lat="43.33597" lon="5.68498">
        <ele>524</ele>
        <time>2019-01-18T10:36:14.000Z</time>
      </trkpt>
      <trkpt lat="43.33597" lon="5.68498">
        <ele>524</ele>
        <time>2019-01-18T10:36:15.000Z</time>
      </trkpt>
      <trkpt lat="43.33597" lon="5.68498">
        <ele>525</ele>
        <time>2019-01-18T10:36:16.000Z</time>
      </trkpt>
      <trkpt lat="43.33598" lon="5.68498">
        <ele>525</ele>
        <time>2019-01-18T10:36:17.000Z</time>
      </trkpt>
      <trkpt lat="43.33598" lon="5.68498">
        <ele>525</ele>
        <time>2019-01-18T10:36:18.000Z</time>
      </trkpt>
      <trkpt lat="43.33598" lon="5.68498">
        <ele>525</ele>
        <time>2019-01-18T10:36:19.000Z</time>
      </trkpt>
      <trkpt lat="43.33598" lon="5.68498">
        <ele>525</ele>
        <time>2019-01-18T10:36:20.000Z</time>
      </trkpt>
      <trkpt lat="43.33598" lon="5.68499">
        <ele>525</ele>
        <time>2019-01-18T10:36:21.000Z</time>
      </trkpt>
      <trkpt lat="43.33598" lon="5.68499">
        <ele>525</ele>
        <time>2019-01-18T10:36:22.000Z</time>
      </trkpt>
      <trkpt lat="43.33598" lon="5.68499">
        <ele>525</ele>
        <time>2019-01-18T10:36:23.000Z</time>
      </trkpt>
      <trkpt lat="43.33599" lon="5.68499">
        <ele>525</ele>
        <time>2019-01-18T10:36:24.000Z</time>
      </trkpt>
      <trkpt lat="43.33599" lon="5.68499">
        <ele>525</ele>
        <time>2019-01-18T10:36:25.000Z</time>
      </trkpt>
      <trkpt lat="43.33599" lon="5.68499">
        <ele>525</ele>
        <time>2019-01-18T10:36:26.000Z</time>
      </trkpt>
      <trkpt lat="43.33599" lon="5.68499">
        <ele>525</ele>
        <time>2019-01-18T10:36:27.000Z</time>
      </trkpt>
      <trkpt lat="43.33599" lon="5.68499">
        <ele>525</ele>
        <time>2019-01-18T10:36:28.000Z</time>
      </trkpt>
      <trkpt lat="43.33599" lon="5.68499">
        <ele>525</ele>
        <time>2019-01-18T10:36:29.000Z</time>
      </trkpt>
      <trkpt lat="43.33599" lon="5.68499">
        <ele>525</ele>
        <time>2019-01-18T10:36:30.000Z</time>
      </trkpt>
      <trkpt lat="43.33599" lon="5.68499">
        <ele>525</ele>
        <time>2019-01-18T10:36:31.000Z</time>
      </trkpt>
      <trkpt lat="43.33599" lon="5.68499">
        <ele>525</ele>
        <time>2019-01-18T10:36:32.000Z</time>
      </trkpt>
      <trkpt lat="43.33599" lon="5.68499">
        <ele>525</ele>
        <time>2019-01-18T10:36:33.000Z</time>
      </trkpt>
      <trkpt lat="43.33599" lon="5.68499">
        <ele>525</ele>
        <time>2019-01-18T10:36:34.000Z</time>
      </trkpt>
      <trkpt lat="43.33599" lon="5.68499">
        <ele>525</ele>
        <time>2019-01-18T10:36:35.000Z</time>
      </trkpt>
      <trkpt lat="43.33599" lon="5.68499">
        <ele>525</ele>
        <time>2019-01-18T10:36:36.000Z</time>
      </trkpt>
      <trkpt lat="43.33599" lon="5.68499">
        <ele>525</ele>
        <time>2019-01-18T10:36:37.000Z</time>
      </trkpt>
      <trkpt lat="43.33599" lon="5.68499">
        <ele>525</ele>
        <time>2019-01-18T10:36:38.000Z</time>
      </trkpt>
      <trkpt lat="43.33599" lon="5.68499">
        <ele>525</ele>
        <time>2019-01-18T10:36:39.000Z</time>
      </trkpt>
      <trkpt lat="43.33599" lon="5.68499">
        <ele>525</ele>
        <time>2019-01-18T10:36:40.000Z</time>
      </trkpt>
      <trkpt lat="43.33599" lon="5.68499">
        <ele>525</ele>
        <time>2019-01-18T10:36:41.000Z</time>
      </trkpt>
      <trkpt lat="43.33599" lon="5.685">
        <ele>525</ele>
        <time>2019-01-18T10:36:42.000Z</time>
      </trkpt>
      <trkpt lat="43.33599" lon="5.685">
        <ele>525</ele>
        <time>2019-01-18T10:36:43.000Z</time>
      </trkpt>
      <trkpt lat="43.336" lon="5.68501">
        <ele>525</ele>
        <time>2019-01-18T10:36:44.000Z</time>
      </trkpt>
      <trkpt lat="43.33599" lon="5.68501">
        <ele>525</ele>
        <time>2019-01-18T10:36:45.000Z</time>
      </trkpt>
      <trkpt lat="43.336" lon="5.68502">
        <ele>524</ele>
        <time>2019-01-18T10:36:46.000Z</time>
      </trkpt>
      <trkpt lat="43.336" lon="5.68502">
        <ele>524</ele>
        <time>2019-01-18T10:36:47.000Z</time>
      </trkpt>
      <trkpt lat="43.336" lon="5.68502">
        <ele>524</ele>
        <time>2019-01-18T10:36:48.000Z</time>
      </trkpt>
      <trkpt lat="43.336" lon="5.68503">
        <ele>524</ele>
        <time>2019-01-18T10:36:49.000Z</time>
      </trkpt>
      <trkpt lat="43.336" lon="5.68503">
        <ele>524</ele>
        <time>2019-01-18T10:36:50.000Z</time>
      </trkpt>
      <trkpt lat="43.336" lon="5.68504">
        <ele>524</ele>
        <time>2019-01-18T10:36:51.000Z</time>
      </trkpt>
      <trkpt lat="43.336" lon="5.68504">
        <ele>524</ele>
        <time>2019-01-18T10:36:52.000Z</time>
      </trkpt>
      <trkpt lat="43.336" lon="5.68505">
        <ele>524</ele>
        <time>2019-01-18T10:36:53.000Z</time>
      </trkpt>
      <trkpt lat="43.336" lon="5.68505">
        <ele>524</ele>
        <time>2019-01-18T10:36:54.000Z</time>
      </trkpt>
      <trkpt lat="43.336" lon="5.68506">
        <ele>524</ele>
        <time>2019-01-18T10:36:55.000Z</time>
      </trkpt>
      <trkpt lat="43.33601" lon="5.68506">
        <ele>524</ele>
        <time>2019-01-18T10:36:56.000Z</time>
      </trkpt>
      <trkpt lat="43.33601" lon="5.68506">
        <ele>524</ele>
        <time>2019-01-18T10:36:57.000Z</time>
      </trkpt>
      <trkpt lat="43.33601" lon="5.68506">
        <ele>524</ele>
        <time>2019-01-18T10:36:58.000Z</time>
      </trkpt>
      <trkpt lat="43.33601" lon="5.68507">
        <ele>524</ele>
        <time>2019-01-18T10:36:59.000Z</time>
      </trkpt>
      <trkpt lat="43.33601" lon="5.68507">
        <ele>524</ele>
        <time>2019-01-18T10:37:00.000Z</time>
      </trkpt>
      <trkpt lat="43.33601" lon="5.68507">
        <ele>524</ele>
        <time>2019-01-18T10:37:01.000Z</time>
      </trkpt>
      <trkpt lat="43.33602" lon="5.68507">
        <ele>525</ele>
        <time>2019-01-18T10:37:02.000Z</time>
      </trkpt>
      <trkpt lat="43.33602" lon="5.68506">
        <ele>525</ele>
        <time>2019-01-18T10:37:03.000Z</time>
      </trkpt>
      <trkpt lat="43.33602" lon="5.68506">
        <ele>525</ele>
        <time>2019-01-18T10:37:04.000Z</time>
      </trkpt>
      <trkpt lat="43.33602" lon="5.68506">
        <ele>525</ele>
        <time>2019-01-18T10:37:05.000Z</time>
      </trkpt>
      <trkpt lat="43.33602" lon="5.68506">
        <ele>525</ele>
        <time>2019-01-18T10:37:06.000Z</time>
      </trkpt>
      <trkpt lat="43.33602" lon="5.68506">
        <ele>525</ele>
        <time>2019-01-18T10:37:07.000Z</time>
      </trkpt>
      <trkpt lat="43.33602" lon="5.68506">
        <ele>525</ele>
        <time>2019-01-18T10:37:08.000Z</time>
      </trkpt>
      <trkpt lat="43.33602" lon="5.68506">
        <ele>525</ele>
        <time>2019-01-18T10:37:09.000Z</time>
      </trkpt>
      <trkpt lat="43.33602" lon="5.68506">
        <ele>525</ele>
        <time>2019-01-18T10:37:10.000Z</time>
      </trkpt>
      <trkpt lat="43.33602" lon="5.68506">
        <ele>525</ele>
        <time>2019-01-18T10:37:11.000Z</time>
      </trkpt>
      <trkpt lat="43.33603" lon="5.68506">
        <ele>525</ele>
        <time>2019-01-18T10:37:12.000Z</time>
      </trkpt>
      <trkpt lat="43.33603" lon="5.68506">
        <ele>525</ele>
        <time>2019-01-18T10:37:13.000Z</time>
      </trkpt>
      <trkpt lat="43.33603" lon="5.68506">
        <ele>525</ele>
        <time>2019-01-18T10:37:14.000Z</time>
      </trkpt>
      <trkpt lat="43.33603" lon="5.68505">
        <ele>525</ele>
        <time>2019-01-18T10:37:15.000Z</time>
      </trkpt>
      <trkpt lat="43.33604" lon="5.68504">
        <ele>525</ele>
        <time>2019-01-18T10:37:16.000Z</time>
      </trkpt>
      <trkpt lat="43.33605" lon="5.68504">
        <ele>525</ele>
        <time>2019-01-18T10:37:17.000Z</time>
      </trkpt>
      <trkpt lat="43.33605" lon="5.68504">
        <ele>525</ele>
        <time>2019-01-18T10:37:18.000Z</time>
      </trkpt>
      <trkpt lat="43.33605" lon="5.68504">
        <ele>525</ele>
        <time>2019-01-18T10:37:19.000Z</time>
      </trkpt>
      <trkpt lat="43.33605" lon="5.68504">
        <ele>526</ele>
        <time>2019-01-18T10:37:20.000Z</time>
      </trkpt>
      <trkpt lat="43.33606" lon="5.68504">
        <ele>526</ele>
        <time>2019-01-18T10:37:21.000Z</time>
      </trkpt>
      <trkpt lat="43.33606" lon="5.68504">
        <ele>526</ele>
        <time>2019-01-18T10:37:22.000Z</time>
      </trkpt>
      <trkpt lat="43.33606" lon="5.68503">
        <ele>526</ele>
        <time>2019-01-18T10:37:23.000Z</time>
      </trkpt>
      <trkpt lat="43.33606" lon="5.68503">
        <ele>526</ele>
        <time>2019-01-18T10:37:24.000Z</time>
      </trkpt>
      <trkpt lat="43.33606" lon="5.68503">
        <ele>526</ele>
        <time>2019-01-18T10:37:25.000Z</time>
      </trkpt>
      <trkpt lat="43.33606" lon="5.68503">
        <ele>526</ele>
        <time>2019-01-18T10:37:26.000Z</time>
      </trkpt>
      <trkpt lat="43.33606" lon="5.68503">
        <ele>526</ele>
        <time>2019-01-18T10:37:27.000Z</time>
      </trkpt>
      <trkpt lat="43.33606" lon="5.68504">
        <ele>526</ele>
        <time>2019-01-18T10:37:28.000Z</time>
      </trkpt>
      <trkpt lat="43.33607" lon="5.68504">
        <ele>527</ele>
        <time>2019-01-18T10:37:29.000Z</time>
      </trkpt>
      <trkpt lat="43.33607" lon="5.68504">
        <ele>527</ele>
        <time>2019-01-18T10:37:30.000Z</time>
      </trkpt>
      <trkpt lat="43.33607" lon="5.68504">
        <ele>527</ele>
        <time>2019-01-18T10:37:31.000Z</time>
      </trkpt>
      <trkpt lat="43.33607" lon="5.68505">
        <ele>527</ele>
        <time>2019-01-18T10:37:32.000Z</time>
      </trkpt>
      <trkpt lat="43.33608" lon="5.68505">
        <ele>527</ele>
        <time>2019-01-18T10:37:33.000Z</time>
      </trkpt>
      <trkpt lat="43.33608" lon="5.68505">
        <ele>527</ele>
        <time>2019-01-18T10:37:34.000Z</time>
      </trkpt>
      <trkpt lat="43.33608" lon="5.68504">
        <ele>527</ele>
        <time>2019-01-18T10:37:35.000Z</time>
      </trkpt>
      <trkpt lat="43.33609" lon="5.68504">
        <ele>528</ele>
        <time>2019-01-18T10:37:36.000Z</time>
      </trkpt>
      <trkpt lat="43.33609" lon="5.68504">
        <ele>528</ele>
        <time>2019-01-18T10:37:37.000Z</time>
      </trkpt>
      <trkpt lat="43.33609" lon="5.68504">
        <ele>528</ele>
        <time>2019-01-18T10:37:38.000Z</time>
      </trkpt>
      <trkpt lat="43.3361" lon="5.68504">
        <ele>528</ele>
        <time>2019-01-18T10:37:39.000Z</time>
      </trkpt>
      <trkpt lat="43.3361" lon="5.68504">
        <ele>528</ele>
        <time>2019-01-18T10:37:40.000Z</time>
      </trkpt>
      <trkpt lat="43.3361" lon="5.68504">
        <ele>528</ele>
        <time>2019-01-18T10:37:41.000Z</time>
      </trkpt>
      <trkpt lat="43.33611" lon="5.68504">
        <ele>529</ele>
        <time>2019-01-18T10:37:42.000Z</time>
      </trkpt>
      <trkpt lat="43.33611" lon="5.68504">
        <ele>529</ele>
        <time>2019-01-18T10:37:43.000Z</time>
      </trkpt>
      <trkpt lat="43.33611" lon="5.68504">
        <ele>529</ele>
        <time>2019-01-18T10:37:44.000Z</time>
      </trkpt>
      <trkpt lat="43.33612" lon="5.68504">
        <ele>529</ele>
        <time>2019-01-18T10:37:45.000Z</time>
      </trkpt>
      <trkpt lat="43.33612" lon="5.68505">
        <ele>529</ele>
        <time>2019-01-18T10:37:46.000Z</time>
      </trkpt>
      <trkpt lat="43.33612" lon="5.68505">
        <ele>529</ele>
        <time>2019-01-18T10:37:47.000Z</time>
      </trkpt>
      <trkpt lat="43.33612" lon="5.68506">
        <ele>529</ele>
        <time>2019-01-18T10:37:48.000Z</time>
      </trkpt>
      <trkpt lat="43.33612" lon="5.68506">
        <ele>529</ele>
        <time>2019-01-18T10:37:49.000Z</time>
      </trkpt>
      <trkpt lat="43.33612" lon="5.68507">
        <ele>529</ele>
        <time>2019-01-18T10:37:50.000Z</time>
      </trkpt>
      <trkpt lat="43.33612" lon="5.68507">
        <ele>530</ele>
        <time>2019-01-18T10:37:51.000Z</time>
      </trkpt>
      <trkpt lat="43.33612" lon="5.68507">
        <ele>530</ele>
        <time>2019-01-18T10:37:52.000Z</time>
      </trkpt>
      <trkpt lat="43.33612" lon="5.68507">
        <ele>530</ele>
        <time>2019-01-18T10:37:53.000Z</time>
      </trkpt>
      <trkpt lat="43.33612" lon="5.68508">
        <ele>530</ele>
        <time>2019-01-18T10:37:54.000Z</time>
      </trkpt>
      <trkpt lat="43.33613" lon="5.68508">
        <ele>530</ele>
        <time>2019-01-18T10:37:55.000Z</time>
      </trkpt>
      <trkpt lat="43.33613" lon="5.68508">
        <ele>530</ele>
        <time>2019-01-18T10:37:56.000Z</time>
      </trkpt>
      <trkpt lat="43.33614" lon="5.68508">
        <ele>530</ele>
        <time>2019-01-18T10:37:57.000Z</time>
      </trkpt>
      <trkpt lat="43.33614" lon="5.68508">
        <ele>530</ele>
        <time>2019-01-18T10:37:58.000Z</time>
      </trkpt>
      <trkpt lat="43.33614" lon="5.68508">
        <ele>530</ele>
        <time>2019-01-18T10:37:59.000Z</time>
      </trkpt>
      <trkpt lat="43.33614" lon="5.68508">
        <ele>530</ele>
        <time>2019-01-18T10:38:00.000Z</time>
      </trkpt>
      <trkpt lat="43.33614" lon="5.68508">
        <ele>530</ele>
        <time>2019-01-18T10:38:01.000Z</time>
      </trkpt>
      <trkpt lat="43.33614" lon="5.68508">
        <ele>530</ele>
        <time>2019-01-18T10:38:02.000Z</time>
      </trkpt>
      <trkpt lat="43.33614" lon="5.68508">
        <ele>530</ele>
        <time>2019-01-18T10:38:03.000Z</time>
      </trkpt>
      <trkpt lat="43.33614" lon="5.68508">
        <ele>530</ele>
        <time>2019-01-18T10:38:04.000Z</time>
      </trkpt>
      <trkpt lat="43.33614" lon="5.68508">
        <ele>530</ele>
        <time>2019-01-18T10:38:05.000Z</time>
      </trkpt>
      <trkpt lat="43.33614" lon="5.68508">
        <ele>530</ele>
        <time>2019-01-18T10:38:06.000Z</time>
      </trkpt>
      <trkpt lat="43.33614" lon="5.68508">
        <ele>530</ele>
        <time>2019-01-18T10:38:07.000Z</time>
      </trkpt>
      <trkpt lat="43.33614" lon="5.68508">
        <ele>530</ele>
        <time>2019-01-18T10:38:08.000Z</time>
      </trkpt>
      <trkpt lat="43.33614" lon="5.68508">
        <ele>530</ele>
        <time>2019-01-18T10:38:09.000Z</time>
      </trkpt>
      <trkpt lat="43.33614" lon="5.68508">
        <ele>530</ele>
        <time>2019-01-18T10:38:10.000Z</time>
      </trkpt>
      <trkpt lat="43.33614" lon="5.68508">
        <ele>530</ele>
        <time>2019-01-18T10:38:11.000Z</time>
      </trkpt>
      <trkpt lat="43.33614" lon="5.68508">
        <ele>530</ele>
        <time>2019-01-18T10:38:12.000Z</time>
      </trkpt>
      <trkpt lat="43.33614" lon="5.68508">
        <ele>530</ele>
        <time>2019-01-18T10:38:13.000Z</time>
      </trkpt>
      <trkpt lat="43.33614" lon="5.68508">
        <ele>530</ele>
        <time>2019-01-18T10:38:14.000Z</time>
      </trkpt>
      <trkpt lat="43.33615" lon="5.68508">
        <ele>530</ele>
        <time>2019-01-18T10:38:15.000Z</time>
      </trkpt>
      <trkpt lat="43.33615" lon="5.68508">
        <ele>530</ele>
        <time>2019-01-18T10:38:16.000Z</time>
      </trkpt>
      <trkpt lat="43.33615" lon="5.68508">
        <ele>530</ele>
        <time>2019-01-18T10:38:17.000Z</time>
      </trkpt>
      <trkpt lat="43.33616" lon="5.68508">
        <ele>530</ele>
        <time>2019-01-18T10:38:18.000Z</time>
      </trkpt>
      <trkpt lat="43.33616" lon="5.68508">
        <ele>530</ele>
        <time>2019-01-18T10:38:19.000Z</time>
      </trkpt>
      <trkpt lat="43.33616" lon="5.68508">
        <ele>530</ele>
        <time>2019-01-18T10:38:20.000Z</time>
      </trkpt>
      <trkpt lat="43.33617" lon="5.68508">
        <ele>530</ele>
        <time>2019-01-18T10:38:21.000Z</time>
      </trkpt>
      <trkpt lat="43.33617" lon="5.68508">
        <ele>530</ele>
        <time>2019-01-18T10:38:22.000Z</time>
      </trkpt>
      <trkpt lat="43.33618" lon="5.68508">
        <ele>530</ele>
        <time>2019-01-18T10:38:23.000Z</time>
      </trkpt>
      <trkpt lat="43.33618" lon="5.68508">
        <ele>530</ele>
        <time>2019-01-18T10:38:24.000Z</time>
      </trkpt>
      <trkpt lat="43.33618" lon="5.68508">
        <ele>530</ele>
        <time>2019-01-18T10:38:25.000Z</time>
      </trkpt>
      <trkpt lat="43.33618" lon="5.68509">
        <ele>530</ele>
        <time>2019-01-18T10:38:26.000Z</time>
      </trkpt>
      <trkpt lat="43.33618" lon="5.68509">
        <ele>530</ele>
        <time>2019-01-18T10:38:27.000Z</time>
      </trkpt>
      <trkpt lat="43.33619" lon="5.68509">
        <ele>530</ele>
        <time>2019-01-18T10:38:28.000Z</time>
      </trkpt>
      <trkpt lat="43.33619" lon="5.6851">
        <ele>530</ele>
        <time>2019-01-18T10:38:29.000Z</time>
      </trkpt>
      <trkpt lat="43.33619" lon="5.68511">
        <ele>530</ele>
        <time>2019-01-18T10:38:30.000Z</time>
      </trkpt>
      <trkpt lat="43.33619" lon="5.68511">
        <ele>530</ele>
        <time>2019-01-18T10:38:31.000Z</time>
      </trkpt>
      <trkpt lat="43.3362" lon="5.68511">
        <ele>530</ele>
        <time>2019-01-18T10:38:32.000Z</time>
      </trkpt>
      <trkpt lat="43.3362" lon="5.68511">
        <ele>530</ele>
        <time>2019-01-18T10:38:33.000Z</time>
      </trkpt>
      <trkpt lat="43.3362" lon="5.68511">
        <ele>530</ele>
        <time>2019-01-18T10:38:34.000Z</time>
      </trkpt>
      <trkpt lat="43.3362" lon="5.68511">
        <ele>530</ele>
        <time>2019-01-18T10:38:35.000Z</time>
      </trkpt>
      <trkpt lat="43.3362" lon="5.68511">
        <ele>530</ele>
        <time>2019-01-18T10:38:36.000Z</time>
      </trkpt>
      <trkpt lat="43.3362" lon="5.68511">
        <ele>530</ele>
        <time>2019-01-18T10:38:37.000Z</time>
      </trkpt>
      <trkpt lat="43.3362" lon="5.68511">
        <ele>530</ele>
        <time>2019-01-18T10:38:38.000Z</time>
      </trkpt>
      <trkpt lat="43.3362" lon="5.68511">
        <ele>530</ele>
        <time>2019-01-18T10:38:39.000Z</time>
      </trkpt>
      <trkpt lat="43.3362" lon="5.68511">
        <ele>529</ele>
        <time>2019-01-18T10:38:40.000Z</time>
      </trkpt>
      <trkpt lat="43.3362" lon="5.68511">
        <ele>529</ele>
        <time>2019-01-18T10:38:41.000Z</time>
      </trkpt>
      <trkpt lat="43.3362" lon="5.68511">
        <ele>529</ele>
        <time>2019-01-18T10:38:42.000Z</time>
      </trkpt>
      <trkpt lat="43.3362" lon="5.68511">
        <ele>529</ele>
        <time>2019-01-18T10:38:43.000Z</time>
      </trkpt>
      <trkpt lat="43.3362" lon="5.68511">
        <ele>529</ele>
        <time>2019-01-18T10:38:44.000Z</time>
      </trkpt>
      <trkpt lat="43.3362" lon="5.68511">
        <ele>529</ele>
        <time>2019-01-18T10:38:45.000Z</time>
      </trkpt>
      <trkpt lat="43.3362" lon="5.68511">
        <ele>529</ele>
        <time>2019-01-18T10:38:46.000Z</time>
      </trkpt>
      <trkpt lat="43.3362" lon="5.68511">
        <ele>529</ele>
        <time>2019-01-18T10:38:47.000Z</time>
      </trkpt>
      <trkpt lat="43.3362" lon="5.68511">
        <ele>529</ele>
        <time>2019-01-18T10:38:48.000Z</time>
      </trkpt>
      <trkpt lat="43.3362" lon="5.68512">
        <ele>529</ele>
        <time>2019-01-18T10:38:49.000Z</time>
      </trkpt>
      <trkpt lat="43.3362" lon="5.68513">
        <ele>529</ele>
        <time>2019-01-18T10:38:50.000Z</time>
      </trkpt>
      <trkpt lat="43.3362" lon="5.68513">
        <ele>529</ele>
        <time>2019-01-18T10:38:51.000Z</time>
      </trkpt>
      <trkpt lat="43.3362" lon="5.68514">
        <ele>529</ele>
        <time>2019-01-18T10:38:52.000Z</time>
      </trkpt>
      <trkpt lat="43.3362" lon="5.68514">
        <ele>530</ele>
        <time>2019-01-18T10:38:53.000Z</time>
      </trkpt>
      <trkpt lat="43.3362" lon="5.68514">
        <ele>530</ele>
        <time>2019-01-18T10:38:54.000Z</time>
      </trkpt>
      <trkpt lat="43.3362" lon="5.68515">
        <ele>530</ele>
        <time>2019-01-18T10:38:55.000Z</time>
      </trkpt>
      <trkpt lat="43.3362" lon="5.68515">
        <ele>530</ele>
        <time>2019-01-18T10:38:56.000Z</time>
      </trkpt>
      <trkpt lat="43.33621" lon="5.68515">
        <ele>530</ele>
        <time>2019-01-18T10:38:57.000Z</time>
      </trkpt>
      <trkpt lat="43.33621" lon="5.68516">
        <ele>530</ele>
        <time>2019-01-18T10:38:58.000Z</time>
      </trkpt>
      <trkpt lat="43.33621" lon="5.68516">
        <ele>531</ele>
        <time>2019-01-18T10:38:59.000Z</time>
      </trkpt>
      <trkpt lat="43.33621" lon="5.68516">
        <ele>531</ele>
        <time>2019-01-18T10:39:00.000Z</time>
      </trkpt>
      <trkpt lat="43.33622" lon="5.68516">
        <ele>531</ele>
        <time>2019-01-18T10:39:01.000Z</time>
      </trkpt>
      <trkpt lat="43.33622" lon="5.68516">
        <ele>531</ele>
        <time>2019-01-18T10:39:02.000Z</time>
      </trkpt>
      <trkpt lat="43.33622" lon="5.68516">
        <ele>531</ele>
        <time>2019-01-18T10:39:03.000Z</time>
      </trkpt>
      <trkpt lat="43.33622" lon="5.68516">
        <ele>531</ele>
        <time>2019-01-18T10:39:04.000Z</time>
      </trkpt>
      <trkpt lat="43.33622" lon="5.68516">
        <ele>531</ele>
        <time>2019-01-18T10:39:05.000Z</time>
      </trkpt>
      <trkpt lat="43.33623" lon="5.68517">
        <ele>531</ele>
        <time>2019-01-18T10:39:06.000Z</time>
      </trkpt>
      <trkpt lat="43.33623" lon="5.68516">
        <ele>532</ele>
        <time>2019-01-18T10:39:07.000Z</time>
      </trkpt>
      <trkpt lat="43.33623" lon="5.68516">
        <ele>532</ele>
        <time>2019-01-18T10:39:08.000Z</time>
      </trkpt>
      <trkpt lat="43.33623" lon="5.68516">
        <ele>532</ele>
        <time>2019-01-18T10:39:09.000Z</time>
      </trkpt>
      <trkpt lat="43.33623" lon="5.68516">
        <ele>532</ele>
        <time>2019-01-18T10:39:10.000Z</time>
      </trkpt>
      <trkpt lat="43.33623" lon="5.68517">
        <ele>532</ele>
        <time>2019-01-18T10:39:11.000Z</time>
      </trkpt>
      <trkpt lat="43.33623" lon="5.68517">
        <ele>532</ele>
        <time>2019-01-18T10:39:12.000Z</time>
      </trkpt>
      <trkpt lat="43.33623" lon="5.68517">
        <ele>532</ele>
        <time>2019-01-18T10:39:13.000Z</time>
      </trkpt>
      <trkpt lat="43.33624" lon="5.68518">
        <ele>532</ele>
        <time>2019-01-18T10:39:14.000Z</time>
      </trkpt>
      <trkpt lat="43.33624" lon="5.68518">
        <ele>532</ele>
        <time>2019-01-18T10:39:15.000Z</time>
      </trkpt>
      <trkpt lat="43.33624" lon="5.68518">
        <ele>533</ele>
        <time>2019-01-18T10:39:16.000Z</time>
      </trkpt>
      <trkpt lat="43.33624" lon="5.68518">
        <ele>533</ele>
        <time>2019-01-18T10:39:17.000Z</time>
      </trkpt>
      <trkpt lat="43.33624" lon="5.68518">
        <ele>533</ele>
        <time>2019-01-18T10:39:18.000Z</time>
      </trkpt>
      <trkpt lat="43.33625" lon="5.68518">
        <ele>533</ele>
        <time>2019-01-18T10:39:19.000Z</time>
      </trkpt>
      <trkpt lat="43.33625" lon="5.68518">
        <ele>533</ele>
        <time>2019-01-18T10:39:20.000Z</time>
      </trkpt>
      <trkpt lat="43.33625" lon="5.68518">
        <ele>533</ele>
        <time>2019-01-18T10:39:21.000Z</time>
      </trkpt>
      <trkpt lat="43.33625" lon="5.68518">
        <ele>534</ele>
        <time>2019-01-18T10:39:22.000Z</time>
      </trkpt>
      <trkpt lat="43.33625" lon="5.68518">
        <ele>534</ele>
        <time>2019-01-18T10:39:23.000Z</time>
      </trkpt>
      <trkpt lat="43.33625" lon="5.68518">
        <ele>534</ele>
        <time>2019-01-18T10:39:24.000Z</time>
      </trkpt>
      <trkpt lat="43.33625" lon="5.68518">
        <ele>534</ele>
        <time>2019-01-18T10:39:25.000Z</time>
      </trkpt>
      <trkpt lat="43.33626" lon="5.68518">
        <ele>534</ele>
        <time>2019-01-18T10:39:26.000Z</time>
      </trkpt>
      <trkpt lat="43.33626" lon="5.68519">
        <ele>534</ele>
        <time>2019-01-18T10:39:27.000Z</time>
      </trkpt>
      <trkpt lat="43.33626" lon="5.68519">
        <ele>534</ele>
        <time>2019-01-18T10:39:28.000Z</time>
      </trkpt>
      <trkpt lat="43.33626" lon="5.68519">
        <ele>535</ele>
        <time>2019-01-18T10:39:29.000Z</time>
      </trkpt>
      <trkpt lat="43.33627" lon="5.68519">
        <ele>535</ele>
        <time>2019-01-18T10:39:30.000Z</time>
      </trkpt>
      <trkpt lat="43.33627" lon="5.68519">
        <ele>535</ele>
        <time>2019-01-18T10:39:31.000Z</time>
      </trkpt>
      <trkpt lat="43.33627" lon="5.6852">
        <ele>535</ele>
        <time>2019-01-18T10:39:32.000Z</time>
      </trkpt>
      <trkpt lat="43.33627" lon="5.6852">
        <ele>535</ele>
        <time>2019-01-18T10:39:33.000Z</time>
      </trkpt>
      <trkpt lat="43.33628" lon="5.68519">
        <ele>535</ele>
        <time>2019-01-18T10:39:34.000Z</time>
      </trkpt>
      <trkpt lat="43.33628" lon="5.68519">
        <ele>536</ele>
        <time>2019-01-18T10:39:35.000Z</time>
      </trkpt>
      <trkpt lat="43.33628" lon="5.68519">
        <ele>536</ele>
        <time>2019-01-18T10:39:36.000Z</time>
      </trkpt>
      <trkpt lat="43.33628" lon="5.68519">
        <ele>536</ele>
        <time>2019-01-18T10:39:37.000Z</time>
      </trkpt>
      <trkpt lat="43.33628" lon="5.68519">
        <ele>536</ele>
        <time>2019-01-18T10:39:38.000Z</time>
      </trkpt>
      <trkpt lat="43.33628" lon="5.68519">
        <ele>536</ele>
        <time>2019-01-18T10:39:39.000Z</time>
      </trkpt>
      <trkpt lat="43.33628" lon="5.68519">
        <ele>536</ele>
        <time>2019-01-18T10:39:40.000Z</time>
      </trkpt>
      <trkpt lat="43.33628" lon="5.68519">
        <ele>536</ele>
        <time>2019-01-18T10:39:41.000Z</time>
      </trkpt>
      <trkpt lat="43.33628" lon="5.68519">
        <ele>536</ele>
        <time>2019-01-18T10:39:42.000Z</time>
      </trkpt>
      <trkpt lat="43.33628" lon="5.68519">
        <ele>536</ele>
        <time>2019-01-18T10:39:43.000Z</time>
      </trkpt>
      <trkpt lat="43.33628" lon="5.68519">
        <ele>536</ele>
        <time>2019-01-18T10:39:44.000Z</time>
      </trkpt>
      <trkpt lat="43.33628" lon="5.68519">
        <ele>536</ele>
        <time>2019-01-18T10:39:45.000Z</time>
      </trkpt>
      <trkpt lat="43.33628" lon="5.68519">
        <ele>536</ele>
        <time>2019-01-18T10:39:46.000Z</time>
      </trkpt>
      <trkpt lat="43.33628" lon="5.68519">
        <ele>536</ele>
        <time>2019-01-18T10:39:47.000Z</time>
      </trkpt>
      <trkpt lat="43.33628" lon="5.68519">
        <ele>536</ele>
        <time>2019-01-18T10:39:48.000Z</time>
      </trkpt>
      <trkpt lat="43.33628" lon="5.68519">
        <ele>537</ele>
        <time>2019-01-18T10:39:49.000Z</time>
      </trkpt>
      <trkpt lat="43.33628" lon="5.6852">
        <ele>537</ele>
        <time>2019-01-18T10:39:50.000Z</time>
      </trkpt>
      <trkpt lat="43.33628" lon="5.6852">
        <ele>537</ele>
        <time>2019-01-18T10:39:51.000Z</time>
      </trkpt>
      <trkpt lat="43.33628" lon="5.6852">
        <ele>537</ele>
        <time>2019-01-18T10:39:52.000Z</time>
      </trkpt>
      <trkpt lat="43.33628" lon="5.68521">
        <ele>537</ele>
        <time>2019-01-18T10:39:53.000Z</time>
      </trkpt>
      <trkpt lat="43.33628" lon="5.68521">
        <ele>537</ele>
        <time>2019-01-18T10:39:54.000Z</time>
      </trkpt>
      <trkpt lat="43.33628" lon="5.6852">
        <ele>537</ele>
        <time>2019-01-18T10:39:55.000Z</time>
      </trkpt>
      <trkpt lat="43.33628" lon="5.6852">
        <ele>537</ele>
        <time>2019-01-18T10:39:56.000Z</time>
      </trkpt>
      <trkpt lat="43.33628" lon="5.6852">
        <ele>537</ele>
        <time>2019-01-18T10:39:57.000Z</time>
      </trkpt>
      <trkpt lat="43.33629" lon="5.6852">
        <ele>537</ele>
        <time>2019-01-18T10:39:58.000Z</time>
      </trkpt>
      <trkpt lat="43.33629" lon="5.6852">
        <ele>537</ele>
        <time>2019-01-18T10:39:59.000Z</time>
      </trkpt>
      <trkpt lat="43.33629" lon="5.68519">
        <ele>537</ele>
        <time>2019-01-18T10:40:00.000Z</time>
      </trkpt>
      <trkpt lat="43.33629" lon="5.68519">
        <ele>538</ele>
        <time>2019-01-18T10:40:01.000Z</time>
      </trkpt>
      <trkpt lat="43.3363" lon="5.68519">
        <ele>538</ele>
        <time>2019-01-18T10:40:02.000Z</time>
      </trkpt>
      <trkpt lat="43.3363" lon="5.68519">
        <ele>538</ele>
        <time>2019-01-18T10:40:03.000Z</time>
      </trkpt>
      <trkpt lat="43.3363" lon="5.68519">
        <ele>538</ele>
        <time>2019-01-18T10:40:04.000Z</time>
      </trkpt>
      <trkpt lat="43.33631" lon="5.68518">
        <ele>538</ele>
        <time>2019-01-18T10:40:05.000Z</time>
      </trkpt>
      <trkpt lat="43.33631" lon="5.68518">
        <ele>539</ele>
        <time>2019-01-18T10:40:06.000Z</time>
      </trkpt>
      <trkpt lat="43.33632" lon="5.68518">
        <ele>539</ele>
        <time>2019-01-18T10:40:07.000Z</time>
      </trkpt>
      <trkpt lat="43.33632" lon="5.68518">
        <ele>539</ele>
        <time>2019-01-18T10:40:08.000Z</time>
      </trkpt>
      <trkpt lat="43.33632" lon="5.68519">
        <ele>539</ele>
        <time>2019-01-18T10:40:09.000Z</time>
      </trkpt>
      <trkpt lat="43.33633" lon="5.68519">
        <ele>539</ele>
        <time>2019-01-18T10:40:10.000Z</time>
      </trkpt>
      <trkpt lat="43.33633" lon="5.6852">
        <ele>539</ele>
        <time>2019-01-18T10:40:11.000Z</time>
      </trkpt>
      <trkpt lat="43.33633" lon="5.6852">
        <ele>539</ele>
        <time>2019-01-18T10:40:12.000Z</time>
      </trkpt>
      <trkpt lat="43.33633" lon="5.68521">
        <ele>540</ele>
        <time>2019-01-18T10:40:13.000Z</time>
      </trkpt>
      <trkpt lat="43.33633" lon="5.68521">
        <ele>540</ele>
        <time>2019-01-18T10:40:14.000Z</time>
      </trkpt>
      <trkpt lat="43.33633" lon="5.68521">
        <ele>540</ele>
        <time>2019-01-18T10:40:15.000Z</time>
      </trkpt>
      <trkpt lat="43.33633" lon="5.68521">
        <ele>540</ele>
        <time>2019-01-18T10:40:16.000Z</time>
      </trkpt>
      <trkpt lat="43.33634" lon="5.68521">
        <ele>540</ele>
        <time>2019-01-18T10:40:17.000Z</time>
      </trkpt>
      <trkpt lat="43.33634" lon="5.68522">
        <ele>540</ele>
        <time>2019-01-18T10:40:18.000Z</time>
      </trkpt>
      <trkpt lat="43.33634" lon="5.68522">
        <ele>540</ele>
        <time>2019-01-18T10:40:19.000Z</time>
      </trkpt>
      <trkpt lat="43.33634" lon="5.68522">
        <ele>540</ele>
        <time>2019-01-18T10:40:20.000Z</time>
      </trkpt>
      <trkpt lat="43.33635" lon="5.68523">
        <ele>541</ele>
        <time>2019-01-18T10:40:21.000Z</time>
      </trkpt>
      <trkpt lat="43.33635" lon="5.68523">
        <ele>541</ele>
        <time>2019-01-18T10:40:22.000Z</time>
      </trkpt>
      <trkpt lat="43.33635" lon="5.68524">
        <ele>541</ele>
        <time>2019-01-18T10:40:23.000Z</time>
      </trkpt>
      <trkpt lat="43.33635" lon="5.68524">
        <ele>541</ele>
        <time>2019-01-18T10:40:24.000Z</time>
      </trkpt>
      <trkpt lat="43.33635" lon="5.68525">
        <ele>541</ele>
        <time>2019-01-18T10:40:25.000Z</time>
      </trkpt>
      <trkpt lat="43.33635" lon="5.68525">
        <ele>541</ele>
        <time>2019-01-18T10:40:26.000Z</time>
      </trkpt>
      <trkpt lat="43.33635" lon="5.68526">
        <ele>541</ele>
        <time>2019-01-18T10:40:27.000Z</time>
      </trkpt>
      <trkpt lat="43.33636" lon="5.68526">
        <ele>541</ele>
        <time>2019-01-18T10:40:28.000Z</time>
      </trkpt>
      <trkpt lat="43.33636" lon="5.68527">
        <ele>542</ele>
        <time>2019-01-18T10:40:29.000Z</time>
      </trkpt>
      <trkpt lat="43.33636" lon="5.68527">
        <ele>542</ele>
        <time>2019-01-18T10:40:30.000Z</time>
      </trkpt>
      <trkpt lat="43.33636" lon="5.68527">
        <ele>542</ele>
        <time>2019-01-18T10:40:31.000Z</time>
      </trkpt>
      <trkpt lat="43.33636" lon="5.68527">
        <ele>542</ele>
        <time>2019-01-18T10:40:32.000Z</time>
      </trkpt>
      <trkpt lat="43.33636" lon="5.68527">
        <ele>542</ele>
        <time>2019-01-18T10:40:33.000Z</time>
      </trkpt>
      <trkpt lat="43.33636" lon="5.68528">
        <ele>542</ele>
        <time>2019-01-18T10:40:34.000Z</time>
      </trkpt>
      <trkpt lat="43.33636" lon="5.68528">
        <ele>542</ele>
        <time>2019-01-18T10:40:35.000Z</time>
      </trkpt>
      <trkpt lat="43.33636" lon="5.68528">
        <ele>542</ele>
        <time>2019-01-18T10:40:36.000Z</time>
      </trkpt>
      <trkpt lat="43.33636" lon="5.68528">
        <ele>542</ele>
        <time>2019-01-18T10:40:37.000Z</time>
      </trkpt>
      <trkpt lat="43.33636" lon="5.68528">
        <ele>542</ele>
        <time>2019-01-18T10:40:38.000Z</time>
      </trkpt>
      <trkpt lat="43.33636" lon="5.68528">
        <ele>542</ele>
        <time>2019-01-18T10:40:39.000Z</time>
      </trkpt>
      <trkpt lat="43.33636" lon="5.68528">
        <ele>543</ele>
        <time>2019-01-18T10:40:40.000Z</time>
      </trkpt>
      <trkpt lat="43.33636" lon="5.68528">
        <ele>543</ele>
        <time>2019-01-18T10:40:41.000Z</time>
      </trkpt>
      <trkpt lat="43.33636" lon="5.68528">
        <ele>543</ele>
        <time>2019-01-18T10:40:42.000Z</time>
      </trkpt>
      <trkpt lat="43.33636" lon="5.68528">
        <ele>543</ele>
        <time>2019-01-18T10:40:43.000Z</time>
      </trkpt>
      <trkpt lat="43.33636" lon="5.68528">
        <ele>543</ele>
        <time>2019-01-18T10:40:44.000Z</time>
      </trkpt>
      <trkpt lat="43.33636" lon="5.68528">
        <ele>543</ele>
        <time>2019-01-18T10:40:45.000Z</time>
      </trkpt>
      <trkpt lat="43.33636" lon="5.68528">
        <ele>543</ele>
        <time>2019-01-18T10:40:46.000Z</time>
      </trkpt>
      <trkpt lat="43.33636" lon="5.68528">
        <ele>543</ele>
        <time>2019-01-18T10:40:47.000Z</time>
      </trkpt>
      <trkpt lat="43.33636" lon="5.68528">
        <ele>543</ele>
        <time>2019-01-18T10:40:48.000Z</time>
      </trkpt>
      <trkpt lat="43.33636" lon="5.68528">
        <ele>543</ele>
        <time>2019-01-18T10:40:49.000Z</time>
      </trkpt>
      <trkpt lat="43.33636" lon="5.68528">
        <ele>543</ele>
        <time>2019-01-18T10:40:50.000Z</time>
      </trkpt>
      <trkpt lat="43.33636" lon="5.68528">
        <ele>543</ele>
        <time>2019-01-18T10:40:51.000Z</time>
      </trkpt>
      <trkpt lat="43.33636" lon="5.68528">
        <ele>543</ele>
        <time>2019-01-18T10:40:52.000Z</time>
      </trkpt>
      <trkpt lat="43.33636" lon="5.68528">
        <ele>543</ele>
        <time>2019-01-18T10:40:53.000Z</time>
      </trkpt>
      <trkpt lat="43.33636" lon="5.68528">
        <ele>544</ele>
        <time>2019-01-18T10:40:54.000Z</time>
      </trkpt>
      <trkpt lat="43.33635" lon="5.68528">
        <ele>544</ele>
        <time>2019-01-18T10:40:55.000Z</time>
      </trkpt>
      <trkpt lat="43.33635" lon="5.68528">
        <ele>544</ele>
        <time>2019-01-18T10:40:56.000Z</time>
      </trkpt>
      <trkpt lat="43.33635" lon="5.68528">
        <ele>544</ele>
        <time>2019-01-18T10:40:57.000Z</time>
      </trkpt>
      <trkpt lat="43.33635" lon="5.68528">
        <ele>544</ele>
        <time>2019-01-18T10:40:58.000Z</time>
      </trkpt>
      <trkpt lat="43.33635" lon="5.68528">
        <ele>544</ele>
        <time>2019-01-18T10:40:59.000Z</time>
      </trkpt>
      <trkpt lat="43.33635" lon="5.68528">
        <ele>544</ele>
        <time>2019-01-18T10:41:00.000Z</time>
      </trkpt>
      <trkpt lat="43.33635" lon="5.68528">
        <ele>544</ele>
        <time>2019-01-18T10:41:01.000Z</time>
      </trkpt>
      <trkpt lat="43.33635" lon="5.68528">
        <ele>544</ele>
        <time>2019-01-18T10:41:02.000Z</time>
      </trkpt>
      <trkpt lat="43.33635" lon="5.68528">
        <ele>544</ele>
        <time>2019-01-18T10:41:03.000Z</time>
      </trkpt>
      <trkpt lat="43.33635" lon="5.68528">
        <ele>544</ele>
        <time>2019-01-18T10:41:04.000Z</time>
      </trkpt>
      <trkpt lat="43.33635" lon="5.68528">
        <ele>544</ele>
        <time>2019-01-18T10:41:05.000Z</time>
      </trkpt>
      <trkpt lat="43.33635" lon="5.68528">
        <ele>544</ele>
        <time>2019-01-18T10:41:06.000Z</time>
      </trkpt>
      <trkpt lat="43.33635" lon="5.68528">
        <ele>544</ele>
        <time>2019-01-18T10:41:07.000Z</time>
      </trkpt>
      <trkpt lat="43.33635" lon="5.68528">
        <ele>544</ele>
        <time>2019-01-18T10:41:08.000Z</time>
      </trkpt>
      <trkpt lat="43.33635" lon="5.68528">
        <ele>544</ele>
        <time>2019-01-18T10:41:09.000Z</time>
      </trkpt>
      <trkpt lat="43.33635" lon="5.68528">
        <ele>544</ele>
        <time>2019-01-18T10:41:10.000Z</time>
      </trkpt>
      <trkpt lat="43.33635" lon="5.68528">
        <ele>544</ele>
        <time>2019-01-18T10:41:11.000Z</time>
      </trkpt>
      <trkpt lat="43.33635" lon="5.68528">
        <ele>545</ele>
        <time>2019-01-18T10:41:12.000Z</time>
      </trkpt>
      <trkpt lat="43.33635" lon="5.68528">
        <ele>545</ele>
        <time>2019-01-18T10:41:13.000Z</time>
      </trkpt>
      <trkpt lat="43.33635" lon="5.68528">
        <ele>545</ele>
        <time>2019-01-18T10:41:14.000Z</time>
      </trkpt>
      <trkpt lat="43.33635" lon="5.68528">
        <ele>545</ele>
        <time>2019-01-18T10:41:15.000Z</time>
      </trkpt>
      <trkpt lat="43.33635" lon="5.68528">
        <ele>545</ele>
        <time>2019-01-18T10:41:16.000Z</time>
      </trkpt>
      <trkpt lat="43.33635" lon="5.68528">
        <ele>545</ele>
        <time>2019-01-18T10:41:17.000Z</time>
      </trkpt>
      <trkpt lat="43.33635" lon="5.68528">
        <ele>545</ele>
        <time>2019-01-18T10:41:18.000Z</time>
      </trkpt>
      <trkpt lat="43.33635" lon="5.68528">
        <ele>545</ele>
        <time>2019-01-18T10:41:19.000Z</time>
      </trkpt>
      <trkpt lat="43.33635" lon="5.68528">
        <ele>545</ele>
        <time>2019-01-18T10:41:20.000Z</time>
      </trkpt>
      <trkpt lat="43.33635" lon="5.68528">
        <ele>545</ele>
        <time>2019-01-18T10:41:21.000Z</time>
      </trkpt>
      <trkpt lat="43.33635" lon="5.68528">
        <ele>545</ele>
        <time>2019-01-18T10:41:22.000Z</time>
      </trkpt>
      <trkpt lat="43.33635" lon="5.68528">
        <ele>545</ele>
        <time>2019-01-18T10:41:23.000Z</time>
      </trkpt>
      <trkpt lat="43.33635" lon="5.68528">
        <ele>545</ele>
        <time>2019-01-18T10:41:24.000Z</time>
      </trkpt>
      <trkpt lat="43.33635" lon="5.68528">
        <ele>545</ele>
        <time>2019-01-18T10:41:25.000Z</time>
      </trkpt>
      <trkpt lat="43.33635" lon="5.68528">
        <ele>545</ele>
        <time>2019-01-18T10:41:26.000Z</time>
      </trkpt>
      <trkpt lat="43.33635" lon="5.68528">
        <ele>545</ele>
        <time>2019-01-18T10:41:27.000Z</time>
      </trkpt>
      <trkpt lat="43.33635" lon="5.68528">
        <ele>545</ele>
        <time>2019-01-18T10:41:28.000Z</time>
      </trkpt>
      <trkpt lat="43.33635" lon="5.68528">
        <ele>545</ele>
        <time>2019-01-18T10:41:29.000Z</time>
      </trkpt>
      <trkpt lat="43.33635" lon="5.68528">
        <ele>545</ele>
        <time>2019-01-18T10:41:30.000Z</time>
      </trkpt>
      <trkpt lat="43.33635" lon="5.68528">
        <ele>545</ele>
        <time>2019-01-18T10:41:31.000Z</time>
      </trkpt>
      <trkpt lat="43.33635" lon="5.68528">
        <ele>545</ele>
        <time>2019-01-18T10:41:32.000Z</time>
      </trkpt>
      <trkpt lat="43.33635" lon="5.68528">
        <ele>545</ele>
        <time>2019-01-18T10:41:33.000Z</time>
      </trkpt>
      <trkpt lat="43.33635" lon="5.68528">
        <ele>545</ele>
        <time>2019-01-18T10:41:34.000Z</time>
      </trkpt>
      <trkpt lat="43.33635" lon="5.68528">
        <ele>545</ele>
        <time>2019-01-18T10:41:35.000Z</time>
      </trkpt>
      <trkpt lat="43.33635" lon="5.68528">
        <ele>545</ele>
        <time>2019-01-18T10:41:36.000Z</time>
      </trkpt>
      <trkpt lat="43.33635" lon="5.68528">
        <ele>545</ele>
        <time>2019-01-18T10:41:37.000Z</time>
      </trkpt>
      <trkpt lat="43.33635" lon="5.68528">
        <ele>545</ele>
        <time>2019-01-18T10:41:38.000Z</time>
      </trkpt>
      <trkpt lat="43.33635" lon="5.68528">
        <ele>545</ele>
        <time>2019-01-18T10:41:39.000Z</time>
      </trkpt>
      <trkpt lat="43.33635" lon="5.68528">
        <ele>545</ele>
        <time>2019-01-18T10:41:40.000Z</time>
      </trkpt>
      <trkpt lat="43.33635" lon="5.68528">
        <ele>545</ele>
        <time>2019-01-18T10:41:41.000Z</time>
      </trkpt>
      <trkpt lat="43.33635" lon="5.68528">
        <ele>545</ele>
        <time>2019-01-18T10:41:42.000Z</time>
      </trkpt>
      <trkpt lat="43.33635" lon="5.68528">
        <ele>545</ele>
        <time>2019-01-18T10:41:43.000Z</time>
      </trkpt>
      <trkpt lat="43.33635" lon="5.68528">
        <ele>545</ele>
        <time>2019-01-18T10:41:44.000Z</time>
      </trkpt>
      <trkpt lat="43.33635" lon="5.68528">
        <ele>545</ele>
        <time>2019-01-18T10:41:45.000Z</time>
      </trkpt>
      <trkpt lat="43.33635" lon="5.68528">
        <ele>545</ele>
        <time>2019-01-18T10:41:46.000Z</time>
      </trkpt>
      <trkpt lat="43.33635" lon="5.68528">
        <ele>545</ele>
        <time>2019-01-18T10:41:47.000Z</time>
      </trkpt>
      <trkpt lat="43.33635" lon="5.68528">
        <ele>545</ele>
        <time>2019-01-18T10:41:48.000Z</time>
      </trkpt>
      <trkpt lat="43.33635" lon="5.68528">
        <ele>545</ele>
        <time>2019-01-18T10:41:49.000Z</time>
      </trkpt>
      <trkpt lat="43.33635" lon="5.68528">
        <ele>545</ele>
        <time>2019-01-18T10:41:50.000Z</time>
      </trkpt>
      <trkpt lat="43.33635" lon="5.68528">
        <ele>545</ele>
        <time>2019-01-18T10:41:51.000Z</time>
      </trkpt>
      <trkpt lat="43.33635" lon="5.68528">
        <ele>545</ele>
        <time>2019-01-18T10:41:52.000Z</time>
      </trkpt>
      <trkpt lat="43.33635" lon="5.68529">
        <ele>545</ele>
        <time>2019-01-18T10:41:53.000Z</time>
      </trkpt>
      <trkpt lat="43.33635" lon="5.68529">
        <ele>545</ele>
        <time>2019-01-18T10:41:54.000Z</time>
      </trkpt>
      <trkpt lat="43.33636" lon="5.6853">
        <ele>545</ele>
        <time>2019-01-18T10:41:55.000Z</time>
      </trkpt>
      <trkpt lat="43.33636" lon="5.68531">
        <ele>545</ele>
        <time>2019-01-18T10:41:56.000Z</time>
      </trkpt>
      <trkpt lat="43.33636" lon="5.68531">
        <ele>546</ele>
        <time>2019-01-18T10:41:57.000Z</time>
      </trkpt>
      <trkpt lat="43.33636" lon="5.68531">
        <ele>546</ele>
        <time>2019-01-18T10:41:58.000Z</time>
      </trkpt>
      <trkpt lat="43.33637" lon="5.68532">
        <ele>546</ele>
        <time>2019-01-18T10:41:59.000Z</time>
      </trkpt>
      <trkpt lat="43.33637" lon="5.68532">
        <ele>546</ele>
        <time>2019-01-18T10:42:00.000Z</time>
      </trkpt>
      <trkpt lat="43.33637" lon="5.68533">
        <ele>546</ele>
        <time>2019-01-18T10:42:01.000Z</time>
      </trkpt>
      <trkpt lat="43.33637" lon="5.68533">
        <ele>547</ele>
        <time>2019-01-18T10:42:02.000Z</time>
      </trkpt>
      <trkpt lat="43.33637" lon="5.68533">
        <ele>547</ele>
        <time>2019-01-18T10:42:03.000Z</time>
      </trkpt>
      <trkpt lat="43.33637" lon="5.68534">
        <ele>547</ele>
        <time>2019-01-18T10:42:04.000Z</time>
      </trkpt>
      <trkpt lat="43.33638" lon="5.68534">
        <ele>547</ele>
        <time>2019-01-18T10:42:05.000Z</time>
      </trkpt>
      <trkpt lat="43.33638" lon="5.68535">
        <ele>547</ele>
        <time>2019-01-18T10:42:06.000Z</time>
      </trkpt>
      <trkpt lat="43.33638" lon="5.68535">
        <ele>547</ele>
        <time>2019-01-18T10:42:07.000Z</time>
      </trkpt>
      <trkpt lat="43.33638" lon="5.68535">
        <ele>548</ele>
        <time>2019-01-18T10:42:08.000Z</time>
      </trkpt>
      <trkpt lat="43.33639" lon="5.68535">
        <ele>548</ele>
        <time>2019-01-18T10:42:09.000Z</time>
      </trkpt>
      <trkpt lat="43.33639" lon="5.68536">
        <ele>548</ele>
        <time>2019-01-18T10:42:10.000Z</time>
      </trkpt>
      <trkpt lat="43.33639" lon="5.68536">
        <ele>548</ele>
        <time>2019-01-18T10:42:11.000Z</time>
      </trkpt>
      <trkpt lat="43.33639" lon="5.68536">
        <ele>548</ele>
        <time>2019-01-18T10:42:12.000Z</time>
      </trkpt>
      <trkpt lat="43.33639" lon="5.68537">
        <ele>549</ele>
        <time>2019-01-18T10:42:13.000Z</time>
      </trkpt>
      <trkpt lat="43.3364" lon="5.68537">
        <ele>549</ele>
        <time>2019-01-18T10:42:14.000Z</time>
      </trkpt>
      <trkpt lat="43.3364" lon="5.68537">
        <ele>549</ele>
        <time>2019-01-18T10:42:15.000Z</time>
      </trkpt>
      <trkpt lat="43.3364" lon="5.68537">
        <ele>549</ele>
        <time>2019-01-18T10:42:16.000Z</time>
      </trkpt>
      <trkpt lat="43.3364" lon="5.68537">
        <ele>549</ele>
        <time>2019-01-18T10:42:17.000Z</time>
      </trkpt>
      <trkpt lat="43.33641" lon="5.68537">
        <ele>549</ele>
        <time>2019-01-18T10:42:18.000Z</time>
      </trkpt>
      <trkpt lat="43.33642" lon="5.68538">
        <ele>549</ele>
        <time>2019-01-18T10:42:19.000Z</time>
      </trkpt>
      <trkpt lat="43.33642" lon="5.68538">
        <ele>550</ele>
        <time>2019-01-18T10:42:20.000Z</time>
      </trkpt>
      <trkpt lat="43.33642" lon="5.68538">
        <ele>550</ele>
        <time>2019-01-18T10:42:21.000Z</time>
      </trkpt>
      <trkpt lat="43.33642" lon="5.68538">
        <ele>550</ele>
        <time>2019-01-18T10:42:22.000Z</time>
      </trkpt>
      <trkpt lat="43.33642" lon="5.68538">
        <ele>550</ele>
        <time>2019-01-18T10:42:23.000Z</time>
      </trkpt>
      <trkpt lat="43.33642" lon="5.68538">
        <ele>550</ele>
        <time>2019-01-18T10:42:24.000Z</time>
      </trkpt>
      <trkpt lat="43.33642" lon="5.68538">
        <ele>550</ele>
        <time>2019-01-18T10:42:25.000Z</time>
      </trkpt>
      <trkpt lat="43.33642" lon="5.68538">
        <ele>550</ele>
        <time>2019-01-18T10:42:26.000Z</time>
      </trkpt>
      <trkpt lat="43.33642" lon="5.68538">
        <ele>550</ele>
        <time>2019-01-18T10:42:27.000Z</time>
      </trkpt>
      <trkpt lat="43.33642" lon="5.68538">
        <ele>550</ele>
        <time>2019-01-18T10:42:28.000Z</time>
      </trkpt>
      <trkpt lat="43.33642" lon="5.68538">
        <ele>550</ele>
        <time>2019-01-18T10:42:29.000Z</time>
      </trkpt>
      <trkpt lat="43.33642" lon="5.68538">
        <ele>550</ele>
        <time>2019-01-18T10:42:30.000Z</time>
      </trkpt>
      <trkpt lat="43.33642" lon="5.68538">
        <ele>550</ele>
        <time>2019-01-18T10:42:31.000Z</time>
      </trkpt>
      <trkpt lat="43.33642" lon="5.68538">
        <ele>550</ele>
        <time>2019-01-18T10:42:32.000Z</time>
      </trkpt>
      <trkpt lat="43.33642" lon="5.68538">
        <ele>550</ele>
        <time>2019-01-18T10:42:33.000Z</time>
      </trkpt>
      <trkpt lat="43.33642" lon="5.68538">
        <ele>550</ele>
        <time>2019-01-18T10:42:34.000Z</time>
      </trkpt>
      <trkpt lat="43.33642" lon="5.68538">
        <ele>550</ele>
        <time>2019-01-18T10:42:35.000Z</time>
      </trkpt>
      <trkpt lat="43.33642" lon="5.68538">
        <ele>550</ele>
        <time>2019-01-18T10:42:36.000Z</time>
      </trkpt>
      <trkpt lat="43.33642" lon="5.68538">
        <ele>550</ele>
        <time>2019-01-18T10:42:37.000Z</time>
      </trkpt>
      <trkpt lat="43.33642" lon="5.68539">
        <ele>550</ele>
        <time>2019-01-18T10:42:38.000Z</time>
      </trkpt>
      <trkpt lat="43.33642" lon="5.68539">
        <ele>550</ele>
        <time>2019-01-18T10:42:39.000Z</time>
      </trkpt>
      <trkpt lat="43.33643" lon="5.6854">
        <ele>550</ele>
        <time>2019-01-18T10:42:40.000Z</time>
      </trkpt>
      <trkpt lat="43.33643" lon="5.6854">
        <ele>550</ele>
        <time>2019-01-18T10:42:41.000Z</time>
      </trkpt>
      <trkpt lat="43.33643" lon="5.68541">
        <ele>550</ele>
        <time>2019-01-18T10:42:42.000Z</time>
      </trkpt>
      <trkpt lat="43.33644" lon="5.68542">
        <ele>551</ele>
        <time>2019-01-18T10:42:43.000Z</time>
      </trkpt>
      <trkpt lat="43.33644" lon="5.68543">
        <ele>551</ele>
        <time>2019-01-18T10:42:44.000Z</time>
      </trkpt>
      <trkpt lat="43.33644" lon="5.68543">
        <ele>551</ele>
        <time>2019-01-18T10:42:45.000Z</time>
      </trkpt>
      <trkpt lat="43.33644" lon="5.68544">
        <ele>551</ele>
        <time>2019-01-18T10:42:46.000Z</time>
      </trkpt>
      <trkpt lat="43.33644" lon="5.68544">
        <ele>551</ele>
        <time>2019-01-18T10:42:47.000Z</time>
      </trkpt>
      <trkpt lat="43.33644" lon="5.68544">
        <ele>551</ele>
        <time>2019-01-18T10:42:48.000Z</time>
      </trkpt>
      <trkpt lat="43.33644" lon="5.68544">
        <ele>551</ele>
        <time>2019-01-18T10:42:49.000Z</time>
      </trkpt>
      <trkpt lat="43.33645" lon="5.68544">
        <ele>552</ele>
        <time>2019-01-18T10:42:50.000Z</time>
      </trkpt>
      <trkpt lat="43.33645" lon="5.68543">
        <ele>552</ele>
        <time>2019-01-18T10:42:51.000Z</time>
      </trkpt>
      <trkpt lat="43.33646" lon="5.68543">
        <ele>552</ele>
        <time>2019-01-18T10:42:52.000Z</time>
      </trkpt>
      <trkpt lat="43.33646" lon="5.68544">
        <ele>552</ele>
        <time>2019-01-18T10:42:53.000Z</time>
      </trkpt>
      <trkpt lat="43.33646" lon="5.68544">
        <ele>553</ele>
        <time>2019-01-18T10:42:54.000Z</time>
      </trkpt>
      <trkpt lat="43.33646" lon="5.68545">
        <ele>553</ele>
        <time>2019-01-18T10:42:55.000Z</time>
      </trkpt>
      <trkpt lat="43.33647" lon="5.68545">
        <ele>553</ele>
        <time>2019-01-18T10:42:56.000Z</time>
      </trkpt>
      <trkpt lat="43.33647" lon="5.68546">
        <ele>553</ele>
        <time>2019-01-18T10:42:57.000Z</time>
      </trkpt>
      <trkpt lat="43.33647" lon="5.68546">
        <ele>553</ele>
        <time>2019-01-18T10:42:58.000Z</time>
      </trkpt>
      <trkpt lat="43.33647" lon="5.68546">
        <ele>553</ele>
        <time>2019-01-18T10:42:59.000Z</time>
      </trkpt>
      <trkpt lat="43.33648" lon="5.68546">
        <ele>554</ele>
        <time>2019-01-18T10:43:00.000Z</time>
      </trkpt>
      <trkpt lat="43.33648" lon="5.68547">
        <ele>554</ele>
        <time>2019-01-18T10:43:01.000Z</time>
      </trkpt>
      <trkpt lat="43.33648" lon="5.68547">
        <ele>554</ele>
        <time>2019-01-18T10:43:02.000Z</time>
      </trkpt>
      <trkpt lat="43.33648" lon="5.68547">
        <ele>554</ele>
        <time>2019-01-18T10:43:03.000Z</time>
      </trkpt>
      <trkpt lat="43.33648" lon="5.68547">
        <ele>554</ele>
        <time>2019-01-18T10:43:04.000Z</time>
      </trkpt>
      <trkpt lat="43.33648" lon="5.68547">
        <ele>554</ele>
        <time>2019-01-18T10:43:05.000Z</time>
      </trkpt>
      <trkpt lat="43.33648" lon="5.68547">
        <ele>554</ele>
        <time>2019-01-18T10:43:06.000Z</time>
      </trkpt>
      <trkpt lat="43.33648" lon="5.68547">
        <ele>554</ele>
        <time>2019-01-18T10:43:07.000Z</time>
      </trkpt>
      <trkpt lat="43.33648" lon="5.68547">
        <ele>555</ele>
        <time>2019-01-18T10:43:08.000Z</time>
      </trkpt>
      <trkpt lat="43.33648" lon="5.68547">
        <ele>555</ele>
        <time>2019-01-18T10:43:09.000Z</time>
      </trkpt>
      <trkpt lat="43.33648" lon="5.68548">
        <ele>555</ele>
        <time>2019-01-18T10:43:10.000Z</time>
      </trkpt>
      <trkpt lat="43.33648" lon="5.68548">
        <ele>555</ele>
        <time>2019-01-18T10:43:11.000Z</time>
      </trkpt>
      <trkpt lat="43.33648" lon="5.68548">
        <ele>555</ele>
        <time>2019-01-18T10:43:12.000Z</time>
      </trkpt>
      <trkpt lat="43.33649" lon="5.68548">
        <ele>555</ele>
        <time>2019-01-18T10:43:13.000Z</time>
      </trkpt>
      <trkpt lat="43.33649" lon="5.68548">
        <ele>555</ele>
        <time>2019-01-18T10:43:14.000Z</time>
      </trkpt>
      <trkpt lat="43.33649" lon="5.68548">
        <ele>556</ele>
        <time>2019-01-18T10:43:15.000Z</time>
      </trkpt>
      <trkpt lat="43.33649" lon="5.68549">
        <ele>556</ele>
        <time>2019-01-18T10:43:16.000Z</time>
      </trkpt>
      <trkpt lat="43.3365" lon="5.68549">
        <ele>556</ele>
        <time>2019-01-18T10:43:17.000Z</time>
      </trkpt>
      <trkpt lat="43.3365" lon="5.6855">
        <ele>556</ele>
        <time>2019-01-18T10:43:18.000Z</time>
      </trkpt>
      <trkpt lat="43.3365" lon="5.6855">
        <ele>556</ele>
        <time>2019-01-18T10:43:19.000Z</time>
      </trkpt>
      <trkpt lat="43.3365" lon="5.6855">
        <ele>556</ele>
        <time>2019-01-18T10:43:20.000Z</time>
      </trkpt>
      <trkpt lat="43.3365" lon="5.6855">
        <ele>556</ele>
        <time>2019-01-18T10:43:21.000Z</time>
      </trkpt>
      <trkpt lat="43.3365" lon="5.6855">
        <ele>556</ele>
        <time>2019-01-18T10:43:22.000Z</time>
      </trkpt>
      <trkpt lat="43.3365" lon="5.6855">
        <ele>556</ele>
        <time>2019-01-18T10:43:23.000Z</time>
      </trkpt>
      <trkpt lat="43.3365" lon="5.6855">
        <ele>556</ele>
        <time>2019-01-18T10:43:24.000Z</time>
      </trkpt>
      <trkpt lat="43.3365" lon="5.6855">
        <ele>556</ele>
        <time>2019-01-18T10:43:25.000Z</time>
      </trkpt>
      <trkpt lat="43.3365" lon="5.6855">
        <ele>557</ele>
        <time>2019-01-18T10:43:26.000Z</time>
      </trkpt>
      <trkpt lat="43.3365" lon="5.6855">
        <ele>557</ele>
        <time>2019-01-18T10:43:27.000Z</time>
      </trkpt>
      <trkpt lat="43.33651" lon="5.6855">
        <ele>557</ele>
        <time>2019-01-18T10:43:28.000Z</time>
      </trkpt>
      <trkpt lat="43.33651" lon="5.68551">
        <ele>557</ele>
        <time>2019-01-18T10:43:29.000Z</time>
      </trkpt>
      <trkpt lat="43.33651" lon="5.68551">
        <ele>557</ele>
        <time>2019-01-18T10:43:30.000Z</time>
      </trkpt>
      <trkpt lat="43.33651" lon="5.68552">
        <ele>557</ele>
        <time>2019-01-18T10:43:31.000Z</time>
      </trkpt>
      <trkpt lat="43.33651" lon="5.68552">
        <ele>557</ele>
        <time>2019-01-18T10:43:32.000Z</time>
      </trkpt>
      <trkpt lat="43.33651" lon="5.68553">
        <ele>558</ele>
        <time>2019-01-18T10:43:33.000Z</time>
      </trkpt>
      <trkpt lat="43.33651" lon="5.68553">
        <ele>558</ele>
        <time>2019-01-18T10:43:34.000Z</time>
      </trkpt>
      <trkpt lat="43.33651" lon="5.68553">
        <ele>558</ele>
        <time>2019-01-18T10:43:35.000Z</time>
      </trkpt>
      <trkpt lat="43.33651" lon="5.68553">
        <ele>558</ele>
        <time>2019-01-18T10:43:36.000Z</time>
      </trkpt>
      <trkpt lat="43.33651" lon="5.68553">
        <ele>558</ele>
        <time>2019-01-18T10:43:37.000Z</time>
      </trkpt>
      <trkpt lat="43.33651" lon="5.68553">
        <ele>558</ele>
        <time>2019-01-18T10:43:38.000Z</time>
      </trkpt>
      <trkpt lat="43.33651" lon="5.68553">
        <ele>558</ele>
        <time>2019-01-18T10:43:39.000Z</time>
      </trkpt>
      <trkpt lat="43.33651" lon="5.68553">
        <ele>558</ele>
        <time>2019-01-18T10:43:40.000Z</time>
      </trkpt>
      <trkpt lat="43.33652" lon="5.68553">
        <ele>558</ele>
        <time>2019-01-18T10:43:41.000Z</time>
      </trkpt>
      <trkpt lat="43.33652" lon="5.68552">
        <ele>558</ele>
        <time>2019-01-18T10:43:42.000Z</time>
      </trkpt>
      <trkpt lat="43.33652" lon="5.68552">
        <ele>558</ele>
        <time>2019-01-18T10:43:43.000Z</time>
      </trkpt>
      <trkpt lat="43.33653" lon="5.68552">
        <ele>558</ele>
        <time>2019-01-18T10:43:44.000Z</time>
      </trkpt>
      <trkpt lat="43.33653" lon="5.68552">
        <ele>558</ele>
        <time>2019-01-18T10:43:45.000Z</time>
      </trkpt>
      <trkpt lat="43.33654" lon="5.68553">
        <ele>558</ele>
        <time>2019-01-18T10:43:46.000Z</time>
      </trkpt>
      <trkpt lat="43.33654" lon="5.68553">
        <ele>558</ele>
        <time>2019-01-18T10:43:47.000Z</time>
      </trkpt>
      <trkpt lat="43.33654" lon="5.68553">
        <ele>558</ele>
        <time>2019-01-18T10:43:48.000Z</time>
      </trkpt>
      <trkpt lat="43.33655" lon="5.68553">
        <ele>559</ele>
        <time>2019-01-18T10:43:49.000Z</time>
      </trkpt>
      <trkpt lat="43.33655" lon="5.68553">
        <ele>559</ele>
        <time>2019-01-18T10:43:50.000Z</time>
      </trkpt>
      <trkpt lat="43.33656" lon="5.68553">
        <ele>559</ele>
        <time>2019-01-18T10:43:51.000Z</time>
      </trkpt>
      <trkpt lat="43.33656" lon="5.68553">
        <ele>559</ele>
        <time>2019-01-18T10:43:52.000Z</time>
      </trkpt>
      <trkpt lat="43.33656" lon="5.68553">
        <ele>559</ele>
        <time>2019-01-18T10:43:53.000Z</time>
      </trkpt>
      <trkpt lat="43.33656" lon="5.68553">
        <ele>559</ele>
        <time>2019-01-18T10:43:54.000Z</time>
      </trkpt>
      <trkpt lat="43.33656" lon="5.68553">
        <ele>560</ele>
        <time>2019-01-18T10:43:55.000Z</time>
      </trkpt>
      <trkpt lat="43.33657" lon="5.68553">
        <ele>560</ele>
        <time>2019-01-18T10:43:56.000Z</time>
      </trkpt>
      <trkpt lat="43.33657" lon="5.68554">
        <ele>560</ele>
        <time>2019-01-18T10:43:57.000Z</time>
      </trkpt>
      <trkpt lat="43.33657" lon="5.68554">
        <ele>560</ele>
        <time>2019-01-18T10:43:58.000Z</time>
      </trkpt>
      <trkpt lat="43.33657" lon="5.68555">
        <ele>560</ele>
        <time>2019-01-18T10:43:59.000Z</time>
      </trkpt>
      <trkpt lat="43.33657" lon="5.68555">
        <ele>561</ele>
        <time>2019-01-18T10:44:00.000Z</time>
      </trkpt>
      <trkpt lat="43.33658" lon="5.68556">
        <ele>561</ele>
        <time>2019-01-18T10:44:01.000Z</time>
      </trkpt>
      <trkpt lat="43.33658" lon="5.68557">
        <ele>561</ele>
        <time>2019-01-18T10:44:02.000Z</time>
      </trkpt>
      <trkpt lat="43.33658" lon="5.68557">
        <ele>561</ele>
        <time>2019-01-18T10:44:03.000Z</time>
      </trkpt>
      <trkpt lat="43.33658" lon="5.68558">
        <ele>561</ele>
        <time>2019-01-18T10:44:04.000Z</time>
      </trkpt>
      <trkpt lat="43.33659" lon="5.68558">
        <ele>561</ele>
        <time>2019-01-18T10:44:05.000Z</time>
      </trkpt>
      <trkpt lat="43.33659" lon="5.68559">
        <ele>561</ele>
        <time>2019-01-18T10:44:06.000Z</time>
      </trkpt>
      <trkpt lat="43.33659" lon="5.68559">
        <ele>562</ele>
        <time>2019-01-18T10:44:07.000Z</time>
      </trkpt>
      <trkpt lat="43.33659" lon="5.68559">
        <ele>562</ele>
        <time>2019-01-18T10:44:08.000Z</time>
      </trkpt>
      <trkpt lat="43.3366" lon="5.6856">
        <ele>562</ele>
        <time>2019-01-18T10:44:09.000Z</time>
      </trkpt>
      <trkpt lat="43.3366" lon="5.6856">
        <ele>562</ele>
        <time>2019-01-18T10:44:10.000Z</time>
      </trkpt>
      <trkpt lat="43.3366" lon="5.68561">
        <ele>562</ele>
        <time>2019-01-18T10:44:11.000Z</time>
      </trkpt>
      <trkpt lat="43.3366" lon="5.68561">
        <ele>562</ele>
        <time>2019-01-18T10:44:12.000Z</time>
      </trkpt>
      <trkpt lat="43.3366" lon="5.68562">
        <ele>562</ele>
        <time>2019-01-18T10:44:13.000Z</time>
      </trkpt>
      <trkpt lat="43.33661" lon="5.68562">
        <ele>562</ele>
        <time>2019-01-18T10:44:14.000Z</time>
      </trkpt>
      <trkpt lat="43.33661" lon="5.68562">
        <ele>563</ele>
        <time>2019-01-18T10:44:15.000Z</time>
      </trkpt>
      <trkpt lat="43.33661" lon="5.68562">
        <ele>563</ele>
        <time>2019-01-18T10:44:16.000Z</time>
      </trkpt>
      <trkpt lat="43.33661" lon="5.68562">
        <ele>563</ele>
        <time>2019-01-18T10:44:17.000Z</time>
      </trkpt>
      <trkpt lat="43.33662" lon="5.68562">
        <ele>563</ele>
        <time>2019-01-18T10:44:18.000Z</time>
      </trkpt>
      <trkpt lat="43.33662" lon="5.68562">
        <ele>563</ele>
        <time>2019-01-18T10:44:19.000Z</time>
      </trkpt>
      <trkpt lat="43.33662" lon="5.68562">
        <ele>563</ele>
        <time>2019-01-18T10:44:20.000Z</time>
      </trkpt>
      <trkpt lat="43.33662" lon="5.68562">
        <ele>563</ele>
        <time>2019-01-18T10:44:21.000Z</time>
      </trkpt>
      <trkpt lat="43.33663" lon="5.68562">
        <ele>564</ele>
        <time>2019-01-18T10:44:22.000Z</time>
      </trkpt>
      <trkpt lat="43.33663" lon="5.68562">
        <ele>564</ele>
        <time>2019-01-18T10:44:23.000Z</time>
      </trkpt>
      <trkpt lat="43.33663" lon="5.68562">
        <ele>564</ele>
        <time>2019-01-18T10:44:24.000Z</time>
      </trkpt>
      <trkpt lat="43.33663" lon="5.68562">
        <ele>564</ele>
        <time>2019-01-18T10:44:25.000Z</time>
      </trkpt>
      <trkpt lat="43.33663" lon="5.68562">
        <ele>564</ele>
        <time>2019-01-18T10:44:26.000Z</time>
      </trkpt>
      <trkpt lat="43.33663" lon="5.68562">
        <ele>564</ele>
        <time>2019-01-18T10:44:27.000Z</time>
      </trkpt>
      <trkpt lat="43.33663" lon="5.68562">
        <ele>564</ele>
        <time>2019-01-18T10:44:28.000Z</time>
      </trkpt>
      <trkpt lat="43.33663" lon="5.68562">
        <ele>564</ele>
        <time>2019-01-18T10:44:29.000Z</time>
      </trkpt>
      <trkpt lat="43.33664" lon="5.68563">
        <ele>564</ele>
        <time>2019-01-18T10:44:30.000Z</time>
      </trkpt>
      <trkpt lat="43.33664" lon="5.68563">
        <ele>564</ele>
        <time>2019-01-18T10:44:31.000Z</time>
      </trkpt>
      <trkpt lat="43.33664" lon="5.68564">
        <ele>564</ele>
        <time>2019-01-18T10:44:32.000Z</time>
      </trkpt>
      <trkpt lat="43.33664" lon="5.68564">
        <ele>564</ele>
        <time>2019-01-18T10:44:33.000Z</time>
      </trkpt>
      <trkpt lat="43.33665" lon="5.68565">
        <ele>565</ele>
        <time>2019-01-18T10:44:34.000Z</time>
      </trkpt>
      <trkpt lat="43.33665" lon="5.68565">
        <ele>565</ele>
        <time>2019-01-18T10:44:35.000Z</time>
      </trkpt>
      <trkpt lat="43.33665" lon="5.68565">
        <ele>565</ele>
        <time>2019-01-18T10:44:36.000Z</time>
      </trkpt>
      <trkpt lat="43.33665" lon="5.68565">
        <ele>565</ele>
        <time>2019-01-18T10:44:37.000Z</time>
      </trkpt>
      <trkpt lat="43.33665" lon="5.68565">
        <ele>565</ele>
        <time>2019-01-18T10:44:38.000Z</time>
      </trkpt>
      <trkpt lat="43.33666" lon="5.68565">
        <ele>566</ele>
        <time>2019-01-18T10:44:39.000Z</time>
      </trkpt>
      <trkpt lat="43.33666" lon="5.68565">
        <ele>566</ele>
        <time>2019-01-18T10:44:40.000Z</time>
      </trkpt>
      <trkpt lat="43.33666" lon="5.68565">
        <ele>566</ele>
        <time>2019-01-18T10:44:41.000Z</time>
      </trkpt>
      <trkpt lat="43.33667" lon="5.68565">
        <ele>566</ele>
        <time>2019-01-18T10:44:42.000Z</time>
      </trkpt>
      <trkpt lat="43.33667" lon="5.68565">
        <ele>566</ele>
        <time>2019-01-18T10:44:43.000Z</time>
      </trkpt>
      <trkpt lat="43.33667" lon="5.68565">
        <ele>567</ele>
        <time>2019-01-18T10:44:44.000Z</time>
      </trkpt>
      <trkpt lat="43.33667" lon="5.68566">
        <ele>567</ele>
        <time>2019-01-18T10:44:45.000Z</time>
      </trkpt>
      <trkpt lat="43.33667" lon="5.68566">
        <ele>567</ele>
        <time>2019-01-18T10:44:46.000Z</time>
      </trkpt>
      <trkpt lat="43.33668" lon="5.68566">
        <ele>567</ele>
        <time>2019-01-18T10:44:47.000Z</time>
      </trkpt>
      <trkpt lat="43.33668" lon="5.68567">
        <ele>567</ele>
        <time>2019-01-18T10:44:48.000Z</time>
      </trkpt>
      <trkpt lat="43.33668" lon="5.68567">
        <ele>567</ele>
        <time>2019-01-18T10:44:49.000Z</time>
      </trkpt>
      <trkpt lat="43.33669" lon="5.68567">
        <ele>567</ele>
        <time>2019-01-18T10:44:50.000Z</time>
      </trkpt>
      <trkpt lat="43.33669" lon="5.68568">
        <ele>568</ele>
        <time>2019-01-18T10:44:51.000Z</time>
      </trkpt>
      <trkpt lat="43.33669" lon="5.68568">
        <ele>568</ele>
        <time>2019-01-18T10:44:52.000Z</time>
      </trkpt>
      <trkpt lat="43.33669" lon="5.68568">
        <ele>568</ele>
        <time>2019-01-18T10:44:53.000Z</time>
      </trkpt>
      <trkpt lat="43.3367" lon="5.68568">
        <ele>568</ele>
        <time>2019-01-18T10:44:54.000Z</time>
      </trkpt>
      <trkpt lat="43.3367" lon="5.68568">
        <ele>568</ele>
        <time>2019-01-18T10:44:55.000Z</time>
      </trkpt>
      <trkpt lat="43.3367" lon="5.68568">
        <ele>568</ele>
        <time>2019-01-18T10:44:56.000Z</time>
      </trkpt>
      <trkpt lat="43.3367" lon="5.68568">
        <ele>568</ele>
        <time>2019-01-18T10:44:57.000Z</time>
      </trkpt>
      <trkpt lat="43.3367" lon="5.68568">
        <ele>569</ele>
        <time>2019-01-18T10:44:58.000Z</time>
      </trkpt>
      <trkpt lat="43.3367" lon="5.68568">
        <ele>569</ele>
        <time>2019-01-18T10:44:59.000Z</time>
      </trkpt>
      <trkpt lat="43.3367" lon="5.68568">
        <ele>569</ele>
        <time>2019-01-18T10:45:00.000Z</time>
      </trkpt>
      <trkpt lat="43.3367" lon="5.68568">
        <ele>569</ele>
        <time>2019-01-18T10:45:01.000Z</time>
      </trkpt>
      <trkpt lat="43.3367" lon="5.68568">
        <ele>569</ele>
        <time>2019-01-18T10:45:02.000Z</time>
      </trkpt>
      <trkpt lat="43.3367" lon="5.68568">
        <ele>569</ele>
        <time>2019-01-18T10:45:03.000Z</time>
      </trkpt>
      <trkpt lat="43.33671" lon="5.68567">
        <ele>569</ele>
        <time>2019-01-18T10:45:04.000Z</time>
      </trkpt>
      <trkpt lat="43.33671" lon="5.68567">
        <ele>569</ele>
        <time>2019-01-18T10:45:05.000Z</time>
      </trkpt>
      <trkpt lat="43.33671" lon="5.68567">
        <ele>569</ele>
        <time>2019-01-18T10:45:06.000Z</time>
      </trkpt>
      <trkpt lat="43.33671" lon="5.68567">
        <ele>569</ele>
        <time>2019-01-18T10:45:07.000Z</time>
      </trkpt>
      <trkpt lat="43.33671" lon="5.68567">
        <ele>569</ele>
        <time>2019-01-18T10:45:08.000Z</time>
      </trkpt>
      <trkpt lat="43.33671" lon="5.68567">
        <ele>569</ele>
        <time>2019-01-18T10:45:09.000Z</time>
      </trkpt>
      <trkpt lat="43.33672" lon="5.68566">
        <ele>569</ele>
        <time>2019-01-18T10:45:10.000Z</time>
      </trkpt>
      <trkpt lat="43.33672" lon="5.68566">
        <ele>569</ele>
        <time>2019-01-18T10:45:11.000Z</time>
      </trkpt>
      <trkpt lat="43.33672" lon="5.68566">
        <ele>569</ele>
        <time>2019-01-18T10:45:12.000Z</time>
      </trkpt>
      <trkpt lat="43.33673" lon="5.68566">
        <ele>569</ele>
        <time>2019-01-18T10:45:13.000Z</time>
      </trkpt>
      <trkpt lat="43.33673" lon="5.68567">
        <ele>569</ele>
        <time>2019-01-18T10:45:14.000Z</time>
      </trkpt>
      <trkpt lat="43.33673" lon="5.68567">
        <ele>569</ele>
        <time>2019-01-18T10:45:15.000Z</time>
      </trkpt>
      <trkpt lat="43.33673" lon="5.68567">
        <ele>569</ele>
        <time>2019-01-18T10:45:16.000Z</time>
      </trkpt>
      <trkpt lat="43.33674" lon="5.68568">
        <ele>569</ele>
        <time>2019-01-18T10:45:17.000Z</time>
      </trkpt>
      <trkpt lat="43.33674" lon="5.68569">
        <ele>570</ele>
        <time>2019-01-18T10:45:18.000Z</time>
      </trkpt>
      <trkpt lat="43.33674" lon="5.6857">
        <ele>570</ele>
        <time>2019-01-18T10:45:19.000Z</time>
      </trkpt>
      <trkpt lat="43.33675" lon="5.68571">
        <ele>570</ele>
        <time>2019-01-18T10:45:20.000Z</time>
      </trkpt>
      <trkpt lat="43.33675" lon="5.68571">
        <ele>570</ele>
        <time>2019-01-18T10:45:21.000Z</time>
      </trkpt>
      <trkpt lat="43.33675" lon="5.68572">
        <ele>570</ele>
        <time>2019-01-18T10:45:22.000Z</time>
      </trkpt>
      <trkpt lat="43.33675" lon="5.68572">
        <ele>570</ele>
        <time>2019-01-18T10:45:23.000Z</time>
      </trkpt>
      <trkpt lat="43.33675" lon="5.68573">
        <ele>570</ele>
        <time>2019-01-18T10:45:24.000Z</time>
      </trkpt>
      <trkpt lat="43.33676" lon="5.68573">
        <ele>571</ele>
        <time>2019-01-18T10:45:25.000Z</time>
      </trkpt>
      <trkpt lat="43.33676" lon="5.68572">
        <ele>571</ele>
        <time>2019-01-18T10:45:26.000Z</time>
      </trkpt>
      <trkpt lat="43.33676" lon="5.68573">
        <ele>571</ele>
        <time>2019-01-18T10:45:27.000Z</time>
      </trkpt>
      <trkpt lat="43.33676" lon="5.68574">
        <ele>571</ele>
        <time>2019-01-18T10:45:28.000Z</time>
      </trkpt>
      <trkpt lat="43.33676" lon="5.68575">
        <ele>571</ele>
        <time>2019-01-18T10:45:29.000Z</time>
      </trkpt>
      <trkpt lat="43.33676" lon="5.68575">
        <ele>571</ele>
        <time>2019-01-18T10:45:30.000Z</time>
      </trkpt>
      <trkpt lat="43.33676" lon="5.68575">
        <ele>571</ele>
        <time>2019-01-18T10:45:31.000Z</time>
      </trkpt>
      <trkpt lat="43.33676" lon="5.68575">
        <ele>571</ele>
        <time>2019-01-18T10:45:32.000Z</time>
      </trkpt>
      <trkpt lat="43.33676" lon="5.68576">
        <ele>571</ele>
        <time>2019-01-18T10:45:33.000Z</time>
      </trkpt>
      <trkpt lat="43.33677" lon="5.68576">
        <ele>572</ele>
        <time>2019-01-18T10:45:34.000Z</time>
      </trkpt>
      <trkpt lat="43.33677" lon="5.68577">
        <ele>572</ele>
        <time>2019-01-18T10:45:35.000Z</time>
      </trkpt>
      <trkpt lat="43.33677" lon="5.68578">
        <ele>572</ele>
        <time>2019-01-18T10:45:36.000Z</time>
      </trkpt>
      <trkpt lat="43.33676" lon="5.68579">
        <ele>572</ele>
        <time>2019-01-18T10:45:37.000Z</time>
      </trkpt>
      <trkpt lat="43.33676" lon="5.68579">
        <ele>572</ele>
        <time>2019-01-18T10:45:38.000Z</time>
      </trkpt>
      <trkpt lat="43.33676" lon="5.6858">
        <ele>572</ele>
        <time>2019-01-18T10:45:39.000Z</time>
      </trkpt>
      <trkpt lat="43.33675" lon="5.68581">
        <ele>572</ele>
        <time>2019-01-18T10:45:40.000Z</time>
      </trkpt>
      <trkpt lat="43.33675" lon="5.68582">
        <ele>572</ele>
        <time>2019-01-18T10:45:41.000Z</time>
      </trkpt>
      <trkpt lat="43.33675" lon="5.68583">
        <ele>572</ele>
        <time>2019-01-18T10:45:42.000Z</time>
      </trkpt>
      <trkpt lat="43.33675" lon="5.68584">
        <ele>572</ele>
        <time>2019-01-18T10:45:43.000Z</time>
      </trkpt>
      <trkpt lat="43.33675" lon="5.68585">
        <ele>572</ele>
        <time>2019-01-18T10:45:44.000Z</time>
      </trkpt>
      <trkpt lat="43.33675" lon="5.68586">
        <ele>572</ele>
        <time>2019-01-18T10:45:45.000Z</time>
      </trkpt>
      <trkpt lat="43.33675" lon="5.68587">
        <ele>573</ele>
        <time>2019-01-18T10:45:46.000Z</time>
      </trkpt>
      <trkpt lat="43.33675" lon="5.68588">
        <ele>573</ele>
        <time>2019-01-18T10:45:47.000Z</time>
      </trkpt>
      <trkpt lat="43.33675" lon="5.68589">
        <ele>573</ele>
        <time>2019-01-18T10:45:48.000Z</time>
      </trkpt>
      <trkpt lat="43.33675" lon="5.68589">
        <ele>573</ele>
        <time>2019-01-18T10:45:49.000Z</time>
      </trkpt>
      <trkpt lat="43.33675" lon="5.6859">
        <ele>573</ele>
        <time>2019-01-18T10:45:50.000Z</time>
      </trkpt>
      <trkpt lat="43.33675" lon="5.68591">
        <ele>573</ele>
        <time>2019-01-18T10:45:51.000Z</time>
      </trkpt>
      <trkpt lat="43.33675" lon="5.68593">
        <ele>573</ele>
        <time>2019-01-18T10:45:52.000Z</time>
      </trkpt>
      <trkpt lat="43.33675" lon="5.68593">
        <ele>573</ele>
        <time>2019-01-18T10:45:53.000Z</time>
      </trkpt>
      <trkpt lat="43.33675" lon="5.68594">
        <ele>573</ele>
        <time>2019-01-18T10:45:54.000Z</time>
      </trkpt>
      <trkpt lat="43.33675" lon="5.68594">
        <ele>573</ele>
        <time>2019-01-18T10:45:55.000Z</time>
      </trkpt>
      <trkpt lat="43.33675" lon="5.68595">
        <ele>573</ele>
        <time>2019-01-18T10:45:56.000Z</time>
      </trkpt>
      <trkpt lat="43.33675" lon="5.68595">
        <ele>573</ele>
        <time>2019-01-18T10:45:57.000Z</time>
      </trkpt>
      <trkpt lat="43.33675" lon="5.68596">
        <ele>573</ele>
        <time>2019-01-18T10:45:58.000Z</time>
      </trkpt>
      <trkpt lat="43.33674" lon="5.68596">
        <ele>573</ele>
        <time>2019-01-18T10:45:59.000Z</time>
      </trkpt>
      <trkpt lat="43.33674" lon="5.68597">
        <ele>573</ele>
        <time>2019-01-18T10:46:00.000Z</time>
      </trkpt>
      <trkpt lat="43.33674" lon="5.68597">
        <ele>573</ele>
        <time>2019-01-18T10:46:01.000Z</time>
      </trkpt>
      <trkpt lat="43.33674" lon="5.68597">
        <ele>573</ele>
        <time>2019-01-18T10:46:02.000Z</time>
      </trkpt>
      <trkpt lat="43.33673" lon="5.68598">
        <ele>573</ele>
        <time>2019-01-18T10:46:03.000Z</time>
      </trkpt>
      <trkpt lat="43.33673" lon="5.68599">
        <ele>573</ele>
        <time>2019-01-18T10:46:04.000Z</time>
      </trkpt>
      <trkpt lat="43.33673" lon="5.68599">
        <ele>573</ele>
        <time>2019-01-18T10:46:05.000Z</time>
      </trkpt>
      <trkpt lat="43.33673" lon="5.68599">
        <ele>573</ele>
        <time>2019-01-18T10:46:06.000Z</time>
      </trkpt>
      <trkpt lat="43.33672" lon="5.686">
        <ele>573</ele>
        <time>2019-01-18T10:46:07.000Z</time>
      </trkpt>
      <trkpt lat="43.33672" lon="5.686">
        <ele>573</ele>
        <time>2019-01-18T10:46:08.000Z</time>
      </trkpt>
      <trkpt lat="43.33672" lon="5.68601">
        <ele>572</ele>
        <time>2019-01-18T10:46:09.000Z</time>
      </trkpt>
      <trkpt lat="43.33672" lon="5.68601">
        <ele>572</ele>
        <time>2019-01-18T10:46:10.000Z</time>
      </trkpt>
      <trkpt lat="43.33671" lon="5.68602">
        <ele>572</ele>
        <time>2019-01-18T10:46:11.000Z</time>
      </trkpt>
      <trkpt lat="43.33671" lon="5.68602">
        <ele>572</ele>
        <time>2019-01-18T10:46:12.000Z</time>
      </trkpt>
      <trkpt lat="43.33671" lon="5.68602">
        <ele>572</ele>
        <time>2019-01-18T10:46:13.000Z</time>
      </trkpt>
      <trkpt lat="43.33671" lon="5.68602">
        <ele>572</ele>
        <time>2019-01-18T10:46:14.000Z</time>
      </trkpt>
      <trkpt lat="43.3367" lon="5.68602">
        <ele>572</ele>
        <time>2019-01-18T10:46:15.000Z</time>
      </trkpt>
      <trkpt lat="43.3367" lon="5.68603">
        <ele>572</ele>
        <time>2019-01-18T10:46:16.000Z</time>
      </trkpt>
      <trkpt lat="43.3367" lon="5.68603">
        <ele>572</ele>
        <time>2019-01-18T10:46:17.000Z</time>
      </trkpt>
      <trkpt lat="43.33669" lon="5.68603">
        <ele>572</ele>
        <time>2019-01-18T10:46:18.000Z</time>
      </trkpt>
      <trkpt lat="43.33669" lon="5.68603">
        <ele>572</ele>
        <time>2019-01-18T10:46:19.000Z</time>
      </trkpt>
      <trkpt lat="43.33669" lon="5.68603">
        <ele>571</ele>
        <time>2019-01-18T10:46:20.000Z</time>
      </trkpt>
      <trkpt lat="43.33669" lon="5.68603">
        <ele>571</ele>
        <time>2019-01-18T10:46:21.000Z</time>
      </trkpt>
      <trkpt lat="43.33668" lon="5.68603">
        <ele>571</ele>
        <time>2019-01-18T10:46:22.000Z</time>
      </trkpt>
      <trkpt lat="43.33668" lon="5.68602">
        <ele>571</ele>
        <time>2019-01-18T10:46:23.000Z</time>
      </trkpt>
      <trkpt lat="43.33668" lon="5.68602">
        <ele>571</ele>
        <time>2019-01-18T10:46:24.000Z</time>
      </trkpt>
      <trkpt lat="43.33667" lon="5.68602">
        <ele>571</ele>
        <time>2019-01-18T10:46:25.000Z</time>
      </trkpt>
      <trkpt lat="43.33667" lon="5.68601">
        <ele>570</ele>
        <time>2019-01-18T10:46:26.000Z</time>
      </trkpt>
      <trkpt lat="43.33667" lon="5.68601">
        <ele>570</ele>
        <time>2019-01-18T10:46:27.000Z</time>
      </trkpt>
      <trkpt lat="43.33667" lon="5.68601">
        <ele>570</ele>
        <time>2019-01-18T10:46:28.000Z</time>
      </trkpt>
      <trkpt lat="43.33666" lon="5.68601">
        <ele>570</ele>
        <time>2019-01-18T10:46:29.000Z</time>
      </trkpt>
      <trkpt lat="43.33666" lon="5.68601">
        <ele>570</ele>
        <time>2019-01-18T10:46:30.000Z</time>
      </trkpt>
      <trkpt lat="43.33666" lon="5.68601">
        <ele>570</ele>
        <time>2019-01-18T10:46:31.000Z</time>
      </trkpt>
      <trkpt lat="43.33666" lon="5.68601">
        <ele>570</ele>
        <time>2019-01-18T10:46:32.000Z</time>
      </trkpt>
      <trkpt lat="43.33666" lon="5.68601">
        <ele>570</ele>
        <time>2019-01-18T10:46:33.000Z</time>
      </trkpt>
      <trkpt lat="43.33666" lon="5.68601">
        <ele>570</ele>
        <time>2019-01-18T10:46:34.000Z</time>
      </trkpt>
      <trkpt lat="43.33666" lon="5.68601">
        <ele>570</ele>
        <time>2019-01-18T10:46:35.000Z</time>
      </trkpt>
      <trkpt lat="43.33666" lon="5.68601">
        <ele>569</ele>
        <time>2019-01-18T10:46:36.000Z</time>
      </trkpt>
      <trkpt lat="43.33666" lon="5.68601">
        <ele>569</ele>
        <time>2019-01-18T10:46:37.000Z</time>
      </trkpt>
      <trkpt lat="43.33665" lon="5.68602">
        <ele>569</ele>
        <time>2019-01-18T10:46:38.000Z</time>
      </trkpt>
      <trkpt lat="43.33665" lon="5.68602">
        <ele>569</ele>
        <time>2019-01-18T10:46:39.000Z</time>
      </trkpt>
      <trkpt lat="43.33665" lon="5.68601">
        <ele>569</ele>
        <time>2019-01-18T10:46:40.000Z</time>
      </trkpt>
      <trkpt lat="43.33665" lon="5.68601">
        <ele>569</ele>
        <time>2019-01-18T10:46:41.000Z</time>
      </trkpt>
      <trkpt lat="43.33665" lon="5.68602">
        <ele>569</ele>
        <time>2019-01-18T10:46:42.000Z</time>
      </trkpt>
      <trkpt lat="43.33665" lon="5.68602">
        <ele>569</ele>
        <time>2019-01-18T10:46:43.000Z</time>
      </trkpt>
      <trkpt lat="43.33664" lon="5.68601">
        <ele>569</ele>
        <time>2019-01-18T10:46:44.000Z</time>
      </trkpt>
      <trkpt lat="43.33664" lon="5.68601">
        <ele>569</ele>
        <time>2019-01-18T10:46:45.000Z</time>
      </trkpt>
      <trkpt lat="43.33663" lon="5.68601">
        <ele>569</ele>
        <time>2019-01-18T10:46:46.000Z</time>
      </trkpt>
      <trkpt lat="43.33663" lon="5.686">
        <ele>569</ele>
        <time>2019-01-18T10:46:47.000Z</time>
      </trkpt>
      <trkpt lat="43.33663" lon="5.686">
        <ele>569</ele>
        <time>2019-01-18T10:46:48.000Z</time>
      </trkpt>
      <trkpt lat="43.33663" lon="5.686">
        <ele>568</ele>
        <time>2019-01-18T10:46:49.000Z</time>
      </trkpt>
      <trkpt lat="43.33663" lon="5.686">
        <ele>568</ele>
        <time>2019-01-18T10:46:50.000Z</time>
      </trkpt>
      <trkpt lat="43.33663" lon="5.686">
        <ele>568</ele>
        <time>2019-01-18T10:46:51.000Z</time>
      </trkpt>
      <trkpt lat="43.33662" lon="5.686">
        <ele>568</ele>
        <time>2019-01-18T10:46:52.000Z</time>
      </trkpt>
      <trkpt lat="43.33662" lon="5.686">
        <ele>568</ele>
        <time>2019-01-18T10:46:53.000Z</time>
      </trkpt>
      <trkpt lat="43.33661" lon="5.686">
        <ele>568</ele>
        <time>2019-01-18T10:46:54.000Z</time>
      </trkpt>
      <trkpt lat="43.33661" lon="5.686">
        <ele>568</ele>
        <time>2019-01-18T10:46:55.000Z</time>
      </trkpt>
      <trkpt lat="43.33661" lon="5.686">
        <ele>568</ele>
        <time>2019-01-18T10:46:56.000Z</time>
      </trkpt>
      <trkpt lat="43.33661" lon="5.686">
        <ele>568</ele>
        <time>2019-01-18T10:46:57.000Z</time>
      </trkpt>
      <trkpt lat="43.33661" lon="5.686">
        <ele>568</ele>
        <time>2019-01-18T10:46:58.000Z</time>
      </trkpt>
      <trkpt lat="43.33661" lon="5.686">
        <ele>567</ele>
        <time>2019-01-18T10:46:59.000Z</time>
      </trkpt>
      <trkpt lat="43.33661" lon="5.686">
        <ele>567</ele>
        <time>2019-01-18T10:47:00.000Z</time>
      </trkpt>
      <trkpt lat="43.33661" lon="5.686">
        <ele>567</ele>
        <time>2019-01-18T10:47:01.000Z</time>
      </trkpt>
      <trkpt lat="43.3366" lon="5.686">
        <ele>567</ele>
        <time>2019-01-18T10:47:02.000Z</time>
      </trkpt>
      <trkpt lat="43.3366" lon="5.686">
        <ele>567</ele>
        <time>2019-01-18T10:47:03.000Z</time>
      </trkpt>
      <trkpt lat="43.3366" lon="5.686">
        <ele>567</ele>
        <time>2019-01-18T10:47:04.000Z</time>
      </trkpt>
      <trkpt lat="43.3366" lon="5.68599">
        <ele>567</ele>
        <time>2019-01-18T10:47:05.000Z</time>
      </trkpt>
      <trkpt lat="43.33659" lon="5.68599">
        <ele>567</ele>
        <time>2019-01-18T10:47:06.000Z</time>
      </trkpt>
      <trkpt lat="43.33659" lon="5.68599">
        <ele>567</ele>
        <time>2019-01-18T10:47:07.000Z</time>
      </trkpt>
      <trkpt lat="43.33659" lon="5.68599">
        <ele>566</ele>
        <time>2019-01-18T10:47:08.000Z</time>
      </trkpt>
      <trkpt lat="43.33659" lon="5.68599">
        <ele>566</ele>
        <time>2019-01-18T10:47:09.000Z</time>
      </trkpt>
      <trkpt lat="43.33658" lon="5.68598">
        <ele>566</ele>
        <time>2019-01-18T10:47:10.000Z</time>
      </trkpt>
      <trkpt lat="43.33658" lon="5.68597">
        <ele>566</ele>
        <time>2019-01-18T10:47:11.000Z</time>
      </trkpt>
      <trkpt lat="43.33658" lon="5.68597">
        <ele>566</ele>
        <time>2019-01-18T10:47:12.000Z</time>
      </trkpt>
      <trkpt lat="43.33658" lon="5.68597">
        <ele>566</ele>
        <time>2019-01-18T10:47:13.000Z</time>
      </trkpt>
      <trkpt lat="43.33658" lon="5.68597">
        <ele>566</ele>
        <time>2019-01-18T10:47:14.000Z</time>
      </trkpt>
      <trkpt lat="43.33657" lon="5.68597">
        <ele>566</ele>
        <time>2019-01-18T10:47:15.000Z</time>
      </trkpt>
      <trkpt lat="43.33657" lon="5.68597">
        <ele>566</ele>
        <time>2019-01-18T10:47:16.000Z</time>
      </trkpt>
      <trkpt lat="43.33657" lon="5.68597">
        <ele>566</ele>
        <time>2019-01-18T10:47:17.000Z</time>
      </trkpt>
      <trkpt lat="43.33657" lon="5.68597">
        <ele>565</ele>
        <time>2019-01-18T10:47:18.000Z</time>
      </trkpt>
      <trkpt lat="43.33657" lon="5.68597">
        <ele>565</ele>
        <time>2019-01-18T10:47:19.000Z</time>
      </trkpt>
      <trkpt lat="43.33657" lon="5.68597">
        <ele>565</ele>
        <time>2019-01-18T10:47:20.000Z</time>
      </trkpt>
      <trkpt lat="43.33657" lon="5.68597">
        <ele>565</ele>
        <time>2019-01-18T10:47:21.000Z</time>
      </trkpt>
      <trkpt lat="43.33657" lon="5.68597">
        <ele>565</ele>
        <time>2019-01-18T10:47:22.000Z</time>
      </trkpt>
      <trkpt lat="43.33656" lon="5.68597">
        <ele>565</ele>
        <time>2019-01-18T10:47:23.000Z</time>
      </trkpt>
      <trkpt lat="43.33656" lon="5.68597">
        <ele>566</ele>
        <time>2019-01-18T10:47:24.000Z</time>
      </trkpt>
      <trkpt lat="43.33656" lon="5.68597">
        <ele>566</ele>
        <time>2019-01-18T10:47:25.000Z</time>
      </trkpt>
      <trkpt lat="43.33656" lon="5.68597">
        <ele>566</ele>
        <time>2019-01-18T10:47:26.000Z</time>
      </trkpt>
      <trkpt lat="43.33655" lon="5.68597">
        <ele>566</ele>
        <time>2019-01-18T10:47:27.000Z</time>
      </trkpt>
      <trkpt lat="43.33655" lon="5.68597">
        <ele>566</ele>
        <time>2019-01-18T10:47:28.000Z</time>
      </trkpt>
      <trkpt lat="43.33655" lon="5.68597">
        <ele>566</ele>
        <time>2019-01-18T10:47:29.000Z</time>
      </trkpt>
      <trkpt lat="43.33655" lon="5.68597">
        <ele>566</ele>
        <time>2019-01-18T10:47:30.000Z</time>
      </trkpt>
      <trkpt lat="43.33655" lon="5.68597">
        <ele>565</ele>
        <time>2019-01-18T10:47:31.000Z</time>
      </trkpt>
      <trkpt lat="43.33654" lon="5.68597">
        <ele>565</ele>
        <time>2019-01-18T10:47:32.000Z</time>
      </trkpt>
      <trkpt lat="43.33654" lon="5.68597">
        <ele>565</ele>
        <time>2019-01-18T10:47:33.000Z</time>
      </trkpt>
      <trkpt lat="43.33654" lon="5.68597">
        <ele>565</ele>
        <time>2019-01-18T10:47:34.000Z</time>
      </trkpt>
      <trkpt lat="43.33654" lon="5.68597">
        <ele>565</ele>
        <time>2019-01-18T10:47:35.000Z</time>
      </trkpt>
      <trkpt lat="43.33654" lon="5.68597">
        <ele>565</ele>
        <time>2019-01-18T10:47:36.000Z</time>
      </trkpt>
      <trkpt lat="43.33654" lon="5.68597">
        <ele>565</ele>
        <time>2019-01-18T10:47:37.000Z</time>
      </trkpt>
      <trkpt lat="43.33653" lon="5.68597">
        <ele>565</ele>
        <time>2019-01-18T10:47:38.000Z</time>
      </trkpt>
      <trkpt lat="43.33653" lon="5.68597">
        <ele>565</ele>
        <time>2019-01-18T10:47:39.000Z</time>
      </trkpt>
      <trkpt lat="43.33653" lon="5.68597">
        <ele>565</ele>
        <time>2019-01-18T10:47:40.000Z</time>
      </trkpt>
      <trkpt lat="43.33653" lon="5.68597">
        <ele>565</ele>
        <time>2019-01-18T10:47:41.000Z</time>
      </trkpt>
      <trkpt lat="43.33652" lon="5.68597">
        <ele>565</ele>
        <time>2019-01-18T10:47:42.000Z</time>
      </trkpt>
      <trkpt lat="43.33652" lon="5.68597">
        <ele>564</ele>
        <time>2019-01-18T10:47:43.000Z</time>
      </trkpt>
      <trkpt lat="43.33652" lon="5.68597">
        <ele>564</ele>
        <time>2019-01-18T10:47:44.000Z</time>
      </trkpt>
      <trkpt lat="43.33652" lon="5.68597">
        <ele>564</ele>
        <time>2019-01-18T10:47:45.000Z</time>
      </trkpt>
      <trkpt lat="43.33651" lon="5.68596">
        <ele>564</ele>
        <time>2019-01-18T10:47:46.000Z</time>
      </trkpt>
      <trkpt lat="43.33651" lon="5.68597">
        <ele>564</ele>
        <time>2019-01-18T10:47:47.000Z</time>
      </trkpt>
      <trkpt lat="43.33651" lon="5.68597">
        <ele>564</ele>
        <time>2019-01-18T10:47:48.000Z</time>
      </trkpt>
      <trkpt lat="43.33651" lon="5.68597">
        <ele>564</ele>
        <time>2019-01-18T10:47:49.000Z</time>
      </trkpt>
      <trkpt lat="43.33651" lon="5.68597">
        <ele>564</ele>
        <time>2019-01-18T10:47:50.000Z</time>
      </trkpt>
      <trkpt lat="43.33651" lon="5.68597">
        <ele>564</ele>
        <time>2019-01-18T10:47:51.000Z</time>
      </trkpt>
      <trkpt lat="43.3365" lon="5.68597">
        <ele>564</ele>
        <time>2019-01-18T10:47:52.000Z</time>
      </trkpt>
      <trkpt lat="43.3365" lon="5.68597">
        <ele>564</ele>
        <time>2019-01-18T10:47:53.000Z</time>
      </trkpt>
      <trkpt lat="43.3365" lon="5.68597">
        <ele>564</ele>
        <time>2019-01-18T10:47:54.000Z</time>
      </trkpt>
      <trkpt lat="43.3365" lon="5.68597">
        <ele>564</ele>
        <time>2019-01-18T10:47:55.000Z</time>
      </trkpt>
      <trkpt lat="43.3365" lon="5.68597">
        <ele>564</ele>
        <time>2019-01-18T10:47:56.000Z</time>
      </trkpt>
      <trkpt lat="43.3365" lon="5.68597">
        <ele>564</ele>
        <time>2019-01-18T10:47:57.000Z</time>
      </trkpt>
      <trkpt lat="43.3365" lon="5.68597">
        <ele>564</ele>
        <time>2019-01-18T10:47:58.000Z</time>
      </trkpt>
      <trkpt lat="43.33649" lon="5.68597">
        <ele>564</ele>
        <time>2019-01-18T10:47:59.000Z</time>
      </trkpt>
      <trkpt lat="43.33649" lon="5.68597">
        <ele>564</ele>
        <time>2019-01-18T10:48:00.000Z</time>
      </trkpt>
      <trkpt lat="43.33649" lon="5.68597">
        <ele>564</ele>
        <time>2019-01-18T10:48:01.000Z</time>
      </trkpt>
      <trkpt lat="43.33648" lon="5.68597">
        <ele>563</ele>
        <time>2019-01-18T10:48:02.000Z</time>
      </trkpt>
      <trkpt lat="43.33648" lon="5.68598">
        <ele>563</ele>
        <time>2019-01-18T10:48:03.000Z</time>
      </trkpt>
      <trkpt lat="43.33648" lon="5.68598">
        <ele>563</ele>
        <time>2019-01-18T10:48:04.000Z</time>
      </trkpt>
      <trkpt lat="43.33648" lon="5.68598">
        <ele>563</ele>
        <time>2019-01-18T10:48:05.000Z</time>
      </trkpt>
      <trkpt lat="43.33648" lon="5.68598">
        <ele>563</ele>
        <time>2019-01-18T10:48:06.000Z</time>
      </trkpt>
      <trkpt lat="43.33648" lon="5.68598">
        <ele>563</ele>
        <time>2019-01-18T10:48:07.000Z</time>
      </trkpt>
      <trkpt lat="43.33647" lon="5.68598">
        <ele>563</ele>
        <time>2019-01-18T10:48:08.000Z</time>
      </trkpt>
      <trkpt lat="43.33647" lon="5.68598">
        <ele>563</ele>
        <time>2019-01-18T10:48:09.000Z</time>
      </trkpt>
      <trkpt lat="43.33647" lon="5.68598">
        <ele>563</ele>
        <time>2019-01-18T10:48:10.000Z</time>
      </trkpt>
      <trkpt lat="43.33647" lon="5.68599">
        <ele>563</ele>
        <time>2019-01-18T10:48:11.000Z</time>
      </trkpt>
      <trkpt lat="43.33647" lon="5.68599">
        <ele>562</ele>
        <time>2019-01-18T10:48:12.000Z</time>
      </trkpt>
      <trkpt lat="43.33647" lon="5.68599">
        <ele>562</ele>
        <time>2019-01-18T10:48:13.000Z</time>
      </trkpt>
      <trkpt lat="43.33646" lon="5.68599">
        <ele>562</ele>
        <time>2019-01-18T10:48:14.000Z</time>
      </trkpt>
      <trkpt lat="43.33646" lon="5.68599">
        <ele>562</ele>
        <time>2019-01-18T10:48:15.000Z</time>
      </trkpt>
      <trkpt lat="43.33646" lon="5.686">
        <ele>562</ele>
        <time>2019-01-18T10:48:16.000Z</time>
      </trkpt>
      <trkpt lat="43.33646" lon="5.686">
        <ele>562</ele>
        <time>2019-01-18T10:48:17.000Z</time>
      </trkpt>
      <trkpt lat="43.33645" lon="5.68601">
        <ele>562</ele>
        <time>2019-01-18T10:48:18.000Z</time>
      </trkpt>
      <trkpt lat="43.33645" lon="5.68601">
        <ele>562</ele>
        <time>2019-01-18T10:48:19.000Z</time>
      </trkpt>
      <trkpt lat="43.33645" lon="5.68601">
        <ele>562</ele>
        <time>2019-01-18T10:48:20.000Z</time>
      </trkpt>
      <trkpt lat="43.33645" lon="5.68601">
        <ele>562</ele>
        <time>2019-01-18T10:48:21.000Z</time>
      </trkpt>
      <trkpt lat="43.33645" lon="5.68602">
        <ele>562</ele>
        <time>2019-01-18T10:48:22.000Z</time>
      </trkpt>
      <trkpt lat="43.33644" lon="5.68602">
        <ele>562</ele>
        <time>2019-01-18T10:48:23.000Z</time>
      </trkpt>
      <trkpt lat="43.33644" lon="5.68603">
        <ele>562</ele>
        <time>2019-01-18T10:48:24.000Z</time>
      </trkpt>
      <trkpt lat="43.33644" lon="5.68604">
        <ele>562</ele>
        <time>2019-01-18T10:48:25.000Z</time>
      </trkpt>
      <trkpt lat="43.33644" lon="5.68604">
        <ele>562</ele>
        <time>2019-01-18T10:48:26.000Z</time>
      </trkpt>
      <trkpt lat="43.33644" lon="5.68604">
        <ele>561</ele>
        <time>2019-01-18T10:48:27.000Z</time>
      </trkpt>
      <trkpt lat="43.33643" lon="5.68605">
        <ele>561</ele>
        <time>2019-01-18T10:48:28.000Z</time>
      </trkpt>
      <trkpt lat="43.33643" lon="5.68606">
        <ele>561</ele>
        <time>2019-01-18T10:48:29.000Z</time>
      </trkpt>
      <trkpt lat="43.33643" lon="5.68607">
        <ele>561</ele>
        <time>2019-01-18T10:48:30.000Z</time>
      </trkpt>
      <trkpt lat="43.33643" lon="5.68608">
        <ele>561</ele>
        <time>2019-01-18T10:48:31.000Z</time>
      </trkpt>
      <trkpt lat="43.33642" lon="5.68608">
        <ele>560</ele>
        <time>2019-01-18T10:48:32.000Z</time>
      </trkpt>
      <trkpt lat="43.33642" lon="5.68609">
        <ele>560</ele>
        <time>2019-01-18T10:48:33.000Z</time>
      </trkpt>
      <trkpt lat="43.33641" lon="5.68608">
        <ele>560</ele>
        <time>2019-01-18T10:48:34.000Z</time>
      </trkpt>
      <trkpt lat="43.33641" lon="5.68608">
        <ele>560</ele>
        <time>2019-01-18T10:48:35.000Z</time>
      </trkpt>
      <trkpt lat="43.33641" lon="5.68609">
        <ele>559</ele>
        <time>2019-01-18T10:48:36.000Z</time>
      </trkpt>
      <trkpt lat="43.33641" lon="5.68609">
        <ele>559</ele>
        <time>2019-01-18T10:48:37.000Z</time>
      </trkpt>
      <trkpt lat="43.33641" lon="5.68609">
        <ele>559</ele>
        <time>2019-01-18T10:48:38.000Z</time>
      </trkpt>
      <trkpt lat="43.3364" lon="5.68609">
        <ele>559</ele>
        <time>2019-01-18T10:48:39.000Z</time>
      </trkpt>
      <trkpt lat="43.3364" lon="5.68609">
        <ele>559</ele>
        <time>2019-01-18T10:48:40.000Z</time>
      </trkpt>
      <trkpt lat="43.33639" lon="5.68609">
        <ele>558</ele>
        <time>2019-01-18T10:48:41.000Z</time>
      </trkpt>
      <trkpt lat="43.33639" lon="5.68608">
        <ele>558</ele>
        <time>2019-01-18T10:48:42.000Z</time>
      </trkpt>
      <trkpt lat="43.33639" lon="5.68608">
        <ele>558</ele>
        <time>2019-01-18T10:48:43.000Z</time>
      </trkpt>
      <trkpt lat="43.33639" lon="5.68608">
        <ele>558</ele>
        <time>2019-01-18T10:48:44.000Z</time>
      </trkpt>
      <trkpt lat="43.33638" lon="5.68608">
        <ele>557</ele>
        <time>2019-01-18T10:48:45.000Z</time>
      </trkpt>
      <trkpt lat="43.33638" lon="5.68608">
        <ele>557</ele>
        <time>2019-01-18T10:48:46.000Z</time>
      </trkpt>
      <trkpt lat="43.33638" lon="5.68608">
        <ele>557</ele>
        <time>2019-01-18T10:48:47.000Z</time>
      </trkpt>
      <trkpt lat="43.33638" lon="5.68608">
        <ele>557</ele>
        <time>2019-01-18T10:48:48.000Z</time>
      </trkpt>
      <trkpt lat="43.33638" lon="5.68608">
        <ele>557</ele>
        <time>2019-01-18T10:48:49.000Z</time>
      </trkpt>
      <trkpt lat="43.33637" lon="5.68608">
        <ele>557</ele>
        <time>2019-01-18T10:48:50.000Z</time>
      </trkpt>
      <trkpt lat="43.33637" lon="5.68607">
        <ele>557</ele>
        <time>2019-01-18T10:48:51.000Z</time>
      </trkpt>
      <trkpt lat="43.33636" lon="5.68607">
        <ele>556</ele>
        <time>2019-01-18T10:48:52.000Z</time>
      </trkpt>
      <trkpt lat="43.33636" lon="5.68607">
        <ele>556</ele>
        <time>2019-01-18T10:48:53.000Z</time>
      </trkpt>
      <trkpt lat="43.33636" lon="5.68606">
        <ele>556</ele>
        <time>2019-01-18T10:48:54.000Z</time>
      </trkpt>
      <trkpt lat="43.33636" lon="5.68606">
        <ele>556</ele>
        <time>2019-01-18T10:48:55.000Z</time>
      </trkpt>
      <trkpt lat="43.33636" lon="5.68606">
        <ele>556</ele>
        <time>2019-01-18T10:48:56.000Z</time>
      </trkpt>
      <trkpt lat="43.33636" lon="5.68605">
        <ele>555</ele>
        <time>2019-01-18T10:48:57.000Z</time>
      </trkpt>
      <trkpt lat="43.33636" lon="5.68605">
        <ele>555</ele>
        <time>2019-01-18T10:48:58.000Z</time>
      </trkpt>
      <trkpt lat="43.33636" lon="5.68605">
        <ele>555</ele>
        <time>2019-01-18T10:48:59.000Z</time>
      </trkpt>
      <trkpt lat="43.33635" lon="5.68604">
        <ele>555</ele>
        <time>2019-01-18T10:49:00.000Z</time>
      </trkpt>
      <trkpt lat="43.33635" lon="5.68604">
        <ele>555</ele>
        <time>2019-01-18T10:49:01.000Z</time>
      </trkpt>
      <trkpt lat="43.33635" lon="5.68604">
        <ele>554</ele>
        <time>2019-01-18T10:49:02.000Z</time>
      </trkpt>
      <trkpt lat="43.33635" lon="5.68604">
        <ele>554</ele>
        <time>2019-01-18T10:49:03.000Z</time>
      </trkpt>
      <trkpt lat="43.33635" lon="5.68604">
        <ele>554</ele>
        <time>2019-01-18T10:49:04.000Z</time>
      </trkpt>
      <trkpt lat="43.33635" lon="5.68604">
        <ele>554</ele>
        <time>2019-01-18T10:49:05.000Z</time>
      </trkpt>
      <trkpt lat="43.33634" lon="5.68603">
        <ele>553</ele>
        <time>2019-01-18T10:49:06.000Z</time>
      </trkpt>
      <trkpt lat="43.33634" lon="5.68604">
        <ele>553</ele>
        <time>2019-01-18T10:49:07.000Z</time>
      </trkpt>
      <trkpt lat="43.33633" lon="5.68603">
        <ele>553</ele>
        <time>2019-01-18T10:49:08.000Z</time>
      </trkpt>
      <trkpt lat="43.33633" lon="5.68604">
        <ele>553</ele>
        <time>2019-01-18T10:49:09.000Z</time>
      </trkpt>
      <trkpt lat="43.33633" lon="5.68604">
        <ele>553</ele>
        <time>2019-01-18T10:49:10.000Z</time>
      </trkpt>
      <trkpt lat="43.33632" lon="5.68604">
        <ele>552</ele>
        <time>2019-01-18T10:49:11.000Z</time>
      </trkpt>
      <trkpt lat="43.33632" lon="5.68604">
        <ele>552</ele>
        <time>2019-01-18T10:49:12.000Z</time>
      </trkpt>
      <trkpt lat="43.33632" lon="5.68604">
        <ele>552</ele>
        <time>2019-01-18T10:49:13.000Z</time>
      </trkpt>
      <trkpt lat="43.33632" lon="5.68604">
        <ele>552</ele>
        <time>2019-01-18T10:49:14.000Z</time>
      </trkpt>
      <trkpt lat="43.33632" lon="5.68604">
        <ele>552</ele>
        <time>2019-01-18T10:49:15.000Z</time>
      </trkpt>
      <trkpt lat="43.33632" lon="5.68604">
        <ele>552</ele>
        <time>2019-01-18T10:49:16.000Z</time>
      </trkpt>
      <trkpt lat="43.33632" lon="5.68604">
        <ele>552</ele>
        <time>2019-01-18T10:49:17.000Z</time>
      </trkpt>
      <trkpt lat="43.33632" lon="5.68604">
        <ele>552</ele>
        <time>2019-01-18T10:49:18.000Z</time>
      </trkpt>
      <trkpt lat="43.33632" lon="5.68604">
        <ele>551</ele>
        <time>2019-01-18T10:49:19.000Z</time>
      </trkpt>
      <trkpt lat="43.33632" lon="5.68604">
        <ele>551</ele>
        <time>2019-01-18T10:49:20.000Z</time>
      </trkpt>
      <trkpt lat="43.33632" lon="5.68604">
        <ele>551</ele>
        <time>2019-01-18T10:49:21.000Z</time>
      </trkpt>
      <trkpt lat="43.33632" lon="5.68604">
        <ele>551</ele>
        <time>2019-01-18T10:49:22.000Z</time>
      </trkpt>
      <trkpt lat="43.33632" lon="5.68605">
        <ele>551</ele>
        <time>2019-01-18T10:49:23.000Z</time>
      </trkpt>
      <trkpt lat="43.33632" lon="5.68605">
        <ele>551</ele>
        <time>2019-01-18T10:49:24.000Z</time>
      </trkpt>
      <trkpt lat="43.33632" lon="5.68605">
        <ele>551</ele>
        <time>2019-01-18T10:49:25.000Z</time>
      </trkpt>
      <trkpt lat="43.33632" lon="5.68605">
        <ele>551</ele>
        <time>2019-01-18T10:49:26.000Z</time>
      </trkpt>
      <trkpt lat="43.33632" lon="5.68605">
        <ele>551</ele>
        <time>2019-01-18T10:49:27.000Z</time>
      </trkpt>
      <trkpt lat="43.33631" lon="5.68605">
        <ele>551</ele>
        <time>2019-01-18T10:49:28.000Z</time>
      </trkpt>
      <trkpt lat="43.33631" lon="5.68605">
        <ele>551</ele>
        <time>2019-01-18T10:49:29.000Z</time>
      </trkpt>
      <trkpt lat="43.33631" lon="5.68606">
        <ele>551</ele>
        <time>2019-01-18T10:49:30.000Z</time>
      </trkpt>
      <trkpt lat="43.33631" lon="5.68606">
        <ele>551</ele>
        <time>2019-01-18T10:49:31.000Z</time>
      </trkpt>
      <trkpt lat="43.33631" lon="5.68606">
        <ele>551</ele>
        <time>2019-01-18T10:49:32.000Z</time>
      </trkpt>
      <trkpt lat="43.33631" lon="5.68607">
        <ele>551</ele>
        <time>2019-01-18T10:49:33.000Z</time>
      </trkpt>
      <trkpt lat="43.3363" lon="5.68607">
        <ele>551</ele>
        <time>2019-01-18T10:49:34.000Z</time>
      </trkpt>
      <trkpt lat="43.3363" lon="5.68607">
        <ele>551</ele>
        <time>2019-01-18T10:49:35.000Z</time>
      </trkpt>
      <trkpt lat="43.3363" lon="5.68607">
        <ele>551</ele>
        <time>2019-01-18T10:49:36.000Z</time>
      </trkpt>
      <trkpt lat="43.3363" lon="5.68608">
        <ele>551</ele>
        <time>2019-01-18T10:49:37.000Z</time>
      </trkpt>
      <trkpt lat="43.3363" lon="5.68608">
        <ele>550</ele>
        <time>2019-01-18T10:49:38.000Z</time>
      </trkpt>
      <trkpt lat="43.3363" lon="5.68608">
        <ele>550</ele>
        <time>2019-01-18T10:49:39.000Z</time>
      </trkpt>
      <trkpt lat="43.33629" lon="5.68609">
        <ele>550</ele>
        <time>2019-01-18T10:49:40.000Z</time>
      </trkpt>
      <trkpt lat="43.33629" lon="5.68609">
        <ele>550</ele>
        <time>2019-01-18T10:49:41.000Z</time>
      </trkpt>
      <trkpt lat="43.33629" lon="5.6861">
        <ele>550</ele>
        <time>2019-01-18T10:49:42.000Z</time>
      </trkpt>
      <trkpt lat="43.33629" lon="5.6861">
        <ele>549</ele>
        <time>2019-01-18T10:49:43.000Z</time>
      </trkpt>
      <trkpt lat="43.33629" lon="5.6861">
        <ele>549</ele>
        <time>2019-01-18T10:49:44.000Z</time>
      </trkpt>
      <trkpt lat="43.33629" lon="5.6861">
        <ele>549</ele>
        <time>2019-01-18T10:49:45.000Z</time>
      </trkpt>
      <trkpt lat="43.33629" lon="5.68611">
        <ele>549</ele>
        <time>2019-01-18T10:49:46.000Z</time>
      </trkpt>
      <trkpt lat="43.33628" lon="5.68611">
        <ele>549</ele>
        <time>2019-01-18T10:49:47.000Z</time>
      </trkpt>
      <trkpt lat="43.33628" lon="5.68611">
        <ele>549</ele>
        <time>2019-01-18T10:49:48.000Z</time>
      </trkpt>
      <trkpt lat="43.33628" lon="5.68611">
        <ele>549</ele>
        <time>2019-01-18T10:49:49.000Z</time>
      </trkpt>
      <trkpt lat="43.33628" lon="5.68611">
        <ele>549</ele>
        <time>2019-01-18T10:49:50.000Z</time>
      </trkpt>
      <trkpt lat="43.33628" lon="5.68611">
        <ele>549</ele>
        <time>2019-01-18T10:49:51.000Z</time>
      </trkpt>
      <trkpt lat="43.33627" lon="5.68611">
        <ele>548</ele>
        <time>2019-01-18T10:49:52.000Z</time>
      </trkpt>
      <trkpt lat="43.33627" lon="5.68611">
        <ele>548</ele>
        <time>2019-01-18T10:49:53.000Z</time>
      </trkpt>
      <trkpt lat="43.33627" lon="5.68611">
        <ele>548</ele>
        <time>2019-01-18T10:49:54.000Z</time>
      </trkpt>
      <trkpt lat="43.33627" lon="5.68611">
        <ele>548</ele>
        <time>2019-01-18T10:49:55.000Z</time>
      </trkpt>
      <trkpt lat="43.33626" lon="5.68611">
        <ele>548</ele>
        <time>2019-01-18T10:49:56.000Z</time>
      </trkpt>
      <trkpt lat="43.33626" lon="5.68611">
        <ele>548</ele>
        <time>2019-01-18T10:49:57.000Z</time>
      </trkpt>
      <trkpt lat="43.33626" lon="5.68611">
        <ele>548</ele>
        <time>2019-01-18T10:49:58.000Z</time>
      </trkpt>
      <trkpt lat="43.33626" lon="5.68611">
        <ele>547</ele>
        <time>2019-01-18T10:49:59.000Z</time>
      </trkpt>
      <trkpt lat="43.33626" lon="5.68612">
        <ele>547</ele>
        <time>2019-01-18T10:50:00.000Z</time>
      </trkpt>
      <trkpt lat="43.33625" lon="5.68612">
        <ele>547</ele>
        <time>2019-01-18T10:50:01.000Z</time>
      </trkpt>
      <trkpt lat="43.33625" lon="5.68613">
        <ele>547</ele>
        <time>2019-01-18T10:50:02.000Z</time>
      </trkpt>
      <trkpt lat="43.33624" lon="5.68613">
        <ele>547</ele>
        <time>2019-01-18T10:50:03.000Z</time>
      </trkpt>
      <trkpt lat="43.33624" lon="5.68614">
        <ele>547</ele>
        <time>2019-01-18T10:50:04.000Z</time>
      </trkpt>
      <trkpt lat="43.33624" lon="5.68615">
        <ele>547</ele>
        <time>2019-01-18T10:50:05.000Z</time>
      </trkpt>
      <trkpt lat="43.33623" lon="5.68615">
        <ele>547</ele>
        <time>2019-01-18T10:50:06.000Z</time>
      </trkpt>
      <trkpt lat="43.33623" lon="5.68615">
        <ele>547</ele>
        <time>2019-01-18T10:50:07.000Z</time>
      </trkpt>
      <trkpt lat="43.33623" lon="5.68615">
        <ele>547</ele>
        <time>2019-01-18T10:50:08.000Z</time>
      </trkpt>
      <trkpt lat="43.33623" lon="5.68615">
        <ele>547</ele>
        <time>2019-01-18T10:50:09.000Z</time>
      </trkpt>
      <trkpt lat="43.33623" lon="5.68615">
        <ele>547</ele>
        <time>2019-01-18T10:50:10.000Z</time>
      </trkpt>
      <trkpt lat="43.33622" lon="5.68615">
        <ele>547</ele>
        <time>2019-01-18T10:50:11.000Z</time>
      </trkpt>
      <trkpt lat="43.33622" lon="5.68615">
        <ele>547</ele>
        <time>2019-01-18T10:50:12.000Z</time>
      </trkpt>
      <trkpt lat="43.33622" lon="5.68616">
        <ele>546</ele>
        <time>2019-01-18T10:50:13.000Z</time>
      </trkpt>
      <trkpt lat="43.33622" lon="5.68616">
        <ele>546</ele>
        <time>2019-01-18T10:50:14.000Z</time>
      </trkpt>
      <trkpt lat="43.33622" lon="5.68617">
        <ele>546</ele>
        <time>2019-01-18T10:50:15.000Z</time>
      </trkpt>
      <trkpt lat="43.33621" lon="5.68617">
        <ele>546</ele>
        <time>2019-01-18T10:50:16.000Z</time>
      </trkpt>
      <trkpt lat="43.33621" lon="5.68617">
        <ele>546</ele>
        <time>2019-01-18T10:50:17.000Z</time>
      </trkpt>
      <trkpt lat="43.33621" lon="5.68617">
        <ele>545</ele>
        <time>2019-01-18T10:50:18.000Z</time>
      </trkpt>
      <trkpt lat="43.33621" lon="5.68617">
        <ele>545</ele>
        <time>2019-01-18T10:50:19.000Z</time>
      </trkpt>
      <trkpt lat="43.3362" lon="5.68617">
        <ele>545</ele>
        <time>2019-01-18T10:50:20.000Z</time>
      </trkpt>
      <trkpt lat="43.3362" lon="5.68617">
        <ele>545</ele>
        <time>2019-01-18T10:50:21.000Z</time>
      </trkpt>
      <trkpt lat="43.3362" lon="5.68617">
        <ele>544</ele>
        <time>2019-01-18T10:50:22.000Z</time>
      </trkpt>
      <trkpt lat="43.3362" lon="5.68616">
        <ele>544</ele>
        <time>2019-01-18T10:50:23.000Z</time>
      </trkpt>
      <trkpt lat="43.33619" lon="5.68617">
        <ele>544</ele>
        <time>2019-01-18T10:50:24.000Z</time>
      </trkpt>
      <trkpt lat="43.33619" lon="5.68617">
        <ele>544</ele>
        <time>2019-01-18T10:50:25.000Z</time>
      </trkpt>
      <trkpt lat="43.33619" lon="5.68617">
        <ele>544</ele>
        <time>2019-01-18T10:50:26.000Z</time>
      </trkpt>
      <trkpt lat="43.33619" lon="5.68617">
        <ele>544</ele>
        <time>2019-01-18T10:50:27.000Z</time>
      </trkpt>
      <trkpt lat="43.33618" lon="5.68618">
        <ele>544</ele>
        <time>2019-01-18T10:50:28.000Z</time>
      </trkpt>
      <trkpt lat="43.33618" lon="5.68618">
        <ele>543</ele>
        <time>2019-01-18T10:50:29.000Z</time>
      </trkpt>
      <trkpt lat="43.33618" lon="5.68618">
        <ele>543</ele>
        <time>2019-01-18T10:50:30.000Z</time>
      </trkpt>
      <trkpt lat="43.33618" lon="5.68618">
        <ele>543</ele>
        <time>2019-01-18T10:50:31.000Z</time>
      </trkpt>
      <trkpt lat="43.33617" lon="5.68618">
        <ele>543</ele>
        <time>2019-01-18T10:50:32.000Z</time>
      </trkpt>
      <trkpt lat="43.33617" lon="5.68618">
        <ele>543</ele>
        <time>2019-01-18T10:50:33.000Z</time>
      </trkpt>
      <trkpt lat="43.33616" lon="5.68618">
        <ele>542</ele>
        <time>2019-01-18T10:50:34.000Z</time>
      </trkpt>
      <trkpt lat="43.33616" lon="5.68618">
        <ele>542</ele>
        <time>2019-01-18T10:50:35.000Z</time>
      </trkpt>
      <trkpt lat="43.33616" lon="5.68619">
        <ele>542</ele>
        <time>2019-01-18T10:50:36.000Z</time>
      </trkpt>
      <trkpt lat="43.33616" lon="5.68619">
        <ele>542</ele>
        <time>2019-01-18T10:50:37.000Z</time>
      </trkpt>
      <trkpt lat="43.33616" lon="5.68619">
        <ele>541</ele>
        <time>2019-01-18T10:50:38.000Z</time>
      </trkpt>
      <trkpt lat="43.33615" lon="5.68619">
        <ele>541</ele>
        <time>2019-01-18T10:50:39.000Z</time>
      </trkpt>
      <trkpt lat="43.33614" lon="5.68619">
        <ele>541</ele>
        <time>2019-01-18T10:50:40.000Z</time>
      </trkpt>
      <trkpt lat="43.33614" lon="5.68619">
        <ele>541</ele>
        <time>2019-01-18T10:50:41.000Z</time>
      </trkpt>
      <trkpt lat="43.33614" lon="5.68619">
        <ele>541</ele>
        <time>2019-01-18T10:50:42.000Z</time>
      </trkpt>
      <trkpt lat="43.33614" lon="5.68619">
        <ele>540</ele>
        <time>2019-01-18T10:50:43.000Z</time>
      </trkpt>
      <trkpt lat="43.33613" lon="5.68619">
        <ele>540</ele>
        <time>2019-01-18T10:50:44.000Z</time>
      </trkpt>
      <trkpt lat="43.33612" lon="5.68619">
        <ele>540</ele>
        <time>2019-01-18T10:50:45.000Z</time>
      </trkpt>
      <trkpt lat="43.33612" lon="5.68619">
        <ele>540</ele>
        <time>2019-01-18T10:50:46.000Z</time>
      </trkpt>
      <trkpt lat="43.33612" lon="5.68619">
        <ele>539</ele>
        <time>2019-01-18T10:50:47.000Z</time>
      </trkpt>
      <trkpt lat="43.33612" lon="5.68618">
        <ele>539</ele>
        <time>2019-01-18T10:50:48.000Z</time>
      </trkpt>
      <trkpt lat="43.33612" lon="5.68618">
        <ele>539</ele>
        <time>2019-01-18T10:50:49.000Z</time>
      </trkpt>
      <trkpt lat="43.33612" lon="5.68618">
        <ele>539</ele>
        <time>2019-01-18T10:50:50.000Z</time>
      </trkpt>
      <trkpt lat="43.33612" lon="5.68618">
        <ele>539</ele>
        <time>2019-01-18T10:50:51.000Z</time>
      </trkpt>
      <trkpt lat="43.33611" lon="5.68618">
        <ele>539</ele>
        <time>2019-01-18T10:50:52.000Z</time>
      </trkpt>
      <trkpt lat="43.33611" lon="5.68618">
        <ele>538</ele>
        <time>2019-01-18T10:50:53.000Z</time>
      </trkpt>
      <trkpt lat="43.33611" lon="5.68618">
        <ele>538</ele>
        <time>2019-01-18T10:50:54.000Z</time>
      </trkpt>
      <trkpt lat="43.3361" lon="5.68619">
        <ele>538</ele>
        <time>2019-01-18T10:50:55.000Z</time>
      </trkpt>
      <trkpt lat="43.3361" lon="5.68619">
        <ele>538</ele>
        <time>2019-01-18T10:50:56.000Z</time>
      </trkpt>
      <trkpt lat="43.3361" lon="5.68619">
        <ele>538</ele>
        <time>2019-01-18T10:50:57.000Z</time>
      </trkpt>
      <trkpt lat="43.33609" lon="5.68619">
        <ele>538</ele>
        <time>2019-01-18T10:50:58.000Z</time>
      </trkpt>
      <trkpt lat="43.33609" lon="5.68619">
        <ele>537</ele>
        <time>2019-01-18T10:50:59.000Z</time>
      </trkpt>
      <trkpt lat="43.33609" lon="5.6862">
        <ele>537</ele>
        <time>2019-01-18T10:51:00.000Z</time>
      </trkpt>
      <trkpt lat="43.33608" lon="5.6862">
        <ele>537</ele>
        <time>2019-01-18T10:51:01.000Z</time>
      </trkpt>
      <trkpt lat="43.33608" lon="5.6862">
        <ele>537</ele>
        <time>2019-01-18T10:51:02.000Z</time>
      </trkpt>
      <trkpt lat="43.33607" lon="5.68621">
        <ele>536</ele>
        <time>2019-01-18T10:51:03.000Z</time>
      </trkpt>
      <trkpt lat="43.33607" lon="5.6862">
        <ele>536</ele>
        <time>2019-01-18T10:51:04.000Z</time>
      </trkpt>
      <trkpt lat="43.33607" lon="5.68621">
        <ele>536</ele>
        <time>2019-01-18T10:51:05.000Z</time>
      </trkpt>
      <trkpt lat="43.33607" lon="5.68621">
        <ele>536</ele>
        <time>2019-01-18T10:51:06.000Z</time>
      </trkpt>
      <trkpt lat="43.33607" lon="5.68621">
        <ele>536</ele>
        <time>2019-01-18T10:51:07.000Z</time>
      </trkpt>
      <trkpt lat="43.33606" lon="5.68621">
        <ele>536</ele>
        <time>2019-01-18T10:51:08.000Z</time>
      </trkpt>
      <trkpt lat="43.33606" lon="5.68621">
        <ele>536</ele>
        <time>2019-01-18T10:51:09.000Z</time>
      </trkpt>
      <trkpt lat="43.33606" lon="5.68621">
        <ele>535</ele>
        <time>2019-01-18T10:51:10.000Z</time>
      </trkpt>
      <trkpt lat="43.33606" lon="5.68621">
        <ele>535</ele>
        <time>2019-01-18T10:51:11.000Z</time>
      </trkpt>
      <trkpt lat="43.33606" lon="5.68621">
        <ele>535</ele>
        <time>2019-01-18T10:51:12.000Z</time>
      </trkpt>
      <trkpt lat="43.33606" lon="5.6862">
        <ele>535</ele>
        <time>2019-01-18T10:51:13.000Z</time>
      </trkpt>
      <trkpt lat="43.33606" lon="5.6862">
        <ele>534</ele>
        <time>2019-01-18T10:51:14.000Z</time>
      </trkpt>
      <trkpt lat="43.33606" lon="5.6862">
        <ele>534</ele>
        <time>2019-01-18T10:51:15.000Z</time>
      </trkpt>
      <trkpt lat="43.33605" lon="5.6862">
        <ele>534</ele>
        <time>2019-01-18T10:51:16.000Z</time>
      </trkpt>
      <trkpt lat="43.33605" lon="5.68619">
        <ele>534</ele>
        <time>2019-01-18T10:51:17.000Z</time>
      </trkpt>
      <trkpt lat="43.33605" lon="5.68619">
        <ele>534</ele>
        <time>2019-01-18T10:51:18.000Z</time>
      </trkpt>
      <trkpt lat="43.33604" lon="5.68619">
        <ele>534</ele>
        <time>2019-01-18T10:51:19.000Z</time>
      </trkpt>
      <trkpt lat="43.33604" lon="5.68619">
        <ele>533</ele>
        <time>2019-01-18T10:51:20.000Z</time>
      </trkpt>
      <trkpt lat="43.33604" lon="5.68619">
        <ele>533</ele>
        <time>2019-01-18T10:51:21.000Z</time>
      </trkpt>
      <trkpt lat="43.33604" lon="5.68619">
        <ele>533</ele>
        <time>2019-01-18T10:51:22.000Z</time>
      </trkpt>
      <trkpt lat="43.33604" lon="5.68619">
        <ele>533</ele>
        <time>2019-01-18T10:51:23.000Z</time>
      </trkpt>
      <trkpt lat="43.33604" lon="5.68619">
        <ele>533</ele>
        <time>2019-01-18T10:51:24.000Z</time>
      </trkpt>
      <trkpt lat="43.33604" lon="5.68619">
        <ele>533</ele>
        <time>2019-01-18T10:51:25.000Z</time>
      </trkpt>
      <trkpt lat="43.33604" lon="5.68619">
        <ele>533</ele>
        <time>2019-01-18T10:51:26.000Z</time>
      </trkpt>
      <trkpt lat="43.33603" lon="5.68619">
        <ele>533</ele>
        <time>2019-01-18T10:51:27.000Z</time>
      </trkpt>
      <trkpt lat="43.33603" lon="5.68619">
        <ele>533</ele>
        <time>2019-01-18T10:51:28.000Z</time>
      </trkpt>
      <trkpt lat="43.33603" lon="5.68619">
        <ele>533</ele>
        <time>2019-01-18T10:51:29.000Z</time>
      </trkpt>
      <trkpt lat="43.33603" lon="5.68619">
        <ele>533</ele>
        <time>2019-01-18T10:51:30.000Z</time>
      </trkpt>
      <trkpt lat="43.33603" lon="5.6862">
        <ele>532</ele>
        <time>2019-01-18T10:51:31.000Z</time>
      </trkpt>
      <trkpt lat="43.33603" lon="5.68619">
        <ele>532</ele>
        <time>2019-01-18T10:51:32.000Z</time>
      </trkpt>
      <trkpt lat="43.33603" lon="5.68619">
        <ele>532</ele>
        <time>2019-01-18T10:51:33.000Z</time>
      </trkpt>
      <trkpt lat="43.33602" lon="5.68619">
        <ele>532</ele>
        <time>2019-01-18T10:51:34.000Z</time>
      </trkpt>
      <trkpt lat="43.33602" lon="5.68619">
        <ele>532</ele>
        <time>2019-01-18T10:51:35.000Z</time>
      </trkpt>
      <trkpt lat="43.33602" lon="5.68619">
        <ele>532</ele>
        <time>2019-01-18T10:51:36.000Z</time>
      </trkpt>
      <trkpt lat="43.33602" lon="5.68619">
        <ele>531</ele>
        <time>2019-01-18T10:51:37.000Z</time>
      </trkpt>
      <trkpt lat="43.33602" lon="5.68619">
        <ele>531</ele>
        <time>2019-01-18T10:51:38.000Z</time>
      </trkpt>
      <trkpt lat="43.33602" lon="5.68619">
        <ele>531</ele>
        <time>2019-01-18T10:51:39.000Z</time>
      </trkpt>
      <trkpt lat="43.33602" lon="5.68619">
        <ele>531</ele>
        <time>2019-01-18T10:51:40.000Z</time>
      </trkpt>
      <trkpt lat="43.33601" lon="5.68618">
        <ele>531</ele>
        <time>2019-01-18T10:51:41.000Z</time>
      </trkpt>
      <trkpt lat="43.33601" lon="5.68618">
        <ele>531</ele>
        <time>2019-01-18T10:51:42.000Z</time>
      </trkpt>
      <trkpt lat="43.33601" lon="5.68617">
        <ele>531</ele>
        <time>2019-01-18T10:51:43.000Z</time>
      </trkpt>
      <trkpt lat="43.336" lon="5.68617">
        <ele>530</ele>
        <time>2019-01-18T10:51:44.000Z</time>
      </trkpt>
      <trkpt lat="43.336" lon="5.68617">
        <ele>530</ele>
        <time>2019-01-18T10:51:45.000Z</time>
      </trkpt>
      <trkpt lat="43.33599" lon="5.68618">
        <ele>530</ele>
        <time>2019-01-18T10:51:46.000Z</time>
      </trkpt>
      <trkpt lat="43.33599" lon="5.68618">
        <ele>530</ele>
        <time>2019-01-18T10:51:47.000Z</time>
      </trkpt>
      <trkpt lat="43.33599" lon="5.68617">
        <ele>530</ele>
        <time>2019-01-18T10:51:48.000Z</time>
      </trkpt>
      <trkpt lat="43.33599" lon="5.68617">
        <ele>529</ele>
        <time>2019-01-18T10:51:49.000Z</time>
      </trkpt>
      <trkpt lat="43.33599" lon="5.68617">
        <ele>529</ele>
        <time>2019-01-18T10:51:50.000Z</time>
      </trkpt>
      <trkpt lat="43.33599" lon="5.68616">
        <ele>529</ele>
        <time>2019-01-18T10:51:51.000Z</time>
      </trkpt>
      <trkpt lat="43.33599" lon="5.68616">
        <ele>529</ele>
        <time>2019-01-18T10:51:52.000Z</time>
      </trkpt>
      <trkpt lat="43.33599" lon="5.68616">
        <ele>529</ele>
        <time>2019-01-18T10:51:53.000Z</time>
      </trkpt>
      <trkpt lat="43.33599" lon="5.68616">
        <ele>529</ele>
        <time>2019-01-18T10:51:54.000Z</time>
      </trkpt>
      <trkpt lat="43.33599" lon="5.68616">
        <ele>528</ele>
        <time>2019-01-18T10:51:55.000Z</time>
      </trkpt>
      <trkpt lat="43.33599" lon="5.68617">
        <ele>528</ele>
        <time>2019-01-18T10:51:56.000Z</time>
      </trkpt>
      <trkpt lat="43.33599" lon="5.68617">
        <ele>528</ele>
        <time>2019-01-18T10:51:57.000Z</time>
      </trkpt>
      <trkpt lat="43.33599" lon="5.68617">
        <ele>528</ele>
        <time>2019-01-18T10:51:58.000Z</time>
      </trkpt>
      <trkpt lat="43.33598" lon="5.68617">
        <ele>528</ele>
        <time>2019-01-18T10:51:59.000Z</time>
      </trkpt>
      <trkpt lat="43.33598" lon="5.68618">
        <ele>528</ele>
        <time>2019-01-18T10:52:00.000Z</time>
      </trkpt>
      <trkpt lat="43.33598" lon="5.68617">
        <ele>528</ele>
        <time>2019-01-18T10:52:01.000Z</time>
      </trkpt>
      <trkpt lat="43.33598" lon="5.68617">
        <ele>528</ele>
        <time>2019-01-18T10:52:02.000Z</time>
      </trkpt>
      <trkpt lat="43.33598" lon="5.68617">
        <ele>528</ele>
        <time>2019-01-18T10:52:03.000Z</time>
      </trkpt>
      <trkpt lat="43.33598" lon="5.68618">
        <ele>528</ele>
        <time>2019-01-18T10:52:04.000Z</time>
      </trkpt>
      <trkpt lat="43.33598" lon="5.68618">
        <ele>528</ele>
        <time>2019-01-18T10:52:05.000Z</time>
      </trkpt>
      <trkpt lat="43.33598" lon="5.68618">
        <ele>527</ele>
        <time>2019-01-18T10:52:06.000Z</time>
      </trkpt>
      <trkpt lat="43.33598" lon="5.68618">
        <ele>527</ele>
        <time>2019-01-18T10:52:07.000Z</time>
      </trkpt>
      <trkpt lat="43.33598" lon="5.68619">
        <ele>527</ele>
        <time>2019-01-18T10:52:08.000Z</time>
      </trkpt>
      <trkpt lat="43.33598" lon="5.6862">
        <ele>527</ele>
        <time>2019-01-18T10:52:09.000Z</time>
      </trkpt>
      <trkpt lat="43.33597" lon="5.6862">
        <ele>527</ele>
        <time>2019-01-18T10:52:10.000Z</time>
      </trkpt>
      <trkpt lat="43.33597" lon="5.6862">
        <ele>527</ele>
        <time>2019-01-18T10:52:11.000Z</time>
      </trkpt>
      <trkpt lat="43.33596" lon="5.6862">
        <ele>527</ele>
        <time>2019-01-18T10:52:12.000Z</time>
      </trkpt>
      <trkpt lat="43.33596" lon="5.68619">
        <ele>527</ele>
        <time>2019-01-18T10:52:13.000Z</time>
      </trkpt>
      <trkpt lat="43.33596" lon="5.68619">
        <ele>527</ele>
        <time>2019-01-18T10:52:14.000Z</time>
      </trkpt>
      <trkpt lat="43.33595" lon="5.68618">
        <ele>527</ele>
        <time>2019-01-18T10:52:15.000Z</time>
      </trkpt>
      <trkpt lat="43.33595" lon="5.68618">
        <ele>527</ele>
        <time>2019-01-18T10:52:16.000Z</time>
      </trkpt>
      <trkpt lat="43.33595" lon="5.68618">
        <ele>527</ele>
        <time>2019-01-18T10:52:17.000Z</time>
      </trkpt>
      <trkpt lat="43.33595" lon="5.68616">
        <ele>526</ele>
        <time>2019-01-18T10:52:18.000Z</time>
      </trkpt>
      <trkpt lat="43.33595" lon="5.68615">
        <ele>526</ele>
        <time>2019-01-18T10:52:19.000Z</time>
      </trkpt>
      <trkpt lat="43.33595" lon="5.68614">
        <ele>526</ele>
        <time>2019-01-18T10:52:20.000Z</time>
      </trkpt>
      <trkpt lat="43.33596" lon="5.68613">
        <ele>526</ele>
        <time>2019-01-18T10:52:21.000Z</time>
      </trkpt>
      <trkpt lat="43.33596" lon="5.68612">
        <ele>526</ele>
        <time>2019-01-18T10:52:22.000Z</time>
      </trkpt>
      <trkpt lat="43.33596" lon="5.6861">
        <ele>526</ele>
        <time>2019-01-18T10:52:23.000Z</time>
      </trkpt>
      <trkpt lat="43.33596" lon="5.68608">
        <ele>525</ele>
        <time>2019-01-18T10:52:24.000Z</time>
      </trkpt>
      <trkpt lat="43.33596" lon="5.68607">
        <ele>525</ele>
        <time>2019-01-18T10:52:25.000Z</time>
      </trkpt>
      <trkpt lat="43.33596" lon="5.68606">
        <ele>525</ele>
        <time>2019-01-18T10:52:26.000Z</time>
      </trkpt>
      <trkpt lat="43.33596" lon="5.68606">
        <ele>525</ele>
        <time>2019-01-18T10:52:27.000Z</time>
      </trkpt>
      <trkpt lat="43.33596" lon="5.68606">
        <ele>525</ele>
        <time>2019-01-18T10:52:28.000Z</time>
      </trkpt>
      <trkpt lat="43.33596" lon="5.68606">
        <ele>525</ele>
        <time>2019-01-18T10:52:29.000Z</time>
      </trkpt>
      <trkpt lat="43.33595" lon="5.68606">
        <ele>525</ele>
        <time>2019-01-18T10:52:30.000Z</time>
      </trkpt>
      <trkpt lat="43.33595" lon="5.68606">
        <ele>525</ele>
        <time>2019-01-18T10:52:31.000Z</time>
      </trkpt>
      <trkpt lat="43.33595" lon="5.68606">
        <ele>525</ele>
        <time>2019-01-18T10:52:32.000Z</time>
      </trkpt>
      <trkpt lat="43.33595" lon="5.68606">
        <ele>525</ele>
        <time>2019-01-18T10:52:33.000Z</time>
      </trkpt>
      <trkpt lat="43.33594" lon="5.68605">
        <ele>525</ele>
        <time>2019-01-18T10:52:34.000Z</time>
      </trkpt>
      <trkpt lat="43.33594" lon="5.68605">
        <ele>525</ele>
        <time>2019-01-18T10:52:35.000Z</time>
      </trkpt>
      <trkpt lat="43.33594" lon="5.68604">
        <ele>525</ele>
        <time>2019-01-18T10:52:36.000Z</time>
      </trkpt>
      <trkpt lat="43.33594" lon="5.68603">
        <ele>524</ele>
        <time>2019-01-18T10:52:37.000Z</time>
      </trkpt>
      <trkpt lat="43.33594" lon="5.68603">
        <ele>524</ele>
        <time>2019-01-18T10:52:38.000Z</time>
      </trkpt>
      <trkpt lat="43.33595" lon="5.68602">
        <ele>524</ele>
        <time>2019-01-18T10:52:39.000Z</time>
      </trkpt>
      <trkpt lat="43.33594" lon="5.68601">
        <ele>524</ele>
        <time>2019-01-18T10:52:40.000Z</time>
      </trkpt>
      <trkpt lat="43.33594" lon="5.686">
        <ele>524</ele>
        <time>2019-01-18T10:52:41.000Z</time>
      </trkpt>
      <trkpt lat="43.33594" lon="5.686">
        <ele>524</ele>
        <time>2019-01-18T10:52:42.000Z</time>
      </trkpt>
      <trkpt lat="43.33593" lon="5.686">
        <ele>524</ele>
        <time>2019-01-18T10:52:43.000Z</time>
      </trkpt>
      <trkpt lat="43.33593" lon="5.68599">
        <ele>524</ele>
        <time>2019-01-18T10:52:44.000Z</time>
      </trkpt>
      <trkpt lat="43.33593" lon="5.686">
        <ele>524</ele>
        <time>2019-01-18T10:52:45.000Z</time>
      </trkpt>
      <trkpt lat="43.33593" lon="5.686">
        <ele>524</ele>
        <time>2019-01-18T10:52:46.000Z</time>
      </trkpt>
      <trkpt lat="43.33593" lon="5.686">
        <ele>524</ele>
        <time>2019-01-18T10:52:47.000Z</time>
      </trkpt>
      <trkpt lat="43.33593" lon="5.686">
        <ele>524</ele>
        <time>2019-01-18T10:52:48.000Z</time>
      </trkpt>
      <trkpt lat="43.33593" lon="5.686">
        <ele>524</ele>
        <time>2019-01-18T10:52:49.000Z</time>
      </trkpt>
      <trkpt lat="43.33593" lon="5.686">
        <ele>524</ele>
        <time>2019-01-18T10:52:50.000Z</time>
      </trkpt>
      <trkpt lat="43.33593" lon="5.686">
        <ele>524</ele>
        <time>2019-01-18T10:52:51.000Z</time>
      </trkpt>
      <trkpt lat="43.33593" lon="5.686">
        <ele>524</ele>
        <time>2019-01-18T10:52:52.000Z</time>
      </trkpt>
      <trkpt lat="43.33593" lon="5.686">
        <ele>523</ele>
        <time>2019-01-18T10:52:53.000Z</time>
      </trkpt>
      <trkpt lat="43.33593" lon="5.686">
        <ele>523</ele>
        <time>2019-01-18T10:52:54.000Z</time>
      </trkpt>
      <trkpt lat="43.33593" lon="5.686">
        <ele>523</ele>
        <time>2019-01-18T10:52:55.000Z</time>
      </trkpt>
      <trkpt lat="43.33593" lon="5.686">
        <ele>523</ele>
        <time>2019-01-18T10:52:56.000Z</time>
      </trkpt>
      <trkpt lat="43.33593" lon="5.686">
        <ele>523</ele>
        <time>2019-01-18T10:52:57.000Z</time>
      </trkpt>
      <trkpt lat="43.33593" lon="5.686">
        <ele>523</ele>
        <time>2019-01-18T10:52:58.000Z</time>
      </trkpt>
      <trkpt lat="43.33593" lon="5.686">
        <ele>523</ele>
        <time>2019-01-18T10:52:59.000Z</time>
      </trkpt>
      <trkpt lat="43.33593" lon="5.686">
        <ele>523</ele>
        <time>2019-01-18T10:53:00.000Z</time>
      </trkpt>
      <trkpt lat="43.33593" lon="5.686">
        <ele>523</ele>
        <time>2019-01-18T10:53:01.000Z</time>
      </trkpt>
      <trkpt lat="43.33593" lon="5.686">
        <ele>523</ele>
        <time>2019-01-18T10:53:02.000Z</time>
      </trkpt>
      <trkpt lat="43.33593" lon="5.686">
        <ele>523</ele>
        <time>2019-01-18T10:53:03.000Z</time>
      </trkpt>
      <trkpt lat="43.33593" lon="5.686">
        <ele>523</ele>
        <time>2019-01-18T10:53:04.000Z</time>
      </trkpt>
      <trkpt lat="43.33593" lon="5.686">
        <ele>523</ele>
        <time>2019-01-18T10:53:05.000Z</time>
      </trkpt>
      <trkpt lat="43.33594" lon="5.686">
        <ele>523</ele>
        <time>2019-01-18T10:53:06.000Z</time>
      </trkpt>
      <trkpt lat="43.33594" lon="5.686">
        <ele>523</ele>
        <time>2019-01-18T10:53:07.000Z</time>
      </trkpt>
      <trkpt lat="43.33594" lon="5.686">
        <ele>523</ele>
        <time>2019-01-18T10:53:08.000Z</time>
      </trkpt>
      <trkpt lat="43.33594" lon="5.686">
        <ele>523</ele>
        <time>2019-01-18T10:53:09.000Z</time>
      </trkpt>
      <trkpt lat="43.33594" lon="5.686">
        <ele>523</ele>
        <time>2019-01-18T10:53:10.000Z</time>
      </trkpt>
      <trkpt lat="43.33593" lon="5.686">
        <ele>523</ele>
        <time>2019-01-18T10:53:11.000Z</time>
      </trkpt>
      <trkpt lat="43.33593" lon="5.686">
        <ele>523</ele>
        <time>2019-01-18T10:53:12.000Z</time>
      </trkpt>
      <trkpt lat="43.33594" lon="5.686">
        <ele>523</ele>
        <time>2019-01-18T10:53:13.000Z</time>
      </trkpt>
      <trkpt lat="43.33594" lon="5.686">
        <ele>523</ele>
        <time>2019-01-18T10:53:14.000Z</time>
      </trkpt>
      <trkpt lat="43.33594" lon="5.686">
        <ele>523</ele>
        <time>2019-01-18T10:53:15.000Z</time>
      </trkpt>
      <trkpt lat="43.33594" lon="5.686">
        <ele>523</ele>
        <time>2019-01-18T10:53:16.000Z</time>
      </trkpt>
      <trkpt lat="43.33594" lon="5.686">
        <ele>523</ele>
        <time>2019-01-18T10:53:17.000Z</time>
      </trkpt>
      <trkpt lat="43.33594" lon="5.686">
        <ele>523</ele>
        <time>2019-01-18T10:53:18.000Z</time>
      </trkpt>
      <trkpt lat="43.33594" lon="5.686">
        <ele>523</ele>
        <time>2019-01-18T10:53:19.000Z</time>
      </trkpt>
      <trkpt lat="43.33594" lon="5.686">
        <ele>523</ele>
        <time>2019-01-18T10:53:20.000Z</time>
      </trkpt>
      <trkpt lat="43.33594" lon="5.686">
        <ele>523</ele>
        <time>2019-01-18T10:53:21.000Z</time>
      </trkpt>
      <trkpt lat="43.33594" lon="5.686">
        <ele>523</ele>
        <time>2019-01-18T10:53:22.000Z</time>
      </trkpt>
      <trkpt lat="43.33594" lon="5.686">
        <ele>523</ele>
        <time>2019-01-18T10:53:23.000Z</time>
      </trkpt>
      <trkpt lat="43.33594" lon="5.68601">
        <ele>523</ele>
        <time>2019-01-18T10:53:24.000Z</time>
      </trkpt>
      <trkpt lat="43.33594" lon="5.68601">
        <ele>523</ele>
        <time>2019-01-18T10:53:25.000Z</time>
      </trkpt>
      <trkpt lat="43.33594" lon="5.68601">
        <ele>523</ele>
        <time>2019-01-18T10:53:26.000Z</time>
      </trkpt>
      <trkpt lat="43.33594" lon="5.68601">
        <ele>523</ele>
        <time>2019-01-18T10:53:27.000Z</time>
      </trkpt>
      <trkpt lat="43.33594" lon="5.68601">
        <ele>523</ele>
        <time>2019-01-18T10:53:28.000Z</time>
      </trkpt>
      <trkpt lat="43.33594" lon="5.68601">
        <ele>523</ele>
        <time>2019-01-18T10:53:29.000Z</time>
      </trkpt>
      <trkpt lat="43.33594" lon="5.68601">
        <ele>523</ele>
        <time>2019-01-18T10:53:30.000Z</time>
      </trkpt>
      <trkpt lat="43.33594" lon="5.68601">
        <ele>523</ele>
        <time>2019-01-18T10:53:31.000Z</time>
      </trkpt>
      <trkpt lat="43.33594" lon="5.68601">
        <ele>523</ele>
        <time>2019-01-18T10:53:32.000Z</time>
      </trkpt>
      <trkpt lat="43.33594" lon="5.686">
        <ele>523</ele>
        <time>2019-01-18T10:53:33.000Z</time>
      </trkpt>
      <trkpt lat="43.33594" lon="5.68601">
        <ele>523</ele>
        <time>2019-01-18T10:53:34.000Z</time>
      </trkpt>
      <trkpt lat="43.33594" lon="5.68602">
        <ele>523</ele>
        <time>2019-01-18T10:53:35.000Z</time>
      </trkpt>
      <trkpt lat="43.33594" lon="5.68603">
        <ele>523</ele>
        <time>2019-01-18T10:53:36.000Z</time>
      </trkpt>
      <trkpt lat="43.33594" lon="5.68604">
        <ele>523</ele>
        <time>2019-01-18T10:53:37.000Z</time>
      </trkpt>
      <trkpt lat="43.33594" lon="5.68605">
        <ele>523</ele>
        <time>2019-01-18T10:53:38.000Z</time>
      </trkpt>
      <trkpt lat="43.33594" lon="5.68606">
        <ele>523</ele>
        <time>2019-01-18T10:53:39.000Z</time>
      </trkpt>
      <trkpt lat="43.33593" lon="5.68606">
        <ele>523</ele>
        <time>2019-01-18T10:53:40.000Z</time>
      </trkpt>
      <trkpt lat="43.33594" lon="5.68606">
        <ele>523</ele>
        <time>2019-01-18T10:53:41.000Z</time>
      </trkpt>
      <trkpt lat="43.33594" lon="5.68606">
        <ele>523</ele>
        <time>2019-01-18T10:53:42.000Z</time>
      </trkpt>
      <trkpt lat="43.33594" lon="5.68607">
        <ele>523</ele>
        <time>2019-01-18T10:53:43.000Z</time>
      </trkpt>
      <trkpt lat="43.33594" lon="5.68608">
        <ele>523</ele>
        <time>2019-01-18T10:53:44.000Z</time>
      </trkpt>
      <trkpt lat="43.33594" lon="5.6861">
        <ele>523</ele>
        <time>2019-01-18T10:53:45.000Z</time>
      </trkpt>
      <trkpt lat="43.33594" lon="5.68611">
        <ele>523</ele>
        <time>2019-01-18T10:53:46.000Z</time>
      </trkpt>
      <trkpt lat="43.33594" lon="5.68612">
        <ele>523</ele>
        <time>2019-01-18T10:53:47.000Z</time>
      </trkpt>
      <trkpt lat="43.33594" lon="5.68614">
        <ele>523</ele>
        <time>2019-01-18T10:53:48.000Z</time>
      </trkpt>
      <trkpt lat="43.33594" lon="5.68615">
        <ele>523</ele>
        <time>2019-01-18T10:53:49.000Z</time>
      </trkpt>
      <trkpt lat="43.33594" lon="5.68617">
        <ele>522</ele>
        <time>2019-01-18T10:53:50.000Z</time>
      </trkpt>
      <trkpt lat="43.33593" lon="5.68618">
        <ele>522</ele>
        <time>2019-01-18T10:53:51.000Z</time>
      </trkpt>
      <trkpt lat="43.33593" lon="5.68619">
        <ele>522</ele>
        <time>2019-01-18T10:53:52.000Z</time>
      </trkpt>
      <trkpt lat="43.33593" lon="5.68621">
        <ele>522</ele>
        <time>2019-01-18T10:53:53.000Z</time>
      </trkpt>
      <trkpt lat="43.33594" lon="5.68622">
        <ele>522</ele>
        <time>2019-01-18T10:53:54.000Z</time>
      </trkpt>
      <trkpt lat="43.33594" lon="5.68623">
        <ele>522</ele>
        <time>2019-01-18T10:53:55.000Z</time>
      </trkpt>
      <trkpt lat="43.33594" lon="5.68625">
        <ele>522</ele>
        <time>2019-01-18T10:53:56.000Z</time>
      </trkpt>
      <trkpt lat="43.33594" lon="5.68626">
        <ele>522</ele>
        <time>2019-01-18T10:53:57.000Z</time>
      </trkpt>
      <trkpt lat="43.33594" lon="5.68628">
        <ele>522</ele>
        <time>2019-01-18T10:53:58.000Z</time>
      </trkpt>
      <trkpt lat="43.33594" lon="5.68629">
        <ele>522</ele>
        <time>2019-01-18T10:53:59.000Z</time>
      </trkpt>
      <trkpt lat="43.33595" lon="5.68629">
        <ele>522</ele>
        <time>2019-01-18T10:54:00.000Z</time>
      </trkpt>
      <trkpt lat="43.33595" lon="5.68631">
        <ele>522</ele>
        <time>2019-01-18T10:54:01.000Z</time>
      </trkpt>
      <trkpt lat="43.33595" lon="5.68632">
        <ele>522</ele>
        <time>2019-01-18T10:54:02.000Z</time>
      </trkpt>
      <trkpt lat="43.33595" lon="5.68633">
        <ele>522</ele>
        <time>2019-01-18T10:54:03.000Z</time>
      </trkpt>
      <trkpt lat="43.33595" lon="5.68634">
        <ele>522</ele>
        <time>2019-01-18T10:54:04.000Z</time>
      </trkpt>
      <trkpt lat="43.33595" lon="5.68635">
        <ele>522</ele>
        <time>2019-01-18T10:54:05.000Z</time>
      </trkpt>
      <trkpt lat="43.33595" lon="5.68636">
        <ele>522</ele>
        <time>2019-01-18T10:54:06.000Z</time>
      </trkpt>
      <trkpt lat="43.33595" lon="5.68637">
        <ele>522</ele>
        <time>2019-01-18T10:54:07.000Z</time>
      </trkpt>
      <trkpt lat="43.33595" lon="5.68638">
        <ele>522</ele>
        <time>2019-01-18T10:54:08.000Z</time>
      </trkpt>
      <trkpt lat="43.33595" lon="5.68639">
        <ele>522</ele>
        <time>2019-01-18T10:54:09.000Z</time>
      </trkpt>
      <trkpt lat="43.33594" lon="5.6864">
        <ele>522</ele>
        <time>2019-01-18T10:54:10.000Z</time>
      </trkpt>
      <trkpt lat="43.33594" lon="5.68641">
        <ele>522</ele>
        <time>2019-01-18T10:54:11.000Z</time>
      </trkpt>
      <trkpt lat="43.33594" lon="5.68642">
        <ele>522</ele>
        <time>2019-01-18T10:54:12.000Z</time>
      </trkpt>
      <trkpt lat="43.33594" lon="5.68643">
        <ele>522</ele>
        <time>2019-01-18T10:54:13.000Z</time>
      </trkpt>
      <trkpt lat="43.33594" lon="5.68644">
        <ele>522</ele>
        <time>2019-01-18T10:54:14.000Z</time>
      </trkpt>
      <trkpt lat="43.33594" lon="5.68645">
        <ele>522</ele>
        <time>2019-01-18T10:54:15.000Z</time>
      </trkpt>
      <trkpt lat="43.33595" lon="5.68646">
        <ele>522</ele>
        <time>2019-01-18T10:54:16.000Z</time>
      </trkpt>
      <trkpt lat="43.33595" lon="5.68646">
        <ele>523</ele>
        <time>2019-01-18T10:54:17.000Z</time>
      </trkpt>
      <trkpt lat="43.33595" lon="5.68647">
        <ele>523</ele>
        <time>2019-01-18T10:54:18.000Z</time>
      </trkpt>
      <trkpt lat="43.33595" lon="5.68648">
        <ele>523</ele>
        <time>2019-01-18T10:54:19.000Z</time>
      </trkpt>
      <trkpt lat="43.33595" lon="5.68648">
        <ele>523</ele>
        <time>2019-01-18T10:54:20.000Z</time>
      </trkpt>
      <trkpt lat="43.33595" lon="5.6865">
        <ele>523</ele>
        <time>2019-01-18T10:54:21.000Z</time>
      </trkpt>
      <trkpt lat="43.33595" lon="5.68651">
        <ele>523</ele>
        <time>2019-01-18T10:54:22.000Z</time>
      </trkpt>
      <trkpt lat="43.33595" lon="5.68652">
        <ele>523</ele>
        <time>2019-01-18T10:54:23.000Z</time>
      </trkpt>
      <trkpt lat="43.33595" lon="5.68653">
        <ele>523</ele>
        <time>2019-01-18T10:54:24.000Z</time>
      </trkpt>
      <trkpt lat="43.33595" lon="5.68653">
        <ele>523</ele>
        <time>2019-01-18T10:54:25.000Z</time>
      </trkpt>
      <trkpt lat="43.33595" lon="5.68654">
        <ele>523</ele>
        <time>2019-01-18T10:54:26.000Z</time>
      </trkpt>
      <trkpt lat="43.33596" lon="5.68655">
        <ele>523</ele>
        <time>2019-01-18T10:54:27.000Z</time>
      </trkpt>
      <trkpt lat="43.33595" lon="5.68656">
        <ele>523</ele>
        <time>2019-01-18T10:54:28.000Z</time>
      </trkpt>
      <trkpt lat="43.33595" lon="5.68656">
        <ele>523</ele>
        <time>2019-01-18T10:54:29.000Z</time>
      </trkpt>
      <trkpt lat="43.33595" lon="5.68657">
        <ele>523</ele>
        <time>2019-01-18T10:54:30.000Z</time>
      </trkpt>
      <trkpt lat="43.33595" lon="5.68657">
        <ele>523</ele>
        <time>2019-01-18T10:54:31.000Z</time>
      </trkpt>
      <trkpt lat="43.33595" lon="5.68659">
        <ele>523</ele>
        <time>2019-01-18T10:54:32.000Z</time>
      </trkpt>
      <trkpt lat="43.33595" lon="5.6866">
        <ele>523</ele>
        <time>2019-01-18T10:54:33.000Z</time>
      </trkpt>
      <trkpt lat="43.33594" lon="5.68661">
        <ele>524</ele>
        <time>2019-01-18T10:54:34.000Z</time>
      </trkpt>
      <trkpt lat="43.33594" lon="5.68661">
        <ele>524</ele>
        <time>2019-01-18T10:54:35.000Z</time>
      </trkpt>
      <trkpt lat="43.33594" lon="5.68662">
        <ele>524</ele>
        <time>2019-01-18T10:54:36.000Z</time>
      </trkpt>
      <trkpt lat="43.33593" lon="5.68663">
        <ele>524</ele>
        <time>2019-01-18T10:54:37.000Z</time>
      </trkpt>
      <trkpt lat="43.33593" lon="5.68664">
        <ele>524</ele>
        <time>2019-01-18T10:54:38.000Z</time>
      </trkpt>
      <trkpt lat="43.33593" lon="5.68665">
        <ele>524</ele>
        <time>2019-01-18T10:54:39.000Z</time>
      </trkpt>
      <trkpt lat="43.33592" lon="5.68666">
        <ele>524</ele>
        <time>2019-01-18T10:54:40.000Z</time>
      </trkpt>
      <trkpt lat="43.33592" lon="5.68667">
        <ele>524</ele>
        <time>2019-01-18T10:54:41.000Z</time>
      </trkpt>
      <trkpt lat="43.33591" lon="5.68667">
        <ele>524</ele>
        <time>2019-01-18T10:54:42.000Z</time>
      </trkpt>
      <trkpt lat="43.33591" lon="5.68668">
        <ele>524</ele>
        <time>2019-01-18T10:54:43.000Z</time>
      </trkpt>
      <trkpt lat="43.33591" lon="5.68669">
        <ele>524</ele>
        <time>2019-01-18T10:54:44.000Z</time>
      </trkpt>
      <trkpt lat="43.3359" lon="5.68669">
        <ele>524</ele>
        <time>2019-01-18T10:54:45.000Z</time>
      </trkpt>
      <trkpt lat="43.3359" lon="5.6867">
        <ele>525</ele>
        <time>2019-01-18T10:54:46.000Z</time>
      </trkpt>
      <trkpt lat="43.3359" lon="5.6867">
        <ele>525</ele>
        <time>2019-01-18T10:54:47.000Z</time>
      </trkpt>
      <trkpt lat="43.3359" lon="5.68671">
        <ele>525</ele>
        <time>2019-01-18T10:54:48.000Z</time>
      </trkpt>
      <trkpt lat="43.33589" lon="5.68672">
        <ele>525</ele>
        <time>2019-01-18T10:54:49.000Z</time>
      </trkpt>
      <trkpt lat="43.33589" lon="5.68673">
        <ele>525</ele>
        <time>2019-01-18T10:54:50.000Z</time>
      </trkpt>
      <trkpt lat="43.33589" lon="5.68673">
        <ele>525</ele>
        <time>2019-01-18T10:54:51.000Z</time>
      </trkpt>
      <trkpt lat="43.33589" lon="5.68673">
        <ele>525</ele>
        <time>2019-01-18T10:54:52.000Z</time>
      </trkpt>
      <trkpt lat="43.33589" lon="5.68674">
        <ele>525</ele>
        <time>2019-01-18T10:54:53.000Z</time>
      </trkpt>
      <trkpt lat="43.33589" lon="5.68675">
        <ele>525</ele>
        <time>2019-01-18T10:54:54.000Z</time>
      </trkpt>
      <trkpt lat="43.33589" lon="5.68676">
        <ele>525</ele>
        <time>2019-01-18T10:54:55.000Z</time>
      </trkpt>
      <trkpt lat="43.33589" lon="5.68677">
        <ele>526</ele>
        <time>2019-01-18T10:54:56.000Z</time>
      </trkpt>
      <trkpt lat="43.33589" lon="5.68677">
        <ele>526</ele>
        <time>2019-01-18T10:54:57.000Z</time>
      </trkpt>
      <trkpt lat="43.3359" lon="5.68677">
        <ele>526</ele>
        <time>2019-01-18T10:54:58.000Z</time>
      </trkpt>
      <trkpt lat="43.3359" lon="5.68678">
        <ele>526</ele>
        <time>2019-01-18T10:54:59.000Z</time>
      </trkpt>
      <trkpt lat="43.3359" lon="5.68679">
        <ele>526</ele>
        <time>2019-01-18T10:55:00.000Z</time>
      </trkpt>
      <trkpt lat="43.3359" lon="5.68679">
        <ele>526</ele>
        <time>2019-01-18T10:55:01.000Z</time>
      </trkpt>
      <trkpt lat="43.33589" lon="5.6868">
        <ele>526</ele>
        <time>2019-01-18T10:55:02.000Z</time>
      </trkpt>
      <trkpt lat="43.33589" lon="5.6868">
        <ele>526</ele>
        <time>2019-01-18T10:55:03.000Z</time>
      </trkpt>
      <trkpt lat="43.33589" lon="5.68681">
        <ele>526</ele>
        <time>2019-01-18T10:55:04.000Z</time>
      </trkpt>
      <trkpt lat="43.33589" lon="5.68682">
        <ele>526</ele>
        <time>2019-01-18T10:55:05.000Z</time>
      </trkpt>
      <trkpt lat="43.33589" lon="5.68682">
        <ele>526</ele>
        <time>2019-01-18T10:55:06.000Z</time>
      </trkpt>
      <trkpt lat="43.33588" lon="5.68683">
        <ele>526</ele>
        <time>2019-01-18T10:55:07.000Z</time>
      </trkpt>
      <trkpt lat="43.33588" lon="5.68683">
        <ele>526</ele>
        <time>2019-01-18T10:55:08.000Z</time>
      </trkpt>
      <trkpt lat="43.33588" lon="5.68683">
        <ele>527</ele>
        <time>2019-01-18T10:55:09.000Z</time>
      </trkpt>
      <trkpt lat="43.33588" lon="5.68684">
        <ele>527</ele>
        <time>2019-01-18T10:55:10.000Z</time>
      </trkpt>
      <trkpt lat="43.33588" lon="5.68685">
        <ele>527</ele>
        <time>2019-01-18T10:55:11.000Z</time>
      </trkpt>
      <trkpt lat="43.33588" lon="5.68686">
        <ele>527</ele>
        <time>2019-01-18T10:55:12.000Z</time>
      </trkpt>
      <trkpt lat="43.33588" lon="5.68686">
        <ele>527</ele>
        <time>2019-01-18T10:55:13.000Z</time>
      </trkpt>
      <trkpt lat="43.33588" lon="5.68687">
        <ele>527</ele>
        <time>2019-01-18T10:55:14.000Z</time>
      </trkpt>
      <trkpt lat="43.33588" lon="5.68688">
        <ele>527</ele>
        <time>2019-01-18T10:55:15.000Z</time>
      </trkpt>
      <trkpt lat="43.33587" lon="5.68689">
        <ele>527</ele>
        <time>2019-01-18T10:55:16.000Z</time>
      </trkpt>
      <trkpt lat="43.33587" lon="5.68689">
        <ele>527</ele>
        <time>2019-01-18T10:55:17.000Z</time>
      </trkpt>
      <trkpt lat="43.33587" lon="5.68689">
        <ele>528</ele>
        <time>2019-01-18T10:55:18.000Z</time>
      </trkpt>
      <trkpt lat="43.33586" lon="5.68689">
        <ele>528</ele>
        <time>2019-01-18T10:55:19.000Z</time>
      </trkpt>
      <trkpt lat="43.33586" lon="5.6869">
        <ele>528</ele>
        <time>2019-01-18T10:55:20.000Z</time>
      </trkpt>
      <trkpt lat="43.33586" lon="5.6869">
        <ele>528</ele>
        <time>2019-01-18T10:55:21.000Z</time>
      </trkpt>
      <trkpt lat="43.33586" lon="5.6869">
        <ele>528</ele>
        <time>2019-01-18T10:55:22.000Z</time>
      </trkpt>
      <trkpt lat="43.33586" lon="5.6869">
        <ele>528</ele>
        <time>2019-01-18T10:55:23.000Z</time>
      </trkpt>
      <trkpt lat="43.33586" lon="5.6869">
        <ele>529</ele>
        <time>2019-01-18T10:55:24.000Z</time>
      </trkpt>
      <trkpt lat="43.33585" lon="5.6869">
        <ele>529</ele>
        <time>2019-01-18T10:55:25.000Z</time>
      </trkpt>
      <trkpt lat="43.33585" lon="5.68691">
        <ele>529</ele>
        <time>2019-01-18T10:55:26.000Z</time>
      </trkpt>
      <trkpt lat="43.33584" lon="5.68691">
        <ele>529</ele>
        <time>2019-01-18T10:55:27.000Z</time>
      </trkpt>
      <trkpt lat="43.33584" lon="5.68692">
        <ele>529</ele>
        <time>2019-01-18T10:55:28.000Z</time>
      </trkpt>
      <trkpt lat="43.33584" lon="5.68692">
        <ele>529</ele>
        <time>2019-01-18T10:55:29.000Z</time>
      </trkpt>
      <trkpt lat="43.33584" lon="5.68692">
        <ele>529</ele>
        <time>2019-01-18T10:55:30.000Z</time>
      </trkpt>
      <trkpt lat="43.33584" lon="5.68693">
        <ele>529</ele>
        <time>2019-01-18T10:55:31.000Z</time>
      </trkpt>
      <trkpt lat="43.33584" lon="5.68694">
        <ele>529</ele>
        <time>2019-01-18T10:55:32.000Z</time>
      </trkpt>
      <trkpt lat="43.33584" lon="5.68694">
        <ele>529</ele>
        <time>2019-01-18T10:55:33.000Z</time>
      </trkpt>
      <trkpt lat="43.33585" lon="5.68695">
        <ele>529</ele>
        <time>2019-01-18T10:55:34.000Z</time>
      </trkpt>
      <trkpt lat="43.33585" lon="5.68696">
        <ele>529</ele>
        <time>2019-01-18T10:55:35.000Z</time>
      </trkpt>
      <trkpt lat="43.33585" lon="5.68696">
        <ele>529</ele>
        <time>2019-01-18T10:55:36.000Z</time>
      </trkpt>
      <trkpt lat="43.33585" lon="5.68696">
        <ele>529</ele>
        <time>2019-01-18T10:55:37.000Z</time>
      </trkpt>
      <trkpt lat="43.33585" lon="5.68696">
        <ele>529</ele>
        <time>2019-01-18T10:55:38.000Z</time>
      </trkpt>
      <trkpt lat="43.33585" lon="5.68696">
        <ele>529</ele>
        <time>2019-01-18T10:55:39.000Z</time>
      </trkpt>
      <trkpt lat="43.33585" lon="5.68696">
        <ele>529</ele>
        <time>2019-01-18T10:55:40.000Z</time>
      </trkpt>
      <trkpt lat="43.33585" lon="5.68696">
        <ele>529</ele>
        <time>2019-01-18T10:55:41.000Z</time>
      </trkpt>
      <trkpt lat="43.33585" lon="5.68696">
        <ele>529</ele>
        <time>2019-01-18T10:55:42.000Z</time>
      </trkpt>
      <trkpt lat="43.33585" lon="5.68696">
        <ele>530</ele>
        <time>2019-01-18T10:55:43.000Z</time>
      </trkpt>
      <trkpt lat="43.33585" lon="5.68696">
        <ele>530</ele>
        <time>2019-01-18T10:55:44.000Z</time>
      </trkpt>
      <trkpt lat="43.33585" lon="5.68696">
        <ele>530</ele>
        <time>2019-01-18T10:55:45.000Z</time>
      </trkpt>
      <trkpt lat="43.33585" lon="5.68697">
        <ele>530</ele>
        <time>2019-01-18T10:55:46.000Z</time>
      </trkpt>
      <trkpt lat="43.33585" lon="5.68697">
        <ele>530</ele>
        <time>2019-01-18T10:55:47.000Z</time>
      </trkpt>
      <trkpt lat="43.33585" lon="5.68697">
        <ele>530</ele>
        <time>2019-01-18T10:55:48.000Z</time>
      </trkpt>
      <trkpt lat="43.33585" lon="5.68697">
        <ele>530</ele>
        <time>2019-01-18T10:55:49.000Z</time>
      </trkpt>
      <trkpt lat="43.33585" lon="5.68697">
        <ele>530</ele>
        <time>2019-01-18T10:55:50.000Z</time>
      </trkpt>
      <trkpt lat="43.33585" lon="5.68698">
        <ele>530</ele>
        <time>2019-01-18T10:55:51.000Z</time>
      </trkpt>
      <trkpt lat="43.33585" lon="5.68698">
        <ele>530</ele>
        <time>2019-01-18T10:55:52.000Z</time>
      </trkpt>
      <trkpt lat="43.33585" lon="5.68698">
        <ele>530</ele>
        <time>2019-01-18T10:55:53.000Z</time>
      </trkpt>
      <trkpt lat="43.33585" lon="5.68698">
        <ele>530</ele>
        <time>2019-01-18T10:55:54.000Z</time>
      </trkpt>
      <trkpt lat="43.33585" lon="5.68698">
        <ele>530</ele>
        <time>2019-01-18T10:55:55.000Z</time>
      </trkpt>
      <trkpt lat="43.33585" lon="5.68698">
        <ele>530</ele>
        <time>2019-01-18T10:55:56.000Z</time>
      </trkpt>
      <trkpt lat="43.33585" lon="5.68698">
        <ele>530</ele>
        <time>2019-01-18T10:55:57.000Z</time>
      </trkpt>
      <trkpt lat="43.33585" lon="5.68698">
        <ele>530</ele>
        <time>2019-01-18T10:55:58.000Z</time>
      </trkpt>
      <trkpt lat="43.33585" lon="5.68698">
        <ele>530</ele>
        <time>2019-01-18T10:55:59.000Z</time>
      </trkpt>
      <trkpt lat="43.33585" lon="5.68698">
        <ele>530</ele>
        <time>2019-01-18T10:56:00.000Z</time>
      </trkpt>
      <trkpt lat="43.33585" lon="5.68698">
        <ele>530</ele>
        <time>2019-01-18T10:56:01.000Z</time>
      </trkpt>
      <trkpt lat="43.33585" lon="5.68698">
        <ele>530</ele>
        <time>2019-01-18T10:56:02.000Z</time>
      </trkpt>
      <trkpt lat="43.33585" lon="5.68698">
        <ele>530</ele>
        <time>2019-01-18T10:56:03.000Z</time>
      </trkpt>
      <trkpt lat="43.33585" lon="5.68698">
        <ele>530</ele>
        <time>2019-01-18T10:56:04.000Z</time>
      </trkpt>
      <trkpt lat="43.33585" lon="5.68698">
        <ele>530</ele>
        <time>2019-01-18T10:56:05.000Z</time>
      </trkpt>
      <trkpt lat="43.33585" lon="5.68698">
        <ele>530</ele>
        <time>2019-01-18T10:56:06.000Z</time>
      </trkpt>
      <trkpt lat="43.33585" lon="5.68698">
        <ele>530</ele>
        <time>2019-01-18T10:56:07.000Z</time>
      </trkpt>
      <trkpt lat="43.33585" lon="5.68698">
        <ele>530</ele>
        <time>2019-01-18T10:56:08.000Z</time>
      </trkpt>
      <trkpt lat="43.33585" lon="5.68698">
        <ele>530</ele>
        <time>2019-01-18T10:56:09.000Z</time>
      </trkpt>
      <trkpt lat="43.33585" lon="5.68698">
        <ele>530</ele>
        <time>2019-01-18T10:56:10.000Z</time>
      </trkpt>
      <trkpt lat="43.33585" lon="5.68698">
        <ele>530</ele>
        <time>2019-01-18T10:56:11.000Z</time>
      </trkpt>
      <trkpt lat="43.33585" lon="5.68698">
        <ele>530</ele>
        <time>2019-01-18T10:56:12.000Z</time>
      </trkpt>
      <trkpt lat="43.33585" lon="5.68698">
        <ele>530</ele>
        <time>2019-01-18T10:56:13.000Z</time>
      </trkpt>
      <trkpt lat="43.33585" lon="5.68698">
        <ele>530</ele>
        <time>2019-01-18T10:56:14.000Z</time>
      </trkpt>
      <trkpt lat="43.33585" lon="5.68698">
        <ele>530</ele>
        <time>2019-01-18T10:56:15.000Z</time>
      </trkpt>
      <trkpt lat="43.33585" lon="5.68698">
        <ele>530</ele>
        <time>2019-01-18T10:56:16.000Z</time>
      </trkpt>
      <trkpt lat="43.33585" lon="5.68698">
        <ele>530</ele>
        <time>2019-01-18T10:56:17.000Z</time>
      </trkpt>
      <trkpt lat="43.33585" lon="5.68698">
        <ele>530</ele>
        <time>2019-01-18T10:56:18.000Z</time>
      </trkpt>
      <trkpt lat="43.33585" lon="5.68698">
        <ele>530</ele>
        <time>2019-01-18T10:56:19.000Z</time>
      </trkpt>
      <trkpt lat="43.33585" lon="5.68698">
        <ele>530</ele>
        <time>2019-01-18T10:56:20.000Z</time>
      </trkpt>
      <trkpt lat="43.33585" lon="5.68698">
        <ele>530</ele>
        <time>2019-01-18T10:56:21.000Z</time>
      </trkpt>
      <trkpt lat="43.33585" lon="5.68698">
        <ele>530</ele>
        <time>2019-01-18T10:56:22.000Z</time>
      </trkpt>
      <trkpt lat="43.33585" lon="5.68698">
        <ele>530</ele>
        <time>2019-01-18T10:56:23.000Z</time>
      </trkpt>
      <trkpt lat="43.33585" lon="5.68698">
        <ele>530</ele>
        <time>2019-01-18T10:56:24.000Z</time>
      </trkpt>
      <trkpt lat="43.33585" lon="5.68698">
        <ele>530</ele>
        <time>2019-01-18T10:56:25.000Z</time>
      </trkpt>
      <trkpt lat="43.33585" lon="5.68698">
        <ele>530</ele>
        <time>2019-01-18T10:56:26.000Z</time>
      </trkpt>
      <trkpt lat="43.33585" lon="5.68698">
        <ele>530</ele>
        <time>2019-01-18T10:56:27.000Z</time>
      </trkpt>
      <trkpt lat="43.33585" lon="5.68699">
        <ele>530</ele>
        <time>2019-01-18T10:56:28.000Z</time>
      </trkpt>
      <trkpt lat="43.33585" lon="5.68699">
        <ele>530</ele>
        <time>2019-01-18T10:56:29.000Z</time>
      </trkpt>
      <trkpt lat="43.33585" lon="5.68699">
        <ele>530</ele>
        <time>2019-01-18T10:56:30.000Z</time>
      </trkpt>
      <trkpt lat="43.33585" lon="5.68699">
        <ele>530</ele>
        <time>2019-01-18T10:56:31.000Z</time>
      </trkpt>
      <trkpt lat="43.33585" lon="5.68699">
        <ele>530</ele>
        <time>2019-01-18T10:56:32.000Z</time>
      </trkpt>
      <trkpt lat="43.33585" lon="5.68699">
        <ele>530</ele>
        <time>2019-01-18T10:56:33.000Z</time>
      </trkpt>
      <trkpt lat="43.33585" lon="5.68699">
        <ele>530</ele>
        <time>2019-01-18T10:56:34.000Z</time>
      </trkpt>
      <trkpt lat="43.33585" lon="5.68699">
        <ele>530</ele>
        <time>2019-01-18T10:56:35.000Z</time>
      </trkpt>
      <trkpt lat="43.33585" lon="5.68699">
        <ele>530</ele>
        <time>2019-01-18T10:56:36.000Z</time>
      </trkpt>
      <trkpt lat="43.33585" lon="5.687">
        <ele>530</ele>
        <time>2019-01-18T10:56:37.000Z</time>
      </trkpt>
      <trkpt lat="43.33585" lon="5.687">
        <ele>530</ele>
        <time>2019-01-18T10:56:38.000Z</time>
      </trkpt>
      <trkpt lat="43.33585" lon="5.687">
        <ele>530</ele>
        <time>2019-01-18T10:56:39.000Z</time>
      </trkpt>
      <trkpt lat="43.33585" lon="5.687">
        <ele>530</ele>
        <time>2019-01-18T10:56:40.000Z</time>
      </trkpt>
      <trkpt lat="43.33585" lon="5.687">
        <ele>530</ele>
        <time>2019-01-18T10:56:41.000Z</time>
      </trkpt>
      <trkpt lat="43.33585" lon="5.687">
        <ele>530</ele>
        <time>2019-01-18T10:56:42.000Z</time>
      </trkpt>
      <trkpt lat="43.33586" lon="5.687">
        <ele>530</ele>
        <time>2019-01-18T10:56:43.000Z</time>
      </trkpt>
      <trkpt lat="43.33586" lon="5.687">
        <ele>530</ele>
        <time>2019-01-18T10:56:44.000Z</time>
      </trkpt>
      <trkpt lat="43.33586" lon="5.687">
        <ele>530</ele>
        <time>2019-01-18T10:56:45.000Z</time>
      </trkpt>
      <trkpt lat="43.33586" lon="5.687">
        <ele>529</ele>
        <time>2019-01-18T10:56:46.000Z</time>
      </trkpt>
      <trkpt lat="43.33586" lon="5.687">
        <ele>529</ele>
        <time>2019-01-18T10:56:47.000Z</time>
      </trkpt>
      <trkpt lat="43.33586" lon="5.687">
        <ele>529</ele>
        <time>2019-01-18T10:56:48.000Z</time>
      </trkpt>
      <trkpt lat="43.33586" lon="5.687">
        <ele>529</ele>
        <time>2019-01-18T10:56:49.000Z</time>
      </trkpt>
      <trkpt lat="43.33586" lon="5.687">
        <ele>529</ele>
        <time>2019-01-18T10:56:50.000Z</time>
      </trkpt>
      <trkpt lat="43.33586" lon="5.687">
        <ele>529</ele>
        <time>2019-01-18T10:56:51.000Z</time>
      </trkpt>
      <trkpt lat="43.33586" lon="5.687">
        <ele>529</ele>
        <time>2019-01-18T10:56:52.000Z</time>
      </trkpt>
      <trkpt lat="43.33586" lon="5.687">
        <ele>529</ele>
        <time>2019-01-18T10:56:53.000Z</time>
      </trkpt>
      <trkpt lat="43.33586" lon="5.68701">
        <ele>529</ele>
        <time>2019-01-18T10:56:54.000Z</time>
      </trkpt>
      <trkpt lat="43.33586" lon="5.68701">
        <ele>529</ele>
        <time>2019-01-18T10:56:55.000Z</time>
      </trkpt>
      <trkpt lat="43.33586" lon="5.68701">
        <ele>529</ele>
        <time>2019-01-18T10:56:56.000Z</time>
      </trkpt>
      <trkpt lat="43.33586" lon="5.68701">
        <ele>529</ele>
        <time>2019-01-18T10:56:57.000Z</time>
      </trkpt>
      <trkpt lat="43.33586" lon="5.68701">
        <ele>529</ele>
        <time>2019-01-18T10:56:58.000Z</time>
      </trkpt>
      <trkpt lat="43.33586" lon="5.68701">
        <ele>529</ele>
        <time>2019-01-18T10:56:59.000Z</time>
      </trkpt>
      <trkpt lat="43.33586" lon="5.68701">
        <ele>529</ele>
        <time>2019-01-18T10:57:00.000Z</time>
      </trkpt>
      <trkpt lat="43.33586" lon="5.68701">
        <ele>529</ele>
        <time>2019-01-18T10:57:01.000Z</time>
      </trkpt>
      <trkpt lat="43.33586" lon="5.68701">
        <ele>529</ele>
        <time>2019-01-18T10:57:02.000Z</time>
      </trkpt>
      <trkpt lat="43.33586" lon="5.68701">
        <ele>529</ele>
        <time>2019-01-18T10:57:03.000Z</time>
      </trkpt>
      <trkpt lat="43.33586" lon="5.68701">
        <ele>529</ele>
        <time>2019-01-18T10:57:04.000Z</time>
      </trkpt>
      <trkpt lat="43.33586" lon="5.68701">
        <ele>529</ele>
        <time>2019-01-18T10:57:05.000Z</time>
      </trkpt>
      <trkpt lat="43.33586" lon="5.68701">
        <ele>529</ele>
        <time>2019-01-18T10:57:06.000Z</time>
      </trkpt>
      <trkpt lat="43.33586" lon="5.68702">
        <ele>529</ele>
        <time>2019-01-18T10:57:07.000Z</time>
      </trkpt>
      <trkpt lat="43.33586" lon="5.68702">
        <ele>529</ele>
        <time>2019-01-18T10:57:08.000Z</time>
      </trkpt>
      <trkpt lat="43.33586" lon="5.68702">
        <ele>529</ele>
        <time>2019-01-18T10:57:09.000Z</time>
      </trkpt>
      <trkpt lat="43.33586" lon="5.68702">
        <ele>529</ele>
        <time>2019-01-18T10:57:10.000Z</time>
      </trkpt>
      <trkpt lat="43.33586" lon="5.68702">
        <ele>529</ele>
        <time>2019-01-18T10:57:11.000Z</time>
      </trkpt>
      <trkpt lat="43.33586" lon="5.68702">
        <ele>529</ele>
        <time>2019-01-18T10:57:12.000Z</time>
      </trkpt>
      <trkpt lat="43.33586" lon="5.68702">
        <ele>529</ele>
        <time>2019-01-18T10:57:13.000Z</time>
      </trkpt>
      <trkpt lat="43.33586" lon="5.68702">
        <ele>529</ele>
        <time>2019-01-18T10:57:14.000Z</time>
      </trkpt>
      <trkpt lat="43.33586" lon="5.68702">
        <ele>529</ele>
        <time>2019-01-18T10:57:15.000Z</time>
      </trkpt>
      <trkpt lat="43.33586" lon="5.68702">
        <ele>529</ele>
        <time>2019-01-18T10:57:16.000Z</time>
      </trkpt>
      <trkpt lat="43.33586" lon="5.68702">
        <ele>529</ele>
        <time>2019-01-18T10:57:17.000Z</time>
      </trkpt>
      <trkpt lat="43.33586" lon="5.68702">
        <ele>529</ele>
        <time>2019-01-18T10:57:18.000Z</time>
      </trkpt>
      <trkpt lat="43.33586" lon="5.68702">
        <ele>529</ele>
        <time>2019-01-18T10:57:19.000Z</time>
      </trkpt>
      <trkpt lat="43.33586" lon="5.68702">
        <ele>529</ele>
        <time>2019-01-18T10:57:20.000Z</time>
      </trkpt>
      <trkpt lat="43.33586" lon="5.68702">
        <ele>529</ele>
        <time>2019-01-18T10:57:21.000Z</time>
      </trkpt>
      <trkpt lat="43.33586" lon="5.68702">
        <ele>529</ele>
        <time>2019-01-18T10:57:22.000Z</time>
      </trkpt>
      <trkpt lat="43.33586" lon="5.68702">
        <ele>529</ele>
        <time>2019-01-18T10:57:23.000Z</time>
      </trkpt>
      <trkpt lat="43.33586" lon="5.68702">
        <ele>529</ele>
        <time>2019-01-18T10:57:24.000Z</time>
      </trkpt>
      <trkpt lat="43.33586" lon="5.68702">
        <ele>529</ele>
        <time>2019-01-18T10:57:25.000Z</time>
      </trkpt>
      <trkpt lat="43.33586" lon="5.68702">
        <ele>529</ele>
        <time>2019-01-18T10:57:26.000Z</time>
      </trkpt>
      <trkpt lat="43.33586" lon="5.68702">
        <ele>529</ele>
        <time>2019-01-18T10:57:27.000Z</time>
      </trkpt>
      <trkpt lat="43.33586" lon="5.68701">
        <ele>529</ele>
        <time>2019-01-18T10:57:28.000Z</time>
      </trkpt>
      <trkpt lat="43.33586" lon="5.687">
        <ele>529</ele>
        <time>2019-01-18T10:57:29.000Z</time>
      </trkpt>
      <trkpt lat="43.33586" lon="5.68699">
        <ele>529</ele>
        <time>2019-01-18T10:57:30.000Z</time>
      </trkpt>
      <trkpt lat="43.33586" lon="5.68698">
        <ele>529</ele>
        <time>2019-01-18T10:57:31.000Z</time>
      </trkpt>
      <trkpt lat="43.33586" lon="5.68698">
        <ele>529</ele>
        <time>2019-01-18T10:57:32.000Z</time>
      </trkpt>
      <trkpt lat="43.33585" lon="5.68698">
        <ele>529</ele>
        <time>2019-01-18T10:57:33.000Z</time>
      </trkpt>
      <trkpt lat="43.33585" lon="5.68697">
        <ele>529</ele>
        <time>2019-01-18T10:57:34.000Z</time>
      </trkpt>
      <trkpt lat="43.33585" lon="5.68697">
        <ele>529</ele>
        <time>2019-01-18T10:57:35.000Z</time>
      </trkpt>
      <trkpt lat="43.33586" lon="5.68697">
        <ele>529</ele>
        <time>2019-01-18T10:57:36.000Z</time>
      </trkpt>
      <trkpt lat="43.33586" lon="5.68696">
        <ele>529</ele>
        <time>2019-01-18T10:57:37.000Z</time>
      </trkpt>
      <trkpt lat="43.33586" lon="5.68696">
        <ele>529</ele>
        <time>2019-01-18T10:57:38.000Z</time>
      </trkpt>
      <trkpt lat="43.33585" lon="5.68697">
        <ele>529</ele>
        <time>2019-01-18T10:57:39.000Z</time>
      </trkpt>
      <trkpt lat="43.33585" lon="5.68696">
        <ele>529</ele>
        <time>2019-01-18T10:57:40.000Z</time>
      </trkpt>
      <trkpt lat="43.33585" lon="5.68695">
        <ele>529</ele>
        <time>2019-01-18T10:57:41.000Z</time>
      </trkpt>
      <trkpt lat="43.33586" lon="5.68695">
        <ele>529</ele>
        <time>2019-01-18T10:57:42.000Z</time>
      </trkpt>
      <trkpt lat="43.33586" lon="5.68695">
        <ele>529</ele>
        <time>2019-01-18T10:57:43.000Z</time>
      </trkpt>
      <trkpt lat="43.33586" lon="5.68695">
        <ele>529</ele>
        <time>2019-01-18T10:57:44.000Z</time>
      </trkpt>
      <trkpt lat="43.33586" lon="5.68696">
        <ele>529</ele>
        <time>2019-01-18T10:57:45.000Z</time>
      </trkpt>
      <trkpt lat="43.33586" lon="5.68696">
        <ele>529</ele>
        <time>2019-01-18T10:57:46.000Z</time>
      </trkpt>
      <trkpt lat="43.33586" lon="5.68696">
        <ele>529</ele>
        <time>2019-01-18T10:57:47.000Z</time>
      </trkpt>
      <trkpt lat="43.33586" lon="5.68696">
        <ele>529</ele>
        <time>2019-01-18T10:57:48.000Z</time>
      </trkpt>
      <trkpt lat="43.33586" lon="5.68696">
        <ele>529</ele>
        <time>2019-01-18T10:57:49.000Z</time>
      </trkpt>
      <trkpt lat="43.33586" lon="5.68696">
        <ele>529</ele>
        <time>2019-01-18T10:57:50.000Z</time>
      </trkpt>
      <trkpt lat="43.33586" lon="5.68696">
        <ele>529</ele>
        <time>2019-01-18T10:57:51.000Z</time>
      </trkpt>
      <trkpt lat="43.33586" lon="5.68696">
        <ele>529</ele>
        <time>2019-01-18T10:57:52.000Z</time>
      </trkpt>
      <trkpt lat="43.33586" lon="5.68696">
        <ele>529</ele>
        <time>2019-01-18T10:57:53.000Z</time>
      </trkpt>
      <trkpt lat="43.33586" lon="5.68696">
        <ele>529</ele>
        <time>2019-01-18T10:57:54.000Z</time>
      </trkpt>
      <trkpt lat="43.33586" lon="5.68696">
        <ele>529</ele>
        <time>2019-01-18T10:57:55.000Z</time>
      </trkpt>
      <trkpt lat="43.33587" lon="5.68696">
        <ele>529</ele>
        <time>2019-01-18T10:57:56.000Z</time>
      </trkpt>
      <trkpt lat="43.33587" lon="5.68696">
        <ele>529</ele>
        <time>2019-01-18T10:57:57.000Z</time>
      </trkpt>
      <trkpt lat="43.33587" lon="5.68696">
        <ele>529</ele>
        <time>2019-01-18T10:57:58.000Z</time>
      </trkpt>
      <trkpt lat="43.33587" lon="5.68696">
        <ele>529</ele>
        <time>2019-01-18T10:57:59.000Z</time>
      </trkpt>
      <trkpt lat="43.33587" lon="5.68697">
        <ele>529</ele>
        <time>2019-01-18T10:58:00.000Z</time>
      </trkpt>
      <trkpt lat="43.33587" lon="5.68697">
        <ele>529</ele>
        <time>2019-01-18T10:58:01.000Z</time>
      </trkpt>
      <trkpt lat="43.33587" lon="5.68698">
        <ele>529</ele>
        <time>2019-01-18T10:58:02.000Z</time>
      </trkpt>
      <trkpt lat="43.33587" lon="5.68698">
        <ele>529</ele>
        <time>2019-01-18T10:58:03.000Z</time>
      </trkpt>
      <trkpt lat="43.33587" lon="5.68698">
        <ele>529</ele>
        <time>2019-01-18T10:58:04.000Z</time>
      </trkpt>
      <trkpt lat="43.33587" lon="5.68698">
        <ele>529</ele>
        <time>2019-01-18T10:58:05.000Z</time>
      </trkpt>
      <trkpt lat="43.33587" lon="5.68698">
        <ele>529</ele>
        <time>2019-01-18T10:58:06.000Z</time>
      </trkpt>
      <trkpt lat="43.33587" lon="5.68698">
        <ele>529</ele>
        <time>2019-01-18T10:58:07.000Z</time>
      </trkpt>
      <trkpt lat="43.33587" lon="5.68699">
        <ele>529</ele>
        <time>2019-01-18T10:58:08.000Z</time>
      </trkpt>
      <trkpt lat="43.33587" lon="5.68699">
        <ele>529</ele>
        <time>2019-01-18T10:58:09.000Z</time>
      </trkpt>
      <trkpt lat="43.33587" lon="5.68699">
        <ele>529</ele>
        <time>2019-01-18T10:58:10.000Z</time>
      </trkpt>
      <trkpt lat="43.33587" lon="5.687">
        <ele>529</ele>
        <time>2019-01-18T10:58:11.000Z</time>
      </trkpt>
      <trkpt lat="43.33587" lon="5.687">
        <ele>529</ele>
        <time>2019-01-18T10:58:12.000Z</time>
      </trkpt>
      <trkpt lat="43.33587" lon="5.687">
        <ele>529</ele>
        <time>2019-01-18T10:58:13.000Z</time>
      </trkpt>
      <trkpt lat="43.33587" lon="5.687">
        <ele>530</ele>
        <time>2019-01-18T10:58:14.000Z</time>
      </trkpt>
      <trkpt lat="43.33587" lon="5.687">
        <ele>530</ele>
        <time>2019-01-18T10:58:15.000Z</time>
      </trkpt>
      <trkpt lat="43.33587" lon="5.687">
        <ele>530</ele>
        <time>2019-01-18T10:58:16.000Z</time>
      </trkpt>
      <trkpt lat="43.33587" lon="5.687">
        <ele>530</ele>
        <time>2019-01-18T10:58:17.000Z</time>
      </trkpt>
      <trkpt lat="43.33587" lon="5.687">
        <ele>530</ele>
        <time>2019-01-18T10:58:18.000Z</time>
      </trkpt>
      <trkpt lat="43.33587" lon="5.687">
        <ele>530</ele>
        <time>2019-01-18T10:58:19.000Z</time>
      </trkpt>
      <trkpt lat="43.33587" lon="5.687">
        <ele>530</ele>
        <time>2019-01-18T10:58:20.000Z</time>
      </trkpt>
      <trkpt lat="43.33587" lon="5.68701">
        <ele>530</ele>
        <time>2019-01-18T10:58:21.000Z</time>
      </trkpt>
      <trkpt lat="43.33587" lon="5.68701">
        <ele>530</ele>
        <time>2019-01-18T10:58:22.000Z</time>
      </trkpt>
      <trkpt lat="43.33587" lon="5.68701">
        <ele>530</ele>
        <time>2019-01-18T10:58:23.000Z</time>
      </trkpt>
      <trkpt lat="43.33587" lon="5.68701">
        <ele>530</ele>
        <time>2019-01-18T10:58:24.000Z</time>
      </trkpt>
      <trkpt lat="43.33587" lon="5.68701">
        <ele>530</ele>
        <time>2019-01-18T10:58:25.000Z</time>
      </trkpt>
      <trkpt lat="43.33587" lon="5.68701">
        <ele>530</ele>
        <time>2019-01-18T10:58:26.000Z</time>
      </trkpt>
      <trkpt lat="43.33587" lon="5.68701">
        <ele>531</ele>
        <time>2019-01-18T10:58:27.000Z</time>
      </trkpt>
      <trkpt lat="43.33587" lon="5.68701">
        <ele>531</ele>
        <time>2019-01-18T10:58:28.000Z</time>
      </trkpt>
      <trkpt lat="43.33587" lon="5.68701">
        <ele>531</ele>
        <time>2019-01-18T10:58:29.000Z</time>
      </trkpt>
      <trkpt lat="43.33587" lon="5.68701">
        <ele>531</ele>
        <time>2019-01-18T10:58:30.000Z</time>
      </trkpt>
      <trkpt lat="43.33587" lon="5.68701">
        <ele>531</ele>
        <time>2019-01-18T10:58:31.000Z</time>
      </trkpt>
      <trkpt lat="43.33587" lon="5.68701">
        <ele>531</ele>
        <time>2019-01-18T10:58:32.000Z</time>
      </trkpt>
      <trkpt lat="43.33587" lon="5.68701">
        <ele>531</ele>
        <time>2019-01-18T10:58:33.000Z</time>
      </trkpt>
      <trkpt lat="43.33587" lon="5.68701">
        <ele>531</ele>
        <time>2019-01-18T10:58:34.000Z</time>
      </trkpt>
      <trkpt lat="43.33587" lon="5.68701">
        <ele>531</ele>
        <time>2019-01-18T10:58:35.000Z</time>
      </trkpt>
      <trkpt lat="43.33587" lon="5.68701">
        <ele>531</ele>
        <time>2019-01-18T10:58:36.000Z</time>
      </trkpt>
      <trkpt lat="43.33587" lon="5.68701">
        <ele>531</ele>
        <time>2019-01-18T10:58:37.000Z</time>
      </trkpt>
      <trkpt lat="43.33587" lon="5.68701">
        <ele>531</ele>
        <time>2019-01-18T10:58:38.000Z</time>
      </trkpt>
      <trkpt lat="43.33587" lon="5.68701">
        <ele>531</ele>
        <time>2019-01-18T10:58:39.000Z</time>
      </trkpt>
      <trkpt lat="43.33587" lon="5.68702">
        <ele>531</ele>
        <time>2019-01-18T10:58:40.000Z</time>
      </trkpt>
      <trkpt lat="43.33587" lon="5.68702">
        <ele>531</ele>
        <time>2019-01-18T10:58:41.000Z</time>
      </trkpt>
      <trkpt lat="43.33587" lon="5.68702">
        <ele>531</ele>
        <time>2019-01-18T10:58:42.000Z</time>
      </trkpt>
      <trkpt lat="43.33587" lon="5.68702">
        <ele>531</ele>
        <time>2019-01-18T10:58:43.000Z</time>
      </trkpt>
      <trkpt lat="43.33587" lon="5.68702">
        <ele>531</ele>
        <time>2019-01-18T10:58:44.000Z</time>
      </trkpt>
      <trkpt lat="43.33587" lon="5.68702">
        <ele>531</ele>
        <time>2019-01-18T10:58:45.000Z</time>
      </trkpt>
      <trkpt lat="43.33587" lon="5.68702">
        <ele>531</ele>
        <time>2019-01-18T10:58:46.000Z</time>
      </trkpt>
      <trkpt lat="43.33587" lon="5.68702">
        <ele>531</ele>
        <time>2019-01-18T10:58:47.000Z</time>
      </trkpt>
      <trkpt lat="43.33587" lon="5.68702">
        <ele>531</ele>
        <time>2019-01-18T10:58:48.000Z</time>
      </trkpt>
      <trkpt lat="43.33587" lon="5.68702">
        <ele>531</ele>
        <time>2019-01-18T10:58:49.000Z</time>
      </trkpt>
      <trkpt lat="43.33587" lon="5.68702">
        <ele>531</ele>
        <time>2019-01-18T10:58:50.000Z</time>
      </trkpt>
      <trkpt lat="43.33587" lon="5.68702">
        <ele>531</ele>
        <time>2019-01-18T10:58:51.000Z</time>
      </trkpt>
      <trkpt lat="43.33587" lon="5.68702">
        <ele>531</ele>
        <time>2019-01-18T10:58:52.000Z</time>
      </trkpt>
      <trkpt lat="43.33587" lon="5.68702">
        <ele>531</ele>
        <time>2019-01-18T10:58:53.000Z</time>
      </trkpt>
      <trkpt lat="43.33587" lon="5.68702">
        <ele>531</ele>
        <time>2019-01-18T10:58:54.000Z</time>
      </trkpt>
      <trkpt lat="43.33587" lon="5.68702">
        <ele>531</ele>
        <time>2019-01-18T10:58:55.000Z</time>
      </trkpt>
      <trkpt lat="43.33587" lon="5.68702">
        <ele>531</ele>
        <time>2019-01-18T10:58:56.000Z</time>
      </trkpt>
      <trkpt lat="43.33587" lon="5.68702">
        <ele>531</ele>
        <time>2019-01-18T10:58:57.000Z</time>
      </trkpt>
      <trkpt lat="43.33587" lon="5.68702">
        <ele>531</ele>
        <time>2019-01-18T10:58:58.000Z</time>
      </trkpt>
      <trkpt lat="43.33587" lon="5.68702">
        <ele>531</ele>
        <time>2019-01-18T10:58:59.000Z</time>
      </trkpt>
      <trkpt lat="43.33587" lon="5.68702">
        <ele>531</ele>
        <time>2019-01-18T10:59:00.000Z</time>
      </trkpt>
      <trkpt lat="43.33588" lon="5.68702">
        <ele>531</ele>
        <time>2019-01-18T10:59:01.000Z</time>
      </trkpt>
      <trkpt lat="43.33588" lon="5.68702">
        <ele>531</ele>
        <time>2019-01-18T10:59:02.000Z</time>
      </trkpt>
      <trkpt lat="43.33588" lon="5.68702">
        <ele>531</ele>
        <time>2019-01-18T10:59:03.000Z</time>
      </trkpt>
      <trkpt lat="43.33588" lon="5.68702">
        <ele>531</ele>
        <time>2019-01-18T10:59:04.000Z</time>
      </trkpt>
      <trkpt lat="43.33588" lon="5.68702">
        <ele>531</ele>
        <time>2019-01-18T10:59:05.000Z</time>
      </trkpt>
      <trkpt lat="43.33588" lon="5.68702">
        <ele>531</ele>
        <time>2019-01-18T10:59:06.000Z</time>
      </trkpt>
      <trkpt lat="43.33588" lon="5.68702">
        <ele>531</ele>
        <time>2019-01-18T10:59:07.000Z</time>
      </trkpt>
      <trkpt lat="43.33588" lon="5.68702">
        <ele>531</ele>
        <time>2019-01-18T10:59:08.000Z</time>
      </trkpt>
      <trkpt lat="43.33588" lon="5.68702">
        <ele>531</ele>
        <time>2019-01-18T10:59:09.000Z</time>
      </trkpt>
      <trkpt lat="43.33588" lon="5.68702">
        <ele>531</ele>
        <time>2019-01-18T10:59:10.000Z</time>
      </trkpt>
      <trkpt lat="43.33588" lon="5.68702">
        <ele>531</ele>
        <time>2019-01-18T10:59:11.000Z</time>
      </trkpt>
      <trkpt lat="43.33588" lon="5.68702">
        <ele>531</ele>
        <time>2019-01-18T10:59:12.000Z</time>
      </trkpt>
      <trkpt lat="43.33588" lon="5.68702">
        <ele>531</ele>
        <time>2019-01-18T10:59:13.000Z</time>
      </trkpt>
      <trkpt lat="43.33588" lon="5.68703">
        <ele>531</ele>
        <time>2019-01-18T10:59:14.000Z</time>
      </trkpt>
      <trkpt lat="43.33588" lon="5.68703">
        <ele>531</ele>
        <time>2019-01-18T10:59:15.000Z</time>
      </trkpt>
      <trkpt lat="43.33588" lon="5.68703">
        <ele>531</ele>
        <time>2019-01-18T10:59:16.000Z</time>
      </trkpt>
      <trkpt lat="43.33588" lon="5.68703">
        <ele>531</ele>
        <time>2019-01-18T10:59:17.000Z</time>
      </trkpt>
      <trkpt lat="43.33588" lon="5.68703">
        <ele>531</ele>
        <time>2019-01-18T10:59:18.000Z</time>
      </trkpt>
      <trkpt lat="43.33587" lon="5.68703">
        <ele>531</ele>
        <time>2019-01-18T10:59:19.000Z</time>
      </trkpt>
      <trkpt lat="43.33587" lon="5.68703">
        <ele>531</ele>
        <time>2019-01-18T10:59:20.000Z</time>
      </trkpt>
      <trkpt lat="43.33587" lon="5.68703">
        <ele>531</ele>
        <time>2019-01-18T10:59:21.000Z</time>
      </trkpt>
      <trkpt lat="43.33588" lon="5.68703">
        <ele>531</ele>
        <time>2019-01-18T10:59:22.000Z</time>
      </trkpt>
      <trkpt lat="43.33588" lon="5.68703">
        <ele>531</ele>
        <time>2019-01-18T10:59:23.000Z</time>
      </trkpt>
      <trkpt lat="43.33588" lon="5.68703">
        <ele>531</ele>
        <time>2019-01-18T10:59:24.000Z</time>
      </trkpt>
      <trkpt lat="43.33588" lon="5.68703">
        <ele>531</ele>
        <time>2019-01-18T10:59:25.000Z</time>
      </trkpt>
      <trkpt lat="43.33588" lon="5.68703">
        <ele>531</ele>
        <time>2019-01-18T10:59:26.000Z</time>
      </trkpt>
      <trkpt lat="43.33588" lon="5.68703">
        <ele>531</ele>
        <time>2019-01-18T10:59:27.000Z</time>
      </trkpt>
      <trkpt lat="43.33588" lon="5.68704">
        <ele>531</ele>
        <time>2019-01-18T10:59:28.000Z</time>
      </trkpt>
      <trkpt lat="43.33588" lon="5.68704">
        <ele>531</ele>
        <time>2019-01-18T10:59:29.000Z</time>
      </trkpt>
      <trkpt lat="43.33588" lon="5.68705">
        <ele>531</ele>
        <time>2019-01-18T10:59:30.000Z</time>
      </trkpt>
      <trkpt lat="43.33588" lon="5.68705">
        <ele>531</ele>
        <time>2019-01-18T10:59:31.000Z</time>
      </trkpt>
      <trkpt lat="43.33588" lon="5.68705">
        <ele>531</ele>
        <time>2019-01-18T10:59:32.000Z</time>
      </trkpt>
      <trkpt lat="43.33589" lon="5.68705">
        <ele>531</ele>
        <time>2019-01-18T10:59:33.000Z</time>
      </trkpt>
      <trkpt lat="43.33589" lon="5.68705">
        <ele>531</ele>
        <time>2019-01-18T10:59:34.000Z</time>
      </trkpt>
      <trkpt lat="43.33589" lon="5.68705">
        <ele>531</ele>
        <time>2019-01-18T10:59:35.000Z</time>
      </trkpt>
      <trkpt lat="43.33589" lon="5.68705">
        <ele>532</ele>
        <time>2019-01-18T10:59:36.000Z</time>
      </trkpt>
      <trkpt lat="43.33589" lon="5.68705">
        <ele>532</ele>
        <time>2019-01-18T10:59:37.000Z</time>
      </trkpt>
      <trkpt lat="43.33589" lon="5.68705">
        <ele>532</ele>
        <time>2019-01-18T10:59:38.000Z</time>
      </trkpt>
      <trkpt lat="43.33589" lon="5.68705">
        <ele>532</ele>
        <time>2019-01-18T10:59:39.000Z</time>
      </trkpt>
      <trkpt lat="43.33589" lon="5.68705">
        <ele>532</ele>
        <time>2019-01-18T10:59:40.000Z</time>
      </trkpt>
      <trkpt lat="43.33589" lon="5.68705">
        <ele>532</ele>
        <time>2019-01-18T10:59:41.000Z</time>
      </trkpt>
      <trkpt lat="43.33589" lon="5.68705">
        <ele>532</ele>
        <time>2019-01-18T10:59:42.000Z</time>
      </trkpt>
      <trkpt lat="43.33589" lon="5.68705">
        <ele>532</ele>
        <time>2019-01-18T10:59:43.000Z</time>
      </trkpt>
      <trkpt lat="43.33589" lon="5.68705">
        <ele>532</ele>
        <time>2019-01-18T10:59:44.000Z</time>
      </trkpt>
      <trkpt lat="43.33589" lon="5.68704">
        <ele>532</ele>
        <time>2019-01-18T10:59:45.000Z</time>
      </trkpt>
      <trkpt lat="43.33589" lon="5.68704">
        <ele>532</ele>
        <time>2019-01-18T10:59:46.000Z</time>
      </trkpt>
      <trkpt lat="43.33589" lon="5.68704">
        <ele>532</ele>
        <time>2019-01-18T10:59:47.000Z</time>
      </trkpt>
      <trkpt lat="43.33589" lon="5.68704">
        <ele>532</ele>
        <time>2019-01-18T10:59:48.000Z</time>
      </trkpt>
      <trkpt lat="43.33589" lon="5.68704">
        <ele>532</ele>
        <time>2019-01-18T10:59:49.000Z</time>
      </trkpt>
      <trkpt lat="43.33589" lon="5.68704">
        <ele>532</ele>
        <time>2019-01-18T10:59:50.000Z</time>
      </trkpt>
      <trkpt lat="43.33589" lon="5.68704">
        <ele>532</ele>
        <time>2019-01-18T10:59:51.000Z</time>
      </trkpt>
      <trkpt lat="43.33589" lon="5.68704">
        <ele>532</ele>
        <time>2019-01-18T10:59:52.000Z</time>
      </trkpt>
      <trkpt lat="43.33589" lon="5.68704">
        <ele>532</ele>
        <time>2019-01-18T10:59:53.000Z</time>
      </trkpt>
      <trkpt lat="43.3359" lon="5.68704">
        <ele>532</ele>
        <time>2019-01-18T10:59:54.000Z</time>
      </trkpt>
      <trkpt lat="43.33589" lon="5.68704">
        <ele>532</ele>
        <time>2019-01-18T10:59:55.000Z</time>
      </trkpt>
      <trkpt lat="43.33589" lon="5.68704">
        <ele>532</ele>
        <time>2019-01-18T10:59:56.000Z</time>
      </trkpt>
      <trkpt lat="43.33589" lon="5.68704">
        <ele>532</ele>
        <time>2019-01-18T10:59:57.000Z</time>
      </trkpt>
      <trkpt lat="43.33589" lon="5.68704">
        <ele>532</ele>
        <time>2019-01-18T10:59:58.000Z</time>
      </trkpt>
      <trkpt lat="43.33589" lon="5.68705">
        <ele>532</ele>
        <time>2019-01-18T10:59:59.000Z</time>
      </trkpt>
      <trkpt lat="43.33589" lon="5.68705">
        <ele>532</ele>
        <time>2019-01-18T11:00:00.000Z</time>
      </trkpt>
      <trkpt lat="43.33589" lon="5.68704">
        <ele>532</ele>
        <time>2019-01-18T11:00:01.000Z</time>
      </trkpt>
      <trkpt lat="43.33589" lon="5.68704">
        <ele>532</ele>
        <time>2019-01-18T11:00:02.000Z</time>
      </trkpt>
      <trkpt lat="43.33588" lon="5.68704">
        <ele>532</ele>
        <time>2019-01-18T11:00:03.000Z</time>
      </trkpt>
      <trkpt lat="43.33588" lon="5.68704">
        <ele>532</ele>
        <time>2019-01-18T11:00:04.000Z</time>
      </trkpt>
      <trkpt lat="43.33588" lon="5.68704">
        <ele>532</ele>
        <time>2019-01-18T11:00:05.000Z</time>
      </trkpt>
      <trkpt lat="43.33588" lon="5.68704">
        <ele>532</ele>
        <time>2019-01-18T11:00:06.000Z</time>
      </trkpt>
      <trkpt lat="43.33588" lon="5.68704">
        <ele>532</ele>
        <time>2019-01-18T11:00:07.000Z</time>
      </trkpt>
      <trkpt lat="43.33588" lon="5.68704">
        <ele>532</ele>
        <time>2019-01-18T11:00:08.000Z</time>
      </trkpt>
      <trkpt lat="43.33588" lon="5.68704">
        <ele>532</ele>
        <time>2019-01-18T11:00:09.000Z</time>
      </trkpt>
      <trkpt lat="43.33588" lon="5.68704">
        <ele>532</ele>
        <time>2019-01-18T11:00:10.000Z</time>
      </trkpt>
      <trkpt lat="43.33588" lon="5.68704">
        <ele>532</ele>
        <time>2019-01-18T11:00:11.000Z</time>
      </trkpt>
      <trkpt lat="43.33588" lon="5.68704">
        <ele>532</ele>
        <time>2019-01-18T11:00:12.000Z</time>
      </trkpt>
      <trkpt lat="43.33588" lon="5.68704">
        <ele>532</ele>
        <time>2019-01-18T11:00:13.000Z</time>
      </trkpt>
      <trkpt lat="43.33588" lon="5.68704">
        <ele>532</ele>
        <time>2019-01-18T11:00:14.000Z</time>
      </trkpt>
      <trkpt lat="43.33588" lon="5.68704">
        <ele>532</ele>
        <time>2019-01-18T11:00:15.000Z</time>
      </trkpt>
      <trkpt lat="43.33588" lon="5.68704">
        <ele>532</ele>
        <time>2019-01-18T11:00:16.000Z</time>
      </trkpt>
      <trkpt lat="43.33588" lon="5.68704">
        <ele>532</ele>
        <time>2019-01-18T11:00:17.000Z</time>
      </trkpt>
      <trkpt lat="43.33588" lon="5.68704">
        <ele>532</ele>
        <time>2019-01-18T11:00:18.000Z</time>
      </trkpt>
      <trkpt lat="43.33588" lon="5.68704">
        <ele>532</ele>
        <time>2019-01-18T11:00:19.000Z</time>
      </trkpt>
      <trkpt lat="43.33588" lon="5.68705">
        <ele>532</ele>
        <time>2019-01-18T11:00:20.000Z</time>
      </trkpt>
      <trkpt lat="43.33588" lon="5.68705">
        <ele>532</ele>
        <time>2019-01-18T11:00:21.000Z</time>
      </trkpt>
      <trkpt lat="43.33588" lon="5.68705">
        <ele>532</ele>
        <time>2019-01-18T11:00:22.000Z</time>
      </trkpt>
      <trkpt lat="43.33588" lon="5.68705">
        <ele>532</ele>
        <time>2019-01-18T11:00:23.000Z</time>
      </trkpt>
      <trkpt lat="43.33588" lon="5.68705">
        <ele>532</ele>
        <time>2019-01-18T11:00:24.000Z</time>
      </trkpt>
      <trkpt lat="43.33588" lon="5.68705">
        <ele>532</ele>
        <time>2019-01-18T11:00:25.000Z</time>
      </trkpt>
      <trkpt lat="43.33588" lon="5.68705">
        <ele>532</ele>
        <time>2019-01-18T11:00:26.000Z</time>
      </trkpt>
      <trkpt lat="43.33588" lon="5.68705">
        <ele>532</ele>
        <time>2019-01-18T11:00:27.000Z</time>
      </trkpt>
      <trkpt lat="43.33588" lon="5.68705">
        <ele>532</ele>
        <time>2019-01-18T11:00:28.000Z</time>
      </trkpt>
      <trkpt lat="43.33588" lon="5.68705">
        <ele>532</ele>
        <time>2019-01-18T11:00:29.000Z</time>
      </trkpt>
      <trkpt lat="43.33588" lon="5.68705">
        <ele>532</ele>
        <time>2019-01-18T11:00:30.000Z</time>
      </trkpt>
      <trkpt lat="43.33588" lon="5.68705">
        <ele>532</ele>
        <time>2019-01-18T11:00:31.000Z</time>
      </trkpt>
      <trkpt lat="43.33588" lon="5.68705">
        <ele>532</ele>
        <time>2019-01-18T11:00:32.000Z</time>
      </trkpt>
      <trkpt lat="43.33588" lon="5.68705">
        <ele>532</ele>
        <time>2019-01-18T11:00:33.000Z</time>
      </trkpt>
      <trkpt lat="43.33588" lon="5.68705">
        <ele>532</ele>
        <time>2019-01-18T11:00:34.000Z</time>
      </trkpt>
      <trkpt lat="43.33588" lon="5.68705">
        <ele>532</ele>
        <time>2019-01-18T11:00:35.000Z</time>
      </trkpt>
      <trkpt lat="43.33588" lon="5.68705">
        <ele>532</ele>
        <time>2019-01-18T11:00:36.000Z</time>
      </trkpt>
      <trkpt lat="43.33588" lon="5.68705">
        <ele>532</ele>
        <time>2019-01-18T11:00:37.000Z</time>
      </trkpt>
      <trkpt lat="43.33588" lon="5.68705">
        <ele>532</ele>
        <time>2019-01-18T11:00:38.000Z</time>
      </trkpt>
      <trkpt lat="43.33588" lon="5.68705">
        <ele>532</ele>
        <time>2019-01-18T11:00:39.000Z</time>
      </trkpt>
      <trkpt lat="43.33588" lon="5.68705">
        <ele>532</ele>
        <time>2019-01-18T11:00:40.000Z</time>
      </trkpt>
      <trkpt lat="43.33588" lon="5.68705">
        <ele>532</ele>
        <time>2019-01-18T11:00:41.000Z</time>
      </trkpt>
      <trkpt lat="43.33588" lon="5.68706">
        <ele>532</ele>
        <time>2019-01-18T11:00:42.000Z</time>
      </trkpt>
      <trkpt lat="43.33587" lon="5.68706">
        <ele>532</ele>
        <time>2019-01-18T11:00:43.000Z</time>
      </trkpt>
      <trkpt lat="43.33587" lon="5.68706">
        <ele>532</ele>
        <time>2019-01-18T11:00:44.000Z</time>
      </trkpt>
      <trkpt lat="43.33587" lon="5.68706">
        <ele>532</ele>
        <time>2019-01-18T11:00:45.000Z</time>
      </trkpt>
      <trkpt lat="43.33587" lon="5.68706">
        <ele>532</ele>
        <time>2019-01-18T11:00:46.000Z</time>
      </trkpt>
      <trkpt lat="43.33587" lon="5.68707">
        <ele>532</ele>
        <time>2019-01-18T11:00:47.000Z</time>
      </trkpt>
      <trkpt lat="43.33587" lon="5.68707">
        <ele>532</ele>
        <time>2019-01-18T11:00:48.000Z</time>
      </trkpt>
      <trkpt lat="43.33587" lon="5.68707">
        <ele>532</ele>
        <time>2019-01-18T11:00:49.000Z</time>
      </trkpt>
      <trkpt lat="43.33587" lon="5.68707">
        <ele>532</ele>
        <time>2019-01-18T11:00:50.000Z</time>
      </trkpt>
      <trkpt lat="43.33587" lon="5.68707">
        <ele>532</ele>
        <time>2019-01-18T11:00:51.000Z</time>
      </trkpt>
      <trkpt lat="43.33587" lon="5.68707">
        <ele>532</ele>
        <time>2019-01-18T11:00:52.000Z</time>
      </trkpt>
      <trkpt lat="43.33587" lon="5.68707">
        <ele>532</ele>
        <time>2019-01-18T11:00:53.000Z</time>
      </trkpt>
      <trkpt lat="43.33587" lon="5.68707">
        <ele>532</ele>
        <time>2019-01-18T11:00:54.000Z</time>
      </trkpt>
      <trkpt lat="43.33587" lon="5.68707">
        <ele>532</ele>
        <time>2019-01-18T11:00:55.000Z</time>
      </trkpt>
      <trkpt lat="43.33587" lon="5.68707">
        <ele>532</ele>
        <time>2019-01-18T11:00:56.000Z</time>
      </trkpt>
      <trkpt lat="43.33587" lon="5.68707">
        <ele>532</ele>
        <time>2019-01-18T11:00:57.000Z</time>
      </trkpt>
      <trkpt lat="43.33587" lon="5.68707">
        <ele>532</ele>
        <time>2019-01-18T11:00:58.000Z</time>
      </trkpt>
      <trkpt lat="43.33587" lon="5.68706">
        <ele>532</ele>
        <time>2019-01-18T11:00:59.000Z</time>
      </trkpt>
      <trkpt lat="43.33587" lon="5.68706">
        <ele>532</ele>
        <time>2019-01-18T11:01:00.000Z</time>
      </trkpt>
      <trkpt lat="43.33587" lon="5.68706">
        <ele>532</ele>
        <time>2019-01-18T11:01:01.000Z</time>
      </trkpt>
      <trkpt lat="43.33587" lon="5.68706">
        <ele>532</ele>
        <time>2019-01-18T11:01:02.000Z</time>
      </trkpt>
      <trkpt lat="43.33587" lon="5.68706">
        <ele>532</ele>
        <time>2019-01-18T11:01:03.000Z</time>
      </trkpt>
      <trkpt lat="43.33587" lon="5.68707">
        <ele>532</ele>
        <time>2019-01-18T11:01:04.000Z</time>
      </trkpt>
      <trkpt lat="43.33586" lon="5.68707">
        <ele>532</ele>
        <time>2019-01-18T11:01:05.000Z</time>
      </trkpt>
      <trkpt lat="43.33586" lon="5.68707">
        <ele>532</ele>
        <time>2019-01-18T11:01:06.000Z</time>
      </trkpt>
      <trkpt lat="43.33586" lon="5.68706">
        <ele>532</ele>
        <time>2019-01-18T11:01:07.000Z</time>
      </trkpt>
      <trkpt lat="43.33586" lon="5.68706">
        <ele>532</ele>
        <time>2019-01-18T11:01:08.000Z</time>
      </trkpt>
      <trkpt lat="43.33586" lon="5.68707">
        <ele>532</ele>
        <time>2019-01-18T11:01:09.000Z</time>
      </trkpt>
      <trkpt lat="43.33586" lon="5.68707">
        <ele>532</ele>
        <time>2019-01-18T11:01:10.000Z</time>
      </trkpt>
      <trkpt lat="43.33586" lon="5.68706">
        <ele>532</ele>
        <time>2019-01-18T11:01:11.000Z</time>
      </trkpt>
      <trkpt lat="43.33586" lon="5.68706">
        <ele>532</ele>
        <time>2019-01-18T11:01:12.000Z</time>
      </trkpt>
      <trkpt lat="43.33586" lon="5.68706">
        <ele>532</ele>
        <time>2019-01-18T11:01:13.000Z</time>
      </trkpt>
      <trkpt lat="43.33586" lon="5.68706">
        <ele>532</ele>
        <time>2019-01-18T11:01:14.000Z</time>
      </trkpt>
      <trkpt lat="43.33586" lon="5.68706">
        <ele>532</ele>
        <time>2019-01-18T11:01:15.000Z</time>
      </trkpt>
      <trkpt lat="43.33586" lon="5.68706">
        <ele>532</ele>
        <time>2019-01-18T11:01:16.000Z</time>
      </trkpt>
      <trkpt lat="43.33586" lon="5.68706">
        <ele>532</ele>
        <time>2019-01-18T11:01:17.000Z</time>
      </trkpt>
      <trkpt lat="43.33586" lon="5.68706">
        <ele>532</ele>
        <time>2019-01-18T11:01:18.000Z</time>
      </trkpt>
      <trkpt lat="43.33586" lon="5.68706">
        <ele>532</ele>
        <time>2019-01-18T11:01:19.000Z</time>
      </trkpt>
      <trkpt lat="43.33586" lon="5.68706">
        <ele>532</ele>
        <time>2019-01-18T11:01:20.000Z</time>
      </trkpt>
      <trkpt lat="43.33586" lon="5.68706">
        <ele>532</ele>
        <time>2019-01-18T11:01:21.000Z</time>
      </trkpt>
      <trkpt lat="43.33586" lon="5.68706">
        <ele>532</ele>
        <time>2019-01-18T11:01:22.000Z</time>
      </trkpt>
      <trkpt lat="43.33586" lon="5.68706">
        <ele>532</ele>
        <time>2019-01-18T11:01:23.000Z</time>
      </trkpt>
      <trkpt lat="43.33586" lon="5.68706">
        <ele>532</ele>
        <time>2019-01-18T11:01:24.000Z</time>
      </trkpt>
      <trkpt lat="43.33586" lon="5.68706">
        <ele>532</ele>
        <time>2019-01-18T11:01:25.000Z</time>
      </trkpt>
      <trkpt lat="43.33586" lon="5.68706">
        <ele>532</ele>
        <time>2019-01-18T11:01:26.000Z</time>
      </trkpt>
      <trkpt lat="43.33586" lon="5.68707">
        <ele>532</ele>
        <time>2019-01-18T11:01:27.000Z</time>
      </trkpt>
      <trkpt lat="43.33586" lon="5.68707">
        <ele>532</ele>
        <time>2019-01-18T11:01:28.000Z</time>
      </trkpt>
      <trkpt lat="43.33586" lon="5.68707">
        <ele>532</ele>
        <time>2019-01-18T11:01:29.000Z</time>
      </trkpt>
      <trkpt lat="43.33586" lon="5.68707">
        <ele>532</ele>
        <time>2019-01-18T11:01:30.000Z</time>
      </trkpt>
      <trkpt lat="43.33586" lon="5.68707">
        <ele>532</ele>
        <time>2019-01-18T11:01:31.000Z</time>
      </trkpt>
      <trkpt lat="43.33586" lon="5.68707">
        <ele>532</ele>
        <time>2019-01-18T11:01:32.000Z</time>
      </trkpt>
      <trkpt lat="43.33586" lon="5.68707">
        <ele>532</ele>
        <time>2019-01-18T11:01:33.000Z</time>
      </trkpt>
      <trkpt lat="43.33586" lon="5.68707">
        <ele>532</ele>
        <time>2019-01-18T11:01:34.000Z</time>
      </trkpt>
      <trkpt lat="43.33586" lon="5.68707">
        <ele>532</ele>
        <time>2019-01-18T11:01:35.000Z</time>
      </trkpt>
      <trkpt lat="43.33586" lon="5.68707">
        <ele>532</ele>
        <time>2019-01-18T11:01:36.000Z</time>
      </trkpt>
      <trkpt lat="43.33586" lon="5.68707">
        <ele>532</ele>
        <time>2019-01-18T11:01:37.000Z</time>
      </trkpt>
      <trkpt lat="43.33586" lon="5.68707">
        <ele>532</ele>
        <time>2019-01-18T11:01:38.000Z</time>
      </trkpt>
      <trkpt lat="43.33586" lon="5.68707">
        <ele>532</ele>
        <time>2019-01-18T11:01:39.000Z</time>
      </trkpt>
      <trkpt lat="43.33586" lon="5.68707">
        <ele>532</ele>
        <time>2019-01-18T11:01:40.000Z</time>
      </trkpt>
      <trkpt lat="43.33586" lon="5.68707">
        <ele>532</ele>
        <time>2019-01-18T11:01:41.000Z</time>
      </trkpt>
      <trkpt lat="43.33586" lon="5.68707">
        <ele>532</ele>
        <time>2019-01-18T11:01:42.000Z</time>
      </trkpt>
      <trkpt lat="43.33586" lon="5.68707">
        <ele>532</ele>
        <time>2019-01-18T11:01:43.000Z</time>
      </trkpt>
      <trkpt lat="43.33586" lon="5.68707">
        <ele>532</ele>
        <time>2019-01-18T11:01:44.000Z</time>
      </trkpt>
      <trkpt lat="43.33586" lon="5.68707">
        <ele>532</ele>
        <time>2019-01-18T11:01:45.000Z</time>
      </trkpt>
      <trkpt lat="43.33586" lon="5.68707">
        <ele>532</ele>
        <time>2019-01-18T11:01:46.000Z</time>
      </trkpt>
      <trkpt lat="43.33586" lon="5.68707">
        <ele>532</ele>
        <time>2019-01-18T11:01:47.000Z</time>
      </trkpt>
      <trkpt lat="43.33586" lon="5.68707">
        <ele>532</ele>
        <time>2019-01-18T11:01:48.000Z</time>
      </trkpt>
      <trkpt lat="43.33586" lon="5.68707">
        <ele>532</ele>
        <time>2019-01-18T11:01:49.000Z</time>
      </trkpt>
      <trkpt lat="43.33586" lon="5.68707">
        <ele>532</ele>
        <time>2019-01-18T11:01:50.000Z</time>
      </trkpt>
      <trkpt lat="43.33586" lon="5.68707">
        <ele>532</ele>
        <time>2019-01-18T11:01:51.000Z</time>
      </trkpt>
      <trkpt lat="43.33586" lon="5.68707">
        <ele>532</ele>
        <time>2019-01-18T11:01:52.000Z</time>
      </trkpt>
      <trkpt lat="43.33586" lon="5.68707">
        <ele>532</ele>
        <time>2019-01-18T11:01:53.000Z</time>
      </trkpt>
      <trkpt lat="43.33586" lon="5.68708">
        <ele>532</ele>
        <time>2019-01-18T11:01:54.000Z</time>
      </trkpt>
      <trkpt lat="43.33586" lon="5.68708">
        <ele>532</ele>
        <time>2019-01-18T11:01:55.000Z</time>
      </trkpt>
      <trkpt lat="43.33586" lon="5.68708">
        <ele>532</ele>
        <time>2019-01-18T11:01:56.000Z</time>
      </trkpt>
      <trkpt lat="43.33586" lon="5.68708">
        <ele>532</ele>
        <time>2019-01-18T11:01:57.000Z</time>
      </trkpt>
      <trkpt lat="43.33586" lon="5.68708">
        <ele>532</ele>
        <time>2019-01-18T11:01:58.000Z</time>
      </trkpt>
      <trkpt lat="43.33586" lon="5.68708">
        <ele>532</ele>
        <time>2019-01-18T11:01:59.000Z</time>
      </trkpt>
      <trkpt lat="43.33586" lon="5.68708">
        <ele>532</ele>
        <time>2019-01-18T11:02:00.000Z</time>
      </trkpt>
      <trkpt lat="43.33586" lon="5.68708">
        <ele>532</ele>
        <time>2019-01-18T11:02:01.000Z</time>
      </trkpt>
      <trkpt lat="43.33586" lon="5.68708">
        <ele>532</ele>
        <time>2019-01-18T11:02:02.000Z</time>
      </trkpt>
      <trkpt lat="43.33586" lon="5.68708">
        <ele>532</ele>
        <time>2019-01-18T11:02:04.000Z</time>
      </trkpt>
      <trkpt lat="43.33586" lon="5.68708">
        <ele>532</ele>
        <time>2019-01-18T11:02:05.000Z</time>
      </trkpt>
      <trkpt lat="43.33586" lon="5.68707">
        <ele>532</ele>
        <time>2019-01-18T11:02:06.000Z</time>
      </trkpt>
      <trkpt lat="43.33585" lon="5.68707">
        <ele>532</ele>
        <time>2019-01-18T11:02:07.000Z</time>
      </trkpt>
      <trkpt lat="43.33585" lon="5.68707">
        <ele>532</ele>
        <time>2019-01-18T11:02:08.000Z</time>
      </trkpt>
      <trkpt lat="43.33585" lon="5.68707">
        <ele>532</ele>
        <time>2019-01-18T11:02:09.000Z</time>
      </trkpt>
      <trkpt lat="43.33584" lon="5.68708">
        <ele>532</ele>
        <time>2019-01-18T11:02:10.000Z</time>
      </trkpt>
      <trkpt lat="43.33583" lon="5.68708">
        <ele>532</ele>
        <time>2019-01-18T11:02:11.000Z</time>
      </trkpt>
      <trkpt lat="43.33583" lon="5.68709">
        <ele>532</ele>
        <time>2019-01-18T11:02:12.000Z</time>
      </trkpt>
      <trkpt lat="43.33582" lon="5.68709">
        <ele>532</ele>
        <time>2019-01-18T11:02:13.000Z</time>
      </trkpt>
      <trkpt lat="43.33582" lon="5.6871">
        <ele>532</ele>
        <time>2019-01-18T11:02:14.000Z</time>
      </trkpt>
      <trkpt lat="43.33581" lon="5.6871">
        <ele>532</ele>
        <time>2019-01-18T11:02:15.000Z</time>
      </trkpt>
      <trkpt lat="43.33581" lon="5.6871">
        <ele>532</ele>
        <time>2019-01-18T11:02:16.000Z</time>
      </trkpt>
      <trkpt lat="43.3358" lon="5.68711">
        <ele>532</ele>
        <time>2019-01-18T11:02:17.000Z</time>
      </trkpt>
      <trkpt lat="43.3358" lon="5.68711">
        <ele>533</ele>
        <time>2019-01-18T11:02:18.000Z</time>
      </trkpt>
      <trkpt lat="43.33581" lon="5.6871">
        <ele>533</ele>
        <time>2019-01-18T11:02:19.000Z</time>
      </trkpt>
      <trkpt lat="43.33581" lon="5.6871">
        <ele>533</ele>
        <time>2019-01-18T11:02:20.000Z</time>
      </trkpt>
      <trkpt lat="43.33581" lon="5.68711">
        <ele>533</ele>
        <time>2019-01-18T11:02:21.000Z</time>
      </trkpt>
      <trkpt lat="43.33581" lon="5.6871">
        <ele>533</ele>
        <time>2019-01-18T11:02:22.000Z</time>
      </trkpt>
      <trkpt lat="43.33582" lon="5.6871">
        <ele>532</ele>
        <time>2019-01-18T11:02:23.000Z</time>
      </trkpt>
      <trkpt lat="43.33582" lon="5.6871">
        <ele>532</ele>
        <time>2019-01-18T11:02:24.000Z</time>
      </trkpt>
      <trkpt lat="43.33582" lon="5.6871">
        <ele>532</ele>
        <time>2019-01-18T11:02:25.000Z</time>
      </trkpt>
      <trkpt lat="43.33582" lon="5.68709">
        <ele>532</ele>
        <time>2019-01-18T11:02:26.000Z</time>
      </trkpt>
      <trkpt lat="43.33582" lon="5.68709">
        <ele>532</ele>
        <time>2019-01-18T11:02:27.000Z</time>
      </trkpt>
      <trkpt lat="43.33582" lon="5.68709">
        <ele>531</ele>
        <time>2019-01-18T11:02:28.000Z</time>
      </trkpt>
      <trkpt lat="43.33582" lon="5.68709">
        <ele>531</ele>
        <time>2019-01-18T11:02:29.000Z</time>
      </trkpt>
      <trkpt lat="43.33582" lon="5.6871">
        <ele>531</ele>
        <time>2019-01-18T11:02:30.000Z</time>
      </trkpt>
      <trkpt lat="43.33582" lon="5.6871">
        <ele>530</ele>
        <time>2019-01-18T11:02:31.000Z</time>
      </trkpt>
      <trkpt lat="43.33582" lon="5.68711">
        <ele>530</ele>
        <time>2019-01-18T11:02:32.000Z</time>
      </trkpt>
      <trkpt lat="43.33581" lon="5.68712">
        <ele>529</ele>
        <time>2019-01-18T11:02:33.000Z</time>
      </trkpt>
      <trkpt lat="43.3358" lon="5.68712">
        <ele>529</ele>
        <time>2019-01-18T11:02:34.000Z</time>
      </trkpt>
      <trkpt lat="43.3358" lon="5.68713">
        <ele>529</ele>
        <time>2019-01-18T11:02:35.000Z</time>
      </trkpt>
      <trkpt lat="43.3358" lon="5.68713">
        <ele>529</ele>
        <time>2019-01-18T11:02:36.000Z</time>
      </trkpt>
      <trkpt lat="43.33579" lon="5.68713">
        <ele>528</ele>
        <time>2019-01-18T11:02:37.000Z</time>
      </trkpt>
      <trkpt lat="43.33579" lon="5.68713">
        <ele>528</ele>
        <time>2019-01-18T11:02:38.000Z</time>
      </trkpt>
      <trkpt lat="43.33579" lon="5.68713">
        <ele>528</ele>
        <time>2019-01-18T11:02:39.000Z</time>
      </trkpt>
      <trkpt lat="43.33579" lon="5.68712">
        <ele>529</ele>
        <time>2019-01-18T11:02:40.000Z</time>
      </trkpt>
      <trkpt lat="43.33579" lon="5.68712">
        <ele>529</ele>
        <time>2019-01-18T11:02:41.000Z</time>
      </trkpt>
      <trkpt lat="43.33578" lon="5.68712">
        <ele>529</ele>
        <time>2019-01-18T11:02:42.000Z</time>
      </trkpt>
      <trkpt lat="43.33578" lon="5.68712">
        <ele>529</ele>
        <time>2019-01-18T11:02:43.000Z</time>
      </trkpt>
      <trkpt lat="43.33578" lon="5.68712">
        <ele>529</ele>
        <time>2019-01-18T11:02:44.000Z</time>
      </trkpt>
      <trkpt lat="43.33578" lon="5.68712">
        <ele>529</ele>
        <time>2019-01-18T11:02:45.000Z</time>
      </trkpt>
      <trkpt lat="43.33578" lon="5.68712">
        <ele>529</ele>
        <time>2019-01-18T11:02:46.000Z</time>
      </trkpt>
      <trkpt lat="43.33578" lon="5.68712">
        <ele>528</ele>
        <time>2019-01-18T11:02:47.000Z</time>
      </trkpt>
      <trkpt lat="43.33578" lon="5.68712">
        <ele>528</ele>
        <time>2019-01-18T11:02:48.000Z</time>
      </trkpt>
      <trkpt lat="43.33578" lon="5.68712">
        <ele>528</ele>
        <time>2019-01-18T11:02:49.000Z</time>
      </trkpt>
      <trkpt lat="43.33578" lon="5.68712">
        <ele>528</ele>
        <time>2019-01-18T11:02:50.000Z</time>
      </trkpt>
      <trkpt lat="43.33579" lon="5.68712">
        <ele>528</ele>
        <time>2019-01-18T11:02:51.000Z</time>
      </trkpt>
      <trkpt lat="43.33579" lon="5.68712">
        <ele>528</ele>
        <time>2019-01-18T11:02:52.000Z</time>
      </trkpt>
      <trkpt lat="43.33579" lon="5.68712">
        <ele>528</ele>
        <time>2019-01-18T11:02:53.000Z</time>
      </trkpt>
      <trkpt lat="43.33579" lon="5.68712">
        <ele>528</ele>
        <time>2019-01-18T11:02:54.000Z</time>
      </trkpt>
      <trkpt lat="43.3358" lon="5.68712">
        <ele>528</ele>
        <time>2019-01-18T11:02:55.000Z</time>
      </trkpt>
      <trkpt lat="43.3358" lon="5.68712">
        <ele>528</ele>
        <time>2019-01-18T11:02:56.000Z</time>
      </trkpt>
      <trkpt lat="43.3358" lon="5.68712">
        <ele>528</ele>
        <time>2019-01-18T11:02:57.000Z</time>
      </trkpt>
      <trkpt lat="43.3358" lon="5.68712">
        <ele>527</ele>
        <time>2019-01-18T11:02:58.000Z</time>
      </trkpt>
      <trkpt lat="43.3358" lon="5.68713">
        <ele>527</ele>
        <time>2019-01-18T11:02:59.000Z</time>
      </trkpt>
      <trkpt lat="43.33581" lon="5.68713">
        <ele>527</ele>
        <time>2019-01-18T11:03:00.000Z</time>
      </trkpt>
      <trkpt lat="43.33581" lon="5.68713">
        <ele>527</ele>
        <time>2019-01-18T11:03:01.000Z</time>
      </trkpt>
      <trkpt lat="43.33581" lon="5.68713">
        <ele>527</ele>
        <time>2019-01-18T11:03:02.000Z</time>
      </trkpt>
      <trkpt lat="43.33581" lon="5.68713">
        <ele>527</ele>
        <time>2019-01-18T11:03:03.000Z</time>
      </trkpt>
      <trkpt lat="43.33581" lon="5.68713">
        <ele>527</ele>
        <time>2019-01-18T11:03:04.000Z</time>
      </trkpt>
      <trkpt lat="43.33581" lon="5.68713">
        <ele>527</ele>
        <time>2019-01-18T11:03:05.000Z</time>
      </trkpt>
      <trkpt lat="43.33581" lon="5.68713">
        <ele>527</ele>
        <time>2019-01-18T11:03:06.000Z</time>
      </trkpt>
      <trkpt lat="43.33581" lon="5.68713">
        <ele>527</ele>
        <time>2019-01-18T11:03:07.000Z</time>
      </trkpt>
      <trkpt lat="43.33581" lon="5.68713">
        <ele>527</ele>
        <time>2019-01-18T11:03:08.000Z</time>
      </trkpt>
      <trkpt lat="43.33581" lon="5.68713">
        <ele>527</ele>
        <time>2019-01-18T11:03:09.000Z</time>
      </trkpt>
      <trkpt lat="43.33581" lon="5.68713">
        <ele>527</ele>
        <time>2019-01-18T11:03:10.000Z</time>
      </trkpt>
      <trkpt lat="43.33582" lon="5.68713">
        <ele>527</ele>
        <time>2019-01-18T11:03:11.000Z</time>
      </trkpt>
      <trkpt lat="43.33582" lon="5.68713">
        <ele>527</ele>
        <time>2019-01-18T11:03:12.000Z</time>
      </trkpt>
      <trkpt lat="43.33582" lon="5.68713">
        <ele>527</ele>
        <time>2019-01-18T11:03:13.000Z</time>
      </trkpt>
      <trkpt lat="43.33582" lon="5.68713">
        <ele>527</ele>
        <time>2019-01-18T11:03:14.000Z</time>
      </trkpt>
      <trkpt lat="43.33582" lon="5.68713">
        <ele>527</ele>
        <time>2019-01-18T11:03:15.000Z</time>
      </trkpt>
      <trkpt lat="43.33582" lon="5.68713">
        <ele>527</ele>
        <time>2019-01-18T11:03:16.000Z</time>
      </trkpt>
      <trkpt lat="43.33582" lon="5.68713">
        <ele>527</ele>
        <time>2019-01-18T11:03:17.000Z</time>
      </trkpt>
      <trkpt lat="43.33582" lon="5.68713">
        <ele>527</ele>
        <time>2019-01-18T11:03:18.000Z</time>
      </trkpt>
      <trkpt lat="43.33582" lon="5.68713">
        <ele>528</ele>
        <time>2019-01-18T11:03:19.000Z</time>
      </trkpt>
      <trkpt lat="43.33582" lon="5.68713">
        <ele>528</ele>
        <time>2019-01-18T11:03:20.000Z</time>
      </trkpt>
      <trkpt lat="43.33582" lon="5.68713">
        <ele>528</ele>
        <time>2019-01-18T11:03:21.000Z</time>
      </trkpt>
      <trkpt lat="43.33582" lon="5.68713">
        <ele>528</ele>
        <time>2019-01-18T11:03:22.000Z</time>
      </trkpt>
      <trkpt lat="43.33582" lon="5.68713">
        <ele>528</ele>
        <time>2019-01-18T11:03:23.000Z</time>
      </trkpt>
      <trkpt lat="43.33582" lon="5.68713">
        <ele>528</ele>
        <time>2019-01-18T11:03:24.000Z</time>
      </trkpt>
      <trkpt lat="43.33582" lon="5.68713">
        <ele>528</ele>
        <time>2019-01-18T11:03:25.000Z</time>
      </trkpt>
      <trkpt lat="43.33582" lon="5.68713">
        <ele>528</ele>
        <time>2019-01-18T11:03:26.000Z</time>
      </trkpt>
      <trkpt lat="43.33582" lon="5.68712">
        <ele>528</ele>
        <time>2019-01-18T11:03:27.000Z</time>
      </trkpt>
      <trkpt lat="43.33582" lon="5.68712">
        <ele>528</ele>
        <time>2019-01-18T11:03:28.000Z</time>
      </trkpt>
      <trkpt lat="43.33582" lon="5.68712">
        <ele>528</ele>
        <time>2019-01-18T11:03:29.000Z</time>
      </trkpt>
      <trkpt lat="43.33582" lon="5.68711">
        <ele>528</ele>
        <time>2019-01-18T11:03:30.000Z</time>
      </trkpt>
      <trkpt lat="43.33582" lon="5.68711">
        <ele>528</ele>
        <time>2019-01-18T11:03:31.000Z</time>
      </trkpt>
      <trkpt lat="43.33582" lon="5.68711">
        <ele>528</ele>
        <time>2019-01-18T11:03:32.000Z</time>
      </trkpt>
      <trkpt lat="43.33582" lon="5.68711">
        <ele>528</ele>
        <time>2019-01-18T11:03:33.000Z</time>
      </trkpt>
      <trkpt lat="43.33582" lon="5.68711">
        <ele>528</ele>
        <time>2019-01-18T11:03:34.000Z</time>
      </trkpt>
      <trkpt lat="43.33582" lon="5.68712">
        <ele>528</ele>
        <time>2019-01-18T11:03:35.000Z</time>
      </trkpt>
      <trkpt lat="43.33582" lon="5.68712">
        <ele>529</ele>
        <time>2019-01-18T11:03:36.000Z</time>
      </trkpt>
      <trkpt lat="43.33582" lon="5.68712">
        <ele>529</ele>
        <time>2019-01-18T11:03:37.000Z</time>
      </trkpt>
      <trkpt lat="43.33582" lon="5.68712">
        <ele>529</ele>
        <time>2019-01-18T11:03:38.000Z</time>
      </trkpt>
      <trkpt lat="43.33582" lon="5.68712">
        <ele>529</ele>
        <time>2019-01-18T11:03:39.000Z</time>
      </trkpt>
      <trkpt lat="43.33583" lon="5.68712">
        <ele>529</ele>
        <time>2019-01-18T11:03:40.000Z</time>
      </trkpt>
      <trkpt lat="43.33583" lon="5.68712">
        <ele>529</ele>
        <time>2019-01-18T11:03:41.000Z</time>
      </trkpt>
      <trkpt lat="43.33583" lon="5.68712">
        <ele>529</ele>
        <time>2019-01-18T11:03:42.000Z</time>
      </trkpt>
      <trkpt lat="43.33583" lon="5.68712">
        <ele>529</ele>
        <time>2019-01-18T11:03:43.000Z</time>
      </trkpt>
      <trkpt lat="43.33583" lon="5.68712">
        <ele>529</ele>
        <time>2019-01-18T11:03:44.000Z</time>
      </trkpt>
      <trkpt lat="43.33584" lon="5.68711">
        <ele>529</ele>
        <time>2019-01-18T11:03:45.000Z</time>
      </trkpt>
      <trkpt lat="43.33584" lon="5.68711">
        <ele>530</ele>
        <time>2019-01-18T11:03:46.000Z</time>
      </trkpt>
      <trkpt lat="43.33584" lon="5.68711">
        <ele>530</ele>
        <time>2019-01-18T11:03:47.000Z</time>
      </trkpt>
      <trkpt lat="43.33584" lon="5.68711">
        <ele>530</ele>
        <time>2019-01-18T11:03:48.000Z</time>
      </trkpt>
      <trkpt lat="43.33585" lon="5.68711">
        <ele>530</ele>
        <time>2019-01-18T11:03:49.000Z</time>
      </trkpt>
      <trkpt lat="43.33585" lon="5.68711">
        <ele>531</ele>
        <time>2019-01-18T11:03:50.000Z</time>
      </trkpt>
      <trkpt lat="43.33585" lon="5.68711">
        <ele>531</ele>
        <time>2019-01-18T11:03:51.000Z</time>
      </trkpt>
      <trkpt lat="43.33586" lon="5.68711">
        <ele>531</ele>
        <time>2019-01-18T11:03:52.000Z</time>
      </trkpt>
      <trkpt lat="43.33586" lon="5.68711">
        <ele>531</ele>
        <time>2019-01-18T11:03:53.000Z</time>
      </trkpt>
      <trkpt lat="43.33586" lon="5.68711">
        <ele>531</ele>
        <time>2019-01-18T11:03:54.000Z</time>
      </trkpt>
      <trkpt lat="43.33586" lon="5.68711">
        <ele>531</ele>
        <time>2019-01-18T11:03:55.000Z</time>
      </trkpt>
      <trkpt lat="43.33586" lon="5.68711">
        <ele>532</ele>
        <time>2019-01-18T11:03:56.000Z</time>
      </trkpt>
      <trkpt lat="43.33586" lon="5.68711">
        <ele>532</ele>
        <time>2019-01-18T11:03:57.000Z</time>
      </trkpt>
      <trkpt lat="43.33586" lon="5.6871">
        <ele>532</ele>
        <time>2019-01-18T11:03:58.000Z</time>
      </trkpt>
      <trkpt lat="43.33586" lon="5.68711">
        <ele>532</ele>
        <time>2019-01-18T11:03:59.000Z</time>
      </trkpt>
      <trkpt lat="43.33587" lon="5.68712">
        <ele>532</ele>
        <time>2019-01-18T11:04:00.000Z</time>
      </trkpt>
      <trkpt lat="43.33587" lon="5.68712">
        <ele>533</ele>
        <time>2019-01-18T11:04:01.000Z</time>
      </trkpt>
      <trkpt lat="43.33587" lon="5.68713">
        <ele>533</ele>
        <time>2019-01-18T11:04:02.000Z</time>
      </trkpt>
      <trkpt lat="43.33588" lon="5.68714">
        <ele>533</ele>
        <time>2019-01-18T11:04:03.000Z</time>
      </trkpt>
      <trkpt lat="43.33588" lon="5.68714">
        <ele>533</ele>
        <time>2019-01-18T11:04:04.000Z</time>
      </trkpt>
      <trkpt lat="43.33589" lon="5.68715">
        <ele>533</ele>
        <time>2019-01-18T11:04:05.000Z</time>
      </trkpt>
      <trkpt lat="43.33589" lon="5.68715">
        <ele>533</ele>
        <time>2019-01-18T11:04:06.000Z</time>
      </trkpt>
      <trkpt lat="43.3359" lon="5.68716">
        <ele>533</ele>
        <time>2019-01-18T11:04:07.000Z</time>
      </trkpt>
      <trkpt lat="43.3359" lon="5.68717">
        <ele>533</ele>
        <time>2019-01-18T11:04:08.000Z</time>
      </trkpt>
      <trkpt lat="43.33591" lon="5.68717">
        <ele>533</ele>
        <time>2019-01-18T11:04:09.000Z</time>
      </trkpt>
      <trkpt lat="43.33591" lon="5.68717">
        <ele>533</ele>
        <time>2019-01-18T11:04:10.000Z</time>
      </trkpt>
      <trkpt lat="43.33591" lon="5.68718">
        <ele>533</ele>
        <time>2019-01-18T11:04:11.000Z</time>
      </trkpt>
      <trkpt lat="43.33592" lon="5.68719">
        <ele>533</ele>
        <time>2019-01-18T11:04:12.000Z</time>
      </trkpt>
      <trkpt lat="43.33592" lon="5.68719">
        <ele>533</ele>
        <time>2019-01-18T11:04:13.000Z</time>
      </trkpt>
      <trkpt lat="43.33593" lon="5.6872">
        <ele>533</ele>
        <time>2019-01-18T11:04:14.000Z</time>
      </trkpt>
      <trkpt lat="43.33593" lon="5.68721">
        <ele>533</ele>
        <time>2019-01-18T11:04:15.000Z</time>
      </trkpt>
      <trkpt lat="43.33593" lon="5.68721">
        <ele>533</ele>
        <time>2019-01-18T11:04:16.000Z</time>
      </trkpt>
      <trkpt lat="43.33593" lon="5.68722">
        <ele>533</ele>
        <time>2019-01-18T11:04:17.000Z</time>
      </trkpt>
      <trkpt lat="43.33593" lon="5.68722">
        <ele>533</ele>
        <time>2019-01-18T11:04:18.000Z</time>
      </trkpt>
      <trkpt lat="43.33593" lon="5.68722">
        <ele>533</ele>
        <time>2019-01-18T11:04:19.000Z</time>
      </trkpt>
      <trkpt lat="43.33593" lon="5.68723">
        <ele>533</ele>
        <time>2019-01-18T11:04:20.000Z</time>
      </trkpt>
      <trkpt lat="43.33593" lon="5.68723">
        <ele>533</ele>
        <time>2019-01-18T11:04:21.000Z</time>
      </trkpt>
      <trkpt lat="43.33593" lon="5.68723">
        <ele>533</ele>
        <time>2019-01-18T11:04:22.000Z</time>
      </trkpt>
      <trkpt lat="43.33593" lon="5.68723">
        <ele>533</ele>
        <time>2019-01-18T11:04:23.000Z</time>
      </trkpt>
      <trkpt lat="43.33593" lon="5.68723">
        <ele>533</ele>
        <time>2019-01-18T11:04:24.000Z</time>
      </trkpt>
      <trkpt lat="43.33593" lon="5.68724">
        <ele>533</ele>
        <time>2019-01-18T11:04:25.000Z</time>
      </trkpt>
      <trkpt lat="43.33593" lon="5.68724">
        <ele>533</ele>
        <time>2019-01-18T11:04:26.000Z</time>
      </trkpt>
      <trkpt lat="43.33593" lon="5.68725">
        <ele>534</ele>
        <time>2019-01-18T11:04:27.000Z</time>
      </trkpt>
      <trkpt lat="43.33593" lon="5.68726">
        <ele>534</ele>
        <time>2019-01-18T11:04:28.000Z</time>
      </trkpt>
      <trkpt lat="43.33593" lon="5.68726">
        <ele>534</ele>
        <time>2019-01-18T11:04:29.000Z</time>
      </trkpt>
      <trkpt lat="43.33594" lon="5.68727">
        <ele>534</ele>
        <time>2019-01-18T11:04:30.000Z</time>
      </trkpt>
      <trkpt lat="43.33594" lon="5.68728">
        <ele>534</ele>
        <time>2019-01-18T11:04:31.000Z</time>
      </trkpt>
      <trkpt lat="43.33595" lon="5.68728">
        <ele>534</ele>
        <time>2019-01-18T11:04:32.000Z</time>
      </trkpt>
      <trkpt lat="43.33596" lon="5.68729">
        <ele>534</ele>
        <time>2019-01-18T11:04:33.000Z</time>
      </trkpt>
      <trkpt lat="43.33596" lon="5.6873">
        <ele>534</ele>
        <time>2019-01-18T11:04:34.000Z</time>
      </trkpt>
      <trkpt lat="43.33597" lon="5.68731">
        <ele>534</ele>
        <time>2019-01-18T11:04:35.000Z</time>
      </trkpt>
      <trkpt lat="43.33597" lon="5.68732">
        <ele>534</ele>
        <time>2019-01-18T11:04:36.000Z</time>
      </trkpt>
      <trkpt lat="43.33597" lon="5.68733">
        <ele>534</ele>
        <time>2019-01-18T11:04:37.000Z</time>
      </trkpt>
      <trkpt lat="43.33598" lon="5.68733">
        <ele>534</ele>
        <time>2019-01-18T11:04:38.000Z</time>
      </trkpt>
      <trkpt lat="43.33598" lon="5.68734">
        <ele>534</ele>
        <time>2019-01-18T11:04:39.000Z</time>
      </trkpt>
      <trkpt lat="43.33599" lon="5.68734">
        <ele>534</ele>
        <time>2019-01-18T11:04:40.000Z</time>
      </trkpt>
      <trkpt lat="43.336" lon="5.68734">
        <ele>535</ele>
        <time>2019-01-18T11:04:41.000Z</time>
      </trkpt>
      <trkpt lat="43.33601" lon="5.68735">
        <ele>535</ele>
        <time>2019-01-18T11:04:42.000Z</time>
      </trkpt>
      <trkpt lat="43.33601" lon="5.68736">
        <ele>535</ele>
        <time>2019-01-18T11:04:43.000Z</time>
      </trkpt>
      <trkpt lat="43.33602" lon="5.68736">
        <ele>535</ele>
        <time>2019-01-18T11:04:44.000Z</time>
      </trkpt>
      <trkpt lat="43.33603" lon="5.68737">
        <ele>535</ele>
        <time>2019-01-18T11:04:45.000Z</time>
      </trkpt>
      <trkpt lat="43.33603" lon="5.68738">
        <ele>535</ele>
        <time>2019-01-18T11:04:46.000Z</time>
      </trkpt>
      <trkpt lat="43.33604" lon="5.6874">
        <ele>535</ele>
        <time>2019-01-18T11:04:47.000Z</time>
      </trkpt>
      <trkpt lat="43.33605" lon="5.68741">
        <ele>535</ele>
        <time>2019-01-18T11:04:48.000Z</time>
      </trkpt>
      <trkpt lat="43.33605" lon="5.68742">
        <ele>535</ele>
        <time>2019-01-18T11:04:49.000Z</time>
      </trkpt>
      <trkpt lat="43.33606" lon="5.68743">
        <ele>535</ele>
        <time>2019-01-18T11:04:50.000Z</time>
      </trkpt>
      <trkpt lat="43.33606" lon="5.68743">
        <ele>535</ele>
        <time>2019-01-18T11:04:51.000Z</time>
      </trkpt>
      <trkpt lat="43.33607" lon="5.68744">
        <ele>535</ele>
        <time>2019-01-18T11:04:52.000Z</time>
      </trkpt>
      <trkpt lat="43.33607" lon="5.68745">
        <ele>535</ele>
        <time>2019-01-18T11:04:53.000Z</time>
      </trkpt>
      <trkpt lat="43.33607" lon="5.68745">
        <ele>536</ele>
        <time>2019-01-18T11:04:54.000Z</time>
      </trkpt>
      <trkpt lat="43.33608" lon="5.68746">
        <ele>536</ele>
        <time>2019-01-18T11:04:55.000Z</time>
      </trkpt>
      <trkpt lat="43.33608" lon="5.68747">
        <ele>536</ele>
        <time>2019-01-18T11:04:56.000Z</time>
      </trkpt>
      <trkpt lat="43.33608" lon="5.68748">
        <ele>536</ele>
        <time>2019-01-18T11:04:57.000Z</time>
      </trkpt>
      <trkpt lat="43.33608" lon="5.68749">
        <ele>536</ele>
        <time>2019-01-18T11:04:58.000Z</time>
      </trkpt>
      <trkpt lat="43.33608" lon="5.6875">
        <ele>536</ele>
        <time>2019-01-18T11:04:59.000Z</time>
      </trkpt>
      <trkpt lat="43.33609" lon="5.68751">
        <ele>536</ele>
        <time>2019-01-18T11:05:00.000Z</time>
      </trkpt>
      <trkpt lat="43.33609" lon="5.68751">
        <ele>536</ele>
        <time>2019-01-18T11:05:01.000Z</time>
      </trkpt>
      <trkpt lat="43.3361" lon="5.68751">
        <ele>536</ele>
        <time>2019-01-18T11:05:02.000Z</time>
      </trkpt>
      <trkpt lat="43.3361" lon="5.68752">
        <ele>536</ele>
        <time>2019-01-18T11:05:03.000Z</time>
      </trkpt>
      <trkpt lat="43.33611" lon="5.68752">
        <ele>536</ele>
        <time>2019-01-18T11:05:04.000Z</time>
      </trkpt>
      <trkpt lat="43.33612" lon="5.68753">
        <ele>536</ele>
        <time>2019-01-18T11:05:05.000Z</time>
      </trkpt>
      <trkpt lat="43.33612" lon="5.68754">
        <ele>537</ele>
        <time>2019-01-18T11:05:06.000Z</time>
      </trkpt>
      <trkpt lat="43.33613" lon="5.68755">
        <ele>537</ele>
        <time>2019-01-18T11:05:07.000Z</time>
      </trkpt>
      <trkpt lat="43.33614" lon="5.68756">
        <ele>537</ele>
        <time>2019-01-18T11:05:08.000Z</time>
      </trkpt>
      <trkpt lat="43.33615" lon="5.68757">
        <ele>537</ele>
        <time>2019-01-18T11:05:09.000Z</time>
      </trkpt>
      <trkpt lat="43.33615" lon="5.68757">
        <ele>537</ele>
        <time>2019-01-18T11:05:10.000Z</time>
      </trkpt>
      <trkpt lat="43.33616" lon="5.68758">
        <ele>537</ele>
        <time>2019-01-18T11:05:11.000Z</time>
      </trkpt>
      <trkpt lat="43.33617" lon="5.68759">
        <ele>537</ele>
        <time>2019-01-18T11:05:12.000Z</time>
      </trkpt>
      <trkpt lat="43.33617" lon="5.68759">
        <ele>537</ele>
        <time>2019-01-18T11:05:13.000Z</time>
      </trkpt>
      <trkpt lat="43.33618" lon="5.6876">
        <ele>537</ele>
        <time>2019-01-18T11:05:14.000Z</time>
      </trkpt>
      <trkpt lat="43.33618" lon="5.6876">
        <ele>537</ele>
        <time>2019-01-18T11:05:15.000Z</time>
      </trkpt>
      <trkpt lat="43.33618" lon="5.6876">
        <ele>537</ele>
        <time>2019-01-18T11:05:16.000Z</time>
      </trkpt>
      <trkpt lat="43.33618" lon="5.68761">
        <ele>537</ele>
        <time>2019-01-18T11:05:17.000Z</time>
      </trkpt>
      <trkpt lat="43.33618" lon="5.68761">
        <ele>537</ele>
        <time>2019-01-18T11:05:18.000Z</time>
      </trkpt>
      <trkpt lat="43.33618" lon="5.68761">
        <ele>537</ele>
        <time>2019-01-18T11:05:19.000Z</time>
      </trkpt>
      <trkpt lat="43.33618" lon="5.68761">
        <ele>537</ele>
        <time>2019-01-18T11:05:20.000Z</time>
      </trkpt>
      <trkpt lat="43.33618" lon="5.68761">
        <ele>537</ele>
        <time>2019-01-18T11:05:21.000Z</time>
      </trkpt>
      <trkpt lat="43.33618" lon="5.68761">
        <ele>537</ele>
        <time>2019-01-18T11:05:22.000Z</time>
      </trkpt>
      <trkpt lat="43.33618" lon="5.68761">
        <ele>537</ele>
        <time>2019-01-18T11:05:23.000Z</time>
      </trkpt>
      <trkpt lat="43.33618" lon="5.68762">
        <ele>538</ele>
        <time>2019-01-18T11:05:24.000Z</time>
      </trkpt>
      <trkpt lat="43.33619" lon="5.68763">
        <ele>538</ele>
        <time>2019-01-18T11:05:25.000Z</time>
      </trkpt>
      <trkpt lat="43.33619" lon="5.68763">
        <ele>538</ele>
        <time>2019-01-18T11:05:26.000Z</time>
      </trkpt>
      <trkpt lat="43.33619" lon="5.68763">
        <ele>538</ele>
        <time>2019-01-18T11:05:27.000Z</time>
      </trkpt>
      <trkpt lat="43.3362" lon="5.68764">
        <ele>538</ele>
        <time>2019-01-18T11:05:28.000Z</time>
      </trkpt>
      <trkpt lat="43.3362" lon="5.68765">
        <ele>538</ele>
        <time>2019-01-18T11:05:29.000Z</time>
      </trkpt>
      <trkpt lat="43.33621" lon="5.68766">
        <ele>538</ele>
        <time>2019-01-18T11:05:30.000Z</time>
      </trkpt>
      <trkpt lat="43.33621" lon="5.68766">
        <ele>538</ele>
        <time>2019-01-18T11:05:31.000Z</time>
      </trkpt>
      <trkpt lat="43.33621" lon="5.68766">
        <ele>538</ele>
        <time>2019-01-18T11:05:32.000Z</time>
      </trkpt>
      <trkpt lat="43.33621" lon="5.68766">
        <ele>538</ele>
        <time>2019-01-18T11:05:33.000Z</time>
      </trkpt>
      <trkpt lat="43.33622" lon="5.68767">
        <ele>538</ele>
        <time>2019-01-18T11:05:34.000Z</time>
      </trkpt>
      <trkpt lat="43.33622" lon="5.68767">
        <ele>538</ele>
        <time>2019-01-18T11:05:35.000Z</time>
      </trkpt>
      <trkpt lat="43.33622" lon="5.68768">
        <ele>538</ele>
        <time>2019-01-18T11:05:36.000Z</time>
      </trkpt>
      <trkpt lat="43.33622" lon="5.68768">
        <ele>538</ele>
        <time>2019-01-18T11:05:37.000Z</time>
      </trkpt>
      <trkpt lat="43.33622" lon="5.68769">
        <ele>538</ele>
        <time>2019-01-18T11:05:38.000Z</time>
      </trkpt>
      <trkpt lat="43.33622" lon="5.68769">
        <ele>538</ele>
        <time>2019-01-18T11:05:39.000Z</time>
      </trkpt>
      <trkpt lat="43.33622" lon="5.68769">
        <ele>538</ele>
        <time>2019-01-18T11:05:40.000Z</time>
      </trkpt>
      <trkpt lat="43.33621" lon="5.68769">
        <ele>538</ele>
        <time>2019-01-18T11:05:41.000Z</time>
      </trkpt>
      <trkpt lat="43.33621" lon="5.68769">
        <ele>538</ele>
        <time>2019-01-18T11:05:42.000Z</time>
      </trkpt>
      <trkpt lat="43.33621" lon="5.6877">
        <ele>538</ele>
        <time>2019-01-18T11:05:43.000Z</time>
      </trkpt>
      <trkpt lat="43.33621" lon="5.68771">
        <ele>538</ele>
        <time>2019-01-18T11:05:44.000Z</time>
      </trkpt>
      <trkpt lat="43.33621" lon="5.68771">
        <ele>538</ele>
        <time>2019-01-18T11:05:45.000Z</time>
      </trkpt>
      <trkpt lat="43.33621" lon="5.68772">
        <ele>539</ele>
        <time>2019-01-18T11:05:46.000Z</time>
      </trkpt>
      <trkpt lat="43.33621" lon="5.68772">
        <ele>539</ele>
        <time>2019-01-18T11:05:47.000Z</time>
      </trkpt>
      <trkpt lat="43.33621" lon="5.68772">
        <ele>539</ele>
        <time>2019-01-18T11:05:48.000Z</time>
      </trkpt>
      <trkpt lat="43.33621" lon="5.68773">
        <ele>539</ele>
        <time>2019-01-18T11:05:49.000Z</time>
      </trkpt>
      <trkpt lat="43.33621" lon="5.68772">
        <ele>539</ele>
        <time>2019-01-18T11:05:50.000Z</time>
      </trkpt>
      <trkpt lat="43.3362" lon="5.68773">
        <ele>539</ele>
        <time>2019-01-18T11:05:51.000Z</time>
      </trkpt>
      <trkpt lat="43.3362" lon="5.68773">
        <ele>540</ele>
        <time>2019-01-18T11:05:52.000Z</time>
      </trkpt>
      <trkpt lat="43.3362" lon="5.68773">
        <ele>540</ele>
        <time>2019-01-18T11:05:53.000Z</time>
      </trkpt>
      <trkpt lat="43.3362" lon="5.68773">
        <ele>540</ele>
        <time>2019-01-18T11:05:54.000Z</time>
      </trkpt>
      <trkpt lat="43.3362" lon="5.68773">
        <ele>540</ele>
        <time>2019-01-18T11:05:55.000Z</time>
      </trkpt>
      <trkpt lat="43.3362" lon="5.68773">
        <ele>540</ele>
        <time>2019-01-18T11:05:56.000Z</time>
      </trkpt>
      <trkpt lat="43.3362" lon="5.68773">
        <ele>540</ele>
        <time>2019-01-18T11:05:57.000Z</time>
      </trkpt>
      <trkpt lat="43.3362" lon="5.68773">
        <ele>540</ele>
        <time>2019-01-18T11:05:58.000Z</time>
      </trkpt>
      <trkpt lat="43.3362" lon="5.68773">
        <ele>540</ele>
        <time>2019-01-18T11:05:59.000Z</time>
      </trkpt>
      <trkpt lat="43.3362" lon="5.68773">
        <ele>540</ele>
        <time>2019-01-18T11:06:00.000Z</time>
      </trkpt>
      <trkpt lat="43.3362" lon="5.68773">
        <ele>540</ele>
        <time>2019-01-18T11:06:01.000Z</time>
      </trkpt>
      <trkpt lat="43.3362" lon="5.68773">
        <ele>540</ele>
        <time>2019-01-18T11:06:02.000Z</time>
      </trkpt>
      <trkpt lat="43.3362" lon="5.68773">
        <ele>540</ele>
        <time>2019-01-18T11:06:03.000Z</time>
      </trkpt>
      <trkpt lat="43.3362" lon="5.68773">
        <ele>540</ele>
        <time>2019-01-18T11:06:04.000Z</time>
      </trkpt>
      <trkpt lat="43.3362" lon="5.68773">
        <ele>540</ele>
        <time>2019-01-18T11:06:05.000Z</time>
      </trkpt>
      <trkpt lat="43.3362" lon="5.68773">
        <ele>540</ele>
        <time>2019-01-18T11:06:06.000Z</time>
      </trkpt>
      <trkpt lat="43.3362" lon="5.68773">
        <ele>541</ele>
        <time>2019-01-18T11:06:07.000Z</time>
      </trkpt>
      <trkpt lat="43.3362" lon="5.68773">
        <ele>541</ele>
        <time>2019-01-18T11:06:08.000Z</time>
      </trkpt>
      <trkpt lat="43.3362" lon="5.68773">
        <ele>541</ele>
        <time>2019-01-18T11:06:09.000Z</time>
      </trkpt>
      <trkpt lat="43.3362" lon="5.68773">
        <ele>541</ele>
        <time>2019-01-18T11:06:10.000Z</time>
      </trkpt>
      <trkpt lat="43.3362" lon="5.68773">
        <ele>541</ele>
        <time>2019-01-18T11:06:11.000Z</time>
      </trkpt>
      <trkpt lat="43.3362" lon="5.68773">
        <ele>541</ele>
        <time>2019-01-18T11:06:12.000Z</time>
      </trkpt>
      <trkpt lat="43.3362" lon="5.68774">
        <ele>541</ele>
        <time>2019-01-18T11:06:13.000Z</time>
      </trkpt>
      <trkpt lat="43.33619" lon="5.68774">
        <ele>541</ele>
        <time>2019-01-18T11:06:14.000Z</time>
      </trkpt>
      <trkpt lat="43.33619" lon="5.68774">
        <ele>541</ele>
        <time>2019-01-18T11:06:15.000Z</time>
      </trkpt>
      <trkpt lat="43.33619" lon="5.68774">
        <ele>541</ele>
        <time>2019-01-18T11:06:16.000Z</time>
      </trkpt>
      <trkpt lat="43.33619" lon="5.68774">
        <ele>541</ele>
        <time>2019-01-18T11:06:17.000Z</time>
      </trkpt>
      <trkpt lat="43.33619" lon="5.68774">
        <ele>541</ele>
        <time>2019-01-18T11:06:18.000Z</time>
      </trkpt>
      <trkpt lat="43.33619" lon="5.68774">
        <ele>541</ele>
        <time>2019-01-18T11:06:19.000Z</time>
      </trkpt>
      <trkpt lat="43.3362" lon="5.68774">
        <ele>541</ele>
        <time>2019-01-18T11:06:20.000Z</time>
      </trkpt>
      <trkpt lat="43.3362" lon="5.68774">
        <ele>541</ele>
        <time>2019-01-18T11:06:21.000Z</time>
      </trkpt>
      <trkpt lat="43.3362" lon="5.68775">
        <ele>541</ele>
        <time>2019-01-18T11:06:22.000Z</time>
      </trkpt>
      <trkpt lat="43.3362" lon="5.68776">
        <ele>541</ele>
        <time>2019-01-18T11:06:23.000Z</time>
      </trkpt>
      <trkpt lat="43.33621" lon="5.68777">
        <ele>541</ele>
        <time>2019-01-18T11:06:24.000Z</time>
      </trkpt>
      <trkpt lat="43.33621" lon="5.68777">
        <ele>541</ele>
        <time>2019-01-18T11:06:25.000Z</time>
      </trkpt>
      <trkpt lat="43.33621" lon="5.68778">
        <ele>541</ele>
        <time>2019-01-18T11:06:26.000Z</time>
      </trkpt>
      <trkpt lat="43.33622" lon="5.6878">
        <ele>541</ele>
        <time>2019-01-18T11:06:27.000Z</time>
      </trkpt>
      <trkpt lat="43.33622" lon="5.68781">
        <ele>541</ele>
        <time>2019-01-18T11:06:28.000Z</time>
      </trkpt>
      <trkpt lat="43.33622" lon="5.68782">
        <ele>541</ele>
        <time>2019-01-18T11:06:29.000Z</time>
      </trkpt>
      <trkpt lat="43.33623" lon="5.68784">
        <ele>541</ele>
        <time>2019-01-18T11:06:30.000Z</time>
      </trkpt>
      <trkpt lat="43.33623" lon="5.68786">
        <ele>541</ele>
        <time>2019-01-18T11:06:31.000Z</time>
      </trkpt>
      <trkpt lat="43.33623" lon="5.68787">
        <ele>541</ele>
        <time>2019-01-18T11:06:32.000Z</time>
      </trkpt>
      <trkpt lat="43.33623" lon="5.68788">
        <ele>541</ele>
        <time>2019-01-18T11:06:33.000Z</time>
      </trkpt>
      <trkpt lat="43.33624" lon="5.68789">
        <ele>541</ele>
        <time>2019-01-18T11:06:34.000Z</time>
      </trkpt>
      <trkpt lat="43.33624" lon="5.6879">
        <ele>541</ele>
        <time>2019-01-18T11:06:35.000Z</time>
      </trkpt>
      <trkpt lat="43.33625" lon="5.68791">
        <ele>541</ele>
        <time>2019-01-18T11:06:36.000Z</time>
      </trkpt>
      <trkpt lat="43.33625" lon="5.68792">
        <ele>541</ele>
        <time>2019-01-18T11:06:37.000Z</time>
      </trkpt>
      <trkpt lat="43.33625" lon="5.68793">
        <ele>541</ele>
        <time>2019-01-18T11:06:38.000Z</time>
      </trkpt>
      <trkpt lat="43.33626" lon="5.68794">
        <ele>541</ele>
        <time>2019-01-18T11:06:39.000Z</time>
      </trkpt>
      <trkpt lat="43.33626" lon="5.68795">
        <ele>541</ele>
        <time>2019-01-18T11:06:40.000Z</time>
      </trkpt>
      <trkpt lat="43.33627" lon="5.68796">
        <ele>541</ele>
        <time>2019-01-18T11:06:41.000Z</time>
      </trkpt>
      <trkpt lat="43.33628" lon="5.68797">
        <ele>541</ele>
        <time>2019-01-18T11:06:42.000Z</time>
      </trkpt>
      <trkpt lat="43.33628" lon="5.68798">
        <ele>541</ele>
        <time>2019-01-18T11:06:43.000Z</time>
      </trkpt>
      <trkpt lat="43.33628" lon="5.68798">
        <ele>541</ele>
        <time>2019-01-18T11:06:44.000Z</time>
      </trkpt>
      <trkpt lat="43.33629" lon="5.688">
        <ele>541</ele>
        <time>2019-01-18T11:06:45.000Z</time>
      </trkpt>
      <trkpt lat="43.33629" lon="5.68801">
        <ele>541</ele>
        <time>2019-01-18T11:06:46.000Z</time>
      </trkpt>
      <trkpt lat="43.33629" lon="5.68801">
        <ele>541</ele>
        <time>2019-01-18T11:06:47.000Z</time>
      </trkpt>
      <trkpt lat="43.33629" lon="5.68801">
        <ele>541</ele>
        <time>2019-01-18T11:06:48.000Z</time>
      </trkpt>
      <trkpt lat="43.3363" lon="5.68801">
        <ele>541</ele>
        <time>2019-01-18T11:06:49.000Z</time>
      </trkpt>
      <trkpt lat="43.3363" lon="5.68801">
        <ele>541</ele>
        <time>2019-01-18T11:06:50.000Z</time>
      </trkpt>
      <trkpt lat="43.3363" lon="5.68801">
        <ele>541</ele>
        <time>2019-01-18T11:06:51.000Z</time>
      </trkpt>
      <trkpt lat="43.3363" lon="5.68801">
        <ele>541</ele>
        <time>2019-01-18T11:06:52.000Z</time>
      </trkpt>
      <trkpt lat="43.3363" lon="5.68801">
        <ele>541</ele>
        <time>2019-01-18T11:06:53.000Z</time>
      </trkpt>
      <trkpt lat="43.3363" lon="5.68801">
        <ele>541</ele>
        <time>2019-01-18T11:06:54.000Z</time>
      </trkpt>
      <trkpt lat="43.3363" lon="5.68801">
        <ele>541</ele>
        <time>2019-01-18T11:06:55.000Z</time>
      </trkpt>
      <trkpt lat="43.3363" lon="5.68802">
        <ele>541</ele>
        <time>2019-01-18T11:06:56.000Z</time>
      </trkpt>
      <trkpt lat="43.33631" lon="5.68802">
        <ele>542</ele>
        <time>2019-01-18T11:06:57.000Z</time>
      </trkpt>
      <trkpt lat="43.33631" lon="5.68802">
        <ele>542</ele>
        <time>2019-01-18T11:06:58.000Z</time>
      </trkpt>
      <trkpt lat="43.33631" lon="5.68803">
        <ele>542</ele>
        <time>2019-01-18T11:06:59.000Z</time>
      </trkpt>
      <trkpt lat="43.33631" lon="5.68803">
        <ele>542</ele>
        <time>2019-01-18T11:07:00.000Z</time>
      </trkpt>
      <trkpt lat="43.33632" lon="5.68803">
        <ele>542</ele>
        <time>2019-01-18T11:07:01.000Z</time>
      </trkpt>
      <trkpt lat="43.33632" lon="5.68803">
        <ele>542</ele>
        <time>2019-01-18T11:07:02.000Z</time>
      </trkpt>
      <trkpt lat="43.33632" lon="5.68803">
        <ele>542</ele>
        <time>2019-01-18T11:07:03.000Z</time>
      </trkpt>
      <trkpt lat="43.33632" lon="5.68803">
        <ele>542</ele>
        <time>2019-01-18T11:07:04.000Z</time>
      </trkpt>
      <trkpt lat="43.33632" lon="5.68803">
        <ele>542</ele>
        <time>2019-01-18T11:07:05.000Z</time>
      </trkpt>
      <trkpt lat="43.33632" lon="5.68804">
        <ele>542</ele>
        <time>2019-01-18T11:07:06.000Z</time>
      </trkpt>
      <trkpt lat="43.33632" lon="5.68804">
        <ele>541</ele>
        <time>2019-01-18T11:07:07.000Z</time>
      </trkpt>
      <trkpt lat="43.33632" lon="5.68805">
        <ele>541</ele>
        <time>2019-01-18T11:07:08.000Z</time>
      </trkpt>
      <trkpt lat="43.33632" lon="5.68805">
        <ele>541</ele>
        <time>2019-01-18T11:07:09.000Z</time>
      </trkpt>
      <trkpt lat="43.33632" lon="5.68806">
        <ele>541</ele>
        <time>2019-01-18T11:07:10.000Z</time>
      </trkpt>
      <trkpt lat="43.33632" lon="5.68806">
        <ele>542</ele>
        <time>2019-01-18T11:07:11.000Z</time>
      </trkpt>
      <trkpt lat="43.33633" lon="5.68807">
        <ele>542</ele>
        <time>2019-01-18T11:07:12.000Z</time>
      </trkpt>
      <trkpt lat="43.33633" lon="5.68807">
        <ele>542</ele>
        <time>2019-01-18T11:07:13.000Z</time>
      </trkpt>
      <trkpt lat="43.33633" lon="5.68808">
        <ele>542</ele>
        <time>2019-01-18T11:07:14.000Z</time>
      </trkpt>
      <trkpt lat="43.33633" lon="5.68809">
        <ele>542</ele>
        <time>2019-01-18T11:07:15.000Z</time>
      </trkpt>
      <trkpt lat="43.33633" lon="5.68809">
        <ele>542</ele>
        <time>2019-01-18T11:07:16.000Z</time>
      </trkpt>
      <trkpt lat="43.33634" lon="5.6881">
        <ele>542</ele>
        <time>2019-01-18T11:07:17.000Z</time>
      </trkpt>
      <trkpt lat="43.33634" lon="5.6881">
        <ele>542</ele>
        <time>2019-01-18T11:07:18.000Z</time>
      </trkpt>
      <trkpt lat="43.33635" lon="5.6881">
        <ele>542</ele>
        <time>2019-01-18T11:07:19.000Z</time>
      </trkpt>
      <trkpt lat="43.33637" lon="5.6881">
        <ele>542</ele>
        <time>2019-01-18T11:07:20.000Z</time>
      </trkpt>
      <trkpt lat="43.33638" lon="5.6881">
        <ele>542</ele>
        <time>2019-01-18T11:07:21.000Z</time>
      </trkpt>
      <trkpt lat="43.3364" lon="5.6881">
        <ele>542</ele>
        <time>2019-01-18T11:07:22.000Z</time>
      </trkpt>
      <trkpt lat="43.33641" lon="5.68811">
        <ele>542</ele>
        <time>2019-01-18T11:07:23.000Z</time>
      </trkpt>
      <trkpt lat="43.33641" lon="5.68811">
        <ele>542</ele>
        <time>2019-01-18T11:07:24.000Z</time>
      </trkpt>
      <trkpt lat="43.33642" lon="5.68812">
        <ele>543</ele>
        <time>2019-01-18T11:07:25.000Z</time>
      </trkpt>
      <trkpt lat="43.33642" lon="5.68813">
        <ele>543</ele>
        <time>2019-01-18T11:07:26.000Z</time>
      </trkpt>
      <trkpt lat="43.33643" lon="5.68814">
        <ele>543</ele>
        <time>2019-01-18T11:07:27.000Z</time>
      </trkpt>
      <trkpt lat="43.33644" lon="5.68815">
        <ele>543</ele>
        <time>2019-01-18T11:07:28.000Z</time>
      </trkpt>
      <trkpt lat="43.33644" lon="5.68816">
        <ele>543</ele>
        <time>2019-01-18T11:07:29.000Z</time>
      </trkpt>
      <trkpt lat="43.33644" lon="5.68817">
        <ele>543</ele>
        <time>2019-01-18T11:07:30.000Z</time>
      </trkpt>
      <trkpt lat="43.33645" lon="5.68818">
        <ele>543</ele>
        <time>2019-01-18T11:07:31.000Z</time>
      </trkpt>
      <trkpt lat="43.33645" lon="5.68819">
        <ele>543</ele>
        <time>2019-01-18T11:07:32.000Z</time>
      </trkpt>
      <trkpt lat="43.33646" lon="5.68819">
        <ele>543</ele>
        <time>2019-01-18T11:07:33.000Z</time>
      </trkpt>
      <trkpt lat="43.33646" lon="5.6882">
        <ele>543</ele>
        <time>2019-01-18T11:07:34.000Z</time>
      </trkpt>
      <trkpt lat="43.33647" lon="5.68821">
        <ele>543</ele>
        <time>2019-01-18T11:07:35.000Z</time>
      </trkpt>
      <trkpt lat="43.33647" lon="5.68822">
        <ele>543</ele>
        <time>2019-01-18T11:07:36.000Z</time>
      </trkpt>
      <trkpt lat="43.33648" lon="5.68823">
        <ele>543</ele>
        <time>2019-01-18T11:07:37.000Z</time>
      </trkpt>
      <trkpt lat="43.33648" lon="5.68824">
        <ele>543</ele>
        <time>2019-01-18T11:07:38.000Z</time>
      </trkpt>
      <trkpt lat="43.33649" lon="5.68825">
        <ele>543</ele>
        <time>2019-01-18T11:07:39.000Z</time>
      </trkpt>
      <trkpt lat="43.33649" lon="5.68826">
        <ele>543</ele>
        <time>2019-01-18T11:07:40.000Z</time>
      </trkpt>
      <trkpt lat="43.33649" lon="5.68827">
        <ele>543</ele>
        <time>2019-01-18T11:07:41.000Z</time>
      </trkpt>
      <trkpt lat="43.33649" lon="5.68828">
        <ele>543</ele>
        <time>2019-01-18T11:07:42.000Z</time>
      </trkpt>
      <trkpt lat="43.3365" lon="5.68829">
        <ele>543</ele>
        <time>2019-01-18T11:07:43.000Z</time>
      </trkpt>
      <trkpt lat="43.3365" lon="5.6883">
        <ele>543</ele>
        <time>2019-01-18T11:07:44.000Z</time>
      </trkpt>
      <trkpt lat="43.33649" lon="5.68831">
        <ele>543</ele>
        <time>2019-01-18T11:07:45.000Z</time>
      </trkpt>
      <trkpt lat="43.33649" lon="5.68832">
        <ele>543</ele>
        <time>2019-01-18T11:07:46.000Z</time>
      </trkpt>
      <trkpt lat="43.33649" lon="5.68833">
        <ele>543</ele>
        <time>2019-01-18T11:07:47.000Z</time>
      </trkpt>
      <trkpt lat="43.33649" lon="5.68833">
        <ele>543</ele>
        <time>2019-01-18T11:07:48.000Z</time>
      </trkpt>
      <trkpt lat="43.33648" lon="5.68833">
        <ele>543</ele>
        <time>2019-01-18T11:07:49.000Z</time>
      </trkpt>
      <trkpt lat="43.33648" lon="5.68833">
        <ele>543</ele>
        <time>2019-01-18T11:07:50.000Z</time>
      </trkpt>
      <trkpt lat="43.33648" lon="5.68834">
        <ele>543</ele>
        <time>2019-01-18T11:07:51.000Z</time>
      </trkpt>
      <trkpt lat="43.33648" lon="5.68835">
        <ele>543</ele>
        <time>2019-01-18T11:07:52.000Z</time>
      </trkpt>
      <trkpt lat="43.33648" lon="5.68835">
        <ele>544</ele>
        <time>2019-01-18T11:07:53.000Z</time>
      </trkpt>
      <trkpt lat="43.33648" lon="5.68836">
        <ele>544</ele>
        <time>2019-01-18T11:07:54.000Z</time>
      </trkpt>
      <trkpt lat="43.33648" lon="5.68836">
        <ele>544</ele>
        <time>2019-01-18T11:07:55.000Z</time>
      </trkpt>
      <trkpt lat="43.33647" lon="5.68836">
        <ele>544</ele>
        <time>2019-01-18T11:07:56.000Z</time>
      </trkpt>
      <trkpt lat="43.33647" lon="5.68837">
        <ele>544</ele>
        <time>2019-01-18T11:07:57.000Z</time>
      </trkpt>
      <trkpt lat="43.33647" lon="5.68837">
        <ele>544</ele>
        <time>2019-01-18T11:07:58.000Z</time>
      </trkpt>
      <trkpt lat="43.33647" lon="5.68838">
        <ele>544</ele>
        <time>2019-01-18T11:07:59.000Z</time>
      </trkpt>
      <trkpt lat="43.33647" lon="5.68838">
        <ele>544</ele>
        <time>2019-01-18T11:08:00.000Z</time>
      </trkpt>
      <trkpt lat="43.33647" lon="5.68839">
        <ele>544</ele>
        <time>2019-01-18T11:08:01.000Z</time>
      </trkpt>
      <trkpt lat="43.33648" lon="5.68839">
        <ele>544</ele>
        <time>2019-01-18T11:08:02.000Z</time>
      </trkpt>
      <trkpt lat="43.33648" lon="5.6884">
        <ele>545</ele>
        <time>2019-01-18T11:08:03.000Z</time>
      </trkpt>
      <trkpt lat="43.33649" lon="5.68841">
        <ele>545</ele>
        <time>2019-01-18T11:08:04.000Z</time>
      </trkpt>
      <trkpt lat="43.33649" lon="5.68841">
        <ele>545</ele>
        <time>2019-01-18T11:08:05.000Z</time>
      </trkpt>
      <trkpt lat="43.33649" lon="5.68842">
        <ele>545</ele>
        <time>2019-01-18T11:08:06.000Z</time>
      </trkpt>
      <trkpt lat="43.33649" lon="5.68843">
        <ele>545</ele>
        <time>2019-01-18T11:08:07.000Z</time>
      </trkpt>
      <trkpt lat="43.33649" lon="5.68843">
        <ele>545</ele>
        <time>2019-01-18T11:08:08.000Z</time>
      </trkpt>
      <trkpt lat="43.33649" lon="5.68844">
        <ele>545</ele>
        <time>2019-01-18T11:08:09.000Z</time>
      </trkpt>
      <trkpt lat="43.33648" lon="5.68844">
        <ele>545</ele>
        <time>2019-01-18T11:08:10.000Z</time>
      </trkpt>
      <trkpt lat="43.33648" lon="5.68844">
        <ele>545</ele>
        <time>2019-01-18T11:08:11.000Z</time>
      </trkpt>
      <trkpt lat="43.33648" lon="5.68844">
        <ele>545</ele>
        <time>2019-01-18T11:08:12.000Z</time>
      </trkpt>
      <trkpt lat="43.33648" lon="5.68845">
        <ele>545</ele>
        <time>2019-01-18T11:08:13.000Z</time>
      </trkpt>
      <trkpt lat="43.33648" lon="5.68845">
        <ele>545</ele>
        <time>2019-01-18T11:08:14.000Z</time>
      </trkpt>
      <trkpt lat="43.33648" lon="5.68845">
        <ele>545</ele>
        <time>2019-01-18T11:08:15.000Z</time>
      </trkpt>
      <trkpt lat="43.33648" lon="5.68846">
        <ele>545</ele>
        <time>2019-01-18T11:08:16.000Z</time>
      </trkpt>
      <trkpt lat="43.33648" lon="5.68847">
        <ele>545</ele>
        <time>2019-01-18T11:08:17.000Z</time>
      </trkpt>
      <trkpt lat="43.33648" lon="5.68848">
        <ele>545</ele>
        <time>2019-01-18T11:08:18.000Z</time>
      </trkpt>
      <trkpt lat="43.33648" lon="5.68848">
        <ele>545</ele>
        <time>2019-01-18T11:08:19.000Z</time>
      </trkpt>
      <trkpt lat="43.33648" lon="5.68848">
        <ele>545</ele>
        <time>2019-01-18T11:08:20.000Z</time>
      </trkpt>
      <trkpt lat="43.33648" lon="5.68849">
        <ele>545</ele>
        <time>2019-01-18T11:08:21.000Z</time>
      </trkpt>
      <trkpt lat="43.33648" lon="5.68849">
        <ele>545</ele>
        <time>2019-01-18T11:08:22.000Z</time>
      </trkpt>
      <trkpt lat="43.33648" lon="5.68849">
        <ele>545</ele>
        <time>2019-01-18T11:08:23.000Z</time>
      </trkpt>
      <trkpt lat="43.33648" lon="5.68848">
        <ele>545</ele>
        <time>2019-01-18T11:08:24.000Z</time>
      </trkpt>
      <trkpt lat="43.33648" lon="5.68848">
        <ele>545</ele>
        <time>2019-01-18T11:08:25.000Z</time>
      </trkpt>
      <trkpt lat="43.33648" lon="5.68848">
        <ele>545</ele>
        <time>2019-01-18T11:08:26.000Z</time>
      </trkpt>
      <trkpt lat="43.33648" lon="5.68848">
        <ele>546</ele>
        <time>2019-01-18T11:08:27.000Z</time>
      </trkpt>
      <trkpt lat="43.33648" lon="5.68849">
        <ele>546</ele>
        <time>2019-01-18T11:08:28.000Z</time>
      </trkpt>
      <trkpt lat="43.33648" lon="5.68849">
        <ele>546</ele>
        <time>2019-01-18T11:08:29.000Z</time>
      </trkpt>
      <trkpt lat="43.33648" lon="5.68849">
        <ele>546</ele>
        <time>2019-01-18T11:08:30.000Z</time>
      </trkpt>
      <trkpt lat="43.33648" lon="5.68849">
        <ele>546</ele>
        <time>2019-01-18T11:08:31.000Z</time>
      </trkpt>
      <trkpt lat="43.33649" lon="5.68849">
        <ele>546</ele>
        <time>2019-01-18T11:08:32.000Z</time>
      </trkpt>
      <trkpt lat="43.33649" lon="5.6885">
        <ele>546</ele>
        <time>2019-01-18T11:08:33.000Z</time>
      </trkpt>
      <trkpt lat="43.33649" lon="5.68851">
        <ele>546</ele>
        <time>2019-01-18T11:08:34.000Z</time>
      </trkpt>
      <trkpt lat="43.3365" lon="5.68852">
        <ele>546</ele>
        <time>2019-01-18T11:08:35.000Z</time>
      </trkpt>
      <trkpt lat="43.3365" lon="5.68852">
        <ele>546</ele>
        <time>2019-01-18T11:08:36.000Z</time>
      </trkpt>
      <trkpt lat="43.3365" lon="5.68853">
        <ele>546</ele>
        <time>2019-01-18T11:08:37.000Z</time>
      </trkpt>
      <trkpt lat="43.3365" lon="5.68853">
        <ele>546</ele>
        <time>2019-01-18T11:08:38.000Z</time>
      </trkpt>
      <trkpt lat="43.3365" lon="5.68853">
        <ele>546</ele>
        <time>2019-01-18T11:08:39.000Z</time>
      </trkpt>
      <trkpt lat="43.3365" lon="5.68853">
        <ele>546</ele>
        <time>2019-01-18T11:08:40.000Z</time>
      </trkpt>
      <trkpt lat="43.3365" lon="5.68853">
        <ele>546</ele>
        <time>2019-01-18T11:08:41.000Z</time>
      </trkpt>
      <trkpt lat="43.3365" lon="5.68854">
        <ele>546</ele>
        <time>2019-01-18T11:08:42.000Z</time>
      </trkpt>
      <trkpt lat="43.3365" lon="5.68854">
        <ele>546</ele>
        <time>2019-01-18T11:08:43.000Z</time>
      </trkpt>
      <trkpt lat="43.3365" lon="5.68854">
        <ele>546</ele>
        <time>2019-01-18T11:08:44.000Z</time>
      </trkpt>
      <trkpt lat="43.3365" lon="5.68854">
        <ele>546</ele>
        <time>2019-01-18T11:08:45.000Z</time>
      </trkpt>
      <trkpt lat="43.3365" lon="5.68854">
        <ele>546</ele>
        <time>2019-01-18T11:08:46.000Z</time>
      </trkpt>
      <trkpt lat="43.3365" lon="5.68854">
        <ele>546</ele>
        <time>2019-01-18T11:08:47.000Z</time>
      </trkpt>
      <trkpt lat="43.3365" lon="5.68854">
        <ele>546</ele>
        <time>2019-01-18T11:08:48.000Z</time>
      </trkpt>
      <trkpt lat="43.3365" lon="5.68854">
        <ele>546</ele>
        <time>2019-01-18T11:08:49.000Z</time>
      </trkpt>
      <trkpt lat="43.3365" lon="5.68854">
        <ele>546</ele>
        <time>2019-01-18T11:08:50.000Z</time>
      </trkpt>
      <trkpt lat="43.3365" lon="5.68854">
        <ele>546</ele>
        <time>2019-01-18T11:08:51.000Z</time>
      </trkpt>
      <trkpt lat="43.33651" lon="5.68854">
        <ele>546</ele>
        <time>2019-01-18T11:08:52.000Z</time>
      </trkpt>
      <trkpt lat="43.33651" lon="5.68854">
        <ele>546</ele>
        <time>2019-01-18T11:08:53.000Z</time>
      </trkpt>
      <trkpt lat="43.33651" lon="5.68854">
        <ele>546</ele>
        <time>2019-01-18T11:08:54.000Z</time>
      </trkpt>
      <trkpt lat="43.33651" lon="5.68854">
        <ele>546</ele>
        <time>2019-01-18T11:08:55.000Z</time>
      </trkpt>
      <trkpt lat="43.33651" lon="5.68854">
        <ele>546</ele>
        <time>2019-01-18T11:08:56.000Z</time>
      </trkpt>
      <trkpt lat="43.33651" lon="5.68854">
        <ele>546</ele>
        <time>2019-01-18T11:08:57.000Z</time>
      </trkpt>
      <trkpt lat="43.33651" lon="5.68854">
        <ele>546</ele>
        <time>2019-01-18T11:08:58.000Z</time>
      </trkpt>
      <trkpt lat="43.33651" lon="5.68855">
        <ele>546</ele>
        <time>2019-01-18T11:08:59.000Z</time>
      </trkpt>
      <trkpt lat="43.33651" lon="5.68855">
        <ele>546</ele>
        <time>2019-01-18T11:09:00.000Z</time>
      </trkpt>
      <trkpt lat="43.33651" lon="5.68855">
        <ele>546</ele>
        <time>2019-01-18T11:09:01.000Z</time>
      </trkpt>
      <trkpt lat="43.33651" lon="5.68856">
        <ele>546</ele>
        <time>2019-01-18T11:09:02.000Z</time>
      </trkpt>
      <trkpt lat="43.33651" lon="5.68856">
        <ele>546</ele>
        <time>2019-01-18T11:09:03.000Z</time>
      </trkpt>
      <trkpt lat="43.33651" lon="5.68856">
        <ele>546</ele>
        <time>2019-01-18T11:09:04.000Z</time>
      </trkpt>
      <trkpt lat="43.33651" lon="5.68856">
        <ele>546</ele>
        <time>2019-01-18T11:09:05.000Z</time>
      </trkpt>
      <trkpt lat="43.33651" lon="5.68856">
        <ele>546</ele>
        <time>2019-01-18T11:09:06.000Z</time>
      </trkpt>
      <trkpt lat="43.33651" lon="5.68857">
        <ele>546</ele>
        <time>2019-01-18T11:09:07.000Z</time>
      </trkpt>
      <trkpt lat="43.33651" lon="5.68857">
        <ele>546</ele>
        <time>2019-01-18T11:09:08.000Z</time>
      </trkpt>
      <trkpt lat="43.33651" lon="5.68858">
        <ele>547</ele>
        <time>2019-01-18T11:09:09.000Z</time>
      </trkpt>
      <trkpt lat="43.33651" lon="5.68858">
        <ele>547</ele>
        <time>2019-01-18T11:09:10.000Z</time>
      </trkpt>
      <trkpt lat="43.33651" lon="5.68858">
        <ele>547</ele>
        <time>2019-01-18T11:09:11.000Z</time>
      </trkpt>
      <trkpt lat="43.33651" lon="5.68859">
        <ele>547</ele>
        <time>2019-01-18T11:09:12.000Z</time>
      </trkpt>
      <trkpt lat="43.33651" lon="5.6886">
        <ele>547</ele>
        <time>2019-01-18T11:09:13.000Z</time>
      </trkpt>
      <trkpt lat="43.33651" lon="5.68861">
        <ele>547</ele>
        <time>2019-01-18T11:09:14.000Z</time>
      </trkpt>
      <trkpt lat="43.33652" lon="5.68861">
        <ele>547</ele>
        <time>2019-01-18T11:09:15.000Z</time>
      </trkpt>
      <trkpt lat="43.33652" lon="5.68861">
        <ele>547</ele>
        <time>2019-01-18T11:09:16.000Z</time>
      </trkpt>
      <trkpt lat="43.33652" lon="5.68862">
        <ele>547</ele>
        <time>2019-01-18T11:09:17.000Z</time>
      </trkpt>
      <trkpt lat="43.33652" lon="5.68862">
        <ele>547</ele>
        <time>2019-01-18T11:09:18.000Z</time>
      </trkpt>
      <trkpt lat="43.33652" lon="5.68863">
        <ele>547</ele>
        <time>2019-01-18T11:09:19.000Z</time>
      </trkpt>
      <trkpt lat="43.33652" lon="5.68864">
        <ele>548</ele>
        <time>2019-01-18T11:09:20.000Z</time>
      </trkpt>
      <trkpt lat="43.33653" lon="5.68865">
        <ele>548</ele>
        <time>2019-01-18T11:09:21.000Z</time>
      </trkpt>
      <trkpt lat="43.33653" lon="5.68865">
        <ele>548</ele>
        <time>2019-01-18T11:09:22.000Z</time>
      </trkpt>
      <trkpt lat="43.33653" lon="5.68866">
        <ele>548</ele>
        <time>2019-01-18T11:09:23.000Z</time>
      </trkpt>
      <trkpt lat="43.33653" lon="5.68866">
        <ele>548</ele>
        <time>2019-01-18T11:09:24.000Z</time>
      </trkpt>
      <trkpt lat="43.33653" lon="5.68866">
        <ele>548</ele>
        <time>2019-01-18T11:09:25.000Z</time>
      </trkpt>
      <trkpt lat="43.33653" lon="5.68866">
        <ele>548</ele>
        <time>2019-01-18T11:09:26.000Z</time>
      </trkpt>
      <trkpt lat="43.33653" lon="5.68866">
        <ele>548</ele>
        <time>2019-01-18T11:09:27.000Z</time>
      </trkpt>
      <trkpt lat="43.33653" lon="5.68866">
        <ele>548</ele>
        <time>2019-01-18T11:09:28.000Z</time>
      </trkpt>
      <trkpt lat="43.33653" lon="5.68866">
        <ele>548</ele>
        <time>2019-01-18T11:09:29.000Z</time>
      </trkpt>
      <trkpt lat="43.33653" lon="5.68867">
        <ele>548</ele>
        <time>2019-01-18T11:09:30.000Z</time>
      </trkpt>
      <trkpt lat="43.33653" lon="5.68867">
        <ele>548</ele>
        <time>2019-01-18T11:09:31.000Z</time>
      </trkpt>
      <trkpt lat="43.33654" lon="5.68867">
        <ele>548</ele>
        <time>2019-01-18T11:09:32.000Z</time>
      </trkpt>
      <trkpt lat="43.33654" lon="5.68868">
        <ele>549</ele>
        <time>2019-01-18T11:09:33.000Z</time>
      </trkpt>
      <trkpt lat="43.33654" lon="5.68868">
        <ele>549</ele>
        <time>2019-01-18T11:09:34.000Z</time>
      </trkpt>
      <trkpt lat="43.33654" lon="5.68869">
        <ele>549</ele>
        <time>2019-01-18T11:09:35.000Z</time>
      </trkpt>
      <trkpt lat="43.33654" lon="5.68869">
        <ele>549</ele>
        <time>2019-01-18T11:09:36.000Z</time>
      </trkpt>
      <trkpt lat="43.33654" lon="5.6887">
        <ele>549</ele>
        <time>2019-01-18T11:09:37.000Z</time>
      </trkpt>
      <trkpt lat="43.33654" lon="5.6887">
        <ele>549</ele>
        <time>2019-01-18T11:09:38.000Z</time>
      </trkpt>
      <trkpt lat="43.33654" lon="5.68871">
        <ele>549</ele>
        <time>2019-01-18T11:09:39.000Z</time>
      </trkpt>
      <trkpt lat="43.33654" lon="5.68871">
        <ele>549</ele>
        <time>2019-01-18T11:09:40.000Z</time>
      </trkpt>
      <trkpt lat="43.33653" lon="5.68872">
        <ele>550</ele>
        <time>2019-01-18T11:09:41.000Z</time>
      </trkpt>
      <trkpt lat="43.33653" lon="5.68873">
        <ele>550</ele>
        <time>2019-01-18T11:09:42.000Z</time>
      </trkpt>
      <trkpt lat="43.33653" lon="5.68873">
        <ele>550</ele>
        <time>2019-01-18T11:09:43.000Z</time>
      </trkpt>
      <trkpt lat="43.33653" lon="5.68873">
        <ele>550</ele>
        <time>2019-01-18T11:09:44.000Z</time>
      </trkpt>
      <trkpt lat="43.33653" lon="5.68873">
        <ele>550</ele>
        <time>2019-01-18T11:09:45.000Z</time>
      </trkpt>
      <trkpt lat="43.33653" lon="5.68873">
        <ele>550</ele>
        <time>2019-01-18T11:09:46.000Z</time>
      </trkpt>
      <trkpt lat="43.33653" lon="5.68873">
        <ele>550</ele>
        <time>2019-01-18T11:09:47.000Z</time>
      </trkpt>
      <trkpt lat="43.33653" lon="5.68874">
        <ele>550</ele>
        <time>2019-01-18T11:09:48.000Z</time>
      </trkpt>
      <trkpt lat="43.33653" lon="5.68874">
        <ele>551</ele>
        <time>2019-01-18T11:09:49.000Z</time>
      </trkpt>
      <trkpt lat="43.33653" lon="5.68874">
        <ele>551</ele>
        <time>2019-01-18T11:09:50.000Z</time>
      </trkpt>
      <trkpt lat="43.33653" lon="5.68875">
        <ele>551</ele>
        <time>2019-01-18T11:09:51.000Z</time>
      </trkpt>
      <trkpt lat="43.33653" lon="5.68876">
        <ele>551</ele>
        <time>2019-01-18T11:09:52.000Z</time>
      </trkpt>
      <trkpt lat="43.33652" lon="5.68877">
        <ele>551</ele>
        <time>2019-01-18T11:09:53.000Z</time>
      </trkpt>
      <trkpt lat="43.33652" lon="5.68878">
        <ele>551</ele>
        <time>2019-01-18T11:09:54.000Z</time>
      </trkpt>
      <trkpt lat="43.33652" lon="5.68878">
        <ele>551</ele>
        <time>2019-01-18T11:09:55.000Z</time>
      </trkpt>
      <trkpt lat="43.33652" lon="5.68879">
        <ele>551</ele>
        <time>2019-01-18T11:09:56.000Z</time>
      </trkpt>
      <trkpt lat="43.33652" lon="5.6888">
        <ele>551</ele>
        <time>2019-01-18T11:09:57.000Z</time>
      </trkpt>
      <trkpt lat="43.33652" lon="5.6888">
        <ele>551</ele>
        <time>2019-01-18T11:09:58.000Z</time>
      </trkpt>
      <trkpt lat="43.33652" lon="5.6888">
        <ele>551</ele>
        <time>2019-01-18T11:09:59.000Z</time>
      </trkpt>
      <trkpt lat="43.33652" lon="5.6888">
        <ele>551</ele>
        <time>2019-01-18T11:10:00.000Z</time>
      </trkpt>
      <trkpt lat="43.33652" lon="5.6888">
        <ele>551</ele>
        <time>2019-01-18T11:10:01.000Z</time>
      </trkpt>
      <trkpt lat="43.33652" lon="5.68881">
        <ele>551</ele>
        <time>2019-01-18T11:10:02.000Z</time>
      </trkpt>
      <trkpt lat="43.33653" lon="5.68881">
        <ele>551</ele>
        <time>2019-01-18T11:10:03.000Z</time>
      </trkpt>
      <trkpt lat="43.33653" lon="5.68881">
        <ele>551</ele>
        <time>2019-01-18T11:10:04.000Z</time>
      </trkpt>
      <trkpt lat="43.33653" lon="5.68881">
        <ele>551</ele>
        <time>2019-01-18T11:10:05.000Z</time>
      </trkpt>
      <trkpt lat="43.33653" lon="5.68881">
        <ele>551</ele>
        <time>2019-01-18T11:10:06.000Z</time>
      </trkpt>
      <trkpt lat="43.33653" lon="5.68881">
        <ele>551</ele>
        <time>2019-01-18T11:10:07.000Z</time>
      </trkpt>
      <trkpt lat="43.33653" lon="5.68881">
        <ele>551</ele>
        <time>2019-01-18T11:10:08.000Z</time>
      </trkpt>
      <trkpt lat="43.33653" lon="5.68881">
        <ele>552</ele>
        <time>2019-01-18T11:10:09.000Z</time>
      </trkpt>
      <trkpt lat="43.33653" lon="5.68881">
        <ele>552</ele>
        <time>2019-01-18T11:10:10.000Z</time>
      </trkpt>
      <trkpt lat="43.33652" lon="5.68881">
        <ele>552</ele>
        <time>2019-01-18T11:10:11.000Z</time>
      </trkpt>
      <trkpt lat="43.33652" lon="5.68881">
        <ele>552</ele>
        <time>2019-01-18T11:10:12.000Z</time>
      </trkpt>
      <trkpt lat="43.33652" lon="5.68882">
        <ele>552</ele>
        <time>2019-01-18T11:10:13.000Z</time>
      </trkpt>
      <trkpt lat="43.33652" lon="5.68882">
        <ele>552</ele>
        <time>2019-01-18T11:10:14.000Z</time>
      </trkpt>
      <trkpt lat="43.33652" lon="5.68882">
        <ele>552</ele>
        <time>2019-01-18T11:10:15.000Z</time>
      </trkpt>
      <trkpt lat="43.33652" lon="5.68882">
        <ele>552</ele>
        <time>2019-01-18T11:10:16.000Z</time>
      </trkpt>
      <trkpt lat="43.33652" lon="5.68882">
        <ele>552</ele>
        <time>2019-01-18T11:10:17.000Z</time>
      </trkpt>
      <trkpt lat="43.33652" lon="5.68882">
        <ele>552</ele>
        <time>2019-01-18T11:10:18.000Z</time>
      </trkpt>
      <trkpt lat="43.33652" lon="5.68882">
        <ele>552</ele>
        <time>2019-01-18T11:10:19.000Z</time>
      </trkpt>
      <trkpt lat="43.33652" lon="5.68882">
        <ele>552</ele>
        <time>2019-01-18T11:10:20.000Z</time>
      </trkpt>
      <trkpt lat="43.33651" lon="5.68882">
        <ele>552</ele>
        <time>2019-01-18T11:10:21.000Z</time>
      </trkpt>
      <trkpt lat="43.33651" lon="5.68882">
        <ele>552</ele>
        <time>2019-01-18T11:10:22.000Z</time>
      </trkpt>
      <trkpt lat="43.33651" lon="5.68882">
        <ele>552</ele>
        <time>2019-01-18T11:10:23.000Z</time>
      </trkpt>
      <trkpt lat="43.33651" lon="5.68882">
        <ele>552</ele>
        <time>2019-01-18T11:10:24.000Z</time>
      </trkpt>
      <trkpt lat="43.33651" lon="5.68882">
        <ele>552</ele>
        <time>2019-01-18T11:10:25.000Z</time>
      </trkpt>
      <trkpt lat="43.33651" lon="5.68882">
        <ele>552</ele>
        <time>2019-01-18T11:10:26.000Z</time>
      </trkpt>
      <trkpt lat="43.33651" lon="5.68882">
        <ele>552</ele>
        <time>2019-01-18T11:10:27.000Z</time>
      </trkpt>
      <trkpt lat="43.33651" lon="5.68882">
        <ele>552</ele>
        <time>2019-01-18T11:10:28.000Z</time>
      </trkpt>
      <trkpt lat="43.33651" lon="5.68882">
        <ele>552</ele>
        <time>2019-01-18T11:10:29.000Z</time>
      </trkpt>
      <trkpt lat="43.33651" lon="5.68882">
        <ele>552</ele>
        <time>2019-01-18T11:10:30.000Z</time>
      </trkpt>
      <trkpt lat="43.33651" lon="5.68882">
        <ele>552</ele>
        <time>2019-01-18T11:10:31.000Z</time>
      </trkpt>
      <trkpt lat="43.33651" lon="5.68882">
        <ele>552</ele>
        <time>2019-01-18T11:10:32.000Z</time>
      </trkpt>
      <trkpt lat="43.33651" lon="5.68882">
        <ele>552</ele>
        <time>2019-01-18T11:10:33.000Z</time>
      </trkpt>
      <trkpt lat="43.33651" lon="5.68882">
        <ele>552</ele>
        <time>2019-01-18T11:10:34.000Z</time>
      </trkpt>
      <trkpt lat="43.33651" lon="5.68882">
        <ele>552</ele>
        <time>2019-01-18T11:10:35.000Z</time>
      </trkpt>
      <trkpt lat="43.33651" lon="5.68882">
        <ele>552</ele>
        <time>2019-01-18T11:10:36.000Z</time>
      </trkpt>
      <trkpt lat="43.33651" lon="5.68882">
        <ele>552</ele>
        <time>2019-01-18T11:10:37.000Z</time>
      </trkpt>
      <trkpt lat="43.33651" lon="5.68882">
        <ele>553</ele>
        <time>2019-01-18T11:10:38.000Z</time>
      </trkpt>
      <trkpt lat="43.33651" lon="5.68882">
        <ele>553</ele>
        <time>2019-01-18T11:10:39.000Z</time>
      </trkpt>
      <trkpt lat="43.33651" lon="5.68882">
        <ele>553</ele>
        <time>2019-01-18T11:10:40.000Z</time>
      </trkpt>
      <trkpt lat="43.33651" lon="5.68882">
        <ele>553</ele>
        <time>2019-01-18T11:10:41.000Z</time>
      </trkpt>
      <trkpt lat="43.33651" lon="5.68882">
        <ele>553</ele>
        <time>2019-01-18T11:10:42.000Z</time>
      </trkpt>
      <trkpt lat="43.33651" lon="5.68882">
        <ele>553</ele>
        <time>2019-01-18T11:10:43.000Z</time>
      </trkpt>
      <trkpt lat="43.33651" lon="5.68882">
        <ele>553</ele>
        <time>2019-01-18T11:10:44.000Z</time>
      </trkpt>
      <trkpt lat="43.33651" lon="5.68882">
        <ele>553</ele>
        <time>2019-01-18T11:10:45.000Z</time>
      </trkpt>
      <trkpt lat="43.33651" lon="5.68882">
        <ele>553</ele>
        <time>2019-01-18T11:10:46.000Z</time>
      </trkpt>
      <trkpt lat="43.33651" lon="5.68882">
        <ele>553</ele>
        <time>2019-01-18T11:10:47.000Z</time>
      </trkpt>
      <trkpt lat="43.33652" lon="5.68882">
        <ele>553</ele>
        <time>2019-01-18T11:10:48.000Z</time>
      </trkpt>
      <trkpt lat="43.33652" lon="5.68882">
        <ele>553</ele>
        <time>2019-01-18T11:10:49.000Z</time>
      </trkpt>
      <trkpt lat="43.33651" lon="5.68882">
        <ele>554</ele>
        <time>2019-01-18T11:10:50.000Z</time>
      </trkpt>
      <trkpt lat="43.33651" lon="5.68882">
        <ele>554</ele>
        <time>2019-01-18T11:10:51.000Z</time>
      </trkpt>
      <trkpt lat="43.33651" lon="5.68881">
        <ele>554</ele>
        <time>2019-01-18T11:10:52.000Z</time>
      </trkpt>
      <trkpt lat="43.33651" lon="5.68881">
        <ele>554</ele>
        <time>2019-01-18T11:10:53.000Z</time>
      </trkpt>
      <trkpt lat="43.33652" lon="5.68881">
        <ele>554</ele>
        <time>2019-01-18T11:10:54.000Z</time>
      </trkpt>
      <trkpt lat="43.33652" lon="5.68881">
        <ele>554</ele>
        <time>2019-01-18T11:10:55.000Z</time>
      </trkpt>
      <trkpt lat="43.33652" lon="5.68881">
        <ele>555</ele>
        <time>2019-01-18T11:10:56.000Z</time>
      </trkpt>
      <trkpt lat="43.33651" lon="5.68881">
        <ele>555</ele>
        <time>2019-01-18T11:10:57.000Z</time>
      </trkpt>
      <trkpt lat="43.33651" lon="5.6888">
        <ele>555</ele>
        <time>2019-01-18T11:10:58.000Z</time>
      </trkpt>
      <trkpt lat="43.33651" lon="5.6888">
        <ele>555</ele>
        <time>2019-01-18T11:10:59.000Z</time>
      </trkpt>
      <trkpt lat="43.33651" lon="5.6888">
        <ele>555</ele>
        <time>2019-01-18T11:11:00.000Z</time>
      </trkpt>
      <trkpt lat="43.33651" lon="5.6888">
        <ele>555</ele>
        <time>2019-01-18T11:11:01.000Z</time>
      </trkpt>
      <trkpt lat="43.33651" lon="5.68881">
        <ele>555</ele>
        <time>2019-01-18T11:11:02.000Z</time>
      </trkpt>
      <trkpt lat="43.33651" lon="5.68881">
        <ele>555</ele>
        <time>2019-01-18T11:11:03.000Z</time>
      </trkpt>
      <trkpt lat="43.33651" lon="5.68881">
        <ele>555</ele>
        <time>2019-01-18T11:11:04.000Z</time>
      </trkpt>
      <trkpt lat="43.33651" lon="5.6888">
        <ele>555</ele>
        <time>2019-01-18T11:11:05.000Z</time>
      </trkpt>
      <trkpt lat="43.33651" lon="5.6888">
        <ele>555</ele>
        <time>2019-01-18T11:11:06.000Z</time>
      </trkpt>
      <trkpt lat="43.33651" lon="5.68881">
        <ele>555</ele>
        <time>2019-01-18T11:11:07.000Z</time>
      </trkpt>
      <trkpt lat="43.33652" lon="5.68881">
        <ele>556</ele>
        <time>2019-01-18T11:11:08.000Z</time>
      </trkpt>
      <trkpt lat="43.33652" lon="5.68881">
        <ele>556</ele>
        <time>2019-01-18T11:11:09.000Z</time>
      </trkpt>
      <trkpt lat="43.33653" lon="5.68881">
        <ele>556</ele>
        <time>2019-01-18T11:11:10.000Z</time>
      </trkpt>
      <trkpt lat="43.33653" lon="5.68881">
        <ele>556</ele>
        <time>2019-01-18T11:11:11.000Z</time>
      </trkpt>
      <trkpt lat="43.33653" lon="5.68881">
        <ele>556</ele>
        <time>2019-01-18T11:11:12.000Z</time>
      </trkpt>
      <trkpt lat="43.33653" lon="5.68881">
        <ele>556</ele>
        <time>2019-01-18T11:11:13.000Z</time>
      </trkpt>
      <trkpt lat="43.33653" lon="5.68881">
        <ele>556</ele>
        <time>2019-01-18T11:11:14.000Z</time>
      </trkpt>
      <trkpt lat="43.33653" lon="5.68881">
        <ele>556</ele>
        <time>2019-01-18T11:11:15.000Z</time>
      </trkpt>
      <trkpt lat="43.33653" lon="5.68882">
        <ele>556</ele>
        <time>2019-01-18T11:11:16.000Z</time>
      </trkpt>
      <trkpt lat="43.33653" lon="5.68883">
        <ele>556</ele>
        <time>2019-01-18T11:11:17.000Z</time>
      </trkpt>
      <trkpt lat="43.33653" lon="5.68883">
        <ele>556</ele>
        <time>2019-01-18T11:11:18.000Z</time>
      </trkpt>
      <trkpt lat="43.33653" lon="5.68883">
        <ele>556</ele>
        <time>2019-01-18T11:11:19.000Z</time>
      </trkpt>
      <trkpt lat="43.33654" lon="5.68882">
        <ele>556</ele>
        <time>2019-01-18T11:11:20.000Z</time>
      </trkpt>
      <trkpt lat="43.33654" lon="5.68883">
        <ele>556</ele>
        <time>2019-01-18T11:11:21.000Z</time>
      </trkpt>
      <trkpt lat="43.33654" lon="5.68884">
        <ele>556</ele>
        <time>2019-01-18T11:11:22.000Z</time>
      </trkpt>
      <trkpt lat="43.33654" lon="5.68884">
        <ele>556</ele>
        <time>2019-01-18T11:11:23.000Z</time>
      </trkpt>
      <trkpt lat="43.33654" lon="5.68885">
        <ele>556</ele>
        <time>2019-01-18T11:11:24.000Z</time>
      </trkpt>
      <trkpt lat="43.33654" lon="5.68885">
        <ele>557</ele>
        <time>2019-01-18T11:11:25.000Z</time>
      </trkpt>
      <trkpt lat="43.33654" lon="5.68886">
        <ele>557</ele>
        <time>2019-01-18T11:11:26.000Z</time>
      </trkpt>
      <trkpt lat="43.33654" lon="5.68886">
        <ele>557</ele>
        <time>2019-01-18T11:11:27.000Z</time>
      </trkpt>
      <trkpt lat="43.33654" lon="5.68886">
        <ele>557</ele>
        <time>2019-01-18T11:11:28.000Z</time>
      </trkpt>
      <trkpt lat="43.33654" lon="5.68887">
        <ele>557</ele>
        <time>2019-01-18T11:11:29.000Z</time>
      </trkpt>
      <trkpt lat="43.33655" lon="5.68887">
        <ele>557</ele>
        <time>2019-01-18T11:11:30.000Z</time>
      </trkpt>
      <trkpt lat="43.33655" lon="5.68888">
        <ele>557</ele>
        <time>2019-01-18T11:11:31.000Z</time>
      </trkpt>
      <trkpt lat="43.33655" lon="5.68889">
        <ele>557</ele>
        <time>2019-01-18T11:11:32.000Z</time>
      </trkpt>
      <trkpt lat="43.33655" lon="5.68889">
        <ele>557</ele>
        <time>2019-01-18T11:11:33.000Z</time>
      </trkpt>
      <trkpt lat="43.33655" lon="5.6889">
        <ele>557</ele>
        <time>2019-01-18T11:11:34.000Z</time>
      </trkpt>
      <trkpt lat="43.33655" lon="5.68891">
        <ele>557</ele>
        <time>2019-01-18T11:11:35.000Z</time>
      </trkpt>
      <trkpt lat="43.33655" lon="5.68892">
        <ele>557</ele>
        <time>2019-01-18T11:11:36.000Z</time>
      </trkpt>
      <trkpt lat="43.33655" lon="5.68892">
        <ele>557</ele>
        <time>2019-01-18T11:11:37.000Z</time>
      </trkpt>
      <trkpt lat="43.33654" lon="5.68893">
        <ele>557</ele>
        <time>2019-01-18T11:11:38.000Z</time>
      </trkpt>
      <trkpt lat="43.33653" lon="5.68893">
        <ele>557</ele>
        <time>2019-01-18T11:11:39.000Z</time>
      </trkpt>
      <trkpt lat="43.33653" lon="5.68894">
        <ele>557</ele>
        <time>2019-01-18T11:11:40.000Z</time>
      </trkpt>
      <trkpt lat="43.33653" lon="5.68894">
        <ele>557</ele>
        <time>2019-01-18T11:11:41.000Z</time>
      </trkpt>
      <trkpt lat="43.33652" lon="5.68895">
        <ele>557</ele>
        <time>2019-01-18T11:11:42.000Z</time>
      </trkpt>
      <trkpt lat="43.33652" lon="5.68895">
        <ele>557</ele>
        <time>2019-01-18T11:11:43.000Z</time>
      </trkpt>
      <trkpt lat="43.33652" lon="5.68895">
        <ele>557</ele>
        <time>2019-01-18T11:11:44.000Z</time>
      </trkpt>
      <trkpt lat="43.33652" lon="5.68895">
        <ele>557</ele>
        <time>2019-01-18T11:11:45.000Z</time>
      </trkpt>
      <trkpt lat="43.33652" lon="5.68895">
        <ele>558</ele>
        <time>2019-01-18T11:11:46.000Z</time>
      </trkpt>
      <trkpt lat="43.33652" lon="5.68896">
        <ele>558</ele>
        <time>2019-01-18T11:11:47.000Z</time>
      </trkpt>
      <trkpt lat="43.33652" lon="5.68896">
        <ele>558</ele>
        <time>2019-01-18T11:11:48.000Z</time>
      </trkpt>
      <trkpt lat="43.33652" lon="5.68896">
        <ele>558</ele>
        <time>2019-01-18T11:11:49.000Z</time>
      </trkpt>
      <trkpt lat="43.33652" lon="5.68896">
        <ele>558</ele>
        <time>2019-01-18T11:11:50.000Z</time>
      </trkpt>
      <trkpt lat="43.33651" lon="5.68896">
        <ele>558</ele>
        <time>2019-01-18T11:11:51.000Z</time>
      </trkpt>
      <trkpt lat="43.33651" lon="5.68896">
        <ele>558</ele>
        <time>2019-01-18T11:11:52.000Z</time>
      </trkpt>
      <trkpt lat="43.33651" lon="5.68897">
        <ele>558</ele>
        <time>2019-01-18T11:11:53.000Z</time>
      </trkpt>
      <trkpt lat="43.3365" lon="5.68897">
        <ele>558</ele>
        <time>2019-01-18T11:11:54.000Z</time>
      </trkpt>
      <trkpt lat="43.3365" lon="5.68897">
        <ele>558</ele>
        <time>2019-01-18T11:11:55.000Z</time>
      </trkpt>
      <trkpt lat="43.3365" lon="5.68897">
        <ele>558</ele>
        <time>2019-01-18T11:11:56.000Z</time>
      </trkpt>
      <trkpt lat="43.3365" lon="5.68897">
        <ele>558</ele>
        <time>2019-01-18T11:11:57.000Z</time>
      </trkpt>
      <trkpt lat="43.3365" lon="5.68898">
        <ele>558</ele>
        <time>2019-01-18T11:11:58.000Z</time>
      </trkpt>
      <trkpt lat="43.3365" lon="5.68898">
        <ele>558</ele>
        <time>2019-01-18T11:11:59.000Z</time>
      </trkpt>
      <trkpt lat="43.3365" lon="5.68897">
        <ele>557</ele>
        <time>2019-01-18T11:12:00.000Z</time>
      </trkpt>
      <trkpt lat="43.3365" lon="5.68897">
        <ele>557</ele>
        <time>2019-01-18T11:12:01.000Z</time>
      </trkpt>
      <trkpt lat="43.33649" lon="5.68898">
        <ele>557</ele>
        <time>2019-01-18T11:12:02.000Z</time>
      </trkpt>
      <trkpt lat="43.33649" lon="5.68898">
        <ele>557</ele>
        <time>2019-01-18T11:12:03.000Z</time>
      </trkpt>
      <trkpt lat="43.33649" lon="5.68898">
        <ele>557</ele>
        <time>2019-01-18T11:12:04.000Z</time>
      </trkpt>
      <trkpt lat="43.33649" lon="5.68897">
        <ele>557</ele>
        <time>2019-01-18T11:12:05.000Z</time>
      </trkpt>
      <trkpt lat="43.33649" lon="5.68897">
        <ele>557</ele>
        <time>2019-01-18T11:12:06.000Z</time>
      </trkpt>
      <trkpt lat="43.33649" lon="5.68898">
        <ele>557</ele>
        <time>2019-01-18T11:12:07.000Z</time>
      </trkpt>
      <trkpt lat="43.33649" lon="5.68898">
        <ele>557</ele>
        <time>2019-01-18T11:12:08.000Z</time>
      </trkpt>
      <trkpt lat="43.3365" lon="5.68899">
        <ele>557</ele>
        <time>2019-01-18T11:12:09.000Z</time>
      </trkpt>
      <trkpt lat="43.3365" lon="5.689">
        <ele>557</ele>
        <time>2019-01-18T11:12:10.000Z</time>
      </trkpt>
      <trkpt lat="43.3365" lon="5.68901">
        <ele>557</ele>
        <time>2019-01-18T11:12:11.000Z</time>
      </trkpt>
      <trkpt lat="43.3365" lon="5.68902">
        <ele>556</ele>
        <time>2019-01-18T11:12:12.000Z</time>
      </trkpt>
      <trkpt lat="43.3365" lon="5.68903">
        <ele>556</ele>
        <time>2019-01-18T11:12:13.000Z</time>
      </trkpt>
      <trkpt lat="43.3365" lon="5.68903">
        <ele>556</ele>
        <time>2019-01-18T11:12:14.000Z</time>
      </trkpt>
      <trkpt lat="43.3365" lon="5.68904">
        <ele>556</ele>
        <time>2019-01-18T11:12:15.000Z</time>
      </trkpt>
      <trkpt lat="43.3365" lon="5.68904">
        <ele>556</ele>
        <time>2019-01-18T11:12:16.000Z</time>
      </trkpt>
      <trkpt lat="43.3365" lon="5.68904">
        <ele>556</ele>
        <time>2019-01-18T11:12:17.000Z</time>
      </trkpt>
      <trkpt lat="43.3365" lon="5.68904">
        <ele>556</ele>
        <time>2019-01-18T11:12:18.000Z</time>
      </trkpt>
      <trkpt lat="43.3365" lon="5.68904">
        <ele>556</ele>
        <time>2019-01-18T11:12:19.000Z</time>
      </trkpt>
      <trkpt lat="43.3365" lon="5.68904">
        <ele>556</ele>
        <time>2019-01-18T11:12:20.000Z</time>
      </trkpt>
      <trkpt lat="43.3365" lon="5.68905">
        <ele>556</ele>
        <time>2019-01-18T11:12:21.000Z</time>
      </trkpt>
      <trkpt lat="43.3365" lon="5.68905">
        <ele>556</ele>
        <time>2019-01-18T11:12:22.000Z</time>
      </trkpt>
      <trkpt lat="43.3365" lon="5.68906">
        <ele>556</ele>
        <time>2019-01-18T11:12:23.000Z</time>
      </trkpt>
      <trkpt lat="43.3365" lon="5.68906">
        <ele>556</ele>
        <time>2019-01-18T11:12:24.000Z</time>
      </trkpt>
      <trkpt lat="43.33649" lon="5.68906">
        <ele>556</ele>
        <time>2019-01-18T11:12:25.000Z</time>
      </trkpt>
      <trkpt lat="43.33649" lon="5.68906">
        <ele>556</ele>
        <time>2019-01-18T11:12:26.000Z</time>
      </trkpt>
      <trkpt lat="43.33648" lon="5.68906">
        <ele>556</ele>
        <time>2019-01-18T11:12:27.000Z</time>
      </trkpt>
      <trkpt lat="43.33648" lon="5.68906">
        <ele>556</ele>
        <time>2019-01-18T11:12:28.000Z</time>
      </trkpt>
      <trkpt lat="43.33648" lon="5.68907">
        <ele>556</ele>
        <time>2019-01-18T11:12:29.000Z</time>
      </trkpt>
      <trkpt lat="43.33648" lon="5.68907">
        <ele>556</ele>
        <time>2019-01-18T11:12:30.000Z</time>
      </trkpt>
      <trkpt lat="43.33648" lon="5.68907">
        <ele>556</ele>
        <time>2019-01-18T11:12:31.000Z</time>
      </trkpt>
      <trkpt lat="43.33648" lon="5.68908">
        <ele>556</ele>
        <time>2019-01-18T11:12:32.000Z</time>
      </trkpt>
      <trkpt lat="43.33648" lon="5.68908">
        <ele>556</ele>
        <time>2019-01-18T11:12:33.000Z</time>
      </trkpt>
      <trkpt lat="43.33648" lon="5.68908">
        <ele>557</ele>
        <time>2019-01-18T11:12:34.000Z</time>
      </trkpt>
      <trkpt lat="43.33647" lon="5.68909">
        <ele>557</ele>
        <time>2019-01-18T11:12:35.000Z</time>
      </trkpt>
      <trkpt lat="43.33647" lon="5.68909">
        <ele>557</ele>
        <time>2019-01-18T11:12:36.000Z</time>
      </trkpt>
      <trkpt lat="43.33647" lon="5.68909">
        <ele>557</ele>
        <time>2019-01-18T11:12:37.000Z</time>
      </trkpt>
      <trkpt lat="43.33647" lon="5.68909">
        <ele>557</ele>
        <time>2019-01-18T11:12:38.000Z</time>
      </trkpt>
      <trkpt lat="43.33647" lon="5.68909">
        <ele>557</ele>
        <time>2019-01-18T11:12:39.000Z</time>
      </trkpt>
      <trkpt lat="43.33647" lon="5.68909">
        <ele>557</ele>
        <time>2019-01-18T11:12:40.000Z</time>
      </trkpt>
      <trkpt lat="43.33648" lon="5.68909">
        <ele>557</ele>
        <time>2019-01-18T11:12:41.000Z</time>
      </trkpt>
      <trkpt lat="43.33648" lon="5.68909">
        <ele>557</ele>
        <time>2019-01-18T11:12:42.000Z</time>
      </trkpt>
      <trkpt lat="43.33648" lon="5.68909">
        <ele>558</ele>
        <time>2019-01-18T11:12:43.000Z</time>
      </trkpt>
      <trkpt lat="43.33648" lon="5.68909">
        <ele>558</ele>
        <time>2019-01-18T11:12:44.000Z</time>
      </trkpt>
      <trkpt lat="43.33648" lon="5.68909">
        <ele>558</ele>
        <time>2019-01-18T11:12:45.000Z</time>
      </trkpt>
      <trkpt lat="43.33648" lon="5.68909">
        <ele>558</ele>
        <time>2019-01-18T11:12:46.000Z</time>
      </trkpt>
      <trkpt lat="43.33648" lon="5.68909">
        <ele>558</ele>
        <time>2019-01-18T11:12:47.000Z</time>
      </trkpt>
      <trkpt lat="43.33649" lon="5.68909">
        <ele>558</ele>
        <time>2019-01-18T11:12:48.000Z</time>
      </trkpt>
      <trkpt lat="43.33649" lon="5.68909">
        <ele>558</ele>
        <time>2019-01-18T11:12:49.000Z</time>
      </trkpt>
      <trkpt lat="43.33649" lon="5.68909">
        <ele>558</ele>
        <time>2019-01-18T11:12:50.000Z</time>
      </trkpt>
      <trkpt lat="43.33649" lon="5.68909">
        <ele>559</ele>
        <time>2019-01-18T11:12:51.000Z</time>
      </trkpt>
      <trkpt lat="43.33649" lon="5.68909">
        <ele>559</ele>
        <time>2019-01-18T11:12:52.000Z</time>
      </trkpt>
      <trkpt lat="43.33649" lon="5.68909">
        <ele>559</ele>
        <time>2019-01-18T11:12:53.000Z</time>
      </trkpt>
      <trkpt lat="43.33649" lon="5.68909">
        <ele>559</ele>
        <time>2019-01-18T11:12:54.000Z</time>
      </trkpt>
      <trkpt lat="43.33649" lon="5.68909">
        <ele>559</ele>
        <time>2019-01-18T11:12:55.000Z</time>
      </trkpt>
      <trkpt lat="43.3365" lon="5.68908">
        <ele>559</ele>
        <time>2019-01-18T11:12:56.000Z</time>
      </trkpt>
      <trkpt lat="43.3365" lon="5.68908">
        <ele>559</ele>
        <time>2019-01-18T11:12:57.000Z</time>
      </trkpt>
      <trkpt lat="43.3365" lon="5.68908">
        <ele>559</ele>
        <time>2019-01-18T11:12:58.000Z</time>
      </trkpt>
      <trkpt lat="43.3365" lon="5.68908">
        <ele>559</ele>
        <time>2019-01-18T11:12:59.000Z</time>
      </trkpt>
      <trkpt lat="43.3365" lon="5.68908">
        <ele>559</ele>
        <time>2019-01-18T11:13:00.000Z</time>
      </trkpt>
      <trkpt lat="43.3365" lon="5.68908">
        <ele>559</ele>
        <time>2019-01-18T11:13:01.000Z</time>
      </trkpt>
      <trkpt lat="43.33651" lon="5.68908">
        <ele>559</ele>
        <time>2019-01-18T11:13:02.000Z</time>
      </trkpt>
      <trkpt lat="43.33651" lon="5.68909">
        <ele>559</ele>
        <time>2019-01-18T11:13:03.000Z</time>
      </trkpt>
      <trkpt lat="43.33651" lon="5.68908">
        <ele>559</ele>
        <time>2019-01-18T11:13:04.000Z</time>
      </trkpt>
      <trkpt lat="43.33651" lon="5.68908">
        <ele>559</ele>
        <time>2019-01-18T11:13:05.000Z</time>
      </trkpt>
      <trkpt lat="43.33652" lon="5.68908">
        <ele>559</ele>
        <time>2019-01-18T11:13:06.000Z</time>
      </trkpt>
      <trkpt lat="43.33652" lon="5.68908">
        <ele>559</ele>
        <time>2019-01-18T11:13:07.000Z</time>
      </trkpt>
      <trkpt lat="43.33653" lon="5.68908">
        <ele>559</ele>
        <time>2019-01-18T11:13:08.000Z</time>
      </trkpt>
      <trkpt lat="43.33653" lon="5.68908">
        <ele>559</ele>
        <time>2019-01-18T11:13:09.000Z</time>
      </trkpt>
      <trkpt lat="43.33653" lon="5.68909">
        <ele>559</ele>
        <time>2019-01-18T11:13:10.000Z</time>
      </trkpt>
      <trkpt lat="43.33654" lon="5.68909">
        <ele>559</ele>
        <time>2019-01-18T11:13:11.000Z</time>
      </trkpt>
      <trkpt lat="43.33654" lon="5.68909">
        <ele>559</ele>
        <time>2019-01-18T11:13:12.000Z</time>
      </trkpt>
      <trkpt lat="43.33654" lon="5.6891">
        <ele>559</ele>
        <time>2019-01-18T11:13:13.000Z</time>
      </trkpt>
      <trkpt lat="43.33654" lon="5.6891">
        <ele>559</ele>
        <time>2019-01-18T11:13:14.000Z</time>
      </trkpt>
      <trkpt lat="43.33654" lon="5.68911">
        <ele>559</ele>
        <time>2019-01-18T11:13:15.000Z</time>
      </trkpt>
      <trkpt lat="43.33655" lon="5.68911">
        <ele>560</ele>
        <time>2019-01-18T11:13:16.000Z</time>
      </trkpt>
      <trkpt lat="43.33655" lon="5.68911">
        <ele>560</ele>
        <time>2019-01-18T11:13:17.000Z</time>
      </trkpt>
      <trkpt lat="43.33655" lon="5.68912">
        <ele>560</ele>
        <time>2019-01-18T11:13:18.000Z</time>
      </trkpt>
      <trkpt lat="43.33655" lon="5.68912">
        <ele>560</ele>
        <time>2019-01-18T11:13:19.000Z</time>
      </trkpt>
      <trkpt lat="43.33655" lon="5.68912">
        <ele>560</ele>
        <time>2019-01-18T11:13:20.000Z</time>
      </trkpt>
      <trkpt lat="43.33655" lon="5.68912">
        <ele>560</ele>
        <time>2019-01-18T11:13:21.000Z</time>
      </trkpt>
      <trkpt lat="43.33655" lon="5.68912">
        <ele>560</ele>
        <time>2019-01-18T11:13:22.000Z</time>
      </trkpt>
      <trkpt lat="43.33655" lon="5.68913">
        <ele>560</ele>
        <time>2019-01-18T11:13:23.000Z</time>
      </trkpt>
      <trkpt lat="43.33655" lon="5.68913">
        <ele>560</ele>
        <time>2019-01-18T11:13:24.000Z</time>
      </trkpt>
      <trkpt lat="43.33655" lon="5.68913">
        <ele>560</ele>
        <time>2019-01-18T11:13:25.000Z</time>
      </trkpt>
      <trkpt lat="43.33655" lon="5.68913">
        <ele>560</ele>
        <time>2019-01-18T11:13:26.000Z</time>
      </trkpt>
      <trkpt lat="43.33656" lon="5.68913">
        <ele>560</ele>
        <time>2019-01-18T11:13:27.000Z</time>
      </trkpt>
      <trkpt lat="43.33656" lon="5.68914">
        <ele>560</ele>
        <time>2019-01-18T11:13:28.000Z</time>
      </trkpt>
      <trkpt lat="43.33655" lon="5.68914">
        <ele>560</ele>
        <time>2019-01-18T11:13:29.000Z</time>
      </trkpt>
      <trkpt lat="43.33655" lon="5.68914">
        <ele>560</ele>
        <time>2019-01-18T11:13:30.000Z</time>
      </trkpt>
      <trkpt lat="43.33655" lon="5.68914">
        <ele>560</ele>
        <time>2019-01-18T11:13:31.000Z</time>
      </trkpt>
      <trkpt lat="43.33655" lon="5.68915">
        <ele>560</ele>
        <time>2019-01-18T11:13:32.000Z</time>
      </trkpt>
      <trkpt lat="43.33655" lon="5.68915">
        <ele>560</ele>
        <time>2019-01-18T11:13:33.000Z</time>
      </trkpt>
      <trkpt lat="43.33655" lon="5.68915">
        <ele>560</ele>
        <time>2019-01-18T11:13:34.000Z</time>
      </trkpt>
      <trkpt lat="43.33655" lon="5.68915">
        <ele>560</ele>
        <time>2019-01-18T11:13:35.000Z</time>
      </trkpt>
      <trkpt lat="43.33656" lon="5.68915">
        <ele>560</ele>
        <time>2019-01-18T11:13:36.000Z</time>
      </trkpt>
      <trkpt lat="43.33656" lon="5.68916">
        <ele>560</ele>
        <time>2019-01-18T11:13:37.000Z</time>
      </trkpt>
      <trkpt lat="43.33656" lon="5.68917">
        <ele>560</ele>
        <time>2019-01-18T11:13:38.000Z</time>
      </trkpt>
      <trkpt lat="43.33656" lon="5.68917">
        <ele>560</ele>
        <time>2019-01-18T11:13:39.000Z</time>
      </trkpt>
      <trkpt lat="43.33656" lon="5.68918">
        <ele>561</ele>
        <time>2019-01-18T11:13:40.000Z</time>
      </trkpt>
      <trkpt lat="43.33656" lon="5.68918">
        <ele>561</ele>
        <time>2019-01-18T11:13:41.000Z</time>
      </trkpt>
      <trkpt lat="43.33656" lon="5.68918">
        <ele>561</ele>
        <time>2019-01-18T11:13:42.000Z</time>
      </trkpt>
      <trkpt lat="43.33656" lon="5.68918">
        <ele>561</ele>
        <time>2019-01-18T11:13:43.000Z</time>
      </trkpt>
      <trkpt lat="43.33656" lon="5.68918">
        <ele>561</ele>
        <time>2019-01-18T11:13:44.000Z</time>
      </trkpt>
      <trkpt lat="43.33656" lon="5.68918">
        <ele>561</ele>
        <time>2019-01-18T11:13:45.000Z</time>
      </trkpt>
      <trkpt lat="43.33657" lon="5.68918">
        <ele>561</ele>
        <time>2019-01-18T11:13:46.000Z</time>
      </trkpt>
      <trkpt lat="43.33657" lon="5.68918">
        <ele>561</ele>
        <time>2019-01-18T11:13:47.000Z</time>
      </trkpt>
      <trkpt lat="43.33657" lon="5.68918">
        <ele>561</ele>
        <time>2019-01-18T11:13:48.000Z</time>
      </trkpt>
      <trkpt lat="43.33657" lon="5.68918">
        <ele>561</ele>
        <time>2019-01-18T11:13:49.000Z</time>
      </trkpt>
      <trkpt lat="43.33657" lon="5.68918">
        <ele>562</ele>
        <time>2019-01-18T11:13:50.000Z</time>
      </trkpt>
      <trkpt lat="43.33658" lon="5.68918">
        <ele>562</ele>
        <time>2019-01-18T11:13:51.000Z</time>
      </trkpt>
      <trkpt lat="43.33658" lon="5.68918">
        <ele>562</ele>
        <time>2019-01-18T11:13:52.000Z</time>
      </trkpt>
      <trkpt lat="43.33658" lon="5.68918">
        <ele>562</ele>
        <time>2019-01-18T11:13:53.000Z</time>
      </trkpt>
      <trkpt lat="43.33658" lon="5.68918">
        <ele>562</ele>
        <time>2019-01-18T11:13:54.000Z</time>
      </trkpt>
      <trkpt lat="43.33659" lon="5.68918">
        <ele>562</ele>
        <time>2019-01-18T11:13:55.000Z</time>
      </trkpt>
      <trkpt lat="43.33659" lon="5.68919">
        <ele>562</ele>
        <time>2019-01-18T11:13:56.000Z</time>
      </trkpt>
      <trkpt lat="43.33659" lon="5.68919">
        <ele>562</ele>
        <time>2019-01-18T11:13:57.000Z</time>
      </trkpt>
      <trkpt lat="43.33659" lon="5.68919">
        <ele>563</ele>
        <time>2019-01-18T11:13:58.000Z</time>
      </trkpt>
      <trkpt lat="43.33659" lon="5.68919">
        <ele>563</ele>
        <time>2019-01-18T11:13:59.000Z</time>
      </trkpt>
      <trkpt lat="43.33659" lon="5.68919">
        <ele>563</ele>
        <time>2019-01-18T11:14:00.000Z</time>
      </trkpt>
      <trkpt lat="43.33659" lon="5.68919">
        <ele>563</ele>
        <time>2019-01-18T11:14:01.000Z</time>
      </trkpt>
      <trkpt lat="43.3366" lon="5.68919">
        <ele>563</ele>
        <time>2019-01-18T11:14:02.000Z</time>
      </trkpt>
      <trkpt lat="43.3366" lon="5.68919">
        <ele>563</ele>
        <time>2019-01-18T11:14:03.000Z</time>
      </trkpt>
      <trkpt lat="43.3366" lon="5.68919">
        <ele>563</ele>
        <time>2019-01-18T11:14:04.000Z</time>
      </trkpt>
      <trkpt lat="43.3366" lon="5.68919">
        <ele>563</ele>
        <time>2019-01-18T11:14:05.000Z</time>
      </trkpt>
      <trkpt lat="43.3366" lon="5.68919">
        <ele>563</ele>
        <time>2019-01-18T11:14:06.000Z</time>
      </trkpt>
      <trkpt lat="43.3366" lon="5.68919">
        <ele>563</ele>
        <time>2019-01-18T11:14:07.000Z</time>
      </trkpt>
      <trkpt lat="43.3366" lon="5.68919">
        <ele>563</ele>
        <time>2019-01-18T11:14:08.000Z</time>
      </trkpt>
      <trkpt lat="43.3366" lon="5.6892">
        <ele>563</ele>
        <time>2019-01-18T11:14:09.000Z</time>
      </trkpt>
      <trkpt lat="43.3366" lon="5.6892">
        <ele>564</ele>
        <time>2019-01-18T11:14:10.000Z</time>
      </trkpt>
      <trkpt lat="43.3366" lon="5.6892">
        <ele>564</ele>
        <time>2019-01-18T11:14:11.000Z</time>
      </trkpt>
      <trkpt lat="43.33661" lon="5.6892">
        <ele>564</ele>
        <time>2019-01-18T11:14:12.000Z</time>
      </trkpt>
      <trkpt lat="43.33661" lon="5.6892">
        <ele>564</ele>
        <time>2019-01-18T11:14:13.000Z</time>
      </trkpt>
      <trkpt lat="43.33661" lon="5.6892">
        <ele>564</ele>
        <time>2019-01-18T11:14:14.000Z</time>
      </trkpt>
      <trkpt lat="43.33662" lon="5.6892">
        <ele>564</ele>
        <time>2019-01-18T11:14:15.000Z</time>
      </trkpt>
      <trkpt lat="43.33662" lon="5.6892">
        <ele>564</ele>
        <time>2019-01-18T11:14:16.000Z</time>
      </trkpt>
      <trkpt lat="43.33662" lon="5.6892">
        <ele>564</ele>
        <time>2019-01-18T11:14:17.000Z</time>
      </trkpt>
      <trkpt lat="43.33662" lon="5.6892">
        <ele>564</ele>
        <time>2019-01-18T11:14:18.000Z</time>
      </trkpt>
      <trkpt lat="43.33662" lon="5.6892">
        <ele>564</ele>
        <time>2019-01-18T11:14:19.000Z</time>
      </trkpt>
      <trkpt lat="43.33662" lon="5.6892">
        <ele>564</ele>
        <time>2019-01-18T11:14:20.000Z</time>
      </trkpt>
      <trkpt lat="43.33662" lon="5.6892">
        <ele>564</ele>
        <time>2019-01-18T11:14:21.000Z</time>
      </trkpt>
      <trkpt lat="43.33663" lon="5.68921">
        <ele>564</ele>
        <time>2019-01-18T11:14:22.000Z</time>
      </trkpt>
      <trkpt lat="43.33663" lon="5.68921">
        <ele>564</ele>
        <time>2019-01-18T11:14:23.000Z</time>
      </trkpt>
      <trkpt lat="43.33663" lon="5.68921">
        <ele>564</ele>
        <time>2019-01-18T11:14:24.000Z</time>
      </trkpt>
      <trkpt lat="43.33664" lon="5.68921">
        <ele>564</ele>
        <time>2019-01-18T11:14:25.000Z</time>
      </trkpt>
      <trkpt lat="43.33664" lon="5.68922">
        <ele>564</ele>
        <time>2019-01-18T11:14:26.000Z</time>
      </trkpt>
      <trkpt lat="43.33664" lon="5.68922">
        <ele>564</ele>
        <time>2019-01-18T11:14:27.000Z</time>
      </trkpt>
      <trkpt lat="43.33664" lon="5.68922">
        <ele>564</ele>
        <time>2019-01-18T11:14:28.000Z</time>
      </trkpt>
      <trkpt lat="43.33664" lon="5.68922">
        <ele>564</ele>
        <time>2019-01-18T11:14:29.000Z</time>
      </trkpt>
      <trkpt lat="43.33664" lon="5.68922">
        <ele>564</ele>
        <time>2019-01-18T11:14:30.000Z</time>
      </trkpt>
      <trkpt lat="43.33665" lon="5.68922">
        <ele>564</ele>
        <time>2019-01-18T11:14:31.000Z</time>
      </trkpt>
      <trkpt lat="43.33665" lon="5.68922">
        <ele>564</ele>
        <time>2019-01-18T11:14:32.000Z</time>
      </trkpt>
      <trkpt lat="43.33665" lon="5.68922">
        <ele>564</ele>
        <time>2019-01-18T11:14:33.000Z</time>
      </trkpt>
      <trkpt lat="43.33665" lon="5.68922">
        <ele>564</ele>
        <time>2019-01-18T11:14:34.000Z</time>
      </trkpt>
      <trkpt lat="43.33665" lon="5.68922">
        <ele>564</ele>
        <time>2019-01-18T11:14:35.000Z</time>
      </trkpt>
      <trkpt lat="43.33665" lon="5.68921">
        <ele>564</ele>
        <time>2019-01-18T11:14:36.000Z</time>
      </trkpt>
      <trkpt lat="43.33665" lon="5.68921">
        <ele>564</ele>
        <time>2019-01-18T11:14:37.000Z</time>
      </trkpt>
      <trkpt lat="43.33665" lon="5.68921">
        <ele>564</ele>
        <time>2019-01-18T11:14:38.000Z</time>
      </trkpt>
      <trkpt lat="43.33665" lon="5.68921">
        <ele>564</ele>
        <time>2019-01-18T11:14:39.000Z</time>
      </trkpt>
      <trkpt lat="43.33666" lon="5.68921">
        <ele>564</ele>
        <time>2019-01-18T11:14:40.000Z</time>
      </trkpt>
      <trkpt lat="43.33666" lon="5.68921">
        <ele>564</ele>
        <time>2019-01-18T11:14:41.000Z</time>
      </trkpt>
      <trkpt lat="43.33666" lon="5.68921">
        <ele>564</ele>
        <time>2019-01-18T11:14:42.000Z</time>
      </trkpt>
      <trkpt lat="43.33666" lon="5.68921">
        <ele>564</ele>
        <time>2019-01-18T11:14:43.000Z</time>
      </trkpt>
      <trkpt lat="43.33666" lon="5.68921">
        <ele>564</ele>
        <time>2019-01-18T11:14:44.000Z</time>
      </trkpt>
      <trkpt lat="43.33666" lon="5.68921">
        <ele>564</ele>
        <time>2019-01-18T11:14:45.000Z</time>
      </trkpt>
      <trkpt lat="43.33666" lon="5.68921">
        <ele>564</ele>
        <time>2019-01-18T11:14:46.000Z</time>
      </trkpt>
      <trkpt lat="43.33666" lon="5.68921">
        <ele>564</ele>
        <time>2019-01-18T11:14:47.000Z</time>
      </trkpt>
      <trkpt lat="43.33666" lon="5.68921">
        <ele>564</ele>
        <time>2019-01-18T11:14:48.000Z</time>
      </trkpt>
      <trkpt lat="43.33666" lon="5.68921">
        <ele>564</ele>
        <time>2019-01-18T11:14:49.000Z</time>
      </trkpt>
      <trkpt lat="43.33666" lon="5.68921">
        <ele>564</ele>
        <time>2019-01-18T11:14:50.000Z</time>
      </trkpt>
      <trkpt lat="43.33666" lon="5.68921">
        <ele>564</ele>
        <time>2019-01-18T11:14:51.000Z</time>
      </trkpt>
      <trkpt lat="43.33666" lon="5.68921">
        <ele>564</ele>
        <time>2019-01-18T11:14:52.000Z</time>
      </trkpt>
      <trkpt lat="43.33666" lon="5.68921">
        <ele>564</ele>
        <time>2019-01-18T11:14:53.000Z</time>
      </trkpt>
      <trkpt lat="43.33667" lon="5.68921">
        <ele>564</ele>
        <time>2019-01-18T11:14:54.000Z</time>
      </trkpt>
      <trkpt lat="43.33667" lon="5.68922">
        <ele>564</ele>
        <time>2019-01-18T11:14:55.000Z</time>
      </trkpt>
      <trkpt lat="43.33667" lon="5.68922">
        <ele>565</ele>
        <time>2019-01-18T11:14:56.000Z</time>
      </trkpt>
      <trkpt lat="43.33667" lon="5.68922">
        <ele>565</ele>
        <time>2019-01-18T11:14:57.000Z</time>
      </trkpt>
      <trkpt lat="43.33667" lon="5.68922">
        <ele>565</ele>
        <time>2019-01-18T11:14:58.000Z</time>
      </trkpt>
      <trkpt lat="43.33667" lon="5.68922">
        <ele>565</ele>
        <time>2019-01-18T11:14:59.000Z</time>
      </trkpt>
      <trkpt lat="43.33667" lon="5.68922">
        <ele>565</ele>
        <time>2019-01-18T11:15:00.000Z</time>
      </trkpt>
      <trkpt lat="43.33667" lon="5.68922">
        <ele>565</ele>
        <time>2019-01-18T11:15:01.000Z</time>
      </trkpt>
      <trkpt lat="43.33668" lon="5.68922">
        <ele>566</ele>
        <time>2019-01-18T11:15:02.000Z</time>
      </trkpt>
      <trkpt lat="43.33668" lon="5.68922">
        <ele>566</ele>
        <time>2019-01-18T11:15:03.000Z</time>
      </trkpt>
      <trkpt lat="43.33668" lon="5.68922">
        <ele>566</ele>
        <time>2019-01-18T11:15:04.000Z</time>
      </trkpt>
      <trkpt lat="43.33668" lon="5.68922">
        <ele>566</ele>
        <time>2019-01-18T11:15:05.000Z</time>
      </trkpt>
      <trkpt lat="43.33669" lon="5.68922">
        <ele>566</ele>
        <time>2019-01-18T11:15:06.000Z</time>
      </trkpt>
      <trkpt lat="43.33669" lon="5.68922">
        <ele>566</ele>
        <time>2019-01-18T11:15:07.000Z</time>
      </trkpt>
      <trkpt lat="43.33669" lon="5.68922">
        <ele>566</ele>
        <time>2019-01-18T11:15:08.000Z</time>
      </trkpt>
      <trkpt lat="43.3367" lon="5.68922">
        <ele>567</ele>
        <time>2019-01-18T11:15:09.000Z</time>
      </trkpt>
      <trkpt lat="43.3367" lon="5.68922">
        <ele>567</ele>
        <time>2019-01-18T11:15:10.000Z</time>
      </trkpt>
      <trkpt lat="43.33669" lon="5.68923">
        <ele>567</ele>
        <time>2019-01-18T11:15:11.000Z</time>
      </trkpt>
      <trkpt lat="43.33669" lon="5.68924">
        <ele>567</ele>
        <time>2019-01-18T11:15:12.000Z</time>
      </trkpt>
      <trkpt lat="43.33669" lon="5.68924">
        <ele>567</ele>
        <time>2019-01-18T11:15:13.000Z</time>
      </trkpt>
      <trkpt lat="43.33669" lon="5.68925">
        <ele>567</ele>
        <time>2019-01-18T11:15:14.000Z</time>
      </trkpt>
      <trkpt lat="43.33669" lon="5.68925">
        <ele>568</ele>
        <time>2019-01-18T11:15:15.000Z</time>
      </trkpt>
      <trkpt lat="43.33669" lon="5.68925">
        <ele>568</ele>
        <time>2019-01-18T11:15:16.000Z</time>
      </trkpt>
      <trkpt lat="43.33669" lon="5.68926">
        <ele>568</ele>
        <time>2019-01-18T11:15:17.000Z</time>
      </trkpt>
      <trkpt lat="43.33669" lon="5.68926">
        <ele>568</ele>
        <time>2019-01-18T11:15:18.000Z</time>
      </trkpt>
      <trkpt lat="43.33669" lon="5.68926">
        <ele>568</ele>
        <time>2019-01-18T11:15:19.000Z</time>
      </trkpt>
      <trkpt lat="43.33669" lon="5.68926">
        <ele>568</ele>
        <time>2019-01-18T11:15:20.000Z</time>
      </trkpt>
      <trkpt lat="43.33669" lon="5.68926">
        <ele>569</ele>
        <time>2019-01-18T11:15:21.000Z</time>
      </trkpt>
      <trkpt lat="43.33669" lon="5.68926">
        <ele>569</ele>
        <time>2019-01-18T11:15:22.000Z</time>
      </trkpt>
      <trkpt lat="43.33669" lon="5.68927">
        <ele>569</ele>
        <time>2019-01-18T11:15:23.000Z</time>
      </trkpt>
      <trkpt lat="43.3367" lon="5.68927">
        <ele>569</ele>
        <time>2019-01-18T11:15:24.000Z</time>
      </trkpt>
      <trkpt lat="43.3367" lon="5.68927">
        <ele>569</ele>
        <time>2019-01-18T11:15:25.000Z</time>
      </trkpt>
      <trkpt lat="43.3367" lon="5.68927">
        <ele>569</ele>
        <time>2019-01-18T11:15:26.000Z</time>
      </trkpt>
      <trkpt lat="43.3367" lon="5.68927">
        <ele>569</ele>
        <time>2019-01-18T11:15:27.000Z</time>
      </trkpt>
      <trkpt lat="43.3367" lon="5.68927">
        <ele>570</ele>
        <time>2019-01-18T11:15:28.000Z</time>
      </trkpt>
      <trkpt lat="43.33671" lon="5.68928">
        <ele>570</ele>
        <time>2019-01-18T11:15:29.000Z</time>
      </trkpt>
      <trkpt lat="43.33671" lon="5.68928">
        <ele>570</ele>
        <time>2019-01-18T11:15:30.000Z</time>
      </trkpt>
      <trkpt lat="43.33671" lon="5.68928">
        <ele>570</ele>
        <time>2019-01-18T11:15:31.000Z</time>
      </trkpt>
      <trkpt lat="43.33671" lon="5.68928">
        <ele>570</ele>
        <time>2019-01-18T11:15:32.000Z</time>
      </trkpt>
      <trkpt lat="43.33671" lon="5.68928">
        <ele>571</ele>
        <time>2019-01-18T11:15:33.000Z</time>
      </trkpt>
      <trkpt lat="43.33671" lon="5.68929">
        <ele>571</ele>
        <time>2019-01-18T11:15:34.000Z</time>
      </trkpt>
      <trkpt lat="43.33671" lon="5.68929">
        <ele>571</ele>
        <time>2019-01-18T11:15:35.000Z</time>
      </trkpt>
      <trkpt lat="43.33672" lon="5.68929">
        <ele>571</ele>
        <time>2019-01-18T11:15:36.000Z</time>
      </trkpt>
      <trkpt lat="43.33672" lon="5.68929">
        <ele>572</ele>
        <time>2019-01-18T11:15:37.000Z</time>
      </trkpt>
      <trkpt lat="43.33672" lon="5.68928">
        <ele>572</ele>
        <time>2019-01-18T11:15:38.000Z</time>
      </trkpt>
      <trkpt lat="43.33672" lon="5.68928">
        <ele>572</ele>
        <time>2019-01-18T11:15:39.000Z</time>
      </trkpt>
      <trkpt lat="43.33672" lon="5.68928">
        <ele>572</ele>
        <time>2019-01-18T11:15:40.000Z</time>
      </trkpt>
      <trkpt lat="43.33672" lon="5.68928">
        <ele>572</ele>
        <time>2019-01-18T11:15:41.000Z</time>
      </trkpt>
      <trkpt lat="43.33672" lon="5.68928">
        <ele>572</ele>
        <time>2019-01-18T11:15:42.000Z</time>
      </trkpt>
      <trkpt lat="43.33672" lon="5.68929">
        <ele>572</ele>
        <time>2019-01-18T11:15:43.000Z</time>
      </trkpt>
      <trkpt lat="43.33673" lon="5.68929">
        <ele>573</ele>
        <time>2019-01-18T11:15:44.000Z</time>
      </trkpt>
      <trkpt lat="43.33673" lon="5.68929">
        <ele>573</ele>
        <time>2019-01-18T11:15:45.000Z</time>
      </trkpt>
      <trkpt lat="43.33673" lon="5.68929">
        <ele>573</ele>
        <time>2019-01-18T11:15:46.000Z</time>
      </trkpt>
      <trkpt lat="43.33673" lon="5.6893">
        <ele>573</ele>
        <time>2019-01-18T11:15:47.000Z</time>
      </trkpt>
      <trkpt lat="43.33673" lon="5.6893">
        <ele>573</ele>
        <time>2019-01-18T11:15:48.000Z</time>
      </trkpt>
      <trkpt lat="43.33673" lon="5.6893">
        <ele>574</ele>
        <time>2019-01-18T11:15:49.000Z</time>
      </trkpt>
      <trkpt lat="43.33673" lon="5.6893">
        <ele>574</ele>
        <time>2019-01-18T11:15:50.000Z</time>
      </trkpt>
      <trkpt lat="43.33673" lon="5.6893">
        <ele>574</ele>
        <time>2019-01-18T11:15:51.000Z</time>
      </trkpt>
      <trkpt lat="43.33674" lon="5.68931">
        <ele>574</ele>
        <time>2019-01-18T11:15:52.000Z</time>
      </trkpt>
      <trkpt lat="43.33674" lon="5.68931">
        <ele>574</ele>
        <time>2019-01-18T11:15:53.000Z</time>
      </trkpt>
      <trkpt lat="43.33674" lon="5.68931">
        <ele>574</ele>
        <time>2019-01-18T11:15:54.000Z</time>
      </trkpt>
      <trkpt lat="43.33674" lon="5.68931">
        <ele>574</ele>
        <time>2019-01-18T11:15:55.000Z</time>
      </trkpt>
      <trkpt lat="43.33674" lon="5.6893">
        <ele>575</ele>
        <time>2019-01-18T11:15:56.000Z</time>
      </trkpt>
      <trkpt lat="43.33674" lon="5.6893">
        <ele>575</ele>
        <time>2019-01-18T11:15:57.000Z</time>
      </trkpt>
      <trkpt lat="43.33674" lon="5.6893">
        <ele>575</ele>
        <time>2019-01-18T11:15:58.000Z</time>
      </trkpt>
      <trkpt lat="43.33674" lon="5.6893">
        <ele>575</ele>
        <time>2019-01-18T11:15:59.000Z</time>
      </trkpt>
      <trkpt lat="43.33674" lon="5.6893">
        <ele>575</ele>
        <time>2019-01-18T11:16:00.000Z</time>
      </trkpt>
      <trkpt lat="43.33674" lon="5.6893">
        <ele>575</ele>
        <time>2019-01-18T11:16:01.000Z</time>
      </trkpt>
      <trkpt lat="43.33674" lon="5.6893">
        <ele>575</ele>
        <time>2019-01-18T11:16:02.000Z</time>
      </trkpt>
      <trkpt lat="43.33674" lon="5.6893">
        <ele>575</ele>
        <time>2019-01-18T11:16:03.000Z</time>
      </trkpt>
      <trkpt lat="43.33674" lon="5.6893">
        <ele>575</ele>
        <time>2019-01-18T11:16:04.000Z</time>
      </trkpt>
      <trkpt lat="43.33674" lon="5.6893">
        <ele>575</ele>
        <time>2019-01-18T11:16:05.000Z</time>
      </trkpt>
      <trkpt lat="43.33674" lon="5.6893">
        <ele>575</ele>
        <time>2019-01-18T11:16:06.000Z</time>
      </trkpt>
      <trkpt lat="43.33674" lon="5.6893">
        <ele>575</ele>
        <time>2019-01-18T11:16:07.000Z</time>
      </trkpt>
      <trkpt lat="43.33674" lon="5.6893">
        <ele>575</ele>
        <time>2019-01-18T11:16:08.000Z</time>
      </trkpt>
      <trkpt lat="43.33674" lon="5.6893">
        <ele>575</ele>
        <time>2019-01-18T11:16:09.000Z</time>
      </trkpt>
      <trkpt lat="43.33674" lon="5.6893">
        <ele>575</ele>
        <time>2019-01-18T11:16:10.000Z</time>
      </trkpt>
      <trkpt lat="43.33675" lon="5.6893">
        <ele>575</ele>
        <time>2019-01-18T11:16:11.000Z</time>
      </trkpt>
      <trkpt lat="43.33675" lon="5.6893">
        <ele>575</ele>
        <time>2019-01-18T11:16:12.000Z</time>
      </trkpt>
      <trkpt lat="43.33675" lon="5.6893">
        <ele>575</ele>
        <time>2019-01-18T11:16:13.000Z</time>
      </trkpt>
      <trkpt lat="43.33675" lon="5.6893">
        <ele>575</ele>
        <time>2019-01-18T11:16:14.000Z</time>
      </trkpt>
      <trkpt lat="43.33675" lon="5.6893">
        <ele>575</ele>
        <time>2019-01-18T11:16:15.000Z</time>
      </trkpt>
      <trkpt lat="43.33675" lon="5.6893">
        <ele>575</ele>
        <time>2019-01-18T11:16:16.000Z</time>
      </trkpt>
      <trkpt lat="43.33675" lon="5.6893">
        <ele>575</ele>
        <time>2019-01-18T11:16:17.000Z</time>
      </trkpt>
      <trkpt lat="43.33675" lon="5.6893">
        <ele>575</ele>
        <time>2019-01-18T11:16:18.000Z</time>
      </trkpt>
      <trkpt lat="43.33675" lon="5.6893">
        <ele>575</ele>
        <time>2019-01-18T11:16:19.000Z</time>
      </trkpt>
      <trkpt lat="43.33675" lon="5.6893">
        <ele>575</ele>
        <time>2019-01-18T11:16:20.000Z</time>
      </trkpt>
      <trkpt lat="43.33675" lon="5.6893">
        <ele>575</ele>
        <time>2019-01-18T11:16:21.000Z</time>
      </trkpt>
      <trkpt lat="43.33675" lon="5.68929">
        <ele>575</ele>
        <time>2019-01-18T11:16:22.000Z</time>
      </trkpt>
      <trkpt lat="43.33675" lon="5.68929">
        <ele>575</ele>
        <time>2019-01-18T11:16:23.000Z</time>
      </trkpt>
      <trkpt lat="43.33675" lon="5.68929">
        <ele>575</ele>
        <time>2019-01-18T11:16:24.000Z</time>
      </trkpt>
      <trkpt lat="43.33675" lon="5.68929">
        <ele>575</ele>
        <time>2019-01-18T11:16:25.000Z</time>
      </trkpt>
      <trkpt lat="43.33675" lon="5.68929">
        <ele>575</ele>
        <time>2019-01-18T11:16:26.000Z</time>
      </trkpt>
      <trkpt lat="43.33675" lon="5.68929">
        <ele>575</ele>
        <time>2019-01-18T11:16:27.000Z</time>
      </trkpt>
      <trkpt lat="43.33675" lon="5.68929">
        <ele>576</ele>
        <time>2019-01-18T11:16:28.000Z</time>
      </trkpt>
      <trkpt lat="43.33675" lon="5.6893">
        <ele>576</ele>
        <time>2019-01-18T11:16:29.000Z</time>
      </trkpt>
      <trkpt lat="43.33675" lon="5.6893">
        <ele>576</ele>
        <time>2019-01-18T11:16:30.000Z</time>
      </trkpt>
      <trkpt lat="43.33675" lon="5.6893">
        <ele>576</ele>
        <time>2019-01-18T11:16:31.000Z</time>
      </trkpt>
      <trkpt lat="43.33676" lon="5.6893">
        <ele>576</ele>
        <time>2019-01-18T11:16:32.000Z</time>
      </trkpt>
      <trkpt lat="43.33676" lon="5.68931">
        <ele>576</ele>
        <time>2019-01-18T11:16:33.000Z</time>
      </trkpt>
      <trkpt lat="43.33676" lon="5.68931">
        <ele>576</ele>
        <time>2019-01-18T11:16:34.000Z</time>
      </trkpt>
      <trkpt lat="43.33676" lon="5.68931">
        <ele>576</ele>
        <time>2019-01-18T11:16:35.000Z</time>
      </trkpt>
      <trkpt lat="43.33676" lon="5.68931">
        <ele>576</ele>
        <time>2019-01-18T11:16:36.000Z</time>
      </trkpt>
      <trkpt lat="43.33676" lon="5.68932">
        <ele>576</ele>
        <time>2019-01-18T11:16:37.000Z</time>
      </trkpt>
      <trkpt lat="43.33676" lon="5.68932">
        <ele>576</ele>
        <time>2019-01-18T11:16:38.000Z</time>
      </trkpt>
      <trkpt lat="43.33677" lon="5.68932">
        <ele>577</ele>
        <time>2019-01-18T11:16:39.000Z</time>
      </trkpt>
      <trkpt lat="43.33677" lon="5.68932">
        <ele>577</ele>
        <time>2019-01-18T11:16:40.000Z</time>
      </trkpt>
      <trkpt lat="43.33677" lon="5.68932">
        <ele>577</ele>
        <time>2019-01-18T11:16:41.000Z</time>
      </trkpt>
      <trkpt lat="43.33678" lon="5.68932">
        <ele>577</ele>
        <time>2019-01-18T11:16:42.000Z</time>
      </trkpt>
      <trkpt lat="43.33678" lon="5.68932">
        <ele>577</ele>
        <time>2019-01-18T11:16:43.000Z</time>
      </trkpt>
      <trkpt lat="43.33678" lon="5.68932">
        <ele>577</ele>
        <time>2019-01-18T11:16:44.000Z</time>
      </trkpt>
      <trkpt lat="43.33678" lon="5.68933">
        <ele>577</ele>
        <time>2019-01-18T11:16:45.000Z</time>
      </trkpt>
      <trkpt lat="43.33678" lon="5.68933">
        <ele>578</ele>
        <time>2019-01-18T11:16:46.000Z</time>
      </trkpt>
      <trkpt lat="43.33678" lon="5.68933">
        <ele>578</ele>
        <time>2019-01-18T11:16:47.000Z</time>
      </trkpt>
      <trkpt lat="43.33678" lon="5.68933">
        <ele>578</ele>
        <time>2019-01-18T11:16:48.000Z</time>
      </trkpt>
      <trkpt lat="43.33678" lon="5.68933">
        <ele>578</ele>
        <time>2019-01-18T11:16:49.000Z</time>
      </trkpt>
      <trkpt lat="43.33679" lon="5.68933">
        <ele>578</ele>
        <time>2019-01-18T11:16:50.000Z</time>
      </trkpt>
      <trkpt lat="43.33679" lon="5.68933">
        <ele>578</ele>
        <time>2019-01-18T11:16:51.000Z</time>
      </trkpt>
      <trkpt lat="43.33679" lon="5.68933">
        <ele>578</ele>
        <time>2019-01-18T11:16:52.000Z</time>
      </trkpt>
      <trkpt lat="43.33679" lon="5.68933">
        <ele>578</ele>
        <time>2019-01-18T11:16:53.000Z</time>
      </trkpt>
      <trkpt lat="43.33679" lon="5.68933">
        <ele>578</ele>
        <time>2019-01-18T11:16:54.000Z</time>
      </trkpt>
      <trkpt lat="43.3368" lon="5.68933">
        <ele>579</ele>
        <time>2019-01-18T11:16:55.000Z</time>
      </trkpt>
      <trkpt lat="43.3368" lon="5.68933">
        <ele>579</ele>
        <time>2019-01-18T11:16:56.000Z</time>
      </trkpt>
      <trkpt lat="43.3368" lon="5.68933">
        <ele>579</ele>
        <time>2019-01-18T11:16:57.000Z</time>
      </trkpt>
      <trkpt lat="43.33681" lon="5.68933">
        <ele>579</ele>
        <time>2019-01-18T11:16:58.000Z</time>
      </trkpt>
      <trkpt lat="43.33681" lon="5.68933">
        <ele>579</ele>
        <time>2019-01-18T11:16:59.000Z</time>
      </trkpt>
      <trkpt lat="43.33681" lon="5.68933">
        <ele>579</ele>
        <time>2019-01-18T11:17:00.000Z</time>
      </trkpt>
      <trkpt lat="43.33681" lon="5.68933">
        <ele>580</ele>
        <time>2019-01-18T11:17:01.000Z</time>
      </trkpt>
      <trkpt lat="43.33681" lon="5.68933">
        <ele>580</ele>
        <time>2019-01-18T11:17:02.000Z</time>
      </trkpt>
      <trkpt lat="43.33682" lon="5.68933">
        <ele>580</ele>
        <time>2019-01-18T11:17:03.000Z</time>
      </trkpt>
      <trkpt lat="43.33682" lon="5.68933">
        <ele>580</ele>
        <time>2019-01-18T11:17:04.000Z</time>
      </trkpt>
      <trkpt lat="43.33682" lon="5.68933">
        <ele>580</ele>
        <time>2019-01-18T11:17:05.000Z</time>
      </trkpt>
      <trkpt lat="43.33682" lon="5.68934">
        <ele>580</ele>
        <time>2019-01-18T11:17:06.000Z</time>
      </trkpt>
      <trkpt lat="43.33682" lon="5.68934">
        <ele>580</ele>
        <time>2019-01-18T11:17:07.000Z</time>
      </trkpt>
      <trkpt lat="43.33682" lon="5.68934">
        <ele>580</ele>
        <time>2019-01-18T11:17:08.000Z</time>
      </trkpt>
      <trkpt lat="43.33683" lon="5.68934">
        <ele>581</ele>
        <time>2019-01-18T11:17:09.000Z</time>
      </trkpt>
      <trkpt lat="43.33683" lon="5.68934">
        <ele>581</ele>
        <time>2019-01-18T11:17:10.000Z</time>
      </trkpt>
      <trkpt lat="43.33683" lon="5.68934">
        <ele>581</ele>
        <time>2019-01-18T11:17:11.000Z</time>
      </trkpt>
      <trkpt lat="43.33684" lon="5.68934">
        <ele>581</ele>
        <time>2019-01-18T11:17:12.000Z</time>
      </trkpt>
      <trkpt lat="43.33684" lon="5.68935">
        <ele>581</ele>
        <time>2019-01-18T11:17:13.000Z</time>
      </trkpt>
      <trkpt lat="43.33685" lon="5.68935">
        <ele>582</ele>
        <time>2019-01-18T11:17:14.000Z</time>
      </trkpt>
      <trkpt lat="43.33685" lon="5.68935">
        <ele>582</ele>
        <time>2019-01-18T11:17:15.000Z</time>
      </trkpt>
      <trkpt lat="43.33685" lon="5.68935">
        <ele>582</ele>
        <time>2019-01-18T11:17:16.000Z</time>
      </trkpt>
      <trkpt lat="43.33686" lon="5.68935">
        <ele>582</ele>
        <time>2019-01-18T11:17:17.000Z</time>
      </trkpt>
      <trkpt lat="43.33686" lon="5.68936">
        <ele>583</ele>
        <time>2019-01-18T11:17:18.000Z</time>
      </trkpt>
      <trkpt lat="43.33686" lon="5.68936">
        <ele>583</ele>
        <time>2019-01-18T11:17:19.000Z</time>
      </trkpt>
      <trkpt lat="43.33686" lon="5.68936">
        <ele>583</ele>
        <time>2019-01-18T11:17:20.000Z</time>
      </trkpt>
      <trkpt lat="43.33686" lon="5.68936">
        <ele>583</ele>
        <time>2019-01-18T11:17:21.000Z</time>
      </trkpt>
      <trkpt lat="43.33686" lon="5.68936">
        <ele>583</ele>
        <time>2019-01-18T11:17:22.000Z</time>
      </trkpt>
      <trkpt lat="43.33686" lon="5.68936">
        <ele>583</ele>
        <time>2019-01-18T11:17:23.000Z</time>
      </trkpt>
      <trkpt lat="43.33686" lon="5.68936">
        <ele>584</ele>
        <time>2019-01-18T11:17:24.000Z</time>
      </trkpt>
      <trkpt lat="43.33686" lon="5.68937">
        <ele>584</ele>
        <time>2019-01-18T11:17:25.000Z</time>
      </trkpt>
      <trkpt lat="43.33686" lon="5.68937">
        <ele>584</ele>
        <time>2019-01-18T11:17:26.000Z</time>
      </trkpt>
      <trkpt lat="43.33685" lon="5.68937">
        <ele>584</ele>
        <time>2019-01-18T11:17:27.000Z</time>
      </trkpt>
      <trkpt lat="43.33685" lon="5.68937">
        <ele>584</ele>
        <time>2019-01-18T11:17:28.000Z</time>
      </trkpt>
      <trkpt lat="43.33685" lon="5.68937">
        <ele>584</ele>
        <time>2019-01-18T11:17:29.000Z</time>
      </trkpt>
      <trkpt lat="43.33685" lon="5.68937">
        <ele>584</ele>
        <time>2019-01-18T11:17:30.000Z</time>
      </trkpt>
      <trkpt lat="43.33685" lon="5.68937">
        <ele>584</ele>
        <time>2019-01-18T11:17:31.000Z</time>
      </trkpt>
      <trkpt lat="43.33685" lon="5.68937">
        <ele>584</ele>
        <time>2019-01-18T11:17:32.000Z</time>
      </trkpt>
      <trkpt lat="43.33685" lon="5.68937">
        <ele>584</ele>
        <time>2019-01-18T11:17:33.000Z</time>
      </trkpt>
      <trkpt lat="43.33685" lon="5.68937">
        <ele>584</ele>
        <time>2019-01-18T11:17:34.000Z</time>
      </trkpt>
      <trkpt lat="43.33685" lon="5.68937">
        <ele>584</ele>
        <time>2019-01-18T11:17:35.000Z</time>
      </trkpt>
      <trkpt lat="43.33686" lon="5.68937">
        <ele>584</ele>
        <time>2019-01-18T11:17:36.000Z</time>
      </trkpt>
      <trkpt lat="43.33686" lon="5.68938">
        <ele>584</ele>
        <time>2019-01-18T11:17:37.000Z</time>
      </trkpt>
      <trkpt lat="43.33686" lon="5.68938">
        <ele>584</ele>
        <time>2019-01-18T11:17:38.000Z</time>
      </trkpt>
      <trkpt lat="43.33686" lon="5.68938">
        <ele>584</ele>
        <time>2019-01-18T11:17:39.000Z</time>
      </trkpt>
      <trkpt lat="43.33686" lon="5.68938">
        <ele>585</ele>
        <time>2019-01-18T11:17:40.000Z</time>
      </trkpt>
      <trkpt lat="43.33686" lon="5.68938">
        <ele>585</ele>
        <time>2019-01-18T11:17:41.000Z</time>
      </trkpt>
      <trkpt lat="43.33686" lon="5.68938">
        <ele>585</ele>
        <time>2019-01-18T11:17:42.000Z</time>
      </trkpt>
      <trkpt lat="43.33686" lon="5.68939">
        <ele>585</ele>
        <time>2019-01-18T11:17:43.000Z</time>
      </trkpt>
      <trkpt lat="43.33687" lon="5.68938">
        <ele>585</ele>
        <time>2019-01-18T11:17:44.000Z</time>
      </trkpt>
      <trkpt lat="43.33687" lon="5.68938">
        <ele>585</ele>
        <time>2019-01-18T11:17:45.000Z</time>
      </trkpt>
      <trkpt lat="43.33688" lon="5.68938">
        <ele>586</ele>
        <time>2019-01-18T11:17:46.000Z</time>
      </trkpt>
      <trkpt lat="43.33688" lon="5.68938">
        <ele>586</ele>
        <time>2019-01-18T11:17:47.000Z</time>
      </trkpt>
      <trkpt lat="43.33688" lon="5.68938">
        <ele>586</ele>
        <time>2019-01-18T11:17:48.000Z</time>
      </trkpt>
      <trkpt lat="43.33688" lon="5.68938">
        <ele>587</ele>
        <time>2019-01-18T11:17:49.000Z</time>
      </trkpt>
      <trkpt lat="43.33688" lon="5.68938">
        <ele>587</ele>
        <time>2019-01-18T11:17:50.000Z</time>
      </trkpt>
      <trkpt lat="43.33689" lon="5.68938">
        <ele>587</ele>
        <time>2019-01-18T11:17:51.000Z</time>
      </trkpt>
      <trkpt lat="43.33689" lon="5.68938">
        <ele>587</ele>
        <time>2019-01-18T11:17:52.000Z</time>
      </trkpt>
      <trkpt lat="43.3369" lon="5.68938">
        <ele>588</ele>
        <time>2019-01-18T11:17:53.000Z</time>
      </trkpt>
      <trkpt lat="43.3369" lon="5.68938">
        <ele>588</ele>
        <time>2019-01-18T11:17:54.000Z</time>
      </trkpt>
      <trkpt lat="43.3369" lon="5.68938">
        <ele>588</ele>
        <time>2019-01-18T11:17:55.000Z</time>
      </trkpt>
      <trkpt lat="43.3369" lon="5.68938">
        <ele>588</ele>
        <time>2019-01-18T11:17:56.000Z</time>
      </trkpt>
      <trkpt lat="43.3369" lon="5.68938">
        <ele>588</ele>
        <time>2019-01-18T11:17:57.000Z</time>
      </trkpt>
      <trkpt lat="43.3369" lon="5.68938">
        <ele>588</ele>
        <time>2019-01-18T11:17:58.000Z</time>
      </trkpt>
      <trkpt lat="43.3369" lon="5.68938">
        <ele>588</ele>
        <time>2019-01-18T11:17:59.000Z</time>
      </trkpt>
      <trkpt lat="43.3369" lon="5.68938">
        <ele>589</ele>
        <time>2019-01-18T11:18:00.000Z</time>
      </trkpt>
      <trkpt lat="43.3369" lon="5.68938">
        <ele>589</ele>
        <time>2019-01-18T11:18:01.000Z</time>
      </trkpt>
      <trkpt lat="43.3369" lon="5.68938">
        <ele>589</ele>
        <time>2019-01-18T11:18:02.000Z</time>
      </trkpt>
      <trkpt lat="43.3369" lon="5.68937">
        <ele>589</ele>
        <time>2019-01-18T11:18:03.000Z</time>
      </trkpt>
      <trkpt lat="43.3369" lon="5.68938">
        <ele>589</ele>
        <time>2019-01-18T11:18:04.000Z</time>
      </trkpt>
      <trkpt lat="43.3369" lon="5.68938">
        <ele>589</ele>
        <time>2019-01-18T11:18:05.000Z</time>
      </trkpt>
      <trkpt lat="43.3369" lon="5.68937">
        <ele>589</ele>
        <time>2019-01-18T11:18:06.000Z</time>
      </trkpt>
      <trkpt lat="43.33691" lon="5.68937">
        <ele>589</ele>
        <time>2019-01-18T11:18:07.000Z</time>
      </trkpt>
      <trkpt lat="43.33691" lon="5.68937">
        <ele>589</ele>
        <time>2019-01-18T11:18:08.000Z</time>
      </trkpt>
      <trkpt lat="43.33691" lon="5.68937">
        <ele>589</ele>
        <time>2019-01-18T11:18:09.000Z</time>
      </trkpt>
      <trkpt lat="43.33691" lon="5.68937">
        <ele>589</ele>
        <time>2019-01-18T11:18:10.000Z</time>
      </trkpt>
      <trkpt lat="43.33691" lon="5.68937">
        <ele>589</ele>
        <time>2019-01-18T11:18:11.000Z</time>
      </trkpt>
      <trkpt lat="43.33691" lon="5.68937">
        <ele>589</ele>
        <time>2019-01-18T11:18:12.000Z</time>
      </trkpt>
      <trkpt lat="43.33691" lon="5.68937">
        <ele>589</ele>
        <time>2019-01-18T11:18:13.000Z</time>
      </trkpt>
      <trkpt lat="43.33691" lon="5.68937">
        <ele>590</ele>
        <time>2019-01-18T11:18:14.000Z</time>
      </trkpt>
      <trkpt lat="43.33691" lon="5.68937">
        <ele>590</ele>
        <time>2019-01-18T11:18:15.000Z</time>
      </trkpt>
      <trkpt lat="43.33691" lon="5.68937">
        <ele>590</ele>
        <time>2019-01-18T11:18:16.000Z</time>
      </trkpt>
      <trkpt lat="43.33691" lon="5.68937">
        <ele>590</ele>
        <time>2019-01-18T11:18:17.000Z</time>
      </trkpt>
      <trkpt lat="43.33692" lon="5.68937">
        <ele>590</ele>
        <time>2019-01-18T11:18:18.000Z</time>
      </trkpt>
      <trkpt lat="43.33692" lon="5.68937">
        <ele>590</ele>
        <time>2019-01-18T11:18:19.000Z</time>
      </trkpt>
      <trkpt lat="43.33692" lon="5.68937">
        <ele>590</ele>
        <time>2019-01-18T11:18:20.000Z</time>
      </trkpt>
      <trkpt lat="43.33692" lon="5.68937">
        <ele>590</ele>
        <time>2019-01-18T11:18:21.000Z</time>
      </trkpt>
      <trkpt lat="43.33692" lon="5.68937">
        <ele>590</ele>
        <time>2019-01-18T11:18:22.000Z</time>
      </trkpt>
      <trkpt lat="43.33692" lon="5.68937">
        <ele>590</ele>
        <time>2019-01-18T11:18:23.000Z</time>
      </trkpt>
      <trkpt lat="43.33692" lon="5.68937">
        <ele>590</ele>
        <time>2019-01-18T11:18:24.000Z</time>
      </trkpt>
      <trkpt lat="43.33692" lon="5.68937">
        <ele>590</ele>
        <time>2019-01-18T11:18:25.000Z</time>
      </trkpt>
      <trkpt lat="43.33692" lon="5.68937">
        <ele>590</ele>
        <time>2019-01-18T11:18:26.000Z</time>
      </trkpt>
      <trkpt lat="43.33692" lon="5.68937">
        <ele>590</ele>
        <time>2019-01-18T11:18:27.000Z</time>
      </trkpt>
      <trkpt lat="43.33693" lon="5.68937">
        <ele>590</ele>
        <time>2019-01-18T11:18:28.000Z</time>
      </trkpt>
      <trkpt lat="43.33693" lon="5.68937">
        <ele>590</ele>
        <time>2019-01-18T11:18:29.000Z</time>
      </trkpt>
      <trkpt lat="43.33693" lon="5.68937">
        <ele>590</ele>
        <time>2019-01-18T11:18:30.000Z</time>
      </trkpt>
      <trkpt lat="43.33693" lon="5.68937">
        <ele>590</ele>
        <time>2019-01-18T11:18:31.000Z</time>
      </trkpt>
      <trkpt lat="43.33694" lon="5.68938">
        <ele>590</ele>
        <time>2019-01-18T11:18:32.000Z</time>
      </trkpt>
      <trkpt lat="43.33694" lon="5.68939">
        <ele>590</ele>
        <time>2019-01-18T11:18:33.000Z</time>
      </trkpt>
      <trkpt lat="43.33694" lon="5.68939">
        <ele>590</ele>
        <time>2019-01-18T11:18:34.000Z</time>
      </trkpt>
      <trkpt lat="43.33694" lon="5.6894">
        <ele>591</ele>
        <time>2019-01-18T11:18:35.000Z</time>
      </trkpt>
      <trkpt lat="43.33695" lon="5.6894">
        <ele>591</ele>
        <time>2019-01-18T11:18:36.000Z</time>
      </trkpt>
      <trkpt lat="43.33695" lon="5.6894">
        <ele>591</ele>
        <time>2019-01-18T11:18:37.000Z</time>
      </trkpt>
      <trkpt lat="43.33695" lon="5.6894">
        <ele>591</ele>
        <time>2019-01-18T11:18:38.000Z</time>
      </trkpt>
      <trkpt lat="43.33695" lon="5.6894">
        <ele>591</ele>
        <time>2019-01-18T11:18:39.000Z</time>
      </trkpt>
      <trkpt lat="43.33696" lon="5.6894">
        <ele>591</ele>
        <time>2019-01-18T11:18:40.000Z</time>
      </trkpt>
      <trkpt lat="43.33696" lon="5.6894">
        <ele>592</ele>
        <time>2019-01-18T11:18:41.000Z</time>
      </trkpt>
      <trkpt lat="43.33696" lon="5.68941">
        <ele>592</ele>
        <time>2019-01-18T11:18:42.000Z</time>
      </trkpt>
      <trkpt lat="43.33697" lon="5.68941">
        <ele>592</ele>
        <time>2019-01-18T11:18:43.000Z</time>
      </trkpt>
      <trkpt lat="43.33697" lon="5.68941">
        <ele>592</ele>
        <time>2019-01-18T11:18:44.000Z</time>
      </trkpt>
      <trkpt lat="43.33697" lon="5.68941">
        <ele>592</ele>
        <time>2019-01-18T11:18:45.000Z</time>
      </trkpt>
      <trkpt lat="43.33697" lon="5.68941">
        <ele>592</ele>
        <time>2019-01-18T11:18:46.000Z</time>
      </trkpt>
      <trkpt lat="43.33697" lon="5.68941">
        <ele>593</ele>
        <time>2019-01-18T11:18:47.000Z</time>
      </trkpt>
      <trkpt lat="43.33698" lon="5.68942">
        <ele>593</ele>
        <time>2019-01-18T11:18:48.000Z</time>
      </trkpt>
      <trkpt lat="43.33698" lon="5.68942">
        <ele>593</ele>
        <time>2019-01-18T11:18:49.000Z</time>
      </trkpt>
      <trkpt lat="43.33698" lon="5.68943">
        <ele>593</ele>
        <time>2019-01-18T11:18:50.000Z</time>
      </trkpt>
      <trkpt lat="43.33698" lon="5.68943">
        <ele>593</ele>
        <time>2019-01-18T11:18:51.000Z</time>
      </trkpt>
      <trkpt lat="43.33698" lon="5.68943">
        <ele>593</ele>
        <time>2019-01-18T11:18:52.000Z</time>
      </trkpt>
      <trkpt lat="43.33699" lon="5.68943">
        <ele>594</ele>
        <time>2019-01-18T11:18:53.000Z</time>
      </trkpt>
      <trkpt lat="43.33699" lon="5.68943">
        <ele>594</ele>
        <time>2019-01-18T11:18:54.000Z</time>
      </trkpt>
      <trkpt lat="43.33699" lon="5.68943">
        <ele>594</ele>
        <time>2019-01-18T11:18:55.000Z</time>
      </trkpt>
      <trkpt lat="43.337" lon="5.68944">
        <ele>594</ele>
        <time>2019-01-18T11:18:56.000Z</time>
      </trkpt>
      <trkpt lat="43.337" lon="5.68944">
        <ele>594</ele>
        <time>2019-01-18T11:18:57.000Z</time>
      </trkpt>
      <trkpt lat="43.337" lon="5.68944">
        <ele>594</ele>
        <time>2019-01-18T11:18:58.000Z</time>
      </trkpt>
      <trkpt lat="43.337" lon="5.68944">
        <ele>594</ele>
        <time>2019-01-18T11:18:59.000Z</time>
      </trkpt>
      <trkpt lat="43.337" lon="5.68944">
        <ele>594</ele>
        <time>2019-01-18T11:19:00.000Z</time>
      </trkpt>
      <trkpt lat="43.337" lon="5.68944">
        <ele>594</ele>
        <time>2019-01-18T11:19:01.000Z</time>
      </trkpt>
      <trkpt lat="43.337" lon="5.68944">
        <ele>594</ele>
        <time>2019-01-18T11:19:02.000Z</time>
      </trkpt>
      <trkpt lat="43.337" lon="5.68944">
        <ele>594</ele>
        <time>2019-01-18T11:19:03.000Z</time>
      </trkpt>
      <trkpt lat="43.337" lon="5.68944">
        <ele>594</ele>
        <time>2019-01-18T11:19:04.000Z</time>
      </trkpt>
      <trkpt lat="43.337" lon="5.68944">
        <ele>594</ele>
        <time>2019-01-18T11:19:05.000Z</time>
      </trkpt>
      <trkpt lat="43.337" lon="5.68944">
        <ele>594</ele>
        <time>2019-01-18T11:19:06.000Z</time>
      </trkpt>
      <trkpt lat="43.337" lon="5.68944">
        <ele>594</ele>
        <time>2019-01-18T11:19:07.000Z</time>
      </trkpt>
      <trkpt lat="43.337" lon="5.68944">
        <ele>594</ele>
        <time>2019-01-18T11:19:08.000Z</time>
      </trkpt>
      <trkpt lat="43.337" lon="5.68944">
        <ele>594</ele>
        <time>2019-01-18T11:19:09.000Z</time>
      </trkpt>
      <trkpt lat="43.337" lon="5.68944">
        <ele>595</ele>
        <time>2019-01-18T11:19:10.000Z</time>
      </trkpt>
      <trkpt lat="43.337" lon="5.68945">
        <ele>595</ele>
        <time>2019-01-18T11:19:11.000Z</time>
      </trkpt>
      <trkpt lat="43.337" lon="5.68945">
        <ele>595</ele>
        <time>2019-01-18T11:19:12.000Z</time>
      </trkpt>
      <trkpt lat="43.337" lon="5.68945">
        <ele>595</ele>
        <time>2019-01-18T11:19:13.000Z</time>
      </trkpt>
      <trkpt lat="43.337" lon="5.68946">
        <ele>595</ele>
        <time>2019-01-18T11:19:14.000Z</time>
      </trkpt>
      <trkpt lat="43.337" lon="5.68946">
        <ele>595</ele>
        <time>2019-01-18T11:19:15.000Z</time>
      </trkpt>
      <trkpt lat="43.337" lon="5.68946">
        <ele>595</ele>
        <time>2019-01-18T11:19:16.000Z</time>
      </trkpt>
      <trkpt lat="43.337" lon="5.68945">
        <ele>595</ele>
        <time>2019-01-18T11:19:17.000Z</time>
      </trkpt>
      <trkpt lat="43.337" lon="5.68945">
        <ele>595</ele>
        <time>2019-01-18T11:19:18.000Z</time>
      </trkpt>
      <trkpt lat="43.33701" lon="5.68946">
        <ele>595</ele>
        <time>2019-01-18T11:19:19.000Z</time>
      </trkpt>
      <trkpt lat="43.33701" lon="5.68946">
        <ele>595</ele>
        <time>2019-01-18T11:19:20.000Z</time>
      </trkpt>
      <trkpt lat="43.33701" lon="5.68947">
        <ele>595</ele>
        <time>2019-01-18T11:19:21.000Z</time>
      </trkpt>
      <trkpt lat="43.33702" lon="5.68947">
        <ele>595</ele>
        <time>2019-01-18T11:19:22.000Z</time>
      </trkpt>
      <trkpt lat="43.33702" lon="5.68947">
        <ele>595</ele>
        <time>2019-01-18T11:19:23.000Z</time>
      </trkpt>
      <trkpt lat="43.33703" lon="5.68947">
        <ele>595</ele>
        <time>2019-01-18T11:19:24.000Z</time>
      </trkpt>
      <trkpt lat="43.33703" lon="5.68947">
        <ele>595</ele>
        <time>2019-01-18T11:19:25.000Z</time>
      </trkpt>
      <trkpt lat="43.33703" lon="5.68947">
        <ele>595</ele>
        <time>2019-01-18T11:19:26.000Z</time>
      </trkpt>
      <trkpt lat="43.33704" lon="5.68947">
        <ele>595</ele>
        <time>2019-01-18T11:19:27.000Z</time>
      </trkpt>
      <trkpt lat="43.33704" lon="5.68947">
        <ele>595</ele>
        <time>2019-01-18T11:19:28.000Z</time>
      </trkpt>
      <trkpt lat="43.33704" lon="5.68947">
        <ele>596</ele>
        <time>2019-01-18T11:19:29.000Z</time>
      </trkpt>
      <trkpt lat="43.33704" lon="5.68947">
        <ele>596</ele>
        <time>2019-01-18T11:19:30.000Z</time>
      </trkpt>
      <trkpt lat="43.33704" lon="5.68947">
        <ele>596</ele>
        <time>2019-01-18T11:19:31.000Z</time>
      </trkpt>
      <trkpt lat="43.33704" lon="5.68947">
        <ele>596</ele>
        <time>2019-01-18T11:19:32.000Z</time>
      </trkpt>
      <trkpt lat="43.33704" lon="5.68947">
        <ele>596</ele>
        <time>2019-01-18T11:19:33.000Z</time>
      </trkpt>
      <trkpt lat="43.33704" lon="5.68947">
        <ele>596</ele>
        <time>2019-01-18T11:19:34.000Z</time>
      </trkpt>
      <trkpt lat="43.33704" lon="5.68947">
        <ele>596</ele>
        <time>2019-01-18T11:19:35.000Z</time>
      </trkpt>
      <trkpt lat="43.33704" lon="5.68947">
        <ele>596</ele>
        <time>2019-01-18T11:19:36.000Z</time>
      </trkpt>
      <trkpt lat="43.33704" lon="5.68947">
        <ele>596</ele>
        <time>2019-01-18T11:19:37.000Z</time>
      </trkpt>
      <trkpt lat="43.33704" lon="5.68947">
        <ele>596</ele>
        <time>2019-01-18T11:19:38.000Z</time>
      </trkpt>
      <trkpt lat="43.33704" lon="5.68947">
        <ele>596</ele>
        <time>2019-01-18T11:19:39.000Z</time>
      </trkpt>
      <trkpt lat="43.33705" lon="5.68946">
        <ele>596</ele>
        <time>2019-01-18T11:19:40.000Z</time>
      </trkpt>
      <trkpt lat="43.33704" lon="5.68946">
        <ele>596</ele>
        <time>2019-01-18T11:19:41.000Z</time>
      </trkpt>
      <trkpt lat="43.33705" lon="5.68946">
        <ele>596</ele>
        <time>2019-01-18T11:19:42.000Z</time>
      </trkpt>
      <trkpt lat="43.33705" lon="5.68947">
        <ele>596</ele>
        <time>2019-01-18T11:19:43.000Z</time>
      </trkpt>
      <trkpt lat="43.33705" lon="5.68947">
        <ele>596</ele>
        <time>2019-01-18T11:19:44.000Z</time>
      </trkpt>
      <trkpt lat="43.33705" lon="5.68948">
        <ele>596</ele>
        <time>2019-01-18T11:19:45.000Z</time>
      </trkpt>
      <trkpt lat="43.33706" lon="5.68948">
        <ele>596</ele>
        <time>2019-01-18T11:19:46.000Z</time>
      </trkpt>
      <trkpt lat="43.33706" lon="5.68948">
        <ele>596</ele>
        <time>2019-01-18T11:19:47.000Z</time>
      </trkpt>
      <trkpt lat="43.33706" lon="5.68948">
        <ele>596</ele>
        <time>2019-01-18T11:19:48.000Z</time>
      </trkpt>
      <trkpt lat="43.33707" lon="5.68948">
        <ele>596</ele>
        <time>2019-01-18T11:19:49.000Z</time>
      </trkpt>
      <trkpt lat="43.33707" lon="5.68949">
        <ele>596</ele>
        <time>2019-01-18T11:19:50.000Z</time>
      </trkpt>
      <trkpt lat="43.33708" lon="5.68949">
        <ele>596</ele>
        <time>2019-01-18T11:19:51.000Z</time>
      </trkpt>
      <trkpt lat="43.33708" lon="5.68949">
        <ele>596</ele>
        <time>2019-01-18T11:19:52.000Z</time>
      </trkpt>
      <trkpt lat="43.33709" lon="5.6895">
        <ele>597</ele>
        <time>2019-01-18T11:19:53.000Z</time>
      </trkpt>
      <trkpt lat="43.33709" lon="5.6895">
        <ele>597</ele>
        <time>2019-01-18T11:19:54.000Z</time>
      </trkpt>
      <trkpt lat="43.3371" lon="5.6895">
        <ele>597</ele>
        <time>2019-01-18T11:19:55.000Z</time>
      </trkpt>
      <trkpt lat="43.3371" lon="5.6895">
        <ele>597</ele>
        <time>2019-01-18T11:19:56.000Z</time>
      </trkpt>
      <trkpt lat="43.3371" lon="5.6895">
        <ele>597</ele>
        <time>2019-01-18T11:19:57.000Z</time>
      </trkpt>
      <trkpt lat="43.33711" lon="5.68951">
        <ele>597</ele>
        <time>2019-01-18T11:19:58.000Z</time>
      </trkpt>
      <trkpt lat="43.33711" lon="5.68951">
        <ele>597</ele>
        <time>2019-01-18T11:19:59.000Z</time>
      </trkpt>
      <trkpt lat="43.33712" lon="5.68951">
        <ele>598</ele>
        <time>2019-01-18T11:20:00.000Z</time>
      </trkpt>
      <trkpt lat="43.33712" lon="5.68952">
        <ele>598</ele>
        <time>2019-01-18T11:20:01.000Z</time>
      </trkpt>
      <trkpt lat="43.33712" lon="5.68952">
        <ele>598</ele>
        <time>2019-01-18T11:20:02.000Z</time>
      </trkpt>
      <trkpt lat="43.33713" lon="5.68952">
        <ele>598</ele>
        <time>2019-01-18T11:20:03.000Z</time>
      </trkpt>
      <trkpt lat="43.33713" lon="5.68952">
        <ele>598</ele>
        <time>2019-01-18T11:20:04.000Z</time>
      </trkpt>
      <trkpt lat="43.33713" lon="5.68952">
        <ele>598</ele>
        <time>2019-01-18T11:20:05.000Z</time>
      </trkpt>
      <trkpt lat="43.33713" lon="5.68952">
        <ele>598</ele>
        <time>2019-01-18T11:20:06.000Z</time>
      </trkpt>
      <trkpt lat="43.33714" lon="5.68953">
        <ele>598</ele>
        <time>2019-01-18T11:20:07.000Z</time>
      </trkpt>
      <trkpt lat="43.33714" lon="5.68953">
        <ele>598</ele>
        <time>2019-01-18T11:20:08.000Z</time>
      </trkpt>
      <trkpt lat="43.33714" lon="5.68953">
        <ele>599</ele>
        <time>2019-01-18T11:20:09.000Z</time>
      </trkpt>
      <trkpt lat="43.33714" lon="5.68953">
        <ele>599</ele>
        <time>2019-01-18T11:20:10.000Z</time>
      </trkpt>
      <trkpt lat="43.33714" lon="5.68953">
        <ele>599</ele>
        <time>2019-01-18T11:20:11.000Z</time>
      </trkpt>
      <trkpt lat="43.33714" lon="5.68953">
        <ele>599</ele>
        <time>2019-01-18T11:20:12.000Z</time>
      </trkpt>
      <trkpt lat="43.33714" lon="5.68953">
        <ele>599</ele>
        <time>2019-01-18T11:20:13.000Z</time>
      </trkpt>
      <trkpt lat="43.33714" lon="5.68954">
        <ele>599</ele>
        <time>2019-01-18T11:20:14.000Z</time>
      </trkpt>
      <trkpt lat="43.33714" lon="5.68954">
        <ele>599</ele>
        <time>2019-01-18T11:20:15.000Z</time>
      </trkpt>
      <trkpt lat="43.33714" lon="5.68955">
        <ele>599</ele>
        <time>2019-01-18T11:20:16.000Z</time>
      </trkpt>
      <trkpt lat="43.33714" lon="5.68955">
        <ele>599</ele>
        <time>2019-01-18T11:20:17.000Z</time>
      </trkpt>
      <trkpt lat="43.33714" lon="5.68955">
        <ele>599</ele>
        <time>2019-01-18T11:20:18.000Z</time>
      </trkpt>
      <trkpt lat="43.33714" lon="5.68955">
        <ele>599</ele>
        <time>2019-01-18T11:20:19.000Z</time>
      </trkpt>
      <trkpt lat="43.33715" lon="5.68955">
        <ele>599</ele>
        <time>2019-01-18T11:20:20.000Z</time>
      </trkpt>
      <trkpt lat="43.33715" lon="5.68956">
        <ele>599</ele>
        <time>2019-01-18T11:20:21.000Z</time>
      </trkpt>
      <trkpt lat="43.33716" lon="5.68957">
        <ele>599</ele>
        <time>2019-01-18T11:20:22.000Z</time>
      </trkpt>
      <trkpt lat="43.33716" lon="5.68957">
        <ele>600</ele>
        <time>2019-01-18T11:20:23.000Z</time>
      </trkpt>
      <trkpt lat="43.33716" lon="5.68957">
        <ele>600</ele>
        <time>2019-01-18T11:20:24.000Z</time>
      </trkpt>
      <trkpt lat="43.33716" lon="5.68958">
        <ele>600</ele>
        <time>2019-01-18T11:20:25.000Z</time>
      </trkpt>
      <trkpt lat="43.33716" lon="5.68958">
        <ele>600</ele>
        <time>2019-01-18T11:20:26.000Z</time>
      </trkpt>
      <trkpt lat="43.33716" lon="5.68958">
        <ele>600</ele>
        <time>2019-01-18T11:20:27.000Z</time>
      </trkpt>
      <trkpt lat="43.33716" lon="5.68958">
        <ele>600</ele>
        <time>2019-01-18T11:20:28.000Z</time>
      </trkpt>
      <trkpt lat="43.33716" lon="5.68958">
        <ele>600</ele>
        <time>2019-01-18T11:20:29.000Z</time>
      </trkpt>
      <trkpt lat="43.33716" lon="5.68957">
        <ele>600</ele>
        <time>2019-01-18T11:20:30.000Z</time>
      </trkpt>
      <trkpt lat="43.33716" lon="5.68958">
        <ele>600</ele>
        <time>2019-01-18T11:20:31.000Z</time>
      </trkpt>
      <trkpt lat="43.33716" lon="5.68958">
        <ele>600</ele>
        <time>2019-01-18T11:20:32.000Z</time>
      </trkpt>
      <trkpt lat="43.33716" lon="5.68957">
        <ele>600</ele>
        <time>2019-01-18T11:20:33.000Z</time>
      </trkpt>
      <trkpt lat="43.33716" lon="5.68957">
        <ele>600</ele>
        <time>2019-01-18T11:20:34.000Z</time>
      </trkpt>
      <trkpt lat="43.33716" lon="5.68957">
        <ele>600</ele>
        <time>2019-01-18T11:20:35.000Z</time>
      </trkpt>
      <trkpt lat="43.33716" lon="5.68957">
        <ele>600</ele>
        <time>2019-01-18T11:20:36.000Z</time>
      </trkpt>
      <trkpt lat="43.33716" lon="5.68957">
        <ele>600</ele>
        <time>2019-01-18T11:20:37.000Z</time>
      </trkpt>
      <trkpt lat="43.33716" lon="5.68957">
        <ele>600</ele>
        <time>2019-01-18T11:20:38.000Z</time>
      </trkpt>
      <trkpt lat="43.33716" lon="5.68957">
        <ele>600</ele>
        <time>2019-01-18T11:20:39.000Z</time>
      </trkpt>
      <trkpt lat="43.33716" lon="5.68957">
        <ele>600</ele>
        <time>2019-01-18T11:20:40.000Z</time>
      </trkpt>
      <trkpt lat="43.33716" lon="5.68957">
        <ele>600</ele>
        <time>2019-01-18T11:20:41.000Z</time>
      </trkpt>
      <trkpt lat="43.33716" lon="5.68957">
        <ele>600</ele>
        <time>2019-01-18T11:20:42.000Z</time>
      </trkpt>
      <trkpt lat="43.33716" lon="5.68957">
        <ele>600</ele>
        <time>2019-01-18T11:20:43.000Z</time>
      </trkpt>
      <trkpt lat="43.33716" lon="5.68957">
        <ele>600</ele>
        <time>2019-01-18T11:20:44.000Z</time>
      </trkpt>
      <trkpt lat="43.33716" lon="5.68957">
        <ele>600</ele>
        <time>2019-01-18T11:20:45.000Z</time>
      </trkpt>
      <trkpt lat="43.33716" lon="5.68957">
        <ele>600</ele>
        <time>2019-01-18T11:20:46.000Z</time>
      </trkpt>
      <trkpt lat="43.33716" lon="5.68957">
        <ele>600</ele>
        <time>2019-01-18T11:20:47.000Z</time>
      </trkpt>
      <trkpt lat="43.33716" lon="5.68957">
        <ele>600</ele>
        <time>2019-01-18T11:20:48.000Z</time>
      </trkpt>
      <trkpt lat="43.33716" lon="5.68957">
        <ele>600</ele>
        <time>2019-01-18T11:20:49.000Z</time>
      </trkpt>
      <trkpt lat="43.33716" lon="5.68957">
        <ele>600</ele>
        <time>2019-01-18T11:20:50.000Z</time>
      </trkpt>
      <trkpt lat="43.33716" lon="5.68957">
        <ele>600</ele>
        <time>2019-01-18T11:20:51.000Z</time>
      </trkpt>
      <trkpt lat="43.33716" lon="5.68957">
        <ele>600</ele>
        <time>2019-01-18T11:20:52.000Z</time>
      </trkpt>
      <trkpt lat="43.33716" lon="5.68957">
        <ele>600</ele>
        <time>2019-01-18T11:20:53.000Z</time>
      </trkpt>
      <trkpt lat="43.33716" lon="5.68957">
        <ele>600</ele>
        <time>2019-01-18T11:20:54.000Z</time>
      </trkpt>
      <trkpt lat="43.33716" lon="5.68957">
        <ele>601</ele>
        <time>2019-01-18T11:20:55.000Z</time>
      </trkpt>
      <trkpt lat="43.33716" lon="5.68957">
        <ele>601</ele>
        <time>2019-01-18T11:20:56.000Z</time>
      </trkpt>
      <trkpt lat="43.33716" lon="5.68957">
        <ele>601</ele>
        <time>2019-01-18T11:20:57.000Z</time>
      </trkpt>
      <trkpt lat="43.33716" lon="5.68957">
        <ele>601</ele>
        <time>2019-01-18T11:20:58.000Z</time>
      </trkpt>
      <trkpt lat="43.33716" lon="5.68957">
        <ele>601</ele>
        <time>2019-01-18T11:20:59.000Z</time>
      </trkpt>
      <trkpt lat="43.33716" lon="5.68957">
        <ele>601</ele>
        <time>2019-01-18T11:21:00.000Z</time>
      </trkpt>
      <trkpt lat="43.33716" lon="5.68957">
        <ele>601</ele>
        <time>2019-01-18T11:21:01.000Z</time>
      </trkpt>
      <trkpt lat="43.33716" lon="5.68957">
        <ele>601</ele>
        <time>2019-01-18T11:21:02.000Z</time>
      </trkpt>
      <trkpt lat="43.33716" lon="5.68957">
        <ele>601</ele>
        <time>2019-01-18T11:21:03.000Z</time>
      </trkpt>
      <trkpt lat="43.33716" lon="5.68957">
        <ele>601</ele>
        <time>2019-01-18T11:21:04.000Z</time>
      </trkpt>
      <trkpt lat="43.33716" lon="5.68957">
        <ele>601</ele>
        <time>2019-01-18T11:21:05.000Z</time>
      </trkpt>
      <trkpt lat="43.33716" lon="5.68957">
        <ele>601</ele>
        <time>2019-01-18T11:21:06.000Z</time>
      </trkpt>
      <trkpt lat="43.33716" lon="5.68957">
        <ele>601</ele>
        <time>2019-01-18T11:21:07.000Z</time>
      </trkpt>
      <trkpt lat="43.33716" lon="5.68956">
        <ele>601</ele>
        <time>2019-01-18T11:21:08.000Z</time>
      </trkpt>
      <trkpt lat="43.33716" lon="5.68956">
        <ele>601</ele>
        <time>2019-01-18T11:21:09.000Z</time>
      </trkpt>
      <trkpt lat="43.33716" lon="5.68956">
        <ele>601</ele>
        <time>2019-01-18T11:21:10.000Z</time>
      </trkpt>
      <trkpt lat="43.33716" lon="5.68956">
        <ele>601</ele>
        <time>2019-01-18T11:21:11.000Z</time>
      </trkpt>
      <trkpt lat="43.33716" lon="5.68956">
        <ele>601</ele>
        <time>2019-01-18T11:21:12.000Z</time>
      </trkpt>
      <trkpt lat="43.33716" lon="5.68956">
        <ele>601</ele>
        <time>2019-01-18T11:21:13.000Z</time>
      </trkpt>
      <trkpt lat="43.33716" lon="5.68956">
        <ele>601</ele>
        <time>2019-01-18T11:21:14.000Z</time>
      </trkpt>
      <trkpt lat="43.33716" lon="5.68956">
        <ele>601</ele>
        <time>2019-01-18T11:21:15.000Z</time>
      </trkpt>
      <trkpt lat="43.33716" lon="5.68956">
        <ele>601</ele>
        <time>2019-01-18T11:21:16.000Z</time>
      </trkpt>
      <trkpt lat="43.33716" lon="5.68956">
        <ele>601</ele>
        <time>2019-01-18T11:21:17.000Z</time>
      </trkpt>
      <trkpt lat="43.33716" lon="5.68956">
        <ele>601</ele>
        <time>2019-01-18T11:21:18.000Z</time>
      </trkpt>
      <trkpt lat="43.33716" lon="5.68956">
        <ele>601</ele>
        <time>2019-01-18T11:21:19.000Z</time>
      </trkpt>
      <trkpt lat="43.33716" lon="5.68956">
        <ele>601</ele>
        <time>2019-01-18T11:21:20.000Z</time>
      </trkpt>
      <trkpt lat="43.33716" lon="5.68956">
        <ele>601</ele>
        <time>2019-01-18T11:21:21.000Z</time>
      </trkpt>
      <trkpt lat="43.33716" lon="5.68956">
        <ele>601</ele>
        <time>2019-01-18T11:21:22.000Z</time>
      </trkpt>
      <trkpt lat="43.33716" lon="5.68956">
        <ele>601</ele>
        <time>2019-01-18T11:21:23.000Z</time>
      </trkpt>
      <trkpt lat="43.33716" lon="5.68956">
        <ele>601</ele>
        <time>2019-01-18T11:21:24.000Z</time>
      </trkpt>
      <trkpt lat="43.33716" lon="5.68956">
        <ele>601</ele>
        <time>2019-01-18T11:21:25.000Z</time>
      </trkpt>
      <trkpt lat="43.33716" lon="5.68956">
        <ele>601</ele>
        <time>2019-01-18T11:21:26.000Z</time>
      </trkpt>
      <trkpt lat="43.33716" lon="5.68956">
        <ele>601</ele>
        <time>2019-01-18T11:21:27.000Z</time>
      </trkpt>
      <trkpt lat="43.33716" lon="5.68956">
        <ele>601</ele>
        <time>2019-01-18T11:21:28.000Z</time>
      </trkpt>
      <trkpt lat="43.33716" lon="5.68956">
        <ele>601</ele>
        <time>2019-01-18T11:21:29.000Z</time>
      </trkpt>
      <trkpt lat="43.33716" lon="5.68956">
        <ele>601</ele>
        <time>2019-01-18T11:21:30.000Z</time>
      </trkpt>
      <trkpt lat="43.33716" lon="5.68956">
        <ele>601</ele>
        <time>2019-01-18T11:21:31.000Z</time>
      </trkpt>
      <trkpt lat="43.33716" lon="5.68956">
        <ele>601</ele>
        <time>2019-01-18T11:21:32.000Z</time>
      </trkpt>
      <trkpt lat="43.33716" lon="5.68956">
        <ele>601</ele>
        <time>2019-01-18T11:21:33.000Z</time>
      </trkpt>
      <trkpt lat="43.33716" lon="5.68956">
        <ele>601</ele>
        <time>2019-01-18T11:21:34.000Z</time>
      </trkpt>
      <trkpt lat="43.33716" lon="5.68956">
        <ele>601</ele>
        <time>2019-01-18T11:21:35.000Z</time>
      </trkpt>
      <trkpt lat="43.33716" lon="5.68956">
        <ele>601</ele>
        <time>2019-01-18T11:21:36.000Z</time>
      </trkpt>
      <trkpt lat="43.33716" lon="5.68956">
        <ele>601</ele>
        <time>2019-01-18T11:21:37.000Z</time>
      </trkpt>
      <trkpt lat="43.33716" lon="5.68956">
        <ele>601</ele>
        <time>2019-01-18T11:21:38.000Z</time>
      </trkpt>
      <trkpt lat="43.33716" lon="5.68956">
        <ele>601</ele>
        <time>2019-01-18T11:21:39.000Z</time>
      </trkpt>
      <trkpt lat="43.33716" lon="5.68956">
        <ele>601</ele>
        <time>2019-01-18T11:21:40.000Z</time>
      </trkpt>
      <trkpt lat="43.33716" lon="5.68956">
        <ele>601</ele>
        <time>2019-01-18T11:21:41.000Z</time>
      </trkpt>
      <trkpt lat="43.33716" lon="5.68956">
        <ele>601</ele>
        <time>2019-01-18T11:21:42.000Z</time>
      </trkpt>
      <trkpt lat="43.33716" lon="5.68956">
        <ele>601</ele>
        <time>2019-01-18T11:21:43.000Z</time>
      </trkpt>
      <trkpt lat="43.33716" lon="5.68956">
        <ele>601</ele>
        <time>2019-01-18T11:21:44.000Z</time>
      </trkpt>
      <trkpt lat="43.33716" lon="5.68956">
        <ele>601</ele>
        <time>2019-01-18T11:21:45.000Z</time>
      </trkpt>
      <trkpt lat="43.33716" lon="5.68956">
        <ele>601</ele>
        <time>2019-01-18T11:21:46.000Z</time>
      </trkpt>
      <trkpt lat="43.33716" lon="5.68956">
        <ele>601</ele>
        <time>2019-01-18T11:21:47.000Z</time>
      </trkpt>
      <trkpt lat="43.33716" lon="5.68956">
        <ele>601</ele>
        <time>2019-01-18T11:21:48.000Z</time>
      </trkpt>
      <trkpt lat="43.33716" lon="5.68956">
        <ele>601</ele>
        <time>2019-01-18T11:21:49.000Z</time>
      </trkpt>
      <trkpt lat="43.33716" lon="5.68956">
        <ele>601</ele>
        <time>2019-01-18T11:21:50.000Z</time>
      </trkpt>
      <trkpt lat="43.33716" lon="5.68956">
        <ele>601</ele>
        <time>2019-01-18T11:21:51.000Z</time>
      </trkpt>
      <trkpt lat="43.33716" lon="5.68956">
        <ele>601</ele>
        <time>2019-01-18T11:21:52.000Z</time>
      </trkpt>
      <trkpt lat="43.33716" lon="5.68956">
        <ele>601</ele>
        <time>2019-01-18T11:21:53.000Z</time>
      </trkpt>
      <trkpt lat="43.33716" lon="5.68956">
        <ele>601</ele>
        <time>2019-01-18T11:21:54.000Z</time>
      </trkpt>
      <trkpt lat="43.33716" lon="5.68956">
        <ele>601</ele>
        <time>2019-01-18T11:21:55.000Z</time>
      </trkpt>
      <trkpt lat="43.33716" lon="5.68956">
        <ele>601</ele>
        <time>2019-01-18T11:21:56.000Z</time>
      </trkpt>
      <trkpt lat="43.33716" lon="5.68956">
        <ele>601</ele>
        <time>2019-01-18T11:21:57.000Z</time>
      </trkpt>
      <trkpt lat="43.33716" lon="5.68956">
        <ele>601</ele>
        <time>2019-01-18T11:21:58.000Z</time>
      </trkpt>
      <trkpt lat="43.33716" lon="5.68956">
        <ele>601</ele>
        <time>2019-01-18T11:21:59.000Z</time>
      </trkpt>
      <trkpt lat="43.33716" lon="5.68956">
        <ele>601</ele>
        <time>2019-01-18T11:22:00.000Z</time>
      </trkpt>
      <trkpt lat="43.33716" lon="5.68956">
        <ele>601</ele>
        <time>2019-01-18T11:22:01.000Z</time>
      </trkpt>
      <trkpt lat="43.33716" lon="5.68956">
        <ele>601</ele>
        <time>2019-01-18T11:22:02.000Z</time>
      </trkpt>
      <trkpt lat="43.33716" lon="5.68956">
        <ele>601</ele>
        <time>2019-01-18T11:22:03.000Z</time>
      </trkpt>
      <trkpt lat="43.33716" lon="5.68956">
        <ele>601</ele>
        <time>2019-01-18T11:22:04.000Z</time>
      </trkpt>
      <trkpt lat="43.33716" lon="5.68956">
        <ele>601</ele>
        <time>2019-01-18T11:22:05.000Z</time>
      </trkpt>
      <trkpt lat="43.33716" lon="5.68956">
        <ele>601</ele>
        <time>2019-01-18T11:22:06.000Z</time>
      </trkpt>
      <trkpt lat="43.33716" lon="5.68956">
        <ele>601</ele>
        <time>2019-01-18T11:22:07.000Z</time>
      </trkpt>
      <trkpt lat="43.33716" lon="5.68956">
        <ele>601</ele>
        <time>2019-01-18T11:22:08.000Z</time>
      </trkpt>
      <trkpt lat="43.33716" lon="5.68956">
        <ele>601</ele>
        <time>2019-01-18T11:22:09.000Z</time>
      </trkpt>
      <trkpt lat="43.33716" lon="5.68956">
        <ele>601</ele>
        <time>2019-01-18T11:22:10.000Z</time>
      </trkpt>
      <trkpt lat="43.33716" lon="5.68956">
        <ele>601</ele>
        <time>2019-01-18T11:22:11.000Z</time>
      </trkpt>
      <trkpt lat="43.33716" lon="5.68956">
        <ele>601</ele>
        <time>2019-01-18T11:22:12.000Z</time>
      </trkpt>
      <trkpt lat="43.33716" lon="5.68956">
        <ele>601</ele>
        <time>2019-01-18T11:22:13.000Z</time>
      </trkpt>
      <trkpt lat="43.33716" lon="5.68956">
        <ele>601</ele>
        <time>2019-01-18T11:22:14.000Z</time>
      </trkpt>
      <trkpt lat="43.33716" lon="5.68956">
        <ele>601</ele>
        <time>2019-01-18T11:22:15.000Z</time>
      </trkpt>
      <trkpt lat="43.33716" lon="5.68956">
        <ele>601</ele>
        <time>2019-01-18T11:22:16.000Z</time>
      </trkpt>
      <trkpt lat="43.33715" lon="5.68956">
        <ele>601</ele>
        <time>2019-01-18T11:22:17.000Z</time>
      </trkpt>
      <trkpt lat="43.33715" lon="5.68956">
        <ele>601</ele>
        <time>2019-01-18T11:22:18.000Z</time>
      </trkpt>
      <trkpt lat="43.33715" lon="5.68956">
        <ele>601</ele>
        <time>2019-01-18T11:22:19.000Z</time>
      </trkpt>
      <trkpt lat="43.33715" lon="5.68956">
        <ele>601</ele>
        <time>2019-01-18T11:22:20.000Z</time>
      </trkpt>
      <trkpt lat="43.33715" lon="5.68956">
        <ele>601</ele>
        <time>2019-01-18T11:22:21.000Z</time>
      </trkpt>
      <trkpt lat="43.33715" lon="5.68956">
        <ele>601</ele>
        <time>2019-01-18T11:22:22.000Z</time>
      </trkpt>
      <trkpt lat="43.33715" lon="5.68956">
        <ele>601</ele>
        <time>2019-01-18T11:22:23.000Z</time>
      </trkpt>
      <trkpt lat="43.33715" lon="5.68956">
        <ele>601</ele>
        <time>2019-01-18T11:22:24.000Z</time>
      </trkpt>
      <trkpt lat="43.33715" lon="5.68956">
        <ele>601</ele>
        <time>2019-01-18T11:22:25.000Z</time>
      </trkpt>
      <trkpt lat="43.33715" lon="5.68956">
        <ele>601</ele>
        <time>2019-01-18T11:22:26.000Z</time>
      </trkpt>
      <trkpt lat="43.33715" lon="5.68956">
        <ele>601</ele>
        <time>2019-01-18T11:22:27.000Z</time>
      </trkpt>
      <trkpt lat="43.33715" lon="5.68956">
        <ele>601</ele>
        <time>2019-01-18T11:22:28.000Z</time>
      </trkpt>
      <trkpt lat="43.33715" lon="5.68956">
        <ele>601</ele>
        <time>2019-01-18T11:22:29.000Z</time>
      </trkpt>
      <trkpt lat="43.33715" lon="5.68956">
        <ele>601</ele>
        <time>2019-01-18T11:22:30.000Z</time>
      </trkpt>
      <trkpt lat="43.33715" lon="5.68956">
        <ele>601</ele>
        <time>2019-01-18T11:22:31.000Z</time>
      </trkpt>
      <trkpt lat="43.33715" lon="5.68956">
        <ele>601</ele>
        <time>2019-01-18T11:22:32.000Z</time>
      </trkpt>
      <trkpt lat="43.33715" lon="5.68956">
        <ele>601</ele>
        <time>2019-01-18T11:22:33.000Z</time>
      </trkpt>
      <trkpt lat="43.33715" lon="5.68956">
        <ele>601</ele>
        <time>2019-01-18T11:22:34.000Z</time>
      </trkpt>
      <trkpt lat="43.33715" lon="5.68956">
        <ele>601</ele>
        <time>2019-01-18T11:22:35.000Z</time>
      </trkpt>
      <trkpt lat="43.33715" lon="5.68956">
        <ele>601</ele>
        <time>2019-01-18T11:22:36.000Z</time>
      </trkpt>
      <trkpt lat="43.33715" lon="5.68956">
        <ele>601</ele>
        <time>2019-01-18T11:22:37.000Z</time>
      </trkpt>
      <trkpt lat="43.33715" lon="5.68956">
        <ele>601</ele>
        <time>2019-01-18T11:22:38.000Z</time>
      </trkpt>
      <trkpt lat="43.33715" lon="5.68956">
        <ele>601</ele>
        <time>2019-01-18T11:22:39.000Z</time>
      </trkpt>
      <trkpt lat="43.33715" lon="5.68956">
        <ele>601</ele>
        <time>2019-01-18T11:22:40.000Z</time>
      </trkpt>
      <trkpt lat="43.33715" lon="5.68956">
        <ele>601</ele>
        <time>2019-01-18T11:22:41.000Z</time>
      </trkpt>
      <trkpt lat="43.33715" lon="5.68956">
        <ele>602</ele>
        <time>2019-01-18T11:22:42.000Z</time>
      </trkpt>
      <trkpt lat="43.33715" lon="5.68956">
        <ele>602</ele>
        <time>2019-01-18T11:22:43.000Z</time>
      </trkpt>
      <trkpt lat="43.33715" lon="5.68956">
        <ele>602</ele>
        <time>2019-01-18T11:22:44.000Z</time>
      </trkpt>
      <trkpt lat="43.33715" lon="5.68956">
        <ele>602</ele>
        <time>2019-01-18T11:22:45.000Z</time>
      </trkpt>
      <trkpt lat="43.33715" lon="5.68956">
        <ele>602</ele>
        <time>2019-01-18T11:22:46.000Z</time>
      </trkpt>
      <trkpt lat="43.33715" lon="5.68956">
        <ele>602</ele>
        <time>2019-01-18T11:22:47.000Z</time>
      </trkpt>
      <trkpt lat="43.33715" lon="5.68956">
        <ele>602</ele>
        <time>2019-01-18T11:22:48.000Z</time>
      </trkpt>
      <trkpt lat="43.33715" lon="5.68956">
        <ele>602</ele>
        <time>2019-01-18T11:22:49.000Z</time>
      </trkpt>
      <trkpt lat="43.33715" lon="5.68956">
        <ele>602</ele>
        <time>2019-01-18T11:22:50.000Z</time>
      </trkpt>
      <trkpt lat="43.33715" lon="5.68956">
        <ele>602</ele>
        <time>2019-01-18T11:22:51.000Z</time>
      </trkpt>
      <trkpt lat="43.33715" lon="5.68956">
        <ele>602</ele>
        <time>2019-01-18T11:22:52.000Z</time>
      </trkpt>
      <trkpt lat="43.33715" lon="5.68956">
        <ele>602</ele>
        <time>2019-01-18T11:22:53.000Z</time>
      </trkpt>
      <trkpt lat="43.33715" lon="5.68956">
        <ele>602</ele>
        <time>2019-01-18T11:22:54.000Z</time>
      </trkpt>
      <trkpt lat="43.33715" lon="5.68956">
        <ele>602</ele>
        <time>2019-01-18T11:22:55.000Z</time>
      </trkpt>
      <trkpt lat="43.33715" lon="5.68956">
        <ele>602</ele>
        <time>2019-01-18T11:22:56.000Z</time>
      </trkpt>
      <trkpt lat="43.33715" lon="5.68956">
        <ele>602</ele>
        <time>2019-01-18T11:22:57.000Z</time>
      </trkpt>
      <trkpt lat="43.33715" lon="5.68956">
        <ele>602</ele>
        <time>2019-01-18T11:22:58.000Z</time>
      </trkpt>
      <trkpt lat="43.33715" lon="5.68956">
        <ele>602</ele>
        <time>2019-01-18T11:22:59.000Z</time>
      </trkpt>
      <trkpt lat="43.33715" lon="5.68956">
        <ele>602</ele>
        <time>2019-01-18T11:23:00.000Z</time>
      </trkpt>
      <trkpt lat="43.33715" lon="5.68956">
        <ele>602</ele>
        <time>2019-01-18T11:23:01.000Z</time>
      </trkpt>
      <trkpt lat="43.33715" lon="5.68956">
        <ele>602</ele>
        <time>2019-01-18T11:23:02.000Z</time>
      </trkpt>
      <trkpt lat="43.33715" lon="5.68956">
        <ele>602</ele>
        <time>2019-01-18T11:23:03.000Z</time>
      </trkpt>
      <trkpt lat="43.33715" lon="5.68956">
        <ele>602</ele>
        <time>2019-01-18T11:23:04.000Z</time>
      </trkpt>
      <trkpt lat="43.33715" lon="5.68956">
        <ele>602</ele>
        <time>2019-01-18T11:23:05.000Z</time>
      </trkpt>
      <trkpt lat="43.33715" lon="5.68956">
        <ele>602</ele>
        <time>2019-01-18T11:23:06.000Z</time>
      </trkpt>
      <trkpt lat="43.33715" lon="5.68956">
        <ele>602</ele>
        <time>2019-01-18T11:23:07.000Z</time>
      </trkpt>
      <trkpt lat="43.33715" lon="5.68956">
        <ele>602</ele>
        <time>2019-01-18T11:23:08.000Z</time>
      </trkpt>
      <trkpt lat="43.33715" lon="5.68956">
        <ele>602</ele>
        <time>2019-01-18T11:23:09.000Z</time>
      </trkpt>
      <trkpt lat="43.33715" lon="5.68956">
        <ele>602</ele>
        <time>2019-01-18T11:23:10.000Z</time>
      </trkpt>
      <trkpt lat="43.33715" lon="5.68956">
        <ele>602</ele>
        <time>2019-01-18T11:23:11.000Z</time>
      </trkpt>
      <trkpt lat="43.33715" lon="5.68956">
        <ele>602</ele>
        <time>2019-01-18T11:23:12.000Z</time>
      </trkpt>
      <trkpt lat="43.33715" lon="5.68956">
        <ele>602</ele>
        <time>2019-01-18T11:23:13.000Z</time>
      </trkpt>
      <trkpt lat="43.33715" lon="5.68956">
        <ele>602</ele>
        <time>2019-01-18T11:23:14.000Z</time>
      </trkpt>
      <trkpt lat="43.33715" lon="5.68956">
        <ele>602</ele>
        <time>2019-01-18T11:23:15.000Z</time>
      </trkpt>
      <trkpt lat="43.33715" lon="5.68956">
        <ele>602</ele>
        <time>2019-01-18T11:23:16.000Z</time>
      </trkpt>
      <trkpt lat="43.33716" lon="5.68956">
        <ele>602</ele>
        <time>2019-01-18T11:23:17.000Z</time>
      </trkpt>
      <trkpt lat="43.33716" lon="5.68956">
        <ele>602</ele>
        <time>2019-01-18T11:23:18.000Z</time>
      </trkpt>
      <trkpt lat="43.33716" lon="5.68956">
        <ele>602</ele>
        <time>2019-01-18T11:23:19.000Z</time>
      </trkpt>
      <trkpt lat="43.33717" lon="5.68957">
        <ele>602</ele>
        <time>2019-01-18T11:23:20.000Z</time>
      </trkpt>
      <trkpt lat="43.33717" lon="5.68957">
        <ele>602</ele>
        <time>2019-01-18T11:23:21.000Z</time>
      </trkpt>
      <trkpt lat="43.33718" lon="5.68957">
        <ele>602</ele>
        <time>2019-01-18T11:23:22.000Z</time>
      </trkpt>
      <trkpt lat="43.33718" lon="5.68957">
        <ele>602</ele>
        <time>2019-01-18T11:23:23.000Z</time>
      </trkpt>
      <trkpt lat="43.33718" lon="5.68958">
        <ele>603</ele>
        <time>2019-01-18T11:23:24.000Z</time>
      </trkpt>
      <trkpt lat="43.33719" lon="5.68958">
        <ele>603</ele>
        <time>2019-01-18T11:23:25.000Z</time>
      </trkpt>
      <trkpt lat="43.33719" lon="5.68957">
        <ele>603</ele>
        <time>2019-01-18T11:23:26.000Z</time>
      </trkpt>
      <trkpt lat="43.33719" lon="5.68957">
        <ele>603</ele>
        <time>2019-01-18T11:23:27.000Z</time>
      </trkpt>
      <trkpt lat="43.3372" lon="5.68957">
        <ele>603</ele>
        <time>2019-01-18T11:23:28.000Z</time>
      </trkpt>
      <trkpt lat="43.3372" lon="5.68957">
        <ele>603</ele>
        <time>2019-01-18T11:23:29.000Z</time>
      </trkpt>
      <trkpt lat="43.33721" lon="5.68957">
        <ele>603</ele>
        <time>2019-01-18T11:23:30.000Z</time>
      </trkpt>
      <trkpt lat="43.33721" lon="5.68957">
        <ele>603</ele>
        <time>2019-01-18T11:23:31.000Z</time>
      </trkpt>
      <trkpt lat="43.33721" lon="5.68958">
        <ele>603</ele>
        <time>2019-01-18T11:23:32.000Z</time>
      </trkpt>
      <trkpt lat="43.33721" lon="5.68959">
        <ele>603</ele>
        <time>2019-01-18T11:23:33.000Z</time>
      </trkpt>
      <trkpt lat="43.33721" lon="5.68959">
        <ele>603</ele>
        <time>2019-01-18T11:23:34.000Z</time>
      </trkpt>
      <trkpt lat="43.33721" lon="5.68959">
        <ele>603</ele>
        <time>2019-01-18T11:23:35.000Z</time>
      </trkpt>
      <trkpt lat="43.33722" lon="5.6896">
        <ele>603</ele>
        <time>2019-01-18T11:23:36.000Z</time>
      </trkpt>
      <trkpt lat="43.33722" lon="5.6896">
        <ele>603</ele>
        <time>2019-01-18T11:23:37.000Z</time>
      </trkpt>
      <trkpt lat="43.33722" lon="5.6896">
        <ele>603</ele>
        <time>2019-01-18T11:23:38.000Z</time>
      </trkpt>
      <trkpt lat="43.33722" lon="5.6896">
        <ele>604</ele>
        <time>2019-01-18T11:23:39.000Z</time>
      </trkpt>
      <trkpt lat="43.33722" lon="5.6896">
        <ele>604</ele>
        <time>2019-01-18T11:23:40.000Z</time>
      </trkpt>
      <trkpt lat="43.33723" lon="5.6896">
        <ele>604</ele>
        <time>2019-01-18T11:23:41.000Z</time>
      </trkpt>
      <trkpt lat="43.33723" lon="5.68961">
        <ele>604</ele>
        <time>2019-01-18T11:23:42.000Z</time>
      </trkpt>
      <trkpt lat="43.33723" lon="5.68961">
        <ele>604</ele>
        <time>2019-01-18T11:23:43.000Z</time>
      </trkpt>
      <trkpt lat="43.33723" lon="5.68961">
        <ele>604</ele>
        <time>2019-01-18T11:23:44.000Z</time>
      </trkpt>
      <trkpt lat="43.33723" lon="5.68961">
        <ele>604</ele>
        <time>2019-01-18T11:23:45.000Z</time>
      </trkpt>
      <trkpt lat="43.33723" lon="5.68961">
        <ele>604</ele>
        <time>2019-01-18T11:23:46.000Z</time>
      </trkpt>
      <trkpt lat="43.33724" lon="5.68961">
        <ele>605</ele>
        <time>2019-01-18T11:23:47.000Z</time>
      </trkpt>
      <trkpt lat="43.33724" lon="5.68961">
        <ele>605</ele>
        <time>2019-01-18T11:23:48.000Z</time>
      </trkpt>
      <trkpt lat="43.33725" lon="5.68961">
        <ele>605</ele>
        <time>2019-01-18T11:23:49.000Z</time>
      </trkpt>
      <trkpt lat="43.33725" lon="5.68962">
        <ele>605</ele>
        <time>2019-01-18T11:23:50.000Z</time>
      </trkpt>
      <trkpt lat="43.33725" lon="5.68962">
        <ele>605</ele>
        <time>2019-01-18T11:23:51.000Z</time>
      </trkpt>
      <trkpt lat="43.33724" lon="5.68962">
        <ele>605</ele>
        <time>2019-01-18T11:23:52.000Z</time>
      </trkpt>
      <trkpt lat="43.33724" lon="5.68963">
        <ele>606</ele>
        <time>2019-01-18T11:23:53.000Z</time>
      </trkpt>
      <trkpt lat="43.33724" lon="5.68963">
        <ele>606</ele>
        <time>2019-01-18T11:23:54.000Z</time>
      </trkpt>
      <trkpt lat="43.33725" lon="5.68964">
        <ele>606</ele>
        <time>2019-01-18T11:23:55.000Z</time>
      </trkpt>
      <trkpt lat="43.33725" lon="5.68964">
        <ele>606</ele>
        <time>2019-01-18T11:23:56.000Z</time>
      </trkpt>
      <trkpt lat="43.33725" lon="5.68964">
        <ele>607</ele>
        <time>2019-01-18T11:23:57.000Z</time>
      </trkpt>
      <trkpt lat="43.33726" lon="5.68965">
        <ele>607</ele>
        <time>2019-01-18T11:23:58.000Z</time>
      </trkpt>
      <trkpt lat="43.33726" lon="5.68965">
        <ele>607</ele>
        <time>2019-01-18T11:23:59.000Z</time>
      </trkpt>
      <trkpt lat="43.33726" lon="5.68965">
        <ele>608</ele>
        <time>2019-01-18T11:24:00.000Z</time>
      </trkpt>
      <trkpt lat="43.33726" lon="5.68966">
        <ele>608</ele>
        <time>2019-01-18T11:24:01.000Z</time>
      </trkpt>
      <trkpt lat="43.33726" lon="5.68966">
        <ele>608</ele>
        <time>2019-01-18T11:24:02.000Z</time>
      </trkpt>
      <trkpt lat="43.33726" lon="5.68966">
        <ele>608</ele>
        <time>2019-01-18T11:24:03.000Z</time>
      </trkpt>
      <trkpt lat="43.33726" lon="5.68966">
        <ele>608</ele>
        <time>2019-01-18T11:24:04.000Z</time>
      </trkpt>
      <trkpt lat="43.33727" lon="5.68967">
        <ele>609</ele>
        <time>2019-01-18T11:24:05.000Z</time>
      </trkpt>
      <trkpt lat="43.33727" lon="5.68967">
        <ele>609</ele>
        <time>2019-01-18T11:24:06.000Z</time>
      </trkpt>
      <trkpt lat="43.33727" lon="5.68968">
        <ele>609</ele>
        <time>2019-01-18T11:24:07.000Z</time>
      </trkpt>
      <trkpt lat="43.33727" lon="5.68968">
        <ele>609</ele>
        <time>2019-01-18T11:24:08.000Z</time>
      </trkpt>
      <trkpt lat="43.33727" lon="5.68969">
        <ele>609</ele>
        <time>2019-01-18T11:24:09.000Z</time>
      </trkpt>
      <trkpt lat="43.33728" lon="5.68969">
        <ele>610</ele>
        <time>2019-01-18T11:24:10.000Z</time>
      </trkpt>
      <trkpt lat="43.33728" lon="5.68969">
        <ele>610</ele>
        <time>2019-01-18T11:24:11.000Z</time>
      </trkpt>
      <trkpt lat="43.33729" lon="5.68969">
        <ele>610</ele>
        <time>2019-01-18T11:24:12.000Z</time>
      </trkpt>
      <trkpt lat="43.3373" lon="5.6897">
        <ele>610</ele>
        <time>2019-01-18T11:24:13.000Z</time>
      </trkpt>
      <trkpt lat="43.3373" lon="5.6897">
        <ele>610</ele>
        <time>2019-01-18T11:24:14.000Z</time>
      </trkpt>
      <trkpt lat="43.3373" lon="5.6897">
        <ele>610</ele>
        <time>2019-01-18T11:24:15.000Z</time>
      </trkpt>
      <trkpt lat="43.33731" lon="5.68971">
        <ele>611</ele>
        <time>2019-01-18T11:24:16.000Z</time>
      </trkpt>
      <trkpt lat="43.33731" lon="5.68971">
        <ele>611</ele>
        <time>2019-01-18T11:24:17.000Z</time>
      </trkpt>
      <trkpt lat="43.33732" lon="5.68972">
        <ele>611</ele>
        <time>2019-01-18T11:24:18.000Z</time>
      </trkpt>
      <trkpt lat="43.33732" lon="5.68972">
        <ele>611</ele>
        <time>2019-01-18T11:24:19.000Z</time>
      </trkpt>
      <trkpt lat="43.33733" lon="5.68972">
        <ele>611</ele>
        <time>2019-01-18T11:24:20.000Z</time>
      </trkpt>
      <trkpt lat="43.33733" lon="5.68973">
        <ele>612</ele>
        <time>2019-01-18T11:24:21.000Z</time>
      </trkpt>
      <trkpt lat="43.33733" lon="5.68973">
        <ele>612</ele>
        <time>2019-01-18T11:24:22.000Z</time>
      </trkpt>
      <trkpt lat="43.33733" lon="5.68974">
        <ele>612</ele>
        <time>2019-01-18T11:24:23.000Z</time>
      </trkpt>
      <trkpt lat="43.33733" lon="5.68974">
        <ele>612</ele>
        <time>2019-01-18T11:24:24.000Z</time>
      </trkpt>
      <trkpt lat="43.33733" lon="5.68975">
        <ele>612</ele>
        <time>2019-01-18T11:24:25.000Z</time>
      </trkpt>
      <trkpt lat="43.33733" lon="5.68976">
        <ele>612</ele>
        <time>2019-01-18T11:24:26.000Z</time>
      </trkpt>
      <trkpt lat="43.33733" lon="5.68976">
        <ele>612</ele>
        <time>2019-01-18T11:24:27.000Z</time>
      </trkpt>
      <trkpt lat="43.33733" lon="5.68976">
        <ele>612</ele>
        <time>2019-01-18T11:24:28.000Z</time>
      </trkpt>
      <trkpt lat="43.33733" lon="5.68976">
        <ele>612</ele>
        <time>2019-01-18T11:24:29.000Z</time>
      </trkpt>
      <trkpt lat="43.33733" lon="5.68976">
        <ele>612</ele>
        <time>2019-01-18T11:24:30.000Z</time>
      </trkpt>
      <trkpt lat="43.33733" lon="5.68977">
        <ele>612</ele>
        <time>2019-01-18T11:24:31.000Z</time>
      </trkpt>
      <trkpt lat="43.33733" lon="5.68977">
        <ele>612</ele>
        <time>2019-01-18T11:24:32.000Z</time>
      </trkpt>
      <trkpt lat="43.33733" lon="5.68978">
        <ele>612</ele>
        <time>2019-01-18T11:24:33.000Z</time>
      </trkpt>
      <trkpt lat="43.33733" lon="5.68978">
        <ele>612</ele>
        <time>2019-01-18T11:24:34.000Z</time>
      </trkpt>
      <trkpt lat="43.33733" lon="5.68979">
        <ele>612</ele>
        <time>2019-01-18T11:24:35.000Z</time>
      </trkpt>
      <trkpt lat="43.33733" lon="5.68979">
        <ele>612</ele>
        <time>2019-01-18T11:24:36.000Z</time>
      </trkpt>
      <trkpt lat="43.33734" lon="5.6898">
        <ele>613</ele>
        <time>2019-01-18T11:24:37.000Z</time>
      </trkpt>
      <trkpt lat="43.33734" lon="5.6898">
        <ele>613</ele>
        <time>2019-01-18T11:24:38.000Z</time>
      </trkpt>
      <trkpt lat="43.33735" lon="5.68981">
        <ele>613</ele>
        <time>2019-01-18T11:24:39.000Z</time>
      </trkpt>
      <trkpt lat="43.33736" lon="5.68982">
        <ele>613</ele>
        <time>2019-01-18T11:24:40.000Z</time>
      </trkpt>
      <trkpt lat="43.33736" lon="5.68982">
        <ele>613</ele>
        <time>2019-01-18T11:24:41.000Z</time>
      </trkpt>
      <trkpt lat="43.33737" lon="5.68983">
        <ele>613</ele>
        <time>2019-01-18T11:24:42.000Z</time>
      </trkpt>
      <trkpt lat="43.33737" lon="5.68983">
        <ele>613</ele>
        <time>2019-01-18T11:24:43.000Z</time>
      </trkpt>
      <trkpt lat="43.33738" lon="5.68984">
        <ele>614</ele>
        <time>2019-01-18T11:24:44.000Z</time>
      </trkpt>
      <trkpt lat="43.33738" lon="5.68984">
        <ele>614</ele>
        <time>2019-01-18T11:24:45.000Z</time>
      </trkpt>
      <trkpt lat="43.33739" lon="5.68985">
        <ele>614</ele>
        <time>2019-01-18T11:24:46.000Z</time>
      </trkpt>
      <trkpt lat="43.33739" lon="5.68985">
        <ele>614</ele>
        <time>2019-01-18T11:24:47.000Z</time>
      </trkpt>
      <trkpt lat="43.3374" lon="5.68986">
        <ele>615</ele>
        <time>2019-01-18T11:24:48.000Z</time>
      </trkpt>
      <trkpt lat="43.3374" lon="5.68986">
        <ele>615</ele>
        <time>2019-01-18T11:24:49.000Z</time>
      </trkpt>
      <trkpt lat="43.3374" lon="5.68986">
        <ele>615</ele>
        <time>2019-01-18T11:24:50.000Z</time>
      </trkpt>
      <trkpt lat="43.33741" lon="5.68987">
        <ele>615</ele>
        <time>2019-01-18T11:24:51.000Z</time>
      </trkpt>
      <trkpt lat="43.33741" lon="5.68987">
        <ele>615</ele>
        <time>2019-01-18T11:24:52.000Z</time>
      </trkpt>
      <trkpt lat="43.33742" lon="5.68987">
        <ele>616</ele>
        <time>2019-01-18T11:24:53.000Z</time>
      </trkpt>
      <trkpt lat="43.33743" lon="5.68988">
        <ele>616</ele>
        <time>2019-01-18T11:24:54.000Z</time>
      </trkpt>
      <trkpt lat="43.33743" lon="5.68989">
        <ele>616</ele>
        <time>2019-01-18T11:24:55.000Z</time>
      </trkpt>
      <trkpt lat="43.33744" lon="5.6899">
        <ele>616</ele>
        <time>2019-01-18T11:24:56.000Z</time>
      </trkpt>
      <trkpt lat="43.33744" lon="5.6899">
        <ele>616</ele>
        <time>2019-01-18T11:24:57.000Z</time>
      </trkpt>
      <trkpt lat="43.33745" lon="5.68991">
        <ele>616</ele>
        <time>2019-01-18T11:24:58.000Z</time>
      </trkpt>
      <trkpt lat="43.33745" lon="5.68992">
        <ele>617</ele>
        <time>2019-01-18T11:24:59.000Z</time>
      </trkpt>
      <trkpt lat="43.33745" lon="5.68992">
        <ele>617</ele>
        <time>2019-01-18T11:25:00.000Z</time>
      </trkpt>
      <trkpt lat="43.33745" lon="5.68993">
        <ele>617</ele>
        <time>2019-01-18T11:25:01.000Z</time>
      </trkpt>
      <trkpt lat="43.33745" lon="5.68993">
        <ele>617</ele>
        <time>2019-01-18T11:25:02.000Z</time>
      </trkpt>
      <trkpt lat="43.33745" lon="5.68993">
        <ele>617</ele>
        <time>2019-01-18T11:25:03.000Z</time>
      </trkpt>
      <trkpt lat="43.33746" lon="5.68993">
        <ele>617</ele>
        <time>2019-01-18T11:25:04.000Z</time>
      </trkpt>
      <trkpt lat="43.33746" lon="5.68994">
        <ele>618</ele>
        <time>2019-01-18T11:25:05.000Z</time>
      </trkpt>
      <trkpt lat="43.33746" lon="5.68995">
        <ele>618</ele>
        <time>2019-01-18T11:25:06.000Z</time>
      </trkpt>
      <trkpt lat="43.33746" lon="5.68995">
        <ele>618</ele>
        <time>2019-01-18T11:25:07.000Z</time>
      </trkpt>
      <trkpt lat="43.33747" lon="5.68996">
        <ele>618</ele>
        <time>2019-01-18T11:25:08.000Z</time>
      </trkpt>
      <trkpt lat="43.33747" lon="5.68996">
        <ele>618</ele>
        <time>2019-01-18T11:25:09.000Z</time>
      </trkpt>
      <trkpt lat="43.33747" lon="5.68996">
        <ele>619</ele>
        <time>2019-01-18T11:25:10.000Z</time>
      </trkpt>
      <trkpt lat="43.33747" lon="5.68995">
        <ele>619</ele>
        <time>2019-01-18T11:25:11.000Z</time>
      </trkpt>
      <trkpt lat="43.33747" lon="5.68995">
        <ele>619</ele>
        <time>2019-01-18T11:25:12.000Z</time>
      </trkpt>
      <trkpt lat="43.33747" lon="5.68995">
        <ele>619</ele>
        <time>2019-01-18T11:25:13.000Z</time>
      </trkpt>
      <trkpt lat="43.33747" lon="5.68996">
        <ele>619</ele>
        <time>2019-01-18T11:25:14.000Z</time>
      </trkpt>
      <trkpt lat="43.33747" lon="5.68996">
        <ele>619</ele>
        <time>2019-01-18T11:25:15.000Z</time>
      </trkpt>
      <trkpt lat="43.33747" lon="5.68996">
        <ele>619</ele>
        <time>2019-01-18T11:25:16.000Z</time>
      </trkpt>
      <trkpt lat="43.33748" lon="5.68996">
        <ele>619</ele>
        <time>2019-01-18T11:25:17.000Z</time>
      </trkpt>
      <trkpt lat="43.33748" lon="5.68997">
        <ele>619</ele>
        <time>2019-01-18T11:25:18.000Z</time>
      </trkpt>
      <trkpt lat="43.33749" lon="5.68998">
        <ele>620</ele>
        <time>2019-01-18T11:25:19.000Z</time>
      </trkpt>
      <trkpt lat="43.33749" lon="5.68999">
        <ele>620</ele>
        <time>2019-01-18T11:25:20.000Z</time>
      </trkpt>
      <trkpt lat="43.3375" lon="5.69">
        <ele>620</ele>
        <time>2019-01-18T11:25:21.000Z</time>
      </trkpt>
      <trkpt lat="43.3375" lon="5.69001">
        <ele>620</ele>
        <time>2019-01-18T11:25:22.000Z</time>
      </trkpt>
      <trkpt lat="43.3375" lon="5.69002">
        <ele>620</ele>
        <time>2019-01-18T11:25:23.000Z</time>
      </trkpt>
      <trkpt lat="43.3375" lon="5.69003">
        <ele>621</ele>
        <time>2019-01-18T11:25:24.000Z</time>
      </trkpt>
      <trkpt lat="43.3375" lon="5.69003">
        <ele>621</ele>
        <time>2019-01-18T11:25:25.000Z</time>
      </trkpt>
      <trkpt lat="43.3375" lon="5.69003">
        <ele>621</ele>
        <time>2019-01-18T11:25:26.000Z</time>
      </trkpt>
      <trkpt lat="43.3375" lon="5.69003">
        <ele>621</ele>
        <time>2019-01-18T11:25:27.000Z</time>
      </trkpt>
      <trkpt lat="43.3375" lon="5.69003">
        <ele>621</ele>
        <time>2019-01-18T11:25:28.000Z</time>
      </trkpt>
      <trkpt lat="43.3375" lon="5.69003">
        <ele>621</ele>
        <time>2019-01-18T11:25:29.000Z</time>
      </trkpt>
      <trkpt lat="43.3375" lon="5.69003">
        <ele>621</ele>
        <time>2019-01-18T11:25:30.000Z</time>
      </trkpt>
      <trkpt lat="43.3375" lon="5.69003">
        <ele>621</ele>
        <time>2019-01-18T11:25:31.000Z</time>
      </trkpt>
      <trkpt lat="43.3375" lon="5.69003">
        <ele>621</ele>
        <time>2019-01-18T11:25:32.000Z</time>
      </trkpt>
      <trkpt lat="43.33751" lon="5.69004">
        <ele>621</ele>
        <time>2019-01-18T11:25:33.000Z</time>
      </trkpt>
      <trkpt lat="43.33751" lon="5.69004">
        <ele>622</ele>
        <time>2019-01-18T11:25:34.000Z</time>
      </trkpt>
      <trkpt lat="43.33752" lon="5.69005">
        <ele>622</ele>
        <time>2019-01-18T11:25:35.000Z</time>
      </trkpt>
      <trkpt lat="43.33752" lon="5.69006">
        <ele>622</ele>
        <time>2019-01-18T11:25:36.000Z</time>
      </trkpt>
      <trkpt lat="43.33752" lon="5.69006">
        <ele>622</ele>
        <time>2019-01-18T11:25:37.000Z</time>
      </trkpt>
      <trkpt lat="43.33752" lon="5.69007">
        <ele>622</ele>
        <time>2019-01-18T11:25:38.000Z</time>
      </trkpt>
      <trkpt lat="43.33753" lon="5.69007">
        <ele>622</ele>
        <time>2019-01-18T11:25:39.000Z</time>
      </trkpt>
      <trkpt lat="43.33753" lon="5.69008">
        <ele>622</ele>
        <time>2019-01-18T11:25:40.000Z</time>
      </trkpt>
      <trkpt lat="43.33753" lon="5.69008">
        <ele>622</ele>
        <time>2019-01-18T11:25:41.000Z</time>
      </trkpt>
      <trkpt lat="43.33753" lon="5.6901">
        <ele>623</ele>
        <time>2019-01-18T11:25:42.000Z</time>
      </trkpt>
      <trkpt lat="43.33753" lon="5.69011">
        <ele>623</ele>
        <time>2019-01-18T11:25:43.000Z</time>
      </trkpt>
      <trkpt lat="43.33753" lon="5.69012">
        <ele>623</ele>
        <time>2019-01-18T11:25:44.000Z</time>
      </trkpt>
      <trkpt lat="43.33753" lon="5.69013">
        <ele>623</ele>
        <time>2019-01-18T11:25:45.000Z</time>
      </trkpt>
      <trkpt lat="43.33754" lon="5.69014">
        <ele>623</ele>
        <time>2019-01-18T11:25:46.000Z</time>
      </trkpt>
      <trkpt lat="43.33754" lon="5.69015">
        <ele>623</ele>
        <time>2019-01-18T11:25:47.000Z</time>
      </trkpt>
      <trkpt lat="43.33754" lon="5.69016">
        <ele>623</ele>
        <time>2019-01-18T11:25:48.000Z</time>
      </trkpt>
      <trkpt lat="43.33755" lon="5.69017">
        <ele>623</ele>
        <time>2019-01-18T11:25:49.000Z</time>
      </trkpt>
      <trkpt lat="43.33755" lon="5.69018">
        <ele>623</ele>
        <time>2019-01-18T11:25:50.000Z</time>
      </trkpt>
      <trkpt lat="43.33755" lon="5.69019">
        <ele>623</ele>
        <time>2019-01-18T11:25:51.000Z</time>
      </trkpt>
      <trkpt lat="43.33755" lon="5.6902">
        <ele>623</ele>
        <time>2019-01-18T11:25:52.000Z</time>
      </trkpt>
      <trkpt lat="43.33756" lon="5.69021">
        <ele>623</ele>
        <time>2019-01-18T11:25:53.000Z</time>
      </trkpt>
      <trkpt lat="43.33756" lon="5.69022">
        <ele>622</ele>
        <time>2019-01-18T11:25:54.000Z</time>
      </trkpt>
      <trkpt lat="43.33756" lon="5.69023">
        <ele>622</ele>
        <time>2019-01-18T11:25:55.000Z</time>
      </trkpt>
      <trkpt lat="43.33756" lon="5.69024">
        <ele>622</ele>
        <time>2019-01-18T11:25:56.000Z</time>
      </trkpt>
      <trkpt lat="43.33757" lon="5.69025">
        <ele>622</ele>
        <time>2019-01-18T11:25:57.000Z</time>
      </trkpt>
      <trkpt lat="43.33757" lon="5.69026">
        <ele>622</ele>
        <time>2019-01-18T11:25:58.000Z</time>
      </trkpt>
      <trkpt lat="43.33757" lon="5.69028">
        <ele>622</ele>
        <time>2019-01-18T11:25:59.000Z</time>
      </trkpt>
      <trkpt lat="43.33757" lon="5.69029">
        <ele>622</ele>
        <time>2019-01-18T11:26:00.000Z</time>
      </trkpt>
      <trkpt lat="43.33757" lon="5.6903">
        <ele>622</ele>
        <time>2019-01-18T11:26:01.000Z</time>
      </trkpt>
      <trkpt lat="43.33758" lon="5.69032">
        <ele>622</ele>
        <time>2019-01-18T11:26:02.000Z</time>
      </trkpt>
      <trkpt lat="43.33758" lon="5.69033">
        <ele>622</ele>
        <time>2019-01-18T11:26:03.000Z</time>
      </trkpt>
      <trkpt lat="43.33758" lon="5.69034">
        <ele>622</ele>
        <time>2019-01-18T11:26:04.000Z</time>
      </trkpt>
      <trkpt lat="43.33758" lon="5.69036">
        <ele>622</ele>
        <time>2019-01-18T11:26:05.000Z</time>
      </trkpt>
      <trkpt lat="43.33758" lon="5.69038">
        <ele>622</ele>
        <time>2019-01-18T11:26:06.000Z</time>
      </trkpt>
      <trkpt lat="43.33758" lon="5.69039">
        <ele>622</ele>
        <time>2019-01-18T11:26:07.000Z</time>
      </trkpt>
      <trkpt lat="43.33759" lon="5.6904">
        <ele>622</ele>
        <time>2019-01-18T11:26:08.000Z</time>
      </trkpt>
      <trkpt lat="43.33759" lon="5.69041">
        <ele>622</ele>
        <time>2019-01-18T11:26:09.000Z</time>
      </trkpt>
      <trkpt lat="43.3376" lon="5.69043">
        <ele>622</ele>
        <time>2019-01-18T11:26:10.000Z</time>
      </trkpt>
      <trkpt lat="43.33761" lon="5.69044">
        <ele>622</ele>
        <time>2019-01-18T11:26:11.000Z</time>
      </trkpt>
      <trkpt lat="43.33761" lon="5.69045">
        <ele>622</ele>
        <time>2019-01-18T11:26:12.000Z</time>
      </trkpt>
      <trkpt lat="43.33762" lon="5.69046">
        <ele>622</ele>
        <time>2019-01-18T11:26:13.000Z</time>
      </trkpt>
      <trkpt lat="43.33762" lon="5.69047">
        <ele>622</ele>
        <time>2019-01-18T11:26:14.000Z</time>
      </trkpt>
      <trkpt lat="43.33763" lon="5.69048">
        <ele>622</ele>
        <time>2019-01-18T11:26:15.000Z</time>
      </trkpt>
      <trkpt lat="43.33763" lon="5.6905">
        <ele>622</ele>
        <time>2019-01-18T11:26:16.000Z</time>
      </trkpt>
      <trkpt lat="43.33763" lon="5.69051">
        <ele>622</ele>
        <time>2019-01-18T11:26:17.000Z</time>
      </trkpt>
      <trkpt lat="43.33763" lon="5.69053">
        <ele>622</ele>
        <time>2019-01-18T11:26:18.000Z</time>
      </trkpt>
      <trkpt lat="43.33762" lon="5.69054">
        <ele>622</ele>
        <time>2019-01-18T11:26:19.000Z</time>
      </trkpt>
      <trkpt lat="43.33762" lon="5.69056">
        <ele>622</ele>
        <time>2019-01-18T11:26:20.000Z</time>
      </trkpt>
      <trkpt lat="43.33762" lon="5.69057">
        <ele>622</ele>
        <time>2019-01-18T11:26:21.000Z</time>
      </trkpt>
      <trkpt lat="43.33762" lon="5.69059">
        <ele>622</ele>
        <time>2019-01-18T11:26:22.000Z</time>
      </trkpt>
      <trkpt lat="43.33762" lon="5.6906">
        <ele>622</ele>
        <time>2019-01-18T11:26:23.000Z</time>
      </trkpt>
      <trkpt lat="43.33763" lon="5.69061">
        <ele>622</ele>
        <time>2019-01-18T11:26:24.000Z</time>
      </trkpt>
      <trkpt lat="43.33763" lon="5.69062">
        <ele>622</ele>
        <time>2019-01-18T11:26:25.000Z</time>
      </trkpt>
      <trkpt lat="43.33764" lon="5.69063">
        <ele>622</ele>
        <time>2019-01-18T11:26:26.000Z</time>
      </trkpt>
      <trkpt lat="43.33764" lon="5.69065">
        <ele>621</ele>
        <time>2019-01-18T11:26:27.000Z</time>
      </trkpt>
      <trkpt lat="43.33765" lon="5.69066">
        <ele>621</ele>
        <time>2019-01-18T11:26:28.000Z</time>
      </trkpt>
      <trkpt lat="43.33765" lon="5.69067">
        <ele>621</ele>
        <time>2019-01-18T11:26:29.000Z</time>
      </trkpt>
      <trkpt lat="43.33766" lon="5.69068">
        <ele>621</ele>
        <time>2019-01-18T11:26:30.000Z</time>
      </trkpt>
      <trkpt lat="43.33767" lon="5.69069">
        <ele>621</ele>
        <time>2019-01-18T11:26:31.000Z</time>
      </trkpt>
      <trkpt lat="43.33768" lon="5.69071">
        <ele>621</ele>
        <time>2019-01-18T11:26:32.000Z</time>
      </trkpt>
      <trkpt lat="43.33769" lon="5.69071">
        <ele>621</ele>
        <time>2019-01-18T11:26:33.000Z</time>
      </trkpt>
      <trkpt lat="43.3377" lon="5.69072">
        <ele>621</ele>
        <time>2019-01-18T11:26:34.000Z</time>
      </trkpt>
      <trkpt lat="43.33771" lon="5.69073">
        <ele>621</ele>
        <time>2019-01-18T11:26:35.000Z</time>
      </trkpt>
      <trkpt lat="43.33771" lon="5.69074">
        <ele>621</ele>
        <time>2019-01-18T11:26:36.000Z</time>
      </trkpt>
      <trkpt lat="43.33772" lon="5.69075">
        <ele>621</ele>
        <time>2019-01-18T11:26:37.000Z</time>
      </trkpt>
      <trkpt lat="43.33772" lon="5.69077">
        <ele>621</ele>
        <time>2019-01-18T11:26:38.000Z</time>
      </trkpt>
      <trkpt lat="43.33773" lon="5.69078">
        <ele>621</ele>
        <time>2019-01-18T11:26:39.000Z</time>
      </trkpt>
      <trkpt lat="43.33774" lon="5.6908">
        <ele>621</ele>
        <time>2019-01-18T11:26:40.000Z</time>
      </trkpt>
      <trkpt lat="43.33774" lon="5.69081">
        <ele>621</ele>
        <time>2019-01-18T11:26:41.000Z</time>
      </trkpt>
      <trkpt lat="43.33774" lon="5.69082">
        <ele>621</ele>
        <time>2019-01-18T11:26:42.000Z</time>
      </trkpt>
      <trkpt lat="43.33774" lon="5.69083">
        <ele>622</ele>
        <time>2019-01-18T11:26:43.000Z</time>
      </trkpt>
      <trkpt lat="43.33774" lon="5.69084">
        <ele>622</ele>
        <time>2019-01-18T11:26:44.000Z</time>
      </trkpt>
      <trkpt lat="43.33775" lon="5.69085">
        <ele>622</ele>
        <time>2019-01-18T11:26:45.000Z</time>
      </trkpt>
      <trkpt lat="43.33775" lon="5.69086">
        <ele>622</ele>
        <time>2019-01-18T11:26:46.000Z</time>
      </trkpt>
      <trkpt lat="43.33776" lon="5.69087">
        <ele>622</ele>
        <time>2019-01-18T11:26:47.000Z</time>
      </trkpt>
      <trkpt lat="43.33776" lon="5.69088">
        <ele>622</ele>
        <time>2019-01-18T11:26:48.000Z</time>
      </trkpt>
      <trkpt lat="43.33777" lon="5.6909">
        <ele>622</ele>
        <time>2019-01-18T11:26:49.000Z</time>
      </trkpt>
      <trkpt lat="43.33777" lon="5.69091">
        <ele>622</ele>
        <time>2019-01-18T11:26:50.000Z</time>
      </trkpt>
      <trkpt lat="43.33777" lon="5.69092">
        <ele>622</ele>
        <time>2019-01-18T11:26:51.000Z</time>
      </trkpt>
      <trkpt lat="43.33777" lon="5.69093">
        <ele>622</ele>
        <time>2019-01-18T11:26:52.000Z</time>
      </trkpt>
      <trkpt lat="43.33777" lon="5.69094">
        <ele>622</ele>
        <time>2019-01-18T11:26:53.000Z</time>
      </trkpt>
      <trkpt lat="43.33777" lon="5.69096">
        <ele>622</ele>
        <time>2019-01-18T11:26:54.000Z</time>
      </trkpt>
      <trkpt lat="43.33777" lon="5.69097">
        <ele>622</ele>
        <time>2019-01-18T11:26:55.000Z</time>
      </trkpt>
      <trkpt lat="43.33777" lon="5.69098">
        <ele>622</ele>
        <time>2019-01-18T11:26:56.000Z</time>
      </trkpt>
      <trkpt lat="43.33778" lon="5.69099">
        <ele>622</ele>
        <time>2019-01-18T11:26:57.000Z</time>
      </trkpt>
      <trkpt lat="43.33779" lon="5.69099">
        <ele>622</ele>
        <time>2019-01-18T11:26:58.000Z</time>
      </trkpt>
      <trkpt lat="43.33779" lon="5.691">
        <ele>623</ele>
        <time>2019-01-18T11:26:59.000Z</time>
      </trkpt>
      <trkpt lat="43.33779" lon="5.69102">
        <ele>623</ele>
        <time>2019-01-18T11:27:00.000Z</time>
      </trkpt>
      <trkpt lat="43.33779" lon="5.69103">
        <ele>623</ele>
        <time>2019-01-18T11:27:01.000Z</time>
      </trkpt>
      <trkpt lat="43.33779" lon="5.69104">
        <ele>623</ele>
        <time>2019-01-18T11:27:02.000Z</time>
      </trkpt>
      <trkpt lat="43.33778" lon="5.69105">
        <ele>623</ele>
        <time>2019-01-18T11:27:03.000Z</time>
      </trkpt>
      <trkpt lat="43.33777" lon="5.69105">
        <ele>623</ele>
        <time>2019-01-18T11:27:04.000Z</time>
      </trkpt>
      <trkpt lat="43.33777" lon="5.69106">
        <ele>623</ele>
        <time>2019-01-18T11:27:05.000Z</time>
      </trkpt>
      <trkpt lat="43.33776" lon="5.69106">
        <ele>623</ele>
        <time>2019-01-18T11:27:06.000Z</time>
      </trkpt>
      <trkpt lat="43.33775" lon="5.69106">
        <ele>623</ele>
        <time>2019-01-18T11:27:07.000Z</time>
      </trkpt>
      <trkpt lat="43.33775" lon="5.69107">
        <ele>623</ele>
        <time>2019-01-18T11:27:08.000Z</time>
      </trkpt>
      <trkpt lat="43.33775" lon="5.69107">
        <ele>623</ele>
        <time>2019-01-18T11:27:09.000Z</time>
      </trkpt>
      <trkpt lat="43.33775" lon="5.69107">
        <ele>623</ele>
        <time>2019-01-18T11:27:10.000Z</time>
      </trkpt>
      <trkpt lat="43.33775" lon="5.69107">
        <ele>623</ele>
        <time>2019-01-18T11:27:11.000Z</time>
      </trkpt>
      <trkpt lat="43.33775" lon="5.69108">
        <ele>623</ele>
        <time>2019-01-18T11:27:12.000Z</time>
      </trkpt>
      <trkpt lat="43.33774" lon="5.69108">
        <ele>623</ele>
        <time>2019-01-18T11:27:13.000Z</time>
      </trkpt>
      <trkpt lat="43.33774" lon="5.69108">
        <ele>624</ele>
        <time>2019-01-18T11:27:14.000Z</time>
      </trkpt>
      <trkpt lat="43.33773" lon="5.69108">
        <ele>624</ele>
        <time>2019-01-18T11:27:15.000Z</time>
      </trkpt>
      <trkpt lat="43.33773" lon="5.69109">
        <ele>624</ele>
        <time>2019-01-18T11:27:16.000Z</time>
      </trkpt>
      <trkpt lat="43.33772" lon="5.6911">
        <ele>624</ele>
        <time>2019-01-18T11:27:17.000Z</time>
      </trkpt>
      <trkpt lat="43.33772" lon="5.69111">
        <ele>624</ele>
        <time>2019-01-18T11:27:18.000Z</time>
      </trkpt>
      <trkpt lat="43.33771" lon="5.69111">
        <ele>624</ele>
        <time>2019-01-18T11:27:19.000Z</time>
      </trkpt>
      <trkpt lat="43.33771" lon="5.69111">
        <ele>624</ele>
        <time>2019-01-18T11:27:20.000Z</time>
      </trkpt>
      <trkpt lat="43.33772" lon="5.69111">
        <ele>624</ele>
        <time>2019-01-18T11:27:21.000Z</time>
      </trkpt>
      <trkpt lat="43.33771" lon="5.69112">
        <ele>624</ele>
        <time>2019-01-18T11:27:22.000Z</time>
      </trkpt>
      <trkpt lat="43.33771" lon="5.69112">
        <ele>624</ele>
        <time>2019-01-18T11:27:23.000Z</time>
      </trkpt>
      <trkpt lat="43.33771" lon="5.69112">
        <ele>624</ele>
        <time>2019-01-18T11:27:24.000Z</time>
      </trkpt>
      <trkpt lat="43.33771" lon="5.69112">
        <ele>624</ele>
        <time>2019-01-18T11:27:25.000Z</time>
      </trkpt>
      <trkpt lat="43.33771" lon="5.69112">
        <ele>624</ele>
        <time>2019-01-18T11:27:26.000Z</time>
      </trkpt>
      <trkpt lat="43.33771" lon="5.69113">
        <ele>624</ele>
        <time>2019-01-18T11:27:27.000Z</time>
      </trkpt>
      <trkpt lat="43.33771" lon="5.69113">
        <ele>624</ele>
        <time>2019-01-18T11:27:28.000Z</time>
      </trkpt>
      <trkpt lat="43.33771" lon="5.69113">
        <ele>624</ele>
        <time>2019-01-18T11:27:29.000Z</time>
      </trkpt>
      <trkpt lat="43.33771" lon="5.69113">
        <ele>624</ele>
        <time>2019-01-18T11:27:30.000Z</time>
      </trkpt>
      <trkpt lat="43.33771" lon="5.69113">
        <ele>624</ele>
        <time>2019-01-18T11:27:31.000Z</time>
      </trkpt>
      <trkpt lat="43.3377" lon="5.69113">
        <ele>624</ele>
        <time>2019-01-18T11:27:32.000Z</time>
      </trkpt>
      <trkpt lat="43.3377" lon="5.69113">
        <ele>624</ele>
        <time>2019-01-18T11:27:33.000Z</time>
      </trkpt>
      <trkpt lat="43.3377" lon="5.69113">
        <ele>624</ele>
        <time>2019-01-18T11:27:34.000Z</time>
      </trkpt>
      <trkpt lat="43.33769" lon="5.69113">
        <ele>624</ele>
        <time>2019-01-18T11:27:35.000Z</time>
      </trkpt>
      <trkpt lat="43.33769" lon="5.69113">
        <ele>624</ele>
        <time>2019-01-18T11:27:36.000Z</time>
      </trkpt>
      <trkpt lat="43.33769" lon="5.69113">
        <ele>624</ele>
        <time>2019-01-18T11:27:37.000Z</time>
      </trkpt>
      <trkpt lat="43.33768" lon="5.69114">
        <ele>624</ele>
        <time>2019-01-18T11:27:38.000Z</time>
      </trkpt>
      <trkpt lat="43.33768" lon="5.69114">
        <ele>624</ele>
        <time>2019-01-18T11:27:39.000Z</time>
      </trkpt>
      <trkpt lat="43.33767" lon="5.69114">
        <ele>624</ele>
        <time>2019-01-18T11:27:40.000Z</time>
      </trkpt>
      <trkpt lat="43.33766" lon="5.69115">
        <ele>624</ele>
        <time>2019-01-18T11:27:41.000Z</time>
      </trkpt>
      <trkpt lat="43.33765" lon="5.69116">
        <ele>624</ele>
        <time>2019-01-18T11:27:42.000Z</time>
      </trkpt>
      <trkpt lat="43.33765" lon="5.69116">
        <ele>624</ele>
        <time>2019-01-18T11:27:43.000Z</time>
      </trkpt>
      <trkpt lat="43.33764" lon="5.69117">
        <ele>624</ele>
        <time>2019-01-18T11:27:44.000Z</time>
      </trkpt>
      <trkpt lat="43.33763" lon="5.69117">
        <ele>624</ele>
        <time>2019-01-18T11:27:45.000Z</time>
      </trkpt>
      <trkpt lat="43.33763" lon="5.69118">
        <ele>624</ele>
        <time>2019-01-18T11:27:46.000Z</time>
      </trkpt>
      <trkpt lat="43.33762" lon="5.69119">
        <ele>624</ele>
        <time>2019-01-18T11:27:47.000Z</time>
      </trkpt>
      <trkpt lat="43.33761" lon="5.69119">
        <ele>624</ele>
        <time>2019-01-18T11:27:48.000Z</time>
      </trkpt>
      <trkpt lat="43.33761" lon="5.6912">
        <ele>624</ele>
        <time>2019-01-18T11:27:49.000Z</time>
      </trkpt>
      <trkpt lat="43.33761" lon="5.69121">
        <ele>624</ele>
        <time>2019-01-18T11:27:50.000Z</time>
      </trkpt>
      <trkpt lat="43.3376" lon="5.69121">
        <ele>624</ele>
        <time>2019-01-18T11:27:51.000Z</time>
      </trkpt>
      <trkpt lat="43.33759" lon="5.69122">
        <ele>624</ele>
        <time>2019-01-18T11:27:52.000Z</time>
      </trkpt>
      <trkpt lat="43.33759" lon="5.69123">
        <ele>624</ele>
        <time>2019-01-18T11:27:53.000Z</time>
      </trkpt>
      <trkpt lat="43.33759" lon="5.69123">
        <ele>624</ele>
        <time>2019-01-18T11:27:54.000Z</time>
      </trkpt>
      <trkpt lat="43.33758" lon="5.69124">
        <ele>624</ele>
        <time>2019-01-18T11:27:55.000Z</time>
      </trkpt>
      <trkpt lat="43.33758" lon="5.69125">
        <ele>624</ele>
        <time>2019-01-18T11:27:56.000Z</time>
      </trkpt>
      <trkpt lat="43.33757" lon="5.69125">
        <ele>624</ele>
        <time>2019-01-18T11:27:57.000Z</time>
      </trkpt>
      <trkpt lat="43.33757" lon="5.69126">
        <ele>624</ele>
        <time>2019-01-18T11:27:58.000Z</time>
      </trkpt>
      <trkpt lat="43.33756" lon="5.69127">
        <ele>624</ele>
        <time>2019-01-18T11:27:59.000Z</time>
      </trkpt>
      <trkpt lat="43.33756" lon="5.69128">
        <ele>624</ele>
        <time>2019-01-18T11:28:00.000Z</time>
      </trkpt>
      <trkpt lat="43.33756" lon="5.69128">
        <ele>624</ele>
        <time>2019-01-18T11:28:01.000Z</time>
      </trkpt>
      <trkpt lat="43.33755" lon="5.69129">
        <ele>624</ele>
        <time>2019-01-18T11:28:02.000Z</time>
      </trkpt>
      <trkpt lat="43.33755" lon="5.6913">
        <ele>625</ele>
        <time>2019-01-18T11:28:03.000Z</time>
      </trkpt>
      <trkpt lat="43.33755" lon="5.6913">
        <ele>625</ele>
        <time>2019-01-18T11:28:04.000Z</time>
      </trkpt>
      <trkpt lat="43.33755" lon="5.6913">
        <ele>625</ele>
        <time>2019-01-18T11:28:05.000Z</time>
      </trkpt>
      <trkpt lat="43.33754" lon="5.6913">
        <ele>625</ele>
        <time>2019-01-18T11:28:06.000Z</time>
      </trkpt>
      <trkpt lat="43.33754" lon="5.6913">
        <ele>625</ele>
        <time>2019-01-18T11:28:07.000Z</time>
      </trkpt>
      <trkpt lat="43.33754" lon="5.6913">
        <ele>625</ele>
        <time>2019-01-18T11:28:08.000Z</time>
      </trkpt>
      <trkpt lat="43.33754" lon="5.69131">
        <ele>625</ele>
        <time>2019-01-18T11:28:09.000Z</time>
      </trkpt>
      <trkpt lat="43.33754" lon="5.69131">
        <ele>625</ele>
        <time>2019-01-18T11:28:10.000Z</time>
      </trkpt>
      <trkpt lat="43.33754" lon="5.69132">
        <ele>625</ele>
        <time>2019-01-18T11:28:11.000Z</time>
      </trkpt>
      <trkpt lat="43.33754" lon="5.69133">
        <ele>625</ele>
        <time>2019-01-18T11:28:12.000Z</time>
      </trkpt>
      <trkpt lat="43.33753" lon="5.69133">
        <ele>625</ele>
        <time>2019-01-18T11:28:13.000Z</time>
      </trkpt>
      <trkpt lat="43.33753" lon="5.69133">
        <ele>625</ele>
        <time>2019-01-18T11:28:14.000Z</time>
      </trkpt>
      <trkpt lat="43.33752" lon="5.69133">
        <ele>625</ele>
        <time>2019-01-18T11:28:15.000Z</time>
      </trkpt>
      <trkpt lat="43.33751" lon="5.69133">
        <ele>624</ele>
        <time>2019-01-18T11:28:16.000Z</time>
      </trkpt>
      <trkpt lat="43.33751" lon="5.69134">
        <ele>624</ele>
        <time>2019-01-18T11:28:17.000Z</time>
      </trkpt>
      <trkpt lat="43.3375" lon="5.69134">
        <ele>624</ele>
        <time>2019-01-18T11:28:18.000Z</time>
      </trkpt>
      <trkpt lat="43.33748" lon="5.69135">
        <ele>624</ele>
        <time>2019-01-18T11:28:19.000Z</time>
      </trkpt>
      <trkpt lat="43.33748" lon="5.69135">
        <ele>624</ele>
        <time>2019-01-18T11:28:20.000Z</time>
      </trkpt>
      <trkpt lat="43.33747" lon="5.69136">
        <ele>624</ele>
        <time>2019-01-18T11:28:21.000Z</time>
      </trkpt>
      <trkpt lat="43.33747" lon="5.69136">
        <ele>624</ele>
        <time>2019-01-18T11:28:22.000Z</time>
      </trkpt>
      <trkpt lat="43.33746" lon="5.69137">
        <ele>624</ele>
        <time>2019-01-18T11:28:23.000Z</time>
      </trkpt>
      <trkpt lat="43.33746" lon="5.69137">
        <ele>624</ele>
        <time>2019-01-18T11:28:24.000Z</time>
      </trkpt>
      <trkpt lat="43.33745" lon="5.69137">
        <ele>624</ele>
        <time>2019-01-18T11:28:25.000Z</time>
      </trkpt>
      <trkpt lat="43.33745" lon="5.69138">
        <ele>624</ele>
        <time>2019-01-18T11:28:26.000Z</time>
      </trkpt>
      <trkpt lat="43.33745" lon="5.69138">
        <ele>624</ele>
        <time>2019-01-18T11:28:27.000Z</time>
      </trkpt>
      <trkpt lat="43.33745" lon="5.69139">
        <ele>625</ele>
        <time>2019-01-18T11:28:28.000Z</time>
      </trkpt>
      <trkpt lat="43.33744" lon="5.6914">
        <ele>625</ele>
        <time>2019-01-18T11:28:29.000Z</time>
      </trkpt>
      <trkpt lat="43.33743" lon="5.6914">
        <ele>625</ele>
        <time>2019-01-18T11:28:30.000Z</time>
      </trkpt>
      <trkpt lat="43.33743" lon="5.69141">
        <ele>625</ele>
        <time>2019-01-18T11:28:31.000Z</time>
      </trkpt>
      <trkpt lat="43.33743" lon="5.69141">
        <ele>625</ele>
        <time>2019-01-18T11:28:32.000Z</time>
      </trkpt>
      <trkpt lat="43.33743" lon="5.69141">
        <ele>625</ele>
        <time>2019-01-18T11:28:33.000Z</time>
      </trkpt>
      <trkpt lat="43.33743" lon="5.69141">
        <ele>625</ele>
        <time>2019-01-18T11:28:34.000Z</time>
      </trkpt>
      <trkpt lat="43.33743" lon="5.69141">
        <ele>625</ele>
        <time>2019-01-18T11:28:35.000Z</time>
      </trkpt>
      <trkpt lat="43.33743" lon="5.69141">
        <ele>625</ele>
        <time>2019-01-18T11:28:36.000Z</time>
      </trkpt>
      <trkpt lat="43.33742" lon="5.69141">
        <ele>625</ele>
        <time>2019-01-18T11:28:37.000Z</time>
      </trkpt>
      <trkpt lat="43.33741" lon="5.69142">
        <ele>625</ele>
        <time>2019-01-18T11:28:38.000Z</time>
      </trkpt>
      <trkpt lat="43.33741" lon="5.69142">
        <ele>625</ele>
        <time>2019-01-18T11:28:39.000Z</time>
      </trkpt>
      <trkpt lat="43.3374" lon="5.69143">
        <ele>625</ele>
        <time>2019-01-18T11:28:40.000Z</time>
      </trkpt>
      <trkpt lat="43.33739" lon="5.69144">
        <ele>625</ele>
        <time>2019-01-18T11:28:41.000Z</time>
      </trkpt>
      <trkpt lat="43.33739" lon="5.69145">
        <ele>625</ele>
        <time>2019-01-18T11:28:42.000Z</time>
      </trkpt>
      <trkpt lat="43.33738" lon="5.69145">
        <ele>625</ele>
        <time>2019-01-18T11:28:43.000Z</time>
      </trkpt>
      <trkpt lat="43.33737" lon="5.69146">
        <ele>625</ele>
        <time>2019-01-18T11:28:44.000Z</time>
      </trkpt>
      <trkpt lat="43.33736" lon="5.69146">
        <ele>625</ele>
        <time>2019-01-18T11:28:45.000Z</time>
      </trkpt>
      <trkpt lat="43.33736" lon="5.69147">
        <ele>625</ele>
        <time>2019-01-18T11:28:46.000Z</time>
      </trkpt>
      <trkpt lat="43.33735" lon="5.69148">
        <ele>625</ele>
        <time>2019-01-18T11:28:47.000Z</time>
      </trkpt>
      <trkpt lat="43.33734" lon="5.69149">
        <ele>625</ele>
        <time>2019-01-18T11:28:48.000Z</time>
      </trkpt>
      <trkpt lat="43.33733" lon="5.69149">
        <ele>625</ele>
        <time>2019-01-18T11:28:49.000Z</time>
      </trkpt>
      <trkpt lat="43.33732" lon="5.6915">
        <ele>625</ele>
        <time>2019-01-18T11:28:50.000Z</time>
      </trkpt>
      <trkpt lat="43.33731" lon="5.6915">
        <ele>625</ele>
        <time>2019-01-18T11:28:51.000Z</time>
      </trkpt>
      <trkpt lat="43.33731" lon="5.69151">
        <ele>625</ele>
        <time>2019-01-18T11:28:52.000Z</time>
      </trkpt>
      <trkpt lat="43.33731" lon="5.69151">
        <ele>625</ele>
        <time>2019-01-18T11:28:53.000Z</time>
      </trkpt>
      <trkpt lat="43.3373" lon="5.69151">
        <ele>625</ele>
        <time>2019-01-18T11:28:54.000Z</time>
      </trkpt>
      <trkpt lat="43.3373" lon="5.69151">
        <ele>625</ele>
        <time>2019-01-18T11:28:55.000Z</time>
      </trkpt>
      <trkpt lat="43.33729" lon="5.69151">
        <ele>625</ele>
        <time>2019-01-18T11:28:56.000Z</time>
      </trkpt>
      <trkpt lat="43.33728" lon="5.69151">
        <ele>625</ele>
        <time>2019-01-18T11:28:57.000Z</time>
      </trkpt>
      <trkpt lat="43.33728" lon="5.69151">
        <ele>625</ele>
        <time>2019-01-18T11:28:58.000Z</time>
      </trkpt>
      <trkpt lat="43.33727" lon="5.69151">
        <ele>625</ele>
        <time>2019-01-18T11:28:59.000Z</time>
      </trkpt>
      <trkpt lat="43.33726" lon="5.6915">
        <ele>625</ele>
        <time>2019-01-18T11:29:00.000Z</time>
      </trkpt>
      <trkpt lat="43.33726" lon="5.6915">
        <ele>624</ele>
        <time>2019-01-18T11:29:01.000Z</time>
      </trkpt>
      <trkpt lat="43.33726" lon="5.69149">
        <ele>624</ele>
        <time>2019-01-18T11:29:02.000Z</time>
      </trkpt>
      <trkpt lat="43.33726" lon="5.69149">
        <ele>624</ele>
        <time>2019-01-18T11:29:03.000Z</time>
      </trkpt>
      <trkpt lat="43.33725" lon="5.69148">
        <ele>624</ele>
        <time>2019-01-18T11:29:04.000Z</time>
      </trkpt>
      <trkpt lat="43.33725" lon="5.69148">
        <ele>624</ele>
        <time>2019-01-18T11:29:05.000Z</time>
      </trkpt>
      <trkpt lat="43.33724" lon="5.69148">
        <ele>624</ele>
        <time>2019-01-18T11:29:06.000Z</time>
      </trkpt>
      <trkpt lat="43.33724" lon="5.69148">
        <ele>624</ele>
        <time>2019-01-18T11:29:07.000Z</time>
      </trkpt>
      <trkpt lat="43.33723" lon="5.69148">
        <ele>624</ele>
        <time>2019-01-18T11:29:08.000Z</time>
      </trkpt>
      <trkpt lat="43.33723" lon="5.69148">
        <ele>623</ele>
        <time>2019-01-18T11:29:09.000Z</time>
      </trkpt>
      <trkpt lat="43.33722" lon="5.69148">
        <ele>623</ele>
        <time>2019-01-18T11:29:10.000Z</time>
      </trkpt>
      <trkpt lat="43.33721" lon="5.69148">
        <ele>623</ele>
        <time>2019-01-18T11:29:11.000Z</time>
      </trkpt>
      <trkpt lat="43.33721" lon="5.69147">
        <ele>623</ele>
        <time>2019-01-18T11:29:12.000Z</time>
      </trkpt>
      <trkpt lat="43.3372" lon="5.69147">
        <ele>623</ele>
        <time>2019-01-18T11:29:13.000Z</time>
      </trkpt>
      <trkpt lat="43.3372" lon="5.69147">
        <ele>623</ele>
        <time>2019-01-18T11:29:14.000Z</time>
      </trkpt>
      <trkpt lat="43.3372" lon="5.69147">
        <ele>623</ele>
        <time>2019-01-18T11:29:15.000Z</time>
      </trkpt>
      <trkpt lat="43.3372" lon="5.69147">
        <ele>623</ele>
        <time>2019-01-18T11:29:16.000Z</time>
      </trkpt>
      <trkpt lat="43.3372" lon="5.69147">
        <ele>623</ele>
        <time>2019-01-18T11:29:17.000Z</time>
      </trkpt>
      <trkpt lat="43.3372" lon="5.69147">
        <ele>623</ele>
        <time>2019-01-18T11:29:18.000Z</time>
      </trkpt>
      <trkpt lat="43.33719" lon="5.69147">
        <ele>623</ele>
        <time>2019-01-18T11:29:19.000Z</time>
      </trkpt>
      <trkpt lat="43.33719" lon="5.69146">
        <ele>622</ele>
        <time>2019-01-18T11:29:20.000Z</time>
      </trkpt>
      <trkpt lat="43.33719" lon="5.69146">
        <ele>622</ele>
        <time>2019-01-18T11:29:21.000Z</time>
      </trkpt>
      <trkpt lat="43.33719" lon="5.69146">
        <ele>622</ele>
        <time>2019-01-18T11:29:22.000Z</time>
      </trkpt>
      <trkpt lat="43.33719" lon="5.69146">
        <ele>622</ele>
        <time>2019-01-18T11:29:23.000Z</time>
      </trkpt>
      <trkpt lat="43.33719" lon="5.69146">
        <ele>622</ele>
        <time>2019-01-18T11:29:24.000Z</time>
      </trkpt>
      <trkpt lat="43.33719" lon="5.69145">
        <ele>622</ele>
        <time>2019-01-18T11:29:25.000Z</time>
      </trkpt>
      <trkpt lat="43.33719" lon="5.69145">
        <ele>622</ele>
        <time>2019-01-18T11:29:26.000Z</time>
      </trkpt>
      <trkpt lat="43.33719" lon="5.69145">
        <ele>622</ele>
        <time>2019-01-18T11:29:27.000Z</time>
      </trkpt>
      <trkpt lat="43.33719" lon="5.69145">
        <ele>622</ele>
        <time>2019-01-18T11:29:28.000Z</time>
      </trkpt>
      <trkpt lat="43.33719" lon="5.69145">
        <ele>622</ele>
        <time>2019-01-18T11:29:29.000Z</time>
      </trkpt>
      <trkpt lat="43.33719" lon="5.69144">
        <ele>622</ele>
        <time>2019-01-18T11:29:30.000Z</time>
      </trkpt>
      <trkpt lat="43.33719" lon="5.69144">
        <ele>622</ele>
        <time>2019-01-18T11:29:31.000Z</time>
      </trkpt>
      <trkpt lat="43.33718" lon="5.69144">
        <ele>622</ele>
        <time>2019-01-18T11:29:32.000Z</time>
      </trkpt>
      <trkpt lat="43.33718" lon="5.69144">
        <ele>622</ele>
        <time>2019-01-18T11:29:33.000Z</time>
      </trkpt>
      <trkpt lat="43.33718" lon="5.69145">
        <ele>622</ele>
        <time>2019-01-18T11:29:34.000Z</time>
      </trkpt>
      <trkpt lat="43.33718" lon="5.69145">
        <ele>622</ele>
        <time>2019-01-18T11:29:35.000Z</time>
      </trkpt>
      <trkpt lat="43.33718" lon="5.69144">
        <ele>622</ele>
        <time>2019-01-18T11:29:36.000Z</time>
      </trkpt>
      <trkpt lat="43.33717" lon="5.69144">
        <ele>622</ele>
        <time>2019-01-18T11:29:37.000Z</time>
      </trkpt>
      <trkpt lat="43.33718" lon="5.69143">
        <ele>622</ele>
        <time>2019-01-18T11:29:38.000Z</time>
      </trkpt>
      <trkpt lat="43.33718" lon="5.69143">
        <ele>621</ele>
        <time>2019-01-18T11:29:39.000Z</time>
      </trkpt>
      <trkpt lat="43.33718" lon="5.69143">
        <ele>621</ele>
        <time>2019-01-18T11:29:40.000Z</time>
      </trkpt>
      <trkpt lat="43.33718" lon="5.69142">
        <ele>621</ele>
        <time>2019-01-18T11:29:41.000Z</time>
      </trkpt>
      <trkpt lat="43.33718" lon="5.69142">
        <ele>621</ele>
        <time>2019-01-18T11:29:42.000Z</time>
      </trkpt>
      <trkpt lat="43.33718" lon="5.69142">
        <ele>621</ele>
        <time>2019-01-18T11:29:43.000Z</time>
      </trkpt>
      <trkpt lat="43.33718" lon="5.69141">
        <ele>621</ele>
        <time>2019-01-18T11:29:44.000Z</time>
      </trkpt>
      <trkpt lat="43.33718" lon="5.69141">
        <ele>621</ele>
        <time>2019-01-18T11:29:45.000Z</time>
      </trkpt>
      <trkpt lat="43.33718" lon="5.6914">
        <ele>620</ele>
        <time>2019-01-18T11:29:46.000Z</time>
      </trkpt>
      <trkpt lat="43.33718" lon="5.69139">
        <ele>620</ele>
        <time>2019-01-18T11:29:47.000Z</time>
      </trkpt>
      <trkpt lat="43.33717" lon="5.69139">
        <ele>620</ele>
        <time>2019-01-18T11:29:48.000Z</time>
      </trkpt>
      <trkpt lat="43.33717" lon="5.69139">
        <ele>620</ele>
        <time>2019-01-18T11:29:49.000Z</time>
      </trkpt>
      <trkpt lat="43.33716" lon="5.6914">
        <ele>619</ele>
        <time>2019-01-18T11:29:50.000Z</time>
      </trkpt>
      <trkpt lat="43.33716" lon="5.6914">
        <ele>619</ele>
        <time>2019-01-18T11:29:51.000Z</time>
      </trkpt>
      <trkpt lat="43.33715" lon="5.6914">
        <ele>619</ele>
        <time>2019-01-18T11:29:52.000Z</time>
      </trkpt>
      <trkpt lat="43.33714" lon="5.69141">
        <ele>619</ele>
        <time>2019-01-18T11:29:53.000Z</time>
      </trkpt>
      <trkpt lat="43.33713" lon="5.69141">
        <ele>619</ele>
        <time>2019-01-18T11:29:54.000Z</time>
      </trkpt>
      <trkpt lat="43.33713" lon="5.69142">
        <ele>618</ele>
        <time>2019-01-18T11:29:55.000Z</time>
      </trkpt>
      <trkpt lat="43.33713" lon="5.69143">
        <ele>618</ele>
        <time>2019-01-18T11:29:56.000Z</time>
      </trkpt>
      <trkpt lat="43.33712" lon="5.69144">
        <ele>618</ele>
        <time>2019-01-18T11:29:57.000Z</time>
      </trkpt>
      <trkpt lat="43.33712" lon="5.69145">
        <ele>618</ele>
        <time>2019-01-18T11:29:58.000Z</time>
      </trkpt>
      <trkpt lat="43.33711" lon="5.69146">
        <ele>618</ele>
        <time>2019-01-18T11:29:59.000Z</time>
      </trkpt>
      <trkpt lat="43.3371" lon="5.69146">
        <ele>618</ele>
        <time>2019-01-18T11:30:00.000Z</time>
      </trkpt>
      <trkpt lat="43.3371" lon="5.69146">
        <ele>618</ele>
        <time>2019-01-18T11:30:01.000Z</time>
      </trkpt>
      <trkpt lat="43.33709" lon="5.69147">
        <ele>618</ele>
        <time>2019-01-18T11:30:02.000Z</time>
      </trkpt>
      <trkpt lat="43.33709" lon="5.69147">
        <ele>617</ele>
        <time>2019-01-18T11:30:03.000Z</time>
      </trkpt>
      <trkpt lat="43.33709" lon="5.69148">
        <ele>617</ele>
        <time>2019-01-18T11:30:04.000Z</time>
      </trkpt>
      <trkpt lat="43.33709" lon="5.69149">
        <ele>617</ele>
        <time>2019-01-18T11:30:05.000Z</time>
      </trkpt>
      <trkpt lat="43.33709" lon="5.69149">
        <ele>617</ele>
        <time>2019-01-18T11:30:06.000Z</time>
      </trkpt>
      <trkpt lat="43.33709" lon="5.69149">
        <ele>617</ele>
        <time>2019-01-18T11:30:07.000Z</time>
      </trkpt>
      <trkpt lat="43.33708" lon="5.6915">
        <ele>617</ele>
        <time>2019-01-18T11:30:08.000Z</time>
      </trkpt>
      <trkpt lat="43.33708" lon="5.6915">
        <ele>617</ele>
        <time>2019-01-18T11:30:09.000Z</time>
      </trkpt>
      <trkpt lat="43.33708" lon="5.6915">
        <ele>617</ele>
        <time>2019-01-18T11:30:10.000Z</time>
      </trkpt>
      <trkpt lat="43.33707" lon="5.6915">
        <ele>617</ele>
        <time>2019-01-18T11:30:11.000Z</time>
      </trkpt>
      <trkpt lat="43.33707" lon="5.6915">
        <ele>617</ele>
        <time>2019-01-18T11:30:12.000Z</time>
      </trkpt>
      <trkpt lat="43.33707" lon="5.6915">
        <ele>617</ele>
        <time>2019-01-18T11:30:13.000Z</time>
      </trkpt>
      <trkpt lat="43.33707" lon="5.69151">
        <ele>617</ele>
        <time>2019-01-18T11:30:14.000Z</time>
      </trkpt>
      <trkpt lat="43.33707" lon="5.69151">
        <ele>617</ele>
        <time>2019-01-18T11:30:15.000Z</time>
      </trkpt>
      <trkpt lat="43.33707" lon="5.69151">
        <ele>617</ele>
        <time>2019-01-18T11:30:16.000Z</time>
      </trkpt>
      <trkpt lat="43.33706" lon="5.69151">
        <ele>617</ele>
        <time>2019-01-18T11:30:17.000Z</time>
      </trkpt>
      <trkpt lat="43.33706" lon="5.69151">
        <ele>617</ele>
        <time>2019-01-18T11:30:18.000Z</time>
      </trkpt>
      <trkpt lat="43.33706" lon="5.69151">
        <ele>617</ele>
        <time>2019-01-18T11:30:19.000Z</time>
      </trkpt>
      <trkpt lat="43.33706" lon="5.69151">
        <ele>617</ele>
        <time>2019-01-18T11:30:20.000Z</time>
      </trkpt>
      <trkpt lat="43.33706" lon="5.69151">
        <ele>617</ele>
        <time>2019-01-18T11:30:21.000Z</time>
      </trkpt>
      <trkpt lat="43.33706" lon="5.69151">
        <ele>617</ele>
        <time>2019-01-18T11:30:22.000Z</time>
      </trkpt>
      <trkpt lat="43.33706" lon="5.69151">
        <ele>617</ele>
        <time>2019-01-18T11:30:23.000Z</time>
      </trkpt>
      <trkpt lat="43.33706" lon="5.69151">
        <ele>617</ele>
        <time>2019-01-18T11:30:24.000Z</time>
      </trkpt>
      <trkpt lat="43.33706" lon="5.69151">
        <ele>617</ele>
        <time>2019-01-18T11:30:25.000Z</time>
      </trkpt>
      <trkpt lat="43.33706" lon="5.69151">
        <ele>617</ele>
        <time>2019-01-18T11:30:26.000Z</time>
      </trkpt>
      <trkpt lat="43.33705" lon="5.69152">
        <ele>617</ele>
        <time>2019-01-18T11:30:27.000Z</time>
      </trkpt>
      <trkpt lat="43.33705" lon="5.69152">
        <ele>617</ele>
        <time>2019-01-18T11:30:28.000Z</time>
      </trkpt>
      <trkpt lat="43.33705" lon="5.69152">
        <ele>617</ele>
        <time>2019-01-18T11:30:29.000Z</time>
      </trkpt>
      <trkpt lat="43.33705" lon="5.69152">
        <ele>617</ele>
        <time>2019-01-18T11:30:30.000Z</time>
      </trkpt>
      <trkpt lat="43.33705" lon="5.69152">
        <ele>617</ele>
        <time>2019-01-18T11:30:31.000Z</time>
      </trkpt>
      <trkpt lat="43.33705" lon="5.69152">
        <ele>617</ele>
        <time>2019-01-18T11:30:32.000Z</time>
      </trkpt>
      <trkpt lat="43.33705" lon="5.69152">
        <ele>617</ele>
        <time>2019-01-18T11:30:33.000Z</time>
      </trkpt>
      <trkpt lat="43.33705" lon="5.69152">
        <ele>617</ele>
        <time>2019-01-18T11:30:34.000Z</time>
      </trkpt>
      <trkpt lat="43.33705" lon="5.69152">
        <ele>617</ele>
        <time>2019-01-18T11:30:35.000Z</time>
      </trkpt>
      <trkpt lat="43.33705" lon="5.69152">
        <ele>617</ele>
        <time>2019-01-18T11:30:36.000Z</time>
      </trkpt>
      <trkpt lat="43.33705" lon="5.69152">
        <ele>617</ele>
        <time>2019-01-18T11:30:37.000Z</time>
      </trkpt>
      <trkpt lat="43.33705" lon="5.69152">
        <ele>617</ele>
        <time>2019-01-18T11:30:38.000Z</time>
      </trkpt>
      <trkpt lat="43.33705" lon="5.69152">
        <ele>617</ele>
        <time>2019-01-18T11:30:39.000Z</time>
      </trkpt>
      <trkpt lat="43.33705" lon="5.69152">
        <ele>617</ele>
        <time>2019-01-18T11:30:40.000Z</time>
      </trkpt>
      <trkpt lat="43.33705" lon="5.69153">
        <ele>617</ele>
        <time>2019-01-18T11:30:41.000Z</time>
      </trkpt>
      <trkpt lat="43.33704" lon="5.69153">
        <ele>617</ele>
        <time>2019-01-18T11:30:42.000Z</time>
      </trkpt>
      <trkpt lat="43.33704" lon="5.69153">
        <ele>617</ele>
        <time>2019-01-18T11:30:43.000Z</time>
      </trkpt>
      <trkpt lat="43.33703" lon="5.69154">
        <ele>618</ele>
        <time>2019-01-18T11:30:44.000Z</time>
      </trkpt>
      <trkpt lat="43.33703" lon="5.69155">
        <ele>618</ele>
        <time>2019-01-18T11:30:45.000Z</time>
      </trkpt>
      <trkpt lat="43.33702" lon="5.69156">
        <ele>618</ele>
        <time>2019-01-18T11:30:46.000Z</time>
      </trkpt>
      <trkpt lat="43.33702" lon="5.69156">
        <ele>618</ele>
        <time>2019-01-18T11:30:47.000Z</time>
      </trkpt>
      <trkpt lat="43.33702" lon="5.69156">
        <ele>618</ele>
        <time>2019-01-18T11:30:48.000Z</time>
      </trkpt>
      <trkpt lat="43.33702" lon="5.69156">
        <ele>618</ele>
        <time>2019-01-18T11:30:49.000Z</time>
      </trkpt>
      <trkpt lat="43.33702" lon="5.69156">
        <ele>618</ele>
        <time>2019-01-18T11:30:50.000Z</time>
      </trkpt>
      <trkpt lat="43.33702" lon="5.69156">
        <ele>618</ele>
        <time>2019-01-18T11:30:51.000Z</time>
      </trkpt>
      <trkpt lat="43.33702" lon="5.69157">
        <ele>618</ele>
        <time>2019-01-18T11:30:52.000Z</time>
      </trkpt>
      <trkpt lat="43.33702" lon="5.69157">
        <ele>618</ele>
        <time>2019-01-18T11:30:53.000Z</time>
      </trkpt>
      <trkpt lat="43.33702" lon="5.69157">
        <ele>618</ele>
        <time>2019-01-18T11:30:54.000Z</time>
      </trkpt>
      <trkpt lat="43.33702" lon="5.69157">
        <ele>618</ele>
        <time>2019-01-18T11:30:55.000Z</time>
      </trkpt>
      <trkpt lat="43.33702" lon="5.69157">
        <ele>618</ele>
        <time>2019-01-18T11:30:56.000Z</time>
      </trkpt>
      <trkpt lat="43.33702" lon="5.69157">
        <ele>618</ele>
        <time>2019-01-18T11:30:57.000Z</time>
      </trkpt>
      <trkpt lat="43.33702" lon="5.69157">
        <ele>618</ele>
        <time>2019-01-18T11:30:58.000Z</time>
      </trkpt>
      <trkpt lat="43.33702" lon="5.69157">
        <ele>618</ele>
        <time>2019-01-18T11:30:59.000Z</time>
      </trkpt>
      <trkpt lat="43.33702" lon="5.69157">
        <ele>618</ele>
        <time>2019-01-18T11:31:00.000Z</time>
      </trkpt>
      <trkpt lat="43.33702" lon="5.69157">
        <ele>618</ele>
        <time>2019-01-18T11:31:01.000Z</time>
      </trkpt>
      <trkpt lat="43.33702" lon="5.69157">
        <ele>618</ele>
        <time>2019-01-18T11:31:02.000Z</time>
      </trkpt>
      <trkpt lat="43.33702" lon="5.69157">
        <ele>618</ele>
        <time>2019-01-18T11:31:03.000Z</time>
      </trkpt>
      <trkpt lat="43.33702" lon="5.69158">
        <ele>618</ele>
        <time>2019-01-18T11:31:04.000Z</time>
      </trkpt>
      <trkpt lat="43.33702" lon="5.69159">
        <ele>618</ele>
        <time>2019-01-18T11:31:05.000Z</time>
      </trkpt>
      <trkpt lat="43.33702" lon="5.6916">
        <ele>618</ele>
        <time>2019-01-18T11:31:06.000Z</time>
      </trkpt>
      <trkpt lat="43.33702" lon="5.69161">
        <ele>618</ele>
        <time>2019-01-18T11:31:07.000Z</time>
      </trkpt>
      <trkpt lat="43.33702" lon="5.69161">
        <ele>618</ele>
        <time>2019-01-18T11:31:08.000Z</time>
      </trkpt>
      <trkpt lat="43.33702" lon="5.69162">
        <ele>618</ele>
        <time>2019-01-18T11:31:09.000Z</time>
      </trkpt>
      <trkpt lat="43.33702" lon="5.69163">
        <ele>618</ele>
        <time>2019-01-18T11:31:10.000Z</time>
      </trkpt>
      <trkpt lat="43.33702" lon="5.69163">
        <ele>618</ele>
        <time>2019-01-18T11:31:11.000Z</time>
      </trkpt>
      <trkpt lat="43.33702" lon="5.69163">
        <ele>618</ele>
        <time>2019-01-18T11:31:12.000Z</time>
      </trkpt>
      <trkpt lat="43.33702" lon="5.69163">
        <ele>618</ele>
        <time>2019-01-18T11:31:13.000Z</time>
      </trkpt>
      <trkpt lat="43.33702" lon="5.69163">
        <ele>618</ele>
        <time>2019-01-18T11:31:14.000Z</time>
      </trkpt>
      <trkpt lat="43.33702" lon="5.69163">
        <ele>618</ele>
        <time>2019-01-18T11:31:15.000Z</time>
      </trkpt>
      <trkpt lat="43.33701" lon="5.69164">
        <ele>618</ele>
        <time>2019-01-18T11:31:16.000Z</time>
      </trkpt>
      <trkpt lat="43.33701" lon="5.69165">
        <ele>618</ele>
        <time>2019-01-18T11:31:17.000Z</time>
      </trkpt>
      <trkpt lat="43.337" lon="5.69166">
        <ele>618</ele>
        <time>2019-01-18T11:31:18.000Z</time>
      </trkpt>
      <trkpt lat="43.337" lon="5.69167">
        <ele>618</ele>
        <time>2019-01-18T11:31:19.000Z</time>
      </trkpt>
      <trkpt lat="43.337" lon="5.69168">
        <ele>618</ele>
        <time>2019-01-18T11:31:20.000Z</time>
      </trkpt>
      <trkpt lat="43.337" lon="5.69169">
        <ele>618</ele>
        <time>2019-01-18T11:31:21.000Z</time>
      </trkpt>
      <trkpt lat="43.337" lon="5.69169">
        <ele>618</ele>
        <time>2019-01-18T11:31:22.000Z</time>
      </trkpt>
      <trkpt lat="43.337" lon="5.6917">
        <ele>618</ele>
        <time>2019-01-18T11:31:23.000Z</time>
      </trkpt>
      <trkpt lat="43.33699" lon="5.69171">
        <ele>617</ele>
        <time>2019-01-18T11:31:24.000Z</time>
      </trkpt>
      <trkpt lat="43.33699" lon="5.69172">
        <ele>617</ele>
        <time>2019-01-18T11:31:25.000Z</time>
      </trkpt>
      <trkpt lat="43.33699" lon="5.69173">
        <ele>617</ele>
        <time>2019-01-18T11:31:26.000Z</time>
      </trkpt>
      <trkpt lat="43.33699" lon="5.69174">
        <ele>617</ele>
        <time>2019-01-18T11:31:27.000Z</time>
      </trkpt>
      <trkpt lat="43.33699" lon="5.69175">
        <ele>618</ele>
        <time>2019-01-18T11:31:28.000Z</time>
      </trkpt>
      <trkpt lat="43.33699" lon="5.69175">
        <ele>617</ele>
        <time>2019-01-18T11:31:29.000Z</time>
      </trkpt>
      <trkpt lat="43.33698" lon="5.69176">
        <ele>617</ele>
        <time>2019-01-18T11:31:30.000Z</time>
      </trkpt>
      <trkpt lat="43.33698" lon="5.69177">
        <ele>617</ele>
        <time>2019-01-18T11:31:31.000Z</time>
      </trkpt>
      <trkpt lat="43.33698" lon="5.69178">
        <ele>617</ele>
        <time>2019-01-18T11:31:32.000Z</time>
      </trkpt>
      <trkpt lat="43.33698" lon="5.69178">
        <ele>617</ele>
        <time>2019-01-18T11:31:33.000Z</time>
      </trkpt>
      <trkpt lat="43.33698" lon="5.69179">
        <ele>617</ele>
        <time>2019-01-18T11:31:34.000Z</time>
      </trkpt>
      <trkpt lat="43.33698" lon="5.6918">
        <ele>618</ele>
        <time>2019-01-18T11:31:35.000Z</time>
      </trkpt>
      <trkpt lat="43.33698" lon="5.69181">
        <ele>618</ele>
        <time>2019-01-18T11:31:36.000Z</time>
      </trkpt>
      <trkpt lat="43.33698" lon="5.69182">
        <ele>618</ele>
        <time>2019-01-18T11:31:37.000Z</time>
      </trkpt>
      <trkpt lat="43.33698" lon="5.69183">
        <ele>618</ele>
        <time>2019-01-18T11:31:38.000Z</time>
      </trkpt>
      <trkpt lat="43.33698" lon="5.69184">
        <ele>618</ele>
        <time>2019-01-18T11:31:39.000Z</time>
      </trkpt>
      <trkpt lat="43.33698" lon="5.69185">
        <ele>618</ele>
        <time>2019-01-18T11:31:40.000Z</time>
      </trkpt>
      <trkpt lat="43.33698" lon="5.69186">
        <ele>618</ele>
        <time>2019-01-18T11:31:41.000Z</time>
      </trkpt>
      <trkpt lat="43.33698" lon="5.69187">
        <ele>618</ele>
        <time>2019-01-18T11:31:42.000Z</time>
      </trkpt>
      <trkpt lat="43.33698" lon="5.69188">
        <ele>618</ele>
        <time>2019-01-18T11:31:43.000Z</time>
      </trkpt>
      <trkpt lat="43.33698" lon="5.6919">
        <ele>618</ele>
        <time>2019-01-18T11:31:44.000Z</time>
      </trkpt>
      <trkpt lat="43.33699" lon="5.69191">
        <ele>618</ele>
        <time>2019-01-18T11:31:45.000Z</time>
      </trkpt>
      <trkpt lat="43.33699" lon="5.69192">
        <ele>619</ele>
        <time>2019-01-18T11:31:46.000Z</time>
      </trkpt>
      <trkpt lat="43.33699" lon="5.69193">
        <ele>619</ele>
        <time>2019-01-18T11:31:47.000Z</time>
      </trkpt>
      <trkpt lat="43.33699" lon="5.69194">
        <ele>619</ele>
        <time>2019-01-18T11:31:48.000Z</time>
      </trkpt>
      <trkpt lat="43.33698" lon="5.69195">
        <ele>619</ele>
        <time>2019-01-18T11:31:49.000Z</time>
      </trkpt>
      <trkpt lat="43.33698" lon="5.69195">
        <ele>619</ele>
        <time>2019-01-18T11:31:50.000Z</time>
      </trkpt>
      <trkpt lat="43.33697" lon="5.69195">
        <ele>619</ele>
        <time>2019-01-18T11:31:51.000Z</time>
      </trkpt>
      <trkpt lat="43.33696" lon="5.69196">
        <ele>619</ele>
        <time>2019-01-18T11:31:52.000Z</time>
      </trkpt>
      <trkpt lat="43.33696" lon="5.69196">
        <ele>620</ele>
        <time>2019-01-18T11:31:53.000Z</time>
      </trkpt>
      <trkpt lat="43.33695" lon="5.69196">
        <ele>620</ele>
        <time>2019-01-18T11:31:54.000Z</time>
      </trkpt>
      <trkpt lat="43.33694" lon="5.69197">
        <ele>620</ele>
        <time>2019-01-18T11:31:55.000Z</time>
      </trkpt>
      <trkpt lat="43.33693" lon="5.69197">
        <ele>620</ele>
        <time>2019-01-18T11:31:56.000Z</time>
      </trkpt>
      <trkpt lat="43.33693" lon="5.69198">
        <ele>620</ele>
        <time>2019-01-18T11:31:57.000Z</time>
      </trkpt>
      <trkpt lat="43.33692" lon="5.69199">
        <ele>620</ele>
        <time>2019-01-18T11:31:58.000Z</time>
      </trkpt>
      <trkpt lat="43.33692" lon="5.692">
        <ele>621</ele>
        <time>2019-01-18T11:31:59.000Z</time>
      </trkpt>
      <trkpt lat="43.33691" lon="5.69202">
        <ele>621</ele>
        <time>2019-01-18T11:32:00.000Z</time>
      </trkpt>
      <trkpt lat="43.3369" lon="5.69203">
        <ele>621</ele>
        <time>2019-01-18T11:32:01.000Z</time>
      </trkpt>
      <trkpt lat="43.3369" lon="5.69204">
        <ele>621</ele>
        <time>2019-01-18T11:32:02.000Z</time>
      </trkpt>
      <trkpt lat="43.33689" lon="5.69205">
        <ele>621</ele>
        <time>2019-01-18T11:32:03.000Z</time>
      </trkpt>
      <trkpt lat="43.33688" lon="5.69206">
        <ele>621</ele>
        <time>2019-01-18T11:32:04.000Z</time>
      </trkpt>
      <trkpt lat="43.33688" lon="5.69207">
        <ele>621</ele>
        <time>2019-01-18T11:32:05.000Z</time>
      </trkpt>
      <trkpt lat="43.33687" lon="5.69209">
        <ele>621</ele>
        <time>2019-01-18T11:32:06.000Z</time>
      </trkpt>
      <trkpt lat="43.33686" lon="5.6921">
        <ele>621</ele>
        <time>2019-01-18T11:32:07.000Z</time>
      </trkpt>
      <trkpt lat="43.33686" lon="5.69211">
        <ele>621</ele>
        <time>2019-01-18T11:32:08.000Z</time>
      </trkpt>
      <trkpt lat="43.33685" lon="5.69212">
        <ele>621</ele>
        <time>2019-01-18T11:32:09.000Z</time>
      </trkpt>
      <trkpt lat="43.33684" lon="5.69213">
        <ele>621</ele>
        <time>2019-01-18T11:32:10.000Z</time>
      </trkpt>
      <trkpt lat="43.33683" lon="5.69214">
        <ele>622</ele>
        <time>2019-01-18T11:32:11.000Z</time>
      </trkpt>
      <trkpt lat="43.33683" lon="5.69215">
        <ele>622</ele>
        <time>2019-01-18T11:32:12.000Z</time>
      </trkpt>
      <trkpt lat="43.33682" lon="5.69216">
        <ele>622</ele>
        <time>2019-01-18T11:32:13.000Z</time>
      </trkpt>
      <trkpt lat="43.33681" lon="5.69217">
        <ele>622</ele>
        <time>2019-01-18T11:32:14.000Z</time>
      </trkpt>
      <trkpt lat="43.33681" lon="5.69218">
        <ele>622</ele>
        <time>2019-01-18T11:32:15.000Z</time>
      </trkpt>
      <trkpt lat="43.3368" lon="5.69219">
        <ele>622</ele>
        <time>2019-01-18T11:32:16.000Z</time>
      </trkpt>
      <trkpt lat="43.33679" lon="5.6922">
        <ele>622</ele>
        <time>2019-01-18T11:32:17.000Z</time>
      </trkpt>
      <trkpt lat="43.33679" lon="5.69222">
        <ele>622</ele>
        <time>2019-01-18T11:32:18.000Z</time>
      </trkpt>
      <trkpt lat="43.33678" lon="5.69223">
        <ele>622</ele>
        <time>2019-01-18T11:32:19.000Z</time>
      </trkpt>
      <trkpt lat="43.33678" lon="5.69225">
        <ele>622</ele>
        <time>2019-01-18T11:32:20.000Z</time>
      </trkpt>
      <trkpt lat="43.33677" lon="5.69226">
        <ele>622</ele>
        <time>2019-01-18T11:32:21.000Z</time>
      </trkpt>
      <trkpt lat="43.33677" lon="5.69227">
        <ele>622</ele>
        <time>2019-01-18T11:32:22.000Z</time>
      </trkpt>
      <trkpt lat="43.33676" lon="5.69229">
        <ele>623</ele>
        <time>2019-01-18T11:32:23.000Z</time>
      </trkpt>
      <trkpt lat="43.33675" lon="5.6923">
        <ele>623</ele>
        <time>2019-01-18T11:32:24.000Z</time>
      </trkpt>
      <trkpt lat="43.33675" lon="5.69231">
        <ele>623</ele>
        <time>2019-01-18T11:32:25.000Z</time>
      </trkpt>
      <trkpt lat="43.33674" lon="5.69232">
        <ele>623</ele>
        <time>2019-01-18T11:32:26.000Z</time>
      </trkpt>
      <trkpt lat="43.33674" lon="5.69234">
        <ele>623</ele>
        <time>2019-01-18T11:32:27.000Z</time>
      </trkpt>
      <trkpt lat="43.33674" lon="5.69235">
        <ele>623</ele>
        <time>2019-01-18T11:32:28.000Z</time>
      </trkpt>
      <trkpt lat="43.33674" lon="5.69237">
        <ele>623</ele>
        <time>2019-01-18T11:32:29.000Z</time>
      </trkpt>
      <trkpt lat="43.33673" lon="5.69238">
        <ele>623</ele>
        <time>2019-01-18T11:32:30.000Z</time>
      </trkpt>
      <trkpt lat="43.33672" lon="5.69239">
        <ele>623</ele>
        <time>2019-01-18T11:32:31.000Z</time>
      </trkpt>
      <trkpt lat="43.33672" lon="5.6924">
        <ele>623</ele>
        <time>2019-01-18T11:32:32.000Z</time>
      </trkpt>
      <trkpt lat="43.33671" lon="5.6924">
        <ele>623</ele>
        <time>2019-01-18T11:32:33.000Z</time>
      </trkpt>
      <trkpt lat="43.33671" lon="5.69241">
        <ele>623</ele>
        <time>2019-01-18T11:32:34.000Z</time>
      </trkpt>
      <trkpt lat="43.3367" lon="5.69242">
        <ele>623</ele>
        <time>2019-01-18T11:32:35.000Z</time>
      </trkpt>
      <trkpt lat="43.3367" lon="5.69242">
        <ele>623</ele>
        <time>2019-01-18T11:32:36.000Z</time>
      </trkpt>
      <trkpt lat="43.33669" lon="5.69243">
        <ele>623</ele>
        <time>2019-01-18T11:32:37.000Z</time>
      </trkpt>
      <trkpt lat="43.33669" lon="5.69244">
        <ele>624</ele>
        <time>2019-01-18T11:32:38.000Z</time>
      </trkpt>
      <trkpt lat="43.33668" lon="5.69245">
        <ele>624</ele>
        <time>2019-01-18T11:32:39.000Z</time>
      </trkpt>
      <trkpt lat="43.33668" lon="5.69247">
        <ele>624</ele>
        <time>2019-01-18T11:32:40.000Z</time>
      </trkpt>
      <trkpt lat="43.33668" lon="5.69248">
        <ele>624</ele>
        <time>2019-01-18T11:32:41.000Z</time>
      </trkpt>
      <trkpt lat="43.33668" lon="5.6925">
        <ele>624</ele>
        <time>2019-01-18T11:32:42.000Z</time>
      </trkpt>
      <trkpt lat="43.33668" lon="5.69251">
        <ele>624</ele>
        <time>2019-01-18T11:32:43.000Z</time>
      </trkpt>
      <trkpt lat="43.33668" lon="5.69252">
        <ele>624</ele>
        <time>2019-01-18T11:32:44.000Z</time>
      </trkpt>
      <trkpt lat="43.33668" lon="5.69254">
        <ele>624</ele>
        <time>2019-01-18T11:32:45.000Z</time>
      </trkpt>
      <trkpt lat="43.33668" lon="5.69256">
        <ele>624</ele>
        <time>2019-01-18T11:32:46.000Z</time>
      </trkpt>
      <trkpt lat="43.33667" lon="5.69257">
        <ele>624</ele>
        <time>2019-01-18T11:32:47.000Z</time>
      </trkpt>
      <trkpt lat="43.33667" lon="5.69259">
        <ele>624</ele>
        <time>2019-01-18T11:32:48.000Z</time>
      </trkpt>
      <trkpt lat="43.33667" lon="5.6926">
        <ele>624</ele>
        <time>2019-01-18T11:32:49.000Z</time>
      </trkpt>
      <trkpt lat="43.33667" lon="5.69261">
        <ele>624</ele>
        <time>2019-01-18T11:32:50.000Z</time>
      </trkpt>
      <trkpt lat="43.33667" lon="5.69263">
        <ele>624</ele>
        <time>2019-01-18T11:32:51.000Z</time>
      </trkpt>
      <trkpt lat="43.33667" lon="5.69263">
        <ele>625</ele>
        <time>2019-01-18T11:32:52.000Z</time>
      </trkpt>
      <trkpt lat="43.33666" lon="5.69264">
        <ele>625</ele>
        <time>2019-01-18T11:32:53.000Z</time>
      </trkpt>
      <trkpt lat="43.33666" lon="5.69266">
        <ele>625</ele>
        <time>2019-01-18T11:32:54.000Z</time>
      </trkpt>
      <trkpt lat="43.33665" lon="5.69266">
        <ele>625</ele>
        <time>2019-01-18T11:32:55.000Z</time>
      </trkpt>
      <trkpt lat="43.33665" lon="5.69267">
        <ele>625</ele>
        <time>2019-01-18T11:32:56.000Z</time>
      </trkpt>
      <trkpt lat="43.33665" lon="5.69268">
        <ele>626</ele>
        <time>2019-01-18T11:32:57.000Z</time>
      </trkpt>
      <trkpt lat="43.33664" lon="5.69268">
        <ele>626</ele>
        <time>2019-01-18T11:32:58.000Z</time>
      </trkpt>
      <trkpt lat="43.33664" lon="5.69268">
        <ele>626</ele>
        <time>2019-01-18T11:32:59.000Z</time>
      </trkpt>
      <trkpt lat="43.33663" lon="5.69269">
        <ele>626</ele>
        <time>2019-01-18T11:33:00.000Z</time>
      </trkpt>
      <trkpt lat="43.33663" lon="5.69269">
        <ele>626</ele>
        <time>2019-01-18T11:33:01.000Z</time>
      </trkpt>
      <trkpt lat="43.33663" lon="5.69269">
        <ele>626</ele>
        <time>2019-01-18T11:33:02.000Z</time>
      </trkpt>
      <trkpt lat="43.33663" lon="5.69269">
        <ele>626</ele>
        <time>2019-01-18T11:33:03.000Z</time>
      </trkpt>
      <trkpt lat="43.33662" lon="5.69269">
        <ele>626</ele>
        <time>2019-01-18T11:33:04.000Z</time>
      </trkpt>
      <trkpt lat="43.33662" lon="5.69269">
        <ele>626</ele>
        <time>2019-01-18T11:33:05.000Z</time>
      </trkpt>
      <trkpt lat="43.33662" lon="5.69269">
        <ele>626</ele>
        <time>2019-01-18T11:33:06.000Z</time>
      </trkpt>
      <trkpt lat="43.33662" lon="5.6927">
        <ele>626</ele>
        <time>2019-01-18T11:33:07.000Z</time>
      </trkpt>
      <trkpt lat="43.33661" lon="5.6927">
        <ele>626</ele>
        <time>2019-01-18T11:33:08.000Z</time>
      </trkpt>
      <trkpt lat="43.33661" lon="5.6927">
        <ele>626</ele>
        <time>2019-01-18T11:33:09.000Z</time>
      </trkpt>
      <trkpt lat="43.3366" lon="5.6927">
        <ele>627</ele>
        <time>2019-01-18T11:33:10.000Z</time>
      </trkpt>
      <trkpt lat="43.3366" lon="5.69271">
        <ele>626</ele>
        <time>2019-01-18T11:33:11.000Z</time>
      </trkpt>
      <trkpt lat="43.33659" lon="5.69271">
        <ele>626</ele>
        <time>2019-01-18T11:33:12.000Z</time>
      </trkpt>
      <trkpt lat="43.33658" lon="5.6927">
        <ele>627</ele>
        <time>2019-01-18T11:33:13.000Z</time>
      </trkpt>
      <trkpt lat="43.33658" lon="5.6927">
        <ele>627</ele>
        <time>2019-01-18T11:33:14.000Z</time>
      </trkpt>
      <trkpt lat="43.33657" lon="5.69271">
        <ele>627</ele>
        <time>2019-01-18T11:33:15.000Z</time>
      </trkpt>
      <trkpt lat="43.33657" lon="5.69271">
        <ele>627</ele>
        <time>2019-01-18T11:33:16.000Z</time>
      </trkpt>
      <trkpt lat="43.33656" lon="5.69272">
        <ele>627</ele>
        <time>2019-01-18T11:33:17.000Z</time>
      </trkpt>
      <trkpt lat="43.33656" lon="5.69273">
        <ele>627</ele>
        <time>2019-01-18T11:33:18.000Z</time>
      </trkpt>
      <trkpt lat="43.33656" lon="5.69274">
        <ele>627</ele>
        <time>2019-01-18T11:33:19.000Z</time>
      </trkpt>
      <trkpt lat="43.33655" lon="5.69275">
        <ele>627</ele>
        <time>2019-01-18T11:33:20.000Z</time>
      </trkpt>
      <trkpt lat="43.33654" lon="5.69276">
        <ele>627</ele>
        <time>2019-01-18T11:33:21.000Z</time>
      </trkpt>
      <trkpt lat="43.33654" lon="5.69277">
        <ele>627</ele>
        <time>2019-01-18T11:33:22.000Z</time>
      </trkpt>
      <trkpt lat="43.33653" lon="5.69277">
        <ele>626</ele>
        <time>2019-01-18T11:33:23.000Z</time>
      </trkpt>
      <trkpt lat="43.33652" lon="5.69278">
        <ele>627</ele>
        <time>2019-01-18T11:33:24.000Z</time>
      </trkpt>
      <trkpt lat="43.33652" lon="5.69278">
        <ele>627</ele>
        <time>2019-01-18T11:33:25.000Z</time>
      </trkpt>
      <trkpt lat="43.33651" lon="5.69279">
        <ele>627</ele>
        <time>2019-01-18T11:33:26.000Z</time>
      </trkpt>
      <trkpt lat="43.3365" lon="5.69279">
        <ele>626</ele>
        <time>2019-01-18T11:33:27.000Z</time>
      </trkpt>
      <trkpt lat="43.33649" lon="5.69279">
        <ele>626</ele>
        <time>2019-01-18T11:33:28.000Z</time>
      </trkpt>
      <trkpt lat="43.33649" lon="5.69279">
        <ele>626</ele>
        <time>2019-01-18T11:33:29.000Z</time>
      </trkpt>
      <trkpt lat="43.33648" lon="5.69279">
        <ele>626</ele>
        <time>2019-01-18T11:33:30.000Z</time>
      </trkpt>
      <trkpt lat="43.33648" lon="5.6928">
        <ele>626</ele>
        <time>2019-01-18T11:33:31.000Z</time>
      </trkpt>
      <trkpt lat="43.33647" lon="5.6928">
        <ele>626</ele>
        <time>2019-01-18T11:33:32.000Z</time>
      </trkpt>
      <trkpt lat="43.33646" lon="5.6928">
        <ele>626</ele>
        <time>2019-01-18T11:33:33.000Z</time>
      </trkpt>
      <trkpt lat="43.33645" lon="5.6928">
        <ele>626</ele>
        <time>2019-01-18T11:33:34.000Z</time>
      </trkpt>
      <trkpt lat="43.33644" lon="5.69281">
        <ele>626</ele>
        <time>2019-01-18T11:33:35.000Z</time>
      </trkpt>
      <trkpt lat="43.33643" lon="5.6928">
        <ele>626</ele>
        <time>2019-01-18T11:33:36.000Z</time>
      </trkpt>
      <trkpt lat="43.33642" lon="5.6928">
        <ele>626</ele>
        <time>2019-01-18T11:33:37.000Z</time>
      </trkpt>
      <trkpt lat="43.33641" lon="5.6928">
        <ele>626</ele>
        <time>2019-01-18T11:33:38.000Z</time>
      </trkpt>
      <trkpt lat="43.3364" lon="5.6928">
        <ele>626</ele>
        <time>2019-01-18T11:33:39.000Z</time>
      </trkpt>
      <trkpt lat="43.33638" lon="5.6928">
        <ele>626</ele>
        <time>2019-01-18T11:33:40.000Z</time>
      </trkpt>
      <trkpt lat="43.33637" lon="5.6928">
        <ele>626</ele>
        <time>2019-01-18T11:33:41.000Z</time>
      </trkpt>
      <trkpt lat="43.33636" lon="5.69279">
        <ele>626</ele>
        <time>2019-01-18T11:33:42.000Z</time>
      </trkpt>
      <trkpt lat="43.33635" lon="5.69279">
        <ele>626</ele>
        <time>2019-01-18T11:33:43.000Z</time>
      </trkpt>
      <trkpt lat="43.33634" lon="5.69279">
        <ele>626</ele>
        <time>2019-01-18T11:33:44.000Z</time>
      </trkpt>
      <trkpt lat="43.33633" lon="5.69278">
        <ele>626</ele>
        <time>2019-01-18T11:33:45.000Z</time>
      </trkpt>
      <trkpt lat="43.33632" lon="5.69278">
        <ele>626</ele>
        <time>2019-01-18T11:33:46.000Z</time>
      </trkpt>
      <trkpt lat="43.33631" lon="5.69278">
        <ele>626</ele>
        <time>2019-01-18T11:33:47.000Z</time>
      </trkpt>
      <trkpt lat="43.3363" lon="5.69278">
        <ele>626</ele>
        <time>2019-01-18T11:33:48.000Z</time>
      </trkpt>
      <trkpt lat="43.3363" lon="5.69278">
        <ele>626</ele>
        <time>2019-01-18T11:33:49.000Z</time>
      </trkpt>
      <trkpt lat="43.33629" lon="5.69278">
        <ele>626</ele>
        <time>2019-01-18T11:33:50.000Z</time>
      </trkpt>
      <trkpt lat="43.33628" lon="5.69278">
        <ele>626</ele>
        <time>2019-01-18T11:33:51.000Z</time>
      </trkpt>
      <trkpt lat="43.33627" lon="5.69278">
        <ele>626</ele>
        <time>2019-01-18T11:33:52.000Z</time>
      </trkpt>
      <trkpt lat="43.33626" lon="5.69278">
        <ele>626</ele>
        <time>2019-01-18T11:33:53.000Z</time>
      </trkpt>
      <trkpt lat="43.33625" lon="5.69277">
        <ele>626</ele>
        <time>2019-01-18T11:33:54.000Z</time>
      </trkpt>
      <trkpt lat="43.33624" lon="5.69278">
        <ele>626</ele>
        <time>2019-01-18T11:33:55.000Z</time>
      </trkpt>
      <trkpt lat="43.33623" lon="5.69278">
        <ele>626</ele>
        <time>2019-01-18T11:33:56.000Z</time>
      </trkpt>
      <trkpt lat="43.33622" lon="5.69278">
        <ele>626</ele>
        <time>2019-01-18T11:33:57.000Z</time>
      </trkpt>
      <trkpt lat="43.33622" lon="5.69278">
        <ele>626</ele>
        <time>2019-01-18T11:33:58.000Z</time>
      </trkpt>
      <trkpt lat="43.33621" lon="5.69278">
        <ele>626</ele>
        <time>2019-01-18T11:33:59.000Z</time>
      </trkpt>
      <trkpt lat="43.33621" lon="5.69278">
        <ele>626</ele>
        <time>2019-01-18T11:34:00.000Z</time>
      </trkpt>
      <trkpt lat="43.33621" lon="5.69278">
        <ele>626</ele>
        <time>2019-01-18T11:34:01.000Z</time>
      </trkpt>
      <trkpt lat="43.33621" lon="5.69278">
        <ele>626</ele>
        <time>2019-01-18T11:34:02.000Z</time>
      </trkpt>
      <trkpt lat="43.33621" lon="5.69278">
        <ele>626</ele>
        <time>2019-01-18T11:34:03.000Z</time>
      </trkpt>
      <trkpt lat="43.33621" lon="5.69278">
        <ele>626</ele>
        <time>2019-01-18T11:34:04.000Z</time>
      </trkpt>
      <trkpt lat="43.33621" lon="5.69279">
        <ele>626</ele>
        <time>2019-01-18T11:34:05.000Z</time>
      </trkpt>
      <trkpt lat="43.3362" lon="5.69279">
        <ele>626</ele>
        <time>2019-01-18T11:34:06.000Z</time>
      </trkpt>
      <trkpt lat="43.3362" lon="5.69279">
        <ele>626</ele>
        <time>2019-01-18T11:34:07.000Z</time>
      </trkpt>
      <trkpt lat="43.3362" lon="5.69279">
        <ele>626</ele>
        <time>2019-01-18T11:34:08.000Z</time>
      </trkpt>
      <trkpt lat="43.3362" lon="5.69279">
        <ele>626</ele>
        <time>2019-01-18T11:34:09.000Z</time>
      </trkpt>
      <trkpt lat="43.3362" lon="5.69279">
        <ele>626</ele>
        <time>2019-01-18T11:34:10.000Z</time>
      </trkpt>
      <trkpt lat="43.3362" lon="5.6928">
        <ele>626</ele>
        <time>2019-01-18T11:34:11.000Z</time>
      </trkpt>
      <trkpt lat="43.3362" lon="5.6928">
        <ele>626</ele>
        <time>2019-01-18T11:34:12.000Z</time>
      </trkpt>
      <trkpt lat="43.33619" lon="5.69281">
        <ele>625</ele>
        <time>2019-01-18T11:34:13.000Z</time>
      </trkpt>
      <trkpt lat="43.33619" lon="5.69282">
        <ele>625</ele>
        <time>2019-01-18T11:34:14.000Z</time>
      </trkpt>
      <trkpt lat="43.33618" lon="5.69283">
        <ele>625</ele>
        <time>2019-01-18T11:34:15.000Z</time>
      </trkpt>
      <trkpt lat="43.33618" lon="5.69285">
        <ele>625</ele>
        <time>2019-01-18T11:34:16.000Z</time>
      </trkpt>
      <trkpt lat="43.33618" lon="5.69286">
        <ele>625</ele>
        <time>2019-01-18T11:34:17.000Z</time>
      </trkpt>
      <trkpt lat="43.33617" lon="5.69287">
        <ele>625</ele>
        <time>2019-01-18T11:34:18.000Z</time>
      </trkpt>
      <trkpt lat="43.33616" lon="5.69287">
        <ele>625</ele>
        <time>2019-01-18T11:34:19.000Z</time>
      </trkpt>
      <trkpt lat="43.33616" lon="5.69288">
        <ele>625</ele>
        <time>2019-01-18T11:34:20.000Z</time>
      </trkpt>
      <trkpt lat="43.33615" lon="5.69289">
        <ele>625</ele>
        <time>2019-01-18T11:34:21.000Z</time>
      </trkpt>
      <trkpt lat="43.33614" lon="5.69289">
        <ele>625</ele>
        <time>2019-01-18T11:34:22.000Z</time>
      </trkpt>
      <trkpt lat="43.33613" lon="5.6929">
        <ele>625</ele>
        <time>2019-01-18T11:34:23.000Z</time>
      </trkpt>
      <trkpt lat="43.33613" lon="5.6929">
        <ele>625</ele>
        <time>2019-01-18T11:34:24.000Z</time>
      </trkpt>
      <trkpt lat="43.33612" lon="5.69291">
        <ele>625</ele>
        <time>2019-01-18T11:34:25.000Z</time>
      </trkpt>
      <trkpt lat="43.33611" lon="5.69291">
        <ele>625</ele>
        <time>2019-01-18T11:34:26.000Z</time>
      </trkpt>
      <trkpt lat="43.3361" lon="5.69292">
        <ele>625</ele>
        <time>2019-01-18T11:34:27.000Z</time>
      </trkpt>
      <trkpt lat="43.33609" lon="5.69292">
        <ele>625</ele>
        <time>2019-01-18T11:34:28.000Z</time>
      </trkpt>
      <trkpt lat="43.33608" lon="5.69292">
        <ele>625</ele>
        <time>2019-01-18T11:34:29.000Z</time>
      </trkpt>
      <trkpt lat="43.33607" lon="5.69293">
        <ele>625</ele>
        <time>2019-01-18T11:34:30.000Z</time>
      </trkpt>
      <trkpt lat="43.33606" lon="5.69293">
        <ele>625</ele>
        <time>2019-01-18T11:34:31.000Z</time>
      </trkpt>
      <trkpt lat="43.33605" lon="5.69293">
        <ele>625</ele>
        <time>2019-01-18T11:34:32.000Z</time>
      </trkpt>
      <trkpt lat="43.33604" lon="5.69293">
        <ele>625</ele>
        <time>2019-01-18T11:34:33.000Z</time>
      </trkpt>
      <trkpt lat="43.33603" lon="5.69292">
        <ele>625</ele>
        <time>2019-01-18T11:34:34.000Z</time>
      </trkpt>
      <trkpt lat="43.33602" lon="5.69292">
        <ele>625</ele>
        <time>2019-01-18T11:34:35.000Z</time>
      </trkpt>
      <trkpt lat="43.33602" lon="5.69293">
        <ele>625</ele>
        <time>2019-01-18T11:34:36.000Z</time>
      </trkpt>
      <trkpt lat="43.33602" lon="5.69293">
        <ele>625</ele>
        <time>2019-01-18T11:34:37.000Z</time>
      </trkpt>
      <trkpt lat="43.33601" lon="5.69293">
        <ele>625</ele>
        <time>2019-01-18T11:34:38.000Z</time>
      </trkpt>
      <trkpt lat="43.336" lon="5.69293">
        <ele>624</ele>
        <time>2019-01-18T11:34:39.000Z</time>
      </trkpt>
      <trkpt lat="43.33599" lon="5.69294">
        <ele>624</ele>
        <time>2019-01-18T11:34:40.000Z</time>
      </trkpt>
      <trkpt lat="43.33598" lon="5.69294">
        <ele>624</ele>
        <time>2019-01-18T11:34:41.000Z</time>
      </trkpt>
      <trkpt lat="43.33597" lon="5.69295">
        <ele>624</ele>
        <time>2019-01-18T11:34:42.000Z</time>
      </trkpt>
      <trkpt lat="43.33596" lon="5.69295">
        <ele>624</ele>
        <time>2019-01-18T11:34:43.000Z</time>
      </trkpt>
      <trkpt lat="43.33596" lon="5.69296">
        <ele>624</ele>
        <time>2019-01-18T11:34:44.000Z</time>
      </trkpt>
      <trkpt lat="43.33595" lon="5.69296">
        <ele>624</ele>
        <time>2019-01-18T11:34:45.000Z</time>
      </trkpt>
      <trkpt lat="43.33595" lon="5.69297">
        <ele>624</ele>
        <time>2019-01-18T11:34:46.000Z</time>
      </trkpt>
      <trkpt lat="43.33594" lon="5.69297">
        <ele>624</ele>
        <time>2019-01-18T11:34:47.000Z</time>
      </trkpt>
      <trkpt lat="43.33594" lon="5.69297">
        <ele>624</ele>
        <time>2019-01-18T11:34:48.000Z</time>
      </trkpt>
      <trkpt lat="43.33593" lon="5.69298">
        <ele>624</ele>
        <time>2019-01-18T11:34:49.000Z</time>
      </trkpt>
      <trkpt lat="43.33593" lon="5.69299">
        <ele>624</ele>
        <time>2019-01-18T11:34:50.000Z</time>
      </trkpt>
      <trkpt lat="43.33592" lon="5.693">
        <ele>624</ele>
        <time>2019-01-18T11:34:51.000Z</time>
      </trkpt>
      <trkpt lat="43.33592" lon="5.69301">
        <ele>624</ele>
        <time>2019-01-18T11:34:52.000Z</time>
      </trkpt>
      <trkpt lat="43.33591" lon="5.69301">
        <ele>625</ele>
        <time>2019-01-18T11:34:53.000Z</time>
      </trkpt>
      <trkpt lat="43.3359" lon="5.69302">
        <ele>625</ele>
        <time>2019-01-18T11:34:54.000Z</time>
      </trkpt>
      <trkpt lat="43.33588" lon="5.69303">
        <ele>625</ele>
        <time>2019-01-18T11:34:55.000Z</time>
      </trkpt>
      <trkpt lat="43.33588" lon="5.69303">
        <ele>625</ele>
        <time>2019-01-18T11:34:56.000Z</time>
      </trkpt>
      <trkpt lat="43.33587" lon="5.69303">
        <ele>625</ele>
        <time>2019-01-18T11:34:57.000Z</time>
      </trkpt>
      <trkpt lat="43.33586" lon="5.69303">
        <ele>625</ele>
        <time>2019-01-18T11:34:58.000Z</time>
      </trkpt>
      <trkpt lat="43.33584" lon="5.69304">
        <ele>625</ele>
        <time>2019-01-18T11:34:59.000Z</time>
      </trkpt>
      <trkpt lat="43.33584" lon="5.69304">
        <ele>625</ele>
        <time>2019-01-18T11:35:00.000Z</time>
      </trkpt>
      <trkpt lat="43.33582" lon="5.69304">
        <ele>625</ele>
        <time>2019-01-18T11:35:01.000Z</time>
      </trkpt>
      <trkpt lat="43.33581" lon="5.69304">
        <ele>625</ele>
        <time>2019-01-18T11:35:02.000Z</time>
      </trkpt>
      <trkpt lat="43.3358" lon="5.69305">
        <ele>625</ele>
        <time>2019-01-18T11:35:03.000Z</time>
      </trkpt>
      <trkpt lat="43.33579" lon="5.69305">
        <ele>625</ele>
        <time>2019-01-18T11:35:04.000Z</time>
      </trkpt>
      <trkpt lat="43.33578" lon="5.69305">
        <ele>625</ele>
        <time>2019-01-18T11:35:05.000Z</time>
      </trkpt>
      <trkpt lat="43.33577" lon="5.69305">
        <ele>625</ele>
        <time>2019-01-18T11:35:06.000Z</time>
      </trkpt>
      <trkpt lat="43.33576" lon="5.69305">
        <ele>625</ele>
        <time>2019-01-18T11:35:07.000Z</time>
      </trkpt>
      <trkpt lat="43.33575" lon="5.69304">
        <ele>625</ele>
        <time>2019-01-18T11:35:08.000Z</time>
      </trkpt>
      <trkpt lat="43.33574" lon="5.69304">
        <ele>625</ele>
        <time>2019-01-18T11:35:09.000Z</time>
      </trkpt>
      <trkpt lat="43.33573" lon="5.69304">
        <ele>625</ele>
        <time>2019-01-18T11:35:10.000Z</time>
      </trkpt>
      <trkpt lat="43.33572" lon="5.69304">
        <ele>626</ele>
        <time>2019-01-18T11:35:11.000Z</time>
      </trkpt>
      <trkpt lat="43.33571" lon="5.69304">
        <ele>626</ele>
        <time>2019-01-18T11:35:12.000Z</time>
      </trkpt>
      <trkpt lat="43.33569" lon="5.69303">
        <ele>626</ele>
        <time>2019-01-18T11:35:13.000Z</time>
      </trkpt>
      <trkpt lat="43.33568" lon="5.69303">
        <ele>626</ele>
        <time>2019-01-18T11:35:14.000Z</time>
      </trkpt>
      <trkpt lat="43.33567" lon="5.69303">
        <ele>626</ele>
        <time>2019-01-18T11:35:15.000Z</time>
      </trkpt>
      <trkpt lat="43.33566" lon="5.69302">
        <ele>626</ele>
        <time>2019-01-18T11:35:16.000Z</time>
      </trkpt>
      <trkpt lat="43.33565" lon="5.69302">
        <ele>626</ele>
        <time>2019-01-18T11:35:17.000Z</time>
      </trkpt>
      <trkpt lat="43.33564" lon="5.69302">
        <ele>626</ele>
        <time>2019-01-18T11:35:18.000Z</time>
      </trkpt>
      <trkpt lat="43.33563" lon="5.69302">
        <ele>626</ele>
        <time>2019-01-18T11:35:19.000Z</time>
      </trkpt>
      <trkpt lat="43.33563" lon="5.69302">
        <ele>626</ele>
        <time>2019-01-18T11:35:20.000Z</time>
      </trkpt>
      <trkpt lat="43.33562" lon="5.69302">
        <ele>626</ele>
        <time>2019-01-18T11:35:21.000Z</time>
      </trkpt>
      <trkpt lat="43.33562" lon="5.69302">
        <ele>626</ele>
        <time>2019-01-18T11:35:22.000Z</time>
      </trkpt>
      <trkpt lat="43.33561" lon="5.69302">
        <ele>626</ele>
        <time>2019-01-18T11:35:23.000Z</time>
      </trkpt>
      <trkpt lat="43.3356" lon="5.69301">
        <ele>627</ele>
        <time>2019-01-18T11:35:24.000Z</time>
      </trkpt>
      <trkpt lat="43.33559" lon="5.69301">
        <ele>627</ele>
        <time>2019-01-18T11:35:25.000Z</time>
      </trkpt>
      <trkpt lat="43.33559" lon="5.693">
        <ele>627</ele>
        <time>2019-01-18T11:35:26.000Z</time>
      </trkpt>
      <trkpt lat="43.33558" lon="5.693">
        <ele>627</ele>
        <time>2019-01-18T11:35:27.000Z</time>
      </trkpt>
      <trkpt lat="43.33558" lon="5.69301">
        <ele>627</ele>
        <time>2019-01-18T11:35:28.000Z</time>
      </trkpt>
      <trkpt lat="43.33558" lon="5.69301">
        <ele>627</ele>
        <time>2019-01-18T11:35:29.000Z</time>
      </trkpt>
      <trkpt lat="43.33558" lon="5.69301">
        <ele>627</ele>
        <time>2019-01-18T11:35:30.000Z</time>
      </trkpt>
      <trkpt lat="43.33558" lon="5.69301">
        <ele>627</ele>
        <time>2019-01-18T11:35:31.000Z</time>
      </trkpt>
      <trkpt lat="43.33558" lon="5.69301">
        <ele>627</ele>
        <time>2019-01-18T11:35:32.000Z</time>
      </trkpt>
      <trkpt lat="43.33558" lon="5.69301">
        <ele>627</ele>
        <time>2019-01-18T11:35:33.000Z</time>
      </trkpt>
      <trkpt lat="43.33558" lon="5.69301">
        <ele>627</ele>
        <time>2019-01-18T11:35:34.000Z</time>
      </trkpt>
      <trkpt lat="43.33557" lon="5.69301">
        <ele>627</ele>
        <time>2019-01-18T11:35:35.000Z</time>
      </trkpt>
      <trkpt lat="43.33557" lon="5.69301">
        <ele>627</ele>
        <time>2019-01-18T11:35:36.000Z</time>
      </trkpt>
      <trkpt lat="43.33557" lon="5.69301">
        <ele>627</ele>
        <time>2019-01-18T11:35:37.000Z</time>
      </trkpt>
      <trkpt lat="43.33557" lon="5.69301">
        <ele>627</ele>
        <time>2019-01-18T11:35:38.000Z</time>
      </trkpt>
      <trkpt lat="43.33557" lon="5.69301">
        <ele>627</ele>
        <time>2019-01-18T11:35:39.000Z</time>
      </trkpt>
      <trkpt lat="43.33557" lon="5.69301">
        <ele>627</ele>
        <time>2019-01-18T11:35:40.000Z</time>
      </trkpt>
      <trkpt lat="43.33557" lon="5.69301">
        <ele>627</ele>
        <time>2019-01-18T11:35:41.000Z</time>
      </trkpt>
      <trkpt lat="43.33557" lon="5.69301">
        <ele>627</ele>
        <time>2019-01-18T11:35:42.000Z</time>
      </trkpt>
      <trkpt lat="43.33556" lon="5.693">
        <ele>627</ele>
        <time>2019-01-18T11:35:43.000Z</time>
      </trkpt>
      <trkpt lat="43.33556" lon="5.693">
        <ele>627</ele>
        <time>2019-01-18T11:35:44.000Z</time>
      </trkpt>
      <trkpt lat="43.33555" lon="5.69299">
        <ele>626</ele>
        <time>2019-01-18T11:35:45.000Z</time>
      </trkpt>
      <trkpt lat="43.33555" lon="5.69299">
        <ele>626</ele>
        <time>2019-01-18T11:35:46.000Z</time>
      </trkpt>
      <trkpt lat="43.33554" lon="5.69298">
        <ele>626</ele>
        <time>2019-01-18T11:35:47.000Z</time>
      </trkpt>
      <trkpt lat="43.33553" lon="5.69298">
        <ele>626</ele>
        <time>2019-01-18T11:35:48.000Z</time>
      </trkpt>
      <trkpt lat="43.33553" lon="5.69298">
        <ele>626</ele>
        <time>2019-01-18T11:35:49.000Z</time>
      </trkpt>
      <trkpt lat="43.33552" lon="5.69298">
        <ele>626</ele>
        <time>2019-01-18T11:35:50.000Z</time>
      </trkpt>
      <trkpt lat="43.33551" lon="5.69298">
        <ele>626</ele>
        <time>2019-01-18T11:35:51.000Z</time>
      </trkpt>
      <trkpt lat="43.3355" lon="5.69297">
        <ele>626</ele>
        <time>2019-01-18T11:35:52.000Z</time>
      </trkpt>
      <trkpt lat="43.33549" lon="5.69297">
        <ele>626</ele>
        <time>2019-01-18T11:35:53.000Z</time>
      </trkpt>
      <trkpt lat="43.33549" lon="5.69296">
        <ele>626</ele>
        <time>2019-01-18T11:35:54.000Z</time>
      </trkpt>
      <trkpt lat="43.33548" lon="5.69296">
        <ele>626</ele>
        <time>2019-01-18T11:35:55.000Z</time>
      </trkpt>
      <trkpt lat="43.33547" lon="5.69296">
        <ele>626</ele>
        <time>2019-01-18T11:35:56.000Z</time>
      </trkpt>
      <trkpt lat="43.33546" lon="5.69296">
        <ele>626</ele>
        <time>2019-01-18T11:35:57.000Z</time>
      </trkpt>
      <trkpt lat="43.33546" lon="5.69296">
        <ele>626</ele>
        <time>2019-01-18T11:35:58.000Z</time>
      </trkpt>
      <trkpt lat="43.33545" lon="5.69295">
        <ele>626</ele>
        <time>2019-01-18T11:35:59.000Z</time>
      </trkpt>
      <trkpt lat="43.33544" lon="5.69295">
        <ele>626</ele>
        <time>2019-01-18T11:36:00.000Z</time>
      </trkpt>
      <trkpt lat="43.33544" lon="5.69295">
        <ele>626</ele>
        <time>2019-01-18T11:36:01.000Z</time>
      </trkpt>
      <trkpt lat="43.33543" lon="5.69295">
        <ele>627</ele>
        <time>2019-01-18T11:36:02.000Z</time>
      </trkpt>
      <trkpt lat="43.33542" lon="5.69295">
        <ele>627</ele>
        <time>2019-01-18T11:36:03.000Z</time>
      </trkpt>
      <trkpt lat="43.33541" lon="5.69294">
        <ele>627</ele>
        <time>2019-01-18T11:36:04.000Z</time>
      </trkpt>
      <trkpt lat="43.3354" lon="5.69293">
        <ele>627</ele>
        <time>2019-01-18T11:36:05.000Z</time>
      </trkpt>
      <trkpt lat="43.33539" lon="5.69293">
        <ele>627</ele>
        <time>2019-01-18T11:36:06.000Z</time>
      </trkpt>
      <trkpt lat="43.33538" lon="5.69292">
        <ele>627</ele>
        <time>2019-01-18T11:36:07.000Z</time>
      </trkpt>
      <trkpt lat="43.33536" lon="5.69292">
        <ele>627</ele>
        <time>2019-01-18T11:36:08.000Z</time>
      </trkpt>
      <trkpt lat="43.33535" lon="5.69292">
        <ele>627</ele>
        <time>2019-01-18T11:36:09.000Z</time>
      </trkpt>
      <trkpt lat="43.33534" lon="5.69292">
        <ele>628</ele>
        <time>2019-01-18T11:36:10.000Z</time>
      </trkpt>
      <trkpt lat="43.33533" lon="5.69292">
        <ele>628</ele>
        <time>2019-01-18T11:36:11.000Z</time>
      </trkpt>
      <trkpt lat="43.33532" lon="5.69291">
        <ele>628</ele>
        <time>2019-01-18T11:36:12.000Z</time>
      </trkpt>
      <trkpt lat="43.33531" lon="5.69291">
        <ele>628</ele>
        <time>2019-01-18T11:36:13.000Z</time>
      </trkpt>
      <trkpt lat="43.3353" lon="5.69291">
        <ele>628</ele>
        <time>2019-01-18T11:36:14.000Z</time>
      </trkpt>
      <trkpt lat="43.33529" lon="5.6929">
        <ele>628</ele>
        <time>2019-01-18T11:36:15.000Z</time>
      </trkpt>
      <trkpt lat="43.33528" lon="5.6929">
        <ele>628</ele>
        <time>2019-01-18T11:36:16.000Z</time>
      </trkpt>
      <trkpt lat="43.33527" lon="5.69289">
        <ele>628</ele>
        <time>2019-01-18T11:36:17.000Z</time>
      </trkpt>
      <trkpt lat="43.33526" lon="5.69289">
        <ele>628</ele>
        <time>2019-01-18T11:36:18.000Z</time>
      </trkpt>
      <trkpt lat="43.33525" lon="5.69288">
        <ele>628</ele>
        <time>2019-01-18T11:36:19.000Z</time>
      </trkpt>
      <trkpt lat="43.33524" lon="5.69288">
        <ele>628</ele>
        <time>2019-01-18T11:36:20.000Z</time>
      </trkpt>
      <trkpt lat="43.33523" lon="5.69288">
        <ele>628</ele>
        <time>2019-01-18T11:36:21.000Z</time>
      </trkpt>
      <trkpt lat="43.33521" lon="5.69287">
        <ele>628</ele>
        <time>2019-01-18T11:36:22.000Z</time>
      </trkpt>
      <trkpt lat="43.3352" lon="5.69287">
        <ele>628</ele>
        <time>2019-01-18T11:36:23.000Z</time>
      </trkpt>
      <trkpt lat="43.33519" lon="5.69286">
        <ele>629</ele>
        <time>2019-01-18T11:36:24.000Z</time>
      </trkpt>
      <trkpt lat="43.33519" lon="5.69286">
        <ele>629</ele>
        <time>2019-01-18T11:36:25.000Z</time>
      </trkpt>
      <trkpt lat="43.33517" lon="5.69286">
        <ele>629</ele>
        <time>2019-01-18T11:36:26.000Z</time>
      </trkpt>
      <trkpt lat="43.33516" lon="5.69285">
        <ele>629</ele>
        <time>2019-01-18T11:36:27.000Z</time>
      </trkpt>
      <trkpt lat="43.33515" lon="5.69285">
        <ele>629</ele>
        <time>2019-01-18T11:36:28.000Z</time>
      </trkpt>
      <trkpt lat="43.33514" lon="5.69284">
        <ele>629</ele>
        <time>2019-01-18T11:36:29.000Z</time>
      </trkpt>
      <trkpt lat="43.33513" lon="5.69284">
        <ele>629</ele>
        <time>2019-01-18T11:36:30.000Z</time>
      </trkpt>
      <trkpt lat="43.33512" lon="5.69284">
        <ele>629</ele>
        <time>2019-01-18T11:36:31.000Z</time>
      </trkpt>
      <trkpt lat="43.33511" lon="5.69283">
        <ele>629</ele>
        <time>2019-01-18T11:36:32.000Z</time>
      </trkpt>
      <trkpt lat="43.3351" lon="5.69283">
        <ele>629</ele>
        <time>2019-01-18T11:36:33.000Z</time>
      </trkpt>
      <trkpt lat="43.33508" lon="5.69282">
        <ele>629</ele>
        <time>2019-01-18T11:36:34.000Z</time>
      </trkpt>
      <trkpt lat="43.33507" lon="5.69282">
        <ele>629</ele>
        <time>2019-01-18T11:36:35.000Z</time>
      </trkpt>
      <trkpt lat="43.33506" lon="5.69282">
        <ele>629</ele>
        <time>2019-01-18T11:36:36.000Z</time>
      </trkpt>
      <trkpt lat="43.33505" lon="5.69282">
        <ele>629</ele>
        <time>2019-01-18T11:36:37.000Z</time>
      </trkpt>
      <trkpt lat="43.33504" lon="5.69282">
        <ele>629</ele>
        <time>2019-01-18T11:36:38.000Z</time>
      </trkpt>
      <trkpt lat="43.33502" lon="5.69282">
        <ele>629</ele>
        <time>2019-01-18T11:36:39.000Z</time>
      </trkpt>
      <trkpt lat="43.33501" lon="5.69281">
        <ele>629</ele>
        <time>2019-01-18T11:36:40.000Z</time>
      </trkpt>
      <trkpt lat="43.335" lon="5.69281">
        <ele>629</ele>
        <time>2019-01-18T11:36:41.000Z</time>
      </trkpt>
      <trkpt lat="43.33499" lon="5.6928">
        <ele>629</ele>
        <time>2019-01-18T11:36:42.000Z</time>
      </trkpt>
      <trkpt lat="43.33498" lon="5.6928">
        <ele>629</ele>
        <time>2019-01-18T11:36:43.000Z</time>
      </trkpt>
      <trkpt lat="43.33496" lon="5.6928">
        <ele>629</ele>
        <time>2019-01-18T11:36:44.000Z</time>
      </trkpt>
      <trkpt lat="43.33495" lon="5.69279">
        <ele>629</ele>
        <time>2019-01-18T11:36:45.000Z</time>
      </trkpt>
      <trkpt lat="43.33494" lon="5.69279">
        <ele>629</ele>
        <time>2019-01-18T11:36:46.000Z</time>
      </trkpt>
      <trkpt lat="43.33493" lon="5.69279">
        <ele>629</ele>
        <time>2019-01-18T11:36:47.000Z</time>
      </trkpt>
      <trkpt lat="43.33492" lon="5.69279">
        <ele>629</ele>
        <time>2019-01-18T11:36:48.000Z</time>
      </trkpt>
      <trkpt lat="43.3349" lon="5.69279">
        <ele>629</ele>
        <time>2019-01-18T11:36:49.000Z</time>
      </trkpt>
      <trkpt lat="43.33489" lon="5.69278">
        <ele>629</ele>
        <time>2019-01-18T11:36:50.000Z</time>
      </trkpt>
      <trkpt lat="43.33488" lon="5.69278">
        <ele>629</ele>
        <time>2019-01-18T11:36:51.000Z</time>
      </trkpt>
      <trkpt lat="43.33487" lon="5.69278">
        <ele>629</ele>
        <time>2019-01-18T11:36:52.000Z</time>
      </trkpt>
      <trkpt lat="43.33485" lon="5.69277">
        <ele>629</ele>
        <time>2019-01-18T11:36:53.000Z</time>
      </trkpt>
      <trkpt lat="43.33484" lon="5.69277">
        <ele>629</ele>
        <time>2019-01-18T11:36:54.000Z</time>
      </trkpt>
      <trkpt lat="43.33483" lon="5.69277">
        <ele>629</ele>
        <time>2019-01-18T11:36:55.000Z</time>
      </trkpt>
      <trkpt lat="43.33482" lon="5.69276">
        <ele>629</ele>
        <time>2019-01-18T11:36:56.000Z</time>
      </trkpt>
      <trkpt lat="43.33481" lon="5.69276">
        <ele>629</ele>
        <time>2019-01-18T11:36:57.000Z</time>
      </trkpt>
      <trkpt lat="43.33479" lon="5.69275">
        <ele>629</ele>
        <time>2019-01-18T11:36:58.000Z</time>
      </trkpt>
      <trkpt lat="43.33478" lon="5.69275">
        <ele>629</ele>
        <time>2019-01-18T11:36:59.000Z</time>
      </trkpt>
      <trkpt lat="43.33477" lon="5.69274">
        <ele>629</ele>
        <time>2019-01-18T11:37:00.000Z</time>
      </trkpt>
      <trkpt lat="43.33476" lon="5.69273">
        <ele>630</ele>
        <time>2019-01-18T11:37:01.000Z</time>
      </trkpt>
      <trkpt lat="43.33475" lon="5.69273">
        <ele>630</ele>
        <time>2019-01-18T11:37:02.000Z</time>
      </trkpt>
      <trkpt lat="43.33474" lon="5.69272">
        <ele>630</ele>
        <time>2019-01-18T11:37:03.000Z</time>
      </trkpt>
      <trkpt lat="43.33473" lon="5.69271">
        <ele>630</ele>
        <time>2019-01-18T11:37:04.000Z</time>
      </trkpt>
      <trkpt lat="43.33472" lon="5.69271">
        <ele>630</ele>
        <time>2019-01-18T11:37:05.000Z</time>
      </trkpt>
      <trkpt lat="43.33471" lon="5.69271">
        <ele>630</ele>
        <time>2019-01-18T11:37:06.000Z</time>
      </trkpt>
      <trkpt lat="43.33469" lon="5.6927">
        <ele>630</ele>
        <time>2019-01-18T11:37:07.000Z</time>
      </trkpt>
      <trkpt lat="43.33468" lon="5.6927">
        <ele>630</ele>
        <time>2019-01-18T11:37:08.000Z</time>
      </trkpt>
      <trkpt lat="43.33467" lon="5.69269">
        <ele>630</ele>
        <time>2019-01-18T11:37:09.000Z</time>
      </trkpt>
      <trkpt lat="43.33466" lon="5.69268">
        <ele>631</ele>
        <time>2019-01-18T11:37:10.000Z</time>
      </trkpt>
      <trkpt lat="43.33465" lon="5.69268">
        <ele>631</ele>
        <time>2019-01-18T11:37:11.000Z</time>
      </trkpt>
      <trkpt lat="43.33464" lon="5.69267">
        <ele>631</ele>
        <time>2019-01-18T11:37:12.000Z</time>
      </trkpt>
      <trkpt lat="43.33462" lon="5.69267">
        <ele>631</ele>
        <time>2019-01-18T11:37:13.000Z</time>
      </trkpt>
      <trkpt lat="43.33461" lon="5.69266">
        <ele>631</ele>
        <time>2019-01-18T11:37:14.000Z</time>
      </trkpt>
      <trkpt lat="43.3346" lon="5.69265">
        <ele>631</ele>
        <time>2019-01-18T11:37:15.000Z</time>
      </trkpt>
      <trkpt lat="43.3346" lon="5.69265">
        <ele>631</ele>
        <time>2019-01-18T11:37:16.000Z</time>
      </trkpt>
      <trkpt lat="43.33459" lon="5.69264">
        <ele>631</ele>
        <time>2019-01-18T11:37:17.000Z</time>
      </trkpt>
      <trkpt lat="43.33458" lon="5.69264">
        <ele>631</ele>
        <time>2019-01-18T11:37:18.000Z</time>
      </trkpt>
      <trkpt lat="43.33457" lon="5.69263">
        <ele>631</ele>
        <time>2019-01-18T11:37:19.000Z</time>
      </trkpt>
      <trkpt lat="43.33456" lon="5.69263">
        <ele>632</ele>
        <time>2019-01-18T11:37:20.000Z</time>
      </trkpt>
      <trkpt lat="43.33455" lon="5.69262">
        <ele>632</ele>
        <time>2019-01-18T11:37:21.000Z</time>
      </trkpt>
      <trkpt lat="43.33453" lon="5.69261">
        <ele>632</ele>
        <time>2019-01-18T11:37:22.000Z</time>
      </trkpt>
      <trkpt lat="43.33452" lon="5.69261">
        <ele>631</ele>
        <time>2019-01-18T11:37:23.000Z</time>
      </trkpt>
      <trkpt lat="43.33451" lon="5.69261">
        <ele>631</ele>
        <time>2019-01-18T11:37:24.000Z</time>
      </trkpt>
      <trkpt lat="43.3345" lon="5.6926">
        <ele>631</ele>
        <time>2019-01-18T11:37:25.000Z</time>
      </trkpt>
      <trkpt lat="43.33449" lon="5.69259">
        <ele>631</ele>
        <time>2019-01-18T11:37:26.000Z</time>
      </trkpt>
      <trkpt lat="43.33448" lon="5.69258">
        <ele>631</ele>
        <time>2019-01-18T11:37:27.000Z</time>
      </trkpt>
      <trkpt lat="43.33447" lon="5.69258">
        <ele>631</ele>
        <time>2019-01-18T11:37:28.000Z</time>
      </trkpt>
      <trkpt lat="43.33446" lon="5.69257">
        <ele>631</ele>
        <time>2019-01-18T11:37:29.000Z</time>
      </trkpt>
      <trkpt lat="43.33445" lon="5.69257">
        <ele>631</ele>
        <time>2019-01-18T11:37:30.000Z</time>
      </trkpt>
      <trkpt lat="43.33444" lon="5.69256">
        <ele>631</ele>
        <time>2019-01-18T11:37:31.000Z</time>
      </trkpt>
      <trkpt lat="43.33443" lon="5.69256">
        <ele>631</ele>
        <time>2019-01-18T11:37:32.000Z</time>
      </trkpt>
      <trkpt lat="43.33441" lon="5.69255">
        <ele>631</ele>
        <time>2019-01-18T11:37:33.000Z</time>
      </trkpt>
      <trkpt lat="43.3344" lon="5.69254">
        <ele>631</ele>
        <time>2019-01-18T11:37:34.000Z</time>
      </trkpt>
      <trkpt lat="43.33439" lon="5.69254">
        <ele>631</ele>
        <time>2019-01-18T11:37:35.000Z</time>
      </trkpt>
      <trkpt lat="43.33438" lon="5.69254">
        <ele>631</ele>
        <time>2019-01-18T11:37:36.000Z</time>
      </trkpt>
      <trkpt lat="43.33437" lon="5.69253">
        <ele>631</ele>
        <time>2019-01-18T11:37:37.000Z</time>
      </trkpt>
      <trkpt lat="43.33436" lon="5.69253">
        <ele>631</ele>
        <time>2019-01-18T11:37:38.000Z</time>
      </trkpt>
      <trkpt lat="43.33435" lon="5.69252">
        <ele>631</ele>
        <time>2019-01-18T11:37:39.000Z</time>
      </trkpt>
      <trkpt lat="43.33434" lon="5.69252">
        <ele>631</ele>
        <time>2019-01-18T11:37:40.000Z</time>
      </trkpt>
      <trkpt lat="43.33432" lon="5.69251">
        <ele>631</ele>
        <time>2019-01-18T11:37:41.000Z</time>
      </trkpt>
      <trkpt lat="43.33431" lon="5.69251">
        <ele>631</ele>
        <time>2019-01-18T11:37:42.000Z</time>
      </trkpt>
      <trkpt lat="43.3343" lon="5.69251">
        <ele>631</ele>
        <time>2019-01-18T11:37:43.000Z</time>
      </trkpt>
      <trkpt lat="43.33429" lon="5.6925">
        <ele>631</ele>
        <time>2019-01-18T11:37:44.000Z</time>
      </trkpt>
      <trkpt lat="43.33427" lon="5.6925">
        <ele>631</ele>
        <time>2019-01-18T11:37:45.000Z</time>
      </trkpt>
      <trkpt lat="43.33426" lon="5.6925">
        <ele>632</ele>
        <time>2019-01-18T11:37:46.000Z</time>
      </trkpt>
      <trkpt lat="43.33425" lon="5.69249">
        <ele>632</ele>
        <time>2019-01-18T11:37:47.000Z</time>
      </trkpt>
      <trkpt lat="43.33424" lon="5.69249">
        <ele>632</ele>
        <time>2019-01-18T11:37:48.000Z</time>
      </trkpt>
      <trkpt lat="43.33423" lon="5.69248">
        <ele>631</ele>
        <time>2019-01-18T11:37:49.000Z</time>
      </trkpt>
      <trkpt lat="43.33422" lon="5.69248">
        <ele>631</ele>
        <time>2019-01-18T11:37:50.000Z</time>
      </trkpt>
      <trkpt lat="43.33421" lon="5.69247">
        <ele>631</ele>
        <time>2019-01-18T11:37:51.000Z</time>
      </trkpt>
      <trkpt lat="43.3342" lon="5.69247">
        <ele>631</ele>
        <time>2019-01-18T11:37:52.000Z</time>
      </trkpt>
      <trkpt lat="43.33419" lon="5.69246">
        <ele>631</ele>
        <time>2019-01-18T11:37:53.000Z</time>
      </trkpt>
      <trkpt lat="43.33418" lon="5.69246">
        <ele>632</ele>
        <time>2019-01-18T11:37:54.000Z</time>
      </trkpt>
      <trkpt lat="43.33417" lon="5.69245">
        <ele>632</ele>
        <time>2019-01-18T11:37:55.000Z</time>
      </trkpt>
      <trkpt lat="43.33416" lon="5.69245">
        <ele>632</ele>
        <time>2019-01-18T11:37:56.000Z</time>
      </trkpt>
      <trkpt lat="43.33415" lon="5.69244">
        <ele>632</ele>
        <time>2019-01-18T11:37:57.000Z</time>
      </trkpt>
      <trkpt lat="43.33414" lon="5.69244">
        <ele>632</ele>
        <time>2019-01-18T11:37:58.000Z</time>
      </trkpt>
      <trkpt lat="43.33412" lon="5.69244">
        <ele>632</ele>
        <time>2019-01-18T11:37:59.000Z</time>
      </trkpt>
      <trkpt lat="43.33411" lon="5.69244">
        <ele>632</ele>
        <time>2019-01-18T11:38:00.000Z</time>
      </trkpt>
      <trkpt lat="43.3341" lon="5.69244">
        <ele>632</ele>
        <time>2019-01-18T11:38:01.000Z</time>
      </trkpt>
      <trkpt lat="43.33409" lon="5.69243">
        <ele>632</ele>
        <time>2019-01-18T11:38:02.000Z</time>
      </trkpt>
      <trkpt lat="43.33408" lon="5.69243">
        <ele>632</ele>
        <time>2019-01-18T11:38:03.000Z</time>
      </trkpt>
      <trkpt lat="43.33407" lon="5.69242">
        <ele>633</ele>
        <time>2019-01-18T11:38:04.000Z</time>
      </trkpt>
      <trkpt lat="43.33406" lon="5.69242">
        <ele>633</ele>
        <time>2019-01-18T11:38:05.000Z</time>
      </trkpt>
      <trkpt lat="43.33404" lon="5.69241">
        <ele>633</ele>
        <time>2019-01-18T11:38:06.000Z</time>
      </trkpt>
      <trkpt lat="43.33403" lon="5.69241">
        <ele>633</ele>
        <time>2019-01-18T11:38:07.000Z</time>
      </trkpt>
      <trkpt lat="43.33402" lon="5.69241">
        <ele>633</ele>
        <time>2019-01-18T11:38:08.000Z</time>
      </trkpt>
      <trkpt lat="43.334" lon="5.69241">
        <ele>633</ele>
        <time>2019-01-18T11:38:09.000Z</time>
      </trkpt>
      <trkpt lat="43.33399" lon="5.6924">
        <ele>633</ele>
        <time>2019-01-18T11:38:10.000Z</time>
      </trkpt>
      <trkpt lat="43.33398" lon="5.6924">
        <ele>634</ele>
        <time>2019-01-18T11:38:11.000Z</time>
      </trkpt>
      <trkpt lat="43.33397" lon="5.6924">
        <ele>634</ele>
        <time>2019-01-18T11:38:12.000Z</time>
      </trkpt>
      <trkpt lat="43.33396" lon="5.69239">
        <ele>634</ele>
        <time>2019-01-18T11:38:13.000Z</time>
      </trkpt>
      <trkpt lat="43.33394" lon="5.69239">
        <ele>634</ele>
        <time>2019-01-18T11:38:14.000Z</time>
      </trkpt>
      <trkpt lat="43.33393" lon="5.69239">
        <ele>634</ele>
        <time>2019-01-18T11:38:15.000Z</time>
      </trkpt>
      <trkpt lat="43.33392" lon="5.69238">
        <ele>635</ele>
        <time>2019-01-18T11:38:16.000Z</time>
      </trkpt>
      <trkpt lat="43.33391" lon="5.69238">
        <ele>635</ele>
        <time>2019-01-18T11:38:17.000Z</time>
      </trkpt>
      <trkpt lat="43.33389" lon="5.69238">
        <ele>635</ele>
        <time>2019-01-18T11:38:18.000Z</time>
      </trkpt>
      <trkpt lat="43.33388" lon="5.69238">
        <ele>635</ele>
        <time>2019-01-18T11:38:19.000Z</time>
      </trkpt>
      <trkpt lat="43.33387" lon="5.69237">
        <ele>635</ele>
        <time>2019-01-18T11:38:20.000Z</time>
      </trkpt>
      <trkpt lat="43.33386" lon="5.69237">
        <ele>635</ele>
        <time>2019-01-18T11:38:21.000Z</time>
      </trkpt>
      <trkpt lat="43.33385" lon="5.69237">
        <ele>635</ele>
        <time>2019-01-18T11:38:22.000Z</time>
      </trkpt>
      <trkpt lat="43.33383" lon="5.69236">
        <ele>635</ele>
        <time>2019-01-18T11:38:23.000Z</time>
      </trkpt>
      <trkpt lat="43.33382" lon="5.69236">
        <ele>636</ele>
        <time>2019-01-18T11:38:24.000Z</time>
      </trkpt>
      <trkpt lat="43.33381" lon="5.69236">
        <ele>636</ele>
        <time>2019-01-18T11:38:25.000Z</time>
      </trkpt>
      <trkpt lat="43.3338" lon="5.69236">
        <ele>636</ele>
        <time>2019-01-18T11:38:26.000Z</time>
      </trkpt>
      <trkpt lat="43.33379" lon="5.69235">
        <ele>636</ele>
        <time>2019-01-18T11:38:27.000Z</time>
      </trkpt>
      <trkpt lat="43.33377" lon="5.69235">
        <ele>636</ele>
        <time>2019-01-18T11:38:28.000Z</time>
      </trkpt>
      <trkpt lat="43.33376" lon="5.69234">
        <ele>636</ele>
        <time>2019-01-18T11:38:29.000Z</time>
      </trkpt>
      <trkpt lat="43.33375" lon="5.69234">
        <ele>636</ele>
        <time>2019-01-18T11:38:30.000Z</time>
      </trkpt>
      <trkpt lat="43.33374" lon="5.69233">
        <ele>636</ele>
        <time>2019-01-18T11:38:31.000Z</time>
      </trkpt>
      <trkpt lat="43.33373" lon="5.69233">
        <ele>636</ele>
        <time>2019-01-18T11:38:32.000Z</time>
      </trkpt>
      <trkpt lat="43.33373" lon="5.69232">
        <ele>636</ele>
        <time>2019-01-18T11:38:33.000Z</time>
      </trkpt>
      <trkpt lat="43.33372" lon="5.69232">
        <ele>636</ele>
        <time>2019-01-18T11:38:34.000Z</time>
      </trkpt>
      <trkpt lat="43.33371" lon="5.69232">
        <ele>636</ele>
        <time>2019-01-18T11:38:35.000Z</time>
      </trkpt>
      <trkpt lat="43.3337" lon="5.69232">
        <ele>636</ele>
        <time>2019-01-18T11:38:36.000Z</time>
      </trkpt>
      <trkpt lat="43.33368" lon="5.69232">
        <ele>636</ele>
        <time>2019-01-18T11:38:37.000Z</time>
      </trkpt>
      <trkpt lat="43.33367" lon="5.69231">
        <ele>636</ele>
        <time>2019-01-18T11:38:38.000Z</time>
      </trkpt>
      <trkpt lat="43.33366" lon="5.69231">
        <ele>636</ele>
        <time>2019-01-18T11:38:39.000Z</time>
      </trkpt>
      <trkpt lat="43.33365" lon="5.69231">
        <ele>636</ele>
        <time>2019-01-18T11:38:40.000Z</time>
      </trkpt>
      <trkpt lat="43.33364" lon="5.69231">
        <ele>636</ele>
        <time>2019-01-18T11:38:41.000Z</time>
      </trkpt>
      <trkpt lat="43.33363" lon="5.69231">
        <ele>636</ele>
        <time>2019-01-18T11:38:42.000Z</time>
      </trkpt>
      <trkpt lat="43.33362" lon="5.6923">
        <ele>636</ele>
        <time>2019-01-18T11:38:43.000Z</time>
      </trkpt>
      <trkpt lat="43.33361" lon="5.6923">
        <ele>636</ele>
        <time>2019-01-18T11:38:44.000Z</time>
      </trkpt>
      <trkpt lat="43.3336" lon="5.69229">
        <ele>636</ele>
        <time>2019-01-18T11:38:45.000Z</time>
      </trkpt>
      <trkpt lat="43.33359" lon="5.69229">
        <ele>636</ele>
        <time>2019-01-18T11:38:46.000Z</time>
      </trkpt>
      <trkpt lat="43.33358" lon="5.69228">
        <ele>636</ele>
        <time>2019-01-18T11:38:47.000Z</time>
      </trkpt>
      <trkpt lat="43.33357" lon="5.69228">
        <ele>636</ele>
        <time>2019-01-18T11:38:48.000Z</time>
      </trkpt>
      <trkpt lat="43.33356" lon="5.69227">
        <ele>636</ele>
        <time>2019-01-18T11:38:49.000Z</time>
      </trkpt>
      <trkpt lat="43.33355" lon="5.69227">
        <ele>636</ele>
        <time>2019-01-18T11:38:50.000Z</time>
      </trkpt>
      <trkpt lat="43.33354" lon="5.69227">
        <ele>636</ele>
        <time>2019-01-18T11:38:51.000Z</time>
      </trkpt>
      <trkpt lat="43.33353" lon="5.69226">
        <ele>637</ele>
        <time>2019-01-18T11:38:52.000Z</time>
      </trkpt>
      <trkpt lat="43.33352" lon="5.69226">
        <ele>637</ele>
        <time>2019-01-18T11:38:53.000Z</time>
      </trkpt>
      <trkpt lat="43.33351" lon="5.69226">
        <ele>637</ele>
        <time>2019-01-18T11:38:54.000Z</time>
      </trkpt>
      <trkpt lat="43.3335" lon="5.69225">
        <ele>637</ele>
        <time>2019-01-18T11:38:55.000Z</time>
      </trkpt>
      <trkpt lat="43.33349" lon="5.69225">
        <ele>637</ele>
        <time>2019-01-18T11:38:56.000Z</time>
      </trkpt>
      <trkpt lat="43.33348" lon="5.69224">
        <ele>637</ele>
        <time>2019-01-18T11:38:57.000Z</time>
      </trkpt>
      <trkpt lat="43.33346" lon="5.69224">
        <ele>637</ele>
        <time>2019-01-18T11:38:58.000Z</time>
      </trkpt>
      <trkpt lat="43.33345" lon="5.69224">
        <ele>637</ele>
        <time>2019-01-18T11:38:59.000Z</time>
      </trkpt>
      <trkpt lat="43.33344" lon="5.69224">
        <ele>637</ele>
        <time>2019-01-18T11:39:00.000Z</time>
      </trkpt>
      <trkpt lat="43.33343" lon="5.69223">
        <ele>637</ele>
        <time>2019-01-18T11:39:01.000Z</time>
      </trkpt>
      <trkpt lat="43.33342" lon="5.69223">
        <ele>637</ele>
        <time>2019-01-18T11:39:02.000Z</time>
      </trkpt>
      <trkpt lat="43.33341" lon="5.69223">
        <ele>637</ele>
        <time>2019-01-18T11:39:03.000Z</time>
      </trkpt>
      <trkpt lat="43.3334" lon="5.69223">
        <ele>637</ele>
        <time>2019-01-18T11:39:04.000Z</time>
      </trkpt>
      <trkpt lat="43.33338" lon="5.69223">
        <ele>637</ele>
        <time>2019-01-18T11:39:05.000Z</time>
      </trkpt>
      <trkpt lat="43.33337" lon="5.69223">
        <ele>637</ele>
        <time>2019-01-18T11:39:06.000Z</time>
      </trkpt>
      <trkpt lat="43.33335" lon="5.69223">
        <ele>638</ele>
        <time>2019-01-18T11:39:07.000Z</time>
      </trkpt>
      <trkpt lat="43.33334" lon="5.69222">
        <ele>638</ele>
        <time>2019-01-18T11:39:08.000Z</time>
      </trkpt>
      <trkpt lat="43.33332" lon="5.69222">
        <ele>638</ele>
        <time>2019-01-18T11:39:09.000Z</time>
      </trkpt>
      <trkpt lat="43.33331" lon="5.69222">
        <ele>638</ele>
        <time>2019-01-18T11:39:10.000Z</time>
      </trkpt>
      <trkpt lat="43.3333" lon="5.69222">
        <ele>638</ele>
        <time>2019-01-18T11:39:11.000Z</time>
      </trkpt>
      <trkpt lat="43.33329" lon="5.69222">
        <ele>638</ele>
        <time>2019-01-18T11:39:12.000Z</time>
      </trkpt>
      <trkpt lat="43.33327" lon="5.69221">
        <ele>638</ele>
        <time>2019-01-18T11:39:13.000Z</time>
      </trkpt>
      <trkpt lat="43.33326" lon="5.69221">
        <ele>638</ele>
        <time>2019-01-18T11:39:14.000Z</time>
      </trkpt>
      <trkpt lat="43.33325" lon="5.69221">
        <ele>638</ele>
        <time>2019-01-18T11:39:15.000Z</time>
      </trkpt>
      <trkpt lat="43.33323" lon="5.6922">
        <ele>638</ele>
        <time>2019-01-18T11:39:16.000Z</time>
      </trkpt>
      <trkpt lat="43.33322" lon="5.6922">
        <ele>638</ele>
        <time>2019-01-18T11:39:17.000Z</time>
      </trkpt>
      <trkpt lat="43.33321" lon="5.6922">
        <ele>638</ele>
        <time>2019-01-18T11:39:18.000Z</time>
      </trkpt>
      <trkpt lat="43.33319" lon="5.6922">
        <ele>638</ele>
        <time>2019-01-18T11:39:19.000Z</time>
      </trkpt>
      <trkpt lat="43.33318" lon="5.6922">
        <ele>638</ele>
        <time>2019-01-18T11:39:20.000Z</time>
      </trkpt>
      <trkpt lat="43.33317" lon="5.6922">
        <ele>639</ele>
        <time>2019-01-18T11:39:21.000Z</time>
      </trkpt>
      <trkpt lat="43.33316" lon="5.6922">
        <ele>639</ele>
        <time>2019-01-18T11:39:22.000Z</time>
      </trkpt>
      <trkpt lat="43.33315" lon="5.6922">
        <ele>639</ele>
        <time>2019-01-18T11:39:23.000Z</time>
      </trkpt>
      <trkpt lat="43.33313" lon="5.6922">
        <ele>639</ele>
        <time>2019-01-18T11:39:24.000Z</time>
      </trkpt>
      <trkpt lat="43.33312" lon="5.6922">
        <ele>639</ele>
        <time>2019-01-18T11:39:25.000Z</time>
      </trkpt>
      <trkpt lat="43.33311" lon="5.6922">
        <ele>639</ele>
        <time>2019-01-18T11:39:26.000Z</time>
      </trkpt>
      <trkpt lat="43.3331" lon="5.6922">
        <ele>640</ele>
        <time>2019-01-18T11:39:27.000Z</time>
      </trkpt>
      <trkpt lat="43.33309" lon="5.6922">
        <ele>640</ele>
        <time>2019-01-18T11:39:28.000Z</time>
      </trkpt>
      <trkpt lat="43.33307" lon="5.6922">
        <ele>640</ele>
        <time>2019-01-18T11:39:29.000Z</time>
      </trkpt>
      <trkpt lat="43.33306" lon="5.6922">
        <ele>640</ele>
        <time>2019-01-18T11:39:30.000Z</time>
      </trkpt>
      <trkpt lat="43.33305" lon="5.6922">
        <ele>640</ele>
        <time>2019-01-18T11:39:31.000Z</time>
      </trkpt>
      <trkpt lat="43.33304" lon="5.6922">
        <ele>640</ele>
        <time>2019-01-18T11:39:32.000Z</time>
      </trkpt>
      <trkpt lat="43.33303" lon="5.6922">
        <ele>640</ele>
        <time>2019-01-18T11:39:33.000Z</time>
      </trkpt>
      <trkpt lat="43.33302" lon="5.6922">
        <ele>640</ele>
        <time>2019-01-18T11:39:34.000Z</time>
      </trkpt>
      <trkpt lat="43.333" lon="5.6922">
        <ele>640</ele>
        <time>2019-01-18T11:39:35.000Z</time>
      </trkpt>
      <trkpt lat="43.33299" lon="5.69219">
        <ele>640</ele>
        <time>2019-01-18T11:39:36.000Z</time>
      </trkpt>
      <trkpt lat="43.33298" lon="5.69219">
        <ele>640</ele>
        <time>2019-01-18T11:39:37.000Z</time>
      </trkpt>
      <trkpt lat="43.33297" lon="5.69219">
        <ele>640</ele>
        <time>2019-01-18T11:39:38.000Z</time>
      </trkpt>
      <trkpt lat="43.33296" lon="5.69219">
        <ele>640</ele>
        <time>2019-01-18T11:39:39.000Z</time>
      </trkpt>
      <trkpt lat="43.33295" lon="5.69219">
        <ele>640</ele>
        <time>2019-01-18T11:39:40.000Z</time>
      </trkpt>
      <trkpt lat="43.33294" lon="5.69219">
        <ele>640</ele>
        <time>2019-01-18T11:39:41.000Z</time>
      </trkpt>
      <trkpt lat="43.33293" lon="5.69219">
        <ele>640</ele>
        <time>2019-01-18T11:39:42.000Z</time>
      </trkpt>
      <trkpt lat="43.33292" lon="5.69219">
        <ele>640</ele>
        <time>2019-01-18T11:39:43.000Z</time>
      </trkpt>
      <trkpt lat="43.33291" lon="5.69219">
        <ele>640</ele>
        <time>2019-01-18T11:39:44.000Z</time>
      </trkpt>
      <trkpt lat="43.33289" lon="5.69219">
        <ele>640</ele>
        <time>2019-01-18T11:39:45.000Z</time>
      </trkpt>
      <trkpt lat="43.33288" lon="5.69219">
        <ele>640</ele>
        <time>2019-01-18T11:39:46.000Z</time>
      </trkpt>
      <trkpt lat="43.33287" lon="5.69219">
        <ele>640</ele>
        <time>2019-01-18T11:39:47.000Z</time>
      </trkpt>
      <trkpt lat="43.33286" lon="5.69219">
        <ele>640</ele>
        <time>2019-01-18T11:39:48.000Z</time>
      </trkpt>
      <trkpt lat="43.33285" lon="5.69218">
        <ele>640</ele>
        <time>2019-01-18T11:39:49.000Z</time>
      </trkpt>
      <trkpt lat="43.33284" lon="5.69218">
        <ele>640</ele>
        <time>2019-01-18T11:39:50.000Z</time>
      </trkpt>
      <trkpt lat="43.33282" lon="5.69218">
        <ele>640</ele>
        <time>2019-01-18T11:39:51.000Z</time>
      </trkpt>
      <trkpt lat="43.33281" lon="5.69219">
        <ele>640</ele>
        <time>2019-01-18T11:39:52.000Z</time>
      </trkpt>
      <trkpt lat="43.3328" lon="5.69219">
        <ele>640</ele>
        <time>2019-01-18T11:39:53.000Z</time>
      </trkpt>
      <trkpt lat="43.33279" lon="5.69219">
        <ele>640</ele>
        <time>2019-01-18T11:39:54.000Z</time>
      </trkpt>
      <trkpt lat="43.33279" lon="5.69219">
        <ele>640</ele>
        <time>2019-01-18T11:39:55.000Z</time>
      </trkpt>
      <trkpt lat="43.33277" lon="5.69219">
        <ele>641</ele>
        <time>2019-01-18T11:39:56.000Z</time>
      </trkpt>
      <trkpt lat="43.33276" lon="5.69219">
        <ele>641</ele>
        <time>2019-01-18T11:39:57.000Z</time>
      </trkpt>
      <trkpt lat="43.33275" lon="5.69219">
        <ele>641</ele>
        <time>2019-01-18T11:39:58.000Z</time>
      </trkpt>
      <trkpt lat="43.33274" lon="5.69219">
        <ele>641</ele>
        <time>2019-01-18T11:39:59.000Z</time>
      </trkpt>
      <trkpt lat="43.33273" lon="5.69219">
        <ele>641</ele>
        <time>2019-01-18T11:40:00.000Z</time>
      </trkpt>
      <trkpt lat="43.33272" lon="5.69218">
        <ele>641</ele>
        <time>2019-01-18T11:40:01.000Z</time>
      </trkpt>
      <trkpt lat="43.33271" lon="5.69218">
        <ele>641</ele>
        <time>2019-01-18T11:40:02.000Z</time>
      </trkpt>
      <trkpt lat="43.3327" lon="5.69218">
        <ele>641</ele>
        <time>2019-01-18T11:40:03.000Z</time>
      </trkpt>
      <trkpt lat="43.33268" lon="5.69218">
        <ele>641</ele>
        <time>2019-01-18T11:40:04.000Z</time>
      </trkpt>
      <trkpt lat="43.33267" lon="5.69217">
        <ele>641</ele>
        <time>2019-01-18T11:40:05.000Z</time>
      </trkpt>
      <trkpt lat="43.33266" lon="5.69217">
        <ele>642</ele>
        <time>2019-01-18T11:40:06.000Z</time>
      </trkpt>
      <trkpt lat="43.33265" lon="5.69216">
        <ele>642</ele>
        <time>2019-01-18T11:40:07.000Z</time>
      </trkpt>
      <trkpt lat="43.33264" lon="5.69216">
        <ele>642</ele>
        <time>2019-01-18T11:40:08.000Z</time>
      </trkpt>
      <trkpt lat="43.33263" lon="5.69215">
        <ele>642</ele>
        <time>2019-01-18T11:40:09.000Z</time>
      </trkpt>
      <trkpt lat="43.33261" lon="5.69215">
        <ele>642</ele>
        <time>2019-01-18T11:40:10.000Z</time>
      </trkpt>
      <trkpt lat="43.3326" lon="5.69215">
        <ele>642</ele>
        <time>2019-01-18T11:40:11.000Z</time>
      </trkpt>
      <trkpt lat="43.33259" lon="5.69214">
        <ele>642</ele>
        <time>2019-01-18T11:40:12.000Z</time>
      </trkpt>
      <trkpt lat="43.33258" lon="5.69214">
        <ele>642</ele>
        <time>2019-01-18T11:40:13.000Z</time>
      </trkpt>
      <trkpt lat="43.33257" lon="5.69214">
        <ele>642</ele>
        <time>2019-01-18T11:40:14.000Z</time>
      </trkpt>
      <trkpt lat="43.33256" lon="5.69213">
        <ele>642</ele>
        <time>2019-01-18T11:40:15.000Z</time>
      </trkpt>
      <trkpt lat="43.33254" lon="5.69212">
        <ele>642</ele>
        <time>2019-01-18T11:40:16.000Z</time>
      </trkpt>
      <trkpt lat="43.33253" lon="5.69212">
        <ele>642</ele>
        <time>2019-01-18T11:40:17.000Z</time>
      </trkpt>
      <trkpt lat="43.33252" lon="5.69211">
        <ele>642</ele>
        <time>2019-01-18T11:40:18.000Z</time>
      </trkpt>
      <trkpt lat="43.33251" lon="5.69211">
        <ele>642</ele>
        <time>2019-01-18T11:40:19.000Z</time>
      </trkpt>
      <trkpt lat="43.3325" lon="5.69211">
        <ele>643</ele>
        <time>2019-01-18T11:40:20.000Z</time>
      </trkpt>
      <trkpt lat="43.33249" lon="5.6921">
        <ele>643</ele>
        <time>2019-01-18T11:40:21.000Z</time>
      </trkpt>
      <trkpt lat="43.33248" lon="5.6921">
        <ele>642</ele>
        <time>2019-01-18T11:40:22.000Z</time>
      </trkpt>
      <trkpt lat="43.33247" lon="5.69209">
        <ele>642</ele>
        <time>2019-01-18T11:40:23.000Z</time>
      </trkpt>
      <trkpt lat="43.33245" lon="5.69208">
        <ele>642</ele>
        <time>2019-01-18T11:40:24.000Z</time>
      </trkpt>
      <trkpt lat="43.33244" lon="5.69208">
        <ele>642</ele>
        <time>2019-01-18T11:40:25.000Z</time>
      </trkpt>
      <trkpt lat="43.33243" lon="5.69208">
        <ele>642</ele>
        <time>2019-01-18T11:40:26.000Z</time>
      </trkpt>
      <trkpt lat="43.33242" lon="5.69207">
        <ele>642</ele>
        <time>2019-01-18T11:40:27.000Z</time>
      </trkpt>
      <trkpt lat="43.33241" lon="5.69207">
        <ele>642</ele>
        <time>2019-01-18T11:40:28.000Z</time>
      </trkpt>
      <trkpt lat="43.3324" lon="5.69206">
        <ele>642</ele>
        <time>2019-01-18T11:40:29.000Z</time>
      </trkpt>
      <trkpt lat="43.33239" lon="5.69205">
        <ele>642</ele>
        <time>2019-01-18T11:40:30.000Z</time>
      </trkpt>
      <trkpt lat="43.33238" lon="5.69204">
        <ele>642</ele>
        <time>2019-01-18T11:40:31.000Z</time>
      </trkpt>
      <trkpt lat="43.33238" lon="5.69203">
        <ele>642</ele>
        <time>2019-01-18T11:40:32.000Z</time>
      </trkpt>
      <trkpt lat="43.33237" lon="5.69204">
        <ele>642</ele>
        <time>2019-01-18T11:40:33.000Z</time>
      </trkpt>
      <trkpt lat="43.33237" lon="5.69204">
        <ele>642</ele>
        <time>2019-01-18T11:40:34.000Z</time>
      </trkpt>
      <trkpt lat="43.33236" lon="5.69205">
        <ele>642</ele>
        <time>2019-01-18T11:40:35.000Z</time>
      </trkpt>
      <trkpt lat="43.33235" lon="5.69205">
        <ele>642</ele>
        <time>2019-01-18T11:40:36.000Z</time>
      </trkpt>
      <trkpt lat="43.33234" lon="5.69205">
        <ele>642</ele>
        <time>2019-01-18T11:40:37.000Z</time>
      </trkpt>
      <trkpt lat="43.33233" lon="5.69204">
        <ele>642</ele>
        <time>2019-01-18T11:40:38.000Z</time>
      </trkpt>
      <trkpt lat="43.33233" lon="5.69204">
        <ele>642</ele>
        <time>2019-01-18T11:40:39.000Z</time>
      </trkpt>
      <trkpt lat="43.33232" lon="5.69204">
        <ele>642</ele>
        <time>2019-01-18T11:40:40.000Z</time>
      </trkpt>
      <trkpt lat="43.33231" lon="5.69203">
        <ele>642</ele>
        <time>2019-01-18T11:40:41.000Z</time>
      </trkpt>
      <trkpt lat="43.3323" lon="5.69202">
        <ele>642</ele>
        <time>2019-01-18T11:40:42.000Z</time>
      </trkpt>
      <trkpt lat="43.33229" lon="5.69202">
        <ele>642</ele>
        <time>2019-01-18T11:40:43.000Z</time>
      </trkpt>
      <trkpt lat="43.33228" lon="5.69202">
        <ele>642</ele>
        <time>2019-01-18T11:40:44.000Z</time>
      </trkpt>
      <trkpt lat="43.33227" lon="5.69202">
        <ele>642</ele>
        <time>2019-01-18T11:40:45.000Z</time>
      </trkpt>
      <trkpt lat="43.33226" lon="5.69201">
        <ele>642</ele>
        <time>2019-01-18T11:40:46.000Z</time>
      </trkpt>
      <trkpt lat="43.33225" lon="5.69201">
        <ele>642</ele>
        <time>2019-01-18T11:40:47.000Z</time>
      </trkpt>
      <trkpt lat="43.33224" lon="5.692">
        <ele>642</ele>
        <time>2019-01-18T11:40:48.000Z</time>
      </trkpt>
      <trkpt lat="43.33223" lon="5.69199">
        <ele>642</ele>
        <time>2019-01-18T11:40:49.000Z</time>
      </trkpt>
      <trkpt lat="43.33222" lon="5.69198">
        <ele>642</ele>
        <time>2019-01-18T11:40:50.000Z</time>
      </trkpt>
      <trkpt lat="43.33221" lon="5.69197">
        <ele>642</ele>
        <time>2019-01-18T11:40:51.000Z</time>
      </trkpt>
      <trkpt lat="43.33221" lon="5.69196">
        <ele>642</ele>
        <time>2019-01-18T11:40:52.000Z</time>
      </trkpt>
      <trkpt lat="43.3322" lon="5.69195">
        <ele>642</ele>
        <time>2019-01-18T11:40:53.000Z</time>
      </trkpt>
      <trkpt lat="43.33219" lon="5.69194">
        <ele>642</ele>
        <time>2019-01-18T11:40:54.000Z</time>
      </trkpt>
      <trkpt lat="43.33218" lon="5.69193">
        <ele>642</ele>
        <time>2019-01-18T11:40:55.000Z</time>
      </trkpt>
      <trkpt lat="43.33217" lon="5.69192">
        <ele>642</ele>
        <time>2019-01-18T11:40:56.000Z</time>
      </trkpt>
      <trkpt lat="43.33216" lon="5.69191">
        <ele>642</ele>
        <time>2019-01-18T11:40:57.000Z</time>
      </trkpt>
      <trkpt lat="43.33215" lon="5.6919">
        <ele>642</ele>
        <time>2019-01-18T11:40:58.000Z</time>
      </trkpt>
      <trkpt lat="43.33214" lon="5.69189">
        <ele>642</ele>
        <time>2019-01-18T11:40:59.000Z</time>
      </trkpt>
      <trkpt lat="43.33213" lon="5.69188">
        <ele>642</ele>
        <time>2019-01-18T11:41:00.000Z</time>
      </trkpt>
      <trkpt lat="43.33212" lon="5.69186">
        <ele>642</ele>
        <time>2019-01-18T11:41:01.000Z</time>
      </trkpt>
      <trkpt lat="43.33211" lon="5.69185">
        <ele>642</ele>
        <time>2019-01-18T11:41:02.000Z</time>
      </trkpt>
      <trkpt lat="43.33211" lon="5.69184">
        <ele>642</ele>
        <time>2019-01-18T11:41:03.000Z</time>
      </trkpt>
      <trkpt lat="43.3321" lon="5.69184">
        <ele>641</ele>
        <time>2019-01-18T11:41:04.000Z</time>
      </trkpt>
      <trkpt lat="43.33209" lon="5.69184">
        <ele>641</ele>
        <time>2019-01-18T11:41:05.000Z</time>
      </trkpt>
      <trkpt lat="43.33208" lon="5.69184">
        <ele>641</ele>
        <time>2019-01-18T11:41:06.000Z</time>
      </trkpt>
      <trkpt lat="43.33207" lon="5.69184">
        <ele>641</ele>
        <time>2019-01-18T11:41:07.000Z</time>
      </trkpt>
      <trkpt lat="43.33205" lon="5.69183">
        <ele>641</ele>
        <time>2019-01-18T11:41:08.000Z</time>
      </trkpt>
      <trkpt lat="43.33204" lon="5.69183">
        <ele>641</ele>
        <time>2019-01-18T11:41:09.000Z</time>
      </trkpt>
      <trkpt lat="43.33203" lon="5.69182">
        <ele>641</ele>
        <time>2019-01-18T11:41:10.000Z</time>
      </trkpt>
      <trkpt lat="43.33202" lon="5.69182">
        <ele>641</ele>
        <time>2019-01-18T11:41:11.000Z</time>
      </trkpt>
      <trkpt lat="43.33201" lon="5.69181">
        <ele>641</ele>
        <time>2019-01-18T11:41:12.000Z</time>
      </trkpt>
      <trkpt lat="43.332" lon="5.6918">
        <ele>641</ele>
        <time>2019-01-18T11:41:13.000Z</time>
      </trkpt>
      <trkpt lat="43.33199" lon="5.69179">
        <ele>641</ele>
        <time>2019-01-18T11:41:14.000Z</time>
      </trkpt>
      <trkpt lat="43.33198" lon="5.69178">
        <ele>641</ele>
        <time>2019-01-18T11:41:15.000Z</time>
      </trkpt>
      <trkpt lat="43.33197" lon="5.69177">
        <ele>641</ele>
        <time>2019-01-18T11:41:16.000Z</time>
      </trkpt>
      <trkpt lat="43.33197" lon="5.69175">
        <ele>641</ele>
        <time>2019-01-18T11:41:17.000Z</time>
      </trkpt>
      <trkpt lat="43.33196" lon="5.69174">
        <ele>641</ele>
        <time>2019-01-18T11:41:18.000Z</time>
      </trkpt>
      <trkpt lat="43.33195" lon="5.69173">
        <ele>641</ele>
        <time>2019-01-18T11:41:19.000Z</time>
      </trkpt>
      <trkpt lat="43.33194" lon="5.69172">
        <ele>641</ele>
        <time>2019-01-18T11:41:20.000Z</time>
      </trkpt>
      <trkpt lat="43.33193" lon="5.69171">
        <ele>641</ele>
        <time>2019-01-18T11:41:21.000Z</time>
      </trkpt>
      <trkpt lat="43.33193" lon="5.69169">
        <ele>641</ele>
        <time>2019-01-18T11:41:22.000Z</time>
      </trkpt>
      <trkpt lat="43.33192" lon="5.69168">
        <ele>641</ele>
        <time>2019-01-18T11:41:23.000Z</time>
      </trkpt>
      <trkpt lat="43.33191" lon="5.69167">
        <ele>641</ele>
        <time>2019-01-18T11:41:24.000Z</time>
      </trkpt>
      <trkpt lat="43.3319" lon="5.69166">
        <ele>641</ele>
        <time>2019-01-18T11:41:25.000Z</time>
      </trkpt>
      <trkpt lat="43.3319" lon="5.69165">
        <ele>641</ele>
        <time>2019-01-18T11:41:26.000Z</time>
      </trkpt>
      <trkpt lat="43.33189" lon="5.69163">
        <ele>641</ele>
        <time>2019-01-18T11:41:27.000Z</time>
      </trkpt>
      <trkpt lat="43.33188" lon="5.69162">
        <ele>641</ele>
        <time>2019-01-18T11:41:28.000Z</time>
      </trkpt>
      <trkpt lat="43.33187" lon="5.69161">
        <ele>642</ele>
        <time>2019-01-18T11:41:29.000Z</time>
      </trkpt>
      <trkpt lat="43.33187" lon="5.6916">
        <ele>642</ele>
        <time>2019-01-18T11:41:30.000Z</time>
      </trkpt>
      <trkpt lat="43.33186" lon="5.69158">
        <ele>642</ele>
        <time>2019-01-18T11:41:31.000Z</time>
      </trkpt>
      <trkpt lat="43.33186" lon="5.69157">
        <ele>642</ele>
        <time>2019-01-18T11:41:32.000Z</time>
      </trkpt>
      <trkpt lat="43.33185" lon="5.69156">
        <ele>642</ele>
        <time>2019-01-18T11:41:33.000Z</time>
      </trkpt>
      <trkpt lat="43.33184" lon="5.69154">
        <ele>642</ele>
        <time>2019-01-18T11:41:34.000Z</time>
      </trkpt>
      <trkpt lat="43.33184" lon="5.69153">
        <ele>642</ele>
        <time>2019-01-18T11:41:35.000Z</time>
      </trkpt>
      <trkpt lat="43.33183" lon="5.69152">
        <ele>642</ele>
        <time>2019-01-18T11:41:36.000Z</time>
      </trkpt>
      <trkpt lat="43.33183" lon="5.6915">
        <ele>642</ele>
        <time>2019-01-18T11:41:37.000Z</time>
      </trkpt>
      <trkpt lat="43.33182" lon="5.69149">
        <ele>642</ele>
        <time>2019-01-18T11:41:38.000Z</time>
      </trkpt>
      <trkpt lat="43.33181" lon="5.69148">
        <ele>642</ele>
        <time>2019-01-18T11:41:39.000Z</time>
      </trkpt>
      <trkpt lat="43.33181" lon="5.69147">
        <ele>642</ele>
        <time>2019-01-18T11:41:40.000Z</time>
      </trkpt>
      <trkpt lat="43.3318" lon="5.69146">
        <ele>642</ele>
        <time>2019-01-18T11:41:41.000Z</time>
      </trkpt>
      <trkpt lat="43.33179" lon="5.69145">
        <ele>642</ele>
        <time>2019-01-18T11:41:42.000Z</time>
      </trkpt>
      <trkpt lat="43.33178" lon="5.69143">
        <ele>642</ele>
        <time>2019-01-18T11:41:43.000Z</time>
      </trkpt>
      <trkpt lat="43.33177" lon="5.69142">
        <ele>642</ele>
        <time>2019-01-18T11:41:44.000Z</time>
      </trkpt>
      <trkpt lat="43.33177" lon="5.69141">
        <ele>642</ele>
        <time>2019-01-18T11:41:45.000Z</time>
      </trkpt>
      <trkpt lat="43.33176" lon="5.6914">
        <ele>642</ele>
        <time>2019-01-18T11:41:46.000Z</time>
      </trkpt>
      <trkpt lat="43.33175" lon="5.69138">
        <ele>642</ele>
        <time>2019-01-18T11:41:47.000Z</time>
      </trkpt>
      <trkpt lat="43.33175" lon="5.69137">
        <ele>642</ele>
        <time>2019-01-18T11:41:48.000Z</time>
      </trkpt>
      <trkpt lat="43.33174" lon="5.69136">
        <ele>642</ele>
        <time>2019-01-18T11:41:49.000Z</time>
      </trkpt>
      <trkpt lat="43.33174" lon="5.69134">
        <ele>642</ele>
        <time>2019-01-18T11:41:50.000Z</time>
      </trkpt>
      <trkpt lat="43.33173" lon="5.69133">
        <ele>642</ele>
        <time>2019-01-18T11:41:51.000Z</time>
      </trkpt>
      <trkpt lat="43.33172" lon="5.69132">
        <ele>643</ele>
        <time>2019-01-18T11:41:52.000Z</time>
      </trkpt>
      <trkpt lat="43.33172" lon="5.6913">
        <ele>643</ele>
        <time>2019-01-18T11:41:53.000Z</time>
      </trkpt>
      <trkpt lat="43.33171" lon="5.69129">
        <ele>643</ele>
        <time>2019-01-18T11:41:54.000Z</time>
      </trkpt>
      <trkpt lat="43.3317" lon="5.69128">
        <ele>643</ele>
        <time>2019-01-18T11:41:55.000Z</time>
      </trkpt>
      <trkpt lat="43.3317" lon="5.69127">
        <ele>643</ele>
        <time>2019-01-18T11:41:56.000Z</time>
      </trkpt>
      <trkpt lat="43.33169" lon="5.69125">
        <ele>643</ele>
        <time>2019-01-18T11:41:57.000Z</time>
      </trkpt>
      <trkpt lat="43.33168" lon="5.69124">
        <ele>643</ele>
        <time>2019-01-18T11:41:58.000Z</time>
      </trkpt>
      <trkpt lat="43.33167" lon="5.69123">
        <ele>643</ele>
        <time>2019-01-18T11:41:59.000Z</time>
      </trkpt>
      <trkpt lat="43.33167" lon="5.69122">
        <ele>644</ele>
        <time>2019-01-18T11:42:00.000Z</time>
      </trkpt>
      <trkpt lat="43.33166" lon="5.69121">
        <ele>644</ele>
        <time>2019-01-18T11:42:01.000Z</time>
      </trkpt>
      <trkpt lat="43.33165" lon="5.6912">
        <ele>644</ele>
        <time>2019-01-18T11:42:02.000Z</time>
      </trkpt>
      <trkpt lat="43.33165" lon="5.69118">
        <ele>644</ele>
        <time>2019-01-18T11:42:03.000Z</time>
      </trkpt>
      <trkpt lat="43.33164" lon="5.69117">
        <ele>644</ele>
        <time>2019-01-18T11:42:04.000Z</time>
      </trkpt>
      <trkpt lat="43.33163" lon="5.69116">
        <ele>644</ele>
        <time>2019-01-18T11:42:05.000Z</time>
      </trkpt>
      <trkpt lat="43.33163" lon="5.69115">
        <ele>644</ele>
        <time>2019-01-18T11:42:06.000Z</time>
      </trkpt>
      <trkpt lat="43.33162" lon="5.69113">
        <ele>644</ele>
        <time>2019-01-18T11:42:07.000Z</time>
      </trkpt>
      <trkpt lat="43.33162" lon="5.69112">
        <ele>644</ele>
        <time>2019-01-18T11:42:08.000Z</time>
      </trkpt>
      <trkpt lat="43.33161" lon="5.69111">
        <ele>644</ele>
        <time>2019-01-18T11:42:09.000Z</time>
      </trkpt>
      <trkpt lat="43.3316" lon="5.69109">
        <ele>644</ele>
        <time>2019-01-18T11:42:10.000Z</time>
      </trkpt>
      <trkpt lat="43.3316" lon="5.69108">
        <ele>644</ele>
        <time>2019-01-18T11:42:11.000Z</time>
      </trkpt>
      <trkpt lat="43.33159" lon="5.69106">
        <ele>644</ele>
        <time>2019-01-18T11:42:12.000Z</time>
      </trkpt>
      <trkpt lat="43.33158" lon="5.69105">
        <ele>644</ele>
        <time>2019-01-18T11:42:13.000Z</time>
      </trkpt>
      <trkpt lat="43.33158" lon="5.69104">
        <ele>644</ele>
        <time>2019-01-18T11:42:14.000Z</time>
      </trkpt>
      <trkpt lat="43.33157" lon="5.69103">
        <ele>644</ele>
        <time>2019-01-18T11:42:15.000Z</time>
      </trkpt>
      <trkpt lat="43.33156" lon="5.69102">
        <ele>644</ele>
        <time>2019-01-18T11:42:16.000Z</time>
      </trkpt>
      <trkpt lat="43.33155" lon="5.691">
        <ele>645</ele>
        <time>2019-01-18T11:42:17.000Z</time>
      </trkpt>
      <trkpt lat="43.33155" lon="5.691">
        <ele>645</ele>
        <time>2019-01-18T11:42:18.000Z</time>
      </trkpt>
      <trkpt lat="43.33154" lon="5.69099">
        <ele>645</ele>
        <time>2019-01-18T11:42:19.000Z</time>
      </trkpt>
      <trkpt lat="43.33153" lon="5.69098">
        <ele>645</ele>
        <time>2019-01-18T11:42:20.000Z</time>
      </trkpt>
      <trkpt lat="43.33152" lon="5.69097">
        <ele>645</ele>
        <time>2019-01-18T11:42:21.000Z</time>
      </trkpt>
      <trkpt lat="43.33151" lon="5.69096">
        <ele>645</ele>
        <time>2019-01-18T11:42:22.000Z</time>
      </trkpt>
      <trkpt lat="43.3315" lon="5.69096">
        <ele>645</ele>
        <time>2019-01-18T11:42:23.000Z</time>
      </trkpt>
      <trkpt lat="43.33149" lon="5.69095">
        <ele>645</ele>
        <time>2019-01-18T11:42:24.000Z</time>
      </trkpt>
      <trkpt lat="43.33148" lon="5.69094">
        <ele>645</ele>
        <time>2019-01-18T11:42:25.000Z</time>
      </trkpt>
      <trkpt lat="43.33147" lon="5.69094">
        <ele>645</ele>
        <time>2019-01-18T11:42:26.000Z</time>
      </trkpt>
      <trkpt lat="43.33146" lon="5.69093">
        <ele>645</ele>
        <time>2019-01-18T11:42:27.000Z</time>
      </trkpt>
      <trkpt lat="43.33146" lon="5.69094">
        <ele>645</ele>
        <time>2019-01-18T11:42:28.000Z</time>
      </trkpt>
      <trkpt lat="43.33145" lon="5.69094">
        <ele>645</ele>
        <time>2019-01-18T11:42:29.000Z</time>
      </trkpt>
      <trkpt lat="43.33144" lon="5.69095">
        <ele>645</ele>
        <time>2019-01-18T11:42:30.000Z</time>
      </trkpt>
      <trkpt lat="43.33144" lon="5.69096">
        <ele>645</ele>
        <time>2019-01-18T11:42:31.000Z</time>
      </trkpt>
      <trkpt lat="43.33144" lon="5.69097">
        <ele>645</ele>
        <time>2019-01-18T11:42:32.000Z</time>
      </trkpt>
      <trkpt lat="43.33143" lon="5.69098">
        <ele>645</ele>
        <time>2019-01-18T11:42:33.000Z</time>
      </trkpt>
      <trkpt lat="43.33143" lon="5.69099">
        <ele>645</ele>
        <time>2019-01-18T11:42:34.000Z</time>
      </trkpt>
      <trkpt lat="43.33142" lon="5.69099">
        <ele>645</ele>
        <time>2019-01-18T11:42:35.000Z</time>
      </trkpt>
      <trkpt lat="43.33142" lon="5.69099">
        <ele>645</ele>
        <time>2019-01-18T11:42:36.000Z</time>
      </trkpt>
      <trkpt lat="43.33142" lon="5.69099">
        <ele>645</ele>
        <time>2019-01-18T11:42:37.000Z</time>
      </trkpt>
      <trkpt lat="43.33142" lon="5.69099">
        <ele>645</ele>
        <time>2019-01-18T11:42:38.000Z</time>
      </trkpt>
      <trkpt lat="43.33142" lon="5.691">
        <ele>645</ele>
        <time>2019-01-18T11:42:39.000Z</time>
      </trkpt>
      <trkpt lat="43.33142" lon="5.691">
        <ele>645</ele>
        <time>2019-01-18T11:42:40.000Z</time>
      </trkpt>
      <trkpt lat="43.33141" lon="5.69101">
        <ele>645</ele>
        <time>2019-01-18T11:42:41.000Z</time>
      </trkpt>
      <trkpt lat="43.33141" lon="5.69102">
        <ele>645</ele>
        <time>2019-01-18T11:42:42.000Z</time>
      </trkpt>
      <trkpt lat="43.33141" lon="5.69103">
        <ele>645</ele>
        <time>2019-01-18T11:42:43.000Z</time>
      </trkpt>
      <trkpt lat="43.3314" lon="5.69103">
        <ele>645</ele>
        <time>2019-01-18T11:42:44.000Z</time>
      </trkpt>
      <trkpt lat="43.3314" lon="5.69104">
        <ele>645</ele>
        <time>2019-01-18T11:42:45.000Z</time>
      </trkpt>
      <trkpt lat="43.3314" lon="5.69104">
        <ele>645</ele>
        <time>2019-01-18T11:42:46.000Z</time>
      </trkpt>
      <trkpt lat="43.3314" lon="5.69105">
        <ele>645</ele>
        <time>2019-01-18T11:42:47.000Z</time>
      </trkpt>
      <trkpt lat="43.3314" lon="5.69107">
        <ele>645</ele>
        <time>2019-01-18T11:42:48.000Z</time>
      </trkpt>
      <trkpt lat="43.3314" lon="5.69108">
        <ele>645</ele>
        <time>2019-01-18T11:42:49.000Z</time>
      </trkpt>
      <trkpt lat="43.33139" lon="5.69109">
        <ele>645</ele>
        <time>2019-01-18T11:42:50.000Z</time>
      </trkpt>
      <trkpt lat="43.33139" lon="5.6911">
        <ele>645</ele>
        <time>2019-01-18T11:42:51.000Z</time>
      </trkpt>
      <trkpt lat="43.33139" lon="5.69111">
        <ele>645</ele>
        <time>2019-01-18T11:42:52.000Z</time>
      </trkpt>
      <trkpt lat="43.33139" lon="5.69112">
        <ele>645</ele>
        <time>2019-01-18T11:42:53.000Z</time>
      </trkpt>
      <trkpt lat="43.33139" lon="5.69114">
        <ele>645</ele>
        <time>2019-01-18T11:42:54.000Z</time>
      </trkpt>
      <trkpt lat="43.3314" lon="5.69115">
        <ele>645</ele>
        <time>2019-01-18T11:42:55.000Z</time>
      </trkpt>
      <trkpt lat="43.3314" lon="5.69116">
        <ele>645</ele>
        <time>2019-01-18T11:42:56.000Z</time>
      </trkpt>
      <trkpt lat="43.3314" lon="5.69117">
        <ele>645</ele>
        <time>2019-01-18T11:42:57.000Z</time>
      </trkpt>
      <trkpt lat="43.3314" lon="5.69119">
        <ele>645</ele>
        <time>2019-01-18T11:42:58.000Z</time>
      </trkpt>
      <trkpt lat="43.3314" lon="5.6912">
        <ele>645</ele>
        <time>2019-01-18T11:42:59.000Z</time>
      </trkpt>
      <trkpt lat="43.33139" lon="5.69121">
        <ele>645</ele>
        <time>2019-01-18T11:43:00.000Z</time>
      </trkpt>
      <trkpt lat="43.33139" lon="5.69122">
        <ele>645</ele>
        <time>2019-01-18T11:43:01.000Z</time>
      </trkpt>
      <trkpt lat="43.33138" lon="5.69122">
        <ele>645</ele>
        <time>2019-01-18T11:43:02.000Z</time>
      </trkpt>
      <trkpt lat="43.33138" lon="5.69122">
        <ele>645</ele>
        <time>2019-01-18T11:43:03.000Z</time>
      </trkpt>
      <trkpt lat="43.33138" lon="5.69122">
        <ele>645</ele>
        <time>2019-01-18T11:43:04.000Z</time>
      </trkpt>
      <trkpt lat="43.33138" lon="5.69123">
        <ele>645</ele>
        <time>2019-01-18T11:43:05.000Z</time>
      </trkpt>
      <trkpt lat="43.33137" lon="5.69124">
        <ele>645</ele>
        <time>2019-01-18T11:43:06.000Z</time>
      </trkpt>
      <trkpt lat="43.33136" lon="5.69124">
        <ele>645</ele>
        <time>2019-01-18T11:43:07.000Z</time>
      </trkpt>
      <trkpt lat="43.33136" lon="5.69124">
        <ele>645</ele>
        <time>2019-01-18T11:43:08.000Z</time>
      </trkpt>
      <trkpt lat="43.33135" lon="5.69124">
        <ele>645</ele>
        <time>2019-01-18T11:43:09.000Z</time>
      </trkpt>
      <trkpt lat="43.33134" lon="5.69124">
        <ele>646</ele>
        <time>2019-01-18T11:43:10.000Z</time>
      </trkpt>
      <trkpt lat="43.33134" lon="5.69124">
        <ele>646</ele>
        <time>2019-01-18T11:43:11.000Z</time>
      </trkpt>
      <trkpt lat="43.33133" lon="5.69124">
        <ele>646</ele>
        <time>2019-01-18T11:43:12.000Z</time>
      </trkpt>
      <trkpt lat="43.33133" lon="5.69124">
        <ele>646</ele>
        <time>2019-01-18T11:43:13.000Z</time>
      </trkpt>
      <trkpt lat="43.33133" lon="5.69124">
        <ele>646</ele>
        <time>2019-01-18T11:43:14.000Z</time>
      </trkpt>
      <trkpt lat="43.33133" lon="5.69124">
        <ele>646</ele>
        <time>2019-01-18T11:43:15.000Z</time>
      </trkpt>
      <trkpt lat="43.33133" lon="5.69124">
        <ele>646</ele>
        <time>2019-01-18T11:43:16.000Z</time>
      </trkpt>
      <trkpt lat="43.33132" lon="5.69124">
        <ele>646</ele>
        <time>2019-01-18T11:43:17.000Z</time>
      </trkpt>
      <trkpt lat="43.33132" lon="5.69124">
        <ele>646</ele>
        <time>2019-01-18T11:43:18.000Z</time>
      </trkpt>
      <trkpt lat="43.33131" lon="5.69124">
        <ele>646</ele>
        <time>2019-01-18T11:43:19.000Z</time>
      </trkpt>
      <trkpt lat="43.3313" lon="5.69123">
        <ele>646</ele>
        <time>2019-01-18T11:43:20.000Z</time>
      </trkpt>
      <trkpt lat="43.3313" lon="5.69123">
        <ele>646</ele>
        <time>2019-01-18T11:43:21.000Z</time>
      </trkpt>
      <trkpt lat="43.33129" lon="5.69123">
        <ele>646</ele>
        <time>2019-01-18T11:43:22.000Z</time>
      </trkpt>
      <trkpt lat="43.33129" lon="5.69122">
        <ele>646</ele>
        <time>2019-01-18T11:43:23.000Z</time>
      </trkpt>
      <trkpt lat="43.33129" lon="5.69123">
        <ele>646</ele>
        <time>2019-01-18T11:43:24.000Z</time>
      </trkpt>
      <trkpt lat="43.33129" lon="5.69123">
        <ele>646</ele>
        <time>2019-01-18T11:43:25.000Z</time>
      </trkpt>
      <trkpt lat="43.33129" lon="5.69123">
        <ele>646</ele>
        <time>2019-01-18T11:43:26.000Z</time>
      </trkpt>
      <trkpt lat="43.33129" lon="5.69123">
        <ele>646</ele>
        <time>2019-01-18T11:43:27.000Z</time>
      </trkpt>
      <trkpt lat="43.33128" lon="5.69123">
        <ele>646</ele>
        <time>2019-01-18T11:43:28.000Z</time>
      </trkpt>
      <trkpt lat="43.33128" lon="5.69122">
        <ele>646</ele>
        <time>2019-01-18T11:43:29.000Z</time>
      </trkpt>
      <trkpt lat="43.33127" lon="5.69122">
        <ele>647</ele>
        <time>2019-01-18T11:43:30.000Z</time>
      </trkpt>
      <trkpt lat="43.33126" lon="5.69122">
        <ele>647</ele>
        <time>2019-01-18T11:43:31.000Z</time>
      </trkpt>
      <trkpt lat="43.33126" lon="5.69122">
        <ele>647</ele>
        <time>2019-01-18T11:43:32.000Z</time>
      </trkpt>
      <trkpt lat="43.33125" lon="5.69122">
        <ele>647</ele>
        <time>2019-01-18T11:43:33.000Z</time>
      </trkpt>
      <trkpt lat="43.33125" lon="5.69121">
        <ele>647</ele>
        <time>2019-01-18T11:43:34.000Z</time>
      </trkpt>
      <trkpt lat="43.33124" lon="5.69121">
        <ele>647</ele>
        <time>2019-01-18T11:43:35.000Z</time>
      </trkpt>
      <trkpt lat="43.33124" lon="5.69121">
        <ele>647</ele>
        <time>2019-01-18T11:43:36.000Z</time>
      </trkpt>
      <trkpt lat="43.33123" lon="5.69121">
        <ele>647</ele>
        <time>2019-01-18T11:43:37.000Z</time>
      </trkpt>
      <trkpt lat="43.33123" lon="5.69121">
        <ele>647</ele>
        <time>2019-01-18T11:43:38.000Z</time>
      </trkpt>
      <trkpt lat="43.33122" lon="5.6912">
        <ele>648</ele>
        <time>2019-01-18T11:43:39.000Z</time>
      </trkpt>
      <trkpt lat="43.33121" lon="5.6912">
        <ele>648</ele>
        <time>2019-01-18T11:43:40.000Z</time>
      </trkpt>
      <trkpt lat="43.33121" lon="5.6912">
        <ele>648</ele>
        <time>2019-01-18T11:43:41.000Z</time>
      </trkpt>
      <trkpt lat="43.33121" lon="5.6912">
        <ele>648</ele>
        <time>2019-01-18T11:43:42.000Z</time>
      </trkpt>
      <trkpt lat="43.3312" lon="5.69119">
        <ele>648</ele>
        <time>2019-01-18T11:43:43.000Z</time>
      </trkpt>
      <trkpt lat="43.3312" lon="5.69119">
        <ele>649</ele>
        <time>2019-01-18T11:43:44.000Z</time>
      </trkpt>
      <trkpt lat="43.33119" lon="5.69119">
        <ele>649</ele>
        <time>2019-01-18T11:43:45.000Z</time>
      </trkpt>
      <trkpt lat="43.33119" lon="5.69119">
        <ele>649</ele>
        <time>2019-01-18T11:43:46.000Z</time>
      </trkpt>
      <trkpt lat="43.33118" lon="5.69119">
        <ele>649</ele>
        <time>2019-01-18T11:43:47.000Z</time>
      </trkpt>
      <trkpt lat="43.33118" lon="5.69118">
        <ele>649</ele>
        <time>2019-01-18T11:43:48.000Z</time>
      </trkpt>
      <trkpt lat="43.33117" lon="5.69118">
        <ele>649</ele>
        <time>2019-01-18T11:43:49.000Z</time>
      </trkpt>
      <trkpt lat="43.33117" lon="5.69118">
        <ele>650</ele>
        <time>2019-01-18T11:43:50.000Z</time>
      </trkpt>
      <trkpt lat="43.33116" lon="5.69118">
        <ele>650</ele>
        <time>2019-01-18T11:43:51.000Z</time>
      </trkpt>
      <trkpt lat="43.33116" lon="5.69117">
        <ele>650</ele>
        <time>2019-01-18T11:43:52.000Z</time>
      </trkpt>
      <trkpt lat="43.33115" lon="5.69116">
        <ele>650</ele>
        <time>2019-01-18T11:43:53.000Z</time>
      </trkpt>
      <trkpt lat="43.33115" lon="5.69116">
        <ele>650</ele>
        <time>2019-01-18T11:43:54.000Z</time>
      </trkpt>
      <trkpt lat="43.33114" lon="5.69116">
        <ele>650</ele>
        <time>2019-01-18T11:43:55.000Z</time>
      </trkpt>
      <trkpt lat="43.33114" lon="5.69115">
        <ele>651</ele>
        <time>2019-01-18T11:43:56.000Z</time>
      </trkpt>
      <trkpt lat="43.33113" lon="5.69115">
        <ele>651</ele>
        <time>2019-01-18T11:43:57.000Z</time>
      </trkpt>
      <trkpt lat="43.33113" lon="5.69115">
        <ele>651</ele>
        <time>2019-01-18T11:43:58.000Z</time>
      </trkpt>
      <trkpt lat="43.33112" lon="5.69114">
        <ele>651</ele>
        <time>2019-01-18T11:43:59.000Z</time>
      </trkpt>
      <trkpt lat="43.33111" lon="5.69114">
        <ele>651</ele>
        <time>2019-01-18T11:44:00.000Z</time>
      </trkpt>
      <trkpt lat="43.33111" lon="5.69113">
        <ele>651</ele>
        <time>2019-01-18T11:44:01.000Z</time>
      </trkpt>
      <trkpt lat="43.3311" lon="5.69113">
        <ele>651</ele>
        <time>2019-01-18T11:44:02.000Z</time>
      </trkpt>
      <trkpt lat="43.3311" lon="5.69112">
        <ele>651</ele>
        <time>2019-01-18T11:44:03.000Z</time>
      </trkpt>
      <trkpt lat="43.3311" lon="5.69112">
        <ele>652</ele>
        <time>2019-01-18T11:44:04.000Z</time>
      </trkpt>
      <trkpt lat="43.33109" lon="5.69112">
        <ele>652</ele>
        <time>2019-01-18T11:44:05.000Z</time>
      </trkpt>
      <trkpt lat="43.33108" lon="5.69112">
        <ele>652</ele>
        <time>2019-01-18T11:44:06.000Z</time>
      </trkpt>
      <trkpt lat="43.33108" lon="5.69111">
        <ele>652</ele>
        <time>2019-01-18T11:44:07.000Z</time>
      </trkpt>
      <trkpt lat="43.33107" lon="5.69111">
        <ele>652</ele>
        <time>2019-01-18T11:44:08.000Z</time>
      </trkpt>
      <trkpt lat="43.33107" lon="5.69111">
        <ele>652</ele>
        <time>2019-01-18T11:44:09.000Z</time>
      </trkpt>
      <trkpt lat="43.33106" lon="5.6911">
        <ele>652</ele>
        <time>2019-01-18T11:44:10.000Z</time>
      </trkpt>
      <trkpt lat="43.33106" lon="5.6911">
        <ele>653</ele>
        <time>2019-01-18T11:44:11.000Z</time>
      </trkpt>
      <trkpt lat="43.33106" lon="5.6911">
        <ele>653</ele>
        <time>2019-01-18T11:44:12.000Z</time>
      </trkpt>
      <trkpt lat="43.33105" lon="5.69109">
        <ele>653</ele>
        <time>2019-01-18T11:44:13.000Z</time>
      </trkpt>
      <trkpt lat="43.33105" lon="5.69109">
        <ele>653</ele>
        <time>2019-01-18T11:44:14.000Z</time>
      </trkpt>
      <trkpt lat="43.33104" lon="5.69109">
        <ele>653</ele>
        <time>2019-01-18T11:44:15.000Z</time>
      </trkpt>
      <trkpt lat="43.33104" lon="5.69108">
        <ele>653</ele>
        <time>2019-01-18T11:44:16.000Z</time>
      </trkpt>
      <trkpt lat="43.33103" lon="5.69107">
        <ele>653</ele>
        <time>2019-01-18T11:44:17.000Z</time>
      </trkpt>
      <trkpt lat="43.33103" lon="5.69107">
        <ele>654</ele>
        <time>2019-01-18T11:44:18.000Z</time>
      </trkpt>
      <trkpt lat="43.33103" lon="5.69106">
        <ele>654</ele>
        <time>2019-01-18T11:44:19.000Z</time>
      </trkpt>
      <trkpt lat="43.33102" lon="5.69106">
        <ele>654</ele>
        <time>2019-01-18T11:44:20.000Z</time>
      </trkpt>
      <trkpt lat="43.33102" lon="5.69106">
        <ele>654</ele>
        <time>2019-01-18T11:44:21.000Z</time>
      </trkpt>
      <trkpt lat="43.33102" lon="5.69105">
        <ele>654</ele>
        <time>2019-01-18T11:44:22.000Z</time>
      </trkpt>
      <trkpt lat="43.33101" lon="5.69105">
        <ele>654</ele>
        <time>2019-01-18T11:44:23.000Z</time>
      </trkpt>
      <trkpt lat="43.33101" lon="5.69105">
        <ele>654</ele>
        <time>2019-01-18T11:44:24.000Z</time>
      </trkpt>
      <trkpt lat="43.331" lon="5.69105">
        <ele>654</ele>
        <time>2019-01-18T11:44:25.000Z</time>
      </trkpt>
      <trkpt lat="43.331" lon="5.69105">
        <ele>655</ele>
        <time>2019-01-18T11:44:26.000Z</time>
      </trkpt>
      <trkpt lat="43.33099" lon="5.69104">
        <ele>655</ele>
        <time>2019-01-18T11:44:27.000Z</time>
      </trkpt>
      <trkpt lat="43.33099" lon="5.69103">
        <ele>655</ele>
        <time>2019-01-18T11:44:28.000Z</time>
      </trkpt>
      <trkpt lat="43.33099" lon="5.69103">
        <ele>655</ele>
        <time>2019-01-18T11:44:29.000Z</time>
      </trkpt>
      <trkpt lat="43.33098" lon="5.69102">
        <ele>655</ele>
        <time>2019-01-18T11:44:30.000Z</time>
      </trkpt>
      <trkpt lat="43.33098" lon="5.69102">
        <ele>655</ele>
        <time>2019-01-18T11:44:31.000Z</time>
      </trkpt>
      <trkpt lat="43.33097" lon="5.69101">
        <ele>655</ele>
        <time>2019-01-18T11:44:32.000Z</time>
      </trkpt>
      <trkpt lat="43.33097" lon="5.69101">
        <ele>655</ele>
        <time>2019-01-18T11:44:33.000Z</time>
      </trkpt>
      <trkpt lat="43.33096" lon="5.69101">
        <ele>656</ele>
        <time>2019-01-18T11:44:34.000Z</time>
      </trkpt>
      <trkpt lat="43.33096" lon="5.691">
        <ele>656</ele>
        <time>2019-01-18T11:44:35.000Z</time>
      </trkpt>
      <trkpt lat="43.33095" lon="5.691">
        <ele>656</ele>
        <time>2019-01-18T11:44:36.000Z</time>
      </trkpt>
      <trkpt lat="43.33095" lon="5.691">
        <ele>656</ele>
        <time>2019-01-18T11:44:37.000Z</time>
      </trkpt>
      <trkpt lat="43.33094" lon="5.69099">
        <ele>656</ele>
        <time>2019-01-18T11:44:38.000Z</time>
      </trkpt>
      <trkpt lat="43.33094" lon="5.69099">
        <ele>657</ele>
        <time>2019-01-18T11:44:39.000Z</time>
      </trkpt>
      <trkpt lat="43.33093" lon="5.69099">
        <ele>657</ele>
        <time>2019-01-18T11:44:40.000Z</time>
      </trkpt>
      <trkpt lat="43.33093" lon="5.69098">
        <ele>657</ele>
        <time>2019-01-18T11:44:41.000Z</time>
      </trkpt>
      <trkpt lat="43.33093" lon="5.69097">
        <ele>657</ele>
        <time>2019-01-18T11:44:42.000Z</time>
      </trkpt>
      <trkpt lat="43.33092" lon="5.69097">
        <ele>657</ele>
        <time>2019-01-18T11:44:43.000Z</time>
      </trkpt>
      <trkpt lat="43.33091" lon="5.69096">
        <ele>657</ele>
        <time>2019-01-18T11:44:44.000Z</time>
      </trkpt>
      <trkpt lat="43.33091" lon="5.69096">
        <ele>657</ele>
        <time>2019-01-18T11:44:45.000Z</time>
      </trkpt>
      <trkpt lat="43.3309" lon="5.69096">
        <ele>658</ele>
        <time>2019-01-18T11:44:46.000Z</time>
      </trkpt>
      <trkpt lat="43.3309" lon="5.69097">
        <ele>658</ele>
        <time>2019-01-18T11:44:47.000Z</time>
      </trkpt>
      <trkpt lat="43.33089" lon="5.69096">
        <ele>658</ele>
        <time>2019-01-18T11:44:48.000Z</time>
      </trkpt>
      <trkpt lat="43.33089" lon="5.69096">
        <ele>658</ele>
        <time>2019-01-18T11:44:49.000Z</time>
      </trkpt>
      <trkpt lat="43.33089" lon="5.69097">
        <ele>658</ele>
        <time>2019-01-18T11:44:50.000Z</time>
      </trkpt>
      <trkpt lat="43.33089" lon="5.69097">
        <ele>658</ele>
        <time>2019-01-18T11:44:51.000Z</time>
      </trkpt>
      <trkpt lat="43.33089" lon="5.69097">
        <ele>658</ele>
        <time>2019-01-18T11:44:52.000Z</time>
      </trkpt>
      <trkpt lat="43.33089" lon="5.69097">
        <ele>658</ele>
        <time>2019-01-18T11:44:53.000Z</time>
      </trkpt>
      <trkpt lat="43.33089" lon="5.69097">
        <ele>658</ele>
        <time>2019-01-18T11:44:54.000Z</time>
      </trkpt>
      <trkpt lat="43.33089" lon="5.69096">
        <ele>658</ele>
        <time>2019-01-18T11:44:55.000Z</time>
      </trkpt>
      <trkpt lat="43.33089" lon="5.69096">
        <ele>658</ele>
        <time>2019-01-18T11:44:56.000Z</time>
      </trkpt>
      <trkpt lat="43.33089" lon="5.69096">
        <ele>658</ele>
        <time>2019-01-18T11:44:57.000Z</time>
      </trkpt>
      <trkpt lat="43.33089" lon="5.69096">
        <ele>658</ele>
        <time>2019-01-18T11:44:58.000Z</time>
      </trkpt>
      <trkpt lat="43.33089" lon="5.69096">
        <ele>658</ele>
        <time>2019-01-18T11:44:59.000Z</time>
      </trkpt>
      <trkpt lat="43.33089" lon="5.69096">
        <ele>658</ele>
        <time>2019-01-18T11:45:00.000Z</time>
      </trkpt>
      <trkpt lat="43.33089" lon="5.69096">
        <ele>658</ele>
        <time>2019-01-18T11:45:01.000Z</time>
      </trkpt>
      <trkpt lat="43.33089" lon="5.69096">
        <ele>658</ele>
        <time>2019-01-18T11:45:02.000Z</time>
      </trkpt>
      <trkpt lat="43.33088" lon="5.69096">
        <ele>658</ele>
        <time>2019-01-18T11:45:03.000Z</time>
      </trkpt>
      <trkpt lat="43.33088" lon="5.69096">
        <ele>659</ele>
        <time>2019-01-18T11:45:04.000Z</time>
      </trkpt>
      <trkpt lat="43.33087" lon="5.69095">
        <ele>659</ele>
        <time>2019-01-18T11:45:05.000Z</time>
      </trkpt>
      <trkpt lat="43.33087" lon="5.69095">
        <ele>659</ele>
        <time>2019-01-18T11:45:06.000Z</time>
      </trkpt>
      <trkpt lat="43.33086" lon="5.69094">
        <ele>659</ele>
        <time>2019-01-18T11:45:07.000Z</time>
      </trkpt>
      <trkpt lat="43.33086" lon="5.69093">
        <ele>659</ele>
        <time>2019-01-18T11:45:08.000Z</time>
      </trkpt>
      <trkpt lat="43.33085" lon="5.69093">
        <ele>659</ele>
        <time>2019-01-18T11:45:09.000Z</time>
      </trkpt>
      <trkpt lat="43.33085" lon="5.69093">
        <ele>659</ele>
        <time>2019-01-18T11:45:10.000Z</time>
      </trkpt>
      <trkpt lat="43.33084" lon="5.69092">
        <ele>659</ele>
        <time>2019-01-18T11:45:11.000Z</time>
      </trkpt>
      <trkpt lat="43.33084" lon="5.69092">
        <ele>660</ele>
        <time>2019-01-18T11:45:12.000Z</time>
      </trkpt>
      <trkpt lat="43.33083" lon="5.69091">
        <ele>660</ele>
        <time>2019-01-18T11:45:13.000Z</time>
      </trkpt>
      <trkpt lat="43.33083" lon="5.69091">
        <ele>660</ele>
        <time>2019-01-18T11:45:14.000Z</time>
      </trkpt>
      <trkpt lat="43.33082" lon="5.6909">
        <ele>660</ele>
        <time>2019-01-18T11:45:15.000Z</time>
      </trkpt>
      <trkpt lat="43.33082" lon="5.69089">
        <ele>660</ele>
        <time>2019-01-18T11:45:16.000Z</time>
      </trkpt>
      <trkpt lat="43.33081" lon="5.69089">
        <ele>660</ele>
        <time>2019-01-18T11:45:17.000Z</time>
      </trkpt>
      <trkpt lat="43.33081" lon="5.69088">
        <ele>660</ele>
        <time>2019-01-18T11:45:18.000Z</time>
      </trkpt>
      <trkpt lat="43.3308" lon="5.69087">
        <ele>660</ele>
        <time>2019-01-18T11:45:19.000Z</time>
      </trkpt>
      <trkpt lat="43.3308" lon="5.69087">
        <ele>660</ele>
        <time>2019-01-18T11:45:20.000Z</time>
      </trkpt>
      <trkpt lat="43.3308" lon="5.69087">
        <ele>661</ele>
        <time>2019-01-18T11:45:21.000Z</time>
      </trkpt>
      <trkpt lat="43.3308" lon="5.69087">
        <ele>661</ele>
        <time>2019-01-18T11:45:22.000Z</time>
      </trkpt>
      <trkpt lat="43.3308" lon="5.69087">
        <ele>661</ele>
        <time>2019-01-18T11:45:23.000Z</time>
      </trkpt>
      <trkpt lat="43.3308" lon="5.69087">
        <ele>661</ele>
        <time>2019-01-18T11:45:24.000Z</time>
      </trkpt>
      <trkpt lat="43.3308" lon="5.69087">
        <ele>661</ele>
        <time>2019-01-18T11:45:25.000Z</time>
      </trkpt>
      <trkpt lat="43.3308" lon="5.69087">
        <ele>661</ele>
        <time>2019-01-18T11:45:26.000Z</time>
      </trkpt>
      <trkpt lat="43.3308" lon="5.69087">
        <ele>661</ele>
        <time>2019-01-18T11:45:27.000Z</time>
      </trkpt>
      <trkpt lat="43.3308" lon="5.69087">
        <ele>661</ele>
        <time>2019-01-18T11:45:28.000Z</time>
      </trkpt>
      <trkpt lat="43.3308" lon="5.69087">
        <ele>661</ele>
        <time>2019-01-18T11:45:29.000Z</time>
      </trkpt>
      <trkpt lat="43.3308" lon="5.69087">
        <ele>661</ele>
        <time>2019-01-18T11:45:30.000Z</time>
      </trkpt>
      <trkpt lat="43.3308" lon="5.69087">
        <ele>661</ele>
        <time>2019-01-18T11:45:31.000Z</time>
      </trkpt>
      <trkpt lat="43.3308" lon="5.69087">
        <ele>661</ele>
        <time>2019-01-18T11:45:32.000Z</time>
      </trkpt>
      <trkpt lat="43.3308" lon="5.69087">
        <ele>661</ele>
        <time>2019-01-18T11:45:33.000Z</time>
      </trkpt>
      <trkpt lat="43.3308" lon="5.69087">
        <ele>661</ele>
        <time>2019-01-18T11:45:34.000Z</time>
      </trkpt>
      <trkpt lat="43.3308" lon="5.69087">
        <ele>661</ele>
        <time>2019-01-18T11:45:35.000Z</time>
      </trkpt>
      <trkpt lat="43.3308" lon="5.69087">
        <ele>661</ele>
        <time>2019-01-18T11:45:36.000Z</time>
      </trkpt>
      <trkpt lat="43.3308" lon="5.69087">
        <ele>661</ele>
        <time>2019-01-18T11:45:37.000Z</time>
      </trkpt>
      <trkpt lat="43.3308" lon="5.69087">
        <ele>661</ele>
        <time>2019-01-18T11:45:38.000Z</time>
      </trkpt>
      <trkpt lat="43.3308" lon="5.69087">
        <ele>661</ele>
        <time>2019-01-18T11:45:39.000Z</time>
      </trkpt>
      <trkpt lat="43.3308" lon="5.69087">
        <ele>661</ele>
        <time>2019-01-18T11:45:40.000Z</time>
      </trkpt>
      <trkpt lat="43.3308" lon="5.69087">
        <ele>661</ele>
        <time>2019-01-18T11:45:41.000Z</time>
      </trkpt>
      <trkpt lat="43.3308" lon="5.69087">
        <ele>661</ele>
        <time>2019-01-18T11:45:42.000Z</time>
      </trkpt>
      <trkpt lat="43.3308" lon="5.69087">
        <ele>661</ele>
        <time>2019-01-18T11:45:43.000Z</time>
      </trkpt>
      <trkpt lat="43.3308" lon="5.69087">
        <ele>661</ele>
        <time>2019-01-18T11:45:44.000Z</time>
      </trkpt>
      <trkpt lat="43.3308" lon="5.69087">
        <ele>661</ele>
        <time>2019-01-18T11:45:45.000Z</time>
      </trkpt>
      <trkpt lat="43.33079" lon="5.69087">
        <ele>661</ele>
        <time>2019-01-18T11:45:46.000Z</time>
      </trkpt>
      <trkpt lat="43.33079" lon="5.69086">
        <ele>661</ele>
        <time>2019-01-18T11:45:47.000Z</time>
      </trkpt>
      <trkpt lat="43.33079" lon="5.69086">
        <ele>661</ele>
        <time>2019-01-18T11:45:48.000Z</time>
      </trkpt>
      <trkpt lat="43.33079" lon="5.69085">
        <ele>661</ele>
        <time>2019-01-18T11:45:49.000Z</time>
      </trkpt>
      <trkpt lat="43.33078" lon="5.69084">
        <ele>661</ele>
        <time>2019-01-18T11:45:50.000Z</time>
      </trkpt>
      <trkpt lat="43.33078" lon="5.69084">
        <ele>661</ele>
        <time>2019-01-18T11:45:51.000Z</time>
      </trkpt>
      <trkpt lat="43.33077" lon="5.69084">
        <ele>661</ele>
        <time>2019-01-18T11:45:52.000Z</time>
      </trkpt>
      <trkpt lat="43.33076" lon="5.69083">
        <ele>662</ele>
        <time>2019-01-18T11:45:53.000Z</time>
      </trkpt>
      <trkpt lat="43.33076" lon="5.69083">
        <ele>662</ele>
        <time>2019-01-18T11:45:54.000Z</time>
      </trkpt>
      <trkpt lat="43.33075" lon="5.69082">
        <ele>662</ele>
        <time>2019-01-18T11:45:55.000Z</time>
      </trkpt>
      <trkpt lat="43.33074" lon="5.69082">
        <ele>662</ele>
        <time>2019-01-18T11:45:56.000Z</time>
      </trkpt>
      <trkpt lat="43.33074" lon="5.69081">
        <ele>662</ele>
        <time>2019-01-18T11:45:57.000Z</time>
      </trkpt>
      <trkpt lat="43.33073" lon="5.69081">
        <ele>663</ele>
        <time>2019-01-18T11:45:58.000Z</time>
      </trkpt>
      <trkpt lat="43.33072" lon="5.6908">
        <ele>663</ele>
        <time>2019-01-18T11:45:59.000Z</time>
      </trkpt>
      <trkpt lat="43.33072" lon="5.6908">
        <ele>663</ele>
        <time>2019-01-18T11:46:00.000Z</time>
      </trkpt>
      <trkpt lat="43.33071" lon="5.6908">
        <ele>663</ele>
        <time>2019-01-18T11:46:01.000Z</time>
      </trkpt>
      <trkpt lat="43.33071" lon="5.69079">
        <ele>663</ele>
        <time>2019-01-18T11:46:02.000Z</time>
      </trkpt>
      <trkpt lat="43.3307" lon="5.69079">
        <ele>663</ele>
        <time>2019-01-18T11:46:03.000Z</time>
      </trkpt>
      <trkpt lat="43.3307" lon="5.69078">
        <ele>663</ele>
        <time>2019-01-18T11:46:04.000Z</time>
      </trkpt>
      <trkpt lat="43.33069" lon="5.69078">
        <ele>664</ele>
        <time>2019-01-18T11:46:05.000Z</time>
      </trkpt>
      <trkpt lat="43.33069" lon="5.69077">
        <ele>664</ele>
        <time>2019-01-18T11:46:06.000Z</time>
      </trkpt>
      <trkpt lat="43.33068" lon="5.69077">
        <ele>664</ele>
        <time>2019-01-18T11:46:07.000Z</time>
      </trkpt>
      <trkpt lat="43.33067" lon="5.69077">
        <ele>664</ele>
        <time>2019-01-18T11:46:08.000Z</time>
      </trkpt>
      <trkpt lat="43.33067" lon="5.69076">
        <ele>665</ele>
        <time>2019-01-18T11:46:09.000Z</time>
      </trkpt>
      <trkpt lat="43.33066" lon="5.69076">
        <ele>665</ele>
        <time>2019-01-18T11:46:10.000Z</time>
      </trkpt>
      <trkpt lat="43.33066" lon="5.69076">
        <ele>665</ele>
        <time>2019-01-18T11:46:11.000Z</time>
      </trkpt>
      <trkpt lat="43.33065" lon="5.69075">
        <ele>665</ele>
        <time>2019-01-18T11:46:12.000Z</time>
      </trkpt>
      <trkpt lat="43.33065" lon="5.69075">
        <ele>665</ele>
        <time>2019-01-18T11:46:13.000Z</time>
      </trkpt>
      <trkpt lat="43.33064" lon="5.69074">
        <ele>665</ele>
        <time>2019-01-18T11:46:14.000Z</time>
      </trkpt>
      <trkpt lat="43.33064" lon="5.69073">
        <ele>666</ele>
        <time>2019-01-18T11:46:15.000Z</time>
      </trkpt>
      <trkpt lat="43.33064" lon="5.69072">
        <ele>666</ele>
        <time>2019-01-18T11:46:16.000Z</time>
      </trkpt>
      <trkpt lat="43.33063" lon="5.69072">
        <ele>666</ele>
        <time>2019-01-18T11:46:17.000Z</time>
      </trkpt>
      <trkpt lat="43.33063" lon="5.69071">
        <ele>666</ele>
        <time>2019-01-18T11:46:18.000Z</time>
      </trkpt>
      <trkpt lat="43.33062" lon="5.69071">
        <ele>666</ele>
        <time>2019-01-18T11:46:19.000Z</time>
      </trkpt>
      <trkpt lat="43.33062" lon="5.69071">
        <ele>667</ele>
        <time>2019-01-18T11:46:20.000Z</time>
      </trkpt>
      <trkpt lat="43.33061" lon="5.6907">
        <ele>667</ele>
        <time>2019-01-18T11:46:21.000Z</time>
      </trkpt>
      <trkpt lat="43.33061" lon="5.6907">
        <ele>667</ele>
        <time>2019-01-18T11:46:22.000Z</time>
      </trkpt>
      <trkpt lat="43.3306" lon="5.6907">
        <ele>667</ele>
        <time>2019-01-18T11:46:23.000Z</time>
      </trkpt>
      <trkpt lat="43.33059" lon="5.6907">
        <ele>667</ele>
        <time>2019-01-18T11:46:24.000Z</time>
      </trkpt>
      <trkpt lat="43.33059" lon="5.6907">
        <ele>667</ele>
        <time>2019-01-18T11:46:25.000Z</time>
      </trkpt>
      <trkpt lat="43.33059" lon="5.69069">
        <ele>667</ele>
        <time>2019-01-18T11:46:26.000Z</time>
      </trkpt>
      <trkpt lat="43.33058" lon="5.69069">
        <ele>667</ele>
        <time>2019-01-18T11:46:27.000Z</time>
      </trkpt>
      <trkpt lat="43.33058" lon="5.69069">
        <ele>667</ele>
        <time>2019-01-18T11:46:28.000Z</time>
      </trkpt>
      <trkpt lat="43.33057" lon="5.69068">
        <ele>667</ele>
        <time>2019-01-18T11:46:29.000Z</time>
      </trkpt>
      <trkpt lat="43.33057" lon="5.69068">
        <ele>668</ele>
        <time>2019-01-18T11:46:30.000Z</time>
      </trkpt>
      <trkpt lat="43.33056" lon="5.69067">
        <ele>668</ele>
        <time>2019-01-18T11:46:31.000Z</time>
      </trkpt>
      <trkpt lat="43.33056" lon="5.69067">
        <ele>668</ele>
        <time>2019-01-18T11:46:32.000Z</time>
      </trkpt>
      <trkpt lat="43.33055" lon="5.69067">
        <ele>668</ele>
        <time>2019-01-18T11:46:33.000Z</time>
      </trkpt>
      <trkpt lat="43.33055" lon="5.69067">
        <ele>668</ele>
        <time>2019-01-18T11:46:34.000Z</time>
      </trkpt>
      <trkpt lat="43.33054" lon="5.69066">
        <ele>668</ele>
        <time>2019-01-18T11:46:35.000Z</time>
      </trkpt>
      <trkpt lat="43.33054" lon="5.69066">
        <ele>669</ele>
        <time>2019-01-18T11:46:36.000Z</time>
      </trkpt>
      <trkpt lat="43.33053" lon="5.69066">
        <ele>669</ele>
        <time>2019-01-18T11:46:37.000Z</time>
      </trkpt>
      <trkpt lat="43.33053" lon="5.69066">
        <ele>669</ele>
        <time>2019-01-18T11:46:38.000Z</time>
      </trkpt>
      <trkpt lat="43.33052" lon="5.69065">
        <ele>669</ele>
        <time>2019-01-18T11:46:39.000Z</time>
      </trkpt>
      <trkpt lat="43.33052" lon="5.69065">
        <ele>669</ele>
        <time>2019-01-18T11:46:40.000Z</time>
      </trkpt>
      <trkpt lat="43.33052" lon="5.69065">
        <ele>670</ele>
        <time>2019-01-18T11:46:41.000Z</time>
      </trkpt>
      <trkpt lat="43.33052" lon="5.69064">
        <ele>670</ele>
        <time>2019-01-18T11:46:42.000Z</time>
      </trkpt>
      <trkpt lat="43.33052" lon="5.69064">
        <ele>670</ele>
        <time>2019-01-18T11:46:43.000Z</time>
      </trkpt>
      <trkpt lat="43.33052" lon="5.69064">
        <ele>670</ele>
        <time>2019-01-18T11:46:44.000Z</time>
      </trkpt>
      <trkpt lat="43.33052" lon="5.69065">
        <ele>670</ele>
        <time>2019-01-18T11:46:45.000Z</time>
      </trkpt>
      <trkpt lat="43.33052" lon="5.69065">
        <ele>670</ele>
        <time>2019-01-18T11:46:46.000Z</time>
      </trkpt>
      <trkpt lat="43.33052" lon="5.69065">
        <ele>670</ele>
        <time>2019-01-18T11:46:47.000Z</time>
      </trkpt>
      <trkpt lat="43.33052" lon="5.69065">
        <ele>670</ele>
        <time>2019-01-18T11:46:48.000Z</time>
      </trkpt>
      <trkpt lat="43.33052" lon="5.69065">
        <ele>670</ele>
        <time>2019-01-18T11:46:49.000Z</time>
      </trkpt>
      <trkpt lat="43.33052" lon="5.69065">
        <ele>670</ele>
        <time>2019-01-18T11:46:50.000Z</time>
      </trkpt>
      <trkpt lat="43.33052" lon="5.69065">
        <ele>670</ele>
        <time>2019-01-18T11:46:51.000Z</time>
      </trkpt>
      <trkpt lat="43.33052" lon="5.69065">
        <ele>670</ele>
        <time>2019-01-18T11:46:52.000Z</time>
      </trkpt>
      <trkpt lat="43.33052" lon="5.69065">
        <ele>670</ele>
        <time>2019-01-18T11:46:53.000Z</time>
      </trkpt>
      <trkpt lat="43.33052" lon="5.69065">
        <ele>670</ele>
        <time>2019-01-18T11:46:54.000Z</time>
      </trkpt>
      <trkpt lat="43.33052" lon="5.69065">
        <ele>670</ele>
        <time>2019-01-18T11:46:55.000Z</time>
      </trkpt>
      <trkpt lat="43.33052" lon="5.69065">
        <ele>670</ele>
        <time>2019-01-18T11:46:56.000Z</time>
      </trkpt>
      <trkpt lat="43.33052" lon="5.69065">
        <ele>670</ele>
        <time>2019-01-18T11:46:57.000Z</time>
      </trkpt>
      <trkpt lat="43.33052" lon="5.69065">
        <ele>670</ele>
        <time>2019-01-18T11:46:58.000Z</time>
      </trkpt>
      <trkpt lat="43.33052" lon="5.69065">
        <ele>670</ele>
        <time>2019-01-18T11:46:59.000Z</time>
      </trkpt>
      <trkpt lat="43.33052" lon="5.69065">
        <ele>670</ele>
        <time>2019-01-18T11:47:00.000Z</time>
      </trkpt>
      <trkpt lat="43.33052" lon="5.69065">
        <ele>670</ele>
        <time>2019-01-18T11:47:01.000Z</time>
      </trkpt>
      <trkpt lat="43.33052" lon="5.69065">
        <ele>670</ele>
        <time>2019-01-18T11:47:02.000Z</time>
      </trkpt>
      <trkpt lat="43.33052" lon="5.69065">
        <ele>670</ele>
        <time>2019-01-18T11:47:03.000Z</time>
      </trkpt>
      <trkpt lat="43.33052" lon="5.69065">
        <ele>671</ele>
        <time>2019-01-18T11:47:04.000Z</time>
      </trkpt>
      <trkpt lat="43.33052" lon="5.69065">
        <ele>671</ele>
        <time>2019-01-18T11:47:05.000Z</time>
      </trkpt>
      <trkpt lat="43.33052" lon="5.69065">
        <ele>671</ele>
        <time>2019-01-18T11:47:06.000Z</time>
      </trkpt>
      <trkpt lat="43.33052" lon="5.69065">
        <ele>671</ele>
        <time>2019-01-18T11:47:07.000Z</time>
      </trkpt>
      <trkpt lat="43.33052" lon="5.69065">
        <ele>671</ele>
        <time>2019-01-18T11:47:08.000Z</time>
      </trkpt>
      <trkpt lat="43.33052" lon="5.69065">
        <ele>671</ele>
        <time>2019-01-18T11:47:09.000Z</time>
      </trkpt>
      <trkpt lat="43.33052" lon="5.69065">
        <ele>671</ele>
        <time>2019-01-18T11:47:10.000Z</time>
      </trkpt>
      <trkpt lat="43.33052" lon="5.69065">
        <ele>671</ele>
        <time>2019-01-18T11:47:11.000Z</time>
      </trkpt>
      <trkpt lat="43.33052" lon="5.69065">
        <ele>671</ele>
        <time>2019-01-18T11:47:12.000Z</time>
      </trkpt>
      <trkpt lat="43.33052" lon="5.69064">
        <ele>671</ele>
        <time>2019-01-18T11:47:13.000Z</time>
      </trkpt>
      <trkpt lat="43.33051" lon="5.69065">
        <ele>671</ele>
        <time>2019-01-18T11:47:14.000Z</time>
      </trkpt>
      <trkpt lat="43.33051" lon="5.69065">
        <ele>671</ele>
        <time>2019-01-18T11:47:15.000Z</time>
      </trkpt>
      <trkpt lat="43.33051" lon="5.69065">
        <ele>671</ele>
        <time>2019-01-18T11:47:16.000Z</time>
      </trkpt>
      <trkpt lat="43.33051" lon="5.69065">
        <ele>671</ele>
        <time>2019-01-18T11:47:17.000Z</time>
      </trkpt>
      <trkpt lat="43.33051" lon="5.69065">
        <ele>671</ele>
        <time>2019-01-18T11:47:18.000Z</time>
      </trkpt>
      <trkpt lat="43.3305" lon="5.69064">
        <ele>671</ele>
        <time>2019-01-18T11:47:19.000Z</time>
      </trkpt>
      <trkpt lat="43.33049" lon="5.69064">
        <ele>671</ele>
        <time>2019-01-18T11:47:20.000Z</time>
      </trkpt>
      <trkpt lat="43.33049" lon="5.69064">
        <ele>671</ele>
        <time>2019-01-18T11:47:21.000Z</time>
      </trkpt>
      <trkpt lat="43.33049" lon="5.69063">
        <ele>671</ele>
        <time>2019-01-18T11:47:22.000Z</time>
      </trkpt>
      <trkpt lat="43.33048" lon="5.69063">
        <ele>671</ele>
        <time>2019-01-18T11:47:23.000Z</time>
      </trkpt>
      <trkpt lat="43.33047" lon="5.69063">
        <ele>671</ele>
        <time>2019-01-18T11:47:24.000Z</time>
      </trkpt>
      <trkpt lat="43.33047" lon="5.69063">
        <ele>671</ele>
        <time>2019-01-18T11:47:25.000Z</time>
      </trkpt>
      <trkpt lat="43.33046" lon="5.69063">
        <ele>672</ele>
        <time>2019-01-18T11:47:26.000Z</time>
      </trkpt>
      <trkpt lat="43.33046" lon="5.69063">
        <ele>672</ele>
        <time>2019-01-18T11:47:27.000Z</time>
      </trkpt>
      <trkpt lat="43.33045" lon="5.69063">
        <ele>672</ele>
        <time>2019-01-18T11:47:28.000Z</time>
      </trkpt>
      <trkpt lat="43.33044" lon="5.69063">
        <ele>672</ele>
        <time>2019-01-18T11:47:29.000Z</time>
      </trkpt>
      <trkpt lat="43.33044" lon="5.69062">
        <ele>672</ele>
        <time>2019-01-18T11:47:30.000Z</time>
      </trkpt>
      <trkpt lat="43.33043" lon="5.69062">
        <ele>673</ele>
        <time>2019-01-18T11:47:31.000Z</time>
      </trkpt>
      <trkpt lat="43.33043" lon="5.69062">
        <ele>673</ele>
        <time>2019-01-18T11:47:32.000Z</time>
      </trkpt>
      <trkpt lat="43.33042" lon="5.69062">
        <ele>673</ele>
        <time>2019-01-18T11:47:33.000Z</time>
      </trkpt>
      <trkpt lat="43.33042" lon="5.69062">
        <ele>673</ele>
        <time>2019-01-18T11:47:34.000Z</time>
      </trkpt>
      <trkpt lat="43.33041" lon="5.69062">
        <ele>673</ele>
        <time>2019-01-18T11:47:35.000Z</time>
      </trkpt>
      <trkpt lat="43.33041" lon="5.69062">
        <ele>674</ele>
        <time>2019-01-18T11:47:36.000Z</time>
      </trkpt>
      <trkpt lat="43.3304" lon="5.69062">
        <ele>674</ele>
        <time>2019-01-18T11:47:37.000Z</time>
      </trkpt>
      <trkpt lat="43.33039" lon="5.69062">
        <ele>674</ele>
        <time>2019-01-18T11:47:38.000Z</time>
      </trkpt>
      <trkpt lat="43.33039" lon="5.69062">
        <ele>674</ele>
        <time>2019-01-18T11:47:39.000Z</time>
      </trkpt>
      <trkpt lat="43.33039" lon="5.69061">
        <ele>674</ele>
        <time>2019-01-18T11:47:40.000Z</time>
      </trkpt>
      <trkpt lat="43.33038" lon="5.69061">
        <ele>674</ele>
        <time>2019-01-18T11:47:41.000Z</time>
      </trkpt>
      <trkpt lat="43.33038" lon="5.69061">
        <ele>675</ele>
        <time>2019-01-18T11:47:42.000Z</time>
      </trkpt>
      <trkpt lat="43.33037" lon="5.69061">
        <ele>675</ele>
        <time>2019-01-18T11:47:43.000Z</time>
      </trkpt>
      <trkpt lat="43.33037" lon="5.69061">
        <ele>675</ele>
        <time>2019-01-18T11:47:44.000Z</time>
      </trkpt>
      <trkpt lat="43.33036" lon="5.69061">
        <ele>675</ele>
        <time>2019-01-18T11:47:45.000Z</time>
      </trkpt>
      <trkpt lat="43.33036" lon="5.69061">
        <ele>675</ele>
        <time>2019-01-18T11:47:46.000Z</time>
      </trkpt>
      <trkpt lat="43.33035" lon="5.69061">
        <ele>675</ele>
        <time>2019-01-18T11:47:47.000Z</time>
      </trkpt>
      <trkpt lat="43.33035" lon="5.69061">
        <ele>676</ele>
        <time>2019-01-18T11:47:48.000Z</time>
      </trkpt>
      <trkpt lat="43.33034" lon="5.69061">
        <ele>676</ele>
        <time>2019-01-18T11:47:49.000Z</time>
      </trkpt>
      <trkpt lat="43.33034" lon="5.69061">
        <ele>676</ele>
        <time>2019-01-18T11:47:50.000Z</time>
      </trkpt>
      <trkpt lat="43.33033" lon="5.69061">
        <ele>676</ele>
        <time>2019-01-18T11:47:51.000Z</time>
      </trkpt>
      <trkpt lat="43.33033" lon="5.69061">
        <ele>676</ele>
        <time>2019-01-18T11:47:52.000Z</time>
      </trkpt>
      <trkpt lat="43.33032" lon="5.69061">
        <ele>676</ele>
        <time>2019-01-18T11:47:53.000Z</time>
      </trkpt>
      <trkpt lat="43.33032" lon="5.69061">
        <ele>677</ele>
        <time>2019-01-18T11:47:54.000Z</time>
      </trkpt>
      <trkpt lat="43.33032" lon="5.6906">
        <ele>677</ele>
        <time>2019-01-18T11:47:55.000Z</time>
      </trkpt>
      <trkpt lat="43.33031" lon="5.6906">
        <ele>677</ele>
        <time>2019-01-18T11:47:56.000Z</time>
      </trkpt>
      <trkpt lat="43.33031" lon="5.6906">
        <ele>677</ele>
        <time>2019-01-18T11:47:57.000Z</time>
      </trkpt>
      <trkpt lat="43.33031" lon="5.69059">
        <ele>677</ele>
        <time>2019-01-18T11:47:58.000Z</time>
      </trkpt>
      <trkpt lat="43.33031" lon="5.69059">
        <ele>677</ele>
        <time>2019-01-18T11:47:59.000Z</time>
      </trkpt>
      <trkpt lat="43.3303" lon="5.69059">
        <ele>678</ele>
        <time>2019-01-18T11:48:00.000Z</time>
      </trkpt>
      <trkpt lat="43.3303" lon="5.6906">
        <ele>678</ele>
        <time>2019-01-18T11:48:01.000Z</time>
      </trkpt>
      <trkpt lat="43.33029" lon="5.6906">
        <ele>678</ele>
        <time>2019-01-18T11:48:02.000Z</time>
      </trkpt>
      <trkpt lat="43.33029" lon="5.6906">
        <ele>678</ele>
        <time>2019-01-18T11:48:03.000Z</time>
      </trkpt>
      <trkpt lat="43.33029" lon="5.6906">
        <ele>678</ele>
        <time>2019-01-18T11:48:04.000Z</time>
      </trkpt>
      <trkpt lat="43.33029" lon="5.6906">
        <ele>678</ele>
        <time>2019-01-18T11:48:05.000Z</time>
      </trkpt>
      <trkpt lat="43.33028" lon="5.6906">
        <ele>678</ele>
        <time>2019-01-18T11:48:06.000Z</time>
      </trkpt>
      <trkpt lat="43.33028" lon="5.6906">
        <ele>678</ele>
        <time>2019-01-18T11:48:07.000Z</time>
      </trkpt>
      <trkpt lat="43.33027" lon="5.69059">
        <ele>678</ele>
        <time>2019-01-18T11:48:08.000Z</time>
      </trkpt>
      <trkpt lat="43.33027" lon="5.69059">
        <ele>679</ele>
        <time>2019-01-18T11:48:09.000Z</time>
      </trkpt>
      <trkpt lat="43.33027" lon="5.69059">
        <ele>679</ele>
        <time>2019-01-18T11:48:10.000Z</time>
      </trkpt>
      <trkpt lat="43.33026" lon="5.69059">
        <ele>679</ele>
        <time>2019-01-18T11:48:11.000Z</time>
      </trkpt>
      <trkpt lat="43.33026" lon="5.69059">
        <ele>679</ele>
        <time>2019-01-18T11:48:12.000Z</time>
      </trkpt>
      <trkpt lat="43.33025" lon="5.69059">
        <ele>679</ele>
        <time>2019-01-18T11:48:13.000Z</time>
      </trkpt>
      <trkpt lat="43.33025" lon="5.69059">
        <ele>679</ele>
        <time>2019-01-18T11:48:14.000Z</time>
      </trkpt>
      <trkpt lat="43.33025" lon="5.69059">
        <ele>679</ele>
        <time>2019-01-18T11:48:15.000Z</time>
      </trkpt>
      <trkpt lat="43.33024" lon="5.69059">
        <ele>679</ele>
        <time>2019-01-18T11:48:16.000Z</time>
      </trkpt>
      <trkpt lat="43.33024" lon="5.69059">
        <ele>680</ele>
        <time>2019-01-18T11:48:17.000Z</time>
      </trkpt>
      <trkpt lat="43.33023" lon="5.69059">
        <ele>680</ele>
        <time>2019-01-18T11:48:18.000Z</time>
      </trkpt>
      <trkpt lat="43.33023" lon="5.69059">
        <ele>680</ele>
        <time>2019-01-18T11:48:19.000Z</time>
      </trkpt>
      <trkpt lat="43.33023" lon="5.69059">
        <ele>680</ele>
        <time>2019-01-18T11:48:20.000Z</time>
      </trkpt>
      <trkpt lat="43.33022" lon="5.69059">
        <ele>680</ele>
        <time>2019-01-18T11:48:21.000Z</time>
      </trkpt>
      <trkpt lat="43.33023" lon="5.69059">
        <ele>680</ele>
        <time>2019-01-18T11:48:22.000Z</time>
      </trkpt>
      <trkpt lat="43.33022" lon="5.69059">
        <ele>680</ele>
        <time>2019-01-18T11:48:23.000Z</time>
      </trkpt>
      <trkpt lat="43.33022" lon="5.69058">
        <ele>680</ele>
        <time>2019-01-18T11:48:24.000Z</time>
      </trkpt>
      <trkpt lat="43.33022" lon="5.69058">
        <ele>681</ele>
        <time>2019-01-18T11:48:25.000Z</time>
      </trkpt>
      <trkpt lat="43.33022" lon="5.69058">
        <ele>681</ele>
        <time>2019-01-18T11:48:26.000Z</time>
      </trkpt>
      <trkpt lat="43.33022" lon="5.69058">
        <ele>681</ele>
        <time>2019-01-18T11:48:27.000Z</time>
      </trkpt>
      <trkpt lat="43.33022" lon="5.69059">
        <ele>681</ele>
        <time>2019-01-18T11:48:28.000Z</time>
      </trkpt>
      <trkpt lat="43.33022" lon="5.69059">
        <ele>681</ele>
        <time>2019-01-18T11:48:29.000Z</time>
      </trkpt>
      <trkpt lat="43.33022" lon="5.69059">
        <ele>681</ele>
        <time>2019-01-18T11:48:30.000Z</time>
      </trkpt>
      <trkpt lat="43.33022" lon="5.69059">
        <ele>681</ele>
        <time>2019-01-18T11:48:31.000Z</time>
      </trkpt>
      <trkpt lat="43.33022" lon="5.69059">
        <ele>681</ele>
        <time>2019-01-18T11:48:32.000Z</time>
      </trkpt>
      <trkpt lat="43.33022" lon="5.69058">
        <ele>681</ele>
        <time>2019-01-18T11:48:33.000Z</time>
      </trkpt>
      <trkpt lat="43.33022" lon="5.69058">
        <ele>681</ele>
        <time>2019-01-18T11:48:34.000Z</time>
      </trkpt>
      <trkpt lat="43.33022" lon="5.69058">
        <ele>681</ele>
        <time>2019-01-18T11:48:35.000Z</time>
      </trkpt>
      <trkpt lat="43.33022" lon="5.69058">
        <ele>681</ele>
        <time>2019-01-18T11:48:36.000Z</time>
      </trkpt>
      <trkpt lat="43.33022" lon="5.69058">
        <ele>681</ele>
        <time>2019-01-18T11:48:37.000Z</time>
      </trkpt>
      <trkpt lat="43.33021" lon="5.69058">
        <ele>681</ele>
        <time>2019-01-18T11:48:38.000Z</time>
      </trkpt>
      <trkpt lat="43.33021" lon="5.69058">
        <ele>681</ele>
        <time>2019-01-18T11:48:39.000Z</time>
      </trkpt>
      <trkpt lat="43.33021" lon="5.69058">
        <ele>681</ele>
        <time>2019-01-18T11:48:40.000Z</time>
      </trkpt>
      <trkpt lat="43.33021" lon="5.69058">
        <ele>681</ele>
        <time>2019-01-18T11:48:41.000Z</time>
      </trkpt>
      <trkpt lat="43.33021" lon="5.69058">
        <ele>681</ele>
        <time>2019-01-18T11:48:42.000Z</time>
      </trkpt>
      <trkpt lat="43.33021" lon="5.69058">
        <ele>681</ele>
        <time>2019-01-18T11:48:43.000Z</time>
      </trkpt>
      <trkpt lat="43.33021" lon="5.69058">
        <ele>681</ele>
        <time>2019-01-18T11:48:44.000Z</time>
      </trkpt>
      <trkpt lat="43.33021" lon="5.69058">
        <ele>681</ele>
        <time>2019-01-18T11:48:45.000Z</time>
      </trkpt>
      <trkpt lat="43.33021" lon="5.69058">
        <ele>681</ele>
        <time>2019-01-18T11:48:46.000Z</time>
      </trkpt>
      <trkpt lat="43.33021" lon="5.69058">
        <ele>681</ele>
        <time>2019-01-18T11:48:47.000Z</time>
      </trkpt>
      <trkpt lat="43.33021" lon="5.69058">
        <ele>681</ele>
        <time>2019-01-18T11:48:48.000Z</time>
      </trkpt>
      <trkpt lat="43.33021" lon="5.69058">
        <ele>681</ele>
        <time>2019-01-18T11:48:49.000Z</time>
      </trkpt>
      <trkpt lat="43.33021" lon="5.69058">
        <ele>681</ele>
        <time>2019-01-18T11:48:50.000Z</time>
      </trkpt>
      <trkpt lat="43.33021" lon="5.69058">
        <ele>681</ele>
        <time>2019-01-18T11:48:51.000Z</time>
      </trkpt>
      <trkpt lat="43.33021" lon="5.69058">
        <ele>681</ele>
        <time>2019-01-18T11:48:52.000Z</time>
      </trkpt>
      <trkpt lat="43.33021" lon="5.69058">
        <ele>681</ele>
        <time>2019-01-18T11:48:53.000Z</time>
      </trkpt>
      <trkpt lat="43.33021" lon="5.69058">
        <ele>681</ele>
        <time>2019-01-18T11:48:54.000Z</time>
      </trkpt>
      <trkpt lat="43.33021" lon="5.69059">
        <ele>681</ele>
        <time>2019-01-18T11:48:55.000Z</time>
      </trkpt>
      <trkpt lat="43.33021" lon="5.69059">
        <ele>682</ele>
        <time>2019-01-18T11:48:56.000Z</time>
      </trkpt>
      <trkpt lat="43.33021" lon="5.69059">
        <ele>682</ele>
        <time>2019-01-18T11:48:57.000Z</time>
      </trkpt>
      <trkpt lat="43.3302" lon="5.69059">
        <ele>682</ele>
        <time>2019-01-18T11:48:58.000Z</time>
      </trkpt>
      <trkpt lat="43.3302" lon="5.69059">
        <ele>682</ele>
        <time>2019-01-18T11:48:59.000Z</time>
      </trkpt>
      <trkpt lat="43.3302" lon="5.69059">
        <ele>682</ele>
        <time>2019-01-18T11:49:00.000Z</time>
      </trkpt>
      <trkpt lat="43.3302" lon="5.69059">
        <ele>682</ele>
        <time>2019-01-18T11:49:01.000Z</time>
      </trkpt>
      <trkpt lat="43.3302" lon="5.69059">
        <ele>682</ele>
        <time>2019-01-18T11:49:02.000Z</time>
      </trkpt>
      <trkpt lat="43.33019" lon="5.69059">
        <ele>682</ele>
        <time>2019-01-18T11:49:03.000Z</time>
      </trkpt>
      <trkpt lat="43.33018" lon="5.69059">
        <ele>682</ele>
        <time>2019-01-18T11:49:04.000Z</time>
      </trkpt>
      <trkpt lat="43.33018" lon="5.69059">
        <ele>682</ele>
        <time>2019-01-18T11:49:05.000Z</time>
      </trkpt>
      <trkpt lat="43.33017" lon="5.69059">
        <ele>682</ele>
        <time>2019-01-18T11:49:06.000Z</time>
      </trkpt>
      <trkpt lat="43.33017" lon="5.69059">
        <ele>682</ele>
        <time>2019-01-18T11:49:07.000Z</time>
      </trkpt>
      <trkpt lat="43.33017" lon="5.69059">
        <ele>682</ele>
        <time>2019-01-18T11:49:08.000Z</time>
      </trkpt>
      <trkpt lat="43.33016" lon="5.69059">
        <ele>682</ele>
        <time>2019-01-18T11:49:09.000Z</time>
      </trkpt>
      <trkpt lat="43.33016" lon="5.69059">
        <ele>683</ele>
        <time>2019-01-18T11:49:10.000Z</time>
      </trkpt>
      <trkpt lat="43.33015" lon="5.69059">
        <ele>683</ele>
        <time>2019-01-18T11:49:11.000Z</time>
      </trkpt>
      <trkpt lat="43.33015" lon="5.69059">
        <ele>683</ele>
        <time>2019-01-18T11:49:12.000Z</time>
      </trkpt>
      <trkpt lat="43.33014" lon="5.69058">
        <ele>683</ele>
        <time>2019-01-18T11:49:13.000Z</time>
      </trkpt>
      <trkpt lat="43.33014" lon="5.69058">
        <ele>683</ele>
        <time>2019-01-18T11:49:14.000Z</time>
      </trkpt>
      <trkpt lat="43.33014" lon="5.69058">
        <ele>683</ele>
        <time>2019-01-18T11:49:15.000Z</time>
      </trkpt>
      <trkpt lat="43.33013" lon="5.69058">
        <ele>683</ele>
        <time>2019-01-18T11:49:16.000Z</time>
      </trkpt>
      <trkpt lat="43.33013" lon="5.69058">
        <ele>683</ele>
        <time>2019-01-18T11:49:17.000Z</time>
      </trkpt>
      <trkpt lat="43.33013" lon="5.69058">
        <ele>683</ele>
        <time>2019-01-18T11:49:18.000Z</time>
      </trkpt>
      <trkpt lat="43.33012" lon="5.69058">
        <ele>683</ele>
        <time>2019-01-18T11:49:19.000Z</time>
      </trkpt>
      <trkpt lat="43.33012" lon="5.69058">
        <ele>683</ele>
        <time>2019-01-18T11:49:20.000Z</time>
      </trkpt>
      <trkpt lat="43.33012" lon="5.69058">
        <ele>684</ele>
        <time>2019-01-18T11:49:21.000Z</time>
      </trkpt>
      <trkpt lat="43.33011" lon="5.69058">
        <ele>684</ele>
        <time>2019-01-18T11:49:22.000Z</time>
      </trkpt>
      <trkpt lat="43.33011" lon="5.69059">
        <ele>684</ele>
        <time>2019-01-18T11:49:23.000Z</time>
      </trkpt>
      <trkpt lat="43.33011" lon="5.69059">
        <ele>684</ele>
        <time>2019-01-18T11:49:24.000Z</time>
      </trkpt>
      <trkpt lat="43.3301" lon="5.69059">
        <ele>684</ele>
        <time>2019-01-18T11:49:25.000Z</time>
      </trkpt>
      <trkpt lat="43.3301" lon="5.69059">
        <ele>684</ele>
        <time>2019-01-18T11:49:26.000Z</time>
      </trkpt>
      <trkpt lat="43.3301" lon="5.69059">
        <ele>684</ele>
        <time>2019-01-18T11:49:27.000Z</time>
      </trkpt>
      <trkpt lat="43.33009" lon="5.69059">
        <ele>685</ele>
        <time>2019-01-18T11:49:28.000Z</time>
      </trkpt>
      <trkpt lat="43.33009" lon="5.69059">
        <ele>685</ele>
        <time>2019-01-18T11:49:29.000Z</time>
      </trkpt>
      <trkpt lat="43.33009" lon="5.69059">
        <ele>685</ele>
        <time>2019-01-18T11:49:30.000Z</time>
      </trkpt>
      <trkpt lat="43.33008" lon="5.69059">
        <ele>685</ele>
        <time>2019-01-18T11:49:31.000Z</time>
      </trkpt>
      <trkpt lat="43.33008" lon="5.69059">
        <ele>686</ele>
        <time>2019-01-18T11:49:32.000Z</time>
      </trkpt>
      <trkpt lat="43.33008" lon="5.69059">
        <ele>686</ele>
        <time>2019-01-18T11:49:33.000Z</time>
      </trkpt>
      <trkpt lat="43.33008" lon="5.69059">
        <ele>686</ele>
        <time>2019-01-18T11:49:34.000Z</time>
      </trkpt>
      <trkpt lat="43.33007" lon="5.6906">
        <ele>686</ele>
        <time>2019-01-18T11:49:35.000Z</time>
      </trkpt>
      <trkpt lat="43.33007" lon="5.6906">
        <ele>686</ele>
        <time>2019-01-18T11:49:36.000Z</time>
      </trkpt>
      <trkpt lat="43.33007" lon="5.69061">
        <ele>687</ele>
        <time>2019-01-18T11:49:37.000Z</time>
      </trkpt>
      <trkpt lat="43.33006" lon="5.69061">
        <ele>687</ele>
        <time>2019-01-18T11:49:38.000Z</time>
      </trkpt>
      <trkpt lat="43.33006" lon="5.69061">
        <ele>687</ele>
        <time>2019-01-18T11:49:39.000Z</time>
      </trkpt>
      <trkpt lat="43.33005" lon="5.69061">
        <ele>687</ele>
        <time>2019-01-18T11:49:40.000Z</time>
      </trkpt>
      <trkpt lat="43.33005" lon="5.69061">
        <ele>687</ele>
        <time>2019-01-18T11:49:41.000Z</time>
      </trkpt>
      <trkpt lat="43.33005" lon="5.69061">
        <ele>688</ele>
        <time>2019-01-18T11:49:42.000Z</time>
      </trkpt>
      <trkpt lat="43.33004" lon="5.69061">
        <ele>688</ele>
        <time>2019-01-18T11:49:43.000Z</time>
      </trkpt>
      <trkpt lat="43.33004" lon="5.69061">
        <ele>688</ele>
        <time>2019-01-18T11:49:44.000Z</time>
      </trkpt>
      <trkpt lat="43.33004" lon="5.69061">
        <ele>688</ele>
        <time>2019-01-18T11:49:45.000Z</time>
      </trkpt>
      <trkpt lat="43.33003" lon="5.69061">
        <ele>688</ele>
        <time>2019-01-18T11:49:46.000Z</time>
      </trkpt>
      <trkpt lat="43.33003" lon="5.69061">
        <ele>688</ele>
        <time>2019-01-18T11:49:47.000Z</time>
      </trkpt>
      <trkpt lat="43.33002" lon="5.69061">
        <ele>689</ele>
        <time>2019-01-18T11:49:48.000Z</time>
      </trkpt>
      <trkpt lat="43.33002" lon="5.69061">
        <ele>689</ele>
        <time>2019-01-18T11:49:49.000Z</time>
      </trkpt>
      <trkpt lat="43.33002" lon="5.6906">
        <ele>689</ele>
        <time>2019-01-18T11:49:50.000Z</time>
      </trkpt>
      <trkpt lat="43.33001" lon="5.69059">
        <ele>689</ele>
        <time>2019-01-18T11:49:51.000Z</time>
      </trkpt>
      <trkpt lat="43.33001" lon="5.6906">
        <ele>689</ele>
        <time>2019-01-18T11:49:52.000Z</time>
      </trkpt>
      <trkpt lat="43.33001" lon="5.6906">
        <ele>690</ele>
        <time>2019-01-18T11:49:53.000Z</time>
      </trkpt>
      <trkpt lat="43.33001" lon="5.6906">
        <ele>690</ele>
        <time>2019-01-18T11:49:54.000Z</time>
      </trkpt>
      <trkpt lat="43.33" lon="5.6906">
        <ele>690</ele>
        <time>2019-01-18T11:49:55.000Z</time>
      </trkpt>
      <trkpt lat="43.33" lon="5.6906">
        <ele>690</ele>
        <time>2019-01-18T11:49:56.000Z</time>
      </trkpt>
      <trkpt lat="43.32999" lon="5.6906">
        <ele>690</ele>
        <time>2019-01-18T11:49:57.000Z</time>
      </trkpt>
      <trkpt lat="43.32999" lon="5.6906">
        <ele>690</ele>
        <time>2019-01-18T11:49:58.000Z</time>
      </trkpt>
      <trkpt lat="43.32999" lon="5.6906">
        <ele>691</ele>
        <time>2019-01-18T11:49:59.000Z</time>
      </trkpt>
      <trkpt lat="43.32999" lon="5.69061">
        <ele>691</ele>
        <time>2019-01-18T11:50:00.000Z</time>
      </trkpt>
      <trkpt lat="43.32998" lon="5.69061">
        <ele>691</ele>
        <time>2019-01-18T11:50:01.000Z</time>
      </trkpt>
      <trkpt lat="43.32998" lon="5.69061">
        <ele>691</ele>
        <time>2019-01-18T11:50:02.000Z</time>
      </trkpt>
      <trkpt lat="43.32998" lon="5.69061">
        <ele>691</ele>
        <time>2019-01-18T11:50:03.000Z</time>
      </trkpt>
      <trkpt lat="43.32997" lon="5.6906">
        <ele>691</ele>
        <time>2019-01-18T11:50:04.000Z</time>
      </trkpt>
      <trkpt lat="43.32997" lon="5.6906">
        <ele>691</ele>
        <time>2019-01-18T11:50:05.000Z</time>
      </trkpt>
      <trkpt lat="43.32997" lon="5.6906">
        <ele>691</ele>
        <time>2019-01-18T11:50:06.000Z</time>
      </trkpt>
      <trkpt lat="43.32997" lon="5.6906">
        <ele>691</ele>
        <time>2019-01-18T11:50:07.000Z</time>
      </trkpt>
      <trkpt lat="43.32997" lon="5.6906">
        <ele>692</ele>
        <time>2019-01-18T11:50:08.000Z</time>
      </trkpt>
      <trkpt lat="43.32997" lon="5.6906">
        <ele>692</ele>
        <time>2019-01-18T11:50:09.000Z</time>
      </trkpt>
      <trkpt lat="43.32997" lon="5.6906">
        <ele>692</ele>
        <time>2019-01-18T11:50:10.000Z</time>
      </trkpt>
      <trkpt lat="43.32997" lon="5.69061">
        <ele>692</ele>
        <time>2019-01-18T11:50:11.000Z</time>
      </trkpt>
      <trkpt lat="43.32997" lon="5.69061">
        <ele>692</ele>
        <time>2019-01-18T11:50:12.000Z</time>
      </trkpt>
      <trkpt lat="43.32997" lon="5.69061">
        <ele>692</ele>
        <time>2019-01-18T11:50:13.000Z</time>
      </trkpt>
      <trkpt lat="43.32997" lon="5.69061">
        <ele>692</ele>
        <time>2019-01-18T11:50:14.000Z</time>
      </trkpt>
      <trkpt lat="43.32997" lon="5.69061">
        <ele>692</ele>
        <time>2019-01-18T11:50:15.000Z</time>
      </trkpt>
      <trkpt lat="43.32997" lon="5.69061">
        <ele>692</ele>
        <time>2019-01-18T11:50:16.000Z</time>
      </trkpt>
      <trkpt lat="43.32997" lon="5.69061">
        <ele>692</ele>
        <time>2019-01-18T11:50:17.000Z</time>
      </trkpt>
      <trkpt lat="43.32997" lon="5.69061">
        <ele>692</ele>
        <time>2019-01-18T11:50:18.000Z</time>
      </trkpt>
      <trkpt lat="43.32997" lon="5.69061">
        <ele>692</ele>
        <time>2019-01-18T11:50:19.000Z</time>
      </trkpt>
      <trkpt lat="43.32997" lon="5.69061">
        <ele>692</ele>
        <time>2019-01-18T11:50:20.000Z</time>
      </trkpt>
      <trkpt lat="43.32997" lon="5.69061">
        <ele>692</ele>
        <time>2019-01-18T11:50:21.000Z</time>
      </trkpt>
      <trkpt lat="43.32996" lon="5.6906">
        <ele>692</ele>
        <time>2019-01-18T11:50:22.000Z</time>
      </trkpt>
      <trkpt lat="43.32996" lon="5.6906">
        <ele>692</ele>
        <time>2019-01-18T11:50:23.000Z</time>
      </trkpt>
      <trkpt lat="43.32996" lon="5.6906">
        <ele>693</ele>
        <time>2019-01-18T11:50:24.000Z</time>
      </trkpt>
      <trkpt lat="43.32996" lon="5.6906">
        <ele>693</ele>
        <time>2019-01-18T11:50:25.000Z</time>
      </trkpt>
      <trkpt lat="43.32995" lon="5.6906">
        <ele>693</ele>
        <time>2019-01-18T11:50:26.000Z</time>
      </trkpt>
      <trkpt lat="43.32995" lon="5.6906">
        <ele>693</ele>
        <time>2019-01-18T11:50:27.000Z</time>
      </trkpt>
      <trkpt lat="43.32995" lon="5.6906">
        <ele>693</ele>
        <time>2019-01-18T11:50:28.000Z</time>
      </trkpt>
      <trkpt lat="43.32995" lon="5.69061">
        <ele>693</ele>
        <time>2019-01-18T11:50:29.000Z</time>
      </trkpt>
      <trkpt lat="43.32994" lon="5.69061">
        <ele>694</ele>
        <time>2019-01-18T11:50:30.000Z</time>
      </trkpt>
      <trkpt lat="43.32994" lon="5.69061">
        <ele>694</ele>
        <time>2019-01-18T11:50:31.000Z</time>
      </trkpt>
      <trkpt lat="43.32993" lon="5.69061">
        <ele>694</ele>
        <time>2019-01-18T11:50:32.000Z</time>
      </trkpt>
      <trkpt lat="43.32993" lon="5.69061">
        <ele>694</ele>
        <time>2019-01-18T11:50:33.000Z</time>
      </trkpt>
      <trkpt lat="43.32993" lon="5.69061">
        <ele>694</ele>
        <time>2019-01-18T11:50:34.000Z</time>
      </trkpt>
      <trkpt lat="43.32992" lon="5.6906">
        <ele>695</ele>
        <time>2019-01-18T11:50:35.000Z</time>
      </trkpt>
      <trkpt lat="43.32992" lon="5.6906">
        <ele>695</ele>
        <time>2019-01-18T11:50:36.000Z</time>
      </trkpt>
      <trkpt lat="43.32992" lon="5.6906">
        <ele>695</ele>
        <time>2019-01-18T11:50:37.000Z</time>
      </trkpt>
      <trkpt lat="43.32991" lon="5.6906">
        <ele>695</ele>
        <time>2019-01-18T11:50:38.000Z</time>
      </trkpt>
      <trkpt lat="43.32991" lon="5.6906">
        <ele>696</ele>
        <time>2019-01-18T11:50:39.000Z</time>
      </trkpt>
      <trkpt lat="43.3299" lon="5.6906">
        <ele>696</ele>
        <time>2019-01-18T11:50:40.000Z</time>
      </trkpt>
      <trkpt lat="43.3299" lon="5.6906">
        <ele>696</ele>
        <time>2019-01-18T11:50:41.000Z</time>
      </trkpt>
      <trkpt lat="43.3299" lon="5.6906">
        <ele>696</ele>
        <time>2019-01-18T11:50:42.000Z</time>
      </trkpt>
      <trkpt lat="43.32989" lon="5.6906">
        <ele>696</ele>
        <time>2019-01-18T11:50:43.000Z</time>
      </trkpt>
      <trkpt lat="43.32989" lon="5.6906">
        <ele>696</ele>
        <time>2019-01-18T11:50:44.000Z</time>
      </trkpt>
      <trkpt lat="43.32989" lon="5.69059">
        <ele>697</ele>
        <time>2019-01-18T11:50:45.000Z</time>
      </trkpt>
      <trkpt lat="43.32988" lon="5.69059">
        <ele>697</ele>
        <time>2019-01-18T11:50:46.000Z</time>
      </trkpt>
      <trkpt lat="43.32988" lon="5.69059">
        <ele>697</ele>
        <time>2019-01-18T11:50:47.000Z</time>
      </trkpt>
      <trkpt lat="43.32988" lon="5.69059">
        <ele>697</ele>
        <time>2019-01-18T11:50:48.000Z</time>
      </trkpt>
      <trkpt lat="43.32988" lon="5.69059">
        <ele>697</ele>
        <time>2019-01-18T11:50:49.000Z</time>
      </trkpt>
      <trkpt lat="43.32988" lon="5.69059">
        <ele>697</ele>
        <time>2019-01-18T11:50:50.000Z</time>
      </trkpt>
      <trkpt lat="43.32988" lon="5.69059">
        <ele>697</ele>
        <time>2019-01-18T11:50:51.000Z</time>
      </trkpt>
      <trkpt lat="43.32988" lon="5.69059">
        <ele>697</ele>
        <time>2019-01-18T11:50:52.000Z</time>
      </trkpt>
      <trkpt lat="43.32988" lon="5.69059">
        <ele>697</ele>
        <time>2019-01-18T11:50:53.000Z</time>
      </trkpt>
      <trkpt lat="43.32988" lon="5.69059">
        <ele>698</ele>
        <time>2019-01-18T11:50:54.000Z</time>
      </trkpt>
      <trkpt lat="43.32988" lon="5.69059">
        <ele>698</ele>
        <time>2019-01-18T11:50:55.000Z</time>
      </trkpt>
      <trkpt lat="43.32988" lon="5.69059">
        <ele>698</ele>
        <time>2019-01-18T11:50:56.000Z</time>
      </trkpt>
      <trkpt lat="43.32988" lon="5.69059">
        <ele>698</ele>
        <time>2019-01-18T11:50:57.000Z</time>
      </trkpt>
      <trkpt lat="43.32988" lon="5.69059">
        <ele>698</ele>
        <time>2019-01-18T11:50:58.000Z</time>
      </trkpt>
      <trkpt lat="43.32988" lon="5.69059">
        <ele>698</ele>
        <time>2019-01-18T11:50:59.000Z</time>
      </trkpt>
      <trkpt lat="43.32988" lon="5.69059">
        <ele>698</ele>
        <time>2019-01-18T11:51:00.000Z</time>
      </trkpt>
      <trkpt lat="43.32988" lon="5.69059">
        <ele>698</ele>
        <time>2019-01-18T11:51:01.000Z</time>
      </trkpt>
      <trkpt lat="43.32988" lon="5.69059">
        <ele>698</ele>
        <time>2019-01-18T11:51:02.000Z</time>
      </trkpt>
      <trkpt lat="43.32988" lon="5.69059">
        <ele>698</ele>
        <time>2019-01-18T11:51:03.000Z</time>
      </trkpt>
      <trkpt lat="43.32988" lon="5.69059">
        <ele>698</ele>
        <time>2019-01-18T11:51:04.000Z</time>
      </trkpt>
      <trkpt lat="43.32988" lon="5.69059">
        <ele>698</ele>
        <time>2019-01-18T11:51:05.000Z</time>
      </trkpt>
      <trkpt lat="43.32988" lon="5.69059">
        <ele>698</ele>
        <time>2019-01-18T11:51:06.000Z</time>
      </trkpt>
      <trkpt lat="43.32988" lon="5.69059">
        <ele>698</ele>
        <time>2019-01-18T11:51:07.000Z</time>
      </trkpt>
      <trkpt lat="43.32988" lon="5.69059">
        <ele>698</ele>
        <time>2019-01-18T11:51:08.000Z</time>
      </trkpt>
      <trkpt lat="43.32988" lon="5.69059">
        <ele>698</ele>
        <time>2019-01-18T11:51:09.000Z</time>
      </trkpt>
      <trkpt lat="43.32988" lon="5.69059">
        <ele>698</ele>
        <time>2019-01-18T11:51:10.000Z</time>
      </trkpt>
      <trkpt lat="43.32988" lon="5.69059">
        <ele>698</ele>
        <time>2019-01-18T11:51:11.000Z</time>
      </trkpt>
      <trkpt lat="43.32987" lon="5.69059">
        <ele>698</ele>
        <time>2019-01-18T11:51:12.000Z</time>
      </trkpt>
      <trkpt lat="43.32987" lon="5.69058">
        <ele>698</ele>
        <time>2019-01-18T11:51:13.000Z</time>
      </trkpt>
      <trkpt lat="43.32987" lon="5.69058">
        <ele>698</ele>
        <time>2019-01-18T11:51:14.000Z</time>
      </trkpt>
      <trkpt lat="43.32987" lon="5.69058">
        <ele>698</ele>
        <time>2019-01-18T11:51:15.000Z</time>
      </trkpt>
      <trkpt lat="43.32986" lon="5.69058">
        <ele>698</ele>
        <time>2019-01-18T11:51:16.000Z</time>
      </trkpt>
      <trkpt lat="43.32986" lon="5.69058">
        <ele>698</ele>
        <time>2019-01-18T11:51:17.000Z</time>
      </trkpt>
      <trkpt lat="43.32986" lon="5.69058">
        <ele>699</ele>
        <time>2019-01-18T11:51:18.000Z</time>
      </trkpt>
      <trkpt lat="43.32985" lon="5.69059">
        <ele>699</ele>
        <time>2019-01-18T11:51:19.000Z</time>
      </trkpt>
      <trkpt lat="43.32985" lon="5.69059">
        <ele>699</ele>
        <time>2019-01-18T11:51:20.000Z</time>
      </trkpt>
      <trkpt lat="43.32984" lon="5.69059">
        <ele>699</ele>
        <time>2019-01-18T11:51:21.000Z</time>
      </trkpt>
      <trkpt lat="43.32984" lon="5.69059">
        <ele>699</ele>
        <time>2019-01-18T11:51:22.000Z</time>
      </trkpt>
      <trkpt lat="43.32983" lon="5.69059">
        <ele>699</ele>
        <time>2019-01-18T11:51:23.000Z</time>
      </trkpt>
      <trkpt lat="43.32983" lon="5.69058">
        <ele>700</ele>
        <time>2019-01-18T11:51:24.000Z</time>
      </trkpt>
      <trkpt lat="43.32983" lon="5.69058">
        <ele>700</ele>
        <time>2019-01-18T11:51:25.000Z</time>
      </trkpt>
      <trkpt lat="43.32982" lon="5.69058">
        <ele>700</ele>
        <time>2019-01-18T11:51:26.000Z</time>
      </trkpt>
      <trkpt lat="43.32982" lon="5.69057">
        <ele>700</ele>
        <time>2019-01-18T11:51:27.000Z</time>
      </trkpt>
      <trkpt lat="43.32982" lon="5.69057">
        <ele>700</ele>
        <time>2019-01-18T11:51:28.000Z</time>
      </trkpt>
      <trkpt lat="43.32981" lon="5.69056">
        <ele>700</ele>
        <time>2019-01-18T11:51:29.000Z</time>
      </trkpt>
      <trkpt lat="43.32981" lon="5.69056">
        <ele>701</ele>
        <time>2019-01-18T11:51:30.000Z</time>
      </trkpt>
      <trkpt lat="43.32981" lon="5.69055">
        <ele>701</ele>
        <time>2019-01-18T11:51:31.000Z</time>
      </trkpt>
      <trkpt lat="43.32981" lon="5.69055">
        <ele>701</ele>
        <time>2019-01-18T11:51:32.000Z</time>
      </trkpt>
      <trkpt lat="43.3298" lon="5.69055">
        <ele>701</ele>
        <time>2019-01-18T11:51:33.000Z</time>
      </trkpt>
      <trkpt lat="43.3298" lon="5.69055">
        <ele>701</ele>
        <time>2019-01-18T11:51:34.000Z</time>
      </trkpt>
      <trkpt lat="43.3298" lon="5.69055">
        <ele>701</ele>
        <time>2019-01-18T11:51:35.000Z</time>
      </trkpt>
      <trkpt lat="43.32979" lon="5.69055">
        <ele>702</ele>
        <time>2019-01-18T11:51:36.000Z</time>
      </trkpt>
      <trkpt lat="43.32979" lon="5.69055">
        <ele>702</ele>
        <time>2019-01-18T11:51:37.000Z</time>
      </trkpt>
      <trkpt lat="43.32978" lon="5.69055">
        <ele>702</ele>
        <time>2019-01-18T11:51:38.000Z</time>
      </trkpt>
      <trkpt lat="43.32978" lon="5.69054">
        <ele>702</ele>
        <time>2019-01-18T11:51:39.000Z</time>
      </trkpt>
      <trkpt lat="43.32978" lon="5.69054">
        <ele>702</ele>
        <time>2019-01-18T11:51:40.000Z</time>
      </trkpt>
      <trkpt lat="43.32977" lon="5.69053">
        <ele>703</ele>
        <time>2019-01-18T11:51:41.000Z</time>
      </trkpt>
      <trkpt lat="43.32977" lon="5.69053">
        <ele>703</ele>
        <time>2019-01-18T11:51:42.000Z</time>
      </trkpt>
      <trkpt lat="43.32977" lon="5.69053">
        <ele>703</ele>
        <time>2019-01-18T11:51:43.000Z</time>
      </trkpt>
      <trkpt lat="43.32976" lon="5.69052">
        <ele>703</ele>
        <time>2019-01-18T11:51:44.000Z</time>
      </trkpt>
      <trkpt lat="43.32976" lon="5.69052">
        <ele>703</ele>
        <time>2019-01-18T11:51:45.000Z</time>
      </trkpt>
      <trkpt lat="43.32976" lon="5.69052">
        <ele>703</ele>
        <time>2019-01-18T11:51:46.000Z</time>
      </trkpt>
      <trkpt lat="43.32975" lon="5.69053">
        <ele>703</ele>
        <time>2019-01-18T11:51:47.000Z</time>
      </trkpt>
      <trkpt lat="43.32975" lon="5.69053">
        <ele>704</ele>
        <time>2019-01-18T11:51:48.000Z</time>
      </trkpt>
      <trkpt lat="43.32974" lon="5.69052">
        <ele>704</ele>
        <time>2019-01-18T11:51:49.000Z</time>
      </trkpt>
      <trkpt lat="43.32974" lon="5.69052">
        <ele>704</ele>
        <time>2019-01-18T11:51:50.000Z</time>
      </trkpt>
      <trkpt lat="43.32974" lon="5.69051">
        <ele>704</ele>
        <time>2019-01-18T11:51:51.000Z</time>
      </trkpt>
      <trkpt lat="43.32974" lon="5.69051">
        <ele>704</ele>
        <time>2019-01-18T11:51:52.000Z</time>
      </trkpt>
      <trkpt lat="43.32974" lon="5.69051">
        <ele>704</ele>
        <time>2019-01-18T11:51:53.000Z</time>
      </trkpt>
      <trkpt lat="43.32974" lon="5.69051">
        <ele>704</ele>
        <time>2019-01-18T11:51:54.000Z</time>
      </trkpt>
      <trkpt lat="43.32974" lon="5.69051">
        <ele>704</ele>
        <time>2019-01-18T11:51:55.000Z</time>
      </trkpt>
      <trkpt lat="43.32974" lon="5.69051">
        <ele>704</ele>
        <time>2019-01-18T11:51:56.000Z</time>
      </trkpt>
      <trkpt lat="43.32974" lon="5.69051">
        <ele>704</ele>
        <time>2019-01-18T11:51:57.000Z</time>
      </trkpt>
      <trkpt lat="43.32974" lon="5.69051">
        <ele>704</ele>
        <time>2019-01-18T11:51:58.000Z</time>
      </trkpt>
      <trkpt lat="43.32974" lon="5.69051">
        <ele>704</ele>
        <time>2019-01-18T11:51:59.000Z</time>
      </trkpt>
      <trkpt lat="43.32974" lon="5.69051">
        <ele>705</ele>
        <time>2019-01-18T11:52:00.000Z</time>
      </trkpt>
      <trkpt lat="43.32973" lon="5.69051">
        <ele>705</ele>
        <time>2019-01-18T11:52:01.000Z</time>
      </trkpt>
      <trkpt lat="43.32973" lon="5.69051">
        <ele>705</ele>
        <time>2019-01-18T11:52:02.000Z</time>
      </trkpt>
      <trkpt lat="43.32973" lon="5.69051">
        <ele>705</ele>
        <time>2019-01-18T11:52:03.000Z</time>
      </trkpt>
      <trkpt lat="43.32973" lon="5.69051">
        <ele>705</ele>
        <time>2019-01-18T11:52:04.000Z</time>
      </trkpt>
      <trkpt lat="43.32973" lon="5.69052">
        <ele>705</ele>
        <time>2019-01-18T11:52:05.000Z</time>
      </trkpt>
      <trkpt lat="43.32973" lon="5.69052">
        <ele>705</ele>
        <time>2019-01-18T11:52:06.000Z</time>
      </trkpt>
      <trkpt lat="43.32973" lon="5.69052">
        <ele>705</ele>
        <time>2019-01-18T11:52:07.000Z</time>
      </trkpt>
      <trkpt lat="43.32973" lon="5.69052">
        <ele>705</ele>
        <time>2019-01-18T11:52:08.000Z</time>
      </trkpt>
      <trkpt lat="43.32973" lon="5.69052">
        <ele>705</ele>
        <time>2019-01-18T11:52:09.000Z</time>
      </trkpt>
      <trkpt lat="43.32973" lon="5.69052">
        <ele>705</ele>
        <time>2019-01-18T11:52:10.000Z</time>
      </trkpt>
      <trkpt lat="43.32973" lon="5.69052">
        <ele>705</ele>
        <time>2019-01-18T11:52:11.000Z</time>
      </trkpt>
      <trkpt lat="43.32973" lon="5.69052">
        <ele>705</ele>
        <time>2019-01-18T11:52:12.000Z</time>
      </trkpt>
      <trkpt lat="43.32973" lon="5.69052">
        <ele>705</ele>
        <time>2019-01-18T11:52:13.000Z</time>
      </trkpt>
      <trkpt lat="43.32973" lon="5.69052">
        <ele>705</ele>
        <time>2019-01-18T11:52:14.000Z</time>
      </trkpt>
      <trkpt lat="43.32973" lon="5.69052">
        <ele>705</ele>
        <time>2019-01-18T11:52:15.000Z</time>
      </trkpt>
      <trkpt lat="43.32973" lon="5.69052">
        <ele>705</ele>
        <time>2019-01-18T11:52:16.000Z</time>
      </trkpt>
      <trkpt lat="43.32973" lon="5.69051">
        <ele>705</ele>
        <time>2019-01-18T11:52:17.000Z</time>
      </trkpt>
      <trkpt lat="43.32973" lon="5.69051">
        <ele>705</ele>
        <time>2019-01-18T11:52:18.000Z</time>
      </trkpt>
      <trkpt lat="43.32973" lon="5.69052">
        <ele>705</ele>
        <time>2019-01-18T11:52:19.000Z</time>
      </trkpt>
      <trkpt lat="43.32973" lon="5.69052">
        <ele>705</ele>
        <time>2019-01-18T11:52:20.000Z</time>
      </trkpt>
      <trkpt lat="43.32973" lon="5.69052">
        <ele>705</ele>
        <time>2019-01-18T11:52:21.000Z</time>
      </trkpt>
      <trkpt lat="43.32973" lon="5.69052">
        <ele>705</ele>
        <time>2019-01-18T11:52:22.000Z</time>
      </trkpt>
      <trkpt lat="43.32973" lon="5.69052">
        <ele>705</ele>
        <time>2019-01-18T11:52:23.000Z</time>
      </trkpt>
      <trkpt lat="43.32973" lon="5.69052">
        <ele>705</ele>
        <time>2019-01-18T11:52:24.000Z</time>
      </trkpt>
      <trkpt lat="43.32973" lon="5.69052">
        <ele>705</ele>
        <time>2019-01-18T11:52:25.000Z</time>
      </trkpt>
      <trkpt lat="43.32973" lon="5.69052">
        <ele>705</ele>
        <time>2019-01-18T11:52:26.000Z</time>
      </trkpt>
      <trkpt lat="43.32973" lon="5.69052">
        <ele>705</ele>
        <time>2019-01-18T11:52:27.000Z</time>
      </trkpt>
      <trkpt lat="43.32973" lon="5.69052">
        <ele>705</ele>
        <time>2019-01-18T11:52:28.000Z</time>
      </trkpt>
      <trkpt lat="43.32973" lon="5.69052">
        <ele>705</ele>
        <time>2019-01-18T11:52:29.000Z</time>
      </trkpt>
      <trkpt lat="43.32973" lon="5.69052">
        <ele>705</ele>
        <time>2019-01-18T11:52:30.000Z</time>
      </trkpt>
      <trkpt lat="43.32973" lon="5.69052">
        <ele>705</ele>
        <time>2019-01-18T11:52:31.000Z</time>
      </trkpt>
      <trkpt lat="43.32973" lon="5.69052">
        <ele>705</ele>
        <time>2019-01-18T11:52:32.000Z</time>
      </trkpt>
      <trkpt lat="43.32973" lon="5.69052">
        <ele>705</ele>
        <time>2019-01-18T11:52:33.000Z</time>
      </trkpt>
      <trkpt lat="43.32973" lon="5.69052">
        <ele>705</ele>
        <time>2019-01-18T11:52:34.000Z</time>
      </trkpt>
      <trkpt lat="43.32973" lon="5.69052">
        <ele>705</ele>
        <time>2019-01-18T11:52:35.000Z</time>
      </trkpt>
      <trkpt lat="43.32973" lon="5.69052">
        <ele>705</ele>
        <time>2019-01-18T11:52:36.000Z</time>
      </trkpt>
      <trkpt lat="43.32973" lon="5.69052">
        <ele>705</ele>
        <time>2019-01-18T11:52:37.000Z</time>
      </trkpt>
      <trkpt lat="43.32973" lon="5.69052">
        <ele>705</ele>
        <time>2019-01-18T11:52:38.000Z</time>
      </trkpt>
      <trkpt lat="43.32973" lon="5.69052">
        <ele>705</ele>
        <time>2019-01-18T11:52:39.000Z</time>
      </trkpt>
      <trkpt lat="43.32973" lon="5.69052">
        <ele>705</ele>
        <time>2019-01-18T11:52:40.000Z</time>
      </trkpt>
      <trkpt lat="43.32972" lon="5.69052">
        <ele>706</ele>
        <time>2019-01-18T11:52:41.000Z</time>
      </trkpt>
      <trkpt lat="43.32972" lon="5.69052">
        <ele>706</ele>
        <time>2019-01-18T11:52:42.000Z</time>
      </trkpt>
      <trkpt lat="43.32972" lon="5.69051">
        <ele>706</ele>
        <time>2019-01-18T11:52:43.000Z</time>
      </trkpt>
      <trkpt lat="43.32971" lon="5.69051">
        <ele>706</ele>
        <time>2019-01-18T11:52:44.000Z</time>
      </trkpt>
      <trkpt lat="43.32971" lon="5.69051">
        <ele>706</ele>
        <time>2019-01-18T11:52:45.000Z</time>
      </trkpt>
      <trkpt lat="43.3297" lon="5.6905">
        <ele>706</ele>
        <time>2019-01-18T11:52:46.000Z</time>
      </trkpt>
      <trkpt lat="43.3297" lon="5.69049">
        <ele>707</ele>
        <time>2019-01-18T11:52:47.000Z</time>
      </trkpt>
      <trkpt lat="43.3297" lon="5.69048">
        <ele>707</ele>
        <time>2019-01-18T11:52:48.000Z</time>
      </trkpt>
      <trkpt lat="43.32969" lon="5.69048">
        <ele>707</ele>
        <time>2019-01-18T11:52:49.000Z</time>
      </trkpt>
      <trkpt lat="43.32969" lon="5.69048">
        <ele>707</ele>
        <time>2019-01-18T11:52:50.000Z</time>
      </trkpt>
      <trkpt lat="43.32968" lon="5.69048">
        <ele>707</ele>
        <time>2019-01-18T11:52:51.000Z</time>
      </trkpt>
      <trkpt lat="43.32968" lon="5.69048">
        <ele>707</ele>
        <time>2019-01-18T11:52:52.000Z</time>
      </trkpt>
      <trkpt lat="43.32968" lon="5.69048">
        <ele>708</ele>
        <time>2019-01-18T11:52:53.000Z</time>
      </trkpt>
      <trkpt lat="43.32967" lon="5.69048">
        <ele>708</ele>
        <time>2019-01-18T11:52:54.000Z</time>
      </trkpt>
      <trkpt lat="43.32966" lon="5.69048">
        <ele>708</ele>
        <time>2019-01-18T11:52:55.000Z</time>
      </trkpt>
      <trkpt lat="43.32966" lon="5.69048">
        <ele>708</ele>
        <time>2019-01-18T11:52:56.000Z</time>
      </trkpt>
      <trkpt lat="43.32966" lon="5.69048">
        <ele>708</ele>
        <time>2019-01-18T11:52:57.000Z</time>
      </trkpt>
      <trkpt lat="43.32965" lon="5.69048">
        <ele>708</ele>
        <time>2019-01-18T11:52:58.000Z</time>
      </trkpt>
      <trkpt lat="43.32965" lon="5.69048">
        <ele>709</ele>
        <time>2019-01-18T11:52:59.000Z</time>
      </trkpt>
      <trkpt lat="43.32964" lon="5.69049">
        <ele>709</ele>
        <time>2019-01-18T11:53:00.000Z</time>
      </trkpt>
      <trkpt lat="43.32964" lon="5.69049">
        <ele>709</ele>
        <time>2019-01-18T11:53:01.000Z</time>
      </trkpt>
      <trkpt lat="43.32963" lon="5.69049">
        <ele>709</ele>
        <time>2019-01-18T11:53:02.000Z</time>
      </trkpt>
      <trkpt lat="43.32963" lon="5.69049">
        <ele>710</ele>
        <time>2019-01-18T11:53:03.000Z</time>
      </trkpt>
      <trkpt lat="43.32963" lon="5.69049">
        <ele>710</ele>
        <time>2019-01-18T11:53:04.000Z</time>
      </trkpt>
      <trkpt lat="43.32962" lon="5.69049">
        <ele>710</ele>
        <time>2019-01-18T11:53:05.000Z</time>
      </trkpt>
      <trkpt lat="43.32962" lon="5.69049">
        <ele>710</ele>
        <time>2019-01-18T11:53:06.000Z</time>
      </trkpt>
      <trkpt lat="43.32961" lon="5.69049">
        <ele>710</ele>
        <time>2019-01-18T11:53:07.000Z</time>
      </trkpt>
      <trkpt lat="43.32961" lon="5.69049">
        <ele>710</ele>
        <time>2019-01-18T11:53:08.000Z</time>
      </trkpt>
      <trkpt lat="43.32961" lon="5.6905">
        <ele>710</ele>
        <time>2019-01-18T11:53:09.000Z</time>
      </trkpt>
      <trkpt lat="43.3296" lon="5.6905">
        <ele>711</ele>
        <time>2019-01-18T11:53:10.000Z</time>
      </trkpt>
      <trkpt lat="43.3296" lon="5.6905">
        <ele>711</ele>
        <time>2019-01-18T11:53:11.000Z</time>
      </trkpt>
      <trkpt lat="43.3296" lon="5.69049">
        <ele>711</ele>
        <time>2019-01-18T11:53:12.000Z</time>
      </trkpt>
      <trkpt lat="43.32959" lon="5.6905">
        <ele>711</ele>
        <time>2019-01-18T11:53:13.000Z</time>
      </trkpt>
      <trkpt lat="43.32959" lon="5.6905">
        <ele>711</ele>
        <time>2019-01-18T11:53:14.000Z</time>
      </trkpt>
      <trkpt lat="43.32958" lon="5.69049">
        <ele>711</ele>
        <time>2019-01-18T11:53:15.000Z</time>
      </trkpt>
      <trkpt lat="43.32958" lon="5.69049">
        <ele>712</ele>
        <time>2019-01-18T11:53:16.000Z</time>
      </trkpt>
      <trkpt lat="43.32957" lon="5.69049">
        <ele>712</ele>
        <time>2019-01-18T11:53:17.000Z</time>
      </trkpt>
      <trkpt lat="43.32957" lon="5.69049">
        <ele>712</ele>
        <time>2019-01-18T11:53:18.000Z</time>
      </trkpt>
      <trkpt lat="43.32957" lon="5.69049">
        <ele>712</ele>
        <time>2019-01-18T11:53:19.000Z</time>
      </trkpt>
      <trkpt lat="43.32956" lon="5.69049">
        <ele>712</ele>
        <time>2019-01-18T11:53:20.000Z</time>
      </trkpt>
      <trkpt lat="43.32956" lon="5.69049">
        <ele>712</ele>
        <time>2019-01-18T11:53:21.000Z</time>
      </trkpt>
      <trkpt lat="43.32955" lon="5.69049">
        <ele>712</ele>
        <time>2019-01-18T11:53:22.000Z</time>
      </trkpt>
      <trkpt lat="43.32955" lon="5.69049">
        <ele>713</ele>
        <time>2019-01-18T11:53:23.000Z</time>
      </trkpt>
      <trkpt lat="43.32955" lon="5.69049">
        <ele>713</ele>
        <time>2019-01-18T11:53:24.000Z</time>
      </trkpt>
      <trkpt lat="43.32954" lon="5.69049">
        <ele>713</ele>
        <time>2019-01-18T11:53:25.000Z</time>
      </trkpt>
      <trkpt lat="43.32954" lon="5.69049">
        <ele>713</ele>
        <time>2019-01-18T11:53:26.000Z</time>
      </trkpt>
      <trkpt lat="43.32954" lon="5.69049">
        <ele>713</ele>
        <time>2019-01-18T11:53:27.000Z</time>
      </trkpt>
      <trkpt lat="43.32954" lon="5.69049">
        <ele>713</ele>
        <time>2019-01-18T11:53:28.000Z</time>
      </trkpt>
      <trkpt lat="43.32953" lon="5.69049">
        <ele>713</ele>
        <time>2019-01-18T11:53:29.000Z</time>
      </trkpt>
      <trkpt lat="43.32953" lon="5.69049">
        <ele>713</ele>
        <time>2019-01-18T11:53:30.000Z</time>
      </trkpt>
      <trkpt lat="43.32953" lon="5.69049">
        <ele>714</ele>
        <time>2019-01-18T11:53:31.000Z</time>
      </trkpt>
      <trkpt lat="43.32952" lon="5.69049">
        <ele>714</ele>
        <time>2019-01-18T11:53:32.000Z</time>
      </trkpt>
      <trkpt lat="43.32952" lon="5.69049">
        <ele>714</ele>
        <time>2019-01-18T11:53:33.000Z</time>
      </trkpt>
      <trkpt lat="43.32952" lon="5.69049">
        <ele>714</ele>
        <time>2019-01-18T11:53:34.000Z</time>
      </trkpt>
      <trkpt lat="43.32951" lon="5.69049">
        <ele>714</ele>
        <time>2019-01-18T11:53:35.000Z</time>
      </trkpt>
      <trkpt lat="43.32951" lon="5.69049">
        <ele>714</ele>
        <time>2019-01-18T11:53:36.000Z</time>
      </trkpt>
      <trkpt lat="43.32951" lon="5.69049">
        <ele>714</ele>
        <time>2019-01-18T11:53:37.000Z</time>
      </trkpt>
      <trkpt lat="43.32951" lon="5.69049">
        <ele>715</ele>
        <time>2019-01-18T11:53:38.000Z</time>
      </trkpt>
      <trkpt lat="43.3295" lon="5.69049">
        <ele>715</ele>
        <time>2019-01-18T11:53:39.000Z</time>
      </trkpt>
      <trkpt lat="43.3295" lon="5.69049">
        <ele>715</ele>
        <time>2019-01-18T11:53:40.000Z</time>
      </trkpt>
      <trkpt lat="43.3295" lon="5.69049">
        <ele>715</ele>
        <time>2019-01-18T11:53:41.000Z</time>
      </trkpt>
      <trkpt lat="43.3295" lon="5.69049">
        <ele>715</ele>
        <time>2019-01-18T11:53:42.000Z</time>
      </trkpt>
      <trkpt lat="43.3295" lon="5.69049">
        <ele>715</ele>
        <time>2019-01-18T11:53:43.000Z</time>
      </trkpt>
      <trkpt lat="43.3295" lon="5.69049">
        <ele>715</ele>
        <time>2019-01-18T11:53:44.000Z</time>
      </trkpt>
      <trkpt lat="43.3295" lon="5.69049">
        <ele>715</ele>
        <time>2019-01-18T11:53:45.000Z</time>
      </trkpt>
      <trkpt lat="43.3295" lon="5.69049">
        <ele>715</ele>
        <time>2019-01-18T11:53:46.000Z</time>
      </trkpt>
      <trkpt lat="43.3295" lon="5.69049">
        <ele>715</ele>
        <time>2019-01-18T11:53:47.000Z</time>
      </trkpt>
      <trkpt lat="43.3295" lon="5.69049">
        <ele>715</ele>
        <time>2019-01-18T11:53:48.000Z</time>
      </trkpt>
      <trkpt lat="43.3295" lon="5.69049">
        <ele>715</ele>
        <time>2019-01-18T11:53:49.000Z</time>
      </trkpt>
      <trkpt lat="43.3295" lon="5.69049">
        <ele>715</ele>
        <time>2019-01-18T11:53:50.000Z</time>
      </trkpt>
      <trkpt lat="43.3295" lon="5.69049">
        <ele>715</ele>
        <time>2019-01-18T11:53:51.000Z</time>
      </trkpt>
      <trkpt lat="43.3295" lon="5.69049">
        <ele>715</ele>
        <time>2019-01-18T11:53:52.000Z</time>
      </trkpt>
      <trkpt lat="43.3295" lon="5.69049">
        <ele>715</ele>
        <time>2019-01-18T11:53:53.000Z</time>
      </trkpt>
      <trkpt lat="43.3295" lon="5.69049">
        <ele>715</ele>
        <time>2019-01-18T11:53:54.000Z</time>
      </trkpt>
      <trkpt lat="43.3295" lon="5.69049">
        <ele>715</ele>
        <time>2019-01-18T11:53:55.000Z</time>
      </trkpt>
      <trkpt lat="43.3295" lon="5.69049">
        <ele>715</ele>
        <time>2019-01-18T11:53:56.000Z</time>
      </trkpt>
      <trkpt lat="43.3295" lon="5.69049">
        <ele>715</ele>
        <time>2019-01-18T11:53:57.000Z</time>
      </trkpt>
      <trkpt lat="43.3295" lon="5.69049">
        <ele>715</ele>
        <time>2019-01-18T11:53:58.000Z</time>
      </trkpt>
      <trkpt lat="43.3295" lon="5.69049">
        <ele>715</ele>
        <time>2019-01-18T11:53:59.000Z</time>
      </trkpt>
      <trkpt lat="43.3295" lon="5.69049">
        <ele>715</ele>
        <time>2019-01-18T11:54:00.000Z</time>
      </trkpt>
      <trkpt lat="43.3295" lon="5.69049">
        <ele>715</ele>
        <time>2019-01-18T11:54:01.000Z</time>
      </trkpt>
      <trkpt lat="43.3295" lon="5.69049">
        <ele>715</ele>
        <time>2019-01-18T11:54:02.000Z</time>
      </trkpt>
      <trkpt lat="43.3295" lon="5.69049">
        <ele>715</ele>
        <time>2019-01-18T11:54:03.000Z</time>
      </trkpt>
      <trkpt lat="43.3295" lon="5.69049">
        <ele>716</ele>
        <time>2019-01-18T11:54:04.000Z</time>
      </trkpt>
      <trkpt lat="43.3295" lon="5.69049">
        <ele>716</ele>
        <time>2019-01-18T11:54:05.000Z</time>
      </trkpt>
      <trkpt lat="43.3295" lon="5.69049">
        <ele>716</ele>
        <time>2019-01-18T11:54:06.000Z</time>
      </trkpt>
      <trkpt lat="43.3295" lon="5.69049">
        <ele>716</ele>
        <time>2019-01-18T11:54:07.000Z</time>
      </trkpt>
      <trkpt lat="43.32949" lon="5.69049">
        <ele>716</ele>
        <time>2019-01-18T11:54:08.000Z</time>
      </trkpt>
      <trkpt lat="43.32949" lon="5.69049">
        <ele>716</ele>
        <time>2019-01-18T11:54:09.000Z</time>
      </trkpt>
      <trkpt lat="43.32949" lon="5.69049">
        <ele>716</ele>
        <time>2019-01-18T11:54:10.000Z</time>
      </trkpt>
      <trkpt lat="43.32948" lon="5.69049">
        <ele>716</ele>
        <time>2019-01-18T11:54:11.000Z</time>
      </trkpt>
      <trkpt lat="43.32948" lon="5.69049">
        <ele>716</ele>
        <time>2019-01-18T11:54:12.000Z</time>
      </trkpt>
      <trkpt lat="43.32947" lon="5.69048">
        <ele>716</ele>
        <time>2019-01-18T11:54:13.000Z</time>
      </trkpt>
      <trkpt lat="43.32947" lon="5.69048">
        <ele>716</ele>
        <time>2019-01-18T11:54:14.000Z</time>
      </trkpt>
      <trkpt lat="43.32947" lon="5.69048">
        <ele>716</ele>
        <time>2019-01-18T11:54:15.000Z</time>
      </trkpt>
      <trkpt lat="43.32946" lon="5.69048">
        <ele>717</ele>
        <time>2019-01-18T11:54:16.000Z</time>
      </trkpt>
      <trkpt lat="43.32946" lon="5.69048">
        <ele>717</ele>
        <time>2019-01-18T11:54:17.000Z</time>
      </trkpt>
      <trkpt lat="43.32946" lon="5.69049">
        <ele>717</ele>
        <time>2019-01-18T11:54:18.000Z</time>
      </trkpt>
      <trkpt lat="43.32945" lon="5.69049">
        <ele>717</ele>
        <time>2019-01-18T11:54:19.000Z</time>
      </trkpt>
      <trkpt lat="43.32945" lon="5.69049">
        <ele>717</ele>
        <time>2019-01-18T11:54:20.000Z</time>
      </trkpt>
      <trkpt lat="43.32944" lon="5.69049">
        <ele>717</ele>
        <time>2019-01-18T11:54:21.000Z</time>
      </trkpt>
      <trkpt lat="43.32944" lon="5.69049">
        <ele>718</ele>
        <time>2019-01-18T11:54:22.000Z</time>
      </trkpt>
      <trkpt lat="43.32944" lon="5.69049">
        <ele>718</ele>
        <time>2019-01-18T11:54:23.000Z</time>
      </trkpt>
      <trkpt lat="43.32943" lon="5.69049">
        <ele>718</ele>
        <time>2019-01-18T11:54:24.000Z</time>
      </trkpt>
      <trkpt lat="43.32943" lon="5.69049">
        <ele>718</ele>
        <time>2019-01-18T11:54:25.000Z</time>
      </trkpt>
      <trkpt lat="43.32942" lon="5.69049">
        <ele>718</ele>
        <time>2019-01-18T11:54:26.000Z</time>
      </trkpt>
      <trkpt lat="43.32942" lon="5.69049">
        <ele>719</ele>
        <time>2019-01-18T11:54:27.000Z</time>
      </trkpt>
      <trkpt lat="43.32941" lon="5.69049">
        <ele>719</ele>
        <time>2019-01-18T11:54:28.000Z</time>
      </trkpt>
      <trkpt lat="43.32941" lon="5.69049">
        <ele>719</ele>
        <time>2019-01-18T11:54:29.000Z</time>
      </trkpt>
      <trkpt lat="43.3294" lon="5.69049">
        <ele>719</ele>
        <time>2019-01-18T11:54:30.000Z</time>
      </trkpt>
      <trkpt lat="43.3294" lon="5.69049">
        <ele>719</ele>
        <time>2019-01-18T11:54:31.000Z</time>
      </trkpt>
      <trkpt lat="43.3294" lon="5.69049">
        <ele>720</ele>
        <time>2019-01-18T11:54:32.000Z</time>
      </trkpt>
      <trkpt lat="43.32939" lon="5.69049">
        <ele>720</ele>
        <time>2019-01-18T11:54:33.000Z</time>
      </trkpt>
      <trkpt lat="43.32939" lon="5.6905">
        <ele>720</ele>
        <time>2019-01-18T11:54:34.000Z</time>
      </trkpt>
      <trkpt lat="43.32939" lon="5.69049">
        <ele>720</ele>
        <time>2019-01-18T11:54:35.000Z</time>
      </trkpt>
      <trkpt lat="43.32938" lon="5.69049">
        <ele>720</ele>
        <time>2019-01-18T11:54:36.000Z</time>
      </trkpt>
      <trkpt lat="43.32938" lon="5.69049">
        <ele>720</ele>
        <time>2019-01-18T11:54:37.000Z</time>
      </trkpt>
      <trkpt lat="43.32937" lon="5.69049">
        <ele>721</ele>
        <time>2019-01-18T11:54:38.000Z</time>
      </trkpt>
      <trkpt lat="43.32937" lon="5.69049">
        <ele>721</ele>
        <time>2019-01-18T11:54:39.000Z</time>
      </trkpt>
      <trkpt lat="43.32937" lon="5.69049">
        <ele>721</ele>
        <time>2019-01-18T11:54:40.000Z</time>
      </trkpt>
      <trkpt lat="43.32936" lon="5.69049">
        <ele>721</ele>
        <time>2019-01-18T11:54:41.000Z</time>
      </trkpt>
      <trkpt lat="43.32936" lon="5.6905">
        <ele>721</ele>
        <time>2019-01-18T11:54:42.000Z</time>
      </trkpt>
      <trkpt lat="43.32936" lon="5.6905">
        <ele>721</ele>
        <time>2019-01-18T11:54:43.000Z</time>
      </trkpt>
      <trkpt lat="43.32935" lon="5.6905">
        <ele>721</ele>
        <time>2019-01-18T11:54:44.000Z</time>
      </trkpt>
      <trkpt lat="43.32935" lon="5.69051">
        <ele>722</ele>
        <time>2019-01-18T11:54:45.000Z</time>
      </trkpt>
      <trkpt lat="43.32934" lon="5.6905">
        <ele>722</ele>
        <time>2019-01-18T11:54:46.000Z</time>
      </trkpt>
      <trkpt lat="43.32934" lon="5.6905">
        <ele>722</ele>
        <time>2019-01-18T11:54:47.000Z</time>
      </trkpt>
      <trkpt lat="43.32934" lon="5.6905">
        <ele>722</ele>
        <time>2019-01-18T11:54:48.000Z</time>
      </trkpt>
      <trkpt lat="43.32933" lon="5.6905">
        <ele>722</ele>
        <time>2019-01-18T11:54:49.000Z</time>
      </trkpt>
      <trkpt lat="43.32933" lon="5.6905">
        <ele>722</ele>
        <time>2019-01-18T11:54:50.000Z</time>
      </trkpt>
      <trkpt lat="43.32932" lon="5.6905">
        <ele>722</ele>
        <time>2019-01-18T11:54:51.000Z</time>
      </trkpt>
      <trkpt lat="43.32932" lon="5.6905">
        <ele>722</ele>
        <time>2019-01-18T11:54:52.000Z</time>
      </trkpt>
      <trkpt lat="43.32931" lon="5.6905">
        <ele>723</ele>
        <time>2019-01-18T11:54:53.000Z</time>
      </trkpt>
      <trkpt lat="43.32931" lon="5.6905">
        <ele>723</ele>
        <time>2019-01-18T11:54:54.000Z</time>
      </trkpt>
      <trkpt lat="43.32931" lon="5.6905">
        <ele>723</ele>
        <time>2019-01-18T11:54:55.000Z</time>
      </trkpt>
      <trkpt lat="43.3293" lon="5.6905">
        <ele>723</ele>
        <time>2019-01-18T11:54:56.000Z</time>
      </trkpt>
      <trkpt lat="43.3293" lon="5.6905">
        <ele>723</ele>
        <time>2019-01-18T11:54:57.000Z</time>
      </trkpt>
      <trkpt lat="43.32929" lon="5.6905">
        <ele>724</ele>
        <time>2019-01-18T11:54:58.000Z</time>
      </trkpt>
      <trkpt lat="43.32929" lon="5.6905">
        <ele>724</ele>
        <time>2019-01-18T11:54:59.000Z</time>
      </trkpt>
      <trkpt lat="43.32929" lon="5.6905">
        <ele>724</ele>
        <time>2019-01-18T11:55:00.000Z</time>
      </trkpt>
      <trkpt lat="43.32929" lon="5.6905">
        <ele>724</ele>
        <time>2019-01-18T11:55:01.000Z</time>
      </trkpt>
      <trkpt lat="43.32929" lon="5.6905">
        <ele>724</ele>
        <time>2019-01-18T11:55:02.000Z</time>
      </trkpt>
      <trkpt lat="43.32929" lon="5.6905">
        <ele>724</ele>
        <time>2019-01-18T11:55:03.000Z</time>
      </trkpt>
      <trkpt lat="43.32929" lon="5.6905">
        <ele>724</ele>
        <time>2019-01-18T11:55:04.000Z</time>
      </trkpt>
      <trkpt lat="43.32929" lon="5.69051">
        <ele>724</ele>
        <time>2019-01-18T11:55:05.000Z</time>
      </trkpt>
      <trkpt lat="43.32929" lon="5.69051">
        <ele>724</ele>
        <time>2019-01-18T11:55:06.000Z</time>
      </trkpt>
      <trkpt lat="43.32929" lon="5.69051">
        <ele>724</ele>
        <time>2019-01-18T11:55:07.000Z</time>
      </trkpt>
      <trkpt lat="43.32928" lon="5.6905">
        <ele>724</ele>
        <time>2019-01-18T11:55:08.000Z</time>
      </trkpt>
      <trkpt lat="43.32928" lon="5.6905">
        <ele>724</ele>
        <time>2019-01-18T11:55:09.000Z</time>
      </trkpt>
      <trkpt lat="43.32928" lon="5.6905">
        <ele>725</ele>
        <time>2019-01-18T11:55:10.000Z</time>
      </trkpt>
      <trkpt lat="43.32927" lon="5.69049">
        <ele>725</ele>
        <time>2019-01-18T11:55:11.000Z</time>
      </trkpt>
      <trkpt lat="43.32927" lon="5.69049">
        <ele>725</ele>
        <time>2019-01-18T11:55:12.000Z</time>
      </trkpt>
      <trkpt lat="43.32927" lon="5.69049">
        <ele>725</ele>
        <time>2019-01-18T11:55:13.000Z</time>
      </trkpt>
      <trkpt lat="43.32926" lon="5.69049">
        <ele>725</ele>
        <time>2019-01-18T11:55:14.000Z</time>
      </trkpt>
      <trkpt lat="43.32926" lon="5.69048">
        <ele>725</ele>
        <time>2019-01-18T11:55:15.000Z</time>
      </trkpt>
      <trkpt lat="43.32926" lon="5.69048">
        <ele>725</ele>
        <time>2019-01-18T11:55:16.000Z</time>
      </trkpt>
      <trkpt lat="43.32925" lon="5.69048">
        <ele>726</ele>
        <time>2019-01-18T11:55:17.000Z</time>
      </trkpt>
      <trkpt lat="43.32925" lon="5.69048">
        <ele>726</ele>
        <time>2019-01-18T11:55:18.000Z</time>
      </trkpt>
      <trkpt lat="43.32925" lon="5.69048">
        <ele>726</ele>
        <time>2019-01-18T11:55:19.000Z</time>
      </trkpt>
      <trkpt lat="43.32924" lon="5.69047">
        <ele>726</ele>
        <time>2019-01-18T11:55:20.000Z</time>
      </trkpt>
      <trkpt lat="43.32924" lon="5.69047">
        <ele>726</ele>
        <time>2019-01-18T11:55:21.000Z</time>
      </trkpt>
      <trkpt lat="43.32924" lon="5.69046">
        <ele>726</ele>
        <time>2019-01-18T11:55:22.000Z</time>
      </trkpt>
      <trkpt lat="43.32924" lon="5.69046">
        <ele>726</ele>
        <time>2019-01-18T11:55:23.000Z</time>
      </trkpt>
      <trkpt lat="43.32923" lon="5.69046">
        <ele>726</ele>
        <time>2019-01-18T11:55:24.000Z</time>
      </trkpt>
      <trkpt lat="43.32923" lon="5.69045">
        <ele>727</ele>
        <time>2019-01-18T11:55:25.000Z</time>
      </trkpt>
      <trkpt lat="43.32923" lon="5.69045">
        <ele>727</ele>
        <time>2019-01-18T11:55:26.000Z</time>
      </trkpt>
      <trkpt lat="43.32923" lon="5.69045">
        <ele>727</ele>
        <time>2019-01-18T11:55:27.000Z</time>
      </trkpt>
      <trkpt lat="43.32923" lon="5.69045">
        <ele>727</ele>
        <time>2019-01-18T11:55:28.000Z</time>
      </trkpt>
      <trkpt lat="43.32923" lon="5.69045">
        <ele>727</ele>
        <time>2019-01-18T11:55:29.000Z</time>
      </trkpt>
      <trkpt lat="43.32922" lon="5.69045">
        <ele>727</ele>
        <time>2019-01-18T11:55:30.000Z</time>
      </trkpt>
      <trkpt lat="43.32923" lon="5.69046">
        <ele>727</ele>
        <time>2019-01-18T11:55:31.000Z</time>
      </trkpt>
      <trkpt lat="43.32923" lon="5.69046">
        <ele>727</ele>
        <time>2019-01-18T11:55:32.000Z</time>
      </trkpt>
      <trkpt lat="43.32922" lon="5.69046">
        <ele>727</ele>
        <time>2019-01-18T11:55:33.000Z</time>
      </trkpt>
      <trkpt lat="43.32922" lon="5.69046">
        <ele>727</ele>
        <time>2019-01-18T11:55:34.000Z</time>
      </trkpt>
      <trkpt lat="43.32922" lon="5.69046">
        <ele>727</ele>
        <time>2019-01-18T11:55:35.000Z</time>
      </trkpt>
      <trkpt lat="43.32922" lon="5.69046">
        <ele>727</ele>
        <time>2019-01-18T11:55:36.000Z</time>
      </trkpt>
      <trkpt lat="43.32922" lon="5.69046">
        <ele>727</ele>
        <time>2019-01-18T11:55:37.000Z</time>
      </trkpt>
      <trkpt lat="43.32922" lon="5.69046">
        <ele>727</ele>
        <time>2019-01-18T11:55:38.000Z</time>
      </trkpt>
      <trkpt lat="43.32922" lon="5.69045">
        <ele>727</ele>
        <time>2019-01-18T11:55:39.000Z</time>
      </trkpt>
      <trkpt lat="43.32922" lon="5.69045">
        <ele>727</ele>
        <time>2019-01-18T11:55:40.000Z</time>
      </trkpt>
      <trkpt lat="43.32922" lon="5.69045">
        <ele>727</ele>
        <time>2019-01-18T11:55:41.000Z</time>
      </trkpt>
      <trkpt lat="43.32922" lon="5.69045">
        <ele>727</ele>
        <time>2019-01-18T11:55:42.000Z</time>
      </trkpt>
      <trkpt lat="43.32922" lon="5.69045">
        <ele>727</ele>
        <time>2019-01-18T11:55:43.000Z</time>
      </trkpt>
      <trkpt lat="43.32922" lon="5.69045">
        <ele>727</ele>
        <time>2019-01-18T11:55:44.000Z</time>
      </trkpt>
      <trkpt lat="43.32922" lon="5.69045">
        <ele>727</ele>
        <time>2019-01-18T11:55:45.000Z</time>
      </trkpt>
      <trkpt lat="43.32922" lon="5.69045">
        <ele>727</ele>
        <time>2019-01-18T11:55:46.000Z</time>
      </trkpt>
      <trkpt lat="43.32922" lon="5.69045">
        <ele>727</ele>
        <time>2019-01-18T11:55:47.000Z</time>
      </trkpt>
      <trkpt lat="43.32922" lon="5.69045">
        <ele>727</ele>
        <time>2019-01-18T11:55:48.000Z</time>
      </trkpt>
      <trkpt lat="43.32922" lon="5.69045">
        <ele>727</ele>
        <time>2019-01-18T11:55:49.000Z</time>
      </trkpt>
      <trkpt lat="43.32922" lon="5.69045">
        <ele>727</ele>
        <time>2019-01-18T11:55:50.000Z</time>
      </trkpt>
      <trkpt lat="43.32922" lon="5.69045">
        <ele>727</ele>
        <time>2019-01-18T11:55:51.000Z</time>
      </trkpt>
      <trkpt lat="43.32922" lon="5.69045">
        <ele>727</ele>
        <time>2019-01-18T11:55:52.000Z</time>
      </trkpt>
      <trkpt lat="43.32922" lon="5.69045">
        <ele>727</ele>
        <time>2019-01-18T11:55:53.000Z</time>
      </trkpt>
      <trkpt lat="43.32922" lon="5.69045">
        <ele>727</ele>
        <time>2019-01-18T11:55:54.000Z</time>
      </trkpt>
      <trkpt lat="43.32922" lon="5.69045">
        <ele>727</ele>
        <time>2019-01-18T11:55:55.000Z</time>
      </trkpt>
      <trkpt lat="43.32922" lon="5.69045">
        <ele>727</ele>
        <time>2019-01-18T11:55:56.000Z</time>
      </trkpt>
      <trkpt lat="43.32922" lon="5.69045">
        <ele>727</ele>
        <time>2019-01-18T11:55:57.000Z</time>
      </trkpt>
      <trkpt lat="43.32922" lon="5.69045">
        <ele>727</ele>
        <time>2019-01-18T11:55:58.000Z</time>
      </trkpt>
      <trkpt lat="43.32922" lon="5.69045">
        <ele>727</ele>
        <time>2019-01-18T11:55:59.000Z</time>
      </trkpt>
      <trkpt lat="43.32922" lon="5.69045">
        <ele>727</ele>
        <time>2019-01-18T11:56:00.000Z</time>
      </trkpt>
      <trkpt lat="43.32922" lon="5.69045">
        <ele>727</ele>
        <time>2019-01-18T11:56:01.000Z</time>
      </trkpt>
      <trkpt lat="43.32922" lon="5.69046">
        <ele>727</ele>
        <time>2019-01-18T11:56:02.000Z</time>
      </trkpt>
      <trkpt lat="43.32923" lon="5.69046">
        <ele>728</ele>
        <time>2019-01-18T11:56:03.000Z</time>
      </trkpt>
      <trkpt lat="43.32922" lon="5.69046">
        <ele>728</ele>
        <time>2019-01-18T11:56:04.000Z</time>
      </trkpt>
      <trkpt lat="43.32922" lon="5.69046">
        <ele>728</ele>
        <time>2019-01-18T11:56:05.000Z</time>
      </trkpt>
      <trkpt lat="43.32922" lon="5.69046">
        <ele>728</ele>
        <time>2019-01-18T11:56:06.000Z</time>
      </trkpt>
      <trkpt lat="43.32922" lon="5.69046">
        <ele>728</ele>
        <time>2019-01-18T11:56:07.000Z</time>
      </trkpt>
      <trkpt lat="43.32922" lon="5.69046">
        <ele>728</ele>
        <time>2019-01-18T11:56:08.000Z</time>
      </trkpt>
      <trkpt lat="43.32922" lon="5.69046">
        <ele>728</ele>
        <time>2019-01-18T11:56:09.000Z</time>
      </trkpt>
      <trkpt lat="43.32922" lon="5.69046">
        <ele>728</ele>
        <time>2019-01-18T11:56:10.000Z</time>
      </trkpt>
      <trkpt lat="43.32922" lon="5.69046">
        <ele>728</ele>
        <time>2019-01-18T11:56:11.000Z</time>
      </trkpt>
      <trkpt lat="43.32922" lon="5.69046">
        <ele>728</ele>
        <time>2019-01-18T11:56:12.000Z</time>
      </trkpt>
      <trkpt lat="43.32922" lon="5.69046">
        <ele>728</ele>
        <time>2019-01-18T11:56:13.000Z</time>
      </trkpt>
      <trkpt lat="43.32922" lon="5.69046">
        <ele>728</ele>
        <time>2019-01-18T11:56:14.000Z</time>
      </trkpt>
      <trkpt lat="43.32921" lon="5.69046">
        <ele>728</ele>
        <time>2019-01-18T11:56:15.000Z</time>
      </trkpt>
      <trkpt lat="43.32921" lon="5.69045">
        <ele>728</ele>
        <time>2019-01-18T11:56:16.000Z</time>
      </trkpt>
      <trkpt lat="43.3292" lon="5.69045">
        <ele>728</ele>
        <time>2019-01-18T11:56:17.000Z</time>
      </trkpt>
      <trkpt lat="43.3292" lon="5.69045">
        <ele>728</ele>
        <time>2019-01-18T11:56:18.000Z</time>
      </trkpt>
      <trkpt lat="43.3292" lon="5.69045">
        <ele>728</ele>
        <time>2019-01-18T11:56:19.000Z</time>
      </trkpt>
      <trkpt lat="43.32919" lon="5.69044">
        <ele>728</ele>
        <time>2019-01-18T11:56:20.000Z</time>
      </trkpt>
      <trkpt lat="43.32919" lon="5.69044">
        <ele>729</ele>
        <time>2019-01-18T11:56:21.000Z</time>
      </trkpt>
      <trkpt lat="43.32918" lon="5.69044">
        <ele>729</ele>
        <time>2019-01-18T11:56:22.000Z</time>
      </trkpt>
      <trkpt lat="43.32918" lon="5.69043">
        <ele>729</ele>
        <time>2019-01-18T11:56:23.000Z</time>
      </trkpt>
      <trkpt lat="43.32918" lon="5.69043">
        <ele>729</ele>
        <time>2019-01-18T11:56:24.000Z</time>
      </trkpt>
      <trkpt lat="43.32918" lon="5.69042">
        <ele>729</ele>
        <time>2019-01-18T11:56:25.000Z</time>
      </trkpt>
      <trkpt lat="43.32917" lon="5.69042">
        <ele>730</ele>
        <time>2019-01-18T11:56:26.000Z</time>
      </trkpt>
      <trkpt lat="43.32917" lon="5.69042">
        <ele>730</ele>
        <time>2019-01-18T11:56:27.000Z</time>
      </trkpt>
      <trkpt lat="43.32916" lon="5.69042">
        <ele>730</ele>
        <time>2019-01-18T11:56:28.000Z</time>
      </trkpt>
      <trkpt lat="43.32916" lon="5.69041">
        <ele>730</ele>
        <time>2019-01-18T11:56:29.000Z</time>
      </trkpt>
      <trkpt lat="43.32915" lon="5.69041">
        <ele>730</ele>
        <time>2019-01-18T11:56:30.000Z</time>
      </trkpt>
      <trkpt lat="43.32915" lon="5.69041">
        <ele>731</ele>
        <time>2019-01-18T11:56:31.000Z</time>
      </trkpt>
      <trkpt lat="43.32914" lon="5.69041">
        <ele>731</ele>
        <time>2019-01-18T11:56:32.000Z</time>
      </trkpt>
      <trkpt lat="43.32914" lon="5.69041">
        <ele>731</ele>
        <time>2019-01-18T11:56:33.000Z</time>
      </trkpt>
      <trkpt lat="43.32914" lon="5.6904">
        <ele>731</ele>
        <time>2019-01-18T11:56:34.000Z</time>
      </trkpt>
      <trkpt lat="43.32913" lon="5.6904">
        <ele>732</ele>
        <time>2019-01-18T11:56:35.000Z</time>
      </trkpt>
      <trkpt lat="43.32913" lon="5.6904">
        <ele>732</ele>
        <time>2019-01-18T11:56:36.000Z</time>
      </trkpt>
      <trkpt lat="43.32913" lon="5.6904">
        <ele>732</ele>
        <time>2019-01-18T11:56:37.000Z</time>
      </trkpt>
      <trkpt lat="43.32912" lon="5.6904">
        <ele>733</ele>
        <time>2019-01-18T11:56:38.000Z</time>
      </trkpt>
      <trkpt lat="43.32912" lon="5.6904">
        <ele>733</ele>
        <time>2019-01-18T11:56:39.000Z</time>
      </trkpt>
      <trkpt lat="43.32911" lon="5.69039">
        <ele>733</ele>
        <time>2019-01-18T11:56:40.000Z</time>
      </trkpt>
      <trkpt lat="43.32911" lon="5.69039">
        <ele>733</ele>
        <time>2019-01-18T11:56:41.000Z</time>
      </trkpt>
      <trkpt lat="43.3291" lon="5.69039">
        <ele>734</ele>
        <time>2019-01-18T11:56:42.000Z</time>
      </trkpt>
      <trkpt lat="43.3291" lon="5.69039">
        <ele>734</ele>
        <time>2019-01-18T11:56:43.000Z</time>
      </trkpt>
      <trkpt lat="43.32909" lon="5.69038">
        <ele>734</ele>
        <time>2019-01-18T11:56:44.000Z</time>
      </trkpt>
      <trkpt lat="43.32909" lon="5.69038">
        <ele>735</ele>
        <time>2019-01-18T11:56:45.000Z</time>
      </trkpt>
      <trkpt lat="43.32909" lon="5.69037">
        <ele>735</ele>
        <time>2019-01-18T11:56:46.000Z</time>
      </trkpt>
      <trkpt lat="43.32908" lon="5.69037">
        <ele>735</ele>
        <time>2019-01-18T11:56:47.000Z</time>
      </trkpt>
      <trkpt lat="43.32908" lon="5.69037">
        <ele>735</ele>
        <time>2019-01-18T11:56:48.000Z</time>
      </trkpt>
      <trkpt lat="43.32908" lon="5.69037">
        <ele>736</ele>
        <time>2019-01-18T11:56:49.000Z</time>
      </trkpt>
      <trkpt lat="43.32908" lon="5.69037">
        <ele>736</ele>
        <time>2019-01-18T11:56:50.000Z</time>
      </trkpt>
      <trkpt lat="43.32908" lon="5.69037">
        <ele>736</ele>
        <time>2019-01-18T11:56:51.000Z</time>
      </trkpt>
      <trkpt lat="43.32908" lon="5.69037">
        <ele>736</ele>
        <time>2019-01-18T11:56:52.000Z</time>
      </trkpt>
      <trkpt lat="43.32908" lon="5.69037">
        <ele>736</ele>
        <time>2019-01-18T11:56:53.000Z</time>
      </trkpt>
      <trkpt lat="43.32907" lon="5.69037">
        <ele>736</ele>
        <time>2019-01-18T11:56:54.000Z</time>
      </trkpt>
      <trkpt lat="43.32907" lon="5.69036">
        <ele>736</ele>
        <time>2019-01-18T11:56:55.000Z</time>
      </trkpt>
      <trkpt lat="43.32906" lon="5.69036">
        <ele>737</ele>
        <time>2019-01-18T11:56:56.000Z</time>
      </trkpt>
      <trkpt lat="43.32906" lon="5.69036">
        <ele>737</ele>
        <time>2019-01-18T11:56:57.000Z</time>
      </trkpt>
      <trkpt lat="43.32905" lon="5.69036">
        <ele>737</ele>
        <time>2019-01-18T11:56:58.000Z</time>
      </trkpt>
      <trkpt lat="43.32905" lon="5.69036">
        <ele>737</ele>
        <time>2019-01-18T11:56:59.000Z</time>
      </trkpt>
      <trkpt lat="43.32905" lon="5.69036">
        <ele>737</ele>
        <time>2019-01-18T11:57:00.000Z</time>
      </trkpt>
      <trkpt lat="43.32904" lon="5.69037">
        <ele>738</ele>
        <time>2019-01-18T11:57:01.000Z</time>
      </trkpt>
      <trkpt lat="43.32904" lon="5.69037">
        <ele>738</ele>
        <time>2019-01-18T11:57:02.000Z</time>
      </trkpt>
      <trkpt lat="43.32904" lon="5.69038">
        <ele>738</ele>
        <time>2019-01-18T11:57:03.000Z</time>
      </trkpt>
      <trkpt lat="43.32903" lon="5.69038">
        <ele>738</ele>
        <time>2019-01-18T11:57:04.000Z</time>
      </trkpt>
      <trkpt lat="43.32903" lon="5.69038">
        <ele>738</ele>
        <time>2019-01-18T11:57:05.000Z</time>
      </trkpt>
      <trkpt lat="43.32903" lon="5.69039">
        <ele>738</ele>
        <time>2019-01-18T11:57:06.000Z</time>
      </trkpt>
      <trkpt lat="43.32902" lon="5.69039">
        <ele>739</ele>
        <time>2019-01-18T11:57:07.000Z</time>
      </trkpt>
      <trkpt lat="43.32902" lon="5.69039">
        <ele>739</ele>
        <time>2019-01-18T11:57:08.000Z</time>
      </trkpt>
      <trkpt lat="43.32902" lon="5.69039">
        <ele>739</ele>
        <time>2019-01-18T11:57:09.000Z</time>
      </trkpt>
      <trkpt lat="43.32901" lon="5.69039">
        <ele>739</ele>
        <time>2019-01-18T11:57:10.000Z</time>
      </trkpt>
      <trkpt lat="43.32901" lon="5.69039">
        <ele>739</ele>
        <time>2019-01-18T11:57:11.000Z</time>
      </trkpt>
      <trkpt lat="43.329" lon="5.69039">
        <ele>740</ele>
        <time>2019-01-18T11:57:12.000Z</time>
      </trkpt>
      <trkpt lat="43.329" lon="5.69039">
        <ele>740</ele>
        <time>2019-01-18T11:57:13.000Z</time>
      </trkpt>
      <trkpt lat="43.32899" lon="5.69039">
        <ele>740</ele>
        <time>2019-01-18T11:57:14.000Z</time>
      </trkpt>
      <trkpt lat="43.32899" lon="5.69039">
        <ele>740</ele>
        <time>2019-01-18T11:57:15.000Z</time>
      </trkpt>
      <trkpt lat="43.32899" lon="5.69039">
        <ele>740</ele>
        <time>2019-01-18T11:57:16.000Z</time>
      </trkpt>
      <trkpt lat="43.32898" lon="5.6904">
        <ele>740</ele>
        <time>2019-01-18T11:57:17.000Z</time>
      </trkpt>
      <trkpt lat="43.32898" lon="5.6904">
        <ele>740</ele>
        <time>2019-01-18T11:57:18.000Z</time>
      </trkpt>
      <trkpt lat="43.32897" lon="5.6904">
        <ele>741</ele>
        <time>2019-01-18T11:57:19.000Z</time>
      </trkpt>
      <trkpt lat="43.32897" lon="5.6904">
        <ele>741</ele>
        <time>2019-01-18T11:57:20.000Z</time>
      </trkpt>
      <trkpt lat="43.32897" lon="5.6904">
        <ele>741</ele>
        <time>2019-01-18T11:57:21.000Z</time>
      </trkpt>
      <trkpt lat="43.32897" lon="5.6904">
        <ele>741</ele>
        <time>2019-01-18T11:57:22.000Z</time>
      </trkpt>
      <trkpt lat="43.32897" lon="5.6904">
        <ele>741</ele>
        <time>2019-01-18T11:57:23.000Z</time>
      </trkpt>
      <trkpt lat="43.32897" lon="5.6904">
        <ele>741</ele>
        <time>2019-01-18T11:57:24.000Z</time>
      </trkpt>
      <trkpt lat="43.32897" lon="5.6904">
        <ele>741</ele>
        <time>2019-01-18T11:57:25.000Z</time>
      </trkpt>
      <trkpt lat="43.32897" lon="5.6904">
        <ele>741</ele>
        <time>2019-01-18T11:57:26.000Z</time>
      </trkpt>
      <trkpt lat="43.32897" lon="5.6904">
        <ele>741</ele>
        <time>2019-01-18T11:57:27.000Z</time>
      </trkpt>
      <trkpt lat="43.32897" lon="5.6904">
        <ele>741</ele>
        <time>2019-01-18T11:57:28.000Z</time>
      </trkpt>
      <trkpt lat="43.32897" lon="5.6904">
        <ele>741</ele>
        <time>2019-01-18T11:57:29.000Z</time>
      </trkpt>
      <trkpt lat="43.32897" lon="5.6904">
        <ele>741</ele>
        <time>2019-01-18T11:57:30.000Z</time>
      </trkpt>
      <trkpt lat="43.32897" lon="5.6904">
        <ele>741</ele>
        <time>2019-01-18T11:57:31.000Z</time>
      </trkpt>
      <trkpt lat="43.32897" lon="5.6904">
        <ele>741</ele>
        <time>2019-01-18T11:57:32.000Z</time>
      </trkpt>
      <trkpt lat="43.32897" lon="5.6904">
        <ele>741</ele>
        <time>2019-01-18T11:57:33.000Z</time>
      </trkpt>
      <trkpt lat="43.32897" lon="5.6904">
        <ele>741</ele>
        <time>2019-01-18T11:57:34.000Z</time>
      </trkpt>
      <trkpt lat="43.32897" lon="5.6904">
        <ele>741</ele>
        <time>2019-01-18T11:57:35.000Z</time>
      </trkpt>
      <trkpt lat="43.32897" lon="5.6904">
        <ele>741</ele>
        <time>2019-01-18T11:57:36.000Z</time>
      </trkpt>
      <trkpt lat="43.32897" lon="5.6904">
        <ele>741</ele>
        <time>2019-01-18T11:57:37.000Z</time>
      </trkpt>
      <trkpt lat="43.32897" lon="5.6904">
        <ele>741</ele>
        <time>2019-01-18T11:57:38.000Z</time>
      </trkpt>
      <trkpt lat="43.32897" lon="5.6904">
        <ele>741</ele>
        <time>2019-01-18T11:57:39.000Z</time>
      </trkpt>
      <trkpt lat="43.32897" lon="5.6904">
        <ele>741</ele>
        <time>2019-01-18T11:57:40.000Z</time>
      </trkpt>
      <trkpt lat="43.32897" lon="5.6904">
        <ele>741</ele>
        <time>2019-01-18T11:57:41.000Z</time>
      </trkpt>
      <trkpt lat="43.32897" lon="5.6904">
        <ele>741</ele>
        <time>2019-01-18T11:57:42.000Z</time>
      </trkpt>
      <trkpt lat="43.32897" lon="5.6904">
        <ele>741</ele>
        <time>2019-01-18T11:57:43.000Z</time>
      </trkpt>
      <trkpt lat="43.32897" lon="5.6904">
        <ele>741</ele>
        <time>2019-01-18T11:57:44.000Z</time>
      </trkpt>
      <trkpt lat="43.32897" lon="5.6904">
        <ele>741</ele>
        <time>2019-01-18T11:57:45.000Z</time>
      </trkpt>
      <trkpt lat="43.32897" lon="5.6904">
        <ele>741</ele>
        <time>2019-01-18T11:57:46.000Z</time>
      </trkpt>
      <trkpt lat="43.32897" lon="5.6904">
        <ele>741</ele>
        <time>2019-01-18T11:57:47.000Z</time>
      </trkpt>
      <trkpt lat="43.32897" lon="5.6904">
        <ele>741</ele>
        <time>2019-01-18T11:57:48.000Z</time>
      </trkpt>
      <trkpt lat="43.32897" lon="5.6904">
        <ele>741</ele>
        <time>2019-01-18T11:57:49.000Z</time>
      </trkpt>
      <trkpt lat="43.32897" lon="5.6904">
        <ele>741</ele>
        <time>2019-01-18T11:57:50.000Z</time>
      </trkpt>
      <trkpt lat="43.32897" lon="5.6904">
        <ele>741</ele>
        <time>2019-01-18T11:57:51.000Z</time>
      </trkpt>
      <trkpt lat="43.32897" lon="5.6904">
        <ele>741</ele>
        <time>2019-01-18T11:57:52.000Z</time>
      </trkpt>
      <trkpt lat="43.32897" lon="5.6904">
        <ele>741</ele>
        <time>2019-01-18T11:57:53.000Z</time>
      </trkpt>
      <trkpt lat="43.32897" lon="5.6904">
        <ele>741</ele>
        <time>2019-01-18T11:57:54.000Z</time>
      </trkpt>
      <trkpt lat="43.32897" lon="5.6904">
        <ele>741</ele>
        <time>2019-01-18T11:57:55.000Z</time>
      </trkpt>
      <trkpt lat="43.32897" lon="5.6904">
        <ele>741</ele>
        <time>2019-01-18T11:57:56.000Z</time>
      </trkpt>
      <trkpt lat="43.32897" lon="5.6904">
        <ele>741</ele>
        <time>2019-01-18T11:57:57.000Z</time>
      </trkpt>
      <trkpt lat="43.32897" lon="5.6904">
        <ele>741</ele>
        <time>2019-01-18T11:57:58.000Z</time>
      </trkpt>
      <trkpt lat="43.32897" lon="5.6904">
        <ele>741</ele>
        <time>2019-01-18T11:57:59.000Z</time>
      </trkpt>
      <trkpt lat="43.32897" lon="5.6904">
        <ele>741</ele>
        <time>2019-01-18T11:58:00.000Z</time>
      </trkpt>
      <trkpt lat="43.32897" lon="5.6904">
        <ele>741</ele>
        <time>2019-01-18T11:58:01.000Z</time>
      </trkpt>
      <trkpt lat="43.32897" lon="5.6904">
        <ele>741</ele>
        <time>2019-01-18T11:58:02.000Z</time>
      </trkpt>
      <trkpt lat="43.32896" lon="5.6904">
        <ele>741</ele>
        <time>2019-01-18T11:58:03.000Z</time>
      </trkpt>
      <trkpt lat="43.32896" lon="5.6904">
        <ele>741</ele>
        <time>2019-01-18T11:58:04.000Z</time>
      </trkpt>
      <trkpt lat="43.32896" lon="5.69041">
        <ele>741</ele>
        <time>2019-01-18T11:58:05.000Z</time>
      </trkpt>
      <trkpt lat="43.32895" lon="5.69041">
        <ele>741</ele>
        <time>2019-01-18T11:58:06.000Z</time>
      </trkpt>
      <trkpt lat="43.32894" lon="5.69041">
        <ele>741</ele>
        <time>2019-01-18T11:58:07.000Z</time>
      </trkpt>
      <trkpt lat="43.32894" lon="5.69041">
        <ele>742</ele>
        <time>2019-01-18T11:58:08.000Z</time>
      </trkpt>
      <trkpt lat="43.32893" lon="5.69041">
        <ele>742</ele>
        <time>2019-01-18T11:58:09.000Z</time>
      </trkpt>
      <trkpt lat="43.32893" lon="5.69042">
        <ele>742</ele>
        <time>2019-01-18T11:58:10.000Z</time>
      </trkpt>
      <trkpt lat="43.32893" lon="5.69042">
        <ele>742</ele>
        <time>2019-01-18T11:58:11.000Z</time>
      </trkpt>
      <trkpt lat="43.32892" lon="5.69042">
        <ele>742</ele>
        <time>2019-01-18T11:58:12.000Z</time>
      </trkpt>
      <trkpt lat="43.32892" lon="5.69043">
        <ele>743</ele>
        <time>2019-01-18T11:58:13.000Z</time>
      </trkpt>
      <trkpt lat="43.32891" lon="5.69043">
        <ele>743</ele>
        <time>2019-01-18T11:58:14.000Z</time>
      </trkpt>
      <trkpt lat="43.32891" lon="5.69043">
        <ele>743</ele>
        <time>2019-01-18T11:58:15.000Z</time>
      </trkpt>
      <trkpt lat="43.3289" lon="5.69043">
        <ele>743</ele>
        <time>2019-01-18T11:58:16.000Z</time>
      </trkpt>
      <trkpt lat="43.3289" lon="5.69043">
        <ele>743</ele>
        <time>2019-01-18T11:58:17.000Z</time>
      </trkpt>
      <trkpt lat="43.32889" lon="5.69044">
        <ele>743</ele>
        <time>2019-01-18T11:58:18.000Z</time>
      </trkpt>
      <trkpt lat="43.32888" lon="5.69044">
        <ele>743</ele>
        <time>2019-01-18T11:58:19.000Z</time>
      </trkpt>
      <trkpt lat="43.32888" lon="5.69044">
        <ele>744</ele>
        <time>2019-01-18T11:58:20.000Z</time>
      </trkpt>
      <trkpt lat="43.32887" lon="5.69044">
        <ele>744</ele>
        <time>2019-01-18T11:58:21.000Z</time>
      </trkpt>
      <trkpt lat="43.32887" lon="5.69044">
        <ele>744</ele>
        <time>2019-01-18T11:58:22.000Z</time>
      </trkpt>
      <trkpt lat="43.32887" lon="5.69044">
        <ele>744</ele>
        <time>2019-01-18T11:58:23.000Z</time>
      </trkpt>
      <trkpt lat="43.32886" lon="5.69044">
        <ele>744</ele>
        <time>2019-01-18T11:58:24.000Z</time>
      </trkpt>
      <trkpt lat="43.32886" lon="5.69044">
        <ele>744</ele>
        <time>2019-01-18T11:58:25.000Z</time>
      </trkpt>
      <trkpt lat="43.32885" lon="5.69044">
        <ele>744</ele>
        <time>2019-01-18T11:58:26.000Z</time>
      </trkpt>
      <trkpt lat="43.32885" lon="5.69045">
        <ele>745</ele>
        <time>2019-01-18T11:58:27.000Z</time>
      </trkpt>
      <trkpt lat="43.32884" lon="5.69045">
        <ele>745</ele>
        <time>2019-01-18T11:58:28.000Z</time>
      </trkpt>
      <trkpt lat="43.32884" lon="5.69045">
        <ele>745</ele>
        <time>2019-01-18T11:58:29.000Z</time>
      </trkpt>
      <trkpt lat="43.32883" lon="5.69045">
        <ele>745</ele>
        <time>2019-01-18T11:58:30.000Z</time>
      </trkpt>
      <trkpt lat="43.32883" lon="5.69045">
        <ele>745</ele>
        <time>2019-01-18T11:58:31.000Z</time>
      </trkpt>
      <trkpt lat="43.32882" lon="5.69045">
        <ele>745</ele>
        <time>2019-01-18T11:58:32.000Z</time>
      </trkpt>
      <trkpt lat="43.32882" lon="5.69045">
        <ele>746</ele>
        <time>2019-01-18T11:58:33.000Z</time>
      </trkpt>
      <trkpt lat="43.32882" lon="5.69045">
        <ele>746</ele>
        <time>2019-01-18T11:58:34.000Z</time>
      </trkpt>
      <trkpt lat="43.32881" lon="5.69045">
        <ele>746</ele>
        <time>2019-01-18T11:58:35.000Z</time>
      </trkpt>
      <trkpt lat="43.32881" lon="5.69046">
        <ele>746</ele>
        <time>2019-01-18T11:58:36.000Z</time>
      </trkpt>
      <trkpt lat="43.3288" lon="5.69046">
        <ele>746</ele>
        <time>2019-01-18T11:58:37.000Z</time>
      </trkpt>
      <trkpt lat="43.3288" lon="5.69045">
        <ele>747</ele>
        <time>2019-01-18T11:58:38.000Z</time>
      </trkpt>
      <trkpt lat="43.32879" lon="5.69045">
        <ele>747</ele>
        <time>2019-01-18T11:58:39.000Z</time>
      </trkpt>
      <trkpt lat="43.32879" lon="5.69045">
        <ele>747</ele>
        <time>2019-01-18T11:58:40.000Z</time>
      </trkpt>
      <trkpt lat="43.32878" lon="5.69044">
        <ele>747</ele>
        <time>2019-01-18T11:58:41.000Z</time>
      </trkpt>
      <trkpt lat="43.32878" lon="5.69044">
        <ele>747</ele>
        <time>2019-01-18T11:58:42.000Z</time>
      </trkpt>
      <trkpt lat="43.32878" lon="5.69044">
        <ele>747</ele>
        <time>2019-01-18T11:58:43.000Z</time>
      </trkpt>
      <trkpt lat="43.32877" lon="5.69044">
        <ele>748</ele>
        <time>2019-01-18T11:58:44.000Z</time>
      </trkpt>
      <trkpt lat="43.32877" lon="5.69045">
        <ele>748</ele>
        <time>2019-01-18T11:58:45.000Z</time>
      </trkpt>
      <trkpt lat="43.32877" lon="5.69045">
        <ele>748</ele>
        <time>2019-01-18T11:58:46.000Z</time>
      </trkpt>
      <trkpt lat="43.32876" lon="5.69044">
        <ele>748</ele>
        <time>2019-01-18T11:58:47.000Z</time>
      </trkpt>
      <trkpt lat="43.32876" lon="5.69044">
        <ele>748</ele>
        <time>2019-01-18T11:58:48.000Z</time>
      </trkpt>
      <trkpt lat="43.32875" lon="5.69044">
        <ele>749</ele>
        <time>2019-01-18T11:58:49.000Z</time>
      </trkpt>
      <trkpt lat="43.32875" lon="5.69044">
        <ele>749</ele>
        <time>2019-01-18T11:58:50.000Z</time>
      </trkpt>
      <trkpt lat="43.32874" lon="5.69044">
        <ele>749</ele>
        <time>2019-01-18T11:58:51.000Z</time>
      </trkpt>
      <trkpt lat="43.32874" lon="5.69044">
        <ele>749</ele>
        <time>2019-01-18T11:58:52.000Z</time>
      </trkpt>
      <trkpt lat="43.32874" lon="5.69045">
        <ele>749</ele>
        <time>2019-01-18T11:58:53.000Z</time>
      </trkpt>
      <trkpt lat="43.32873" lon="5.69044">
        <ele>750</ele>
        <time>2019-01-18T11:58:54.000Z</time>
      </trkpt>
      <trkpt lat="43.32873" lon="5.69044">
        <ele>750</ele>
        <time>2019-01-18T11:58:55.000Z</time>
      </trkpt>
      <trkpt lat="43.32873" lon="5.69044">
        <ele>750</ele>
        <time>2019-01-18T11:58:56.000Z</time>
      </trkpt>
      <trkpt lat="43.32873" lon="5.69044">
        <ele>750</ele>
        <time>2019-01-18T11:58:57.000Z</time>
      </trkpt>
      <trkpt lat="43.32873" lon="5.69044">
        <ele>750</ele>
        <time>2019-01-18T11:58:58.000Z</time>
      </trkpt>
      <trkpt lat="43.32873" lon="5.69044">
        <ele>750</ele>
        <time>2019-01-18T11:58:59.000Z</time>
      </trkpt>
      <trkpt lat="43.32873" lon="5.69044">
        <ele>750</ele>
        <time>2019-01-18T11:59:00.000Z</time>
      </trkpt>
      <trkpt lat="43.32873" lon="5.69044">
        <ele>750</ele>
        <time>2019-01-18T11:59:01.000Z</time>
      </trkpt>
      <trkpt lat="43.32873" lon="5.69045">
        <ele>750</ele>
        <time>2019-01-18T11:59:02.000Z</time>
      </trkpt>
      <trkpt lat="43.32873" lon="5.69045">
        <ele>750</ele>
        <time>2019-01-18T11:59:03.000Z</time>
      </trkpt>
      <trkpt lat="43.32873" lon="5.69045">
        <ele>750</ele>
        <time>2019-01-18T11:59:04.000Z</time>
      </trkpt>
      <trkpt lat="43.32873" lon="5.69045">
        <ele>750</ele>
        <time>2019-01-18T11:59:05.000Z</time>
      </trkpt>
      <trkpt lat="43.32873" lon="5.69044">
        <ele>751</ele>
        <time>2019-01-18T11:59:06.000Z</time>
      </trkpt>
      <trkpt lat="43.32872" lon="5.69044">
        <ele>751</ele>
        <time>2019-01-18T11:59:07.000Z</time>
      </trkpt>
      <trkpt lat="43.32872" lon="5.69044">
        <ele>751</ele>
        <time>2019-01-18T11:59:08.000Z</time>
      </trkpt>
      <trkpt lat="43.32871" lon="5.69044">
        <ele>751</ele>
        <time>2019-01-18T11:59:09.000Z</time>
      </trkpt>
      <trkpt lat="43.3287" lon="5.69044">
        <ele>751</ele>
        <time>2019-01-18T11:59:10.000Z</time>
      </trkpt>
      <trkpt lat="43.3287" lon="5.69043">
        <ele>751</ele>
        <time>2019-01-18T11:59:11.000Z</time>
      </trkpt>
      <trkpt lat="43.3287" lon="5.69042">
        <ele>751</ele>
        <time>2019-01-18T11:59:12.000Z</time>
      </trkpt>
      <trkpt lat="43.32869" lon="5.69042">
        <ele>751</ele>
        <time>2019-01-18T11:59:13.000Z</time>
      </trkpt>
      <trkpt lat="43.32869" lon="5.69042">
        <ele>751</ele>
        <time>2019-01-18T11:59:14.000Z</time>
      </trkpt>
      <trkpt lat="43.32869" lon="5.69042">
        <ele>751</ele>
        <time>2019-01-18T11:59:15.000Z</time>
      </trkpt>
      <trkpt lat="43.32868" lon="5.69042">
        <ele>752</ele>
        <time>2019-01-18T11:59:16.000Z</time>
      </trkpt>
      <trkpt lat="43.32868" lon="5.69041">
        <ele>752</ele>
        <time>2019-01-18T11:59:17.000Z</time>
      </trkpt>
      <trkpt lat="43.32867" lon="5.69041">
        <ele>752</ele>
        <time>2019-01-18T11:59:18.000Z</time>
      </trkpt>
      <trkpt lat="43.32867" lon="5.6904">
        <ele>752</ele>
        <time>2019-01-18T11:59:19.000Z</time>
      </trkpt>
      <trkpt lat="43.32866" lon="5.6904">
        <ele>752</ele>
        <time>2019-01-18T11:59:20.000Z</time>
      </trkpt>
      <trkpt lat="43.32866" lon="5.6904">
        <ele>752</ele>
        <time>2019-01-18T11:59:21.000Z</time>
      </trkpt>
      <trkpt lat="43.32866" lon="5.69039">
        <ele>752</ele>
        <time>2019-01-18T11:59:22.000Z</time>
      </trkpt>
      <trkpt lat="43.32865" lon="5.69039">
        <ele>753</ele>
        <time>2019-01-18T11:59:23.000Z</time>
      </trkpt>
      <trkpt lat="43.32865" lon="5.69038">
        <ele>753</ele>
        <time>2019-01-18T11:59:24.000Z</time>
      </trkpt>
      <trkpt lat="43.32865" lon="5.69038">
        <ele>753</ele>
        <time>2019-01-18T11:59:25.000Z</time>
      </trkpt>
      <trkpt lat="43.32864" lon="5.69038">
        <ele>753</ele>
        <time>2019-01-18T11:59:26.000Z</time>
      </trkpt>
      <trkpt lat="43.32864" lon="5.69037">
        <ele>753</ele>
        <time>2019-01-18T11:59:27.000Z</time>
      </trkpt>
      <trkpt lat="43.32863" lon="5.69037">
        <ele>753</ele>
        <time>2019-01-18T11:59:28.000Z</time>
      </trkpt>
      <trkpt lat="43.32863" lon="5.69036">
        <ele>753</ele>
        <time>2019-01-18T11:59:29.000Z</time>
      </trkpt>
      <trkpt lat="43.32863" lon="5.69036">
        <ele>754</ele>
        <time>2019-01-18T11:59:30.000Z</time>
      </trkpt>
      <trkpt lat="43.32862" lon="5.69036">
        <ele>754</ele>
        <time>2019-01-18T11:59:31.000Z</time>
      </trkpt>
      <trkpt lat="43.32862" lon="5.69036">
        <ele>754</ele>
        <time>2019-01-18T11:59:32.000Z</time>
      </trkpt>
      <trkpt lat="43.32862" lon="5.69036">
        <ele>754</ele>
        <time>2019-01-18T11:59:33.000Z</time>
      </trkpt>
      <trkpt lat="43.32862" lon="5.69036">
        <ele>754</ele>
        <time>2019-01-18T11:59:34.000Z</time>
      </trkpt>
      <trkpt lat="43.32862" lon="5.69036">
        <ele>754</ele>
        <time>2019-01-18T11:59:35.000Z</time>
      </trkpt>
      <trkpt lat="43.32862" lon="5.69036">
        <ele>754</ele>
        <time>2019-01-18T11:59:36.000Z</time>
      </trkpt>
      <trkpt lat="43.32862" lon="5.69036">
        <ele>755</ele>
        <time>2019-01-18T11:59:37.000Z</time>
      </trkpt>
      <trkpt lat="43.32862" lon="5.69036">
        <ele>755</ele>
        <time>2019-01-18T11:59:38.000Z</time>
      </trkpt>
      <trkpt lat="43.32862" lon="5.69036">
        <ele>755</ele>
        <time>2019-01-18T11:59:39.000Z</time>
      </trkpt>
      <trkpt lat="43.32862" lon="5.69036">
        <ele>755</ele>
        <time>2019-01-18T11:59:40.000Z</time>
      </trkpt>
      <trkpt lat="43.32862" lon="5.69036">
        <ele>755</ele>
        <time>2019-01-18T11:59:41.000Z</time>
      </trkpt>
      <trkpt lat="43.32862" lon="5.69037">
        <ele>755</ele>
        <time>2019-01-18T11:59:42.000Z</time>
      </trkpt>
      <trkpt lat="43.32861" lon="5.69036">
        <ele>755</ele>
        <time>2019-01-18T11:59:43.000Z</time>
      </trkpt>
      <trkpt lat="43.32861" lon="5.69036">
        <ele>755</ele>
        <time>2019-01-18T11:59:44.000Z</time>
      </trkpt>
      <trkpt lat="43.32861" lon="5.69036">
        <ele>755</ele>
        <time>2019-01-18T11:59:45.000Z</time>
      </trkpt>
      <trkpt lat="43.32861" lon="5.69036">
        <ele>755</ele>
        <time>2019-01-18T11:59:46.000Z</time>
      </trkpt>
      <trkpt lat="43.3286" lon="5.69036">
        <ele>756</ele>
        <time>2019-01-18T11:59:47.000Z</time>
      </trkpt>
      <trkpt lat="43.3286" lon="5.69036">
        <ele>756</ele>
        <time>2019-01-18T11:59:48.000Z</time>
      </trkpt>
      <trkpt lat="43.32859" lon="5.69036">
        <ele>756</ele>
        <time>2019-01-18T11:59:49.000Z</time>
      </trkpt>
      <trkpt lat="43.32859" lon="5.69036">
        <ele>756</ele>
        <time>2019-01-18T11:59:50.000Z</time>
      </trkpt>
      <trkpt lat="43.32858" lon="5.69035">
        <ele>756</ele>
        <time>2019-01-18T11:59:51.000Z</time>
      </trkpt>
      <trkpt lat="43.32858" lon="5.69035">
        <ele>757</ele>
        <time>2019-01-18T11:59:52.000Z</time>
      </trkpt>
      <trkpt lat="43.32858" lon="5.69035">
        <ele>757</ele>
        <time>2019-01-18T11:59:53.000Z</time>
      </trkpt>
      <trkpt lat="43.32857" lon="5.69035">
        <ele>757</ele>
        <time>2019-01-18T11:59:54.000Z</time>
      </trkpt>
      <trkpt lat="43.32857" lon="5.69035">
        <ele>757</ele>
        <time>2019-01-18T11:59:55.000Z</time>
      </trkpt>
      <trkpt lat="43.32856" lon="5.69035">
        <ele>757</ele>
        <time>2019-01-18T11:59:56.000Z</time>
      </trkpt>
      <trkpt lat="43.32856" lon="5.69035">
        <ele>757</ele>
        <time>2019-01-18T11:59:57.000Z</time>
      </trkpt>
      <trkpt lat="43.32855" lon="5.69035">
        <ele>757</ele>
        <time>2019-01-18T11:59:58.000Z</time>
      </trkpt>
      <trkpt lat="43.32855" lon="5.69036">
        <ele>758</ele>
        <time>2019-01-18T11:59:59.000Z</time>
      </trkpt>
      <trkpt lat="43.32854" lon="5.69036">
        <ele>758</ele>
        <time>2019-01-18T12:00:00.000Z</time>
      </trkpt>
      <trkpt lat="43.32854" lon="5.69036">
        <ele>758</ele>
        <time>2019-01-18T12:00:01.000Z</time>
      </trkpt>
      <trkpt lat="43.32853" lon="5.69036">
        <ele>758</ele>
        <time>2019-01-18T12:00:02.000Z</time>
      </trkpt>
      <trkpt lat="43.32852" lon="5.69036">
        <ele>758</ele>
        <time>2019-01-18T12:00:03.000Z</time>
      </trkpt>
      <trkpt lat="43.32852" lon="5.69036">
        <ele>759</ele>
        <time>2019-01-18T12:00:04.000Z</time>
      </trkpt>
      <trkpt lat="43.32851" lon="5.69036">
        <ele>759</ele>
        <time>2019-01-18T12:00:05.000Z</time>
      </trkpt>
      <trkpt lat="43.32851" lon="5.69036">
        <ele>759</ele>
        <time>2019-01-18T12:00:06.000Z</time>
      </trkpt>
      <trkpt lat="43.3285" lon="5.69036">
        <ele>759</ele>
        <time>2019-01-18T12:00:07.000Z</time>
      </trkpt>
      <trkpt lat="43.3285" lon="5.69036">
        <ele>759</ele>
        <time>2019-01-18T12:00:08.000Z</time>
      </trkpt>
      <trkpt lat="43.32849" lon="5.69035">
        <ele>759</ele>
        <time>2019-01-18T12:00:09.000Z</time>
      </trkpt>
      <trkpt lat="43.32849" lon="5.69035">
        <ele>760</ele>
        <time>2019-01-18T12:00:10.000Z</time>
      </trkpt>
      <trkpt lat="43.32849" lon="5.69035">
        <ele>760</ele>
        <time>2019-01-18T12:00:11.000Z</time>
      </trkpt>
      <trkpt lat="43.32848" lon="5.69036">
        <ele>760</ele>
        <time>2019-01-18T12:00:12.000Z</time>
      </trkpt>
      <trkpt lat="43.32848" lon="5.69036">
        <ele>760</ele>
        <time>2019-01-18T12:00:13.000Z</time>
      </trkpt>
      <trkpt lat="43.32847" lon="5.69036">
        <ele>760</ele>
        <time>2019-01-18T12:00:14.000Z</time>
      </trkpt>
      <trkpt lat="43.32847" lon="5.69036">
        <ele>760</ele>
        <time>2019-01-18T12:00:15.000Z</time>
      </trkpt>
      <trkpt lat="43.32846" lon="5.69036">
        <ele>761</ele>
        <time>2019-01-18T12:00:16.000Z</time>
      </trkpt>
      <trkpt lat="43.32846" lon="5.69036">
        <ele>761</ele>
        <time>2019-01-18T12:00:17.000Z</time>
      </trkpt>
      <trkpt lat="43.32845" lon="5.69036">
        <ele>761</ele>
        <time>2019-01-18T12:00:18.000Z</time>
      </trkpt>
      <trkpt lat="43.32845" lon="5.69036">
        <ele>761</ele>
        <time>2019-01-18T12:00:19.000Z</time>
      </trkpt>
      <trkpt lat="43.32845" lon="5.69036">
        <ele>761</ele>
        <time>2019-01-18T12:00:20.000Z</time>
      </trkpt>
      <trkpt lat="43.32844" lon="5.69036">
        <ele>761</ele>
        <time>2019-01-18T12:00:21.000Z</time>
      </trkpt>
      <trkpt lat="43.32844" lon="5.69036">
        <ele>761</ele>
        <time>2019-01-18T12:00:22.000Z</time>
      </trkpt>
      <trkpt lat="43.32844" lon="5.69036">
        <ele>761</ele>
        <time>2019-01-18T12:00:23.000Z</time>
      </trkpt>
      <trkpt lat="43.32844" lon="5.69036">
        <ele>761</ele>
        <time>2019-01-18T12:00:24.000Z</time>
      </trkpt>
      <trkpt lat="43.32844" lon="5.69036">
        <ele>761</ele>
        <time>2019-01-18T12:00:25.000Z</time>
      </trkpt>
      <trkpt lat="43.32844" lon="5.69036">
        <ele>761</ele>
        <time>2019-01-18T12:00:26.000Z</time>
      </trkpt>
      <trkpt lat="43.32844" lon="5.69036">
        <ele>761</ele>
        <time>2019-01-18T12:00:27.000Z</time>
      </trkpt>
      <trkpt lat="43.32844" lon="5.69036">
        <ele>761</ele>
        <time>2019-01-18T12:00:28.000Z</time>
      </trkpt>
      <trkpt lat="43.32844" lon="5.69036">
        <ele>761</ele>
        <time>2019-01-18T12:00:29.000Z</time>
      </trkpt>
      <trkpt lat="43.32844" lon="5.69036">
        <ele>761</ele>
        <time>2019-01-18T12:00:30.000Z</time>
      </trkpt>
      <trkpt lat="43.32844" lon="5.69036">
        <ele>761</ele>
        <time>2019-01-18T12:00:31.000Z</time>
      </trkpt>
      <trkpt lat="43.32844" lon="5.69036">
        <ele>761</ele>
        <time>2019-01-18T12:00:32.000Z</time>
      </trkpt>
      <trkpt lat="43.32844" lon="5.69036">
        <ele>761</ele>
        <time>2019-01-18T12:00:33.000Z</time>
      </trkpt>
      <trkpt lat="43.32844" lon="5.69036">
        <ele>761</ele>
        <time>2019-01-18T12:00:34.000Z</time>
      </trkpt>
      <trkpt lat="43.32844" lon="5.69036">
        <ele>761</ele>
        <time>2019-01-18T12:00:35.000Z</time>
      </trkpt>
      <trkpt lat="43.32844" lon="5.69036">
        <ele>761</ele>
        <time>2019-01-18T12:00:36.000Z</time>
      </trkpt>
      <trkpt lat="43.32844" lon="5.69036">
        <ele>761</ele>
        <time>2019-01-18T12:00:37.000Z</time>
      </trkpt>
      <trkpt lat="43.32844" lon="5.69036">
        <ele>761</ele>
        <time>2019-01-18T12:00:38.000Z</time>
      </trkpt>
      <trkpt lat="43.32844" lon="5.69036">
        <ele>761</ele>
        <time>2019-01-18T12:00:39.000Z</time>
      </trkpt>
      <trkpt lat="43.32844" lon="5.69036">
        <ele>761</ele>
        <time>2019-01-18T12:00:40.000Z</time>
      </trkpt>
      <trkpt lat="43.32844" lon="5.69036">
        <ele>761</ele>
        <time>2019-01-18T12:00:41.000Z</time>
      </trkpt>
      <trkpt lat="43.32844" lon="5.69036">
        <ele>761</ele>
        <time>2019-01-18T12:00:42.000Z</time>
      </trkpt>
      <trkpt lat="43.32844" lon="5.69036">
        <ele>761</ele>
        <time>2019-01-18T12:00:43.000Z</time>
      </trkpt>
      <trkpt lat="43.32844" lon="5.69036">
        <ele>761</ele>
        <time>2019-01-18T12:00:44.000Z</time>
      </trkpt>
      <trkpt lat="43.32844" lon="5.69036">
        <ele>761</ele>
        <time>2019-01-18T12:00:45.000Z</time>
      </trkpt>
      <trkpt lat="43.32844" lon="5.69036">
        <ele>762</ele>
        <time>2019-01-18T12:00:46.000Z</time>
      </trkpt>
      <trkpt lat="43.32843" lon="5.69036">
        <ele>762</ele>
        <time>2019-01-18T12:00:47.000Z</time>
      </trkpt>
      <trkpt lat="43.32843" lon="5.69037">
        <ele>762</ele>
        <time>2019-01-18T12:00:48.000Z</time>
      </trkpt>
      <trkpt lat="43.32842" lon="5.69037">
        <ele>762</ele>
        <time>2019-01-18T12:00:49.000Z</time>
      </trkpt>
      <trkpt lat="43.32842" lon="5.69037">
        <ele>762</ele>
        <time>2019-01-18T12:00:50.000Z</time>
      </trkpt>
      <trkpt lat="43.32841" lon="5.69038">
        <ele>762</ele>
        <time>2019-01-18T12:00:51.000Z</time>
      </trkpt>
      <trkpt lat="43.32841" lon="5.69038">
        <ele>762</ele>
        <time>2019-01-18T12:00:52.000Z</time>
      </trkpt>
      <trkpt lat="43.3284" lon="5.69038">
        <ele>763</ele>
        <time>2019-01-18T12:00:53.000Z</time>
      </trkpt>
      <trkpt lat="43.3284" lon="5.69038">
        <ele>763</ele>
        <time>2019-01-18T12:00:54.000Z</time>
      </trkpt>
      <trkpt lat="43.32839" lon="5.69038">
        <ele>763</ele>
        <time>2019-01-18T12:00:55.000Z</time>
      </trkpt>
      <trkpt lat="43.32839" lon="5.69037">
        <ele>763</ele>
        <time>2019-01-18T12:00:56.000Z</time>
      </trkpt>
      <trkpt lat="43.32839" lon="5.69036">
        <ele>763</ele>
        <time>2019-01-18T12:00:57.000Z</time>
      </trkpt>
      <trkpt lat="43.32839" lon="5.69035">
        <ele>763</ele>
        <time>2019-01-18T12:00:58.000Z</time>
      </trkpt>
      <trkpt lat="43.32839" lon="5.69035">
        <ele>763</ele>
        <time>2019-01-18T12:00:59.000Z</time>
      </trkpt>
      <trkpt lat="43.32838" lon="5.69034">
        <ele>763</ele>
        <time>2019-01-18T12:01:00.000Z</time>
      </trkpt>
      <trkpt lat="43.32838" lon="5.69033">
        <ele>764</ele>
        <time>2019-01-18T12:01:01.000Z</time>
      </trkpt>
      <trkpt lat="43.32837" lon="5.69033">
        <ele>764</ele>
        <time>2019-01-18T12:01:02.000Z</time>
      </trkpt>
      <trkpt lat="43.32837" lon="5.69032">
        <ele>764</ele>
        <time>2019-01-18T12:01:03.000Z</time>
      </trkpt>
      <trkpt lat="43.32836" lon="5.69032">
        <ele>764</ele>
        <time>2019-01-18T12:01:04.000Z</time>
      </trkpt>
      <trkpt lat="43.32836" lon="5.69032">
        <ele>764</ele>
        <time>2019-01-18T12:01:05.000Z</time>
      </trkpt>
      <trkpt lat="43.32835" lon="5.69031">
        <ele>765</ele>
        <time>2019-01-18T12:01:06.000Z</time>
      </trkpt>
      <trkpt lat="43.32835" lon="5.6903">
        <ele>765</ele>
        <time>2019-01-18T12:01:07.000Z</time>
      </trkpt>
      <trkpt lat="43.32834" lon="5.6903">
        <ele>765</ele>
        <time>2019-01-18T12:01:08.000Z</time>
      </trkpt>
      <trkpt lat="43.32834" lon="5.6903">
        <ele>765</ele>
        <time>2019-01-18T12:01:09.000Z</time>
      </trkpt>
      <trkpt lat="43.32833" lon="5.69029">
        <ele>765</ele>
        <time>2019-01-18T12:01:10.000Z</time>
      </trkpt>
      <trkpt lat="43.32832" lon="5.69029">
        <ele>766</ele>
        <time>2019-01-18T12:01:11.000Z</time>
      </trkpt>
      <trkpt lat="43.32832" lon="5.69029">
        <ele>766</ele>
        <time>2019-01-18T12:01:12.000Z</time>
      </trkpt>
      <trkpt lat="43.32831" lon="5.69028">
        <ele>766</ele>
        <time>2019-01-18T12:01:13.000Z</time>
      </trkpt>
      <trkpt lat="43.32831" lon="5.69028">
        <ele>766</ele>
        <time>2019-01-18T12:01:14.000Z</time>
      </trkpt>
      <trkpt lat="43.3283" lon="5.69028">
        <ele>767</ele>
        <time>2019-01-18T12:01:15.000Z</time>
      </trkpt>
      <trkpt lat="43.3283" lon="5.69028">
        <ele>767</ele>
        <time>2019-01-18T12:01:16.000Z</time>
      </trkpt>
      <trkpt lat="43.32829" lon="5.69028">
        <ele>767</ele>
        <time>2019-01-18T12:01:17.000Z</time>
      </trkpt>
      <trkpt lat="43.32829" lon="5.69027">
        <ele>767</ele>
        <time>2019-01-18T12:01:18.000Z</time>
      </trkpt>
      <trkpt lat="43.32828" lon="5.69027">
        <ele>768</ele>
        <time>2019-01-18T12:01:19.000Z</time>
      </trkpt>
      <trkpt lat="43.32828" lon="5.69027">
        <ele>768</ele>
        <time>2019-01-18T12:01:20.000Z</time>
      </trkpt>
      <trkpt lat="43.32827" lon="5.69027">
        <ele>768</ele>
        <time>2019-01-18T12:01:21.000Z</time>
      </trkpt>
      <trkpt lat="43.32827" lon="5.69027">
        <ele>768</ele>
        <time>2019-01-18T12:01:22.000Z</time>
      </trkpt>
      <trkpt lat="43.32826" lon="5.69026">
        <ele>768</ele>
        <time>2019-01-18T12:01:23.000Z</time>
      </trkpt>
      <trkpt lat="43.32826" lon="5.69026">
        <ele>768</ele>
        <time>2019-01-18T12:01:24.000Z</time>
      </trkpt>
      <trkpt lat="43.32826" lon="5.69025">
        <ele>769</ele>
        <time>2019-01-18T12:01:25.000Z</time>
      </trkpt>
      <trkpt lat="43.32825" lon="5.69025">
        <ele>769</ele>
        <time>2019-01-18T12:01:26.000Z</time>
      </trkpt>
      <trkpt lat="43.32825" lon="5.69024">
        <ele>769</ele>
        <time>2019-01-18T12:01:27.000Z</time>
      </trkpt>
      <trkpt lat="43.32824" lon="5.69024">
        <ele>769</ele>
        <time>2019-01-18T12:01:28.000Z</time>
      </trkpt>
      <trkpt lat="43.32824" lon="5.69023">
        <ele>770</ele>
        <time>2019-01-18T12:01:29.000Z</time>
      </trkpt>
      <trkpt lat="43.32824" lon="5.69023">
        <ele>770</ele>
        <time>2019-01-18T12:01:30.000Z</time>
      </trkpt>
      <trkpt lat="43.32824" lon="5.69023">
        <ele>770</ele>
        <time>2019-01-18T12:01:31.000Z</time>
      </trkpt>
      <trkpt lat="43.32824" lon="5.69023">
        <ele>770</ele>
        <time>2019-01-18T12:01:32.000Z</time>
      </trkpt>
      <trkpt lat="43.32824" lon="5.69023">
        <ele>770</ele>
        <time>2019-01-18T12:01:33.000Z</time>
      </trkpt>
      <trkpt lat="43.32824" lon="5.69023">
        <ele>770</ele>
        <time>2019-01-18T12:01:34.000Z</time>
      </trkpt>
      <trkpt lat="43.32824" lon="5.69024">
        <ele>770</ele>
        <time>2019-01-18T12:01:35.000Z</time>
      </trkpt>
      <trkpt lat="43.32824" lon="5.69024">
        <ele>770</ele>
        <time>2019-01-18T12:01:36.000Z</time>
      </trkpt>
      <trkpt lat="43.32824" lon="5.69024">
        <ele>770</ele>
        <time>2019-01-18T12:01:37.000Z</time>
      </trkpt>
      <trkpt lat="43.32824" lon="5.69024">
        <ele>770</ele>
        <time>2019-01-18T12:01:38.000Z</time>
      </trkpt>
      <trkpt lat="43.32824" lon="5.69024">
        <ele>770</ele>
        <time>2019-01-18T12:01:39.000Z</time>
      </trkpt>
      <trkpt lat="43.32824" lon="5.69024">
        <ele>770</ele>
        <time>2019-01-18T12:01:40.000Z</time>
      </trkpt>
      <trkpt lat="43.32824" lon="5.69024">
        <ele>770</ele>
        <time>2019-01-18T12:01:41.000Z</time>
      </trkpt>
      <trkpt lat="43.32824" lon="5.69024">
        <ele>770</ele>
        <time>2019-01-18T12:01:42.000Z</time>
      </trkpt>
      <trkpt lat="43.32824" lon="5.69024">
        <ele>770</ele>
        <time>2019-01-18T12:01:43.000Z</time>
      </trkpt>
      <trkpt lat="43.32824" lon="5.69024">
        <ele>770</ele>
        <time>2019-01-18T12:01:44.000Z</time>
      </trkpt>
      <trkpt lat="43.32824" lon="5.69024">
        <ele>770</ele>
        <time>2019-01-18T12:01:45.000Z</time>
      </trkpt>
      <trkpt lat="43.32824" lon="5.69024">
        <ele>770</ele>
        <time>2019-01-18T12:01:46.000Z</time>
      </trkpt>
      <trkpt lat="43.32824" lon="5.69024">
        <ele>770</ele>
        <time>2019-01-18T12:01:47.000Z</time>
      </trkpt>
      <trkpt lat="43.32824" lon="5.69024">
        <ele>770</ele>
        <time>2019-01-18T12:01:48.000Z</time>
      </trkpt>
      <trkpt lat="43.32824" lon="5.69024">
        <ele>770</ele>
        <time>2019-01-18T12:01:49.000Z</time>
      </trkpt>
      <trkpt lat="43.32824" lon="5.69024">
        <ele>770</ele>
        <time>2019-01-18T12:01:50.000Z</time>
      </trkpt>
      <trkpt lat="43.32824" lon="5.69024">
        <ele>770</ele>
        <time>2019-01-18T12:01:51.000Z</time>
      </trkpt>
      <trkpt lat="43.32824" lon="5.69024">
        <ele>770</ele>
        <time>2019-01-18T12:01:52.000Z</time>
      </trkpt>
      <trkpt lat="43.32824" lon="5.69024">
        <ele>770</ele>
        <time>2019-01-18T12:01:53.000Z</time>
      </trkpt>
      <trkpt lat="43.32824" lon="5.69024">
        <ele>770</ele>
        <time>2019-01-18T12:01:54.000Z</time>
      </trkpt>
      <trkpt lat="43.32824" lon="5.69024">
        <ele>770</ele>
        <time>2019-01-18T12:01:55.000Z</time>
      </trkpt>
      <trkpt lat="43.32824" lon="5.69024">
        <ele>770</ele>
        <time>2019-01-18T12:01:56.000Z</time>
      </trkpt>
      <trkpt lat="43.32824" lon="5.69024">
        <ele>770</ele>
        <time>2019-01-18T12:01:57.000Z</time>
      </trkpt>
      <trkpt lat="43.32824" lon="5.69024">
        <ele>770</ele>
        <time>2019-01-18T12:01:58.000Z</time>
      </trkpt>
      <trkpt lat="43.32824" lon="5.69024">
        <ele>770</ele>
        <time>2019-01-18T12:01:59.000Z</time>
      </trkpt>
      <trkpt lat="43.32823" lon="5.69024">
        <ele>770</ele>
        <time>2019-01-18T12:02:00.000Z</time>
      </trkpt>
      <trkpt lat="43.32823" lon="5.69024">
        <ele>770</ele>
        <time>2019-01-18T12:02:01.000Z</time>
      </trkpt>
      <trkpt lat="43.32823" lon="5.69024">
        <ele>770</ele>
        <time>2019-01-18T12:02:02.000Z</time>
      </trkpt>
      <trkpt lat="43.32823" lon="5.69024">
        <ele>770</ele>
        <time>2019-01-18T12:02:03.000Z</time>
      </trkpt>
      <trkpt lat="43.32823" lon="5.69024">
        <ele>770</ele>
        <time>2019-01-18T12:02:04.000Z</time>
      </trkpt>
      <trkpt lat="43.32823" lon="5.69024">
        <ele>770</ele>
        <time>2019-01-18T12:02:05.000Z</time>
      </trkpt>
      <trkpt lat="43.32823" lon="5.69024">
        <ele>770</ele>
        <time>2019-01-18T12:02:06.000Z</time>
      </trkpt>
      <trkpt lat="43.32823" lon="5.69024">
        <ele>770</ele>
        <time>2019-01-18T12:02:07.000Z</time>
      </trkpt>
      <trkpt lat="43.32823" lon="5.69024">
        <ele>770</ele>
        <time>2019-01-18T12:02:08.000Z</time>
      </trkpt>
      <trkpt lat="43.32823" lon="5.69024">
        <ele>770</ele>
        <time>2019-01-18T12:02:09.000Z</time>
      </trkpt>
      <trkpt lat="43.32823" lon="5.69023">
        <ele>770</ele>
        <time>2019-01-18T12:02:10.000Z</time>
      </trkpt>
      <trkpt lat="43.32822" lon="5.69023">
        <ele>770</ele>
        <time>2019-01-18T12:02:11.000Z</time>
      </trkpt>
      <trkpt lat="43.32822" lon="5.69023">
        <ele>770</ele>
        <time>2019-01-18T12:02:12.000Z</time>
      </trkpt>
      <trkpt lat="43.32821" lon="5.69022">
        <ele>770</ele>
        <time>2019-01-18T12:02:13.000Z</time>
      </trkpt>
      <trkpt lat="43.32821" lon="5.69022">
        <ele>771</ele>
        <time>2019-01-18T12:02:14.000Z</time>
      </trkpt>
      <trkpt lat="43.32821" lon="5.69021">
        <ele>771</ele>
        <time>2019-01-18T12:02:15.000Z</time>
      </trkpt>
      <trkpt lat="43.3282" lon="5.69021">
        <ele>771</ele>
        <time>2019-01-18T12:02:16.000Z</time>
      </trkpt>
      <trkpt lat="43.3282" lon="5.6902">
        <ele>771</ele>
        <time>2019-01-18T12:02:17.000Z</time>
      </trkpt>
      <trkpt lat="43.32819" lon="5.6902">
        <ele>771</ele>
        <time>2019-01-18T12:02:18.000Z</time>
      </trkpt>
      <trkpt lat="43.32819" lon="5.69019">
        <ele>771</ele>
        <time>2019-01-18T12:02:19.000Z</time>
      </trkpt>
      <trkpt lat="43.32818" lon="5.69019">
        <ele>771</ele>
        <time>2019-01-18T12:02:20.000Z</time>
      </trkpt>
      <trkpt lat="43.32818" lon="5.69019">
        <ele>771</ele>
        <time>2019-01-18T12:02:21.000Z</time>
      </trkpt>
      <trkpt lat="43.32817" lon="5.69019">
        <ele>771</ele>
        <time>2019-01-18T12:02:22.000Z</time>
      </trkpt>
      <trkpt lat="43.32817" lon="5.69019">
        <ele>771</ele>
        <time>2019-01-18T12:02:23.000Z</time>
      </trkpt>
      <trkpt lat="43.32816" lon="5.69019">
        <ele>771</ele>
        <time>2019-01-18T12:02:24.000Z</time>
      </trkpt>
      <trkpt lat="43.32816" lon="5.69019">
        <ele>772</ele>
        <time>2019-01-18T12:02:25.000Z</time>
      </trkpt>
      <trkpt lat="43.32815" lon="5.69018">
        <ele>772</ele>
        <time>2019-01-18T12:02:26.000Z</time>
      </trkpt>
      <trkpt lat="43.32815" lon="5.69018">
        <ele>772</ele>
        <time>2019-01-18T12:02:27.000Z</time>
      </trkpt>
      <trkpt lat="43.32815" lon="5.69018">
        <ele>772</ele>
        <time>2019-01-18T12:02:28.000Z</time>
      </trkpt>
      <trkpt lat="43.32814" lon="5.69018">
        <ele>772</ele>
        <time>2019-01-18T12:02:29.000Z</time>
      </trkpt>
      <trkpt lat="43.32814" lon="5.69018">
        <ele>773</ele>
        <time>2019-01-18T12:02:30.000Z</time>
      </trkpt>
      <trkpt lat="43.32813" lon="5.69018">
        <ele>773</ele>
        <time>2019-01-18T12:02:31.000Z</time>
      </trkpt>
      <trkpt lat="43.32813" lon="5.69018">
        <ele>773</ele>
        <time>2019-01-18T12:02:32.000Z</time>
      </trkpt>
      <trkpt lat="43.32813" lon="5.69018">
        <ele>773</ele>
        <time>2019-01-18T12:02:33.000Z</time>
      </trkpt>
      <trkpt lat="43.32813" lon="5.69017">
        <ele>773</ele>
        <time>2019-01-18T12:02:34.000Z</time>
      </trkpt>
      <trkpt lat="43.32812" lon="5.69017">
        <ele>773</ele>
        <time>2019-01-18T12:02:35.000Z</time>
      </trkpt>
      <trkpt lat="43.32812" lon="5.69017">
        <ele>774</ele>
        <time>2019-01-18T12:02:36.000Z</time>
      </trkpt>
      <trkpt lat="43.32811" lon="5.69017">
        <ele>774</ele>
        <time>2019-01-18T12:02:37.000Z</time>
      </trkpt>
      <trkpt lat="43.32811" lon="5.69018">
        <ele>774</ele>
        <time>2019-01-18T12:02:38.000Z</time>
      </trkpt>
      <trkpt lat="43.32811" lon="5.69018">
        <ele>774</ele>
        <time>2019-01-18T12:02:39.000Z</time>
      </trkpt>
      <trkpt lat="43.3281" lon="5.69018">
        <ele>774</ele>
        <time>2019-01-18T12:02:40.000Z</time>
      </trkpt>
      <trkpt lat="43.3281" lon="5.69018">
        <ele>775</ele>
        <time>2019-01-18T12:02:41.000Z</time>
      </trkpt>
      <trkpt lat="43.32809" lon="5.69018">
        <ele>775</ele>
        <time>2019-01-18T12:02:42.000Z</time>
      </trkpt>
      <trkpt lat="43.32809" lon="5.69017">
        <ele>775</ele>
        <time>2019-01-18T12:02:43.000Z</time>
      </trkpt>
      <trkpt lat="43.32809" lon="5.69017">
        <ele>775</ele>
        <time>2019-01-18T12:02:44.000Z</time>
      </trkpt>
      <trkpt lat="43.32809" lon="5.69017">
        <ele>775</ele>
        <time>2019-01-18T12:02:45.000Z</time>
      </trkpt>
      <trkpt lat="43.32808" lon="5.69017">
        <ele>775</ele>
        <time>2019-01-18T12:02:46.000Z</time>
      </trkpt>
      <trkpt lat="43.32808" lon="5.69017">
        <ele>775</ele>
        <time>2019-01-18T12:02:47.000Z</time>
      </trkpt>
      <trkpt lat="43.32808" lon="5.69017">
        <ele>776</ele>
        <time>2019-01-18T12:02:48.000Z</time>
      </trkpt>
      <trkpt lat="43.32808" lon="5.69017">
        <ele>776</ele>
        <time>2019-01-18T12:02:49.000Z</time>
      </trkpt>
      <trkpt lat="43.32808" lon="5.69017">
        <ele>776</ele>
        <time>2019-01-18T12:02:50.000Z</time>
      </trkpt>
      <trkpt lat="43.32808" lon="5.69017">
        <ele>776</ele>
        <time>2019-01-18T12:02:51.000Z</time>
      </trkpt>
      <trkpt lat="43.32808" lon="5.69017">
        <ele>776</ele>
        <time>2019-01-18T12:02:52.000Z</time>
      </trkpt>
      <trkpt lat="43.32808" lon="5.69017">
        <ele>776</ele>
        <time>2019-01-18T12:02:53.000Z</time>
      </trkpt>
      <trkpt lat="43.32808" lon="5.69017">
        <ele>776</ele>
        <time>2019-01-18T12:02:54.000Z</time>
      </trkpt>
      <trkpt lat="43.32808" lon="5.69017">
        <ele>777</ele>
        <time>2019-01-18T12:02:55.000Z</time>
      </trkpt>
      <trkpt lat="43.32808" lon="5.69017">
        <ele>777</ele>
        <time>2019-01-18T12:02:56.000Z</time>
      </trkpt>
      <trkpt lat="43.32808" lon="5.69017">
        <ele>777</ele>
        <time>2019-01-18T12:02:57.000Z</time>
      </trkpt>
      <trkpt lat="43.32808" lon="5.69017">
        <ele>777</ele>
        <time>2019-01-18T12:02:58.000Z</time>
      </trkpt>
      <trkpt lat="43.32808" lon="5.69017">
        <ele>777</ele>
        <time>2019-01-18T12:02:59.000Z</time>
      </trkpt>
      <trkpt lat="43.32808" lon="5.69017">
        <ele>777</ele>
        <time>2019-01-18T12:03:00.000Z</time>
      </trkpt>
      <trkpt lat="43.32808" lon="5.69017">
        <ele>777</ele>
        <time>2019-01-18T12:03:01.000Z</time>
      </trkpt>
      <trkpt lat="43.32808" lon="5.69017">
        <ele>777</ele>
        <time>2019-01-18T12:03:02.000Z</time>
      </trkpt>
      <trkpt lat="43.32808" lon="5.69017">
        <ele>777</ele>
        <time>2019-01-18T12:03:03.000Z</time>
      </trkpt>
      <trkpt lat="43.32808" lon="5.69017">
        <ele>777</ele>
        <time>2019-01-18T12:03:04.000Z</time>
      </trkpt>
      <trkpt lat="43.32808" lon="5.69017">
        <ele>777</ele>
        <time>2019-01-18T12:03:05.000Z</time>
      </trkpt>
      <trkpt lat="43.32808" lon="5.69017">
        <ele>777</ele>
        <time>2019-01-18T12:03:06.000Z</time>
      </trkpt>
      <trkpt lat="43.32808" lon="5.69017">
        <ele>777</ele>
        <time>2019-01-18T12:03:07.000Z</time>
      </trkpt>
      <trkpt lat="43.32808" lon="5.69017">
        <ele>777</ele>
        <time>2019-01-18T12:03:08.000Z</time>
      </trkpt>
      <trkpt lat="43.32808" lon="5.69017">
        <ele>777</ele>
        <time>2019-01-18T12:03:09.000Z</time>
      </trkpt>
      <trkpt lat="43.32808" lon="5.69017">
        <ele>777</ele>
        <time>2019-01-18T12:03:10.000Z</time>
      </trkpt>
      <trkpt lat="43.32808" lon="5.69017">
        <ele>777</ele>
        <time>2019-01-18T12:03:11.000Z</time>
      </trkpt>
      <trkpt lat="43.32808" lon="5.69017">
        <ele>777</ele>
        <time>2019-01-18T12:03:12.000Z</time>
      </trkpt>
      <trkpt lat="43.32808" lon="5.69017">
        <ele>777</ele>
        <time>2019-01-18T12:03:13.000Z</time>
      </trkpt>
      <trkpt lat="43.32808" lon="5.69017">
        <ele>777</ele>
        <time>2019-01-18T12:03:14.000Z</time>
      </trkpt>
      <trkpt lat="43.32808" lon="5.69017">
        <ele>777</ele>
        <time>2019-01-18T12:03:15.000Z</time>
      </trkpt>
      <trkpt lat="43.32807" lon="5.69016">
        <ele>777</ele>
        <time>2019-01-18T12:03:16.000Z</time>
      </trkpt>
      <trkpt lat="43.32807" lon="5.69016">
        <ele>777</ele>
        <time>2019-01-18T12:03:17.000Z</time>
      </trkpt>
      <trkpt lat="43.32807" lon="5.69016">
        <ele>778</ele>
        <time>2019-01-18T12:03:18.000Z</time>
      </trkpt>
      <trkpt lat="43.32807" lon="5.69016">
        <ele>778</ele>
        <time>2019-01-18T12:03:19.000Z</time>
      </trkpt>
      <trkpt lat="43.32807" lon="5.69016">
        <ele>778</ele>
        <time>2019-01-18T12:03:20.000Z</time>
      </trkpt>
      <trkpt lat="43.32807" lon="5.69016">
        <ele>778</ele>
        <time>2019-01-18T12:03:21.000Z</time>
      </trkpt>
      <trkpt lat="43.32807" lon="5.69016">
        <ele>778</ele>
        <time>2019-01-18T12:03:22.000Z</time>
      </trkpt>
      <trkpt lat="43.32807" lon="5.69016">
        <ele>778</ele>
        <time>2019-01-18T12:03:23.000Z</time>
      </trkpt>
      <trkpt lat="43.32807" lon="5.69016">
        <ele>778</ele>
        <time>2019-01-18T12:03:24.000Z</time>
      </trkpt>
      <trkpt lat="43.32807" lon="5.69016">
        <ele>778</ele>
        <time>2019-01-18T12:03:25.000Z</time>
      </trkpt>
      <trkpt lat="43.32807" lon="5.69016">
        <ele>778</ele>
        <time>2019-01-18T12:03:26.000Z</time>
      </trkpt>
      <trkpt lat="43.32807" lon="5.69016">
        <ele>778</ele>
        <time>2019-01-18T12:03:27.000Z</time>
      </trkpt>
      <trkpt lat="43.32807" lon="5.69016">
        <ele>778</ele>
        <time>2019-01-18T12:03:28.000Z</time>
      </trkpt>
      <trkpt lat="43.32807" lon="5.69016">
        <ele>778</ele>
        <time>2019-01-18T12:03:29.000Z</time>
      </trkpt>
      <trkpt lat="43.32807" lon="5.69016">
        <ele>778</ele>
        <time>2019-01-18T12:03:30.000Z</time>
      </trkpt>
      <trkpt lat="43.32807" lon="5.69016">
        <ele>778</ele>
        <time>2019-01-18T12:03:31.000Z</time>
      </trkpt>
      <trkpt lat="43.32807" lon="5.69016">
        <ele>778</ele>
        <time>2019-01-18T12:03:32.000Z</time>
      </trkpt>
      <trkpt lat="43.32807" lon="5.69016">
        <ele>778</ele>
        <time>2019-01-18T12:03:33.000Z</time>
      </trkpt>
      <trkpt lat="43.32807" lon="5.69016">
        <ele>778</ele>
        <time>2019-01-18T12:03:34.000Z</time>
      </trkpt>
      <trkpt lat="43.32807" lon="5.69016">
        <ele>778</ele>
        <time>2019-01-18T12:03:35.000Z</time>
      </trkpt>
      <trkpt lat="43.32807" lon="5.69016">
        <ele>778</ele>
        <time>2019-01-18T12:03:36.000Z</time>
      </trkpt>
      <trkpt lat="43.32807" lon="5.69016">
        <ele>778</ele>
        <time>2019-01-18T12:03:37.000Z</time>
      </trkpt>
      <trkpt lat="43.32807" lon="5.69016">
        <ele>778</ele>
        <time>2019-01-18T12:03:38.000Z</time>
      </trkpt>
      <trkpt lat="43.32807" lon="5.69016">
        <ele>778</ele>
        <time>2019-01-18T12:03:39.000Z</time>
      </trkpt>
      <trkpt lat="43.32807" lon="5.69016">
        <ele>778</ele>
        <time>2019-01-18T12:03:40.000Z</time>
      </trkpt>
      <trkpt lat="43.32807" lon="5.69016">
        <ele>778</ele>
        <time>2019-01-18T12:03:41.000Z</time>
      </trkpt>
      <trkpt lat="43.32807" lon="5.69016">
        <ele>778</ele>
        <time>2019-01-18T12:03:42.000Z</time>
      </trkpt>
      <trkpt lat="43.32807" lon="5.69016">
        <ele>778</ele>
        <time>2019-01-18T12:03:43.000Z</time>
      </trkpt>
      <trkpt lat="43.32807" lon="5.69016">
        <ele>778</ele>
        <time>2019-01-18T12:03:44.000Z</time>
      </trkpt>
      <trkpt lat="43.32807" lon="5.69016">
        <ele>778</ele>
        <time>2019-01-18T12:03:45.000Z</time>
      </trkpt>
      <trkpt lat="43.32807" lon="5.69016">
        <ele>778</ele>
        <time>2019-01-18T12:03:46.000Z</time>
      </trkpt>
      <trkpt lat="43.32807" lon="5.69016">
        <ele>778</ele>
        <time>2019-01-18T12:03:47.000Z</time>
      </trkpt>
      <trkpt lat="43.32807" lon="5.69016">
        <ele>778</ele>
        <time>2019-01-18T12:03:48.000Z</time>
      </trkpt>
      <trkpt lat="43.32807" lon="5.69016">
        <ele>778</ele>
        <time>2019-01-18T12:03:49.000Z</time>
      </trkpt>
      <trkpt lat="43.32807" lon="5.69016">
        <ele>778</ele>
        <time>2019-01-18T12:03:50.000Z</time>
      </trkpt>
      <trkpt lat="43.32807" lon="5.69016">
        <ele>778</ele>
        <time>2019-01-18T12:03:51.000Z</time>
      </trkpt>
      <trkpt lat="43.32807" lon="5.69016">
        <ele>778</ele>
        <time>2019-01-18T12:03:52.000Z</time>
      </trkpt>
      <trkpt lat="43.32807" lon="5.69016">
        <ele>778</ele>
        <time>2019-01-18T12:03:53.000Z</time>
      </trkpt>
      <trkpt lat="43.32807" lon="5.69016">
        <ele>778</ele>
        <time>2019-01-18T12:03:54.000Z</time>
      </trkpt>
      <trkpt lat="43.32807" lon="5.69016">
        <ele>778</ele>
        <time>2019-01-18T12:03:55.000Z</time>
      </trkpt>
      <trkpt lat="43.32807" lon="5.69016">
        <ele>778</ele>
        <time>2019-01-18T12:03:56.000Z</time>
      </trkpt>
      <trkpt lat="43.32807" lon="5.69016">
        <ele>778</ele>
        <time>2019-01-18T12:03:57.000Z</time>
      </trkpt>
      <trkpt lat="43.32807" lon="5.69016">
        <ele>778</ele>
        <time>2019-01-18T12:03:58.000Z</time>
      </trkpt>
      <trkpt lat="43.32807" lon="5.69016">
        <ele>778</ele>
        <time>2019-01-18T12:03:59.000Z</time>
      </trkpt>
      <trkpt lat="43.32806" lon="5.69016">
        <ele>778</ele>
        <time>2019-01-18T12:04:00.000Z</time>
      </trkpt>
      <trkpt lat="43.32806" lon="5.69016">
        <ele>778</ele>
        <time>2019-01-18T12:04:01.000Z</time>
      </trkpt>
      <trkpt lat="43.32805" lon="5.69016">
        <ele>778</ele>
        <time>2019-01-18T12:04:02.000Z</time>
      </trkpt>
      <trkpt lat="43.32805" lon="5.69016">
        <ele>778</ele>
        <time>2019-01-18T12:04:03.000Z</time>
      </trkpt>
      <trkpt lat="43.32805" lon="5.69016">
        <ele>778</ele>
        <time>2019-01-18T12:04:04.000Z</time>
      </trkpt>
      <trkpt lat="43.32805" lon="5.69015">
        <ele>778</ele>
        <time>2019-01-18T12:04:05.000Z</time>
      </trkpt>
      <trkpt lat="43.32804" lon="5.69015">
        <ele>778</ele>
        <time>2019-01-18T12:04:06.000Z</time>
      </trkpt>
      <trkpt lat="43.32804" lon="5.69015">
        <ele>779</ele>
        <time>2019-01-18T12:04:07.000Z</time>
      </trkpt>
      <trkpt lat="43.32804" lon="5.69015">
        <ele>779</ele>
        <time>2019-01-18T12:04:08.000Z</time>
      </trkpt>
      <trkpt lat="43.32803" lon="5.69016">
        <ele>779</ele>
        <time>2019-01-18T12:04:09.000Z</time>
      </trkpt>
      <trkpt lat="43.32803" lon="5.69016">
        <ele>779</ele>
        <time>2019-01-18T12:04:10.000Z</time>
      </trkpt>
      <trkpt lat="43.32803" lon="5.69015">
        <ele>779</ele>
        <time>2019-01-18T12:04:11.000Z</time>
      </trkpt>
      <trkpt lat="43.32802" lon="5.69015">
        <ele>779</ele>
        <time>2019-01-18T12:04:12.000Z</time>
      </trkpt>
      <trkpt lat="43.32802" lon="5.69015">
        <ele>779</ele>
        <time>2019-01-18T12:04:13.000Z</time>
      </trkpt>
      <trkpt lat="43.32802" lon="5.69015">
        <ele>780</ele>
        <time>2019-01-18T12:04:14.000Z</time>
      </trkpt>
      <trkpt lat="43.32802" lon="5.69015">
        <ele>780</ele>
        <time>2019-01-18T12:04:15.000Z</time>
      </trkpt>
      <trkpt lat="43.32801" lon="5.69015">
        <ele>780</ele>
        <time>2019-01-18T12:04:16.000Z</time>
      </trkpt>
      <trkpt lat="43.32801" lon="5.69015">
        <ele>780</ele>
        <time>2019-01-18T12:04:17.000Z</time>
      </trkpt>
      <trkpt lat="43.32801" lon="5.69015">
        <ele>780</ele>
        <time>2019-01-18T12:04:18.000Z</time>
      </trkpt>
      <trkpt lat="43.32801" lon="5.69015">
        <ele>781</ele>
        <time>2019-01-18T12:04:19.000Z</time>
      </trkpt>
      <trkpt lat="43.328" lon="5.69016">
        <ele>781</ele>
        <time>2019-01-18T12:04:20.000Z</time>
      </trkpt>
      <trkpt lat="43.328" lon="5.69016">
        <ele>781</ele>
        <time>2019-01-18T12:04:21.000Z</time>
      </trkpt>
      <trkpt lat="43.328" lon="5.69016">
        <ele>781</ele>
        <time>2019-01-18T12:04:22.000Z</time>
      </trkpt>
      <trkpt lat="43.328" lon="5.69016">
        <ele>781</ele>
        <time>2019-01-18T12:04:23.000Z</time>
      </trkpt>
      <trkpt lat="43.32799" lon="5.69015">
        <ele>781</ele>
        <time>2019-01-18T12:04:24.000Z</time>
      </trkpt>
      <trkpt lat="43.32799" lon="5.69015">
        <ele>781</ele>
        <time>2019-01-18T12:04:25.000Z</time>
      </trkpt>
      <trkpt lat="43.32798" lon="5.69014">
        <ele>782</ele>
        <time>2019-01-18T12:04:26.000Z</time>
      </trkpt>
      <trkpt lat="43.32798" lon="5.69014">
        <ele>782</ele>
        <time>2019-01-18T12:04:27.000Z</time>
      </trkpt>
      <trkpt lat="43.32798" lon="5.69014">
        <ele>782</ele>
        <time>2019-01-18T12:04:28.000Z</time>
      </trkpt>
      <trkpt lat="43.32798" lon="5.69014">
        <ele>782</ele>
        <time>2019-01-18T12:04:29.000Z</time>
      </trkpt>
      <trkpt lat="43.32798" lon="5.69014">
        <ele>782</ele>
        <time>2019-01-18T12:04:30.000Z</time>
      </trkpt>
      <trkpt lat="43.32797" lon="5.69014">
        <ele>782</ele>
        <time>2019-01-18T12:04:31.000Z</time>
      </trkpt>
      <trkpt lat="43.32797" lon="5.69013">
        <ele>782</ele>
        <time>2019-01-18T12:04:32.000Z</time>
      </trkpt>
      <trkpt lat="43.32797" lon="5.69013">
        <ele>783</ele>
        <time>2019-01-18T12:04:33.000Z</time>
      </trkpt>
      <trkpt lat="43.32797" lon="5.69013">
        <ele>783</ele>
        <time>2019-01-18T12:04:34.000Z</time>
      </trkpt>
      <trkpt lat="43.32797" lon="5.69013">
        <ele>783</ele>
        <time>2019-01-18T12:04:35.000Z</time>
      </trkpt>
      <trkpt lat="43.32796" lon="5.69012">
        <ele>783</ele>
        <time>2019-01-18T12:04:36.000Z</time>
      </trkpt>
      <trkpt lat="43.32796" lon="5.69012">
        <ele>783</ele>
        <time>2019-01-18T12:04:37.000Z</time>
      </trkpt>
      <trkpt lat="43.32796" lon="5.69012">
        <ele>783</ele>
        <time>2019-01-18T12:04:38.000Z</time>
      </trkpt>
      <trkpt lat="43.32795" lon="5.69012">
        <ele>783</ele>
        <time>2019-01-18T12:04:39.000Z</time>
      </trkpt>
      <trkpt lat="43.32795" lon="5.69012">
        <ele>783</ele>
        <time>2019-01-18T12:04:40.000Z</time>
      </trkpt>
      <trkpt lat="43.32795" lon="5.69012">
        <ele>783</ele>
        <time>2019-01-18T12:04:41.000Z</time>
      </trkpt>
      <trkpt lat="43.32794" lon="5.69012">
        <ele>783</ele>
        <time>2019-01-18T12:04:42.000Z</time>
      </trkpt>
      <trkpt lat="43.32794" lon="5.69012">
        <ele>783</ele>
        <time>2019-01-18T12:04:43.000Z</time>
      </trkpt>
      <trkpt lat="43.32794" lon="5.69012">
        <ele>783</ele>
        <time>2019-01-18T12:04:44.000Z</time>
      </trkpt>
      <trkpt lat="43.32793" lon="5.69012">
        <ele>784</ele>
        <time>2019-01-18T12:04:45.000Z</time>
      </trkpt>
      <trkpt lat="43.32793" lon="5.69012">
        <ele>784</ele>
        <time>2019-01-18T12:04:46.000Z</time>
      </trkpt>
      <trkpt lat="43.32793" lon="5.69013">
        <ele>784</ele>
        <time>2019-01-18T12:04:47.000Z</time>
      </trkpt>
      <trkpt lat="43.32792" lon="5.69013">
        <ele>784</ele>
        <time>2019-01-18T12:04:48.000Z</time>
      </trkpt>
      <trkpt lat="43.32792" lon="5.69013">
        <ele>784</ele>
        <time>2019-01-18T12:04:49.000Z</time>
      </trkpt>
      <trkpt lat="43.32791" lon="5.69013">
        <ele>785</ele>
        <time>2019-01-18T12:04:50.000Z</time>
      </trkpt>
      <trkpt lat="43.32791" lon="5.69014">
        <ele>785</ele>
        <time>2019-01-18T12:04:51.000Z</time>
      </trkpt>
      <trkpt lat="43.32791" lon="5.69014">
        <ele>785</ele>
        <time>2019-01-18T12:04:52.000Z</time>
      </trkpt>
      <trkpt lat="43.3279" lon="5.69014">
        <ele>785</ele>
        <time>2019-01-18T12:04:53.000Z</time>
      </trkpt>
      <trkpt lat="43.3279" lon="5.69014">
        <ele>785</ele>
        <time>2019-01-18T12:04:54.000Z</time>
      </trkpt>
      <trkpt lat="43.3279" lon="5.69014">
        <ele>785</ele>
        <time>2019-01-18T12:04:55.000Z</time>
      </trkpt>
      <trkpt lat="43.3279" lon="5.69014">
        <ele>785</ele>
        <time>2019-01-18T12:04:56.000Z</time>
      </trkpt>
      <trkpt lat="43.3279" lon="5.69014">
        <ele>785</ele>
        <time>2019-01-18T12:04:57.000Z</time>
      </trkpt>
      <trkpt lat="43.3279" lon="5.69014">
        <ele>785</ele>
        <time>2019-01-18T12:04:58.000Z</time>
      </trkpt>
      <trkpt lat="43.3279" lon="5.69014">
        <ele>785</ele>
        <time>2019-01-18T12:04:59.000Z</time>
      </trkpt>
      <trkpt lat="43.3279" lon="5.69014">
        <ele>785</ele>
        <time>2019-01-18T12:05:00.000Z</time>
      </trkpt>
      <trkpt lat="43.3279" lon="5.69015">
        <ele>785</ele>
        <time>2019-01-18T12:05:01.000Z</time>
      </trkpt>
      <trkpt lat="43.3279" lon="5.69015">
        <ele>785</ele>
        <time>2019-01-18T12:05:02.000Z</time>
      </trkpt>
      <trkpt lat="43.3279" lon="5.69015">
        <ele>785</ele>
        <time>2019-01-18T12:05:03.000Z</time>
      </trkpt>
      <trkpt lat="43.3279" lon="5.69014">
        <ele>785</ele>
        <time>2019-01-18T12:05:04.000Z</time>
      </trkpt>
      <trkpt lat="43.3279" lon="5.69014">
        <ele>785</ele>
        <time>2019-01-18T12:05:05.000Z</time>
      </trkpt>
      <trkpt lat="43.3279" lon="5.69014">
        <ele>785</ele>
        <time>2019-01-18T12:05:06.000Z</time>
      </trkpt>
      <trkpt lat="43.3279" lon="5.69014">
        <ele>785</ele>
        <time>2019-01-18T12:05:07.000Z</time>
      </trkpt>
      <trkpt lat="43.3279" lon="5.69014">
        <ele>785</ele>
        <time>2019-01-18T12:05:08.000Z</time>
      </trkpt>
      <trkpt lat="43.3279" lon="5.69014">
        <ele>785</ele>
        <time>2019-01-18T12:05:09.000Z</time>
      </trkpt>
      <trkpt lat="43.3279" lon="5.69014">
        <ele>785</ele>
        <time>2019-01-18T12:05:10.000Z</time>
      </trkpt>
      <trkpt lat="43.3279" lon="5.69014">
        <ele>785</ele>
        <time>2019-01-18T12:05:11.000Z</time>
      </trkpt>
      <trkpt lat="43.3279" lon="5.69014">
        <ele>785</ele>
        <time>2019-01-18T12:05:12.000Z</time>
      </trkpt>
      <trkpt lat="43.3279" lon="5.69014">
        <ele>785</ele>
        <time>2019-01-18T12:05:13.000Z</time>
      </trkpt>
      <trkpt lat="43.3279" lon="5.69014">
        <ele>785</ele>
        <time>2019-01-18T12:05:14.000Z</time>
      </trkpt>
      <trkpt lat="43.3279" lon="5.69014">
        <ele>785</ele>
        <time>2019-01-18T12:05:15.000Z</time>
      </trkpt>
      <trkpt lat="43.3279" lon="5.69014">
        <ele>785</ele>
        <time>2019-01-18T12:05:16.000Z</time>
      </trkpt>
      <trkpt lat="43.3279" lon="5.69014">
        <ele>785</ele>
        <time>2019-01-18T12:05:17.000Z</time>
      </trkpt>
      <trkpt lat="43.3279" lon="5.69014">
        <ele>785</ele>
        <time>2019-01-18T12:05:18.000Z</time>
      </trkpt>
      <trkpt lat="43.3279" lon="5.69015">
        <ele>785</ele>
        <time>2019-01-18T12:05:19.000Z</time>
      </trkpt>
      <trkpt lat="43.3279" lon="5.69015">
        <ele>785</ele>
        <time>2019-01-18T12:05:20.000Z</time>
      </trkpt>
      <trkpt lat="43.3279" lon="5.69015">
        <ele>785</ele>
        <time>2019-01-18T12:05:21.000Z</time>
      </trkpt>
      <trkpt lat="43.3279" lon="5.69015">
        <ele>785</ele>
        <time>2019-01-18T12:05:22.000Z</time>
      </trkpt>
      <trkpt lat="43.3279" lon="5.69015">
        <ele>785</ele>
        <time>2019-01-18T12:05:23.000Z</time>
      </trkpt>
      <trkpt lat="43.3279" lon="5.69015">
        <ele>786</ele>
        <time>2019-01-18T12:05:24.000Z</time>
      </trkpt>
      <trkpt lat="43.32789" lon="5.69015">
        <ele>786</ele>
        <time>2019-01-18T12:05:25.000Z</time>
      </trkpt>
      <trkpt lat="43.32789" lon="5.69016">
        <ele>786</ele>
        <time>2019-01-18T12:05:26.000Z</time>
      </trkpt>
      <trkpt lat="43.32788" lon="5.69016">
        <ele>786</ele>
        <time>2019-01-18T12:05:27.000Z</time>
      </trkpt>
      <trkpt lat="43.32787" lon="5.69016">
        <ele>786</ele>
        <time>2019-01-18T12:05:28.000Z</time>
      </trkpt>
      <trkpt lat="43.32787" lon="5.69016">
        <ele>786</ele>
        <time>2019-01-18T12:05:29.000Z</time>
      </trkpt>
      <trkpt lat="43.32786" lon="5.69016">
        <ele>786</ele>
        <time>2019-01-18T12:05:30.000Z</time>
      </trkpt>
      <trkpt lat="43.32786" lon="5.69015">
        <ele>786</ele>
        <time>2019-01-18T12:05:31.000Z</time>
      </trkpt>
      <trkpt lat="43.32785" lon="5.69015">
        <ele>786</ele>
        <time>2019-01-18T12:05:32.000Z</time>
      </trkpt>
      <trkpt lat="43.32785" lon="5.69016">
        <ele>786</ele>
        <time>2019-01-18T12:05:33.000Z</time>
      </trkpt>
      <trkpt lat="43.32784" lon="5.69016">
        <ele>786</ele>
        <time>2019-01-18T12:05:34.000Z</time>
      </trkpt>
      <trkpt lat="43.32784" lon="5.69016">
        <ele>786</ele>
        <time>2019-01-18T12:05:35.000Z</time>
      </trkpt>
      <trkpt lat="43.32783" lon="5.69016">
        <ele>787</ele>
        <time>2019-01-18T12:05:36.000Z</time>
      </trkpt>
      <trkpt lat="43.32783" lon="5.69016">
        <ele>787</ele>
        <time>2019-01-18T12:05:37.000Z</time>
      </trkpt>
      <trkpt lat="43.32782" lon="5.69016">
        <ele>787</ele>
        <time>2019-01-18T12:05:38.000Z</time>
      </trkpt>
      <trkpt lat="43.32781" lon="5.69016">
        <ele>787</ele>
        <time>2019-01-18T12:05:39.000Z</time>
      </trkpt>
      <trkpt lat="43.32781" lon="5.69015">
        <ele>787</ele>
        <time>2019-01-18T12:05:40.000Z</time>
      </trkpt>
      <trkpt lat="43.3278" lon="5.69015">
        <ele>787</ele>
        <time>2019-01-18T12:05:41.000Z</time>
      </trkpt>
      <trkpt lat="43.32779" lon="5.69015">
        <ele>788</ele>
        <time>2019-01-18T12:05:42.000Z</time>
      </trkpt>
      <trkpt lat="43.32779" lon="5.69015">
        <ele>788</ele>
        <time>2019-01-18T12:05:43.000Z</time>
      </trkpt>
      <trkpt lat="43.32778" lon="5.69015">
        <ele>788</ele>
        <time>2019-01-18T12:05:44.000Z</time>
      </trkpt>
      <trkpt lat="43.32777" lon="5.69015">
        <ele>788</ele>
        <time>2019-01-18T12:05:45.000Z</time>
      </trkpt>
      <trkpt lat="43.32776" lon="5.69014">
        <ele>788</ele>
        <time>2019-01-18T12:05:46.000Z</time>
      </trkpt>
      <trkpt lat="43.32776" lon="5.69014">
        <ele>788</ele>
        <time>2019-01-18T12:05:47.000Z</time>
      </trkpt>
      <trkpt lat="43.32775" lon="5.69014">
        <ele>788</ele>
        <time>2019-01-18T12:05:48.000Z</time>
      </trkpt>
      <trkpt lat="43.32774" lon="5.69014">
        <ele>788</ele>
        <time>2019-01-18T12:05:49.000Z</time>
      </trkpt>
      <trkpt lat="43.32774" lon="5.69014">
        <ele>788</ele>
        <time>2019-01-18T12:05:50.000Z</time>
      </trkpt>
      <trkpt lat="43.32773" lon="5.69014">
        <ele>788</ele>
        <time>2019-01-18T12:05:51.000Z</time>
      </trkpt>
      <trkpt lat="43.32772" lon="5.69014">
        <ele>788</ele>
        <time>2019-01-18T12:05:52.000Z</time>
      </trkpt>
      <trkpt lat="43.32772" lon="5.69014">
        <ele>788</ele>
        <time>2019-01-18T12:05:53.000Z</time>
      </trkpt>
      <trkpt lat="43.32771" lon="5.69014">
        <ele>788</ele>
        <time>2019-01-18T12:05:54.000Z</time>
      </trkpt>
      <trkpt lat="43.3277" lon="5.69014">
        <ele>788</ele>
        <time>2019-01-18T12:05:55.000Z</time>
      </trkpt>
      <trkpt lat="43.32768" lon="5.69014">
        <ele>788</ele>
        <time>2019-01-18T12:05:56.000Z</time>
      </trkpt>
      <trkpt lat="43.32767" lon="5.69015">
        <ele>788</ele>
        <time>2019-01-18T12:05:57.000Z</time>
      </trkpt>
      <trkpt lat="43.32766" lon="5.69015">
        <ele>788</ele>
        <time>2019-01-18T12:05:58.000Z</time>
      </trkpt>
      <trkpt lat="43.32765" lon="5.69014">
        <ele>788</ele>
        <time>2019-01-18T12:05:59.000Z</time>
      </trkpt>
      <trkpt lat="43.32764" lon="5.69014">
        <ele>788</ele>
        <time>2019-01-18T12:06:00.000Z</time>
      </trkpt>
      <trkpt lat="43.32764" lon="5.69013">
        <ele>789</ele>
        <time>2019-01-18T12:06:01.000Z</time>
      </trkpt>
      <trkpt lat="43.32763" lon="5.69013">
        <ele>789</ele>
        <time>2019-01-18T12:06:02.000Z</time>
      </trkpt>
      <trkpt lat="43.32762" lon="5.69012">
        <ele>789</ele>
        <time>2019-01-18T12:06:03.000Z</time>
      </trkpt>
      <trkpt lat="43.32761" lon="5.69013">
        <ele>789</ele>
        <time>2019-01-18T12:06:04.000Z</time>
      </trkpt>
      <trkpt lat="43.32761" lon="5.69012">
        <ele>789</ele>
        <time>2019-01-18T12:06:05.000Z</time>
      </trkpt>
      <trkpt lat="43.3276" lon="5.69012">
        <ele>789</ele>
        <time>2019-01-18T12:06:06.000Z</time>
      </trkpt>
      <trkpt lat="43.32759" lon="5.69012">
        <ele>789</ele>
        <time>2019-01-18T12:06:07.000Z</time>
      </trkpt>
      <trkpt lat="43.32758" lon="5.69012">
        <ele>789</ele>
        <time>2019-01-18T12:06:08.000Z</time>
      </trkpt>
      <trkpt lat="43.32757" lon="5.69011">
        <ele>790</ele>
        <time>2019-01-18T12:06:09.000Z</time>
      </trkpt>
      <trkpt lat="43.32757" lon="5.69011">
        <ele>790</ele>
        <time>2019-01-18T12:06:10.000Z</time>
      </trkpt>
      <trkpt lat="43.32756" lon="5.6901">
        <ele>790</ele>
        <time>2019-01-18T12:06:11.000Z</time>
      </trkpt>
      <trkpt lat="43.32755" lon="5.6901">
        <ele>790</ele>
        <time>2019-01-18T12:06:12.000Z</time>
      </trkpt>
      <trkpt lat="43.32755" lon="5.69009">
        <ele>790</ele>
        <time>2019-01-18T12:06:13.000Z</time>
      </trkpt>
      <trkpt lat="43.32754" lon="5.69008">
        <ele>790</ele>
        <time>2019-01-18T12:06:14.000Z</time>
      </trkpt>
      <trkpt lat="43.32754" lon="5.69008">
        <ele>790</ele>
        <time>2019-01-18T12:06:15.000Z</time>
      </trkpt>
      <trkpt lat="43.32753" lon="5.69007">
        <ele>791</ele>
        <time>2019-01-18T12:06:16.000Z</time>
      </trkpt>
      <trkpt lat="43.32752" lon="5.69006">
        <ele>791</ele>
        <time>2019-01-18T12:06:17.000Z</time>
      </trkpt>
      <trkpt lat="43.32752" lon="5.69006">
        <ele>791</ele>
        <time>2019-01-18T12:06:18.000Z</time>
      </trkpt>
      <trkpt lat="43.32751" lon="5.69005">
        <ele>791</ele>
        <time>2019-01-18T12:06:19.000Z</time>
      </trkpt>
      <trkpt lat="43.3275" lon="5.69005">
        <ele>791</ele>
        <time>2019-01-18T12:06:20.000Z</time>
      </trkpt>
      <trkpt lat="43.3275" lon="5.69005">
        <ele>791</ele>
        <time>2019-01-18T12:06:21.000Z</time>
      </trkpt>
      <trkpt lat="43.32749" lon="5.69005">
        <ele>791</ele>
        <time>2019-01-18T12:06:22.000Z</time>
      </trkpt>
      <trkpt lat="43.32748" lon="5.69004">
        <ele>791</ele>
        <time>2019-01-18T12:06:23.000Z</time>
      </trkpt>
      <trkpt lat="43.32747" lon="5.69004">
        <ele>791</ele>
        <time>2019-01-18T12:06:24.000Z</time>
      </trkpt>
      <trkpt lat="43.32746" lon="5.69004">
        <ele>791</ele>
        <time>2019-01-18T12:06:25.000Z</time>
      </trkpt>
      <trkpt lat="43.32745" lon="5.69003">
        <ele>791</ele>
        <time>2019-01-18T12:06:26.000Z</time>
      </trkpt>
      <trkpt lat="43.32744" lon="5.69003">
        <ele>791</ele>
        <time>2019-01-18T12:06:27.000Z</time>
      </trkpt>
      <trkpt lat="43.32744" lon="5.69003">
        <ele>791</ele>
        <time>2019-01-18T12:06:28.000Z</time>
      </trkpt>
      <trkpt lat="43.32743" lon="5.69003">
        <ele>792</ele>
        <time>2019-01-18T12:06:29.000Z</time>
      </trkpt>
      <trkpt lat="43.32742" lon="5.69003">
        <ele>792</ele>
        <time>2019-01-18T12:06:30.000Z</time>
      </trkpt>
      <trkpt lat="43.32741" lon="5.69002">
        <ele>792</ele>
        <time>2019-01-18T12:06:31.000Z</time>
      </trkpt>
      <trkpt lat="43.32741" lon="5.69002">
        <ele>792</ele>
        <time>2019-01-18T12:06:32.000Z</time>
      </trkpt>
      <trkpt lat="43.3274" lon="5.69001">
        <ele>791</ele>
        <time>2019-01-18T12:06:33.000Z</time>
      </trkpt>
      <trkpt lat="43.32739" lon="5.69001">
        <ele>792</ele>
        <time>2019-01-18T12:06:34.000Z</time>
      </trkpt>
      <trkpt lat="43.32739" lon="5.69">
        <ele>791</ele>
        <time>2019-01-18T12:06:35.000Z</time>
      </trkpt>
      <trkpt lat="43.32738" lon="5.69">
        <ele>791</ele>
        <time>2019-01-18T12:06:36.000Z</time>
      </trkpt>
      <trkpt lat="43.32737" lon="5.68999">
        <ele>791</ele>
        <time>2019-01-18T12:06:37.000Z</time>
      </trkpt>
      <trkpt lat="43.32737" lon="5.68999">
        <ele>791</ele>
        <time>2019-01-18T12:06:38.000Z</time>
      </trkpt>
      <trkpt lat="43.32736" lon="5.68999">
        <ele>791</ele>
        <time>2019-01-18T12:06:39.000Z</time>
      </trkpt>
      <trkpt lat="43.32735" lon="5.68998">
        <ele>791</ele>
        <time>2019-01-18T12:06:40.000Z</time>
      </trkpt>
      <trkpt lat="43.32735" lon="5.68997">
        <ele>791</ele>
        <time>2019-01-18T12:06:41.000Z</time>
      </trkpt>
      <trkpt lat="43.32734" lon="5.68996">
        <ele>791</ele>
        <time>2019-01-18T12:06:42.000Z</time>
      </trkpt>
      <trkpt lat="43.32734" lon="5.68996">
        <ele>791</ele>
        <time>2019-01-18T12:06:43.000Z</time>
      </trkpt>
      <trkpt lat="43.32733" lon="5.68995">
        <ele>791</ele>
        <time>2019-01-18T12:06:44.000Z</time>
      </trkpt>
      <trkpt lat="43.32733" lon="5.68994">
        <ele>791</ele>
        <time>2019-01-18T12:06:45.000Z</time>
      </trkpt>
      <trkpt lat="43.32732" lon="5.68993">
        <ele>791</ele>
        <time>2019-01-18T12:06:46.000Z</time>
      </trkpt>
      <trkpt lat="43.32732" lon="5.68993">
        <ele>791</ele>
        <time>2019-01-18T12:06:47.000Z</time>
      </trkpt>
      <trkpt lat="43.32731" lon="5.68992">
        <ele>791</ele>
        <time>2019-01-18T12:06:48.000Z</time>
      </trkpt>
      <trkpt lat="43.3273" lon="5.68991">
        <ele>791</ele>
        <time>2019-01-18T12:06:49.000Z</time>
      </trkpt>
      <trkpt lat="43.3273" lon="5.68991">
        <ele>791</ele>
        <time>2019-01-18T12:06:50.000Z</time>
      </trkpt>
      <trkpt lat="43.32729" lon="5.6899">
        <ele>790</ele>
        <time>2019-01-18T12:06:51.000Z</time>
      </trkpt>
      <trkpt lat="43.32728" lon="5.68989">
        <ele>790</ele>
        <time>2019-01-18T12:06:52.000Z</time>
      </trkpt>
      <trkpt lat="43.32727" lon="5.68989">
        <ele>790</ele>
        <time>2019-01-18T12:06:53.000Z</time>
      </trkpt>
      <trkpt lat="43.32727" lon="5.68987">
        <ele>790</ele>
        <time>2019-01-18T12:06:54.000Z</time>
      </trkpt>
      <trkpt lat="43.32726" lon="5.68986">
        <ele>790</ele>
        <time>2019-01-18T12:06:55.000Z</time>
      </trkpt>
      <trkpt lat="43.32725" lon="5.68985">
        <ele>790</ele>
        <time>2019-01-18T12:06:56.000Z</time>
      </trkpt>
      <trkpt lat="43.32724" lon="5.68984">
        <ele>790</ele>
        <time>2019-01-18T12:06:57.000Z</time>
      </trkpt>
      <trkpt lat="43.32724" lon="5.68983">
        <ele>790</ele>
        <time>2019-01-18T12:06:58.000Z</time>
      </trkpt>
      <trkpt lat="43.32723" lon="5.68982">
        <ele>790</ele>
        <time>2019-01-18T12:06:59.000Z</time>
      </trkpt>
      <trkpt lat="43.32723" lon="5.68981">
        <ele>790</ele>
        <time>2019-01-18T12:07:00.000Z</time>
      </trkpt>
      <trkpt lat="43.32722" lon="5.6898">
        <ele>790</ele>
        <time>2019-01-18T12:07:01.000Z</time>
      </trkpt>
      <trkpt lat="43.32722" lon="5.68979">
        <ele>790</ele>
        <time>2019-01-18T12:07:02.000Z</time>
      </trkpt>
      <trkpt lat="43.32721" lon="5.68978">
        <ele>790</ele>
        <time>2019-01-18T12:07:03.000Z</time>
      </trkpt>
      <trkpt lat="43.3272" lon="5.68977">
        <ele>789</ele>
        <time>2019-01-18T12:07:04.000Z</time>
      </trkpt>
      <trkpt lat="43.3272" lon="5.68976">
        <ele>789</ele>
        <time>2019-01-18T12:07:05.000Z</time>
      </trkpt>
      <trkpt lat="43.32719" lon="5.68975">
        <ele>789</ele>
        <time>2019-01-18T12:07:06.000Z</time>
      </trkpt>
      <trkpt lat="43.32718" lon="5.68974">
        <ele>789</ele>
        <time>2019-01-18T12:07:07.000Z</time>
      </trkpt>
      <trkpt lat="43.32718" lon="5.68972">
        <ele>789</ele>
        <time>2019-01-18T12:07:08.000Z</time>
      </trkpt>
      <trkpt lat="43.32718" lon="5.68971">
        <ele>789</ele>
        <time>2019-01-18T12:07:09.000Z</time>
      </trkpt>
      <trkpt lat="43.32718" lon="5.6897">
        <ele>790</ele>
        <time>2019-01-18T12:07:10.000Z</time>
      </trkpt>
      <trkpt lat="43.32718" lon="5.6897">
        <ele>790</ele>
        <time>2019-01-18T12:07:11.000Z</time>
      </trkpt>
      <trkpt lat="43.32718" lon="5.6897">
        <ele>790</ele>
        <time>2019-01-18T12:07:12.000Z</time>
      </trkpt>
      <trkpt lat="43.32718" lon="5.68969">
        <ele>790</ele>
        <time>2019-01-18T12:07:13.000Z</time>
      </trkpt>
      <trkpt lat="43.32718" lon="5.68969">
        <ele>790</ele>
        <time>2019-01-18T12:07:14.000Z</time>
      </trkpt>
      <trkpt lat="43.32718" lon="5.68969">
        <ele>790</ele>
        <time>2019-01-18T12:07:15.000Z</time>
      </trkpt>
      <trkpt lat="43.32718" lon="5.68969">
        <ele>790</ele>
        <time>2019-01-18T12:07:16.000Z</time>
      </trkpt>
      <trkpt lat="43.32718" lon="5.68969">
        <ele>790</ele>
        <time>2019-01-18T12:07:17.000Z</time>
      </trkpt>
      <trkpt lat="43.32718" lon="5.68969">
        <ele>790</ele>
        <time>2019-01-18T12:07:18.000Z</time>
      </trkpt>
      <trkpt lat="43.32718" lon="5.68969">
        <ele>790</ele>
        <time>2019-01-18T12:07:19.000Z</time>
      </trkpt>
      <trkpt lat="43.32718" lon="5.68969">
        <ele>790</ele>
        <time>2019-01-18T12:07:20.000Z</time>
      </trkpt>
      <trkpt lat="43.32718" lon="5.68969">
        <ele>790</ele>
        <time>2019-01-18T12:07:21.000Z</time>
      </trkpt>
      <trkpt lat="43.32718" lon="5.68969">
        <ele>790</ele>
        <time>2019-01-18T12:07:22.000Z</time>
      </trkpt>
      <trkpt lat="43.32718" lon="5.68969">
        <ele>790</ele>
        <time>2019-01-18T12:07:23.000Z</time>
      </trkpt>
      <trkpt lat="43.32718" lon="5.68969">
        <ele>790</ele>
        <time>2019-01-18T12:07:24.000Z</time>
      </trkpt>
      <trkpt lat="43.32718" lon="5.68969">
        <ele>790</ele>
        <time>2019-01-18T12:07:25.000Z</time>
      </trkpt>
      <trkpt lat="43.32718" lon="5.68969">
        <ele>790</ele>
        <time>2019-01-18T12:07:26.000Z</time>
      </trkpt>
      <trkpt lat="43.32718" lon="5.68969">
        <ele>790</ele>
        <time>2019-01-18T12:07:27.000Z</time>
      </trkpt>
      <trkpt lat="43.32718" lon="5.68969">
        <ele>790</ele>
        <time>2019-01-18T12:07:28.000Z</time>
      </trkpt>
      <trkpt lat="43.32718" lon="5.68969">
        <ele>790</ele>
        <time>2019-01-18T12:07:29.000Z</time>
      </trkpt>
      <trkpt lat="43.32718" lon="5.68969">
        <ele>790</ele>
        <time>2019-01-18T12:07:30.000Z</time>
      </trkpt>
      <trkpt lat="43.32718" lon="5.68969">
        <ele>790</ele>
        <time>2019-01-18T12:07:31.000Z</time>
      </trkpt>
      <trkpt lat="43.32717" lon="5.68969">
        <ele>791</ele>
        <time>2019-01-18T12:07:32.000Z</time>
      </trkpt>
      <trkpt lat="43.32717" lon="5.68969">
        <ele>791</ele>
        <time>2019-01-18T12:07:33.000Z</time>
      </trkpt>
      <trkpt lat="43.32717" lon="5.68969">
        <ele>791</ele>
        <time>2019-01-18T12:07:34.000Z</time>
      </trkpt>
      <trkpt lat="43.32717" lon="5.68969">
        <ele>791</ele>
        <time>2019-01-18T12:07:35.000Z</time>
      </trkpt>
      <trkpt lat="43.32717" lon="5.68969">
        <ele>791</ele>
        <time>2019-01-18T12:07:36.000Z</time>
      </trkpt>
      <trkpt lat="43.32717" lon="5.68969">
        <ele>791</ele>
        <time>2019-01-18T12:07:37.000Z</time>
      </trkpt>
      <trkpt lat="43.32717" lon="5.68969">
        <ele>791</ele>
        <time>2019-01-18T12:07:38.000Z</time>
      </trkpt>
      <trkpt lat="43.32717" lon="5.68969">
        <ele>791</ele>
        <time>2019-01-18T12:07:39.000Z</time>
      </trkpt>
      <trkpt lat="43.32717" lon="5.68969">
        <ele>791</ele>
        <time>2019-01-18T12:07:40.000Z</time>
      </trkpt>
      <trkpt lat="43.32717" lon="5.68969">
        <ele>791</ele>
        <time>2019-01-18T12:07:41.000Z</time>
      </trkpt>
      <trkpt lat="43.32717" lon="5.68969">
        <ele>791</ele>
        <time>2019-01-18T12:07:42.000Z</time>
      </trkpt>
      <trkpt lat="43.32717" lon="5.68969">
        <ele>791</ele>
        <time>2019-01-18T12:07:43.000Z</time>
      </trkpt>
      <trkpt lat="43.32717" lon="5.68969">
        <ele>791</ele>
        <time>2019-01-18T12:07:44.000Z</time>
      </trkpt>
      <trkpt lat="43.32717" lon="5.68969">
        <ele>791</ele>
        <time>2019-01-18T12:07:45.000Z</time>
      </trkpt>
      <trkpt lat="43.32717" lon="5.68969">
        <ele>791</ele>
        <time>2019-01-18T12:07:46.000Z</time>
      </trkpt>
      <trkpt lat="43.32717" lon="5.68968">
        <ele>791</ele>
        <time>2019-01-18T12:07:47.000Z</time>
      </trkpt>
      <trkpt lat="43.32717" lon="5.68968">
        <ele>791</ele>
        <time>2019-01-18T12:07:48.000Z</time>
      </trkpt>
      <trkpt lat="43.32717" lon="5.68969">
        <ele>791</ele>
        <time>2019-01-18T12:07:49.000Z</time>
      </trkpt>
      <trkpt lat="43.32717" lon="5.68968">
        <ele>791</ele>
        <time>2019-01-18T12:07:50.000Z</time>
      </trkpt>
      <trkpt lat="43.32716" lon="5.68968">
        <ele>791</ele>
        <time>2019-01-18T12:07:51.000Z</time>
      </trkpt>
      <trkpt lat="43.32716" lon="5.68967">
        <ele>791</ele>
        <time>2019-01-18T12:07:52.000Z</time>
      </trkpt>
      <trkpt lat="43.32716" lon="5.68966">
        <ele>791</ele>
        <time>2019-01-18T12:07:53.000Z</time>
      </trkpt>
      <trkpt lat="43.32716" lon="5.68965">
        <ele>791</ele>
        <time>2019-01-18T12:07:54.000Z</time>
      </trkpt>
      <trkpt lat="43.32716" lon="5.68964">
        <ele>792</ele>
        <time>2019-01-18T12:07:55.000Z</time>
      </trkpt>
      <trkpt lat="43.32716" lon="5.68964">
        <ele>792</ele>
        <time>2019-01-18T12:07:56.000Z</time>
      </trkpt>
      <trkpt lat="43.32716" lon="5.68963">
        <ele>792</ele>
        <time>2019-01-18T12:07:57.000Z</time>
      </trkpt>
      <trkpt lat="43.32716" lon="5.68962">
        <ele>792</ele>
        <time>2019-01-18T12:07:58.000Z</time>
      </trkpt>
      <trkpt lat="43.32716" lon="5.68961">
        <ele>792</ele>
        <time>2019-01-18T12:07:59.000Z</time>
      </trkpt>
      <trkpt lat="43.32716" lon="5.6896">
        <ele>792</ele>
        <time>2019-01-18T12:08:00.000Z</time>
      </trkpt>
      <trkpt lat="43.32716" lon="5.68959">
        <ele>792</ele>
        <time>2019-01-18T12:08:01.000Z</time>
      </trkpt>
      <trkpt lat="43.32716" lon="5.68959">
        <ele>793</ele>
        <time>2019-01-18T12:08:02.000Z</time>
      </trkpt>
      <trkpt lat="43.32716" lon="5.68958">
        <ele>793</ele>
        <time>2019-01-18T12:08:03.000Z</time>
      </trkpt>
      <trkpt lat="43.32716" lon="5.68957">
        <ele>793</ele>
        <time>2019-01-18T12:08:04.000Z</time>
      </trkpt>
      <trkpt lat="43.32716" lon="5.68957">
        <ele>793</ele>
        <time>2019-01-18T12:08:05.000Z</time>
      </trkpt>
      <trkpt lat="43.32716" lon="5.68956">
        <ele>793</ele>
        <time>2019-01-18T12:08:06.000Z</time>
      </trkpt>
      <trkpt lat="43.32716" lon="5.68956">
        <ele>794</ele>
        <time>2019-01-18T12:08:07.000Z</time>
      </trkpt>
      <trkpt lat="43.32717" lon="5.68955">
        <ele>794</ele>
        <time>2019-01-18T12:08:08.000Z</time>
      </trkpt>
      <trkpt lat="43.32717" lon="5.68954">
        <ele>794</ele>
        <time>2019-01-18T12:08:09.000Z</time>
      </trkpt>
      <trkpt lat="43.32717" lon="5.68954">
        <ele>794</ele>
        <time>2019-01-18T12:08:10.000Z</time>
      </trkpt>
      <trkpt lat="43.32717" lon="5.68953">
        <ele>794</ele>
        <time>2019-01-18T12:08:11.000Z</time>
      </trkpt>
      <trkpt lat="43.32717" lon="5.68952">
        <ele>794</ele>
        <time>2019-01-18T12:08:12.000Z</time>
      </trkpt>
      <trkpt lat="43.32717" lon="5.68951">
        <ele>794</ele>
        <time>2019-01-18T12:08:13.000Z</time>
      </trkpt>
      <trkpt lat="43.32717" lon="5.6895">
        <ele>794</ele>
        <time>2019-01-18T12:08:14.000Z</time>
      </trkpt>
      <trkpt lat="43.32717" lon="5.6895">
        <ele>794</ele>
        <time>2019-01-18T12:08:15.000Z</time>
      </trkpt>
      <trkpt lat="43.32718" lon="5.68949">
        <ele>795</ele>
        <time>2019-01-18T12:08:16.000Z</time>
      </trkpt>
      <trkpt lat="43.32717" lon="5.68948">
        <ele>795</ele>
        <time>2019-01-18T12:08:17.000Z</time>
      </trkpt>
      <trkpt lat="43.32718" lon="5.68947">
        <ele>795</ele>
        <time>2019-01-18T12:08:18.000Z</time>
      </trkpt>
      <trkpt lat="43.32717" lon="5.68946">
        <ele>795</ele>
        <time>2019-01-18T12:08:19.000Z</time>
      </trkpt>
      <trkpt lat="43.32717" lon="5.68945">
        <ele>795</ele>
        <time>2019-01-18T12:08:20.000Z</time>
      </trkpt>
      <trkpt lat="43.32717" lon="5.68944">
        <ele>795</ele>
        <time>2019-01-18T12:08:21.000Z</time>
      </trkpt>
      <trkpt lat="43.32717" lon="5.68944">
        <ele>795</ele>
        <time>2019-01-18T12:08:22.000Z</time>
      </trkpt>
      <trkpt lat="43.32717" lon="5.68943">
        <ele>795</ele>
        <time>2019-01-18T12:08:23.000Z</time>
      </trkpt>
      <trkpt lat="43.32716" lon="5.68942">
        <ele>795</ele>
        <time>2019-01-18T12:08:24.000Z</time>
      </trkpt>
      <trkpt lat="43.32716" lon="5.68941">
        <ele>795</ele>
        <time>2019-01-18T12:08:25.000Z</time>
      </trkpt>
      <trkpt lat="43.32716" lon="5.6894">
        <ele>796</ele>
        <time>2019-01-18T12:08:26.000Z</time>
      </trkpt>
      <trkpt lat="43.32717" lon="5.6894">
        <ele>796</ele>
        <time>2019-01-18T12:08:27.000Z</time>
      </trkpt>
      <trkpt lat="43.32717" lon="5.6894">
        <ele>796</ele>
        <time>2019-01-18T12:08:28.000Z</time>
      </trkpt>
      <trkpt lat="43.32717" lon="5.68939">
        <ele>796</ele>
        <time>2019-01-18T12:08:29.000Z</time>
      </trkpt>
      <trkpt lat="43.32718" lon="5.68939">
        <ele>797</ele>
        <time>2019-01-18T12:08:30.000Z</time>
      </trkpt>
      <trkpt lat="43.32718" lon="5.68938">
        <ele>797</ele>
        <time>2019-01-18T12:08:31.000Z</time>
      </trkpt>
      <trkpt lat="43.32718" lon="5.68937">
        <ele>797</ele>
        <time>2019-01-18T12:08:32.000Z</time>
      </trkpt>
      <trkpt lat="43.32718" lon="5.68936">
        <ele>797</ele>
        <time>2019-01-18T12:08:33.000Z</time>
      </trkpt>
      <trkpt lat="43.32718" lon="5.68935">
        <ele>797</ele>
        <time>2019-01-18T12:08:34.000Z</time>
      </trkpt>
      <trkpt lat="43.32718" lon="5.68934">
        <ele>798</ele>
        <time>2019-01-18T12:08:35.000Z</time>
      </trkpt>
      <trkpt lat="43.32719" lon="5.68933">
        <ele>798</ele>
        <time>2019-01-18T12:08:36.000Z</time>
      </trkpt>
      <trkpt lat="43.32719" lon="5.68932">
        <ele>798</ele>
        <time>2019-01-18T12:08:37.000Z</time>
      </trkpt>
      <trkpt lat="43.32719" lon="5.6893">
        <ele>798</ele>
        <time>2019-01-18T12:08:38.000Z</time>
      </trkpt>
      <trkpt lat="43.3272" lon="5.6893">
        <ele>798</ele>
        <time>2019-01-18T12:08:39.000Z</time>
      </trkpt>
      <trkpt lat="43.3272" lon="5.68929">
        <ele>798</ele>
        <time>2019-01-18T12:08:40.000Z</time>
      </trkpt>
      <trkpt lat="43.32721" lon="5.68928">
        <ele>798</ele>
        <time>2019-01-18T12:08:41.000Z</time>
      </trkpt>
      <trkpt lat="43.32722" lon="5.68928">
        <ele>798</ele>
        <time>2019-01-18T12:08:42.000Z</time>
      </trkpt>
      <trkpt lat="43.32722" lon="5.68927">
        <ele>799</ele>
        <time>2019-01-18T12:08:43.000Z</time>
      </trkpt>
      <trkpt lat="43.32723" lon="5.68927">
        <ele>799</ele>
        <time>2019-01-18T12:08:44.000Z</time>
      </trkpt>
      <trkpt lat="43.32724" lon="5.68927">
        <ele>799</ele>
        <time>2019-01-18T12:08:45.000Z</time>
      </trkpt>
      <trkpt lat="43.32725" lon="5.68927">
        <ele>799</ele>
        <time>2019-01-18T12:08:46.000Z</time>
      </trkpt>
      <trkpt lat="43.32725" lon="5.68927">
        <ele>799</ele>
        <time>2019-01-18T12:08:47.000Z</time>
      </trkpt>
      <trkpt lat="43.32726" lon="5.68926">
        <ele>799</ele>
        <time>2019-01-18T12:08:48.000Z</time>
      </trkpt>
      <trkpt lat="43.32727" lon="5.68926">
        <ele>799</ele>
        <time>2019-01-18T12:08:49.000Z</time>
      </trkpt>
      <trkpt lat="43.32728" lon="5.68926">
        <ele>799</ele>
        <time>2019-01-18T12:08:50.000Z</time>
      </trkpt>
      <trkpt lat="43.32729" lon="5.68926">
        <ele>799</ele>
        <time>2019-01-18T12:08:51.000Z</time>
      </trkpt>
      <trkpt lat="43.32729" lon="5.68927">
        <ele>799</ele>
        <time>2019-01-18T12:08:52.000Z</time>
      </trkpt>
      <trkpt lat="43.3273" lon="5.68927">
        <ele>799</ele>
        <time>2019-01-18T12:08:53.000Z</time>
      </trkpt>
      <trkpt lat="43.32731" lon="5.68927">
        <ele>799</ele>
        <time>2019-01-18T12:08:54.000Z</time>
      </trkpt>
      <trkpt lat="43.32732" lon="5.68927">
        <ele>799</ele>
        <time>2019-01-18T12:08:55.000Z</time>
      </trkpt>
      <trkpt lat="43.32733" lon="5.68927">
        <ele>799</ele>
        <time>2019-01-18T12:08:56.000Z</time>
      </trkpt>
      <trkpt lat="43.32733" lon="5.68927">
        <ele>799</ele>
        <time>2019-01-18T12:08:57.000Z</time>
      </trkpt>
      <trkpt lat="43.32734" lon="5.68926">
        <ele>799</ele>
        <time>2019-01-18T12:08:58.000Z</time>
      </trkpt>
      <trkpt lat="43.32735" lon="5.68926">
        <ele>799</ele>
        <time>2019-01-18T12:08:59.000Z</time>
      </trkpt>
      <trkpt lat="43.32735" lon="5.68926">
        <ele>798</ele>
        <time>2019-01-18T12:09:00.000Z</time>
      </trkpt>
      <trkpt lat="43.32736" lon="5.68927">
        <ele>798</ele>
        <time>2019-01-18T12:09:01.000Z</time>
      </trkpt>
      <trkpt lat="43.32737" lon="5.68927">
        <ele>798</ele>
        <time>2019-01-18T12:09:02.000Z</time>
      </trkpt>
      <trkpt lat="43.32738" lon="5.68927">
        <ele>798</ele>
        <time>2019-01-18T12:09:03.000Z</time>
      </trkpt>
      <trkpt lat="43.32738" lon="5.68927">
        <ele>798</ele>
        <time>2019-01-18T12:09:04.000Z</time>
      </trkpt>
      <trkpt lat="43.32739" lon="5.68928">
        <ele>798</ele>
        <time>2019-01-18T12:09:05.000Z</time>
      </trkpt>
      <trkpt lat="43.3274" lon="5.68929">
        <ele>798</ele>
        <time>2019-01-18T12:09:06.000Z</time>
      </trkpt>
      <trkpt lat="43.32741" lon="5.6893">
        <ele>798</ele>
        <time>2019-01-18T12:09:07.000Z</time>
      </trkpt>
      <trkpt lat="43.32741" lon="5.68931">
        <ele>798</ele>
        <time>2019-01-18T12:09:08.000Z</time>
      </trkpt>
      <trkpt lat="43.32741" lon="5.68932">
        <ele>798</ele>
        <time>2019-01-18T12:09:09.000Z</time>
      </trkpt>
      <trkpt lat="43.32742" lon="5.68933">
        <ele>799</ele>
        <time>2019-01-18T12:09:10.000Z</time>
      </trkpt>
      <trkpt lat="43.32742" lon="5.68933">
        <ele>799</ele>
        <time>2019-01-18T12:09:11.000Z</time>
      </trkpt>
      <trkpt lat="43.32742" lon="5.68933">
        <ele>799</ele>
        <time>2019-01-18T12:09:12.000Z</time>
      </trkpt>
      <trkpt lat="43.32743" lon="5.68933">
        <ele>799</ele>
        <time>2019-01-18T12:09:13.000Z</time>
      </trkpt>
      <trkpt lat="43.32744" lon="5.68934">
        <ele>799</ele>
        <time>2019-01-18T12:09:14.000Z</time>
      </trkpt>
      <trkpt lat="43.32744" lon="5.68934">
        <ele>799</ele>
        <time>2019-01-18T12:09:15.000Z</time>
      </trkpt>
      <trkpt lat="43.32745" lon="5.68934">
        <ele>799</ele>
        <time>2019-01-18T12:09:16.000Z</time>
      </trkpt>
      <trkpt lat="43.32746" lon="5.68935">
        <ele>799</ele>
        <time>2019-01-18T12:09:17.000Z</time>
      </trkpt>
      <trkpt lat="43.32747" lon="5.68936">
        <ele>799</ele>
        <time>2019-01-18T12:09:18.000Z</time>
      </trkpt>
      <trkpt lat="43.32747" lon="5.68936">
        <ele>799</ele>
        <time>2019-01-18T12:09:19.000Z</time>
      </trkpt>
      <trkpt lat="43.32748" lon="5.68936">
        <ele>799</ele>
        <time>2019-01-18T12:09:20.000Z</time>
      </trkpt>
      <trkpt lat="43.32749" lon="5.68937">
        <ele>799</ele>
        <time>2019-01-18T12:09:21.000Z</time>
      </trkpt>
      <trkpt lat="43.32749" lon="5.68937">
        <ele>799</ele>
        <time>2019-01-18T12:09:22.000Z</time>
      </trkpt>
      <trkpt lat="43.3275" lon="5.68938">
        <ele>800</ele>
        <time>2019-01-18T12:09:23.000Z</time>
      </trkpt>
      <trkpt lat="43.3275" lon="5.68938">
        <ele>800</ele>
        <time>2019-01-18T12:09:24.000Z</time>
      </trkpt>
      <trkpt lat="43.32751" lon="5.68938">
        <ele>800</ele>
        <time>2019-01-18T12:09:25.000Z</time>
      </trkpt>
      <trkpt lat="43.32751" lon="5.68938">
        <ele>800</ele>
        <time>2019-01-18T12:09:26.000Z</time>
      </trkpt>
      <trkpt lat="43.32752" lon="5.68939">
        <ele>800</ele>
        <time>2019-01-18T12:09:27.000Z</time>
      </trkpt>
      <trkpt lat="43.32752" lon="5.68939">
        <ele>800</ele>
        <time>2019-01-18T12:09:28.000Z</time>
      </trkpt>
      <trkpt lat="43.32753" lon="5.68939">
        <ele>800</ele>
        <time>2019-01-18T12:09:29.000Z</time>
      </trkpt>
      <trkpt lat="43.32753" lon="5.68939">
        <ele>800</ele>
        <time>2019-01-18T12:09:30.000Z</time>
      </trkpt>
      <trkpt lat="43.32754" lon="5.68939">
        <ele>800</ele>
        <time>2019-01-18T12:09:31.000Z</time>
      </trkpt>
      <trkpt lat="43.32755" lon="5.68939">
        <ele>800</ele>
        <time>2019-01-18T12:09:32.000Z</time>
      </trkpt>
      <trkpt lat="43.32755" lon="5.68939">
        <ele>800</ele>
        <time>2019-01-18T12:09:33.000Z</time>
      </trkpt>
      <trkpt lat="43.32756" lon="5.68939">
        <ele>799</ele>
        <time>2019-01-18T12:09:34.000Z</time>
      </trkpt>
      <trkpt lat="43.32756" lon="5.6894">
        <ele>799</ele>
        <time>2019-01-18T12:09:35.000Z</time>
      </trkpt>
      <trkpt lat="43.32757" lon="5.6894">
        <ele>799</ele>
        <time>2019-01-18T12:09:36.000Z</time>
      </trkpt>
      <trkpt lat="43.32757" lon="5.6894">
        <ele>799</ele>
        <time>2019-01-18T12:09:37.000Z</time>
      </trkpt>
      <trkpt lat="43.32758" lon="5.6894">
        <ele>799</ele>
        <time>2019-01-18T12:09:38.000Z</time>
      </trkpt>
      <trkpt lat="43.32758" lon="5.6894">
        <ele>799</ele>
        <time>2019-01-18T12:09:39.000Z</time>
      </trkpt>
      <trkpt lat="43.32758" lon="5.6894">
        <ele>799</ele>
        <time>2019-01-18T12:09:40.000Z</time>
      </trkpt>
      <trkpt lat="43.32759" lon="5.6894">
        <ele>799</ele>
        <time>2019-01-18T12:09:41.000Z</time>
      </trkpt>
      <trkpt lat="43.32759" lon="5.6894">
        <ele>799</ele>
        <time>2019-01-18T12:09:42.000Z</time>
      </trkpt>
      <trkpt lat="43.3276" lon="5.6894">
        <ele>798</ele>
        <time>2019-01-18T12:09:43.000Z</time>
      </trkpt>
      <trkpt lat="43.3276" lon="5.6894">
        <ele>798</ele>
        <time>2019-01-18T12:09:44.000Z</time>
      </trkpt>
      <trkpt lat="43.3276" lon="5.6894">
        <ele>798</ele>
        <time>2019-01-18T12:09:45.000Z</time>
      </trkpt>
      <trkpt lat="43.3276" lon="5.6894">
        <ele>798</ele>
        <time>2019-01-18T12:09:46.000Z</time>
      </trkpt>
      <trkpt lat="43.32761" lon="5.6894">
        <ele>798</ele>
        <time>2019-01-18T12:09:47.000Z</time>
      </trkpt>
      <trkpt lat="43.32761" lon="5.68941">
        <ele>798</ele>
        <time>2019-01-18T12:09:48.000Z</time>
      </trkpt>
      <trkpt lat="43.32762" lon="5.68941">
        <ele>798</ele>
        <time>2019-01-18T12:09:49.000Z</time>
      </trkpt>
      <trkpt lat="43.32762" lon="5.68942">
        <ele>798</ele>
        <time>2019-01-18T12:09:50.000Z</time>
      </trkpt>
      <trkpt lat="43.32762" lon="5.68942">
        <ele>798</ele>
        <time>2019-01-18T12:09:51.000Z</time>
      </trkpt>
      <trkpt lat="43.32762" lon="5.68942">
        <ele>797</ele>
        <time>2019-01-18T12:09:52.000Z</time>
      </trkpt>
      <trkpt lat="43.32762" lon="5.68942">
        <ele>797</ele>
        <time>2019-01-18T12:09:53.000Z</time>
      </trkpt>
      <trkpt lat="43.32762" lon="5.68943">
        <ele>797</ele>
        <time>2019-01-18T12:09:54.000Z</time>
      </trkpt>
      <trkpt lat="43.32763" lon="5.68943">
        <ele>797</ele>
        <time>2019-01-18T12:09:55.000Z</time>
      </trkpt>
      <trkpt lat="43.32763" lon="5.68944">
        <ele>797</ele>
        <time>2019-01-18T12:09:56.000Z</time>
      </trkpt>
      <trkpt lat="43.32763" lon="5.68944">
        <ele>797</ele>
        <time>2019-01-18T12:09:57.000Z</time>
      </trkpt>
      <trkpt lat="43.32763" lon="5.68944">
        <ele>797</ele>
        <time>2019-01-18T12:09:58.000Z</time>
      </trkpt>
      <trkpt lat="43.32763" lon="5.68944">
        <ele>797</ele>
        <time>2019-01-18T12:09:59.000Z</time>
      </trkpt>
      <trkpt lat="43.32763" lon="5.68944">
        <ele>797</ele>
        <time>2019-01-18T12:10:00.000Z</time>
      </trkpt>
      <trkpt lat="43.32763" lon="5.68944">
        <ele>797</ele>
        <time>2019-01-18T12:10:01.000Z</time>
      </trkpt>
      <trkpt lat="43.32763" lon="5.68944">
        <ele>797</ele>
        <time>2019-01-18T12:10:02.000Z</time>
      </trkpt>
      <trkpt lat="43.32763" lon="5.68944">
        <ele>797</ele>
        <time>2019-01-18T12:10:03.000Z</time>
      </trkpt>
      <trkpt lat="43.32763" lon="5.68944">
        <ele>796</ele>
        <time>2019-01-18T12:10:04.000Z</time>
      </trkpt>
      <trkpt lat="43.32763" lon="5.68945">
        <ele>796</ele>
        <time>2019-01-18T12:10:05.000Z</time>
      </trkpt>
      <trkpt lat="43.32763" lon="5.68945">
        <ele>796</ele>
        <time>2019-01-18T12:10:06.000Z</time>
      </trkpt>
      <trkpt lat="43.32763" lon="5.68945">
        <ele>796</ele>
        <time>2019-01-18T12:10:07.000Z</time>
      </trkpt>
      <trkpt lat="43.32763" lon="5.68945">
        <ele>796</ele>
        <time>2019-01-18T12:10:08.000Z</time>
      </trkpt>
      <trkpt lat="43.32763" lon="5.68945">
        <ele>796</ele>
        <time>2019-01-18T12:10:09.000Z</time>
      </trkpt>
      <trkpt lat="43.32763" lon="5.68945">
        <ele>796</ele>
        <time>2019-01-18T12:10:10.000Z</time>
      </trkpt>
      <trkpt lat="43.32763" lon="5.68945">
        <ele>796</ele>
        <time>2019-01-18T12:10:11.000Z</time>
      </trkpt>
      <trkpt lat="43.32763" lon="5.68945">
        <ele>796</ele>
        <time>2019-01-18T12:10:12.000Z</time>
      </trkpt>
      <trkpt lat="43.32763" lon="5.68945">
        <ele>796</ele>
        <time>2019-01-18T12:10:13.000Z</time>
      </trkpt>
      <trkpt lat="43.32763" lon="5.68945">
        <ele>796</ele>
        <time>2019-01-18T12:10:14.000Z</time>
      </trkpt>
      <trkpt lat="43.32763" lon="5.68945">
        <ele>796</ele>
        <time>2019-01-18T12:10:15.000Z</time>
      </trkpt>
      <trkpt lat="43.32763" lon="5.68945">
        <ele>796</ele>
        <time>2019-01-18T12:10:16.000Z</time>
      </trkpt>
      <trkpt lat="43.32763" lon="5.68945">
        <ele>796</ele>
        <time>2019-01-18T12:10:17.000Z</time>
      </trkpt>
      <trkpt lat="43.32763" lon="5.68946">
        <ele>796</ele>
        <time>2019-01-18T12:10:18.000Z</time>
      </trkpt>
      <trkpt lat="43.32763" lon="5.68945">
        <ele>796</ele>
        <time>2019-01-18T12:10:19.000Z</time>
      </trkpt>
      <trkpt lat="43.32763" lon="5.68945">
        <ele>796</ele>
        <time>2019-01-18T12:10:20.000Z</time>
      </trkpt>
      <trkpt lat="43.32763" lon="5.68945">
        <ele>796</ele>
        <time>2019-01-18T12:10:21.000Z</time>
      </trkpt>
      <trkpt lat="43.32763" lon="5.68946">
        <ele>796</ele>
        <time>2019-01-18T12:10:22.000Z</time>
      </trkpt>
      <trkpt lat="43.32763" lon="5.68946">
        <ele>796</ele>
        <time>2019-01-18T12:10:23.000Z</time>
      </trkpt>
      <trkpt lat="43.32763" lon="5.68946">
        <ele>796</ele>
        <time>2019-01-18T12:10:24.000Z</time>
      </trkpt>
      <trkpt lat="43.32763" lon="5.68947">
        <ele>796</ele>
        <time>2019-01-18T12:10:25.000Z</time>
      </trkpt>
      <trkpt lat="43.32763" lon="5.68948">
        <ele>796</ele>
        <time>2019-01-18T12:10:26.000Z</time>
      </trkpt>
      <trkpt lat="43.32763" lon="5.68948">
        <ele>796</ele>
        <time>2019-01-18T12:10:27.000Z</time>
      </trkpt>
      <trkpt lat="43.32763" lon="5.68949">
        <ele>796</ele>
        <time>2019-01-18T12:10:28.000Z</time>
      </trkpt>
      <trkpt lat="43.32763" lon="5.68949">
        <ele>796</ele>
        <time>2019-01-18T12:10:29.000Z</time>
      </trkpt>
      <trkpt lat="43.32763" lon="5.68949">
        <ele>796</ele>
        <time>2019-01-18T12:10:30.000Z</time>
      </trkpt>
      <trkpt lat="43.32763" lon="5.68949">
        <ele>796</ele>
        <time>2019-01-18T12:10:31.000Z</time>
      </trkpt>
      <trkpt lat="43.32763" lon="5.68949">
        <ele>796</ele>
        <time>2019-01-18T12:10:32.000Z</time>
      </trkpt>
      <trkpt lat="43.32762" lon="5.6895">
        <ele>796</ele>
        <time>2019-01-18T12:10:33.000Z</time>
      </trkpt>
      <trkpt lat="43.32762" lon="5.6895">
        <ele>796</ele>
        <time>2019-01-18T12:10:34.000Z</time>
      </trkpt>
      <trkpt lat="43.32762" lon="5.6895">
        <ele>796</ele>
        <time>2019-01-18T12:10:35.000Z</time>
      </trkpt>
      <trkpt lat="43.32762" lon="5.68951">
        <ele>796</ele>
        <time>2019-01-18T12:10:36.000Z</time>
      </trkpt>
      <trkpt lat="43.32762" lon="5.68951">
        <ele>796</ele>
        <time>2019-01-18T12:10:37.000Z</time>
      </trkpt>
      <trkpt lat="43.32762" lon="5.68952">
        <ele>796</ele>
        <time>2019-01-18T12:10:38.000Z</time>
      </trkpt>
      <trkpt lat="43.32762" lon="5.68952">
        <ele>796</ele>
        <time>2019-01-18T12:10:39.000Z</time>
      </trkpt>
      <trkpt lat="43.32761" lon="5.68952">
        <ele>796</ele>
        <time>2019-01-18T12:10:40.000Z</time>
      </trkpt>
      <trkpt lat="43.32761" lon="5.68953">
        <ele>796</ele>
        <time>2019-01-18T12:10:41.000Z</time>
      </trkpt>
      <trkpt lat="43.32761" lon="5.68953">
        <ele>797</ele>
        <time>2019-01-18T12:10:42.000Z</time>
      </trkpt>
      <trkpt lat="43.32761" lon="5.68953">
        <ele>797</ele>
        <time>2019-01-18T12:10:43.000Z</time>
      </trkpt>
      <trkpt lat="43.32762" lon="5.68953">
        <ele>797</ele>
        <time>2019-01-18T12:10:44.000Z</time>
      </trkpt>
      <trkpt lat="43.32761" lon="5.68953">
        <ele>797</ele>
        <time>2019-01-18T12:10:45.000Z</time>
      </trkpt>
      <trkpt lat="43.32762" lon="5.68952">
        <ele>797</ele>
        <time>2019-01-18T12:10:46.000Z</time>
      </trkpt>
      <trkpt lat="43.32762" lon="5.68952">
        <ele>797</ele>
        <time>2019-01-18T12:10:47.000Z</time>
      </trkpt>
      <trkpt lat="43.32762" lon="5.68952">
        <ele>797</ele>
        <time>2019-01-18T12:10:48.000Z</time>
      </trkpt>
      <trkpt lat="43.32762" lon="5.68952">
        <ele>797</ele>
        <time>2019-01-18T12:10:49.000Z</time>
      </trkpt>
      <trkpt lat="43.32762" lon="5.68952">
        <ele>797</ele>
        <time>2019-01-18T12:10:50.000Z</time>
      </trkpt>
      <trkpt lat="43.32762" lon="5.68953">
        <ele>797</ele>
        <time>2019-01-18T12:10:51.000Z</time>
      </trkpt>
      <trkpt lat="43.32762" lon="5.68953">
        <ele>797</ele>
        <time>2019-01-18T12:10:52.000Z</time>
      </trkpt>
      <trkpt lat="43.32762" lon="5.68953">
        <ele>797</ele>
        <time>2019-01-18T12:10:53.000Z</time>
      </trkpt>
      <trkpt lat="43.32762" lon="5.68953">
        <ele>797</ele>
        <time>2019-01-18T12:10:54.000Z</time>
      </trkpt>
      <trkpt lat="43.32763" lon="5.68953">
        <ele>797</ele>
        <time>2019-01-18T12:10:55.000Z</time>
      </trkpt>
      <trkpt lat="43.32763" lon="5.68953">
        <ele>797</ele>
        <time>2019-01-18T12:10:56.000Z</time>
      </trkpt>
      <trkpt lat="43.32763" lon="5.68953">
        <ele>797</ele>
        <time>2019-01-18T12:10:57.000Z</time>
      </trkpt>
      <trkpt lat="43.32763" lon="5.68953">
        <ele>797</ele>
        <time>2019-01-18T12:10:58.000Z</time>
      </trkpt>
      <trkpt lat="43.32763" lon="5.68953">
        <ele>798</ele>
        <time>2019-01-18T12:10:59.000Z</time>
      </trkpt>
      <trkpt lat="43.32763" lon="5.68953">
        <ele>798</ele>
        <time>2019-01-18T12:11:00.000Z</time>
      </trkpt>
      <trkpt lat="43.32763" lon="5.68953">
        <ele>798</ele>
        <time>2019-01-18T12:11:01.000Z</time>
      </trkpt>
      <trkpt lat="43.32763" lon="5.68953">
        <ele>798</ele>
        <time>2019-01-18T12:11:02.000Z</time>
      </trkpt>
      <trkpt lat="43.32763" lon="5.68953">
        <ele>798</ele>
        <time>2019-01-18T12:11:03.000Z</time>
      </trkpt>
      <trkpt lat="43.32763" lon="5.68953">
        <ele>798</ele>
        <time>2019-01-18T12:11:04.000Z</time>
      </trkpt>
      <trkpt lat="43.32763" lon="5.68953">
        <ele>798</ele>
        <time>2019-01-18T12:11:05.000Z</time>
      </trkpt>
      <trkpt lat="43.32763" lon="5.68953">
        <ele>798</ele>
        <time>2019-01-18T12:11:06.000Z</time>
      </trkpt>
      <trkpt lat="43.32763" lon="5.68953">
        <ele>798</ele>
        <time>2019-01-18T12:11:07.000Z</time>
      </trkpt>
      <trkpt lat="43.32763" lon="5.68953">
        <ele>798</ele>
        <time>2019-01-18T12:11:08.000Z</time>
      </trkpt>
      <trkpt lat="43.32763" lon="5.68953">
        <ele>798</ele>
        <time>2019-01-18T12:11:09.000Z</time>
      </trkpt>
      <trkpt lat="43.32763" lon="5.68953">
        <ele>798</ele>
        <time>2019-01-18T12:11:10.000Z</time>
      </trkpt>
      <trkpt lat="43.32763" lon="5.68953">
        <ele>798</ele>
        <time>2019-01-18T12:11:11.000Z</time>
      </trkpt>
      <trkpt lat="43.32763" lon="5.68953">
        <ele>798</ele>
        <time>2019-01-18T12:11:12.000Z</time>
      </trkpt>
      <trkpt lat="43.32763" lon="5.68953">
        <ele>798</ele>
        <time>2019-01-18T12:11:13.000Z</time>
      </trkpt>
      <trkpt lat="43.32763" lon="5.68953">
        <ele>798</ele>
        <time>2019-01-18T12:11:14.000Z</time>
      </trkpt>
      <trkpt lat="43.32764" lon="5.68953">
        <ele>798</ele>
        <time>2019-01-18T12:11:15.000Z</time>
      </trkpt>
      <trkpt lat="43.32763" lon="5.68953">
        <ele>798</ele>
        <time>2019-01-18T12:11:16.000Z</time>
      </trkpt>
      <trkpt lat="43.32764" lon="5.68954">
        <ele>798</ele>
        <time>2019-01-18T12:11:17.000Z</time>
      </trkpt>
      <trkpt lat="43.32764" lon="5.68954">
        <ele>798</ele>
        <time>2019-01-18T12:11:18.000Z</time>
      </trkpt>
      <trkpt lat="43.32763" lon="5.68954">
        <ele>798</ele>
        <time>2019-01-18T12:11:19.000Z</time>
      </trkpt>
      <trkpt lat="43.32763" lon="5.68954">
        <ele>798</ele>
        <time>2019-01-18T12:11:20.000Z</time>
      </trkpt>
      <trkpt lat="43.32764" lon="5.68955">
        <ele>798</ele>
        <time>2019-01-18T12:11:21.000Z</time>
      </trkpt>
      <trkpt lat="43.32763" lon="5.68955">
        <ele>799</ele>
        <time>2019-01-18T12:11:22.000Z</time>
      </trkpt>
      <trkpt lat="43.32763" lon="5.68955">
        <ele>799</ele>
        <time>2019-01-18T12:11:23.000Z</time>
      </trkpt>
      <trkpt lat="43.32764" lon="5.68955">
        <ele>799</ele>
        <time>2019-01-18T12:11:24.000Z</time>
      </trkpt>
      <trkpt lat="43.32763" lon="5.68956">
        <ele>799</ele>
        <time>2019-01-18T12:11:25.000Z</time>
      </trkpt>
      <trkpt lat="43.32764" lon="5.68957">
        <ele>799</ele>
        <time>2019-01-18T12:11:26.000Z</time>
      </trkpt>
      <trkpt lat="43.32763" lon="5.68958">
        <ele>799</ele>
        <time>2019-01-18T12:11:27.000Z</time>
      </trkpt>
      <trkpt lat="43.32763" lon="5.68958">
        <ele>800</ele>
        <time>2019-01-18T12:11:28.000Z</time>
      </trkpt>
      <trkpt lat="43.32762" lon="5.68958">
        <ele>800</ele>
        <time>2019-01-18T12:11:29.000Z</time>
      </trkpt>
      <trkpt lat="43.32762" lon="5.68958">
        <ele>800</ele>
        <time>2019-01-18T12:11:30.000Z</time>
      </trkpt>
      <trkpt lat="43.32762" lon="5.68958">
        <ele>800</ele>
        <time>2019-01-18T12:11:31.000Z</time>
      </trkpt>
      <trkpt lat="43.32762" lon="5.68959">
        <ele>800</ele>
        <time>2019-01-18T12:11:32.000Z</time>
      </trkpt>
      <trkpt lat="43.32762" lon="5.68959">
        <ele>800</ele>
        <time>2019-01-18T12:11:33.000Z</time>
      </trkpt>
      <trkpt lat="43.32762" lon="5.68959">
        <ele>800</ele>
        <time>2019-01-18T12:11:34.000Z</time>
      </trkpt>
      <trkpt lat="43.32762" lon="5.68959">
        <ele>800</ele>
        <time>2019-01-18T12:11:35.000Z</time>
      </trkpt>
      <trkpt lat="43.32762" lon="5.68959">
        <ele>800</ele>
        <time>2019-01-18T12:11:36.000Z</time>
      </trkpt>
      <trkpt lat="43.32762" lon="5.68959">
        <ele>800</ele>
        <time>2019-01-18T12:11:37.000Z</time>
      </trkpt>
      <trkpt lat="43.32762" lon="5.68959">
        <ele>800</ele>
        <time>2019-01-18T12:11:38.000Z</time>
      </trkpt>
      <trkpt lat="43.32762" lon="5.68959">
        <ele>800</ele>
        <time>2019-01-18T12:11:39.000Z</time>
      </trkpt>
      <trkpt lat="43.32762" lon="5.68959">
        <ele>800</ele>
        <time>2019-01-18T12:11:40.000Z</time>
      </trkpt>
      <trkpt lat="43.32762" lon="5.68959">
        <ele>800</ele>
        <time>2019-01-18T12:11:41.000Z</time>
      </trkpt>
      <trkpt lat="43.32762" lon="5.68959">
        <ele>800</ele>
        <time>2019-01-18T12:11:42.000Z</time>
      </trkpt>
      <trkpt lat="43.32762" lon="5.68959">
        <ele>800</ele>
        <time>2019-01-18T12:11:43.000Z</time>
      </trkpt>
      <trkpt lat="43.32762" lon="5.68959">
        <ele>800</ele>
        <time>2019-01-18T12:11:44.000Z</time>
      </trkpt>
      <trkpt lat="43.32762" lon="5.68959">
        <ele>800</ele>
        <time>2019-01-18T12:11:45.000Z</time>
      </trkpt>
      <trkpt lat="43.32762" lon="5.68958">
        <ele>800</ele>
        <time>2019-01-18T12:11:46.000Z</time>
      </trkpt>
      <trkpt lat="43.32762" lon="5.68958">
        <ele>800</ele>
        <time>2019-01-18T12:11:47.000Z</time>
      </trkpt>
      <trkpt lat="43.32762" lon="5.68958">
        <ele>800</ele>
        <time>2019-01-18T12:11:48.000Z</time>
      </trkpt>
      <trkpt lat="43.32762" lon="5.68958">
        <ele>800</ele>
        <time>2019-01-18T12:11:49.000Z</time>
      </trkpt>
      <trkpt lat="43.32762" lon="5.68958">
        <ele>800</ele>
        <time>2019-01-18T12:11:50.000Z</time>
      </trkpt>
      <trkpt lat="43.32762" lon="5.68958">
        <ele>800</ele>
        <time>2019-01-18T12:11:51.000Z</time>
      </trkpt>
      <trkpt lat="43.32762" lon="5.68958">
        <ele>800</ele>
        <time>2019-01-18T12:11:52.000Z</time>
      </trkpt>
      <trkpt lat="43.32762" lon="5.68958">
        <ele>800</ele>
        <time>2019-01-18T12:11:53.000Z</time>
      </trkpt>
      <trkpt lat="43.32762" lon="5.68958">
        <ele>800</ele>
        <time>2019-01-18T12:11:54.000Z</time>
      </trkpt>
      <trkpt lat="43.32762" lon="5.68958">
        <ele>800</ele>
        <time>2019-01-18T12:11:55.000Z</time>
      </trkpt>
      <trkpt lat="43.32762" lon="5.68959">
        <ele>800</ele>
        <time>2019-01-18T12:11:56.000Z</time>
      </trkpt>
      <trkpt lat="43.32762" lon="5.68959">
        <ele>800</ele>
        <time>2019-01-18T12:11:57.000Z</time>
      </trkpt>
      <trkpt lat="43.32762" lon="5.6896">
        <ele>801</ele>
        <time>2019-01-18T12:11:58.000Z</time>
      </trkpt>
      <trkpt lat="43.32762" lon="5.6896">
        <ele>801</ele>
        <time>2019-01-18T12:11:59.000Z</time>
      </trkpt>
      <trkpt lat="43.32762" lon="5.6896">
        <ele>801</ele>
        <time>2019-01-18T12:12:00.000Z</time>
      </trkpt>
      <trkpt lat="43.32762" lon="5.6896">
        <ele>801</ele>
        <time>2019-01-18T12:12:01.000Z</time>
      </trkpt>
      <trkpt lat="43.32762" lon="5.6896">
        <ele>801</ele>
        <time>2019-01-18T12:12:02.000Z</time>
      </trkpt>
      <trkpt lat="43.32762" lon="5.6896">
        <ele>801</ele>
        <time>2019-01-18T12:12:03.000Z</time>
      </trkpt>
      <trkpt lat="43.32763" lon="5.68961">
        <ele>801</ele>
        <time>2019-01-18T12:12:04.000Z</time>
      </trkpt>
      <trkpt lat="43.32762" lon="5.68961">
        <ele>801</ele>
        <time>2019-01-18T12:12:05.000Z</time>
      </trkpt>
      <trkpt lat="43.32762" lon="5.68962">
        <ele>801</ele>
        <time>2019-01-18T12:12:06.000Z</time>
      </trkpt>
      <trkpt lat="43.32762" lon="5.68962">
        <ele>801</ele>
        <time>2019-01-18T12:12:07.000Z</time>
      </trkpt>
      <trkpt lat="43.32762" lon="5.68963">
        <ele>802</ele>
        <time>2019-01-18T12:12:08.000Z</time>
      </trkpt>
      <trkpt lat="43.32762" lon="5.68963">
        <ele>802</ele>
        <time>2019-01-18T12:12:09.000Z</time>
      </trkpt>
      <trkpt lat="43.32763" lon="5.68962">
        <ele>802</ele>
        <time>2019-01-18T12:12:10.000Z</time>
      </trkpt>
      <trkpt lat="43.32763" lon="5.68962">
        <ele>802</ele>
        <time>2019-01-18T12:12:11.000Z</time>
      </trkpt>
      <trkpt lat="43.32763" lon="5.68962">
        <ele>802</ele>
        <time>2019-01-18T12:12:12.000Z</time>
      </trkpt>
      <trkpt lat="43.32763" lon="5.68962">
        <ele>802</ele>
        <time>2019-01-18T12:12:13.000Z</time>
      </trkpt>
      <trkpt lat="43.32763" lon="5.68962">
        <ele>802</ele>
        <time>2019-01-18T12:12:14.000Z</time>
      </trkpt>
      <trkpt lat="43.32763" lon="5.68962">
        <ele>802</ele>
        <time>2019-01-18T12:12:15.000Z</time>
      </trkpt>
      <trkpt lat="43.32764" lon="5.68962">
        <ele>803</ele>
        <time>2019-01-18T12:12:16.000Z</time>
      </trkpt>
      <trkpt lat="43.32764" lon="5.68962">
        <ele>803</ele>
        <time>2019-01-18T12:12:17.000Z</time>
      </trkpt>
      <trkpt lat="43.32764" lon="5.68963">
        <ele>803</ele>
        <time>2019-01-18T12:12:18.000Z</time>
      </trkpt>
      <trkpt lat="43.32765" lon="5.68963">
        <ele>803</ele>
        <time>2019-01-18T12:12:19.000Z</time>
      </trkpt>
      <trkpt lat="43.32765" lon="5.68964">
        <ele>803</ele>
        <time>2019-01-18T12:12:20.000Z</time>
      </trkpt>
      <trkpt lat="43.32766" lon="5.68965">
        <ele>803</ele>
        <time>2019-01-18T12:12:21.000Z</time>
      </trkpt>
      <trkpt lat="43.32766" lon="5.68966">
        <ele>804</ele>
        <time>2019-01-18T12:12:22.000Z</time>
      </trkpt>
      <trkpt lat="43.32766" lon="5.68966">
        <ele>804</ele>
        <time>2019-01-18T12:12:23.000Z</time>
      </trkpt>
      <trkpt lat="43.32766" lon="5.68966">
        <ele>804</ele>
        <time>2019-01-18T12:12:24.000Z</time>
      </trkpt>
      <trkpt lat="43.32766" lon="5.68966">
        <ele>804</ele>
        <time>2019-01-18T12:12:25.000Z</time>
      </trkpt>
      <trkpt lat="43.32766" lon="5.68966">
        <ele>804</ele>
        <time>2019-01-18T12:12:26.000Z</time>
      </trkpt>
      <trkpt lat="43.32766" lon="5.68966">
        <ele>804</ele>
        <time>2019-01-18T12:12:27.000Z</time>
      </trkpt>
      <trkpt lat="43.32766" lon="5.68966">
        <ele>804</ele>
        <time>2019-01-18T12:12:28.000Z</time>
      </trkpt>
      <trkpt lat="43.32765" lon="5.68966">
        <ele>804</ele>
        <time>2019-01-18T12:12:29.000Z</time>
      </trkpt>
      <trkpt lat="43.32765" lon="5.68966">
        <ele>804</ele>
        <time>2019-01-18T12:12:30.000Z</time>
      </trkpt>
      <trkpt lat="43.32764" lon="5.68966">
        <ele>804</ele>
        <time>2019-01-18T12:12:31.000Z</time>
      </trkpt>
      <trkpt lat="43.32764" lon="5.68966">
        <ele>804</ele>
        <time>2019-01-18T12:12:32.000Z</time>
      </trkpt>
      <trkpt lat="43.32764" lon="5.68966">
        <ele>804</ele>
        <time>2019-01-18T12:12:33.000Z</time>
      </trkpt>
      <trkpt lat="43.32764" lon="5.68966">
        <ele>804</ele>
        <time>2019-01-18T12:12:34.000Z</time>
      </trkpt>
      <trkpt lat="43.32764" lon="5.68966">
        <ele>804</ele>
        <time>2019-01-18T12:12:35.000Z</time>
      </trkpt>
      <trkpt lat="43.32764" lon="5.68966">
        <ele>804</ele>
        <time>2019-01-18T12:12:36.000Z</time>
      </trkpt>
      <trkpt lat="43.32764" lon="5.68966">
        <ele>804</ele>
        <time>2019-01-18T12:12:37.000Z</time>
      </trkpt>
      <trkpt lat="43.32765" lon="5.68966">
        <ele>804</ele>
        <time>2019-01-18T12:12:38.000Z</time>
      </trkpt>
      <trkpt lat="43.32764" lon="5.68967">
        <ele>804</ele>
        <time>2019-01-18T12:12:39.000Z</time>
      </trkpt>
      <trkpt lat="43.32764" lon="5.68967">
        <ele>804</ele>
        <time>2019-01-18T12:12:40.000Z</time>
      </trkpt>
      <trkpt lat="43.32764" lon="5.68967">
        <ele>804</ele>
        <time>2019-01-18T12:12:41.000Z</time>
      </trkpt>
      <trkpt lat="43.32764" lon="5.68967">
        <ele>805</ele>
        <time>2019-01-18T12:12:42.000Z</time>
      </trkpt>
      <trkpt lat="43.32765" lon="5.68967">
        <ele>805</ele>
        <time>2019-01-18T12:12:43.000Z</time>
      </trkpt>
      <trkpt lat="43.32764" lon="5.68967">
        <ele>805</ele>
        <time>2019-01-18T12:12:44.000Z</time>
      </trkpt>
      <trkpt lat="43.32764" lon="5.68967">
        <ele>805</ele>
        <time>2019-01-18T12:12:45.000Z</time>
      </trkpt>
      <trkpt lat="43.32764" lon="5.68967">
        <ele>805</ele>
        <time>2019-01-18T12:12:46.000Z</time>
      </trkpt>
      <trkpt lat="43.32764" lon="5.68967">
        <ele>805</ele>
        <time>2019-01-18T12:12:47.000Z</time>
      </trkpt>
      <trkpt lat="43.32764" lon="5.68967">
        <ele>805</ele>
        <time>2019-01-18T12:12:48.000Z</time>
      </trkpt>
      <trkpt lat="43.32764" lon="5.68967">
        <ele>805</ele>
        <time>2019-01-18T12:12:49.000Z</time>
      </trkpt>
      <trkpt lat="43.32764" lon="5.68967">
        <ele>805</ele>
        <time>2019-01-18T12:12:50.000Z</time>
      </trkpt>
      <trkpt lat="43.32764" lon="5.68968">
        <ele>805</ele>
        <time>2019-01-18T12:12:51.000Z</time>
      </trkpt>
      <trkpt lat="43.32764" lon="5.68968">
        <ele>805</ele>
        <time>2019-01-18T12:12:52.000Z</time>
      </trkpt>
      <trkpt lat="43.32764" lon="5.68968">
        <ele>805</ele>
        <time>2019-01-18T12:12:53.000Z</time>
      </trkpt>
      <trkpt lat="43.32765" lon="5.68968">
        <ele>805</ele>
        <time>2019-01-18T12:12:54.000Z</time>
      </trkpt>
      <trkpt lat="43.32765" lon="5.68968">
        <ele>805</ele>
        <time>2019-01-18T12:12:55.000Z</time>
      </trkpt>
      <trkpt lat="43.32765" lon="5.68968">
        <ele>805</ele>
        <time>2019-01-18T12:12:56.000Z</time>
      </trkpt>
      <trkpt lat="43.32765" lon="5.68968">
        <ele>805</ele>
        <time>2019-01-18T12:12:57.000Z</time>
      </trkpt>
      <trkpt lat="43.32765" lon="5.68968">
        <ele>805</ele>
        <time>2019-01-18T12:12:58.000Z</time>
      </trkpt>
      <trkpt lat="43.32765" lon="5.68968">
        <ele>805</ele>
        <time>2019-01-18T12:12:59.000Z</time>
      </trkpt>
      <trkpt lat="43.32765" lon="5.68969">
        <ele>805</ele>
        <time>2019-01-18T12:13:00.000Z</time>
      </trkpt>
      <trkpt lat="43.32765" lon="5.6897">
        <ele>805</ele>
        <time>2019-01-18T12:13:01.000Z</time>
      </trkpt>
      <trkpt lat="43.32765" lon="5.68969">
        <ele>805</ele>
        <time>2019-01-18T12:13:02.000Z</time>
      </trkpt>
      <trkpt lat="43.32765" lon="5.6897">
        <ele>805</ele>
        <time>2019-01-18T12:13:03.000Z</time>
      </trkpt>
      <trkpt lat="43.32765" lon="5.6897">
        <ele>805</ele>
        <time>2019-01-18T12:13:04.000Z</time>
      </trkpt>
      <trkpt lat="43.32765" lon="5.6897">
        <ele>805</ele>
        <time>2019-01-18T12:13:05.000Z</time>
      </trkpt>
      <trkpt lat="43.32765" lon="5.6897">
        <ele>805</ele>
        <time>2019-01-18T12:13:06.000Z</time>
      </trkpt>
      <trkpt lat="43.32765" lon="5.6897">
        <ele>805</ele>
        <time>2019-01-18T12:13:07.000Z</time>
      </trkpt>
      <trkpt lat="43.32765" lon="5.6897">
        <ele>805</ele>
        <time>2019-01-18T12:13:08.000Z</time>
      </trkpt>
      <trkpt lat="43.32765" lon="5.6897">
        <ele>805</ele>
        <time>2019-01-18T12:13:09.000Z</time>
      </trkpt>
      <trkpt lat="43.32765" lon="5.68969">
        <ele>805</ele>
        <time>2019-01-18T12:13:10.000Z</time>
      </trkpt>
      <trkpt lat="43.32765" lon="5.68969">
        <ele>806</ele>
        <time>2019-01-18T12:13:11.000Z</time>
      </trkpt>
      <trkpt lat="43.32765" lon="5.68969">
        <ele>806</ele>
        <time>2019-01-18T12:13:12.000Z</time>
      </trkpt>
      <trkpt lat="43.32765" lon="5.68969">
        <ele>806</ele>
        <time>2019-01-18T12:13:13.000Z</time>
      </trkpt>
      <trkpt lat="43.32765" lon="5.6897">
        <ele>806</ele>
        <time>2019-01-18T12:13:14.000Z</time>
      </trkpt>
      <trkpt lat="43.32765" lon="5.6897">
        <ele>806</ele>
        <time>2019-01-18T12:13:15.000Z</time>
      </trkpt>
      <trkpt lat="43.32765" lon="5.6897">
        <ele>806</ele>
        <time>2019-01-18T12:13:16.000Z</time>
      </trkpt>
      <trkpt lat="43.32765" lon="5.6897">
        <ele>806</ele>
        <time>2019-01-18T12:13:17.000Z</time>
      </trkpt>
      <trkpt lat="43.32765" lon="5.6897">
        <ele>806</ele>
        <time>2019-01-18T12:13:18.000Z</time>
      </trkpt>
      <trkpt lat="43.32765" lon="5.6897">
        <ele>806</ele>
        <time>2019-01-18T12:13:19.000Z</time>
      </trkpt>
      <trkpt lat="43.32765" lon="5.6897">
        <ele>806</ele>
        <time>2019-01-18T12:13:20.000Z</time>
      </trkpt>
      <trkpt lat="43.32765" lon="5.6897">
        <ele>806</ele>
        <time>2019-01-18T12:13:21.000Z</time>
      </trkpt>
      <trkpt lat="43.32765" lon="5.6897">
        <ele>806</ele>
        <time>2019-01-18T12:13:22.000Z</time>
      </trkpt>
      <trkpt lat="43.32765" lon="5.6897">
        <ele>806</ele>
        <time>2019-01-18T12:13:23.000Z</time>
      </trkpt>
      <trkpt lat="43.32765" lon="5.6897">
        <ele>806</ele>
        <time>2019-01-18T12:13:24.000Z</time>
      </trkpt>
      <trkpt lat="43.32765" lon="5.6897">
        <ele>806</ele>
        <time>2019-01-18T12:13:25.000Z</time>
      </trkpt>
      <trkpt lat="43.32765" lon="5.6897">
        <ele>806</ele>
        <time>2019-01-18T12:13:26.000Z</time>
      </trkpt>
      <trkpt lat="43.32765" lon="5.6897">
        <ele>806</ele>
        <time>2019-01-18T12:13:27.000Z</time>
      </trkpt>
      <trkpt lat="43.32765" lon="5.6897">
        <ele>806</ele>
        <time>2019-01-18T12:13:28.000Z</time>
      </trkpt>
      <trkpt lat="43.32765" lon="5.68971">
        <ele>806</ele>
        <time>2019-01-18T12:13:29.000Z</time>
      </trkpt>
      <trkpt lat="43.32765" lon="5.68972">
        <ele>807</ele>
        <time>2019-01-18T12:13:30.000Z</time>
      </trkpt>
      <trkpt lat="43.32765" lon="5.68973">
        <ele>807</ele>
        <time>2019-01-18T12:13:31.000Z</time>
      </trkpt>
      <trkpt lat="43.32765" lon="5.68974">
        <ele>807</ele>
        <time>2019-01-18T12:13:32.000Z</time>
      </trkpt>
      <trkpt lat="43.32765" lon="5.68975">
        <ele>807</ele>
        <time>2019-01-18T12:13:33.000Z</time>
      </trkpt>
      <trkpt lat="43.32764" lon="5.68976">
        <ele>807</ele>
        <time>2019-01-18T12:13:34.000Z</time>
      </trkpt>
      <trkpt lat="43.32765" lon="5.68976">
        <ele>807</ele>
        <time>2019-01-18T12:13:35.000Z</time>
      </trkpt>
      <trkpt lat="43.32765" lon="5.68976">
        <ele>807</ele>
        <time>2019-01-18T12:13:36.000Z</time>
      </trkpt>
      <trkpt lat="43.32765" lon="5.68976">
        <ele>807</ele>
        <time>2019-01-18T12:13:37.000Z</time>
      </trkpt>
      <trkpt lat="43.32764" lon="5.68976">
        <ele>807</ele>
        <time>2019-01-18T12:13:38.000Z</time>
      </trkpt>
      <trkpt lat="43.32765" lon="5.68977">
        <ele>808</ele>
        <time>2019-01-18T12:13:39.000Z</time>
      </trkpt>
      <trkpt lat="43.32765" lon="5.68977">
        <ele>808</ele>
        <time>2019-01-18T12:13:40.000Z</time>
      </trkpt>
      <trkpt lat="43.32765" lon="5.68977">
        <ele>808</ele>
        <time>2019-01-18T12:13:41.000Z</time>
      </trkpt>
      <trkpt lat="43.32765" lon="5.68977">
        <ele>808</ele>
        <time>2019-01-18T12:13:42.000Z</time>
      </trkpt>
      <trkpt lat="43.32765" lon="5.68978">
        <ele>808</ele>
        <time>2019-01-18T12:13:43.000Z</time>
      </trkpt>
      <trkpt lat="43.32765" lon="5.68978">
        <ele>808</ele>
        <time>2019-01-18T12:13:44.000Z</time>
      </trkpt>
      <trkpt lat="43.32765" lon="5.68979">
        <ele>809</ele>
        <time>2019-01-18T12:13:45.000Z</time>
      </trkpt>
      <trkpt lat="43.32765" lon="5.6898">
        <ele>809</ele>
        <time>2019-01-18T12:13:46.000Z</time>
      </trkpt>
      <trkpt lat="43.32765" lon="5.6898">
        <ele>809</ele>
        <time>2019-01-18T12:13:47.000Z</time>
      </trkpt>
      <trkpt lat="43.32765" lon="5.6898">
        <ele>809</ele>
        <time>2019-01-18T12:13:48.000Z</time>
      </trkpt>
      <trkpt lat="43.32765" lon="5.68981">
        <ele>809</ele>
        <time>2019-01-18T12:13:49.000Z</time>
      </trkpt>
      <trkpt lat="43.32765" lon="5.68981">
        <ele>809</ele>
        <time>2019-01-18T12:13:50.000Z</time>
      </trkpt>
      <trkpt lat="43.32765" lon="5.68982">
        <ele>810</ele>
        <time>2019-01-18T12:13:51.000Z</time>
      </trkpt>
      <trkpt lat="43.32766" lon="5.68982">
        <ele>810</ele>
        <time>2019-01-18T12:13:52.000Z</time>
      </trkpt>
      <trkpt lat="43.32766" lon="5.68982">
        <ele>810</ele>
        <time>2019-01-18T12:13:53.000Z</time>
      </trkpt>
      <trkpt lat="43.32767" lon="5.68983">
        <ele>810</ele>
        <time>2019-01-18T12:13:54.000Z</time>
      </trkpt>
      <trkpt lat="43.32767" lon="5.68984">
        <ele>811</ele>
        <time>2019-01-18T12:13:55.000Z</time>
      </trkpt>
      <trkpt lat="43.32768" lon="5.68984">
        <ele>811</ele>
        <time>2019-01-18T12:13:56.000Z</time>
      </trkpt>
      <trkpt lat="43.32768" lon="5.68985">
        <ele>811</ele>
        <time>2019-01-18T12:13:57.000Z</time>
      </trkpt>
      <trkpt lat="43.32768" lon="5.68986">
        <ele>812</ele>
        <time>2019-01-18T12:13:58.000Z</time>
      </trkpt>
      <trkpt lat="43.32769" lon="5.68986">
        <ele>812</ele>
        <time>2019-01-18T12:13:59.000Z</time>
      </trkpt>
      <trkpt lat="43.32769" lon="5.68986">
        <ele>812</ele>
        <time>2019-01-18T12:14:00.000Z</time>
      </trkpt>
      <trkpt lat="43.32769" lon="5.68987">
        <ele>813</ele>
        <time>2019-01-18T12:14:01.000Z</time>
      </trkpt>
      <trkpt lat="43.32769" lon="5.68988">
        <ele>813</ele>
        <time>2019-01-18T12:14:02.000Z</time>
      </trkpt>
      <trkpt lat="43.32769" lon="5.68989">
        <ele>814</ele>
        <time>2019-01-18T12:14:03.000Z</time>
      </trkpt>
      <trkpt lat="43.32769" lon="5.6899">
        <ele>814</ele>
        <time>2019-01-18T12:14:04.000Z</time>
      </trkpt>
      <trkpt lat="43.32769" lon="5.68991">
        <ele>814</ele>
        <time>2019-01-18T12:14:05.000Z</time>
      </trkpt>
      <trkpt lat="43.32769" lon="5.68992">
        <ele>815</ele>
        <time>2019-01-18T12:14:06.000Z</time>
      </trkpt>
      <trkpt lat="43.32769" lon="5.68992">
        <ele>815</ele>
        <time>2019-01-18T12:14:07.000Z</time>
      </trkpt>
      <trkpt lat="43.32769" lon="5.68992">
        <ele>815</ele>
        <time>2019-01-18T12:14:08.000Z</time>
      </trkpt>
      <trkpt lat="43.32769" lon="5.68992">
        <ele>816</ele>
        <time>2019-01-18T12:14:09.000Z</time>
      </trkpt>
      <trkpt lat="43.32769" lon="5.68992">
        <ele>816</ele>
        <time>2019-01-18T12:14:10.000Z</time>
      </trkpt>
      <trkpt lat="43.32769" lon="5.68992">
        <ele>816</ele>
        <time>2019-01-18T12:14:11.000Z</time>
      </trkpt>
      <trkpt lat="43.32769" lon="5.68992">
        <ele>816</ele>
        <time>2019-01-18T12:14:12.000Z</time>
      </trkpt>
      <trkpt lat="43.32768" lon="5.68992">
        <ele>816</ele>
        <time>2019-01-18T12:14:13.000Z</time>
      </trkpt>
      <trkpt lat="43.32768" lon="5.68991">
        <ele>817</ele>
        <time>2019-01-18T12:14:14.000Z</time>
      </trkpt>
      <trkpt lat="43.32768" lon="5.68991">
        <ele>817</ele>
        <time>2019-01-18T12:14:15.000Z</time>
      </trkpt>
      <trkpt lat="43.32768" lon="5.68991">
        <ele>817</ele>
        <time>2019-01-18T12:14:16.000Z</time>
      </trkpt>
      <trkpt lat="43.32767" lon="5.68992">
        <ele>817</ele>
        <time>2019-01-18T12:14:17.000Z</time>
      </trkpt>
      <trkpt lat="43.32767" lon="5.68992">
        <ele>817</ele>
        <time>2019-01-18T12:14:18.000Z</time>
      </trkpt>
      <trkpt lat="43.32767" lon="5.68992">
        <ele>817</ele>
        <time>2019-01-18T12:14:19.000Z</time>
      </trkpt>
      <trkpt lat="43.32767" lon="5.68992">
        <ele>818</ele>
        <time>2019-01-18T12:14:20.000Z</time>
      </trkpt>
      <trkpt lat="43.32767" lon="5.68992">
        <ele>818</ele>
        <time>2019-01-18T12:14:21.000Z</time>
      </trkpt>
      <trkpt lat="43.32767" lon="5.68992">
        <ele>818</ele>
        <time>2019-01-18T12:14:22.000Z</time>
      </trkpt>
      <trkpt lat="43.32767" lon="5.68992">
        <ele>818</ele>
        <time>2019-01-18T12:14:23.000Z</time>
      </trkpt>
      <trkpt lat="43.32766" lon="5.68992">
        <ele>818</ele>
        <time>2019-01-18T12:14:24.000Z</time>
      </trkpt>
      <trkpt lat="43.32766" lon="5.68992">
        <ele>818</ele>
        <time>2019-01-18T12:14:25.000Z</time>
      </trkpt>
      <trkpt lat="43.32766" lon="5.68991">
        <ele>818</ele>
        <time>2019-01-18T12:14:26.000Z</time>
      </trkpt>
      <trkpt lat="43.32766" lon="5.68991">
        <ele>818</ele>
        <time>2019-01-18T12:14:27.000Z</time>
      </trkpt>
      <trkpt lat="43.32766" lon="5.6899">
        <ele>818</ele>
        <time>2019-01-18T12:14:28.000Z</time>
      </trkpt>
      <trkpt lat="43.32765" lon="5.68989">
        <ele>818</ele>
        <time>2019-01-18T12:14:29.000Z</time>
      </trkpt>
      <trkpt lat="43.32765" lon="5.68988">
        <ele>818</ele>
        <time>2019-01-18T12:14:30.000Z</time>
      </trkpt>
      <trkpt lat="43.32764" lon="5.68988">
        <ele>819</ele>
        <time>2019-01-18T12:14:31.000Z</time>
      </trkpt>
      <trkpt lat="43.32764" lon="5.68987">
        <ele>819</ele>
        <time>2019-01-18T12:14:32.000Z</time>
      </trkpt>
      <trkpt lat="43.32763" lon="5.68986">
        <ele>819</ele>
        <time>2019-01-18T12:14:33.000Z</time>
      </trkpt>
      <trkpt lat="43.32763" lon="5.68986">
        <ele>819</ele>
        <time>2019-01-18T12:14:34.000Z</time>
      </trkpt>
      <trkpt lat="43.32762" lon="5.68985">
        <ele>819</ele>
        <time>2019-01-18T12:14:35.000Z</time>
      </trkpt>
      <trkpt lat="43.32762" lon="5.68985">
        <ele>819</ele>
        <time>2019-01-18T12:14:36.000Z</time>
      </trkpt>
      <trkpt lat="43.32761" lon="5.68985">
        <ele>819</ele>
        <time>2019-01-18T12:14:37.000Z</time>
      </trkpt>
      <trkpt lat="43.32761" lon="5.68985">
        <ele>819</ele>
        <time>2019-01-18T12:14:38.000Z</time>
      </trkpt>
      <trkpt lat="43.3276" lon="5.68985">
        <ele>819</ele>
        <time>2019-01-18T12:14:39.000Z</time>
      </trkpt>
      <trkpt lat="43.32759" lon="5.68984">
        <ele>820</ele>
        <time>2019-01-18T12:14:40.000Z</time>
      </trkpt>
      <trkpt lat="43.32759" lon="5.68984">
        <ele>820</ele>
        <time>2019-01-18T12:14:41.000Z</time>
      </trkpt>
      <trkpt lat="43.32758" lon="5.68983">
        <ele>820</ele>
        <time>2019-01-18T12:14:42.000Z</time>
      </trkpt>
      <trkpt lat="43.32757" lon="5.68983">
        <ele>820</ele>
        <time>2019-01-18T12:14:43.000Z</time>
      </trkpt>
      <trkpt lat="43.32757" lon="5.68983">
        <ele>821</ele>
        <time>2019-01-18T12:14:44.000Z</time>
      </trkpt>
      <trkpt lat="43.32757" lon="5.68983">
        <ele>821</ele>
        <time>2019-01-18T12:14:45.000Z</time>
      </trkpt>
      <trkpt lat="43.32757" lon="5.68984">
        <ele>821</ele>
        <time>2019-01-18T12:14:46.000Z</time>
      </trkpt>
      <trkpt lat="43.32756" lon="5.68984">
        <ele>821</ele>
        <time>2019-01-18T12:14:47.000Z</time>
      </trkpt>
      <trkpt lat="43.32756" lon="5.68985">
        <ele>821</ele>
        <time>2019-01-18T12:14:48.000Z</time>
      </trkpt>
      <trkpt lat="43.32756" lon="5.68985">
        <ele>822</ele>
        <time>2019-01-18T12:14:49.000Z</time>
      </trkpt>
      <trkpt lat="43.32756" lon="5.68986">
        <ele>822</ele>
        <time>2019-01-18T12:14:50.000Z</time>
      </trkpt>
      <trkpt lat="43.32755" lon="5.68986">
        <ele>822</ele>
        <time>2019-01-18T12:14:51.000Z</time>
      </trkpt>
      <trkpt lat="43.32755" lon="5.68987">
        <ele>822</ele>
        <time>2019-01-18T12:14:52.000Z</time>
      </trkpt>
      <trkpt lat="43.32754" lon="5.68987">
        <ele>823</ele>
        <time>2019-01-18T12:14:53.000Z</time>
      </trkpt>
      <trkpt lat="43.32754" lon="5.68987">
        <ele>823</ele>
        <time>2019-01-18T12:14:54.000Z</time>
      </trkpt>
      <trkpt lat="43.32753" lon="5.68987">
        <ele>823</ele>
        <time>2019-01-18T12:14:55.000Z</time>
      </trkpt>
      <trkpt lat="43.32753" lon="5.68987">
        <ele>823</ele>
        <time>2019-01-18T12:14:56.000Z</time>
      </trkpt>
      <trkpt lat="43.32752" lon="5.68986">
        <ele>823</ele>
        <time>2019-01-18T12:14:57.000Z</time>
      </trkpt>
      <trkpt lat="43.32752" lon="5.68985">
        <ele>823</ele>
        <time>2019-01-18T12:14:58.000Z</time>
      </trkpt>
      <trkpt lat="43.32752" lon="5.68986">
        <ele>824</ele>
        <time>2019-01-18T12:14:59.000Z</time>
      </trkpt>
      <trkpt lat="43.32752" lon="5.68985">
        <ele>824</ele>
        <time>2019-01-18T12:15:00.000Z</time>
      </trkpt>
      <trkpt lat="43.32752" lon="5.68985">
        <ele>824</ele>
        <time>2019-01-18T12:15:01.000Z</time>
      </trkpt>
      <trkpt lat="43.32752" lon="5.68985">
        <ele>824</ele>
        <time>2019-01-18T12:15:02.000Z</time>
      </trkpt>
      <trkpt lat="43.32751" lon="5.68985">
        <ele>824</ele>
        <time>2019-01-18T12:15:03.000Z</time>
      </trkpt>
      <trkpt lat="43.32751" lon="5.68986">
        <ele>824</ele>
        <time>2019-01-18T12:15:04.000Z</time>
      </trkpt>
      <trkpt lat="43.32752" lon="5.68986">
        <ele>824</ele>
        <time>2019-01-18T12:15:05.000Z</time>
      </trkpt>
      <trkpt lat="43.32752" lon="5.68986">
        <ele>824</ele>
        <time>2019-01-18T12:15:06.000Z</time>
      </trkpt>
      <trkpt lat="43.32752" lon="5.68986">
        <ele>824</ele>
        <time>2019-01-18T12:15:07.000Z</time>
      </trkpt>
      <trkpt lat="43.32751" lon="5.68985">
        <ele>824</ele>
        <time>2019-01-18T12:15:08.000Z</time>
      </trkpt>
      <trkpt lat="43.3275" lon="5.68985">
        <ele>824</ele>
        <time>2019-01-18T12:15:09.000Z</time>
      </trkpt>
      <trkpt lat="43.3275" lon="5.68985">
        <ele>825</ele>
        <time>2019-01-18T12:15:10.000Z</time>
      </trkpt>
      <trkpt lat="43.32749" lon="5.68984">
        <ele>825</ele>
        <time>2019-01-18T12:15:11.000Z</time>
      </trkpt>
      <trkpt lat="43.32749" lon="5.68984">
        <ele>825</ele>
        <time>2019-01-18T12:15:12.000Z</time>
      </trkpt>
      <trkpt lat="43.32748" lon="5.68983">
        <ele>825</ele>
        <time>2019-01-18T12:15:13.000Z</time>
      </trkpt>
      <trkpt lat="43.32748" lon="5.68982">
        <ele>825</ele>
        <time>2019-01-18T12:15:14.000Z</time>
      </trkpt>
      <trkpt lat="43.32747" lon="5.68982">
        <ele>825</ele>
        <time>2019-01-18T12:15:15.000Z</time>
      </trkpt>
      <trkpt lat="43.32746" lon="5.68982">
        <ele>825</ele>
        <time>2019-01-18T12:15:16.000Z</time>
      </trkpt>
      <trkpt lat="43.32746" lon="5.68982">
        <ele>825</ele>
        <time>2019-01-18T12:15:17.000Z</time>
      </trkpt>
      <trkpt lat="43.32746" lon="5.68983">
        <ele>825</ele>
        <time>2019-01-18T12:15:18.000Z</time>
      </trkpt>
      <trkpt lat="43.32745" lon="5.68983">
        <ele>825</ele>
        <time>2019-01-18T12:15:19.000Z</time>
      </trkpt>
      <trkpt lat="43.32745" lon="5.68983">
        <ele>826</ele>
        <time>2019-01-18T12:15:20.000Z</time>
      </trkpt>
      <trkpt lat="43.32744" lon="5.68983">
        <ele>826</ele>
        <time>2019-01-18T12:15:21.000Z</time>
      </trkpt>
      <trkpt lat="43.32744" lon="5.68983">
        <ele>826</ele>
        <time>2019-01-18T12:15:22.000Z</time>
      </trkpt>
      <trkpt lat="43.32744" lon="5.68983">
        <ele>826</ele>
        <time>2019-01-18T12:15:23.000Z</time>
      </trkpt>
      <trkpt lat="43.32744" lon="5.68983">
        <ele>826</ele>
        <time>2019-01-18T12:15:24.000Z</time>
      </trkpt>
      <trkpt lat="43.32744" lon="5.68983">
        <ele>826</ele>
        <time>2019-01-18T12:15:25.000Z</time>
      </trkpt>
      <trkpt lat="43.32744" lon="5.68983">
        <ele>826</ele>
        <time>2019-01-18T12:15:26.000Z</time>
      </trkpt>
      <trkpt lat="43.32744" lon="5.68983">
        <ele>826</ele>
        <time>2019-01-18T12:15:27.000Z</time>
      </trkpt>
      <trkpt lat="43.32744" lon="5.68983">
        <ele>826</ele>
        <time>2019-01-18T12:15:28.000Z</time>
      </trkpt>
      <trkpt lat="43.32744" lon="5.68983">
        <ele>826</ele>
        <time>2019-01-18T12:15:29.000Z</time>
      </trkpt>
      <trkpt lat="43.32744" lon="5.68983">
        <ele>826</ele>
        <time>2019-01-18T12:15:30.000Z</time>
      </trkpt>
      <trkpt lat="43.32744" lon="5.68983">
        <ele>826</ele>
        <time>2019-01-18T12:15:31.000Z</time>
      </trkpt>
      <trkpt lat="43.32744" lon="5.68983">
        <ele>826</ele>
        <time>2019-01-18T12:15:32.000Z</time>
      </trkpt>
      <trkpt lat="43.32744" lon="5.68983">
        <ele>826</ele>
        <time>2019-01-18T12:15:33.000Z</time>
      </trkpt>
      <trkpt lat="43.32744" lon="5.68983">
        <ele>826</ele>
        <time>2019-01-18T12:15:34.000Z</time>
      </trkpt>
      <trkpt lat="43.32744" lon="5.68983">
        <ele>826</ele>
        <time>2019-01-18T12:15:35.000Z</time>
      </trkpt>
      <trkpt lat="43.32744" lon="5.68983">
        <ele>826</ele>
        <time>2019-01-18T12:15:36.000Z</time>
      </trkpt>
      <trkpt lat="43.32744" lon="5.68983">
        <ele>826</ele>
        <time>2019-01-18T12:15:37.000Z</time>
      </trkpt>
      <trkpt lat="43.32744" lon="5.68983">
        <ele>826</ele>
        <time>2019-01-18T12:15:38.000Z</time>
      </trkpt>
      <trkpt lat="43.32744" lon="5.68983">
        <ele>826</ele>
        <time>2019-01-18T12:15:39.000Z</time>
      </trkpt>
      <trkpt lat="43.32743" lon="5.68984">
        <ele>826</ele>
        <time>2019-01-18T12:15:40.000Z</time>
      </trkpt>
      <trkpt lat="43.32743" lon="5.68984">
        <ele>826</ele>
        <time>2019-01-18T12:15:41.000Z</time>
      </trkpt>
      <trkpt lat="43.32743" lon="5.68984">
        <ele>826</ele>
        <time>2019-01-18T12:15:42.000Z</time>
      </trkpt>
      <trkpt lat="43.32743" lon="5.68984">
        <ele>826</ele>
        <time>2019-01-18T12:15:43.000Z</time>
      </trkpt>
      <trkpt lat="43.32743" lon="5.68984">
        <ele>826</ele>
        <time>2019-01-18T12:15:44.000Z</time>
      </trkpt>
      <trkpt lat="43.32743" lon="5.68984">
        <ele>826</ele>
        <time>2019-01-18T12:15:45.000Z</time>
      </trkpt>
      <trkpt lat="43.32743" lon="5.68984">
        <ele>826</ele>
        <time>2019-01-18T12:15:46.000Z</time>
      </trkpt>
      <trkpt lat="43.32743" lon="5.68984">
        <ele>826</ele>
        <time>2019-01-18T12:15:47.000Z</time>
      </trkpt>
      <trkpt lat="43.32743" lon="5.68984">
        <ele>826</ele>
        <time>2019-01-18T12:15:48.000Z</time>
      </trkpt>
      <trkpt lat="43.32743" lon="5.68984">
        <ele>827</ele>
        <time>2019-01-18T12:15:49.000Z</time>
      </trkpt>
      <trkpt lat="43.32743" lon="5.68984">
        <ele>827</ele>
        <time>2019-01-18T12:15:50.000Z</time>
      </trkpt>
      <trkpt lat="43.32743" lon="5.68984">
        <ele>827</ele>
        <time>2019-01-18T12:15:51.000Z</time>
      </trkpt>
      <trkpt lat="43.32743" lon="5.68984">
        <ele>827</ele>
        <time>2019-01-18T12:15:52.000Z</time>
      </trkpt>
      <trkpt lat="43.32743" lon="5.68984">
        <ele>827</ele>
        <time>2019-01-18T12:15:53.000Z</time>
      </trkpt>
      <trkpt lat="43.32743" lon="5.68984">
        <ele>827</ele>
        <time>2019-01-18T12:15:54.000Z</time>
      </trkpt>
      <trkpt lat="43.32743" lon="5.68984">
        <ele>827</ele>
        <time>2019-01-18T12:15:55.000Z</time>
      </trkpt>
      <trkpt lat="43.32743" lon="5.68984">
        <ele>827</ele>
        <time>2019-01-18T12:15:56.000Z</time>
      </trkpt>
      <trkpt lat="43.32743" lon="5.68984">
        <ele>827</ele>
        <time>2019-01-18T12:15:57.000Z</time>
      </trkpt>
      <trkpt lat="43.32743" lon="5.68984">
        <ele>827</ele>
        <time>2019-01-18T12:15:58.000Z</time>
      </trkpt>
      <trkpt lat="43.32743" lon="5.68984">
        <ele>827</ele>
        <time>2019-01-18T12:15:59.000Z</time>
      </trkpt>
      <trkpt lat="43.32743" lon="5.68984">
        <ele>827</ele>
        <time>2019-01-18T12:16:00.000Z</time>
      </trkpt>
      <trkpt lat="43.32743" lon="5.68984">
        <ele>827</ele>
        <time>2019-01-18T12:16:01.000Z</time>
      </trkpt>
      <trkpt lat="43.32743" lon="5.68984">
        <ele>827</ele>
        <time>2019-01-18T12:16:02.000Z</time>
      </trkpt>
      <trkpt lat="43.32743" lon="5.68984">
        <ele>827</ele>
        <time>2019-01-18T12:16:03.000Z</time>
      </trkpt>
      <trkpt lat="43.32743" lon="5.68984">
        <ele>827</ele>
        <time>2019-01-18T12:16:04.000Z</time>
      </trkpt>
      <trkpt lat="43.32743" lon="5.68984">
        <ele>827</ele>
        <time>2019-01-18T12:16:05.000Z</time>
      </trkpt>
      <trkpt lat="43.32743" lon="5.68984">
        <ele>827</ele>
        <time>2019-01-18T12:16:06.000Z</time>
      </trkpt>
      <trkpt lat="43.32743" lon="5.68984">
        <ele>827</ele>
        <time>2019-01-18T12:16:07.000Z</time>
      </trkpt>
      <trkpt lat="43.32743" lon="5.68984">
        <ele>827</ele>
        <time>2019-01-18T12:16:08.000Z</time>
      </trkpt>
      <trkpt lat="43.32744" lon="5.68984">
        <ele>827</ele>
        <time>2019-01-18T12:16:09.000Z</time>
      </trkpt>
      <trkpt lat="43.32744" lon="5.68985">
        <ele>827</ele>
        <time>2019-01-18T12:16:10.000Z</time>
      </trkpt>
      <trkpt lat="43.32744" lon="5.68985">
        <ele>827</ele>
        <time>2019-01-18T12:16:11.000Z</time>
      </trkpt>
      <trkpt lat="43.32744" lon="5.68985">
        <ele>827</ele>
        <time>2019-01-18T12:16:12.000Z</time>
      </trkpt>
      <trkpt lat="43.32744" lon="5.68985">
        <ele>827</ele>
        <time>2019-01-18T12:16:13.000Z</time>
      </trkpt>
      <trkpt lat="43.32744" lon="5.68985">
        <ele>827</ele>
        <time>2019-01-18T12:16:14.000Z</time>
      </trkpt>
      <trkpt lat="43.32744" lon="5.68985">
        <ele>827</ele>
        <time>2019-01-18T12:16:15.000Z</time>
      </trkpt>
      <trkpt lat="43.32744" lon="5.68985">
        <ele>827</ele>
        <time>2019-01-18T12:16:16.000Z</time>
      </trkpt>
      <trkpt lat="43.32744" lon="5.68984">
        <ele>827</ele>
        <time>2019-01-18T12:16:17.000Z</time>
      </trkpt>
      <trkpt lat="43.32744" lon="5.68984">
        <ele>827</ele>
        <time>2019-01-18T12:16:18.000Z</time>
      </trkpt>
      <trkpt lat="43.32744" lon="5.68984">
        <ele>827</ele>
        <time>2019-01-18T12:16:19.000Z</time>
      </trkpt>
      <trkpt lat="43.32744" lon="5.68984">
        <ele>827</ele>
        <time>2019-01-18T12:16:20.000Z</time>
      </trkpt>
      <trkpt lat="43.32744" lon="5.68984">
        <ele>827</ele>
        <time>2019-01-18T12:16:21.000Z</time>
      </trkpt>
      <trkpt lat="43.32744" lon="5.68984">
        <ele>827</ele>
        <time>2019-01-18T12:16:22.000Z</time>
      </trkpt>
      <trkpt lat="43.32744" lon="5.68984">
        <ele>827</ele>
        <time>2019-01-18T12:16:23.000Z</time>
      </trkpt>
      <trkpt lat="43.32744" lon="5.68984">
        <ele>827</ele>
        <time>2019-01-18T12:16:24.000Z</time>
      </trkpt>
      <trkpt lat="43.32744" lon="5.68984">
        <ele>827</ele>
        <time>2019-01-18T12:16:25.000Z</time>
      </trkpt>
      <trkpt lat="43.32744" lon="5.68984">
        <ele>827</ele>
        <time>2019-01-18T12:16:26.000Z</time>
      </trkpt>
      <trkpt lat="43.32744" lon="5.68984">
        <ele>827</ele>
        <time>2019-01-18T12:16:27.000Z</time>
      </trkpt>
      <trkpt lat="43.32744" lon="5.68984">
        <ele>827</ele>
        <time>2019-01-18T12:16:28.000Z</time>
      </trkpt>
      <trkpt lat="43.32744" lon="5.68984">
        <ele>827</ele>
        <time>2019-01-18T12:16:29.000Z</time>
      </trkpt>
      <trkpt lat="43.32744" lon="5.68984">
        <ele>827</ele>
        <time>2019-01-18T12:16:30.000Z</time>
      </trkpt>
      <trkpt lat="43.32744" lon="5.68984">
        <ele>827</ele>
        <time>2019-01-18T12:16:31.000Z</time>
      </trkpt>
      <trkpt lat="43.32744" lon="5.68984">
        <ele>827</ele>
        <time>2019-01-18T12:16:32.000Z</time>
      </trkpt>
      <trkpt lat="43.32744" lon="5.68984">
        <ele>826</ele>
        <time>2019-01-18T12:16:33.000Z</time>
      </trkpt>
      <trkpt lat="43.32744" lon="5.68984">
        <ele>826</ele>
        <time>2019-01-18T12:16:34.000Z</time>
      </trkpt>
      <trkpt lat="43.32744" lon="5.68984">
        <ele>826</ele>
        <time>2019-01-18T12:16:35.000Z</time>
      </trkpt>
      <trkpt lat="43.32744" lon="5.68984">
        <ele>826</ele>
        <time>2019-01-18T12:16:36.000Z</time>
      </trkpt>
      <trkpt lat="43.32744" lon="5.68984">
        <ele>826</ele>
        <time>2019-01-18T12:16:37.000Z</time>
      </trkpt>
      <trkpt lat="43.32744" lon="5.68984">
        <ele>826</ele>
        <time>2019-01-18T12:16:38.000Z</time>
      </trkpt>
      <trkpt lat="43.32744" lon="5.68984">
        <ele>826</ele>
        <time>2019-01-18T12:16:39.000Z</time>
      </trkpt>
      <trkpt lat="43.32744" lon="5.68984">
        <ele>826</ele>
        <time>2019-01-18T12:16:40.000Z</time>
      </trkpt>
      <trkpt lat="43.32744" lon="5.68984">
        <ele>826</ele>
        <time>2019-01-18T12:16:41.000Z</time>
      </trkpt>
      <trkpt lat="43.32744" lon="5.68984">
        <ele>826</ele>
        <time>2019-01-18T12:16:42.000Z</time>
      </trkpt>
      <trkpt lat="43.32744" lon="5.68984">
        <ele>826</ele>
        <time>2019-01-18T12:16:43.000Z</time>
      </trkpt>
      <trkpt lat="43.32744" lon="5.68984">
        <ele>826</ele>
        <time>2019-01-18T12:16:44.000Z</time>
      </trkpt>
      <trkpt lat="43.32744" lon="5.68984">
        <ele>826</ele>
        <time>2019-01-18T12:16:45.000Z</time>
      </trkpt>
      <trkpt lat="43.32744" lon="5.68984">
        <ele>826</ele>
        <time>2019-01-18T12:16:46.000Z</time>
      </trkpt>
      <trkpt lat="43.32744" lon="5.68984">
        <ele>826</ele>
        <time>2019-01-18T12:16:47.000Z</time>
      </trkpt>
      <trkpt lat="43.32744" lon="5.68984">
        <ele>826</ele>
        <time>2019-01-18T12:16:48.000Z</time>
      </trkpt>
      <trkpt lat="43.32744" lon="5.68984">
        <ele>826</ele>
        <time>2019-01-18T12:16:49.000Z</time>
      </trkpt>
      <trkpt lat="43.32744" lon="5.68984">
        <ele>826</ele>
        <time>2019-01-18T12:16:50.000Z</time>
      </trkpt>
      <trkpt lat="43.32744" lon="5.68984">
        <ele>826</ele>
        <time>2019-01-18T12:16:51.000Z</time>
      </trkpt>
      <trkpt lat="43.32744" lon="5.68984">
        <ele>826</ele>
        <time>2019-01-18T12:16:52.000Z</time>
      </trkpt>
      <trkpt lat="43.32744" lon="5.68984">
        <ele>826</ele>
        <time>2019-01-18T12:16:53.000Z</time>
      </trkpt>
      <trkpt lat="43.32744" lon="5.68984">
        <ele>826</ele>
        <time>2019-01-18T12:16:54.000Z</time>
      </trkpt>
      <trkpt lat="43.32744" lon="5.68984">
        <ele>826</ele>
        <time>2019-01-18T12:16:55.000Z</time>
      </trkpt>
      <trkpt lat="43.32744" lon="5.68984">
        <ele>826</ele>
        <time>2019-01-18T12:16:56.000Z</time>
      </trkpt>
      <trkpt lat="43.32744" lon="5.68984">
        <ele>826</ele>
        <time>2019-01-18T12:16:57.000Z</time>
      </trkpt>
      <trkpt lat="43.32744" lon="5.68984">
        <ele>826</ele>
        <time>2019-01-18T12:16:58.000Z</time>
      </trkpt>
      <trkpt lat="43.32743" lon="5.68984">
        <ele>826</ele>
        <time>2019-01-18T12:16:59.000Z</time>
      </trkpt>
      <trkpt lat="43.32743" lon="5.68984">
        <ele>826</ele>
        <time>2019-01-18T12:17:00.000Z</time>
      </trkpt>
      <trkpt lat="43.32743" lon="5.68984">
        <ele>826</ele>
        <time>2019-01-18T12:17:01.000Z</time>
      </trkpt>
      <trkpt lat="43.32743" lon="5.68983">
        <ele>826</ele>
        <time>2019-01-18T12:17:02.000Z</time>
      </trkpt>
      <trkpt lat="43.32743" lon="5.68983">
        <ele>826</ele>
        <time>2019-01-18T12:17:03.000Z</time>
      </trkpt>
      <trkpt lat="43.32743" lon="5.68983">
        <ele>826</ele>
        <time>2019-01-18T12:17:04.000Z</time>
      </trkpt>
      <trkpt lat="43.32743" lon="5.68983">
        <ele>826</ele>
        <time>2019-01-18T12:17:05.000Z</time>
      </trkpt>
      <trkpt lat="43.32743" lon="5.68983">
        <ele>826</ele>
        <time>2019-01-18T12:17:06.000Z</time>
      </trkpt>
      <trkpt lat="43.32743" lon="5.68983">
        <ele>826</ele>
        <time>2019-01-18T12:17:07.000Z</time>
      </trkpt>
      <trkpt lat="43.32743" lon="5.68983">
        <ele>826</ele>
        <time>2019-01-18T12:17:08.000Z</time>
      </trkpt>
      <trkpt lat="43.32743" lon="5.68983">
        <ele>826</ele>
        <time>2019-01-18T12:17:09.000Z</time>
      </trkpt>
      <trkpt lat="43.32743" lon="5.68983">
        <ele>826</ele>
        <time>2019-01-18T12:17:10.000Z</time>
      </trkpt>
      <trkpt lat="43.32743" lon="5.68983">
        <ele>826</ele>
        <time>2019-01-18T12:17:11.000Z</time>
      </trkpt>
      <trkpt lat="43.32743" lon="5.68983">
        <ele>826</ele>
        <time>2019-01-18T12:17:12.000Z</time>
      </trkpt>
      <trkpt lat="43.32743" lon="5.68983">
        <ele>826</ele>
        <time>2019-01-18T12:17:13.000Z</time>
      </trkpt>
      <trkpt lat="43.32743" lon="5.68983">
        <ele>826</ele>
        <time>2019-01-18T12:17:14.000Z</time>
      </trkpt>
      <trkpt lat="43.32743" lon="5.68983">
        <ele>826</ele>
        <time>2019-01-18T12:17:15.000Z</time>
      </trkpt>
      <trkpt lat="43.32742" lon="5.68983">
        <ele>826</ele>
        <time>2019-01-18T12:17:16.000Z</time>
      </trkpt>
      <trkpt lat="43.32742" lon="5.68983">
        <ele>826</ele>
        <time>2019-01-18T12:17:17.000Z</time>
      </trkpt>
      <trkpt lat="43.32742" lon="5.68983">
        <ele>826</ele>
        <time>2019-01-18T12:17:18.000Z</time>
      </trkpt>
      <trkpt lat="43.32742" lon="5.68983">
        <ele>826</ele>
        <time>2019-01-18T12:17:19.000Z</time>
      </trkpt>
      <trkpt lat="43.32742" lon="5.68983">
        <ele>826</ele>
        <time>2019-01-18T12:17:20.000Z</time>
      </trkpt>
      <trkpt lat="43.32742" lon="5.68983">
        <ele>826</ele>
        <time>2019-01-18T12:17:21.000Z</time>
      </trkpt>
      <trkpt lat="43.32742" lon="5.68983">
        <ele>826</ele>
        <time>2019-01-18T12:17:22.000Z</time>
      </trkpt>
      <trkpt lat="43.32742" lon="5.68983">
        <ele>826</ele>
        <time>2019-01-18T12:17:23.000Z</time>
      </trkpt>
      <trkpt lat="43.32742" lon="5.68983">
        <ele>826</ele>
        <time>2019-01-18T12:17:24.000Z</time>
      </trkpt>
      <trkpt lat="43.32742" lon="5.68983">
        <ele>826</ele>
        <time>2019-01-18T12:17:25.000Z</time>
      </trkpt>
      <trkpt lat="43.32742" lon="5.68983">
        <ele>826</ele>
        <time>2019-01-18T12:17:26.000Z</time>
      </trkpt>
      <trkpt lat="43.32742" lon="5.68983">
        <ele>826</ele>
        <time>2019-01-18T12:17:27.000Z</time>
      </trkpt>
      <trkpt lat="43.32742" lon="5.68983">
        <ele>826</ele>
        <time>2019-01-18T12:17:28.000Z</time>
      </trkpt>
      <trkpt lat="43.32742" lon="5.68983">
        <ele>826</ele>
        <time>2019-01-18T12:17:29.000Z</time>
      </trkpt>
      <trkpt lat="43.32742" lon="5.68983">
        <ele>826</ele>
        <time>2019-01-18T12:17:30.000Z</time>
      </trkpt>
      <trkpt lat="43.32742" lon="5.68983">
        <ele>826</ele>
        <time>2019-01-18T12:17:31.000Z</time>
      </trkpt>
      <trkpt lat="43.32742" lon="5.68983">
        <ele>826</ele>
        <time>2019-01-18T12:17:32.000Z</time>
      </trkpt>
      <trkpt lat="43.32742" lon="5.68983">
        <ele>826</ele>
        <time>2019-01-18T12:17:33.000Z</time>
      </trkpt>
      <trkpt lat="43.32742" lon="5.68983">
        <ele>826</ele>
        <time>2019-01-18T12:17:34.000Z</time>
      </trkpt>
      <trkpt lat="43.32742" lon="5.68983">
        <ele>826</ele>
        <time>2019-01-18T12:17:35.000Z</time>
      </trkpt>
      <trkpt lat="43.32742" lon="5.68983">
        <ele>826</ele>
        <time>2019-01-18T12:17:36.000Z</time>
      </trkpt>
      <trkpt lat="43.32742" lon="5.68983">
        <ele>826</ele>
        <time>2019-01-18T12:17:37.000Z</time>
      </trkpt>
      <trkpt lat="43.32742" lon="5.68983">
        <ele>826</ele>
        <time>2019-01-18T12:17:38.000Z</time>
      </trkpt>
      <trkpt lat="43.32742" lon="5.68983">
        <ele>826</ele>
        <time>2019-01-18T12:17:39.000Z</time>
      </trkpt>
      <trkpt lat="43.32742" lon="5.68983">
        <ele>827</ele>
        <time>2019-01-18T12:17:40.000Z</time>
      </trkpt>
      <trkpt lat="43.32742" lon="5.68983">
        <ele>827</ele>
        <time>2019-01-18T12:17:41.000Z</time>
      </trkpt>
      <trkpt lat="43.32742" lon="5.68984">
        <ele>827</ele>
        <time>2019-01-18T12:17:42.000Z</time>
      </trkpt>
      <trkpt lat="43.32742" lon="5.68984">
        <ele>827</ele>
        <time>2019-01-18T12:17:43.000Z</time>
      </trkpt>
      <trkpt lat="43.32742" lon="5.68984">
        <ele>827</ele>
        <time>2019-01-18T12:17:44.000Z</time>
      </trkpt>
      <trkpt lat="43.32742" lon="5.68984">
        <ele>827</ele>
        <time>2019-01-18T12:17:45.000Z</time>
      </trkpt>
      <trkpt lat="43.32742" lon="5.68984">
        <ele>827</ele>
        <time>2019-01-18T12:17:46.000Z</time>
      </trkpt>
      <trkpt lat="43.32742" lon="5.68984">
        <ele>827</ele>
        <time>2019-01-18T12:17:47.000Z</time>
      </trkpt>
      <trkpt lat="43.32742" lon="5.68984">
        <ele>827</ele>
        <time>2019-01-18T12:17:48.000Z</time>
      </trkpt>
      <trkpt lat="43.32742" lon="5.68984">
        <ele>827</ele>
        <time>2019-01-18T12:17:49.000Z</time>
      </trkpt>
      <trkpt lat="43.32742" lon="5.68984">
        <ele>827</ele>
        <time>2019-01-18T12:17:50.000Z</time>
      </trkpt>
      <trkpt lat="43.32742" lon="5.68984">
        <ele>827</ele>
        <time>2019-01-18T12:17:51.000Z</time>
      </trkpt>
      <trkpt lat="43.32742" lon="5.68984">
        <ele>827</ele>
        <time>2019-01-18T12:17:52.000Z</time>
      </trkpt>
      <trkpt lat="43.32742" lon="5.68984">
        <ele>827</ele>
        <time>2019-01-18T12:17:53.000Z</time>
      </trkpt>
      <trkpt lat="43.32742" lon="5.68984">
        <ele>828</ele>
        <time>2019-01-18T12:17:54.000Z</time>
      </trkpt>
      <trkpt lat="43.32742" lon="5.68984">
        <ele>828</ele>
        <time>2019-01-18T12:17:55.000Z</time>
      </trkpt>
      <trkpt lat="43.32742" lon="5.68984">
        <ele>828</ele>
        <time>2019-01-18T12:17:56.000Z</time>
      </trkpt>
      <trkpt lat="43.32742" lon="5.68984">
        <ele>828</ele>
        <time>2019-01-18T12:17:57.000Z</time>
      </trkpt>
      <trkpt lat="43.32742" lon="5.68984">
        <ele>828</ele>
        <time>2019-01-18T12:17:58.000Z</time>
      </trkpt>
      <trkpt lat="43.32742" lon="5.68984">
        <ele>828</ele>
        <time>2019-01-18T12:17:59.000Z</time>
      </trkpt>
      <trkpt lat="43.32742" lon="5.68984">
        <ele>828</ele>
        <time>2019-01-18T12:18:00.000Z</time>
      </trkpt>
      <trkpt lat="43.32742" lon="5.68984">
        <ele>828</ele>
        <time>2019-01-18T12:18:01.000Z</time>
      </trkpt>
      <trkpt lat="43.32742" lon="5.68984">
        <ele>828</ele>
        <time>2019-01-18T12:18:02.000Z</time>
      </trkpt>
      <trkpt lat="43.32742" lon="5.68984">
        <ele>828</ele>
        <time>2019-01-18T12:18:03.000Z</time>
      </trkpt>
      <trkpt lat="43.32742" lon="5.68984">
        <ele>828</ele>
        <time>2019-01-18T12:18:04.000Z</time>
      </trkpt>
      <trkpt lat="43.32742" lon="5.68984">
        <ele>828</ele>
        <time>2019-01-18T12:18:05.000Z</time>
      </trkpt>
      <trkpt lat="43.32742" lon="5.68984">
        <ele>828</ele>
        <time>2019-01-18T12:18:06.000Z</time>
      </trkpt>
      <trkpt lat="43.32742" lon="5.68984">
        <ele>828</ele>
        <time>2019-01-18T12:18:07.000Z</time>
      </trkpt>
      <trkpt lat="43.32742" lon="5.68984">
        <ele>828</ele>
        <time>2019-01-18T12:18:08.000Z</time>
      </trkpt>
      <trkpt lat="43.32742" lon="5.68984">
        <ele>828</ele>
        <time>2019-01-18T12:18:09.000Z</time>
      </trkpt>
      <trkpt lat="43.32742" lon="5.68984">
        <ele>828</ele>
        <time>2019-01-18T12:18:10.000Z</time>
      </trkpt>
      <trkpt lat="43.32742" lon="5.68984">
        <ele>828</ele>
        <time>2019-01-18T12:18:11.000Z</time>
      </trkpt>
      <trkpt lat="43.32742" lon="5.68984">
        <ele>828</ele>
        <time>2019-01-18T12:18:12.000Z</time>
      </trkpt>
      <trkpt lat="43.32742" lon="5.68984">
        <ele>828</ele>
        <time>2019-01-18T12:18:13.000Z</time>
      </trkpt>
      <trkpt lat="43.32742" lon="5.68984">
        <ele>828</ele>
        <time>2019-01-18T12:18:14.000Z</time>
      </trkpt>
      <trkpt lat="43.32742" lon="5.68984">
        <ele>828</ele>
        <time>2019-01-18T12:18:15.000Z</time>
      </trkpt>
      <trkpt lat="43.32742" lon="5.68984">
        <ele>828</ele>
        <time>2019-01-18T12:18:16.000Z</time>
      </trkpt>
      <trkpt lat="43.32742" lon="5.68984">
        <ele>828</ele>
        <time>2019-01-18T12:18:17.000Z</time>
      </trkpt>
      <trkpt lat="43.32743" lon="5.68984">
        <ele>828</ele>
        <time>2019-01-18T12:18:18.000Z</time>
      </trkpt>
      <trkpt lat="43.32743" lon="5.68984">
        <ele>828</ele>
        <time>2019-01-18T12:18:19.000Z</time>
      </trkpt>
      <trkpt lat="43.32743" lon="5.68984">
        <ele>828</ele>
        <time>2019-01-18T12:18:20.000Z</time>
      </trkpt>
      <trkpt lat="43.32743" lon="5.68984">
        <ele>828</ele>
        <time>2019-01-18T12:18:21.000Z</time>
      </trkpt>
      <trkpt lat="43.32743" lon="5.68984">
        <ele>828</ele>
        <time>2019-01-18T12:18:22.000Z</time>
      </trkpt>
      <trkpt lat="43.32743" lon="5.68984">
        <ele>828</ele>
        <time>2019-01-18T12:18:23.000Z</time>
      </trkpt>
      <trkpt lat="43.32743" lon="5.68984">
        <ele>828</ele>
        <time>2019-01-18T12:18:24.000Z</time>
      </trkpt>
      <trkpt lat="43.32743" lon="5.68984">
        <ele>828</ele>
        <time>2019-01-18T12:18:25.000Z</time>
      </trkpt>
      <trkpt lat="43.32743" lon="5.68984">
        <ele>828</ele>
        <time>2019-01-18T12:18:26.000Z</time>
      </trkpt>
      <trkpt lat="43.32743" lon="5.68984">
        <ele>828</ele>
        <time>2019-01-18T12:18:27.000Z</time>
      </trkpt>
      <trkpt lat="43.32743" lon="5.68984">
        <ele>828</ele>
        <time>2019-01-18T12:18:28.000Z</time>
      </trkpt>
      <trkpt lat="43.32743" lon="5.68984">
        <ele>828</ele>
        <time>2019-01-18T12:18:29.000Z</time>
      </trkpt>
      <trkpt lat="43.32743" lon="5.68984">
        <ele>828</ele>
        <time>2019-01-18T12:18:30.000Z</time>
      </trkpt>
      <trkpt lat="43.32743" lon="5.68984">
        <ele>828</ele>
        <time>2019-01-18T12:18:31.000Z</time>
      </trkpt>
      <trkpt lat="43.32743" lon="5.68984">
        <ele>828</ele>
        <time>2019-01-18T12:18:32.000Z</time>
      </trkpt>
      <trkpt lat="43.32743" lon="5.68984">
        <ele>828</ele>
        <time>2019-01-18T12:18:33.000Z</time>
      </trkpt>
      <trkpt lat="43.32743" lon="5.68984">
        <ele>828</ele>
        <time>2019-01-18T12:18:34.000Z</time>
      </trkpt>
      <trkpt lat="43.32743" lon="5.68984">
        <ele>828</ele>
        <time>2019-01-18T12:18:35.000Z</time>
      </trkpt>
      <trkpt lat="43.32743" lon="5.68984">
        <ele>828</ele>
        <time>2019-01-18T12:18:36.000Z</time>
      </trkpt>
      <trkpt lat="43.32743" lon="5.68984">
        <ele>828</ele>
        <time>2019-01-18T12:18:37.000Z</time>
      </trkpt>
      <trkpt lat="43.32743" lon="5.68984">
        <ele>828</ele>
        <time>2019-01-18T12:18:38.000Z</time>
      </trkpt>
      <trkpt lat="43.32743" lon="5.68984">
        <ele>828</ele>
        <time>2019-01-18T12:18:39.000Z</time>
      </trkpt>
      <trkpt lat="43.32743" lon="5.68984">
        <ele>828</ele>
        <time>2019-01-18T12:18:40.000Z</time>
      </trkpt>
      <trkpt lat="43.32743" lon="5.68984">
        <ele>828</ele>
        <time>2019-01-18T12:18:41.000Z</time>
      </trkpt>
      <trkpt lat="43.32743" lon="5.68984">
        <ele>828</ele>
        <time>2019-01-18T12:18:42.000Z</time>
      </trkpt>
      <trkpt lat="43.32743" lon="5.68984">
        <ele>828</ele>
        <time>2019-01-18T12:18:43.000Z</time>
      </trkpt>
      <trkpt lat="43.32743" lon="5.68983">
        <ele>828</ele>
        <time>2019-01-18T12:18:44.000Z</time>
      </trkpt>
      <trkpt lat="43.32743" lon="5.68984">
        <ele>828</ele>
        <time>2019-01-18T12:18:45.000Z</time>
      </trkpt>
      <trkpt lat="43.32744" lon="5.68984">
        <ele>828</ele>
        <time>2019-01-18T12:18:46.000Z</time>
      </trkpt>
      <trkpt lat="43.32744" lon="5.68984">
        <ele>827</ele>
        <time>2019-01-18T12:18:47.000Z</time>
      </trkpt>
      <trkpt lat="43.32744" lon="5.68984">
        <ele>827</ele>
        <time>2019-01-18T12:18:48.000Z</time>
      </trkpt>
      <trkpt lat="43.32744" lon="5.68984">
        <ele>827</ele>
        <time>2019-01-18T12:18:49.000Z</time>
      </trkpt>
      <trkpt lat="43.32744" lon="5.68984">
        <ele>827</ele>
        <time>2019-01-18T12:18:50.000Z</time>
      </trkpt>
      <trkpt lat="43.32744" lon="5.68984">
        <ele>827</ele>
        <time>2019-01-18T12:18:51.000Z</time>
      </trkpt>
      <trkpt lat="43.32744" lon="5.68984">
        <ele>828</ele>
        <time>2019-01-18T12:18:52.000Z</time>
      </trkpt>
      <trkpt lat="43.32744" lon="5.68984">
        <ele>828</ele>
        <time>2019-01-18T12:18:53.000Z</time>
      </trkpt>
      <trkpt lat="43.32744" lon="5.68984">
        <ele>828</ele>
        <time>2019-01-18T12:18:54.000Z</time>
      </trkpt>
      <trkpt lat="43.32744" lon="5.68984">
        <ele>828</ele>
        <time>2019-01-18T12:18:55.000Z</time>
      </trkpt>
      <trkpt lat="43.32744" lon="5.68984">
        <ele>828</ele>
        <time>2019-01-18T12:18:56.000Z</time>
      </trkpt>
      <trkpt lat="43.32744" lon="5.68984">
        <ele>828</ele>
        <time>2019-01-18T12:18:57.000Z</time>
      </trkpt>
      <trkpt lat="43.32744" lon="5.68984">
        <ele>828</ele>
        <time>2019-01-18T12:18:58.000Z</time>
      </trkpt>
      <trkpt lat="43.32744" lon="5.68984">
        <ele>828</ele>
        <time>2019-01-18T12:18:59.000Z</time>
      </trkpt>
      <trkpt lat="43.32744" lon="5.68983">
        <ele>828</ele>
        <time>2019-01-18T12:19:00.000Z</time>
      </trkpt>
      <trkpt lat="43.32744" lon="5.68983">
        <ele>828</ele>
        <time>2019-01-18T12:19:01.000Z</time>
      </trkpt>
      <trkpt lat="43.32744" lon="5.68983">
        <ele>828</ele>
        <time>2019-01-18T12:19:02.000Z</time>
      </trkpt>
      <trkpt lat="43.32744" lon="5.68983">
        <ele>828</ele>
        <time>2019-01-18T12:19:03.000Z</time>
      </trkpt>
      <trkpt lat="43.32744" lon="5.68983">
        <ele>828</ele>
        <time>2019-01-18T12:19:04.000Z</time>
      </trkpt>
      <trkpt lat="43.32744" lon="5.68983">
        <ele>828</ele>
        <time>2019-01-18T12:19:05.000Z</time>
      </trkpt>
      <trkpt lat="43.32744" lon="5.68983">
        <ele>828</ele>
        <time>2019-01-18T12:19:06.000Z</time>
      </trkpt>
      <trkpt lat="43.32744" lon="5.68983">
        <ele>828</ele>
        <time>2019-01-18T12:19:07.000Z</time>
      </trkpt>
      <trkpt lat="43.32744" lon="5.68983">
        <ele>828</ele>
        <time>2019-01-18T12:19:08.000Z</time>
      </trkpt>
      <trkpt lat="43.32744" lon="5.68983">
        <ele>828</ele>
        <time>2019-01-18T12:19:09.000Z</time>
      </trkpt>
      <trkpt lat="43.32744" lon="5.68983">
        <ele>828</ele>
        <time>2019-01-18T12:19:10.000Z</time>
      </trkpt>
      <trkpt lat="43.32744" lon="5.68983">
        <ele>828</ele>
        <time>2019-01-18T12:19:11.000Z</time>
      </trkpt>
      <trkpt lat="43.32744" lon="5.68983">
        <ele>828</ele>
        <time>2019-01-18T12:19:12.000Z</time>
      </trkpt>
      <trkpt lat="43.32744" lon="5.68983">
        <ele>828</ele>
        <time>2019-01-18T12:19:13.000Z</time>
      </trkpt>
      <trkpt lat="43.32744" lon="5.68983">
        <ele>828</ele>
        <time>2019-01-18T12:19:14.000Z</time>
      </trkpt>
      <trkpt lat="43.32744" lon="5.68983">
        <ele>828</ele>
        <time>2019-01-18T12:19:15.000Z</time>
      </trkpt>
      <trkpt lat="43.32744" lon="5.68983">
        <ele>828</ele>
        <time>2019-01-18T12:19:16.000Z</time>
      </trkpt>
      <trkpt lat="43.32744" lon="5.68983">
        <ele>828</ele>
        <time>2019-01-18T12:19:17.000Z</time>
      </trkpt>
      <trkpt lat="43.32744" lon="5.68983">
        <ele>828</ele>
        <time>2019-01-18T12:19:18.000Z</time>
      </trkpt>
      <trkpt lat="43.32744" lon="5.68983">
        <ele>828</ele>
        <time>2019-01-18T12:19:19.000Z</time>
      </trkpt>
      <trkpt lat="43.32745" lon="5.68984">
        <ele>827</ele>
        <time>2019-01-18T12:19:20.000Z</time>
      </trkpt>
      <trkpt lat="43.32745" lon="5.68985">
        <ele>827</ele>
        <time>2019-01-18T12:19:21.000Z</time>
      </trkpt>
      <trkpt lat="43.32745" lon="5.68985">
        <ele>827</ele>
        <time>2019-01-18T12:19:22.000Z</time>
      </trkpt>
      <trkpt lat="43.32745" lon="5.68985">
        <ele>827</ele>
        <time>2019-01-18T12:19:23.000Z</time>
      </trkpt>
      <trkpt lat="43.32745" lon="5.68985">
        <ele>827</ele>
        <time>2019-01-18T12:19:24.000Z</time>
      </trkpt>
      <trkpt lat="43.32745" lon="5.68985">
        <ele>827</ele>
        <time>2019-01-18T12:19:25.000Z</time>
      </trkpt>
      <trkpt lat="43.32745" lon="5.68985">
        <ele>827</ele>
        <time>2019-01-18T12:19:26.000Z</time>
      </trkpt>
      <trkpt lat="43.32745" lon="5.68985">
        <ele>827</ele>
        <time>2019-01-18T12:19:27.000Z</time>
      </trkpt>
      <trkpt lat="43.32745" lon="5.68985">
        <ele>827</ele>
        <time>2019-01-18T12:19:28.000Z</time>
      </trkpt>
      <trkpt lat="43.32745" lon="5.68985">
        <ele>827</ele>
        <time>2019-01-18T12:19:29.000Z</time>
      </trkpt>
      <trkpt lat="43.32745" lon="5.68985">
        <ele>827</ele>
        <time>2019-01-18T12:19:30.000Z</time>
      </trkpt>
      <trkpt lat="43.32745" lon="5.68985">
        <ele>827</ele>
        <time>2019-01-18T12:19:31.000Z</time>
      </trkpt>
      <trkpt lat="43.32745" lon="5.68985">
        <ele>827</ele>
        <time>2019-01-18T12:19:32.000Z</time>
      </trkpt>
      <trkpt lat="43.32745" lon="5.68985">
        <ele>827</ele>
        <time>2019-01-18T12:19:33.000Z</time>
      </trkpt>
      <trkpt lat="43.32745" lon="5.68985">
        <ele>827</ele>
        <time>2019-01-18T12:19:34.000Z</time>
      </trkpt>
      <trkpt lat="43.32745" lon="5.68985">
        <ele>827</ele>
        <time>2019-01-18T12:19:35.000Z</time>
      </trkpt>
      <trkpt lat="43.32745" lon="5.68985">
        <ele>827</ele>
        <time>2019-01-18T12:19:36.000Z</time>
      </trkpt>
      <trkpt lat="43.32745" lon="5.68985">
        <ele>827</ele>
        <time>2019-01-18T12:19:37.000Z</time>
      </trkpt>
      <trkpt lat="43.32745" lon="5.68985">
        <ele>827</ele>
        <time>2019-01-18T12:19:38.000Z</time>
      </trkpt>
      <trkpt lat="43.32745" lon="5.68985">
        <ele>827</ele>
        <time>2019-01-18T12:19:39.000Z</time>
      </trkpt>
      <trkpt lat="43.32745" lon="5.68985">
        <ele>827</ele>
        <time>2019-01-18T12:19:40.000Z</time>
      </trkpt>
      <trkpt lat="43.32745" lon="5.68984">
        <ele>827</ele>
        <time>2019-01-18T12:19:41.000Z</time>
      </trkpt>
      <trkpt lat="43.32744" lon="5.68984">
        <ele>827</ele>
        <time>2019-01-18T12:19:42.000Z</time>
      </trkpt>
      <trkpt lat="43.32743" lon="5.68984">
        <ele>827</ele>
        <time>2019-01-18T12:19:43.000Z</time>
      </trkpt>
      <trkpt lat="43.32743" lon="5.68984">
        <ele>827</ele>
        <time>2019-01-18T12:19:44.000Z</time>
      </trkpt>
      <trkpt lat="43.32742" lon="5.68984">
        <ele>827</ele>
        <time>2019-01-18T12:19:45.000Z</time>
      </trkpt>
      <trkpt lat="43.32742" lon="5.68984">
        <ele>827</ele>
        <time>2019-01-18T12:19:46.000Z</time>
      </trkpt>
      <trkpt lat="43.32742" lon="5.68984">
        <ele>827</ele>
        <time>2019-01-18T12:19:47.000Z</time>
      </trkpt>
      <trkpt lat="43.32742" lon="5.68984">
        <ele>827</ele>
        <time>2019-01-18T12:19:48.000Z</time>
      </trkpt>
      <trkpt lat="43.32742" lon="5.68984">
        <ele>827</ele>
        <time>2019-01-18T12:19:49.000Z</time>
      </trkpt>
      <trkpt lat="43.32742" lon="5.68984">
        <ele>826</ele>
        <time>2019-01-18T12:19:50.000Z</time>
      </trkpt>
      <trkpt lat="43.32742" lon="5.68984">
        <ele>827</ele>
        <time>2019-01-18T12:19:51.000Z</time>
      </trkpt>
      <trkpt lat="43.32742" lon="5.68984">
        <ele>827</ele>
        <time>2019-01-18T12:19:52.000Z</time>
      </trkpt>
      <trkpt lat="43.32742" lon="5.68984">
        <ele>826</ele>
        <time>2019-01-18T12:19:53.000Z</time>
      </trkpt>
      <trkpt lat="43.32742" lon="5.68984">
        <ele>826</ele>
        <time>2019-01-18T12:19:54.000Z</time>
      </trkpt>
      <trkpt lat="43.32742" lon="5.68984">
        <ele>826</ele>
        <time>2019-01-18T12:19:55.000Z</time>
      </trkpt>
      <trkpt lat="43.32742" lon="5.68984">
        <ele>826</ele>
        <time>2019-01-18T12:19:56.000Z</time>
      </trkpt>
      <trkpt lat="43.32742" lon="5.68984">
        <ele>826</ele>
        <time>2019-01-18T12:19:57.000Z</time>
      </trkpt>
      <trkpt lat="43.32742" lon="5.68984">
        <ele>826</ele>
        <time>2019-01-18T12:19:58.000Z</time>
      </trkpt>
      <trkpt lat="43.32742" lon="5.68984">
        <ele>826</ele>
        <time>2019-01-18T12:19:59.000Z</time>
      </trkpt>
      <trkpt lat="43.32742" lon="5.68984">
        <ele>826</ele>
        <time>2019-01-18T12:20:00.000Z</time>
      </trkpt>
      <trkpt lat="43.32742" lon="5.68984">
        <ele>826</ele>
        <time>2019-01-18T12:20:01.000Z</time>
      </trkpt>
      <trkpt lat="43.32742" lon="5.68984">
        <ele>826</ele>
        <time>2019-01-18T12:20:02.000Z</time>
      </trkpt>
      <trkpt lat="43.32742" lon="5.68984">
        <ele>826</ele>
        <time>2019-01-18T12:20:03.000Z</time>
      </trkpt>
      <trkpt lat="43.32742" lon="5.68984">
        <ele>826</ele>
        <time>2019-01-18T12:20:04.000Z</time>
      </trkpt>
      <trkpt lat="43.32742" lon="5.68984">
        <ele>826</ele>
        <time>2019-01-18T12:20:05.000Z</time>
      </trkpt>
      <trkpt lat="43.32742" lon="5.68984">
        <ele>826</ele>
        <time>2019-01-18T12:20:06.000Z</time>
      </trkpt>
      <trkpt lat="43.32742" lon="5.68984">
        <ele>826</ele>
        <time>2019-01-18T12:20:07.000Z</time>
      </trkpt>
      <trkpt lat="43.32742" lon="5.68984">
        <ele>826</ele>
        <time>2019-01-18T12:20:08.000Z</time>
      </trkpt>
      <trkpt lat="43.32742" lon="5.68984">
        <ele>826</ele>
        <time>2019-01-18T12:20:09.000Z</time>
      </trkpt>
      <trkpt lat="43.32742" lon="5.68984">
        <ele>826</ele>
        <time>2019-01-18T12:20:10.000Z</time>
      </trkpt>
      <trkpt lat="43.32742" lon="5.68984">
        <ele>826</ele>
        <time>2019-01-18T12:20:11.000Z</time>
      </trkpt>
      <trkpt lat="43.32742" lon="5.68984">
        <ele>826</ele>
        <time>2019-01-18T12:20:12.000Z</time>
      </trkpt>
      <trkpt lat="43.32742" lon="5.68984">
        <ele>826</ele>
        <time>2019-01-18T12:20:13.000Z</time>
      </trkpt>
      <trkpt lat="43.32742" lon="5.68984">
        <ele>826</ele>
        <time>2019-01-18T12:20:14.000Z</time>
      </trkpt>
      <trkpt lat="43.32742" lon="5.68984">
        <ele>826</ele>
        <time>2019-01-18T12:20:15.000Z</time>
      </trkpt>
      <trkpt lat="43.32742" lon="5.68984">
        <ele>826</ele>
        <time>2019-01-18T12:20:16.000Z</time>
      </trkpt>
      <trkpt lat="43.32741" lon="5.68984">
        <ele>826</ele>
        <time>2019-01-18T12:20:17.000Z</time>
      </trkpt>
      <trkpt lat="43.32741" lon="5.68984">
        <ele>826</ele>
        <time>2019-01-18T12:20:18.000Z</time>
      </trkpt>
      <trkpt lat="43.32741" lon="5.68984">
        <ele>826</ele>
        <time>2019-01-18T12:20:19.000Z</time>
      </trkpt>
      <trkpt lat="43.32741" lon="5.68984">
        <ele>826</ele>
        <time>2019-01-18T12:20:20.000Z</time>
      </trkpt>
      <trkpt lat="43.32741" lon="5.68984">
        <ele>826</ele>
        <time>2019-01-18T12:20:21.000Z</time>
      </trkpt>
      <trkpt lat="43.32741" lon="5.68984">
        <ele>826</ele>
        <time>2019-01-18T12:20:22.000Z</time>
      </trkpt>
      <trkpt lat="43.32741" lon="5.68984">
        <ele>826</ele>
        <time>2019-01-18T12:20:23.000Z</time>
      </trkpt>
      <trkpt lat="43.32741" lon="5.68984">
        <ele>826</ele>
        <time>2019-01-18T12:20:24.000Z</time>
      </trkpt>
      <trkpt lat="43.32741" lon="5.68984">
        <ele>826</ele>
        <time>2019-01-18T12:20:25.000Z</time>
      </trkpt>
      <trkpt lat="43.32741" lon="5.68984">
        <ele>826</ele>
        <time>2019-01-18T12:20:26.000Z</time>
      </trkpt>
      <trkpt lat="43.32741" lon="5.68984">
        <ele>826</ele>
        <time>2019-01-18T12:20:27.000Z</time>
      </trkpt>
      <trkpt lat="43.32741" lon="5.68984">
        <ele>825</ele>
        <time>2019-01-18T12:20:28.000Z</time>
      </trkpt>
      <trkpt lat="43.32741" lon="5.68984">
        <ele>825</ele>
        <time>2019-01-18T12:20:29.000Z</time>
      </trkpt>
      <trkpt lat="43.32741" lon="5.68984">
        <ele>825</ele>
        <time>2019-01-18T12:20:30.000Z</time>
      </trkpt>
      <trkpt lat="43.32741" lon="5.68983">
        <ele>825</ele>
        <time>2019-01-18T12:20:31.000Z</time>
      </trkpt>
      <trkpt lat="43.32742" lon="5.68983">
        <ele>825</ele>
        <time>2019-01-18T12:20:32.000Z</time>
      </trkpt>
      <trkpt lat="43.32742" lon="5.68983">
        <ele>825</ele>
        <time>2019-01-18T12:20:33.000Z</time>
      </trkpt>
      <trkpt lat="43.32743" lon="5.68983">
        <ele>825</ele>
        <time>2019-01-18T12:20:34.000Z</time>
      </trkpt>
      <trkpt lat="43.32743" lon="5.68983">
        <ele>825</ele>
        <time>2019-01-18T12:20:35.000Z</time>
      </trkpt>
      <trkpt lat="43.32743" lon="5.68984">
        <ele>825</ele>
        <time>2019-01-18T12:20:36.000Z</time>
      </trkpt>
      <trkpt lat="43.32744" lon="5.68984">
        <ele>825</ele>
        <time>2019-01-18T12:20:37.000Z</time>
      </trkpt>
      <trkpt lat="43.32744" lon="5.68984">
        <ele>825</ele>
        <time>2019-01-18T12:20:38.000Z</time>
      </trkpt>
      <trkpt lat="43.32744" lon="5.68984">
        <ele>825</ele>
        <time>2019-01-18T12:20:39.000Z</time>
      </trkpt>
      <trkpt lat="43.32744" lon="5.68984">
        <ele>825</ele>
        <time>2019-01-18T12:20:40.000Z</time>
      </trkpt>
      <trkpt lat="43.32745" lon="5.68984">
        <ele>825</ele>
        <time>2019-01-18T12:20:41.000Z</time>
      </trkpt>
      <trkpt lat="43.32745" lon="5.68984">
        <ele>825</ele>
        <time>2019-01-18T12:20:42.000Z</time>
      </trkpt>
      <trkpt lat="43.32746" lon="5.68984">
        <ele>825</ele>
        <time>2019-01-18T12:20:43.000Z</time>
      </trkpt>
      <trkpt lat="43.32746" lon="5.68984">
        <ele>825</ele>
        <time>2019-01-18T12:20:44.000Z</time>
      </trkpt>
      <trkpt lat="43.32747" lon="5.68984">
        <ele>825</ele>
        <time>2019-01-18T12:20:45.000Z</time>
      </trkpt>
      <trkpt lat="43.32747" lon="5.68984">
        <ele>825</ele>
        <time>2019-01-18T12:20:46.000Z</time>
      </trkpt>
      <trkpt lat="43.32748" lon="5.68984">
        <ele>825</ele>
        <time>2019-01-18T12:20:47.000Z</time>
      </trkpt>
      <trkpt lat="43.32749" lon="5.68984">
        <ele>825</ele>
        <time>2019-01-18T12:20:48.000Z</time>
      </trkpt>
      <trkpt lat="43.32749" lon="5.68984">
        <ele>824</ele>
        <time>2019-01-18T12:20:49.000Z</time>
      </trkpt>
      <trkpt lat="43.3275" lon="5.68984">
        <ele>824</ele>
        <time>2019-01-18T12:20:50.000Z</time>
      </trkpt>
      <trkpt lat="43.3275" lon="5.68984">
        <ele>824</ele>
        <time>2019-01-18T12:20:51.000Z</time>
      </trkpt>
      <trkpt lat="43.32751" lon="5.68984">
        <ele>824</ele>
        <time>2019-01-18T12:20:52.000Z</time>
      </trkpt>
      <trkpt lat="43.32751" lon="5.68984">
        <ele>824</ele>
        <time>2019-01-18T12:20:53.000Z</time>
      </trkpt>
      <trkpt lat="43.32752" lon="5.68984">
        <ele>824</ele>
        <time>2019-01-18T12:20:54.000Z</time>
      </trkpt>
      <trkpt lat="43.32752" lon="5.68983">
        <ele>824</ele>
        <time>2019-01-18T12:20:55.000Z</time>
      </trkpt>
      <trkpt lat="43.32753" lon="5.68983">
        <ele>824</ele>
        <time>2019-01-18T12:20:56.000Z</time>
      </trkpt>
      <trkpt lat="43.32754" lon="5.68982">
        <ele>824</ele>
        <time>2019-01-18T12:20:57.000Z</time>
      </trkpt>
      <trkpt lat="43.32754" lon="5.68982">
        <ele>823</ele>
        <time>2019-01-18T12:20:58.000Z</time>
      </trkpt>
      <trkpt lat="43.32754" lon="5.68981">
        <ele>823</ele>
        <time>2019-01-18T12:20:59.000Z</time>
      </trkpt>
      <trkpt lat="43.32755" lon="5.6898">
        <ele>823</ele>
        <time>2019-01-18T12:21:00.000Z</time>
      </trkpt>
      <trkpt lat="43.32755" lon="5.6898">
        <ele>823</ele>
        <time>2019-01-18T12:21:01.000Z</time>
      </trkpt>
      <trkpt lat="43.32756" lon="5.6898">
        <ele>823</ele>
        <time>2019-01-18T12:21:02.000Z</time>
      </trkpt>
      <trkpt lat="43.32757" lon="5.6898">
        <ele>823</ele>
        <time>2019-01-18T12:21:03.000Z</time>
      </trkpt>
      <trkpt lat="43.32758" lon="5.68982">
        <ele>823</ele>
        <time>2019-01-18T12:21:04.000Z</time>
      </trkpt>
      <trkpt lat="43.32758" lon="5.68983">
        <ele>823</ele>
        <time>2019-01-18T12:21:05.000Z</time>
      </trkpt>
      <trkpt lat="43.32758" lon="5.68983">
        <ele>823</ele>
        <time>2019-01-18T12:21:06.000Z</time>
      </trkpt>
      <trkpt lat="43.32759" lon="5.68984">
        <ele>823</ele>
        <time>2019-01-18T12:21:07.000Z</time>
      </trkpt>
      <trkpt lat="43.32759" lon="5.68984">
        <ele>823</ele>
        <time>2019-01-18T12:21:08.000Z</time>
      </trkpt>
      <trkpt lat="43.32759" lon="5.68985">
        <ele>822</ele>
        <time>2019-01-18T12:21:09.000Z</time>
      </trkpt>
      <trkpt lat="43.3276" lon="5.68984">
        <ele>822</ele>
        <time>2019-01-18T12:21:10.000Z</time>
      </trkpt>
      <trkpt lat="43.3276" lon="5.68984">
        <ele>822</ele>
        <time>2019-01-18T12:21:11.000Z</time>
      </trkpt>
      <trkpt lat="43.32761" lon="5.68984">
        <ele>822</ele>
        <time>2019-01-18T12:21:12.000Z</time>
      </trkpt>
      <trkpt lat="43.32762" lon="5.68985">
        <ele>822</ele>
        <time>2019-01-18T12:21:13.000Z</time>
      </trkpt>
      <trkpt lat="43.32763" lon="5.68986">
        <ele>822</ele>
        <time>2019-01-18T12:21:14.000Z</time>
      </trkpt>
      <trkpt lat="43.32764" lon="5.68986">
        <ele>822</ele>
        <time>2019-01-18T12:21:15.000Z</time>
      </trkpt>
      <trkpt lat="43.32764" lon="5.68987">
        <ele>822</ele>
        <time>2019-01-18T12:21:16.000Z</time>
      </trkpt>
      <trkpt lat="43.32765" lon="5.68988">
        <ele>822</ele>
        <time>2019-01-18T12:21:17.000Z</time>
      </trkpt>
      <trkpt lat="43.32765" lon="5.68989">
        <ele>822</ele>
        <time>2019-01-18T12:21:18.000Z</time>
      </trkpt>
      <trkpt lat="43.32766" lon="5.68989">
        <ele>822</ele>
        <time>2019-01-18T12:21:19.000Z</time>
      </trkpt>
      <trkpt lat="43.32766" lon="5.6899">
        <ele>821</ele>
        <time>2019-01-18T12:21:20.000Z</time>
      </trkpt>
      <trkpt lat="43.32766" lon="5.6899">
        <ele>821</ele>
        <time>2019-01-18T12:21:21.000Z</time>
      </trkpt>
      <trkpt lat="43.32766" lon="5.6899">
        <ele>821</ele>
        <time>2019-01-18T12:21:22.000Z</time>
      </trkpt>
      <trkpt lat="43.32767" lon="5.6899">
        <ele>821</ele>
        <time>2019-01-18T12:21:23.000Z</time>
      </trkpt>
      <trkpt lat="43.32767" lon="5.68989">
        <ele>821</ele>
        <time>2019-01-18T12:21:24.000Z</time>
      </trkpt>
      <trkpt lat="43.32768" lon="5.68989">
        <ele>821</ele>
        <time>2019-01-18T12:21:25.000Z</time>
      </trkpt>
      <trkpt lat="43.32768" lon="5.68989">
        <ele>821</ele>
        <time>2019-01-18T12:21:26.000Z</time>
      </trkpt>
      <trkpt lat="43.32769" lon="5.68988">
        <ele>821</ele>
        <time>2019-01-18T12:21:27.000Z</time>
      </trkpt>
      <trkpt lat="43.32769" lon="5.68987">
        <ele>820</ele>
        <time>2019-01-18T12:21:28.000Z</time>
      </trkpt>
      <trkpt lat="43.32769" lon="5.68987">
        <ele>820</ele>
        <time>2019-01-18T12:21:29.000Z</time>
      </trkpt>
      <trkpt lat="43.32769" lon="5.68986">
        <ele>820</ele>
        <time>2019-01-18T12:21:30.000Z</time>
      </trkpt>
      <trkpt lat="43.32769" lon="5.68985">
        <ele>820</ele>
        <time>2019-01-18T12:21:31.000Z</time>
      </trkpt>
      <trkpt lat="43.32769" lon="5.68985">
        <ele>820</ele>
        <time>2019-01-18T12:21:32.000Z</time>
      </trkpt>
      <trkpt lat="43.32769" lon="5.68985">
        <ele>820</ele>
        <time>2019-01-18T12:21:33.000Z</time>
      </trkpt>
      <trkpt lat="43.32769" lon="5.68984">
        <ele>820</ele>
        <time>2019-01-18T12:21:34.000Z</time>
      </trkpt>
      <trkpt lat="43.32769" lon="5.68983">
        <ele>820</ele>
        <time>2019-01-18T12:21:35.000Z</time>
      </trkpt>
      <trkpt lat="43.32769" lon="5.68983">
        <ele>820</ele>
        <time>2019-01-18T12:21:36.000Z</time>
      </trkpt>
      <trkpt lat="43.32769" lon="5.68982">
        <ele>820</ele>
        <time>2019-01-18T12:21:37.000Z</time>
      </trkpt>
      <trkpt lat="43.32768" lon="5.68982">
        <ele>820</ele>
        <time>2019-01-18T12:21:38.000Z</time>
      </trkpt>
      <trkpt lat="43.32768" lon="5.68982">
        <ele>820</ele>
        <time>2019-01-18T12:21:39.000Z</time>
      </trkpt>
      <trkpt lat="43.32768" lon="5.68981">
        <ele>819</ele>
        <time>2019-01-18T12:21:40.000Z</time>
      </trkpt>
      <trkpt lat="43.32768" lon="5.68981">
        <ele>819</ele>
        <time>2019-01-18T12:21:41.000Z</time>
      </trkpt>
      <trkpt lat="43.32768" lon="5.68981">
        <ele>819</ele>
        <time>2019-01-18T12:21:42.000Z</time>
      </trkpt>
      <trkpt lat="43.32768" lon="5.68981">
        <ele>819</ele>
        <time>2019-01-18T12:21:43.000Z</time>
      </trkpt>
      <trkpt lat="43.32768" lon="5.68981">
        <ele>819</ele>
        <time>2019-01-18T12:21:44.000Z</time>
      </trkpt>
      <trkpt lat="43.32768" lon="5.68981">
        <ele>819</ele>
        <time>2019-01-18T12:21:45.000Z</time>
      </trkpt>
      <trkpt lat="43.32768" lon="5.68981">
        <ele>819</ele>
        <time>2019-01-18T12:21:46.000Z</time>
      </trkpt>
      <trkpt lat="43.32768" lon="5.68981">
        <ele>819</ele>
        <time>2019-01-18T12:21:47.000Z</time>
      </trkpt>
      <trkpt lat="43.32768" lon="5.68981">
        <ele>819</ele>
        <time>2019-01-18T12:21:48.000Z</time>
      </trkpt>
      <trkpt lat="43.32768" lon="5.68981">
        <ele>819</ele>
        <time>2019-01-18T12:21:49.000Z</time>
      </trkpt>
      <trkpt lat="43.32768" lon="5.68981">
        <ele>819</ele>
        <time>2019-01-18T12:21:50.000Z</time>
      </trkpt>
      <trkpt lat="43.32768" lon="5.6898">
        <ele>819</ele>
        <time>2019-01-18T12:21:51.000Z</time>
      </trkpt>
      <trkpt lat="43.32768" lon="5.6898">
        <ele>819</ele>
        <time>2019-01-18T12:21:52.000Z</time>
      </trkpt>
      <trkpt lat="43.32767" lon="5.6898">
        <ele>818</ele>
        <time>2019-01-18T12:21:53.000Z</time>
      </trkpt>
      <trkpt lat="43.32767" lon="5.68979">
        <ele>818</ele>
        <time>2019-01-18T12:21:54.000Z</time>
      </trkpt>
      <trkpt lat="43.32767" lon="5.68979">
        <ele>818</ele>
        <time>2019-01-18T12:21:55.000Z</time>
      </trkpt>
      <trkpt lat="43.32767" lon="5.68979">
        <ele>818</ele>
        <time>2019-01-18T12:21:56.000Z</time>
      </trkpt>
      <trkpt lat="43.32767" lon="5.68979">
        <ele>818</ele>
        <time>2019-01-18T12:21:57.000Z</time>
      </trkpt>
      <trkpt lat="43.32767" lon="5.68977">
        <ele>818</ele>
        <time>2019-01-18T12:21:58.000Z</time>
      </trkpt>
      <trkpt lat="43.32766" lon="5.68977">
        <ele>818</ele>
        <time>2019-01-18T12:21:59.000Z</time>
      </trkpt>
      <trkpt lat="43.32766" lon="5.68977">
        <ele>818</ele>
        <time>2019-01-18T12:22:00.000Z</time>
      </trkpt>
      <trkpt lat="43.32766" lon="5.68977">
        <ele>818</ele>
        <time>2019-01-18T12:22:01.000Z</time>
      </trkpt>
      <trkpt lat="43.32766" lon="5.68976">
        <ele>817</ele>
        <time>2019-01-18T12:22:02.000Z</time>
      </trkpt>
      <trkpt lat="43.32766" lon="5.68976">
        <ele>817</ele>
        <time>2019-01-18T12:22:03.000Z</time>
      </trkpt>
      <trkpt lat="43.32766" lon="5.68976">
        <ele>817</ele>
        <time>2019-01-18T12:22:04.000Z</time>
      </trkpt>
      <trkpt lat="43.32766" lon="5.68976">
        <ele>817</ele>
        <time>2019-01-18T12:22:05.000Z</time>
      </trkpt>
      <trkpt lat="43.32766" lon="5.68976">
        <ele>817</ele>
        <time>2019-01-18T12:22:06.000Z</time>
      </trkpt>
      <trkpt lat="43.32766" lon="5.68976">
        <ele>817</ele>
        <time>2019-01-18T12:22:07.000Z</time>
      </trkpt>
      <trkpt lat="43.32766" lon="5.68976">
        <ele>817</ele>
        <time>2019-01-18T12:22:08.000Z</time>
      </trkpt>
      <trkpt lat="43.32766" lon="5.68976">
        <ele>817</ele>
        <time>2019-01-18T12:22:09.000Z</time>
      </trkpt>
      <trkpt lat="43.32766" lon="5.68976">
        <ele>817</ele>
        <time>2019-01-18T12:22:10.000Z</time>
      </trkpt>
      <trkpt lat="43.32766" lon="5.68976">
        <ele>817</ele>
        <time>2019-01-18T12:22:11.000Z</time>
      </trkpt>
      <trkpt lat="43.32766" lon="5.68975">
        <ele>817</ele>
        <time>2019-01-18T12:22:12.000Z</time>
      </trkpt>
      <trkpt lat="43.32766" lon="5.68975">
        <ele>817</ele>
        <time>2019-01-18T12:22:13.000Z</time>
      </trkpt>
      <trkpt lat="43.32766" lon="5.68975">
        <ele>817</ele>
        <time>2019-01-18T12:22:14.000Z</time>
      </trkpt>
      <trkpt lat="43.32766" lon="5.68975">
        <ele>817</ele>
        <time>2019-01-18T12:22:15.000Z</time>
      </trkpt>
      <trkpt lat="43.32766" lon="5.68975">
        <ele>817</ele>
        <time>2019-01-18T12:22:16.000Z</time>
      </trkpt>
      <trkpt lat="43.32766" lon="5.68975">
        <ele>817</ele>
        <time>2019-01-18T12:22:17.000Z</time>
      </trkpt>
      <trkpt lat="43.32766" lon="5.68975">
        <ele>817</ele>
        <time>2019-01-18T12:22:18.000Z</time>
      </trkpt>
      <trkpt lat="43.32766" lon="5.68974">
        <ele>817</ele>
        <time>2019-01-18T12:22:19.000Z</time>
      </trkpt>
      <trkpt lat="43.32766" lon="5.68974">
        <ele>816</ele>
        <time>2019-01-18T12:22:20.000Z</time>
      </trkpt>
      <trkpt lat="43.32766" lon="5.68974">
        <ele>816</ele>
        <time>2019-01-18T12:22:21.000Z</time>
      </trkpt>
      <trkpt lat="43.32766" lon="5.68974">
        <ele>816</ele>
        <time>2019-01-18T12:22:22.000Z</time>
      </trkpt>
      <trkpt lat="43.32767" lon="5.68973">
        <ele>816</ele>
        <time>2019-01-18T12:22:23.000Z</time>
      </trkpt>
      <trkpt lat="43.32767" lon="5.68973">
        <ele>816</ele>
        <time>2019-01-18T12:22:24.000Z</time>
      </trkpt>
      <trkpt lat="43.32767" lon="5.68972">
        <ele>816</ele>
        <time>2019-01-18T12:22:25.000Z</time>
      </trkpt>
      <trkpt lat="43.32766" lon="5.68972">
        <ele>816</ele>
        <time>2019-01-18T12:22:26.000Z</time>
      </trkpt>
      <trkpt lat="43.32766" lon="5.68971">
        <ele>816</ele>
        <time>2019-01-18T12:22:27.000Z</time>
      </trkpt>
      <trkpt lat="43.32766" lon="5.68971">
        <ele>816</ele>
        <time>2019-01-18T12:22:28.000Z</time>
      </trkpt>
      <trkpt lat="43.32766" lon="5.6897">
        <ele>815</ele>
        <time>2019-01-18T12:22:29.000Z</time>
      </trkpt>
      <trkpt lat="43.32767" lon="5.6897">
        <ele>815</ele>
        <time>2019-01-18T12:22:30.000Z</time>
      </trkpt>
      <trkpt lat="43.32767" lon="5.6897">
        <ele>815</ele>
        <time>2019-01-18T12:22:31.000Z</time>
      </trkpt>
      <trkpt lat="43.32767" lon="5.6897">
        <ele>815</ele>
        <time>2019-01-18T12:22:32.000Z</time>
      </trkpt>
      <trkpt lat="43.32767" lon="5.6897">
        <ele>815</ele>
        <time>2019-01-18T12:22:33.000Z</time>
      </trkpt>
      <trkpt lat="43.32768" lon="5.68969">
        <ele>814</ele>
        <time>2019-01-18T12:22:34.000Z</time>
      </trkpt>
      <trkpt lat="43.32768" lon="5.68969">
        <ele>814</ele>
        <time>2019-01-18T12:22:35.000Z</time>
      </trkpt>
      <trkpt lat="43.32768" lon="5.68969">
        <ele>814</ele>
        <time>2019-01-18T12:22:36.000Z</time>
      </trkpt>
      <trkpt lat="43.32768" lon="5.68969">
        <ele>814</ele>
        <time>2019-01-18T12:22:37.000Z</time>
      </trkpt>
      <trkpt lat="43.32768" lon="5.68969">
        <ele>814</ele>
        <time>2019-01-18T12:22:38.000Z</time>
      </trkpt>
      <trkpt lat="43.32768" lon="5.68969">
        <ele>814</ele>
        <time>2019-01-18T12:22:39.000Z</time>
      </trkpt>
      <trkpt lat="43.32768" lon="5.68969">
        <ele>813</ele>
        <time>2019-01-18T12:22:40.000Z</time>
      </trkpt>
      <trkpt lat="43.32768" lon="5.68969">
        <ele>813</ele>
        <time>2019-01-18T12:22:41.000Z</time>
      </trkpt>
      <trkpt lat="43.32769" lon="5.68969">
        <ele>813</ele>
        <time>2019-01-18T12:22:42.000Z</time>
      </trkpt>
      <trkpt lat="43.32769" lon="5.68969">
        <ele>813</ele>
        <time>2019-01-18T12:22:43.000Z</time>
      </trkpt>
      <trkpt lat="43.32769" lon="5.68969">
        <ele>813</ele>
        <time>2019-01-18T12:22:44.000Z</time>
      </trkpt>
      <trkpt lat="43.3277" lon="5.68969">
        <ele>813</ele>
        <time>2019-01-18T12:22:45.000Z</time>
      </trkpt>
      <trkpt lat="43.3277" lon="5.68969">
        <ele>813</ele>
        <time>2019-01-18T12:22:46.000Z</time>
      </trkpt>
      <trkpt lat="43.3277" lon="5.68968">
        <ele>813</ele>
        <time>2019-01-18T12:22:47.000Z</time>
      </trkpt>
      <trkpt lat="43.3277" lon="5.68968">
        <ele>813</ele>
        <time>2019-01-18T12:22:48.000Z</time>
      </trkpt>
      <trkpt lat="43.3277" lon="5.68968">
        <ele>813</ele>
        <time>2019-01-18T12:22:49.000Z</time>
      </trkpt>
      <trkpt lat="43.3277" lon="5.68967">
        <ele>812</ele>
        <time>2019-01-18T12:22:50.000Z</time>
      </trkpt>
      <trkpt lat="43.3277" lon="5.68967">
        <ele>812</ele>
        <time>2019-01-18T12:22:51.000Z</time>
      </trkpt>
      <trkpt lat="43.32769" lon="5.68967">
        <ele>812</ele>
        <time>2019-01-18T12:22:52.000Z</time>
      </trkpt>
      <trkpt lat="43.32769" lon="5.68966">
        <ele>812</ele>
        <time>2019-01-18T12:22:53.000Z</time>
      </trkpt>
      <trkpt lat="43.32769" lon="5.68966">
        <ele>812</ele>
        <time>2019-01-18T12:22:54.000Z</time>
      </trkpt>
      <trkpt lat="43.32768" lon="5.68965">
        <ele>812</ele>
        <time>2019-01-18T12:22:55.000Z</time>
      </trkpt>
      <trkpt lat="43.32768" lon="5.68964">
        <ele>812</ele>
        <time>2019-01-18T12:22:56.000Z</time>
      </trkpt>
      <trkpt lat="43.32768" lon="5.68964">
        <ele>812</ele>
        <time>2019-01-18T12:22:57.000Z</time>
      </trkpt>
      <trkpt lat="43.32768" lon="5.68963">
        <ele>811</ele>
        <time>2019-01-18T12:22:58.000Z</time>
      </trkpt>
      <trkpt lat="43.32767" lon="5.68963">
        <ele>811</ele>
        <time>2019-01-18T12:22:59.000Z</time>
      </trkpt>
      <trkpt lat="43.32767" lon="5.68963">
        <ele>811</ele>
        <time>2019-01-18T12:23:00.000Z</time>
      </trkpt>
      <trkpt lat="43.32767" lon="5.68962">
        <ele>811</ele>
        <time>2019-01-18T12:23:01.000Z</time>
      </trkpt>
      <trkpt lat="43.32767" lon="5.68962">
        <ele>811</ele>
        <time>2019-01-18T12:23:02.000Z</time>
      </trkpt>
      <trkpt lat="43.32766" lon="5.68962">
        <ele>811</ele>
        <time>2019-01-18T12:23:03.000Z</time>
      </trkpt>
      <trkpt lat="43.32766" lon="5.68962">
        <ele>811</ele>
        <time>2019-01-18T12:23:04.000Z</time>
      </trkpt>
      <trkpt lat="43.32766" lon="5.68962">
        <ele>810</ele>
        <time>2019-01-18T12:23:05.000Z</time>
      </trkpt>
      <trkpt lat="43.32766" lon="5.68962">
        <ele>810</ele>
        <time>2019-01-18T12:23:06.000Z</time>
      </trkpt>
      <trkpt lat="43.32766" lon="5.68962">
        <ele>810</ele>
        <time>2019-01-18T12:23:07.000Z</time>
      </trkpt>
      <trkpt lat="43.32766" lon="5.68962">
        <ele>810</ele>
        <time>2019-01-18T12:23:08.000Z</time>
      </trkpt>
      <trkpt lat="43.32765" lon="5.68961">
        <ele>810</ele>
        <time>2019-01-18T12:23:09.000Z</time>
      </trkpt>
      <trkpt lat="43.32765" lon="5.68961">
        <ele>810</ele>
        <time>2019-01-18T12:23:10.000Z</time>
      </trkpt>
      <trkpt lat="43.32765" lon="5.68961">
        <ele>810</ele>
        <time>2019-01-18T12:23:11.000Z</time>
      </trkpt>
      <trkpt lat="43.32765" lon="5.68961">
        <ele>810</ele>
        <time>2019-01-18T12:23:12.000Z</time>
      </trkpt>
      <trkpt lat="43.32765" lon="5.68961">
        <ele>810</ele>
        <time>2019-01-18T12:23:13.000Z</time>
      </trkpt>
      <trkpt lat="43.32765" lon="5.68961">
        <ele>810</ele>
        <time>2019-01-18T12:23:14.000Z</time>
      </trkpt>
      <trkpt lat="43.32765" lon="5.6896">
        <ele>809</ele>
        <time>2019-01-18T12:23:15.000Z</time>
      </trkpt>
      <trkpt lat="43.32765" lon="5.6896">
        <ele>809</ele>
        <time>2019-01-18T12:23:16.000Z</time>
      </trkpt>
      <trkpt lat="43.32765" lon="5.6896">
        <ele>809</ele>
        <time>2019-01-18T12:23:17.000Z</time>
      </trkpt>
      <trkpt lat="43.32765" lon="5.6896">
        <ele>809</ele>
        <time>2019-01-18T12:23:18.000Z</time>
      </trkpt>
      <trkpt lat="43.32765" lon="5.6896">
        <ele>809</ele>
        <time>2019-01-18T12:23:19.000Z</time>
      </trkpt>
      <trkpt lat="43.32765" lon="5.6896">
        <ele>809</ele>
        <time>2019-01-18T12:23:20.000Z</time>
      </trkpt>
      <trkpt lat="43.32765" lon="5.68959">
        <ele>809</ele>
        <time>2019-01-18T12:23:21.000Z</time>
      </trkpt>
      <trkpt lat="43.32765" lon="5.68959">
        <ele>808</ele>
        <time>2019-01-18T12:23:22.000Z</time>
      </trkpt>
      <trkpt lat="43.32765" lon="5.68959">
        <ele>808</ele>
        <time>2019-01-18T12:23:23.000Z</time>
      </trkpt>
      <trkpt lat="43.32765" lon="5.68959">
        <ele>808</ele>
        <time>2019-01-18T12:23:24.000Z</time>
      </trkpt>
      <trkpt lat="43.32765" lon="5.68958">
        <ele>808</ele>
        <time>2019-01-18T12:23:25.000Z</time>
      </trkpt>
      <trkpt lat="43.32765" lon="5.68958">
        <ele>808</ele>
        <time>2019-01-18T12:23:26.000Z</time>
      </trkpt>
      <trkpt lat="43.32765" lon="5.68958">
        <ele>808</ele>
        <time>2019-01-18T12:23:27.000Z</time>
      </trkpt>
      <trkpt lat="43.32765" lon="5.68958">
        <ele>808</ele>
        <time>2019-01-18T12:23:28.000Z</time>
      </trkpt>
      <trkpt lat="43.32765" lon="5.68958">
        <ele>808</ele>
        <time>2019-01-18T12:23:29.000Z</time>
      </trkpt>
      <trkpt lat="43.32765" lon="5.68957">
        <ele>808</ele>
        <time>2019-01-18T12:23:30.000Z</time>
      </trkpt>
      <trkpt lat="43.32765" lon="5.68957">
        <ele>807</ele>
        <time>2019-01-18T12:23:31.000Z</time>
      </trkpt>
      <trkpt lat="43.32766" lon="5.68957">
        <ele>807</ele>
        <time>2019-01-18T12:23:32.000Z</time>
      </trkpt>
      <trkpt lat="43.32767" lon="5.68957">
        <ele>807</ele>
        <time>2019-01-18T12:23:33.000Z</time>
      </trkpt>
      <trkpt lat="43.32767" lon="5.68957">
        <ele>807</ele>
        <time>2019-01-18T12:23:34.000Z</time>
      </trkpt>
      <trkpt lat="43.32767" lon="5.68957">
        <ele>807</ele>
        <time>2019-01-18T12:23:35.000Z</time>
      </trkpt>
      <trkpt lat="43.32767" lon="5.68956">
        <ele>807</ele>
        <time>2019-01-18T12:23:36.000Z</time>
      </trkpt>
      <trkpt lat="43.32767" lon="5.68956">
        <ele>807</ele>
        <time>2019-01-18T12:23:37.000Z</time>
      </trkpt>
      <trkpt lat="43.32767" lon="5.68956">
        <ele>807</ele>
        <time>2019-01-18T12:23:38.000Z</time>
      </trkpt>
      <trkpt lat="43.32766" lon="5.68955">
        <ele>806</ele>
        <time>2019-01-18T12:23:39.000Z</time>
      </trkpt>
      <trkpt lat="43.32766" lon="5.68955">
        <ele>806</ele>
        <time>2019-01-18T12:23:40.000Z</time>
      </trkpt>
      <trkpt lat="43.32766" lon="5.68955">
        <ele>806</ele>
        <time>2019-01-18T12:23:41.000Z</time>
      </trkpt>
      <trkpt lat="43.32766" lon="5.68954">
        <ele>806</ele>
        <time>2019-01-18T12:23:42.000Z</time>
      </trkpt>
      <trkpt lat="43.32766" lon="5.68954">
        <ele>806</ele>
        <time>2019-01-18T12:23:43.000Z</time>
      </trkpt>
      <trkpt lat="43.32766" lon="5.68954">
        <ele>805</ele>
        <time>2019-01-18T12:23:44.000Z</time>
      </trkpt>
      <trkpt lat="43.32766" lon="5.68954">
        <ele>805</ele>
        <time>2019-01-18T12:23:45.000Z</time>
      </trkpt>
      <trkpt lat="43.32766" lon="5.68954">
        <ele>805</ele>
        <time>2019-01-18T12:23:46.000Z</time>
      </trkpt>
      <trkpt lat="43.32766" lon="5.68954">
        <ele>805</ele>
        <time>2019-01-18T12:23:47.000Z</time>
      </trkpt>
      <trkpt lat="43.32766" lon="5.68954">
        <ele>805</ele>
        <time>2019-01-18T12:23:48.000Z</time>
      </trkpt>
      <trkpt lat="43.32766" lon="5.68954">
        <ele>805</ele>
        <time>2019-01-18T12:23:49.000Z</time>
      </trkpt>
      <trkpt lat="43.32766" lon="5.68954">
        <ele>805</ele>
        <time>2019-01-18T12:23:50.000Z</time>
      </trkpt>
      <trkpt lat="43.32766" lon="5.68954">
        <ele>805</ele>
        <time>2019-01-18T12:23:51.000Z</time>
      </trkpt>
      <trkpt lat="43.32765" lon="5.68954">
        <ele>805</ele>
        <time>2019-01-18T12:23:52.000Z</time>
      </trkpt>
      <trkpt lat="43.32765" lon="5.68953">
        <ele>805</ele>
        <time>2019-01-18T12:23:53.000Z</time>
      </trkpt>
      <trkpt lat="43.32764" lon="5.68953">
        <ele>804</ele>
        <time>2019-01-18T12:23:54.000Z</time>
      </trkpt>
      <trkpt lat="43.32764" lon="5.68953">
        <ele>804</ele>
        <time>2019-01-18T12:23:55.000Z</time>
      </trkpt>
      <trkpt lat="43.32764" lon="5.68953">
        <ele>804</ele>
        <time>2019-01-18T12:23:56.000Z</time>
      </trkpt>
      <trkpt lat="43.32764" lon="5.68953">
        <ele>804</ele>
        <time>2019-01-18T12:23:57.000Z</time>
      </trkpt>
      <trkpt lat="43.32764" lon="5.68952">
        <ele>804</ele>
        <time>2019-01-18T12:23:58.000Z</time>
      </trkpt>
      <trkpt lat="43.32764" lon="5.68952">
        <ele>804</ele>
        <time>2019-01-18T12:23:59.000Z</time>
      </trkpt>
      <trkpt lat="43.32764" lon="5.68952">
        <ele>804</ele>
        <time>2019-01-18T12:24:00.000Z</time>
      </trkpt>
      <trkpt lat="43.32764" lon="5.68952">
        <ele>804</ele>
        <time>2019-01-18T12:24:01.000Z</time>
      </trkpt>
      <trkpt lat="43.32764" lon="5.68952">
        <ele>804</ele>
        <time>2019-01-18T12:24:02.000Z</time>
      </trkpt>
      <trkpt lat="43.32764" lon="5.68952">
        <ele>804</ele>
        <time>2019-01-18T12:24:03.000Z</time>
      </trkpt>
      <trkpt lat="43.32764" lon="5.68952">
        <ele>804</ele>
        <time>2019-01-18T12:24:04.000Z</time>
      </trkpt>
      <trkpt lat="43.32764" lon="5.68952">
        <ele>803</ele>
        <time>2019-01-18T12:24:05.000Z</time>
      </trkpt>
      <trkpt lat="43.32764" lon="5.68952">
        <ele>803</ele>
        <time>2019-01-18T12:24:06.000Z</time>
      </trkpt>
      <trkpt lat="43.32764" lon="5.68951">
        <ele>803</ele>
        <time>2019-01-18T12:24:07.000Z</time>
      </trkpt>
      <trkpt lat="43.32764" lon="5.68951">
        <ele>803</ele>
        <time>2019-01-18T12:24:08.000Z</time>
      </trkpt>
      <trkpt lat="43.32764" lon="5.68951">
        <ele>803</ele>
        <time>2019-01-18T12:24:09.000Z</time>
      </trkpt>
      <trkpt lat="43.32764" lon="5.68951">
        <ele>803</ele>
        <time>2019-01-18T12:24:10.000Z</time>
      </trkpt>
      <trkpt lat="43.32763" lon="5.6895">
        <ele>803</ele>
        <time>2019-01-18T12:24:11.000Z</time>
      </trkpt>
      <trkpt lat="43.32763" lon="5.6895">
        <ele>803</ele>
        <time>2019-01-18T12:24:12.000Z</time>
      </trkpt>
      <trkpt lat="43.32763" lon="5.6895">
        <ele>803</ele>
        <time>2019-01-18T12:24:13.000Z</time>
      </trkpt>
      <trkpt lat="43.32763" lon="5.6895">
        <ele>802</ele>
        <time>2019-01-18T12:24:14.000Z</time>
      </trkpt>
      <trkpt lat="43.32764" lon="5.6895">
        <ele>802</ele>
        <time>2019-01-18T12:24:15.000Z</time>
      </trkpt>
      <trkpt lat="43.32764" lon="5.6895">
        <ele>802</ele>
        <time>2019-01-18T12:24:16.000Z</time>
      </trkpt>
      <trkpt lat="43.32764" lon="5.6895">
        <ele>802</ele>
        <time>2019-01-18T12:24:17.000Z</time>
      </trkpt>
      <trkpt lat="43.32764" lon="5.68949">
        <ele>802</ele>
        <time>2019-01-18T12:24:18.000Z</time>
      </trkpt>
      <trkpt lat="43.32765" lon="5.68949">
        <ele>802</ele>
        <time>2019-01-18T12:24:19.000Z</time>
      </trkpt>
      <trkpt lat="43.32765" lon="5.68949">
        <ele>801</ele>
        <time>2019-01-18T12:24:20.000Z</time>
      </trkpt>
      <trkpt lat="43.32765" lon="5.68948">
        <ele>801</ele>
        <time>2019-01-18T12:24:21.000Z</time>
      </trkpt>
      <trkpt lat="43.32765" lon="5.68947">
        <ele>801</ele>
        <time>2019-01-18T12:24:22.000Z</time>
      </trkpt>
      <trkpt lat="43.32765" lon="5.68946">
        <ele>801</ele>
        <time>2019-01-18T12:24:23.000Z</time>
      </trkpt>
      <trkpt lat="43.32765" lon="5.68946">
        <ele>801</ele>
        <time>2019-01-18T12:24:24.000Z</time>
      </trkpt>
      <trkpt lat="43.32766" lon="5.68946">
        <ele>800</ele>
        <time>2019-01-18T12:24:25.000Z</time>
      </trkpt>
      <trkpt lat="43.32766" lon="5.68946">
        <ele>800</ele>
        <time>2019-01-18T12:24:26.000Z</time>
      </trkpt>
      <trkpt lat="43.32767" lon="5.68946">
        <ele>800</ele>
        <time>2019-01-18T12:24:27.000Z</time>
      </trkpt>
      <trkpt lat="43.32767" lon="5.68945">
        <ele>800</ele>
        <time>2019-01-18T12:24:28.000Z</time>
      </trkpt>
      <trkpt lat="43.32768" lon="5.68946">
        <ele>799</ele>
        <time>2019-01-18T12:24:29.000Z</time>
      </trkpt>
      <trkpt lat="43.32768" lon="5.68946">
        <ele>799</ele>
        <time>2019-01-18T12:24:30.000Z</time>
      </trkpt>
      <trkpt lat="43.32769" lon="5.68947">
        <ele>799</ele>
        <time>2019-01-18T12:24:31.000Z</time>
      </trkpt>
      <trkpt lat="43.32769" lon="5.68947">
        <ele>799</ele>
        <time>2019-01-18T12:24:32.000Z</time>
      </trkpt>
      <trkpt lat="43.32769" lon="5.68948">
        <ele>799</ele>
        <time>2019-01-18T12:24:33.000Z</time>
      </trkpt>
      <trkpt lat="43.3277" lon="5.68949">
        <ele>798</ele>
        <time>2019-01-18T12:24:34.000Z</time>
      </trkpt>
      <trkpt lat="43.3277" lon="5.68949">
        <ele>798</ele>
        <time>2019-01-18T12:24:35.000Z</time>
      </trkpt>
      <trkpt lat="43.32771" lon="5.68949">
        <ele>798</ele>
        <time>2019-01-18T12:24:36.000Z</time>
      </trkpt>
      <trkpt lat="43.32771" lon="5.6895">
        <ele>798</ele>
        <time>2019-01-18T12:24:37.000Z</time>
      </trkpt>
      <trkpt lat="43.32771" lon="5.6895">
        <ele>797</ele>
        <time>2019-01-18T12:24:38.000Z</time>
      </trkpt>
      <trkpt lat="43.32771" lon="5.6895">
        <ele>797</ele>
        <time>2019-01-18T12:24:39.000Z</time>
      </trkpt>
      <trkpt lat="43.32772" lon="5.6895">
        <ele>797</ele>
        <time>2019-01-18T12:24:40.000Z</time>
      </trkpt>
      <trkpt lat="43.32772" lon="5.68951">
        <ele>797</ele>
        <time>2019-01-18T12:24:41.000Z</time>
      </trkpt>
      <trkpt lat="43.32773" lon="5.68951">
        <ele>797</ele>
        <time>2019-01-18T12:24:42.000Z</time>
      </trkpt>
      <trkpt lat="43.32773" lon="5.68952">
        <ele>797</ele>
        <time>2019-01-18T12:24:43.000Z</time>
      </trkpt>
      <trkpt lat="43.32774" lon="5.68952">
        <ele>797</ele>
        <time>2019-01-18T12:24:44.000Z</time>
      </trkpt>
      <trkpt lat="43.32774" lon="5.68952">
        <ele>797</ele>
        <time>2019-01-18T12:24:45.000Z</time>
      </trkpt>
      <trkpt lat="43.32774" lon="5.68953">
        <ele>796</ele>
        <time>2019-01-18T12:24:46.000Z</time>
      </trkpt>
      <trkpt lat="43.32774" lon="5.68953">
        <ele>796</ele>
        <time>2019-01-18T12:24:47.000Z</time>
      </trkpt>
      <trkpt lat="43.32774" lon="5.68953">
        <ele>796</ele>
        <time>2019-01-18T12:24:48.000Z</time>
      </trkpt>
      <trkpt lat="43.32774" lon="5.68953">
        <ele>796</ele>
        <time>2019-01-18T12:24:49.000Z</time>
      </trkpt>
      <trkpt lat="43.32775" lon="5.68953">
        <ele>796</ele>
        <time>2019-01-18T12:24:50.000Z</time>
      </trkpt>
      <trkpt lat="43.32775" lon="5.68954">
        <ele>795</ele>
        <time>2019-01-18T12:24:51.000Z</time>
      </trkpt>
      <trkpt lat="43.32776" lon="5.68955">
        <ele>795</ele>
        <time>2019-01-18T12:24:52.000Z</time>
      </trkpt>
      <trkpt lat="43.32776" lon="5.68956">
        <ele>795</ele>
        <time>2019-01-18T12:24:53.000Z</time>
      </trkpt>
      <trkpt lat="43.32777" lon="5.68956">
        <ele>795</ele>
        <time>2019-01-18T12:24:54.000Z</time>
      </trkpt>
      <trkpt lat="43.32776" lon="5.68956">
        <ele>795</ele>
        <time>2019-01-18T12:24:55.000Z</time>
      </trkpt>
      <trkpt lat="43.32776" lon="5.68956">
        <ele>795</ele>
        <time>2019-01-18T12:24:56.000Z</time>
      </trkpt>
      <trkpt lat="43.32776" lon="5.68956">
        <ele>795</ele>
        <time>2019-01-18T12:24:57.000Z</time>
      </trkpt>
      <trkpt lat="43.32777" lon="5.68957">
        <ele>794</ele>
        <time>2019-01-18T12:24:58.000Z</time>
      </trkpt>
      <trkpt lat="43.32777" lon="5.68957">
        <ele>794</ele>
        <time>2019-01-18T12:24:59.000Z</time>
      </trkpt>
      <trkpt lat="43.32777" lon="5.68957">
        <ele>794</ele>
        <time>2019-01-18T12:25:00.000Z</time>
      </trkpt>
      <trkpt lat="43.32778" lon="5.68957">
        <ele>794</ele>
        <time>2019-01-18T12:25:01.000Z</time>
      </trkpt>
      <trkpt lat="43.32778" lon="5.68957">
        <ele>794</ele>
        <time>2019-01-18T12:25:02.000Z</time>
      </trkpt>
      <trkpt lat="43.32778" lon="5.68957">
        <ele>793</ele>
        <time>2019-01-18T12:25:03.000Z</time>
      </trkpt>
      <trkpt lat="43.32778" lon="5.68957">
        <ele>793</ele>
        <time>2019-01-18T12:25:04.000Z</time>
      </trkpt>
      <trkpt lat="43.32779" lon="5.68957">
        <ele>793</ele>
        <time>2019-01-18T12:25:05.000Z</time>
      </trkpt>
      <trkpt lat="43.32779" lon="5.68957">
        <ele>793</ele>
        <time>2019-01-18T12:25:06.000Z</time>
      </trkpt>
      <trkpt lat="43.32779" lon="5.68957">
        <ele>792</ele>
        <time>2019-01-18T12:25:07.000Z</time>
      </trkpt>
      <trkpt lat="43.32779" lon="5.68957">
        <ele>792</ele>
        <time>2019-01-18T12:25:08.000Z</time>
      </trkpt>
      <trkpt lat="43.32779" lon="5.68957">
        <ele>792</ele>
        <time>2019-01-18T12:25:09.000Z</time>
      </trkpt>
      <trkpt lat="43.3278" lon="5.68957">
        <ele>792</ele>
        <time>2019-01-18T12:25:10.000Z</time>
      </trkpt>
      <trkpt lat="43.3278" lon="5.68956">
        <ele>792</ele>
        <time>2019-01-18T12:25:11.000Z</time>
      </trkpt>
      <trkpt lat="43.32779" lon="5.68956">
        <ele>792</ele>
        <time>2019-01-18T12:25:12.000Z</time>
      </trkpt>
      <trkpt lat="43.32779" lon="5.68954">
        <ele>792</ele>
        <time>2019-01-18T12:25:13.000Z</time>
      </trkpt>
      <trkpt lat="43.32779" lon="5.68953">
        <ele>792</ele>
        <time>2019-01-18T12:25:14.000Z</time>
      </trkpt>
      <trkpt lat="43.32779" lon="5.68953">
        <ele>792</ele>
        <time>2019-01-18T12:25:15.000Z</time>
      </trkpt>
      <trkpt lat="43.32779" lon="5.68953">
        <ele>791</ele>
        <time>2019-01-18T12:25:16.000Z</time>
      </trkpt>
      <trkpt lat="43.32779" lon="5.68952">
        <ele>791</ele>
        <time>2019-01-18T12:25:17.000Z</time>
      </trkpt>
      <trkpt lat="43.32779" lon="5.68952">
        <ele>791</ele>
        <time>2019-01-18T12:25:18.000Z</time>
      </trkpt>
      <trkpt lat="43.3278" lon="5.68951">
        <ele>791</ele>
        <time>2019-01-18T12:25:19.000Z</time>
      </trkpt>
      <trkpt lat="43.3278" lon="5.6895">
        <ele>791</ele>
        <time>2019-01-18T12:25:20.000Z</time>
      </trkpt>
      <trkpt lat="43.32781" lon="5.6895">
        <ele>791</ele>
        <time>2019-01-18T12:25:21.000Z</time>
      </trkpt>
      <trkpt lat="43.32782" lon="5.68951">
        <ele>790</ele>
        <time>2019-01-18T12:25:22.000Z</time>
      </trkpt>
      <trkpt lat="43.32782" lon="5.68951">
        <ele>790</ele>
        <time>2019-01-18T12:25:23.000Z</time>
      </trkpt>
      <trkpt lat="43.32782" lon="5.68952">
        <ele>790</ele>
        <time>2019-01-18T12:25:24.000Z</time>
      </trkpt>
      <trkpt lat="43.32783" lon="5.68952">
        <ele>790</ele>
        <time>2019-01-18T12:25:25.000Z</time>
      </trkpt>
      <trkpt lat="43.32784" lon="5.68953">
        <ele>789</ele>
        <time>2019-01-18T12:25:26.000Z</time>
      </trkpt>
      <trkpt lat="43.32785" lon="5.68954">
        <ele>789</ele>
        <time>2019-01-18T12:25:27.000Z</time>
      </trkpt>
      <trkpt lat="43.32785" lon="5.68955">
        <ele>789</ele>
        <time>2019-01-18T12:25:28.000Z</time>
      </trkpt>
      <trkpt lat="43.32786" lon="5.68956">
        <ele>789</ele>
        <time>2019-01-18T12:25:29.000Z</time>
      </trkpt>
      <trkpt lat="43.32787" lon="5.68957">
        <ele>788</ele>
        <time>2019-01-18T12:25:30.000Z</time>
      </trkpt>
      <trkpt lat="43.32788" lon="5.68958">
        <ele>788</ele>
        <time>2019-01-18T12:25:31.000Z</time>
      </trkpt>
      <trkpt lat="43.32789" lon="5.68958">
        <ele>788</ele>
        <time>2019-01-18T12:25:32.000Z</time>
      </trkpt>
      <trkpt lat="43.32789" lon="5.68959">
        <ele>788</ele>
        <time>2019-01-18T12:25:33.000Z</time>
      </trkpt>
      <trkpt lat="43.3279" lon="5.68959">
        <ele>788</ele>
        <time>2019-01-18T12:25:34.000Z</time>
      </trkpt>
      <trkpt lat="43.3279" lon="5.68959">
        <ele>788</ele>
        <time>2019-01-18T12:25:35.000Z</time>
      </trkpt>
      <trkpt lat="43.32791" lon="5.6896">
        <ele>787</ele>
        <time>2019-01-18T12:25:36.000Z</time>
      </trkpt>
      <trkpt lat="43.32791" lon="5.68961">
        <ele>787</ele>
        <time>2019-01-18T12:25:37.000Z</time>
      </trkpt>
      <trkpt lat="43.32792" lon="5.68963">
        <ele>787</ele>
        <time>2019-01-18T12:25:38.000Z</time>
      </trkpt>
      <trkpt lat="43.32793" lon="5.68965">
        <ele>786</ele>
        <time>2019-01-18T12:25:39.000Z</time>
      </trkpt>
      <trkpt lat="43.32793" lon="5.68966">
        <ele>786</ele>
        <time>2019-01-18T12:25:40.000Z</time>
      </trkpt>
      <trkpt lat="43.32794" lon="5.68968">
        <ele>786</ele>
        <time>2019-01-18T12:25:41.000Z</time>
      </trkpt>
      <trkpt lat="43.32794" lon="5.6897">
        <ele>786</ele>
        <time>2019-01-18T12:25:42.000Z</time>
      </trkpt>
      <trkpt lat="43.32795" lon="5.68972">
        <ele>786</ele>
        <time>2019-01-18T12:25:43.000Z</time>
      </trkpt>
      <trkpt lat="43.32795" lon="5.68972">
        <ele>785</ele>
        <time>2019-01-18T12:25:44.000Z</time>
      </trkpt>
      <trkpt lat="43.32796" lon="5.68973">
        <ele>785</ele>
        <time>2019-01-18T12:25:45.000Z</time>
      </trkpt>
      <trkpt lat="43.32796" lon="5.68974">
        <ele>785</ele>
        <time>2019-01-18T12:25:46.000Z</time>
      </trkpt>
      <trkpt lat="43.32796" lon="5.68975">
        <ele>784</ele>
        <time>2019-01-18T12:25:47.000Z</time>
      </trkpt>
      <trkpt lat="43.32797" lon="5.68977">
        <ele>784</ele>
        <time>2019-01-18T12:25:48.000Z</time>
      </trkpt>
      <trkpt lat="43.32798" lon="5.68978">
        <ele>784</ele>
        <time>2019-01-18T12:25:49.000Z</time>
      </trkpt>
      <trkpt lat="43.32798" lon="5.68979">
        <ele>783</ele>
        <time>2019-01-18T12:25:50.000Z</time>
      </trkpt>
      <trkpt lat="43.32798" lon="5.68981">
        <ele>783</ele>
        <time>2019-01-18T12:25:51.000Z</time>
      </trkpt>
      <trkpt lat="43.32799" lon="5.68982">
        <ele>783</ele>
        <time>2019-01-18T12:25:52.000Z</time>
      </trkpt>
      <trkpt lat="43.32799" lon="5.68984">
        <ele>783</ele>
        <time>2019-01-18T12:25:53.000Z</time>
      </trkpt>
      <trkpt lat="43.328" lon="5.68986">
        <ele>783</ele>
        <time>2019-01-18T12:25:54.000Z</time>
      </trkpt>
      <trkpt lat="43.328" lon="5.68988">
        <ele>783</ele>
        <time>2019-01-18T12:25:55.000Z</time>
      </trkpt>
      <trkpt lat="43.328" lon="5.6899">
        <ele>783</ele>
        <time>2019-01-18T12:25:56.000Z</time>
      </trkpt>
      <trkpt lat="43.32801" lon="5.68991">
        <ele>783</ele>
        <time>2019-01-18T12:25:57.000Z</time>
      </trkpt>
      <trkpt lat="43.32801" lon="5.68993">
        <ele>783</ele>
        <time>2019-01-18T12:25:58.000Z</time>
      </trkpt>
      <trkpt lat="43.32801" lon="5.68994">
        <ele>783</ele>
        <time>2019-01-18T12:25:59.000Z</time>
      </trkpt>
      <trkpt lat="43.32802" lon="5.68995">
        <ele>783</ele>
        <time>2019-01-18T12:26:00.000Z</time>
      </trkpt>
      <trkpt lat="43.32802" lon="5.68997">
        <ele>783</ele>
        <time>2019-01-18T12:26:01.000Z</time>
      </trkpt>
      <trkpt lat="43.32802" lon="5.68998">
        <ele>783</ele>
        <time>2019-01-18T12:26:02.000Z</time>
      </trkpt>
      <trkpt lat="43.32802" lon="5.68999">
        <ele>783</ele>
        <time>2019-01-18T12:26:03.000Z</time>
      </trkpt>
      <trkpt lat="43.32802" lon="5.69001">
        <ele>783</ele>
        <time>2019-01-18T12:26:04.000Z</time>
      </trkpt>
      <trkpt lat="43.32802" lon="5.69002">
        <ele>783</ele>
        <time>2019-01-18T12:26:05.000Z</time>
      </trkpt>
      <trkpt lat="43.32802" lon="5.69004">
        <ele>783</ele>
        <time>2019-01-18T12:26:06.000Z</time>
      </trkpt>
      <trkpt lat="43.32802" lon="5.69005">
        <ele>782</ele>
        <time>2019-01-18T12:26:07.000Z</time>
      </trkpt>
      <trkpt lat="43.32802" lon="5.69006">
        <ele>782</ele>
        <time>2019-01-18T12:26:08.000Z</time>
      </trkpt>
      <trkpt lat="43.32802" lon="5.69007">
        <ele>782</ele>
        <time>2019-01-18T12:26:09.000Z</time>
      </trkpt>
      <trkpt lat="43.32802" lon="5.69008">
        <ele>782</ele>
        <time>2019-01-18T12:26:10.000Z</time>
      </trkpt>
      <trkpt lat="43.32803" lon="5.69009">
        <ele>782</ele>
        <time>2019-01-18T12:26:11.000Z</time>
      </trkpt>
      <trkpt lat="43.32803" lon="5.69009">
        <ele>782</ele>
        <time>2019-01-18T12:26:12.000Z</time>
      </trkpt>
      <trkpt lat="43.32804" lon="5.6901">
        <ele>782</ele>
        <time>2019-01-18T12:26:13.000Z</time>
      </trkpt>
      <trkpt lat="43.32804" lon="5.69011">
        <ele>782</ele>
        <time>2019-01-18T12:26:14.000Z</time>
      </trkpt>
      <trkpt lat="43.32804" lon="5.69012">
        <ele>782</ele>
        <time>2019-01-18T12:26:15.000Z</time>
      </trkpt>
      <trkpt lat="43.32804" lon="5.69013">
        <ele>781</ele>
        <time>2019-01-18T12:26:16.000Z</time>
      </trkpt>
      <trkpt lat="43.32804" lon="5.69014">
        <ele>781</ele>
        <time>2019-01-18T12:26:17.000Z</time>
      </trkpt>
      <trkpt lat="43.32804" lon="5.69015">
        <ele>781</ele>
        <time>2019-01-18T12:26:18.000Z</time>
      </trkpt>
      <trkpt lat="43.32805" lon="5.69015">
        <ele>781</ele>
        <time>2019-01-18T12:26:19.000Z</time>
      </trkpt>
      <trkpt lat="43.32805" lon="5.69016">
        <ele>781</ele>
        <time>2019-01-18T12:26:20.000Z</time>
      </trkpt>
      <trkpt lat="43.32806" lon="5.69016">
        <ele>780</ele>
        <time>2019-01-18T12:26:21.000Z</time>
      </trkpt>
      <trkpt lat="43.32806" lon="5.69016">
        <ele>780</ele>
        <time>2019-01-18T12:26:22.000Z</time>
      </trkpt>
      <trkpt lat="43.32807" lon="5.69016">
        <ele>780</ele>
        <time>2019-01-18T12:26:23.000Z</time>
      </trkpt>
      <trkpt lat="43.32807" lon="5.69017">
        <ele>780</ele>
        <time>2019-01-18T12:26:24.000Z</time>
      </trkpt>
      <trkpt lat="43.32808" lon="5.69016">
        <ele>779</ele>
        <time>2019-01-18T12:26:25.000Z</time>
      </trkpt>
      <trkpt lat="43.32809" lon="5.69017">
        <ele>779</ele>
        <time>2019-01-18T12:26:26.000Z</time>
      </trkpt>
      <trkpt lat="43.3281" lon="5.69017">
        <ele>779</ele>
        <time>2019-01-18T12:26:27.000Z</time>
      </trkpt>
      <trkpt lat="43.3281" lon="5.69017">
        <ele>779</ele>
        <time>2019-01-18T12:26:28.000Z</time>
      </trkpt>
      <trkpt lat="43.32811" lon="5.69018">
        <ele>778</ele>
        <time>2019-01-18T12:26:29.000Z</time>
      </trkpt>
      <trkpt lat="43.32812" lon="5.69018">
        <ele>778</ele>
        <time>2019-01-18T12:26:30.000Z</time>
      </trkpt>
      <trkpt lat="43.32812" lon="5.69019">
        <ele>778</ele>
        <time>2019-01-18T12:26:31.000Z</time>
      </trkpt>
      <trkpt lat="43.32813" lon="5.6902">
        <ele>778</ele>
        <time>2019-01-18T12:26:32.000Z</time>
      </trkpt>
      <trkpt lat="43.32814" lon="5.6902">
        <ele>777</ele>
        <time>2019-01-18T12:26:33.000Z</time>
      </trkpt>
      <trkpt lat="43.32814" lon="5.69021">
        <ele>777</ele>
        <time>2019-01-18T12:26:34.000Z</time>
      </trkpt>
      <trkpt lat="43.32815" lon="5.69022">
        <ele>777</ele>
        <time>2019-01-18T12:26:35.000Z</time>
      </trkpt>
      <trkpt lat="43.32816" lon="5.69022">
        <ele>776</ele>
        <time>2019-01-18T12:26:36.000Z</time>
      </trkpt>
      <trkpt lat="43.32817" lon="5.69023">
        <ele>776</ele>
        <time>2019-01-18T12:26:37.000Z</time>
      </trkpt>
      <trkpt lat="43.32817" lon="5.69024">
        <ele>776</ele>
        <time>2019-01-18T12:26:38.000Z</time>
      </trkpt>
      <trkpt lat="43.32818" lon="5.69025">
        <ele>775</ele>
        <time>2019-01-18T12:26:39.000Z</time>
      </trkpt>
      <trkpt lat="43.32818" lon="5.69026">
        <ele>775</ele>
        <time>2019-01-18T12:26:40.000Z</time>
      </trkpt>
      <trkpt lat="43.32819" lon="5.69026">
        <ele>775</ele>
        <time>2019-01-18T12:26:41.000Z</time>
      </trkpt>
      <trkpt lat="43.3282" lon="5.69027">
        <ele>775</ele>
        <time>2019-01-18T12:26:42.000Z</time>
      </trkpt>
      <trkpt lat="43.32821" lon="5.69028">
        <ele>774</ele>
        <time>2019-01-18T12:26:43.000Z</time>
      </trkpt>
      <trkpt lat="43.32821" lon="5.69029">
        <ele>774</ele>
        <time>2019-01-18T12:26:44.000Z</time>
      </trkpt>
      <trkpt lat="43.32822" lon="5.6903">
        <ele>774</ele>
        <time>2019-01-18T12:26:45.000Z</time>
      </trkpt>
      <trkpt lat="43.32823" lon="5.69031">
        <ele>773</ele>
        <time>2019-01-18T12:26:46.000Z</time>
      </trkpt>
      <trkpt lat="43.32824" lon="5.69031">
        <ele>773</ele>
        <time>2019-01-18T12:26:47.000Z</time>
      </trkpt>
      <trkpt lat="43.32824" lon="5.69032">
        <ele>773</ele>
        <time>2019-01-18T12:26:48.000Z</time>
      </trkpt>
      <trkpt lat="43.32825" lon="5.69033">
        <ele>773</ele>
        <time>2019-01-18T12:26:49.000Z</time>
      </trkpt>
      <trkpt lat="43.32826" lon="5.69034">
        <ele>772</ele>
        <time>2019-01-18T12:26:50.000Z</time>
      </trkpt>
      <trkpt lat="43.32827" lon="5.69035">
        <ele>772</ele>
        <time>2019-01-18T12:26:51.000Z</time>
      </trkpt>
      <trkpt lat="43.32827" lon="5.69036">
        <ele>772</ele>
        <time>2019-01-18T12:26:52.000Z</time>
      </trkpt>
      <trkpt lat="43.32828" lon="5.69037">
        <ele>772</ele>
        <time>2019-01-18T12:26:53.000Z</time>
      </trkpt>
      <trkpt lat="43.32829" lon="5.69038">
        <ele>771</ele>
        <time>2019-01-18T12:26:54.000Z</time>
      </trkpt>
      <trkpt lat="43.32829" lon="5.69039">
        <ele>771</ele>
        <time>2019-01-18T12:26:55.000Z</time>
      </trkpt>
      <trkpt lat="43.3283" lon="5.69039">
        <ele>771</ele>
        <time>2019-01-18T12:26:56.000Z</time>
      </trkpt>
      <trkpt lat="43.3283" lon="5.6904">
        <ele>771</ele>
        <time>2019-01-18T12:26:57.000Z</time>
      </trkpt>
      <trkpt lat="43.32831" lon="5.69041">
        <ele>770</ele>
        <time>2019-01-18T12:26:58.000Z</time>
      </trkpt>
      <trkpt lat="43.32831" lon="5.69041">
        <ele>770</ele>
        <time>2019-01-18T12:26:59.000Z</time>
      </trkpt>
      <trkpt lat="43.32831" lon="5.69041">
        <ele>770</ele>
        <time>2019-01-18T12:27:00.000Z</time>
      </trkpt>
      <trkpt lat="43.32832" lon="5.69041">
        <ele>770</ele>
        <time>2019-01-18T12:27:01.000Z</time>
      </trkpt>
      <trkpt lat="43.32832" lon="5.69041">
        <ele>770</ele>
        <time>2019-01-18T12:27:02.000Z</time>
      </trkpt>
      <trkpt lat="43.32832" lon="5.69041">
        <ele>770</ele>
        <time>2019-01-18T12:27:03.000Z</time>
      </trkpt>
      <trkpt lat="43.32832" lon="5.69041">
        <ele>770</ele>
        <time>2019-01-18T12:27:04.000Z</time>
      </trkpt>
      <trkpt lat="43.32832" lon="5.69041">
        <ele>770</ele>
        <time>2019-01-18T12:27:05.000Z</time>
      </trkpt>
      <trkpt lat="43.32832" lon="5.69041">
        <ele>770</ele>
        <time>2019-01-18T12:27:06.000Z</time>
      </trkpt>
      <trkpt lat="43.32832" lon="5.69041">
        <ele>769</ele>
        <time>2019-01-18T12:27:07.000Z</time>
      </trkpt>
      <trkpt lat="43.32833" lon="5.69041">
        <ele>769</ele>
        <time>2019-01-18T12:27:08.000Z</time>
      </trkpt>
      <trkpt lat="43.32834" lon="5.69041">
        <ele>769</ele>
        <time>2019-01-18T12:27:09.000Z</time>
      </trkpt>
      <trkpt lat="43.32834" lon="5.69041">
        <ele>769</ele>
        <time>2019-01-18T12:27:10.000Z</time>
      </trkpt>
      <trkpt lat="43.32834" lon="5.69041">
        <ele>769</ele>
        <time>2019-01-18T12:27:11.000Z</time>
      </trkpt>
      <trkpt lat="43.32834" lon="5.69041">
        <ele>769</ele>
        <time>2019-01-18T12:27:12.000Z</time>
      </trkpt>
      <trkpt lat="43.32834" lon="5.69041">
        <ele>769</ele>
        <time>2019-01-18T12:27:13.000Z</time>
      </trkpt>
      <trkpt lat="43.32834" lon="5.69041">
        <ele>769</ele>
        <time>2019-01-18T12:27:14.000Z</time>
      </trkpt>
      <trkpt lat="43.32834" lon="5.69041">
        <ele>769</ele>
        <time>2019-01-18T12:27:15.000Z</time>
      </trkpt>
      <trkpt lat="43.32834" lon="5.69041">
        <ele>769</ele>
        <time>2019-01-18T12:27:16.000Z</time>
      </trkpt>
      <trkpt lat="43.32835" lon="5.6904">
        <ele>769</ele>
        <time>2019-01-18T12:27:17.000Z</time>
      </trkpt>
      <trkpt lat="43.32835" lon="5.69041">
        <ele>769</ele>
        <time>2019-01-18T12:27:18.000Z</time>
      </trkpt>
      <trkpt lat="43.32835" lon="5.69041">
        <ele>769</ele>
        <time>2019-01-18T12:27:19.000Z</time>
      </trkpt>
      <trkpt lat="43.32835" lon="5.69041">
        <ele>769</ele>
        <time>2019-01-18T12:27:20.000Z</time>
      </trkpt>
      <trkpt lat="43.32835" lon="5.69041">
        <ele>769</ele>
        <time>2019-01-18T12:27:21.000Z</time>
      </trkpt>
      <trkpt lat="43.32836" lon="5.69042">
        <ele>769</ele>
        <time>2019-01-18T12:27:22.000Z</time>
      </trkpt>
      <trkpt lat="43.32836" lon="5.69042">
        <ele>769</ele>
        <time>2019-01-18T12:27:23.000Z</time>
      </trkpt>
      <trkpt lat="43.32836" lon="5.69042">
        <ele>769</ele>
        <time>2019-01-18T12:27:24.000Z</time>
      </trkpt>
      <trkpt lat="43.32836" lon="5.69043">
        <ele>769</ele>
        <time>2019-01-18T12:27:25.000Z</time>
      </trkpt>
      <trkpt lat="43.32836" lon="5.69043">
        <ele>769</ele>
        <time>2019-01-18T12:27:26.000Z</time>
      </trkpt>
      <trkpt lat="43.32836" lon="5.69043">
        <ele>769</ele>
        <time>2019-01-18T12:27:27.000Z</time>
      </trkpt>
      <trkpt lat="43.32836" lon="5.69043">
        <ele>769</ele>
        <time>2019-01-18T12:27:28.000Z</time>
      </trkpt>
      <trkpt lat="43.32836" lon="5.69043">
        <ele>769</ele>
        <time>2019-01-18T12:27:29.000Z</time>
      </trkpt>
      <trkpt lat="43.32836" lon="5.69043">
        <ele>769</ele>
        <time>2019-01-18T12:27:30.000Z</time>
      </trkpt>
      <trkpt lat="43.32836" lon="5.69043">
        <ele>769</ele>
        <time>2019-01-18T12:27:31.000Z</time>
      </trkpt>
      <trkpt lat="43.32835" lon="5.69043">
        <ele>769</ele>
        <time>2019-01-18T12:27:32.000Z</time>
      </trkpt>
      <trkpt lat="43.32835" lon="5.69043">
        <ele>769</ele>
        <time>2019-01-18T12:27:33.000Z</time>
      </trkpt>
      <trkpt lat="43.32835" lon="5.69043">
        <ele>769</ele>
        <time>2019-01-18T12:27:34.000Z</time>
      </trkpt>
      <trkpt lat="43.32835" lon="5.69043">
        <ele>769</ele>
        <time>2019-01-18T12:27:35.000Z</time>
      </trkpt>
      <trkpt lat="43.32835" lon="5.69043">
        <ele>769</ele>
        <time>2019-01-18T12:27:36.000Z</time>
      </trkpt>
      <trkpt lat="43.32835" lon="5.69043">
        <ele>768</ele>
        <time>2019-01-18T12:27:37.000Z</time>
      </trkpt>
      <trkpt lat="43.32835" lon="5.69043">
        <ele>768</ele>
        <time>2019-01-18T12:27:38.000Z</time>
      </trkpt>
      <trkpt lat="43.32835" lon="5.69043">
        <ele>768</ele>
        <time>2019-01-18T12:27:39.000Z</time>
      </trkpt>
      <trkpt lat="43.32836" lon="5.69043">
        <ele>768</ele>
        <time>2019-01-18T12:27:40.000Z</time>
      </trkpt>
      <trkpt lat="43.32836" lon="5.69042">
        <ele>768</ele>
        <time>2019-01-18T12:27:41.000Z</time>
      </trkpt>
      <trkpt lat="43.32836" lon="5.69042">
        <ele>768</ele>
        <time>2019-01-18T12:27:42.000Z</time>
      </trkpt>
      <trkpt lat="43.32836" lon="5.69042">
        <ele>768</ele>
        <time>2019-01-18T12:27:43.000Z</time>
      </trkpt>
      <trkpt lat="43.32836" lon="5.69042">
        <ele>768</ele>
        <time>2019-01-18T12:27:44.000Z</time>
      </trkpt>
      <trkpt lat="43.32836" lon="5.69042">
        <ele>768</ele>
        <time>2019-01-18T12:27:45.000Z</time>
      </trkpt>
      <trkpt lat="43.32836" lon="5.69042">
        <ele>768</ele>
        <time>2019-01-18T12:27:46.000Z</time>
      </trkpt>
      <trkpt lat="43.32836" lon="5.69042">
        <ele>768</ele>
        <time>2019-01-18T12:27:47.000Z</time>
      </trkpt>
      <trkpt lat="43.32836" lon="5.69042">
        <ele>768</ele>
        <time>2019-01-18T12:27:48.000Z</time>
      </trkpt>
      <trkpt lat="43.32836" lon="5.69042">
        <ele>768</ele>
        <time>2019-01-18T12:27:49.000Z</time>
      </trkpt>
      <trkpt lat="43.32836" lon="5.69042">
        <ele>768</ele>
        <time>2019-01-18T12:27:50.000Z</time>
      </trkpt>
      <trkpt lat="43.32836" lon="5.69042">
        <ele>768</ele>
        <time>2019-01-18T12:27:51.000Z</time>
      </trkpt>
      <trkpt lat="43.32836" lon="5.69042">
        <ele>768</ele>
        <time>2019-01-18T12:27:52.000Z</time>
      </trkpt>
      <trkpt lat="43.32836" lon="5.69042">
        <ele>768</ele>
        <time>2019-01-18T12:27:53.000Z</time>
      </trkpt>
      <trkpt lat="43.32836" lon="5.69042">
        <ele>768</ele>
        <time>2019-01-18T12:27:54.000Z</time>
      </trkpt>
      <trkpt lat="43.32836" lon="5.69041">
        <ele>768</ele>
        <time>2019-01-18T12:27:55.000Z</time>
      </trkpt>
      <trkpt lat="43.32837" lon="5.6904">
        <ele>768</ele>
        <time>2019-01-18T12:27:56.000Z</time>
      </trkpt>
      <trkpt lat="43.32837" lon="5.6904">
        <ele>768</ele>
        <time>2019-01-18T12:27:57.000Z</time>
      </trkpt>
      <trkpt lat="43.32838" lon="5.6904">
        <ele>768</ele>
        <time>2019-01-18T12:27:58.000Z</time>
      </trkpt>
      <trkpt lat="43.32838" lon="5.69039">
        <ele>768</ele>
        <time>2019-01-18T12:27:59.000Z</time>
      </trkpt>
      <trkpt lat="43.32839" lon="5.69039">
        <ele>768</ele>
        <time>2019-01-18T12:28:00.000Z</time>
      </trkpt>
      <trkpt lat="43.3284" lon="5.69038">
        <ele>767</ele>
        <time>2019-01-18T12:28:01.000Z</time>
      </trkpt>
      <trkpt lat="43.3284" lon="5.69038">
        <ele>767</ele>
        <time>2019-01-18T12:28:02.000Z</time>
      </trkpt>
      <trkpt lat="43.32841" lon="5.69038">
        <ele>767</ele>
        <time>2019-01-18T12:28:03.000Z</time>
      </trkpt>
      <trkpt lat="43.32841" lon="5.69038">
        <ele>767</ele>
        <time>2019-01-18T12:28:04.000Z</time>
      </trkpt>
      <trkpt lat="43.32842" lon="5.69038">
        <ele>767</ele>
        <time>2019-01-18T12:28:05.000Z</time>
      </trkpt>
      <trkpt lat="43.32842" lon="5.69037">
        <ele>766</ele>
        <time>2019-01-18T12:28:06.000Z</time>
      </trkpt>
      <trkpt lat="43.32843" lon="5.69037">
        <ele>766</ele>
        <time>2019-01-18T12:28:07.000Z</time>
      </trkpt>
      <trkpt lat="43.32843" lon="5.69036">
        <ele>766</ele>
        <time>2019-01-18T12:28:08.000Z</time>
      </trkpt>
      <trkpt lat="43.32844" lon="5.69035">
        <ele>766</ele>
        <time>2019-01-18T12:28:09.000Z</time>
      </trkpt>
      <trkpt lat="43.32845" lon="5.69035">
        <ele>765</ele>
        <time>2019-01-18T12:28:10.000Z</time>
      </trkpt>
      <trkpt lat="43.32845" lon="5.69035">
        <ele>765</ele>
        <time>2019-01-18T12:28:11.000Z</time>
      </trkpt>
      <trkpt lat="43.32846" lon="5.69035">
        <ele>765</ele>
        <time>2019-01-18T12:28:12.000Z</time>
      </trkpt>
      <trkpt lat="43.32847" lon="5.69035">
        <ele>765</ele>
        <time>2019-01-18T12:28:13.000Z</time>
      </trkpt>
      <trkpt lat="43.32847" lon="5.69035">
        <ele>764</ele>
        <time>2019-01-18T12:28:14.000Z</time>
      </trkpt>
      <trkpt lat="43.32848" lon="5.69035">
        <ele>764</ele>
        <time>2019-01-18T12:28:15.000Z</time>
      </trkpt>
      <trkpt lat="43.32849" lon="5.69035">
        <ele>764</ele>
        <time>2019-01-18T12:28:16.000Z</time>
      </trkpt>
      <trkpt lat="43.32849" lon="5.69035">
        <ele>763</ele>
        <time>2019-01-18T12:28:17.000Z</time>
      </trkpt>
      <trkpt lat="43.3285" lon="5.69035">
        <ele>763</ele>
        <time>2019-01-18T12:28:18.000Z</time>
      </trkpt>
      <trkpt lat="43.3285" lon="5.69035">
        <ele>763</ele>
        <time>2019-01-18T12:28:19.000Z</time>
      </trkpt>
      <trkpt lat="43.32851" lon="5.69036">
        <ele>763</ele>
        <time>2019-01-18T12:28:20.000Z</time>
      </trkpt>
      <trkpt lat="43.32852" lon="5.69036">
        <ele>762</ele>
        <time>2019-01-18T12:28:21.000Z</time>
      </trkpt>
      <trkpt lat="43.32852" lon="5.69037">
        <ele>762</ele>
        <time>2019-01-18T12:28:22.000Z</time>
      </trkpt>
      <trkpt lat="43.32852" lon="5.69037">
        <ele>762</ele>
        <time>2019-01-18T12:28:23.000Z</time>
      </trkpt>
      <trkpt lat="43.32853" lon="5.69037">
        <ele>762</ele>
        <time>2019-01-18T12:28:24.000Z</time>
      </trkpt>
      <trkpt lat="43.32853" lon="5.69038">
        <ele>761</ele>
        <time>2019-01-18T12:28:25.000Z</time>
      </trkpt>
      <trkpt lat="43.32854" lon="5.69038">
        <ele>761</ele>
        <time>2019-01-18T12:28:26.000Z</time>
      </trkpt>
      <trkpt lat="43.32854" lon="5.69038">
        <ele>761</ele>
        <time>2019-01-18T12:28:27.000Z</time>
      </trkpt>
      <trkpt lat="43.32855" lon="5.69038">
        <ele>761</ele>
        <time>2019-01-18T12:28:28.000Z</time>
      </trkpt>
      <trkpt lat="43.32856" lon="5.69038">
        <ele>761</ele>
        <time>2019-01-18T12:28:29.000Z</time>
      </trkpt>
      <trkpt lat="43.32856" lon="5.69038">
        <ele>760</ele>
        <time>2019-01-18T12:28:30.000Z</time>
      </trkpt>
      <trkpt lat="43.32857" lon="5.69038">
        <ele>760</ele>
        <time>2019-01-18T12:28:31.000Z</time>
      </trkpt>
      <trkpt lat="43.32858" lon="5.69038">
        <ele>760</ele>
        <time>2019-01-18T12:28:32.000Z</time>
      </trkpt>
      <trkpt lat="43.32858" lon="5.69038">
        <ele>760</ele>
        <time>2019-01-18T12:28:33.000Z</time>
      </trkpt>
      <trkpt lat="43.32859" lon="5.69039">
        <ele>760</ele>
        <time>2019-01-18T12:28:34.000Z</time>
      </trkpt>
      <trkpt lat="43.3286" lon="5.69039">
        <ele>759</ele>
        <time>2019-01-18T12:28:35.000Z</time>
      </trkpt>
      <trkpt lat="43.3286" lon="5.69039">
        <ele>759</ele>
        <time>2019-01-18T12:28:36.000Z</time>
      </trkpt>
      <trkpt lat="43.32861" lon="5.69039">
        <ele>759</ele>
        <time>2019-01-18T12:28:37.000Z</time>
      </trkpt>
      <trkpt lat="43.32861" lon="5.69039">
        <ele>758</ele>
        <time>2019-01-18T12:28:38.000Z</time>
      </trkpt>
      <trkpt lat="43.32862" lon="5.69039">
        <ele>758</ele>
        <time>2019-01-18T12:28:39.000Z</time>
      </trkpt>
      <trkpt lat="43.32863" lon="5.6904">
        <ele>758</ele>
        <time>2019-01-18T12:28:40.000Z</time>
      </trkpt>
      <trkpt lat="43.32864" lon="5.6904">
        <ele>758</ele>
        <time>2019-01-18T12:28:41.000Z</time>
      </trkpt>
      <trkpt lat="43.32864" lon="5.6904">
        <ele>757</ele>
        <time>2019-01-18T12:28:42.000Z</time>
      </trkpt>
      <trkpt lat="43.32865" lon="5.6904">
        <ele>757</ele>
        <time>2019-01-18T12:28:43.000Z</time>
      </trkpt>
      <trkpt lat="43.32865" lon="5.6904">
        <ele>757</ele>
        <time>2019-01-18T12:28:44.000Z</time>
      </trkpt>
      <trkpt lat="43.32866" lon="5.6904">
        <ele>756</ele>
        <time>2019-01-18T12:28:45.000Z</time>
      </trkpt>
      <trkpt lat="43.32867" lon="5.69041">
        <ele>756</ele>
        <time>2019-01-18T12:28:46.000Z</time>
      </trkpt>
      <trkpt lat="43.32868" lon="5.69041">
        <ele>756</ele>
        <time>2019-01-18T12:28:47.000Z</time>
      </trkpt>
      <trkpt lat="43.32868" lon="5.69042">
        <ele>756</ele>
        <time>2019-01-18T12:28:48.000Z</time>
      </trkpt>
      <trkpt lat="43.32869" lon="5.69042">
        <ele>755</ele>
        <time>2019-01-18T12:28:49.000Z</time>
      </trkpt>
      <trkpt lat="43.32869" lon="5.69043">
        <ele>755</ele>
        <time>2019-01-18T12:28:50.000Z</time>
      </trkpt>
      <trkpt lat="43.3287" lon="5.69043">
        <ele>755</ele>
        <time>2019-01-18T12:28:51.000Z</time>
      </trkpt>
      <trkpt lat="43.3287" lon="5.69043">
        <ele>755</ele>
        <time>2019-01-18T12:28:52.000Z</time>
      </trkpt>
      <trkpt lat="43.32871" lon="5.69044">
        <ele>754</ele>
        <time>2019-01-18T12:28:53.000Z</time>
      </trkpt>
      <trkpt lat="43.32871" lon="5.69045">
        <ele>754</ele>
        <time>2019-01-18T12:28:54.000Z</time>
      </trkpt>
      <trkpt lat="43.32872" lon="5.69045">
        <ele>754</ele>
        <time>2019-01-18T12:28:55.000Z</time>
      </trkpt>
      <trkpt lat="43.32873" lon="5.69044">
        <ele>753</ele>
        <time>2019-01-18T12:28:56.000Z</time>
      </trkpt>
      <trkpt lat="43.32874" lon="5.69044">
        <ele>753</ele>
        <time>2019-01-18T12:28:57.000Z</time>
      </trkpt>
      <trkpt lat="43.32875" lon="5.69044">
        <ele>753</ele>
        <time>2019-01-18T12:28:58.000Z</time>
      </trkpt>
      <trkpt lat="43.32875" lon="5.69045">
        <ele>753</ele>
        <time>2019-01-18T12:28:59.000Z</time>
      </trkpt>
      <trkpt lat="43.32876" lon="5.69044">
        <ele>752</ele>
        <time>2019-01-18T12:29:00.000Z</time>
      </trkpt>
      <trkpt lat="43.32877" lon="5.69044">
        <ele>752</ele>
        <time>2019-01-18T12:29:01.000Z</time>
      </trkpt>
      <trkpt lat="43.32877" lon="5.69044">
        <ele>752</ele>
        <time>2019-01-18T12:29:02.000Z</time>
      </trkpt>
      <trkpt lat="43.32878" lon="5.69045">
        <ele>752</ele>
        <time>2019-01-18T12:29:03.000Z</time>
      </trkpt>
      <trkpt lat="43.32879" lon="5.69045">
        <ele>751</ele>
        <time>2019-01-18T12:29:04.000Z</time>
      </trkpt>
      <trkpt lat="43.3288" lon="5.69045">
        <ele>751</ele>
        <time>2019-01-18T12:29:05.000Z</time>
      </trkpt>
      <trkpt lat="43.3288" lon="5.69045">
        <ele>751</ele>
        <time>2019-01-18T12:29:06.000Z</time>
      </trkpt>
      <trkpt lat="43.32881" lon="5.69045">
        <ele>750</ele>
        <time>2019-01-18T12:29:07.000Z</time>
      </trkpt>
      <trkpt lat="43.32882" lon="5.69045">
        <ele>750</ele>
        <time>2019-01-18T12:29:08.000Z</time>
      </trkpt>
      <trkpt lat="43.32882" lon="5.69045">
        <ele>750</ele>
        <time>2019-01-18T12:29:09.000Z</time>
      </trkpt>
      <trkpt lat="43.32883" lon="5.69045">
        <ele>749</ele>
        <time>2019-01-18T12:29:10.000Z</time>
      </trkpt>
      <trkpt lat="43.32884" lon="5.69045">
        <ele>749</ele>
        <time>2019-01-18T12:29:11.000Z</time>
      </trkpt>
      <trkpt lat="43.32885" lon="5.69045">
        <ele>749</ele>
        <time>2019-01-18T12:29:12.000Z</time>
      </trkpt>
      <trkpt lat="43.32885" lon="5.69045">
        <ele>749</ele>
        <time>2019-01-18T12:29:13.000Z</time>
      </trkpt>
      <trkpt lat="43.32886" lon="5.69045">
        <ele>748</ele>
        <time>2019-01-18T12:29:14.000Z</time>
      </trkpt>
      <trkpt lat="43.32887" lon="5.69044">
        <ele>748</ele>
        <time>2019-01-18T12:29:15.000Z</time>
      </trkpt>
      <trkpt lat="43.32887" lon="5.69044">
        <ele>748</ele>
        <time>2019-01-18T12:29:16.000Z</time>
      </trkpt>
      <trkpt lat="43.32888" lon="5.69043">
        <ele>748</ele>
        <time>2019-01-18T12:29:17.000Z</time>
      </trkpt>
      <trkpt lat="43.32889" lon="5.69043">
        <ele>748</ele>
        <time>2019-01-18T12:29:18.000Z</time>
      </trkpt>
      <trkpt lat="43.3289" lon="5.69044">
        <ele>747</ele>
        <time>2019-01-18T12:29:19.000Z</time>
      </trkpt>
      <trkpt lat="43.3289" lon="5.69044">
        <ele>747</ele>
        <time>2019-01-18T12:29:20.000Z</time>
      </trkpt>
      <trkpt lat="43.32891" lon="5.69043">
        <ele>747</ele>
        <time>2019-01-18T12:29:21.000Z</time>
      </trkpt>
      <trkpt lat="43.32892" lon="5.69043">
        <ele>747</ele>
        <time>2019-01-18T12:29:22.000Z</time>
      </trkpt>
      <trkpt lat="43.32893" lon="5.69044">
        <ele>746</ele>
        <time>2019-01-18T12:29:23.000Z</time>
      </trkpt>
      <trkpt lat="43.32893" lon="5.69044">
        <ele>746</ele>
        <time>2019-01-18T12:29:24.000Z</time>
      </trkpt>
      <trkpt lat="43.32894" lon="5.69044">
        <ele>746</ele>
        <time>2019-01-18T12:29:25.000Z</time>
      </trkpt>
      <trkpt lat="43.32894" lon="5.69044">
        <ele>746</ele>
        <time>2019-01-18T12:29:26.000Z</time>
      </trkpt>
      <trkpt lat="43.32895" lon="5.69044">
        <ele>746</ele>
        <time>2019-01-18T12:29:27.000Z</time>
      </trkpt>
      <trkpt lat="43.32895" lon="5.69045">
        <ele>745</ele>
        <time>2019-01-18T12:29:28.000Z</time>
      </trkpt>
      <trkpt lat="43.32896" lon="5.69045">
        <ele>745</ele>
        <time>2019-01-18T12:29:29.000Z</time>
      </trkpt>
      <trkpt lat="43.32896" lon="5.69046">
        <ele>745</ele>
        <time>2019-01-18T12:29:30.000Z</time>
      </trkpt>
      <trkpt lat="43.32897" lon="5.69046">
        <ele>744</ele>
        <time>2019-01-18T12:29:31.000Z</time>
      </trkpt>
      <trkpt lat="43.32898" lon="5.69046">
        <ele>744</ele>
        <time>2019-01-18T12:29:32.000Z</time>
      </trkpt>
      <trkpt lat="43.32898" lon="5.69046">
        <ele>744</ele>
        <time>2019-01-18T12:29:33.000Z</time>
      </trkpt>
      <trkpt lat="43.32898" lon="5.69046">
        <ele>743</ele>
        <time>2019-01-18T12:29:34.000Z</time>
      </trkpt>
      <trkpt lat="43.32899" lon="5.69046">
        <ele>743</ele>
        <time>2019-01-18T12:29:35.000Z</time>
      </trkpt>
      <trkpt lat="43.329" lon="5.69046">
        <ele>743</ele>
        <time>2019-01-18T12:29:36.000Z</time>
      </trkpt>
      <trkpt lat="43.329" lon="5.69046">
        <ele>742</ele>
        <time>2019-01-18T12:29:37.000Z</time>
      </trkpt>
      <trkpt lat="43.32901" lon="5.69046">
        <ele>742</ele>
        <time>2019-01-18T12:29:38.000Z</time>
      </trkpt>
      <trkpt lat="43.32902" lon="5.69046">
        <ele>742</ele>
        <time>2019-01-18T12:29:39.000Z</time>
      </trkpt>
      <trkpt lat="43.32902" lon="5.69047">
        <ele>741</ele>
        <time>2019-01-18T12:29:40.000Z</time>
      </trkpt>
      <trkpt lat="43.32902" lon="5.69047">
        <ele>741</ele>
        <time>2019-01-18T12:29:41.000Z</time>
      </trkpt>
      <trkpt lat="43.32903" lon="5.69047">
        <ele>741</ele>
        <time>2019-01-18T12:29:42.000Z</time>
      </trkpt>
      <trkpt lat="43.32904" lon="5.69047">
        <ele>740</ele>
        <time>2019-01-18T12:29:43.000Z</time>
      </trkpt>
      <trkpt lat="43.32904" lon="5.69047">
        <ele>740</ele>
        <time>2019-01-18T12:29:44.000Z</time>
      </trkpt>
      <trkpt lat="43.32905" lon="5.69047">
        <ele>740</ele>
        <time>2019-01-18T12:29:45.000Z</time>
      </trkpt>
      <trkpt lat="43.32905" lon="5.69047">
        <ele>740</ele>
        <time>2019-01-18T12:29:46.000Z</time>
      </trkpt>
      <trkpt lat="43.32906" lon="5.69046">
        <ele>739</ele>
        <time>2019-01-18T12:29:47.000Z</time>
      </trkpt>
      <trkpt lat="43.32906" lon="5.69046">
        <ele>739</ele>
        <time>2019-01-18T12:29:48.000Z</time>
      </trkpt>
      <trkpt lat="43.32907" lon="5.69046">
        <ele>739</ele>
        <time>2019-01-18T12:29:49.000Z</time>
      </trkpt>
      <trkpt lat="43.32907" lon="5.69046">
        <ele>739</ele>
        <time>2019-01-18T12:29:50.000Z</time>
      </trkpt>
      <trkpt lat="43.32908" lon="5.69046">
        <ele>738</ele>
        <time>2019-01-18T12:29:51.000Z</time>
      </trkpt>
      <trkpt lat="43.32908" lon="5.69047">
        <ele>738</ele>
        <time>2019-01-18T12:29:52.000Z</time>
      </trkpt>
      <trkpt lat="43.32909" lon="5.69048">
        <ele>738</ele>
        <time>2019-01-18T12:29:53.000Z</time>
      </trkpt>
      <trkpt lat="43.32909" lon="5.69048">
        <ele>738</ele>
        <time>2019-01-18T12:29:54.000Z</time>
      </trkpt>
      <trkpt lat="43.32909" lon="5.69048">
        <ele>737</ele>
        <time>2019-01-18T12:29:55.000Z</time>
      </trkpt>
      <trkpt lat="43.3291" lon="5.69048">
        <ele>737</ele>
        <time>2019-01-18T12:29:56.000Z</time>
      </trkpt>
      <trkpt lat="43.3291" lon="5.69048">
        <ele>737</ele>
        <time>2019-01-18T12:29:57.000Z</time>
      </trkpt>
      <trkpt lat="43.32911" lon="5.69048">
        <ele>737</ele>
        <time>2019-01-18T12:29:58.000Z</time>
      </trkpt>
      <trkpt lat="43.32912" lon="5.69048">
        <ele>736</ele>
        <time>2019-01-18T12:29:59.000Z</time>
      </trkpt>
      <trkpt lat="43.32912" lon="5.69048">
        <ele>736</ele>
        <time>2019-01-18T12:30:00.000Z</time>
      </trkpt>
      <trkpt lat="43.32913" lon="5.69048">
        <ele>736</ele>
        <time>2019-01-18T12:30:01.000Z</time>
      </trkpt>
      <trkpt lat="43.32914" lon="5.69048">
        <ele>735</ele>
        <time>2019-01-18T12:30:02.000Z</time>
      </trkpt>
      <trkpt lat="43.32914" lon="5.69048">
        <ele>735</ele>
        <time>2019-01-18T12:30:03.000Z</time>
      </trkpt>
      <trkpt lat="43.32915" lon="5.69048">
        <ele>735</ele>
        <time>2019-01-18T12:30:04.000Z</time>
      </trkpt>
      <trkpt lat="43.32915" lon="5.69048">
        <ele>734</ele>
        <time>2019-01-18T12:30:05.000Z</time>
      </trkpt>
      <trkpt lat="43.32915" lon="5.69047">
        <ele>734</ele>
        <time>2019-01-18T12:30:06.000Z</time>
      </trkpt>
      <trkpt lat="43.32915" lon="5.69046">
        <ele>734</ele>
        <time>2019-01-18T12:30:07.000Z</time>
      </trkpt>
      <trkpt lat="43.32916" lon="5.69045">
        <ele>734</ele>
        <time>2019-01-18T12:30:08.000Z</time>
      </trkpt>
      <trkpt lat="43.32917" lon="5.69045">
        <ele>734</ele>
        <time>2019-01-18T12:30:09.000Z</time>
      </trkpt>
      <trkpt lat="43.32917" lon="5.69046">
        <ele>734</ele>
        <time>2019-01-18T12:30:10.000Z</time>
      </trkpt>
      <trkpt lat="43.32917" lon="5.69046">
        <ele>733</ele>
        <time>2019-01-18T12:30:11.000Z</time>
      </trkpt>
      <trkpt lat="43.32918" lon="5.69047">
        <ele>733</ele>
        <time>2019-01-18T12:30:12.000Z</time>
      </trkpt>
      <trkpt lat="43.32918" lon="5.69047">
        <ele>733</ele>
        <time>2019-01-18T12:30:13.000Z</time>
      </trkpt>
      <trkpt lat="43.32919" lon="5.69047">
        <ele>732</ele>
        <time>2019-01-18T12:30:14.000Z</time>
      </trkpt>
      <trkpt lat="43.32919" lon="5.69047">
        <ele>732</ele>
        <time>2019-01-18T12:30:15.000Z</time>
      </trkpt>
      <trkpt lat="43.3292" lon="5.69048">
        <ele>732</ele>
        <time>2019-01-18T12:30:16.000Z</time>
      </trkpt>
      <trkpt lat="43.3292" lon="5.69048">
        <ele>731</ele>
        <time>2019-01-18T12:30:17.000Z</time>
      </trkpt>
      <trkpt lat="43.3292" lon="5.69049">
        <ele>731</ele>
        <time>2019-01-18T12:30:18.000Z</time>
      </trkpt>
      <trkpt lat="43.32921" lon="5.69049">
        <ele>730</ele>
        <time>2019-01-18T12:30:19.000Z</time>
      </trkpt>
      <trkpt lat="43.32921" lon="5.69049">
        <ele>730</ele>
        <time>2019-01-18T12:30:20.000Z</time>
      </trkpt>
      <trkpt lat="43.32921" lon="5.69048">
        <ele>730</ele>
        <time>2019-01-18T12:30:21.000Z</time>
      </trkpt>
      <trkpt lat="43.32922" lon="5.69048">
        <ele>730</ele>
        <time>2019-01-18T12:30:22.000Z</time>
      </trkpt>
      <trkpt lat="43.32923" lon="5.69049">
        <ele>729</ele>
        <time>2019-01-18T12:30:23.000Z</time>
      </trkpt>
      <trkpt lat="43.32923" lon="5.69049">
        <ele>729</ele>
        <time>2019-01-18T12:30:24.000Z</time>
      </trkpt>
      <trkpt lat="43.32924" lon="5.69049">
        <ele>729</ele>
        <time>2019-01-18T12:30:25.000Z</time>
      </trkpt>
      <trkpt lat="43.32924" lon="5.6905">
        <ele>728</ele>
        <time>2019-01-18T12:30:26.000Z</time>
      </trkpt>
      <trkpt lat="43.32925" lon="5.6905">
        <ele>728</ele>
        <time>2019-01-18T12:30:27.000Z</time>
      </trkpt>
      <trkpt lat="43.32925" lon="5.6905">
        <ele>728</ele>
        <time>2019-01-18T12:30:28.000Z</time>
      </trkpt>
      <trkpt lat="43.32925" lon="5.69049">
        <ele>728</ele>
        <time>2019-01-18T12:30:29.000Z</time>
      </trkpt>
      <trkpt lat="43.32926" lon="5.69049">
        <ele>727</ele>
        <time>2019-01-18T12:30:30.000Z</time>
      </trkpt>
      <trkpt lat="43.32927" lon="5.69048">
        <ele>727</ele>
        <time>2019-01-18T12:30:31.000Z</time>
      </trkpt>
      <trkpt lat="43.32927" lon="5.69048">
        <ele>727</ele>
        <time>2019-01-18T12:30:32.000Z</time>
      </trkpt>
      <trkpt lat="43.32928" lon="5.69048">
        <ele>727</ele>
        <time>2019-01-18T12:30:33.000Z</time>
      </trkpt>
      <trkpt lat="43.32928" lon="5.69048">
        <ele>726</ele>
        <time>2019-01-18T12:30:34.000Z</time>
      </trkpt>
      <trkpt lat="43.32929" lon="5.69048">
        <ele>726</ele>
        <time>2019-01-18T12:30:35.000Z</time>
      </trkpt>
      <trkpt lat="43.32929" lon="5.69048">
        <ele>726</ele>
        <time>2019-01-18T12:30:36.000Z</time>
      </trkpt>
      <trkpt lat="43.3293" lon="5.69047">
        <ele>726</ele>
        <time>2019-01-18T12:30:37.000Z</time>
      </trkpt>
      <trkpt lat="43.32931" lon="5.69047">
        <ele>725</ele>
        <time>2019-01-18T12:30:38.000Z</time>
      </trkpt>
      <trkpt lat="43.32932" lon="5.69046">
        <ele>725</ele>
        <time>2019-01-18T12:30:39.000Z</time>
      </trkpt>
      <trkpt lat="43.32933" lon="5.69046">
        <ele>725</ele>
        <time>2019-01-18T12:30:40.000Z</time>
      </trkpt>
      <trkpt lat="43.32933" lon="5.69046">
        <ele>724</ele>
        <time>2019-01-18T12:30:41.000Z</time>
      </trkpt>
      <trkpt lat="43.32934" lon="5.69046">
        <ele>724</ele>
        <time>2019-01-18T12:30:42.000Z</time>
      </trkpt>
      <trkpt lat="43.32935" lon="5.69046">
        <ele>724</ele>
        <time>2019-01-18T12:30:43.000Z</time>
      </trkpt>
      <trkpt lat="43.32936" lon="5.69046">
        <ele>723</ele>
        <time>2019-01-18T12:30:44.000Z</time>
      </trkpt>
      <trkpt lat="43.32936" lon="5.69046">
        <ele>723</ele>
        <time>2019-01-18T12:30:45.000Z</time>
      </trkpt>
      <trkpt lat="43.32937" lon="5.69046">
        <ele>723</ele>
        <time>2019-01-18T12:30:46.000Z</time>
      </trkpt>
      <trkpt lat="43.32938" lon="5.69047">
        <ele>722</ele>
        <time>2019-01-18T12:30:47.000Z</time>
      </trkpt>
      <trkpt lat="43.32939" lon="5.69048">
        <ele>722</ele>
        <time>2019-01-18T12:30:48.000Z</time>
      </trkpt>
      <trkpt lat="43.3294" lon="5.69048">
        <ele>722</ele>
        <time>2019-01-18T12:30:49.000Z</time>
      </trkpt>
      <trkpt lat="43.3294" lon="5.69048">
        <ele>721</ele>
        <time>2019-01-18T12:30:50.000Z</time>
      </trkpt>
      <trkpt lat="43.32941" lon="5.69048">
        <ele>721</ele>
        <time>2019-01-18T12:30:51.000Z</time>
      </trkpt>
      <trkpt lat="43.32942" lon="5.69048">
        <ele>721</ele>
        <time>2019-01-18T12:30:52.000Z</time>
      </trkpt>
      <trkpt lat="43.32943" lon="5.69047">
        <ele>720</ele>
        <time>2019-01-18T12:30:53.000Z</time>
      </trkpt>
      <trkpt lat="43.32944" lon="5.69047">
        <ele>720</ele>
        <time>2019-01-18T12:30:54.000Z</time>
      </trkpt>
      <trkpt lat="43.32944" lon="5.69047">
        <ele>720</ele>
        <time>2019-01-18T12:30:55.000Z</time>
      </trkpt>
      <trkpt lat="43.32945" lon="5.69047">
        <ele>720</ele>
        <time>2019-01-18T12:30:56.000Z</time>
      </trkpt>
      <trkpt lat="43.32945" lon="5.69047">
        <ele>719</ele>
        <time>2019-01-18T12:30:57.000Z</time>
      </trkpt>
      <trkpt lat="43.32946" lon="5.69047">
        <ele>719</ele>
        <time>2019-01-18T12:30:58.000Z</time>
      </trkpt>
      <trkpt lat="43.32947" lon="5.69047">
        <ele>719</ele>
        <time>2019-01-18T12:30:59.000Z</time>
      </trkpt>
      <trkpt lat="43.32948" lon="5.69047">
        <ele>718</ele>
        <time>2019-01-18T12:31:00.000Z</time>
      </trkpt>
      <trkpt lat="43.32948" lon="5.69047">
        <ele>718</ele>
        <time>2019-01-18T12:31:01.000Z</time>
      </trkpt>
      <trkpt lat="43.32949" lon="5.69048">
        <ele>718</ele>
        <time>2019-01-18T12:31:02.000Z</time>
      </trkpt>
      <trkpt lat="43.32949" lon="5.69048">
        <ele>718</ele>
        <time>2019-01-18T12:31:03.000Z</time>
      </trkpt>
      <trkpt lat="43.3295" lon="5.69048">
        <ele>717</ele>
        <time>2019-01-18T12:31:04.000Z</time>
      </trkpt>
      <trkpt lat="43.32951" lon="5.69048">
        <ele>717</ele>
        <time>2019-01-18T12:31:05.000Z</time>
      </trkpt>
      <trkpt lat="43.32951" lon="5.69048">
        <ele>717</ele>
        <time>2019-01-18T12:31:06.000Z</time>
      </trkpt>
      <trkpt lat="43.32952" lon="5.69048">
        <ele>717</ele>
        <time>2019-01-18T12:31:07.000Z</time>
      </trkpt>
      <trkpt lat="43.32953" lon="5.69048">
        <ele>716</ele>
        <time>2019-01-18T12:31:08.000Z</time>
      </trkpt>
      <trkpt lat="43.32954" lon="5.69048">
        <ele>716</ele>
        <time>2019-01-18T12:31:09.000Z</time>
      </trkpt>
      <trkpt lat="43.32955" lon="5.69048">
        <ele>716</ele>
        <time>2019-01-18T12:31:10.000Z</time>
      </trkpt>
      <trkpt lat="43.32955" lon="5.69048">
        <ele>716</ele>
        <time>2019-01-18T12:31:11.000Z</time>
      </trkpt>
      <trkpt lat="43.32956" lon="5.69048">
        <ele>715</ele>
        <time>2019-01-18T12:31:12.000Z</time>
      </trkpt>
      <trkpt lat="43.32957" lon="5.69048">
        <ele>715</ele>
        <time>2019-01-18T12:31:13.000Z</time>
      </trkpt>
      <trkpt lat="43.32957" lon="5.69048">
        <ele>715</ele>
        <time>2019-01-18T12:31:14.000Z</time>
      </trkpt>
      <trkpt lat="43.32958" lon="5.69048">
        <ele>715</ele>
        <time>2019-01-18T12:31:15.000Z</time>
      </trkpt>
      <trkpt lat="43.32959" lon="5.69047">
        <ele>715</ele>
        <time>2019-01-18T12:31:16.000Z</time>
      </trkpt>
      <trkpt lat="43.3296" lon="5.69047">
        <ele>715</ele>
        <time>2019-01-18T12:31:17.000Z</time>
      </trkpt>
      <trkpt lat="43.3296" lon="5.69047">
        <ele>714</ele>
        <time>2019-01-18T12:31:18.000Z</time>
      </trkpt>
      <trkpt lat="43.32961" lon="5.69047">
        <ele>714</ele>
        <time>2019-01-18T12:31:19.000Z</time>
      </trkpt>
      <trkpt lat="43.32962" lon="5.69047">
        <ele>714</ele>
        <time>2019-01-18T12:31:20.000Z</time>
      </trkpt>
      <trkpt lat="43.32963" lon="5.69047">
        <ele>713</ele>
        <time>2019-01-18T12:31:21.000Z</time>
      </trkpt>
      <trkpt lat="43.32963" lon="5.69047">
        <ele>713</ele>
        <time>2019-01-18T12:31:22.000Z</time>
      </trkpt>
      <trkpt lat="43.32964" lon="5.69047">
        <ele>713</ele>
        <time>2019-01-18T12:31:23.000Z</time>
      </trkpt>
      <trkpt lat="43.32965" lon="5.69047">
        <ele>713</ele>
        <time>2019-01-18T12:31:24.000Z</time>
      </trkpt>
      <trkpt lat="43.32966" lon="5.69047">
        <ele>712</ele>
        <time>2019-01-18T12:31:25.000Z</time>
      </trkpt>
      <trkpt lat="43.32966" lon="5.69047">
        <ele>712</ele>
        <time>2019-01-18T12:31:26.000Z</time>
      </trkpt>
      <trkpt lat="43.32967" lon="5.69046">
        <ele>711</ele>
        <time>2019-01-18T12:31:27.000Z</time>
      </trkpt>
      <trkpt lat="43.32968" lon="5.69046">
        <ele>711</ele>
        <time>2019-01-18T12:31:28.000Z</time>
      </trkpt>
      <trkpt lat="43.32969" lon="5.69046">
        <ele>711</ele>
        <time>2019-01-18T12:31:29.000Z</time>
      </trkpt>
      <trkpt lat="43.32969" lon="5.69046">
        <ele>710</ele>
        <time>2019-01-18T12:31:30.000Z</time>
      </trkpt>
      <trkpt lat="43.3297" lon="5.69047">
        <ele>710</ele>
        <time>2019-01-18T12:31:31.000Z</time>
      </trkpt>
      <trkpt lat="43.32971" lon="5.69047">
        <ele>710</ele>
        <time>2019-01-18T12:31:32.000Z</time>
      </trkpt>
      <trkpt lat="43.32971" lon="5.69048">
        <ele>709</ele>
        <time>2019-01-18T12:31:33.000Z</time>
      </trkpt>
      <trkpt lat="43.32971" lon="5.69048">
        <ele>709</ele>
        <time>2019-01-18T12:31:34.000Z</time>
      </trkpt>
      <trkpt lat="43.32972" lon="5.69048">
        <ele>709</ele>
        <time>2019-01-18T12:31:35.000Z</time>
      </trkpt>
      <trkpt lat="43.32973" lon="5.69048">
        <ele>709</ele>
        <time>2019-01-18T12:31:36.000Z</time>
      </trkpt>
      <trkpt lat="43.32973" lon="5.69049">
        <ele>708</ele>
        <time>2019-01-18T12:31:37.000Z</time>
      </trkpt>
      <trkpt lat="43.32973" lon="5.69049">
        <ele>708</ele>
        <time>2019-01-18T12:31:38.000Z</time>
      </trkpt>
      <trkpt lat="43.32974" lon="5.6905">
        <ele>708</ele>
        <time>2019-01-18T12:31:39.000Z</time>
      </trkpt>
      <trkpt lat="43.32974" lon="5.6905">
        <ele>707</ele>
        <time>2019-01-18T12:31:40.000Z</time>
      </trkpt>
      <trkpt lat="43.32975" lon="5.69051">
        <ele>707</ele>
        <time>2019-01-18T12:31:41.000Z</time>
      </trkpt>
      <trkpt lat="43.32976" lon="5.69051">
        <ele>707</ele>
        <time>2019-01-18T12:31:42.000Z</time>
      </trkpt>
      <trkpt lat="43.32976" lon="5.69051">
        <ele>707</ele>
        <time>2019-01-18T12:31:43.000Z</time>
      </trkpt>
      <trkpt lat="43.32977" lon="5.69052">
        <ele>706</ele>
        <time>2019-01-18T12:31:44.000Z</time>
      </trkpt>
      <trkpt lat="43.32977" lon="5.69053">
        <ele>706</ele>
        <time>2019-01-18T12:31:45.000Z</time>
      </trkpt>
      <trkpt lat="43.32978" lon="5.69053">
        <ele>706</ele>
        <time>2019-01-18T12:31:46.000Z</time>
      </trkpt>
      <trkpt lat="43.32978" lon="5.69054">
        <ele>706</ele>
        <time>2019-01-18T12:31:47.000Z</time>
      </trkpt>
      <trkpt lat="43.32978" lon="5.69054">
        <ele>705</ele>
        <time>2019-01-18T12:31:48.000Z</time>
      </trkpt>
      <trkpt lat="43.32979" lon="5.69055">
        <ele>705</ele>
        <time>2019-01-18T12:31:49.000Z</time>
      </trkpt>
      <trkpt lat="43.3298" lon="5.69055">
        <ele>705</ele>
        <time>2019-01-18T12:31:50.000Z</time>
      </trkpt>
      <trkpt lat="43.32981" lon="5.69055">
        <ele>705</ele>
        <time>2019-01-18T12:31:51.000Z</time>
      </trkpt>
      <trkpt lat="43.32982" lon="5.69055">
        <ele>704</ele>
        <time>2019-01-18T12:31:52.000Z</time>
      </trkpt>
      <trkpt lat="43.32982" lon="5.69056">
        <ele>704</ele>
        <time>2019-01-18T12:31:53.000Z</time>
      </trkpt>
      <trkpt lat="43.32982" lon="5.69056">
        <ele>704</ele>
        <time>2019-01-18T12:31:54.000Z</time>
      </trkpt>
      <trkpt lat="43.32982" lon="5.69056">
        <ele>704</ele>
        <time>2019-01-18T12:31:55.000Z</time>
      </trkpt>
      <trkpt lat="43.32982" lon="5.69056">
        <ele>704</ele>
        <time>2019-01-18T12:31:56.000Z</time>
      </trkpt>
      <trkpt lat="43.32982" lon="5.69056">
        <ele>704</ele>
        <time>2019-01-18T12:31:57.000Z</time>
      </trkpt>
      <trkpt lat="43.32983" lon="5.69056">
        <ele>703</ele>
        <time>2019-01-18T12:31:58.000Z</time>
      </trkpt>
      <trkpt lat="43.32983" lon="5.69056">
        <ele>703</ele>
        <time>2019-01-18T12:31:59.000Z</time>
      </trkpt>
      <trkpt lat="43.32984" lon="5.69055">
        <ele>703</ele>
        <time>2019-01-18T12:32:00.000Z</time>
      </trkpt>
      <trkpt lat="43.32985" lon="5.69056">
        <ele>703</ele>
        <time>2019-01-18T12:32:01.000Z</time>
      </trkpt>
      <trkpt lat="43.32986" lon="5.69056">
        <ele>702</ele>
        <time>2019-01-18T12:32:02.000Z</time>
      </trkpt>
      <trkpt lat="43.32986" lon="5.69056">
        <ele>702</ele>
        <time>2019-01-18T12:32:03.000Z</time>
      </trkpt>
      <trkpt lat="43.32987" lon="5.69056">
        <ele>702</ele>
        <time>2019-01-18T12:32:04.000Z</time>
      </trkpt>
      <trkpt lat="43.32988" lon="5.69057">
        <ele>701</ele>
        <time>2019-01-18T12:32:05.000Z</time>
      </trkpt>
      <trkpt lat="43.32988" lon="5.69058">
        <ele>701</ele>
        <time>2019-01-18T12:32:06.000Z</time>
      </trkpt>
      <trkpt lat="43.32988" lon="5.69059">
        <ele>701</ele>
        <time>2019-01-18T12:32:07.000Z</time>
      </trkpt>
      <trkpt lat="43.32988" lon="5.69059">
        <ele>700</ele>
        <time>2019-01-18T12:32:08.000Z</time>
      </trkpt>
      <trkpt lat="43.32989" lon="5.69059">
        <ele>700</ele>
        <time>2019-01-18T12:32:09.000Z</time>
      </trkpt>
      <trkpt lat="43.32989" lon="5.69059">
        <ele>700</ele>
        <time>2019-01-18T12:32:10.000Z</time>
      </trkpt>
      <trkpt lat="43.3299" lon="5.69059">
        <ele>700</ele>
        <time>2019-01-18T12:32:11.000Z</time>
      </trkpt>
      <trkpt lat="43.32991" lon="5.69059">
        <ele>699</ele>
        <time>2019-01-18T12:32:12.000Z</time>
      </trkpt>
      <trkpt lat="43.32991" lon="5.69059">
        <ele>699</ele>
        <time>2019-01-18T12:32:13.000Z</time>
      </trkpt>
      <trkpt lat="43.32992" lon="5.6906">
        <ele>699</ele>
        <time>2019-01-18T12:32:14.000Z</time>
      </trkpt>
      <trkpt lat="43.32992" lon="5.6906">
        <ele>698</ele>
        <time>2019-01-18T12:32:15.000Z</time>
      </trkpt>
      <trkpt lat="43.32993" lon="5.69061">
        <ele>698</ele>
        <time>2019-01-18T12:32:16.000Z</time>
      </trkpt>
      <trkpt lat="43.32993" lon="5.69061">
        <ele>698</ele>
        <time>2019-01-18T12:32:17.000Z</time>
      </trkpt>
      <trkpt lat="43.32994" lon="5.69061">
        <ele>698</ele>
        <time>2019-01-18T12:32:18.000Z</time>
      </trkpt>
      <trkpt lat="43.32994" lon="5.6906">
        <ele>697</ele>
        <time>2019-01-18T12:32:19.000Z</time>
      </trkpt>
      <trkpt lat="43.32995" lon="5.6906">
        <ele>697</ele>
        <time>2019-01-18T12:32:20.000Z</time>
      </trkpt>
      <trkpt lat="43.32996" lon="5.6906">
        <ele>696</ele>
        <time>2019-01-18T12:32:21.000Z</time>
      </trkpt>
      <trkpt lat="43.32996" lon="5.6906">
        <ele>696</ele>
        <time>2019-01-18T12:32:22.000Z</time>
      </trkpt>
      <trkpt lat="43.32997" lon="5.69061">
        <ele>696</ele>
        <time>2019-01-18T12:32:23.000Z</time>
      </trkpt>
      <trkpt lat="43.32997" lon="5.69061">
        <ele>696</ele>
        <time>2019-01-18T12:32:24.000Z</time>
      </trkpt>
      <trkpt lat="43.32997" lon="5.69062">
        <ele>695</ele>
        <time>2019-01-18T12:32:25.000Z</time>
      </trkpt>
      <trkpt lat="43.32998" lon="5.69062">
        <ele>695</ele>
        <time>2019-01-18T12:32:26.000Z</time>
      </trkpt>
      <trkpt lat="43.32999" lon="5.69062">
        <ele>695</ele>
        <time>2019-01-18T12:32:27.000Z</time>
      </trkpt>
      <trkpt lat="43.33" lon="5.69062">
        <ele>694</ele>
        <time>2019-01-18T12:32:28.000Z</time>
      </trkpt>
      <trkpt lat="43.33" lon="5.69062">
        <ele>694</ele>
        <time>2019-01-18T12:32:29.000Z</time>
      </trkpt>
      <trkpt lat="43.33001" lon="5.69062">
        <ele>694</ele>
        <time>2019-01-18T12:32:30.000Z</time>
      </trkpt>
      <trkpt lat="43.33001" lon="5.69062">
        <ele>693</ele>
        <time>2019-01-18T12:32:31.000Z</time>
      </trkpt>
      <trkpt lat="43.33002" lon="5.69062">
        <ele>693</ele>
        <time>2019-01-18T12:32:32.000Z</time>
      </trkpt>
      <trkpt lat="43.33003" lon="5.69062">
        <ele>693</ele>
        <time>2019-01-18T12:32:33.000Z</time>
      </trkpt>
      <trkpt lat="43.33003" lon="5.69062">
        <ele>692</ele>
        <time>2019-01-18T12:32:34.000Z</time>
      </trkpt>
      <trkpt lat="43.33004" lon="5.69062">
        <ele>692</ele>
        <time>2019-01-18T12:32:35.000Z</time>
      </trkpt>
      <trkpt lat="43.33004" lon="5.69062">
        <ele>692</ele>
        <time>2019-01-18T12:32:36.000Z</time>
      </trkpt>
      <trkpt lat="43.33005" lon="5.69062">
        <ele>691</ele>
        <time>2019-01-18T12:32:37.000Z</time>
      </trkpt>
      <trkpt lat="43.33006" lon="5.69062">
        <ele>691</ele>
        <time>2019-01-18T12:32:38.000Z</time>
      </trkpt>
      <trkpt lat="43.33006" lon="5.69062">
        <ele>691</ele>
        <time>2019-01-18T12:32:39.000Z</time>
      </trkpt>
      <trkpt lat="43.33007" lon="5.69062">
        <ele>691</ele>
        <time>2019-01-18T12:32:40.000Z</time>
      </trkpt>
      <trkpt lat="43.33007" lon="5.69062">
        <ele>690</ele>
        <time>2019-01-18T12:32:41.000Z</time>
      </trkpt>
      <trkpt lat="43.33008" lon="5.69061">
        <ele>690</ele>
        <time>2019-01-18T12:32:42.000Z</time>
      </trkpt>
      <trkpt lat="43.33008" lon="5.6906">
        <ele>690</ele>
        <time>2019-01-18T12:32:43.000Z</time>
      </trkpt>
      <trkpt lat="43.33009" lon="5.6906">
        <ele>690</ele>
        <time>2019-01-18T12:32:44.000Z</time>
      </trkpt>
      <trkpt lat="43.3301" lon="5.6906">
        <ele>689</ele>
        <time>2019-01-18T12:32:45.000Z</time>
      </trkpt>
      <trkpt lat="43.33011" lon="5.6906">
        <ele>689</ele>
        <time>2019-01-18T12:32:46.000Z</time>
      </trkpt>
      <trkpt lat="43.33011" lon="5.69059">
        <ele>689</ele>
        <time>2019-01-18T12:32:47.000Z</time>
      </trkpt>
      <trkpt lat="43.33012" lon="5.69059">
        <ele>689</ele>
        <time>2019-01-18T12:32:48.000Z</time>
      </trkpt>
      <trkpt lat="43.33012" lon="5.69059">
        <ele>689</ele>
        <time>2019-01-18T12:32:49.000Z</time>
      </trkpt>
      <trkpt lat="43.33013" lon="5.69059">
        <ele>688</ele>
        <time>2019-01-18T12:32:50.000Z</time>
      </trkpt>
      <trkpt lat="43.33013" lon="5.69059">
        <ele>688</ele>
        <time>2019-01-18T12:32:51.000Z</time>
      </trkpt>
      <trkpt lat="43.33014" lon="5.69059">
        <ele>688</ele>
        <time>2019-01-18T12:32:52.000Z</time>
      </trkpt>
      <trkpt lat="43.33014" lon="5.6906">
        <ele>688</ele>
        <time>2019-01-18T12:32:53.000Z</time>
      </trkpt>
      <trkpt lat="43.33015" lon="5.6906">
        <ele>687</ele>
        <time>2019-01-18T12:32:54.000Z</time>
      </trkpt>
      <trkpt lat="43.33015" lon="5.6906">
        <ele>687</ele>
        <time>2019-01-18T12:32:55.000Z</time>
      </trkpt>
      <trkpt lat="43.33016" lon="5.69061">
        <ele>687</ele>
        <time>2019-01-18T12:32:56.000Z</time>
      </trkpt>
      <trkpt lat="43.33016" lon="5.6906">
        <ele>687</ele>
        <time>2019-01-18T12:32:57.000Z</time>
      </trkpt>
      <trkpt lat="43.33017" lon="5.6906">
        <ele>687</ele>
        <time>2019-01-18T12:32:58.000Z</time>
      </trkpt>
      <trkpt lat="43.33017" lon="5.6906">
        <ele>686</ele>
        <time>2019-01-18T12:32:59.000Z</time>
      </trkpt>
      <trkpt lat="43.33018" lon="5.6906">
        <ele>686</ele>
        <time>2019-01-18T12:33:00.000Z</time>
      </trkpt>
      <trkpt lat="43.33018" lon="5.6906">
        <ele>686</ele>
        <time>2019-01-18T12:33:01.000Z</time>
      </trkpt>
      <trkpt lat="43.33019" lon="5.69059">
        <ele>685</ele>
        <time>2019-01-18T12:33:02.000Z</time>
      </trkpt>
      <trkpt lat="43.3302" lon="5.69059">
        <ele>685</ele>
        <time>2019-01-18T12:33:03.000Z</time>
      </trkpt>
      <trkpt lat="43.33021" lon="5.69059">
        <ele>685</ele>
        <time>2019-01-18T12:33:04.000Z</time>
      </trkpt>
      <trkpt lat="43.33021" lon="5.69059">
        <ele>684</ele>
        <time>2019-01-18T12:33:05.000Z</time>
      </trkpt>
      <trkpt lat="43.33022" lon="5.69059">
        <ele>684</ele>
        <time>2019-01-18T12:33:06.000Z</time>
      </trkpt>
      <trkpt lat="43.33022" lon="5.69059">
        <ele>684</ele>
        <time>2019-01-18T12:33:07.000Z</time>
      </trkpt>
      <trkpt lat="43.33023" lon="5.69059">
        <ele>684</ele>
        <time>2019-01-18T12:33:08.000Z</time>
      </trkpt>
      <trkpt lat="43.33024" lon="5.69059">
        <ele>683</ele>
        <time>2019-01-18T12:33:09.000Z</time>
      </trkpt>
      <trkpt lat="43.33024" lon="5.69059">
        <ele>683</ele>
        <time>2019-01-18T12:33:10.000Z</time>
      </trkpt>
      <trkpt lat="43.33025" lon="5.69059">
        <ele>683</ele>
        <time>2019-01-18T12:33:11.000Z</time>
      </trkpt>
      <trkpt lat="43.33025" lon="5.69059">
        <ele>682</ele>
        <time>2019-01-18T12:33:12.000Z</time>
      </trkpt>
      <trkpt lat="43.33026" lon="5.69059">
        <ele>682</ele>
        <time>2019-01-18T12:33:13.000Z</time>
      </trkpt>
      <trkpt lat="43.33026" lon="5.69059">
        <ele>682</ele>
        <time>2019-01-18T12:33:14.000Z</time>
      </trkpt>
      <trkpt lat="43.33027" lon="5.69059">
        <ele>681</ele>
        <time>2019-01-18T12:33:15.000Z</time>
      </trkpt>
      <trkpt lat="43.33028" lon="5.6906">
        <ele>681</ele>
        <time>2019-01-18T12:33:16.000Z</time>
      </trkpt>
      <trkpt lat="43.33028" lon="5.6906">
        <ele>681</ele>
        <time>2019-01-18T12:33:17.000Z</time>
      </trkpt>
      <trkpt lat="43.33028" lon="5.6906">
        <ele>680</ele>
        <time>2019-01-18T12:33:18.000Z</time>
      </trkpt>
      <trkpt lat="43.33029" lon="5.69059">
        <ele>680</ele>
        <time>2019-01-18T12:33:19.000Z</time>
      </trkpt>
      <trkpt lat="43.3303" lon="5.69059">
        <ele>680</ele>
        <time>2019-01-18T12:33:20.000Z</time>
      </trkpt>
      <trkpt lat="43.33031" lon="5.69058">
        <ele>679</ele>
        <time>2019-01-18T12:33:21.000Z</time>
      </trkpt>
      <trkpt lat="43.33031" lon="5.69058">
        <ele>679</ele>
        <time>2019-01-18T12:33:22.000Z</time>
      </trkpt>
      <trkpt lat="43.33032" lon="5.69059">
        <ele>679</ele>
        <time>2019-01-18T12:33:23.000Z</time>
      </trkpt>
      <trkpt lat="43.33032" lon="5.69059">
        <ele>679</ele>
        <time>2019-01-18T12:33:24.000Z</time>
      </trkpt>
      <trkpt lat="43.33033" lon="5.69059">
        <ele>678</ele>
        <time>2019-01-18T12:33:25.000Z</time>
      </trkpt>
      <trkpt lat="43.33033" lon="5.69058">
        <ele>678</ele>
        <time>2019-01-18T12:33:26.000Z</time>
      </trkpt>
      <trkpt lat="43.33034" lon="5.69058">
        <ele>678</ele>
        <time>2019-01-18T12:33:27.000Z</time>
      </trkpt>
      <trkpt lat="43.33035" lon="5.69059">
        <ele>678</ele>
        <time>2019-01-18T12:33:28.000Z</time>
      </trkpt>
      <trkpt lat="43.33035" lon="5.69059">
        <ele>677</ele>
        <time>2019-01-18T12:33:29.000Z</time>
      </trkpt>
      <trkpt lat="43.33036" lon="5.69059">
        <ele>677</ele>
        <time>2019-01-18T12:33:30.000Z</time>
      </trkpt>
      <trkpt lat="43.33036" lon="5.69059">
        <ele>677</ele>
        <time>2019-01-18T12:33:31.000Z</time>
      </trkpt>
      <trkpt lat="43.33037" lon="5.69059">
        <ele>677</ele>
        <time>2019-01-18T12:33:32.000Z</time>
      </trkpt>
      <trkpt lat="43.33038" lon="5.69059">
        <ele>677</ele>
        <time>2019-01-18T12:33:33.000Z</time>
      </trkpt>
      <trkpt lat="43.33039" lon="5.69059">
        <ele>677</ele>
        <time>2019-01-18T12:33:34.000Z</time>
      </trkpt>
      <trkpt lat="43.33039" lon="5.69059">
        <ele>676</ele>
        <time>2019-01-18T12:33:35.000Z</time>
      </trkpt>
      <trkpt lat="43.3304" lon="5.69059">
        <ele>676</ele>
        <time>2019-01-18T12:33:36.000Z</time>
      </trkpt>
      <trkpt lat="43.33041" lon="5.69059">
        <ele>676</ele>
        <time>2019-01-18T12:33:37.000Z</time>
      </trkpt>
      <trkpt lat="43.33042" lon="5.6906">
        <ele>676</ele>
        <time>2019-01-18T12:33:38.000Z</time>
      </trkpt>
      <trkpt lat="43.33042" lon="5.6906">
        <ele>675</ele>
        <time>2019-01-18T12:33:39.000Z</time>
      </trkpt>
      <trkpt lat="43.33043" lon="5.6906">
        <ele>675</ele>
        <time>2019-01-18T12:33:40.000Z</time>
      </trkpt>
      <trkpt lat="43.33044" lon="5.69061">
        <ele>675</ele>
        <time>2019-01-18T12:33:41.000Z</time>
      </trkpt>
      <trkpt lat="43.33044" lon="5.69062">
        <ele>674</ele>
        <time>2019-01-18T12:33:42.000Z</time>
      </trkpt>
      <trkpt lat="43.33045" lon="5.69062">
        <ele>674</ele>
        <time>2019-01-18T12:33:43.000Z</time>
      </trkpt>
      <trkpt lat="43.33046" lon="5.69062">
        <ele>674</ele>
        <time>2019-01-18T12:33:44.000Z</time>
      </trkpt>
      <trkpt lat="43.33046" lon="5.69063">
        <ele>674</ele>
        <time>2019-01-18T12:33:45.000Z</time>
      </trkpt>
      <trkpt lat="43.33047" lon="5.69063">
        <ele>673</ele>
        <time>2019-01-18T12:33:46.000Z</time>
      </trkpt>
      <trkpt lat="43.33048" lon="5.69064">
        <ele>673</ele>
        <time>2019-01-18T12:33:47.000Z</time>
      </trkpt>
      <trkpt lat="43.33049" lon="5.69064">
        <ele>673</ele>
        <time>2019-01-18T12:33:48.000Z</time>
      </trkpt>
      <trkpt lat="43.33049" lon="5.69064">
        <ele>673</ele>
        <time>2019-01-18T12:33:49.000Z</time>
      </trkpt>
      <trkpt lat="43.3305" lon="5.69064">
        <ele>673</ele>
        <time>2019-01-18T12:33:50.000Z</time>
      </trkpt>
      <trkpt lat="43.33051" lon="5.69064">
        <ele>672</ele>
        <time>2019-01-18T12:33:51.000Z</time>
      </trkpt>
      <trkpt lat="43.33052" lon="5.69065">
        <ele>672</ele>
        <time>2019-01-18T12:33:52.000Z</time>
      </trkpt>
      <trkpt lat="43.33053" lon="5.69065">
        <ele>672</ele>
        <time>2019-01-18T12:33:53.000Z</time>
      </trkpt>
      <trkpt lat="43.33053" lon="5.69065">
        <ele>671</ele>
        <time>2019-01-18T12:33:54.000Z</time>
      </trkpt>
      <trkpt lat="43.33054" lon="5.69065">
        <ele>671</ele>
        <time>2019-01-18T12:33:55.000Z</time>
      </trkpt>
      <trkpt lat="43.33055" lon="5.69066">
        <ele>671</ele>
        <time>2019-01-18T12:33:56.000Z</time>
      </trkpt>
      <trkpt lat="43.33055" lon="5.69067">
        <ele>671</ele>
        <time>2019-01-18T12:33:57.000Z</time>
      </trkpt>
      <trkpt lat="43.33056" lon="5.69068">
        <ele>670</ele>
        <time>2019-01-18T12:33:58.000Z</time>
      </trkpt>
      <trkpt lat="43.33057" lon="5.69068">
        <ele>670</ele>
        <time>2019-01-18T12:33:59.000Z</time>
      </trkpt>
      <trkpt lat="43.33058" lon="5.69068">
        <ele>670</ele>
        <time>2019-01-18T12:34:00.000Z</time>
      </trkpt>
      <trkpt lat="43.33058" lon="5.69069">
        <ele>669</ele>
        <time>2019-01-18T12:34:01.000Z</time>
      </trkpt>
      <trkpt lat="43.33059" lon="5.69069">
        <ele>669</ele>
        <time>2019-01-18T12:34:02.000Z</time>
      </trkpt>
      <trkpt lat="43.3306" lon="5.6907">
        <ele>669</ele>
        <time>2019-01-18T12:34:03.000Z</time>
      </trkpt>
      <trkpt lat="43.3306" lon="5.69071">
        <ele>668</ele>
        <time>2019-01-18T12:34:04.000Z</time>
      </trkpt>
      <trkpt lat="43.33061" lon="5.69071">
        <ele>668</ele>
        <time>2019-01-18T12:34:05.000Z</time>
      </trkpt>
      <trkpt lat="43.33062" lon="5.69071">
        <ele>668</ele>
        <time>2019-01-18T12:34:06.000Z</time>
      </trkpt>
      <trkpt lat="43.33062" lon="5.69073">
        <ele>668</ele>
        <time>2019-01-18T12:34:07.000Z</time>
      </trkpt>
      <trkpt lat="43.33063" lon="5.69073">
        <ele>667</ele>
        <time>2019-01-18T12:34:08.000Z</time>
      </trkpt>
      <trkpt lat="43.33064" lon="5.69074">
        <ele>667</ele>
        <time>2019-01-18T12:34:09.000Z</time>
      </trkpt>
      <trkpt lat="43.33064" lon="5.69075">
        <ele>667</ele>
        <time>2019-01-18T12:34:10.000Z</time>
      </trkpt>
      <trkpt lat="43.33065" lon="5.69076">
        <ele>667</ele>
        <time>2019-01-18T12:34:11.000Z</time>
      </trkpt>
      <trkpt lat="43.33066" lon="5.69076">
        <ele>666</ele>
        <time>2019-01-18T12:34:12.000Z</time>
      </trkpt>
      <trkpt lat="43.33066" lon="5.69077">
        <ele>666</ele>
        <time>2019-01-18T12:34:13.000Z</time>
      </trkpt>
      <trkpt lat="43.33067" lon="5.69078">
        <ele>666</ele>
        <time>2019-01-18T12:34:14.000Z</time>
      </trkpt>
      <trkpt lat="43.33068" lon="5.69078">
        <ele>665</ele>
        <time>2019-01-18T12:34:15.000Z</time>
      </trkpt>
      <trkpt lat="43.33069" lon="5.69079">
        <ele>665</ele>
        <time>2019-01-18T12:34:16.000Z</time>
      </trkpt>
      <trkpt lat="43.33069" lon="5.69079">
        <ele>665</ele>
        <time>2019-01-18T12:34:17.000Z</time>
      </trkpt>
      <trkpt lat="43.3307" lon="5.6908">
        <ele>665</ele>
        <time>2019-01-18T12:34:18.000Z</time>
      </trkpt>
      <trkpt lat="43.33071" lon="5.6908">
        <ele>664</ele>
        <time>2019-01-18T12:34:19.000Z</time>
      </trkpt>
      <trkpt lat="43.33072" lon="5.69081">
        <ele>664</ele>
        <time>2019-01-18T12:34:20.000Z</time>
      </trkpt>
      <trkpt lat="43.33073" lon="5.69082">
        <ele>664</ele>
        <time>2019-01-18T12:34:21.000Z</time>
      </trkpt>
      <trkpt lat="43.33074" lon="5.69083">
        <ele>664</ele>
        <time>2019-01-18T12:34:22.000Z</time>
      </trkpt>
      <trkpt lat="43.33074" lon="5.69083">
        <ele>664</ele>
        <time>2019-01-18T12:34:23.000Z</time>
      </trkpt>
      <trkpt lat="43.33075" lon="5.69084">
        <ele>664</ele>
        <time>2019-01-18T12:34:24.000Z</time>
      </trkpt>
      <trkpt lat="43.33076" lon="5.69085">
        <ele>663</ele>
        <time>2019-01-18T12:34:25.000Z</time>
      </trkpt>
      <trkpt lat="43.33077" lon="5.69086">
        <ele>663</ele>
        <time>2019-01-18T12:34:26.000Z</time>
      </trkpt>
      <trkpt lat="43.33077" lon="5.69087">
        <ele>663</ele>
        <time>2019-01-18T12:34:27.000Z</time>
      </trkpt>
      <trkpt lat="43.33078" lon="5.69089">
        <ele>663</ele>
        <time>2019-01-18T12:34:28.000Z</time>
      </trkpt>
      <trkpt lat="43.33079" lon="5.6909">
        <ele>663</ele>
        <time>2019-01-18T12:34:29.000Z</time>
      </trkpt>
      <trkpt lat="43.33079" lon="5.6909">
        <ele>663</ele>
        <time>2019-01-18T12:34:30.000Z</time>
      </trkpt>
      <trkpt lat="43.3308" lon="5.69091">
        <ele>662</ele>
        <time>2019-01-18T12:34:31.000Z</time>
      </trkpt>
      <trkpt lat="43.33081" lon="5.69092">
        <ele>662</ele>
        <time>2019-01-18T12:34:32.000Z</time>
      </trkpt>
      <trkpt lat="43.33082" lon="5.69093">
        <ele>662</ele>
        <time>2019-01-18T12:34:33.000Z</time>
      </trkpt>
      <trkpt lat="43.33082" lon="5.69093">
        <ele>662</ele>
        <time>2019-01-18T12:34:34.000Z</time>
      </trkpt>
      <trkpt lat="43.33083" lon="5.69094">
        <ele>662</ele>
        <time>2019-01-18T12:34:35.000Z</time>
      </trkpt>
      <trkpt lat="43.33084" lon="5.69094">
        <ele>662</ele>
        <time>2019-01-18T12:34:36.000Z</time>
      </trkpt>
      <trkpt lat="43.33085" lon="5.69095">
        <ele>662</ele>
        <time>2019-01-18T12:34:37.000Z</time>
      </trkpt>
      <trkpt lat="43.33085" lon="5.69095">
        <ele>661</ele>
        <time>2019-01-18T12:34:38.000Z</time>
      </trkpt>
      <trkpt lat="43.33086" lon="5.69096">
        <ele>661</ele>
        <time>2019-01-18T12:34:39.000Z</time>
      </trkpt>
      <trkpt lat="43.33087" lon="5.69097">
        <ele>661</ele>
        <time>2019-01-18T12:34:40.000Z</time>
      </trkpt>
      <trkpt lat="43.33088" lon="5.69098">
        <ele>661</ele>
        <time>2019-01-18T12:34:41.000Z</time>
      </trkpt>
      <trkpt lat="43.33089" lon="5.69098">
        <ele>660</ele>
        <time>2019-01-18T12:34:42.000Z</time>
      </trkpt>
      <trkpt lat="43.3309" lon="5.69099">
        <ele>660</ele>
        <time>2019-01-18T12:34:43.000Z</time>
      </trkpt>
      <trkpt lat="43.3309" lon="5.69099">
        <ele>660</ele>
        <time>2019-01-18T12:34:44.000Z</time>
      </trkpt>
      <trkpt lat="43.33091" lon="5.691">
        <ele>660</ele>
        <time>2019-01-18T12:34:45.000Z</time>
      </trkpt>
      <trkpt lat="43.33092" lon="5.69101">
        <ele>659</ele>
        <time>2019-01-18T12:34:46.000Z</time>
      </trkpt>
      <trkpt lat="43.33093" lon="5.69102">
        <ele>659</ele>
        <time>2019-01-18T12:34:47.000Z</time>
      </trkpt>
      <trkpt lat="43.33094" lon="5.69103">
        <ele>659</ele>
        <time>2019-01-18T12:34:48.000Z</time>
      </trkpt>
      <trkpt lat="43.33095" lon="5.69103">
        <ele>659</ele>
        <time>2019-01-18T12:34:49.000Z</time>
      </trkpt>
      <trkpt lat="43.33095" lon="5.69103">
        <ele>658</ele>
        <time>2019-01-18T12:34:50.000Z</time>
      </trkpt>
      <trkpt lat="43.33096" lon="5.69104">
        <ele>658</ele>
        <time>2019-01-18T12:34:51.000Z</time>
      </trkpt>
      <trkpt lat="43.33097" lon="5.69105">
        <ele>658</ele>
        <time>2019-01-18T12:34:52.000Z</time>
      </trkpt>
      <trkpt lat="43.33098" lon="5.69106">
        <ele>657</ele>
        <time>2019-01-18T12:34:53.000Z</time>
      </trkpt>
      <trkpt lat="43.33098" lon="5.69106">
        <ele>657</ele>
        <time>2019-01-18T12:34:54.000Z</time>
      </trkpt>
      <trkpt lat="43.33099" lon="5.69107">
        <ele>657</ele>
        <time>2019-01-18T12:34:55.000Z</time>
      </trkpt>
      <trkpt lat="43.331" lon="5.69107">
        <ele>657</ele>
        <time>2019-01-18T12:34:56.000Z</time>
      </trkpt>
      <trkpt lat="43.331" lon="5.69108">
        <ele>656</ele>
        <time>2019-01-18T12:34:57.000Z</time>
      </trkpt>
      <trkpt lat="43.33101" lon="5.69108">
        <ele>656</ele>
        <time>2019-01-18T12:34:58.000Z</time>
      </trkpt>
      <trkpt lat="43.33101" lon="5.69109">
        <ele>656</ele>
        <time>2019-01-18T12:34:59.000Z</time>
      </trkpt>
      <trkpt lat="43.33102" lon="5.6911">
        <ele>656</ele>
        <time>2019-01-18T12:35:00.000Z</time>
      </trkpt>
      <trkpt lat="43.33102" lon="5.6911">
        <ele>656</ele>
        <time>2019-01-18T12:35:01.000Z</time>
      </trkpt>
      <trkpt lat="43.33103" lon="5.69111">
        <ele>655</ele>
        <time>2019-01-18T12:35:02.000Z</time>
      </trkpt>
      <trkpt lat="43.33104" lon="5.69111">
        <ele>655</ele>
        <time>2019-01-18T12:35:03.000Z</time>
      </trkpt>
      <trkpt lat="43.33105" lon="5.69112">
        <ele>655</ele>
        <time>2019-01-18T12:35:04.000Z</time>
      </trkpt>
      <trkpt lat="43.33106" lon="5.69112">
        <ele>655</ele>
        <time>2019-01-18T12:35:05.000Z</time>
      </trkpt>
      <trkpt lat="43.33106" lon="5.69112">
        <ele>655</ele>
        <time>2019-01-18T12:35:06.000Z</time>
      </trkpt>
      <trkpt lat="43.33107" lon="5.69112">
        <ele>654</ele>
        <time>2019-01-18T12:35:07.000Z</time>
      </trkpt>
      <trkpt lat="43.33108" lon="5.69113">
        <ele>654</ele>
        <time>2019-01-18T12:35:08.000Z</time>
      </trkpt>
      <trkpt lat="43.33109" lon="5.69113">
        <ele>654</ele>
        <time>2019-01-18T12:35:09.000Z</time>
      </trkpt>
      <trkpt lat="43.3311" lon="5.69114">
        <ele>654</ele>
        <time>2019-01-18T12:35:10.000Z</time>
      </trkpt>
      <trkpt lat="43.33111" lon="5.69114">
        <ele>653</ele>
        <time>2019-01-18T12:35:11.000Z</time>
      </trkpt>
      <trkpt lat="43.33112" lon="5.69115">
        <ele>653</ele>
        <time>2019-01-18T12:35:12.000Z</time>
      </trkpt>
      <trkpt lat="43.33113" lon="5.69116">
        <ele>653</ele>
        <time>2019-01-18T12:35:13.000Z</time>
      </trkpt>
      <trkpt lat="43.33114" lon="5.69116">
        <ele>653</ele>
        <time>2019-01-18T12:35:14.000Z</time>
      </trkpt>
      <trkpt lat="43.33115" lon="5.69118">
        <ele>653</ele>
        <time>2019-01-18T12:35:15.000Z</time>
      </trkpt>
      <trkpt lat="43.33115" lon="5.69118">
        <ele>652</ele>
        <time>2019-01-18T12:35:16.000Z</time>
      </trkpt>
      <trkpt lat="43.33116" lon="5.69119">
        <ele>652</ele>
        <time>2019-01-18T12:35:17.000Z</time>
      </trkpt>
      <trkpt lat="43.33117" lon="5.6912">
        <ele>652</ele>
        <time>2019-01-18T12:35:18.000Z</time>
      </trkpt>
      <trkpt lat="43.33118" lon="5.6912">
        <ele>652</ele>
        <time>2019-01-18T12:35:19.000Z</time>
      </trkpt>
      <trkpt lat="43.33119" lon="5.6912">
        <ele>652</ele>
        <time>2019-01-18T12:35:20.000Z</time>
      </trkpt>
      <trkpt lat="43.33119" lon="5.69121">
        <ele>652</ele>
        <time>2019-01-18T12:35:21.000Z</time>
      </trkpt>
      <trkpt lat="43.3312" lon="5.69121">
        <ele>651</ele>
        <time>2019-01-18T12:35:22.000Z</time>
      </trkpt>
      <trkpt lat="43.33121" lon="5.69122">
        <ele>651</ele>
        <time>2019-01-18T12:35:23.000Z</time>
      </trkpt>
      <trkpt lat="43.33122" lon="5.69122">
        <ele>651</ele>
        <time>2019-01-18T12:35:24.000Z</time>
      </trkpt>
      <trkpt lat="43.33122" lon="5.69123">
        <ele>651</ele>
        <time>2019-01-18T12:35:25.000Z</time>
      </trkpt>
      <trkpt lat="43.33123" lon="5.69123">
        <ele>650</ele>
        <time>2019-01-18T12:35:26.000Z</time>
      </trkpt>
      <trkpt lat="43.33124" lon="5.69123">
        <ele>650</ele>
        <time>2019-01-18T12:35:27.000Z</time>
      </trkpt>
      <trkpt lat="43.33124" lon="5.69123">
        <ele>650</ele>
        <time>2019-01-18T12:35:28.000Z</time>
      </trkpt>
      <trkpt lat="43.33125" lon="5.69122">
        <ele>650</ele>
        <time>2019-01-18T12:35:29.000Z</time>
      </trkpt>
      <trkpt lat="43.33126" lon="5.69123">
        <ele>650</ele>
        <time>2019-01-18T12:35:30.000Z</time>
      </trkpt>
      <trkpt lat="43.33127" lon="5.69123">
        <ele>650</ele>
        <time>2019-01-18T12:35:31.000Z</time>
      </trkpt>
      <trkpt lat="43.33127" lon="5.69123">
        <ele>650</ele>
        <time>2019-01-18T12:35:32.000Z</time>
      </trkpt>
      <trkpt lat="43.33128" lon="5.69123">
        <ele>650</ele>
        <time>2019-01-18T12:35:33.000Z</time>
      </trkpt>
      <trkpt lat="43.33129" lon="5.69123">
        <ele>649</ele>
        <time>2019-01-18T12:35:34.000Z</time>
      </trkpt>
      <trkpt lat="43.3313" lon="5.69123">
        <ele>649</ele>
        <time>2019-01-18T12:35:35.000Z</time>
      </trkpt>
      <trkpt lat="43.33131" lon="5.69123">
        <ele>649</ele>
        <time>2019-01-18T12:35:36.000Z</time>
      </trkpt>
      <trkpt lat="43.33132" lon="5.69124">
        <ele>649</ele>
        <time>2019-01-18T12:35:37.000Z</time>
      </trkpt>
      <trkpt lat="43.33133" lon="5.69124">
        <ele>649</ele>
        <time>2019-01-18T12:35:38.000Z</time>
      </trkpt>
      <trkpt lat="43.33133" lon="5.69124">
        <ele>649</ele>
        <time>2019-01-18T12:35:39.000Z</time>
      </trkpt>
      <trkpt lat="43.33134" lon="5.69124">
        <ele>648</ele>
        <time>2019-01-18T12:35:40.000Z</time>
      </trkpt>
      <trkpt lat="43.33135" lon="5.69124">
        <ele>648</ele>
        <time>2019-01-18T12:35:41.000Z</time>
      </trkpt>
      <trkpt lat="43.33137" lon="5.69123">
        <ele>648</ele>
        <time>2019-01-18T12:35:42.000Z</time>
      </trkpt>
      <trkpt lat="43.33138" lon="5.69122">
        <ele>648</ele>
        <time>2019-01-18T12:35:43.000Z</time>
      </trkpt>
      <trkpt lat="43.33139" lon="5.6912">
        <ele>648</ele>
        <time>2019-01-18T12:35:44.000Z</time>
      </trkpt>
      <trkpt lat="43.33139" lon="5.69119">
        <ele>648</ele>
        <time>2019-01-18T12:35:45.000Z</time>
      </trkpt>
      <trkpt lat="43.33139" lon="5.69117">
        <ele>647</ele>
        <time>2019-01-18T12:35:46.000Z</time>
      </trkpt>
      <trkpt lat="43.33139" lon="5.69116">
        <ele>647</ele>
        <time>2019-01-18T12:35:47.000Z</time>
      </trkpt>
      <trkpt lat="43.33139" lon="5.69114">
        <ele>647</ele>
        <time>2019-01-18T12:35:48.000Z</time>
      </trkpt>
      <trkpt lat="43.33139" lon="5.69113">
        <ele>647</ele>
        <time>2019-01-18T12:35:49.000Z</time>
      </trkpt>
      <trkpt lat="43.33139" lon="5.69111">
        <ele>647</ele>
        <time>2019-01-18T12:35:50.000Z</time>
      </trkpt>
      <trkpt lat="43.33139" lon="5.69109">
        <ele>647</ele>
        <time>2019-01-18T12:35:51.000Z</time>
      </trkpt>
      <trkpt lat="43.3314" lon="5.69107">
        <ele>647</ele>
        <time>2019-01-18T12:35:52.000Z</time>
      </trkpt>
      <trkpt lat="43.3314" lon="5.69105">
        <ele>647</ele>
        <time>2019-01-18T12:35:53.000Z</time>
      </trkpt>
      <trkpt lat="43.3314" lon="5.69103">
        <ele>647</ele>
        <time>2019-01-18T12:35:54.000Z</time>
      </trkpt>
      <trkpt lat="43.3314" lon="5.69101">
        <ele>647</ele>
        <time>2019-01-18T12:35:55.000Z</time>
      </trkpt>
      <trkpt lat="43.3314" lon="5.691">
        <ele>646</ele>
        <time>2019-01-18T12:35:56.000Z</time>
      </trkpt>
      <trkpt lat="43.3314" lon="5.69098">
        <ele>646</ele>
        <time>2019-01-18T12:35:57.000Z</time>
      </trkpt>
      <trkpt lat="43.3314" lon="5.69096">
        <ele>646</ele>
        <time>2019-01-18T12:35:58.000Z</time>
      </trkpt>
      <trkpt lat="43.3314" lon="5.69094">
        <ele>646</ele>
        <time>2019-01-18T12:35:59.000Z</time>
      </trkpt>
      <trkpt lat="43.3314" lon="5.69092">
        <ele>646</ele>
        <time>2019-01-18T12:36:00.000Z</time>
      </trkpt>
      <trkpt lat="43.3314" lon="5.6909">
        <ele>646</ele>
        <time>2019-01-18T12:36:01.000Z</time>
      </trkpt>
      <trkpt lat="43.3314" lon="5.69088">
        <ele>645</ele>
        <time>2019-01-18T12:36:02.000Z</time>
      </trkpt>
      <trkpt lat="43.3314" lon="5.69087">
        <ele>645</ele>
        <time>2019-01-18T12:36:03.000Z</time>
      </trkpt>
      <trkpt lat="43.3314" lon="5.69085">
        <ele>645</ele>
        <time>2019-01-18T12:36:04.000Z</time>
      </trkpt>
      <trkpt lat="43.3314" lon="5.69084">
        <ele>645</ele>
        <time>2019-01-18T12:36:05.000Z</time>
      </trkpt>
      <trkpt lat="43.33141" lon="5.69082">
        <ele>645</ele>
        <time>2019-01-18T12:36:06.000Z</time>
      </trkpt>
      <trkpt lat="43.33141" lon="5.69081">
        <ele>645</ele>
        <time>2019-01-18T12:36:07.000Z</time>
      </trkpt>
      <trkpt lat="43.33141" lon="5.6908">
        <ele>645</ele>
        <time>2019-01-18T12:36:08.000Z</time>
      </trkpt>
      <trkpt lat="43.33141" lon="5.69079">
        <ele>645</ele>
        <time>2019-01-18T12:36:09.000Z</time>
      </trkpt>
      <trkpt lat="43.33142" lon="5.69078">
        <ele>645</ele>
        <time>2019-01-18T12:36:10.000Z</time>
      </trkpt>
      <trkpt lat="43.33142" lon="5.69077">
        <ele>645</ele>
        <time>2019-01-18T12:36:11.000Z</time>
      </trkpt>
      <trkpt lat="43.33142" lon="5.69076">
        <ele>645</ele>
        <time>2019-01-18T12:36:12.000Z</time>
      </trkpt>
      <trkpt lat="43.33143" lon="5.69076">
        <ele>645</ele>
        <time>2019-01-18T12:36:13.000Z</time>
      </trkpt>
      <trkpt lat="43.33143" lon="5.69075">
        <ele>645</ele>
        <time>2019-01-18T12:36:14.000Z</time>
      </trkpt>
      <trkpt lat="43.33143" lon="5.69074">
        <ele>645</ele>
        <time>2019-01-18T12:36:15.000Z</time>
      </trkpt>
      <trkpt lat="43.33144" lon="5.69072">
        <ele>645</ele>
        <time>2019-01-18T12:36:16.000Z</time>
      </trkpt>
      <trkpt lat="43.33144" lon="5.69071">
        <ele>645</ele>
        <time>2019-01-18T12:36:17.000Z</time>
      </trkpt>
      <trkpt lat="43.33144" lon="5.69069">
        <ele>645</ele>
        <time>2019-01-18T12:36:18.000Z</time>
      </trkpt>
      <trkpt lat="43.33144" lon="5.69068">
        <ele>646</ele>
        <time>2019-01-18T12:36:19.000Z</time>
      </trkpt>
      <trkpt lat="43.33143" lon="5.69066">
        <ele>646</ele>
        <time>2019-01-18T12:36:20.000Z</time>
      </trkpt>
      <trkpt lat="43.33143" lon="5.69065">
        <ele>646</ele>
        <time>2019-01-18T12:36:21.000Z</time>
      </trkpt>
      <trkpt lat="43.33142" lon="5.69064">
        <ele>646</ele>
        <time>2019-01-18T12:36:22.000Z</time>
      </trkpt>
      <trkpt lat="43.33141" lon="5.69062">
        <ele>646</ele>
        <time>2019-01-18T12:36:23.000Z</time>
      </trkpt>
      <trkpt lat="43.33141" lon="5.6906">
        <ele>646</ele>
        <time>2019-01-18T12:36:24.000Z</time>
      </trkpt>
      <trkpt lat="43.3314" lon="5.69059">
        <ele>646</ele>
        <time>2019-01-18T12:36:25.000Z</time>
      </trkpt>
      <trkpt lat="43.33139" lon="5.69057">
        <ele>646</ele>
        <time>2019-01-18T12:36:26.000Z</time>
      </trkpt>
      <trkpt lat="43.33138" lon="5.69056">
        <ele>646</ele>
        <time>2019-01-18T12:36:27.000Z</time>
      </trkpt>
      <trkpt lat="43.33137" lon="5.69055">
        <ele>646</ele>
        <time>2019-01-18T12:36:28.000Z</time>
      </trkpt>
      <trkpt lat="43.33137" lon="5.69054">
        <ele>646</ele>
        <time>2019-01-18T12:36:29.000Z</time>
      </trkpt>
      <trkpt lat="43.33136" lon="5.69052">
        <ele>646</ele>
        <time>2019-01-18T12:36:30.000Z</time>
      </trkpt>
      <trkpt lat="43.33136" lon="5.69051">
        <ele>646</ele>
        <time>2019-01-18T12:36:31.000Z</time>
      </trkpt>
      <trkpt lat="43.33135" lon="5.69049">
        <ele>646</ele>
        <time>2019-01-18T12:36:32.000Z</time>
      </trkpt>
      <trkpt lat="43.33134" lon="5.69047">
        <ele>646</ele>
        <time>2019-01-18T12:36:33.000Z</time>
      </trkpt>
      <trkpt lat="43.33134" lon="5.69046">
        <ele>646</ele>
        <time>2019-01-18T12:36:34.000Z</time>
      </trkpt>
      <trkpt lat="43.33133" lon="5.69044">
        <ele>646</ele>
        <time>2019-01-18T12:36:35.000Z</time>
      </trkpt>
      <trkpt lat="43.33133" lon="5.69043">
        <ele>646</ele>
        <time>2019-01-18T12:36:36.000Z</time>
      </trkpt>
      <trkpt lat="43.33133" lon="5.69042">
        <ele>646</ele>
        <time>2019-01-18T12:36:37.000Z</time>
      </trkpt>
      <trkpt lat="43.33132" lon="5.6904">
        <ele>646</ele>
        <time>2019-01-18T12:36:38.000Z</time>
      </trkpt>
      <trkpt lat="43.33132" lon="5.69038">
        <ele>646</ele>
        <time>2019-01-18T12:36:39.000Z</time>
      </trkpt>
      <trkpt lat="43.33132" lon="5.69036">
        <ele>646</ele>
        <time>2019-01-18T12:36:40.000Z</time>
      </trkpt>
      <trkpt lat="43.33131" lon="5.69035">
        <ele>646</ele>
        <time>2019-01-18T12:36:41.000Z</time>
      </trkpt>
      <trkpt lat="43.33131" lon="5.69033">
        <ele>646</ele>
        <time>2019-01-18T12:36:42.000Z</time>
      </trkpt>
      <trkpt lat="43.33131" lon="5.69032">
        <ele>646</ele>
        <time>2019-01-18T12:36:43.000Z</time>
      </trkpt>
      <trkpt lat="43.33132" lon="5.69031">
        <ele>646</ele>
        <time>2019-01-18T12:36:44.000Z</time>
      </trkpt>
      <trkpt lat="43.33132" lon="5.69029">
        <ele>646</ele>
        <time>2019-01-18T12:36:45.000Z</time>
      </trkpt>
      <trkpt lat="43.33133" lon="5.69028">
        <ele>646</ele>
        <time>2019-01-18T12:36:46.000Z</time>
      </trkpt>
      <trkpt lat="43.33134" lon="5.69027">
        <ele>646</ele>
        <time>2019-01-18T12:36:47.000Z</time>
      </trkpt>
      <trkpt lat="43.33135" lon="5.69026">
        <ele>646</ele>
        <time>2019-01-18T12:36:48.000Z</time>
      </trkpt>
      <trkpt lat="43.33135" lon="5.69025">
        <ele>646</ele>
        <time>2019-01-18T12:36:49.000Z</time>
      </trkpt>
      <trkpt lat="43.33136" lon="5.69025">
        <ele>646</ele>
        <time>2019-01-18T12:36:50.000Z</time>
      </trkpt>
      <trkpt lat="43.33137" lon="5.69024">
        <ele>646</ele>
        <time>2019-01-18T12:36:51.000Z</time>
      </trkpt>
      <trkpt lat="43.33138" lon="5.69024">
        <ele>646</ele>
        <time>2019-01-18T12:36:52.000Z</time>
      </trkpt>
      <trkpt lat="43.33138" lon="5.69023">
        <ele>646</ele>
        <time>2019-01-18T12:36:53.000Z</time>
      </trkpt>
      <trkpt lat="43.33139" lon="5.69023">
        <ele>646</ele>
        <time>2019-01-18T12:36:54.000Z</time>
      </trkpt>
      <trkpt lat="43.33139" lon="5.69023">
        <ele>646</ele>
        <time>2019-01-18T12:36:55.000Z</time>
      </trkpt>
      <trkpt lat="43.33139" lon="5.69023">
        <ele>646</ele>
        <time>2019-01-18T12:36:56.000Z</time>
      </trkpt>
      <trkpt lat="43.3314" lon="5.69023">
        <ele>646</ele>
        <time>2019-01-18T12:36:57.000Z</time>
      </trkpt>
      <trkpt lat="43.3314" lon="5.69022">
        <ele>646</ele>
        <time>2019-01-18T12:36:58.000Z</time>
      </trkpt>
      <trkpt lat="43.3314" lon="5.69021">
        <ele>646</ele>
        <time>2019-01-18T12:36:59.000Z</time>
      </trkpt>
      <trkpt lat="43.3314" lon="5.69021">
        <ele>646</ele>
        <time>2019-01-18T12:37:00.000Z</time>
      </trkpt>
      <trkpt lat="43.3314" lon="5.6902">
        <ele>646</ele>
        <time>2019-01-18T12:37:01.000Z</time>
      </trkpt>
      <trkpt lat="43.33141" lon="5.6902">
        <ele>646</ele>
        <time>2019-01-18T12:37:02.000Z</time>
      </trkpt>
      <trkpt lat="43.33141" lon="5.69019">
        <ele>646</ele>
        <time>2019-01-18T12:37:03.000Z</time>
      </trkpt>
      <trkpt lat="43.33141" lon="5.69019">
        <ele>646</ele>
        <time>2019-01-18T12:37:04.000Z</time>
      </trkpt>
      <trkpt lat="43.33141" lon="5.69019">
        <ele>646</ele>
        <time>2019-01-18T12:37:05.000Z</time>
      </trkpt>
      <trkpt lat="43.33141" lon="5.69019">
        <ele>647</ele>
        <time>2019-01-18T12:37:06.000Z</time>
      </trkpt>
      <trkpt lat="43.33141" lon="5.69019">
        <ele>647</ele>
        <time>2019-01-18T12:37:07.000Z</time>
      </trkpt>
      <trkpt lat="43.33141" lon="5.69019">
        <ele>647</ele>
        <time>2019-01-18T12:37:08.000Z</time>
      </trkpt>
      <trkpt lat="43.33142" lon="5.69019">
        <ele>647</ele>
        <time>2019-01-18T12:37:09.000Z</time>
      </trkpt>
      <trkpt lat="43.33142" lon="5.69019">
        <ele>647</ele>
        <time>2019-01-18T12:37:10.000Z</time>
      </trkpt>
      <trkpt lat="43.33142" lon="5.69019">
        <ele>647</ele>
        <time>2019-01-18T12:37:11.000Z</time>
      </trkpt>
      <trkpt lat="43.33142" lon="5.69018">
        <ele>647</ele>
        <time>2019-01-18T12:37:12.000Z</time>
      </trkpt>
      <trkpt lat="43.33142" lon="5.69018">
        <ele>647</ele>
        <time>2019-01-18T12:37:13.000Z</time>
      </trkpt>
      <trkpt lat="43.33142" lon="5.69018">
        <ele>647</ele>
        <time>2019-01-18T12:37:14.000Z</time>
      </trkpt>
      <trkpt lat="43.33142" lon="5.69018">
        <ele>647</ele>
        <time>2019-01-18T12:37:15.000Z</time>
      </trkpt>
      <trkpt lat="43.33142" lon="5.69018">
        <ele>647</ele>
        <time>2019-01-18T12:37:16.000Z</time>
      </trkpt>
      <trkpt lat="43.33142" lon="5.69018">
        <ele>647</ele>
        <time>2019-01-18T12:37:17.000Z</time>
      </trkpt>
      <trkpt lat="43.33142" lon="5.69019">
        <ele>647</ele>
        <time>2019-01-18T12:37:18.000Z</time>
      </trkpt>
      <trkpt lat="43.33142" lon="5.69019">
        <ele>647</ele>
        <time>2019-01-18T12:37:19.000Z</time>
      </trkpt>
      <trkpt lat="43.33142" lon="5.69019">
        <ele>647</ele>
        <time>2019-01-18T12:37:20.000Z</time>
      </trkpt>
      <trkpt lat="43.33142" lon="5.69019">
        <ele>647</ele>
        <time>2019-01-18T12:37:21.000Z</time>
      </trkpt>
      <trkpt lat="43.33142" lon="5.69019">
        <ele>647</ele>
        <time>2019-01-18T12:37:22.000Z</time>
      </trkpt>
      <trkpt lat="43.33142" lon="5.69019">
        <ele>648</ele>
        <time>2019-01-18T12:37:23.000Z</time>
      </trkpt>
      <trkpt lat="43.33142" lon="5.69019">
        <ele>648</ele>
        <time>2019-01-18T12:37:24.000Z</time>
      </trkpt>
      <trkpt lat="43.33142" lon="5.69019">
        <ele>648</ele>
        <time>2019-01-18T12:37:25.000Z</time>
      </trkpt>
      <trkpt lat="43.33142" lon="5.69019">
        <ele>648</ele>
        <time>2019-01-18T12:37:26.000Z</time>
      </trkpt>
      <trkpt lat="43.33143" lon="5.69019">
        <ele>648</ele>
        <time>2019-01-18T12:37:27.000Z</time>
      </trkpt>
      <trkpt lat="43.33143" lon="5.69019">
        <ele>648</ele>
        <time>2019-01-18T12:37:28.000Z</time>
      </trkpt>
      <trkpt lat="43.33143" lon="5.69019">
        <ele>648</ele>
        <time>2019-01-18T12:37:29.000Z</time>
      </trkpt>
      <trkpt lat="43.33144" lon="5.6902">
        <ele>648</ele>
        <time>2019-01-18T12:37:30.000Z</time>
      </trkpt>
      <trkpt lat="43.33144" lon="5.6902">
        <ele>649</ele>
        <time>2019-01-18T12:37:31.000Z</time>
      </trkpt>
      <trkpt lat="43.33144" lon="5.69021">
        <ele>649</ele>
        <time>2019-01-18T12:37:32.000Z</time>
      </trkpt>
      <trkpt lat="43.33145" lon="5.69022">
        <ele>649</ele>
        <time>2019-01-18T12:37:33.000Z</time>
      </trkpt>
      <trkpt lat="43.33145" lon="5.69022">
        <ele>649</ele>
        <time>2019-01-18T12:37:34.000Z</time>
      </trkpt>
      <trkpt lat="43.33145" lon="5.69023">
        <ele>649</ele>
        <time>2019-01-18T12:37:35.000Z</time>
      </trkpt>
      <trkpt lat="43.33146" lon="5.69023">
        <ele>649</ele>
        <time>2019-01-18T12:37:36.000Z</time>
      </trkpt>
      <trkpt lat="43.33146" lon="5.69023">
        <ele>649</ele>
        <time>2019-01-18T12:37:37.000Z</time>
      </trkpt>
      <trkpt lat="43.33147" lon="5.69022">
        <ele>649</ele>
        <time>2019-01-18T12:37:38.000Z</time>
      </trkpt>
      <trkpt lat="43.33147" lon="5.69022">
        <ele>649</ele>
        <time>2019-01-18T12:37:39.000Z</time>
      </trkpt>
      <trkpt lat="43.33147" lon="5.69021">
        <ele>650</ele>
        <time>2019-01-18T12:37:40.000Z</time>
      </trkpt>
      <trkpt lat="43.33147" lon="5.69021">
        <ele>650</ele>
        <time>2019-01-18T12:37:41.000Z</time>
      </trkpt>
      <trkpt lat="43.33147" lon="5.6902">
        <ele>650</ele>
        <time>2019-01-18T12:37:42.000Z</time>
      </trkpt>
      <trkpt lat="43.33147" lon="5.6902">
        <ele>650</ele>
        <time>2019-01-18T12:37:43.000Z</time>
      </trkpt>
      <trkpt lat="43.33147" lon="5.6902">
        <ele>649</ele>
        <time>2019-01-18T12:37:44.000Z</time>
      </trkpt>
      <trkpt lat="43.33147" lon="5.69021">
        <ele>649</ele>
        <time>2019-01-18T12:37:45.000Z</time>
      </trkpt>
      <trkpt lat="43.33147" lon="5.69021">
        <ele>649</ele>
        <time>2019-01-18T12:37:46.000Z</time>
      </trkpt>
      <trkpt lat="43.33148" lon="5.6902">
        <ele>649</ele>
        <time>2019-01-18T12:37:47.000Z</time>
      </trkpt>
      <trkpt lat="43.33148" lon="5.6902">
        <ele>649</ele>
        <time>2019-01-18T12:37:48.000Z</time>
      </trkpt>
      <trkpt lat="43.33148" lon="5.6902">
        <ele>649</ele>
        <time>2019-01-18T12:37:49.000Z</time>
      </trkpt>
      <trkpt lat="43.33148" lon="5.6902">
        <ele>649</ele>
        <time>2019-01-18T12:37:50.000Z</time>
      </trkpt>
      <trkpt lat="43.33148" lon="5.69019">
        <ele>649</ele>
        <time>2019-01-18T12:37:51.000Z</time>
      </trkpt>
      <trkpt lat="43.33148" lon="5.69019">
        <ele>649</ele>
        <time>2019-01-18T12:37:52.000Z</time>
      </trkpt>
      <trkpt lat="43.33148" lon="5.69019">
        <ele>648</ele>
        <time>2019-01-18T12:37:53.000Z</time>
      </trkpt>
      <trkpt lat="43.33148" lon="5.69019">
        <ele>648</ele>
        <time>2019-01-18T12:37:54.000Z</time>
      </trkpt>
      <trkpt lat="43.33148" lon="5.69019">
        <ele>648</ele>
        <time>2019-01-18T12:37:55.000Z</time>
      </trkpt>
      <trkpt lat="43.33148" lon="5.69019">
        <ele>648</ele>
        <time>2019-01-18T12:37:56.000Z</time>
      </trkpt>
      <trkpt lat="43.33148" lon="5.69019">
        <ele>648</ele>
        <time>2019-01-18T12:37:57.000Z</time>
      </trkpt>
      <trkpt lat="43.33148" lon="5.69019">
        <ele>648</ele>
        <time>2019-01-18T12:37:58.000Z</time>
      </trkpt>
      <trkpt lat="43.33148" lon="5.69018">
        <ele>648</ele>
        <time>2019-01-18T12:37:59.000Z</time>
      </trkpt>
      <trkpt lat="43.33148" lon="5.69018">
        <ele>648</ele>
        <time>2019-01-18T12:38:00.000Z</time>
      </trkpt>
      <trkpt lat="43.33149" lon="5.69018">
        <ele>647</ele>
        <time>2019-01-18T12:38:01.000Z</time>
      </trkpt>
      <trkpt lat="43.33149" lon="5.69018">
        <ele>647</ele>
        <time>2019-01-18T12:38:02.000Z</time>
      </trkpt>
      <trkpt lat="43.33149" lon="5.69018">
        <ele>647</ele>
        <time>2019-01-18T12:38:03.000Z</time>
      </trkpt>
      <trkpt lat="43.33149" lon="5.69018">
        <ele>647</ele>
        <time>2019-01-18T12:38:04.000Z</time>
      </trkpt>
      <trkpt lat="43.33149" lon="5.69018">
        <ele>647</ele>
        <time>2019-01-18T12:38:05.000Z</time>
      </trkpt>
      <trkpt lat="43.33149" lon="5.69018">
        <ele>647</ele>
        <time>2019-01-18T12:38:06.000Z</time>
      </trkpt>
      <trkpt lat="43.33149" lon="5.69018">
        <ele>647</ele>
        <time>2019-01-18T12:38:07.000Z</time>
      </trkpt>
      <trkpt lat="43.33149" lon="5.69018">
        <ele>647</ele>
        <time>2019-01-18T12:38:08.000Z</time>
      </trkpt>
      <trkpt lat="43.33149" lon="5.69018">
        <ele>647</ele>
        <time>2019-01-18T12:38:09.000Z</time>
      </trkpt>
      <trkpt lat="43.33149" lon="5.69018">
        <ele>647</ele>
        <time>2019-01-18T12:38:10.000Z</time>
      </trkpt>
      <trkpt lat="43.33149" lon="5.69018">
        <ele>647</ele>
        <time>2019-01-18T12:38:11.000Z</time>
      </trkpt>
      <trkpt lat="43.33148" lon="5.69018">
        <ele>647</ele>
        <time>2019-01-18T12:38:12.000Z</time>
      </trkpt>
      <trkpt lat="43.33148" lon="5.69018">
        <ele>647</ele>
        <time>2019-01-18T12:38:13.000Z</time>
      </trkpt>
      <trkpt lat="43.33148" lon="5.69018">
        <ele>647</ele>
        <time>2019-01-18T12:38:14.000Z</time>
      </trkpt>
      <trkpt lat="43.33148" lon="5.69018">
        <ele>647</ele>
        <time>2019-01-18T12:38:15.000Z</time>
      </trkpt>
      <trkpt lat="43.33148" lon="5.69018">
        <ele>647</ele>
        <time>2019-01-18T12:38:16.000Z</time>
      </trkpt>
      <trkpt lat="43.33148" lon="5.69018">
        <ele>647</ele>
        <time>2019-01-18T12:38:17.000Z</time>
      </trkpt>
      <trkpt lat="43.33148" lon="5.69018">
        <ele>647</ele>
        <time>2019-01-18T12:38:18.000Z</time>
      </trkpt>
      <trkpt lat="43.33148" lon="5.69018">
        <ele>647</ele>
        <time>2019-01-18T12:38:19.000Z</time>
      </trkpt>
      <trkpt lat="43.33148" lon="5.69018">
        <ele>647</ele>
        <time>2019-01-18T12:38:20.000Z</time>
      </trkpt>
      <trkpt lat="43.33148" lon="5.69018">
        <ele>646</ele>
        <time>2019-01-18T12:38:21.000Z</time>
      </trkpt>
      <trkpt lat="43.33148" lon="5.69018">
        <ele>646</ele>
        <time>2019-01-18T12:38:22.000Z</time>
      </trkpt>
      <trkpt lat="43.33148" lon="5.69018">
        <ele>646</ele>
        <time>2019-01-18T12:38:23.000Z</time>
      </trkpt>
      <trkpt lat="43.33148" lon="5.69018">
        <ele>646</ele>
        <time>2019-01-18T12:38:24.000Z</time>
      </trkpt>
      <trkpt lat="43.33148" lon="5.69018">
        <ele>646</ele>
        <time>2019-01-18T12:38:25.000Z</time>
      </trkpt>
      <trkpt lat="43.33148" lon="5.69018">
        <ele>646</ele>
        <time>2019-01-18T12:38:26.000Z</time>
      </trkpt>
      <trkpt lat="43.33148" lon="5.69018">
        <ele>646</ele>
        <time>2019-01-18T12:38:27.000Z</time>
      </trkpt>
      <trkpt lat="43.33148" lon="5.69019">
        <ele>646</ele>
        <time>2019-01-18T12:38:28.000Z</time>
      </trkpt>
      <trkpt lat="43.33148" lon="5.69019">
        <ele>646</ele>
        <time>2019-01-18T12:38:29.000Z</time>
      </trkpt>
      <trkpt lat="43.33148" lon="5.69019">
        <ele>646</ele>
        <time>2019-01-18T12:38:30.000Z</time>
      </trkpt>
      <trkpt lat="43.33148" lon="5.69019">
        <ele>646</ele>
        <time>2019-01-18T12:38:31.000Z</time>
      </trkpt>
      <trkpt lat="43.33148" lon="5.69019">
        <ele>646</ele>
        <time>2019-01-18T12:38:32.000Z</time>
      </trkpt>
      <trkpt lat="43.33148" lon="5.69018">
        <ele>646</ele>
        <time>2019-01-18T12:38:33.000Z</time>
      </trkpt>
      <trkpt lat="43.33148" lon="5.69018">
        <ele>646</ele>
        <time>2019-01-18T12:38:34.000Z</time>
      </trkpt>
      <trkpt lat="43.33148" lon="5.69018">
        <ele>646</ele>
        <time>2019-01-18T12:38:35.000Z</time>
      </trkpt>
      <trkpt lat="43.33148" lon="5.69018">
        <ele>646</ele>
        <time>2019-01-18T12:38:36.000Z</time>
      </trkpt>
      <trkpt lat="43.33148" lon="5.69018">
        <ele>646</ele>
        <time>2019-01-18T12:38:37.000Z</time>
      </trkpt>
      <trkpt lat="43.33148" lon="5.69018">
        <ele>646</ele>
        <time>2019-01-18T12:38:38.000Z</time>
      </trkpt>
      <trkpt lat="43.33148" lon="5.69018">
        <ele>646</ele>
        <time>2019-01-18T12:38:39.000Z</time>
      </trkpt>
      <trkpt lat="43.33148" lon="5.69017">
        <ele>646</ele>
        <time>2019-01-18T12:38:40.000Z</time>
      </trkpt>
      <trkpt lat="43.33148" lon="5.69017">
        <ele>646</ele>
        <time>2019-01-18T12:38:41.000Z</time>
      </trkpt>
      <trkpt lat="43.33148" lon="5.69017">
        <ele>646</ele>
        <time>2019-01-18T12:38:42.000Z</time>
      </trkpt>
      <trkpt lat="43.33148" lon="5.69017">
        <ele>646</ele>
        <time>2019-01-18T12:38:43.000Z</time>
      </trkpt>
      <trkpt lat="43.33148" lon="5.69017">
        <ele>646</ele>
        <time>2019-01-18T12:38:44.000Z</time>
      </trkpt>
      <trkpt lat="43.33148" lon="5.69017">
        <ele>646</ele>
        <time>2019-01-18T12:38:45.000Z</time>
      </trkpt>
      <trkpt lat="43.33148" lon="5.69017">
        <ele>647</ele>
        <time>2019-01-18T12:38:46.000Z</time>
      </trkpt>
      <trkpt lat="43.33148" lon="5.69018">
        <ele>647</ele>
        <time>2019-01-18T12:38:47.000Z</time>
      </trkpt>
      <trkpt lat="43.33148" lon="5.69018">
        <ele>647</ele>
        <time>2019-01-18T12:38:48.000Z</time>
      </trkpt>
      <trkpt lat="43.33148" lon="5.69018">
        <ele>647</ele>
        <time>2019-01-18T12:38:49.000Z</time>
      </trkpt>
      <trkpt lat="43.33148" lon="5.69018">
        <ele>647</ele>
        <time>2019-01-18T12:38:50.000Z</time>
      </trkpt>
      <trkpt lat="43.33148" lon="5.69018">
        <ele>647</ele>
        <time>2019-01-18T12:38:51.000Z</time>
      </trkpt>
      <trkpt lat="43.33148" lon="5.69018">
        <ele>647</ele>
        <time>2019-01-18T12:38:52.000Z</time>
      </trkpt>
      <trkpt lat="43.33148" lon="5.69018">
        <ele>647</ele>
        <time>2019-01-18T12:38:53.000Z</time>
      </trkpt>
      <trkpt lat="43.33148" lon="5.69017">
        <ele>647</ele>
        <time>2019-01-18T12:38:54.000Z</time>
      </trkpt>
      <trkpt lat="43.33148" lon="5.69017">
        <ele>647</ele>
        <time>2019-01-18T12:38:55.000Z</time>
      </trkpt>
      <trkpt lat="43.33148" lon="5.69017">
        <ele>647</ele>
        <time>2019-01-18T12:38:56.000Z</time>
      </trkpt>
      <trkpt lat="43.33148" lon="5.69017">
        <ele>647</ele>
        <time>2019-01-18T12:38:57.000Z</time>
      </trkpt>
      <trkpt lat="43.33149" lon="5.69018">
        <ele>647</ele>
        <time>2019-01-18T12:38:58.000Z</time>
      </trkpt>
      <trkpt lat="43.33149" lon="5.69018">
        <ele>648</ele>
        <time>2019-01-18T12:38:59.000Z</time>
      </trkpt>
      <trkpt lat="43.33149" lon="5.69018">
        <ele>648</ele>
        <time>2019-01-18T12:39:00.000Z</time>
      </trkpt>
      <trkpt lat="43.33149" lon="5.69018">
        <ele>648</ele>
        <time>2019-01-18T12:39:01.000Z</time>
      </trkpt>
      <trkpt lat="43.33149" lon="5.69018">
        <ele>648</ele>
        <time>2019-01-18T12:39:02.000Z</time>
      </trkpt>
      <trkpt lat="43.33149" lon="5.69018">
        <ele>648</ele>
        <time>2019-01-18T12:39:03.000Z</time>
      </trkpt>
      <trkpt lat="43.33148" lon="5.69018">
        <ele>648</ele>
        <time>2019-01-18T12:39:04.000Z</time>
      </trkpt>
      <trkpt lat="43.33149" lon="5.69018">
        <ele>648</ele>
        <time>2019-01-18T12:39:05.000Z</time>
      </trkpt>
      <trkpt lat="43.33148" lon="5.69018">
        <ele>648</ele>
        <time>2019-01-18T12:39:06.000Z</time>
      </trkpt>
      <trkpt lat="43.33148" lon="5.69017">
        <ele>648</ele>
        <time>2019-01-18T12:39:07.000Z</time>
      </trkpt>
      <trkpt lat="43.33149" lon="5.69017">
        <ele>648</ele>
        <time>2019-01-18T12:39:08.000Z</time>
      </trkpt>
      <trkpt lat="43.33149" lon="5.69017">
        <ele>648</ele>
        <time>2019-01-18T12:39:09.000Z</time>
      </trkpt>
      <trkpt lat="43.33149" lon="5.69017">
        <ele>648</ele>
        <time>2019-01-18T12:39:10.000Z</time>
      </trkpt>
      <trkpt lat="43.33149" lon="5.69017">
        <ele>648</ele>
        <time>2019-01-18T12:39:11.000Z</time>
      </trkpt>
      <trkpt lat="43.33149" lon="5.69017">
        <ele>648</ele>
        <time>2019-01-18T12:39:12.000Z</time>
      </trkpt>
      <trkpt lat="43.33149" lon="5.69017">
        <ele>648</ele>
        <time>2019-01-18T12:39:13.000Z</time>
      </trkpt>
      <trkpt lat="43.33149" lon="5.69017">
        <ele>648</ele>
        <time>2019-01-18T12:39:14.000Z</time>
      </trkpt>
      <trkpt lat="43.33149" lon="5.69017">
        <ele>648</ele>
        <time>2019-01-18T12:39:15.000Z</time>
      </trkpt>
      <trkpt lat="43.33149" lon="5.69017">
        <ele>648</ele>
        <time>2019-01-18T12:39:16.000Z</time>
      </trkpt>
      <trkpt lat="43.33149" lon="5.69017">
        <ele>648</ele>
        <time>2019-01-18T12:39:17.000Z</time>
      </trkpt>
      <trkpt lat="43.33149" lon="5.69017">
        <ele>648</ele>
        <time>2019-01-18T12:39:18.000Z</time>
      </trkpt>
      <trkpt lat="43.33149" lon="5.69017">
        <ele>648</ele>
        <time>2019-01-18T12:39:19.000Z</time>
      </trkpt>
      <trkpt lat="43.33149" lon="5.69017">
        <ele>648</ele>
        <time>2019-01-18T12:39:20.000Z</time>
      </trkpt>
      <trkpt lat="43.33149" lon="5.69017">
        <ele>648</ele>
        <time>2019-01-18T12:39:21.000Z</time>
      </trkpt>
      <trkpt lat="43.33149" lon="5.69017">
        <ele>649</ele>
        <time>2019-01-18T12:39:22.000Z</time>
      </trkpt>
      <trkpt lat="43.33149" lon="5.69017">
        <ele>649</ele>
        <time>2019-01-18T12:39:23.000Z</time>
      </trkpt>
      <trkpt lat="43.33149" lon="5.69017">
        <ele>649</ele>
        <time>2019-01-18T12:39:24.000Z</time>
      </trkpt>
      <trkpt lat="43.3315" lon="5.69017">
        <ele>649</ele>
        <time>2019-01-18T12:39:25.000Z</time>
      </trkpt>
      <trkpt lat="43.3315" lon="5.69017">
        <ele>649</ele>
        <time>2019-01-18T12:39:26.000Z</time>
      </trkpt>
      <trkpt lat="43.3315" lon="5.69017">
        <ele>649</ele>
        <time>2019-01-18T12:39:27.000Z</time>
      </trkpt>
      <trkpt lat="43.3315" lon="5.69017">
        <ele>649</ele>
        <time>2019-01-18T12:39:28.000Z</time>
      </trkpt>
      <trkpt lat="43.3315" lon="5.69017">
        <ele>649</ele>
        <time>2019-01-18T12:39:29.000Z</time>
      </trkpt>
      <trkpt lat="43.3315" lon="5.69017">
        <ele>649</ele>
        <time>2019-01-18T12:39:30.000Z</time>
      </trkpt>
      <trkpt lat="43.3315" lon="5.69017">
        <ele>650</ele>
        <time>2019-01-18T12:39:31.000Z</time>
      </trkpt>
      <trkpt lat="43.3315" lon="5.69017">
        <ele>650</ele>
        <time>2019-01-18T12:39:32.000Z</time>
      </trkpt>
      <trkpt lat="43.3315" lon="5.69018">
        <ele>650</ele>
        <time>2019-01-18T12:39:33.000Z</time>
      </trkpt>
      <trkpt lat="43.3315" lon="5.69018">
        <ele>650</ele>
        <time>2019-01-18T12:39:34.000Z</time>
      </trkpt>
      <trkpt lat="43.3315" lon="5.69018">
        <ele>650</ele>
        <time>2019-01-18T12:39:35.000Z</time>
      </trkpt>
      <trkpt lat="43.3315" lon="5.69018">
        <ele>650</ele>
        <time>2019-01-18T12:39:36.000Z</time>
      </trkpt>
      <trkpt lat="43.3315" lon="5.69018">
        <ele>650</ele>
        <time>2019-01-18T12:39:37.000Z</time>
      </trkpt>
      <trkpt lat="43.3315" lon="5.69018">
        <ele>650</ele>
        <time>2019-01-18T12:39:38.000Z</time>
      </trkpt>
      <trkpt lat="43.3315" lon="5.69017">
        <ele>651</ele>
        <time>2019-01-18T12:39:39.000Z</time>
      </trkpt>
      <trkpt lat="43.3315" lon="5.69017">
        <ele>651</ele>
        <time>2019-01-18T12:39:40.000Z</time>
      </trkpt>
      <trkpt lat="43.3315" lon="5.69017">
        <ele>651</ele>
        <time>2019-01-18T12:39:41.000Z</time>
      </trkpt>
      <trkpt lat="43.3315" lon="5.69017">
        <ele>651</ele>
        <time>2019-01-18T12:39:42.000Z</time>
      </trkpt>
      <trkpt lat="43.3315" lon="5.69017">
        <ele>651</ele>
        <time>2019-01-18T12:39:43.000Z</time>
      </trkpt>
      <trkpt lat="43.3315" lon="5.69017">
        <ele>651</ele>
        <time>2019-01-18T12:39:44.000Z</time>
      </trkpt>
      <trkpt lat="43.3315" lon="5.69017">
        <ele>651</ele>
        <time>2019-01-18T12:39:45.000Z</time>
      </trkpt>
      <trkpt lat="43.3315" lon="5.69017">
        <ele>651</ele>
        <time>2019-01-18T12:39:46.000Z</time>
      </trkpt>
      <trkpt lat="43.3315" lon="5.69017">
        <ele>651</ele>
        <time>2019-01-18T12:39:47.000Z</time>
      </trkpt>
      <trkpt lat="43.3315" lon="5.69017">
        <ele>651</ele>
        <time>2019-01-18T12:39:48.000Z</time>
      </trkpt>
      <trkpt lat="43.3315" lon="5.69017">
        <ele>651</ele>
        <time>2019-01-18T12:39:49.000Z</time>
      </trkpt>
      <trkpt lat="43.3315" lon="5.69017">
        <ele>651</ele>
        <time>2019-01-18T12:39:50.000Z</time>
      </trkpt>
      <trkpt lat="43.3315" lon="5.69017">
        <ele>651</ele>
        <time>2019-01-18T12:39:51.000Z</time>
      </trkpt>
      <trkpt lat="43.33151" lon="5.69017">
        <ele>651</ele>
        <time>2019-01-18T12:39:52.000Z</time>
      </trkpt>
      <trkpt lat="43.33151" lon="5.69017">
        <ele>651</ele>
        <time>2019-01-18T12:39:53.000Z</time>
      </trkpt>
      <trkpt lat="43.33151" lon="5.69017">
        <ele>651</ele>
        <time>2019-01-18T12:39:54.000Z</time>
      </trkpt>
      <trkpt lat="43.33151" lon="5.69017">
        <ele>651</ele>
        <time>2019-01-18T12:39:55.000Z</time>
      </trkpt>
      <trkpt lat="43.33151" lon="5.69017">
        <ele>651</ele>
        <time>2019-01-18T12:39:56.000Z</time>
      </trkpt>
      <trkpt lat="43.3315" lon="5.69018">
        <ele>651</ele>
        <time>2019-01-18T12:39:57.000Z</time>
      </trkpt>
      <trkpt lat="43.3315" lon="5.69017">
        <ele>651</ele>
        <time>2019-01-18T12:39:58.000Z</time>
      </trkpt>
      <trkpt lat="43.3315" lon="5.69017">
        <ele>651</ele>
        <time>2019-01-18T12:39:59.000Z</time>
      </trkpt>
      <trkpt lat="43.3315" lon="5.69017">
        <ele>652</ele>
        <time>2019-01-18T12:40:00.000Z</time>
      </trkpt>
      <trkpt lat="43.33151" lon="5.69017">
        <ele>652</ele>
        <time>2019-01-18T12:40:01.000Z</time>
      </trkpt>
      <trkpt lat="43.3315" lon="5.69017">
        <ele>652</ele>
        <time>2019-01-18T12:40:02.000Z</time>
      </trkpt>
      <trkpt lat="43.3315" lon="5.69017">
        <ele>652</ele>
        <time>2019-01-18T12:40:03.000Z</time>
      </trkpt>
      <trkpt lat="43.3315" lon="5.69017">
        <ele>652</ele>
        <time>2019-01-18T12:40:04.000Z</time>
      </trkpt>
      <trkpt lat="43.3315" lon="5.69017">
        <ele>652</ele>
        <time>2019-01-18T12:40:05.000Z</time>
      </trkpt>
      <trkpt lat="43.3315" lon="5.69017">
        <ele>652</ele>
        <time>2019-01-18T12:40:06.000Z</time>
      </trkpt>
      <trkpt lat="43.3315" lon="5.69016">
        <ele>652</ele>
        <time>2019-01-18T12:40:07.000Z</time>
      </trkpt>
      <trkpt lat="43.3315" lon="5.69016">
        <ele>652</ele>
        <time>2019-01-18T12:40:08.000Z</time>
      </trkpt>
      <trkpt lat="43.3315" lon="5.69016">
        <ele>652</ele>
        <time>2019-01-18T12:40:09.000Z</time>
      </trkpt>
      <trkpt lat="43.3315" lon="5.69016">
        <ele>652</ele>
        <time>2019-01-18T12:40:10.000Z</time>
      </trkpt>
      <trkpt lat="43.3315" lon="5.69016">
        <ele>652</ele>
        <time>2019-01-18T12:40:11.000Z</time>
      </trkpt>
      <trkpt lat="43.33152" lon="5.69018">
        <ele>650</ele>
        <time>2019-01-18T12:40:12.000Z</time>
      </trkpt>
      <trkpt lat="43.33152" lon="5.69017">
        <ele>650</ele>
        <time>2019-01-18T12:40:13.000Z</time>
      </trkpt>
      <trkpt lat="43.33152" lon="5.69017">
        <ele>650</ele>
        <time>2019-01-18T12:40:14.000Z</time>
      </trkpt>
      <trkpt lat="43.33151" lon="5.69017">
        <ele>651</ele>
        <time>2019-01-18T12:40:15.000Z</time>
      </trkpt>
      <trkpt lat="43.33151" lon="5.69018">
        <ele>651</ele>
        <time>2019-01-18T12:40:16.000Z</time>
      </trkpt>
      <trkpt lat="43.33151" lon="5.69018">
        <ele>651</ele>
        <time>2019-01-18T12:40:17.000Z</time>
      </trkpt>
      <trkpt lat="43.33151" lon="5.69017">
        <ele>651</ele>
        <time>2019-01-18T12:40:18.000Z</time>
      </trkpt>
      <trkpt lat="43.33151" lon="5.69017">
        <ele>651</ele>
        <time>2019-01-18T12:40:19.000Z</time>
      </trkpt>
      <trkpt lat="43.33151" lon="5.69017">
        <ele>651</ele>
        <time>2019-01-18T12:40:20.000Z</time>
      </trkpt>
      <trkpt lat="43.33151" lon="5.69017">
        <ele>651</ele>
        <time>2019-01-18T12:40:21.000Z</time>
      </trkpt>
      <trkpt lat="43.33151" lon="5.69017">
        <ele>651</ele>
        <time>2019-01-18T12:40:22.000Z</time>
      </trkpt>
      <trkpt lat="43.33151" lon="5.69017">
        <ele>651</ele>
        <time>2019-01-18T12:40:23.000Z</time>
      </trkpt>
      <trkpt lat="43.33151" lon="5.69017">
        <ele>651</ele>
        <time>2019-01-18T12:40:24.000Z</time>
      </trkpt>
      <trkpt lat="43.33151" lon="5.69017">
        <ele>651</ele>
        <time>2019-01-18T12:40:25.000Z</time>
      </trkpt>
      <trkpt lat="43.33151" lon="5.69017">
        <ele>651</ele>
        <time>2019-01-18T12:40:26.000Z</time>
      </trkpt>
      <trkpt lat="43.33151" lon="5.69017">
        <ele>651</ele>
        <time>2019-01-18T12:40:27.000Z</time>
      </trkpt>
      <trkpt lat="43.33151" lon="5.69017">
        <ele>651</ele>
        <time>2019-01-18T12:40:28.000Z</time>
      </trkpt>
      <trkpt lat="43.33151" lon="5.69017">
        <ele>651</ele>
        <time>2019-01-18T12:40:29.000Z</time>
      </trkpt>
      <trkpt lat="43.33151" lon="5.69017">
        <ele>651</ele>
        <time>2019-01-18T12:40:30.000Z</time>
      </trkpt>
      <trkpt lat="43.3315" lon="5.69017">
        <ele>651</ele>
        <time>2019-01-18T12:40:31.000Z</time>
      </trkpt>
      <trkpt lat="43.3315" lon="5.69017">
        <ele>651</ele>
        <time>2019-01-18T12:40:32.000Z</time>
      </trkpt>
      <trkpt lat="43.3315" lon="5.69017">
        <ele>651</ele>
        <time>2019-01-18T12:40:33.000Z</time>
      </trkpt>
      <trkpt lat="43.3315" lon="5.69017">
        <ele>651</ele>
        <time>2019-01-18T12:40:34.000Z</time>
      </trkpt>
      <trkpt lat="43.3315" lon="5.69016">
        <ele>651</ele>
        <time>2019-01-18T12:40:35.000Z</time>
      </trkpt>
      <trkpt lat="43.3315" lon="5.69016">
        <ele>652</ele>
        <time>2019-01-18T12:40:36.000Z</time>
      </trkpt>
      <trkpt lat="43.3315" lon="5.69016">
        <ele>652</ele>
        <time>2019-01-18T12:40:37.000Z</time>
      </trkpt>
      <trkpt lat="43.3315" lon="5.69016">
        <ele>652</ele>
        <time>2019-01-18T12:40:38.000Z</time>
      </trkpt>
      <trkpt lat="43.3315" lon="5.69016">
        <ele>652</ele>
        <time>2019-01-18T12:40:39.000Z</time>
      </trkpt>
      <trkpt lat="43.3315" lon="5.69017">
        <ele>652</ele>
        <time>2019-01-18T12:40:40.000Z</time>
      </trkpt>
      <trkpt lat="43.3315" lon="5.69017">
        <ele>652</ele>
        <time>2019-01-18T12:40:41.000Z</time>
      </trkpt>
      <trkpt lat="43.3315" lon="5.69017">
        <ele>652</ele>
        <time>2019-01-18T12:40:42.000Z</time>
      </trkpt>
      <trkpt lat="43.3315" lon="5.69017">
        <ele>652</ele>
        <time>2019-01-18T12:40:43.000Z</time>
      </trkpt>
      <trkpt lat="43.3315" lon="5.69017">
        <ele>652</ele>
        <time>2019-01-18T12:40:44.000Z</time>
      </trkpt>
      <trkpt lat="43.3315" lon="5.69017">
        <ele>652</ele>
        <time>2019-01-18T12:40:45.000Z</time>
      </trkpt>
      <trkpt lat="43.3315" lon="5.69016">
        <ele>652</ele>
        <time>2019-01-18T12:40:46.000Z</time>
      </trkpt>
      <trkpt lat="43.3315" lon="5.69017">
        <ele>652</ele>
        <time>2019-01-18T12:40:47.000Z</time>
      </trkpt>
      <trkpt lat="43.33149" lon="5.69017">
        <ele>652</ele>
        <time>2019-01-18T12:40:48.000Z</time>
      </trkpt>
      <trkpt lat="43.33149" lon="5.69017">
        <ele>652</ele>
        <time>2019-01-18T12:40:49.000Z</time>
      </trkpt>
      <trkpt lat="43.33149" lon="5.69017">
        <ele>652</ele>
        <time>2019-01-18T12:40:50.000Z</time>
      </trkpt>
      <trkpt lat="43.33149" lon="5.69017">
        <ele>652</ele>
        <time>2019-01-18T12:40:51.000Z</time>
      </trkpt>
      <trkpt lat="43.33149" lon="5.69017">
        <ele>652</ele>
        <time>2019-01-18T12:40:52.000Z</time>
      </trkpt>
      <trkpt lat="43.33149" lon="5.69017">
        <ele>652</ele>
        <time>2019-01-18T12:40:53.000Z</time>
      </trkpt>
      <trkpt lat="43.33149" lon="5.69017">
        <ele>652</ele>
        <time>2019-01-18T12:40:54.000Z</time>
      </trkpt>
      <trkpt lat="43.33149" lon="5.69017">
        <ele>652</ele>
        <time>2019-01-18T12:40:55.000Z</time>
      </trkpt>
      <trkpt lat="43.33149" lon="5.69017">
        <ele>652</ele>
        <time>2019-01-18T12:40:56.000Z</time>
      </trkpt>
      <trkpt lat="43.33149" lon="5.69017">
        <ele>652</ele>
        <time>2019-01-18T12:40:57.000Z</time>
      </trkpt>
      <trkpt lat="43.33149" lon="5.69017">
        <ele>652</ele>
        <time>2019-01-18T12:40:58.000Z</time>
      </trkpt>
      <trkpt lat="43.33149" lon="5.69017">
        <ele>652</ele>
        <time>2019-01-18T12:40:59.000Z</time>
      </trkpt>
      <trkpt lat="43.33149" lon="5.69017">
        <ele>652</ele>
        <time>2019-01-18T12:41:00.000Z</time>
      </trkpt>
      <trkpt lat="43.33149" lon="5.69017">
        <ele>652</ele>
        <time>2019-01-18T12:41:01.000Z</time>
      </trkpt>
      <trkpt lat="43.33149" lon="5.69017">
        <ele>652</ele>
        <time>2019-01-18T12:41:02.000Z</time>
      </trkpt>
      <trkpt lat="43.33149" lon="5.69017">
        <ele>652</ele>
        <time>2019-01-18T12:41:03.000Z</time>
      </trkpt>
      <trkpt lat="43.33149" lon="5.69017">
        <ele>652</ele>
        <time>2019-01-18T12:41:04.000Z</time>
      </trkpt>
      <trkpt lat="43.33149" lon="5.69017">
        <ele>652</ele>
        <time>2019-01-18T12:41:05.000Z</time>
      </trkpt>
      <trkpt lat="43.33149" lon="5.69017">
        <ele>652</ele>
        <time>2019-01-18T12:41:06.000Z</time>
      </trkpt>
      <trkpt lat="43.33149" lon="5.69017">
        <ele>652</ele>
        <time>2019-01-18T12:41:07.000Z</time>
      </trkpt>
      <trkpt lat="43.33149" lon="5.69017">
        <ele>652</ele>
        <time>2019-01-18T12:41:08.000Z</time>
      </trkpt>
      <trkpt lat="43.33149" lon="5.69017">
        <ele>652</ele>
        <time>2019-01-18T12:41:09.000Z</time>
      </trkpt>
      <trkpt lat="43.33149" lon="5.69017">
        <ele>652</ele>
        <time>2019-01-18T12:41:10.000Z</time>
      </trkpt>
      <trkpt lat="43.33148" lon="5.69016">
        <ele>652</ele>
        <time>2019-01-18T12:41:11.000Z</time>
      </trkpt>
      <trkpt lat="43.33148" lon="5.69016">
        <ele>652</ele>
        <time>2019-01-18T12:41:12.000Z</time>
      </trkpt>
      <trkpt lat="43.33147" lon="5.69015">
        <ele>652</ele>
        <time>2019-01-18T12:41:13.000Z</time>
      </trkpt>
      <trkpt lat="43.33147" lon="5.69015">
        <ele>652</ele>
        <time>2019-01-18T12:41:14.000Z</time>
      </trkpt>
      <trkpt lat="43.33146" lon="5.69014">
        <ele>651</ele>
        <time>2019-01-18T12:41:15.000Z</time>
      </trkpt>
      <trkpt lat="43.33145" lon="5.69014">
        <ele>651</ele>
        <time>2019-01-18T12:41:16.000Z</time>
      </trkpt>
      <trkpt lat="43.33144" lon="5.69013">
        <ele>651</ele>
        <time>2019-01-18T12:41:17.000Z</time>
      </trkpt>
      <trkpt lat="43.33143" lon="5.69012">
        <ele>651</ele>
        <time>2019-01-18T12:41:18.000Z</time>
      </trkpt>
      <trkpt lat="43.33142" lon="5.69012">
        <ele>651</ele>
        <time>2019-01-18T12:41:19.000Z</time>
      </trkpt>
      <trkpt lat="43.33141" lon="5.69011">
        <ele>651</ele>
        <time>2019-01-18T12:41:20.000Z</time>
      </trkpt>
      <trkpt lat="43.3314" lon="5.6901">
        <ele>651</ele>
        <time>2019-01-18T12:41:21.000Z</time>
      </trkpt>
      <trkpt lat="43.33139" lon="5.69009">
        <ele>651</ele>
        <time>2019-01-18T12:41:22.000Z</time>
      </trkpt>
      <trkpt lat="43.33138" lon="5.69008">
        <ele>651</ele>
        <time>2019-01-18T12:41:23.000Z</time>
      </trkpt>
      <trkpt lat="43.33137" lon="5.69007">
        <ele>651</ele>
        <time>2019-01-18T12:41:24.000Z</time>
      </trkpt>
      <trkpt lat="43.33136" lon="5.69006">
        <ele>650</ele>
        <time>2019-01-18T12:41:25.000Z</time>
      </trkpt>
      <trkpt lat="43.33135" lon="5.69005">
        <ele>650</ele>
        <time>2019-01-18T12:41:26.000Z</time>
      </trkpt>
      <trkpt lat="43.33135" lon="5.69004">
        <ele>650</ele>
        <time>2019-01-18T12:41:27.000Z</time>
      </trkpt>
      <trkpt lat="43.33134" lon="5.69003">
        <ele>650</ele>
        <time>2019-01-18T12:41:28.000Z</time>
      </trkpt>
      <trkpt lat="43.33134" lon="5.69002">
        <ele>650</ele>
        <time>2019-01-18T12:41:29.000Z</time>
      </trkpt>
      <trkpt lat="43.33133" lon="5.69002">
        <ele>650</ele>
        <time>2019-01-18T12:41:30.000Z</time>
      </trkpt>
      <trkpt lat="43.33132" lon="5.69001">
        <ele>650</ele>
        <time>2019-01-18T12:41:31.000Z</time>
      </trkpt>
      <trkpt lat="43.33131" lon="5.69001">
        <ele>650</ele>
        <time>2019-01-18T12:41:32.000Z</time>
      </trkpt>
      <trkpt lat="43.33131" lon="5.68999">
        <ele>649</ele>
        <time>2019-01-18T12:41:33.000Z</time>
      </trkpt>
      <trkpt lat="43.3313" lon="5.68998">
        <ele>649</ele>
        <time>2019-01-18T12:41:34.000Z</time>
      </trkpt>
      <trkpt lat="43.3313" lon="5.68998">
        <ele>649</ele>
        <time>2019-01-18T12:41:35.000Z</time>
      </trkpt>
      <trkpt lat="43.3313" lon="5.68997">
        <ele>649</ele>
        <time>2019-01-18T12:41:36.000Z</time>
      </trkpt>
      <trkpt lat="43.33129" lon="5.68996">
        <ele>649</ele>
        <time>2019-01-18T12:41:37.000Z</time>
      </trkpt>
      <trkpt lat="43.33129" lon="5.68996">
        <ele>649</ele>
        <time>2019-01-18T12:41:38.000Z</time>
      </trkpt>
      <trkpt lat="43.3313" lon="5.68995">
        <ele>649</ele>
        <time>2019-01-18T12:41:39.000Z</time>
      </trkpt>
      <trkpt lat="43.3313" lon="5.68995">
        <ele>648</ele>
        <time>2019-01-18T12:41:40.000Z</time>
      </trkpt>
      <trkpt lat="43.33131" lon="5.68995">
        <ele>648</ele>
        <time>2019-01-18T12:41:41.000Z</time>
      </trkpt>
      <trkpt lat="43.3313" lon="5.68994">
        <ele>648</ele>
        <time>2019-01-18T12:41:42.000Z</time>
      </trkpt>
      <trkpt lat="43.3313" lon="5.68994">
        <ele>648</ele>
        <time>2019-01-18T12:41:43.000Z</time>
      </trkpt>
      <trkpt lat="43.33129" lon="5.68993">
        <ele>648</ele>
        <time>2019-01-18T12:41:44.000Z</time>
      </trkpt>
      <trkpt lat="43.33128" lon="5.68992">
        <ele>648</ele>
        <time>2019-01-18T12:41:45.000Z</time>
      </trkpt>
      <trkpt lat="43.33128" lon="5.68991">
        <ele>647</ele>
        <time>2019-01-18T12:41:46.000Z</time>
      </trkpt>
      <trkpt lat="43.33127" lon="5.6899">
        <ele>647</ele>
        <time>2019-01-18T12:41:47.000Z</time>
      </trkpt>
      <trkpt lat="43.33127" lon="5.68989">
        <ele>647</ele>
        <time>2019-01-18T12:41:48.000Z</time>
      </trkpt>
      <trkpt lat="43.33126" lon="5.68988">
        <ele>647</ele>
        <time>2019-01-18T12:41:49.000Z</time>
      </trkpt>
      <trkpt lat="43.33126" lon="5.68987">
        <ele>647</ele>
        <time>2019-01-18T12:41:50.000Z</time>
      </trkpt>
      <trkpt lat="43.33125" lon="5.68987">
        <ele>647</ele>
        <time>2019-01-18T12:41:51.000Z</time>
      </trkpt>
      <trkpt lat="43.33124" lon="5.68986">
        <ele>647</ele>
        <time>2019-01-18T12:41:52.000Z</time>
      </trkpt>
      <trkpt lat="43.33123" lon="5.68986">
        <ele>647</ele>
        <time>2019-01-18T12:41:53.000Z</time>
      </trkpt>
      <trkpt lat="43.33122" lon="5.68986">
        <ele>647</ele>
        <time>2019-01-18T12:41:54.000Z</time>
      </trkpt>
      <trkpt lat="43.33121" lon="5.68986">
        <ele>647</ele>
        <time>2019-01-18T12:41:55.000Z</time>
      </trkpt>
      <trkpt lat="43.33121" lon="5.68985">
        <ele>647</ele>
        <time>2019-01-18T12:41:56.000Z</time>
      </trkpt>
      <trkpt lat="43.3312" lon="5.68985">
        <ele>647</ele>
        <time>2019-01-18T12:41:57.000Z</time>
      </trkpt>
      <trkpt lat="43.33119" lon="5.68985">
        <ele>647</ele>
        <time>2019-01-18T12:41:58.000Z</time>
      </trkpt>
      <trkpt lat="43.33118" lon="5.68985">
        <ele>647</ele>
        <time>2019-01-18T12:41:59.000Z</time>
      </trkpt>
      <trkpt lat="43.33117" lon="5.68984">
        <ele>647</ele>
        <time>2019-01-18T12:42:00.000Z</time>
      </trkpt>
      <trkpt lat="43.33116" lon="5.68983">
        <ele>646</ele>
        <time>2019-01-18T12:42:01.000Z</time>
      </trkpt>
      <trkpt lat="43.33115" lon="5.68982">
        <ele>646</ele>
        <time>2019-01-18T12:42:02.000Z</time>
      </trkpt>
      <trkpt lat="43.33115" lon="5.68981">
        <ele>646</ele>
        <time>2019-01-18T12:42:03.000Z</time>
      </trkpt>
      <trkpt lat="43.33114" lon="5.6898">
        <ele>646</ele>
        <time>2019-01-18T12:42:04.000Z</time>
      </trkpt>
      <trkpt lat="43.33114" lon="5.68979">
        <ele>646</ele>
        <time>2019-01-18T12:42:05.000Z</time>
      </trkpt>
      <trkpt lat="43.33114" lon="5.68979">
        <ele>646</ele>
        <time>2019-01-18T12:42:06.000Z</time>
      </trkpt>
      <trkpt lat="43.33113" lon="5.68978">
        <ele>646</ele>
        <time>2019-01-18T12:42:07.000Z</time>
      </trkpt>
      <trkpt lat="43.33113" lon="5.68978">
        <ele>646</ele>
        <time>2019-01-18T12:42:08.000Z</time>
      </trkpt>
      <trkpt lat="43.33113" lon="5.68978">
        <ele>646</ele>
        <time>2019-01-18T12:42:09.000Z</time>
      </trkpt>
      <trkpt lat="43.33113" lon="5.68977">
        <ele>646</ele>
        <time>2019-01-18T12:42:10.000Z</time>
      </trkpt>
      <trkpt lat="43.33113" lon="5.68977">
        <ele>646</ele>
        <time>2019-01-18T12:42:11.000Z</time>
      </trkpt>
      <trkpt lat="43.33113" lon="5.68978">
        <ele>646</ele>
        <time>2019-01-18T12:42:12.000Z</time>
      </trkpt>
      <trkpt lat="43.33113" lon="5.68978">
        <ele>646</ele>
        <time>2019-01-18T12:42:13.000Z</time>
      </trkpt>
      <trkpt lat="43.33113" lon="5.68977">
        <ele>646</ele>
        <time>2019-01-18T12:42:14.000Z</time>
      </trkpt>
      <trkpt lat="43.33113" lon="5.68977">
        <ele>646</ele>
        <time>2019-01-18T12:42:15.000Z</time>
      </trkpt>
      <trkpt lat="43.33113" lon="5.68977">
        <ele>646</ele>
        <time>2019-01-18T12:42:16.000Z</time>
      </trkpt>
      <trkpt lat="43.33113" lon="5.68977">
        <ele>646</ele>
        <time>2019-01-18T12:42:17.000Z</time>
      </trkpt>
      <trkpt lat="43.33113" lon="5.68977">
        <ele>646</ele>
        <time>2019-01-18T12:42:18.000Z</time>
      </trkpt>
      <trkpt lat="43.33113" lon="5.68976">
        <ele>646</ele>
        <time>2019-01-18T12:42:19.000Z</time>
      </trkpt>
      <trkpt lat="43.33113" lon="5.68976">
        <ele>646</ele>
        <time>2019-01-18T12:42:20.000Z</time>
      </trkpt>
      <trkpt lat="43.33113" lon="5.68975">
        <ele>646</ele>
        <time>2019-01-18T12:42:21.000Z</time>
      </trkpt>
      <trkpt lat="43.33113" lon="5.68975">
        <ele>645</ele>
        <time>2019-01-18T12:42:22.000Z</time>
      </trkpt>
      <trkpt lat="43.33113" lon="5.68974">
        <ele>645</ele>
        <time>2019-01-18T12:42:23.000Z</time>
      </trkpt>
      <trkpt lat="43.33113" lon="5.68973">
        <ele>645</ele>
        <time>2019-01-18T12:42:24.000Z</time>
      </trkpt>
      <trkpt lat="43.33113" lon="5.68972">
        <ele>645</ele>
        <time>2019-01-18T12:42:25.000Z</time>
      </trkpt>
      <trkpt lat="43.33113" lon="5.6897">
        <ele>645</ele>
        <time>2019-01-18T12:42:26.000Z</time>
      </trkpt>
      <trkpt lat="43.33113" lon="5.68969">
        <ele>645</ele>
        <time>2019-01-18T12:42:27.000Z</time>
      </trkpt>
      <trkpt lat="43.33113" lon="5.68967">
        <ele>645</ele>
        <time>2019-01-18T12:42:28.000Z</time>
      </trkpt>
      <trkpt lat="43.33113" lon="5.68965">
        <ele>645</ele>
        <time>2019-01-18T12:42:29.000Z</time>
      </trkpt>
      <trkpt lat="43.33112" lon="5.68963">
        <ele>645</ele>
        <time>2019-01-18T12:42:30.000Z</time>
      </trkpt>
      <trkpt lat="43.33112" lon="5.68961">
        <ele>645</ele>
        <time>2019-01-18T12:42:31.000Z</time>
      </trkpt>
      <trkpt lat="43.33112" lon="5.6896">
        <ele>645</ele>
        <time>2019-01-18T12:42:32.000Z</time>
      </trkpt>
      <trkpt lat="43.33112" lon="5.68958">
        <ele>644</ele>
        <time>2019-01-18T12:42:33.000Z</time>
      </trkpt>
      <trkpt lat="43.33112" lon="5.68957">
        <ele>644</ele>
        <time>2019-01-18T12:42:34.000Z</time>
      </trkpt>
      <trkpt lat="43.33112" lon="5.68955">
        <ele>644</ele>
        <time>2019-01-18T12:42:35.000Z</time>
      </trkpt>
      <trkpt lat="43.33112" lon="5.68954">
        <ele>644</ele>
        <time>2019-01-18T12:42:36.000Z</time>
      </trkpt>
      <trkpt lat="43.33112" lon="5.68952">
        <ele>644</ele>
        <time>2019-01-18T12:42:37.000Z</time>
      </trkpt>
      <trkpt lat="43.33111" lon="5.68951">
        <ele>644</ele>
        <time>2019-01-18T12:42:38.000Z</time>
      </trkpt>
      <trkpt lat="43.33111" lon="5.6895">
        <ele>644</ele>
        <time>2019-01-18T12:42:39.000Z</time>
      </trkpt>
      <trkpt lat="43.33111" lon="5.68949">
        <ele>644</ele>
        <time>2019-01-18T12:42:40.000Z</time>
      </trkpt>
      <trkpt lat="43.33111" lon="5.68948">
        <ele>644</ele>
        <time>2019-01-18T12:42:41.000Z</time>
      </trkpt>
      <trkpt lat="43.33111" lon="5.68947">
        <ele>644</ele>
        <time>2019-01-18T12:42:42.000Z</time>
      </trkpt>
      <trkpt lat="43.33111" lon="5.68947">
        <ele>644</ele>
        <time>2019-01-18T12:42:43.000Z</time>
      </trkpt>
      <trkpt lat="43.33111" lon="5.68947">
        <ele>644</ele>
        <time>2019-01-18T12:42:44.000Z</time>
      </trkpt>
      <trkpt lat="43.33111" lon="5.68947">
        <ele>644</ele>
        <time>2019-01-18T12:42:45.000Z</time>
      </trkpt>
      <trkpt lat="43.33111" lon="5.68947">
        <ele>644</ele>
        <time>2019-01-18T12:42:46.000Z</time>
      </trkpt>
      <trkpt lat="43.33111" lon="5.68947">
        <ele>644</ele>
        <time>2019-01-18T12:42:47.000Z</time>
      </trkpt>
      <trkpt lat="43.33111" lon="5.68947">
        <ele>644</ele>
        <time>2019-01-18T12:42:48.000Z</time>
      </trkpt>
      <trkpt lat="43.33111" lon="5.68947">
        <ele>644</ele>
        <time>2019-01-18T12:42:49.000Z</time>
      </trkpt>
      <trkpt lat="43.33111" lon="5.68946">
        <ele>644</ele>
        <time>2019-01-18T12:42:50.000Z</time>
      </trkpt>
      <trkpt lat="43.33111" lon="5.68946">
        <ele>644</ele>
        <time>2019-01-18T12:42:51.000Z</time>
      </trkpt>
      <trkpt lat="43.33111" lon="5.68945">
        <ele>644</ele>
        <time>2019-01-18T12:42:52.000Z</time>
      </trkpt>
      <trkpt lat="43.3311" lon="5.68943">
        <ele>644</ele>
        <time>2019-01-18T12:42:53.000Z</time>
      </trkpt>
      <trkpt lat="43.3311" lon="5.68941">
        <ele>643</ele>
        <time>2019-01-18T12:42:54.000Z</time>
      </trkpt>
      <trkpt lat="43.33109" lon="5.68939">
        <ele>643</ele>
        <time>2019-01-18T12:42:55.000Z</time>
      </trkpt>
      <trkpt lat="43.33109" lon="5.68937">
        <ele>643</ele>
        <time>2019-01-18T12:42:56.000Z</time>
      </trkpt>
      <trkpt lat="43.33109" lon="5.68935">
        <ele>643</ele>
        <time>2019-01-18T12:42:57.000Z</time>
      </trkpt>
      <trkpt lat="43.33108" lon="5.68933">
        <ele>643</ele>
        <time>2019-01-18T12:42:58.000Z</time>
      </trkpt>
      <trkpt lat="43.33108" lon="5.68931">
        <ele>643</ele>
        <time>2019-01-18T12:42:59.000Z</time>
      </trkpt>
      <trkpt lat="43.33108" lon="5.6893">
        <ele>643</ele>
        <time>2019-01-18T12:43:00.000Z</time>
      </trkpt>
      <trkpt lat="43.33107" lon="5.68928">
        <ele>643</ele>
        <time>2019-01-18T12:43:01.000Z</time>
      </trkpt>
      <trkpt lat="43.33107" lon="5.68926">
        <ele>643</ele>
        <time>2019-01-18T12:43:02.000Z</time>
      </trkpt>
      <trkpt lat="43.33107" lon="5.68924">
        <ele>642</ele>
        <time>2019-01-18T12:43:03.000Z</time>
      </trkpt>
      <trkpt lat="43.33107" lon="5.68922">
        <ele>642</ele>
        <time>2019-01-18T12:43:04.000Z</time>
      </trkpt>
      <trkpt lat="43.33107" lon="5.68921">
        <ele>642</ele>
        <time>2019-01-18T12:43:05.000Z</time>
      </trkpt>
      <trkpt lat="43.33107" lon="5.68919">
        <ele>642</ele>
        <time>2019-01-18T12:43:06.000Z</time>
      </trkpt>
      <trkpt lat="43.33107" lon="5.68918">
        <ele>642</ele>
        <time>2019-01-18T12:43:07.000Z</time>
      </trkpt>
      <trkpt lat="43.33107" lon="5.68917">
        <ele>642</ele>
        <time>2019-01-18T12:43:08.000Z</time>
      </trkpt>
      <trkpt lat="43.33107" lon="5.68915">
        <ele>641</ele>
        <time>2019-01-18T12:43:09.000Z</time>
      </trkpt>
      <trkpt lat="43.33107" lon="5.68914">
        <ele>641</ele>
        <time>2019-01-18T12:43:10.000Z</time>
      </trkpt>
      <trkpt lat="43.33108" lon="5.68914">
        <ele>641</ele>
        <time>2019-01-18T12:43:11.000Z</time>
      </trkpt>
      <trkpt lat="43.33108" lon="5.68913">
        <ele>641</ele>
        <time>2019-01-18T12:43:12.000Z</time>
      </trkpt>
      <trkpt lat="43.33108" lon="5.68913">
        <ele>641</ele>
        <time>2019-01-18T12:43:13.000Z</time>
      </trkpt>
      <trkpt lat="43.33108" lon="5.68913">
        <ele>641</ele>
        <time>2019-01-18T12:43:14.000Z</time>
      </trkpt>
      <trkpt lat="43.33108" lon="5.68913">
        <ele>641</ele>
        <time>2019-01-18T12:43:15.000Z</time>
      </trkpt>
      <trkpt lat="43.33108" lon="5.68913">
        <ele>641</ele>
        <time>2019-01-18T12:43:16.000Z</time>
      </trkpt>
      <trkpt lat="43.33108" lon="5.68913">
        <ele>641</ele>
        <time>2019-01-18T12:43:17.000Z</time>
      </trkpt>
      <trkpt lat="43.33107" lon="5.68912">
        <ele>641</ele>
        <time>2019-01-18T12:43:18.000Z</time>
      </trkpt>
      <trkpt lat="43.33107" lon="5.68911">
        <ele>641</ele>
        <time>2019-01-18T12:43:19.000Z</time>
      </trkpt>
      <trkpt lat="43.33107" lon="5.6891">
        <ele>641</ele>
        <time>2019-01-18T12:43:20.000Z</time>
      </trkpt>
      <trkpt lat="43.33106" lon="5.68908">
        <ele>641</ele>
        <time>2019-01-18T12:43:21.000Z</time>
      </trkpt>
      <trkpt lat="43.33106" lon="5.68907">
        <ele>641</ele>
        <time>2019-01-18T12:43:22.000Z</time>
      </trkpt>
      <trkpt lat="43.33106" lon="5.68905">
        <ele>641</ele>
        <time>2019-01-18T12:43:23.000Z</time>
      </trkpt>
      <trkpt lat="43.33105" lon="5.68903">
        <ele>641</ele>
        <time>2019-01-18T12:43:24.000Z</time>
      </trkpt>
      <trkpt lat="43.33105" lon="5.68901">
        <ele>641</ele>
        <time>2019-01-18T12:43:25.000Z</time>
      </trkpt>
      <trkpt lat="43.33105" lon="5.689">
        <ele>641</ele>
        <time>2019-01-18T12:43:26.000Z</time>
      </trkpt>
      <trkpt lat="43.33104" lon="5.68898">
        <ele>641</ele>
        <time>2019-01-18T12:43:27.000Z</time>
      </trkpt>
      <trkpt lat="43.33104" lon="5.68896">
        <ele>641</ele>
        <time>2019-01-18T12:43:28.000Z</time>
      </trkpt>
      <trkpt lat="43.33104" lon="5.68894">
        <ele>641</ele>
        <time>2019-01-18T12:43:29.000Z</time>
      </trkpt>
      <trkpt lat="43.33104" lon="5.68893">
        <ele>641</ele>
        <time>2019-01-18T12:43:30.000Z</time>
      </trkpt>
      <trkpt lat="43.33103" lon="5.68891">
        <ele>641</ele>
        <time>2019-01-18T12:43:31.000Z</time>
      </trkpt>
      <trkpt lat="43.33103" lon="5.68889">
        <ele>640</ele>
        <time>2019-01-18T12:43:32.000Z</time>
      </trkpt>
      <trkpt lat="43.33102" lon="5.68887">
        <ele>640</ele>
        <time>2019-01-18T12:43:33.000Z</time>
      </trkpt>
      <trkpt lat="43.33102" lon="5.68885">
        <ele>640</ele>
        <time>2019-01-18T12:43:34.000Z</time>
      </trkpt>
      <trkpt lat="43.33102" lon="5.68883">
        <ele>640</ele>
        <time>2019-01-18T12:43:35.000Z</time>
      </trkpt>
      <trkpt lat="43.33101" lon="5.68881">
        <ele>640</ele>
        <time>2019-01-18T12:43:36.000Z</time>
      </trkpt>
      <trkpt lat="43.33101" lon="5.68879">
        <ele>640</ele>
        <time>2019-01-18T12:43:37.000Z</time>
      </trkpt>
      <trkpt lat="43.33101" lon="5.68877">
        <ele>640</ele>
        <time>2019-01-18T12:43:38.000Z</time>
      </trkpt>
      <trkpt lat="43.331" lon="5.68875">
        <ele>640</ele>
        <time>2019-01-18T12:43:39.000Z</time>
      </trkpt>
      <trkpt lat="43.331" lon="5.68873">
        <ele>640</ele>
        <time>2019-01-18T12:43:40.000Z</time>
      </trkpt>
      <trkpt lat="43.331" lon="5.68871">
        <ele>639</ele>
        <time>2019-01-18T12:43:41.000Z</time>
      </trkpt>
      <trkpt lat="43.33099" lon="5.68869">
        <ele>639</ele>
        <time>2019-01-18T12:43:42.000Z</time>
      </trkpt>
      <trkpt lat="43.33099" lon="5.68867">
        <ele>639</ele>
        <time>2019-01-18T12:43:43.000Z</time>
      </trkpt>
      <trkpt lat="43.33099" lon="5.68866">
        <ele>639</ele>
        <time>2019-01-18T12:43:44.000Z</time>
      </trkpt>
      <trkpt lat="43.33098" lon="5.68864">
        <ele>639</ele>
        <time>2019-01-18T12:43:45.000Z</time>
      </trkpt>
      <trkpt lat="43.33098" lon="5.68862">
        <ele>639</ele>
        <time>2019-01-18T12:43:46.000Z</time>
      </trkpt>
      <trkpt lat="43.33097" lon="5.6886">
        <ele>639</ele>
        <time>2019-01-18T12:43:47.000Z</time>
      </trkpt>
      <trkpt lat="43.33097" lon="5.68858">
        <ele>639</ele>
        <time>2019-01-18T12:43:48.000Z</time>
      </trkpt>
      <trkpt lat="43.33098" lon="5.68856">
        <ele>639</ele>
        <time>2019-01-18T12:43:49.000Z</time>
      </trkpt>
      <trkpt lat="43.33098" lon="5.68854">
        <ele>639</ele>
        <time>2019-01-18T12:43:50.000Z</time>
      </trkpt>
      <trkpt lat="43.33097" lon="5.68853">
        <ele>639</ele>
        <time>2019-01-18T12:43:51.000Z</time>
      </trkpt>
      <trkpt lat="43.33097" lon="5.68851">
        <ele>638</ele>
        <time>2019-01-18T12:43:52.000Z</time>
      </trkpt>
      <trkpt lat="43.33096" lon="5.68849">
        <ele>638</ele>
        <time>2019-01-18T12:43:53.000Z</time>
      </trkpt>
      <trkpt lat="43.33095" lon="5.68848">
        <ele>638</ele>
        <time>2019-01-18T12:43:54.000Z</time>
      </trkpt>
      <trkpt lat="43.33095" lon="5.68846">
        <ele>638</ele>
        <time>2019-01-18T12:43:55.000Z</time>
      </trkpt>
      <trkpt lat="43.33095" lon="5.68844">
        <ele>638</ele>
        <time>2019-01-18T12:43:56.000Z</time>
      </trkpt>
      <trkpt lat="43.33095" lon="5.68842">
        <ele>637</ele>
        <time>2019-01-18T12:43:57.000Z</time>
      </trkpt>
      <trkpt lat="43.33095" lon="5.68841">
        <ele>637</ele>
        <time>2019-01-18T12:43:58.000Z</time>
      </trkpt>
      <trkpt lat="43.33095" lon="5.6884">
        <ele>637</ele>
        <time>2019-01-18T12:43:59.000Z</time>
      </trkpt>
      <trkpt lat="43.33095" lon="5.68839">
        <ele>637</ele>
        <time>2019-01-18T12:44:00.000Z</time>
      </trkpt>
      <trkpt lat="43.33095" lon="5.68838">
        <ele>637</ele>
        <time>2019-01-18T12:44:01.000Z</time>
      </trkpt>
      <trkpt lat="43.33095" lon="5.68837">
        <ele>636</ele>
        <time>2019-01-18T12:44:02.000Z</time>
      </trkpt>
      <trkpt lat="43.33095" lon="5.68836">
        <ele>636</ele>
        <time>2019-01-18T12:44:03.000Z</time>
      </trkpt>
      <trkpt lat="43.33095" lon="5.68835">
        <ele>636</ele>
        <time>2019-01-18T12:44:04.000Z</time>
      </trkpt>
      <trkpt lat="43.33095" lon="5.68833">
        <ele>636</ele>
        <time>2019-01-18T12:44:05.000Z</time>
      </trkpt>
      <trkpt lat="43.33095" lon="5.68832">
        <ele>636</ele>
        <time>2019-01-18T12:44:06.000Z</time>
      </trkpt>
      <trkpt lat="43.33095" lon="5.68831">
        <ele>635</ele>
        <time>2019-01-18T12:44:07.000Z</time>
      </trkpt>
      <trkpt lat="43.33094" lon="5.68829">
        <ele>635</ele>
        <time>2019-01-18T12:44:08.000Z</time>
      </trkpt>
      <trkpt lat="43.33094" lon="5.68828">
        <ele>635</ele>
        <time>2019-01-18T12:44:09.000Z</time>
      </trkpt>
      <trkpt lat="43.33094" lon="5.68827">
        <ele>635</ele>
        <time>2019-01-18T12:44:10.000Z</time>
      </trkpt>
      <trkpt lat="43.33094" lon="5.68825">
        <ele>635</ele>
        <time>2019-01-18T12:44:11.000Z</time>
      </trkpt>
      <trkpt lat="43.33093" lon="5.68824">
        <ele>634</ele>
        <time>2019-01-18T12:44:12.000Z</time>
      </trkpt>
      <trkpt lat="43.33093" lon="5.68822">
        <ele>634</ele>
        <time>2019-01-18T12:44:13.000Z</time>
      </trkpt>
      <trkpt lat="43.33093" lon="5.68821">
        <ele>634</ele>
        <time>2019-01-18T12:44:14.000Z</time>
      </trkpt>
      <trkpt lat="43.33093" lon="5.68819">
        <ele>634</ele>
        <time>2019-01-18T12:44:15.000Z</time>
      </trkpt>
      <trkpt lat="43.33093" lon="5.68818">
        <ele>634</ele>
        <time>2019-01-18T12:44:16.000Z</time>
      </trkpt>
      <trkpt lat="43.33093" lon="5.68818">
        <ele>634</ele>
        <time>2019-01-18T12:44:17.000Z</time>
      </trkpt>
      <trkpt lat="43.33093" lon="5.68817">
        <ele>634</ele>
        <time>2019-01-18T12:44:18.000Z</time>
      </trkpt>
      <trkpt lat="43.33093" lon="5.68816">
        <ele>633</ele>
        <time>2019-01-18T12:44:19.000Z</time>
      </trkpt>
      <trkpt lat="43.33092" lon="5.68814">
        <ele>633</ele>
        <time>2019-01-18T12:44:20.000Z</time>
      </trkpt>
      <trkpt lat="43.33092" lon="5.68813">
        <ele>633</ele>
        <time>2019-01-18T12:44:21.000Z</time>
      </trkpt>
      <trkpt lat="43.33092" lon="5.68811">
        <ele>633</ele>
        <time>2019-01-18T12:44:22.000Z</time>
      </trkpt>
      <trkpt lat="43.33092" lon="5.6881">
        <ele>633</ele>
        <time>2019-01-18T12:44:23.000Z</time>
      </trkpt>
      <trkpt lat="43.33092" lon="5.68808">
        <ele>633</ele>
        <time>2019-01-18T12:44:24.000Z</time>
      </trkpt>
      <trkpt lat="43.33091" lon="5.68807">
        <ele>633</ele>
        <time>2019-01-18T12:44:25.000Z</time>
      </trkpt>
      <trkpt lat="43.33091" lon="5.68805">
        <ele>633</ele>
        <time>2019-01-18T12:44:26.000Z</time>
      </trkpt>
      <trkpt lat="43.33091" lon="5.68803">
        <ele>633</ele>
        <time>2019-01-18T12:44:27.000Z</time>
      </trkpt>
      <trkpt lat="43.3309" lon="5.68802">
        <ele>633</ele>
        <time>2019-01-18T12:44:28.000Z</time>
      </trkpt>
      <trkpt lat="43.3309" lon="5.68801">
        <ele>633</ele>
        <time>2019-01-18T12:44:29.000Z</time>
      </trkpt>
      <trkpt lat="43.33089" lon="5.688">
        <ele>633</ele>
        <time>2019-01-18T12:44:30.000Z</time>
      </trkpt>
      <trkpt lat="43.33089" lon="5.68798">
        <ele>633</ele>
        <time>2019-01-18T12:44:31.000Z</time>
      </trkpt>
      <trkpt lat="43.33088" lon="5.68797">
        <ele>633</ele>
        <time>2019-01-18T12:44:32.000Z</time>
      </trkpt>
      <trkpt lat="43.33087" lon="5.68795">
        <ele>633</ele>
        <time>2019-01-18T12:44:33.000Z</time>
      </trkpt>
      <trkpt lat="43.33086" lon="5.68794">
        <ele>633</ele>
        <time>2019-01-18T12:44:34.000Z</time>
      </trkpt>
      <trkpt lat="43.33086" lon="5.68792">
        <ele>633</ele>
        <time>2019-01-18T12:44:35.000Z</time>
      </trkpt>
      <trkpt lat="43.33085" lon="5.6879">
        <ele>633</ele>
        <time>2019-01-18T12:44:36.000Z</time>
      </trkpt>
      <trkpt lat="43.33085" lon="5.68788">
        <ele>633</ele>
        <time>2019-01-18T12:44:37.000Z</time>
      </trkpt>
      <trkpt lat="43.33084" lon="5.68786">
        <ele>633</ele>
        <time>2019-01-18T12:44:38.000Z</time>
      </trkpt>
      <trkpt lat="43.33083" lon="5.68785">
        <ele>633</ele>
        <time>2019-01-18T12:44:39.000Z</time>
      </trkpt>
      <trkpt lat="43.33083" lon="5.68783">
        <ele>633</ele>
        <time>2019-01-18T12:44:40.000Z</time>
      </trkpt>
      <trkpt lat="43.33083" lon="5.68781">
        <ele>633</ele>
        <time>2019-01-18T12:44:41.000Z</time>
      </trkpt>
      <trkpt lat="43.33082" lon="5.6878">
        <ele>633</ele>
        <time>2019-01-18T12:44:42.000Z</time>
      </trkpt>
      <trkpt lat="43.33082" lon="5.68778">
        <ele>633</ele>
        <time>2019-01-18T12:44:43.000Z</time>
      </trkpt>
      <trkpt lat="43.33082" lon="5.68777">
        <ele>633</ele>
        <time>2019-01-18T12:44:44.000Z</time>
      </trkpt>
      <trkpt lat="43.33082" lon="5.68775">
        <ele>633</ele>
        <time>2019-01-18T12:44:45.000Z</time>
      </trkpt>
      <trkpt lat="43.33081" lon="5.68774">
        <ele>633</ele>
        <time>2019-01-18T12:44:46.000Z</time>
      </trkpt>
      <trkpt lat="43.33081" lon="5.68772">
        <ele>633</ele>
        <time>2019-01-18T12:44:47.000Z</time>
      </trkpt>
      <trkpt lat="43.33081" lon="5.68771">
        <ele>633</ele>
        <time>2019-01-18T12:44:48.000Z</time>
      </trkpt>
      <trkpt lat="43.33081" lon="5.68769">
        <ele>632</ele>
        <time>2019-01-18T12:44:49.000Z</time>
      </trkpt>
      <trkpt lat="43.33081" lon="5.68767">
        <ele>632</ele>
        <time>2019-01-18T12:44:50.000Z</time>
      </trkpt>
      <trkpt lat="43.33081" lon="5.68765">
        <ele>632</ele>
        <time>2019-01-18T12:44:51.000Z</time>
      </trkpt>
      <trkpt lat="43.33081" lon="5.68763">
        <ele>632</ele>
        <time>2019-01-18T12:44:52.000Z</time>
      </trkpt>
      <trkpt lat="43.33081" lon="5.68762">
        <ele>632</ele>
        <time>2019-01-18T12:44:53.000Z</time>
      </trkpt>
      <trkpt lat="43.33082" lon="5.6876">
        <ele>632</ele>
        <time>2019-01-18T12:44:54.000Z</time>
      </trkpt>
      <trkpt lat="43.33082" lon="5.68758">
        <ele>632</ele>
        <time>2019-01-18T12:44:55.000Z</time>
      </trkpt>
      <trkpt lat="43.33082" lon="5.68756">
        <ele>632</ele>
        <time>2019-01-18T12:44:56.000Z</time>
      </trkpt>
      <trkpt lat="43.33083" lon="5.68754">
        <ele>632</ele>
        <time>2019-01-18T12:44:57.000Z</time>
      </trkpt>
      <trkpt lat="43.33083" lon="5.68753">
        <ele>632</ele>
        <time>2019-01-18T12:44:58.000Z</time>
      </trkpt>
      <trkpt lat="43.33084" lon="5.68751">
        <ele>632</ele>
        <time>2019-01-18T12:44:59.000Z</time>
      </trkpt>
      <trkpt lat="43.33084" lon="5.68749">
        <ele>631</ele>
        <time>2019-01-18T12:45:00.000Z</time>
      </trkpt>
      <trkpt lat="43.33084" lon="5.68748">
        <ele>631</ele>
        <time>2019-01-18T12:45:01.000Z</time>
      </trkpt>
      <trkpt lat="43.33085" lon="5.68746">
        <ele>631</ele>
        <time>2019-01-18T12:45:02.000Z</time>
      </trkpt>
      <trkpt lat="43.33085" lon="5.68744">
        <ele>630</ele>
        <time>2019-01-18T12:45:03.000Z</time>
      </trkpt>
      <trkpt lat="43.33085" lon="5.68743">
        <ele>630</ele>
        <time>2019-01-18T12:45:04.000Z</time>
      </trkpt>
      <trkpt lat="43.33085" lon="5.68742">
        <ele>630</ele>
        <time>2019-01-18T12:45:05.000Z</time>
      </trkpt>
      <trkpt lat="43.33085" lon="5.68741">
        <ele>629</ele>
        <time>2019-01-18T12:45:06.000Z</time>
      </trkpt>
      <trkpt lat="43.33085" lon="5.68741">
        <ele>629</ele>
        <time>2019-01-18T12:45:07.000Z</time>
      </trkpt>
      <trkpt lat="43.33085" lon="5.68741">
        <ele>629</ele>
        <time>2019-01-18T12:45:08.000Z</time>
      </trkpt>
      <trkpt lat="43.33085" lon="5.68741">
        <ele>629</ele>
        <time>2019-01-18T12:45:09.000Z</time>
      </trkpt>
      <trkpt lat="43.33086" lon="5.68741">
        <ele>629</ele>
        <time>2019-01-18T12:45:10.000Z</time>
      </trkpt>
      <trkpt lat="43.33086" lon="5.68741">
        <ele>629</ele>
        <time>2019-01-18T12:45:11.000Z</time>
      </trkpt>
      <trkpt lat="43.33086" lon="5.6874">
        <ele>629</ele>
        <time>2019-01-18T12:45:12.000Z</time>
      </trkpt>
      <trkpt lat="43.33086" lon="5.6874">
        <ele>629</ele>
        <time>2019-01-18T12:45:13.000Z</time>
      </trkpt>
      <trkpt lat="43.33086" lon="5.6874">
        <ele>629</ele>
        <time>2019-01-18T12:45:14.000Z</time>
      </trkpt>
      <trkpt lat="43.33086" lon="5.6874">
        <ele>629</ele>
        <time>2019-01-18T12:45:15.000Z</time>
      </trkpt>
      <trkpt lat="43.33086" lon="5.6874">
        <ele>629</ele>
        <time>2019-01-18T12:45:16.000Z</time>
      </trkpt>
      <trkpt lat="43.33086" lon="5.6874">
        <ele>629</ele>
        <time>2019-01-18T12:45:17.000Z</time>
      </trkpt>
      <trkpt lat="43.33086" lon="5.6874">
        <ele>629</ele>
        <time>2019-01-18T12:45:18.000Z</time>
      </trkpt>
      <trkpt lat="43.33086" lon="5.6874">
        <ele>629</ele>
        <time>2019-01-18T12:45:19.000Z</time>
      </trkpt>
      <trkpt lat="43.33086" lon="5.6874">
        <ele>629</ele>
        <time>2019-01-18T12:45:20.000Z</time>
      </trkpt>
      <trkpt lat="43.33086" lon="5.6874">
        <ele>629</ele>
        <time>2019-01-18T12:45:21.000Z</time>
      </trkpt>
      <trkpt lat="43.33086" lon="5.6874">
        <ele>629</ele>
        <time>2019-01-18T12:45:22.000Z</time>
      </trkpt>
      <trkpt lat="43.33086" lon="5.6874">
        <ele>629</ele>
        <time>2019-01-18T12:45:23.000Z</time>
      </trkpt>
      <trkpt lat="43.33086" lon="5.6874">
        <ele>629</ele>
        <time>2019-01-18T12:45:24.000Z</time>
      </trkpt>
      <trkpt lat="43.33086" lon="5.6874">
        <ele>629</ele>
        <time>2019-01-18T12:45:25.000Z</time>
      </trkpt>
      <trkpt lat="43.33086" lon="5.6874">
        <ele>629</ele>
        <time>2019-01-18T12:45:26.000Z</time>
      </trkpt>
      <trkpt lat="43.33086" lon="5.6874">
        <ele>629</ele>
        <time>2019-01-18T12:45:27.000Z</time>
      </trkpt>
      <trkpt lat="43.33086" lon="5.68739">
        <ele>629</ele>
        <time>2019-01-18T12:45:28.000Z</time>
      </trkpt>
      <trkpt lat="43.33086" lon="5.68739">
        <ele>629</ele>
        <time>2019-01-18T12:45:29.000Z</time>
      </trkpt>
      <trkpt lat="43.33086" lon="5.68739">
        <ele>629</ele>
        <time>2019-01-18T12:45:30.000Z</time>
      </trkpt>
      <trkpt lat="43.33086" lon="5.68739">
        <ele>629</ele>
        <time>2019-01-18T12:45:31.000Z</time>
      </trkpt>
      <trkpt lat="43.33086" lon="5.68739">
        <ele>629</ele>
        <time>2019-01-18T12:45:32.000Z</time>
      </trkpt>
      <trkpt lat="43.33086" lon="5.68739">
        <ele>629</ele>
        <time>2019-01-18T12:45:33.000Z</time>
      </trkpt>
      <trkpt lat="43.33086" lon="5.68739">
        <ele>629</ele>
        <time>2019-01-18T12:45:34.000Z</time>
      </trkpt>
      <trkpt lat="43.33086" lon="5.68739">
        <ele>629</ele>
        <time>2019-01-18T12:45:35.000Z</time>
      </trkpt>
      <trkpt lat="43.33086" lon="5.68739">
        <ele>629</ele>
        <time>2019-01-18T12:45:36.000Z</time>
      </trkpt>
      <trkpt lat="43.33086" lon="5.68739">
        <ele>629</ele>
        <time>2019-01-18T12:45:37.000Z</time>
      </trkpt>
      <trkpt lat="43.33086" lon="5.68739">
        <ele>629</ele>
        <time>2019-01-18T12:45:38.000Z</time>
      </trkpt>
      <trkpt lat="43.33086" lon="5.68739">
        <ele>629</ele>
        <time>2019-01-18T12:45:39.000Z</time>
      </trkpt>
      <trkpt lat="43.33086" lon="5.68739">
        <ele>629</ele>
        <time>2019-01-18T12:45:40.000Z</time>
      </trkpt>
      <trkpt lat="43.33086" lon="5.68739">
        <ele>629</ele>
        <time>2019-01-18T12:45:41.000Z</time>
      </trkpt>
      <trkpt lat="43.33086" lon="5.68739">
        <ele>629</ele>
        <time>2019-01-18T12:45:42.000Z</time>
      </trkpt>
      <trkpt lat="43.33086" lon="5.68739">
        <ele>629</ele>
        <time>2019-01-18T12:45:43.000Z</time>
      </trkpt>
      <trkpt lat="43.33086" lon="5.68739">
        <ele>629</ele>
        <time>2019-01-18T12:45:44.000Z</time>
      </trkpt>
      <trkpt lat="43.33086" lon="5.68739">
        <ele>629</ele>
        <time>2019-01-18T12:45:45.000Z</time>
      </trkpt>
      <trkpt lat="43.33086" lon="5.68739">
        <ele>629</ele>
        <time>2019-01-18T12:45:46.000Z</time>
      </trkpt>
      <trkpt lat="43.33087" lon="5.68739">
        <ele>628</ele>
        <time>2019-01-18T12:45:47.000Z</time>
      </trkpt>
      <trkpt lat="43.33088" lon="5.68738">
        <ele>628</ele>
        <time>2019-01-18T12:45:48.000Z</time>
      </trkpt>
      <trkpt lat="43.33088" lon="5.68737">
        <ele>628</ele>
        <time>2019-01-18T12:45:49.000Z</time>
      </trkpt>
      <trkpt lat="43.33089" lon="5.68737">
        <ele>628</ele>
        <time>2019-01-18T12:45:50.000Z</time>
      </trkpt>
      <trkpt lat="43.3309" lon="5.68736">
        <ele>628</ele>
        <time>2019-01-18T12:45:51.000Z</time>
      </trkpt>
      <trkpt lat="43.3309" lon="5.68736">
        <ele>628</ele>
        <time>2019-01-18T12:45:52.000Z</time>
      </trkpt>
      <trkpt lat="43.33091" lon="5.68735">
        <ele>628</ele>
        <time>2019-01-18T12:45:53.000Z</time>
      </trkpt>
      <trkpt lat="43.33092" lon="5.68734">
        <ele>627</ele>
        <time>2019-01-18T12:45:54.000Z</time>
      </trkpt>
      <trkpt lat="43.33093" lon="5.68733">
        <ele>627</ele>
        <time>2019-01-18T12:45:55.000Z</time>
      </trkpt>
      <trkpt lat="43.33094" lon="5.68732">
        <ele>627</ele>
        <time>2019-01-18T12:45:56.000Z</time>
      </trkpt>
      <trkpt lat="43.33094" lon="5.6873">
        <ele>627</ele>
        <time>2019-01-18T12:45:57.000Z</time>
      </trkpt>
      <trkpt lat="43.33094" lon="5.68728">
        <ele>627</ele>
        <time>2019-01-18T12:45:58.000Z</time>
      </trkpt>
      <trkpt lat="43.33094" lon="5.68727">
        <ele>627</ele>
        <time>2019-01-18T12:45:59.000Z</time>
      </trkpt>
      <trkpt lat="43.33095" lon="5.68725">
        <ele>627</ele>
        <time>2019-01-18T12:46:00.000Z</time>
      </trkpt>
      <trkpt lat="43.33095" lon="5.68724">
        <ele>627</ele>
        <time>2019-01-18T12:46:01.000Z</time>
      </trkpt>
      <trkpt lat="43.33095" lon="5.68722">
        <ele>626</ele>
        <time>2019-01-18T12:46:02.000Z</time>
      </trkpt>
      <trkpt lat="43.33096" lon="5.68721">
        <ele>626</ele>
        <time>2019-01-18T12:46:03.000Z</time>
      </trkpt>
      <trkpt lat="43.33096" lon="5.6872">
        <ele>626</ele>
        <time>2019-01-18T12:46:04.000Z</time>
      </trkpt>
      <trkpt lat="43.33096" lon="5.68718">
        <ele>626</ele>
        <time>2019-01-18T12:46:05.000Z</time>
      </trkpt>
      <trkpt lat="43.33097" lon="5.68716">
        <ele>626</ele>
        <time>2019-01-18T12:46:06.000Z</time>
      </trkpt>
      <trkpt lat="43.33097" lon="5.68715">
        <ele>626</ele>
        <time>2019-01-18T12:46:07.000Z</time>
      </trkpt>
      <trkpt lat="43.33097" lon="5.68714">
        <ele>626</ele>
        <time>2019-01-18T12:46:08.000Z</time>
      </trkpt>
      <trkpt lat="43.33098" lon="5.68713">
        <ele>626</ele>
        <time>2019-01-18T12:46:09.000Z</time>
      </trkpt>
      <trkpt lat="43.33099" lon="5.68713">
        <ele>626</ele>
        <time>2019-01-18T12:46:10.000Z</time>
      </trkpt>
      <trkpt lat="43.331" lon="5.68712">
        <ele>626</ele>
        <time>2019-01-18T12:46:11.000Z</time>
      </trkpt>
      <trkpt lat="43.33101" lon="5.68712">
        <ele>626</ele>
        <time>2019-01-18T12:46:12.000Z</time>
      </trkpt>
      <trkpt lat="43.33102" lon="5.68712">
        <ele>626</ele>
        <time>2019-01-18T12:46:13.000Z</time>
      </trkpt>
      <trkpt lat="43.33103" lon="5.68712">
        <ele>626</ele>
        <time>2019-01-18T12:46:14.000Z</time>
      </trkpt>
      <trkpt lat="43.33104" lon="5.68712">
        <ele>626</ele>
        <time>2019-01-18T12:46:15.000Z</time>
      </trkpt>
      <trkpt lat="43.33105" lon="5.68712">
        <ele>626</ele>
        <time>2019-01-18T12:46:16.000Z</time>
      </trkpt>
      <trkpt lat="43.33106" lon="5.68712">
        <ele>626</ele>
        <time>2019-01-18T12:46:17.000Z</time>
      </trkpt>
      <trkpt lat="43.33107" lon="5.68712">
        <ele>626</ele>
        <time>2019-01-18T12:46:18.000Z</time>
      </trkpt>
      <trkpt lat="43.33108" lon="5.68713">
        <ele>626</ele>
        <time>2019-01-18T12:46:19.000Z</time>
      </trkpt>
      <trkpt lat="43.33109" lon="5.68713">
        <ele>626</ele>
        <time>2019-01-18T12:46:20.000Z</time>
      </trkpt>
      <trkpt lat="43.3311" lon="5.68714">
        <ele>626</ele>
        <time>2019-01-18T12:46:21.000Z</time>
      </trkpt>
      <trkpt lat="43.3311" lon="5.68714">
        <ele>626</ele>
        <time>2019-01-18T12:46:22.000Z</time>
      </trkpt>
      <trkpt lat="43.33111" lon="5.68714">
        <ele>626</ele>
        <time>2019-01-18T12:46:23.000Z</time>
      </trkpt>
      <trkpt lat="43.33112" lon="5.68714">
        <ele>626</ele>
        <time>2019-01-18T12:46:24.000Z</time>
      </trkpt>
      <trkpt lat="43.33113" lon="5.68714">
        <ele>626</ele>
        <time>2019-01-18T12:46:25.000Z</time>
      </trkpt>
      <trkpt lat="43.33114" lon="5.68714">
        <ele>626</ele>
        <time>2019-01-18T12:46:26.000Z</time>
      </trkpt>
      <trkpt lat="43.33115" lon="5.68713">
        <ele>626</ele>
        <time>2019-01-18T12:46:27.000Z</time>
      </trkpt>
      <trkpt lat="43.33116" lon="5.68713">
        <ele>626</ele>
        <time>2019-01-18T12:46:28.000Z</time>
      </trkpt>
      <trkpt lat="43.33118" lon="5.68713">
        <ele>626</ele>
        <time>2019-01-18T12:46:29.000Z</time>
      </trkpt>
      <trkpt lat="43.33119" lon="5.68713">
        <ele>626</ele>
        <time>2019-01-18T12:46:30.000Z</time>
      </trkpt>
      <trkpt lat="43.33121" lon="5.68713">
        <ele>626</ele>
        <time>2019-01-18T12:46:31.000Z</time>
      </trkpt>
      <trkpt lat="43.33122" lon="5.68713">
        <ele>626</ele>
        <time>2019-01-18T12:46:32.000Z</time>
      </trkpt>
      <trkpt lat="43.33123" lon="5.68713">
        <ele>626</ele>
        <time>2019-01-18T12:46:33.000Z</time>
      </trkpt>
      <trkpt lat="43.33124" lon="5.68713">
        <ele>626</ele>
        <time>2019-01-18T12:46:34.000Z</time>
      </trkpt>
      <trkpt lat="43.33125" lon="5.68712">
        <ele>626</ele>
        <time>2019-01-18T12:46:35.000Z</time>
      </trkpt>
      <trkpt lat="43.33126" lon="5.68711">
        <ele>626</ele>
        <time>2019-01-18T12:46:36.000Z</time>
      </trkpt>
      <trkpt lat="43.33127" lon="5.68711">
        <ele>626</ele>
        <time>2019-01-18T12:46:37.000Z</time>
      </trkpt>
      <trkpt lat="43.33128" lon="5.6871">
        <ele>626</ele>
        <time>2019-01-18T12:46:38.000Z</time>
      </trkpt>
      <trkpt lat="43.33129" lon="5.68708">
        <ele>626</ele>
        <time>2019-01-18T12:46:39.000Z</time>
      </trkpt>
      <trkpt lat="43.33129" lon="5.68707">
        <ele>626</ele>
        <time>2019-01-18T12:46:40.000Z</time>
      </trkpt>
      <trkpt lat="43.3313" lon="5.68706">
        <ele>626</ele>
        <time>2019-01-18T12:46:41.000Z</time>
      </trkpt>
      <trkpt lat="43.3313" lon="5.68704">
        <ele>626</ele>
        <time>2019-01-18T12:46:42.000Z</time>
      </trkpt>
      <trkpt lat="43.33131" lon="5.68703">
        <ele>626</ele>
        <time>2019-01-18T12:46:43.000Z</time>
      </trkpt>
      <trkpt lat="43.33132" lon="5.68702">
        <ele>626</ele>
        <time>2019-01-18T12:46:44.000Z</time>
      </trkpt>
      <trkpt lat="43.33132" lon="5.687">
        <ele>626</ele>
        <time>2019-01-18T12:46:45.000Z</time>
      </trkpt>
      <trkpt lat="43.33133" lon="5.68699">
        <ele>626</ele>
        <time>2019-01-18T12:46:46.000Z</time>
      </trkpt>
      <trkpt lat="43.33133" lon="5.68698">
        <ele>626</ele>
        <time>2019-01-18T12:46:47.000Z</time>
      </trkpt>
      <trkpt lat="43.33134" lon="5.68696">
        <ele>626</ele>
        <time>2019-01-18T12:46:48.000Z</time>
      </trkpt>
      <trkpt lat="43.33134" lon="5.68695">
        <ele>627</ele>
        <time>2019-01-18T12:46:49.000Z</time>
      </trkpt>
      <trkpt lat="43.33135" lon="5.68694">
        <ele>627</ele>
        <time>2019-01-18T12:46:50.000Z</time>
      </trkpt>
      <trkpt lat="43.33135" lon="5.68693">
        <ele>627</ele>
        <time>2019-01-18T12:46:51.000Z</time>
      </trkpt>
      <trkpt lat="43.33136" lon="5.68692">
        <ele>627</ele>
        <time>2019-01-18T12:46:52.000Z</time>
      </trkpt>
      <trkpt lat="43.33136" lon="5.6869">
        <ele>627</ele>
        <time>2019-01-18T12:46:53.000Z</time>
      </trkpt>
      <trkpt lat="43.33136" lon="5.68689">
        <ele>627</ele>
        <time>2019-01-18T12:46:54.000Z</time>
      </trkpt>
      <trkpt lat="43.33137" lon="5.68688">
        <ele>627</ele>
        <time>2019-01-18T12:46:55.000Z</time>
      </trkpt>
      <trkpt lat="43.33137" lon="5.68686">
        <ele>627</ele>
        <time>2019-01-18T12:46:56.000Z</time>
      </trkpt>
      <trkpt lat="43.33137" lon="5.68685">
        <ele>627</ele>
        <time>2019-01-18T12:46:57.000Z</time>
      </trkpt>
      <trkpt lat="43.33137" lon="5.68683">
        <ele>627</ele>
        <time>2019-01-18T12:46:58.000Z</time>
      </trkpt>
      <trkpt lat="43.33138" lon="5.68682">
        <ele>627</ele>
        <time>2019-01-18T12:46:59.000Z</time>
      </trkpt>
      <trkpt lat="43.33138" lon="5.6868">
        <ele>627</ele>
        <time>2019-01-18T12:47:00.000Z</time>
      </trkpt>
      <trkpt lat="43.33138" lon="5.68679">
        <ele>627</ele>
        <time>2019-01-18T12:47:01.000Z</time>
      </trkpt>
      <trkpt lat="43.33138" lon="5.68677">
        <ele>627</ele>
        <time>2019-01-18T12:47:02.000Z</time>
      </trkpt>
      <trkpt lat="43.33139" lon="5.68676">
        <ele>627</ele>
        <time>2019-01-18T12:47:03.000Z</time>
      </trkpt>
      <trkpt lat="43.33139" lon="5.68674">
        <ele>627</ele>
        <time>2019-01-18T12:47:04.000Z</time>
      </trkpt>
      <trkpt lat="43.33139" lon="5.68672">
        <ele>627</ele>
        <time>2019-01-18T12:47:05.000Z</time>
      </trkpt>
      <trkpt lat="43.3314" lon="5.68671">
        <ele>627</ele>
        <time>2019-01-18T12:47:06.000Z</time>
      </trkpt>
      <trkpt lat="43.3314" lon="5.68669">
        <ele>627</ele>
        <time>2019-01-18T12:47:07.000Z</time>
      </trkpt>
      <trkpt lat="43.3314" lon="5.68667">
        <ele>627</ele>
        <time>2019-01-18T12:47:08.000Z</time>
      </trkpt>
      <trkpt lat="43.3314" lon="5.68666">
        <ele>627</ele>
        <time>2019-01-18T12:47:09.000Z</time>
      </trkpt>
      <trkpt lat="43.3314" lon="5.68664">
        <ele>626</ele>
        <time>2019-01-18T12:47:10.000Z</time>
      </trkpt>
      <trkpt lat="43.3314" lon="5.68662">
        <ele>626</ele>
        <time>2019-01-18T12:47:11.000Z</time>
      </trkpt>
      <trkpt lat="43.3314" lon="5.6866">
        <ele>626</ele>
        <time>2019-01-18T12:47:12.000Z</time>
      </trkpt>
      <trkpt lat="43.3314" lon="5.68658">
        <ele>626</ele>
        <time>2019-01-18T12:47:13.000Z</time>
      </trkpt>
      <trkpt lat="43.3314" lon="5.68656">
        <ele>626</ele>
        <time>2019-01-18T12:47:14.000Z</time>
      </trkpt>
      <trkpt lat="43.3314" lon="5.68655">
        <ele>626</ele>
        <time>2019-01-18T12:47:15.000Z</time>
      </trkpt>
      <trkpt lat="43.3314" lon="5.68653">
        <ele>626</ele>
        <time>2019-01-18T12:47:16.000Z</time>
      </trkpt>
      <trkpt lat="43.3314" lon="5.68651">
        <ele>626</ele>
        <time>2019-01-18T12:47:17.000Z</time>
      </trkpt>
      <trkpt lat="43.3314" lon="5.68649">
        <ele>626</ele>
        <time>2019-01-18T12:47:18.000Z</time>
      </trkpt>
      <trkpt lat="43.3314" lon="5.68648">
        <ele>626</ele>
        <time>2019-01-18T12:47:19.000Z</time>
      </trkpt>
      <trkpt lat="43.3314" lon="5.68646">
        <ele>626</ele>
        <time>2019-01-18T12:47:20.000Z</time>
      </trkpt>
      <trkpt lat="43.33141" lon="5.68644">
        <ele>626</ele>
        <time>2019-01-18T12:47:21.000Z</time>
      </trkpt>
      <trkpt lat="43.33141" lon="5.68643">
        <ele>626</ele>
        <time>2019-01-18T12:47:22.000Z</time>
      </trkpt>
      <trkpt lat="43.33141" lon="5.68641">
        <ele>626</ele>
        <time>2019-01-18T12:47:23.000Z</time>
      </trkpt>
      <trkpt lat="43.33141" lon="5.6864">
        <ele>625</ele>
        <time>2019-01-18T12:47:24.000Z</time>
      </trkpt>
      <trkpt lat="43.33142" lon="5.68638">
        <ele>625</ele>
        <time>2019-01-18T12:47:25.000Z</time>
      </trkpt>
      <trkpt lat="43.33142" lon="5.68637">
        <ele>625</ele>
        <time>2019-01-18T12:47:26.000Z</time>
      </trkpt>
      <trkpt lat="43.33142" lon="5.68635">
        <ele>625</ele>
        <time>2019-01-18T12:47:27.000Z</time>
      </trkpt>
      <trkpt lat="43.33143" lon="5.68633">
        <ele>625</ele>
        <time>2019-01-18T12:47:28.000Z</time>
      </trkpt>
      <trkpt lat="43.33143" lon="5.68632">
        <ele>624</ele>
        <time>2019-01-18T12:47:29.000Z</time>
      </trkpt>
      <trkpt lat="43.33143" lon="5.6863">
        <ele>624</ele>
        <time>2019-01-18T12:47:30.000Z</time>
      </trkpt>
      <trkpt lat="43.33143" lon="5.68628">
        <ele>624</ele>
        <time>2019-01-18T12:47:31.000Z</time>
      </trkpt>
      <trkpt lat="43.33144" lon="5.68627">
        <ele>624</ele>
        <time>2019-01-18T12:47:32.000Z</time>
      </trkpt>
      <trkpt lat="43.33144" lon="5.68626">
        <ele>624</ele>
        <time>2019-01-18T12:47:33.000Z</time>
      </trkpt>
      <trkpt lat="43.33145" lon="5.68624">
        <ele>624</ele>
        <time>2019-01-18T12:47:34.000Z</time>
      </trkpt>
      <trkpt lat="43.33145" lon="5.68623">
        <ele>624</ele>
        <time>2019-01-18T12:47:35.000Z</time>
      </trkpt>
      <trkpt lat="43.33145" lon="5.68622">
        <ele>624</ele>
        <time>2019-01-18T12:47:36.000Z</time>
      </trkpt>
      <trkpt lat="43.33145" lon="5.68621">
        <ele>624</ele>
        <time>2019-01-18T12:47:37.000Z</time>
      </trkpt>
      <trkpt lat="43.33145" lon="5.6862">
        <ele>623</ele>
        <time>2019-01-18T12:47:38.000Z</time>
      </trkpt>
      <trkpt lat="43.33145" lon="5.6862">
        <ele>623</ele>
        <time>2019-01-18T12:47:39.000Z</time>
      </trkpt>
      <trkpt lat="43.33145" lon="5.68619">
        <ele>623</ele>
        <time>2019-01-18T12:47:40.000Z</time>
      </trkpt>
      <trkpt lat="43.33145" lon="5.68618">
        <ele>623</ele>
        <time>2019-01-18T12:47:41.000Z</time>
      </trkpt>
      <trkpt lat="43.33144" lon="5.68617">
        <ele>623</ele>
        <time>2019-01-18T12:47:42.000Z</time>
      </trkpt>
      <trkpt lat="43.33143" lon="5.68617">
        <ele>623</ele>
        <time>2019-01-18T12:47:43.000Z</time>
      </trkpt>
      <trkpt lat="43.33143" lon="5.68616">
        <ele>623</ele>
        <time>2019-01-18T12:47:44.000Z</time>
      </trkpt>
      <trkpt lat="43.33142" lon="5.68615">
        <ele>623</ele>
        <time>2019-01-18T12:47:45.000Z</time>
      </trkpt>
      <trkpt lat="43.33141" lon="5.68615">
        <ele>623</ele>
        <time>2019-01-18T12:47:46.000Z</time>
      </trkpt>
      <trkpt lat="43.3314" lon="5.68614">
        <ele>623</ele>
        <time>2019-01-18T12:47:47.000Z</time>
      </trkpt>
      <trkpt lat="43.33138" lon="5.68614">
        <ele>623</ele>
        <time>2019-01-18T12:47:48.000Z</time>
      </trkpt>
      <trkpt lat="43.33137" lon="5.68613">
        <ele>622</ele>
        <time>2019-01-18T12:47:49.000Z</time>
      </trkpt>
      <trkpt lat="43.33136" lon="5.68612">
        <ele>622</ele>
        <time>2019-01-18T12:47:50.000Z</time>
      </trkpt>
      <trkpt lat="43.33135" lon="5.68611">
        <ele>622</ele>
        <time>2019-01-18T12:47:51.000Z</time>
      </trkpt>
      <trkpt lat="43.33134" lon="5.6861">
        <ele>622</ele>
        <time>2019-01-18T12:47:52.000Z</time>
      </trkpt>
      <trkpt lat="43.33133" lon="5.68609">
        <ele>622</ele>
        <time>2019-01-18T12:47:53.000Z</time>
      </trkpt>
      <trkpt lat="43.33132" lon="5.68608">
        <ele>622</ele>
        <time>2019-01-18T12:47:54.000Z</time>
      </trkpt>
      <trkpt lat="43.33131" lon="5.68607">
        <ele>622</ele>
        <time>2019-01-18T12:47:55.000Z</time>
      </trkpt>
      <trkpt lat="43.3313" lon="5.68606">
        <ele>622</ele>
        <time>2019-01-18T12:47:56.000Z</time>
      </trkpt>
      <trkpt lat="43.33129" lon="5.68605">
        <ele>622</ele>
        <time>2019-01-18T12:47:57.000Z</time>
      </trkpt>
      <trkpt lat="43.33128" lon="5.68605">
        <ele>622</ele>
        <time>2019-01-18T12:47:58.000Z</time>
      </trkpt>
      <trkpt lat="43.33127" lon="5.68604">
        <ele>622</ele>
        <time>2019-01-18T12:47:59.000Z</time>
      </trkpt>
      <trkpt lat="43.33127" lon="5.68603">
        <ele>621</ele>
        <time>2019-01-18T12:48:00.000Z</time>
      </trkpt>
      <trkpt lat="43.33126" lon="5.68602">
        <ele>621</ele>
        <time>2019-01-18T12:48:01.000Z</time>
      </trkpt>
      <trkpt lat="43.33125" lon="5.68601">
        <ele>621</ele>
        <time>2019-01-18T12:48:02.000Z</time>
      </trkpt>
      <trkpt lat="43.33124" lon="5.686">
        <ele>621</ele>
        <time>2019-01-18T12:48:03.000Z</time>
      </trkpt>
      <trkpt lat="43.33124" lon="5.68598">
        <ele>621</ele>
        <time>2019-01-18T12:48:04.000Z</time>
      </trkpt>
      <trkpt lat="43.33124" lon="5.68597">
        <ele>621</ele>
        <time>2019-01-18T12:48:05.000Z</time>
      </trkpt>
      <trkpt lat="43.33124" lon="5.68595">
        <ele>620</ele>
        <time>2019-01-18T12:48:06.000Z</time>
      </trkpt>
      <trkpt lat="43.33124" lon="5.68593">
        <ele>620</ele>
        <time>2019-01-18T12:48:07.000Z</time>
      </trkpt>
      <trkpt lat="43.33125" lon="5.68591">
        <ele>620</ele>
        <time>2019-01-18T12:48:08.000Z</time>
      </trkpt>
      <trkpt lat="43.33125" lon="5.68589">
        <ele>620</ele>
        <time>2019-01-18T12:48:09.000Z</time>
      </trkpt>
      <trkpt lat="43.33125" lon="5.68588">
        <ele>620</ele>
        <time>2019-01-18T12:48:10.000Z</time>
      </trkpt>
      <trkpt lat="43.33126" lon="5.68586">
        <ele>620</ele>
        <time>2019-01-18T12:48:11.000Z</time>
      </trkpt>
      <trkpt lat="43.33126" lon="5.68584">
        <ele>620</ele>
        <time>2019-01-18T12:48:12.000Z</time>
      </trkpt>
      <trkpt lat="43.33126" lon="5.68582">
        <ele>620</ele>
        <time>2019-01-18T12:48:13.000Z</time>
      </trkpt>
      <trkpt lat="43.33126" lon="5.6858">
        <ele>620</ele>
        <time>2019-01-18T12:48:14.000Z</time>
      </trkpt>
      <trkpt lat="43.33127" lon="5.68578">
        <ele>620</ele>
        <time>2019-01-18T12:48:15.000Z</time>
      </trkpt>
      <trkpt lat="43.33127" lon="5.68576">
        <ele>620</ele>
        <time>2019-01-18T12:48:16.000Z</time>
      </trkpt>
      <trkpt lat="43.33127" lon="5.68574">
        <ele>620</ele>
        <time>2019-01-18T12:48:17.000Z</time>
      </trkpt>
      <trkpt lat="43.33127" lon="5.68573">
        <ele>620</ele>
        <time>2019-01-18T12:48:18.000Z</time>
      </trkpt>
      <trkpt lat="43.33127" lon="5.68571">
        <ele>620</ele>
        <time>2019-01-18T12:48:19.000Z</time>
      </trkpt>
      <trkpt lat="43.33127" lon="5.68569">
        <ele>620</ele>
        <time>2019-01-18T12:48:20.000Z</time>
      </trkpt>
      <trkpt lat="43.33127" lon="5.68568">
        <ele>620</ele>
        <time>2019-01-18T12:48:21.000Z</time>
      </trkpt>
      <trkpt lat="43.33128" lon="5.68566">
        <ele>620</ele>
        <time>2019-01-18T12:48:22.000Z</time>
      </trkpt>
      <trkpt lat="43.33128" lon="5.68564">
        <ele>620</ele>
        <time>2019-01-18T12:48:23.000Z</time>
      </trkpt>
      <trkpt lat="43.33129" lon="5.68562">
        <ele>620</ele>
        <time>2019-01-18T12:48:24.000Z</time>
      </trkpt>
      <trkpt lat="43.33129" lon="5.68561">
        <ele>620</ele>
        <time>2019-01-18T12:48:25.000Z</time>
      </trkpt>
      <trkpt lat="43.3313" lon="5.68559">
        <ele>620</ele>
        <time>2019-01-18T12:48:26.000Z</time>
      </trkpt>
      <trkpt lat="43.33131" lon="5.68558">
        <ele>620</ele>
        <time>2019-01-18T12:48:27.000Z</time>
      </trkpt>
      <trkpt lat="43.33131" lon="5.68556">
        <ele>620</ele>
        <time>2019-01-18T12:48:28.000Z</time>
      </trkpt>
      <trkpt lat="43.33132" lon="5.68555">
        <ele>620</ele>
        <time>2019-01-18T12:48:29.000Z</time>
      </trkpt>
      <trkpt lat="43.33132" lon="5.68553">
        <ele>620</ele>
        <time>2019-01-18T12:48:30.000Z</time>
      </trkpt>
      <trkpt lat="43.33133" lon="5.68552">
        <ele>620</ele>
        <time>2019-01-18T12:48:31.000Z</time>
      </trkpt>
      <trkpt lat="43.33133" lon="5.68551">
        <ele>620</ele>
        <time>2019-01-18T12:48:32.000Z</time>
      </trkpt>
      <trkpt lat="43.33133" lon="5.68549">
        <ele>620</ele>
        <time>2019-01-18T12:48:33.000Z</time>
      </trkpt>
      <trkpt lat="43.33134" lon="5.68547">
        <ele>619</ele>
        <time>2019-01-18T12:48:34.000Z</time>
      </trkpt>
      <trkpt lat="43.33134" lon="5.68545">
        <ele>619</ele>
        <time>2019-01-18T12:48:35.000Z</time>
      </trkpt>
      <trkpt lat="43.33134" lon="5.68544">
        <ele>619</ele>
        <time>2019-01-18T12:48:36.000Z</time>
      </trkpt>
      <trkpt lat="43.33134" lon="5.68542">
        <ele>619</ele>
        <time>2019-01-18T12:48:37.000Z</time>
      </trkpt>
      <trkpt lat="43.33134" lon="5.6854">
        <ele>619</ele>
        <time>2019-01-18T12:48:38.000Z</time>
      </trkpt>
      <trkpt lat="43.33134" lon="5.68539">
        <ele>619</ele>
        <time>2019-01-18T12:48:39.000Z</time>
      </trkpt>
      <trkpt lat="43.33134" lon="5.68538">
        <ele>619</ele>
        <time>2019-01-18T12:48:40.000Z</time>
      </trkpt>
      <trkpt lat="43.33134" lon="5.68536">
        <ele>618</ele>
        <time>2019-01-18T12:48:41.000Z</time>
      </trkpt>
      <trkpt lat="43.33134" lon="5.68535">
        <ele>618</ele>
        <time>2019-01-18T12:48:42.000Z</time>
      </trkpt>
      <trkpt lat="43.33134" lon="5.68533">
        <ele>618</ele>
        <time>2019-01-18T12:48:43.000Z</time>
      </trkpt>
      <trkpt lat="43.33133" lon="5.68531">
        <ele>618</ele>
        <time>2019-01-18T12:48:44.000Z</time>
      </trkpt>
      <trkpt lat="43.33133" lon="5.68529">
        <ele>618</ele>
        <time>2019-01-18T12:48:45.000Z</time>
      </trkpt>
      <trkpt lat="43.33132" lon="5.68528">
        <ele>618</ele>
        <time>2019-01-18T12:48:46.000Z</time>
      </trkpt>
      <trkpt lat="43.33132" lon="5.68526">
        <ele>618</ele>
        <time>2019-01-18T12:48:47.000Z</time>
      </trkpt>
      <trkpt lat="43.33131" lon="5.68525">
        <ele>618</ele>
        <time>2019-01-18T12:48:48.000Z</time>
      </trkpt>
      <trkpt lat="43.33131" lon="5.68523">
        <ele>617</ele>
        <time>2019-01-18T12:48:49.000Z</time>
      </trkpt>
      <trkpt lat="43.3313" lon="5.68522">
        <ele>617</ele>
        <time>2019-01-18T12:48:50.000Z</time>
      </trkpt>
      <trkpt lat="43.3313" lon="5.6852">
        <ele>617</ele>
        <time>2019-01-18T12:48:51.000Z</time>
      </trkpt>
      <trkpt lat="43.33129" lon="5.68519">
        <ele>617</ele>
        <time>2019-01-18T12:48:52.000Z</time>
      </trkpt>
      <trkpt lat="43.33128" lon="5.68518">
        <ele>617</ele>
        <time>2019-01-18T12:48:53.000Z</time>
      </trkpt>
      <trkpt lat="43.33127" lon="5.68517">
        <ele>617</ele>
        <time>2019-01-18T12:48:54.000Z</time>
      </trkpt>
      <trkpt lat="43.33126" lon="5.68516">
        <ele>617</ele>
        <time>2019-01-18T12:48:55.000Z</time>
      </trkpt>
      <trkpt lat="43.33125" lon="5.68515">
        <ele>617</ele>
        <time>2019-01-18T12:48:56.000Z</time>
      </trkpt>
      <trkpt lat="43.33124" lon="5.68514">
        <ele>617</ele>
        <time>2019-01-18T12:48:57.000Z</time>
      </trkpt>
      <trkpt lat="43.33123" lon="5.68514">
        <ele>616</ele>
        <time>2019-01-18T12:48:58.000Z</time>
      </trkpt>
      <trkpt lat="43.33122" lon="5.68513">
        <ele>616</ele>
        <time>2019-01-18T12:48:59.000Z</time>
      </trkpt>
      <trkpt lat="43.33121" lon="5.68512">
        <ele>616</ele>
        <time>2019-01-18T12:49:00.000Z</time>
      </trkpt>
      <trkpt lat="43.3312" lon="5.68511">
        <ele>616</ele>
        <time>2019-01-18T12:49:01.000Z</time>
      </trkpt>
      <trkpt lat="43.33119" lon="5.68509">
        <ele>616</ele>
        <time>2019-01-18T12:49:02.000Z</time>
      </trkpt>
      <trkpt lat="43.33119" lon="5.68508">
        <ele>616</ele>
        <time>2019-01-18T12:49:03.000Z</time>
      </trkpt>
      <trkpt lat="43.33118" lon="5.68506">
        <ele>616</ele>
        <time>2019-01-18T12:49:04.000Z</time>
      </trkpt>
      <trkpt lat="43.33118" lon="5.68505">
        <ele>616</ele>
        <time>2019-01-18T12:49:05.000Z</time>
      </trkpt>
      <trkpt lat="43.33118" lon="5.68503">
        <ele>616</ele>
        <time>2019-01-18T12:49:06.000Z</time>
      </trkpt>
      <trkpt lat="43.33117" lon="5.68501">
        <ele>616</ele>
        <time>2019-01-18T12:49:07.000Z</time>
      </trkpt>
      <trkpt lat="43.33117" lon="5.68499">
        <ele>616</ele>
        <time>2019-01-18T12:49:08.000Z</time>
      </trkpt>
      <trkpt lat="43.33116" lon="5.68498">
        <ele>616</ele>
        <time>2019-01-18T12:49:09.000Z</time>
      </trkpt>
      <trkpt lat="43.33116" lon="5.68496">
        <ele>616</ele>
        <time>2019-01-18T12:49:10.000Z</time>
      </trkpt>
      <trkpt lat="43.33115" lon="5.68495">
        <ele>616</ele>
        <time>2019-01-18T12:49:11.000Z</time>
      </trkpt>
      <trkpt lat="43.33114" lon="5.68494">
        <ele>616</ele>
        <time>2019-01-18T12:49:12.000Z</time>
      </trkpt>
      <trkpt lat="43.33114" lon="5.68492">
        <ele>616</ele>
        <time>2019-01-18T12:49:13.000Z</time>
      </trkpt>
      <trkpt lat="43.33113" lon="5.68491">
        <ele>615</ele>
        <time>2019-01-18T12:49:14.000Z</time>
      </trkpt>
      <trkpt lat="43.33112" lon="5.6849">
        <ele>615</ele>
        <time>2019-01-18T12:49:15.000Z</time>
      </trkpt>
      <trkpt lat="43.33111" lon="5.68488">
        <ele>615</ele>
        <time>2019-01-18T12:49:16.000Z</time>
      </trkpt>
      <trkpt lat="43.33111" lon="5.68487">
        <ele>615</ele>
        <time>2019-01-18T12:49:17.000Z</time>
      </trkpt>
      <trkpt lat="43.3311" lon="5.68486">
        <ele>615</ele>
        <time>2019-01-18T12:49:18.000Z</time>
      </trkpt>
      <trkpt lat="43.33109" lon="5.68485">
        <ele>614</ele>
        <time>2019-01-18T12:49:19.000Z</time>
      </trkpt>
      <trkpt lat="43.33109" lon="5.68483">
        <ele>614</ele>
        <time>2019-01-18T12:49:20.000Z</time>
      </trkpt>
      <trkpt lat="43.33108" lon="5.68481">
        <ele>614</ele>
        <time>2019-01-18T12:49:21.000Z</time>
      </trkpt>
      <trkpt lat="43.33108" lon="5.68479">
        <ele>614</ele>
        <time>2019-01-18T12:49:22.000Z</time>
      </trkpt>
      <trkpt lat="43.33107" lon="5.68478">
        <ele>614</ele>
        <time>2019-01-18T12:49:23.000Z</time>
      </trkpt>
      <trkpt lat="43.33107" lon="5.68476">
        <ele>613</ele>
        <time>2019-01-18T12:49:24.000Z</time>
      </trkpt>
      <trkpt lat="43.33107" lon="5.68474">
        <ele>613</ele>
        <time>2019-01-18T12:49:25.000Z</time>
      </trkpt>
      <trkpt lat="43.33107" lon="5.68472">
        <ele>613</ele>
        <time>2019-01-18T12:49:26.000Z</time>
      </trkpt>
      <trkpt lat="43.33107" lon="5.68471">
        <ele>613</ele>
        <time>2019-01-18T12:49:27.000Z</time>
      </trkpt>
      <trkpt lat="43.33107" lon="5.68469">
        <ele>613</ele>
        <time>2019-01-18T12:49:28.000Z</time>
      </trkpt>
      <trkpt lat="43.33107" lon="5.68467">
        <ele>613</ele>
        <time>2019-01-18T12:49:29.000Z</time>
      </trkpt>
      <trkpt lat="43.33107" lon="5.68466">
        <ele>613</ele>
        <time>2019-01-18T12:49:30.000Z</time>
      </trkpt>
      <trkpt lat="43.33107" lon="5.68464">
        <ele>612</ele>
        <time>2019-01-18T12:49:31.000Z</time>
      </trkpt>
      <trkpt lat="43.33107" lon="5.68462">
        <ele>612</ele>
        <time>2019-01-18T12:49:32.000Z</time>
      </trkpt>
      <trkpt lat="43.33108" lon="5.6846">
        <ele>612</ele>
        <time>2019-01-18T12:49:33.000Z</time>
      </trkpt>
      <trkpt lat="43.33108" lon="5.68458">
        <ele>612</ele>
        <time>2019-01-18T12:49:34.000Z</time>
      </trkpt>
      <trkpt lat="43.33108" lon="5.68457">
        <ele>612</ele>
        <time>2019-01-18T12:49:35.000Z</time>
      </trkpt>
      <trkpt lat="43.33108" lon="5.68455">
        <ele>612</ele>
        <time>2019-01-18T12:49:36.000Z</time>
      </trkpt>
      <trkpt lat="43.33109" lon="5.68453">
        <ele>612</ele>
        <time>2019-01-18T12:49:37.000Z</time>
      </trkpt>
      <trkpt lat="43.33109" lon="5.68451">
        <ele>612</ele>
        <time>2019-01-18T12:49:38.000Z</time>
      </trkpt>
      <trkpt lat="43.33109" lon="5.68449">
        <ele>612</ele>
        <time>2019-01-18T12:49:39.000Z</time>
      </trkpt>
      <trkpt lat="43.33109" lon="5.68447">
        <ele>612</ele>
        <time>2019-01-18T12:49:40.000Z</time>
      </trkpt>
      <trkpt lat="43.3311" lon="5.68446">
        <ele>612</ele>
        <time>2019-01-18T12:49:41.000Z</time>
      </trkpt>
      <trkpt lat="43.3311" lon="5.68444">
        <ele>612</ele>
        <time>2019-01-18T12:49:42.000Z</time>
      </trkpt>
      <trkpt lat="43.3311" lon="5.68442">
        <ele>612</ele>
        <time>2019-01-18T12:49:43.000Z</time>
      </trkpt>
      <trkpt lat="43.3311" lon="5.68441">
        <ele>612</ele>
        <time>2019-01-18T12:49:44.000Z</time>
      </trkpt>
      <trkpt lat="43.33111" lon="5.68439">
        <ele>612</ele>
        <time>2019-01-18T12:49:45.000Z</time>
      </trkpt>
      <trkpt lat="43.33111" lon="5.68437">
        <ele>612</ele>
        <time>2019-01-18T12:49:46.000Z</time>
      </trkpt>
      <trkpt lat="43.33111" lon="5.68435">
        <ele>612</ele>
        <time>2019-01-18T12:49:47.000Z</time>
      </trkpt>
      <trkpt lat="43.33111" lon="5.68433">
        <ele>612</ele>
        <time>2019-01-18T12:49:48.000Z</time>
      </trkpt>
      <trkpt lat="43.33112" lon="5.68432">
        <ele>611</ele>
        <time>2019-01-18T12:49:49.000Z</time>
      </trkpt>
      <trkpt lat="43.33112" lon="5.6843">
        <ele>611</ele>
        <time>2019-01-18T12:49:50.000Z</time>
      </trkpt>
      <trkpt lat="43.33112" lon="5.68428">
        <ele>611</ele>
        <time>2019-01-18T12:49:51.000Z</time>
      </trkpt>
      <trkpt lat="43.33112" lon="5.68426">
        <ele>611</ele>
        <time>2019-01-18T12:49:52.000Z</time>
      </trkpt>
      <trkpt lat="43.33112" lon="5.68425">
        <ele>611</ele>
        <time>2019-01-18T12:49:53.000Z</time>
      </trkpt>
      <trkpt lat="43.33112" lon="5.68423">
        <ele>611</ele>
        <time>2019-01-18T12:49:54.000Z</time>
      </trkpt>
      <trkpt lat="43.33113" lon="5.68421">
        <ele>611</ele>
        <time>2019-01-18T12:49:55.000Z</time>
      </trkpt>
      <trkpt lat="43.33113" lon="5.6842">
        <ele>611</ele>
        <time>2019-01-18T12:49:56.000Z</time>
      </trkpt>
      <trkpt lat="43.33113" lon="5.68418">
        <ele>611</ele>
        <time>2019-01-18T12:49:57.000Z</time>
      </trkpt>
      <trkpt lat="43.33113" lon="5.68416">
        <ele>611</ele>
        <time>2019-01-18T12:49:58.000Z</time>
      </trkpt>
      <trkpt lat="43.33113" lon="5.68415">
        <ele>611</ele>
        <time>2019-01-18T12:49:59.000Z</time>
      </trkpt>
      <trkpt lat="43.33113" lon="5.68413">
        <ele>611</ele>
        <time>2019-01-18T12:50:00.000Z</time>
      </trkpt>
      <trkpt lat="43.33113" lon="5.68411">
        <ele>611</ele>
        <time>2019-01-18T12:50:01.000Z</time>
      </trkpt>
      <trkpt lat="43.33113" lon="5.6841">
        <ele>611</ele>
        <time>2019-01-18T12:50:02.000Z</time>
      </trkpt>
      <trkpt lat="43.33112" lon="5.68408">
        <ele>611</ele>
        <time>2019-01-18T12:50:03.000Z</time>
      </trkpt>
      <trkpt lat="43.33112" lon="5.68406">
        <ele>611</ele>
        <time>2019-01-18T12:50:04.000Z</time>
      </trkpt>
      <trkpt lat="43.33113" lon="5.68404">
        <ele>611</ele>
        <time>2019-01-18T12:50:05.000Z</time>
      </trkpt>
      <trkpt lat="43.33113" lon="5.68403">
        <ele>610</ele>
        <time>2019-01-18T12:50:06.000Z</time>
      </trkpt>
      <trkpt lat="43.33113" lon="5.68401">
        <ele>610</ele>
        <time>2019-01-18T12:50:07.000Z</time>
      </trkpt>
      <trkpt lat="43.33113" lon="5.68399">
        <ele>610</ele>
        <time>2019-01-18T12:50:08.000Z</time>
      </trkpt>
      <trkpt lat="43.33113" lon="5.68397">
        <ele>610</ele>
        <time>2019-01-18T12:50:09.000Z</time>
      </trkpt>
      <trkpt lat="43.33113" lon="5.68396">
        <ele>610</ele>
        <time>2019-01-18T12:50:10.000Z</time>
      </trkpt>
      <trkpt lat="43.33114" lon="5.68395">
        <ele>610</ele>
        <time>2019-01-18T12:50:11.000Z</time>
      </trkpt>
      <trkpt lat="43.33114" lon="5.68394">
        <ele>610</ele>
        <time>2019-01-18T12:50:12.000Z</time>
      </trkpt>
      <trkpt lat="43.33114" lon="5.68392">
        <ele>610</ele>
        <time>2019-01-18T12:50:13.000Z</time>
      </trkpt>
      <trkpt lat="43.33114" lon="5.68391">
        <ele>610</ele>
        <time>2019-01-18T12:50:14.000Z</time>
      </trkpt>
      <trkpt lat="43.33114" lon="5.68389">
        <ele>610</ele>
        <time>2019-01-18T12:50:15.000Z</time>
      </trkpt>
      <trkpt lat="43.33114" lon="5.68388">
        <ele>610</ele>
        <time>2019-01-18T12:50:16.000Z</time>
      </trkpt>
      <trkpt lat="43.33114" lon="5.68386">
        <ele>611</ele>
        <time>2019-01-18T12:50:17.000Z</time>
      </trkpt>
      <trkpt lat="43.33114" lon="5.68385">
        <ele>611</ele>
        <time>2019-01-18T12:50:18.000Z</time>
      </trkpt>
      <trkpt lat="43.33115" lon="5.68383">
        <ele>611</ele>
        <time>2019-01-18T12:50:19.000Z</time>
      </trkpt>
      <trkpt lat="43.33115" lon="5.68381">
        <ele>611</ele>
        <time>2019-01-18T12:50:20.000Z</time>
      </trkpt>
      <trkpt lat="43.33116" lon="5.6838">
        <ele>611</ele>
        <time>2019-01-18T12:50:21.000Z</time>
      </trkpt>
      <trkpt lat="43.33116" lon="5.68379">
        <ele>611</ele>
        <time>2019-01-18T12:50:22.000Z</time>
      </trkpt>
      <trkpt lat="43.33117" lon="5.68378">
        <ele>611</ele>
        <time>2019-01-18T12:50:23.000Z</time>
      </trkpt>
      <trkpt lat="43.33118" lon="5.68378">
        <ele>611</ele>
        <time>2019-01-18T12:50:24.000Z</time>
      </trkpt>
      <trkpt lat="43.33119" lon="5.68377">
        <ele>611</ele>
        <time>2019-01-18T12:50:25.000Z</time>
      </trkpt>
      <trkpt lat="43.3312" lon="5.68376">
        <ele>611</ele>
        <time>2019-01-18T12:50:26.000Z</time>
      </trkpt>
      <trkpt lat="43.3312" lon="5.68376">
        <ele>611</ele>
        <time>2019-01-18T12:50:27.000Z</time>
      </trkpt>
      <trkpt lat="43.33121" lon="5.68375">
        <ele>611</ele>
        <time>2019-01-18T12:50:28.000Z</time>
      </trkpt>
      <trkpt lat="43.33122" lon="5.68375">
        <ele>611</ele>
        <time>2019-01-18T12:50:29.000Z</time>
      </trkpt>
      <trkpt lat="43.33123" lon="5.68374">
        <ele>612</ele>
        <time>2019-01-18T12:50:30.000Z</time>
      </trkpt>
      <trkpt lat="43.33124" lon="5.68373">
        <ele>612</ele>
        <time>2019-01-18T12:50:31.000Z</time>
      </trkpt>
      <trkpt lat="43.33125" lon="5.68372">
        <ele>612</ele>
        <time>2019-01-18T12:50:32.000Z</time>
      </trkpt>
      <trkpt lat="43.33126" lon="5.68372">
        <ele>612</ele>
        <time>2019-01-18T12:50:33.000Z</time>
      </trkpt>
      <trkpt lat="43.33127" lon="5.68371">
        <ele>612</ele>
        <time>2019-01-18T12:50:34.000Z</time>
      </trkpt>
      <trkpt lat="43.33128" lon="5.68371">
        <ele>612</ele>
        <time>2019-01-18T12:50:35.000Z</time>
      </trkpt>
      <trkpt lat="43.33129" lon="5.68371">
        <ele>612</ele>
        <time>2019-01-18T12:50:36.000Z</time>
      </trkpt>
      <trkpt lat="43.3313" lon="5.68371">
        <ele>612</ele>
        <time>2019-01-18T12:50:37.000Z</time>
      </trkpt>
      <trkpt lat="43.33131" lon="5.6837">
        <ele>611</ele>
        <time>2019-01-18T12:50:38.000Z</time>
      </trkpt>
      <trkpt lat="43.33132" lon="5.68371">
        <ele>611</ele>
        <time>2019-01-18T12:50:39.000Z</time>
      </trkpt>
      <trkpt lat="43.33133" lon="5.6837">
        <ele>611</ele>
        <time>2019-01-18T12:50:40.000Z</time>
      </trkpt>
      <trkpt lat="43.33134" lon="5.68371">
        <ele>611</ele>
        <time>2019-01-18T12:50:41.000Z</time>
      </trkpt>
      <trkpt lat="43.33135" lon="5.68371">
        <ele>611</ele>
        <time>2019-01-18T12:50:42.000Z</time>
      </trkpt>
      <trkpt lat="43.33136" lon="5.68372">
        <ele>611</ele>
        <time>2019-01-18T12:50:43.000Z</time>
      </trkpt>
      <trkpt lat="43.33137" lon="5.68373">
        <ele>611</ele>
        <time>2019-01-18T12:50:44.000Z</time>
      </trkpt>
      <trkpt lat="43.33138" lon="5.68374">
        <ele>611</ele>
        <time>2019-01-18T12:50:45.000Z</time>
      </trkpt>
      <trkpt lat="43.33139" lon="5.68376">
        <ele>611</ele>
        <time>2019-01-18T12:50:46.000Z</time>
      </trkpt>
      <trkpt lat="43.3314" lon="5.68377">
        <ele>610</ele>
        <time>2019-01-18T12:50:47.000Z</time>
      </trkpt>
      <trkpt lat="43.3314" lon="5.68379">
        <ele>610</ele>
        <time>2019-01-18T12:50:48.000Z</time>
      </trkpt>
      <trkpt lat="43.33141" lon="5.6838">
        <ele>610</ele>
        <time>2019-01-18T12:50:49.000Z</time>
      </trkpt>
      <trkpt lat="43.33142" lon="5.68382">
        <ele>610</ele>
        <time>2019-01-18T12:50:50.000Z</time>
      </trkpt>
      <trkpt lat="43.33143" lon="5.68383">
        <ele>609</ele>
        <time>2019-01-18T12:50:51.000Z</time>
      </trkpt>
      <trkpt lat="43.33144" lon="5.68385">
        <ele>609</ele>
        <time>2019-01-18T12:50:52.000Z</time>
      </trkpt>
      <trkpt lat="43.33145" lon="5.68386">
        <ele>609</ele>
        <time>2019-01-18T12:50:53.000Z</time>
      </trkpt>
      <trkpt lat="43.33146" lon="5.68388">
        <ele>609</ele>
        <time>2019-01-18T12:50:54.000Z</time>
      </trkpt>
      <trkpt lat="43.33147" lon="5.68389">
        <ele>608</ele>
        <time>2019-01-18T12:50:55.000Z</time>
      </trkpt>
      <trkpt lat="43.33148" lon="5.6839">
        <ele>608</ele>
        <time>2019-01-18T12:50:56.000Z</time>
      </trkpt>
      <trkpt lat="43.33148" lon="5.68391">
        <ele>608</ele>
        <time>2019-01-18T12:50:57.000Z</time>
      </trkpt>
      <trkpt lat="43.33149" lon="5.68391">
        <ele>608</ele>
        <time>2019-01-18T12:50:58.000Z</time>
      </trkpt>
      <trkpt lat="43.3315" lon="5.68392">
        <ele>608</ele>
        <time>2019-01-18T12:50:59.000Z</time>
      </trkpt>
      <trkpt lat="43.33151" lon="5.68393">
        <ele>607</ele>
        <time>2019-01-18T12:51:00.000Z</time>
      </trkpt>
      <trkpt lat="43.33151" lon="5.68394">
        <ele>607</ele>
        <time>2019-01-18T12:51:01.000Z</time>
      </trkpt>
      <trkpt lat="43.33152" lon="5.68395">
        <ele>607</ele>
        <time>2019-01-18T12:51:02.000Z</time>
      </trkpt>
      <trkpt lat="43.33153" lon="5.68396">
        <ele>607</ele>
        <time>2019-01-18T12:51:03.000Z</time>
      </trkpt>
      <trkpt lat="43.33153" lon="5.68397">
        <ele>607</ele>
        <time>2019-01-18T12:51:04.000Z</time>
      </trkpt>
      <trkpt lat="43.33154" lon="5.68398">
        <ele>607</ele>
        <time>2019-01-18T12:51:05.000Z</time>
      </trkpt>
      <trkpt lat="43.33154" lon="5.68398">
        <ele>606</ele>
        <time>2019-01-18T12:51:06.000Z</time>
      </trkpt>
      <trkpt lat="43.33154" lon="5.684">
        <ele>606</ele>
        <time>2019-01-18T12:51:07.000Z</time>
      </trkpt>
      <trkpt lat="43.33154" lon="5.68401">
        <ele>606</ele>
        <time>2019-01-18T12:51:08.000Z</time>
      </trkpt>
      <trkpt lat="43.33155" lon="5.68403">
        <ele>606</ele>
        <time>2019-01-18T12:51:09.000Z</time>
      </trkpt>
      <trkpt lat="43.33155" lon="5.68404">
        <ele>606</ele>
        <time>2019-01-18T12:51:10.000Z</time>
      </trkpt>
      <trkpt lat="43.33156" lon="5.68406">
        <ele>606</ele>
        <time>2019-01-18T12:51:11.000Z</time>
      </trkpt>
      <trkpt lat="43.33157" lon="5.68408">
        <ele>606</ele>
        <time>2019-01-18T12:51:12.000Z</time>
      </trkpt>
      <trkpt lat="43.33157" lon="5.68409">
        <ele>606</ele>
        <time>2019-01-18T12:51:13.000Z</time>
      </trkpt>
      <trkpt lat="43.33158" lon="5.6841">
        <ele>606</ele>
        <time>2019-01-18T12:51:14.000Z</time>
      </trkpt>
      <trkpt lat="43.33158" lon="5.68411">
        <ele>606</ele>
        <time>2019-01-18T12:51:15.000Z</time>
      </trkpt>
      <trkpt lat="43.33159" lon="5.68412">
        <ele>605</ele>
        <time>2019-01-18T12:51:16.000Z</time>
      </trkpt>
      <trkpt lat="43.3316" lon="5.68412">
        <ele>605</ele>
        <time>2019-01-18T12:51:17.000Z</time>
      </trkpt>
      <trkpt lat="43.33161" lon="5.68413">
        <ele>605</ele>
        <time>2019-01-18T12:51:18.000Z</time>
      </trkpt>
      <trkpt lat="43.33162" lon="5.68414">
        <ele>605</ele>
        <time>2019-01-18T12:51:19.000Z</time>
      </trkpt>
      <trkpt lat="43.33163" lon="5.68414">
        <ele>605</ele>
        <time>2019-01-18T12:51:20.000Z</time>
      </trkpt>
      <trkpt lat="43.33164" lon="5.68414">
        <ele>605</ele>
        <time>2019-01-18T12:51:21.000Z</time>
      </trkpt>
      <trkpt lat="43.33165" lon="5.68414">
        <ele>605</ele>
        <time>2019-01-18T12:51:22.000Z</time>
      </trkpt>
      <trkpt lat="43.33166" lon="5.68414">
        <ele>605</ele>
        <time>2019-01-18T12:51:23.000Z</time>
      </trkpt>
      <trkpt lat="43.33167" lon="5.68414">
        <ele>605</ele>
        <time>2019-01-18T12:51:24.000Z</time>
      </trkpt>
      <trkpt lat="43.33168" lon="5.68413">
        <ele>605</ele>
        <time>2019-01-18T12:51:25.000Z</time>
      </trkpt>
      <trkpt lat="43.33168" lon="5.68413">
        <ele>605</ele>
        <time>2019-01-18T12:51:26.000Z</time>
      </trkpt>
      <trkpt lat="43.33169" lon="5.68412">
        <ele>605</ele>
        <time>2019-01-18T12:51:27.000Z</time>
      </trkpt>
      <trkpt lat="43.33169" lon="5.68411">
        <ele>604</ele>
        <time>2019-01-18T12:51:28.000Z</time>
      </trkpt>
      <trkpt lat="43.3317" lon="5.6841">
        <ele>604</ele>
        <time>2019-01-18T12:51:29.000Z</time>
      </trkpt>
      <trkpt lat="43.33171" lon="5.68409">
        <ele>604</ele>
        <time>2019-01-18T12:51:30.000Z</time>
      </trkpt>
      <trkpt lat="43.33172" lon="5.68408">
        <ele>604</ele>
        <time>2019-01-18T12:51:31.000Z</time>
      </trkpt>
      <trkpt lat="43.33172" lon="5.68407">
        <ele>604</ele>
        <time>2019-01-18T12:51:32.000Z</time>
      </trkpt>
      <trkpt lat="43.33173" lon="5.68406">
        <ele>604</ele>
        <time>2019-01-18T12:51:33.000Z</time>
      </trkpt>
      <trkpt lat="43.33174" lon="5.68404">
        <ele>603</ele>
        <time>2019-01-18T12:51:34.000Z</time>
      </trkpt>
      <trkpt lat="43.33175" lon="5.68403">
        <ele>603</ele>
        <time>2019-01-18T12:51:35.000Z</time>
      </trkpt>
      <trkpt lat="43.33175" lon="5.68402">
        <ele>603</ele>
        <time>2019-01-18T12:51:36.000Z</time>
      </trkpt>
      <trkpt lat="43.33176" lon="5.684">
        <ele>603</ele>
        <time>2019-01-18T12:51:37.000Z</time>
      </trkpt>
      <trkpt lat="43.33177" lon="5.68399">
        <ele>603</ele>
        <time>2019-01-18T12:51:38.000Z</time>
      </trkpt>
      <trkpt lat="43.33177" lon="5.68398">
        <ele>603</ele>
        <time>2019-01-18T12:51:39.000Z</time>
      </trkpt>
      <trkpt lat="43.33178" lon="5.68396">
        <ele>603</ele>
        <time>2019-01-18T12:51:40.000Z</time>
      </trkpt>
      <trkpt lat="43.33179" lon="5.68394">
        <ele>603</ele>
        <time>2019-01-18T12:51:41.000Z</time>
      </trkpt>
      <trkpt lat="43.33179" lon="5.68393">
        <ele>603</ele>
        <time>2019-01-18T12:51:42.000Z</time>
      </trkpt>
      <trkpt lat="43.33179" lon="5.68391">
        <ele>603</ele>
        <time>2019-01-18T12:51:43.000Z</time>
      </trkpt>
      <trkpt lat="43.3318" lon="5.6839">
        <ele>603</ele>
        <time>2019-01-18T12:51:44.000Z</time>
      </trkpt>
      <trkpt lat="43.3318" lon="5.68388">
        <ele>603</ele>
        <time>2019-01-18T12:51:45.000Z</time>
      </trkpt>
      <trkpt lat="43.33181" lon="5.68387">
        <ele>603</ele>
        <time>2019-01-18T12:51:46.000Z</time>
      </trkpt>
      <trkpt lat="43.33182" lon="5.68385">
        <ele>603</ele>
        <time>2019-01-18T12:51:47.000Z</time>
      </trkpt>
      <trkpt lat="43.33182" lon="5.68383">
        <ele>603</ele>
        <time>2019-01-18T12:51:48.000Z</time>
      </trkpt>
      <trkpt lat="43.33182" lon="5.68381">
        <ele>603</ele>
        <time>2019-01-18T12:51:49.000Z</time>
      </trkpt>
      <trkpt lat="43.33183" lon="5.6838">
        <ele>603</ele>
        <time>2019-01-18T12:51:50.000Z</time>
      </trkpt>
      <trkpt lat="43.33183" lon="5.68378">
        <ele>603</ele>
        <time>2019-01-18T12:51:51.000Z</time>
      </trkpt>
      <trkpt lat="43.33184" lon="5.68377">
        <ele>603</ele>
        <time>2019-01-18T12:51:52.000Z</time>
      </trkpt>
      <trkpt lat="43.33184" lon="5.68375">
        <ele>603</ele>
        <time>2019-01-18T12:51:53.000Z</time>
      </trkpt>
      <trkpt lat="43.33184" lon="5.68374">
        <ele>603</ele>
        <time>2019-01-18T12:51:54.000Z</time>
      </trkpt>
      <trkpt lat="43.33185" lon="5.68373">
        <ele>603</ele>
        <time>2019-01-18T12:51:55.000Z</time>
      </trkpt>
      <trkpt lat="43.33185" lon="5.68371">
        <ele>603</ele>
        <time>2019-01-18T12:51:56.000Z</time>
      </trkpt>
      <trkpt lat="43.33186" lon="5.68369">
        <ele>603</ele>
        <time>2019-01-18T12:51:57.000Z</time>
      </trkpt>
      <trkpt lat="43.33186" lon="5.68368">
        <ele>603</ele>
        <time>2019-01-18T12:51:58.000Z</time>
      </trkpt>
      <trkpt lat="43.33187" lon="5.68367">
        <ele>603</ele>
        <time>2019-01-18T12:51:59.000Z</time>
      </trkpt>
      <trkpt lat="43.33187" lon="5.68366">
        <ele>603</ele>
        <time>2019-01-18T12:52:00.000Z</time>
      </trkpt>
      <trkpt lat="43.33188" lon="5.68365">
        <ele>603</ele>
        <time>2019-01-18T12:52:01.000Z</time>
      </trkpt>
      <trkpt lat="43.33188" lon="5.68364">
        <ele>603</ele>
        <time>2019-01-18T12:52:02.000Z</time>
      </trkpt>
      <trkpt lat="43.33189" lon="5.68362">
        <ele>603</ele>
        <time>2019-01-18T12:52:03.000Z</time>
      </trkpt>
      <trkpt lat="43.33189" lon="5.68361">
        <ele>603</ele>
        <time>2019-01-18T12:52:04.000Z</time>
      </trkpt>
      <trkpt lat="43.33189" lon="5.6836">
        <ele>603</ele>
        <time>2019-01-18T12:52:05.000Z</time>
      </trkpt>
      <trkpt lat="43.3319" lon="5.68358">
        <ele>603</ele>
        <time>2019-01-18T12:52:06.000Z</time>
      </trkpt>
      <trkpt lat="43.33191" lon="5.68357">
        <ele>602</ele>
        <time>2019-01-18T12:52:07.000Z</time>
      </trkpt>
      <trkpt lat="43.33191" lon="5.68356">
        <ele>602</ele>
        <time>2019-01-18T12:52:08.000Z</time>
      </trkpt>
      <trkpt lat="43.33192" lon="5.68355">
        <ele>602</ele>
        <time>2019-01-18T12:52:09.000Z</time>
      </trkpt>
      <trkpt lat="43.33192" lon="5.68353">
        <ele>602</ele>
        <time>2019-01-18T12:52:10.000Z</time>
      </trkpt>
      <trkpt lat="43.33193" lon="5.68352">
        <ele>602</ele>
        <time>2019-01-18T12:52:11.000Z</time>
      </trkpt>
      <trkpt lat="43.33194" lon="5.68351">
        <ele>602</ele>
        <time>2019-01-18T12:52:12.000Z</time>
      </trkpt>
      <trkpt lat="43.33194" lon="5.68349">
        <ele>602</ele>
        <time>2019-01-18T12:52:13.000Z</time>
      </trkpt>
      <trkpt lat="43.33195" lon="5.68348">
        <ele>602</ele>
        <time>2019-01-18T12:52:14.000Z</time>
      </trkpt>
      <trkpt lat="43.33195" lon="5.68347">
        <ele>602</ele>
        <time>2019-01-18T12:52:15.000Z</time>
      </trkpt>
      <trkpt lat="43.33196" lon="5.68346">
        <ele>602</ele>
        <time>2019-01-18T12:52:16.000Z</time>
      </trkpt>
      <trkpt lat="43.33196" lon="5.68345">
        <ele>602</ele>
        <time>2019-01-18T12:52:17.000Z</time>
      </trkpt>
      <trkpt lat="43.33197" lon="5.68344">
        <ele>602</ele>
        <time>2019-01-18T12:52:18.000Z</time>
      </trkpt>
      <trkpt lat="43.33197" lon="5.68343">
        <ele>602</ele>
        <time>2019-01-18T12:52:19.000Z</time>
      </trkpt>
      <trkpt lat="43.33197" lon="5.68342">
        <ele>602</ele>
        <time>2019-01-18T12:52:20.000Z</time>
      </trkpt>
      <trkpt lat="43.33197" lon="5.68341">
        <ele>602</ele>
        <time>2019-01-18T12:52:21.000Z</time>
      </trkpt>
      <trkpt lat="43.33198" lon="5.6834">
        <ele>602</ele>
        <time>2019-01-18T12:52:22.000Z</time>
      </trkpt>
      <trkpt lat="43.33198" lon="5.68339">
        <ele>602</ele>
        <time>2019-01-18T12:52:23.000Z</time>
      </trkpt>
      <trkpt lat="43.33198" lon="5.68337">
        <ele>602</ele>
        <time>2019-01-18T12:52:24.000Z</time>
      </trkpt>
      <trkpt lat="43.33198" lon="5.68336">
        <ele>602</ele>
        <time>2019-01-18T12:52:25.000Z</time>
      </trkpt>
      <trkpt lat="43.33198" lon="5.68335">
        <ele>602</ele>
        <time>2019-01-18T12:52:26.000Z</time>
      </trkpt>
      <trkpt lat="43.33199" lon="5.68334">
        <ele>602</ele>
        <time>2019-01-18T12:52:27.000Z</time>
      </trkpt>
      <trkpt lat="43.33199" lon="5.68332">
        <ele>603</ele>
        <time>2019-01-18T12:52:28.000Z</time>
      </trkpt>
      <trkpt lat="43.332" lon="5.68331">
        <ele>603</ele>
        <time>2019-01-18T12:52:29.000Z</time>
      </trkpt>
      <trkpt lat="43.33201" lon="5.68329">
        <ele>603</ele>
        <time>2019-01-18T12:52:30.000Z</time>
      </trkpt>
      <trkpt lat="43.33201" lon="5.68328">
        <ele>603</ele>
        <time>2019-01-18T12:52:31.000Z</time>
      </trkpt>
      <trkpt lat="43.33202" lon="5.68327">
        <ele>603</ele>
        <time>2019-01-18T12:52:32.000Z</time>
      </trkpt>
      <trkpt lat="43.33203" lon="5.68325">
        <ele>603</ele>
        <time>2019-01-18T12:52:33.000Z</time>
      </trkpt>
      <trkpt lat="43.33203" lon="5.68324">
        <ele>603</ele>
        <time>2019-01-18T12:52:34.000Z</time>
      </trkpt>
      <trkpt lat="43.33204" lon="5.68323">
        <ele>603</ele>
        <time>2019-01-18T12:52:35.000Z</time>
      </trkpt>
      <trkpt lat="43.33204" lon="5.68321">
        <ele>603</ele>
        <time>2019-01-18T12:52:36.000Z</time>
      </trkpt>
      <trkpt lat="43.33205" lon="5.68319">
        <ele>603</ele>
        <time>2019-01-18T12:52:37.000Z</time>
      </trkpt>
      <trkpt lat="43.33205" lon="5.68317">
        <ele>603</ele>
        <time>2019-01-18T12:52:38.000Z</time>
      </trkpt>
      <trkpt lat="43.33205" lon="5.68316">
        <ele>603</ele>
        <time>2019-01-18T12:52:39.000Z</time>
      </trkpt>
      <trkpt lat="43.33206" lon="5.68314">
        <ele>603</ele>
        <time>2019-01-18T12:52:40.000Z</time>
      </trkpt>
      <trkpt lat="43.33206" lon="5.68312">
        <ele>603</ele>
        <time>2019-01-18T12:52:41.000Z</time>
      </trkpt>
      <trkpt lat="43.33206" lon="5.6831">
        <ele>603</ele>
        <time>2019-01-18T12:52:42.000Z</time>
      </trkpt>
      <trkpt lat="43.33206" lon="5.68308">
        <ele>603</ele>
        <time>2019-01-18T12:52:43.000Z</time>
      </trkpt>
      <trkpt lat="43.33206" lon="5.68306">
        <ele>603</ele>
        <time>2019-01-18T12:52:44.000Z</time>
      </trkpt>
      <trkpt lat="43.33206" lon="5.68304">
        <ele>603</ele>
        <time>2019-01-18T12:52:45.000Z</time>
      </trkpt>
      <trkpt lat="43.33207" lon="5.68302">
        <ele>603</ele>
        <time>2019-01-18T12:52:46.000Z</time>
      </trkpt>
      <trkpt lat="43.33207" lon="5.68301">
        <ele>603</ele>
        <time>2019-01-18T12:52:47.000Z</time>
      </trkpt>
      <trkpt lat="43.33208" lon="5.68299">
        <ele>603</ele>
        <time>2019-01-18T12:52:48.000Z</time>
      </trkpt>
      <trkpt lat="43.33208" lon="5.68298">
        <ele>603</ele>
        <time>2019-01-18T12:52:49.000Z</time>
      </trkpt>
      <trkpt lat="43.33208" lon="5.68296">
        <ele>603</ele>
        <time>2019-01-18T12:52:50.000Z</time>
      </trkpt>
      <trkpt lat="43.33209" lon="5.68295">
        <ele>603</ele>
        <time>2019-01-18T12:52:51.000Z</time>
      </trkpt>
      <trkpt lat="43.33209" lon="5.68294">
        <ele>603</ele>
        <time>2019-01-18T12:52:52.000Z</time>
      </trkpt>
      <trkpt lat="43.3321" lon="5.68293">
        <ele>603</ele>
        <time>2019-01-18T12:52:53.000Z</time>
      </trkpt>
      <trkpt lat="43.3321" lon="5.68292">
        <ele>604</ele>
        <time>2019-01-18T12:52:54.000Z</time>
      </trkpt>
      <trkpt lat="43.3321" lon="5.68291">
        <ele>604</ele>
        <time>2019-01-18T12:52:55.000Z</time>
      </trkpt>
      <trkpt lat="43.33211" lon="5.68289">
        <ele>604</ele>
        <time>2019-01-18T12:52:56.000Z</time>
      </trkpt>
      <trkpt lat="43.33211" lon="5.68289">
        <ele>604</ele>
        <time>2019-01-18T12:52:57.000Z</time>
      </trkpt>
      <trkpt lat="43.33212" lon="5.68288">
        <ele>604</ele>
        <time>2019-01-18T12:52:58.000Z</time>
      </trkpt>
      <trkpt lat="43.33212" lon="5.68287">
        <ele>604</ele>
        <time>2019-01-18T12:52:59.000Z</time>
      </trkpt>
      <trkpt lat="43.33212" lon="5.68286">
        <ele>604</ele>
        <time>2019-01-18T12:53:00.000Z</time>
      </trkpt>
      <trkpt lat="43.33213" lon="5.68285">
        <ele>604</ele>
        <time>2019-01-18T12:53:01.000Z</time>
      </trkpt>
      <trkpt lat="43.33213" lon="5.68285">
        <ele>604</ele>
        <time>2019-01-18T12:53:02.000Z</time>
      </trkpt>
      <trkpt lat="43.33214" lon="5.68284">
        <ele>604</ele>
        <time>2019-01-18T12:53:03.000Z</time>
      </trkpt>
      <trkpt lat="43.33214" lon="5.68283">
        <ele>604</ele>
        <time>2019-01-18T12:53:04.000Z</time>
      </trkpt>
      <trkpt lat="43.33214" lon="5.68282">
        <ele>604</ele>
        <time>2019-01-18T12:53:05.000Z</time>
      </trkpt>
      <trkpt lat="43.33215" lon="5.68281">
        <ele>604</ele>
        <time>2019-01-18T12:53:06.000Z</time>
      </trkpt>
      <trkpt lat="43.33216" lon="5.6828">
        <ele>604</ele>
        <time>2019-01-18T12:53:07.000Z</time>
      </trkpt>
      <trkpt lat="43.33216" lon="5.68279">
        <ele>604</ele>
        <time>2019-01-18T12:53:08.000Z</time>
      </trkpt>
      <trkpt lat="43.33217" lon="5.68278">
        <ele>604</ele>
        <time>2019-01-18T12:53:09.000Z</time>
      </trkpt>
      <trkpt lat="43.33217" lon="5.68277">
        <ele>604</ele>
        <time>2019-01-18T12:53:10.000Z</time>
      </trkpt>
      <trkpt lat="43.33218" lon="5.68275">
        <ele>604</ele>
        <time>2019-01-18T12:53:11.000Z</time>
      </trkpt>
      <trkpt lat="43.33219" lon="5.68274">
        <ele>604</ele>
        <time>2019-01-18T12:53:12.000Z</time>
      </trkpt>
      <trkpt lat="43.33219" lon="5.68273">
        <ele>603</ele>
        <time>2019-01-18T12:53:13.000Z</time>
      </trkpt>
      <trkpt lat="43.3322" lon="5.68272">
        <ele>603</ele>
        <time>2019-01-18T12:53:14.000Z</time>
      </trkpt>
      <trkpt lat="43.3322" lon="5.68272">
        <ele>603</ele>
        <time>2019-01-18T12:53:15.000Z</time>
      </trkpt>
      <trkpt lat="43.3322" lon="5.68272">
        <ele>603</ele>
        <time>2019-01-18T12:53:16.000Z</time>
      </trkpt>
      <trkpt lat="43.3322" lon="5.68271">
        <ele>603</ele>
        <time>2019-01-18T12:53:17.000Z</time>
      </trkpt>
      <trkpt lat="43.3322" lon="5.68271">
        <ele>603</ele>
        <time>2019-01-18T12:53:18.000Z</time>
      </trkpt>
      <trkpt lat="43.3322" lon="5.68271">
        <ele>603</ele>
        <time>2019-01-18T12:53:19.000Z</time>
      </trkpt>
      <trkpt lat="43.33221" lon="5.6827">
        <ele>603</ele>
        <time>2019-01-18T12:53:20.000Z</time>
      </trkpt>
      <trkpt lat="43.33221" lon="5.68269">
        <ele>603</ele>
        <time>2019-01-18T12:53:21.000Z</time>
      </trkpt>
      <trkpt lat="43.33222" lon="5.68268">
        <ele>603</ele>
        <time>2019-01-18T12:53:22.000Z</time>
      </trkpt>
      <trkpt lat="43.33222" lon="5.68267">
        <ele>603</ele>
        <time>2019-01-18T12:53:23.000Z</time>
      </trkpt>
      <trkpt lat="43.33223" lon="5.68266">
        <ele>603</ele>
        <time>2019-01-18T12:53:24.000Z</time>
      </trkpt>
      <trkpt lat="43.33223" lon="5.68265">
        <ele>603</ele>
        <time>2019-01-18T12:53:25.000Z</time>
      </trkpt>
      <trkpt lat="43.33223" lon="5.68265">
        <ele>603</ele>
        <time>2019-01-18T12:53:26.000Z</time>
      </trkpt>
      <trkpt lat="43.33223" lon="5.68265">
        <ele>603</ele>
        <time>2019-01-18T12:53:27.000Z</time>
      </trkpt>
      <trkpt lat="43.33223" lon="5.68264">
        <ele>603</ele>
        <time>2019-01-18T12:53:28.000Z</time>
      </trkpt>
      <trkpt lat="43.33223" lon="5.68263">
        <ele>603</ele>
        <time>2019-01-18T12:53:29.000Z</time>
      </trkpt>
      <trkpt lat="43.33223" lon="5.68262">
        <ele>603</ele>
        <time>2019-01-18T12:53:30.000Z</time>
      </trkpt>
      <trkpt lat="43.33223" lon="5.68261">
        <ele>603</ele>
        <time>2019-01-18T12:53:31.000Z</time>
      </trkpt>
      <trkpt lat="43.33223" lon="5.6826">
        <ele>603</ele>
        <time>2019-01-18T12:53:32.000Z</time>
      </trkpt>
      <trkpt lat="43.33222" lon="5.68258">
        <ele>603</ele>
        <time>2019-01-18T12:53:33.000Z</time>
      </trkpt>
      <trkpt lat="43.33222" lon="5.68257">
        <ele>603</ele>
        <time>2019-01-18T12:53:34.000Z</time>
      </trkpt>
      <trkpt lat="43.33221" lon="5.68256">
        <ele>602</ele>
        <time>2019-01-18T12:53:35.000Z</time>
      </trkpt>
      <trkpt lat="43.33221" lon="5.68254">
        <ele>602</ele>
        <time>2019-01-18T12:53:36.000Z</time>
      </trkpt>
      <trkpt lat="43.3322" lon="5.68253">
        <ele>602</ele>
        <time>2019-01-18T12:53:37.000Z</time>
      </trkpt>
      <trkpt lat="43.3322" lon="5.68251">
        <ele>602</ele>
        <time>2019-01-18T12:53:38.000Z</time>
      </trkpt>
      <trkpt lat="43.33219" lon="5.6825">
        <ele>602</ele>
        <time>2019-01-18T12:53:39.000Z</time>
      </trkpt>
      <trkpt lat="43.33219" lon="5.68248">
        <ele>601</ele>
        <time>2019-01-18T12:53:40.000Z</time>
      </trkpt>
      <trkpt lat="43.33218" lon="5.68247">
        <ele>601</ele>
        <time>2019-01-18T12:53:41.000Z</time>
      </trkpt>
      <trkpt lat="43.33218" lon="5.68245">
        <ele>601</ele>
        <time>2019-01-18T12:53:42.000Z</time>
      </trkpt>
      <trkpt lat="43.33218" lon="5.68244">
        <ele>601</ele>
        <time>2019-01-18T12:53:43.000Z</time>
      </trkpt>
      <trkpt lat="43.33218" lon="5.68244">
        <ele>601</ele>
        <time>2019-01-18T12:53:44.000Z</time>
      </trkpt>
      <trkpt lat="43.33218" lon="5.68244">
        <ele>601</ele>
        <time>2019-01-18T12:53:45.000Z</time>
      </trkpt>
      <trkpt lat="43.33218" lon="5.68244">
        <ele>601</ele>
        <time>2019-01-18T12:53:46.000Z</time>
      </trkpt>
      <trkpt lat="43.33218" lon="5.68244">
        <ele>600</ele>
        <time>2019-01-18T12:53:47.000Z</time>
      </trkpt>
      <trkpt lat="43.33218" lon="5.68243">
        <ele>600</ele>
        <time>2019-01-18T12:53:48.000Z</time>
      </trkpt>
      <trkpt lat="43.33218" lon="5.68243">
        <ele>600</ele>
        <time>2019-01-18T12:53:49.000Z</time>
      </trkpt>
      <trkpt lat="43.33218" lon="5.68243">
        <ele>600</ele>
        <time>2019-01-18T12:53:50.000Z</time>
      </trkpt>
      <trkpt lat="43.33218" lon="5.68243">
        <ele>600</ele>
        <time>2019-01-18T12:53:51.000Z</time>
      </trkpt>
      <trkpt lat="43.33218" lon="5.68243">
        <ele>600</ele>
        <time>2019-01-18T12:53:52.000Z</time>
      </trkpt>
      <trkpt lat="43.33218" lon="5.68243">
        <ele>600</ele>
        <time>2019-01-18T12:53:53.000Z</time>
      </trkpt>
      <trkpt lat="43.33218" lon="5.68243">
        <ele>600</ele>
        <time>2019-01-18T12:53:54.000Z</time>
      </trkpt>
      <trkpt lat="43.33218" lon="5.68243">
        <ele>600</ele>
        <time>2019-01-18T12:53:55.000Z</time>
      </trkpt>
      <trkpt lat="43.33218" lon="5.68243">
        <ele>600</ele>
        <time>2019-01-18T12:53:56.000Z</time>
      </trkpt>
      <trkpt lat="43.33218" lon="5.68243">
        <ele>600</ele>
        <time>2019-01-18T12:53:57.000Z</time>
      </trkpt>
      <trkpt lat="43.33217" lon="5.68242">
        <ele>600</ele>
        <time>2019-01-18T12:53:58.000Z</time>
      </trkpt>
      <trkpt lat="43.33217" lon="5.68241">
        <ele>600</ele>
        <time>2019-01-18T12:53:59.000Z</time>
      </trkpt>
      <trkpt lat="43.33217" lon="5.6824">
        <ele>600</ele>
        <time>2019-01-18T12:54:00.000Z</time>
      </trkpt>
      <trkpt lat="43.33217" lon="5.68239">
        <ele>600</ele>
        <time>2019-01-18T12:54:01.000Z</time>
      </trkpt>
      <trkpt lat="43.33217" lon="5.68237">
        <ele>600</ele>
        <time>2019-01-18T12:54:02.000Z</time>
      </trkpt>
      <trkpt lat="43.33218" lon="5.68236">
        <ele>600</ele>
        <time>2019-01-18T12:54:03.000Z</time>
      </trkpt>
      <trkpt lat="43.33218" lon="5.68234">
        <ele>600</ele>
        <time>2019-01-18T12:54:04.000Z</time>
      </trkpt>
      <trkpt lat="43.33218" lon="5.68233">
        <ele>600</ele>
        <time>2019-01-18T12:54:05.000Z</time>
      </trkpt>
      <trkpt lat="43.33219" lon="5.68231">
        <ele>600</ele>
        <time>2019-01-18T12:54:06.000Z</time>
      </trkpt>
      <trkpt lat="43.33219" lon="5.68229">
        <ele>600</ele>
        <time>2019-01-18T12:54:07.000Z</time>
      </trkpt>
      <trkpt lat="43.33219" lon="5.68227">
        <ele>600</ele>
        <time>2019-01-18T12:54:08.000Z</time>
      </trkpt>
      <trkpt lat="43.33219" lon="5.68225">
        <ele>600</ele>
        <time>2019-01-18T12:54:09.000Z</time>
      </trkpt>
      <trkpt lat="43.33219" lon="5.68224">
        <ele>600</ele>
        <time>2019-01-18T12:54:10.000Z</time>
      </trkpt>
      <trkpt lat="43.3322" lon="5.68222">
        <ele>600</ele>
        <time>2019-01-18T12:54:11.000Z</time>
      </trkpt>
      <trkpt lat="43.3322" lon="5.6822">
        <ele>600</ele>
        <time>2019-01-18T12:54:12.000Z</time>
      </trkpt>
      <trkpt lat="43.3322" lon="5.68218">
        <ele>600</ele>
        <time>2019-01-18T12:54:13.000Z</time>
      </trkpt>
      <trkpt lat="43.3322" lon="5.68216">
        <ele>599</ele>
        <time>2019-01-18T12:54:14.000Z</time>
      </trkpt>
      <trkpt lat="43.33219" lon="5.68215">
        <ele>599</ele>
        <time>2019-01-18T12:54:15.000Z</time>
      </trkpt>
      <trkpt lat="43.33219" lon="5.68213">
        <ele>599</ele>
        <time>2019-01-18T12:54:16.000Z</time>
      </trkpt>
      <trkpt lat="43.33219" lon="5.68212">
        <ele>599</ele>
        <time>2019-01-18T12:54:17.000Z</time>
      </trkpt>
      <trkpt lat="43.33219" lon="5.6821">
        <ele>599</ele>
        <time>2019-01-18T12:54:18.000Z</time>
      </trkpt>
      <trkpt lat="43.33219" lon="5.68208">
        <ele>599</ele>
        <time>2019-01-18T12:54:19.000Z</time>
      </trkpt>
      <trkpt lat="43.33219" lon="5.68206">
        <ele>599</ele>
        <time>2019-01-18T12:54:20.000Z</time>
      </trkpt>
      <trkpt lat="43.33219" lon="5.68205">
        <ele>599</ele>
        <time>2019-01-18T12:54:21.000Z</time>
      </trkpt>
      <trkpt lat="43.33219" lon="5.68203">
        <ele>599</ele>
        <time>2019-01-18T12:54:22.000Z</time>
      </trkpt>
      <trkpt lat="43.33219" lon="5.68202">
        <ele>599</ele>
        <time>2019-01-18T12:54:23.000Z</time>
      </trkpt>
      <trkpt lat="43.33218" lon="5.682">
        <ele>599</ele>
        <time>2019-01-18T12:54:24.000Z</time>
      </trkpt>
      <trkpt lat="43.33218" lon="5.68199">
        <ele>599</ele>
        <time>2019-01-18T12:54:25.000Z</time>
      </trkpt>
      <trkpt lat="43.33218" lon="5.68199">
        <ele>599</ele>
        <time>2019-01-18T12:54:26.000Z</time>
      </trkpt>
      <trkpt lat="43.33217" lon="5.68199">
        <ele>599</ele>
        <time>2019-01-18T12:54:27.000Z</time>
      </trkpt>
      <trkpt lat="43.33217" lon="5.68199">
        <ele>599</ele>
        <time>2019-01-18T12:54:28.000Z</time>
      </trkpt>
      <trkpt lat="43.33217" lon="5.68198">
        <ele>599</ele>
        <time>2019-01-18T12:54:29.000Z</time>
      </trkpt>
      <trkpt lat="43.33217" lon="5.68197">
        <ele>599</ele>
        <time>2019-01-18T12:54:30.000Z</time>
      </trkpt>
      <trkpt lat="43.33216" lon="5.68197">
        <ele>598</ele>
        <time>2019-01-18T12:54:31.000Z</time>
      </trkpt>
      <trkpt lat="43.33216" lon="5.68196">
        <ele>598</ele>
        <time>2019-01-18T12:54:32.000Z</time>
      </trkpt>
      <trkpt lat="43.33216" lon="5.68196">
        <ele>598</ele>
        <time>2019-01-18T12:54:33.000Z</time>
      </trkpt>
      <trkpt lat="43.33216" lon="5.68196">
        <ele>598</ele>
        <time>2019-01-18T12:54:34.000Z</time>
      </trkpt>
      <trkpt lat="43.33215" lon="5.68196">
        <ele>598</ele>
        <time>2019-01-18T12:54:35.000Z</time>
      </trkpt>
      <trkpt lat="43.33215" lon="5.68196">
        <ele>598</ele>
        <time>2019-01-18T12:54:36.000Z</time>
      </trkpt>
      <trkpt lat="43.33215" lon="5.68196">
        <ele>598</ele>
        <time>2019-01-18T12:54:37.000Z</time>
      </trkpt>
      <trkpt lat="43.33215" lon="5.68196">
        <ele>598</ele>
        <time>2019-01-18T12:54:38.000Z</time>
      </trkpt>
      <trkpt lat="43.33215" lon="5.68196">
        <ele>598</ele>
        <time>2019-01-18T12:54:39.000Z</time>
      </trkpt>
      <trkpt lat="43.33214" lon="5.68196">
        <ele>598</ele>
        <time>2019-01-18T12:54:40.000Z</time>
      </trkpt>
      <trkpt lat="43.33214" lon="5.68196">
        <ele>598</ele>
        <time>2019-01-18T12:54:41.000Z</time>
      </trkpt>
      <trkpt lat="43.33214" lon="5.68196">
        <ele>597</ele>
        <time>2019-01-18T12:54:42.000Z</time>
      </trkpt>
      <trkpt lat="43.33214" lon="5.68195">
        <ele>597</ele>
        <time>2019-01-18T12:54:43.000Z</time>
      </trkpt>
      <trkpt lat="43.33214" lon="5.68194">
        <ele>597</ele>
        <time>2019-01-18T12:54:44.000Z</time>
      </trkpt>
      <trkpt lat="43.33214" lon="5.68193">
        <ele>597</ele>
        <time>2019-01-18T12:54:45.000Z</time>
      </trkpt>
      <trkpt lat="43.33214" lon="5.68191">
        <ele>597</ele>
        <time>2019-01-18T12:54:46.000Z</time>
      </trkpt>
      <trkpt lat="43.33214" lon="5.6819">
        <ele>597</ele>
        <time>2019-01-18T12:54:47.000Z</time>
      </trkpt>
      <trkpt lat="43.33214" lon="5.68189">
        <ele>597</ele>
        <time>2019-01-18T12:54:48.000Z</time>
      </trkpt>
      <trkpt lat="43.33214" lon="5.68187">
        <ele>597</ele>
        <time>2019-01-18T12:54:49.000Z</time>
      </trkpt>
      <trkpt lat="43.33214" lon="5.68186">
        <ele>596</ele>
        <time>2019-01-18T12:54:50.000Z</time>
      </trkpt>
      <trkpt lat="43.33213" lon="5.68185">
        <ele>596</ele>
        <time>2019-01-18T12:54:51.000Z</time>
      </trkpt>
      <trkpt lat="43.33214" lon="5.68184">
        <ele>596</ele>
        <time>2019-01-18T12:54:52.000Z</time>
      </trkpt>
      <trkpt lat="43.33213" lon="5.68182">
        <ele>596</ele>
        <time>2019-01-18T12:54:53.000Z</time>
      </trkpt>
      <trkpt lat="43.33213" lon="5.68181">
        <ele>596</ele>
        <time>2019-01-18T12:54:54.000Z</time>
      </trkpt>
      <trkpt lat="43.33213" lon="5.68179">
        <ele>596</ele>
        <time>2019-01-18T12:54:55.000Z</time>
      </trkpt>
      <trkpt lat="43.33213" lon="5.68178">
        <ele>596</ele>
        <time>2019-01-18T12:54:56.000Z</time>
      </trkpt>
      <trkpt lat="43.33213" lon="5.68177">
        <ele>596</ele>
        <time>2019-01-18T12:54:57.000Z</time>
      </trkpt>
      <trkpt lat="43.33212" lon="5.68176">
        <ele>596</ele>
        <time>2019-01-18T12:54:58.000Z</time>
      </trkpt>
      <trkpt lat="43.33211" lon="5.68175">
        <ele>596</ele>
        <time>2019-01-18T12:54:59.000Z</time>
      </trkpt>
      <trkpt lat="43.33211" lon="5.68173">
        <ele>596</ele>
        <time>2019-01-18T12:55:00.000Z</time>
      </trkpt>
      <trkpt lat="43.3321" lon="5.68172">
        <ele>596</ele>
        <time>2019-01-18T12:55:01.000Z</time>
      </trkpt>
      <trkpt lat="43.3321" lon="5.6817">
        <ele>596</ele>
        <time>2019-01-18T12:55:02.000Z</time>
      </trkpt>
      <trkpt lat="43.33209" lon="5.68169">
        <ele>596</ele>
        <time>2019-01-18T12:55:03.000Z</time>
      </trkpt>
      <trkpt lat="43.33209" lon="5.68168">
        <ele>596</ele>
        <time>2019-01-18T12:55:04.000Z</time>
      </trkpt>
      <trkpt lat="43.33208" lon="5.68166">
        <ele>596</ele>
        <time>2019-01-18T12:55:05.000Z</time>
      </trkpt>
      <trkpt lat="43.33208" lon="5.68165">
        <ele>596</ele>
        <time>2019-01-18T12:55:06.000Z</time>
      </trkpt>
      <trkpt lat="43.33207" lon="5.68164">
        <ele>596</ele>
        <time>2019-01-18T12:55:07.000Z</time>
      </trkpt>
      <trkpt lat="43.33206" lon="5.68162">
        <ele>596</ele>
        <time>2019-01-18T12:55:08.000Z</time>
      </trkpt>
      <trkpt lat="43.33206" lon="5.68161">
        <ele>595</ele>
        <time>2019-01-18T12:55:09.000Z</time>
      </trkpt>
      <trkpt lat="43.33206" lon="5.6816">
        <ele>595</ele>
        <time>2019-01-18T12:55:10.000Z</time>
      </trkpt>
      <trkpt lat="43.33206" lon="5.68158">
        <ele>595</ele>
        <time>2019-01-18T12:55:11.000Z</time>
      </trkpt>
      <trkpt lat="43.33206" lon="5.68157">
        <ele>595</ele>
        <time>2019-01-18T12:55:12.000Z</time>
      </trkpt>
      <trkpt lat="43.33206" lon="5.68157">
        <ele>595</ele>
        <time>2019-01-18T12:55:13.000Z</time>
      </trkpt>
      <trkpt lat="43.33206" lon="5.68157">
        <ele>595</ele>
        <time>2019-01-18T12:55:14.000Z</time>
      </trkpt>
      <trkpt lat="43.33206" lon="5.68157">
        <ele>595</ele>
        <time>2019-01-18T12:55:15.000Z</time>
      </trkpt>
      <trkpt lat="43.33206" lon="5.68157">
        <ele>595</ele>
        <time>2019-01-18T12:55:16.000Z</time>
      </trkpt>
      <trkpt lat="43.33206" lon="5.68157">
        <ele>595</ele>
        <time>2019-01-18T12:55:17.000Z</time>
      </trkpt>
      <trkpt lat="43.33206" lon="5.68157">
        <ele>595</ele>
        <time>2019-01-18T12:55:18.000Z</time>
      </trkpt>
      <trkpt lat="43.33206" lon="5.68157">
        <ele>595</ele>
        <time>2019-01-18T12:55:19.000Z</time>
      </trkpt>
      <trkpt lat="43.33206" lon="5.68156">
        <ele>595</ele>
        <time>2019-01-18T12:55:20.000Z</time>
      </trkpt>
      <trkpt lat="43.33206" lon="5.68156">
        <ele>595</ele>
        <time>2019-01-18T12:55:21.000Z</time>
      </trkpt>
      <trkpt lat="43.33207" lon="5.68155">
        <ele>595</ele>
        <time>2019-01-18T12:55:22.000Z</time>
      </trkpt>
      <trkpt lat="43.33207" lon="5.68155">
        <ele>595</ele>
        <time>2019-01-18T12:55:23.000Z</time>
      </trkpt>
      <trkpt lat="43.33207" lon="5.68154">
        <ele>595</ele>
        <time>2019-01-18T12:55:24.000Z</time>
      </trkpt>
      <trkpt lat="43.33207" lon="5.68154">
        <ele>595</ele>
        <time>2019-01-18T12:55:25.000Z</time>
      </trkpt>
      <trkpt lat="43.33207" lon="5.68154">
        <ele>595</ele>
        <time>2019-01-18T12:55:26.000Z</time>
      </trkpt>
      <trkpt lat="43.33207" lon="5.68154">
        <ele>595</ele>
        <time>2019-01-18T12:55:27.000Z</time>
      </trkpt>
      <trkpt lat="43.33207" lon="5.68154">
        <ele>595</ele>
        <time>2019-01-18T12:55:28.000Z</time>
      </trkpt>
      <trkpt lat="43.33207" lon="5.68154">
        <ele>595</ele>
        <time>2019-01-18T12:55:29.000Z</time>
      </trkpt>
      <trkpt lat="43.33207" lon="5.68154">
        <ele>594</ele>
        <time>2019-01-18T12:55:30.000Z</time>
      </trkpt>
      <trkpt lat="43.33207" lon="5.68154">
        <ele>594</ele>
        <time>2019-01-18T12:55:31.000Z</time>
      </trkpt>
      <trkpt lat="43.33207" lon="5.68154">
        <ele>594</ele>
        <time>2019-01-18T12:55:32.000Z</time>
      </trkpt>
      <trkpt lat="43.33207" lon="5.68154">
        <ele>594</ele>
        <time>2019-01-18T12:55:33.000Z</time>
      </trkpt>
      <trkpt lat="43.33207" lon="5.68154">
        <ele>594</ele>
        <time>2019-01-18T12:55:34.000Z</time>
      </trkpt>
      <trkpt lat="43.33207" lon="5.68154">
        <ele>594</ele>
        <time>2019-01-18T12:55:35.000Z</time>
      </trkpt>
      <trkpt lat="43.33207" lon="5.68154">
        <ele>594</ele>
        <time>2019-01-18T12:55:36.000Z</time>
      </trkpt>
      <trkpt lat="43.33208" lon="5.68153">
        <ele>594</ele>
        <time>2019-01-18T12:55:37.000Z</time>
      </trkpt>
      <trkpt lat="43.33209" lon="5.68153">
        <ele>594</ele>
        <time>2019-01-18T12:55:38.000Z</time>
      </trkpt>
      <trkpt lat="43.3321" lon="5.68152">
        <ele>594</ele>
        <time>2019-01-18T12:55:39.000Z</time>
      </trkpt>
      <trkpt lat="43.3321" lon="5.68152">
        <ele>594</ele>
        <time>2019-01-18T12:55:40.000Z</time>
      </trkpt>
      <trkpt lat="43.33211" lon="5.68151">
        <ele>594</ele>
        <time>2019-01-18T12:55:41.000Z</time>
      </trkpt>
      <trkpt lat="43.33211" lon="5.68151">
        <ele>594</ele>
        <time>2019-01-18T12:55:42.000Z</time>
      </trkpt>
      <trkpt lat="43.33212" lon="5.68151">
        <ele>594</ele>
        <time>2019-01-18T12:55:43.000Z</time>
      </trkpt>
      <trkpt lat="43.33212" lon="5.68151">
        <ele>594</ele>
        <time>2019-01-18T12:55:44.000Z</time>
      </trkpt>
      <trkpt lat="43.33212" lon="5.6815">
        <ele>594</ele>
        <time>2019-01-18T12:55:45.000Z</time>
      </trkpt>
      <trkpt lat="43.33213" lon="5.6815">
        <ele>594</ele>
        <time>2019-01-18T12:55:46.000Z</time>
      </trkpt>
      <trkpt lat="43.33213" lon="5.68149">
        <ele>594</ele>
        <time>2019-01-18T12:55:47.000Z</time>
      </trkpt>
      <trkpt lat="43.33214" lon="5.68148">
        <ele>594</ele>
        <time>2019-01-18T12:55:48.000Z</time>
      </trkpt>
      <trkpt lat="43.33214" lon="5.68147">
        <ele>594</ele>
        <time>2019-01-18T12:55:49.000Z</time>
      </trkpt>
      <trkpt lat="43.33215" lon="5.68146">
        <ele>594</ele>
        <time>2019-01-18T12:55:50.000Z</time>
      </trkpt>
      <trkpt lat="43.33216" lon="5.68146">
        <ele>594</ele>
        <time>2019-01-18T12:55:51.000Z</time>
      </trkpt>
      <trkpt lat="43.33217" lon="5.68145">
        <ele>594</ele>
        <time>2019-01-18T12:55:52.000Z</time>
      </trkpt>
      <trkpt lat="43.33218" lon="5.68144">
        <ele>594</ele>
        <time>2019-01-18T12:55:53.000Z</time>
      </trkpt>
      <trkpt lat="43.33219" lon="5.68144">
        <ele>594</ele>
        <time>2019-01-18T12:55:54.000Z</time>
      </trkpt>
      <trkpt lat="43.3322" lon="5.68144">
        <ele>594</ele>
        <time>2019-01-18T12:55:55.000Z</time>
      </trkpt>
      <trkpt lat="43.33221" lon="5.68143">
        <ele>594</ele>
        <time>2019-01-18T12:55:56.000Z</time>
      </trkpt>
      <trkpt lat="43.33222" lon="5.68143">
        <ele>594</ele>
        <time>2019-01-18T12:55:57.000Z</time>
      </trkpt>
      <trkpt lat="43.33223" lon="5.68144">
        <ele>594</ele>
        <time>2019-01-18T12:55:58.000Z</time>
      </trkpt>
      <trkpt lat="43.33224" lon="5.68144">
        <ele>594</ele>
        <time>2019-01-18T12:55:59.000Z</time>
      </trkpt>
      <trkpt lat="43.33226" lon="5.68144">
        <ele>594</ele>
        <time>2019-01-18T12:56:00.000Z</time>
      </trkpt>
      <trkpt lat="43.33227" lon="5.68144">
        <ele>594</ele>
        <time>2019-01-18T12:56:01.000Z</time>
      </trkpt>
      <trkpt lat="43.33229" lon="5.68144">
        <ele>594</ele>
        <time>2019-01-18T12:56:02.000Z</time>
      </trkpt>
      <trkpt lat="43.3323" lon="5.68144">
        <ele>594</ele>
        <time>2019-01-18T12:56:03.000Z</time>
      </trkpt>
      <trkpt lat="43.33231" lon="5.68143">
        <ele>594</ele>
        <time>2019-01-18T12:56:04.000Z</time>
      </trkpt>
      <trkpt lat="43.33232" lon="5.68143">
        <ele>594</ele>
        <time>2019-01-18T12:56:05.000Z</time>
      </trkpt>
      <trkpt lat="43.33233" lon="5.68142">
        <ele>594</ele>
        <time>2019-01-18T12:56:06.000Z</time>
      </trkpt>
      <trkpt lat="43.33234" lon="5.68141">
        <ele>594</ele>
        <time>2019-01-18T12:56:07.000Z</time>
      </trkpt>
      <trkpt lat="43.33234" lon="5.68141">
        <ele>594</ele>
        <time>2019-01-18T12:56:08.000Z</time>
      </trkpt>
      <trkpt lat="43.33235" lon="5.68141">
        <ele>593</ele>
        <time>2019-01-18T12:56:09.000Z</time>
      </trkpt>
      <trkpt lat="43.33236" lon="5.68141">
        <ele>593</ele>
        <time>2019-01-18T12:56:10.000Z</time>
      </trkpt>
      <trkpt lat="43.33236" lon="5.6814">
        <ele>593</ele>
        <time>2019-01-18T12:56:11.000Z</time>
      </trkpt>
      <trkpt lat="43.33237" lon="5.6814">
        <ele>593</ele>
        <time>2019-01-18T12:56:12.000Z</time>
      </trkpt>
      <trkpt lat="43.33237" lon="5.6814">
        <ele>593</ele>
        <time>2019-01-18T12:56:13.000Z</time>
      </trkpt>
      <trkpt lat="43.33237" lon="5.68139">
        <ele>593</ele>
        <time>2019-01-18T12:56:14.000Z</time>
      </trkpt>
      <trkpt lat="43.33237" lon="5.68137">
        <ele>593</ele>
        <time>2019-01-18T12:56:15.000Z</time>
      </trkpt>
      <trkpt lat="43.33237" lon="5.68136">
        <ele>593</ele>
        <time>2019-01-18T12:56:16.000Z</time>
      </trkpt>
      <trkpt lat="43.33237" lon="5.68134">
        <ele>593</ele>
        <time>2019-01-18T12:56:17.000Z</time>
      </trkpt>
      <trkpt lat="43.33238" lon="5.68133">
        <ele>592</ele>
        <time>2019-01-18T12:56:18.000Z</time>
      </trkpt>
      <trkpt lat="43.33238" lon="5.68133">
        <ele>592</ele>
        <time>2019-01-18T12:56:19.000Z</time>
      </trkpt>
      <trkpt lat="43.33239" lon="5.68132">
        <ele>592</ele>
        <time>2019-01-18T12:56:20.000Z</time>
      </trkpt>
      <trkpt lat="43.3324" lon="5.6813">
        <ele>592</ele>
        <time>2019-01-18T12:56:21.000Z</time>
      </trkpt>
      <trkpt lat="43.33241" lon="5.6813">
        <ele>592</ele>
        <time>2019-01-18T12:56:22.000Z</time>
      </trkpt>
      <trkpt lat="43.33242" lon="5.68129">
        <ele>592</ele>
        <time>2019-01-18T12:56:23.000Z</time>
      </trkpt>
      <trkpt lat="43.33243" lon="5.68128">
        <ele>592</ele>
        <time>2019-01-18T12:56:24.000Z</time>
      </trkpt>
      <trkpt lat="43.33243" lon="5.68128">
        <ele>592</ele>
        <time>2019-01-18T12:56:25.000Z</time>
      </trkpt>
      <trkpt lat="43.33244" lon="5.68127">
        <ele>592</ele>
        <time>2019-01-18T12:56:26.000Z</time>
      </trkpt>
      <trkpt lat="43.33245" lon="5.68127">
        <ele>592</ele>
        <time>2019-01-18T12:56:27.000Z</time>
      </trkpt>
      <trkpt lat="43.33246" lon="5.68126">
        <ele>592</ele>
        <time>2019-01-18T12:56:28.000Z</time>
      </trkpt>
      <trkpt lat="43.33247" lon="5.68126">
        <ele>591</ele>
        <time>2019-01-18T12:56:29.000Z</time>
      </trkpt>
      <trkpt lat="43.33248" lon="5.68126">
        <ele>591</ele>
        <time>2019-01-18T12:56:30.000Z</time>
      </trkpt>
      <trkpt lat="43.33249" lon="5.68125">
        <ele>591</ele>
        <time>2019-01-18T12:56:31.000Z</time>
      </trkpt>
      <trkpt lat="43.33251" lon="5.68125">
        <ele>591</ele>
        <time>2019-01-18T12:56:32.000Z</time>
      </trkpt>
      <trkpt lat="43.33252" lon="5.68124">
        <ele>591</ele>
        <time>2019-01-18T12:56:33.000Z</time>
      </trkpt>
      <trkpt lat="43.33253" lon="5.68124">
        <ele>591</ele>
        <time>2019-01-18T12:56:34.000Z</time>
      </trkpt>
      <trkpt lat="43.33254" lon="5.68124">
        <ele>591</ele>
        <time>2019-01-18T12:56:35.000Z</time>
      </trkpt>
      <trkpt lat="43.33255" lon="5.68125">
        <ele>591</ele>
        <time>2019-01-18T12:56:36.000Z</time>
      </trkpt>
      <trkpt lat="43.33257" lon="5.68125">
        <ele>591</ele>
        <time>2019-01-18T12:56:37.000Z</time>
      </trkpt>
      <trkpt lat="43.33257" lon="5.68124">
        <ele>591</ele>
        <time>2019-01-18T12:56:38.000Z</time>
      </trkpt>
      <trkpt lat="43.33258" lon="5.68124">
        <ele>590</ele>
        <time>2019-01-18T12:56:39.000Z</time>
      </trkpt>
      <trkpt lat="43.33259" lon="5.68123">
        <ele>590</ele>
        <time>2019-01-18T12:56:40.000Z</time>
      </trkpt>
      <trkpt lat="43.33259" lon="5.68122">
        <ele>590</ele>
        <time>2019-01-18T12:56:41.000Z</time>
      </trkpt>
      <trkpt lat="43.3326" lon="5.6812">
        <ele>590</ele>
        <time>2019-01-18T12:56:42.000Z</time>
      </trkpt>
      <trkpt lat="43.33261" lon="5.68119">
        <ele>590</ele>
        <time>2019-01-18T12:56:43.000Z</time>
      </trkpt>
      <trkpt lat="43.33261" lon="5.68119">
        <ele>590</ele>
        <time>2019-01-18T12:56:44.000Z</time>
      </trkpt>
      <trkpt lat="43.33262" lon="5.68118">
        <ele>590</ele>
        <time>2019-01-18T12:56:45.000Z</time>
      </trkpt>
      <trkpt lat="43.33262" lon="5.68117">
        <ele>589</ele>
        <time>2019-01-18T12:56:46.000Z</time>
      </trkpt>
      <trkpt lat="43.33263" lon="5.68117">
        <ele>589</ele>
        <time>2019-01-18T12:56:47.000Z</time>
      </trkpt>
      <trkpt lat="43.33263" lon="5.68117">
        <ele>589</ele>
        <time>2019-01-18T12:56:48.000Z</time>
      </trkpt>
      <trkpt lat="43.33263" lon="5.68117">
        <ele>589</ele>
        <time>2019-01-18T12:56:49.000Z</time>
      </trkpt>
      <trkpt lat="43.33264" lon="5.68117">
        <ele>589</ele>
        <time>2019-01-18T12:56:50.000Z</time>
      </trkpt>
      <trkpt lat="43.33264" lon="5.68117">
        <ele>589</ele>
        <time>2019-01-18T12:56:51.000Z</time>
      </trkpt>
      <trkpt lat="43.33264" lon="5.68117">
        <ele>589</ele>
        <time>2019-01-18T12:56:52.000Z</time>
      </trkpt>
      <trkpt lat="43.33264" lon="5.68117">
        <ele>589</ele>
        <time>2019-01-18T12:56:53.000Z</time>
      </trkpt>
      <trkpt lat="43.33264" lon="5.68117">
        <ele>589</ele>
        <time>2019-01-18T12:56:54.000Z</time>
      </trkpt>
      <trkpt lat="43.33265" lon="5.68117">
        <ele>589</ele>
        <time>2019-01-18T12:56:55.000Z</time>
      </trkpt>
      <trkpt lat="43.33265" lon="5.68117">
        <ele>589</ele>
        <time>2019-01-18T12:56:56.000Z</time>
      </trkpt>
      <trkpt lat="43.33265" lon="5.68117">
        <ele>589</ele>
        <time>2019-01-18T12:56:57.000Z</time>
      </trkpt>
      <trkpt lat="43.33265" lon="5.68117">
        <ele>589</ele>
        <time>2019-01-18T12:56:58.000Z</time>
      </trkpt>
      <trkpt lat="43.33265" lon="5.68117">
        <ele>588</ele>
        <time>2019-01-18T12:56:59.000Z</time>
      </trkpt>
      <trkpt lat="43.33265" lon="5.68117">
        <ele>588</ele>
        <time>2019-01-18T12:57:00.000Z</time>
      </trkpt>
      <trkpt lat="43.33265" lon="5.68117">
        <ele>588</ele>
        <time>2019-01-18T12:57:01.000Z</time>
      </trkpt>
      <trkpt lat="43.33265" lon="5.68117">
        <ele>588</ele>
        <time>2019-01-18T12:57:02.000Z</time>
      </trkpt>
      <trkpt lat="43.33265" lon="5.68117">
        <ele>588</ele>
        <time>2019-01-18T12:57:03.000Z</time>
      </trkpt>
      <trkpt lat="43.33265" lon="5.68117">
        <ele>588</ele>
        <time>2019-01-18T12:57:04.000Z</time>
      </trkpt>
      <trkpt lat="43.33265" lon="5.68117">
        <ele>588</ele>
        <time>2019-01-18T12:57:05.000Z</time>
      </trkpt>
      <trkpt lat="43.33266" lon="5.68117">
        <ele>588</ele>
        <time>2019-01-18T12:57:06.000Z</time>
      </trkpt>
      <trkpt lat="43.33266" lon="5.68117">
        <ele>588</ele>
        <time>2019-01-18T12:57:07.000Z</time>
      </trkpt>
      <trkpt lat="43.33266" lon="5.68116">
        <ele>588</ele>
        <time>2019-01-18T12:57:08.000Z</time>
      </trkpt>
      <trkpt lat="43.33267" lon="5.68116">
        <ele>588</ele>
        <time>2019-01-18T12:57:09.000Z</time>
      </trkpt>
      <trkpt lat="43.33267" lon="5.68116">
        <ele>588</ele>
        <time>2019-01-18T12:57:10.000Z</time>
      </trkpt>
      <trkpt lat="43.33268" lon="5.68115">
        <ele>588</ele>
        <time>2019-01-18T12:57:11.000Z</time>
      </trkpt>
      <trkpt lat="43.33269" lon="5.68115">
        <ele>588</ele>
        <time>2019-01-18T12:57:12.000Z</time>
      </trkpt>
      <trkpt lat="43.33269" lon="5.68114">
        <ele>588</ele>
        <time>2019-01-18T12:57:13.000Z</time>
      </trkpt>
      <trkpt lat="43.3327" lon="5.68114">
        <ele>588</ele>
        <time>2019-01-18T12:57:14.000Z</time>
      </trkpt>
      <trkpt lat="43.3327" lon="5.68114">
        <ele>588</ele>
        <time>2019-01-18T12:57:15.000Z</time>
      </trkpt>
      <trkpt lat="43.33271" lon="5.68114">
        <ele>588</ele>
        <time>2019-01-18T12:57:16.000Z</time>
      </trkpt>
      <trkpt lat="43.33271" lon="5.68114">
        <ele>588</ele>
        <time>2019-01-18T12:57:17.000Z</time>
      </trkpt>
      <trkpt lat="43.33271" lon="5.68114">
        <ele>588</ele>
        <time>2019-01-18T12:57:18.000Z</time>
      </trkpt>
      <trkpt lat="43.33272" lon="5.68114">
        <ele>587</ele>
        <time>2019-01-18T12:57:19.000Z</time>
      </trkpt>
      <trkpt lat="43.33272" lon="5.68114">
        <ele>587</ele>
        <time>2019-01-18T12:57:20.000Z</time>
      </trkpt>
      <trkpt lat="43.33273" lon="5.68113">
        <ele>587</ele>
        <time>2019-01-18T12:57:21.000Z</time>
      </trkpt>
      <trkpt lat="43.33274" lon="5.68112">
        <ele>587</ele>
        <time>2019-01-18T12:57:22.000Z</time>
      </trkpt>
      <trkpt lat="43.33274" lon="5.68111">
        <ele>587</ele>
        <time>2019-01-18T12:57:23.000Z</time>
      </trkpt>
      <trkpt lat="43.33275" lon="5.6811">
        <ele>587</ele>
        <time>2019-01-18T12:57:24.000Z</time>
      </trkpt>
      <trkpt lat="43.33275" lon="5.68109">
        <ele>588</ele>
        <time>2019-01-18T12:57:25.000Z</time>
      </trkpt>
      <trkpt lat="43.33275" lon="5.68108">
        <ele>588</ele>
        <time>2019-01-18T12:57:26.000Z</time>
      </trkpt>
      <trkpt lat="43.33275" lon="5.68106">
        <ele>588</ele>
        <time>2019-01-18T12:57:27.000Z</time>
      </trkpt>
      <trkpt lat="43.33275" lon="5.68105">
        <ele>588</ele>
        <time>2019-01-18T12:57:28.000Z</time>
      </trkpt>
      <trkpt lat="43.33275" lon="5.68104">
        <ele>588</ele>
        <time>2019-01-18T12:57:29.000Z</time>
      </trkpt>
      <trkpt lat="43.33276" lon="5.68102">
        <ele>588</ele>
        <time>2019-01-18T12:57:30.000Z</time>
      </trkpt>
      <trkpt lat="43.33276" lon="5.68102">
        <ele>588</ele>
        <time>2019-01-18T12:57:31.000Z</time>
      </trkpt>
      <trkpt lat="43.33277" lon="5.68101">
        <ele>588</ele>
        <time>2019-01-18T12:57:32.000Z</time>
      </trkpt>
      <trkpt lat="43.33277" lon="5.681">
        <ele>588</ele>
        <time>2019-01-18T12:57:33.000Z</time>
      </trkpt>
      <trkpt lat="43.33278" lon="5.68099">
        <ele>588</ele>
        <time>2019-01-18T12:57:34.000Z</time>
      </trkpt>
      <trkpt lat="43.33279" lon="5.68098">
        <ele>588</ele>
        <time>2019-01-18T12:57:35.000Z</time>
      </trkpt>
      <trkpt lat="43.3328" lon="5.68096">
        <ele>588</ele>
        <time>2019-01-18T12:57:36.000Z</time>
      </trkpt>
      <trkpt lat="43.3328" lon="5.68095">
        <ele>588</ele>
        <time>2019-01-18T12:57:37.000Z</time>
      </trkpt>
      <trkpt lat="43.33281" lon="5.68094">
        <ele>588</ele>
        <time>2019-01-18T12:57:38.000Z</time>
      </trkpt>
      <trkpt lat="43.33282" lon="5.68093">
        <ele>588</ele>
        <time>2019-01-18T12:57:39.000Z</time>
      </trkpt>
      <trkpt lat="43.33282" lon="5.68091">
        <ele>588</ele>
        <time>2019-01-18T12:57:40.000Z</time>
      </trkpt>
      <trkpt lat="43.33282" lon="5.6809">
        <ele>588</ele>
        <time>2019-01-18T12:57:41.000Z</time>
      </trkpt>
      <trkpt lat="43.33283" lon="5.68088">
        <ele>588</ele>
        <time>2019-01-18T12:57:42.000Z</time>
      </trkpt>
      <trkpt lat="43.33283" lon="5.68087">
        <ele>588</ele>
        <time>2019-01-18T12:57:43.000Z</time>
      </trkpt>
      <trkpt lat="43.33284" lon="5.68086">
        <ele>588</ele>
        <time>2019-01-18T12:57:44.000Z</time>
      </trkpt>
      <trkpt lat="43.33284" lon="5.68084">
        <ele>587</ele>
        <time>2019-01-18T12:57:45.000Z</time>
      </trkpt>
      <trkpt lat="43.33285" lon="5.68083">
        <ele>587</ele>
        <time>2019-01-18T12:57:46.000Z</time>
      </trkpt>
      <trkpt lat="43.33285" lon="5.68081">
        <ele>587</ele>
        <time>2019-01-18T12:57:47.000Z</time>
      </trkpt>
      <trkpt lat="43.33286" lon="5.6808">
        <ele>587</ele>
        <time>2019-01-18T12:57:48.000Z</time>
      </trkpt>
      <trkpt lat="43.33286" lon="5.68079">
        <ele>587</ele>
        <time>2019-01-18T12:57:49.000Z</time>
      </trkpt>
      <trkpt lat="43.33286" lon="5.68077">
        <ele>587</ele>
        <time>2019-01-18T12:57:50.000Z</time>
      </trkpt>
      <trkpt lat="43.33287" lon="5.68076">
        <ele>587</ele>
        <time>2019-01-18T12:57:51.000Z</time>
      </trkpt>
      <trkpt lat="43.33287" lon="5.68074">
        <ele>587</ele>
        <time>2019-01-18T12:57:52.000Z</time>
      </trkpt>
      <trkpt lat="43.33287" lon="5.68072">
        <ele>587</ele>
        <time>2019-01-18T12:57:53.000Z</time>
      </trkpt>
      <trkpt lat="43.33287" lon="5.6807">
        <ele>587</ele>
        <time>2019-01-18T12:57:54.000Z</time>
      </trkpt>
      <trkpt lat="43.33288" lon="5.68069">
        <ele>586</ele>
        <time>2019-01-18T12:57:55.000Z</time>
      </trkpt>
      <trkpt lat="43.33288" lon="5.68067">
        <ele>586</ele>
        <time>2019-01-18T12:57:56.000Z</time>
      </trkpt>
      <trkpt lat="43.33288" lon="5.68065">
        <ele>586</ele>
        <time>2019-01-18T12:57:57.000Z</time>
      </trkpt>
      <trkpt lat="43.33288" lon="5.68064">
        <ele>586</ele>
        <time>2019-01-18T12:57:58.000Z</time>
      </trkpt>
      <trkpt lat="43.33288" lon="5.68063">
        <ele>586</ele>
        <time>2019-01-18T12:57:59.000Z</time>
      </trkpt>
      <trkpt lat="43.33288" lon="5.68061">
        <ele>586</ele>
        <time>2019-01-18T12:58:00.000Z</time>
      </trkpt>
      <trkpt lat="43.33288" lon="5.68059">
        <ele>586</ele>
        <time>2019-01-18T12:58:01.000Z</time>
      </trkpt>
      <trkpt lat="43.33288" lon="5.68058">
        <ele>586</ele>
        <time>2019-01-18T12:58:02.000Z</time>
      </trkpt>
      <trkpt lat="43.33288" lon="5.68056">
        <ele>585</ele>
        <time>2019-01-18T12:58:03.000Z</time>
      </trkpt>
      <trkpt lat="43.33288" lon="5.68055">
        <ele>585</ele>
        <time>2019-01-18T12:58:04.000Z</time>
      </trkpt>
      <trkpt lat="43.33288" lon="5.68053">
        <ele>585</ele>
        <time>2019-01-18T12:58:05.000Z</time>
      </trkpt>
      <trkpt lat="43.33289" lon="5.68051">
        <ele>585</ele>
        <time>2019-01-18T12:58:06.000Z</time>
      </trkpt>
      <trkpt lat="43.33289" lon="5.68049">
        <ele>585</ele>
        <time>2019-01-18T12:58:07.000Z</time>
      </trkpt>
      <trkpt lat="43.33289" lon="5.68048">
        <ele>585</ele>
        <time>2019-01-18T12:58:08.000Z</time>
      </trkpt>
      <trkpt lat="43.3329" lon="5.68046">
        <ele>585</ele>
        <time>2019-01-18T12:58:09.000Z</time>
      </trkpt>
      <trkpt lat="43.3329" lon="5.68045">
        <ele>585</ele>
        <time>2019-01-18T12:58:10.000Z</time>
      </trkpt>
      <trkpt lat="43.3329" lon="5.68043">
        <ele>585</ele>
        <time>2019-01-18T12:58:11.000Z</time>
      </trkpt>
      <trkpt lat="43.33289" lon="5.68041">
        <ele>585</ele>
        <time>2019-01-18T12:58:12.000Z</time>
      </trkpt>
      <trkpt lat="43.33289" lon="5.68039">
        <ele>585</ele>
        <time>2019-01-18T12:58:13.000Z</time>
      </trkpt>
      <trkpt lat="43.33289" lon="5.68038">
        <ele>585</ele>
        <time>2019-01-18T12:58:14.000Z</time>
      </trkpt>
      <trkpt lat="43.33289" lon="5.68036">
        <ele>584</ele>
        <time>2019-01-18T12:58:15.000Z</time>
      </trkpt>
      <trkpt lat="43.33288" lon="5.68035">
        <ele>584</ele>
        <time>2019-01-18T12:58:16.000Z</time>
      </trkpt>
      <trkpt lat="43.33288" lon="5.68033">
        <ele>585</ele>
        <time>2019-01-18T12:58:17.000Z</time>
      </trkpt>
      <trkpt lat="43.33288" lon="5.68032">
        <ele>585</ele>
        <time>2019-01-18T12:58:18.000Z</time>
      </trkpt>
      <trkpt lat="43.33287" lon="5.6803">
        <ele>585</ele>
        <time>2019-01-18T12:58:19.000Z</time>
      </trkpt>
      <trkpt lat="43.33287" lon="5.68029">
        <ele>585</ele>
        <time>2019-01-18T12:58:20.000Z</time>
      </trkpt>
      <trkpt lat="43.33287" lon="5.68027">
        <ele>585</ele>
        <time>2019-01-18T12:58:21.000Z</time>
      </trkpt>
      <trkpt lat="43.33286" lon="5.68026">
        <ele>585</ele>
        <time>2019-01-18T12:58:22.000Z</time>
      </trkpt>
      <trkpt lat="43.33286" lon="5.68025">
        <ele>585</ele>
        <time>2019-01-18T12:58:23.000Z</time>
      </trkpt>
      <trkpt lat="43.33286" lon="5.68024">
        <ele>585</ele>
        <time>2019-01-18T12:58:24.000Z</time>
      </trkpt>
      <trkpt lat="43.33286" lon="5.68023">
        <ele>585</ele>
        <time>2019-01-18T12:58:25.000Z</time>
      </trkpt>
      <trkpt lat="43.33286" lon="5.68022">
        <ele>585</ele>
        <time>2019-01-18T12:58:26.000Z</time>
      </trkpt>
      <trkpt lat="43.33285" lon="5.68021">
        <ele>585</ele>
        <time>2019-01-18T12:58:27.000Z</time>
      </trkpt>
      <trkpt lat="43.33285" lon="5.68019">
        <ele>586</ele>
        <time>2019-01-18T12:58:28.000Z</time>
      </trkpt>
      <trkpt lat="43.33284" lon="5.68018">
        <ele>586</ele>
        <time>2019-01-18T12:58:29.000Z</time>
      </trkpt>
      <trkpt lat="43.33284" lon="5.68017">
        <ele>586</ele>
        <time>2019-01-18T12:58:30.000Z</time>
      </trkpt>
      <trkpt lat="43.33283" lon="5.68016">
        <ele>586</ele>
        <time>2019-01-18T12:58:31.000Z</time>
      </trkpt>
      <trkpt lat="43.33283" lon="5.68016">
        <ele>586</ele>
        <time>2019-01-18T12:58:32.000Z</time>
      </trkpt>
      <trkpt lat="43.33283" lon="5.68015">
        <ele>586</ele>
        <time>2019-01-18T12:58:33.000Z</time>
      </trkpt>
      <trkpt lat="43.33282" lon="5.68014">
        <ele>586</ele>
        <time>2019-01-18T12:58:34.000Z</time>
      </trkpt>
      <trkpt lat="43.33282" lon="5.68013">
        <ele>586</ele>
        <time>2019-01-18T12:58:35.000Z</time>
      </trkpt>
      <trkpt lat="43.33282" lon="5.68012">
        <ele>586</ele>
        <time>2019-01-18T12:58:36.000Z</time>
      </trkpt>
      <trkpt lat="43.33282" lon="5.68011">
        <ele>586</ele>
        <time>2019-01-18T12:58:37.000Z</time>
      </trkpt>
      <trkpt lat="43.33281" lon="5.6801">
        <ele>586</ele>
        <time>2019-01-18T12:58:38.000Z</time>
      </trkpt>
      <trkpt lat="43.33281" lon="5.68009">
        <ele>586</ele>
        <time>2019-01-18T12:58:39.000Z</time>
      </trkpt>
      <trkpt lat="43.3328" lon="5.68008">
        <ele>586</ele>
        <time>2019-01-18T12:58:40.000Z</time>
      </trkpt>
      <trkpt lat="43.3328" lon="5.68007">
        <ele>586</ele>
        <time>2019-01-18T12:58:41.000Z</time>
      </trkpt>
      <trkpt lat="43.33279" lon="5.68006">
        <ele>586</ele>
        <time>2019-01-18T12:58:42.000Z</time>
      </trkpt>
      <trkpt lat="43.33279" lon="5.68005">
        <ele>586</ele>
        <time>2019-01-18T12:58:43.000Z</time>
      </trkpt>
      <trkpt lat="43.33279" lon="5.68004">
        <ele>586</ele>
        <time>2019-01-18T12:58:44.000Z</time>
      </trkpt>
      <trkpt lat="43.33278" lon="5.68002">
        <ele>586</ele>
        <time>2019-01-18T12:58:45.000Z</time>
      </trkpt>
      <trkpt lat="43.33278" lon="5.68001">
        <ele>586</ele>
        <time>2019-01-18T12:58:46.000Z</time>
      </trkpt>
      <trkpt lat="43.33277" lon="5.68">
        <ele>586</ele>
        <time>2019-01-18T12:58:47.000Z</time>
      </trkpt>
      <trkpt lat="43.33277" lon="5.67999">
        <ele>586</ele>
        <time>2019-01-18T12:58:48.000Z</time>
      </trkpt>
      <trkpt lat="43.33277" lon="5.67998">
        <ele>586</ele>
        <time>2019-01-18T12:58:49.000Z</time>
      </trkpt>
      <trkpt lat="43.33276" lon="5.67996">
        <ele>586</ele>
        <time>2019-01-18T12:58:50.000Z</time>
      </trkpt>
      <trkpt lat="43.33276" lon="5.67995">
        <ele>586</ele>
        <time>2019-01-18T12:58:51.000Z</time>
      </trkpt>
      <trkpt lat="43.33276" lon="5.67994">
        <ele>586</ele>
        <time>2019-01-18T12:58:52.000Z</time>
      </trkpt>
      <trkpt lat="43.33275" lon="5.67992">
        <ele>586</ele>
        <time>2019-01-18T12:58:53.000Z</time>
      </trkpt>
      <trkpt lat="43.33275" lon="5.67991">
        <ele>586</ele>
        <time>2019-01-18T12:58:54.000Z</time>
      </trkpt>
      <trkpt lat="43.33275" lon="5.6799">
        <ele>586</ele>
        <time>2019-01-18T12:58:55.000Z</time>
      </trkpt>
      <trkpt lat="43.33275" lon="5.67988">
        <ele>586</ele>
        <time>2019-01-18T12:58:56.000Z</time>
      </trkpt>
      <trkpt lat="43.33275" lon="5.67987">
        <ele>586</ele>
        <time>2019-01-18T12:58:57.000Z</time>
      </trkpt>
      <trkpt lat="43.33274" lon="5.67985">
        <ele>586</ele>
        <time>2019-01-18T12:58:58.000Z</time>
      </trkpt>
      <trkpt lat="43.33274" lon="5.67984">
        <ele>586</ele>
        <time>2019-01-18T12:58:59.000Z</time>
      </trkpt>
      <trkpt lat="43.33274" lon="5.67983">
        <ele>586</ele>
        <time>2019-01-18T12:59:00.000Z</time>
      </trkpt>
      <trkpt lat="43.33274" lon="5.67982">
        <ele>586</ele>
        <time>2019-01-18T12:59:01.000Z</time>
      </trkpt>
      <trkpt lat="43.33274" lon="5.6798">
        <ele>586</ele>
        <time>2019-01-18T12:59:02.000Z</time>
      </trkpt>
      <trkpt lat="43.33274" lon="5.67979">
        <ele>586</ele>
        <time>2019-01-18T12:59:03.000Z</time>
      </trkpt>
      <trkpt lat="43.33273" lon="5.67977">
        <ele>586</ele>
        <time>2019-01-18T12:59:04.000Z</time>
      </trkpt>
      <trkpt lat="43.33273" lon="5.67976">
        <ele>586</ele>
        <time>2019-01-18T12:59:05.000Z</time>
      </trkpt>
      <trkpt lat="43.33273" lon="5.67975">
        <ele>586</ele>
        <time>2019-01-18T12:59:06.000Z</time>
      </trkpt>
      <trkpt lat="43.33273" lon="5.67974">
        <ele>586</ele>
        <time>2019-01-18T12:59:07.000Z</time>
      </trkpt>
      <trkpt lat="43.33272" lon="5.67972">
        <ele>587</ele>
        <time>2019-01-18T12:59:08.000Z</time>
      </trkpt>
      <trkpt lat="43.33272" lon="5.67971">
        <ele>587</ele>
        <time>2019-01-18T12:59:09.000Z</time>
      </trkpt>
      <trkpt lat="43.33272" lon="5.67969">
        <ele>587</ele>
        <time>2019-01-18T12:59:10.000Z</time>
      </trkpt>
      <trkpt lat="43.33272" lon="5.67968">
        <ele>587</ele>
        <time>2019-01-18T12:59:11.000Z</time>
      </trkpt>
      <trkpt lat="43.33272" lon="5.67967">
        <ele>587</ele>
        <time>2019-01-18T12:59:12.000Z</time>
      </trkpt>
      <trkpt lat="43.33272" lon="5.67966">
        <ele>587</ele>
        <time>2019-01-18T12:59:13.000Z</time>
      </trkpt>
      <trkpt lat="43.33271" lon="5.67964">
        <ele>587</ele>
        <time>2019-01-18T12:59:14.000Z</time>
      </trkpt>
      <trkpt lat="43.33271" lon="5.67963">
        <ele>587</ele>
        <time>2019-01-18T12:59:15.000Z</time>
      </trkpt>
      <trkpt lat="43.33271" lon="5.67961">
        <ele>587</ele>
        <time>2019-01-18T12:59:16.000Z</time>
      </trkpt>
      <trkpt lat="43.33271" lon="5.6796">
        <ele>587</ele>
        <time>2019-01-18T12:59:17.000Z</time>
      </trkpt>
      <trkpt lat="43.3327" lon="5.67959">
        <ele>588</ele>
        <time>2019-01-18T12:59:18.000Z</time>
      </trkpt>
      <trkpt lat="43.3327" lon="5.67958">
        <ele>588</ele>
        <time>2019-01-18T12:59:19.000Z</time>
      </trkpt>
      <trkpt lat="43.3327" lon="5.67957">
        <ele>588</ele>
        <time>2019-01-18T12:59:20.000Z</time>
      </trkpt>
      <trkpt lat="43.33269" lon="5.67956">
        <ele>588</ele>
        <time>2019-01-18T12:59:21.000Z</time>
      </trkpt>
      <trkpt lat="43.33269" lon="5.67955">
        <ele>588</ele>
        <time>2019-01-18T12:59:22.000Z</time>
      </trkpt>
      <trkpt lat="43.33269" lon="5.67953">
        <ele>588</ele>
        <time>2019-01-18T12:59:23.000Z</time>
      </trkpt>
      <trkpt lat="43.33269" lon="5.67952">
        <ele>588</ele>
        <time>2019-01-18T12:59:24.000Z</time>
      </trkpt>
      <trkpt lat="43.33269" lon="5.67951">
        <ele>588</ele>
        <time>2019-01-18T12:59:25.000Z</time>
      </trkpt>
      <trkpt lat="43.33268" lon="5.6795">
        <ele>588</ele>
        <time>2019-01-18T12:59:26.000Z</time>
      </trkpt>
      <trkpt lat="43.33268" lon="5.67949">
        <ele>588</ele>
        <time>2019-01-18T12:59:27.000Z</time>
      </trkpt>
      <trkpt lat="43.33268" lon="5.67948">
        <ele>588</ele>
        <time>2019-01-18T12:59:28.000Z</time>
      </trkpt>
      <trkpt lat="43.33267" lon="5.67947">
        <ele>588</ele>
        <time>2019-01-18T12:59:29.000Z</time>
      </trkpt>
      <trkpt lat="43.33266" lon="5.67946">
        <ele>588</ele>
        <time>2019-01-18T12:59:30.000Z</time>
      </trkpt>
      <trkpt lat="43.33266" lon="5.67944">
        <ele>588</ele>
        <time>2019-01-18T12:59:31.000Z</time>
      </trkpt>
      <trkpt lat="43.33265" lon="5.67943">
        <ele>588</ele>
        <time>2019-01-18T12:59:32.000Z</time>
      </trkpt>
      <trkpt lat="43.33265" lon="5.67942">
        <ele>588</ele>
        <time>2019-01-18T12:59:33.000Z</time>
      </trkpt>
      <trkpt lat="43.33265" lon="5.6794">
        <ele>589</ele>
        <time>2019-01-18T12:59:34.000Z</time>
      </trkpt>
      <trkpt lat="43.33265" lon="5.67939">
        <ele>589</ele>
        <time>2019-01-18T12:59:35.000Z</time>
      </trkpt>
      <trkpt lat="43.33265" lon="5.67938">
        <ele>589</ele>
        <time>2019-01-18T12:59:36.000Z</time>
      </trkpt>
      <trkpt lat="43.33265" lon="5.67936">
        <ele>589</ele>
        <time>2019-01-18T12:59:37.000Z</time>
      </trkpt>
      <trkpt lat="43.33265" lon="5.67935">
        <ele>589</ele>
        <time>2019-01-18T12:59:38.000Z</time>
      </trkpt>
      <trkpt lat="43.33265" lon="5.67934">
        <ele>589</ele>
        <time>2019-01-18T12:59:39.000Z</time>
      </trkpt>
      <trkpt lat="43.33265" lon="5.67933">
        <ele>589</ele>
        <time>2019-01-18T12:59:40.000Z</time>
      </trkpt>
      <trkpt lat="43.33265" lon="5.67932">
        <ele>590</ele>
        <time>2019-01-18T12:59:41.000Z</time>
      </trkpt>
      <trkpt lat="43.33265" lon="5.67932">
        <ele>590</ele>
        <time>2019-01-18T12:59:42.000Z</time>
      </trkpt>
      <trkpt lat="43.33265" lon="5.67932">
        <ele>590</ele>
        <time>2019-01-18T12:59:43.000Z</time>
      </trkpt>
      <trkpt lat="43.33265" lon="5.67932">
        <ele>590</ele>
        <time>2019-01-18T12:59:44.000Z</time>
      </trkpt>
      <trkpt lat="43.33265" lon="5.67932">
        <ele>590</ele>
        <time>2019-01-18T12:59:45.000Z</time>
      </trkpt>
      <trkpt lat="43.33265" lon="5.67932">
        <ele>590</ele>
        <time>2019-01-18T12:59:46.000Z</time>
      </trkpt>
      <trkpt lat="43.33265" lon="5.67932">
        <ele>590</ele>
        <time>2019-01-18T12:59:47.000Z</time>
      </trkpt>
      <trkpt lat="43.33265" lon="5.67932">
        <ele>590</ele>
        <time>2019-01-18T12:59:48.000Z</time>
      </trkpt>
      <trkpt lat="43.33265" lon="5.67931">
        <ele>590</ele>
        <time>2019-01-18T12:59:49.000Z</time>
      </trkpt>
      <trkpt lat="43.33265" lon="5.67931">
        <ele>590</ele>
        <time>2019-01-18T12:59:50.000Z</time>
      </trkpt>
      <trkpt lat="43.33265" lon="5.67931">
        <ele>590</ele>
        <time>2019-01-18T12:59:51.000Z</time>
      </trkpt>
      <trkpt lat="43.33265" lon="5.67931">
        <ele>590</ele>
        <time>2019-01-18T12:59:52.000Z</time>
      </trkpt>
      <trkpt lat="43.33265" lon="5.67931">
        <ele>590</ele>
        <time>2019-01-18T12:59:53.000Z</time>
      </trkpt>
      <trkpt lat="43.33265" lon="5.67931">
        <ele>590</ele>
        <time>2019-01-18T12:59:54.000Z</time>
      </trkpt>
      <trkpt lat="43.33265" lon="5.67931">
        <ele>590</ele>
        <time>2019-01-18T12:59:55.000Z</time>
      </trkpt>
      <trkpt lat="43.33265" lon="5.67931">
        <ele>590</ele>
        <time>2019-01-18T12:59:56.000Z</time>
      </trkpt>
      <trkpt lat="43.33265" lon="5.67931">
        <ele>590</ele>
        <time>2019-01-18T12:59:57.000Z</time>
      </trkpt>
      <trkpt lat="43.33265" lon="5.67931">
        <ele>590</ele>
        <time>2019-01-18T12:59:58.000Z</time>
      </trkpt>
      <trkpt lat="43.33265" lon="5.67931">
        <ele>590</ele>
        <time>2019-01-18T12:59:59.000Z</time>
      </trkpt>
      <trkpt lat="43.33265" lon="5.6793">
        <ele>590</ele>
        <time>2019-01-18T13:00:00.000Z</time>
      </trkpt>
      <trkpt lat="43.33265" lon="5.6793">
        <ele>590</ele>
        <time>2019-01-18T13:00:01.000Z</time>
      </trkpt>
      <trkpt lat="43.33266" lon="5.67929">
        <ele>591</ele>
        <time>2019-01-18T13:00:02.000Z</time>
      </trkpt>
      <trkpt lat="43.33266" lon="5.67929">
        <ele>591</ele>
        <time>2019-01-18T13:00:03.000Z</time>
      </trkpt>
      <trkpt lat="43.33267" lon="5.67928">
        <ele>591</ele>
        <time>2019-01-18T13:00:04.000Z</time>
      </trkpt>
      <trkpt lat="43.33267" lon="5.67928">
        <ele>591</ele>
        <time>2019-01-18T13:00:05.000Z</time>
      </trkpt>
      <trkpt lat="43.33268" lon="5.67927">
        <ele>591</ele>
        <time>2019-01-18T13:00:06.000Z</time>
      </trkpt>
      <trkpt lat="43.33269" lon="5.67927">
        <ele>591</ele>
        <time>2019-01-18T13:00:07.000Z</time>
      </trkpt>
      <trkpt lat="43.33269" lon="5.67927">
        <ele>591</ele>
        <time>2019-01-18T13:00:08.000Z</time>
      </trkpt>
      <trkpt lat="43.3327" lon="5.67927">
        <ele>591</ele>
        <time>2019-01-18T13:00:09.000Z</time>
      </trkpt>
      <trkpt lat="43.3327" lon="5.67927">
        <ele>591</ele>
        <time>2019-01-18T13:00:10.000Z</time>
      </trkpt>
      <trkpt lat="43.33269" lon="5.67927">
        <ele>591</ele>
        <time>2019-01-18T13:00:11.000Z</time>
      </trkpt>
      <trkpt lat="43.33269" lon="5.67927">
        <ele>591</ele>
        <time>2019-01-18T13:00:12.000Z</time>
      </trkpt>
      <trkpt lat="43.33269" lon="5.67927">
        <ele>591</ele>
        <time>2019-01-18T13:00:13.000Z</time>
      </trkpt>
      <trkpt lat="43.33269" lon="5.67927">
        <ele>591</ele>
        <time>2019-01-18T13:00:14.000Z</time>
      </trkpt>
      <trkpt lat="43.33269" lon="5.67927">
        <ele>591</ele>
        <time>2019-01-18T13:00:15.000Z</time>
      </trkpt>
      <trkpt lat="43.33269" lon="5.67926">
        <ele>591</ele>
        <time>2019-01-18T13:00:16.000Z</time>
      </trkpt>
      <trkpt lat="43.33269" lon="5.67926">
        <ele>591</ele>
        <time>2019-01-18T13:00:17.000Z</time>
      </trkpt>
      <trkpt lat="43.33269" lon="5.67926">
        <ele>591</ele>
        <time>2019-01-18T13:00:18.000Z</time>
      </trkpt>
      <trkpt lat="43.33269" lon="5.67926">
        <ele>591</ele>
        <time>2019-01-18T13:00:19.000Z</time>
      </trkpt>
      <trkpt lat="43.33269" lon="5.67926">
        <ele>591</ele>
        <time>2019-01-18T13:00:20.000Z</time>
      </trkpt>
      <trkpt lat="43.33269" lon="5.67926">
        <ele>591</ele>
        <time>2019-01-18T13:00:21.000Z</time>
      </trkpt>
      <trkpt lat="43.33269" lon="5.67926">
        <ele>591</ele>
        <time>2019-01-18T13:00:22.000Z</time>
      </trkpt>
      <trkpt lat="43.33269" lon="5.67926">
        <ele>591</ele>
        <time>2019-01-18T13:00:23.000Z</time>
      </trkpt>
      <trkpt lat="43.33269" lon="5.67926">
        <ele>591</ele>
        <time>2019-01-18T13:00:24.000Z</time>
      </trkpt>
      <trkpt lat="43.33269" lon="5.67926">
        <ele>591</ele>
        <time>2019-01-18T13:00:25.000Z</time>
      </trkpt>
      <trkpt lat="43.33269" lon="5.67926">
        <ele>591</ele>
        <time>2019-01-18T13:00:26.000Z</time>
      </trkpt>
      <trkpt lat="43.33269" lon="5.67926">
        <ele>591</ele>
        <time>2019-01-18T13:00:27.000Z</time>
      </trkpt>
      <trkpt lat="43.33269" lon="5.67926">
        <ele>591</ele>
        <time>2019-01-18T13:00:28.000Z</time>
      </trkpt>
      <trkpt lat="43.33269" lon="5.67926">
        <ele>591</ele>
        <time>2019-01-18T13:00:29.000Z</time>
      </trkpt>
      <trkpt lat="43.33269" lon="5.67926">
        <ele>591</ele>
        <time>2019-01-18T13:00:30.000Z</time>
      </trkpt>
      <trkpt lat="43.33269" lon="5.67926">
        <ele>591</ele>
        <time>2019-01-18T13:00:31.000Z</time>
      </trkpt>
      <trkpt lat="43.33269" lon="5.67925">
        <ele>591</ele>
        <time>2019-01-18T13:00:32.000Z</time>
      </trkpt>
      <trkpt lat="43.33268" lon="5.67924">
        <ele>591</ele>
        <time>2019-01-18T13:00:33.000Z</time>
      </trkpt>
      <trkpt lat="43.33268" lon="5.67923">
        <ele>591</ele>
        <time>2019-01-18T13:00:34.000Z</time>
      </trkpt>
      <trkpt lat="43.33267" lon="5.67923">
        <ele>591</ele>
        <time>2019-01-18T13:00:35.000Z</time>
      </trkpt>
      <trkpt lat="43.33266" lon="5.67922">
        <ele>591</ele>
        <time>2019-01-18T13:00:36.000Z</time>
      </trkpt>
      <trkpt lat="43.33266" lon="5.67921">
        <ele>591</ele>
        <time>2019-01-18T13:00:37.000Z</time>
      </trkpt>
      <trkpt lat="43.33265" lon="5.6792">
        <ele>591</ele>
        <time>2019-01-18T13:00:38.000Z</time>
      </trkpt>
      <trkpt lat="43.33264" lon="5.6792">
        <ele>591</ele>
        <time>2019-01-18T13:00:39.000Z</time>
      </trkpt>
      <trkpt lat="43.33263" lon="5.67919">
        <ele>591</ele>
        <time>2019-01-18T13:00:40.000Z</time>
      </trkpt>
      <trkpt lat="43.33262" lon="5.67918">
        <ele>591</ele>
        <time>2019-01-18T13:00:41.000Z</time>
      </trkpt>
      <trkpt lat="43.33262" lon="5.67917">
        <ele>591</ele>
        <time>2019-01-18T13:00:42.000Z</time>
      </trkpt>
      <trkpt lat="43.33261" lon="5.67916">
        <ele>591</ele>
        <time>2019-01-18T13:00:43.000Z</time>
      </trkpt>
      <trkpt lat="43.3326" lon="5.67915">
        <ele>592</ele>
        <time>2019-01-18T13:00:44.000Z</time>
      </trkpt>
      <trkpt lat="43.33259" lon="5.67914">
        <ele>592</ele>
        <time>2019-01-18T13:00:45.000Z</time>
      </trkpt>
      <trkpt lat="43.33259" lon="5.67913">
        <ele>592</ele>
        <time>2019-01-18T13:00:46.000Z</time>
      </trkpt>
      <trkpt lat="43.33258" lon="5.67912">
        <ele>592</ele>
        <time>2019-01-18T13:00:47.000Z</time>
      </trkpt>
      <trkpt lat="43.33258" lon="5.67911">
        <ele>592</ele>
        <time>2019-01-18T13:00:48.000Z</time>
      </trkpt>
      <trkpt lat="43.33257" lon="5.67909">
        <ele>592</ele>
        <time>2019-01-18T13:00:49.000Z</time>
      </trkpt>
      <trkpt lat="43.33256" lon="5.67908">
        <ele>592</ele>
        <time>2019-01-18T13:00:50.000Z</time>
      </trkpt>
      <trkpt lat="43.33255" lon="5.67907">
        <ele>592</ele>
        <time>2019-01-18T13:00:51.000Z</time>
      </trkpt>
      <trkpt lat="43.33255" lon="5.67906">
        <ele>592</ele>
        <time>2019-01-18T13:00:52.000Z</time>
      </trkpt>
      <trkpt lat="43.33254" lon="5.67905">
        <ele>592</ele>
        <time>2019-01-18T13:00:53.000Z</time>
      </trkpt>
      <trkpt lat="43.33254" lon="5.67904">
        <ele>592</ele>
        <time>2019-01-18T13:00:54.000Z</time>
      </trkpt>
      <trkpt lat="43.33253" lon="5.67902">
        <ele>592</ele>
        <time>2019-01-18T13:00:55.000Z</time>
      </trkpt>
      <trkpt lat="43.33252" lon="5.67901">
        <ele>593</ele>
        <time>2019-01-18T13:00:56.000Z</time>
      </trkpt>
      <trkpt lat="43.33252" lon="5.679">
        <ele>593</ele>
        <time>2019-01-18T13:00:57.000Z</time>
      </trkpt>
      <trkpt lat="43.33252" lon="5.67898">
        <ele>593</ele>
        <time>2019-01-18T13:00:58.000Z</time>
      </trkpt>
      <trkpt lat="43.33252" lon="5.67897">
        <ele>593</ele>
        <time>2019-01-18T13:00:59.000Z</time>
      </trkpt>
      <trkpt lat="43.33252" lon="5.67897">
        <ele>593</ele>
        <time>2019-01-18T13:01:00.000Z</time>
      </trkpt>
      <trkpt lat="43.33252" lon="5.67896">
        <ele>593</ele>
        <time>2019-01-18T13:01:01.000Z</time>
      </trkpt>
      <trkpt lat="43.33252" lon="5.67895">
        <ele>593</ele>
        <time>2019-01-18T13:01:02.000Z</time>
      </trkpt>
      <trkpt lat="43.33252" lon="5.67894">
        <ele>593</ele>
        <time>2019-01-18T13:01:03.000Z</time>
      </trkpt>
      <trkpt lat="43.33252" lon="5.67892">
        <ele>592</ele>
        <time>2019-01-18T13:01:04.000Z</time>
      </trkpt>
      <trkpt lat="43.33251" lon="5.6789">
        <ele>592</ele>
        <time>2019-01-18T13:01:05.000Z</time>
      </trkpt>
      <trkpt lat="43.33251" lon="5.67889">
        <ele>592</ele>
        <time>2019-01-18T13:01:06.000Z</time>
      </trkpt>
      <trkpt lat="43.33251" lon="5.67888">
        <ele>592</ele>
        <time>2019-01-18T13:01:07.000Z</time>
      </trkpt>
      <trkpt lat="43.33251" lon="5.67886">
        <ele>592</ele>
        <time>2019-01-18T13:01:08.000Z</time>
      </trkpt>
      <trkpt lat="43.3325" lon="5.67885">
        <ele>592</ele>
        <time>2019-01-18T13:01:09.000Z</time>
      </trkpt>
      <trkpt lat="43.33249" lon="5.67883">
        <ele>592</ele>
        <time>2019-01-18T13:01:10.000Z</time>
      </trkpt>
      <trkpt lat="43.33248" lon="5.67882">
        <ele>592</ele>
        <time>2019-01-18T13:01:11.000Z</time>
      </trkpt>
      <trkpt lat="43.33248" lon="5.67881">
        <ele>592</ele>
        <time>2019-01-18T13:01:12.000Z</time>
      </trkpt>
      <trkpt lat="43.33247" lon="5.67879">
        <ele>593</ele>
        <time>2019-01-18T13:01:13.000Z</time>
      </trkpt>
      <trkpt lat="43.33247" lon="5.67877">
        <ele>593</ele>
        <time>2019-01-18T13:01:14.000Z</time>
      </trkpt>
      <trkpt lat="43.33246" lon="5.67876">
        <ele>593</ele>
        <time>2019-01-18T13:01:15.000Z</time>
      </trkpt>
      <trkpt lat="43.33245" lon="5.67875">
        <ele>593</ele>
        <time>2019-01-18T13:01:16.000Z</time>
      </trkpt>
      <trkpt lat="43.33245" lon="5.67873">
        <ele>593</ele>
        <time>2019-01-18T13:01:17.000Z</time>
      </trkpt>
      <trkpt lat="43.33244" lon="5.67872">
        <ele>593</ele>
        <time>2019-01-18T13:01:18.000Z</time>
      </trkpt>
      <trkpt lat="43.33244" lon="5.6787">
        <ele>593</ele>
        <time>2019-01-18T13:01:19.000Z</time>
      </trkpt>
      <trkpt lat="43.33244" lon="5.67868">
        <ele>593</ele>
        <time>2019-01-18T13:01:20.000Z</time>
      </trkpt>
      <trkpt lat="43.33243" lon="5.67867">
        <ele>593</ele>
        <time>2019-01-18T13:01:21.000Z</time>
      </trkpt>
      <trkpt lat="43.33243" lon="5.67866">
        <ele>593</ele>
        <time>2019-01-18T13:01:22.000Z</time>
      </trkpt>
      <trkpt lat="43.33242" lon="5.67865">
        <ele>593</ele>
        <time>2019-01-18T13:01:23.000Z</time>
      </trkpt>
      <trkpt lat="43.33241" lon="5.67864">
        <ele>593</ele>
        <time>2019-01-18T13:01:24.000Z</time>
      </trkpt>
      <trkpt lat="43.3324" lon="5.67862">
        <ele>593</ele>
        <time>2019-01-18T13:01:25.000Z</time>
      </trkpt>
      <trkpt lat="43.3324" lon="5.67861">
        <ele>593</ele>
        <time>2019-01-18T13:01:26.000Z</time>
      </trkpt>
      <trkpt lat="43.33239" lon="5.6786">
        <ele>593</ele>
        <time>2019-01-18T13:01:27.000Z</time>
      </trkpt>
      <trkpt lat="43.33239" lon="5.67859">
        <ele>593</ele>
        <time>2019-01-18T13:01:28.000Z</time>
      </trkpt>
      <trkpt lat="43.33239" lon="5.67857">
        <ele>593</ele>
        <time>2019-01-18T13:01:29.000Z</time>
      </trkpt>
      <trkpt lat="43.33239" lon="5.67856">
        <ele>593</ele>
        <time>2019-01-18T13:01:30.000Z</time>
      </trkpt>
      <trkpt lat="43.33239" lon="5.67854">
        <ele>593</ele>
        <time>2019-01-18T13:01:31.000Z</time>
      </trkpt>
      <trkpt lat="43.33239" lon="5.67853">
        <ele>594</ele>
        <time>2019-01-18T13:01:32.000Z</time>
      </trkpt>
      <trkpt lat="43.33239" lon="5.67852">
        <ele>594</ele>
        <time>2019-01-18T13:01:33.000Z</time>
      </trkpt>
      <trkpt lat="43.33239" lon="5.6785">
        <ele>594</ele>
        <time>2019-01-18T13:01:34.000Z</time>
      </trkpt>
      <trkpt lat="43.33239" lon="5.67849">
        <ele>594</ele>
        <time>2019-01-18T13:01:35.000Z</time>
      </trkpt>
      <trkpt lat="43.33239" lon="5.67847">
        <ele>594</ele>
        <time>2019-01-18T13:01:36.000Z</time>
      </trkpt>
      <trkpt lat="43.33239" lon="5.67846">
        <ele>594</ele>
        <time>2019-01-18T13:01:37.000Z</time>
      </trkpt>
      <trkpt lat="43.33239" lon="5.67844">
        <ele>594</ele>
        <time>2019-01-18T13:01:38.000Z</time>
      </trkpt>
      <trkpt lat="43.33239" lon="5.67843">
        <ele>594</ele>
        <time>2019-01-18T13:01:39.000Z</time>
      </trkpt>
      <trkpt lat="43.33239" lon="5.67841">
        <ele>594</ele>
        <time>2019-01-18T13:01:40.000Z</time>
      </trkpt>
      <trkpt lat="43.3324" lon="5.6784">
        <ele>594</ele>
        <time>2019-01-18T13:01:41.000Z</time>
      </trkpt>
      <trkpt lat="43.3324" lon="5.67838">
        <ele>594</ele>
        <time>2019-01-18T13:01:42.000Z</time>
      </trkpt>
      <trkpt lat="43.3324" lon="5.67837">
        <ele>594</ele>
        <time>2019-01-18T13:01:43.000Z</time>
      </trkpt>
      <trkpt lat="43.33241" lon="5.67835">
        <ele>594</ele>
        <time>2019-01-18T13:01:44.000Z</time>
      </trkpt>
      <trkpt lat="43.33241" lon="5.67834">
        <ele>594</ele>
        <time>2019-01-18T13:01:45.000Z</time>
      </trkpt>
      <trkpt lat="43.33241" lon="5.67832">
        <ele>594</ele>
        <time>2019-01-18T13:01:46.000Z</time>
      </trkpt>
      <trkpt lat="43.33241" lon="5.67831">
        <ele>594</ele>
        <time>2019-01-18T13:01:47.000Z</time>
      </trkpt>
      <trkpt lat="43.33241" lon="5.67829">
        <ele>594</ele>
        <time>2019-01-18T13:01:48.000Z</time>
      </trkpt>
      <trkpt lat="43.33241" lon="5.67827">
        <ele>594</ele>
        <time>2019-01-18T13:01:49.000Z</time>
      </trkpt>
      <trkpt lat="43.3324" lon="5.67826">
        <ele>594</ele>
        <time>2019-01-18T13:01:50.000Z</time>
      </trkpt>
      <trkpt lat="43.3324" lon="5.67825">
        <ele>594</ele>
        <time>2019-01-18T13:01:51.000Z</time>
      </trkpt>
      <trkpt lat="43.33239" lon="5.67823">
        <ele>594</ele>
        <time>2019-01-18T13:01:52.000Z</time>
      </trkpt>
      <trkpt lat="43.33239" lon="5.67822">
        <ele>594</ele>
        <time>2019-01-18T13:01:53.000Z</time>
      </trkpt>
      <trkpt lat="43.33238" lon="5.67821">
        <ele>594</ele>
        <time>2019-01-18T13:01:54.000Z</time>
      </trkpt>
      <trkpt lat="43.33238" lon="5.6782">
        <ele>594</ele>
        <time>2019-01-18T13:01:55.000Z</time>
      </trkpt>
      <trkpt lat="43.33238" lon="5.67818">
        <ele>594</ele>
        <time>2019-01-18T13:01:56.000Z</time>
      </trkpt>
      <trkpt lat="43.33238" lon="5.67817">
        <ele>595</ele>
        <time>2019-01-18T13:01:57.000Z</time>
      </trkpt>
      <trkpt lat="43.33238" lon="5.67816">
        <ele>595</ele>
        <time>2019-01-18T13:01:58.000Z</time>
      </trkpt>
      <trkpt lat="43.33238" lon="5.67814">
        <ele>595</ele>
        <time>2019-01-18T13:01:59.000Z</time>
      </trkpt>
      <trkpt lat="43.33238" lon="5.67813">
        <ele>595</ele>
        <time>2019-01-18T13:02:00.000Z</time>
      </trkpt>
      <trkpt lat="43.33238" lon="5.67811">
        <ele>595</ele>
        <time>2019-01-18T13:02:01.000Z</time>
      </trkpt>
      <trkpt lat="43.33238" lon="5.6781">
        <ele>595</ele>
        <time>2019-01-18T13:02:02.000Z</time>
      </trkpt>
      <trkpt lat="43.33237" lon="5.67808">
        <ele>596</ele>
        <time>2019-01-18T13:02:03.000Z</time>
      </trkpt>
      <trkpt lat="43.33237" lon="5.67806">
        <ele>596</ele>
        <time>2019-01-18T13:02:04.000Z</time>
      </trkpt>
      <trkpt lat="43.33237" lon="5.67805">
        <ele>596</ele>
        <time>2019-01-18T13:02:05.000Z</time>
      </trkpt>
      <trkpt lat="43.33236" lon="5.67804">
        <ele>596</ele>
        <time>2019-01-18T13:02:06.000Z</time>
      </trkpt>
      <trkpt lat="43.33236" lon="5.67802">
        <ele>596</ele>
        <time>2019-01-18T13:02:07.000Z</time>
      </trkpt>
      <trkpt lat="43.33235" lon="5.678">
        <ele>596</ele>
        <time>2019-01-18T13:02:08.000Z</time>
      </trkpt>
      <trkpt lat="43.33235" lon="5.67799">
        <ele>597</ele>
        <time>2019-01-18T13:02:09.000Z</time>
      </trkpt>
      <trkpt lat="43.33235" lon="5.67797">
        <ele>597</ele>
        <time>2019-01-18T13:02:10.000Z</time>
      </trkpt>
      <trkpt lat="43.33234" lon="5.67796">
        <ele>597</ele>
        <time>2019-01-18T13:02:11.000Z</time>
      </trkpt>
      <trkpt lat="43.33233" lon="5.67795">
        <ele>597</ele>
        <time>2019-01-18T13:02:12.000Z</time>
      </trkpt>
      <trkpt lat="43.33233" lon="5.67794">
        <ele>597</ele>
        <time>2019-01-18T13:02:13.000Z</time>
      </trkpt>
      <trkpt lat="43.33233" lon="5.67792">
        <ele>597</ele>
        <time>2019-01-18T13:02:14.000Z</time>
      </trkpt>
      <trkpt lat="43.33232" lon="5.67791">
        <ele>597</ele>
        <time>2019-01-18T13:02:15.000Z</time>
      </trkpt>
      <trkpt lat="43.33232" lon="5.67789">
        <ele>598</ele>
        <time>2019-01-18T13:02:16.000Z</time>
      </trkpt>
      <trkpt lat="43.33232" lon="5.67788">
        <ele>598</ele>
        <time>2019-01-18T13:02:17.000Z</time>
      </trkpt>
      <trkpt lat="43.33231" lon="5.67786">
        <ele>598</ele>
        <time>2019-01-18T13:02:18.000Z</time>
      </trkpt>
      <trkpt lat="43.33231" lon="5.67785">
        <ele>598</ele>
        <time>2019-01-18T13:02:19.000Z</time>
      </trkpt>
      <trkpt lat="43.3323" lon="5.67783">
        <ele>598</ele>
        <time>2019-01-18T13:02:20.000Z</time>
      </trkpt>
      <trkpt lat="43.3323" lon="5.67782">
        <ele>598</ele>
        <time>2019-01-18T13:02:21.000Z</time>
      </trkpt>
      <trkpt lat="43.3323" lon="5.6778">
        <ele>598</ele>
        <time>2019-01-18T13:02:22.000Z</time>
      </trkpt>
      <trkpt lat="43.33229" lon="5.67779">
        <ele>598</ele>
        <time>2019-01-18T13:02:23.000Z</time>
      </trkpt>
      <trkpt lat="43.33229" lon="5.67777">
        <ele>599</ele>
        <time>2019-01-18T13:02:24.000Z</time>
      </trkpt>
      <trkpt lat="43.33229" lon="5.67776">
        <ele>599</ele>
        <time>2019-01-18T13:02:25.000Z</time>
      </trkpt>
      <trkpt lat="43.33228" lon="5.67774">
        <ele>599</ele>
        <time>2019-01-18T13:02:26.000Z</time>
      </trkpt>
      <trkpt lat="43.33228" lon="5.67773">
        <ele>599</ele>
        <time>2019-01-18T13:02:27.000Z</time>
      </trkpt>
      <trkpt lat="43.33227" lon="5.67772">
        <ele>599</ele>
        <time>2019-01-18T13:02:28.000Z</time>
      </trkpt>
      <trkpt lat="43.33226" lon="5.67771">
        <ele>599</ele>
        <time>2019-01-18T13:02:29.000Z</time>
      </trkpt>
      <trkpt lat="43.33226" lon="5.67769">
        <ele>600</ele>
        <time>2019-01-18T13:02:30.000Z</time>
      </trkpt>
      <trkpt lat="43.33226" lon="5.67768">
        <ele>599</ele>
        <time>2019-01-18T13:02:31.000Z</time>
      </trkpt>
      <trkpt lat="43.33225" lon="5.67767">
        <ele>599</ele>
        <time>2019-01-18T13:02:32.000Z</time>
      </trkpt>
      <trkpt lat="43.33225" lon="5.67765">
        <ele>599</ele>
        <time>2019-01-18T13:02:33.000Z</time>
      </trkpt>
      <trkpt lat="43.33224" lon="5.67764">
        <ele>600</ele>
        <time>2019-01-18T13:02:34.000Z</time>
      </trkpt>
      <trkpt lat="43.33224" lon="5.67762">
        <ele>600</ele>
        <time>2019-01-18T13:02:35.000Z</time>
      </trkpt>
      <trkpt lat="43.33223" lon="5.67761">
        <ele>600</ele>
        <time>2019-01-18T13:02:36.000Z</time>
      </trkpt>
      <trkpt lat="43.33223" lon="5.6776">
        <ele>600</ele>
        <time>2019-01-18T13:02:37.000Z</time>
      </trkpt>
      <trkpt lat="43.33222" lon="5.67758">
        <ele>600</ele>
        <time>2019-01-18T13:02:38.000Z</time>
      </trkpt>
      <trkpt lat="43.33222" lon="5.67757">
        <ele>600</ele>
        <time>2019-01-18T13:02:39.000Z</time>
      </trkpt>
      <trkpt lat="43.33221" lon="5.67755">
        <ele>600</ele>
        <time>2019-01-18T13:02:40.000Z</time>
      </trkpt>
      <trkpt lat="43.33221" lon="5.67754">
        <ele>600</ele>
        <time>2019-01-18T13:02:41.000Z</time>
      </trkpt>
      <trkpt lat="43.3322" lon="5.67753">
        <ele>600</ele>
        <time>2019-01-18T13:02:42.000Z</time>
      </trkpt>
      <trkpt lat="43.3322" lon="5.67751">
        <ele>601</ele>
        <time>2019-01-18T13:02:43.000Z</time>
      </trkpt>
      <trkpt lat="43.33219" lon="5.6775">
        <ele>601</ele>
        <time>2019-01-18T13:02:44.000Z</time>
      </trkpt>
      <trkpt lat="43.33219" lon="5.67749">
        <ele>601</ele>
        <time>2019-01-18T13:02:45.000Z</time>
      </trkpt>
      <trkpt lat="43.33218" lon="5.67747">
        <ele>601</ele>
        <time>2019-01-18T13:02:46.000Z</time>
      </trkpt>
      <trkpt lat="43.33218" lon="5.67746">
        <ele>601</ele>
        <time>2019-01-18T13:02:47.000Z</time>
      </trkpt>
      <trkpt lat="43.33217" lon="5.67746">
        <ele>601</ele>
        <time>2019-01-18T13:02:48.000Z</time>
      </trkpt>
      <trkpt lat="43.33216" lon="5.67745">
        <ele>601</ele>
        <time>2019-01-18T13:02:49.000Z</time>
      </trkpt>
      <trkpt lat="43.33215" lon="5.67744">
        <ele>601</ele>
        <time>2019-01-18T13:02:50.000Z</time>
      </trkpt>
      <trkpt lat="43.33215" lon="5.67743">
        <ele>601</ele>
        <time>2019-01-18T13:02:51.000Z</time>
      </trkpt>
      <trkpt lat="43.33214" lon="5.67742">
        <ele>602</ele>
        <time>2019-01-18T13:02:52.000Z</time>
      </trkpt>
      <trkpt lat="43.33213" lon="5.67742">
        <ele>602</ele>
        <time>2019-01-18T13:02:53.000Z</time>
      </trkpt>
      <trkpt lat="43.33213" lon="5.67741">
        <ele>602</ele>
        <time>2019-01-18T13:02:54.000Z</time>
      </trkpt>
      <trkpt lat="43.33212" lon="5.67741">
        <ele>602</ele>
        <time>2019-01-18T13:02:55.000Z</time>
      </trkpt>
      <trkpt lat="43.33211" lon="5.6774">
        <ele>602</ele>
        <time>2019-01-18T13:02:56.000Z</time>
      </trkpt>
      <trkpt lat="43.3321" lon="5.67739">
        <ele>602</ele>
        <time>2019-01-18T13:02:57.000Z</time>
      </trkpt>
      <trkpt lat="43.33209" lon="5.67738">
        <ele>602</ele>
        <time>2019-01-18T13:02:58.000Z</time>
      </trkpt>
      <trkpt lat="43.33208" lon="5.67737">
        <ele>602</ele>
        <time>2019-01-18T13:02:59.000Z</time>
      </trkpt>
      <trkpt lat="43.33208" lon="5.67737">
        <ele>602</ele>
        <time>2019-01-18T13:03:00.000Z</time>
      </trkpt>
      <trkpt lat="43.33207" lon="5.67736">
        <ele>602</ele>
        <time>2019-01-18T13:03:01.000Z</time>
      </trkpt>
      <trkpt lat="43.33206" lon="5.67735">
        <ele>602</ele>
        <time>2019-01-18T13:03:02.000Z</time>
      </trkpt>
      <trkpt lat="43.33206" lon="5.67734">
        <ele>602</ele>
        <time>2019-01-18T13:03:03.000Z</time>
      </trkpt>
      <trkpt lat="43.33205" lon="5.67733">
        <ele>603</ele>
        <time>2019-01-18T13:03:04.000Z</time>
      </trkpt>
      <trkpt lat="43.33205" lon="5.67732">
        <ele>603</ele>
        <time>2019-01-18T13:03:05.000Z</time>
      </trkpt>
      <trkpt lat="43.33204" lon="5.67731">
        <ele>603</ele>
        <time>2019-01-18T13:03:06.000Z</time>
      </trkpt>
      <trkpt lat="43.33204" lon="5.6773">
        <ele>603</ele>
        <time>2019-01-18T13:03:07.000Z</time>
      </trkpt>
      <trkpt lat="43.33204" lon="5.67729">
        <ele>603</ele>
        <time>2019-01-18T13:03:08.000Z</time>
      </trkpt>
      <trkpt lat="43.33203" lon="5.67728">
        <ele>603</ele>
        <time>2019-01-18T13:03:09.000Z</time>
      </trkpt>
      <trkpt lat="43.33203" lon="5.67727">
        <ele>603</ele>
        <time>2019-01-18T13:03:10.000Z</time>
      </trkpt>
      <trkpt lat="43.33203" lon="5.67726">
        <ele>603</ele>
        <time>2019-01-18T13:03:11.000Z</time>
      </trkpt>
      <trkpt lat="43.33204" lon="5.67724">
        <ele>603</ele>
        <time>2019-01-18T13:03:12.000Z</time>
      </trkpt>
      <trkpt lat="43.33204" lon="5.67723">
        <ele>603</ele>
        <time>2019-01-18T13:03:13.000Z</time>
      </trkpt>
      <trkpt lat="43.33204" lon="5.67721">
        <ele>604</ele>
        <time>2019-01-18T13:03:14.000Z</time>
      </trkpt>
      <trkpt lat="43.33204" lon="5.6772">
        <ele>604</ele>
        <time>2019-01-18T13:03:15.000Z</time>
      </trkpt>
      <trkpt lat="43.33204" lon="5.67718">
        <ele>604</ele>
        <time>2019-01-18T13:03:16.000Z</time>
      </trkpt>
      <trkpt lat="43.33204" lon="5.67717">
        <ele>604</ele>
        <time>2019-01-18T13:03:17.000Z</time>
      </trkpt>
      <trkpt lat="43.33204" lon="5.67715">
        <ele>604</ele>
        <time>2019-01-18T13:03:18.000Z</time>
      </trkpt>
      <trkpt lat="43.33204" lon="5.67714">
        <ele>604</ele>
        <time>2019-01-18T13:03:19.000Z</time>
      </trkpt>
      <trkpt lat="43.33204" lon="5.67713">
        <ele>604</ele>
        <time>2019-01-18T13:03:20.000Z</time>
      </trkpt>
      <trkpt lat="43.33204" lon="5.67711">
        <ele>604</ele>
        <time>2019-01-18T13:03:21.000Z</time>
      </trkpt>
      <trkpt lat="43.33203" lon="5.6771">
        <ele>604</ele>
        <time>2019-01-18T13:03:22.000Z</time>
      </trkpt>
      <trkpt lat="43.33203" lon="5.67709">
        <ele>604</ele>
        <time>2019-01-18T13:03:23.000Z</time>
      </trkpt>
      <trkpt lat="43.33202" lon="5.67708">
        <ele>604</ele>
        <time>2019-01-18T13:03:24.000Z</time>
      </trkpt>
      <trkpt lat="43.33202" lon="5.67707">
        <ele>604</ele>
        <time>2019-01-18T13:03:25.000Z</time>
      </trkpt>
      <trkpt lat="43.33202" lon="5.67705">
        <ele>605</ele>
        <time>2019-01-18T13:03:26.000Z</time>
      </trkpt>
      <trkpt lat="43.33201" lon="5.67704">
        <ele>605</ele>
        <time>2019-01-18T13:03:27.000Z</time>
      </trkpt>
      <trkpt lat="43.33201" lon="5.67703">
        <ele>605</ele>
        <time>2019-01-18T13:03:28.000Z</time>
      </trkpt>
      <trkpt lat="43.332" lon="5.67702">
        <ele>605</ele>
        <time>2019-01-18T13:03:29.000Z</time>
      </trkpt>
      <trkpt lat="43.332" lon="5.67701">
        <ele>605</ele>
        <time>2019-01-18T13:03:30.000Z</time>
      </trkpt>
      <trkpt lat="43.33199" lon="5.677">
        <ele>605</ele>
        <time>2019-01-18T13:03:31.000Z</time>
      </trkpt>
      <trkpt lat="43.33199" lon="5.67699">
        <ele>605</ele>
        <time>2019-01-18T13:03:32.000Z</time>
      </trkpt>
      <trkpt lat="43.33199" lon="5.67697">
        <ele>606</ele>
        <time>2019-01-18T13:03:33.000Z</time>
      </trkpt>
      <trkpt lat="43.33198" lon="5.67696">
        <ele>606</ele>
        <time>2019-01-18T13:03:34.000Z</time>
      </trkpt>
      <trkpt lat="43.33198" lon="5.67695">
        <ele>606</ele>
        <time>2019-01-18T13:03:35.000Z</time>
      </trkpt>
      <trkpt lat="43.33198" lon="5.67693">
        <ele>606</ele>
        <time>2019-01-18T13:03:36.000Z</time>
      </trkpt>
      <trkpt lat="43.33197" lon="5.67692">
        <ele>606</ele>
        <time>2019-01-18T13:03:37.000Z</time>
      </trkpt>
      <trkpt lat="43.33197" lon="5.67691">
        <ele>606</ele>
        <time>2019-01-18T13:03:38.000Z</time>
      </trkpt>
      <trkpt lat="43.33196" lon="5.6769">
        <ele>606</ele>
        <time>2019-01-18T13:03:39.000Z</time>
      </trkpt>
      <trkpt lat="43.33196" lon="5.67688">
        <ele>607</ele>
        <time>2019-01-18T13:03:40.000Z</time>
      </trkpt>
      <trkpt lat="43.33196" lon="5.67687">
        <ele>607</ele>
        <time>2019-01-18T13:03:41.000Z</time>
      </trkpt>
      <trkpt lat="43.33196" lon="5.67686">
        <ele>607</ele>
        <time>2019-01-18T13:03:42.000Z</time>
      </trkpt>
      <trkpt lat="43.33195" lon="5.67685">
        <ele>607</ele>
        <time>2019-01-18T13:03:43.000Z</time>
      </trkpt>
      <trkpt lat="43.33195" lon="5.67683">
        <ele>607</ele>
        <time>2019-01-18T13:03:44.000Z</time>
      </trkpt>
      <trkpt lat="43.33194" lon="5.67682">
        <ele>607</ele>
        <time>2019-01-18T13:03:45.000Z</time>
      </trkpt>
      <trkpt lat="43.33194" lon="5.67681">
        <ele>607</ele>
        <time>2019-01-18T13:03:46.000Z</time>
      </trkpt>
      <trkpt lat="43.33194" lon="5.67679">
        <ele>608</ele>
        <time>2019-01-18T13:03:47.000Z</time>
      </trkpt>
      <trkpt lat="43.33193" lon="5.67678">
        <ele>608</ele>
        <time>2019-01-18T13:03:48.000Z</time>
      </trkpt>
      <trkpt lat="43.33193" lon="5.67677">
        <ele>608</ele>
        <time>2019-01-18T13:03:49.000Z</time>
      </trkpt>
      <trkpt lat="43.33192" lon="5.67676">
        <ele>608</ele>
        <time>2019-01-18T13:03:50.000Z</time>
      </trkpt>
      <trkpt lat="43.33192" lon="5.67675">
        <ele>608</ele>
        <time>2019-01-18T13:03:51.000Z</time>
      </trkpt>
      <trkpt lat="43.33192" lon="5.67674">
        <ele>609</ele>
        <time>2019-01-18T13:03:52.000Z</time>
      </trkpt>
      <trkpt lat="43.33191" lon="5.67673">
        <ele>609</ele>
        <time>2019-01-18T13:03:53.000Z</time>
      </trkpt>
      <trkpt lat="43.33191" lon="5.67672">
        <ele>609</ele>
        <time>2019-01-18T13:03:54.000Z</time>
      </trkpt>
      <trkpt lat="43.3319" lon="5.6767">
        <ele>609</ele>
        <time>2019-01-18T13:03:55.000Z</time>
      </trkpt>
      <trkpt lat="43.3319" lon="5.67669">
        <ele>609</ele>
        <time>2019-01-18T13:03:56.000Z</time>
      </trkpt>
      <trkpt lat="43.3319" lon="5.67668">
        <ele>609</ele>
        <time>2019-01-18T13:03:57.000Z</time>
      </trkpt>
      <trkpt lat="43.3319" lon="5.67667">
        <ele>609</ele>
        <time>2019-01-18T13:03:58.000Z</time>
      </trkpt>
      <trkpt lat="43.3319" lon="5.67667">
        <ele>609</ele>
        <time>2019-01-18T13:03:59.000Z</time>
      </trkpt>
      <trkpt lat="43.3319" lon="5.67667">
        <ele>610</ele>
        <time>2019-01-18T13:04:00.000Z</time>
      </trkpt>
      <trkpt lat="43.3319" lon="5.67667">
        <ele>610</ele>
        <time>2019-01-18T13:04:01.000Z</time>
      </trkpt>
      <trkpt lat="43.3319" lon="5.67667">
        <ele>610</ele>
        <time>2019-01-18T13:04:02.000Z</time>
      </trkpt>
      <trkpt lat="43.3319" lon="5.67667">
        <ele>610</ele>
        <time>2019-01-18T13:04:03.000Z</time>
      </trkpt>
      <trkpt lat="43.3319" lon="5.67667">
        <ele>610</ele>
        <time>2019-01-18T13:04:04.000Z</time>
      </trkpt>
      <trkpt lat="43.3319" lon="5.67667">
        <ele>610</ele>
        <time>2019-01-18T13:04:05.000Z</time>
      </trkpt>
      <trkpt lat="43.3319" lon="5.67666">
        <ele>610</ele>
        <time>2019-01-18T13:04:06.000Z</time>
      </trkpt>
      <trkpt lat="43.3319" lon="5.67666">
        <ele>610</ele>
        <time>2019-01-18T13:04:07.000Z</time>
      </trkpt>
      <trkpt lat="43.3319" lon="5.67666">
        <ele>610</ele>
        <time>2019-01-18T13:04:08.000Z</time>
      </trkpt>
      <trkpt lat="43.3319" lon="5.67666">
        <ele>610</ele>
        <time>2019-01-18T13:04:09.000Z</time>
      </trkpt>
      <trkpt lat="43.3319" lon="5.67666">
        <ele>610</ele>
        <time>2019-01-18T13:04:10.000Z</time>
      </trkpt>
      <trkpt lat="43.3319" lon="5.67666">
        <ele>610</ele>
        <time>2019-01-18T13:04:11.000Z</time>
      </trkpt>
      <trkpt lat="43.3319" lon="5.67666">
        <ele>610</ele>
        <time>2019-01-18T13:04:12.000Z</time>
      </trkpt>
      <trkpt lat="43.3319" lon="5.67666">
        <ele>610</ele>
        <time>2019-01-18T13:04:13.000Z</time>
      </trkpt>
      <trkpt lat="43.3319" lon="5.67666">
        <ele>610</ele>
        <time>2019-01-18T13:04:14.000Z</time>
      </trkpt>
      <trkpt lat="43.3319" lon="5.67666">
        <ele>610</ele>
        <time>2019-01-18T13:04:15.000Z</time>
      </trkpt>
      <trkpt lat="43.3319" lon="5.67666">
        <ele>610</ele>
        <time>2019-01-18T13:04:16.000Z</time>
      </trkpt>
      <trkpt lat="43.3319" lon="5.67666">
        <ele>610</ele>
        <time>2019-01-18T13:04:17.000Z</time>
      </trkpt>
      <trkpt lat="43.3319" lon="5.67666">
        <ele>610</ele>
        <time>2019-01-18T13:04:18.000Z</time>
      </trkpt>
      <trkpt lat="43.3319" lon="5.67665">
        <ele>610</ele>
        <time>2019-01-18T13:04:19.000Z</time>
      </trkpt>
      <trkpt lat="43.3319" lon="5.67664">
        <ele>610</ele>
        <time>2019-01-18T13:04:20.000Z</time>
      </trkpt>
      <trkpt lat="43.33189" lon="5.67663">
        <ele>610</ele>
        <time>2019-01-18T13:04:21.000Z</time>
      </trkpt>
      <trkpt lat="43.33189" lon="5.67661">
        <ele>610</ele>
        <time>2019-01-18T13:04:22.000Z</time>
      </trkpt>
      <trkpt lat="43.33188" lon="5.6766">
        <ele>610</ele>
        <time>2019-01-18T13:04:23.000Z</time>
      </trkpt>
      <trkpt lat="43.33187" lon="5.67659">
        <ele>610</ele>
        <time>2019-01-18T13:04:24.000Z</time>
      </trkpt>
      <trkpt lat="43.33187" lon="5.67657">
        <ele>610</ele>
        <time>2019-01-18T13:04:25.000Z</time>
      </trkpt>
      <trkpt lat="43.33187" lon="5.67656">
        <ele>610</ele>
        <time>2019-01-18T13:04:26.000Z</time>
      </trkpt>
      <trkpt lat="43.33186" lon="5.67655">
        <ele>610</ele>
        <time>2019-01-18T13:04:27.000Z</time>
      </trkpt>
      <trkpt lat="43.33186" lon="5.67654">
        <ele>610</ele>
        <time>2019-01-18T13:04:28.000Z</time>
      </trkpt>
      <trkpt lat="43.33186" lon="5.67653">
        <ele>610</ele>
        <time>2019-01-18T13:04:29.000Z</time>
      </trkpt>
      <trkpt lat="43.33185" lon="5.67651">
        <ele>610</ele>
        <time>2019-01-18T13:04:30.000Z</time>
      </trkpt>
      <trkpt lat="43.33185" lon="5.6765">
        <ele>610</ele>
        <time>2019-01-18T13:04:31.000Z</time>
      </trkpt>
      <trkpt lat="43.33184" lon="5.67649">
        <ele>611</ele>
        <time>2019-01-18T13:04:32.000Z</time>
      </trkpt>
      <trkpt lat="43.33184" lon="5.67647">
        <ele>611</ele>
        <time>2019-01-18T13:04:33.000Z</time>
      </trkpt>
      <trkpt lat="43.33183" lon="5.67646">
        <ele>611</ele>
        <time>2019-01-18T13:04:34.000Z</time>
      </trkpt>
      <trkpt lat="43.33183" lon="5.67645">
        <ele>611</ele>
        <time>2019-01-18T13:04:35.000Z</time>
      </trkpt>
      <trkpt lat="43.33182" lon="5.67644">
        <ele>611</ele>
        <time>2019-01-18T13:04:36.000Z</time>
      </trkpt>
      <trkpt lat="43.33182" lon="5.67643">
        <ele>611</ele>
        <time>2019-01-18T13:04:37.000Z</time>
      </trkpt>
      <trkpt lat="43.33182" lon="5.67642">
        <ele>611</ele>
        <time>2019-01-18T13:04:38.000Z</time>
      </trkpt>
      <trkpt lat="43.33181" lon="5.67641">
        <ele>611</ele>
        <time>2019-01-18T13:04:39.000Z</time>
      </trkpt>
      <trkpt lat="43.33181" lon="5.6764">
        <ele>611</ele>
        <time>2019-01-18T13:04:40.000Z</time>
      </trkpt>
      <trkpt lat="43.3318" lon="5.67639">
        <ele>611</ele>
        <time>2019-01-18T13:04:41.000Z</time>
      </trkpt>
      <trkpt lat="43.3318" lon="5.67639">
        <ele>611</ele>
        <time>2019-01-18T13:04:42.000Z</time>
      </trkpt>
      <trkpt lat="43.33179" lon="5.67638">
        <ele>612</ele>
        <time>2019-01-18T13:04:43.000Z</time>
      </trkpt>
      <trkpt lat="43.33179" lon="5.67638">
        <ele>612</ele>
        <time>2019-01-18T13:04:44.000Z</time>
      </trkpt>
      <trkpt lat="43.33178" lon="5.67637">
        <ele>612</ele>
        <time>2019-01-18T13:04:45.000Z</time>
      </trkpt>
      <trkpt lat="43.33178" lon="5.67636">
        <ele>612</ele>
        <time>2019-01-18T13:04:46.000Z</time>
      </trkpt>
      <trkpt lat="43.33178" lon="5.67636">
        <ele>612</ele>
        <time>2019-01-18T13:04:47.000Z</time>
      </trkpt>
      <trkpt lat="43.33177" lon="5.67635">
        <ele>612</ele>
        <time>2019-01-18T13:04:48.000Z</time>
      </trkpt>
      <trkpt lat="43.33177" lon="5.67634">
        <ele>612</ele>
        <time>2019-01-18T13:04:49.000Z</time>
      </trkpt>
      <trkpt lat="43.33176" lon="5.67633">
        <ele>612</ele>
        <time>2019-01-18T13:04:50.000Z</time>
      </trkpt>
      <trkpt lat="43.33176" lon="5.67632">
        <ele>612</ele>
        <time>2019-01-18T13:04:51.000Z</time>
      </trkpt>
      <trkpt lat="43.33175" lon="5.67631">
        <ele>612</ele>
        <time>2019-01-18T13:04:52.000Z</time>
      </trkpt>
      <trkpt lat="43.33175" lon="5.6763">
        <ele>612</ele>
        <time>2019-01-18T13:04:53.000Z</time>
      </trkpt>
      <trkpt lat="43.33175" lon="5.67629">
        <ele>612</ele>
        <time>2019-01-18T13:04:54.000Z</time>
      </trkpt>
      <trkpt lat="43.33174" lon="5.67627">
        <ele>612</ele>
        <time>2019-01-18T13:04:55.000Z</time>
      </trkpt>
      <trkpt lat="43.33174" lon="5.67626">
        <ele>612</ele>
        <time>2019-01-18T13:04:56.000Z</time>
      </trkpt>
      <trkpt lat="43.33173" lon="5.67624">
        <ele>612</ele>
        <time>2019-01-18T13:04:57.000Z</time>
      </trkpt>
      <trkpt lat="43.33173" lon="5.67623">
        <ele>612</ele>
        <time>2019-01-18T13:04:58.000Z</time>
      </trkpt>
      <trkpt lat="43.33173" lon="5.67622">
        <ele>612</ele>
        <time>2019-01-18T13:04:59.000Z</time>
      </trkpt>
      <trkpt lat="43.33172" lon="5.67621">
        <ele>612</ele>
        <time>2019-01-18T13:05:00.000Z</time>
      </trkpt>
      <trkpt lat="43.33172" lon="5.6762">
        <ele>612</ele>
        <time>2019-01-18T13:05:01.000Z</time>
      </trkpt>
      <trkpt lat="43.33171" lon="5.67619">
        <ele>612</ele>
        <time>2019-01-18T13:05:02.000Z</time>
      </trkpt>
      <trkpt lat="43.33171" lon="5.67618">
        <ele>612</ele>
        <time>2019-01-18T13:05:03.000Z</time>
      </trkpt>
      <trkpt lat="43.3317" lon="5.67617">
        <ele>611</ele>
        <time>2019-01-18T13:05:04.000Z</time>
      </trkpt>
      <trkpt lat="43.33169" lon="5.67616">
        <ele>611</ele>
        <time>2019-01-18T13:05:05.000Z</time>
      </trkpt>
      <trkpt lat="43.33168" lon="5.67615">
        <ele>611</ele>
        <time>2019-01-18T13:05:06.000Z</time>
      </trkpt>
      <trkpt lat="43.33168" lon="5.67614">
        <ele>611</ele>
        <time>2019-01-18T13:05:07.000Z</time>
      </trkpt>
      <trkpt lat="43.33167" lon="5.67613">
        <ele>611</ele>
        <time>2019-01-18T13:05:08.000Z</time>
      </trkpt>
      <trkpt lat="43.33166" lon="5.67612">
        <ele>611</ele>
        <time>2019-01-18T13:05:09.000Z</time>
      </trkpt>
      <trkpt lat="43.33166" lon="5.67611">
        <ele>611</ele>
        <time>2019-01-18T13:05:10.000Z</time>
      </trkpt>
      <trkpt lat="43.33165" lon="5.6761">
        <ele>611</ele>
        <time>2019-01-18T13:05:11.000Z</time>
      </trkpt>
      <trkpt lat="43.33165" lon="5.67609">
        <ele>610</ele>
        <time>2019-01-18T13:05:12.000Z</time>
      </trkpt>
      <trkpt lat="43.33164" lon="5.67608">
        <ele>610</ele>
        <time>2019-01-18T13:05:13.000Z</time>
      </trkpt>
      <trkpt lat="43.33163" lon="5.67607">
        <ele>610</ele>
        <time>2019-01-18T13:05:14.000Z</time>
      </trkpt>
      <trkpt lat="43.33163" lon="5.67606">
        <ele>610</ele>
        <time>2019-01-18T13:05:15.000Z</time>
      </trkpt>
      <trkpt lat="43.33162" lon="5.67605">
        <ele>610</ele>
        <time>2019-01-18T13:05:16.000Z</time>
      </trkpt>
      <trkpt lat="43.33162" lon="5.67605">
        <ele>610</ele>
        <time>2019-01-18T13:05:17.000Z</time>
      </trkpt>
      <trkpt lat="43.33161" lon="5.67604">
        <ele>610</ele>
        <time>2019-01-18T13:05:18.000Z</time>
      </trkpt>
      <trkpt lat="43.3316" lon="5.67603">
        <ele>609</ele>
        <time>2019-01-18T13:05:19.000Z</time>
      </trkpt>
      <trkpt lat="43.33159" lon="5.67602">
        <ele>609</ele>
        <time>2019-01-18T13:05:20.000Z</time>
      </trkpt>
      <trkpt lat="43.33159" lon="5.67601">
        <ele>609</ele>
        <time>2019-01-18T13:05:21.000Z</time>
      </trkpt>
      <trkpt lat="43.33158" lon="5.676">
        <ele>609</ele>
        <time>2019-01-18T13:05:22.000Z</time>
      </trkpt>
      <trkpt lat="43.33157" lon="5.67599">
        <ele>609</ele>
        <time>2019-01-18T13:05:23.000Z</time>
      </trkpt>
      <trkpt lat="43.33157" lon="5.67598">
        <ele>609</ele>
        <time>2019-01-18T13:05:24.000Z</time>
      </trkpt>
      <trkpt lat="43.33156" lon="5.67597">
        <ele>609</ele>
        <time>2019-01-18T13:05:25.000Z</time>
      </trkpt>
      <trkpt lat="43.33155" lon="5.67596">
        <ele>609</ele>
        <time>2019-01-18T13:05:26.000Z</time>
      </trkpt>
      <trkpt lat="43.33154" lon="5.67595">
        <ele>608</ele>
        <time>2019-01-18T13:05:27.000Z</time>
      </trkpt>
      <trkpt lat="43.33154" lon="5.67594">
        <ele>608</ele>
        <time>2019-01-18T13:05:28.000Z</time>
      </trkpt>
      <trkpt lat="43.33153" lon="5.67593">
        <ele>608</ele>
        <time>2019-01-18T13:05:29.000Z</time>
      </trkpt>
      <trkpt lat="43.33153" lon="5.67592">
        <ele>608</ele>
        <time>2019-01-18T13:05:30.000Z</time>
      </trkpt>
      <trkpt lat="43.33152" lon="5.67591">
        <ele>608</ele>
        <time>2019-01-18T13:05:31.000Z</time>
      </trkpt>
      <trkpt lat="43.33152" lon="5.6759">
        <ele>608</ele>
        <time>2019-01-18T13:05:32.000Z</time>
      </trkpt>
      <trkpt lat="43.33151" lon="5.67589">
        <ele>607</ele>
        <time>2019-01-18T13:05:33.000Z</time>
      </trkpt>
      <trkpt lat="43.33151" lon="5.67588">
        <ele>607</ele>
        <time>2019-01-18T13:05:34.000Z</time>
      </trkpt>
      <trkpt lat="43.3315" lon="5.67588">
        <ele>607</ele>
        <time>2019-01-18T13:05:35.000Z</time>
      </trkpt>
      <trkpt lat="43.3315" lon="5.67586">
        <ele>607</ele>
        <time>2019-01-18T13:05:36.000Z</time>
      </trkpt>
      <trkpt lat="43.33149" lon="5.67586">
        <ele>607</ele>
        <time>2019-01-18T13:05:37.000Z</time>
      </trkpt>
      <trkpt lat="43.33148" lon="5.67585">
        <ele>607</ele>
        <time>2019-01-18T13:05:38.000Z</time>
      </trkpt>
      <trkpt lat="43.33147" lon="5.67584">
        <ele>607</ele>
        <time>2019-01-18T13:05:39.000Z</time>
      </trkpt>
      <trkpt lat="43.33146" lon="5.67584">
        <ele>607</ele>
        <time>2019-01-18T13:05:40.000Z</time>
      </trkpt>
      <trkpt lat="43.33145" lon="5.67583">
        <ele>607</ele>
        <time>2019-01-18T13:05:41.000Z</time>
      </trkpt>
      <trkpt lat="43.33145" lon="5.67582">
        <ele>607</ele>
        <time>2019-01-18T13:05:42.000Z</time>
      </trkpt>
      <trkpt lat="43.33144" lon="5.67581">
        <ele>607</ele>
        <time>2019-01-18T13:05:43.000Z</time>
      </trkpt>
      <trkpt lat="43.33144" lon="5.6758">
        <ele>607</ele>
        <time>2019-01-18T13:05:44.000Z</time>
      </trkpt>
      <trkpt lat="43.33143" lon="5.67579">
        <ele>607</ele>
        <time>2019-01-18T13:05:45.000Z</time>
      </trkpt>
      <trkpt lat="43.33143" lon="5.67577">
        <ele>606</ele>
        <time>2019-01-18T13:05:46.000Z</time>
      </trkpt>
      <trkpt lat="43.33143" lon="5.67576">
        <ele>606</ele>
        <time>2019-01-18T13:05:47.000Z</time>
      </trkpt>
      <trkpt lat="43.33143" lon="5.67574">
        <ele>606</ele>
        <time>2019-01-18T13:05:48.000Z</time>
      </trkpt>
      <trkpt lat="43.33143" lon="5.67572">
        <ele>606</ele>
        <time>2019-01-18T13:05:49.000Z</time>
      </trkpt>
      <trkpt lat="43.33143" lon="5.67571">
        <ele>606</ele>
        <time>2019-01-18T13:05:50.000Z</time>
      </trkpt>
      <trkpt lat="43.33144" lon="5.67569">
        <ele>606</ele>
        <time>2019-01-18T13:05:51.000Z</time>
      </trkpt>
      <trkpt lat="43.33144" lon="5.67567">
        <ele>606</ele>
        <time>2019-01-18T13:05:52.000Z</time>
      </trkpt>
      <trkpt lat="43.33144" lon="5.67566">
        <ele>606</ele>
        <time>2019-01-18T13:05:53.000Z</time>
      </trkpt>
      <trkpt lat="43.33144" lon="5.67564">
        <ele>606</ele>
        <time>2019-01-18T13:05:54.000Z</time>
      </trkpt>
      <trkpt lat="43.33145" lon="5.67563">
        <ele>606</ele>
        <time>2019-01-18T13:05:55.000Z</time>
      </trkpt>
      <trkpt lat="43.33145" lon="5.67562">
        <ele>606</ele>
        <time>2019-01-18T13:05:56.000Z</time>
      </trkpt>
      <trkpt lat="43.33145" lon="5.6756">
        <ele>606</ele>
        <time>2019-01-18T13:05:57.000Z</time>
      </trkpt>
      <trkpt lat="43.33145" lon="5.67559">
        <ele>606</ele>
        <time>2019-01-18T13:05:58.000Z</time>
      </trkpt>
      <trkpt lat="43.33145" lon="5.67557">
        <ele>606</ele>
        <time>2019-01-18T13:05:59.000Z</time>
      </trkpt>
      <trkpt lat="43.33145" lon="5.67555">
        <ele>606</ele>
        <time>2019-01-18T13:06:00.000Z</time>
      </trkpt>
      <trkpt lat="43.33145" lon="5.67554">
        <ele>606</ele>
        <time>2019-01-18T13:06:01.000Z</time>
      </trkpt>
      <trkpt lat="43.33146" lon="5.67552">
        <ele>606</ele>
        <time>2019-01-18T13:06:02.000Z</time>
      </trkpt>
      <trkpt lat="43.33146" lon="5.67551">
        <ele>606</ele>
        <time>2019-01-18T13:06:03.000Z</time>
      </trkpt>
      <trkpt lat="43.33147" lon="5.67549">
        <ele>606</ele>
        <time>2019-01-18T13:06:04.000Z</time>
      </trkpt>
      <trkpt lat="43.33148" lon="5.67548">
        <ele>606</ele>
        <time>2019-01-18T13:06:05.000Z</time>
      </trkpt>
      <trkpt lat="43.33148" lon="5.67546">
        <ele>606</ele>
        <time>2019-01-18T13:06:06.000Z</time>
      </trkpt>
      <trkpt lat="43.33148" lon="5.67545">
        <ele>606</ele>
        <time>2019-01-18T13:06:07.000Z</time>
      </trkpt>
      <trkpt lat="43.33148" lon="5.67543">
        <ele>606</ele>
        <time>2019-01-18T13:06:08.000Z</time>
      </trkpt>
      <trkpt lat="43.33148" lon="5.67541">
        <ele>606</ele>
        <time>2019-01-18T13:06:09.000Z</time>
      </trkpt>
      <trkpt lat="43.33148" lon="5.6754">
        <ele>606</ele>
        <time>2019-01-18T13:06:10.000Z</time>
      </trkpt>
      <trkpt lat="43.33149" lon="5.67539">
        <ele>606</ele>
        <time>2019-01-18T13:06:11.000Z</time>
      </trkpt>
      <trkpt lat="43.33149" lon="5.67537">
        <ele>606</ele>
        <time>2019-01-18T13:06:12.000Z</time>
      </trkpt>
      <trkpt lat="43.33149" lon="5.67536">
        <ele>606</ele>
        <time>2019-01-18T13:06:13.000Z</time>
      </trkpt>
      <trkpt lat="43.33149" lon="5.67534">
        <ele>606</ele>
        <time>2019-01-18T13:06:14.000Z</time>
      </trkpt>
      <trkpt lat="43.33149" lon="5.67533">
        <ele>606</ele>
        <time>2019-01-18T13:06:15.000Z</time>
      </trkpt>
      <trkpt lat="43.33149" lon="5.67531">
        <ele>606</ele>
        <time>2019-01-18T13:06:16.000Z</time>
      </trkpt>
      <trkpt lat="43.33149" lon="5.6753">
        <ele>606</ele>
        <time>2019-01-18T13:06:17.000Z</time>
      </trkpt>
      <trkpt lat="43.3315" lon="5.67528">
        <ele>606</ele>
        <time>2019-01-18T13:06:18.000Z</time>
      </trkpt>
      <trkpt lat="43.3315" lon="5.67527">
        <ele>606</ele>
        <time>2019-01-18T13:06:19.000Z</time>
      </trkpt>
      <trkpt lat="43.3315" lon="5.67525">
        <ele>606</ele>
        <time>2019-01-18T13:06:20.000Z</time>
      </trkpt>
      <trkpt lat="43.33151" lon="5.67524">
        <ele>606</ele>
        <time>2019-01-18T13:06:21.000Z</time>
      </trkpt>
      <trkpt lat="43.33151" lon="5.67523">
        <ele>606</ele>
        <time>2019-01-18T13:06:22.000Z</time>
      </trkpt>
      <trkpt lat="43.33152" lon="5.67521">
        <ele>606</ele>
        <time>2019-01-18T13:06:23.000Z</time>
      </trkpt>
      <trkpt lat="43.33152" lon="5.6752">
        <ele>606</ele>
        <time>2019-01-18T13:06:24.000Z</time>
      </trkpt>
      <trkpt lat="43.33152" lon="5.67518">
        <ele>606</ele>
        <time>2019-01-18T13:06:25.000Z</time>
      </trkpt>
      <trkpt lat="43.33152" lon="5.67517">
        <ele>606</ele>
        <time>2019-01-18T13:06:26.000Z</time>
      </trkpt>
      <trkpt lat="43.33152" lon="5.67515">
        <ele>606</ele>
        <time>2019-01-18T13:06:27.000Z</time>
      </trkpt>
      <trkpt lat="43.33153" lon="5.67513">
        <ele>606</ele>
        <time>2019-01-18T13:06:28.000Z</time>
      </trkpt>
      <trkpt lat="43.33153" lon="5.67512">
        <ele>606</ele>
        <time>2019-01-18T13:06:29.000Z</time>
      </trkpt>
      <trkpt lat="43.33153" lon="5.67511">
        <ele>606</ele>
        <time>2019-01-18T13:06:30.000Z</time>
      </trkpt>
      <trkpt lat="43.33153" lon="5.67509">
        <ele>606</ele>
        <time>2019-01-18T13:06:31.000Z</time>
      </trkpt>
      <trkpt lat="43.33153" lon="5.67508">
        <ele>606</ele>
        <time>2019-01-18T13:06:32.000Z</time>
      </trkpt>
      <trkpt lat="43.33153" lon="5.67506">
        <ele>606</ele>
        <time>2019-01-18T13:06:33.000Z</time>
      </trkpt>
      <trkpt lat="43.33154" lon="5.67505">
        <ele>606</ele>
        <time>2019-01-18T13:06:34.000Z</time>
      </trkpt>
      <trkpt lat="43.33155" lon="5.67504">
        <ele>606</ele>
        <time>2019-01-18T13:06:35.000Z</time>
      </trkpt>
      <trkpt lat="43.33155" lon="5.67502">
        <ele>606</ele>
        <time>2019-01-18T13:06:36.000Z</time>
      </trkpt>
      <trkpt lat="43.33155" lon="5.675">
        <ele>606</ele>
        <time>2019-01-18T13:06:37.000Z</time>
      </trkpt>
      <trkpt lat="43.33156" lon="5.67499">
        <ele>606</ele>
        <time>2019-01-18T13:06:38.000Z</time>
      </trkpt>
      <trkpt lat="43.33156" lon="5.67498">
        <ele>606</ele>
        <time>2019-01-18T13:06:39.000Z</time>
      </trkpt>
      <trkpt lat="43.33157" lon="5.67496">
        <ele>606</ele>
        <time>2019-01-18T13:06:40.000Z</time>
      </trkpt>
      <trkpt lat="43.33157" lon="5.67495">
        <ele>606</ele>
        <time>2019-01-18T13:06:41.000Z</time>
      </trkpt>
      <trkpt lat="43.33157" lon="5.67493">
        <ele>606</ele>
        <time>2019-01-18T13:06:42.000Z</time>
      </trkpt>
      <trkpt lat="43.33158" lon="5.67492">
        <ele>606</ele>
        <time>2019-01-18T13:06:43.000Z</time>
      </trkpt>
      <trkpt lat="43.33158" lon="5.6749">
        <ele>606</ele>
        <time>2019-01-18T13:06:44.000Z</time>
      </trkpt>
      <trkpt lat="43.33158" lon="5.67489">
        <ele>606</ele>
        <time>2019-01-18T13:06:45.000Z</time>
      </trkpt>
      <trkpt lat="43.33158" lon="5.67487">
        <ele>606</ele>
        <time>2019-01-18T13:06:46.000Z</time>
      </trkpt>
      <trkpt lat="43.33158" lon="5.67486">
        <ele>606</ele>
        <time>2019-01-18T13:06:47.000Z</time>
      </trkpt>
      <trkpt lat="43.33158" lon="5.67485">
        <ele>606</ele>
        <time>2019-01-18T13:06:48.000Z</time>
      </trkpt>
      <trkpt lat="43.33158" lon="5.67483">
        <ele>606</ele>
        <time>2019-01-18T13:06:49.000Z</time>
      </trkpt>
      <trkpt lat="43.33158" lon="5.67482">
        <ele>606</ele>
        <time>2019-01-18T13:06:50.000Z</time>
      </trkpt>
      <trkpt lat="43.33157" lon="5.67481">
        <ele>606</ele>
        <time>2019-01-18T13:06:51.000Z</time>
      </trkpt>
      <trkpt lat="43.33157" lon="5.67479">
        <ele>606</ele>
        <time>2019-01-18T13:06:52.000Z</time>
      </trkpt>
      <trkpt lat="43.33157" lon="5.67478">
        <ele>605</ele>
        <time>2019-01-18T13:06:53.000Z</time>
      </trkpt>
      <trkpt lat="43.33158" lon="5.67476">
        <ele>605</ele>
        <time>2019-01-18T13:06:54.000Z</time>
      </trkpt>
      <trkpt lat="43.33158" lon="5.67475">
        <ele>605</ele>
        <time>2019-01-18T13:06:55.000Z</time>
      </trkpt>
      <trkpt lat="43.33158" lon="5.67473">
        <ele>605</ele>
        <time>2019-01-18T13:06:56.000Z</time>
      </trkpt>
      <trkpt lat="43.33158" lon="5.67472">
        <ele>605</ele>
        <time>2019-01-18T13:06:57.000Z</time>
      </trkpt>
      <trkpt lat="43.33158" lon="5.6747">
        <ele>605</ele>
        <time>2019-01-18T13:06:58.000Z</time>
      </trkpt>
      <trkpt lat="43.33158" lon="5.67469">
        <ele>604</ele>
        <time>2019-01-18T13:06:59.000Z</time>
      </trkpt>
      <trkpt lat="43.33158" lon="5.67467">
        <ele>604</ele>
        <time>2019-01-18T13:07:00.000Z</time>
      </trkpt>
      <trkpt lat="43.33158" lon="5.67466">
        <ele>604</ele>
        <time>2019-01-18T13:07:01.000Z</time>
      </trkpt>
      <trkpt lat="43.33158" lon="5.67464">
        <ele>604</ele>
        <time>2019-01-18T13:07:02.000Z</time>
      </trkpt>
      <trkpt lat="43.33158" lon="5.67463">
        <ele>604</ele>
        <time>2019-01-18T13:07:03.000Z</time>
      </trkpt>
      <trkpt lat="43.33158" lon="5.67461">
        <ele>604</ele>
        <time>2019-01-18T13:07:04.000Z</time>
      </trkpt>
      <trkpt lat="43.33158" lon="5.67459">
        <ele>604</ele>
        <time>2019-01-18T13:07:05.000Z</time>
      </trkpt>
      <trkpt lat="43.33158" lon="5.67458">
        <ele>603</ele>
        <time>2019-01-18T13:07:06.000Z</time>
      </trkpt>
      <trkpt lat="43.33158" lon="5.67456">
        <ele>603</ele>
        <time>2019-01-18T13:07:07.000Z</time>
      </trkpt>
      <trkpt lat="43.33158" lon="5.67455">
        <ele>603</ele>
        <time>2019-01-18T13:07:08.000Z</time>
      </trkpt>
      <trkpt lat="43.33158" lon="5.67453">
        <ele>603</ele>
        <time>2019-01-18T13:07:09.000Z</time>
      </trkpt>
      <trkpt lat="43.33158" lon="5.67451">
        <ele>603</ele>
        <time>2019-01-18T13:07:10.000Z</time>
      </trkpt>
      <trkpt lat="43.33158" lon="5.6745">
        <ele>603</ele>
        <time>2019-01-18T13:07:11.000Z</time>
      </trkpt>
      <trkpt lat="43.33158" lon="5.67448">
        <ele>602</ele>
        <time>2019-01-18T13:07:12.000Z</time>
      </trkpt>
      <trkpt lat="43.33158" lon="5.67447">
        <ele>602</ele>
        <time>2019-01-18T13:07:13.000Z</time>
      </trkpt>
      <trkpt lat="43.33158" lon="5.67445">
        <ele>602</ele>
        <time>2019-01-18T13:07:14.000Z</time>
      </trkpt>
      <trkpt lat="43.33159" lon="5.67443">
        <ele>602</ele>
        <time>2019-01-18T13:07:15.000Z</time>
      </trkpt>
      <trkpt lat="43.33159" lon="5.67441">
        <ele>602</ele>
        <time>2019-01-18T13:07:16.000Z</time>
      </trkpt>
      <trkpt lat="43.33159" lon="5.6744">
        <ele>602</ele>
        <time>2019-01-18T13:07:17.000Z</time>
      </trkpt>
      <trkpt lat="43.33159" lon="5.67438">
        <ele>602</ele>
        <time>2019-01-18T13:07:18.000Z</time>
      </trkpt>
      <trkpt lat="43.33159" lon="5.67437">
        <ele>602</ele>
        <time>2019-01-18T13:07:19.000Z</time>
      </trkpt>
      <trkpt lat="43.33159" lon="5.67435">
        <ele>601</ele>
        <time>2019-01-18T13:07:20.000Z</time>
      </trkpt>
      <trkpt lat="43.33158" lon="5.67434">
        <ele>601</ele>
        <time>2019-01-18T13:07:21.000Z</time>
      </trkpt>
      <trkpt lat="43.33158" lon="5.67432">
        <ele>601</ele>
        <time>2019-01-18T13:07:22.000Z</time>
      </trkpt>
      <trkpt lat="43.33158" lon="5.67431">
        <ele>601</ele>
        <time>2019-01-18T13:07:23.000Z</time>
      </trkpt>
      <trkpt lat="43.33158" lon="5.67429">
        <ele>601</ele>
        <time>2019-01-18T13:07:24.000Z</time>
      </trkpt>
      <trkpt lat="43.33158" lon="5.67428">
        <ele>601</ele>
        <time>2019-01-18T13:07:25.000Z</time>
      </trkpt>
      <trkpt lat="43.33157" lon="5.67426">
        <ele>600</ele>
        <time>2019-01-18T13:07:26.000Z</time>
      </trkpt>
      <trkpt lat="43.33157" lon="5.67425">
        <ele>600</ele>
        <time>2019-01-18T13:07:27.000Z</time>
      </trkpt>
      <trkpt lat="43.33157" lon="5.67423">
        <ele>600</ele>
        <time>2019-01-18T13:07:28.000Z</time>
      </trkpt>
      <trkpt lat="43.33157" lon="5.67422">
        <ele>600</ele>
        <time>2019-01-18T13:07:29.000Z</time>
      </trkpt>
      <trkpt lat="43.33156" lon="5.67421">
        <ele>600</ele>
        <time>2019-01-18T13:07:30.000Z</time>
      </trkpt>
      <trkpt lat="43.33156" lon="5.67419">
        <ele>600</ele>
        <time>2019-01-18T13:07:31.000Z</time>
      </trkpt>
      <trkpt lat="43.33156" lon="5.67418">
        <ele>600</ele>
        <time>2019-01-18T13:07:32.000Z</time>
      </trkpt>
      <trkpt lat="43.33156" lon="5.67416">
        <ele>599</ele>
        <time>2019-01-18T13:07:33.000Z</time>
      </trkpt>
      <trkpt lat="43.33157" lon="5.67415">
        <ele>599</ele>
        <time>2019-01-18T13:07:34.000Z</time>
      </trkpt>
      <trkpt lat="43.33157" lon="5.67413">
        <ele>599</ele>
        <time>2019-01-18T13:07:35.000Z</time>
      </trkpt>
      <trkpt lat="43.33158" lon="5.67411">
        <ele>599</ele>
        <time>2019-01-18T13:07:36.000Z</time>
      </trkpt>
      <trkpt lat="43.33158" lon="5.6741">
        <ele>599</ele>
        <time>2019-01-18T13:07:37.000Z</time>
      </trkpt>
      <trkpt lat="43.33159" lon="5.67409">
        <ele>599</ele>
        <time>2019-01-18T13:07:38.000Z</time>
      </trkpt>
      <trkpt lat="43.3316" lon="5.67408">
        <ele>599</ele>
        <time>2019-01-18T13:07:39.000Z</time>
      </trkpt>
      <trkpt lat="43.3316" lon="5.67406">
        <ele>598</ele>
        <time>2019-01-18T13:07:40.000Z</time>
      </trkpt>
      <trkpt lat="43.33161" lon="5.67405">
        <ele>598</ele>
        <time>2019-01-18T13:07:41.000Z</time>
      </trkpt>
      <trkpt lat="43.33162" lon="5.67404">
        <ele>598</ele>
        <time>2019-01-18T13:07:42.000Z</time>
      </trkpt>
      <trkpt lat="43.33162" lon="5.67403">
        <ele>598</ele>
        <time>2019-01-18T13:07:43.000Z</time>
      </trkpt>
      <trkpt lat="43.33163" lon="5.67402">
        <ele>598</ele>
        <time>2019-01-18T13:07:44.000Z</time>
      </trkpt>
      <trkpt lat="43.33163" lon="5.67401">
        <ele>598</ele>
        <time>2019-01-18T13:07:45.000Z</time>
      </trkpt>
      <trkpt lat="43.33164" lon="5.67399">
        <ele>598</ele>
        <time>2019-01-18T13:07:46.000Z</time>
      </trkpt>
      <trkpt lat="43.33164" lon="5.67398">
        <ele>598</ele>
        <time>2019-01-18T13:07:47.000Z</time>
      </trkpt>
      <trkpt lat="43.33164" lon="5.67398">
        <ele>598</ele>
        <time>2019-01-18T13:07:48.000Z</time>
      </trkpt>
      <trkpt lat="43.33164" lon="5.67398">
        <ele>598</ele>
        <time>2019-01-18T13:07:49.000Z</time>
      </trkpt>
      <trkpt lat="43.33163" lon="5.67397">
        <ele>598</ele>
        <time>2019-01-18T13:07:50.000Z</time>
      </trkpt>
      <trkpt lat="43.33163" lon="5.67396">
        <ele>598</ele>
        <time>2019-01-18T13:07:51.000Z</time>
      </trkpt>
      <trkpt lat="43.33162" lon="5.67395">
        <ele>597</ele>
        <time>2019-01-18T13:07:52.000Z</time>
      </trkpt>
      <trkpt lat="43.33162" lon="5.67393">
        <ele>597</ele>
        <time>2019-01-18T13:07:53.000Z</time>
      </trkpt>
      <trkpt lat="43.33162" lon="5.67392">
        <ele>597</ele>
        <time>2019-01-18T13:07:54.000Z</time>
      </trkpt>
      <trkpt lat="43.33162" lon="5.6739">
        <ele>597</ele>
        <time>2019-01-18T13:07:55.000Z</time>
      </trkpt>
      <trkpt lat="43.33162" lon="5.67389">
        <ele>597</ele>
        <time>2019-01-18T13:07:56.000Z</time>
      </trkpt>
      <trkpt lat="43.33163" lon="5.67388">
        <ele>596</ele>
        <time>2019-01-18T13:07:57.000Z</time>
      </trkpt>
      <trkpt lat="43.33163" lon="5.67386">
        <ele>596</ele>
        <time>2019-01-18T13:07:58.000Z</time>
      </trkpt>
      <trkpt lat="43.33163" lon="5.67385">
        <ele>596</ele>
        <time>2019-01-18T13:07:59.000Z</time>
      </trkpt>
      <trkpt lat="43.33164" lon="5.67384">
        <ele>596</ele>
        <time>2019-01-18T13:08:00.000Z</time>
      </trkpt>
      <trkpt lat="43.33164" lon="5.67383">
        <ele>595</ele>
        <time>2019-01-18T13:08:01.000Z</time>
      </trkpt>
      <trkpt lat="43.33165" lon="5.67382">
        <ele>595</ele>
        <time>2019-01-18T13:08:02.000Z</time>
      </trkpt>
      <trkpt lat="43.33166" lon="5.67381">
        <ele>595</ele>
        <time>2019-01-18T13:08:03.000Z</time>
      </trkpt>
      <trkpt lat="43.33167" lon="5.6738">
        <ele>595</ele>
        <time>2019-01-18T13:08:04.000Z</time>
      </trkpt>
      <trkpt lat="43.33167" lon="5.67379">
        <ele>594</ele>
        <time>2019-01-18T13:08:05.000Z</time>
      </trkpt>
      <trkpt lat="43.33167" lon="5.67377">
        <ele>594</ele>
        <time>2019-01-18T13:08:06.000Z</time>
      </trkpt>
      <trkpt lat="43.33167" lon="5.67375">
        <ele>594</ele>
        <time>2019-01-18T13:08:07.000Z</time>
      </trkpt>
      <trkpt lat="43.33167" lon="5.67373">
        <ele>594</ele>
        <time>2019-01-18T13:08:08.000Z</time>
      </trkpt>
      <trkpt lat="43.33168" lon="5.67372">
        <ele>594</ele>
        <time>2019-01-18T13:08:09.000Z</time>
      </trkpt>
      <trkpt lat="43.33168" lon="5.6737">
        <ele>593</ele>
        <time>2019-01-18T13:08:10.000Z</time>
      </trkpt>
      <trkpt lat="43.33168" lon="5.67369">
        <ele>593</ele>
        <time>2019-01-18T13:08:11.000Z</time>
      </trkpt>
      <trkpt lat="43.33168" lon="5.67368">
        <ele>593</ele>
        <time>2019-01-18T13:08:12.000Z</time>
      </trkpt>
      <trkpt lat="43.33168" lon="5.67366">
        <ele>593</ele>
        <time>2019-01-18T13:08:13.000Z</time>
      </trkpt>
      <trkpt lat="43.33169" lon="5.67364">
        <ele>592</ele>
        <time>2019-01-18T13:08:14.000Z</time>
      </trkpt>
      <trkpt lat="43.33169" lon="5.67363">
        <ele>592</ele>
        <time>2019-01-18T13:08:15.000Z</time>
      </trkpt>
      <trkpt lat="43.33169" lon="5.67361">
        <ele>592</ele>
        <time>2019-01-18T13:08:16.000Z</time>
      </trkpt>
      <trkpt lat="43.33169" lon="5.6736">
        <ele>592</ele>
        <time>2019-01-18T13:08:17.000Z</time>
      </trkpt>
      <trkpt lat="43.33169" lon="5.67358">
        <ele>592</ele>
        <time>2019-01-18T13:08:18.000Z</time>
      </trkpt>
      <trkpt lat="43.33169" lon="5.67357">
        <ele>592</ele>
        <time>2019-01-18T13:08:19.000Z</time>
      </trkpt>
      <trkpt lat="43.33169" lon="5.67356">
        <ele>591</ele>
        <time>2019-01-18T13:08:20.000Z</time>
      </trkpt>
      <trkpt lat="43.3317" lon="5.67355">
        <ele>591</ele>
        <time>2019-01-18T13:08:21.000Z</time>
      </trkpt>
      <trkpt lat="43.33171" lon="5.67354">
        <ele>591</ele>
        <time>2019-01-18T13:08:22.000Z</time>
      </trkpt>
      <trkpt lat="43.33171" lon="5.67352">
        <ele>591</ele>
        <time>2019-01-18T13:08:23.000Z</time>
      </trkpt>
      <trkpt lat="43.33172" lon="5.67352">
        <ele>591</ele>
        <time>2019-01-18T13:08:24.000Z</time>
      </trkpt>
      <trkpt lat="43.33173" lon="5.6735">
        <ele>590</ele>
        <time>2019-01-18T13:08:25.000Z</time>
      </trkpt>
      <trkpt lat="43.33174" lon="5.6735">
        <ele>590</ele>
        <time>2019-01-18T13:08:26.000Z</time>
      </trkpt>
      <trkpt lat="43.33174" lon="5.67348">
        <ele>590</ele>
        <time>2019-01-18T13:08:27.000Z</time>
      </trkpt>
      <trkpt lat="43.33175" lon="5.67347">
        <ele>590</ele>
        <time>2019-01-18T13:08:28.000Z</time>
      </trkpt>
      <trkpt lat="43.33175" lon="5.67346">
        <ele>590</ele>
        <time>2019-01-18T13:08:29.000Z</time>
      </trkpt>
      <trkpt lat="43.33176" lon="5.67345">
        <ele>590</ele>
        <time>2019-01-18T13:08:30.000Z</time>
      </trkpt>
      <trkpt lat="43.33176" lon="5.67343">
        <ele>590</ele>
        <time>2019-01-18T13:08:31.000Z</time>
      </trkpt>
      <trkpt lat="43.33176" lon="5.67342">
        <ele>589</ele>
        <time>2019-01-18T13:08:32.000Z</time>
      </trkpt>
      <trkpt lat="43.33176" lon="5.67341">
        <ele>589</ele>
        <time>2019-01-18T13:08:33.000Z</time>
      </trkpt>
      <trkpt lat="43.33177" lon="5.67339">
        <ele>589</ele>
        <time>2019-01-18T13:08:34.000Z</time>
      </trkpt>
      <trkpt lat="43.33178" lon="5.67337">
        <ele>589</ele>
        <time>2019-01-18T13:08:35.000Z</time>
      </trkpt>
      <trkpt lat="43.33178" lon="5.67336">
        <ele>589</ele>
        <time>2019-01-18T13:08:36.000Z</time>
      </trkpt>
      <trkpt lat="43.33179" lon="5.67335">
        <ele>589</ele>
        <time>2019-01-18T13:08:37.000Z</time>
      </trkpt>
      <trkpt lat="43.3318" lon="5.67334">
        <ele>588</ele>
        <time>2019-01-18T13:08:38.000Z</time>
      </trkpt>
      <trkpt lat="43.33181" lon="5.67332">
        <ele>588</ele>
        <time>2019-01-18T13:08:39.000Z</time>
      </trkpt>
      <trkpt lat="43.33181" lon="5.67331">
        <ele>588</ele>
        <time>2019-01-18T13:08:40.000Z</time>
      </trkpt>
      <trkpt lat="43.33181" lon="5.6733">
        <ele>588</ele>
        <time>2019-01-18T13:08:41.000Z</time>
      </trkpt>
      <trkpt lat="43.33182" lon="5.67329">
        <ele>588</ele>
        <time>2019-01-18T13:08:42.000Z</time>
      </trkpt>
      <trkpt lat="43.33182" lon="5.67327">
        <ele>588</ele>
        <time>2019-01-18T13:08:43.000Z</time>
      </trkpt>
      <trkpt lat="43.33182" lon="5.67326">
        <ele>588</ele>
        <time>2019-01-18T13:08:44.000Z</time>
      </trkpt>
      <trkpt lat="43.33183" lon="5.67324">
        <ele>587</ele>
        <time>2019-01-18T13:08:45.000Z</time>
      </trkpt>
      <trkpt lat="43.33183" lon="5.67323">
        <ele>587</ele>
        <time>2019-01-18T13:08:46.000Z</time>
      </trkpt>
      <trkpt lat="43.33184" lon="5.67321">
        <ele>587</ele>
        <time>2019-01-18T13:08:47.000Z</time>
      </trkpt>
      <trkpt lat="43.33185" lon="5.6732">
        <ele>587</ele>
        <time>2019-01-18T13:08:48.000Z</time>
      </trkpt>
      <trkpt lat="43.33185" lon="5.67319">
        <ele>587</ele>
        <time>2019-01-18T13:08:49.000Z</time>
      </trkpt>
      <trkpt lat="43.33186" lon="5.67318">
        <ele>587</ele>
        <time>2019-01-18T13:08:50.000Z</time>
      </trkpt>
      <trkpt lat="43.33187" lon="5.67317">
        <ele>587</ele>
        <time>2019-01-18T13:08:51.000Z</time>
      </trkpt>
      <trkpt lat="43.33188" lon="5.67316">
        <ele>586</ele>
        <time>2019-01-18T13:08:52.000Z</time>
      </trkpt>
      <trkpt lat="43.33188" lon="5.67315">
        <ele>586</ele>
        <time>2019-01-18T13:08:53.000Z</time>
      </trkpt>
      <trkpt lat="43.33189" lon="5.67313">
        <ele>586</ele>
        <time>2019-01-18T13:08:54.000Z</time>
      </trkpt>
      <trkpt lat="43.33189" lon="5.67311">
        <ele>586</ele>
        <time>2019-01-18T13:08:55.000Z</time>
      </trkpt>
      <trkpt lat="43.3319" lon="5.6731">
        <ele>586</ele>
        <time>2019-01-18T13:08:56.000Z</time>
      </trkpt>
      <trkpt lat="43.3319" lon="5.67309">
        <ele>586</ele>
        <time>2019-01-18T13:08:57.000Z</time>
      </trkpt>
      <trkpt lat="43.33191" lon="5.67307">
        <ele>586</ele>
        <time>2019-01-18T13:08:58.000Z</time>
      </trkpt>
      <trkpt lat="43.33191" lon="5.67306">
        <ele>586</ele>
        <time>2019-01-18T13:08:59.000Z</time>
      </trkpt>
      <trkpt lat="43.33192" lon="5.67304">
        <ele>585</ele>
        <time>2019-01-18T13:09:00.000Z</time>
      </trkpt>
      <trkpt lat="43.33192" lon="5.67303">
        <ele>585</ele>
        <time>2019-01-18T13:09:01.000Z</time>
      </trkpt>
      <trkpt lat="43.33193" lon="5.67301">
        <ele>585</ele>
        <time>2019-01-18T13:09:02.000Z</time>
      </trkpt>
      <trkpt lat="43.33193" lon="5.673">
        <ele>585</ele>
        <time>2019-01-18T13:09:03.000Z</time>
      </trkpt>
      <trkpt lat="43.33194" lon="5.67298">
        <ele>585</ele>
        <time>2019-01-18T13:09:04.000Z</time>
      </trkpt>
      <trkpt lat="43.33195" lon="5.67297">
        <ele>585</ele>
        <time>2019-01-18T13:09:05.000Z</time>
      </trkpt>
      <trkpt lat="43.33195" lon="5.67295">
        <ele>585</ele>
        <time>2019-01-18T13:09:06.000Z</time>
      </trkpt>
      <trkpt lat="43.33196" lon="5.67294">
        <ele>585</ele>
        <time>2019-01-18T13:09:07.000Z</time>
      </trkpt>
      <trkpt lat="43.33197" lon="5.67293">
        <ele>585</ele>
        <time>2019-01-18T13:09:08.000Z</time>
      </trkpt>
      <trkpt lat="43.33197" lon="5.67291">
        <ele>584</ele>
        <time>2019-01-18T13:09:09.000Z</time>
      </trkpt>
      <trkpt lat="43.33198" lon="5.67289">
        <ele>584</ele>
        <time>2019-01-18T13:09:10.000Z</time>
      </trkpt>
      <trkpt lat="43.33198" lon="5.67288">
        <ele>584</ele>
        <time>2019-01-18T13:09:11.000Z</time>
      </trkpt>
      <trkpt lat="43.33199" lon="5.67286">
        <ele>584</ele>
        <time>2019-01-18T13:09:12.000Z</time>
      </trkpt>
      <trkpt lat="43.33199" lon="5.67285">
        <ele>584</ele>
        <time>2019-01-18T13:09:13.000Z</time>
      </trkpt>
      <trkpt lat="43.332" lon="5.67284">
        <ele>584</ele>
        <time>2019-01-18T13:09:14.000Z</time>
      </trkpt>
      <trkpt lat="43.332" lon="5.67282">
        <ele>584</ele>
        <time>2019-01-18T13:09:15.000Z</time>
      </trkpt>
      <trkpt lat="43.33201" lon="5.67281">
        <ele>583</ele>
        <time>2019-01-18T13:09:16.000Z</time>
      </trkpt>
      <trkpt lat="43.33202" lon="5.6728">
        <ele>583</ele>
        <time>2019-01-18T13:09:17.000Z</time>
      </trkpt>
      <trkpt lat="43.33202" lon="5.67278">
        <ele>583</ele>
        <time>2019-01-18T13:09:18.000Z</time>
      </trkpt>
      <trkpt lat="43.33203" lon="5.67276">
        <ele>583</ele>
        <time>2019-01-18T13:09:19.000Z</time>
      </trkpt>
      <trkpt lat="43.33203" lon="5.67274">
        <ele>583</ele>
        <time>2019-01-18T13:09:20.000Z</time>
      </trkpt>
      <trkpt lat="43.33204" lon="5.67273">
        <ele>583</ele>
        <time>2019-01-18T13:09:21.000Z</time>
      </trkpt>
      <trkpt lat="43.33205" lon="5.67271">
        <ele>583</ele>
        <time>2019-01-18T13:09:22.000Z</time>
      </trkpt>
      <trkpt lat="43.33205" lon="5.6727">
        <ele>582</ele>
        <time>2019-01-18T13:09:23.000Z</time>
      </trkpt>
      <trkpt lat="43.33206" lon="5.67268">
        <ele>582</ele>
        <time>2019-01-18T13:09:24.000Z</time>
      </trkpt>
      <trkpt lat="43.33207" lon="5.67267">
        <ele>582</ele>
        <time>2019-01-18T13:09:25.000Z</time>
      </trkpt>
      <trkpt lat="43.33208" lon="5.67266">
        <ele>582</ele>
        <time>2019-01-18T13:09:26.000Z</time>
      </trkpt>
      <trkpt lat="43.33209" lon="5.67264">
        <ele>582</ele>
        <time>2019-01-18T13:09:27.000Z</time>
      </trkpt>
      <trkpt lat="43.3321" lon="5.67263">
        <ele>582</ele>
        <time>2019-01-18T13:09:28.000Z</time>
      </trkpt>
      <trkpt lat="43.33211" lon="5.67261">
        <ele>582</ele>
        <time>2019-01-18T13:09:29.000Z</time>
      </trkpt>
      <trkpt lat="43.33212" lon="5.6726">
        <ele>582</ele>
        <time>2019-01-18T13:09:30.000Z</time>
      </trkpt>
      <trkpt lat="43.33212" lon="5.67259">
        <ele>581</ele>
        <time>2019-01-18T13:09:31.000Z</time>
      </trkpt>
      <trkpt lat="43.33214" lon="5.67257">
        <ele>581</ele>
        <time>2019-01-18T13:09:32.000Z</time>
      </trkpt>
      <trkpt lat="43.33215" lon="5.67256">
        <ele>581</ele>
        <time>2019-01-18T13:09:33.000Z</time>
      </trkpt>
      <trkpt lat="43.33216" lon="5.67255">
        <ele>581</ele>
        <time>2019-01-18T13:09:34.000Z</time>
      </trkpt>
      <trkpt lat="43.33217" lon="5.67255">
        <ele>581</ele>
        <time>2019-01-18T13:09:35.000Z</time>
      </trkpt>
      <trkpt lat="43.33218" lon="5.67254">
        <ele>581</ele>
        <time>2019-01-18T13:09:36.000Z</time>
      </trkpt>
      <trkpt lat="43.33218" lon="5.67254">
        <ele>581</ele>
        <time>2019-01-18T13:09:37.000Z</time>
      </trkpt>
      <trkpt lat="43.33219" lon="5.67254">
        <ele>581</ele>
        <time>2019-01-18T13:09:38.000Z</time>
      </trkpt>
      <trkpt lat="43.3322" lon="5.67253">
        <ele>581</ele>
        <time>2019-01-18T13:09:39.000Z</time>
      </trkpt>
      <trkpt lat="43.33221" lon="5.67253">
        <ele>580</ele>
        <time>2019-01-18T13:09:40.000Z</time>
      </trkpt>
      <trkpt lat="43.33221" lon="5.67253">
        <ele>580</ele>
        <time>2019-01-18T13:09:41.000Z</time>
      </trkpt>
      <trkpt lat="43.33222" lon="5.67253">
        <ele>580</ele>
        <time>2019-01-18T13:09:42.000Z</time>
      </trkpt>
      <trkpt lat="43.33223" lon="5.67252">
        <ele>580</ele>
        <time>2019-01-18T13:09:43.000Z</time>
      </trkpt>
      <trkpt lat="43.33224" lon="5.67252">
        <ele>580</ele>
        <time>2019-01-18T13:09:44.000Z</time>
      </trkpt>
      <trkpt lat="43.33224" lon="5.67252">
        <ele>580</ele>
        <time>2019-01-18T13:09:45.000Z</time>
      </trkpt>
      <trkpt lat="43.33225" lon="5.67252">
        <ele>580</ele>
        <time>2019-01-18T13:09:46.000Z</time>
      </trkpt>
      <trkpt lat="43.33226" lon="5.67252">
        <ele>579</ele>
        <time>2019-01-18T13:09:47.000Z</time>
      </trkpt>
      <trkpt lat="43.33227" lon="5.67251">
        <ele>579</ele>
        <time>2019-01-18T13:09:48.000Z</time>
      </trkpt>
      <trkpt lat="43.33228" lon="5.67251">
        <ele>579</ele>
        <time>2019-01-18T13:09:49.000Z</time>
      </trkpt>
      <trkpt lat="43.33228" lon="5.67251">
        <ele>579</ele>
        <time>2019-01-18T13:09:50.000Z</time>
      </trkpt>
      <trkpt lat="43.33229" lon="5.6725">
        <ele>579</ele>
        <time>2019-01-18T13:09:51.000Z</time>
      </trkpt>
      <trkpt lat="43.3323" lon="5.6725">
        <ele>578</ele>
        <time>2019-01-18T13:09:52.000Z</time>
      </trkpt>
      <trkpt lat="43.33231" lon="5.67249">
        <ele>578</ele>
        <time>2019-01-18T13:09:53.000Z</time>
      </trkpt>
      <trkpt lat="43.33231" lon="5.67249">
        <ele>578</ele>
        <time>2019-01-18T13:09:54.000Z</time>
      </trkpt>
      <trkpt lat="43.33232" lon="5.67249">
        <ele>578</ele>
        <time>2019-01-18T13:09:55.000Z</time>
      </trkpt>
      <trkpt lat="43.33232" lon="5.67249">
        <ele>578</ele>
        <time>2019-01-18T13:09:56.000Z</time>
      </trkpt>
      <trkpt lat="43.33233" lon="5.67249">
        <ele>578</ele>
        <time>2019-01-18T13:09:57.000Z</time>
      </trkpt>
      <trkpt lat="43.33233" lon="5.67249">
        <ele>578</ele>
        <time>2019-01-18T13:09:58.000Z</time>
      </trkpt>
      <trkpt lat="43.33233" lon="5.67249">
        <ele>578</ele>
        <time>2019-01-18T13:09:59.000Z</time>
      </trkpt>
      <trkpt lat="43.33233" lon="5.67249">
        <ele>578</ele>
        <time>2019-01-18T13:10:00.000Z</time>
      </trkpt>
      <trkpt lat="43.33233" lon="5.67249">
        <ele>578</ele>
        <time>2019-01-18T13:10:01.000Z</time>
      </trkpt>
      <trkpt lat="43.33234" lon="5.67249">
        <ele>578</ele>
        <time>2019-01-18T13:10:02.000Z</time>
      </trkpt>
      <trkpt lat="43.33234" lon="5.67249">
        <ele>578</ele>
        <time>2019-01-18T13:10:03.000Z</time>
      </trkpt>
      <trkpt lat="43.33235" lon="5.67249">
        <ele>577</ele>
        <time>2019-01-18T13:10:04.000Z</time>
      </trkpt>
      <trkpt lat="43.33237" lon="5.67249">
        <ele>577</ele>
        <time>2019-01-18T13:10:05.000Z</time>
      </trkpt>
      <trkpt lat="43.33238" lon="5.67249">
        <ele>577</ele>
        <time>2019-01-18T13:10:06.000Z</time>
      </trkpt>
      <trkpt lat="43.33239" lon="5.67249">
        <ele>577</ele>
        <time>2019-01-18T13:10:07.000Z</time>
      </trkpt>
      <trkpt lat="43.33241" lon="5.6725">
        <ele>577</ele>
        <time>2019-01-18T13:10:08.000Z</time>
      </trkpt>
      <trkpt lat="43.33242" lon="5.6725">
        <ele>577</ele>
        <time>2019-01-18T13:10:09.000Z</time>
      </trkpt>
      <trkpt lat="43.33243" lon="5.67251">
        <ele>576</ele>
        <time>2019-01-18T13:10:10.000Z</time>
      </trkpt>
      <trkpt lat="43.33243" lon="5.67252">
        <ele>576</ele>
        <time>2019-01-18T13:10:11.000Z</time>
      </trkpt>
      <trkpt lat="43.33244" lon="5.67252">
        <ele>576</ele>
        <time>2019-01-18T13:10:12.000Z</time>
      </trkpt>
      <trkpt lat="43.33245" lon="5.67253">
        <ele>576</ele>
        <time>2019-01-18T13:10:13.000Z</time>
      </trkpt>
      <trkpt lat="43.33246" lon="5.67253">
        <ele>575</ele>
        <time>2019-01-18T13:10:14.000Z</time>
      </trkpt>
      <trkpt lat="43.33246" lon="5.67254">
        <ele>575</ele>
        <time>2019-01-18T13:10:15.000Z</time>
      </trkpt>
      <trkpt lat="43.33247" lon="5.67254">
        <ele>575</ele>
        <time>2019-01-18T13:10:16.000Z</time>
      </trkpt>
      <trkpt lat="43.33247" lon="5.67254">
        <ele>575</ele>
        <time>2019-01-18T13:10:17.000Z</time>
      </trkpt>
      <trkpt lat="43.33248" lon="5.67254">
        <ele>574</ele>
        <time>2019-01-18T13:10:18.000Z</time>
      </trkpt>
      <trkpt lat="43.33249" lon="5.67255">
        <ele>574</ele>
        <time>2019-01-18T13:10:19.000Z</time>
      </trkpt>
      <trkpt lat="43.33249" lon="5.67254">
        <ele>574</ele>
        <time>2019-01-18T13:10:20.000Z</time>
      </trkpt>
      <trkpt lat="43.33249" lon="5.67254">
        <ele>574</ele>
        <time>2019-01-18T13:10:21.000Z</time>
      </trkpt>
      <trkpt lat="43.33249" lon="5.67253">
        <ele>574</ele>
        <time>2019-01-18T13:10:22.000Z</time>
      </trkpt>
      <trkpt lat="43.33249" lon="5.67252">
        <ele>573</ele>
        <time>2019-01-18T13:10:23.000Z</time>
      </trkpt>
      <trkpt lat="43.33249" lon="5.6725">
        <ele>573</ele>
        <time>2019-01-18T13:10:24.000Z</time>
      </trkpt>
      <trkpt lat="43.3325" lon="5.67249">
        <ele>573</ele>
        <time>2019-01-18T13:10:25.000Z</time>
      </trkpt>
      <trkpt lat="43.33251" lon="5.67249">
        <ele>573</ele>
        <time>2019-01-18T13:10:26.000Z</time>
      </trkpt>
      <trkpt lat="43.33251" lon="5.67249">
        <ele>573</ele>
        <time>2019-01-18T13:10:27.000Z</time>
      </trkpt>
      <trkpt lat="43.33252" lon="5.67249">
        <ele>573</ele>
        <time>2019-01-18T13:10:28.000Z</time>
      </trkpt>
      <trkpt lat="43.33253" lon="5.67249">
        <ele>572</ele>
        <time>2019-01-18T13:10:29.000Z</time>
      </trkpt>
      <trkpt lat="43.33253" lon="5.67249">
        <ele>572</ele>
        <time>2019-01-18T13:10:30.000Z</time>
      </trkpt>
      <trkpt lat="43.33254" lon="5.67248">
        <ele>572</ele>
        <time>2019-01-18T13:10:31.000Z</time>
      </trkpt>
      <trkpt lat="43.33254" lon="5.67248">
        <ele>572</ele>
        <time>2019-01-18T13:10:32.000Z</time>
      </trkpt>
      <trkpt lat="43.33255" lon="5.67248">
        <ele>572</ele>
        <time>2019-01-18T13:10:33.000Z</time>
      </trkpt>
      <trkpt lat="43.33255" lon="5.67247">
        <ele>572</ele>
        <time>2019-01-18T13:10:34.000Z</time>
      </trkpt>
      <trkpt lat="43.33255" lon="5.67246">
        <ele>572</ele>
        <time>2019-01-18T13:10:35.000Z</time>
      </trkpt>
      <trkpt lat="43.33254" lon="5.67246">
        <ele>571</ele>
        <time>2019-01-18T13:10:36.000Z</time>
      </trkpt>
      <trkpt lat="43.33255" lon="5.67245">
        <ele>571</ele>
        <time>2019-01-18T13:10:37.000Z</time>
      </trkpt>
      <trkpt lat="43.33255" lon="5.67245">
        <ele>571</ele>
        <time>2019-01-18T13:10:38.000Z</time>
      </trkpt>
      <trkpt lat="43.33255" lon="5.67245">
        <ele>571</ele>
        <time>2019-01-18T13:10:39.000Z</time>
      </trkpt>
      <trkpt lat="43.33255" lon="5.67245">
        <ele>571</ele>
        <time>2019-01-18T13:10:40.000Z</time>
      </trkpt>
      <trkpt lat="43.33255" lon="5.67245">
        <ele>571</ele>
        <time>2019-01-18T13:10:41.000Z</time>
      </trkpt>
      <trkpt lat="43.33255" lon="5.67245">
        <ele>571</ele>
        <time>2019-01-18T13:10:42.000Z</time>
      </trkpt>
      <trkpt lat="43.33255" lon="5.67245">
        <ele>571</ele>
        <time>2019-01-18T13:10:43.000Z</time>
      </trkpt>
      <trkpt lat="43.33256" lon="5.67245">
        <ele>571</ele>
        <time>2019-01-18T13:10:44.000Z</time>
      </trkpt>
      <trkpt lat="43.33256" lon="5.67245">
        <ele>571</ele>
        <time>2019-01-18T13:10:45.000Z</time>
      </trkpt>
      <trkpt lat="43.33256" lon="5.67244">
        <ele>571</ele>
        <time>2019-01-18T13:10:46.000Z</time>
      </trkpt>
      <trkpt lat="43.33256" lon="5.67244">
        <ele>571</ele>
        <time>2019-01-18T13:10:47.000Z</time>
      </trkpt>
      <trkpt lat="43.33256" lon="5.67244">
        <ele>571</ele>
        <time>2019-01-18T13:10:48.000Z</time>
      </trkpt>
      <trkpt lat="43.33256" lon="5.67244">
        <ele>570</ele>
        <time>2019-01-18T13:10:49.000Z</time>
      </trkpt>
      <trkpt lat="43.33256" lon="5.67244">
        <ele>570</ele>
        <time>2019-01-18T13:10:50.000Z</time>
      </trkpt>
      <trkpt lat="43.33256" lon="5.67244">
        <ele>570</ele>
        <time>2019-01-18T13:10:51.000Z</time>
      </trkpt>
      <trkpt lat="43.33256" lon="5.67244">
        <ele>570</ele>
        <time>2019-01-18T13:10:52.000Z</time>
      </trkpt>
      <trkpt lat="43.33256" lon="5.67244">
        <ele>570</ele>
        <time>2019-01-18T13:10:53.000Z</time>
      </trkpt>
      <trkpt lat="43.33256" lon="5.67244">
        <ele>570</ele>
        <time>2019-01-18T13:10:54.000Z</time>
      </trkpt>
      <trkpt lat="43.33256" lon="5.67244">
        <ele>570</ele>
        <time>2019-01-18T13:10:55.000Z</time>
      </trkpt>
      <trkpt lat="43.33256" lon="5.67244">
        <ele>570</ele>
        <time>2019-01-18T13:10:56.000Z</time>
      </trkpt>
      <trkpt lat="43.33256" lon="5.67244">
        <ele>570</ele>
        <time>2019-01-18T13:10:57.000Z</time>
      </trkpt>
      <trkpt lat="43.33256" lon="5.67244">
        <ele>570</ele>
        <time>2019-01-18T13:10:58.000Z</time>
      </trkpt>
      <trkpt lat="43.33256" lon="5.67244">
        <ele>570</ele>
        <time>2019-01-18T13:10:59.000Z</time>
      </trkpt>
      <trkpt lat="43.33256" lon="5.67244">
        <ele>570</ele>
        <time>2019-01-18T13:11:00.000Z</time>
      </trkpt>
      <trkpt lat="43.33256" lon="5.67244">
        <ele>570</ele>
        <time>2019-01-18T13:11:01.000Z</time>
      </trkpt>
      <trkpt lat="43.33256" lon="5.67244">
        <ele>570</ele>
        <time>2019-01-18T13:11:02.000Z</time>
      </trkpt>
      <trkpt lat="43.33256" lon="5.67244">
        <ele>570</ele>
        <time>2019-01-18T13:11:03.000Z</time>
      </trkpt>
      <trkpt lat="43.33256" lon="5.67244">
        <ele>570</ele>
        <time>2019-01-18T13:11:04.000Z</time>
      </trkpt>
      <trkpt lat="43.33256" lon="5.67244">
        <ele>570</ele>
        <time>2019-01-18T13:11:05.000Z</time>
      </trkpt>
      <trkpt lat="43.33256" lon="5.67244">
        <ele>570</ele>
        <time>2019-01-18T13:11:06.000Z</time>
      </trkpt>
      <trkpt lat="43.33256" lon="5.67244">
        <ele>570</ele>
        <time>2019-01-18T13:11:07.000Z</time>
      </trkpt>
      <trkpt lat="43.33256" lon="5.67244">
        <ele>570</ele>
        <time>2019-01-18T13:11:08.000Z</time>
      </trkpt>
      <trkpt lat="43.33256" lon="5.67244">
        <ele>570</ele>
        <time>2019-01-18T13:11:09.000Z</time>
      </trkpt>
      <trkpt lat="43.33256" lon="5.67244">
        <ele>570</ele>
        <time>2019-01-18T13:11:10.000Z</time>
      </trkpt>
      <trkpt lat="43.33256" lon="5.67244">
        <ele>570</ele>
        <time>2019-01-18T13:11:11.000Z</time>
      </trkpt>
      <trkpt lat="43.33256" lon="5.67244">
        <ele>570</ele>
        <time>2019-01-18T13:11:12.000Z</time>
      </trkpt>
      <trkpt lat="43.33256" lon="5.67244">
        <ele>570</ele>
        <time>2019-01-18T13:11:13.000Z</time>
      </trkpt>
      <trkpt lat="43.33256" lon="5.67244">
        <ele>570</ele>
        <time>2019-01-18T13:11:14.000Z</time>
      </trkpt>
      <trkpt lat="43.33256" lon="5.67244">
        <ele>570</ele>
        <time>2019-01-18T13:11:15.000Z</time>
      </trkpt>
      <trkpt lat="43.33256" lon="5.67244">
        <ele>570</ele>
        <time>2019-01-18T13:11:16.000Z</time>
      </trkpt>
      <trkpt lat="43.33256" lon="5.67244">
        <ele>570</ele>
        <time>2019-01-18T13:11:17.000Z</time>
      </trkpt>
      <trkpt lat="43.33256" lon="5.67244">
        <ele>570</ele>
        <time>2019-01-18T13:11:18.000Z</time>
      </trkpt>
      <trkpt lat="43.33256" lon="5.67244">
        <ele>570</ele>
        <time>2019-01-18T13:11:19.000Z</time>
      </trkpt>
      <trkpt lat="43.33256" lon="5.67244">
        <ele>570</ele>
        <time>2019-01-18T13:11:20.000Z</time>
      </trkpt>
      <trkpt lat="43.33256" lon="5.67244">
        <ele>570</ele>
        <time>2019-01-18T13:11:21.000Z</time>
      </trkpt>
      <trkpt lat="43.33256" lon="5.67244">
        <ele>570</ele>
        <time>2019-01-18T13:11:22.000Z</time>
      </trkpt>
      <trkpt lat="43.33256" lon="5.67244">
        <ele>570</ele>
        <time>2019-01-18T13:11:23.000Z</time>
      </trkpt>
      <trkpt lat="43.33256" lon="5.67244">
        <ele>570</ele>
        <time>2019-01-18T13:11:24.000Z</time>
      </trkpt>
      <trkpt lat="43.33256" lon="5.67244">
        <ele>570</ele>
        <time>2019-01-18T13:11:25.000Z</time>
      </trkpt>
      <trkpt lat="43.33256" lon="5.67244">
        <ele>570</ele>
        <time>2019-01-18T13:11:26.000Z</time>
      </trkpt>
      <trkpt lat="43.33256" lon="5.67244">
        <ele>570</ele>
        <time>2019-01-18T13:11:27.000Z</time>
      </trkpt>
      <trkpt lat="43.33256" lon="5.67244">
        <ele>570</ele>
        <time>2019-01-18T13:11:28.000Z</time>
      </trkpt>
      <trkpt lat="43.33256" lon="5.67244">
        <ele>570</ele>
        <time>2019-01-18T13:11:29.000Z</time>
      </trkpt>
      <trkpt lat="43.33256" lon="5.67244">
        <ele>570</ele>
        <time>2019-01-18T13:11:30.000Z</time>
      </trkpt>
      <trkpt lat="43.33256" lon="5.67244">
        <ele>570</ele>
        <time>2019-01-18T13:11:31.000Z</time>
      </trkpt>
      <trkpt lat="43.33256" lon="5.67244">
        <ele>570</ele>
        <time>2019-01-18T13:11:32.000Z</time>
      </trkpt>
      <trkpt lat="43.33256" lon="5.67244">
        <ele>570</ele>
        <time>2019-01-18T13:11:33.000Z</time>
      </trkpt>
      <trkpt lat="43.33256" lon="5.67244">
        <ele>570</ele>
        <time>2019-01-18T13:11:34.000Z</time>
      </trkpt>
      <trkpt lat="43.33256" lon="5.67244">
        <ele>570</ele>
        <time>2019-01-18T13:11:35.000Z</time>
      </trkpt>
      <trkpt lat="43.33256" lon="5.67244">
        <ele>570</ele>
        <time>2019-01-18T13:11:36.000Z</time>
      </trkpt>
      <trkpt lat="43.33256" lon="5.67244">
        <ele>570</ele>
        <time>2019-01-18T13:11:37.000Z</time>
      </trkpt>
      <trkpt lat="43.33256" lon="5.67244">
        <ele>570</ele>
        <time>2019-01-18T13:11:38.000Z</time>
      </trkpt>
      <trkpt lat="43.33256" lon="5.67244">
        <ele>570</ele>
        <time>2019-01-18T13:11:39.000Z</time>
      </trkpt>
      <trkpt lat="43.33256" lon="5.67244">
        <ele>570</ele>
        <time>2019-01-18T13:11:40.000Z</time>
      </trkpt>
      <trkpt lat="43.33256" lon="5.67244">
        <ele>570</ele>
        <time>2019-01-18T13:11:41.000Z</time>
      </trkpt>
      <trkpt lat="43.33256" lon="5.67244">
        <ele>570</ele>
        <time>2019-01-18T13:11:42.000Z</time>
      </trkpt>
      <trkpt lat="43.33256" lon="5.67244">
        <ele>570</ele>
        <time>2019-01-18T13:11:43.000Z</time>
      </trkpt>
      <trkpt lat="43.33256" lon="5.67244">
        <ele>570</ele>
        <time>2019-01-18T13:11:44.000Z</time>
      </trkpt>
      <trkpt lat="43.33256" lon="5.67244">
        <ele>570</ele>
        <time>2019-01-18T13:11:45.000Z</time>
      </trkpt>
      <trkpt lat="43.33256" lon="5.67244">
        <ele>570</ele>
        <time>2019-01-18T13:11:46.000Z</time>
      </trkpt>
      <trkpt lat="43.33256" lon="5.67244">
        <ele>570</ele>
        <time>2019-01-18T13:11:47.000Z</time>
      </trkpt>
      <trkpt lat="43.33256" lon="5.67244">
        <ele>570</ele>
        <time>2019-01-18T13:11:48.000Z</time>
      </trkpt>
      <trkpt lat="43.33256" lon="5.67244">
        <ele>570</ele>
        <time>2019-01-18T13:11:49.000Z</time>
      </trkpt>
      <trkpt lat="43.33256" lon="5.67244">
        <ele>570</ele>
        <time>2019-01-18T13:11:50.000Z</time>
      </trkpt>
      <trkpt lat="43.33256" lon="5.67244">
        <ele>570</ele>
        <time>2019-01-18T13:11:51.000Z</time>
      </trkpt>
      <trkpt lat="43.33256" lon="5.67244">
        <ele>570</ele>
        <time>2019-01-18T13:11:52.000Z</time>
      </trkpt>
      <trkpt lat="43.33256" lon="5.67243">
        <ele>570</ele>
        <time>2019-01-18T13:11:53.000Z</time>
      </trkpt>
      <trkpt lat="43.33256" lon="5.67243">
        <ele>570</ele>
        <time>2019-01-18T13:11:54.000Z</time>
      </trkpt>
      <trkpt lat="43.33256" lon="5.67243">
        <ele>570</ele>
        <time>2019-01-18T13:11:55.000Z</time>
      </trkpt>
      <trkpt lat="43.33256" lon="5.67243">
        <ele>570</ele>
        <time>2019-01-18T13:11:56.000Z</time>
      </trkpt>
      <trkpt lat="43.33256" lon="5.67242">
        <ele>570</ele>
        <time>2019-01-18T13:11:57.000Z</time>
      </trkpt>
      <trkpt lat="43.33256" lon="5.67241">
        <ele>570</ele>
        <time>2019-01-18T13:11:58.000Z</time>
      </trkpt>
      <trkpt lat="43.33257" lon="5.6724">
        <ele>569</ele>
        <time>2019-01-18T13:11:59.000Z</time>
      </trkpt>
      <trkpt lat="43.33256" lon="5.6724">
        <ele>569</ele>
        <time>2019-01-18T13:12:00.000Z</time>
      </trkpt>
      <trkpt lat="43.33256" lon="5.67239">
        <ele>569</ele>
        <time>2019-01-18T13:12:01.000Z</time>
      </trkpt>
      <trkpt lat="43.33257" lon="5.67238">
        <ele>569</ele>
        <time>2019-01-18T13:12:02.000Z</time>
      </trkpt>
      <trkpt lat="43.33257" lon="5.67237">
        <ele>569</ele>
        <time>2019-01-18T13:12:03.000Z</time>
      </trkpt>
      <trkpt lat="43.33257" lon="5.67236">
        <ele>569</ele>
        <time>2019-01-18T13:12:04.000Z</time>
      </trkpt>
      <trkpt lat="43.33257" lon="5.67236">
        <ele>569</ele>
        <time>2019-01-18T13:12:05.000Z</time>
      </trkpt>
      <trkpt lat="43.33257" lon="5.67235">
        <ele>568</ele>
        <time>2019-01-18T13:12:06.000Z</time>
      </trkpt>
      <trkpt lat="43.33257" lon="5.67234">
        <ele>568</ele>
        <time>2019-01-18T13:12:07.000Z</time>
      </trkpt>
      <trkpt lat="43.33258" lon="5.67233">
        <ele>568</ele>
        <time>2019-01-18T13:12:08.000Z</time>
      </trkpt>
      <trkpt lat="43.33258" lon="5.67232">
        <ele>568</ele>
        <time>2019-01-18T13:12:09.000Z</time>
      </trkpt>
      <trkpt lat="43.33258" lon="5.67232">
        <ele>568</ele>
        <time>2019-01-18T13:12:10.000Z</time>
      </trkpt>
      <trkpt lat="43.33257" lon="5.67231">
        <ele>568</ele>
        <time>2019-01-18T13:12:11.000Z</time>
      </trkpt>
      <trkpt lat="43.33257" lon="5.6723">
        <ele>568</ele>
        <time>2019-01-18T13:12:12.000Z</time>
      </trkpt>
      <trkpt lat="43.33257" lon="5.67229">
        <ele>568</ele>
        <time>2019-01-18T13:12:13.000Z</time>
      </trkpt>
      <trkpt lat="43.33257" lon="5.67229">
        <ele>567</ele>
        <time>2019-01-18T13:12:14.000Z</time>
      </trkpt>
      <trkpt lat="43.33258" lon="5.67228">
        <ele>567</ele>
        <time>2019-01-18T13:12:15.000Z</time>
      </trkpt>
      <trkpt lat="43.33259" lon="5.67227">
        <ele>567</ele>
        <time>2019-01-18T13:12:16.000Z</time>
      </trkpt>
      <trkpt lat="43.33259" lon="5.67226">
        <ele>567</ele>
        <time>2019-01-18T13:12:17.000Z</time>
      </trkpt>
      <trkpt lat="43.33259" lon="5.67225">
        <ele>567</ele>
        <time>2019-01-18T13:12:18.000Z</time>
      </trkpt>
      <trkpt lat="43.33259" lon="5.67224">
        <ele>567</ele>
        <time>2019-01-18T13:12:19.000Z</time>
      </trkpt>
      <trkpt lat="43.3326" lon="5.67223">
        <ele>567</ele>
        <time>2019-01-18T13:12:20.000Z</time>
      </trkpt>
      <trkpt lat="43.3326" lon="5.67222">
        <ele>566</ele>
        <time>2019-01-18T13:12:21.000Z</time>
      </trkpt>
      <trkpt lat="43.3326" lon="5.67221">
        <ele>566</ele>
        <time>2019-01-18T13:12:22.000Z</time>
      </trkpt>
      <trkpt lat="43.33261" lon="5.67221">
        <ele>566</ele>
        <time>2019-01-18T13:12:23.000Z</time>
      </trkpt>
      <trkpt lat="43.33261" lon="5.6722">
        <ele>566</ele>
        <time>2019-01-18T13:12:24.000Z</time>
      </trkpt>
      <trkpt lat="43.33261" lon="5.67218">
        <ele>566</ele>
        <time>2019-01-18T13:12:25.000Z</time>
      </trkpt>
      <trkpt lat="43.33262" lon="5.67217">
        <ele>566</ele>
        <time>2019-01-18T13:12:26.000Z</time>
      </trkpt>
      <trkpt lat="43.33262" lon="5.67216">
        <ele>565</ele>
        <time>2019-01-18T13:12:27.000Z</time>
      </trkpt>
      <trkpt lat="43.33263" lon="5.67214">
        <ele>565</ele>
        <time>2019-01-18T13:12:28.000Z</time>
      </trkpt>
      <trkpt lat="43.33264" lon="5.67213">
        <ele>565</ele>
        <time>2019-01-18T13:12:29.000Z</time>
      </trkpt>
      <trkpt lat="43.33265" lon="5.67212">
        <ele>565</ele>
        <time>2019-01-18T13:12:30.000Z</time>
      </trkpt>
      <trkpt lat="43.33265" lon="5.67212">
        <ele>565</ele>
        <time>2019-01-18T13:12:31.000Z</time>
      </trkpt>
      <trkpt lat="43.33266" lon="5.67211">
        <ele>564</ele>
        <time>2019-01-18T13:12:32.000Z</time>
      </trkpt>
      <trkpt lat="43.33267" lon="5.67211">
        <ele>564</ele>
        <time>2019-01-18T13:12:33.000Z</time>
      </trkpt>
      <trkpt lat="43.33268" lon="5.6721">
        <ele>564</ele>
        <time>2019-01-18T13:12:34.000Z</time>
      </trkpt>
      <trkpt lat="43.33268" lon="5.67209">
        <ele>564</ele>
        <time>2019-01-18T13:12:35.000Z</time>
      </trkpt>
      <trkpt lat="43.33269" lon="5.67208">
        <ele>564</ele>
        <time>2019-01-18T13:12:36.000Z</time>
      </trkpt>
      <trkpt lat="43.3327" lon="5.67207">
        <ele>563</ele>
        <time>2019-01-18T13:12:37.000Z</time>
      </trkpt>
      <trkpt lat="43.33271" lon="5.67206">
        <ele>563</ele>
        <time>2019-01-18T13:12:38.000Z</time>
      </trkpt>
      <trkpt lat="43.33272" lon="5.67206">
        <ele>563</ele>
        <time>2019-01-18T13:12:39.000Z</time>
      </trkpt>
      <trkpt lat="43.33272" lon="5.67205">
        <ele>563</ele>
        <time>2019-01-18T13:12:40.000Z</time>
      </trkpt>
      <trkpt lat="43.33273" lon="5.67205">
        <ele>563</ele>
        <time>2019-01-18T13:12:41.000Z</time>
      </trkpt>
      <trkpt lat="43.33273" lon="5.67204">
        <ele>562</ele>
        <time>2019-01-18T13:12:42.000Z</time>
      </trkpt>
      <trkpt lat="43.33274" lon="5.67204">
        <ele>562</ele>
        <time>2019-01-18T13:12:43.000Z</time>
      </trkpt>
      <trkpt lat="43.33274" lon="5.67203">
        <ele>562</ele>
        <time>2019-01-18T13:12:44.000Z</time>
      </trkpt>
      <trkpt lat="43.33275" lon="5.67202">
        <ele>562</ele>
        <time>2019-01-18T13:12:45.000Z</time>
      </trkpt>
      <trkpt lat="43.33275" lon="5.67202">
        <ele>562</ele>
        <time>2019-01-18T13:12:46.000Z</time>
      </trkpt>
      <trkpt lat="43.33275" lon="5.67201">
        <ele>562</ele>
        <time>2019-01-18T13:12:47.000Z</time>
      </trkpt>
      <trkpt lat="43.33275" lon="5.672">
        <ele>562</ele>
        <time>2019-01-18T13:12:48.000Z</time>
      </trkpt>
      <trkpt lat="43.33276" lon="5.672">
        <ele>561</ele>
        <time>2019-01-18T13:12:49.000Z</time>
      </trkpt>
      <trkpt lat="43.33276" lon="5.672">
        <ele>561</ele>
        <time>2019-01-18T13:12:50.000Z</time>
      </trkpt>
      <trkpt lat="43.33277" lon="5.672">
        <ele>561</ele>
        <time>2019-01-18T13:12:51.000Z</time>
      </trkpt>
      <trkpt lat="43.33277" lon="5.672">
        <ele>561</ele>
        <time>2019-01-18T13:12:52.000Z</time>
      </trkpt>
      <trkpt lat="43.33278" lon="5.67199">
        <ele>561</ele>
        <time>2019-01-18T13:12:53.000Z</time>
      </trkpt>
      <trkpt lat="43.33279" lon="5.67198">
        <ele>560</ele>
        <time>2019-01-18T13:12:54.000Z</time>
      </trkpt>
      <trkpt lat="43.3328" lon="5.67198">
        <ele>560</ele>
        <time>2019-01-18T13:12:55.000Z</time>
      </trkpt>
      <trkpt lat="43.33281" lon="5.67197">
        <ele>560</ele>
        <time>2019-01-18T13:12:56.000Z</time>
      </trkpt>
      <trkpt lat="43.33282" lon="5.67196">
        <ele>560</ele>
        <time>2019-01-18T13:12:57.000Z</time>
      </trkpt>
      <trkpt lat="43.33283" lon="5.67195">
        <ele>559</ele>
        <time>2019-01-18T13:12:58.000Z</time>
      </trkpt>
      <trkpt lat="43.33284" lon="5.67194">
        <ele>559</ele>
        <time>2019-01-18T13:12:59.000Z</time>
      </trkpt>
      <trkpt lat="43.33284" lon="5.67193">
        <ele>559</ele>
        <time>2019-01-18T13:13:00.000Z</time>
      </trkpt>
      <trkpt lat="43.33284" lon="5.67192">
        <ele>559</ele>
        <time>2019-01-18T13:13:01.000Z</time>
      </trkpt>
      <trkpt lat="43.33284" lon="5.6719">
        <ele>559</ele>
        <time>2019-01-18T13:13:02.000Z</time>
      </trkpt>
      <trkpt lat="43.33285" lon="5.67188">
        <ele>559</ele>
        <time>2019-01-18T13:13:03.000Z</time>
      </trkpt>
      <trkpt lat="43.33285" lon="5.67187">
        <ele>559</ele>
        <time>2019-01-18T13:13:04.000Z</time>
      </trkpt>
      <trkpt lat="43.33285" lon="5.67185">
        <ele>558</ele>
        <time>2019-01-18T13:13:05.000Z</time>
      </trkpt>
      <trkpt lat="43.33286" lon="5.67184">
        <ele>558</ele>
        <time>2019-01-18T13:13:06.000Z</time>
      </trkpt>
      <trkpt lat="43.33286" lon="5.67183">
        <ele>558</ele>
        <time>2019-01-18T13:13:07.000Z</time>
      </trkpt>
      <trkpt lat="43.33287" lon="5.67183">
        <ele>558</ele>
        <time>2019-01-18T13:13:08.000Z</time>
      </trkpt>
      <trkpt lat="43.33288" lon="5.67182">
        <ele>557</ele>
        <time>2019-01-18T13:13:09.000Z</time>
      </trkpt>
      <trkpt lat="43.33289" lon="5.67181">
        <ele>557</ele>
        <time>2019-01-18T13:13:10.000Z</time>
      </trkpt>
      <trkpt lat="43.33289" lon="5.67181">
        <ele>557</ele>
        <time>2019-01-18T13:13:11.000Z</time>
      </trkpt>
      <trkpt lat="43.3329" lon="5.6718">
        <ele>557</ele>
        <time>2019-01-18T13:13:12.000Z</time>
      </trkpt>
      <trkpt lat="43.33291" lon="5.6718">
        <ele>557</ele>
        <time>2019-01-18T13:13:13.000Z</time>
      </trkpt>
      <trkpt lat="43.33291" lon="5.67179">
        <ele>556</ele>
        <time>2019-01-18T13:13:14.000Z</time>
      </trkpt>
      <trkpt lat="43.33292" lon="5.67179">
        <ele>556</ele>
        <time>2019-01-18T13:13:15.000Z</time>
      </trkpt>
      <trkpt lat="43.33292" lon="5.67178">
        <ele>556</ele>
        <time>2019-01-18T13:13:16.000Z</time>
      </trkpt>
      <trkpt lat="43.33293" lon="5.67178">
        <ele>556</ele>
        <time>2019-01-18T13:13:17.000Z</time>
      </trkpt>
      <trkpt lat="43.33293" lon="5.67178">
        <ele>555</ele>
        <time>2019-01-18T13:13:18.000Z</time>
      </trkpt>
      <trkpt lat="43.33294" lon="5.67177">
        <ele>555</ele>
        <time>2019-01-18T13:13:19.000Z</time>
      </trkpt>
      <trkpt lat="43.33295" lon="5.67176">
        <ele>555</ele>
        <time>2019-01-18T13:13:20.000Z</time>
      </trkpt>
      <trkpt lat="43.33295" lon="5.67175">
        <ele>555</ele>
        <time>2019-01-18T13:13:21.000Z</time>
      </trkpt>
      <trkpt lat="43.33296" lon="5.67174">
        <ele>555</ele>
        <time>2019-01-18T13:13:22.000Z</time>
      </trkpt>
      <trkpt lat="43.33297" lon="5.67173">
        <ele>554</ele>
        <time>2019-01-18T13:13:23.000Z</time>
      </trkpt>
      <trkpt lat="43.33298" lon="5.67172">
        <ele>554</ele>
        <time>2019-01-18T13:13:24.000Z</time>
      </trkpt>
      <trkpt lat="43.33299" lon="5.67171">
        <ele>554</ele>
        <time>2019-01-18T13:13:25.000Z</time>
      </trkpt>
      <trkpt lat="43.333" lon="5.67171">
        <ele>554</ele>
        <time>2019-01-18T13:13:26.000Z</time>
      </trkpt>
      <trkpt lat="43.33301" lon="5.6717">
        <ele>554</ele>
        <time>2019-01-18T13:13:27.000Z</time>
      </trkpt>
      <trkpt lat="43.33302" lon="5.67169">
        <ele>553</ele>
        <time>2019-01-18T13:13:28.000Z</time>
      </trkpt>
      <trkpt lat="43.33302" lon="5.67168">
        <ele>553</ele>
        <time>2019-01-18T13:13:29.000Z</time>
      </trkpt>
      <trkpt lat="43.33303" lon="5.67167">
        <ele>553</ele>
        <time>2019-01-18T13:13:30.000Z</time>
      </trkpt>
      <trkpt lat="43.33304" lon="5.67167">
        <ele>553</ele>
        <time>2019-01-18T13:13:31.000Z</time>
      </trkpt>
      <trkpt lat="43.33305" lon="5.67166">
        <ele>553</ele>
        <time>2019-01-18T13:13:32.000Z</time>
      </trkpt>
      <trkpt lat="43.33306" lon="5.67165">
        <ele>553</ele>
        <time>2019-01-18T13:13:33.000Z</time>
      </trkpt>
      <trkpt lat="43.33307" lon="5.67163">
        <ele>553</ele>
        <time>2019-01-18T13:13:34.000Z</time>
      </trkpt>
      <trkpt lat="43.33308" lon="5.67162">
        <ele>553</ele>
        <time>2019-01-18T13:13:35.000Z</time>
      </trkpt>
      <trkpt lat="43.33309" lon="5.6716">
        <ele>552</ele>
        <time>2019-01-18T13:13:36.000Z</time>
      </trkpt>
      <trkpt lat="43.3331" lon="5.67159">
        <ele>552</ele>
        <time>2019-01-18T13:13:37.000Z</time>
      </trkpt>
      <trkpt lat="43.3331" lon="5.67157">
        <ele>552</ele>
        <time>2019-01-18T13:13:38.000Z</time>
      </trkpt>
      <trkpt lat="43.33311" lon="5.67156">
        <ele>552</ele>
        <time>2019-01-18T13:13:39.000Z</time>
      </trkpt>
      <trkpt lat="43.33311" lon="5.67155">
        <ele>552</ele>
        <time>2019-01-18T13:13:40.000Z</time>
      </trkpt>
      <trkpt lat="43.33311" lon="5.67154">
        <ele>552</ele>
        <time>2019-01-18T13:13:41.000Z</time>
      </trkpt>
      <trkpt lat="43.33312" lon="5.67153">
        <ele>552</ele>
        <time>2019-01-18T13:13:42.000Z</time>
      </trkpt>
      <trkpt lat="43.33312" lon="5.67151">
        <ele>551</ele>
        <time>2019-01-18T13:13:43.000Z</time>
      </trkpt>
      <trkpt lat="43.33313" lon="5.67151">
        <ele>551</ele>
        <time>2019-01-18T13:13:44.000Z</time>
      </trkpt>
      <trkpt lat="43.33313" lon="5.6715">
        <ele>551</ele>
        <time>2019-01-18T13:13:45.000Z</time>
      </trkpt>
      <trkpt lat="43.33314" lon="5.67149">
        <ele>551</ele>
        <time>2019-01-18T13:13:46.000Z</time>
      </trkpt>
      <trkpt lat="43.33315" lon="5.67148">
        <ele>550</ele>
        <time>2019-01-18T13:13:47.000Z</time>
      </trkpt>
      <trkpt lat="43.33316" lon="5.67147">
        <ele>550</ele>
        <time>2019-01-18T13:13:48.000Z</time>
      </trkpt>
      <trkpt lat="43.33316" lon="5.67146">
        <ele>550</ele>
        <time>2019-01-18T13:13:49.000Z</time>
      </trkpt>
      <trkpt lat="43.33316" lon="5.67145">
        <ele>550</ele>
        <time>2019-01-18T13:13:50.000Z</time>
      </trkpt>
      <trkpt lat="43.33317" lon="5.67144">
        <ele>550</ele>
        <time>2019-01-18T13:13:51.000Z</time>
      </trkpt>
      <trkpt lat="43.33317" lon="5.67143">
        <ele>550</ele>
        <time>2019-01-18T13:13:52.000Z</time>
      </trkpt>
      <trkpt lat="43.33317" lon="5.67142">
        <ele>550</ele>
        <time>2019-01-18T13:13:53.000Z</time>
      </trkpt>
      <trkpt lat="43.33318" lon="5.67141">
        <ele>549</ele>
        <time>2019-01-18T13:13:54.000Z</time>
      </trkpt>
      <trkpt lat="43.33318" lon="5.6714">
        <ele>549</ele>
        <time>2019-01-18T13:13:55.000Z</time>
      </trkpt>
      <trkpt lat="43.33319" lon="5.67139">
        <ele>549</ele>
        <time>2019-01-18T13:13:56.000Z</time>
      </trkpt>
      <trkpt lat="43.3332" lon="5.67138">
        <ele>549</ele>
        <time>2019-01-18T13:13:57.000Z</time>
      </trkpt>
      <trkpt lat="43.33321" lon="5.67138">
        <ele>549</ele>
        <time>2019-01-18T13:13:58.000Z</time>
      </trkpt>
      <trkpt lat="43.33322" lon="5.67137">
        <ele>549</ele>
        <time>2019-01-18T13:13:59.000Z</time>
      </trkpt>
      <trkpt lat="43.33323" lon="5.67136">
        <ele>549</ele>
        <time>2019-01-18T13:14:00.000Z</time>
      </trkpt>
      <trkpt lat="43.33324" lon="5.67134">
        <ele>549</ele>
        <time>2019-01-18T13:14:01.000Z</time>
      </trkpt>
      <trkpt lat="43.33324" lon="5.67132">
        <ele>549</ele>
        <time>2019-01-18T13:14:02.000Z</time>
      </trkpt>
      <trkpt lat="43.33325" lon="5.67131">
        <ele>549</ele>
        <time>2019-01-18T13:14:03.000Z</time>
      </trkpt>
      <trkpt lat="43.33325" lon="5.67129">
        <ele>548</ele>
        <time>2019-01-18T13:14:04.000Z</time>
      </trkpt>
      <trkpt lat="43.33326" lon="5.67127">
        <ele>548</ele>
        <time>2019-01-18T13:14:05.000Z</time>
      </trkpt>
      <trkpt lat="43.33326" lon="5.67126">
        <ele>548</ele>
        <time>2019-01-18T13:14:06.000Z</time>
      </trkpt>
      <trkpt lat="43.33327" lon="5.67125">
        <ele>548</ele>
        <time>2019-01-18T13:14:07.000Z</time>
      </trkpt>
      <trkpt lat="43.33328" lon="5.67124">
        <ele>548</ele>
        <time>2019-01-18T13:14:08.000Z</time>
      </trkpt>
      <trkpt lat="43.33328" lon="5.67122">
        <ele>548</ele>
        <time>2019-01-18T13:14:09.000Z</time>
      </trkpt>
      <trkpt lat="43.33329" lon="5.67122">
        <ele>548</ele>
        <time>2019-01-18T13:14:10.000Z</time>
      </trkpt>
      <trkpt lat="43.3333" lon="5.67121">
        <ele>548</ele>
        <time>2019-01-18T13:14:11.000Z</time>
      </trkpt>
      <trkpt lat="43.33331" lon="5.6712">
        <ele>547</ele>
        <time>2019-01-18T13:14:12.000Z</time>
      </trkpt>
      <trkpt lat="43.33332" lon="5.67118">
        <ele>547</ele>
        <time>2019-01-18T13:14:13.000Z</time>
      </trkpt>
      <trkpt lat="43.33333" lon="5.67117">
        <ele>547</ele>
        <time>2019-01-18T13:14:14.000Z</time>
      </trkpt>
      <trkpt lat="43.33334" lon="5.67116">
        <ele>547</ele>
        <time>2019-01-18T13:14:15.000Z</time>
      </trkpt>
      <trkpt lat="43.33335" lon="5.67115">
        <ele>547</ele>
        <time>2019-01-18T13:14:16.000Z</time>
      </trkpt>
      <trkpt lat="43.33336" lon="5.67114">
        <ele>547</ele>
        <time>2019-01-18T13:14:17.000Z</time>
      </trkpt>
      <trkpt lat="43.33337" lon="5.67113">
        <ele>547</ele>
        <time>2019-01-18T13:14:18.000Z</time>
      </trkpt>
      <trkpt lat="43.33338" lon="5.67113">
        <ele>546</ele>
        <time>2019-01-18T13:14:19.000Z</time>
      </trkpt>
      <trkpt lat="43.33339" lon="5.67112">
        <ele>546</ele>
        <time>2019-01-18T13:14:20.000Z</time>
      </trkpt>
      <trkpt lat="43.3334" lon="5.67112">
        <ele>546</ele>
        <time>2019-01-18T13:14:21.000Z</time>
      </trkpt>
      <trkpt lat="43.33341" lon="5.67112">
        <ele>546</ele>
        <time>2019-01-18T13:14:22.000Z</time>
      </trkpt>
      <trkpt lat="43.33342" lon="5.67111">
        <ele>546</ele>
        <time>2019-01-18T13:14:23.000Z</time>
      </trkpt>
      <trkpt lat="43.33343" lon="5.6711">
        <ele>545</ele>
        <time>2019-01-18T13:14:24.000Z</time>
      </trkpt>
      <trkpt lat="43.33344" lon="5.67109">
        <ele>545</ele>
        <time>2019-01-18T13:14:25.000Z</time>
      </trkpt>
      <trkpt lat="43.33345" lon="5.67108">
        <ele>545</ele>
        <time>2019-01-18T13:14:26.000Z</time>
      </trkpt>
      <trkpt lat="43.33345" lon="5.67107">
        <ele>545</ele>
        <time>2019-01-18T13:14:27.000Z</time>
      </trkpt>
      <trkpt lat="43.33346" lon="5.67107">
        <ele>545</ele>
        <time>2019-01-18T13:14:28.000Z</time>
      </trkpt>
      <trkpt lat="43.33347" lon="5.67106">
        <ele>544</ele>
        <time>2019-01-18T13:14:29.000Z</time>
      </trkpt>
      <trkpt lat="43.33348" lon="5.67106">
        <ele>544</ele>
        <time>2019-01-18T13:14:30.000Z</time>
      </trkpt>
      <trkpt lat="43.33348" lon="5.67105">
        <ele>544</ele>
        <time>2019-01-18T13:14:31.000Z</time>
      </trkpt>
      <trkpt lat="43.33349" lon="5.67104">
        <ele>544</ele>
        <time>2019-01-18T13:14:32.000Z</time>
      </trkpt>
      <trkpt lat="43.33349" lon="5.67103">
        <ele>544</ele>
        <time>2019-01-18T13:14:33.000Z</time>
      </trkpt>
      <trkpt lat="43.33349" lon="5.67102">
        <ele>543</ele>
        <time>2019-01-18T13:14:34.000Z</time>
      </trkpt>
      <trkpt lat="43.33349" lon="5.671">
        <ele>543</ele>
        <time>2019-01-18T13:14:35.000Z</time>
      </trkpt>
      <trkpt lat="43.3335" lon="5.67099">
        <ele>543</ele>
        <time>2019-01-18T13:14:36.000Z</time>
      </trkpt>
      <trkpt lat="43.3335" lon="5.67098">
        <ele>543</ele>
        <time>2019-01-18T13:14:37.000Z</time>
      </trkpt>
      <trkpt lat="43.33351" lon="5.67097">
        <ele>543</ele>
        <time>2019-01-18T13:14:38.000Z</time>
      </trkpt>
      <trkpt lat="43.33351" lon="5.67096">
        <ele>543</ele>
        <time>2019-01-18T13:14:39.000Z</time>
      </trkpt>
      <trkpt lat="43.33351" lon="5.67095">
        <ele>543</ele>
        <time>2019-01-18T13:14:40.000Z</time>
      </trkpt>
      <trkpt lat="43.33351" lon="5.67093">
        <ele>542</ele>
        <time>2019-01-18T13:14:41.000Z</time>
      </trkpt>
      <trkpt lat="43.33351" lon="5.67093">
        <ele>542</ele>
        <time>2019-01-18T13:14:42.000Z</time>
      </trkpt>
      <trkpt lat="43.33352" lon="5.67092">
        <ele>542</ele>
        <time>2019-01-18T13:14:43.000Z</time>
      </trkpt>
      <trkpt lat="43.33352" lon="5.67091">
        <ele>542</ele>
        <time>2019-01-18T13:14:44.000Z</time>
      </trkpt>
      <trkpt lat="43.33352" lon="5.6709">
        <ele>542</ele>
        <time>2019-01-18T13:14:45.000Z</time>
      </trkpt>
      <trkpt lat="43.33352" lon="5.67089">
        <ele>541</ele>
        <time>2019-01-18T13:14:46.000Z</time>
      </trkpt>
      <trkpt lat="43.33352" lon="5.67088">
        <ele>541</ele>
        <time>2019-01-18T13:14:47.000Z</time>
      </trkpt>
      <trkpt lat="43.33352" lon="5.67087">
        <ele>541</ele>
        <time>2019-01-18T13:14:48.000Z</time>
      </trkpt>
      <trkpt lat="43.33353" lon="5.67086">
        <ele>541</ele>
        <time>2019-01-18T13:14:49.000Z</time>
      </trkpt>
      <trkpt lat="43.33353" lon="5.67085">
        <ele>541</ele>
        <time>2019-01-18T13:14:50.000Z</time>
      </trkpt>
      <trkpt lat="43.33354" lon="5.67084">
        <ele>540</ele>
        <time>2019-01-18T13:14:51.000Z</time>
      </trkpt>
      <trkpt lat="43.33354" lon="5.67083">
        <ele>540</ele>
        <time>2019-01-18T13:14:52.000Z</time>
      </trkpt>
      <trkpt lat="43.33355" lon="5.67082">
        <ele>540</ele>
        <time>2019-01-18T13:14:53.000Z</time>
      </trkpt>
      <trkpt lat="43.33356" lon="5.67081">
        <ele>540</ele>
        <time>2019-01-18T13:14:54.000Z</time>
      </trkpt>
      <trkpt lat="43.33356" lon="5.6708">
        <ele>539</ele>
        <time>2019-01-18T13:14:55.000Z</time>
      </trkpt>
      <trkpt lat="43.33357" lon="5.67079">
        <ele>539</ele>
        <time>2019-01-18T13:14:56.000Z</time>
      </trkpt>
      <trkpt lat="43.33358" lon="5.67079">
        <ele>539</ele>
        <time>2019-01-18T13:14:57.000Z</time>
      </trkpt>
      <trkpt lat="43.33358" lon="5.67078">
        <ele>539</ele>
        <time>2019-01-18T13:14:58.000Z</time>
      </trkpt>
      <trkpt lat="43.33359" lon="5.67077">
        <ele>538</ele>
        <time>2019-01-18T13:14:59.000Z</time>
      </trkpt>
      <trkpt lat="43.33359" lon="5.67076">
        <ele>538</ele>
        <time>2019-01-18T13:15:00.000Z</time>
      </trkpt>
      <trkpt lat="43.3336" lon="5.67075">
        <ele>538</ele>
        <time>2019-01-18T13:15:01.000Z</time>
      </trkpt>
      <trkpt lat="43.3336" lon="5.67074">
        <ele>538</ele>
        <time>2019-01-18T13:15:02.000Z</time>
      </trkpt>
      <trkpt lat="43.33361" lon="5.67073">
        <ele>538</ele>
        <time>2019-01-18T13:15:03.000Z</time>
      </trkpt>
      <trkpt lat="43.33361" lon="5.67073">
        <ele>538</ele>
        <time>2019-01-18T13:15:04.000Z</time>
      </trkpt>
      <trkpt lat="43.33362" lon="5.67072">
        <ele>537</ele>
        <time>2019-01-18T13:15:05.000Z</time>
      </trkpt>
      <trkpt lat="43.33363" lon="5.67071">
        <ele>537</ele>
        <time>2019-01-18T13:15:06.000Z</time>
      </trkpt>
      <trkpt lat="43.33363" lon="5.6707">
        <ele>537</ele>
        <time>2019-01-18T13:15:07.000Z</time>
      </trkpt>
      <trkpt lat="43.33364" lon="5.6707">
        <ele>537</ele>
        <time>2019-01-18T13:15:08.000Z</time>
      </trkpt>
      <trkpt lat="43.33365" lon="5.67069">
        <ele>537</ele>
        <time>2019-01-18T13:15:09.000Z</time>
      </trkpt>
      <trkpt lat="43.33366" lon="5.67068">
        <ele>537</ele>
        <time>2019-01-18T13:15:10.000Z</time>
      </trkpt>
      <trkpt lat="43.33367" lon="5.67068">
        <ele>537</ele>
        <time>2019-01-18T13:15:11.000Z</time>
      </trkpt>
      <trkpt lat="43.33367" lon="5.67067">
        <ele>537</ele>
        <time>2019-01-18T13:15:12.000Z</time>
      </trkpt>
      <trkpt lat="43.33368" lon="5.67066">
        <ele>536</ele>
        <time>2019-01-18T13:15:13.000Z</time>
      </trkpt>
      <trkpt lat="43.33369" lon="5.67065">
        <ele>536</ele>
        <time>2019-01-18T13:15:14.000Z</time>
      </trkpt>
      <trkpt lat="43.3337" lon="5.67063">
        <ele>536</ele>
        <time>2019-01-18T13:15:15.000Z</time>
      </trkpt>
      <trkpt lat="43.3337" lon="5.67062">
        <ele>536</ele>
        <time>2019-01-18T13:15:16.000Z</time>
      </trkpt>
      <trkpt lat="43.33371" lon="5.67061">
        <ele>536</ele>
        <time>2019-01-18T13:15:17.000Z</time>
      </trkpt>
      <trkpt lat="43.33372" lon="5.6706">
        <ele>536</ele>
        <time>2019-01-18T13:15:18.000Z</time>
      </trkpt>
      <trkpt lat="43.33373" lon="5.67059">
        <ele>535</ele>
        <time>2019-01-18T13:15:19.000Z</time>
      </trkpt>
      <trkpt lat="43.33374" lon="5.67058">
        <ele>535</ele>
        <time>2019-01-18T13:15:20.000Z</time>
      </trkpt>
      <trkpt lat="43.33375" lon="5.67058">
        <ele>535</ele>
        <time>2019-01-18T13:15:21.000Z</time>
      </trkpt>
      <trkpt lat="43.33375" lon="5.67057">
        <ele>535</ele>
        <time>2019-01-18T13:15:22.000Z</time>
      </trkpt>
      <trkpt lat="43.33376" lon="5.67056">
        <ele>535</ele>
        <time>2019-01-18T13:15:23.000Z</time>
      </trkpt>
      <trkpt lat="43.33377" lon="5.67056">
        <ele>534</ele>
        <time>2019-01-18T13:15:24.000Z</time>
      </trkpt>
      <trkpt lat="43.33378" lon="5.67055">
        <ele>534</ele>
        <time>2019-01-18T13:15:25.000Z</time>
      </trkpt>
      <trkpt lat="43.33379" lon="5.67054">
        <ele>534</ele>
        <time>2019-01-18T13:15:26.000Z</time>
      </trkpt>
      <trkpt lat="43.3338" lon="5.67054">
        <ele>534</ele>
        <time>2019-01-18T13:15:27.000Z</time>
      </trkpt>
      <trkpt lat="43.3338" lon="5.67053">
        <ele>534</ele>
        <time>2019-01-18T13:15:28.000Z</time>
      </trkpt>
      <trkpt lat="43.33381" lon="5.67052">
        <ele>534</ele>
        <time>2019-01-18T13:15:29.000Z</time>
      </trkpt>
      <trkpt lat="43.33382" lon="5.67051">
        <ele>533</ele>
        <time>2019-01-18T13:15:30.000Z</time>
      </trkpt>
      <trkpt lat="43.33383" lon="5.6705">
        <ele>533</ele>
        <time>2019-01-18T13:15:31.000Z</time>
      </trkpt>
      <trkpt lat="43.33383" lon="5.67049">
        <ele>533</ele>
        <time>2019-01-18T13:15:32.000Z</time>
      </trkpt>
      <trkpt lat="43.33384" lon="5.67049">
        <ele>533</ele>
        <time>2019-01-18T13:15:33.000Z</time>
      </trkpt>
      <trkpt lat="43.33385" lon="5.67048">
        <ele>533</ele>
        <time>2019-01-18T13:15:34.000Z</time>
      </trkpt>
      <trkpt lat="43.33386" lon="5.67047">
        <ele>533</ele>
        <time>2019-01-18T13:15:35.000Z</time>
      </trkpt>
      <trkpt lat="43.33386" lon="5.67047">
        <ele>532</ele>
        <time>2019-01-18T13:15:36.000Z</time>
      </trkpt>
      <trkpt lat="43.33387" lon="5.67046">
        <ele>532</ele>
        <time>2019-01-18T13:15:37.000Z</time>
      </trkpt>
      <trkpt lat="43.33388" lon="5.67046">
        <ele>532</ele>
        <time>2019-01-18T13:15:38.000Z</time>
      </trkpt>
      <trkpt lat="43.33389" lon="5.67045">
        <ele>532</ele>
        <time>2019-01-18T13:15:39.000Z</time>
      </trkpt>
      <trkpt lat="43.3339" lon="5.67044">
        <ele>532</ele>
        <time>2019-01-18T13:15:40.000Z</time>
      </trkpt>
      <trkpt lat="43.33391" lon="5.67043">
        <ele>531</ele>
        <time>2019-01-18T13:15:41.000Z</time>
      </trkpt>
      <trkpt lat="43.33391" lon="5.67042">
        <ele>531</ele>
        <time>2019-01-18T13:15:42.000Z</time>
      </trkpt>
      <trkpt lat="43.33392" lon="5.67041">
        <ele>531</ele>
        <time>2019-01-18T13:15:43.000Z</time>
      </trkpt>
      <trkpt lat="43.33392" lon="5.6704">
        <ele>531</ele>
        <time>2019-01-18T13:15:44.000Z</time>
      </trkpt>
      <trkpt lat="43.33393" lon="5.67038">
        <ele>530</ele>
        <time>2019-01-18T13:15:45.000Z</time>
      </trkpt>
      <trkpt lat="43.33393" lon="5.67037">
        <ele>530</ele>
        <time>2019-01-18T13:15:46.000Z</time>
      </trkpt>
      <trkpt lat="43.33393" lon="5.67036">
        <ele>530</ele>
        <time>2019-01-18T13:15:47.000Z</time>
      </trkpt>
      <trkpt lat="43.33393" lon="5.67034">
        <ele>529</ele>
        <time>2019-01-18T13:15:48.000Z</time>
      </trkpt>
      <trkpt lat="43.33394" lon="5.67033">
        <ele>529</ele>
        <time>2019-01-18T13:15:49.000Z</time>
      </trkpt>
      <trkpt lat="43.33394" lon="5.67032">
        <ele>529</ele>
        <time>2019-01-18T13:15:50.000Z</time>
      </trkpt>
      <trkpt lat="43.33394" lon="5.67031">
        <ele>529</ele>
        <time>2019-01-18T13:15:51.000Z</time>
      </trkpt>
      <trkpt lat="43.33395" lon="5.67031">
        <ele>528</ele>
        <time>2019-01-18T13:15:52.000Z</time>
      </trkpt>
      <trkpt lat="43.33395" lon="5.6703">
        <ele>528</ele>
        <time>2019-01-18T13:15:53.000Z</time>
      </trkpt>
      <trkpt lat="43.33396" lon="5.67029">
        <ele>528</ele>
        <time>2019-01-18T13:15:54.000Z</time>
      </trkpt>
      <trkpt lat="43.33396" lon="5.67028">
        <ele>528</ele>
        <time>2019-01-18T13:15:55.000Z</time>
      </trkpt>
      <trkpt lat="43.33396" lon="5.67026">
        <ele>527</ele>
        <time>2019-01-18T13:15:56.000Z</time>
      </trkpt>
      <trkpt lat="43.33397" lon="5.67025">
        <ele>527</ele>
        <time>2019-01-18T13:15:57.000Z</time>
      </trkpt>
      <trkpt lat="43.33397" lon="5.67023">
        <ele>527</ele>
        <time>2019-01-18T13:15:58.000Z</time>
      </trkpt>
      <trkpt lat="43.33397" lon="5.67022">
        <ele>527</ele>
        <time>2019-01-18T13:15:59.000Z</time>
      </trkpt>
      <trkpt lat="43.33397" lon="5.6702">
        <ele>527</ele>
        <time>2019-01-18T13:16:00.000Z</time>
      </trkpt>
      <trkpt lat="43.33397" lon="5.67019">
        <ele>527</ele>
        <time>2019-01-18T13:16:01.000Z</time>
      </trkpt>
      <trkpt lat="43.33397" lon="5.67017">
        <ele>527</ele>
        <time>2019-01-18T13:16:02.000Z</time>
      </trkpt>
      <trkpt lat="43.33397" lon="5.67015">
        <ele>527</ele>
        <time>2019-01-18T13:16:03.000Z</time>
      </trkpt>
      <trkpt lat="43.33398" lon="5.67014">
        <ele>526</ele>
        <time>2019-01-18T13:16:04.000Z</time>
      </trkpt>
      <trkpt lat="43.33398" lon="5.67012">
        <ele>526</ele>
        <time>2019-01-18T13:16:05.000Z</time>
      </trkpt>
      <trkpt lat="43.33399" lon="5.67011">
        <ele>526</ele>
        <time>2019-01-18T13:16:06.000Z</time>
      </trkpt>
      <trkpt lat="43.33399" lon="5.67009">
        <ele>526</ele>
        <time>2019-01-18T13:16:07.000Z</time>
      </trkpt>
      <trkpt lat="43.334" lon="5.67008">
        <ele>526</ele>
        <time>2019-01-18T13:16:08.000Z</time>
      </trkpt>
      <trkpt lat="43.334" lon="5.67007">
        <ele>526</ele>
        <time>2019-01-18T13:16:09.000Z</time>
      </trkpt>
      <trkpt lat="43.33401" lon="5.67005">
        <ele>526</ele>
        <time>2019-01-18T13:16:10.000Z</time>
      </trkpt>
      <trkpt lat="43.33401" lon="5.67004">
        <ele>526</ele>
        <time>2019-01-18T13:16:11.000Z</time>
      </trkpt>
      <trkpt lat="43.33401" lon="5.67003">
        <ele>526</ele>
        <time>2019-01-18T13:16:12.000Z</time>
      </trkpt>
      <trkpt lat="43.33402" lon="5.67001">
        <ele>526</ele>
        <time>2019-01-18T13:16:13.000Z</time>
      </trkpt>
      <trkpt lat="43.33402" lon="5.67">
        <ele>526</ele>
        <time>2019-01-18T13:16:14.000Z</time>
      </trkpt>
      <trkpt lat="43.33402" lon="5.66998">
        <ele>525</ele>
        <time>2019-01-18T13:16:15.000Z</time>
      </trkpt>
      <trkpt lat="43.33402" lon="5.66997">
        <ele>525</ele>
        <time>2019-01-18T13:16:16.000Z</time>
      </trkpt>
      <trkpt lat="43.33402" lon="5.66995">
        <ele>525</ele>
        <time>2019-01-18T13:16:17.000Z</time>
      </trkpt>
      <trkpt lat="43.33402" lon="5.66993">
        <ele>525</ele>
        <time>2019-01-18T13:16:18.000Z</time>
      </trkpt>
      <trkpt lat="43.33402" lon="5.66992">
        <ele>525</ele>
        <time>2019-01-18T13:16:19.000Z</time>
      </trkpt>
      <trkpt lat="43.33403" lon="5.6699">
        <ele>525</ele>
        <time>2019-01-18T13:16:20.000Z</time>
      </trkpt>
      <trkpt lat="43.33403" lon="5.66989">
        <ele>525</ele>
        <time>2019-01-18T13:16:21.000Z</time>
      </trkpt>
      <trkpt lat="43.33403" lon="5.66988">
        <ele>525</ele>
        <time>2019-01-18T13:16:22.000Z</time>
      </trkpt>
      <trkpt lat="43.33404" lon="5.66987">
        <ele>525</ele>
        <time>2019-01-18T13:16:23.000Z</time>
      </trkpt>
      <trkpt lat="43.33404" lon="5.66985">
        <ele>524</ele>
        <time>2019-01-18T13:16:24.000Z</time>
      </trkpt>
      <trkpt lat="43.33404" lon="5.66985">
        <ele>524</ele>
        <time>2019-01-18T13:16:25.000Z</time>
      </trkpt>
      <trkpt lat="43.33405" lon="5.66984">
        <ele>524</ele>
        <time>2019-01-18T13:16:26.000Z</time>
      </trkpt>
      <trkpt lat="43.33405" lon="5.66982">
        <ele>524</ele>
        <time>2019-01-18T13:16:27.000Z</time>
      </trkpt>
      <trkpt lat="43.33405" lon="5.66981">
        <ele>524</ele>
        <time>2019-01-18T13:16:28.000Z</time>
      </trkpt>
      <trkpt lat="43.33405" lon="5.6698">
        <ele>524</ele>
        <time>2019-01-18T13:16:29.000Z</time>
      </trkpt>
      <trkpt lat="43.33406" lon="5.66978">
        <ele>524</ele>
        <time>2019-01-18T13:16:30.000Z</time>
      </trkpt>
      <trkpt lat="43.33406" lon="5.66977">
        <ele>523</ele>
        <time>2019-01-18T13:16:31.000Z</time>
      </trkpt>
      <trkpt lat="43.33406" lon="5.66976">
        <ele>523</ele>
        <time>2019-01-18T13:16:32.000Z</time>
      </trkpt>
      <trkpt lat="43.33407" lon="5.66975">
        <ele>523</ele>
        <time>2019-01-18T13:16:33.000Z</time>
      </trkpt>
      <trkpt lat="43.33407" lon="5.66974">
        <ele>523</ele>
        <time>2019-01-18T13:16:34.000Z</time>
      </trkpt>
      <trkpt lat="43.33407" lon="5.66973">
        <ele>523</ele>
        <time>2019-01-18T13:16:35.000Z</time>
      </trkpt>
      <trkpt lat="43.33407" lon="5.66971">
        <ele>523</ele>
        <time>2019-01-18T13:16:36.000Z</time>
      </trkpt>
      <trkpt lat="43.33408" lon="5.6697">
        <ele>523</ele>
        <time>2019-01-18T13:16:37.000Z</time>
      </trkpt>
      <trkpt lat="43.33408" lon="5.66968">
        <ele>522</ele>
        <time>2019-01-18T13:16:38.000Z</time>
      </trkpt>
      <trkpt lat="43.33408" lon="5.66967">
        <ele>522</ele>
        <time>2019-01-18T13:16:39.000Z</time>
      </trkpt>
      <trkpt lat="43.33407" lon="5.66965">
        <ele>522</ele>
        <time>2019-01-18T13:16:40.000Z</time>
      </trkpt>
      <trkpt lat="43.33407" lon="5.66963">
        <ele>522</ele>
        <time>2019-01-18T13:16:41.000Z</time>
      </trkpt>
      <trkpt lat="43.33407" lon="5.66962">
        <ele>522</ele>
        <time>2019-01-18T13:16:42.000Z</time>
      </trkpt>
      <trkpt lat="43.33407" lon="5.6696">
        <ele>522</ele>
        <time>2019-01-18T13:16:43.000Z</time>
      </trkpt>
      <trkpt lat="43.33407" lon="5.66958">
        <ele>522</ele>
        <time>2019-01-18T13:16:44.000Z</time>
      </trkpt>
      <trkpt lat="43.33407" lon="5.66957">
        <ele>522</ele>
        <time>2019-01-18T13:16:45.000Z</time>
      </trkpt>
      <trkpt lat="43.33408" lon="5.66956">
        <ele>522</ele>
        <time>2019-01-18T13:16:46.000Z</time>
      </trkpt>
      <trkpt lat="43.33408" lon="5.66954">
        <ele>522</ele>
        <time>2019-01-18T13:16:47.000Z</time>
      </trkpt>
      <trkpt lat="43.33409" lon="5.66953">
        <ele>521</ele>
        <time>2019-01-18T13:16:48.000Z</time>
      </trkpt>
      <trkpt lat="43.3341" lon="5.66952">
        <ele>521</ele>
        <time>2019-01-18T13:16:49.000Z</time>
      </trkpt>
      <trkpt lat="43.3341" lon="5.6695">
        <ele>521</ele>
        <time>2019-01-18T13:16:50.000Z</time>
      </trkpt>
      <trkpt lat="43.33411" lon="5.66949">
        <ele>521</ele>
        <time>2019-01-18T13:16:51.000Z</time>
      </trkpt>
      <trkpt lat="43.33411" lon="5.66948">
        <ele>521</ele>
        <time>2019-01-18T13:16:52.000Z</time>
      </trkpt>
      <trkpt lat="43.33411" lon="5.66946">
        <ele>521</ele>
        <time>2019-01-18T13:16:53.000Z</time>
      </trkpt>
      <trkpt lat="43.33412" lon="5.66945">
        <ele>520</ele>
        <time>2019-01-18T13:16:54.000Z</time>
      </trkpt>
      <trkpt lat="43.33412" lon="5.66944">
        <ele>520</ele>
        <time>2019-01-18T13:16:55.000Z</time>
      </trkpt>
      <trkpt lat="43.33413" lon="5.66943">
        <ele>520</ele>
        <time>2019-01-18T13:16:56.000Z</time>
      </trkpt>
      <trkpt lat="43.33413" lon="5.66942">
        <ele>520</ele>
        <time>2019-01-18T13:16:57.000Z</time>
      </trkpt>
      <trkpt lat="43.33414" lon="5.66941">
        <ele>519</ele>
        <time>2019-01-18T13:16:58.000Z</time>
      </trkpt>
      <trkpt lat="43.33414" lon="5.6694">
        <ele>519</ele>
        <time>2019-01-18T13:16:59.000Z</time>
      </trkpt>
      <trkpt lat="43.33415" lon="5.66938">
        <ele>519</ele>
        <time>2019-01-18T13:17:00.000Z</time>
      </trkpt>
      <trkpt lat="43.33415" lon="5.66937">
        <ele>519</ele>
        <time>2019-01-18T13:17:01.000Z</time>
      </trkpt>
      <trkpt lat="43.33416" lon="5.66936">
        <ele>518</ele>
        <time>2019-01-18T13:17:02.000Z</time>
      </trkpt>
      <trkpt lat="43.33416" lon="5.66935">
        <ele>518</ele>
        <time>2019-01-18T13:17:03.000Z</time>
      </trkpt>
      <trkpt lat="43.33417" lon="5.66934">
        <ele>518</ele>
        <time>2019-01-18T13:17:04.000Z</time>
      </trkpt>
      <trkpt lat="43.33417" lon="5.66933">
        <ele>518</ele>
        <time>2019-01-18T13:17:05.000Z</time>
      </trkpt>
      <trkpt lat="43.33417" lon="5.66932">
        <ele>518</ele>
        <time>2019-01-18T13:17:06.000Z</time>
      </trkpt>
      <trkpt lat="43.33418" lon="5.6693">
        <ele>518</ele>
        <time>2019-01-18T13:17:07.000Z</time>
      </trkpt>
      <trkpt lat="43.33419" lon="5.66929">
        <ele>517</ele>
        <time>2019-01-18T13:17:08.000Z</time>
      </trkpt>
      <trkpt lat="43.33419" lon="5.66929">
        <ele>517</ele>
        <time>2019-01-18T13:17:09.000Z</time>
      </trkpt>
      <trkpt lat="43.3342" lon="5.66928">
        <ele>517</ele>
        <time>2019-01-18T13:17:10.000Z</time>
      </trkpt>
      <trkpt lat="43.3342" lon="5.66927">
        <ele>517</ele>
        <time>2019-01-18T13:17:11.000Z</time>
      </trkpt>
      <trkpt lat="43.33421" lon="5.66926">
        <ele>517</ele>
        <time>2019-01-18T13:17:12.000Z</time>
      </trkpt>
      <trkpt lat="43.33421" lon="5.66925">
        <ele>516</ele>
        <time>2019-01-18T13:17:13.000Z</time>
      </trkpt>
      <trkpt lat="43.33421" lon="5.66924">
        <ele>516</ele>
        <time>2019-01-18T13:17:14.000Z</time>
      </trkpt>
      <trkpt lat="43.33421" lon="5.66922">
        <ele>516</ele>
        <time>2019-01-18T13:17:15.000Z</time>
      </trkpt>
      <trkpt lat="43.33421" lon="5.66921">
        <ele>516</ele>
        <time>2019-01-18T13:17:16.000Z</time>
      </trkpt>
      <trkpt lat="43.33421" lon="5.6692">
        <ele>516</ele>
        <time>2019-01-18T13:17:17.000Z</time>
      </trkpt>
      <trkpt lat="43.33421" lon="5.66918">
        <ele>515</ele>
        <time>2019-01-18T13:17:18.000Z</time>
      </trkpt>
      <trkpt lat="43.33422" lon="5.66917">
        <ele>515</ele>
        <time>2019-01-18T13:17:19.000Z</time>
      </trkpt>
      <trkpt lat="43.33422" lon="5.66916">
        <ele>515</ele>
        <time>2019-01-18T13:17:20.000Z</time>
      </trkpt>
      <trkpt lat="43.33422" lon="5.66916">
        <ele>515</ele>
        <time>2019-01-18T13:17:21.000Z</time>
      </trkpt>
      <trkpt lat="43.33422" lon="5.66915">
        <ele>515</ele>
        <time>2019-01-18T13:17:22.000Z</time>
      </trkpt>
      <trkpt lat="43.33422" lon="5.66914">
        <ele>515</ele>
        <time>2019-01-18T13:17:23.000Z</time>
      </trkpt>
      <trkpt lat="43.33422" lon="5.66913">
        <ele>514</ele>
        <time>2019-01-18T13:17:24.000Z</time>
      </trkpt>
      <trkpt lat="43.33423" lon="5.66912">
        <ele>514</ele>
        <time>2019-01-18T13:17:25.000Z</time>
      </trkpt>
      <trkpt lat="43.33423" lon="5.66911">
        <ele>514</ele>
        <time>2019-01-18T13:17:26.000Z</time>
      </trkpt>
      <trkpt lat="43.33423" lon="5.6691">
        <ele>514</ele>
        <time>2019-01-18T13:17:27.000Z</time>
      </trkpt>
      <trkpt lat="43.33423" lon="5.66909">
        <ele>513</ele>
        <time>2019-01-18T13:17:28.000Z</time>
      </trkpt>
      <trkpt lat="43.33423" lon="5.66907">
        <ele>513</ele>
        <time>2019-01-18T13:17:29.000Z</time>
      </trkpt>
      <trkpt lat="43.33424" lon="5.66906">
        <ele>513</ele>
        <time>2019-01-18T13:17:30.000Z</time>
      </trkpt>
      <trkpt lat="43.33424" lon="5.66905">
        <ele>513</ele>
        <time>2019-01-18T13:17:31.000Z</time>
      </trkpt>
      <trkpt lat="43.33424" lon="5.66904">
        <ele>513</ele>
        <time>2019-01-18T13:17:32.000Z</time>
      </trkpt>
      <trkpt lat="43.33424" lon="5.66902">
        <ele>513</ele>
        <time>2019-01-18T13:17:33.000Z</time>
      </trkpt>
      <trkpt lat="43.33425" lon="5.66901">
        <ele>513</ele>
        <time>2019-01-18T13:17:34.000Z</time>
      </trkpt>
      <trkpt lat="43.33425" lon="5.669">
        <ele>513</ele>
        <time>2019-01-18T13:17:35.000Z</time>
      </trkpt>
      <trkpt lat="43.33425" lon="5.66898">
        <ele>513</ele>
        <time>2019-01-18T13:17:36.000Z</time>
      </trkpt>
      <trkpt lat="43.33425" lon="5.66897">
        <ele>513</ele>
        <time>2019-01-18T13:17:37.000Z</time>
      </trkpt>
      <trkpt lat="43.33425" lon="5.66896">
        <ele>513</ele>
        <time>2019-01-18T13:17:38.000Z</time>
      </trkpt>
      <trkpt lat="43.33425" lon="5.66895">
        <ele>513</ele>
        <time>2019-01-18T13:17:39.000Z</time>
      </trkpt>
      <trkpt lat="43.33426" lon="5.66894">
        <ele>513</ele>
        <time>2019-01-18T13:17:40.000Z</time>
      </trkpt>
      <trkpt lat="43.33426" lon="5.66894">
        <ele>512</ele>
        <time>2019-01-18T13:17:41.000Z</time>
      </trkpt>
      <trkpt lat="43.33427" lon="5.66893">
        <ele>512</ele>
        <time>2019-01-18T13:17:42.000Z</time>
      </trkpt>
      <trkpt lat="43.33427" lon="5.66892">
        <ele>512</ele>
        <time>2019-01-18T13:17:43.000Z</time>
      </trkpt>
      <trkpt lat="43.33428" lon="5.66891">
        <ele>512</ele>
        <time>2019-01-18T13:17:44.000Z</time>
      </trkpt>
      <trkpt lat="43.33428" lon="5.6689">
        <ele>512</ele>
        <time>2019-01-18T13:17:45.000Z</time>
      </trkpt>
      <trkpt lat="43.33428" lon="5.66889">
        <ele>512</ele>
        <time>2019-01-18T13:17:46.000Z</time>
      </trkpt>
      <trkpt lat="43.33429" lon="5.66887">
        <ele>512</ele>
        <time>2019-01-18T13:17:47.000Z</time>
      </trkpt>
      <trkpt lat="43.3343" lon="5.66886">
        <ele>511</ele>
        <time>2019-01-18T13:17:48.000Z</time>
      </trkpt>
      <trkpt lat="43.3343" lon="5.66885">
        <ele>511</ele>
        <time>2019-01-18T13:17:49.000Z</time>
      </trkpt>
      <trkpt lat="43.3343" lon="5.66884">
        <ele>511</ele>
        <time>2019-01-18T13:17:50.000Z</time>
      </trkpt>
      <trkpt lat="43.33431" lon="5.66883">
        <ele>511</ele>
        <time>2019-01-18T13:17:51.000Z</time>
      </trkpt>
      <trkpt lat="43.33431" lon="5.66882">
        <ele>511</ele>
        <time>2019-01-18T13:17:52.000Z</time>
      </trkpt>
      <trkpt lat="43.33432" lon="5.66881">
        <ele>510</ele>
        <time>2019-01-18T13:17:53.000Z</time>
      </trkpt>
      <trkpt lat="43.33432" lon="5.66879">
        <ele>510</ele>
        <time>2019-01-18T13:17:54.000Z</time>
      </trkpt>
      <trkpt lat="43.33433" lon="5.66878">
        <ele>510</ele>
        <time>2019-01-18T13:17:55.000Z</time>
      </trkpt>
      <trkpt lat="43.33434" lon="5.66877">
        <ele>510</ele>
        <time>2019-01-18T13:17:56.000Z</time>
      </trkpt>
      <trkpt lat="43.33434" lon="5.66876">
        <ele>509</ele>
        <time>2019-01-18T13:17:57.000Z</time>
      </trkpt>
      <trkpt lat="43.33435" lon="5.66875">
        <ele>509</ele>
        <time>2019-01-18T13:17:58.000Z</time>
      </trkpt>
      <trkpt lat="43.33436" lon="5.66874">
        <ele>509</ele>
        <time>2019-01-18T13:17:59.000Z</time>
      </trkpt>
      <trkpt lat="43.33437" lon="5.66873">
        <ele>509</ele>
        <time>2019-01-18T13:18:00.000Z</time>
      </trkpt>
      <trkpt lat="43.33438" lon="5.66871">
        <ele>508</ele>
        <time>2019-01-18T13:18:01.000Z</time>
      </trkpt>
      <trkpt lat="43.33439" lon="5.6687">
        <ele>508</ele>
        <time>2019-01-18T13:18:02.000Z</time>
      </trkpt>
      <trkpt lat="43.3344" lon="5.66869">
        <ele>508</ele>
        <time>2019-01-18T13:18:03.000Z</time>
      </trkpt>
      <trkpt lat="43.3344" lon="5.66867">
        <ele>508</ele>
        <time>2019-01-18T13:18:04.000Z</time>
      </trkpt>
      <trkpt lat="43.33441" lon="5.66866">
        <ele>507</ele>
        <time>2019-01-18T13:18:05.000Z</time>
      </trkpt>
      <trkpt lat="43.33441" lon="5.66864">
        <ele>507</ele>
        <time>2019-01-18T13:18:06.000Z</time>
      </trkpt>
      <trkpt lat="43.33441" lon="5.66863">
        <ele>507</ele>
        <time>2019-01-18T13:18:07.000Z</time>
      </trkpt>
      <trkpt lat="43.33442" lon="5.66862">
        <ele>507</ele>
        <time>2019-01-18T13:18:08.000Z</time>
      </trkpt>
      <trkpt lat="43.33442" lon="5.6686">
        <ele>507</ele>
        <time>2019-01-18T13:18:09.000Z</time>
      </trkpt>
      <trkpt lat="43.33443" lon="5.66859">
        <ele>507</ele>
        <time>2019-01-18T13:18:10.000Z</time>
      </trkpt>
      <trkpt lat="43.33443" lon="5.66858">
        <ele>507</ele>
        <time>2019-01-18T13:18:11.000Z</time>
      </trkpt>
      <trkpt lat="43.33444" lon="5.66857">
        <ele>507</ele>
        <time>2019-01-18T13:18:12.000Z</time>
      </trkpt>
      <trkpt lat="43.33444" lon="5.66856">
        <ele>507</ele>
        <time>2019-01-18T13:18:13.000Z</time>
      </trkpt>
      <trkpt lat="43.33445" lon="5.66855">
        <ele>507</ele>
        <time>2019-01-18T13:18:14.000Z</time>
      </trkpt>
      <trkpt lat="43.33445" lon="5.66854">
        <ele>507</ele>
        <time>2019-01-18T13:18:15.000Z</time>
      </trkpt>
      <trkpt lat="43.33446" lon="5.66853">
        <ele>506</ele>
        <time>2019-01-18T13:18:16.000Z</time>
      </trkpt>
      <trkpt lat="43.33446" lon="5.66852">
        <ele>506</ele>
        <time>2019-01-18T13:18:17.000Z</time>
      </trkpt>
      <trkpt lat="43.33447" lon="5.66851">
        <ele>506</ele>
        <time>2019-01-18T13:18:18.000Z</time>
      </trkpt>
      <trkpt lat="43.33447" lon="5.66851">
        <ele>506</ele>
        <time>2019-01-18T13:18:19.000Z</time>
      </trkpt>
      <trkpt lat="43.33447" lon="5.6685">
        <ele>505</ele>
        <time>2019-01-18T13:18:20.000Z</time>
      </trkpt>
      <trkpt lat="43.33448" lon="5.66849">
        <ele>505</ele>
        <time>2019-01-18T13:18:21.000Z</time>
      </trkpt>
      <trkpt lat="43.33448" lon="5.66848">
        <ele>505</ele>
        <time>2019-01-18T13:18:22.000Z</time>
      </trkpt>
      <trkpt lat="43.33449" lon="5.66847">
        <ele>505</ele>
        <time>2019-01-18T13:18:23.000Z</time>
      </trkpt>
      <trkpt lat="43.33449" lon="5.66847">
        <ele>505</ele>
        <time>2019-01-18T13:18:24.000Z</time>
      </trkpt>
      <trkpt lat="43.3345" lon="5.66845">
        <ele>504</ele>
        <time>2019-01-18T13:18:25.000Z</time>
      </trkpt>
      <trkpt lat="43.3345" lon="5.66845">
        <ele>504</ele>
        <time>2019-01-18T13:18:26.000Z</time>
      </trkpt>
      <trkpt lat="43.33451" lon="5.66844">
        <ele>504</ele>
        <time>2019-01-18T13:18:27.000Z</time>
      </trkpt>
      <trkpt lat="43.33451" lon="5.66843">
        <ele>504</ele>
        <time>2019-01-18T13:18:28.000Z</time>
      </trkpt>
      <trkpt lat="43.33452" lon="5.66842">
        <ele>504</ele>
        <time>2019-01-18T13:18:29.000Z</time>
      </trkpt>
      <trkpt lat="43.33453" lon="5.66841">
        <ele>503</ele>
        <time>2019-01-18T13:18:30.000Z</time>
      </trkpt>
      <trkpt lat="43.33453" lon="5.6684">
        <ele>503</ele>
        <time>2019-01-18T13:18:31.000Z</time>
      </trkpt>
      <trkpt lat="43.33454" lon="5.66838">
        <ele>503</ele>
        <time>2019-01-18T13:18:32.000Z</time>
      </trkpt>
      <trkpt lat="43.33455" lon="5.66837">
        <ele>503</ele>
        <time>2019-01-18T13:18:33.000Z</time>
      </trkpt>
      <trkpt lat="43.33455" lon="5.66836">
        <ele>503</ele>
        <time>2019-01-18T13:18:34.000Z</time>
      </trkpt>
      <trkpt lat="43.33456" lon="5.66834">
        <ele>503</ele>
        <time>2019-01-18T13:18:35.000Z</time>
      </trkpt>
      <trkpt lat="43.33456" lon="5.66832">
        <ele>503</ele>
        <time>2019-01-18T13:18:36.000Z</time>
      </trkpt>
      <trkpt lat="43.33457" lon="5.66831">
        <ele>503</ele>
        <time>2019-01-18T13:18:37.000Z</time>
      </trkpt>
      <trkpt lat="43.33457" lon="5.66829">
        <ele>503</ele>
        <time>2019-01-18T13:18:38.000Z</time>
      </trkpt>
      <trkpt lat="43.33457" lon="5.66827">
        <ele>503</ele>
        <time>2019-01-18T13:18:39.000Z</time>
      </trkpt>
      <trkpt lat="43.33458" lon="5.66825">
        <ele>503</ele>
        <time>2019-01-18T13:18:40.000Z</time>
      </trkpt>
      <trkpt lat="43.33458" lon="5.66823">
        <ele>503</ele>
        <time>2019-01-18T13:18:41.000Z</time>
      </trkpt>
      <trkpt lat="43.33458" lon="5.66822">
        <ele>503</ele>
        <time>2019-01-18T13:18:42.000Z</time>
      </trkpt>
      <trkpt lat="43.33458" lon="5.6682">
        <ele>502</ele>
        <time>2019-01-18T13:18:43.000Z</time>
      </trkpt>
      <trkpt lat="43.33458" lon="5.66818">
        <ele>502</ele>
        <time>2019-01-18T13:18:44.000Z</time>
      </trkpt>
      <trkpt lat="43.33458" lon="5.66816">
        <ele>502</ele>
        <time>2019-01-18T13:18:45.000Z</time>
      </trkpt>
      <trkpt lat="43.33458" lon="5.66815">
        <ele>502</ele>
        <time>2019-01-18T13:18:46.000Z</time>
      </trkpt>
      <trkpt lat="43.33458" lon="5.66814">
        <ele>502</ele>
        <time>2019-01-18T13:18:47.000Z</time>
      </trkpt>
      <trkpt lat="43.33458" lon="5.66813">
        <ele>501</ele>
        <time>2019-01-18T13:18:48.000Z</time>
      </trkpt>
      <trkpt lat="43.33458" lon="5.66811">
        <ele>501</ele>
        <time>2019-01-18T13:18:49.000Z</time>
      </trkpt>
      <trkpt lat="43.33458" lon="5.6681">
        <ele>501</ele>
        <time>2019-01-18T13:18:50.000Z</time>
      </trkpt>
      <trkpt lat="43.33458" lon="5.66809">
        <ele>501</ele>
        <time>2019-01-18T13:18:51.000Z</time>
      </trkpt>
      <trkpt lat="43.33458" lon="5.66807">
        <ele>501</ele>
        <time>2019-01-18T13:18:52.000Z</time>
      </trkpt>
      <trkpt lat="43.33458" lon="5.66806">
        <ele>500</ele>
        <time>2019-01-18T13:18:53.000Z</time>
      </trkpt>
      <trkpt lat="43.33458" lon="5.66804">
        <ele>500</ele>
        <time>2019-01-18T13:18:54.000Z</time>
      </trkpt>
      <trkpt lat="43.33458" lon="5.66803">
        <ele>500</ele>
        <time>2019-01-18T13:18:55.000Z</time>
      </trkpt>
      <trkpt lat="43.33458" lon="5.66801">
        <ele>500</ele>
        <time>2019-01-18T13:18:56.000Z</time>
      </trkpt>
      <trkpt lat="43.33458" lon="5.668">
        <ele>500</ele>
        <time>2019-01-18T13:18:57.000Z</time>
      </trkpt>
      <trkpt lat="43.33458" lon="5.66799">
        <ele>499</ele>
        <time>2019-01-18T13:18:58.000Z</time>
      </trkpt>
      <trkpt lat="43.33458" lon="5.66798">
        <ele>499</ele>
        <time>2019-01-18T13:18:59.000Z</time>
      </trkpt>
      <trkpt lat="43.33458" lon="5.66796">
        <ele>499</ele>
        <time>2019-01-18T13:19:00.000Z</time>
      </trkpt>
      <trkpt lat="43.33458" lon="5.66795">
        <ele>499</ele>
        <time>2019-01-18T13:19:01.000Z</time>
      </trkpt>
      <trkpt lat="43.33458" lon="5.66793">
        <ele>499</ele>
        <time>2019-01-18T13:19:02.000Z</time>
      </trkpt>
      <trkpt lat="43.33457" lon="5.66792">
        <ele>499</ele>
        <time>2019-01-18T13:19:03.000Z</time>
      </trkpt>
      <trkpt lat="43.33457" lon="5.66791">
        <ele>499</ele>
        <time>2019-01-18T13:19:04.000Z</time>
      </trkpt>
      <trkpt lat="43.33457" lon="5.6679">
        <ele>498</ele>
        <time>2019-01-18T13:19:05.000Z</time>
      </trkpt>
      <trkpt lat="43.33457" lon="5.66789">
        <ele>498</ele>
        <time>2019-01-18T13:19:06.000Z</time>
      </trkpt>
      <trkpt lat="43.33457" lon="5.66788">
        <ele>498</ele>
        <time>2019-01-18T13:19:07.000Z</time>
      </trkpt>
      <trkpt lat="43.33457" lon="5.66786">
        <ele>498</ele>
        <time>2019-01-18T13:19:08.000Z</time>
      </trkpt>
      <trkpt lat="43.33457" lon="5.66784">
        <ele>498</ele>
        <time>2019-01-18T13:19:09.000Z</time>
      </trkpt>
      <trkpt lat="43.33456" lon="5.66784">
        <ele>498</ele>
        <time>2019-01-18T13:19:10.000Z</time>
      </trkpt>
      <trkpt lat="43.33456" lon="5.66783">
        <ele>498</ele>
        <time>2019-01-18T13:19:11.000Z</time>
      </trkpt>
      <trkpt lat="43.33456" lon="5.66782">
        <ele>498</ele>
        <time>2019-01-18T13:19:12.000Z</time>
      </trkpt>
      <trkpt lat="43.33456" lon="5.66781">
        <ele>497</ele>
        <time>2019-01-18T13:19:13.000Z</time>
      </trkpt>
      <trkpt lat="43.33456" lon="5.66779">
        <ele>497</ele>
        <time>2019-01-18T13:19:14.000Z</time>
      </trkpt>
      <trkpt lat="43.33456" lon="5.66778">
        <ele>497</ele>
        <time>2019-01-18T13:19:15.000Z</time>
      </trkpt>
      <trkpt lat="43.33455" lon="5.66777">
        <ele>497</ele>
        <time>2019-01-18T13:19:16.000Z</time>
      </trkpt>
      <trkpt lat="43.33454" lon="5.66775">
        <ele>497</ele>
        <time>2019-01-18T13:19:17.000Z</time>
      </trkpt>
      <trkpt lat="43.33453" lon="5.66774">
        <ele>496</ele>
        <time>2019-01-18T13:19:18.000Z</time>
      </trkpt>
      <trkpt lat="43.33453" lon="5.66773">
        <ele>496</ele>
        <time>2019-01-18T13:19:19.000Z</time>
      </trkpt>
      <trkpt lat="43.33452" lon="5.66772">
        <ele>496</ele>
        <time>2019-01-18T13:19:20.000Z</time>
      </trkpt>
      <trkpt lat="43.33452" lon="5.66771">
        <ele>496</ele>
        <time>2019-01-18T13:19:21.000Z</time>
      </trkpt>
      <trkpt lat="43.33451" lon="5.66769">
        <ele>496</ele>
        <time>2019-01-18T13:19:22.000Z</time>
      </trkpt>
      <trkpt lat="43.33451" lon="5.66768">
        <ele>496</ele>
        <time>2019-01-18T13:19:23.000Z</time>
      </trkpt>
      <trkpt lat="43.33451" lon="5.66767">
        <ele>496</ele>
        <time>2019-01-18T13:19:24.000Z</time>
      </trkpt>
      <trkpt lat="43.3345" lon="5.66766">
        <ele>495</ele>
        <time>2019-01-18T13:19:25.000Z</time>
      </trkpt>
      <trkpt lat="43.3345" lon="5.66765">
        <ele>495</ele>
        <time>2019-01-18T13:19:26.000Z</time>
      </trkpt>
      <trkpt lat="43.33449" lon="5.66763">
        <ele>495</ele>
        <time>2019-01-18T13:19:27.000Z</time>
      </trkpt>
      <trkpt lat="43.33449" lon="5.66762">
        <ele>494</ele>
        <time>2019-01-18T13:19:28.000Z</time>
      </trkpt>
      <trkpt lat="43.33449" lon="5.66761">
        <ele>494</ele>
        <time>2019-01-18T13:19:29.000Z</time>
      </trkpt>
      <trkpt lat="43.33448" lon="5.66759">
        <ele>494</ele>
        <time>2019-01-18T13:19:30.000Z</time>
      </trkpt>
      <trkpt lat="43.33448" lon="5.66757">
        <ele>493</ele>
        <time>2019-01-18T13:19:31.000Z</time>
      </trkpt>
      <trkpt lat="43.33448" lon="5.66756">
        <ele>493</ele>
        <time>2019-01-18T13:19:32.000Z</time>
      </trkpt>
      <trkpt lat="43.33448" lon="5.66755">
        <ele>493</ele>
        <time>2019-01-18T13:19:33.000Z</time>
      </trkpt>
      <trkpt lat="43.33447" lon="5.66754">
        <ele>493</ele>
        <time>2019-01-18T13:19:34.000Z</time>
      </trkpt>
      <trkpt lat="43.33447" lon="5.66753">
        <ele>492</ele>
        <time>2019-01-18T13:19:35.000Z</time>
      </trkpt>
      <trkpt lat="43.33447" lon="5.66752">
        <ele>492</ele>
        <time>2019-01-18T13:19:36.000Z</time>
      </trkpt>
      <trkpt lat="43.33446" lon="5.66751">
        <ele>492</ele>
        <time>2019-01-18T13:19:37.000Z</time>
      </trkpt>
      <trkpt lat="43.33446" lon="5.66749">
        <ele>492</ele>
        <time>2019-01-18T13:19:38.000Z</time>
      </trkpt>
      <trkpt lat="43.33445" lon="5.66748">
        <ele>492</ele>
        <time>2019-01-18T13:19:39.000Z</time>
      </trkpt>
      <trkpt lat="43.33444" lon="5.66747">
        <ele>492</ele>
        <time>2019-01-18T13:19:40.000Z</time>
      </trkpt>
      <trkpt lat="43.33444" lon="5.66746">
        <ele>492</ele>
        <time>2019-01-18T13:19:41.000Z</time>
      </trkpt>
      <trkpt lat="43.33444" lon="5.66745">
        <ele>492</ele>
        <time>2019-01-18T13:19:42.000Z</time>
      </trkpt>
      <trkpt lat="43.33444" lon="5.66743">
        <ele>492</ele>
        <time>2019-01-18T13:19:43.000Z</time>
      </trkpt>
      <trkpt lat="43.33444" lon="5.66742">
        <ele>492</ele>
        <time>2019-01-18T13:19:44.000Z</time>
      </trkpt>
      <trkpt lat="43.33445" lon="5.66741">
        <ele>491</ele>
        <time>2019-01-18T13:19:45.000Z</time>
      </trkpt>
      <trkpt lat="43.33445" lon="5.66739">
        <ele>491</ele>
        <time>2019-01-18T13:19:46.000Z</time>
      </trkpt>
      <trkpt lat="43.33446" lon="5.66738">
        <ele>491</ele>
        <time>2019-01-18T13:19:47.000Z</time>
      </trkpt>
      <trkpt lat="43.33446" lon="5.66736">
        <ele>491</ele>
        <time>2019-01-18T13:19:48.000Z</time>
      </trkpt>
      <trkpt lat="43.33446" lon="5.66735">
        <ele>491</ele>
        <time>2019-01-18T13:19:49.000Z</time>
      </trkpt>
      <trkpt lat="43.33446" lon="5.66733">
        <ele>491</ele>
        <time>2019-01-18T13:19:50.000Z</time>
      </trkpt>
      <trkpt lat="43.33447" lon="5.66731">
        <ele>491</ele>
        <time>2019-01-18T13:19:51.000Z</time>
      </trkpt>
      <trkpt lat="43.33447" lon="5.66729">
        <ele>491</ele>
        <time>2019-01-18T13:19:52.000Z</time>
      </trkpt>
      <trkpt lat="43.33447" lon="5.66728">
        <ele>491</ele>
        <time>2019-01-18T13:19:53.000Z</time>
      </trkpt>
      <trkpt lat="43.33447" lon="5.66726">
        <ele>491</ele>
        <time>2019-01-18T13:19:54.000Z</time>
      </trkpt>
      <trkpt lat="43.33448" lon="5.66725">
        <ele>491</ele>
        <time>2019-01-18T13:19:55.000Z</time>
      </trkpt>
      <trkpt lat="43.33449" lon="5.66723">
        <ele>491</ele>
        <time>2019-01-18T13:19:56.000Z</time>
      </trkpt>
      <trkpt lat="43.33449" lon="5.66721">
        <ele>491</ele>
        <time>2019-01-18T13:19:57.000Z</time>
      </trkpt>
      <trkpt lat="43.3345" lon="5.6672">
        <ele>491</ele>
        <time>2019-01-18T13:19:58.000Z</time>
      </trkpt>
      <trkpt lat="43.33451" lon="5.66718">
        <ele>491</ele>
        <time>2019-01-18T13:19:59.000Z</time>
      </trkpt>
      <trkpt lat="43.33451" lon="5.66717">
        <ele>491</ele>
        <time>2019-01-18T13:20:00.000Z</time>
      </trkpt>
      <trkpt lat="43.33452" lon="5.66716">
        <ele>491</ele>
        <time>2019-01-18T13:20:01.000Z</time>
      </trkpt>
      <trkpt lat="43.33453" lon="5.66715">
        <ele>491</ele>
        <time>2019-01-18T13:20:02.000Z</time>
      </trkpt>
      <trkpt lat="43.33453" lon="5.66714">
        <ele>491</ele>
        <time>2019-01-18T13:20:03.000Z</time>
      </trkpt>
      <trkpt lat="43.33454" lon="5.66713">
        <ele>490</ele>
        <time>2019-01-18T13:20:04.000Z</time>
      </trkpt>
      <trkpt lat="43.33454" lon="5.66712">
        <ele>490</ele>
        <time>2019-01-18T13:20:05.000Z</time>
      </trkpt>
      <trkpt lat="43.33455" lon="5.66711">
        <ele>490</ele>
        <time>2019-01-18T13:20:06.000Z</time>
      </trkpt>
      <trkpt lat="43.33457" lon="5.6671">
        <ele>490</ele>
        <time>2019-01-18T13:20:07.000Z</time>
      </trkpt>
      <trkpt lat="43.33458" lon="5.66709">
        <ele>490</ele>
        <time>2019-01-18T13:20:08.000Z</time>
      </trkpt>
      <trkpt lat="43.33459" lon="5.66708">
        <ele>490</ele>
        <time>2019-01-18T13:20:09.000Z</time>
      </trkpt>
      <trkpt lat="43.3346" lon="5.66706">
        <ele>490</ele>
        <time>2019-01-18T13:20:10.000Z</time>
      </trkpt>
      <trkpt lat="43.3346" lon="5.66704">
        <ele>490</ele>
        <time>2019-01-18T13:20:11.000Z</time>
      </trkpt>
      <trkpt lat="43.33461" lon="5.66703">
        <ele>490</ele>
        <time>2019-01-18T13:20:12.000Z</time>
      </trkpt>
      <trkpt lat="43.33463" lon="5.66701">
        <ele>490</ele>
        <time>2019-01-18T13:20:13.000Z</time>
      </trkpt>
      <trkpt lat="43.33464" lon="5.667">
        <ele>490</ele>
        <time>2019-01-18T13:20:14.000Z</time>
      </trkpt>
      <trkpt lat="43.33465" lon="5.66699">
        <ele>490</ele>
        <time>2019-01-18T13:20:15.000Z</time>
      </trkpt>
      <trkpt lat="43.33466" lon="5.66699">
        <ele>489</ele>
        <time>2019-01-18T13:20:16.000Z</time>
      </trkpt>
      <trkpt lat="43.33467" lon="5.66699">
        <ele>489</ele>
        <time>2019-01-18T13:20:17.000Z</time>
      </trkpt>
      <trkpt lat="43.33468" lon="5.66698">
        <ele>489</ele>
        <time>2019-01-18T13:20:18.000Z</time>
      </trkpt>
      <trkpt lat="43.33469" lon="5.66697">
        <ele>489</ele>
        <time>2019-01-18T13:20:19.000Z</time>
      </trkpt>
      <trkpt lat="43.33471" lon="5.66696">
        <ele>489</ele>
        <time>2019-01-18T13:20:20.000Z</time>
      </trkpt>
      <trkpt lat="43.33472" lon="5.66695">
        <ele>489</ele>
        <time>2019-01-18T13:20:21.000Z</time>
      </trkpt>
      <trkpt lat="43.33473" lon="5.66694">
        <ele>488</ele>
        <time>2019-01-18T13:20:22.000Z</time>
      </trkpt>
      <trkpt lat="43.33474" lon="5.66693">
        <ele>488</ele>
        <time>2019-01-18T13:20:23.000Z</time>
      </trkpt>
      <trkpt lat="43.33475" lon="5.66693">
        <ele>488</ele>
        <time>2019-01-18T13:20:24.000Z</time>
      </trkpt>
      <trkpt lat="43.33476" lon="5.66691">
        <ele>488</ele>
        <time>2019-01-18T13:20:25.000Z</time>
      </trkpt>
      <trkpt lat="43.33477" lon="5.6669">
        <ele>487</ele>
        <time>2019-01-18T13:20:26.000Z</time>
      </trkpt>
      <trkpt lat="43.33478" lon="5.66689">
        <ele>487</ele>
        <time>2019-01-18T13:20:27.000Z</time>
      </trkpt>
      <trkpt lat="43.33478" lon="5.66687">
        <ele>487</ele>
        <time>2019-01-18T13:20:28.000Z</time>
      </trkpt>
      <trkpt lat="43.33479" lon="5.66686">
        <ele>487</ele>
        <time>2019-01-18T13:20:29.000Z</time>
      </trkpt>
      <trkpt lat="43.3348" lon="5.66685">
        <ele>486</ele>
        <time>2019-01-18T13:20:30.000Z</time>
      </trkpt>
      <trkpt lat="43.33481" lon="5.66684">
        <ele>486</ele>
        <time>2019-01-18T13:20:31.000Z</time>
      </trkpt>
      <trkpt lat="43.33482" lon="5.66683">
        <ele>486</ele>
        <time>2019-01-18T13:20:32.000Z</time>
      </trkpt>
      <trkpt lat="43.33483" lon="5.66681">
        <ele>486</ele>
        <time>2019-01-18T13:20:33.000Z</time>
      </trkpt>
      <trkpt lat="43.33484" lon="5.6668">
        <ele>485</ele>
        <time>2019-01-18T13:20:34.000Z</time>
      </trkpt>
      <trkpt lat="43.33485" lon="5.66679">
        <ele>485</ele>
        <time>2019-01-18T13:20:35.000Z</time>
      </trkpt>
      <trkpt lat="43.33485" lon="5.66677">
        <ele>485</ele>
        <time>2019-01-18T13:20:36.000Z</time>
      </trkpt>
      <trkpt lat="43.33486" lon="5.66676">
        <ele>485</ele>
        <time>2019-01-18T13:20:37.000Z</time>
      </trkpt>
      <trkpt lat="43.33487" lon="5.66675">
        <ele>485</ele>
        <time>2019-01-18T13:20:38.000Z</time>
      </trkpt>
      <trkpt lat="43.33488" lon="5.66674">
        <ele>485</ele>
        <time>2019-01-18T13:20:39.000Z</time>
      </trkpt>
      <trkpt lat="43.33489" lon="5.66674">
        <ele>484</ele>
        <time>2019-01-18T13:20:40.000Z</time>
      </trkpt>
      <trkpt lat="43.3349" lon="5.66673">
        <ele>484</ele>
        <time>2019-01-18T13:20:41.000Z</time>
      </trkpt>
      <trkpt lat="43.33491" lon="5.66672">
        <ele>484</ele>
        <time>2019-01-18T13:20:42.000Z</time>
      </trkpt>
      <trkpt lat="43.33491" lon="5.66671">
        <ele>484</ele>
        <time>2019-01-18T13:20:43.000Z</time>
      </trkpt>
      <trkpt lat="43.33492" lon="5.6667">
        <ele>484</ele>
        <time>2019-01-18T13:20:44.000Z</time>
      </trkpt>
      <trkpt lat="43.33493" lon="5.66669">
        <ele>484</ele>
        <time>2019-01-18T13:20:45.000Z</time>
      </trkpt>
      <trkpt lat="43.33493" lon="5.66668">
        <ele>484</ele>
        <time>2019-01-18T13:20:46.000Z</time>
      </trkpt>
      <trkpt lat="43.33494" lon="5.66668">
        <ele>484</ele>
        <time>2019-01-18T13:20:47.000Z</time>
      </trkpt>
      <trkpt lat="43.33495" lon="5.66667">
        <ele>484</ele>
        <time>2019-01-18T13:20:48.000Z</time>
      </trkpt>
      <trkpt lat="43.33495" lon="5.66667">
        <ele>484</ele>
        <time>2019-01-18T13:20:49.000Z</time>
      </trkpt>
      <trkpt lat="43.33496" lon="5.66666">
        <ele>483</ele>
        <time>2019-01-18T13:20:50.000Z</time>
      </trkpt>
      <trkpt lat="43.33497" lon="5.66666">
        <ele>483</ele>
        <time>2019-01-18T13:20:51.000Z</time>
      </trkpt>
      <trkpt lat="43.33498" lon="5.66665">
        <ele>483</ele>
        <time>2019-01-18T13:20:52.000Z</time>
      </trkpt>
      <trkpt lat="43.33499" lon="5.66663">
        <ele>483</ele>
        <time>2019-01-18T13:20:53.000Z</time>
      </trkpt>
      <trkpt lat="43.335" lon="5.66662">
        <ele>483</ele>
        <time>2019-01-18T13:20:54.000Z</time>
      </trkpt>
      <trkpt lat="43.33501" lon="5.66661">
        <ele>483</ele>
        <time>2019-01-18T13:20:55.000Z</time>
      </trkpt>
      <trkpt lat="43.33501" lon="5.66659">
        <ele>483</ele>
        <time>2019-01-18T13:20:56.000Z</time>
      </trkpt>
      <trkpt lat="43.33502" lon="5.66658">
        <ele>483</ele>
        <time>2019-01-18T13:20:57.000Z</time>
      </trkpt>
      <trkpt lat="43.33503" lon="5.66656">
        <ele>483</ele>
        <time>2019-01-18T13:20:58.000Z</time>
      </trkpt>
      <trkpt lat="43.33503" lon="5.66655">
        <ele>483</ele>
        <time>2019-01-18T13:20:59.000Z</time>
      </trkpt>
      <trkpt lat="43.33503" lon="5.66653">
        <ele>483</ele>
        <time>2019-01-18T13:21:00.000Z</time>
      </trkpt>
      <trkpt lat="43.33504" lon="5.66652">
        <ele>483</ele>
        <time>2019-01-18T13:21:01.000Z</time>
      </trkpt>
      <trkpt lat="43.33504" lon="5.66651">
        <ele>483</ele>
        <time>2019-01-18T13:21:02.000Z</time>
      </trkpt>
      <trkpt lat="43.33505" lon="5.6665">
        <ele>483</ele>
        <time>2019-01-18T13:21:03.000Z</time>
      </trkpt>
      <trkpt lat="43.33505" lon="5.66649">
        <ele>483</ele>
        <time>2019-01-18T13:21:04.000Z</time>
      </trkpt>
      <trkpt lat="43.33506" lon="5.66648">
        <ele>483</ele>
        <time>2019-01-18T13:21:05.000Z</time>
      </trkpt>
      <trkpt lat="43.33507" lon="5.66648">
        <ele>483</ele>
        <time>2019-01-18T13:21:06.000Z</time>
      </trkpt>
      <trkpt lat="43.33508" lon="5.66647">
        <ele>483</ele>
        <time>2019-01-18T13:21:07.000Z</time>
      </trkpt>
      <trkpt lat="43.33508" lon="5.66646">
        <ele>483</ele>
        <time>2019-01-18T13:21:08.000Z</time>
      </trkpt>
      <trkpt lat="43.33509" lon="5.66645">
        <ele>483</ele>
        <time>2019-01-18T13:21:09.000Z</time>
      </trkpt>
      <trkpt lat="43.3351" lon="5.66645">
        <ele>483</ele>
        <time>2019-01-18T13:21:10.000Z</time>
      </trkpt>
      <trkpt lat="43.3351" lon="5.66644">
        <ele>483</ele>
        <time>2019-01-18T13:21:11.000Z</time>
      </trkpt>
      <trkpt lat="43.33511" lon="5.66643">
        <ele>483</ele>
        <time>2019-01-18T13:21:12.000Z</time>
      </trkpt>
      <trkpt lat="43.33512" lon="5.66642">
        <ele>483</ele>
        <time>2019-01-18T13:21:13.000Z</time>
      </trkpt>
      <trkpt lat="43.33513" lon="5.66641">
        <ele>483</ele>
        <time>2019-01-18T13:21:14.000Z</time>
      </trkpt>
      <trkpt lat="43.33513" lon="5.66641">
        <ele>483</ele>
        <time>2019-01-18T13:21:15.000Z</time>
      </trkpt>
      <trkpt lat="43.33513" lon="5.66641">
        <ele>483</ele>
        <time>2019-01-18T13:21:16.000Z</time>
      </trkpt>
      <trkpt lat="43.33514" lon="5.6664">
        <ele>483</ele>
        <time>2019-01-18T13:21:17.000Z</time>
      </trkpt>
      <trkpt lat="43.33514" lon="5.6664">
        <ele>483</ele>
        <time>2019-01-18T13:21:18.000Z</time>
      </trkpt>
      <trkpt lat="43.33515" lon="5.66639">
        <ele>483</ele>
        <time>2019-01-18T13:21:19.000Z</time>
      </trkpt>
      <trkpt lat="43.33516" lon="5.66638">
        <ele>483</ele>
        <time>2019-01-18T13:21:20.000Z</time>
      </trkpt>
      <trkpt lat="43.33517" lon="5.66637">
        <ele>483</ele>
        <time>2019-01-18T13:21:21.000Z</time>
      </trkpt>
      <trkpt lat="43.33518" lon="5.66636">
        <ele>483</ele>
        <time>2019-01-18T13:21:22.000Z</time>
      </trkpt>
      <trkpt lat="43.33519" lon="5.66635">
        <ele>483</ele>
        <time>2019-01-18T13:21:23.000Z</time>
      </trkpt>
      <trkpt lat="43.3352" lon="5.66634">
        <ele>483</ele>
        <time>2019-01-18T13:21:24.000Z</time>
      </trkpt>
      <trkpt lat="43.3352" lon="5.66634">
        <ele>483</ele>
        <time>2019-01-18T13:21:25.000Z</time>
      </trkpt>
      <trkpt lat="43.33521" lon="5.66634">
        <ele>483</ele>
        <time>2019-01-18T13:21:26.000Z</time>
      </trkpt>
      <trkpt lat="43.33522" lon="5.66633">
        <ele>483</ele>
        <time>2019-01-18T13:21:27.000Z</time>
      </trkpt>
      <trkpt lat="43.33523" lon="5.66633">
        <ele>483</ele>
        <time>2019-01-18T13:21:28.000Z</time>
      </trkpt>
      <trkpt lat="43.33523" lon="5.66632">
        <ele>483</ele>
        <time>2019-01-18T13:21:29.000Z</time>
      </trkpt>
      <trkpt lat="43.33523" lon="5.66632">
        <ele>483</ele>
        <time>2019-01-18T13:21:30.000Z</time>
      </trkpt>
      <trkpt lat="43.33523" lon="5.66631">
        <ele>483</ele>
        <time>2019-01-18T13:21:31.000Z</time>
      </trkpt>
      <trkpt lat="43.33523" lon="5.66631">
        <ele>483</ele>
        <time>2019-01-18T13:21:32.000Z</time>
      </trkpt>
      <trkpt lat="43.33524" lon="5.66631">
        <ele>483</ele>
        <time>2019-01-18T13:21:33.000Z</time>
      </trkpt>
      <trkpt lat="43.33524" lon="5.6663">
        <ele>483</ele>
        <time>2019-01-18T13:21:34.000Z</time>
      </trkpt>
      <trkpt lat="43.33524" lon="5.6663">
        <ele>482</ele>
        <time>2019-01-18T13:21:35.000Z</time>
      </trkpt>
      <trkpt lat="43.33524" lon="5.66629">
        <ele>482</ele>
        <time>2019-01-18T13:21:36.000Z</time>
      </trkpt>
      <trkpt lat="43.33525" lon="5.66629">
        <ele>482</ele>
        <time>2019-01-18T13:21:37.000Z</time>
      </trkpt>
      <trkpt lat="43.33525" lon="5.66629">
        <ele>482</ele>
        <time>2019-01-18T13:21:38.000Z</time>
      </trkpt>
      <trkpt lat="43.33526" lon="5.66628">
        <ele>482</ele>
        <time>2019-01-18T13:21:39.000Z</time>
      </trkpt>
      <trkpt lat="43.33526" lon="5.66628">
        <ele>482</ele>
        <time>2019-01-18T13:21:40.000Z</time>
      </trkpt>
      <trkpt lat="43.33527" lon="5.66627">
        <ele>482</ele>
        <time>2019-01-18T13:21:41.000Z</time>
      </trkpt>
      <trkpt lat="43.33527" lon="5.66626">
        <ele>482</ele>
        <time>2019-01-18T13:21:42.000Z</time>
      </trkpt>
      <trkpt lat="43.33529" lon="5.66625">
        <ele>482</ele>
        <time>2019-01-18T13:21:43.000Z</time>
      </trkpt>
      <trkpt lat="43.3353" lon="5.66624">
        <ele>482</ele>
        <time>2019-01-18T13:21:44.000Z</time>
      </trkpt>
      <trkpt lat="43.33531" lon="5.66623">
        <ele>481</ele>
        <time>2019-01-18T13:21:45.000Z</time>
      </trkpt>
      <trkpt lat="43.33531" lon="5.66622">
        <ele>481</ele>
        <time>2019-01-18T13:21:46.000Z</time>
      </trkpt>
      <trkpt lat="43.33532" lon="5.6662">
        <ele>481</ele>
        <time>2019-01-18T13:21:47.000Z</time>
      </trkpt>
      <trkpt lat="43.33532" lon="5.66619">
        <ele>481</ele>
        <time>2019-01-18T13:21:48.000Z</time>
      </trkpt>
      <trkpt lat="43.33532" lon="5.66617">
        <ele>481</ele>
        <time>2019-01-18T13:21:49.000Z</time>
      </trkpt>
      <trkpt lat="43.33532" lon="5.66616">
        <ele>481</ele>
        <time>2019-01-18T13:21:50.000Z</time>
      </trkpt>
      <trkpt lat="43.33532" lon="5.66614">
        <ele>481</ele>
        <time>2019-01-18T13:21:51.000Z</time>
      </trkpt>
      <trkpt lat="43.33533" lon="5.66613">
        <ele>481</ele>
        <time>2019-01-18T13:21:52.000Z</time>
      </trkpt>
      <trkpt lat="43.33533" lon="5.66611">
        <ele>481</ele>
        <time>2019-01-18T13:21:53.000Z</time>
      </trkpt>
      <trkpt lat="43.33533" lon="5.66609">
        <ele>480</ele>
        <time>2019-01-18T13:21:54.000Z</time>
      </trkpt>
      <trkpt lat="43.33534" lon="5.66607">
        <ele>480</ele>
        <time>2019-01-18T13:21:55.000Z</time>
      </trkpt>
      <trkpt lat="43.33534" lon="5.66606">
        <ele>480</ele>
        <time>2019-01-18T13:21:56.000Z</time>
      </trkpt>
      <trkpt lat="43.33535" lon="5.66604">
        <ele>480</ele>
        <time>2019-01-18T13:21:57.000Z</time>
      </trkpt>
      <trkpt lat="43.33536" lon="5.66603">
        <ele>480</ele>
        <time>2019-01-18T13:21:58.000Z</time>
      </trkpt>
      <trkpt lat="43.33536" lon="5.66601">
        <ele>480</ele>
        <time>2019-01-18T13:21:59.000Z</time>
      </trkpt>
      <trkpt lat="43.33537" lon="5.666">
        <ele>480</ele>
        <time>2019-01-18T13:22:00.000Z</time>
      </trkpt>
      <trkpt lat="43.33538" lon="5.666">
        <ele>480</ele>
        <time>2019-01-18T13:22:01.000Z</time>
      </trkpt>
      <trkpt lat="43.33538" lon="5.66599">
        <ele>480</ele>
        <time>2019-01-18T13:22:02.000Z</time>
      </trkpt>
      <trkpt lat="43.33539" lon="5.66598">
        <ele>480</ele>
        <time>2019-01-18T13:22:03.000Z</time>
      </trkpt>
      <trkpt lat="43.33539" lon="5.66597">
        <ele>480</ele>
        <time>2019-01-18T13:22:04.000Z</time>
      </trkpt>
      <trkpt lat="43.3354" lon="5.66595">
        <ele>480</ele>
        <time>2019-01-18T13:22:05.000Z</time>
      </trkpt>
      <trkpt lat="43.33541" lon="5.66594">
        <ele>480</ele>
        <time>2019-01-18T13:22:06.000Z</time>
      </trkpt>
      <trkpt lat="43.33542" lon="5.66593">
        <ele>480</ele>
        <time>2019-01-18T13:22:07.000Z</time>
      </trkpt>
      <trkpt lat="43.33543" lon="5.66592">
        <ele>480</ele>
        <time>2019-01-18T13:22:08.000Z</time>
      </trkpt>
      <trkpt lat="43.33543" lon="5.66591">
        <ele>480</ele>
        <time>2019-01-18T13:22:09.000Z</time>
      </trkpt>
      <trkpt lat="43.33544" lon="5.6659">
        <ele>480</ele>
        <time>2019-01-18T13:22:10.000Z</time>
      </trkpt>
      <trkpt lat="43.33545" lon="5.66589">
        <ele>480</ele>
        <time>2019-01-18T13:22:11.000Z</time>
      </trkpt>
      <trkpt lat="43.33546" lon="5.66589">
        <ele>480</ele>
        <time>2019-01-18T13:22:12.000Z</time>
      </trkpt>
      <trkpt lat="43.33547" lon="5.66588">
        <ele>480</ele>
        <time>2019-01-18T13:22:13.000Z</time>
      </trkpt>
      <trkpt lat="43.33548" lon="5.66588">
        <ele>480</ele>
        <time>2019-01-18T13:22:14.000Z</time>
      </trkpt>
      <trkpt lat="43.33549" lon="5.66587">
        <ele>480</ele>
        <time>2019-01-18T13:22:15.000Z</time>
      </trkpt>
      <trkpt lat="43.3355" lon="5.66586">
        <ele>480</ele>
        <time>2019-01-18T13:22:16.000Z</time>
      </trkpt>
      <trkpt lat="43.3355" lon="5.66584">
        <ele>480</ele>
        <time>2019-01-18T13:22:17.000Z</time>
      </trkpt>
      <trkpt lat="43.33551" lon="5.66583">
        <ele>480</ele>
        <time>2019-01-18T13:22:18.000Z</time>
      </trkpt>
      <trkpt lat="43.33552" lon="5.66582">
        <ele>480</ele>
        <time>2019-01-18T13:22:19.000Z</time>
      </trkpt>
      <trkpt lat="43.33553" lon="5.66581">
        <ele>480</ele>
        <time>2019-01-18T13:22:20.000Z</time>
      </trkpt>
      <trkpt lat="43.33554" lon="5.66579">
        <ele>479</ele>
        <time>2019-01-18T13:22:21.000Z</time>
      </trkpt>
      <trkpt lat="43.33554" lon="5.66578">
        <ele>479</ele>
        <time>2019-01-18T13:22:22.000Z</time>
      </trkpt>
      <trkpt lat="43.33555" lon="5.66577">
        <ele>479</ele>
        <time>2019-01-18T13:22:23.000Z</time>
      </trkpt>
      <trkpt lat="43.33555" lon="5.66576">
        <ele>479</ele>
        <time>2019-01-18T13:22:24.000Z</time>
      </trkpt>
      <trkpt lat="43.33556" lon="5.66575">
        <ele>479</ele>
        <time>2019-01-18T13:22:25.000Z</time>
      </trkpt>
      <trkpt lat="43.33556" lon="5.66574">
        <ele>479</ele>
        <time>2019-01-18T13:22:26.000Z</time>
      </trkpt>
      <trkpt lat="43.33556" lon="5.66573">
        <ele>479</ele>
        <time>2019-01-18T13:22:27.000Z</time>
      </trkpt>
      <trkpt lat="43.33556" lon="5.66571">
        <ele>479</ele>
        <time>2019-01-18T13:22:28.000Z</time>
      </trkpt>
      <trkpt lat="43.33557" lon="5.6657">
        <ele>479</ele>
        <time>2019-01-18T13:22:29.000Z</time>
      </trkpt>
      <trkpt lat="43.33557" lon="5.66569">
        <ele>479</ele>
        <time>2019-01-18T13:22:30.000Z</time>
      </trkpt>
      <trkpt lat="43.33557" lon="5.66568">
        <ele>479</ele>
        <time>2019-01-18T13:22:31.000Z</time>
      </trkpt>
      <trkpt lat="43.33558" lon="5.66566">
        <ele>479</ele>
        <time>2019-01-18T13:22:32.000Z</time>
      </trkpt>
      <trkpt lat="43.33558" lon="5.66565">
        <ele>478</ele>
        <time>2019-01-18T13:22:33.000Z</time>
      </trkpt>
      <trkpt lat="43.33558" lon="5.66563">
        <ele>478</ele>
        <time>2019-01-18T13:22:34.000Z</time>
      </trkpt>
      <trkpt lat="43.33559" lon="5.66562">
        <ele>478</ele>
        <time>2019-01-18T13:22:35.000Z</time>
      </trkpt>
      <trkpt lat="43.33559" lon="5.6656">
        <ele>478</ele>
        <time>2019-01-18T13:22:36.000Z</time>
      </trkpt>
      <trkpt lat="43.33559" lon="5.66559">
        <ele>478</ele>
        <time>2019-01-18T13:22:37.000Z</time>
      </trkpt>
      <trkpt lat="43.33559" lon="5.66557">
        <ele>478</ele>
        <time>2019-01-18T13:22:38.000Z</time>
      </trkpt>
      <trkpt lat="43.3356" lon="5.66556">
        <ele>478</ele>
        <time>2019-01-18T13:22:39.000Z</time>
      </trkpt>
      <trkpt lat="43.3356" lon="5.66554">
        <ele>478</ele>
        <time>2019-01-18T13:22:40.000Z</time>
      </trkpt>
      <trkpt lat="43.3356" lon="5.66552">
        <ele>478</ele>
        <time>2019-01-18T13:22:41.000Z</time>
      </trkpt>
      <trkpt lat="43.3356" lon="5.66551">
        <ele>477</ele>
        <time>2019-01-18T13:22:42.000Z</time>
      </trkpt>
      <trkpt lat="43.3356" lon="5.66549">
        <ele>477</ele>
        <time>2019-01-18T13:22:43.000Z</time>
      </trkpt>
      <trkpt lat="43.3356" lon="5.66547">
        <ele>477</ele>
        <time>2019-01-18T13:22:44.000Z</time>
      </trkpt>
      <trkpt lat="43.3356" lon="5.66545">
        <ele>477</ele>
        <time>2019-01-18T13:22:45.000Z</time>
      </trkpt>
      <trkpt lat="43.3356" lon="5.66544">
        <ele>477</ele>
        <time>2019-01-18T13:22:46.000Z</time>
      </trkpt>
      <trkpt lat="43.33561" lon="5.66543">
        <ele>477</ele>
        <time>2019-01-18T13:22:47.000Z</time>
      </trkpt>
      <trkpt lat="43.33562" lon="5.66541">
        <ele>476</ele>
        <time>2019-01-18T13:22:48.000Z</time>
      </trkpt>
      <trkpt lat="43.33562" lon="5.6654">
        <ele>476</ele>
        <time>2019-01-18T13:22:49.000Z</time>
      </trkpt>
      <trkpt lat="43.33563" lon="5.66538">
        <ele>476</ele>
        <time>2019-01-18T13:22:50.000Z</time>
      </trkpt>
      <trkpt lat="43.33563" lon="5.66537">
        <ele>476</ele>
        <time>2019-01-18T13:22:51.000Z</time>
      </trkpt>
      <trkpt lat="43.33564" lon="5.66535">
        <ele>476</ele>
        <time>2019-01-18T13:22:52.000Z</time>
      </trkpt>
      <trkpt lat="43.33564" lon="5.66534">
        <ele>476</ele>
        <time>2019-01-18T13:22:53.000Z</time>
      </trkpt>
      <trkpt lat="43.33565" lon="5.66532">
        <ele>476</ele>
        <time>2019-01-18T13:22:54.000Z</time>
      </trkpt>
      <trkpt lat="43.33565" lon="5.6653">
        <ele>475</ele>
        <time>2019-01-18T13:22:55.000Z</time>
      </trkpt>
      <trkpt lat="43.33566" lon="5.66529">
        <ele>475</ele>
        <time>2019-01-18T13:22:56.000Z</time>
      </trkpt>
      <trkpt lat="43.33567" lon="5.66528">
        <ele>475</ele>
        <time>2019-01-18T13:22:57.000Z</time>
      </trkpt>
      <trkpt lat="43.33568" lon="5.66526">
        <ele>475</ele>
        <time>2019-01-18T13:22:58.000Z</time>
      </trkpt>
      <trkpt lat="43.33569" lon="5.66525">
        <ele>475</ele>
        <time>2019-01-18T13:22:59.000Z</time>
      </trkpt>
      <trkpt lat="43.3357" lon="5.66524">
        <ele>475</ele>
        <time>2019-01-18T13:23:00.000Z</time>
      </trkpt>
      <trkpt lat="43.3357" lon="5.66522">
        <ele>475</ele>
        <time>2019-01-18T13:23:01.000Z</time>
      </trkpt>
      <trkpt lat="43.33571" lon="5.66521">
        <ele>475</ele>
        <time>2019-01-18T13:23:02.000Z</time>
      </trkpt>
      <trkpt lat="43.33571" lon="5.6652">
        <ele>475</ele>
        <time>2019-01-18T13:23:03.000Z</time>
      </trkpt>
      <trkpt lat="43.33572" lon="5.66519">
        <ele>474</ele>
        <time>2019-01-18T13:23:04.000Z</time>
      </trkpt>
      <trkpt lat="43.33573" lon="5.66517">
        <ele>474</ele>
        <time>2019-01-18T13:23:05.000Z</time>
      </trkpt>
      <trkpt lat="43.33574" lon="5.66516">
        <ele>474</ele>
        <time>2019-01-18T13:23:06.000Z</time>
      </trkpt>
      <trkpt lat="43.33574" lon="5.66515">
        <ele>474</ele>
        <time>2019-01-18T13:23:07.000Z</time>
      </trkpt>
      <trkpt lat="43.33575" lon="5.66513">
        <ele>474</ele>
        <time>2019-01-18T13:23:08.000Z</time>
      </trkpt>
      <trkpt lat="43.33576" lon="5.66512">
        <ele>474</ele>
        <time>2019-01-18T13:23:09.000Z</time>
      </trkpt>
      <trkpt lat="43.33576" lon="5.66511">
        <ele>474</ele>
        <time>2019-01-18T13:23:10.000Z</time>
      </trkpt>
      <trkpt lat="43.33577" lon="5.66511">
        <ele>473</ele>
        <time>2019-01-18T13:23:11.000Z</time>
      </trkpt>
      <trkpt lat="43.33578" lon="5.6651">
        <ele>473</ele>
        <time>2019-01-18T13:23:12.000Z</time>
      </trkpt>
      <trkpt lat="43.33578" lon="5.66509">
        <ele>473</ele>
        <time>2019-01-18T13:23:13.000Z</time>
      </trkpt>
      <trkpt lat="43.33579" lon="5.66509">
        <ele>473</ele>
        <time>2019-01-18T13:23:14.000Z</time>
      </trkpt>
      <trkpt lat="43.33579" lon="5.66508">
        <ele>473</ele>
        <time>2019-01-18T13:23:15.000Z</time>
      </trkpt>
      <trkpt lat="43.3358" lon="5.66507">
        <ele>473</ele>
        <time>2019-01-18T13:23:16.000Z</time>
      </trkpt>
      <trkpt lat="43.33581" lon="5.66506">
        <ele>472</ele>
        <time>2019-01-18T13:23:17.000Z</time>
      </trkpt>
      <trkpt lat="43.33582" lon="5.66505">
        <ele>472</ele>
        <time>2019-01-18T13:23:18.000Z</time>
      </trkpt>
      <trkpt lat="43.33583" lon="5.66504">
        <ele>472</ele>
        <time>2019-01-18T13:23:19.000Z</time>
      </trkpt>
      <trkpt lat="43.33584" lon="5.66503">
        <ele>471</ele>
        <time>2019-01-18T13:23:20.000Z</time>
      </trkpt>
      <trkpt lat="43.33585" lon="5.66502">
        <ele>471</ele>
        <time>2019-01-18T13:23:21.000Z</time>
      </trkpt>
      <trkpt lat="43.33585" lon="5.66501">
        <ele>471</ele>
        <time>2019-01-18T13:23:22.000Z</time>
      </trkpt>
      <trkpt lat="43.33586" lon="5.66501">
        <ele>471</ele>
        <time>2019-01-18T13:23:23.000Z</time>
      </trkpt>
      <trkpt lat="43.33587" lon="5.665">
        <ele>470</ele>
        <time>2019-01-18T13:23:24.000Z</time>
      </trkpt>
      <trkpt lat="43.33588" lon="5.66499">
        <ele>470</ele>
        <time>2019-01-18T13:23:25.000Z</time>
      </trkpt>
      <trkpt lat="43.33589" lon="5.66498">
        <ele>470</ele>
        <time>2019-01-18T13:23:26.000Z</time>
      </trkpt>
      <trkpt lat="43.33589" lon="5.66497">
        <ele>470</ele>
        <time>2019-01-18T13:23:27.000Z</time>
      </trkpt>
      <trkpt lat="43.3359" lon="5.66496">
        <ele>469</ele>
        <time>2019-01-18T13:23:28.000Z</time>
      </trkpt>
      <trkpt lat="43.33591" lon="5.66495">
        <ele>469</ele>
        <time>2019-01-18T13:23:29.000Z</time>
      </trkpt>
      <trkpt lat="43.33591" lon="5.66495">
        <ele>469</ele>
        <time>2019-01-18T13:23:30.000Z</time>
      </trkpt>
      <trkpt lat="43.33592" lon="5.66494">
        <ele>469</ele>
        <time>2019-01-18T13:23:31.000Z</time>
      </trkpt>
      <trkpt lat="43.33593" lon="5.66493">
        <ele>468</ele>
        <time>2019-01-18T13:23:32.000Z</time>
      </trkpt>
      <trkpt lat="43.33593" lon="5.66493">
        <ele>468</ele>
        <time>2019-01-18T13:23:33.000Z</time>
      </trkpt>
      <trkpt lat="43.33594" lon="5.66492">
        <ele>468</ele>
        <time>2019-01-18T13:23:34.000Z</time>
      </trkpt>
      <trkpt lat="43.33595" lon="5.66491">
        <ele>468</ele>
        <time>2019-01-18T13:23:35.000Z</time>
      </trkpt>
      <trkpt lat="43.33596" lon="5.6649">
        <ele>468</ele>
        <time>2019-01-18T13:23:36.000Z</time>
      </trkpt>
      <trkpt lat="43.33597" lon="5.6649">
        <ele>468</ele>
        <time>2019-01-18T13:23:37.000Z</time>
      </trkpt>
      <trkpt lat="43.33598" lon="5.66489">
        <ele>468</ele>
        <time>2019-01-18T13:23:38.000Z</time>
      </trkpt>
      <trkpt lat="43.33599" lon="5.66488">
        <ele>468</ele>
        <time>2019-01-18T13:23:39.000Z</time>
      </trkpt>
      <trkpt lat="43.336" lon="5.66487">
        <ele>468</ele>
        <time>2019-01-18T13:23:40.000Z</time>
      </trkpt>
      <trkpt lat="43.336" lon="5.66486">
        <ele>468</ele>
        <time>2019-01-18T13:23:41.000Z</time>
      </trkpt>
      <trkpt lat="43.33601" lon="5.66486">
        <ele>468</ele>
        <time>2019-01-18T13:23:42.000Z</time>
      </trkpt>
      <trkpt lat="43.33601" lon="5.66485">
        <ele>467</ele>
        <time>2019-01-18T13:23:43.000Z</time>
      </trkpt>
      <trkpt lat="43.33601" lon="5.66486">
        <ele>467</ele>
        <time>2019-01-18T13:23:44.000Z</time>
      </trkpt>
      <trkpt lat="43.33601" lon="5.66486">
        <ele>467</ele>
        <time>2019-01-18T13:23:45.000Z</time>
      </trkpt>
      <trkpt lat="43.33602" lon="5.66485">
        <ele>467</ele>
        <time>2019-01-18T13:23:46.000Z</time>
      </trkpt>
      <trkpt lat="43.33602" lon="5.66485">
        <ele>467</ele>
        <time>2019-01-18T13:23:47.000Z</time>
      </trkpt>
      <trkpt lat="43.33602" lon="5.66486">
        <ele>467</ele>
        <time>2019-01-18T13:23:48.000Z</time>
      </trkpt>
      <trkpt lat="43.33601" lon="5.66486">
        <ele>467</ele>
        <time>2019-01-18T13:23:49.000Z</time>
      </trkpt>
      <trkpt lat="43.33601" lon="5.66486">
        <ele>467</ele>
        <time>2019-01-18T13:23:50.000Z</time>
      </trkpt>
      <trkpt lat="43.33601" lon="5.66486">
        <ele>467</ele>
        <time>2019-01-18T13:23:51.000Z</time>
      </trkpt>
      <trkpt lat="43.33601" lon="5.66486">
        <ele>467</ele>
        <time>2019-01-18T13:23:52.000Z</time>
      </trkpt>
      <trkpt lat="43.33601" lon="5.66486">
        <ele>467</ele>
        <time>2019-01-18T13:23:53.000Z</time>
      </trkpt>
      <trkpt lat="43.33601" lon="5.66486">
        <ele>467</ele>
        <time>2019-01-18T13:23:54.000Z</time>
      </trkpt>
      <trkpt lat="43.33601" lon="5.66486">
        <ele>467</ele>
        <time>2019-01-18T13:23:55.000Z</time>
      </trkpt>
      <trkpt lat="43.33601" lon="5.66486">
        <ele>467</ele>
        <time>2019-01-18T13:23:56.000Z</time>
      </trkpt>
      <trkpt lat="43.33601" lon="5.66486">
        <ele>467</ele>
        <time>2019-01-18T13:23:57.000Z</time>
      </trkpt>
      <trkpt lat="43.33601" lon="5.66485">
        <ele>467</ele>
        <time>2019-01-18T13:23:58.000Z</time>
      </trkpt>
      <trkpt lat="43.33602" lon="5.66485">
        <ele>467</ele>
        <time>2019-01-18T13:23:59.000Z</time>
      </trkpt>
      <trkpt lat="43.33603" lon="5.66485">
        <ele>467</ele>
        <time>2019-01-18T13:24:00.000Z</time>
      </trkpt>
      <trkpt lat="43.33604" lon="5.66484">
        <ele>466</ele>
        <time>2019-01-18T13:24:01.000Z</time>
      </trkpt>
      <trkpt lat="43.33604" lon="5.66484">
        <ele>466</ele>
        <time>2019-01-18T13:24:02.000Z</time>
      </trkpt>
      <trkpt lat="43.33606" lon="5.66483">
        <ele>466</ele>
        <time>2019-01-18T13:24:03.000Z</time>
      </trkpt>
      <trkpt lat="43.33606" lon="5.66483">
        <ele>466</ele>
        <time>2019-01-18T13:24:04.000Z</time>
      </trkpt>
      <trkpt lat="43.33607" lon="5.66482">
        <ele>466</ele>
        <time>2019-01-18T13:24:05.000Z</time>
      </trkpt>
      <trkpt lat="43.33608" lon="5.66482">
        <ele>466</ele>
        <time>2019-01-18T13:24:06.000Z</time>
      </trkpt>
      <trkpt lat="43.33609" lon="5.66482">
        <ele>466</ele>
        <time>2019-01-18T13:24:07.000Z</time>
      </trkpt>
      <trkpt lat="43.3361" lon="5.66481">
        <ele>466</ele>
        <time>2019-01-18T13:24:08.000Z</time>
      </trkpt>
      <trkpt lat="43.3361" lon="5.6648">
        <ele>465</ele>
        <time>2019-01-18T13:24:09.000Z</time>
      </trkpt>
      <trkpt lat="43.33611" lon="5.6648">
        <ele>465</ele>
        <time>2019-01-18T13:24:10.000Z</time>
      </trkpt>
      <trkpt lat="43.33612" lon="5.66479">
        <ele>465</ele>
        <time>2019-01-18T13:24:11.000Z</time>
      </trkpt>
      <trkpt lat="43.33613" lon="5.66478">
        <ele>465</ele>
        <time>2019-01-18T13:24:12.000Z</time>
      </trkpt>
      <trkpt lat="43.33613" lon="5.66477">
        <ele>465</ele>
        <time>2019-01-18T13:24:13.000Z</time>
      </trkpt>
      <trkpt lat="43.33614" lon="5.66477">
        <ele>464</ele>
        <time>2019-01-18T13:24:14.000Z</time>
      </trkpt>
      <trkpt lat="43.33615" lon="5.66476">
        <ele>464</ele>
        <time>2019-01-18T13:24:15.000Z</time>
      </trkpt>
      <trkpt lat="43.33616" lon="5.66475">
        <ele>464</ele>
        <time>2019-01-18T13:24:16.000Z</time>
      </trkpt>
      <trkpt lat="43.33617" lon="5.66475">
        <ele>464</ele>
        <time>2019-01-18T13:24:17.000Z</time>
      </trkpt>
      <trkpt lat="43.33618" lon="5.66474">
        <ele>464</ele>
        <time>2019-01-18T13:24:18.000Z</time>
      </trkpt>
      <trkpt lat="43.33619" lon="5.66473">
        <ele>464</ele>
        <time>2019-01-18T13:24:19.000Z</time>
      </trkpt>
      <trkpt lat="43.3362" lon="5.66473">
        <ele>463</ele>
        <time>2019-01-18T13:24:20.000Z</time>
      </trkpt>
      <trkpt lat="43.3362" lon="5.66472">
        <ele>463</ele>
        <time>2019-01-18T13:24:21.000Z</time>
      </trkpt>
      <trkpt lat="43.3362" lon="5.66472">
        <ele>463</ele>
        <time>2019-01-18T13:24:22.000Z</time>
      </trkpt>
      <trkpt lat="43.33621" lon="5.66471">
        <ele>463</ele>
        <time>2019-01-18T13:24:23.000Z</time>
      </trkpt>
      <trkpt lat="43.33621" lon="5.6647">
        <ele>463</ele>
        <time>2019-01-18T13:24:24.000Z</time>
      </trkpt>
      <trkpt lat="43.33622" lon="5.66469">
        <ele>463</ele>
        <time>2019-01-18T13:24:25.000Z</time>
      </trkpt>
      <trkpt lat="43.33622" lon="5.66468">
        <ele>463</ele>
        <time>2019-01-18T13:24:26.000Z</time>
      </trkpt>
      <trkpt lat="43.33623" lon="5.66468">
        <ele>463</ele>
        <time>2019-01-18T13:24:27.000Z</time>
      </trkpt>
      <trkpt lat="43.33623" lon="5.66468">
        <ele>463</ele>
        <time>2019-01-18T13:24:28.000Z</time>
      </trkpt>
      <trkpt lat="43.33623" lon="5.66467">
        <ele>463</ele>
        <time>2019-01-18T13:24:29.000Z</time>
      </trkpt>
      <trkpt lat="43.33623" lon="5.66467">
        <ele>463</ele>
        <time>2019-01-18T13:24:30.000Z</time>
      </trkpt>
      <trkpt lat="43.33623" lon="5.66467">
        <ele>463</ele>
        <time>2019-01-18T13:24:31.000Z</time>
      </trkpt>
      <trkpt lat="43.33623" lon="5.66467">
        <ele>463</ele>
        <time>2019-01-18T13:24:32.000Z</time>
      </trkpt>
      <trkpt lat="43.33623" lon="5.66467">
        <ele>463</ele>
        <time>2019-01-18T13:24:33.000Z</time>
      </trkpt>
      <trkpt lat="43.33623" lon="5.66467">
        <ele>463</ele>
        <time>2019-01-18T13:24:34.000Z</time>
      </trkpt>
      <trkpt lat="43.33624" lon="5.66466">
        <ele>463</ele>
        <time>2019-01-18T13:24:35.000Z</time>
      </trkpt>
      <trkpt lat="43.33624" lon="5.66465">
        <ele>463</ele>
        <time>2019-01-18T13:24:36.000Z</time>
      </trkpt>
      <trkpt lat="43.33625" lon="5.66464">
        <ele>463</ele>
        <time>2019-01-18T13:24:37.000Z</time>
      </trkpt>
      <trkpt lat="43.33626" lon="5.66463">
        <ele>463</ele>
        <time>2019-01-18T13:24:38.000Z</time>
      </trkpt>
      <trkpt lat="43.33626" lon="5.66462">
        <ele>463</ele>
        <time>2019-01-18T13:24:39.000Z</time>
      </trkpt>
      <trkpt lat="43.33627" lon="5.66461">
        <ele>463</ele>
        <time>2019-01-18T13:24:40.000Z</time>
      </trkpt>
      <trkpt lat="43.33628" lon="5.6646">
        <ele>463</ele>
        <time>2019-01-18T13:24:41.000Z</time>
      </trkpt>
      <trkpt lat="43.33629" lon="5.6646">
        <ele>463</ele>
        <time>2019-01-18T13:24:42.000Z</time>
      </trkpt>
      <trkpt lat="43.33629" lon="5.66459">
        <ele>463</ele>
        <time>2019-01-18T13:24:43.000Z</time>
      </trkpt>
      <trkpt lat="43.3363" lon="5.66458">
        <ele>462</ele>
        <time>2019-01-18T13:24:44.000Z</time>
      </trkpt>
      <trkpt lat="43.3363" lon="5.66457">
        <ele>462</ele>
        <time>2019-01-18T13:24:45.000Z</time>
      </trkpt>
      <trkpt lat="43.33631" lon="5.66456">
        <ele>462</ele>
        <time>2019-01-18T13:24:46.000Z</time>
      </trkpt>
      <trkpt lat="43.33632" lon="5.66455">
        <ele>462</ele>
        <time>2019-01-18T13:24:47.000Z</time>
      </trkpt>
      <trkpt lat="43.33632" lon="5.66454">
        <ele>462</ele>
        <time>2019-01-18T13:24:48.000Z</time>
      </trkpt>
      <trkpt lat="43.33633" lon="5.66454">
        <ele>462</ele>
        <time>2019-01-18T13:24:49.000Z</time>
      </trkpt>
      <trkpt lat="43.33634" lon="5.66453">
        <ele>462</ele>
        <time>2019-01-18T13:24:50.000Z</time>
      </trkpt>
      <trkpt lat="43.33635" lon="5.66452">
        <ele>462</ele>
        <time>2019-01-18T13:24:51.000Z</time>
      </trkpt>
      <trkpt lat="43.33635" lon="5.66451">
        <ele>462</ele>
        <time>2019-01-18T13:24:52.000Z</time>
      </trkpt>
      <trkpt lat="43.33636" lon="5.6645">
        <ele>462</ele>
        <time>2019-01-18T13:24:53.000Z</time>
      </trkpt>
      <trkpt lat="43.33637" lon="5.66449">
        <ele>462</ele>
        <time>2019-01-18T13:24:54.000Z</time>
      </trkpt>
      <trkpt lat="43.33637" lon="5.66449">
        <ele>462</ele>
        <time>2019-01-18T13:24:55.000Z</time>
      </trkpt>
      <trkpt lat="43.33638" lon="5.66448">
        <ele>461</ele>
        <time>2019-01-18T13:24:56.000Z</time>
      </trkpt>
      <trkpt lat="43.33639" lon="5.66447">
        <ele>461</ele>
        <time>2019-01-18T13:24:57.000Z</time>
      </trkpt>
      <trkpt lat="43.33639" lon="5.66446">
        <ele>461</ele>
        <time>2019-01-18T13:24:58.000Z</time>
      </trkpt>
      <trkpt lat="43.3364" lon="5.66445">
        <ele>461</ele>
        <time>2019-01-18T13:24:59.000Z</time>
      </trkpt>
      <trkpt lat="43.33641" lon="5.66444">
        <ele>461</ele>
        <time>2019-01-18T13:25:00.000Z</time>
      </trkpt>
      <trkpt lat="43.33641" lon="5.66443">
        <ele>461</ele>
        <time>2019-01-18T13:25:01.000Z</time>
      </trkpt>
      <trkpt lat="43.33642" lon="5.66442">
        <ele>460</ele>
        <time>2019-01-18T13:25:02.000Z</time>
      </trkpt>
      <trkpt lat="43.33642" lon="5.66441">
        <ele>460</ele>
        <time>2019-01-18T13:25:03.000Z</time>
      </trkpt>
      <trkpt lat="43.33643" lon="5.6644">
        <ele>460</ele>
        <time>2019-01-18T13:25:04.000Z</time>
      </trkpt>
      <trkpt lat="43.33644" lon="5.6644">
        <ele>460</ele>
        <time>2019-01-18T13:25:05.000Z</time>
      </trkpt>
      <trkpt lat="43.33645" lon="5.66439">
        <ele>460</ele>
        <time>2019-01-18T13:25:06.000Z</time>
      </trkpt>
      <trkpt lat="43.33645" lon="5.66438">
        <ele>459</ele>
        <time>2019-01-18T13:25:07.000Z</time>
      </trkpt>
      <trkpt lat="43.33646" lon="5.66437">
        <ele>459</ele>
        <time>2019-01-18T13:25:08.000Z</time>
      </trkpt>
      <trkpt lat="43.33646" lon="5.66436">
        <ele>459</ele>
        <time>2019-01-18T13:25:09.000Z</time>
      </trkpt>
      <trkpt lat="43.33647" lon="5.66435">
        <ele>459</ele>
        <time>2019-01-18T13:25:10.000Z</time>
      </trkpt>
      <trkpt lat="43.33647" lon="5.66435">
        <ele>459</ele>
        <time>2019-01-18T13:25:11.000Z</time>
      </trkpt>
      <trkpt lat="43.33648" lon="5.66435">
        <ele>459</ele>
        <time>2019-01-18T13:25:12.000Z</time>
      </trkpt>
      <trkpt lat="43.33648" lon="5.66434">
        <ele>459</ele>
        <time>2019-01-18T13:25:13.000Z</time>
      </trkpt>
      <trkpt lat="43.33649" lon="5.66433">
        <ele>459</ele>
        <time>2019-01-18T13:25:14.000Z</time>
      </trkpt>
      <trkpt lat="43.33649" lon="5.66432">
        <ele>458</ele>
        <time>2019-01-18T13:25:15.000Z</time>
      </trkpt>
      <trkpt lat="43.3365" lon="5.66432">
        <ele>458</ele>
        <time>2019-01-18T13:25:16.000Z</time>
      </trkpt>
      <trkpt lat="43.3365" lon="5.66431">
        <ele>458</ele>
        <time>2019-01-18T13:25:17.000Z</time>
      </trkpt>
      <trkpt lat="43.33651" lon="5.6643">
        <ele>458</ele>
        <time>2019-01-18T13:25:18.000Z</time>
      </trkpt>
      <trkpt lat="43.33651" lon="5.66429">
        <ele>458</ele>
        <time>2019-01-18T13:25:19.000Z</time>
      </trkpt>
      <trkpt lat="43.33652" lon="5.66428">
        <ele>458</ele>
        <time>2019-01-18T13:25:20.000Z</time>
      </trkpt>
      <trkpt lat="43.33653" lon="5.66428">
        <ele>457</ele>
        <time>2019-01-18T13:25:21.000Z</time>
      </trkpt>
      <trkpt lat="43.33653" lon="5.66427">
        <ele>457</ele>
        <time>2019-01-18T13:25:22.000Z</time>
      </trkpt>
      <trkpt lat="43.33654" lon="5.66426">
        <ele>457</ele>
        <time>2019-01-18T13:25:23.000Z</time>
      </trkpt>
      <trkpt lat="43.33655" lon="5.66425">
        <ele>457</ele>
        <time>2019-01-18T13:25:24.000Z</time>
      </trkpt>
      <trkpt lat="43.33655" lon="5.66425">
        <ele>457</ele>
        <time>2019-01-18T13:25:25.000Z</time>
      </trkpt>
      <trkpt lat="43.33656" lon="5.66424">
        <ele>456</ele>
        <time>2019-01-18T13:25:26.000Z</time>
      </trkpt>
      <trkpt lat="43.33656" lon="5.66423">
        <ele>456</ele>
        <time>2019-01-18T13:25:27.000Z</time>
      </trkpt>
      <trkpt lat="43.33657" lon="5.66423">
        <ele>456</ele>
        <time>2019-01-18T13:25:28.000Z</time>
      </trkpt>
      <trkpt lat="43.33657" lon="5.66422">
        <ele>456</ele>
        <time>2019-01-18T13:25:29.000Z</time>
      </trkpt>
      <trkpt lat="43.33658" lon="5.66421">
        <ele>455</ele>
        <time>2019-01-18T13:25:30.000Z</time>
      </trkpt>
      <trkpt lat="43.33658" lon="5.66421">
        <ele>455</ele>
        <time>2019-01-18T13:25:31.000Z</time>
      </trkpt>
      <trkpt lat="43.33659" lon="5.66419">
        <ele>455</ele>
        <time>2019-01-18T13:25:32.000Z</time>
      </trkpt>
      <trkpt lat="43.3366" lon="5.66419">
        <ele>455</ele>
        <time>2019-01-18T13:25:33.000Z</time>
      </trkpt>
      <trkpt lat="43.33661" lon="5.66418">
        <ele>455</ele>
        <time>2019-01-18T13:25:34.000Z</time>
      </trkpt>
      <trkpt lat="43.33661" lon="5.66418">
        <ele>455</ele>
        <time>2019-01-18T13:25:35.000Z</time>
      </trkpt>
      <trkpt lat="43.33661" lon="5.66417">
        <ele>454</ele>
        <time>2019-01-18T13:25:36.000Z</time>
      </trkpt>
      <trkpt lat="43.33661" lon="5.66416">
        <ele>454</ele>
        <time>2019-01-18T13:25:37.000Z</time>
      </trkpt>
      <trkpt lat="43.33662" lon="5.66415">
        <ele>454</ele>
        <time>2019-01-18T13:25:38.000Z</time>
      </trkpt>
      <trkpt lat="43.33662" lon="5.66415">
        <ele>454</ele>
        <time>2019-01-18T13:25:39.000Z</time>
      </trkpt>
      <trkpt lat="43.33663" lon="5.66414">
        <ele>454</ele>
        <time>2019-01-18T13:25:40.000Z</time>
      </trkpt>
      <trkpt lat="43.33664" lon="5.66413">
        <ele>453</ele>
        <time>2019-01-18T13:25:41.000Z</time>
      </trkpt>
      <trkpt lat="43.33664" lon="5.66412">
        <ele>453</ele>
        <time>2019-01-18T13:25:42.000Z</time>
      </trkpt>
      <trkpt lat="43.33665" lon="5.66411">
        <ele>453</ele>
        <time>2019-01-18T13:25:43.000Z</time>
      </trkpt>
      <trkpt lat="43.33666" lon="5.66411">
        <ele>452</ele>
        <time>2019-01-18T13:25:44.000Z</time>
      </trkpt>
      <trkpt lat="43.33666" lon="5.6641">
        <ele>452</ele>
        <time>2019-01-18T13:25:45.000Z</time>
      </trkpt>
      <trkpt lat="43.33667" lon="5.66409">
        <ele>452</ele>
        <time>2019-01-18T13:25:46.000Z</time>
      </trkpt>
      <trkpt lat="43.33668" lon="5.66409">
        <ele>451</ele>
        <time>2019-01-18T13:25:47.000Z</time>
      </trkpt>
      <trkpt lat="43.33668" lon="5.66408">
        <ele>451</ele>
        <time>2019-01-18T13:25:48.000Z</time>
      </trkpt>
      <trkpt lat="43.33669" lon="5.66407">
        <ele>451</ele>
        <time>2019-01-18T13:25:49.000Z</time>
      </trkpt>
      <trkpt lat="43.3367" lon="5.66407">
        <ele>451</ele>
        <time>2019-01-18T13:25:50.000Z</time>
      </trkpt>
      <trkpt lat="43.3367" lon="5.66406">
        <ele>450</ele>
        <time>2019-01-18T13:25:51.000Z</time>
      </trkpt>
      <trkpt lat="43.33671" lon="5.66405">
        <ele>450</ele>
        <time>2019-01-18T13:25:52.000Z</time>
      </trkpt>
      <trkpt lat="43.33672" lon="5.66404">
        <ele>450</ele>
        <time>2019-01-18T13:25:53.000Z</time>
      </trkpt>
      <trkpt lat="43.33673" lon="5.66404">
        <ele>450</ele>
        <time>2019-01-18T13:25:54.000Z</time>
      </trkpt>
      <trkpt lat="43.33673" lon="5.66403">
        <ele>450</ele>
        <time>2019-01-18T13:25:55.000Z</time>
      </trkpt>
      <trkpt lat="43.33674" lon="5.66402">
        <ele>449</ele>
        <time>2019-01-18T13:25:56.000Z</time>
      </trkpt>
      <trkpt lat="43.33674" lon="5.66401">
        <ele>449</ele>
        <time>2019-01-18T13:25:57.000Z</time>
      </trkpt>
      <trkpt lat="43.33675" lon="5.664">
        <ele>449</ele>
        <time>2019-01-18T13:25:58.000Z</time>
      </trkpt>
      <trkpt lat="43.33675" lon="5.66399">
        <ele>449</ele>
        <time>2019-01-18T13:25:59.000Z</time>
      </trkpt>
      <trkpt lat="43.33675" lon="5.66397">
        <ele>449</ele>
        <time>2019-01-18T13:26:00.000Z</time>
      </trkpt>
      <trkpt lat="43.33675" lon="5.66396">
        <ele>449</ele>
        <time>2019-01-18T13:26:01.000Z</time>
      </trkpt>
      <trkpt lat="43.33675" lon="5.66395">
        <ele>449</ele>
        <time>2019-01-18T13:26:02.000Z</time>
      </trkpt>
      <trkpt lat="43.33676" lon="5.66394">
        <ele>449</ele>
        <time>2019-01-18T13:26:03.000Z</time>
      </trkpt>
      <trkpt lat="43.33676" lon="5.66393">
        <ele>449</ele>
        <time>2019-01-18T13:26:04.000Z</time>
      </trkpt>
      <trkpt lat="43.33676" lon="5.66392">
        <ele>449</ele>
        <time>2019-01-18T13:26:05.000Z</time>
      </trkpt>
      <trkpt lat="43.33676" lon="5.66392">
        <ele>449</ele>
        <time>2019-01-18T13:26:06.000Z</time>
      </trkpt>
      <trkpt lat="43.33676" lon="5.66392">
        <ele>449</ele>
        <time>2019-01-18T13:26:07.000Z</time>
      </trkpt>
      <trkpt lat="43.33676" lon="5.66391">
        <ele>449</ele>
        <time>2019-01-18T13:26:08.000Z</time>
      </trkpt>
      <trkpt lat="43.33676" lon="5.66391">
        <ele>449</ele>
        <time>2019-01-18T13:26:09.000Z</time>
      </trkpt>
      <trkpt lat="43.33676" lon="5.66391">
        <ele>449</ele>
        <time>2019-01-18T13:26:10.000Z</time>
      </trkpt>
      <trkpt lat="43.33677" lon="5.66391">
        <ele>449</ele>
        <time>2019-01-18T13:26:11.000Z</time>
      </trkpt>
      <trkpt lat="43.33677" lon="5.66391">
        <ele>449</ele>
        <time>2019-01-18T13:26:12.000Z</time>
      </trkpt>
      <trkpt lat="43.33677" lon="5.6639">
        <ele>449</ele>
        <time>2019-01-18T13:26:13.000Z</time>
      </trkpt>
      <trkpt lat="43.33678" lon="5.6639">
        <ele>449</ele>
        <time>2019-01-18T13:26:14.000Z</time>
      </trkpt>
      <trkpt lat="43.33678" lon="5.66389">
        <ele>449</ele>
        <time>2019-01-18T13:26:15.000Z</time>
      </trkpt>
      <trkpt lat="43.33678" lon="5.66388">
        <ele>448</ele>
        <time>2019-01-18T13:26:16.000Z</time>
      </trkpt>
      <trkpt lat="43.33679" lon="5.66387">
        <ele>448</ele>
        <time>2019-01-18T13:26:17.000Z</time>
      </trkpt>
      <trkpt lat="43.33679" lon="5.66386">
        <ele>448</ele>
        <time>2019-01-18T13:26:18.000Z</time>
      </trkpt>
      <trkpt lat="43.33679" lon="5.66385">
        <ele>448</ele>
        <time>2019-01-18T13:26:19.000Z</time>
      </trkpt>
      <trkpt lat="43.3368" lon="5.66385">
        <ele>448</ele>
        <time>2019-01-18T13:26:20.000Z</time>
      </trkpt>
      <trkpt lat="43.3368" lon="5.66384">
        <ele>448</ele>
        <time>2019-01-18T13:26:21.000Z</time>
      </trkpt>
      <trkpt lat="43.3368" lon="5.66383">
        <ele>448</ele>
        <time>2019-01-18T13:26:22.000Z</time>
      </trkpt>
      <trkpt lat="43.3368" lon="5.66382">
        <ele>448</ele>
        <time>2019-01-18T13:26:23.000Z</time>
      </trkpt>
      <trkpt lat="43.33681" lon="5.6638">
        <ele>448</ele>
        <time>2019-01-18T13:26:24.000Z</time>
      </trkpt>
      <trkpt lat="43.33681" lon="5.66379">
        <ele>448</ele>
        <time>2019-01-18T13:26:25.000Z</time>
      </trkpt>
      <trkpt lat="43.33682" lon="5.66377">
        <ele>448</ele>
        <time>2019-01-18T13:26:26.000Z</time>
      </trkpt>
      <trkpt lat="43.33682" lon="5.66376">
        <ele>447</ele>
        <time>2019-01-18T13:26:27.000Z</time>
      </trkpt>
      <trkpt lat="43.33683" lon="5.66375">
        <ele>447</ele>
        <time>2019-01-18T13:26:28.000Z</time>
      </trkpt>
      <trkpt lat="43.33683" lon="5.66373">
        <ele>447</ele>
        <time>2019-01-18T13:26:29.000Z</time>
      </trkpt>
      <trkpt lat="43.33684" lon="5.66372">
        <ele>447</ele>
        <time>2019-01-18T13:26:30.000Z</time>
      </trkpt>
      <trkpt lat="43.33685" lon="5.6637">
        <ele>447</ele>
        <time>2019-01-18T13:26:31.000Z</time>
      </trkpt>
      <trkpt lat="43.33685" lon="5.66369">
        <ele>447</ele>
        <time>2019-01-18T13:26:32.000Z</time>
      </trkpt>
      <trkpt lat="43.33686" lon="5.66368">
        <ele>447</ele>
        <time>2019-01-18T13:26:33.000Z</time>
      </trkpt>
      <trkpt lat="43.33687" lon="5.66367">
        <ele>447</ele>
        <time>2019-01-18T13:26:34.000Z</time>
      </trkpt>
      <trkpt lat="43.33688" lon="5.66366">
        <ele>446</ele>
        <time>2019-01-18T13:26:35.000Z</time>
      </trkpt>
      <trkpt lat="43.33689" lon="5.66365">
        <ele>446</ele>
        <time>2019-01-18T13:26:36.000Z</time>
      </trkpt>
      <trkpt lat="43.3369" lon="5.66365">
        <ele>446</ele>
        <time>2019-01-18T13:26:37.000Z</time>
      </trkpt>
      <trkpt lat="43.33691" lon="5.66364">
        <ele>446</ele>
        <time>2019-01-18T13:26:38.000Z</time>
      </trkpt>
      <trkpt lat="43.33693" lon="5.66364">
        <ele>446</ele>
        <time>2019-01-18T13:26:39.000Z</time>
      </trkpt>
      <trkpt lat="43.33693" lon="5.66364">
        <ele>446</ele>
        <time>2019-01-18T13:26:40.000Z</time>
      </trkpt>
      <trkpt lat="43.33694" lon="5.66364">
        <ele>445</ele>
        <time>2019-01-18T13:26:41.000Z</time>
      </trkpt>
      <trkpt lat="43.33695" lon="5.66364">
        <ele>445</ele>
        <time>2019-01-18T13:26:42.000Z</time>
      </trkpt>
      <trkpt lat="43.33696" lon="5.66364">
        <ele>445</ele>
        <time>2019-01-18T13:26:43.000Z</time>
      </trkpt>
      <trkpt lat="43.33697" lon="5.66364">
        <ele>445</ele>
        <time>2019-01-18T13:26:44.000Z</time>
      </trkpt>
      <trkpt lat="43.33697" lon="5.66364">
        <ele>445</ele>
        <time>2019-01-18T13:26:45.000Z</time>
      </trkpt>
      <trkpt lat="43.33698" lon="5.66363">
        <ele>445</ele>
        <time>2019-01-18T13:26:46.000Z</time>
      </trkpt>
      <trkpt lat="43.33699" lon="5.66362">
        <ele>445</ele>
        <time>2019-01-18T13:26:47.000Z</time>
      </trkpt>
      <trkpt lat="43.337" lon="5.66362">
        <ele>444</ele>
        <time>2019-01-18T13:26:48.000Z</time>
      </trkpt>
      <trkpt lat="43.33701" lon="5.66362">
        <ele>444</ele>
        <time>2019-01-18T13:26:49.000Z</time>
      </trkpt>
      <trkpt lat="43.33702" lon="5.66361">
        <ele>444</ele>
        <time>2019-01-18T13:26:50.000Z</time>
      </trkpt>
      <trkpt lat="43.33702" lon="5.66361">
        <ele>444</ele>
        <time>2019-01-18T13:26:51.000Z</time>
      </trkpt>
      <trkpt lat="43.33703" lon="5.66359">
        <ele>444</ele>
        <time>2019-01-18T13:26:52.000Z</time>
      </trkpt>
      <trkpt lat="43.33704" lon="5.66358">
        <ele>444</ele>
        <time>2019-01-18T13:26:53.000Z</time>
      </trkpt>
      <trkpt lat="43.33705" lon="5.66357">
        <ele>444</ele>
        <time>2019-01-18T13:26:54.000Z</time>
      </trkpt>
      <trkpt lat="43.33705" lon="5.66357">
        <ele>443</ele>
        <time>2019-01-18T13:26:55.000Z</time>
      </trkpt>
      <trkpt lat="43.33706" lon="5.66356">
        <ele>443</ele>
        <time>2019-01-18T13:26:56.000Z</time>
      </trkpt>
      <trkpt lat="43.33706" lon="5.66356">
        <ele>443</ele>
        <time>2019-01-18T13:26:57.000Z</time>
      </trkpt>
      <trkpt lat="43.33707" lon="5.66355">
        <ele>443</ele>
        <time>2019-01-18T13:26:58.000Z</time>
      </trkpt>
      <trkpt lat="43.33708" lon="5.66354">
        <ele>443</ele>
        <time>2019-01-18T13:26:59.000Z</time>
      </trkpt>
      <trkpt lat="43.33709" lon="5.66353">
        <ele>443</ele>
        <time>2019-01-18T13:27:00.000Z</time>
      </trkpt>
      <trkpt lat="43.33709" lon="5.66353">
        <ele>443</ele>
        <time>2019-01-18T13:27:01.000Z</time>
      </trkpt>
      <trkpt lat="43.3371" lon="5.66353">
        <ele>443</ele>
        <time>2019-01-18T13:27:02.000Z</time>
      </trkpt>
      <trkpt lat="43.33711" lon="5.66353">
        <ele>443</ele>
        <time>2019-01-18T13:27:03.000Z</time>
      </trkpt>
      <trkpt lat="43.33711" lon="5.66353">
        <ele>442</ele>
        <time>2019-01-18T13:27:04.000Z</time>
      </trkpt>
      <trkpt lat="43.33712" lon="5.66352">
        <ele>442</ele>
        <time>2019-01-18T13:27:05.000Z</time>
      </trkpt>
      <trkpt lat="43.33713" lon="5.66352">
        <ele>442</ele>
        <time>2019-01-18T13:27:06.000Z</time>
      </trkpt>
      <trkpt lat="43.33714" lon="5.66351">
        <ele>442</ele>
        <time>2019-01-18T13:27:07.000Z</time>
      </trkpt>
      <trkpt lat="43.33714" lon="5.66351">
        <ele>442</ele>
        <time>2019-01-18T13:27:08.000Z</time>
      </trkpt>
      <trkpt lat="43.33715" lon="5.6635">
        <ele>442</ele>
        <time>2019-01-18T13:27:09.000Z</time>
      </trkpt>
      <trkpt lat="43.33716" lon="5.66349">
        <ele>442</ele>
        <time>2019-01-18T13:27:10.000Z</time>
      </trkpt>
      <trkpt lat="43.33716" lon="5.66348">
        <ele>441</ele>
        <time>2019-01-18T13:27:11.000Z</time>
      </trkpt>
      <trkpt lat="43.33717" lon="5.66347">
        <ele>441</ele>
        <time>2019-01-18T13:27:12.000Z</time>
      </trkpt>
      <trkpt lat="43.33718" lon="5.66346">
        <ele>441</ele>
        <time>2019-01-18T13:27:13.000Z</time>
      </trkpt>
      <trkpt lat="43.33718" lon="5.66345">
        <ele>441</ele>
        <time>2019-01-18T13:27:14.000Z</time>
      </trkpt>
      <trkpt lat="43.33719" lon="5.66344">
        <ele>441</ele>
        <time>2019-01-18T13:27:15.000Z</time>
      </trkpt>
      <trkpt lat="43.33719" lon="5.66343">
        <ele>441</ele>
        <time>2019-01-18T13:27:16.000Z</time>
      </trkpt>
      <trkpt lat="43.3372" lon="5.66342">
        <ele>441</ele>
        <time>2019-01-18T13:27:17.000Z</time>
      </trkpt>
      <trkpt lat="43.33721" lon="5.6634">
        <ele>440</ele>
        <time>2019-01-18T13:27:18.000Z</time>
      </trkpt>
      <trkpt lat="43.33721" lon="5.66339">
        <ele>440</ele>
        <time>2019-01-18T13:27:19.000Z</time>
      </trkpt>
      <trkpt lat="43.33722" lon="5.66338">
        <ele>440</ele>
        <time>2019-01-18T13:27:20.000Z</time>
      </trkpt>
      <trkpt lat="43.33722" lon="5.66337">
        <ele>440</ele>
        <time>2019-01-18T13:27:21.000Z</time>
      </trkpt>
      <trkpt lat="43.33723" lon="5.66336">
        <ele>440</ele>
        <time>2019-01-18T13:27:22.000Z</time>
      </trkpt>
      <trkpt lat="43.33724" lon="5.66335">
        <ele>440</ele>
        <time>2019-01-18T13:27:23.000Z</time>
      </trkpt>
      <trkpt lat="43.33724" lon="5.66334">
        <ele>440</ele>
        <time>2019-01-18T13:27:24.000Z</time>
      </trkpt>
      <trkpt lat="43.33725" lon="5.66333">
        <ele>440</ele>
        <time>2019-01-18T13:27:25.000Z</time>
      </trkpt>
      <trkpt lat="43.33725" lon="5.66332">
        <ele>440</ele>
        <time>2019-01-18T13:27:26.000Z</time>
      </trkpt>
      <trkpt lat="43.33726" lon="5.6633">
        <ele>439</ele>
        <time>2019-01-18T13:27:27.000Z</time>
      </trkpt>
      <trkpt lat="43.33726" lon="5.66329">
        <ele>439</ele>
        <time>2019-01-18T13:27:28.000Z</time>
      </trkpt>
      <trkpt lat="43.33727" lon="5.66328">
        <ele>439</ele>
        <time>2019-01-18T13:27:29.000Z</time>
      </trkpt>
      <trkpt lat="43.33728" lon="5.66327">
        <ele>439</ele>
        <time>2019-01-18T13:27:30.000Z</time>
      </trkpt>
      <trkpt lat="43.33728" lon="5.66326">
        <ele>439</ele>
        <time>2019-01-18T13:27:31.000Z</time>
      </trkpt>
      <trkpt lat="43.33729" lon="5.66325">
        <ele>439</ele>
        <time>2019-01-18T13:27:32.000Z</time>
      </trkpt>
      <trkpt lat="43.33729" lon="5.66324">
        <ele>439</ele>
        <time>2019-01-18T13:27:33.000Z</time>
      </trkpt>
      <trkpt lat="43.3373" lon="5.66323">
        <ele>439</ele>
        <time>2019-01-18T13:27:34.000Z</time>
      </trkpt>
      <trkpt lat="43.33731" lon="5.66322">
        <ele>439</ele>
        <time>2019-01-18T13:27:35.000Z</time>
      </trkpt>
      <trkpt lat="43.33732" lon="5.66321">
        <ele>439</ele>
        <time>2019-01-18T13:27:36.000Z</time>
      </trkpt>
      <trkpt lat="43.33733" lon="5.6632">
        <ele>438</ele>
        <time>2019-01-18T13:27:37.000Z</time>
      </trkpt>
      <trkpt lat="43.33733" lon="5.66319">
        <ele>438</ele>
        <time>2019-01-18T13:27:38.000Z</time>
      </trkpt>
      <trkpt lat="43.33734" lon="5.66319">
        <ele>438</ele>
        <time>2019-01-18T13:27:39.000Z</time>
      </trkpt>
      <trkpt lat="43.33735" lon="5.66317">
        <ele>438</ele>
        <time>2019-01-18T13:27:40.000Z</time>
      </trkpt>
      <trkpt lat="43.33736" lon="5.66316">
        <ele>438</ele>
        <time>2019-01-18T13:27:41.000Z</time>
      </trkpt>
      <trkpt lat="43.33737" lon="5.66316">
        <ele>438</ele>
        <time>2019-01-18T13:27:42.000Z</time>
      </trkpt>
      <trkpt lat="43.33737" lon="5.66315">
        <ele>438</ele>
        <time>2019-01-18T13:27:43.000Z</time>
      </trkpt>
      <trkpt lat="43.33738" lon="5.66313">
        <ele>438</ele>
        <time>2019-01-18T13:27:44.000Z</time>
      </trkpt>
      <trkpt lat="43.33739" lon="5.66312">
        <ele>438</ele>
        <time>2019-01-18T13:27:45.000Z</time>
      </trkpt>
      <trkpt lat="43.3374" lon="5.66312">
        <ele>437</ele>
        <time>2019-01-18T13:27:46.000Z</time>
      </trkpt>
      <trkpt lat="43.33741" lon="5.66311">
        <ele>437</ele>
        <time>2019-01-18T13:27:47.000Z</time>
      </trkpt>
      <trkpt lat="43.33741" lon="5.66309">
        <ele>437</ele>
        <time>2019-01-18T13:27:48.000Z</time>
      </trkpt>
      <trkpt lat="43.33742" lon="5.66308">
        <ele>437</ele>
        <time>2019-01-18T13:27:49.000Z</time>
      </trkpt>
      <trkpt lat="43.33743" lon="5.66307">
        <ele>437</ele>
        <time>2019-01-18T13:27:50.000Z</time>
      </trkpt>
      <trkpt lat="43.33744" lon="5.66306">
        <ele>437</ele>
        <time>2019-01-18T13:27:51.000Z</time>
      </trkpt>
      <trkpt lat="43.33744" lon="5.66304">
        <ele>437</ele>
        <time>2019-01-18T13:27:52.000Z</time>
      </trkpt>
      <trkpt lat="43.33745" lon="5.66303">
        <ele>437</ele>
        <time>2019-01-18T13:27:53.000Z</time>
      </trkpt>
      <trkpt lat="43.33746" lon="5.66301">
        <ele>437</ele>
        <time>2019-01-18T13:27:54.000Z</time>
      </trkpt>
      <trkpt lat="43.33746" lon="5.663">
        <ele>437</ele>
        <time>2019-01-18T13:27:55.000Z</time>
      </trkpt>
      <trkpt lat="43.33747" lon="5.66298">
        <ele>437</ele>
        <time>2019-01-18T13:27:56.000Z</time>
      </trkpt>
      <trkpt lat="43.33748" lon="5.66297">
        <ele>437</ele>
        <time>2019-01-18T13:27:57.000Z</time>
      </trkpt>
      <trkpt lat="43.33748" lon="5.66295">
        <ele>437</ele>
        <time>2019-01-18T13:27:58.000Z</time>
      </trkpt>
      <trkpt lat="43.33749" lon="5.66294">
        <ele>437</ele>
        <time>2019-01-18T13:27:59.000Z</time>
      </trkpt>
      <trkpt lat="43.3375" lon="5.66293">
        <ele>437</ele>
        <time>2019-01-18T13:28:00.000Z</time>
      </trkpt>
      <trkpt lat="43.3375" lon="5.66291">
        <ele>437</ele>
        <time>2019-01-18T13:28:01.000Z</time>
      </trkpt>
      <trkpt lat="43.33751" lon="5.6629">
        <ele>437</ele>
        <time>2019-01-18T13:28:02.000Z</time>
      </trkpt>
      <trkpt lat="43.33751" lon="5.66288">
        <ele>437</ele>
        <time>2019-01-18T13:28:03.000Z</time>
      </trkpt>
      <trkpt lat="43.33752" lon="5.66287">
        <ele>437</ele>
        <time>2019-01-18T13:28:04.000Z</time>
      </trkpt>
      <trkpt lat="43.33753" lon="5.66285">
        <ele>437</ele>
        <time>2019-01-18T13:28:05.000Z</time>
      </trkpt>
      <trkpt lat="43.33753" lon="5.66284">
        <ele>437</ele>
        <time>2019-01-18T13:28:06.000Z</time>
      </trkpt>
      <trkpt lat="43.33754" lon="5.66283">
        <ele>437</ele>
        <time>2019-01-18T13:28:07.000Z</time>
      </trkpt>
      <trkpt lat="43.33754" lon="5.66281">
        <ele>437</ele>
        <time>2019-01-18T13:28:08.000Z</time>
      </trkpt>
      <trkpt lat="43.33755" lon="5.6628">
        <ele>436</ele>
        <time>2019-01-18T13:28:09.000Z</time>
      </trkpt>
      <trkpt lat="43.33756" lon="5.66279">
        <ele>436</ele>
        <time>2019-01-18T13:28:10.000Z</time>
      </trkpt>
      <trkpt lat="43.33756" lon="5.66279">
        <ele>436</ele>
        <time>2019-01-18T13:28:11.000Z</time>
      </trkpt>
      <trkpt lat="43.33757" lon="5.66278">
        <ele>436</ele>
        <time>2019-01-18T13:28:12.000Z</time>
      </trkpt>
      <trkpt lat="43.33758" lon="5.66277">
        <ele>436</ele>
        <time>2019-01-18T13:28:13.000Z</time>
      </trkpt>
      <trkpt lat="43.33758" lon="5.66276">
        <ele>436</ele>
        <time>2019-01-18T13:28:14.000Z</time>
      </trkpt>
      <trkpt lat="43.33758" lon="5.66276">
        <ele>436</ele>
        <time>2019-01-18T13:28:15.000Z</time>
      </trkpt>
      <trkpt lat="43.33759" lon="5.66275">
        <ele>435</ele>
        <time>2019-01-18T13:28:16.000Z</time>
      </trkpt>
      <trkpt lat="43.3376" lon="5.66274">
        <ele>435</ele>
        <time>2019-01-18T13:28:17.000Z</time>
      </trkpt>
      <trkpt lat="43.3376" lon="5.66273">
        <ele>435</ele>
        <time>2019-01-18T13:28:18.000Z</time>
      </trkpt>
      <trkpt lat="43.33761" lon="5.66272">
        <ele>435</ele>
        <time>2019-01-18T13:28:19.000Z</time>
      </trkpt>
      <trkpt lat="43.33761" lon="5.66271">
        <ele>435</ele>
        <time>2019-01-18T13:28:20.000Z</time>
      </trkpt>
      <trkpt lat="43.33761" lon="5.6627">
        <ele>435</ele>
        <time>2019-01-18T13:28:21.000Z</time>
      </trkpt>
      <trkpt lat="43.33762" lon="5.66269">
        <ele>435</ele>
        <time>2019-01-18T13:28:22.000Z</time>
      </trkpt>
      <trkpt lat="43.33763" lon="5.66268">
        <ele>435</ele>
        <time>2019-01-18T13:28:23.000Z</time>
      </trkpt>
      <trkpt lat="43.33763" lon="5.66267">
        <ele>435</ele>
        <time>2019-01-18T13:28:24.000Z</time>
      </trkpt>
      <trkpt lat="43.33764" lon="5.66266">
        <ele>435</ele>
        <time>2019-01-18T13:28:25.000Z</time>
      </trkpt>
      <trkpt lat="43.33764" lon="5.66266">
        <ele>435</ele>
        <time>2019-01-18T13:28:26.000Z</time>
      </trkpt>
      <trkpt lat="43.33765" lon="5.66265">
        <ele>435</ele>
        <time>2019-01-18T13:28:27.000Z</time>
      </trkpt>
      <trkpt lat="43.33765" lon="5.66264">
        <ele>435</ele>
        <time>2019-01-18T13:28:28.000Z</time>
      </trkpt>
      <trkpt lat="43.33766" lon="5.66263">
        <ele>435</ele>
        <time>2019-01-18T13:28:29.000Z</time>
      </trkpt>
      <trkpt lat="43.33767" lon="5.66262">
        <ele>435</ele>
        <time>2019-01-18T13:28:30.000Z</time>
      </trkpt>
      <trkpt lat="43.33767" lon="5.66261">
        <ele>435</ele>
        <time>2019-01-18T13:28:31.000Z</time>
      </trkpt>
      <trkpt lat="43.33768" lon="5.6626">
        <ele>434</ele>
        <time>2019-01-18T13:28:32.000Z</time>
      </trkpt>
      <trkpt lat="43.33769" lon="5.66259">
        <ele>434</ele>
        <time>2019-01-18T13:28:33.000Z</time>
      </trkpt>
      <trkpt lat="43.33769" lon="5.66258">
        <ele>434</ele>
        <time>2019-01-18T13:28:34.000Z</time>
      </trkpt>
      <trkpt lat="43.3377" lon="5.66256">
        <ele>434</ele>
        <time>2019-01-18T13:28:35.000Z</time>
      </trkpt>
      <trkpt lat="43.3377" lon="5.66255">
        <ele>434</ele>
        <time>2019-01-18T13:28:36.000Z</time>
      </trkpt>
      <trkpt lat="43.33771" lon="5.66254">
        <ele>434</ele>
        <time>2019-01-18T13:28:37.000Z</time>
      </trkpt>
      <trkpt lat="43.33771" lon="5.66253">
        <ele>434</ele>
        <time>2019-01-18T13:28:38.000Z</time>
      </trkpt>
      <trkpt lat="43.33772" lon="5.66252">
        <ele>434</ele>
        <time>2019-01-18T13:28:39.000Z</time>
      </trkpt>
      <trkpt lat="43.33772" lon="5.66251">
        <ele>434</ele>
        <time>2019-01-18T13:28:40.000Z</time>
      </trkpt>
      <trkpt lat="43.33773" lon="5.6625">
        <ele>434</ele>
        <time>2019-01-18T13:28:41.000Z</time>
      </trkpt>
      <trkpt lat="43.33773" lon="5.6625">
        <ele>434</ele>
        <time>2019-01-18T13:28:42.000Z</time>
      </trkpt>
      <trkpt lat="43.33774" lon="5.66248">
        <ele>434</ele>
        <time>2019-01-18T13:28:43.000Z</time>
      </trkpt>
      <trkpt lat="43.33774" lon="5.66247">
        <ele>433</ele>
        <time>2019-01-18T13:28:44.000Z</time>
      </trkpt>
      <trkpt lat="43.33775" lon="5.66245">
        <ele>433</ele>
        <time>2019-01-18T13:28:45.000Z</time>
      </trkpt>
      <trkpt lat="43.33775" lon="5.66244">
        <ele>433</ele>
        <time>2019-01-18T13:28:46.000Z</time>
      </trkpt>
      <trkpt lat="43.33776" lon="5.66243">
        <ele>433</ele>
        <time>2019-01-18T13:28:47.000Z</time>
      </trkpt>
      <trkpt lat="43.33776" lon="5.66241">
        <ele>433</ele>
        <time>2019-01-18T13:28:48.000Z</time>
      </trkpt>
      <trkpt lat="43.33777" lon="5.6624">
        <ele>433</ele>
        <time>2019-01-18T13:28:49.000Z</time>
      </trkpt>
      <trkpt lat="43.33777" lon="5.66238">
        <ele>433</ele>
        <time>2019-01-18T13:28:50.000Z</time>
      </trkpt>
      <trkpt lat="43.33778" lon="5.66237">
        <ele>433</ele>
        <time>2019-01-18T13:28:51.000Z</time>
      </trkpt>
      <trkpt lat="43.33778" lon="5.66236">
        <ele>433</ele>
        <time>2019-01-18T13:28:52.000Z</time>
      </trkpt>
      <trkpt lat="43.33779" lon="5.66235">
        <ele>432</ele>
        <time>2019-01-18T13:28:53.000Z</time>
      </trkpt>
      <trkpt lat="43.3378" lon="5.66234">
        <ele>432</ele>
        <time>2019-01-18T13:28:54.000Z</time>
      </trkpt>
      <trkpt lat="43.3378" lon="5.66234">
        <ele>432</ele>
        <time>2019-01-18T13:28:55.000Z</time>
      </trkpt>
      <trkpt lat="43.33781" lon="5.66233">
        <ele>432</ele>
        <time>2019-01-18T13:28:56.000Z</time>
      </trkpt>
      <trkpt lat="43.33782" lon="5.66232">
        <ele>432</ele>
        <time>2019-01-18T13:28:57.000Z</time>
      </trkpt>
      <trkpt lat="43.33783" lon="5.66231">
        <ele>432</ele>
        <time>2019-01-18T13:28:58.000Z</time>
      </trkpt>
      <trkpt lat="43.33783" lon="5.6623">
        <ele>431</ele>
        <time>2019-01-18T13:28:59.000Z</time>
      </trkpt>
      <trkpt lat="43.33784" lon="5.66229">
        <ele>431</ele>
        <time>2019-01-18T13:29:00.000Z</time>
      </trkpt>
      <trkpt lat="43.33785" lon="5.66228">
        <ele>431</ele>
        <time>2019-01-18T13:29:01.000Z</time>
      </trkpt>
      <trkpt lat="43.33786" lon="5.66227">
        <ele>431</ele>
        <time>2019-01-18T13:29:02.000Z</time>
      </trkpt>
      <trkpt lat="43.33787" lon="5.66226">
        <ele>431</ele>
        <time>2019-01-18T13:29:03.000Z</time>
      </trkpt>
      <trkpt lat="43.33787" lon="5.66226">
        <ele>431</ele>
        <time>2019-01-18T13:29:04.000Z</time>
      </trkpt>
      <trkpt lat="43.33788" lon="5.66225">
        <ele>431</ele>
        <time>2019-01-18T13:29:05.000Z</time>
      </trkpt>
      <trkpt lat="43.33789" lon="5.66224">
        <ele>431</ele>
        <time>2019-01-18T13:29:06.000Z</time>
      </trkpt>
      <trkpt lat="43.33789" lon="5.66223">
        <ele>431</ele>
        <time>2019-01-18T13:29:07.000Z</time>
      </trkpt>
      <trkpt lat="43.3379" lon="5.66223">
        <ele>431</ele>
        <time>2019-01-18T13:29:08.000Z</time>
      </trkpt>
      <trkpt lat="43.33791" lon="5.66222">
        <ele>431</ele>
        <time>2019-01-18T13:29:09.000Z</time>
      </trkpt>
      <trkpt lat="43.33792" lon="5.6622">
        <ele>431</ele>
        <time>2019-01-18T13:29:10.000Z</time>
      </trkpt>
      <trkpt lat="43.33792" lon="5.66219">
        <ele>431</ele>
        <time>2019-01-18T13:29:11.000Z</time>
      </trkpt>
      <trkpt lat="43.33793" lon="5.66218">
        <ele>431</ele>
        <time>2019-01-18T13:29:12.000Z</time>
      </trkpt>
      <trkpt lat="43.33793" lon="5.66217">
        <ele>431</ele>
        <time>2019-01-18T13:29:13.000Z</time>
      </trkpt>
      <trkpt lat="43.33794" lon="5.66215">
        <ele>431</ele>
        <time>2019-01-18T13:29:14.000Z</time>
      </trkpt>
      <trkpt lat="43.33795" lon="5.66214">
        <ele>431</ele>
        <time>2019-01-18T13:29:15.000Z</time>
      </trkpt>
      <trkpt lat="43.33796" lon="5.66213">
        <ele>431</ele>
        <time>2019-01-18T13:29:16.000Z</time>
      </trkpt>
      <trkpt lat="43.33796" lon="5.66212">
        <ele>431</ele>
        <time>2019-01-18T13:29:17.000Z</time>
      </trkpt>
      <trkpt lat="43.33797" lon="5.66211">
        <ele>431</ele>
        <time>2019-01-18T13:29:18.000Z</time>
      </trkpt>
      <trkpt lat="43.33797" lon="5.6621">
        <ele>431</ele>
        <time>2019-01-18T13:29:19.000Z</time>
      </trkpt>
      <trkpt lat="43.33797" lon="5.66209">
        <ele>431</ele>
        <time>2019-01-18T13:29:20.000Z</time>
      </trkpt>
      <trkpt lat="43.33798" lon="5.66209">
        <ele>431</ele>
        <time>2019-01-18T13:29:21.000Z</time>
      </trkpt>
      <trkpt lat="43.33798" lon="5.66208">
        <ele>431</ele>
        <time>2019-01-18T13:29:22.000Z</time>
      </trkpt>
      <trkpt lat="43.33799" lon="5.66207">
        <ele>431</ele>
        <time>2019-01-18T13:29:23.000Z</time>
      </trkpt>
      <trkpt lat="43.338" lon="5.66206">
        <ele>431</ele>
        <time>2019-01-18T13:29:24.000Z</time>
      </trkpt>
      <trkpt lat="43.33801" lon="5.66205">
        <ele>431</ele>
        <time>2019-01-18T13:29:25.000Z</time>
      </trkpt>
      <trkpt lat="43.33802" lon="5.66205">
        <ele>431</ele>
        <time>2019-01-18T13:29:26.000Z</time>
      </trkpt>
      <trkpt lat="43.33803" lon="5.66204">
        <ele>431</ele>
        <time>2019-01-18T13:29:27.000Z</time>
      </trkpt>
      <trkpt lat="43.33804" lon="5.66204">
        <ele>431</ele>
        <time>2019-01-18T13:29:28.000Z</time>
      </trkpt>
      <trkpt lat="43.33805" lon="5.66204">
        <ele>431</ele>
        <time>2019-01-18T13:29:29.000Z</time>
      </trkpt>
      <trkpt lat="43.33807" lon="5.66204">
        <ele>431</ele>
        <time>2019-01-18T13:29:30.000Z</time>
      </trkpt>
      <trkpt lat="43.33808" lon="5.66204">
        <ele>431</ele>
        <time>2019-01-18T13:29:31.000Z</time>
      </trkpt>
      <trkpt lat="43.33808" lon="5.66204">
        <ele>432</ele>
        <time>2019-01-18T13:29:32.000Z</time>
      </trkpt>
      <trkpt lat="43.33809" lon="5.66204">
        <ele>432</ele>
        <time>2019-01-18T13:29:33.000Z</time>
      </trkpt>
      <trkpt lat="43.33809" lon="5.66203">
        <ele>432</ele>
        <time>2019-01-18T13:29:34.000Z</time>
      </trkpt>
      <trkpt lat="43.33809" lon="5.66203">
        <ele>432</ele>
        <time>2019-01-18T13:29:35.000Z</time>
      </trkpt>
      <trkpt lat="43.33809" lon="5.66203">
        <ele>432</ele>
        <time>2019-01-18T13:29:36.000Z</time>
      </trkpt>
      <trkpt lat="43.33809" lon="5.66203">
        <ele>433</ele>
        <time>2019-01-18T13:29:37.000Z</time>
      </trkpt>
      <trkpt lat="43.3381" lon="5.66202">
        <ele>433</ele>
        <time>2019-01-18T13:29:38.000Z</time>
      </trkpt>
      <trkpt lat="43.33811" lon="5.66202">
        <ele>433</ele>
        <time>2019-01-18T13:29:39.000Z</time>
      </trkpt>
      <trkpt lat="43.33811" lon="5.66201">
        <ele>433</ele>
        <time>2019-01-18T13:29:40.000Z</time>
      </trkpt>
      <trkpt lat="43.33812" lon="5.66201">
        <ele>434</ele>
        <time>2019-01-18T13:29:41.000Z</time>
      </trkpt>
      <trkpt lat="43.33813" lon="5.66201">
        <ele>434</ele>
        <time>2019-01-18T13:29:42.000Z</time>
      </trkpt>
      <trkpt lat="43.33814" lon="5.66201">
        <ele>434</ele>
        <time>2019-01-18T13:29:43.000Z</time>
      </trkpt>
      <trkpt lat="43.33815" lon="5.662">
        <ele>435</ele>
        <time>2019-01-18T13:29:44.000Z</time>
      </trkpt>
      <trkpt lat="43.33816" lon="5.662">
        <ele>435</ele>
        <time>2019-01-18T13:29:45.000Z</time>
      </trkpt>
      <trkpt lat="43.33817" lon="5.662">
        <ele>435</ele>
        <time>2019-01-18T13:29:46.000Z</time>
      </trkpt>
      <trkpt lat="43.33817" lon="5.66201">
        <ele>436</ele>
        <time>2019-01-18T13:29:47.000Z</time>
      </trkpt>
      <trkpt lat="43.33818" lon="5.66201">
        <ele>436</ele>
        <time>2019-01-18T13:29:48.000Z</time>
      </trkpt>
      <trkpt lat="43.33819" lon="5.662">
        <ele>436</ele>
        <time>2019-01-18T13:29:49.000Z</time>
      </trkpt>
      <trkpt lat="43.3382" lon="5.662">
        <ele>436</ele>
        <time>2019-01-18T13:29:50.000Z</time>
      </trkpt>
      <trkpt lat="43.33821" lon="5.662">
        <ele>436</ele>
        <time>2019-01-18T13:29:51.000Z</time>
      </trkpt>
      <trkpt lat="43.33822" lon="5.662">
        <ele>436</ele>
        <time>2019-01-18T13:29:52.000Z</time>
      </trkpt>
      <trkpt lat="43.33823" lon="5.66201">
        <ele>436</ele>
        <time>2019-01-18T13:29:53.000Z</time>
      </trkpt>
      <trkpt lat="43.33824" lon="5.662">
        <ele>436</ele>
        <time>2019-01-18T13:29:54.000Z</time>
      </trkpt>
      <trkpt lat="43.33824" lon="5.662">
        <ele>437</ele>
        <time>2019-01-18T13:29:55.000Z</time>
      </trkpt>
      <trkpt lat="43.33825" lon="5.662">
        <ele>437</ele>
        <time>2019-01-18T13:29:56.000Z</time>
      </trkpt>
      <trkpt lat="43.33826" lon="5.662">
        <ele>436</ele>
        <time>2019-01-18T13:29:57.000Z</time>
      </trkpt>
      <trkpt lat="43.33827" lon="5.66201">
        <ele>436</ele>
        <time>2019-01-18T13:29:58.000Z</time>
      </trkpt>
      <trkpt lat="43.33827" lon="5.66201">
        <ele>436</ele>
        <time>2019-01-18T13:29:59.000Z</time>
      </trkpt>
      <trkpt lat="43.33827" lon="5.66201">
        <ele>436</ele>
        <time>2019-01-18T13:30:00.000Z</time>
      </trkpt>
      <trkpt lat="43.33828" lon="5.66201">
        <ele>435</ele>
        <time>2019-01-18T13:30:01.000Z</time>
      </trkpt>
      <trkpt lat="43.33829" lon="5.66201">
        <ele>435</ele>
        <time>2019-01-18T13:30:02.000Z</time>
      </trkpt>
      <trkpt lat="43.3383" lon="5.66201">
        <ele>435</ele>
        <time>2019-01-18T13:30:03.000Z</time>
      </trkpt>
      <trkpt lat="43.33831" lon="5.66202">
        <ele>435</ele>
        <time>2019-01-18T13:30:04.000Z</time>
      </trkpt>
      <trkpt lat="43.33832" lon="5.66202">
        <ele>435</ele>
        <time>2019-01-18T13:30:05.000Z</time>
      </trkpt>
      <trkpt lat="43.33833" lon="5.66202">
        <ele>435</ele>
        <time>2019-01-18T13:30:06.000Z</time>
      </trkpt>
      <trkpt lat="43.33834" lon="5.66202">
        <ele>435</ele>
        <time>2019-01-18T13:30:07.000Z</time>
      </trkpt>
      <trkpt lat="43.33835" lon="5.66201">
        <ele>434</ele>
        <time>2019-01-18T13:30:08.000Z</time>
      </trkpt>
      <trkpt lat="43.33836" lon="5.66201">
        <ele>434</ele>
        <time>2019-01-18T13:30:09.000Z</time>
      </trkpt>
      <trkpt lat="43.33837" lon="5.66201">
        <ele>434</ele>
        <time>2019-01-18T13:30:10.000Z</time>
      </trkpt>
      <trkpt lat="43.33838" lon="5.66201">
        <ele>434</ele>
        <time>2019-01-18T13:30:11.000Z</time>
      </trkpt>
      <trkpt lat="43.3384" lon="5.66201">
        <ele>434</ele>
        <time>2019-01-18T13:30:12.000Z</time>
      </trkpt>
      <trkpt lat="43.33841" lon="5.66202">
        <ele>434</ele>
        <time>2019-01-18T13:30:13.000Z</time>
      </trkpt>
      <trkpt lat="43.33842" lon="5.66202">
        <ele>434</ele>
        <time>2019-01-18T13:30:14.000Z</time>
      </trkpt>
      <trkpt lat="43.33844" lon="5.66202">
        <ele>434</ele>
        <time>2019-01-18T13:30:15.000Z</time>
      </trkpt>
      <trkpt lat="43.33845" lon="5.66202">
        <ele>434</ele>
        <time>2019-01-18T13:30:16.000Z</time>
      </trkpt>
      <trkpt lat="43.33846" lon="5.66203">
        <ele>434</ele>
        <time>2019-01-18T13:30:17.000Z</time>
      </trkpt>
      <trkpt lat="43.33847" lon="5.66203">
        <ele>434</ele>
        <time>2019-01-18T13:30:18.000Z</time>
      </trkpt>
      <trkpt lat="43.33848" lon="5.66203">
        <ele>434</ele>
        <time>2019-01-18T13:30:19.000Z</time>
      </trkpt>
      <trkpt lat="43.33848" lon="5.66203">
        <ele>434</ele>
        <time>2019-01-18T13:30:20.000Z</time>
      </trkpt>
      <trkpt lat="43.33849" lon="5.66204">
        <ele>434</ele>
        <time>2019-01-18T13:30:21.000Z</time>
      </trkpt>
      <trkpt lat="43.33849" lon="5.66204">
        <ele>434</ele>
        <time>2019-01-18T13:30:22.000Z</time>
      </trkpt>
      <trkpt lat="43.3385" lon="5.66204">
        <ele>434</ele>
        <time>2019-01-18T13:30:23.000Z</time>
      </trkpt>
      <trkpt lat="43.33851" lon="5.66204">
        <ele>434</ele>
        <time>2019-01-18T13:30:24.000Z</time>
      </trkpt>
      <trkpt lat="43.33851" lon="5.66205">
        <ele>434</ele>
        <time>2019-01-18T13:30:25.000Z</time>
      </trkpt>
      <trkpt lat="43.33852" lon="5.66205">
        <ele>433</ele>
        <time>2019-01-18T13:30:26.000Z</time>
      </trkpt>
      <trkpt lat="43.33853" lon="5.66206">
        <ele>433</ele>
        <time>2019-01-18T13:30:27.000Z</time>
      </trkpt>
      <trkpt lat="43.33853" lon="5.66207">
        <ele>433</ele>
        <time>2019-01-18T13:30:28.000Z</time>
      </trkpt>
      <trkpt lat="43.33854" lon="5.66207">
        <ele>432</ele>
        <time>2019-01-18T13:30:29.000Z</time>
      </trkpt>
      <trkpt lat="43.33855" lon="5.66207">
        <ele>432</ele>
        <time>2019-01-18T13:30:30.000Z</time>
      </trkpt>
      <trkpt lat="43.33855" lon="5.66207">
        <ele>432</ele>
        <time>2019-01-18T13:30:31.000Z</time>
      </trkpt>
      <trkpt lat="43.33856" lon="5.66208">
        <ele>431</ele>
        <time>2019-01-18T13:30:32.000Z</time>
      </trkpt>
      <trkpt lat="43.33857" lon="5.66208">
        <ele>431</ele>
        <time>2019-01-18T13:30:33.000Z</time>
      </trkpt>
      <trkpt lat="43.33857" lon="5.66209">
        <ele>431</ele>
        <time>2019-01-18T13:30:34.000Z</time>
      </trkpt>
      <trkpt lat="43.33858" lon="5.66209">
        <ele>430</ele>
        <time>2019-01-18T13:30:35.000Z</time>
      </trkpt>
      <trkpt lat="43.33859" lon="5.6621">
        <ele>430</ele>
        <time>2019-01-18T13:30:36.000Z</time>
      </trkpt>
      <trkpt lat="43.3386" lon="5.6621">
        <ele>430</ele>
        <time>2019-01-18T13:30:37.000Z</time>
      </trkpt>
      <trkpt lat="43.3386" lon="5.6621">
        <ele>430</ele>
        <time>2019-01-18T13:30:38.000Z</time>
      </trkpt>
      <trkpt lat="43.3386" lon="5.6621">
        <ele>429</ele>
        <time>2019-01-18T13:30:39.000Z</time>
      </trkpt>
      <trkpt lat="43.3386" lon="5.6621">
        <ele>429</ele>
        <time>2019-01-18T13:30:40.000Z</time>
      </trkpt>
      <trkpt lat="43.33861" lon="5.66211">
        <ele>429</ele>
        <time>2019-01-18T13:30:41.000Z</time>
      </trkpt>
      <trkpt lat="43.33861" lon="5.66211">
        <ele>429</ele>
        <time>2019-01-18T13:30:42.000Z</time>
      </trkpt>
      <trkpt lat="43.33861" lon="5.66212">
        <ele>428</ele>
        <time>2019-01-18T13:30:43.000Z</time>
      </trkpt>
      <trkpt lat="43.3386" lon="5.66213">
        <ele>428</ele>
        <time>2019-01-18T13:30:44.000Z</time>
      </trkpt>
      <trkpt lat="43.3386" lon="5.66213">
        <ele>427</ele>
        <time>2019-01-18T13:30:45.000Z</time>
      </trkpt>
      <trkpt lat="43.3386" lon="5.66214">
        <ele>427</ele>
        <time>2019-01-18T13:30:46.000Z</time>
      </trkpt>
      <trkpt lat="43.33861" lon="5.66215">
        <ele>426</ele>
        <time>2019-01-18T13:30:47.000Z</time>
      </trkpt>
      <trkpt lat="43.33861" lon="5.66215">
        <ele>426</ele>
        <time>2019-01-18T13:30:48.000Z</time>
      </trkpt>
      <trkpt lat="43.33862" lon="5.66216">
        <ele>426</ele>
        <time>2019-01-18T13:30:49.000Z</time>
      </trkpt>
      <trkpt lat="43.33862" lon="5.66217">
        <ele>425</ele>
        <time>2019-01-18T13:30:50.000Z</time>
      </trkpt>
      <trkpt lat="43.33862" lon="5.66217">
        <ele>425</ele>
        <time>2019-01-18T13:30:51.000Z</time>
      </trkpt>
      <trkpt lat="43.33862" lon="5.66217">
        <ele>425</ele>
        <time>2019-01-18T13:30:52.000Z</time>
      </trkpt>
      <trkpt lat="43.33862" lon="5.66217">
        <ele>424</ele>
        <time>2019-01-18T13:30:53.000Z</time>
      </trkpt>
      <trkpt lat="43.33862" lon="5.66217">
        <ele>424</ele>
        <time>2019-01-18T13:30:54.000Z</time>
      </trkpt>
      <trkpt lat="43.33862" lon="5.66218">
        <ele>424</ele>
        <time>2019-01-18T13:30:55.000Z</time>
      </trkpt>
      <trkpt lat="43.33862" lon="5.66218">
        <ele>424</ele>
        <time>2019-01-18T13:30:56.000Z</time>
      </trkpt>
      <trkpt lat="43.33862" lon="5.66219">
        <ele>423</ele>
        <time>2019-01-18T13:30:57.000Z</time>
      </trkpt>
      <trkpt lat="43.33862" lon="5.66219">
        <ele>423</ele>
        <time>2019-01-18T13:30:58.000Z</time>
      </trkpt>
      <trkpt lat="43.33862" lon="5.6622">
        <ele>423</ele>
        <time>2019-01-18T13:30:59.000Z</time>
      </trkpt>
      <trkpt lat="43.33863" lon="5.66221">
        <ele>423</ele>
        <time>2019-01-18T13:31:00.000Z</time>
      </trkpt>
      <trkpt lat="43.33863" lon="5.66222">
        <ele>423</ele>
        <time>2019-01-18T13:31:01.000Z</time>
      </trkpt>
      <trkpt lat="43.33863" lon="5.66222">
        <ele>422</ele>
        <time>2019-01-18T13:31:02.000Z</time>
      </trkpt>
      <trkpt lat="43.33864" lon="5.66222">
        <ele>422</ele>
        <time>2019-01-18T13:31:03.000Z</time>
      </trkpt>
      <trkpt lat="43.33864" lon="5.66222">
        <ele>422</ele>
        <time>2019-01-18T13:31:04.000Z</time>
      </trkpt>
      <trkpt lat="43.33864" lon="5.66222">
        <ele>422</ele>
        <time>2019-01-18T13:31:05.000Z</time>
      </trkpt>
      <trkpt lat="43.33864" lon="5.66222">
        <ele>422</ele>
        <time>2019-01-18T13:31:06.000Z</time>
      </trkpt>
      <trkpt lat="43.33864" lon="5.66222">
        <ele>422</ele>
        <time>2019-01-18T13:31:07.000Z</time>
      </trkpt>
      <trkpt lat="43.33864" lon="5.66222">
        <ele>422</ele>
        <time>2019-01-18T13:31:08.000Z</time>
      </trkpt>
      <trkpt lat="43.33864" lon="5.66222">
        <ele>422</ele>
        <time>2019-01-18T13:31:09.000Z</time>
      </trkpt>
      <trkpt lat="43.33864" lon="5.66222">
        <ele>422</ele>
        <time>2019-01-18T13:31:10.000Z</time>
      </trkpt>
      <trkpt lat="43.33864" lon="5.66222">
        <ele>422</ele>
        <time>2019-01-18T13:31:11.000Z</time>
      </trkpt>
      <trkpt lat="43.33864" lon="5.66222">
        <ele>422</ele>
        <time>2019-01-18T13:31:12.000Z</time>
      </trkpt>
      <trkpt lat="43.33864" lon="5.66222">
        <ele>422</ele>
        <time>2019-01-18T13:31:13.000Z</time>
      </trkpt>
      <trkpt lat="43.33864" lon="5.66222">
        <ele>422</ele>
        <time>2019-01-18T13:31:14.000Z</time>
      </trkpt>
      <trkpt lat="43.33864" lon="5.66222">
        <ele>421</ele>
        <time>2019-01-18T13:31:15.000Z</time>
      </trkpt>
      <trkpt lat="43.33864" lon="5.66222">
        <ele>421</ele>
        <time>2019-01-18T13:31:16.000Z</time>
      </trkpt>
      <trkpt lat="43.33864" lon="5.66222">
        <ele>421</ele>
        <time>2019-01-18T13:31:17.000Z</time>
      </trkpt>
      <trkpt lat="43.33864" lon="5.66221">
        <ele>421</ele>
        <time>2019-01-18T13:31:18.000Z</time>
      </trkpt>
      <trkpt lat="43.33864" lon="5.66221">
        <ele>421</ele>
        <time>2019-01-18T13:31:19.000Z</time>
      </trkpt>
      <trkpt lat="43.33864" lon="5.66221">
        <ele>421</ele>
        <time>2019-01-18T13:31:20.000Z</time>
      </trkpt>
      <trkpt lat="43.33864" lon="5.66221">
        <ele>421</ele>
        <time>2019-01-18T13:31:21.000Z</time>
      </trkpt>
      <trkpt lat="43.33864" lon="5.66221">
        <ele>421</ele>
        <time>2019-01-18T13:31:22.000Z</time>
      </trkpt>
      <trkpt lat="43.33864" lon="5.66221">
        <ele>421</ele>
        <time>2019-01-18T13:31:23.000Z</time>
      </trkpt>
      <trkpt lat="43.33865" lon="5.66221">
        <ele>421</ele>
        <time>2019-01-18T13:31:24.000Z</time>
      </trkpt>
      <trkpt lat="43.33865" lon="5.66222">
        <ele>421</ele>
        <time>2019-01-18T13:31:25.000Z</time>
      </trkpt>
      <trkpt lat="43.33865" lon="5.66222">
        <ele>421</ele>
        <time>2019-01-18T13:31:26.000Z</time>
      </trkpt>
      <trkpt lat="43.33865" lon="5.66223">
        <ele>421</ele>
        <time>2019-01-18T13:31:27.000Z</time>
      </trkpt>
      <trkpt lat="43.33865" lon="5.66224">
        <ele>421</ele>
        <time>2019-01-18T13:31:28.000Z</time>
      </trkpt>
      <trkpt lat="43.33865" lon="5.66225">
        <ele>421</ele>
        <time>2019-01-18T13:31:29.000Z</time>
      </trkpt>
      <trkpt lat="43.33865" lon="5.66226">
        <ele>421</ele>
        <time>2019-01-18T13:31:30.000Z</time>
      </trkpt>
      <trkpt lat="43.33865" lon="5.66226">
        <ele>421</ele>
        <time>2019-01-18T13:31:31.000Z</time>
      </trkpt>
      <trkpt lat="43.33865" lon="5.66226">
        <ele>421</ele>
        <time>2019-01-18T13:31:32.000Z</time>
      </trkpt>
      <trkpt lat="43.33865" lon="5.66226">
        <ele>421</ele>
        <time>2019-01-18T13:31:33.000Z</time>
      </trkpt>
      <trkpt lat="43.33865" lon="5.66226">
        <ele>421</ele>
        <time>2019-01-18T13:31:34.000Z</time>
      </trkpt>
      <trkpt lat="43.33865" lon="5.66226">
        <ele>421</ele>
        <time>2019-01-18T13:31:35.000Z</time>
      </trkpt>
      <trkpt lat="43.33865" lon="5.66226">
        <ele>421</ele>
        <time>2019-01-18T13:31:36.000Z</time>
      </trkpt>
      <trkpt lat="43.33865" lon="5.66226">
        <ele>421</ele>
        <time>2019-01-18T13:31:37.000Z</time>
      </trkpt>
      <trkpt lat="43.33865" lon="5.66226">
        <ele>421</ele>
        <time>2019-01-18T13:31:38.000Z</time>
      </trkpt>
      <trkpt lat="43.33865" lon="5.66226">
        <ele>421</ele>
        <time>2019-01-18T13:31:39.000Z</time>
      </trkpt>
      <trkpt lat="43.33865" lon="5.66226">
        <ele>421</ele>
        <time>2019-01-18T13:31:40.000Z</time>
      </trkpt>
      <trkpt lat="43.33865" lon="5.66227">
        <ele>421</ele>
        <time>2019-01-18T13:31:41.000Z</time>
      </trkpt>
      <trkpt lat="43.33865" lon="5.66227">
        <ele>421</ele>
        <time>2019-01-18T13:31:42.000Z</time>
      </trkpt>
      <trkpt lat="43.33865" lon="5.66227">
        <ele>421</ele>
        <time>2019-01-18T13:31:43.000Z</time>
      </trkpt>
      <trkpt lat="43.33865" lon="5.66228">
        <ele>421</ele>
        <time>2019-01-18T13:31:44.000Z</time>
      </trkpt>
      <trkpt lat="43.33865" lon="5.66228">
        <ele>421</ele>
        <time>2019-01-18T13:31:45.000Z</time>
      </trkpt>
      <trkpt lat="43.33865" lon="5.66228">
        <ele>421</ele>
        <time>2019-01-18T13:31:46.000Z</time>
      </trkpt>
      <trkpt lat="43.33865" lon="5.66228">
        <ele>421</ele>
        <time>2019-01-18T13:31:47.000Z</time>
      </trkpt>
      <trkpt lat="43.33865" lon="5.66228">
        <ele>421</ele>
        <time>2019-01-18T13:31:48.000Z</time>
      </trkpt>
      <trkpt lat="43.33865" lon="5.66228">
        <ele>421</ele>
        <time>2019-01-18T13:31:49.000Z</time>
      </trkpt>
      <trkpt lat="43.33865" lon="5.66228">
        <ele>421</ele>
        <time>2019-01-18T13:31:50.000Z</time>
      </trkpt>
      <trkpt lat="43.33865" lon="5.66228">
        <ele>421</ele>
        <time>2019-01-18T13:31:51.000Z</time>
      </trkpt>
      <trkpt lat="43.33865" lon="5.66228">
        <ele>421</ele>
        <time>2019-01-18T13:31:52.000Z</time>
      </trkpt>
      <trkpt lat="43.33866" lon="5.66229">
        <ele>421</ele>
        <time>2019-01-18T13:31:53.000Z</time>
      </trkpt>
      <trkpt lat="43.33866" lon="5.66229">
        <ele>421</ele>
        <time>2019-01-18T13:31:54.000Z</time>
      </trkpt>
      <trkpt lat="43.33866" lon="5.6623">
        <ele>421</ele>
        <time>2019-01-18T13:31:55.000Z</time>
      </trkpt>
      <trkpt lat="43.33866" lon="5.66231">
        <ele>421</ele>
        <time>2019-01-18T13:31:56.000Z</time>
      </trkpt>
      <trkpt lat="43.33866" lon="5.66232">
        <ele>421</ele>
        <time>2019-01-18T13:31:57.000Z</time>
      </trkpt>
      <trkpt lat="43.33866" lon="5.66233">
        <ele>421</ele>
        <time>2019-01-18T13:31:58.000Z</time>
      </trkpt>
      <trkpt lat="43.33866" lon="5.66234">
        <ele>421</ele>
        <time>2019-01-18T13:31:59.000Z</time>
      </trkpt>
      <trkpt lat="43.33866" lon="5.66235">
        <ele>421</ele>
        <time>2019-01-18T13:32:00.000Z</time>
      </trkpt>
      <trkpt lat="43.33867" lon="5.66236">
        <ele>421</ele>
        <time>2019-01-18T13:32:01.000Z</time>
      </trkpt>
      <trkpt lat="43.33867" lon="5.66236">
        <ele>422</ele>
        <time>2019-01-18T13:32:02.000Z</time>
      </trkpt>
      <trkpt lat="43.33867" lon="5.66236">
        <ele>422</ele>
        <time>2019-01-18T13:32:03.000Z</time>
      </trkpt>
      <trkpt lat="43.33866" lon="5.66236">
        <ele>422</ele>
        <time>2019-01-18T13:32:04.000Z</time>
      </trkpt>
      <trkpt lat="43.33866" lon="5.66236">
        <ele>422</ele>
        <time>2019-01-18T13:32:05.000Z</time>
      </trkpt>
      <trkpt lat="43.33866" lon="5.66236">
        <ele>422</ele>
        <time>2019-01-18T13:32:06.000Z</time>
      </trkpt>
      <trkpt lat="43.33866" lon="5.66236">
        <ele>422</ele>
        <time>2019-01-18T13:32:07.000Z</time>
      </trkpt>
      <trkpt lat="43.33866" lon="5.66236">
        <ele>422</ele>
        <time>2019-01-18T13:32:08.000Z</time>
      </trkpt>
      <trkpt lat="43.33866" lon="5.66236">
        <ele>422</ele>
        <time>2019-01-18T13:32:09.000Z</time>
      </trkpt>
      <trkpt lat="43.33866" lon="5.66236">
        <ele>422</ele>
        <time>2019-01-18T13:32:10.000Z</time>
      </trkpt>
      <trkpt lat="43.33866" lon="5.66236">
        <ele>422</ele>
        <time>2019-01-18T13:32:11.000Z</time>
      </trkpt>
      <trkpt lat="43.33866" lon="5.66236">
        <ele>422</ele>
        <time>2019-01-18T13:32:12.000Z</time>
      </trkpt>
      <trkpt lat="43.33866" lon="5.66236">
        <ele>422</ele>
        <time>2019-01-18T13:32:13.000Z</time>
      </trkpt>
      <trkpt lat="43.33866" lon="5.66235">
        <ele>422</ele>
        <time>2019-01-18T13:32:14.000Z</time>
      </trkpt>
      <trkpt lat="43.33866" lon="5.66235">
        <ele>422</ele>
        <time>2019-01-18T13:32:15.000Z</time>
      </trkpt>
      <trkpt lat="43.33866" lon="5.66235">
        <ele>422</ele>
        <time>2019-01-18T13:32:16.000Z</time>
      </trkpt>
      <trkpt lat="43.33866" lon="5.66235">
        <ele>422</ele>
        <time>2019-01-18T13:32:17.000Z</time>
      </trkpt>
      <trkpt lat="43.33866" lon="5.66235">
        <ele>422</ele>
        <time>2019-01-18T13:32:18.000Z</time>
      </trkpt>
      <trkpt lat="43.33866" lon="5.66235">
        <ele>422</ele>
        <time>2019-01-18T13:32:19.000Z</time>
      </trkpt>
      <trkpt lat="43.33866" lon="5.66235">
        <ele>422</ele>
        <time>2019-01-18T13:32:20.000Z</time>
      </trkpt>
      <trkpt lat="43.33866" lon="5.66235">
        <ele>422</ele>
        <time>2019-01-18T13:32:21.000Z</time>
      </trkpt>
      <trkpt lat="43.33866" lon="5.66235">
        <ele>422</ele>
        <time>2019-01-18T13:32:22.000Z</time>
      </trkpt>
      <trkpt lat="43.33866" lon="5.66235">
        <ele>422</ele>
        <time>2019-01-18T13:32:23.000Z</time>
      </trkpt>
      <trkpt lat="43.33866" lon="5.66235">
        <ele>422</ele>
        <time>2019-01-18T13:32:24.000Z</time>
      </trkpt>
      <trkpt lat="43.33866" lon="5.66235">
        <ele>422</ele>
        <time>2019-01-18T13:32:25.000Z</time>
      </trkpt>
      <trkpt lat="43.33866" lon="5.66235">
        <ele>422</ele>
        <time>2019-01-18T13:32:26.000Z</time>
      </trkpt>
      <trkpt lat="43.33866" lon="5.66235">
        <ele>422</ele>
        <time>2019-01-18T13:32:27.000Z</time>
      </trkpt>
      <trkpt lat="43.33866" lon="5.66235">
        <ele>422</ele>
        <time>2019-01-18T13:32:28.000Z</time>
      </trkpt>
      <trkpt lat="43.33866" lon="5.66235">
        <ele>422</ele>
        <time>2019-01-18T13:32:29.000Z</time>
      </trkpt>
      <trkpt lat="43.33866" lon="5.66235">
        <ele>422</ele>
        <time>2019-01-18T13:32:30.000Z</time>
      </trkpt>
      <trkpt lat="43.33866" lon="5.66235">
        <ele>422</ele>
        <time>2019-01-18T13:32:31.000Z</time>
      </trkpt>
      <trkpt lat="43.33866" lon="5.66235">
        <ele>422</ele>
        <time>2019-01-18T13:32:32.000Z</time>
      </trkpt>
      <trkpt lat="43.33866" lon="5.66235">
        <ele>422</ele>
        <time>2019-01-18T13:32:33.000Z</time>
      </trkpt>
      <trkpt lat="43.33866" lon="5.66235">
        <ele>422</ele>
        <time>2019-01-18T13:32:34.000Z</time>
      </trkpt>
      <trkpt lat="43.33866" lon="5.66235">
        <ele>422</ele>
        <time>2019-01-18T13:32:35.000Z</time>
      </trkpt>
      <trkpt lat="43.33866" lon="5.66235">
        <ele>422</ele>
        <time>2019-01-18T13:32:36.000Z</time>
      </trkpt>
      <trkpt lat="43.33866" lon="5.66235">
        <ele>422</ele>
        <time>2019-01-18T13:32:37.000Z</time>
      </trkpt>
      <trkpt lat="43.33866" lon="5.66235">
        <ele>422</ele>
        <time>2019-01-18T13:32:38.000Z</time>
      </trkpt>
      <trkpt lat="43.33866" lon="5.66235">
        <ele>422</ele>
        <time>2019-01-18T13:32:39.000Z</time>
      </trkpt>
      <trkpt lat="43.33866" lon="5.66235">
        <ele>422</ele>
        <time>2019-01-18T13:32:40.000Z</time>
      </trkpt>
      <trkpt lat="43.33866" lon="5.66236">
        <ele>422</ele>
        <time>2019-01-18T13:32:41.000Z</time>
      </trkpt>
      <trkpt lat="43.33866" lon="5.66236">
        <ele>422</ele>
        <time>2019-01-18T13:32:42.000Z</time>
      </trkpt>
      <trkpt lat="43.33867" lon="5.66236">
        <ele>422</ele>
        <time>2019-01-18T13:32:43.000Z</time>
      </trkpt>
      <trkpt lat="43.33867" lon="5.66236">
        <ele>422</ele>
        <time>2019-01-18T13:32:44.000Z</time>
      </trkpt>
      <trkpt lat="43.33867" lon="5.66237">
        <ele>422</ele>
        <time>2019-01-18T13:32:45.000Z</time>
      </trkpt>
      <trkpt lat="43.33868" lon="5.66237">
        <ele>422</ele>
        <time>2019-01-18T13:32:46.000Z</time>
      </trkpt>
      <trkpt lat="43.33868" lon="5.66237">
        <ele>422</ele>
        <time>2019-01-18T13:32:47.000Z</time>
      </trkpt>
      <trkpt lat="43.33868" lon="5.66237">
        <ele>422</ele>
        <time>2019-01-18T13:32:48.000Z</time>
      </trkpt>
      <trkpt lat="43.33868" lon="5.66237">
        <ele>422</ele>
        <time>2019-01-18T13:32:49.000Z</time>
      </trkpt>
      <trkpt lat="43.33869" lon="5.66237">
        <ele>422</ele>
        <time>2019-01-18T13:32:50.000Z</time>
      </trkpt>
      <trkpt lat="43.33869" lon="5.66237">
        <ele>422</ele>
        <time>2019-01-18T13:32:51.000Z</time>
      </trkpt>
      <trkpt lat="43.3387" lon="5.66237">
        <ele>422</ele>
        <time>2019-01-18T13:32:52.000Z</time>
      </trkpt>
      <trkpt lat="43.3387" lon="5.66238">
        <ele>422</ele>
        <time>2019-01-18T13:32:53.000Z</time>
      </trkpt>
      <trkpt lat="43.33871" lon="5.66238">
        <ele>422</ele>
        <time>2019-01-18T13:32:54.000Z</time>
      </trkpt>
      <trkpt lat="43.33871" lon="5.66238">
        <ele>422</ele>
        <time>2019-01-18T13:32:55.000Z</time>
      </trkpt>
      <trkpt lat="43.33871" lon="5.66238">
        <ele>422</ele>
        <time>2019-01-18T13:32:56.000Z</time>
      </trkpt>
      <trkpt lat="43.33871" lon="5.66238">
        <ele>422</ele>
        <time>2019-01-18T13:32:57.000Z</time>
      </trkpt>
      <trkpt lat="43.33872" lon="5.66238">
        <ele>422</ele>
        <time>2019-01-18T13:32:58.000Z</time>
      </trkpt>
      <trkpt lat="43.33872" lon="5.66238">
        <ele>422</ele>
        <time>2019-01-18T13:32:59.000Z</time>
      </trkpt>
      <trkpt lat="43.33872" lon="5.66239">
        <ele>422</ele>
        <time>2019-01-18T13:33:00.000Z</time>
      </trkpt>
      <trkpt lat="43.33872" lon="5.66239">
        <ele>422</ele>
        <time>2019-01-18T13:33:01.000Z</time>
      </trkpt>
      <trkpt lat="43.33873" lon="5.66239">
        <ele>422</ele>
        <time>2019-01-18T13:33:02.000Z</time>
      </trkpt>
      <trkpt lat="43.33873" lon="5.66239">
        <ele>422</ele>
        <time>2019-01-18T13:33:03.000Z</time>
      </trkpt>
      <trkpt lat="43.33873" lon="5.66239">
        <ele>422</ele>
        <time>2019-01-18T13:33:04.000Z</time>
      </trkpt>
      <trkpt lat="43.33873" lon="5.6624">
        <ele>422</ele>
        <time>2019-01-18T13:33:05.000Z</time>
      </trkpt>
      <trkpt lat="43.33873" lon="5.6624">
        <ele>422</ele>
        <time>2019-01-18T13:33:06.000Z</time>
      </trkpt>
      <trkpt lat="43.33873" lon="5.6624">
        <ele>422</ele>
        <time>2019-01-18T13:33:07.000Z</time>
      </trkpt>
      <trkpt lat="43.33873" lon="5.6624">
        <ele>422</ele>
        <time>2019-01-18T13:33:08.000Z</time>
      </trkpt>
      <trkpt lat="43.33874" lon="5.6624">
        <ele>422</ele>
        <time>2019-01-18T13:33:09.000Z</time>
      </trkpt>
      <trkpt lat="43.33874" lon="5.6624">
        <ele>422</ele>
        <time>2019-01-18T13:33:10.000Z</time>
      </trkpt>
      <trkpt lat="43.33874" lon="5.6624">
        <ele>422</ele>
        <time>2019-01-18T13:33:11.000Z</time>
      </trkpt>
      <trkpt lat="43.33874" lon="5.66241">
        <ele>421</ele>
        <time>2019-01-18T13:33:12.000Z</time>
      </trkpt>
      <trkpt lat="43.33874" lon="5.66241">
        <ele>421</ele>
        <time>2019-01-18T13:33:13.000Z</time>
      </trkpt>
      <trkpt lat="43.33875" lon="5.66241">
        <ele>421</ele>
        <time>2019-01-18T13:33:14.000Z</time>
      </trkpt>
      <trkpt lat="43.33875" lon="5.66241">
        <ele>420</ele>
        <time>2019-01-18T13:33:15.000Z</time>
      </trkpt>
      <trkpt lat="43.33875" lon="5.66241">
        <ele>420</ele>
        <time>2019-01-18T13:33:16.000Z</time>
      </trkpt>
      <trkpt lat="43.33875" lon="5.66242">
        <ele>419</ele>
        <time>2019-01-18T13:33:17.000Z</time>
      </trkpt>
      <trkpt lat="43.33875" lon="5.66242">
        <ele>419</ele>
        <time>2019-01-18T13:33:18.000Z</time>
      </trkpt>
      <trkpt lat="43.33876" lon="5.66241">
        <ele>418</ele>
        <time>2019-01-18T13:33:19.000Z</time>
      </trkpt>
      <trkpt lat="43.33876" lon="5.66241">
        <ele>418</ele>
        <time>2019-01-18T13:33:20.000Z</time>
      </trkpt>
      <trkpt lat="43.33876" lon="5.66241">
        <ele>417</ele>
        <time>2019-01-18T13:33:21.000Z</time>
      </trkpt>
      <trkpt lat="43.33876" lon="5.66241">
        <ele>417</ele>
        <time>2019-01-18T13:33:22.000Z</time>
      </trkpt>
      <trkpt lat="43.33876" lon="5.6624">
        <ele>417</ele>
        <time>2019-01-18T13:33:23.000Z</time>
      </trkpt>
      <trkpt lat="43.33877" lon="5.6624">
        <ele>416</ele>
        <time>2019-01-18T13:33:24.000Z</time>
      </trkpt>
      <trkpt lat="43.33876" lon="5.6624">
        <ele>416</ele>
        <time>2019-01-18T13:33:25.000Z</time>
      </trkpt>
      <trkpt lat="43.33877" lon="5.6624">
        <ele>416</ele>
        <time>2019-01-18T13:33:26.000Z</time>
      </trkpt>
      <trkpt lat="43.33877" lon="5.6624">
        <ele>415</ele>
        <time>2019-01-18T13:33:27.000Z</time>
      </trkpt>
      <trkpt lat="43.33877" lon="5.66239">
        <ele>415</ele>
        <time>2019-01-18T13:33:28.000Z</time>
      </trkpt>
      <trkpt lat="43.33878" lon="5.66239">
        <ele>415</ele>
        <time>2019-01-18T13:33:29.000Z</time>
      </trkpt>
      <trkpt lat="43.33878" lon="5.66238">
        <ele>415</ele>
        <time>2019-01-18T13:33:30.000Z</time>
      </trkpt>
      <trkpt lat="43.33879" lon="5.66238">
        <ele>415</ele>
        <time>2019-01-18T13:33:31.000Z</time>
      </trkpt>
      <trkpt lat="43.33879" lon="5.66238">
        <ele>415</ele>
        <time>2019-01-18T13:33:32.000Z</time>
      </trkpt>
      <trkpt lat="43.33879" lon="5.66238">
        <ele>414</ele>
        <time>2019-01-18T13:33:33.000Z</time>
      </trkpt>
      <trkpt lat="43.3388" lon="5.66238">
        <ele>414</ele>
        <time>2019-01-18T13:33:34.000Z</time>
      </trkpt>
      <trkpt lat="43.3388" lon="5.66238">
        <ele>414</ele>
        <time>2019-01-18T13:33:35.000Z</time>
      </trkpt>
      <trkpt lat="43.33881" lon="5.66238">
        <ele>414</ele>
        <time>2019-01-18T13:33:36.000Z</time>
      </trkpt>
      <trkpt lat="43.33881" lon="5.66238">
        <ele>414</ele>
        <time>2019-01-18T13:33:37.000Z</time>
      </trkpt>
      <trkpt lat="43.33882" lon="5.66238">
        <ele>414</ele>
        <time>2019-01-18T13:33:38.000Z</time>
      </trkpt>
      <trkpt lat="43.33883" lon="5.66238">
        <ele>414</ele>
        <time>2019-01-18T13:33:39.000Z</time>
      </trkpt>
      <trkpt lat="43.33883" lon="5.66238">
        <ele>414</ele>
        <time>2019-01-18T13:33:40.000Z</time>
      </trkpt>
      <trkpt lat="43.33884" lon="5.66238">
        <ele>414</ele>
        <time>2019-01-18T13:33:41.000Z</time>
      </trkpt>
      <trkpt lat="43.33884" lon="5.66238">
        <ele>414</ele>
        <time>2019-01-18T13:33:42.000Z</time>
      </trkpt>
      <trkpt lat="43.33884" lon="5.66238">
        <ele>414</ele>
        <time>2019-01-18T13:33:43.000Z</time>
      </trkpt>
      <trkpt lat="43.33885" lon="5.66238">
        <ele>414</ele>
        <time>2019-01-18T13:33:44.000Z</time>
      </trkpt>
      <trkpt lat="43.33885" lon="5.66237">
        <ele>414</ele>
        <time>2019-01-18T13:33:45.000Z</time>
      </trkpt>
      <trkpt lat="43.33886" lon="5.66237">
        <ele>414</ele>
        <time>2019-01-18T13:33:46.000Z</time>
      </trkpt>
      <trkpt lat="43.33887" lon="5.66237">
        <ele>413</ele>
        <time>2019-01-18T13:33:47.000Z</time>
      </trkpt>
      <trkpt lat="43.33888" lon="5.66237">
        <ele>413</ele>
        <time>2019-01-18T13:33:48.000Z</time>
      </trkpt>
      <trkpt lat="43.33889" lon="5.66237">
        <ele>413</ele>
        <time>2019-01-18T13:33:49.000Z</time>
      </trkpt>
      <trkpt lat="43.3389" lon="5.66237">
        <ele>413</ele>
        <time>2019-01-18T13:33:50.000Z</time>
      </trkpt>
      <trkpt lat="43.33891" lon="5.66237">
        <ele>413</ele>
        <time>2019-01-18T13:33:51.000Z</time>
      </trkpt>
      <trkpt lat="43.33892" lon="5.66237">
        <ele>413</ele>
        <time>2019-01-18T13:33:52.000Z</time>
      </trkpt>
      <trkpt lat="43.33893" lon="5.66237">
        <ele>412</ele>
        <time>2019-01-18T13:33:53.000Z</time>
      </trkpt>
      <trkpt lat="43.33893" lon="5.66237">
        <ele>412</ele>
        <time>2019-01-18T13:33:54.000Z</time>
      </trkpt>
      <trkpt lat="43.33894" lon="5.66237">
        <ele>412</ele>
        <time>2019-01-18T13:33:55.000Z</time>
      </trkpt>
      <trkpt lat="43.33895" lon="5.66237">
        <ele>412</ele>
        <time>2019-01-18T13:33:56.000Z</time>
      </trkpt>
      <trkpt lat="43.33896" lon="5.66236">
        <ele>412</ele>
        <time>2019-01-18T13:33:57.000Z</time>
      </trkpt>
      <trkpt lat="43.33897" lon="5.66236">
        <ele>411</ele>
        <time>2019-01-18T13:33:58.000Z</time>
      </trkpt>
      <trkpt lat="43.33897" lon="5.66236">
        <ele>411</ele>
        <time>2019-01-18T13:33:59.000Z</time>
      </trkpt>
      <trkpt lat="43.33898" lon="5.66235">
        <ele>411</ele>
        <time>2019-01-18T13:34:00.000Z</time>
      </trkpt>
      <trkpt lat="43.33898" lon="5.66235">
        <ele>411</ele>
        <time>2019-01-18T13:34:01.000Z</time>
      </trkpt>
      <trkpt lat="43.33899" lon="5.66235">
        <ele>411</ele>
        <time>2019-01-18T13:34:02.000Z</time>
      </trkpt>
      <trkpt lat="43.339" lon="5.66235">
        <ele>411</ele>
        <time>2019-01-18T13:34:03.000Z</time>
      </trkpt>
      <trkpt lat="43.339" lon="5.66234">
        <ele>411</ele>
        <time>2019-01-18T13:34:04.000Z</time>
      </trkpt>
      <trkpt lat="43.33901" lon="5.66234">
        <ele>410</ele>
        <time>2019-01-18T13:34:05.000Z</time>
      </trkpt>
      <trkpt lat="43.33902" lon="5.66234">
        <ele>410</ele>
        <time>2019-01-18T13:34:06.000Z</time>
      </trkpt>
      <trkpt lat="43.33902" lon="5.66234">
        <ele>410</ele>
        <time>2019-01-18T13:34:07.000Z</time>
      </trkpt>
      <trkpt lat="43.33902" lon="5.66234">
        <ele>410</ele>
        <time>2019-01-18T13:34:08.000Z</time>
      </trkpt>
      <trkpt lat="43.33902" lon="5.66234">
        <ele>410</ele>
        <time>2019-01-18T13:34:09.000Z</time>
      </trkpt>
      <trkpt lat="43.33902" lon="5.66234">
        <ele>410</ele>
        <time>2019-01-18T13:34:10.000Z</time>
      </trkpt>
      <trkpt lat="43.33903" lon="5.66234">
        <ele>410</ele>
        <time>2019-01-18T13:34:11.000Z</time>
      </trkpt>
      <trkpt lat="43.33903" lon="5.66234">
        <ele>410</ele>
        <time>2019-01-18T13:34:12.000Z</time>
      </trkpt>
      <trkpt lat="43.33903" lon="5.66234">
        <ele>410</ele>
        <time>2019-01-18T13:34:13.000Z</time>
      </trkpt>
      <trkpt lat="43.33903" lon="5.66234">
        <ele>410</ele>
        <time>2019-01-18T13:34:14.000Z</time>
      </trkpt>
      <trkpt lat="43.33903" lon="5.66234">
        <ele>409</ele>
        <time>2019-01-18T13:34:15.000Z</time>
      </trkpt>
      <trkpt lat="43.33903" lon="5.66234">
        <ele>409</ele>
        <time>2019-01-18T13:34:16.000Z</time>
      </trkpt>
      <trkpt lat="43.33903" lon="5.66234">
        <ele>409</ele>
        <time>2019-01-18T13:34:17.000Z</time>
      </trkpt>
      <trkpt lat="43.33903" lon="5.66234">
        <ele>409</ele>
        <time>2019-01-18T13:34:18.000Z</time>
      </trkpt>
      <trkpt lat="43.33903" lon="5.66234">
        <ele>409</ele>
        <time>2019-01-18T13:34:19.000Z</time>
      </trkpt>
      <trkpt lat="43.33903" lon="5.66234">
        <ele>409</ele>
        <time>2019-01-18T13:34:20.000Z</time>
      </trkpt>
      <trkpt lat="43.33903" lon="5.66234">
        <ele>409</ele>
        <time>2019-01-18T13:34:21.000Z</time>
      </trkpt>
      <trkpt lat="43.33903" lon="5.66234">
        <ele>409</ele>
        <time>2019-01-18T13:34:22.000Z</time>
      </trkpt>
      <trkpt lat="43.33904" lon="5.66234">
        <ele>409</ele>
        <time>2019-01-18T13:34:23.000Z</time>
      </trkpt>
      <trkpt lat="43.33904" lon="5.66235">
        <ele>409</ele>
        <time>2019-01-18T13:34:24.000Z</time>
      </trkpt>
      <trkpt lat="43.33904" lon="5.66235">
        <ele>408</ele>
        <time>2019-01-18T13:34:25.000Z</time>
      </trkpt>
      <trkpt lat="43.33905" lon="5.66235">
        <ele>408</ele>
        <time>2019-01-18T13:34:26.000Z</time>
      </trkpt>
      <trkpt lat="43.33905" lon="5.66236">
        <ele>408</ele>
        <time>2019-01-18T13:34:27.000Z</time>
      </trkpt>
      <trkpt lat="43.33906" lon="5.66236">
        <ele>408</ele>
        <time>2019-01-18T13:34:28.000Z</time>
      </trkpt>
      <trkpt lat="43.33907" lon="5.66237">
        <ele>408</ele>
        <time>2019-01-18T13:34:29.000Z</time>
      </trkpt>
      <trkpt lat="43.33907" lon="5.66237">
        <ele>408</ele>
        <time>2019-01-18T13:34:30.000Z</time>
      </trkpt>
      <trkpt lat="43.33908" lon="5.66238">
        <ele>408</ele>
        <time>2019-01-18T13:34:31.000Z</time>
      </trkpt>
      <trkpt lat="43.33909" lon="5.66239">
        <ele>408</ele>
        <time>2019-01-18T13:34:32.000Z</time>
      </trkpt>
      <trkpt lat="43.3391" lon="5.6624">
        <ele>407</ele>
        <time>2019-01-18T13:34:33.000Z</time>
      </trkpt>
      <trkpt lat="43.33911" lon="5.6624">
        <ele>407</ele>
        <time>2019-01-18T13:34:34.000Z</time>
      </trkpt>
      <trkpt lat="43.33912" lon="5.66241">
        <ele>407</ele>
        <time>2019-01-18T13:34:35.000Z</time>
      </trkpt>
      <trkpt lat="43.33913" lon="5.66241">
        <ele>407</ele>
        <time>2019-01-18T13:34:36.000Z</time>
      </trkpt>
      <trkpt lat="43.33913" lon="5.66241">
        <ele>407</ele>
        <time>2019-01-18T13:34:37.000Z</time>
      </trkpt>
      <trkpt lat="43.33913" lon="5.66241">
        <ele>407</ele>
        <time>2019-01-18T13:34:38.000Z</time>
      </trkpt>
      <trkpt lat="43.33913" lon="5.66241">
        <ele>407</ele>
        <time>2019-01-18T13:34:39.000Z</time>
      </trkpt>
      <trkpt lat="43.33914" lon="5.66241">
        <ele>407</ele>
        <time>2019-01-18T13:34:40.000Z</time>
      </trkpt>
      <trkpt lat="43.33915" lon="5.66241">
        <ele>407</ele>
        <time>2019-01-18T13:34:41.000Z</time>
      </trkpt>
      <trkpt lat="43.33916" lon="5.66242">
        <ele>407</ele>
        <time>2019-01-18T13:34:42.000Z</time>
      </trkpt>
      <trkpt lat="43.33916" lon="5.66242">
        <ele>407</ele>
        <time>2019-01-18T13:34:43.000Z</time>
      </trkpt>
      <trkpt lat="43.33917" lon="5.66242">
        <ele>407</ele>
        <time>2019-01-18T13:34:44.000Z</time>
      </trkpt>
      <trkpt lat="43.33918" lon="5.66243">
        <ele>407</ele>
        <time>2019-01-18T13:34:45.000Z</time>
      </trkpt>
      <trkpt lat="43.33918" lon="5.66243">
        <ele>407</ele>
        <time>2019-01-18T13:34:46.000Z</time>
      </trkpt>
      <trkpt lat="43.33919" lon="5.66243">
        <ele>407</ele>
        <time>2019-01-18T13:34:47.000Z</time>
      </trkpt>
      <trkpt lat="43.3392" lon="5.66243">
        <ele>407</ele>
        <time>2019-01-18T13:34:48.000Z</time>
      </trkpt>
      <trkpt lat="43.3392" lon="5.66243">
        <ele>407</ele>
        <time>2019-01-18T13:34:49.000Z</time>
      </trkpt>
      <trkpt lat="43.33921" lon="5.66243">
        <ele>406</ele>
        <time>2019-01-18T13:34:50.000Z</time>
      </trkpt>
      <trkpt lat="43.33922" lon="5.66244">
        <ele>406</ele>
        <time>2019-01-18T13:34:51.000Z</time>
      </trkpt>
      <trkpt lat="43.33923" lon="5.66244">
        <ele>406</ele>
        <time>2019-01-18T13:34:52.000Z</time>
      </trkpt>
      <trkpt lat="43.33924" lon="5.66245">
        <ele>406</ele>
        <time>2019-01-18T13:34:53.000Z</time>
      </trkpt>
      <trkpt lat="43.33925" lon="5.66245">
        <ele>406</ele>
        <time>2019-01-18T13:34:54.000Z</time>
      </trkpt>
      <trkpt lat="43.33926" lon="5.66246">
        <ele>406</ele>
        <time>2019-01-18T13:34:55.000Z</time>
      </trkpt>
      <trkpt lat="43.33927" lon="5.66246">
        <ele>406</ele>
        <time>2019-01-18T13:34:56.000Z</time>
      </trkpt>
      <trkpt lat="43.33928" lon="5.66247">
        <ele>406</ele>
        <time>2019-01-18T13:34:57.000Z</time>
      </trkpt>
      <trkpt lat="43.33929" lon="5.66248">
        <ele>406</ele>
        <time>2019-01-18T13:34:58.000Z</time>
      </trkpt>
      <trkpt lat="43.33929" lon="5.66249">
        <ele>406</ele>
        <time>2019-01-18T13:34:59.000Z</time>
      </trkpt>
      <trkpt lat="43.3393" lon="5.6625">
        <ele>406</ele>
        <time>2019-01-18T13:35:00.000Z</time>
      </trkpt>
      <trkpt lat="43.3393" lon="5.66251">
        <ele>406</ele>
        <time>2019-01-18T13:35:01.000Z</time>
      </trkpt>
      <trkpt lat="43.33931" lon="5.66252">
        <ele>406</ele>
        <time>2019-01-18T13:35:02.000Z</time>
      </trkpt>
      <trkpt lat="43.33931" lon="5.66254">
        <ele>406</ele>
        <time>2019-01-18T13:35:03.000Z</time>
      </trkpt>
      <trkpt lat="43.33932" lon="5.66255">
        <ele>406</ele>
        <time>2019-01-18T13:35:04.000Z</time>
      </trkpt>
      <trkpt lat="43.33933" lon="5.66255">
        <ele>406</ele>
        <time>2019-01-18T13:35:05.000Z</time>
      </trkpt>
      <trkpt lat="43.33935" lon="5.66256">
        <ele>406</ele>
        <time>2019-01-18T13:35:06.000Z</time>
      </trkpt>
      <trkpt lat="43.33936" lon="5.66256">
        <ele>406</ele>
        <time>2019-01-18T13:35:07.000Z</time>
      </trkpt>
      <trkpt lat="43.33937" lon="5.66257">
        <ele>406</ele>
        <time>2019-01-18T13:35:08.000Z</time>
      </trkpt>
      <trkpt lat="43.33938" lon="5.66257">
        <ele>406</ele>
        <time>2019-01-18T13:35:09.000Z</time>
      </trkpt>
      <trkpt lat="43.33938" lon="5.66257">
        <ele>406</ele>
        <time>2019-01-18T13:35:10.000Z</time>
      </trkpt>
      <trkpt lat="43.33939" lon="5.66257">
        <ele>406</ele>
        <time>2019-01-18T13:35:11.000Z</time>
      </trkpt>
      <trkpt lat="43.3394" lon="5.66258">
        <ele>406</ele>
        <time>2019-01-18T13:35:12.000Z</time>
      </trkpt>
      <trkpt lat="43.33941" lon="5.66258">
        <ele>406</ele>
        <time>2019-01-18T13:35:13.000Z</time>
      </trkpt>
      <trkpt lat="43.33942" lon="5.66259">
        <ele>406</ele>
        <time>2019-01-18T13:35:14.000Z</time>
      </trkpt>
      <trkpt lat="43.33943" lon="5.66259">
        <ele>406</ele>
        <time>2019-01-18T13:35:15.000Z</time>
      </trkpt>
      <trkpt lat="43.33944" lon="5.66259">
        <ele>406</ele>
        <time>2019-01-18T13:35:16.000Z</time>
      </trkpt>
      <trkpt lat="43.33945" lon="5.6626">
        <ele>406</ele>
        <time>2019-01-18T13:35:17.000Z</time>
      </trkpt>
      <trkpt lat="43.33946" lon="5.6626">
        <ele>406</ele>
        <time>2019-01-18T13:35:18.000Z</time>
      </trkpt>
      <trkpt lat="43.33947" lon="5.66261">
        <ele>406</ele>
        <time>2019-01-18T13:35:19.000Z</time>
      </trkpt>
      <trkpt lat="43.33948" lon="5.66261">
        <ele>406</ele>
        <time>2019-01-18T13:35:20.000Z</time>
      </trkpt>
      <trkpt lat="43.33949" lon="5.66262">
        <ele>406</ele>
        <time>2019-01-18T13:35:21.000Z</time>
      </trkpt>
      <trkpt lat="43.3395" lon="5.66262">
        <ele>406</ele>
        <time>2019-01-18T13:35:22.000Z</time>
      </trkpt>
      <trkpt lat="43.3395" lon="5.66262">
        <ele>406</ele>
        <time>2019-01-18T13:35:23.000Z</time>
      </trkpt>
      <trkpt lat="43.33951" lon="5.66263">
        <ele>406</ele>
        <time>2019-01-18T13:35:24.000Z</time>
      </trkpt>
      <trkpt lat="43.33952" lon="5.66264">
        <ele>406</ele>
        <time>2019-01-18T13:35:25.000Z</time>
      </trkpt>
      <trkpt lat="43.33952" lon="5.66264">
        <ele>406</ele>
        <time>2019-01-18T13:35:26.000Z</time>
      </trkpt>
      <trkpt lat="43.33953" lon="5.66265">
        <ele>406</ele>
        <time>2019-01-18T13:35:27.000Z</time>
      </trkpt>
      <trkpt lat="43.33953" lon="5.66265">
        <ele>406</ele>
        <time>2019-01-18T13:35:28.000Z</time>
      </trkpt>
      <trkpt lat="43.33954" lon="5.66266">
        <ele>406</ele>
        <time>2019-01-18T13:35:29.000Z</time>
      </trkpt>
      <trkpt lat="43.33954" lon="5.66266">
        <ele>406</ele>
        <time>2019-01-18T13:35:30.000Z</time>
      </trkpt>
      <trkpt lat="43.33954" lon="5.66266">
        <ele>406</ele>
        <time>2019-01-18T13:35:31.000Z</time>
      </trkpt>
      <trkpt lat="43.33954" lon="5.66266">
        <ele>406</ele>
        <time>2019-01-18T13:35:32.000Z</time>
      </trkpt>
      <trkpt lat="43.33954" lon="5.66266">
        <ele>406</ele>
        <time>2019-01-18T13:35:33.000Z</time>
      </trkpt>
      <trkpt lat="43.33955" lon="5.66266">
        <ele>406</ele>
        <time>2019-01-18T13:35:34.000Z</time>
      </trkpt>
      <trkpt lat="43.33955" lon="5.66266">
        <ele>406</ele>
        <time>2019-01-18T13:35:35.000Z</time>
      </trkpt>
      <trkpt lat="43.33955" lon="5.66266">
        <ele>406</ele>
        <time>2019-01-18T13:35:36.000Z</time>
      </trkpt>
      <trkpt lat="43.33955" lon="5.66266">
        <ele>406</ele>
        <time>2019-01-18T13:35:37.000Z</time>
      </trkpt>
      <trkpt lat="43.33955" lon="5.66267">
        <ele>406</ele>
        <time>2019-01-18T13:35:38.000Z</time>
      </trkpt>
      <trkpt lat="43.33955" lon="5.66267">
        <ele>406</ele>
        <time>2019-01-18T13:35:39.000Z</time>
      </trkpt>
      <trkpt lat="43.33955" lon="5.66267">
        <ele>406</ele>
        <time>2019-01-18T13:35:40.000Z</time>
      </trkpt>
      <trkpt lat="43.33955" lon="5.66267">
        <ele>406</ele>
        <time>2019-01-18T13:35:41.000Z</time>
      </trkpt>
      <trkpt lat="43.33955" lon="5.66267">
        <ele>406</ele>
        <time>2019-01-18T13:35:42.000Z</time>
      </trkpt>
      <trkpt lat="43.33955" lon="5.66267">
        <ele>406</ele>
        <time>2019-01-18T13:35:43.000Z</time>
      </trkpt>
      <trkpt lat="43.33956" lon="5.66267">
        <ele>406</ele>
        <time>2019-01-18T13:35:44.000Z</time>
      </trkpt>
      <trkpt lat="43.33956" lon="5.66267">
        <ele>406</ele>
        <time>2019-01-18T13:35:45.000Z</time>
      </trkpt>
      <trkpt lat="43.33956" lon="5.66267">
        <ele>406</ele>
        <time>2019-01-18T13:35:46.000Z</time>
      </trkpt>
      <trkpt lat="43.33956" lon="5.66267">
        <ele>406</ele>
        <time>2019-01-18T13:35:47.000Z</time>
      </trkpt>
      <trkpt lat="43.33956" lon="5.66267">
        <ele>406</ele>
        <time>2019-01-18T13:35:48.000Z</time>
      </trkpt>
      <trkpt lat="43.33956" lon="5.66267">
        <ele>406</ele>
        <time>2019-01-18T13:35:49.000Z</time>
      </trkpt>
      <trkpt lat="43.33956" lon="5.66267">
        <ele>406</ele>
        <time>2019-01-18T13:35:50.000Z</time>
      </trkpt>
      <trkpt lat="43.33956" lon="5.66267">
        <ele>406</ele>
        <time>2019-01-18T13:35:51.000Z</time>
      </trkpt>
      <trkpt lat="43.33956" lon="5.66268">
        <ele>405</ele>
        <time>2019-01-18T13:35:52.000Z</time>
      </trkpt>
      <trkpt lat="43.33957" lon="5.66268">
        <ele>405</ele>
        <time>2019-01-18T13:35:53.000Z</time>
      </trkpt>
      <trkpt lat="43.33957" lon="5.66268">
        <ele>405</ele>
        <time>2019-01-18T13:35:54.000Z</time>
      </trkpt>
      <trkpt lat="43.33957" lon="5.66269">
        <ele>405</ele>
        <time>2019-01-18T13:35:55.000Z</time>
      </trkpt>
      <trkpt lat="43.33958" lon="5.66269">
        <ele>405</ele>
        <time>2019-01-18T13:35:56.000Z</time>
      </trkpt>
      <trkpt lat="43.33958" lon="5.66269">
        <ele>405</ele>
        <time>2019-01-18T13:35:57.000Z</time>
      </trkpt>
      <trkpt lat="43.33958" lon="5.66269">
        <ele>405</ele>
        <time>2019-01-18T13:35:58.000Z</time>
      </trkpt>
      <trkpt lat="43.33958" lon="5.66269">
        <ele>405</ele>
        <time>2019-01-18T13:35:59.000Z</time>
      </trkpt>
      <trkpt lat="43.33958" lon="5.66269">
        <ele>405</ele>
        <time>2019-01-18T13:36:00.000Z</time>
      </trkpt>
      <trkpt lat="43.33958" lon="5.66269">
        <ele>405</ele>
        <time>2019-01-18T13:36:01.000Z</time>
      </trkpt>
      <trkpt lat="43.33959" lon="5.66268">
        <ele>405</ele>
        <time>2019-01-18T13:36:02.000Z</time>
      </trkpt>
      <trkpt lat="43.33959" lon="5.66269">
        <ele>405</ele>
        <time>2019-01-18T13:36:03.000Z</time>
      </trkpt>
      <trkpt lat="43.3396" lon="5.66269">
        <ele>405</ele>
        <time>2019-01-18T13:36:04.000Z</time>
      </trkpt>
      <trkpt lat="43.33961" lon="5.6627">
        <ele>405</ele>
        <time>2019-01-18T13:36:05.000Z</time>
      </trkpt>
      <trkpt lat="43.33961" lon="5.66271">
        <ele>405</ele>
        <time>2019-01-18T13:36:06.000Z</time>
      </trkpt>
      <trkpt lat="43.33962" lon="5.66271">
        <ele>405</ele>
        <time>2019-01-18T13:36:07.000Z</time>
      </trkpt>
      <trkpt lat="43.33963" lon="5.66272">
        <ele>405</ele>
        <time>2019-01-18T13:36:08.000Z</time>
      </trkpt>
      <trkpt lat="43.33965" lon="5.66272">
        <ele>405</ele>
        <time>2019-01-18T13:36:09.000Z</time>
      </trkpt>
      <trkpt lat="43.33966" lon="5.66272">
        <ele>405</ele>
        <time>2019-01-18T13:36:10.000Z</time>
      </trkpt>
      <trkpt lat="43.33967" lon="5.66272">
        <ele>405</ele>
        <time>2019-01-18T13:36:11.000Z</time>
      </trkpt>
      <trkpt lat="43.33968" lon="5.66272">
        <ele>405</ele>
        <time>2019-01-18T13:36:12.000Z</time>
      </trkpt>
      <trkpt lat="43.3397" lon="5.66273">
        <ele>405</ele>
        <time>2019-01-18T13:36:13.000Z</time>
      </trkpt>
      <trkpt lat="43.33971" lon="5.66273">
        <ele>405</ele>
        <time>2019-01-18T13:36:14.000Z</time>
      </trkpt>
      <trkpt lat="43.33973" lon="5.66273">
        <ele>405</ele>
        <time>2019-01-18T13:36:15.000Z</time>
      </trkpt>
      <trkpt lat="43.33974" lon="5.66274">
        <ele>405</ele>
        <time>2019-01-18T13:36:16.000Z</time>
      </trkpt>
      <trkpt lat="43.33975" lon="5.66274">
        <ele>405</ele>
        <time>2019-01-18T13:36:17.000Z</time>
      </trkpt>
      <trkpt lat="43.33976" lon="5.66274">
        <ele>405</ele>
        <time>2019-01-18T13:36:18.000Z</time>
      </trkpt>
      <trkpt lat="43.33977" lon="5.66274">
        <ele>405</ele>
        <time>2019-01-18T13:36:19.000Z</time>
      </trkpt>
      <trkpt lat="43.33979" lon="5.66274">
        <ele>405</ele>
        <time>2019-01-18T13:36:20.000Z</time>
      </trkpt>
      <trkpt lat="43.3398" lon="5.66274">
        <ele>406</ele>
        <time>2019-01-18T13:36:21.000Z</time>
      </trkpt>
      <trkpt lat="43.33981" lon="5.66274">
        <ele>406</ele>
        <time>2019-01-18T13:36:22.000Z</time>
      </trkpt>
      <trkpt lat="43.33982" lon="5.66275">
        <ele>406</ele>
        <time>2019-01-18T13:36:23.000Z</time>
      </trkpt>
      <trkpt lat="43.33984" lon="5.66275">
        <ele>406</ele>
        <time>2019-01-18T13:36:24.000Z</time>
      </trkpt>
      <trkpt lat="43.33984" lon="5.66275">
        <ele>406</ele>
        <time>2019-01-18T13:36:25.000Z</time>
      </trkpt>
      <trkpt lat="43.33984" lon="5.66275">
        <ele>405</ele>
        <time>2019-01-18T13:36:26.000Z</time>
      </trkpt>
      <trkpt lat="43.33984" lon="5.66275">
        <ele>405</ele>
        <time>2019-01-18T13:36:27.000Z</time>
      </trkpt>
      <trkpt lat="43.33985" lon="5.66275">
        <ele>405</ele>
        <time>2019-01-18T13:36:28.000Z</time>
      </trkpt>
      <trkpt lat="43.33986" lon="5.66276">
        <ele>405</ele>
        <time>2019-01-18T13:36:29.000Z</time>
      </trkpt>
      <trkpt lat="43.33987" lon="5.66276">
        <ele>405</ele>
        <time>2019-01-18T13:36:30.000Z</time>
      </trkpt>
      <trkpt lat="43.33989" lon="5.66276">
        <ele>405</ele>
        <time>2019-01-18T13:36:31.000Z</time>
      </trkpt>
      <trkpt lat="43.3399" lon="5.66276">
        <ele>405</ele>
        <time>2019-01-18T13:36:32.000Z</time>
      </trkpt>
      <trkpt lat="43.33991" lon="5.66276">
        <ele>405</ele>
        <time>2019-01-18T13:36:33.000Z</time>
      </trkpt>
      <trkpt lat="43.33992" lon="5.66276">
        <ele>405</ele>
        <time>2019-01-18T13:36:34.000Z</time>
      </trkpt>
      <trkpt lat="43.33993" lon="5.66277">
        <ele>405</ele>
        <time>2019-01-18T13:36:35.000Z</time>
      </trkpt>
      <trkpt lat="43.33994" lon="5.66278">
        <ele>405</ele>
        <time>2019-01-18T13:36:36.000Z</time>
      </trkpt>
      <trkpt lat="43.33995" lon="5.66279">
        <ele>405</ele>
        <time>2019-01-18T13:36:37.000Z</time>
      </trkpt>
      <trkpt lat="43.33996" lon="5.66279">
        <ele>405</ele>
        <time>2019-01-18T13:36:38.000Z</time>
      </trkpt>
      <trkpt lat="43.33997" lon="5.6628">
        <ele>405</ele>
        <time>2019-01-18T13:36:39.000Z</time>
      </trkpt>
      <trkpt lat="43.33998" lon="5.6628">
        <ele>405</ele>
        <time>2019-01-18T13:36:40.000Z</time>
      </trkpt>
      <trkpt lat="43.33998" lon="5.6628">
        <ele>405</ele>
        <time>2019-01-18T13:36:41.000Z</time>
      </trkpt>
      <trkpt lat="43.33999" lon="5.6628">
        <ele>405</ele>
        <time>2019-01-18T13:36:42.000Z</time>
      </trkpt>
      <trkpt lat="43.34001" lon="5.6628">
        <ele>405</ele>
        <time>2019-01-18T13:36:43.000Z</time>
      </trkpt>
      <trkpt lat="43.34002" lon="5.66281">
        <ele>405</ele>
        <time>2019-01-18T13:36:44.000Z</time>
      </trkpt>
      <trkpt lat="43.34003" lon="5.66281">
        <ele>405</ele>
        <time>2019-01-18T13:36:45.000Z</time>
      </trkpt>
      <trkpt lat="43.34003" lon="5.66281">
        <ele>405</ele>
        <time>2019-01-18T13:36:46.000Z</time>
      </trkpt>
      <trkpt lat="43.34004" lon="5.66281">
        <ele>405</ele>
        <time>2019-01-18T13:36:47.000Z</time>
      </trkpt>
      <trkpt lat="43.34005" lon="5.66282">
        <ele>405</ele>
        <time>2019-01-18T13:36:48.000Z</time>
      </trkpt>
      <trkpt lat="43.34006" lon="5.66282">
        <ele>405</ele>
        <time>2019-01-18T13:36:49.000Z</time>
      </trkpt>
      <trkpt lat="43.34007" lon="5.66283">
        <ele>405</ele>
        <time>2019-01-18T13:36:50.000Z</time>
      </trkpt>
      <trkpt lat="43.34008" lon="5.66283">
        <ele>405</ele>
        <time>2019-01-18T13:36:51.000Z</time>
      </trkpt>
      <trkpt lat="43.3401" lon="5.66282">
        <ele>405</ele>
        <time>2019-01-18T13:36:52.000Z</time>
      </trkpt>
      <trkpt lat="43.34011" lon="5.66282">
        <ele>405</ele>
        <time>2019-01-18T13:36:53.000Z</time>
      </trkpt>
      <trkpt lat="43.34012" lon="5.66282">
        <ele>405</ele>
        <time>2019-01-18T13:36:54.000Z</time>
      </trkpt>
      <trkpt lat="43.34013" lon="5.66282">
        <ele>405</ele>
        <time>2019-01-18T13:36:55.000Z</time>
      </trkpt>
      <trkpt lat="43.34014" lon="5.66282">
        <ele>406</ele>
        <time>2019-01-18T13:36:56.000Z</time>
      </trkpt>
      <trkpt lat="43.34015" lon="5.66282">
        <ele>406</ele>
        <time>2019-01-18T13:36:57.000Z</time>
      </trkpt>
      <trkpt lat="43.34016" lon="5.66282">
        <ele>406</ele>
        <time>2019-01-18T13:36:58.000Z</time>
      </trkpt>
      <trkpt lat="43.34016" lon="5.66282">
        <ele>406</ele>
        <time>2019-01-18T13:36:59.000Z</time>
      </trkpt>
      <trkpt lat="43.34017" lon="5.66281">
        <ele>406</ele>
        <time>2019-01-18T13:37:00.000Z</time>
      </trkpt>
      <trkpt lat="43.34018" lon="5.66281">
        <ele>406</ele>
        <time>2019-01-18T13:37:01.000Z</time>
      </trkpt>
      <trkpt lat="43.34019" lon="5.6628">
        <ele>406</ele>
        <time>2019-01-18T13:37:02.000Z</time>
      </trkpt>
      <trkpt lat="43.3402" lon="5.6628">
        <ele>406</ele>
        <time>2019-01-18T13:37:03.000Z</time>
      </trkpt>
      <trkpt lat="43.34021" lon="5.6628">
        <ele>406</ele>
        <time>2019-01-18T13:37:04.000Z</time>
      </trkpt>
      <trkpt lat="43.34022" lon="5.6628">
        <ele>406</ele>
        <time>2019-01-18T13:37:05.000Z</time>
      </trkpt>
      <trkpt lat="43.34023" lon="5.6628">
        <ele>406</ele>
        <time>2019-01-18T13:37:06.000Z</time>
      </trkpt>
      <trkpt lat="43.34024" lon="5.6628">
        <ele>406</ele>
        <time>2019-01-18T13:37:07.000Z</time>
      </trkpt>
      <trkpt lat="43.34025" lon="5.6628">
        <ele>406</ele>
        <time>2019-01-18T13:37:08.000Z</time>
      </trkpt>
      <trkpt lat="43.34026" lon="5.6628">
        <ele>406</ele>
        <time>2019-01-18T13:37:09.000Z</time>
      </trkpt>
      <trkpt lat="43.34027" lon="5.6628">
        <ele>406</ele>
        <time>2019-01-18T13:37:10.000Z</time>
      </trkpt>
      <trkpt lat="43.34028" lon="5.6628">
        <ele>406</ele>
        <time>2019-01-18T13:37:11.000Z</time>
      </trkpt>
      <trkpt lat="43.3403" lon="5.6628">
        <ele>405</ele>
        <time>2019-01-18T13:37:12.000Z</time>
      </trkpt>
      <trkpt lat="43.34031" lon="5.6628">
        <ele>405</ele>
        <time>2019-01-18T13:37:13.000Z</time>
      </trkpt>
      <trkpt lat="43.34031" lon="5.66279">
        <ele>405</ele>
        <time>2019-01-18T13:37:14.000Z</time>
      </trkpt>
      <trkpt lat="43.34032" lon="5.66279">
        <ele>405</ele>
        <time>2019-01-18T13:37:15.000Z</time>
      </trkpt>
      <trkpt lat="43.34033" lon="5.66279">
        <ele>405</ele>
        <time>2019-01-18T13:37:16.000Z</time>
      </trkpt>
      <trkpt lat="43.34034" lon="5.66279">
        <ele>405</ele>
        <time>2019-01-18T13:37:17.000Z</time>
      </trkpt>
      <trkpt lat="43.34035" lon="5.66279">
        <ele>405</ele>
        <time>2019-01-18T13:37:18.000Z</time>
      </trkpt>
      <trkpt lat="43.34035" lon="5.66279">
        <ele>405</ele>
        <time>2019-01-18T13:37:19.000Z</time>
      </trkpt>
      <trkpt lat="43.34036" lon="5.6628">
        <ele>405</ele>
        <time>2019-01-18T13:37:20.000Z</time>
      </trkpt>
      <trkpt lat="43.34037" lon="5.6628">
        <ele>405</ele>
        <time>2019-01-18T13:37:21.000Z</time>
      </trkpt>
      <trkpt lat="43.34038" lon="5.66279">
        <ele>405</ele>
        <time>2019-01-18T13:37:22.000Z</time>
      </trkpt>
      <trkpt lat="43.34039" lon="5.66279">
        <ele>406</ele>
        <time>2019-01-18T13:37:23.000Z</time>
      </trkpt>
      <trkpt lat="43.3404" lon="5.66279">
        <ele>405</ele>
        <time>2019-01-18T13:37:24.000Z</time>
      </trkpt>
      <trkpt lat="43.34041" lon="5.66278">
        <ele>405</ele>
        <time>2019-01-18T13:37:25.000Z</time>
      </trkpt>
      <trkpt lat="43.34042" lon="5.66278">
        <ele>405</ele>
        <time>2019-01-18T13:37:26.000Z</time>
      </trkpt>
      <trkpt lat="43.34043" lon="5.66277">
        <ele>405</ele>
        <time>2019-01-18T13:37:27.000Z</time>
      </trkpt>
      <trkpt lat="43.34044" lon="5.66277">
        <ele>405</ele>
        <time>2019-01-18T13:37:28.000Z</time>
      </trkpt>
      <trkpt lat="43.34044" lon="5.66276">
        <ele>405</ele>
        <time>2019-01-18T13:37:29.000Z</time>
      </trkpt>
      <trkpt lat="43.34045" lon="5.66276">
        <ele>405</ele>
        <time>2019-01-18T13:37:30.000Z</time>
      </trkpt>
      <trkpt lat="43.34046" lon="5.66275">
        <ele>405</ele>
        <time>2019-01-18T13:37:31.000Z</time>
      </trkpt>
      <trkpt lat="43.34047" lon="5.66275">
        <ele>405</ele>
        <time>2019-01-18T13:37:32.000Z</time>
      </trkpt>
      <trkpt lat="43.34047" lon="5.66274">
        <ele>405</ele>
        <time>2019-01-18T13:37:33.000Z</time>
      </trkpt>
      <trkpt lat="43.34048" lon="5.66274">
        <ele>405</ele>
        <time>2019-01-18T13:37:34.000Z</time>
      </trkpt>
      <trkpt lat="43.34048" lon="5.66274">
        <ele>405</ele>
        <time>2019-01-18T13:37:35.000Z</time>
      </trkpt>
      <trkpt lat="43.34048" lon="5.66273">
        <ele>405</ele>
        <time>2019-01-18T13:37:36.000Z</time>
      </trkpt>
      <trkpt lat="43.34049" lon="5.66273">
        <ele>404</ele>
        <time>2019-01-18T13:37:37.000Z</time>
      </trkpt>
      <trkpt lat="43.34049" lon="5.66273">
        <ele>404</ele>
        <time>2019-01-18T13:37:38.000Z</time>
      </trkpt>
      <trkpt lat="43.3405" lon="5.66273">
        <ele>404</ele>
        <time>2019-01-18T13:37:39.000Z</time>
      </trkpt>
      <trkpt lat="43.34051" lon="5.66272">
        <ele>404</ele>
        <time>2019-01-18T13:37:40.000Z</time>
      </trkpt>
      <trkpt lat="43.34052" lon="5.66272">
        <ele>404</ele>
        <time>2019-01-18T13:37:41.000Z</time>
      </trkpt>
      <trkpt lat="43.34052" lon="5.66272">
        <ele>404</ele>
        <time>2019-01-18T13:37:42.000Z</time>
      </trkpt>
      <trkpt lat="43.34052" lon="5.66272">
        <ele>404</ele>
        <time>2019-01-18T13:37:43.000Z</time>
      </trkpt>
      <trkpt lat="43.34053" lon="5.66271">
        <ele>404</ele>
        <time>2019-01-18T13:37:44.000Z</time>
      </trkpt>
      <trkpt lat="43.34053" lon="5.66271">
        <ele>404</ele>
        <time>2019-01-18T13:37:45.000Z</time>
      </trkpt>
      <trkpt lat="43.34054" lon="5.6627">
        <ele>403</ele>
        <time>2019-01-18T13:37:46.000Z</time>
      </trkpt>
      <trkpt lat="43.34055" lon="5.6627">
        <ele>403</ele>
        <time>2019-01-18T13:37:47.000Z</time>
      </trkpt>
      <trkpt lat="43.34056" lon="5.66269">
        <ele>403</ele>
        <time>2019-01-18T13:37:48.000Z</time>
      </trkpt>
      <trkpt lat="43.34057" lon="5.66268">
        <ele>403</ele>
        <time>2019-01-18T13:37:49.000Z</time>
      </trkpt>
      <trkpt lat="43.34057" lon="5.66268">
        <ele>403</ele>
        <time>2019-01-18T13:37:50.000Z</time>
      </trkpt>
      <trkpt lat="43.34058" lon="5.66267">
        <ele>403</ele>
        <time>2019-01-18T13:37:51.000Z</time>
      </trkpt>
      <trkpt lat="43.34059" lon="5.66267">
        <ele>402</ele>
        <time>2019-01-18T13:37:52.000Z</time>
      </trkpt>
      <trkpt lat="43.3406" lon="5.66266">
        <ele>402</ele>
        <time>2019-01-18T13:37:53.000Z</time>
      </trkpt>
      <trkpt lat="43.34061" lon="5.66266">
        <ele>402</ele>
        <time>2019-01-18T13:37:54.000Z</time>
      </trkpt>
      <trkpt lat="43.34062" lon="5.66266">
        <ele>402</ele>
        <time>2019-01-18T13:37:55.000Z</time>
      </trkpt>
      <trkpt lat="43.34062" lon="5.66265">
        <ele>402</ele>
        <time>2019-01-18T13:37:56.000Z</time>
      </trkpt>
      <trkpt lat="43.34063" lon="5.66265">
        <ele>402</ele>
        <time>2019-01-18T13:37:57.000Z</time>
      </trkpt>
      <trkpt lat="43.34064" lon="5.66265">
        <ele>402</ele>
        <time>2019-01-18T13:37:58.000Z</time>
      </trkpt>
      <trkpt lat="43.34065" lon="5.66265">
        <ele>402</ele>
        <time>2019-01-18T13:37:59.000Z</time>
      </trkpt>
      <trkpt lat="43.34065" lon="5.66264">
        <ele>402</ele>
        <time>2019-01-18T13:38:00.000Z</time>
      </trkpt>
      <trkpt lat="43.34066" lon="5.66264">
        <ele>402</ele>
        <time>2019-01-18T13:38:01.000Z</time>
      </trkpt>
      <trkpt lat="43.34066" lon="5.66264">
        <ele>402</ele>
        <time>2019-01-18T13:38:02.000Z</time>
      </trkpt>
      <trkpt lat="43.34066" lon="5.66264">
        <ele>402</ele>
        <time>2019-01-18T13:38:03.000Z</time>
      </trkpt>
      <trkpt lat="43.34067" lon="5.66264">
        <ele>402</ele>
        <time>2019-01-18T13:38:04.000Z</time>
      </trkpt>
      <trkpt lat="43.34067" lon="5.66264">
        <ele>402</ele>
        <time>2019-01-18T13:38:05.000Z</time>
      </trkpt>
      <trkpt lat="43.34067" lon="5.66264">
        <ele>402</ele>
        <time>2019-01-18T13:38:06.000Z</time>
      </trkpt>
      <trkpt lat="43.34067" lon="5.66264">
        <ele>402</ele>
        <time>2019-01-18T13:38:07.000Z</time>
      </trkpt>
      <trkpt lat="43.34067" lon="5.66263">
        <ele>402</ele>
        <time>2019-01-18T13:38:08.000Z</time>
      </trkpt>
      <trkpt lat="43.34068" lon="5.66263">
        <ele>402</ele>
        <time>2019-01-18T13:38:09.000Z</time>
      </trkpt>
      <trkpt lat="43.34068" lon="5.66263">
        <ele>402</ele>
        <time>2019-01-18T13:38:10.000Z</time>
      </trkpt>
      <trkpt lat="43.34069" lon="5.66262">
        <ele>402</ele>
        <time>2019-01-18T13:38:11.000Z</time>
      </trkpt>
      <trkpt lat="43.34069" lon="5.66261">
        <ele>402</ele>
        <time>2019-01-18T13:38:12.000Z</time>
      </trkpt>
      <trkpt lat="43.3407" lon="5.6626">
        <ele>402</ele>
        <time>2019-01-18T13:38:13.000Z</time>
      </trkpt>
      <trkpt lat="43.34071" lon="5.6626">
        <ele>402</ele>
        <time>2019-01-18T13:38:14.000Z</time>
      </trkpt>
      <trkpt lat="43.34072" lon="5.66259">
        <ele>402</ele>
        <time>2019-01-18T13:38:15.000Z</time>
      </trkpt>
      <trkpt lat="43.34073" lon="5.66258">
        <ele>402</ele>
        <time>2019-01-18T13:38:16.000Z</time>
      </trkpt>
      <trkpt lat="43.34074" lon="5.66258">
        <ele>402</ele>
        <time>2019-01-18T13:38:17.000Z</time>
      </trkpt>
      <trkpt lat="43.34075" lon="5.66257">
        <ele>402</ele>
        <time>2019-01-18T13:38:18.000Z</time>
      </trkpt>
      <trkpt lat="43.34076" lon="5.66257">
        <ele>402</ele>
        <time>2019-01-18T13:38:19.000Z</time>
      </trkpt>
      <trkpt lat="43.34077" lon="5.66256">
        <ele>402</ele>
        <time>2019-01-18T13:38:20.000Z</time>
      </trkpt>
      <trkpt lat="43.34079" lon="5.66256">
        <ele>402</ele>
        <time>2019-01-18T13:38:21.000Z</time>
      </trkpt>
      <trkpt lat="43.3408" lon="5.66256">
        <ele>402</ele>
        <time>2019-01-18T13:38:22.000Z</time>
      </trkpt>
      <trkpt lat="43.34081" lon="5.66255">
        <ele>402</ele>
        <time>2019-01-18T13:38:23.000Z</time>
      </trkpt>
      <trkpt lat="43.34082" lon="5.66255">
        <ele>402</ele>
        <time>2019-01-18T13:38:24.000Z</time>
      </trkpt>
      <trkpt lat="43.34083" lon="5.66254">
        <ele>402</ele>
        <time>2019-01-18T13:38:25.000Z</time>
      </trkpt>
      <trkpt lat="43.34084" lon="5.66253">
        <ele>402</ele>
        <time>2019-01-18T13:38:26.000Z</time>
      </trkpt>
      <trkpt lat="43.34085" lon="5.66253">
        <ele>402</ele>
        <time>2019-01-18T13:38:27.000Z</time>
      </trkpt>
      <trkpt lat="43.34086" lon="5.66252">
        <ele>402</ele>
        <time>2019-01-18T13:38:28.000Z</time>
      </trkpt>
      <trkpt lat="43.34087" lon="5.66251">
        <ele>402</ele>
        <time>2019-01-18T13:38:29.000Z</time>
      </trkpt>
      <trkpt lat="43.34088" lon="5.66251">
        <ele>402</ele>
        <time>2019-01-18T13:38:30.000Z</time>
      </trkpt>
      <trkpt lat="43.34089" lon="5.6625">
        <ele>402</ele>
        <time>2019-01-18T13:38:31.000Z</time>
      </trkpt>
      <trkpt lat="43.3409" lon="5.66249">
        <ele>402</ele>
        <time>2019-01-18T13:38:32.000Z</time>
      </trkpt>
      <trkpt lat="43.3409" lon="5.66248">
        <ele>402</ele>
        <time>2019-01-18T13:38:33.000Z</time>
      </trkpt>
      <trkpt lat="43.34091" lon="5.66248">
        <ele>402</ele>
        <time>2019-01-18T13:38:34.000Z</time>
      </trkpt>
      <trkpt lat="43.34092" lon="5.66247">
        <ele>402</ele>
        <time>2019-01-18T13:38:35.000Z</time>
      </trkpt>
      <trkpt lat="43.34093" lon="5.66247">
        <ele>401</ele>
        <time>2019-01-18T13:38:36.000Z</time>
      </trkpt>
      <trkpt lat="43.34094" lon="5.66246">
        <ele>401</ele>
        <time>2019-01-18T13:38:37.000Z</time>
      </trkpt>
      <trkpt lat="43.34094" lon="5.66246">
        <ele>401</ele>
        <time>2019-01-18T13:38:38.000Z</time>
      </trkpt>
      <trkpt lat="43.34095" lon="5.66245">
        <ele>401</ele>
        <time>2019-01-18T13:38:39.000Z</time>
      </trkpt>
      <trkpt lat="43.34096" lon="5.66244">
        <ele>401</ele>
        <time>2019-01-18T13:38:40.000Z</time>
      </trkpt>
      <trkpt lat="43.34097" lon="5.66243">
        <ele>401</ele>
        <time>2019-01-18T13:38:41.000Z</time>
      </trkpt>
      <trkpt lat="43.34098" lon="5.66243">
        <ele>401</ele>
        <time>2019-01-18T13:38:42.000Z</time>
      </trkpt>
      <trkpt lat="43.34099" lon="5.66242">
        <ele>401</ele>
        <time>2019-01-18T13:38:43.000Z</time>
      </trkpt>
      <trkpt lat="43.341" lon="5.66242">
        <ele>400</ele>
        <time>2019-01-18T13:38:44.000Z</time>
      </trkpt>
      <trkpt lat="43.34101" lon="5.66241">
        <ele>400</ele>
        <time>2019-01-18T13:38:45.000Z</time>
      </trkpt>
      <trkpt lat="43.34101" lon="5.66241">
        <ele>400</ele>
        <time>2019-01-18T13:38:46.000Z</time>
      </trkpt>
      <trkpt lat="43.34102" lon="5.66241">
        <ele>400</ele>
        <time>2019-01-18T13:38:47.000Z</time>
      </trkpt>
      <trkpt lat="43.34103" lon="5.6624">
        <ele>400</ele>
        <time>2019-01-18T13:38:48.000Z</time>
      </trkpt>
      <trkpt lat="43.34103" lon="5.66239">
        <ele>400</ele>
        <time>2019-01-18T13:38:49.000Z</time>
      </trkpt>
      <trkpt lat="43.34104" lon="5.66239">
        <ele>400</ele>
        <time>2019-01-18T13:38:50.000Z</time>
      </trkpt>
      <trkpt lat="43.34105" lon="5.66238">
        <ele>399</ele>
        <time>2019-01-18T13:38:51.000Z</time>
      </trkpt>
      <trkpt lat="43.34105" lon="5.66238">
        <ele>399</ele>
        <time>2019-01-18T13:38:52.000Z</time>
      </trkpt>
      <trkpt lat="43.34106" lon="5.66237">
        <ele>399</ele>
        <time>2019-01-18T13:38:53.000Z</time>
      </trkpt>
      <trkpt lat="43.34107" lon="5.66237">
        <ele>399</ele>
        <time>2019-01-18T13:38:54.000Z</time>
      </trkpt>
      <trkpt lat="43.34107" lon="5.66236">
        <ele>399</ele>
        <time>2019-01-18T13:38:55.000Z</time>
      </trkpt>
      <trkpt lat="43.34108" lon="5.66235">
        <ele>398</ele>
        <time>2019-01-18T13:38:56.000Z</time>
      </trkpt>
      <trkpt lat="43.34108" lon="5.66234">
        <ele>398</ele>
        <time>2019-01-18T13:38:57.000Z</time>
      </trkpt>
      <trkpt lat="43.34109" lon="5.66233">
        <ele>398</ele>
        <time>2019-01-18T13:38:58.000Z</time>
      </trkpt>
      <trkpt lat="43.34109" lon="5.66233">
        <ele>398</ele>
        <time>2019-01-18T13:38:59.000Z</time>
      </trkpt>
      <trkpt lat="43.3411" lon="5.66232">
        <ele>398</ele>
        <time>2019-01-18T13:39:00.000Z</time>
      </trkpt>
      <trkpt lat="43.3411" lon="5.66231">
        <ele>397</ele>
        <time>2019-01-18T13:39:01.000Z</time>
      </trkpt>
      <trkpt lat="43.34111" lon="5.6623">
        <ele>397</ele>
        <time>2019-01-18T13:39:02.000Z</time>
      </trkpt>
      <trkpt lat="43.34111" lon="5.6623">
        <ele>397</ele>
        <time>2019-01-18T13:39:03.000Z</time>
      </trkpt>
      <trkpt lat="43.34112" lon="5.66229">
        <ele>397</ele>
        <time>2019-01-18T13:39:04.000Z</time>
      </trkpt>
      <trkpt lat="43.34112" lon="5.66229">
        <ele>397</ele>
        <time>2019-01-18T13:39:05.000Z</time>
      </trkpt>
      <trkpt lat="43.34113" lon="5.66228">
        <ele>397</ele>
        <time>2019-01-18T13:39:06.000Z</time>
      </trkpt>
      <trkpt lat="43.34113" lon="5.66227">
        <ele>397</ele>
        <time>2019-01-18T13:39:07.000Z</time>
      </trkpt>
      <trkpt lat="43.34114" lon="5.66227">
        <ele>397</ele>
        <time>2019-01-18T13:39:08.000Z</time>
      </trkpt>
      <trkpt lat="43.34114" lon="5.66226">
        <ele>396</ele>
        <time>2019-01-18T13:39:09.000Z</time>
      </trkpt>
      <trkpt lat="43.34114" lon="5.66225">
        <ele>396</ele>
        <time>2019-01-18T13:39:10.000Z</time>
      </trkpt>
      <trkpt lat="43.34115" lon="5.66225">
        <ele>396</ele>
        <time>2019-01-18T13:39:11.000Z</time>
      </trkpt>
      <trkpt lat="43.34116" lon="5.66224">
        <ele>396</ele>
        <time>2019-01-18T13:39:12.000Z</time>
      </trkpt>
      <trkpt lat="43.34116" lon="5.66224">
        <ele>396</ele>
        <time>2019-01-18T13:39:13.000Z</time>
      </trkpt>
      <trkpt lat="43.34117" lon="5.66223">
        <ele>396</ele>
        <time>2019-01-18T13:39:14.000Z</time>
      </trkpt>
      <trkpt lat="43.34117" lon="5.66222">
        <ele>396</ele>
        <time>2019-01-18T13:39:15.000Z</time>
      </trkpt>
      <trkpt lat="43.34118" lon="5.66221">
        <ele>396</ele>
        <time>2019-01-18T13:39:16.000Z</time>
      </trkpt>
      <trkpt lat="43.34119" lon="5.6622">
        <ele>396</ele>
        <time>2019-01-18T13:39:17.000Z</time>
      </trkpt>
      <trkpt lat="43.34119" lon="5.66219">
        <ele>396</ele>
        <time>2019-01-18T13:39:18.000Z</time>
      </trkpt>
      <trkpt lat="43.3412" lon="5.66218">
        <ele>395</ele>
        <time>2019-01-18T13:39:19.000Z</time>
      </trkpt>
      <trkpt lat="43.3412" lon="5.66218">
        <ele>395</ele>
        <time>2019-01-18T13:39:20.000Z</time>
      </trkpt>
      <trkpt lat="43.3412" lon="5.66217">
        <ele>395</ele>
        <time>2019-01-18T13:39:21.000Z</time>
      </trkpt>
      <trkpt lat="43.34121" lon="5.66216">
        <ele>395</ele>
        <time>2019-01-18T13:39:22.000Z</time>
      </trkpt>
      <trkpt lat="43.34121" lon="5.66216">
        <ele>395</ele>
        <time>2019-01-18T13:39:23.000Z</time>
      </trkpt>
      <trkpt lat="43.34122" lon="5.66215">
        <ele>395</ele>
        <time>2019-01-18T13:39:24.000Z</time>
      </trkpt>
      <trkpt lat="43.34123" lon="5.66215">
        <ele>395</ele>
        <time>2019-01-18T13:39:25.000Z</time>
      </trkpt>
      <trkpt lat="43.34123" lon="5.66214">
        <ele>395</ele>
        <time>2019-01-18T13:39:26.000Z</time>
      </trkpt>
      <trkpt lat="43.34124" lon="5.66214">
        <ele>394</ele>
        <time>2019-01-18T13:39:27.000Z</time>
      </trkpt>
      <trkpt lat="43.34124" lon="5.66213">
        <ele>394</ele>
        <time>2019-01-18T13:39:28.000Z</time>
      </trkpt>
      <trkpt lat="43.34125" lon="5.66212">
        <ele>394</ele>
        <time>2019-01-18T13:39:29.000Z</time>
      </trkpt>
      <trkpt lat="43.34125" lon="5.66212">
        <ele>394</ele>
        <time>2019-01-18T13:39:30.000Z</time>
      </trkpt>
      <trkpt lat="43.34125" lon="5.66211">
        <ele>394</ele>
        <time>2019-01-18T13:39:31.000Z</time>
      </trkpt>
      <trkpt lat="43.34125" lon="5.6621">
        <ele>394</ele>
        <time>2019-01-18T13:39:32.000Z</time>
      </trkpt>
      <trkpt lat="43.34125" lon="5.6621">
        <ele>394</ele>
        <time>2019-01-18T13:39:33.000Z</time>
      </trkpt>
      <trkpt lat="43.34126" lon="5.66209">
        <ele>394</ele>
        <time>2019-01-18T13:39:34.000Z</time>
      </trkpt>
      <trkpt lat="43.34126" lon="5.66208">
        <ele>394</ele>
        <time>2019-01-18T13:39:35.000Z</time>
      </trkpt>
      <trkpt lat="43.34126" lon="5.66207">
        <ele>393</ele>
        <time>2019-01-18T13:39:36.000Z</time>
      </trkpt>
      <trkpt lat="43.34127" lon="5.66207">
        <ele>393</ele>
        <time>2019-01-18T13:39:37.000Z</time>
      </trkpt>
      <trkpt lat="43.34127" lon="5.66206">
        <ele>393</ele>
        <time>2019-01-18T13:39:38.000Z</time>
      </trkpt>
      <trkpt lat="43.34128" lon="5.66205">
        <ele>393</ele>
        <time>2019-01-18T13:39:39.000Z</time>
      </trkpt>
      <trkpt lat="43.34128" lon="5.66205">
        <ele>393</ele>
        <time>2019-01-18T13:39:40.000Z</time>
      </trkpt>
      <trkpt lat="43.34129" lon="5.66204">
        <ele>393</ele>
        <time>2019-01-18T13:39:41.000Z</time>
      </trkpt>
      <trkpt lat="43.34129" lon="5.66203">
        <ele>392</ele>
        <time>2019-01-18T13:39:42.000Z</time>
      </trkpt>
      <trkpt lat="43.3413" lon="5.66203">
        <ele>392</ele>
        <time>2019-01-18T13:39:43.000Z</time>
      </trkpt>
      <trkpt lat="43.3413" lon="5.66202">
        <ele>392</ele>
        <time>2019-01-18T13:39:44.000Z</time>
      </trkpt>
      <trkpt lat="43.3413" lon="5.66201">
        <ele>392</ele>
        <time>2019-01-18T13:39:45.000Z</time>
      </trkpt>
      <trkpt lat="43.34131" lon="5.662">
        <ele>392</ele>
        <time>2019-01-18T13:39:46.000Z</time>
      </trkpt>
      <trkpt lat="43.34131" lon="5.662">
        <ele>392</ele>
        <time>2019-01-18T13:39:47.000Z</time>
      </trkpt>
      <trkpt lat="43.34131" lon="5.66199">
        <ele>392</ele>
        <time>2019-01-18T13:39:48.000Z</time>
      </trkpt>
      <trkpt lat="43.34132" lon="5.66198">
        <ele>392</ele>
        <time>2019-01-18T13:39:49.000Z</time>
      </trkpt>
      <trkpt lat="43.34132" lon="5.66198">
        <ele>391</ele>
        <time>2019-01-18T13:39:50.000Z</time>
      </trkpt>
      <trkpt lat="43.34132" lon="5.66197">
        <ele>391</ele>
        <time>2019-01-18T13:39:51.000Z</time>
      </trkpt>
      <trkpt lat="43.34132" lon="5.66196">
        <ele>391</ele>
        <time>2019-01-18T13:39:52.000Z</time>
      </trkpt>
      <trkpt lat="43.34133" lon="5.66196">
        <ele>391</ele>
        <time>2019-01-18T13:39:53.000Z</time>
      </trkpt>
      <trkpt lat="43.34133" lon="5.66195">
        <ele>391</ele>
        <time>2019-01-18T13:39:54.000Z</time>
      </trkpt>
      <trkpt lat="43.34134" lon="5.66194">
        <ele>391</ele>
        <time>2019-01-18T13:39:55.000Z</time>
      </trkpt>
      <trkpt lat="43.34134" lon="5.66193">
        <ele>390</ele>
        <time>2019-01-18T13:39:56.000Z</time>
      </trkpt>
      <trkpt lat="43.34135" lon="5.66193">
        <ele>390</ele>
        <time>2019-01-18T13:39:57.000Z</time>
      </trkpt>
      <trkpt lat="43.34135" lon="5.66192">
        <ele>390</ele>
        <time>2019-01-18T13:39:58.000Z</time>
      </trkpt>
      <trkpt lat="43.34136" lon="5.66191">
        <ele>390</ele>
        <time>2019-01-18T13:39:59.000Z</time>
      </trkpt>
      <trkpt lat="43.34136" lon="5.6619">
        <ele>390</ele>
        <time>2019-01-18T13:40:00.000Z</time>
      </trkpt>
      <trkpt lat="43.34137" lon="5.66189">
        <ele>390</ele>
        <time>2019-01-18T13:40:01.000Z</time>
      </trkpt>
      <trkpt lat="43.34138" lon="5.66188">
        <ele>390</ele>
        <time>2019-01-18T13:40:02.000Z</time>
      </trkpt>
      <trkpt lat="43.34139" lon="5.66188">
        <ele>390</ele>
        <time>2019-01-18T13:40:03.000Z</time>
      </trkpt>
      <trkpt lat="43.34139" lon="5.66187">
        <ele>390</ele>
        <time>2019-01-18T13:40:04.000Z</time>
      </trkpt>
      <trkpt lat="43.3414" lon="5.66186">
        <ele>390</ele>
        <time>2019-01-18T13:40:05.000Z</time>
      </trkpt>
      <trkpt lat="43.34141" lon="5.66185">
        <ele>389</ele>
        <time>2019-01-18T13:40:06.000Z</time>
      </trkpt>
      <trkpt lat="43.34142" lon="5.66184">
        <ele>389</ele>
        <time>2019-01-18T13:40:07.000Z</time>
      </trkpt>
      <trkpt lat="43.34143" lon="5.66184">
        <ele>389</ele>
        <time>2019-01-18T13:40:08.000Z</time>
      </trkpt>
      <trkpt lat="43.34143" lon="5.66183">
        <ele>389</ele>
        <time>2019-01-18T13:40:09.000Z</time>
      </trkpt>
      <trkpt lat="43.34144" lon="5.66182">
        <ele>389</ele>
        <time>2019-01-18T13:40:10.000Z</time>
      </trkpt>
      <trkpt lat="43.34145" lon="5.66182">
        <ele>389</ele>
        <time>2019-01-18T13:40:11.000Z</time>
      </trkpt>
      <trkpt lat="43.34145" lon="5.66181">
        <ele>389</ele>
        <time>2019-01-18T13:40:12.000Z</time>
      </trkpt>
      <trkpt lat="43.34145" lon="5.6618">
        <ele>389</ele>
        <time>2019-01-18T13:40:13.000Z</time>
      </trkpt>
      <trkpt lat="43.34146" lon="5.66179">
        <ele>389</ele>
        <time>2019-01-18T13:40:14.000Z</time>
      </trkpt>
      <trkpt lat="43.34146" lon="5.66178">
        <ele>389</ele>
        <time>2019-01-18T13:40:15.000Z</time>
      </trkpt>
      <trkpt lat="43.34147" lon="5.66177">
        <ele>389</ele>
        <time>2019-01-18T13:40:16.000Z</time>
      </trkpt>
      <trkpt lat="43.34147" lon="5.66176">
        <ele>389</ele>
        <time>2019-01-18T13:40:17.000Z</time>
      </trkpt>
      <trkpt lat="43.34147" lon="5.66175">
        <ele>389</ele>
        <time>2019-01-18T13:40:18.000Z</time>
      </trkpt>
      <trkpt lat="43.34148" lon="5.66173">
        <ele>389</ele>
        <time>2019-01-18T13:40:19.000Z</time>
      </trkpt>
      <trkpt lat="43.34148" lon="5.66173">
        <ele>388</ele>
        <time>2019-01-18T13:40:20.000Z</time>
      </trkpt>
      <trkpt lat="43.34149" lon="5.66172">
        <ele>388</ele>
        <time>2019-01-18T13:40:21.000Z</time>
      </trkpt>
      <trkpt lat="43.34149" lon="5.6617">
        <ele>388</ele>
        <time>2019-01-18T13:40:22.000Z</time>
      </trkpt>
      <trkpt lat="43.34149" lon="5.66169">
        <ele>388</ele>
        <time>2019-01-18T13:40:23.000Z</time>
      </trkpt>
      <trkpt lat="43.3415" lon="5.66168">
        <ele>388</ele>
        <time>2019-01-18T13:40:24.000Z</time>
      </trkpt>
      <trkpt lat="43.3415" lon="5.66167">
        <ele>388</ele>
        <time>2019-01-18T13:40:25.000Z</time>
      </trkpt>
      <trkpt lat="43.3415" lon="5.66166">
        <ele>388</ele>
        <time>2019-01-18T13:40:26.000Z</time>
      </trkpt>
      <trkpt lat="43.34151" lon="5.66165">
        <ele>388</ele>
        <time>2019-01-18T13:40:27.000Z</time>
      </trkpt>
      <trkpt lat="43.34152" lon="5.66164">
        <ele>388</ele>
        <time>2019-01-18T13:40:28.000Z</time>
      </trkpt>
      <trkpt lat="43.34152" lon="5.66163">
        <ele>388</ele>
        <time>2019-01-18T13:40:29.000Z</time>
      </trkpt>
      <trkpt lat="43.34153" lon="5.66162">
        <ele>387</ele>
        <time>2019-01-18T13:40:30.000Z</time>
      </trkpt>
      <trkpt lat="43.34153" lon="5.6616">
        <ele>387</ele>
        <time>2019-01-18T13:40:31.000Z</time>
      </trkpt>
      <trkpt lat="43.34154" lon="5.66159">
        <ele>387</ele>
        <time>2019-01-18T13:40:32.000Z</time>
      </trkpt>
      <trkpt lat="43.34154" lon="5.66158">
        <ele>387</ele>
        <time>2019-01-18T13:40:33.000Z</time>
      </trkpt>
      <trkpt lat="43.34155" lon="5.66157">
        <ele>387</ele>
        <time>2019-01-18T13:40:34.000Z</time>
      </trkpt>
      <trkpt lat="43.34155" lon="5.66156">
        <ele>387</ele>
        <time>2019-01-18T13:40:35.000Z</time>
      </trkpt>
      <trkpt lat="43.34156" lon="5.66155">
        <ele>387</ele>
        <time>2019-01-18T13:40:36.000Z</time>
      </trkpt>
      <trkpt lat="43.34156" lon="5.66154">
        <ele>386</ele>
        <time>2019-01-18T13:40:37.000Z</time>
      </trkpt>
      <trkpt lat="43.34157" lon="5.66152">
        <ele>386</ele>
        <time>2019-01-18T13:40:38.000Z</time>
      </trkpt>
      <trkpt lat="43.34157" lon="5.66151">
        <ele>386</ele>
        <time>2019-01-18T13:40:39.000Z</time>
      </trkpt>
      <trkpt lat="43.34158" lon="5.6615">
        <ele>386</ele>
        <time>2019-01-18T13:40:40.000Z</time>
      </trkpt>
      <trkpt lat="43.34158" lon="5.66148">
        <ele>386</ele>
        <time>2019-01-18T13:40:41.000Z</time>
      </trkpt>
      <trkpt lat="43.34158" lon="5.66147">
        <ele>386</ele>
        <time>2019-01-18T13:40:42.000Z</time>
      </trkpt>
      <trkpt lat="43.34158" lon="5.66145">
        <ele>385</ele>
        <time>2019-01-18T13:40:43.000Z</time>
      </trkpt>
      <trkpt lat="43.34157" lon="5.66144">
        <ele>385</ele>
        <time>2019-01-18T13:40:44.000Z</time>
      </trkpt>
      <trkpt lat="43.34157" lon="5.66142">
        <ele>385</ele>
        <time>2019-01-18T13:40:45.000Z</time>
      </trkpt>
      <trkpt lat="43.34157" lon="5.66141">
        <ele>385</ele>
        <time>2019-01-18T13:40:46.000Z</time>
      </trkpt>
      <trkpt lat="43.34157" lon="5.6614">
        <ele>385</ele>
        <time>2019-01-18T13:40:47.000Z</time>
      </trkpt>
      <trkpt lat="43.34158" lon="5.66138">
        <ele>384</ele>
        <time>2019-01-18T13:40:48.000Z</time>
      </trkpt>
      <trkpt lat="43.34158" lon="5.66137">
        <ele>384</ele>
        <time>2019-01-18T13:40:49.000Z</time>
      </trkpt>
      <trkpt lat="43.34158" lon="5.66135">
        <ele>384</ele>
        <time>2019-01-18T13:40:50.000Z</time>
      </trkpt>
      <trkpt lat="43.34159" lon="5.66134">
        <ele>384</ele>
        <time>2019-01-18T13:40:51.000Z</time>
      </trkpt>
      <trkpt lat="43.34159" lon="5.66133">
        <ele>383</ele>
        <time>2019-01-18T13:40:52.000Z</time>
      </trkpt>
      <trkpt lat="43.34159" lon="5.66131">
        <ele>383</ele>
        <time>2019-01-18T13:40:53.000Z</time>
      </trkpt>
      <trkpt lat="43.3416" lon="5.6613">
        <ele>383</ele>
        <time>2019-01-18T13:40:54.000Z</time>
      </trkpt>
      <trkpt lat="43.3416" lon="5.66128">
        <ele>383</ele>
        <time>2019-01-18T13:40:55.000Z</time>
      </trkpt>
      <trkpt lat="43.34161" lon="5.66126">
        <ele>383</ele>
        <time>2019-01-18T13:40:56.000Z</time>
      </trkpt>
      <trkpt lat="43.34161" lon="5.66125">
        <ele>382</ele>
        <time>2019-01-18T13:40:57.000Z</time>
      </trkpt>
      <trkpt lat="43.34161" lon="5.66124">
        <ele>382</ele>
        <time>2019-01-18T13:40:58.000Z</time>
      </trkpt>
      <trkpt lat="43.34162" lon="5.66122">
        <ele>382</ele>
        <time>2019-01-18T13:40:59.000Z</time>
      </trkpt>
      <trkpt lat="43.34162" lon="5.6612">
        <ele>382</ele>
        <time>2019-01-18T13:41:00.000Z</time>
      </trkpt>
      <trkpt lat="43.34162" lon="5.66119">
        <ele>382</ele>
        <time>2019-01-18T13:41:01.000Z</time>
      </trkpt>
      <trkpt lat="43.34163" lon="5.66118">
        <ele>381</ele>
        <time>2019-01-18T13:41:02.000Z</time>
      </trkpt>
      <trkpt lat="43.34163" lon="5.66117">
        <ele>381</ele>
        <time>2019-01-18T13:41:03.000Z</time>
      </trkpt>
      <trkpt lat="43.34164" lon="5.66116">
        <ele>381</ele>
        <time>2019-01-18T13:41:04.000Z</time>
      </trkpt>
      <trkpt lat="43.34164" lon="5.66114">
        <ele>380</ele>
        <time>2019-01-18T13:41:05.000Z</time>
      </trkpt>
      <trkpt lat="43.34165" lon="5.66113">
        <ele>380</ele>
        <time>2019-01-18T13:41:06.000Z</time>
      </trkpt>
      <trkpt lat="43.34165" lon="5.66112">
        <ele>380</ele>
        <time>2019-01-18T13:41:07.000Z</time>
      </trkpt>
      <trkpt lat="43.34166" lon="5.66111">
        <ele>380</ele>
        <time>2019-01-18T13:41:08.000Z</time>
      </trkpt>
      <trkpt lat="43.34166" lon="5.6611">
        <ele>380</ele>
        <time>2019-01-18T13:41:09.000Z</time>
      </trkpt>
      <trkpt lat="43.34166" lon="5.66109">
        <ele>379</ele>
        <time>2019-01-18T13:41:10.000Z</time>
      </trkpt>
      <trkpt lat="43.34166" lon="5.66108">
        <ele>379</ele>
        <time>2019-01-18T13:41:11.000Z</time>
      </trkpt>
      <trkpt lat="43.34166" lon="5.66108">
        <ele>379</ele>
        <time>2019-01-18T13:41:12.000Z</time>
      </trkpt>
      <trkpt lat="43.34166" lon="5.66108">
        <ele>379</ele>
        <time>2019-01-18T13:41:13.000Z</time>
      </trkpt>
      <trkpt lat="43.34166" lon="5.66107">
        <ele>379</ele>
        <time>2019-01-18T13:41:14.000Z</time>
      </trkpt>
      <trkpt lat="43.34165" lon="5.66107">
        <ele>378</ele>
        <time>2019-01-18T13:41:15.000Z</time>
      </trkpt>
      <trkpt lat="43.34166" lon="5.66106">
        <ele>378</ele>
        <time>2019-01-18T13:41:16.000Z</time>
      </trkpt>
      <trkpt lat="43.34166" lon="5.66105">
        <ele>378</ele>
        <time>2019-01-18T13:41:17.000Z</time>
      </trkpt>
      <trkpt lat="43.34166" lon="5.66104">
        <ele>377</ele>
        <time>2019-01-18T13:41:18.000Z</time>
      </trkpt>
      <trkpt lat="43.34166" lon="5.66103">
        <ele>377</ele>
        <time>2019-01-18T13:41:19.000Z</time>
      </trkpt>
      <trkpt lat="43.34167" lon="5.66102">
        <ele>377</ele>
        <time>2019-01-18T13:41:20.000Z</time>
      </trkpt>
      <trkpt lat="43.34167" lon="5.66101">
        <ele>377</ele>
        <time>2019-01-18T13:41:21.000Z</time>
      </trkpt>
      <trkpt lat="43.34168" lon="5.66099">
        <ele>377</ele>
        <time>2019-01-18T13:41:22.000Z</time>
      </trkpt>
      <trkpt lat="43.34169" lon="5.66098">
        <ele>376</ele>
        <time>2019-01-18T13:41:23.000Z</time>
      </trkpt>
      <trkpt lat="43.34169" lon="5.66097">
        <ele>376</ele>
        <time>2019-01-18T13:41:24.000Z</time>
      </trkpt>
      <trkpt lat="43.3417" lon="5.66096">
        <ele>376</ele>
        <time>2019-01-18T13:41:25.000Z</time>
      </trkpt>
      <trkpt lat="43.34171" lon="5.66095">
        <ele>376</ele>
        <time>2019-01-18T13:41:26.000Z</time>
      </trkpt>
      <trkpt lat="43.34171" lon="5.66094">
        <ele>376</ele>
        <time>2019-01-18T13:41:27.000Z</time>
      </trkpt>
      <trkpt lat="43.34171" lon="5.66093">
        <ele>375</ele>
        <time>2019-01-18T13:41:28.000Z</time>
      </trkpt>
      <trkpt lat="43.34172" lon="5.66092">
        <ele>375</ele>
        <time>2019-01-18T13:41:29.000Z</time>
      </trkpt>
      <trkpt lat="43.34172" lon="5.66091">
        <ele>375</ele>
        <time>2019-01-18T13:41:30.000Z</time>
      </trkpt>
      <trkpt lat="43.34172" lon="5.6609">
        <ele>375</ele>
        <time>2019-01-18T13:41:31.000Z</time>
      </trkpt>
      <trkpt lat="43.34173" lon="5.66089">
        <ele>375</ele>
        <time>2019-01-18T13:41:32.000Z</time>
      </trkpt>
      <trkpt lat="43.34173" lon="5.66088">
        <ele>374</ele>
        <time>2019-01-18T13:41:33.000Z</time>
      </trkpt>
      <trkpt lat="43.34173" lon="5.66088">
        <ele>374</ele>
        <time>2019-01-18T13:41:34.000Z</time>
      </trkpt>
      <trkpt lat="43.34174" lon="5.66087">
        <ele>374</ele>
        <time>2019-01-18T13:41:35.000Z</time>
      </trkpt>
      <trkpt lat="43.34174" lon="5.66086">
        <ele>374</ele>
        <time>2019-01-18T13:41:36.000Z</time>
      </trkpt>
      <trkpt lat="43.34175" lon="5.66084">
        <ele>373</ele>
        <time>2019-01-18T13:41:37.000Z</time>
      </trkpt>
      <trkpt lat="43.34176" lon="5.66083">
        <ele>373</ele>
        <time>2019-01-18T13:41:38.000Z</time>
      </trkpt>
      <trkpt lat="43.34176" lon="5.66082">
        <ele>373</ele>
        <time>2019-01-18T13:41:39.000Z</time>
      </trkpt>
      <trkpt lat="43.34177" lon="5.66081">
        <ele>373</ele>
        <time>2019-01-18T13:41:40.000Z</time>
      </trkpt>
      <trkpt lat="43.34177" lon="5.66079">
        <ele>372</ele>
        <time>2019-01-18T13:41:41.000Z</time>
      </trkpt>
      <trkpt lat="43.34178" lon="5.66078">
        <ele>372</ele>
        <time>2019-01-18T13:41:42.000Z</time>
      </trkpt>
      <trkpt lat="43.34178" lon="5.66077">
        <ele>372</ele>
        <time>2019-01-18T13:41:43.000Z</time>
      </trkpt>
      <trkpt lat="43.34178" lon="5.66076">
        <ele>372</ele>
        <time>2019-01-18T13:41:44.000Z</time>
      </trkpt>
      <trkpt lat="43.34178" lon="5.66075">
        <ele>371</ele>
        <time>2019-01-18T13:41:45.000Z</time>
      </trkpt>
      <trkpt lat="43.34179" lon="5.66074">
        <ele>371</ele>
        <time>2019-01-18T13:41:46.000Z</time>
      </trkpt>
      <trkpt lat="43.34179" lon="5.66073">
        <ele>371</ele>
        <time>2019-01-18T13:41:47.000Z</time>
      </trkpt>
      <trkpt lat="43.3418" lon="5.66071">
        <ele>371</ele>
        <time>2019-01-18T13:41:48.000Z</time>
      </trkpt>
      <trkpt lat="43.3418" lon="5.66069">
        <ele>370</ele>
        <time>2019-01-18T13:41:49.000Z</time>
      </trkpt>
      <trkpt lat="43.34181" lon="5.66068">
        <ele>370</ele>
        <time>2019-01-18T13:41:50.000Z</time>
      </trkpt>
      <trkpt lat="43.34181" lon="5.66066">
        <ele>370</ele>
        <time>2019-01-18T13:41:51.000Z</time>
      </trkpt>
      <trkpt lat="43.34182" lon="5.66065">
        <ele>370</ele>
        <time>2019-01-18T13:41:52.000Z</time>
      </trkpt>
      <trkpt lat="43.34183" lon="5.66064">
        <ele>370</ele>
        <time>2019-01-18T13:41:53.000Z</time>
      </trkpt>
      <trkpt lat="43.34184" lon="5.66062">
        <ele>369</ele>
        <time>2019-01-18T13:41:54.000Z</time>
      </trkpt>
      <trkpt lat="43.34184" lon="5.66061">
        <ele>369</ele>
        <time>2019-01-18T13:41:55.000Z</time>
      </trkpt>
      <trkpt lat="43.34185" lon="5.6606">
        <ele>369</ele>
        <time>2019-01-18T13:41:56.000Z</time>
      </trkpt>
      <trkpt lat="43.34186" lon="5.66059">
        <ele>369</ele>
        <time>2019-01-18T13:41:57.000Z</time>
      </trkpt>
      <trkpt lat="43.34187" lon="5.66058">
        <ele>369</ele>
        <time>2019-01-18T13:41:58.000Z</time>
      </trkpt>
      <trkpt lat="43.34187" lon="5.66057">
        <ele>368</ele>
        <time>2019-01-18T13:41:59.000Z</time>
      </trkpt>
      <trkpt lat="43.34187" lon="5.66057">
        <ele>368</ele>
        <time>2019-01-18T13:42:00.000Z</time>
      </trkpt>
      <trkpt lat="43.34187" lon="5.66057">
        <ele>368</ele>
        <time>2019-01-18T13:42:01.000Z</time>
      </trkpt>
      <trkpt lat="43.34187" lon="5.66056">
        <ele>368</ele>
        <time>2019-01-18T13:42:02.000Z</time>
      </trkpt>
      <trkpt lat="43.34186" lon="5.66056">
        <ele>368</ele>
        <time>2019-01-18T13:42:03.000Z</time>
      </trkpt>
      <trkpt lat="43.34186" lon="5.66056">
        <ele>368</ele>
        <time>2019-01-18T13:42:04.000Z</time>
      </trkpt>
      <trkpt lat="43.34186" lon="5.66055">
        <ele>368</ele>
        <time>2019-01-18T13:42:05.000Z</time>
      </trkpt>
      <trkpt lat="43.34187" lon="5.66055">
        <ele>368</ele>
        <time>2019-01-18T13:42:06.000Z</time>
      </trkpt>
      <trkpt lat="43.34187" lon="5.66055">
        <ele>368</ele>
        <time>2019-01-18T13:42:07.000Z</time>
      </trkpt>
      <trkpt lat="43.34187" lon="5.66054">
        <ele>368</ele>
        <time>2019-01-18T13:42:08.000Z</time>
      </trkpt>
      <trkpt lat="43.34187" lon="5.66054">
        <ele>368</ele>
        <time>2019-01-18T13:42:09.000Z</time>
      </trkpt>
      <trkpt lat="43.34187" lon="5.66054">
        <ele>368</ele>
        <time>2019-01-18T13:42:10.000Z</time>
      </trkpt>
      <trkpt lat="43.34187" lon="5.66054">
        <ele>368</ele>
        <time>2019-01-18T13:42:11.000Z</time>
      </trkpt>
      <trkpt lat="43.34187" lon="5.66053">
        <ele>367</ele>
        <time>2019-01-18T13:42:12.000Z</time>
      </trkpt>
      <trkpt lat="43.34187" lon="5.66053">
        <ele>367</ele>
        <time>2019-01-18T13:42:13.000Z</time>
      </trkpt>
      <trkpt lat="43.34187" lon="5.66053">
        <ele>367</ele>
        <time>2019-01-18T13:42:14.000Z</time>
      </trkpt>
      <trkpt lat="43.34187" lon="5.66053">
        <ele>367</ele>
        <time>2019-01-18T13:42:15.000Z</time>
      </trkpt>
      <trkpt lat="43.34187" lon="5.66053">
        <ele>367</ele>
        <time>2019-01-18T13:42:16.000Z</time>
      </trkpt>
      <trkpt lat="43.34187" lon="5.66053">
        <ele>367</ele>
        <time>2019-01-18T13:42:17.000Z</time>
      </trkpt>
      <trkpt lat="43.34187" lon="5.66052">
        <ele>367</ele>
        <time>2019-01-18T13:42:18.000Z</time>
      </trkpt>
      <trkpt lat="43.34187" lon="5.66052">
        <ele>367</ele>
        <time>2019-01-18T13:42:19.000Z</time>
      </trkpt>
      <trkpt lat="43.34187" lon="5.66052">
        <ele>367</ele>
        <time>2019-01-18T13:42:20.000Z</time>
      </trkpt>
      <trkpt lat="43.34187" lon="5.66052">
        <ele>367</ele>
        <time>2019-01-18T13:42:21.000Z</time>
      </trkpt>
      <trkpt lat="43.34187" lon="5.66052">
        <ele>367</ele>
        <time>2019-01-18T13:42:22.000Z</time>
      </trkpt>
      <trkpt lat="43.34187" lon="5.66052">
        <ele>367</ele>
        <time>2019-01-18T13:42:23.000Z</time>
      </trkpt>
      <trkpt lat="43.34187" lon="5.66052">
        <ele>367</ele>
        <time>2019-01-18T13:42:24.000Z</time>
      </trkpt>
      <trkpt lat="43.34187" lon="5.66053">
        <ele>367</ele>
        <time>2019-01-18T13:42:25.000Z</time>
      </trkpt>
      <trkpt lat="43.34187" lon="5.66053">
        <ele>367</ele>
        <time>2019-01-18T13:42:26.000Z</time>
      </trkpt>
      <trkpt lat="43.34187" lon="5.66052">
        <ele>367</ele>
        <time>2019-01-18T13:42:27.000Z</time>
      </trkpt>
      <trkpt lat="43.34187" lon="5.66052">
        <ele>367</ele>
        <time>2019-01-18T13:42:28.000Z</time>
      </trkpt>
      <trkpt lat="43.34187" lon="5.66052">
        <ele>367</ele>
        <time>2019-01-18T13:42:29.000Z</time>
      </trkpt>
      <trkpt lat="43.34187" lon="5.66052">
        <ele>367</ele>
        <time>2019-01-18T13:42:30.000Z</time>
      </trkpt>
      <trkpt lat="43.34187" lon="5.66052">
        <ele>367</ele>
        <time>2019-01-18T13:42:31.000Z</time>
      </trkpt>
      <trkpt lat="43.34187" lon="5.66052">
        <ele>367</ele>
        <time>2019-01-18T13:42:32.000Z</time>
      </trkpt>
      <trkpt lat="43.34187" lon="5.66052">
        <ele>367</ele>
        <time>2019-01-18T13:42:33.000Z</time>
      </trkpt>
      <trkpt lat="43.34187" lon="5.66052">
        <ele>367</ele>
        <time>2019-01-18T13:42:34.000Z</time>
      </trkpt>
      <trkpt lat="43.34187" lon="5.66052">
        <ele>367</ele>
        <time>2019-01-18T13:42:35.000Z</time>
      </trkpt>
      <trkpt lat="43.34187" lon="5.66052">
        <ele>367</ele>
        <time>2019-01-18T13:42:36.000Z</time>
      </trkpt>
      <trkpt lat="43.34187" lon="5.66051">
        <ele>368</ele>
        <time>2019-01-18T13:42:37.000Z</time>
      </trkpt>
      <trkpt lat="43.34187" lon="5.66052">
        <ele>368</ele>
        <time>2019-01-18T13:42:38.000Z</time>
      </trkpt>
      <trkpt lat="43.34187" lon="5.66052">
        <ele>368</ele>
        <time>2019-01-18T13:42:39.000Z</time>
      </trkpt>
      <trkpt lat="43.34187" lon="5.66051">
        <ele>368</ele>
        <time>2019-01-18T13:42:40.000Z</time>
      </trkpt>
      <trkpt lat="43.34187" lon="5.66051">
        <ele>368</ele>
        <time>2019-01-18T13:42:41.000Z</time>
      </trkpt>
      <trkpt lat="43.34187" lon="5.66051">
        <ele>368</ele>
        <time>2019-01-18T13:42:42.000Z</time>
      </trkpt>
      <trkpt lat="43.34187" lon="5.66051">
        <ele>368</ele>
        <time>2019-01-18T13:42:43.000Z</time>
      </trkpt>
      <trkpt lat="43.34187" lon="5.66051">
        <ele>368</ele>
        <time>2019-01-18T13:42:44.000Z</time>
      </trkpt>
      <trkpt lat="43.34186" lon="5.66051">
        <ele>367</ele>
        <time>2019-01-18T13:42:45.000Z</time>
      </trkpt>
      <trkpt lat="43.34186" lon="5.66051">
        <ele>367</ele>
        <time>2019-01-18T13:42:46.000Z</time>
      </trkpt>
      <trkpt lat="43.34186" lon="5.66051">
        <ele>367</ele>
        <time>2019-01-18T13:42:47.000Z</time>
      </trkpt>
      <trkpt lat="43.34186" lon="5.66051">
        <ele>367</ele>
        <time>2019-01-18T13:42:48.000Z</time>
      </trkpt>
      <trkpt lat="43.34186" lon="5.66051">
        <ele>367</ele>
        <time>2019-01-18T13:42:49.000Z</time>
      </trkpt>
      <trkpt lat="43.34186" lon="5.66051">
        <ele>367</ele>
        <time>2019-01-18T13:42:50.000Z</time>
      </trkpt>
      <trkpt lat="43.34186" lon="5.6605">
        <ele>367</ele>
        <time>2019-01-18T13:42:51.000Z</time>
      </trkpt>
      <trkpt lat="43.34186" lon="5.6605">
        <ele>367</ele>
        <time>2019-01-18T13:42:52.000Z</time>
      </trkpt>
      <trkpt lat="43.34185" lon="5.6605">
        <ele>367</ele>
        <time>2019-01-18T13:42:53.000Z</time>
      </trkpt>
      <trkpt lat="43.34185" lon="5.6605">
        <ele>367</ele>
        <time>2019-01-18T13:42:54.000Z</time>
      </trkpt>
      <trkpt lat="43.34185" lon="5.6605">
        <ele>367</ele>
        <time>2019-01-18T13:42:55.000Z</time>
      </trkpt>
      <trkpt lat="43.34185" lon="5.6605">
        <ele>367</ele>
        <time>2019-01-18T13:42:56.000Z</time>
      </trkpt>
      <trkpt lat="43.34185" lon="5.66049">
        <ele>366</ele>
        <time>2019-01-18T13:42:57.000Z</time>
      </trkpt>
      <trkpt lat="43.34185" lon="5.66049">
        <ele>366</ele>
        <time>2019-01-18T13:42:58.000Z</time>
      </trkpt>
      <trkpt lat="43.34184" lon="5.6605">
        <ele>366</ele>
        <time>2019-01-18T13:42:59.000Z</time>
      </trkpt>
      <trkpt lat="43.34184" lon="5.6605">
        <ele>366</ele>
        <time>2019-01-18T13:43:00.000Z</time>
      </trkpt>
      <trkpt lat="43.34184" lon="5.6605">
        <ele>366</ele>
        <time>2019-01-18T13:43:01.000Z</time>
      </trkpt>
      <trkpt lat="43.34184" lon="5.6605">
        <ele>366</ele>
        <time>2019-01-18T13:43:02.000Z</time>
      </trkpt>
      <trkpt lat="43.34184" lon="5.6605">
        <ele>366</ele>
        <time>2019-01-18T13:43:03.000Z</time>
      </trkpt>
      <trkpt lat="43.34184" lon="5.6605">
        <ele>366</ele>
        <time>2019-01-18T13:43:04.000Z</time>
      </trkpt>
      <trkpt lat="43.34184" lon="5.6605">
        <ele>366</ele>
        <time>2019-01-18T13:43:05.000Z</time>
      </trkpt>
      <trkpt lat="43.34184" lon="5.6605">
        <ele>366</ele>
        <time>2019-01-18T13:43:06.000Z</time>
      </trkpt>
      <trkpt lat="43.34184" lon="5.66049">
        <ele>366</ele>
        <time>2019-01-18T13:43:07.000Z</time>
      </trkpt>
      <trkpt lat="43.34183" lon="5.66049">
        <ele>366</ele>
        <time>2019-01-18T13:43:08.000Z</time>
      </trkpt>
      <trkpt lat="43.34183" lon="5.66049">
        <ele>365</ele>
        <time>2019-01-18T13:43:09.000Z</time>
      </trkpt>
      <trkpt lat="43.34182" lon="5.66048">
        <ele>365</ele>
        <time>2019-01-18T13:43:10.000Z</time>
      </trkpt>
      <trkpt lat="43.34182" lon="5.66048">
        <ele>365</ele>
        <time>2019-01-18T13:43:11.000Z</time>
      </trkpt>
      <trkpt lat="43.34182" lon="5.66048">
        <ele>365</ele>
        <time>2019-01-18T13:43:12.000Z</time>
      </trkpt>
      <trkpt lat="43.34181" lon="5.66048">
        <ele>365</ele>
        <time>2019-01-18T13:43:13.000Z</time>
      </trkpt>
      <trkpt lat="43.3418" lon="5.66047">
        <ele>364</ele>
        <time>2019-01-18T13:43:14.000Z</time>
      </trkpt>
      <trkpt lat="43.3418" lon="5.66047">
        <ele>364</ele>
        <time>2019-01-18T13:43:15.000Z</time>
      </trkpt>
      <trkpt lat="43.3418" lon="5.66047">
        <ele>364</ele>
        <time>2019-01-18T13:43:16.000Z</time>
      </trkpt>
      <trkpt lat="43.34179" lon="5.66047">
        <ele>364</ele>
        <time>2019-01-18T13:43:17.000Z</time>
      </trkpt>
      <trkpt lat="43.34179" lon="5.66047">
        <ele>363</ele>
        <time>2019-01-18T13:43:18.000Z</time>
      </trkpt>
      <trkpt lat="43.34179" lon="5.66046">
        <ele>363</ele>
        <time>2019-01-18T13:43:19.000Z</time>
      </trkpt>
      <trkpt lat="43.34179" lon="5.66046">
        <ele>363</ele>
        <time>2019-01-18T13:43:20.000Z</time>
      </trkpt>
      <trkpt lat="43.34178" lon="5.66046">
        <ele>363</ele>
        <time>2019-01-18T13:43:21.000Z</time>
      </trkpt>
      <trkpt lat="43.34178" lon="5.66046">
        <ele>362</ele>
        <time>2019-01-18T13:43:22.000Z</time>
      </trkpt>
      <trkpt lat="43.34178" lon="5.66045">
        <ele>362</ele>
        <time>2019-01-18T13:43:23.000Z</time>
      </trkpt>
      <trkpt lat="43.34178" lon="5.66045">
        <ele>362</ele>
        <time>2019-01-18T13:43:24.000Z</time>
      </trkpt>
      <trkpt lat="43.34178" lon="5.66045">
        <ele>362</ele>
        <time>2019-01-18T13:43:25.000Z</time>
      </trkpt>
      <trkpt lat="43.34178" lon="5.66045">
        <ele>362</ele>
        <time>2019-01-18T13:43:26.000Z</time>
      </trkpt>
      <trkpt lat="43.34178" lon="5.66046">
        <ele>362</ele>
        <time>2019-01-18T13:43:27.000Z</time>
      </trkpt>
      <trkpt lat="43.34179" lon="5.66045">
        <ele>362</ele>
        <time>2019-01-18T13:43:28.000Z</time>
      </trkpt>
      <trkpt lat="43.34179" lon="5.66045">
        <ele>362</ele>
        <time>2019-01-18T13:43:29.000Z</time>
      </trkpt>
      <trkpt lat="43.3418" lon="5.66045">
        <ele>362</ele>
        <time>2019-01-18T13:43:30.000Z</time>
      </trkpt>
      <trkpt lat="43.34181" lon="5.66045">
        <ele>362</ele>
        <time>2019-01-18T13:43:31.000Z</time>
      </trkpt>
      <trkpt lat="43.34182" lon="5.66044">
        <ele>362</ele>
        <time>2019-01-18T13:43:32.000Z</time>
      </trkpt>
      <trkpt lat="43.34183" lon="5.66044">
        <ele>362</ele>
        <time>2019-01-18T13:43:33.000Z</time>
      </trkpt>
      <trkpt lat="43.34183" lon="5.66043">
        <ele>362</ele>
        <time>2019-01-18T13:43:34.000Z</time>
      </trkpt>
      <trkpt lat="43.34184" lon="5.66043">
        <ele>362</ele>
        <time>2019-01-18T13:43:35.000Z</time>
      </trkpt>
      <trkpt lat="43.34184" lon="5.66043">
        <ele>361</ele>
        <time>2019-01-18T13:43:36.000Z</time>
      </trkpt>
      <trkpt lat="43.34185" lon="5.66042">
        <ele>361</ele>
        <time>2019-01-18T13:43:37.000Z</time>
      </trkpt>
      <trkpt lat="43.34185" lon="5.66042">
        <ele>361</ele>
        <time>2019-01-18T13:43:38.000Z</time>
      </trkpt>
      <trkpt lat="43.34186" lon="5.66042">
        <ele>361</ele>
        <time>2019-01-18T13:43:39.000Z</time>
      </trkpt>
      <trkpt lat="43.34187" lon="5.66041">
        <ele>361</ele>
        <time>2019-01-18T13:43:40.000Z</time>
      </trkpt>
      <trkpt lat="43.34187" lon="5.6604">
        <ele>361</ele>
        <time>2019-01-18T13:43:41.000Z</time>
      </trkpt>
      <trkpt lat="43.34187" lon="5.6604">
        <ele>361</ele>
        <time>2019-01-18T13:43:42.000Z</time>
      </trkpt>
      <trkpt lat="43.34188" lon="5.6604">
        <ele>360</ele>
        <time>2019-01-18T13:43:43.000Z</time>
      </trkpt>
      <trkpt lat="43.34188" lon="5.6604">
        <ele>360</ele>
        <time>2019-01-18T13:43:44.000Z</time>
      </trkpt>
      <trkpt lat="43.34188" lon="5.6604">
        <ele>360</ele>
        <time>2019-01-18T13:43:45.000Z</time>
      </trkpt>
      <trkpt lat="43.34189" lon="5.66041">
        <ele>360</ele>
        <time>2019-01-18T13:43:46.000Z</time>
      </trkpt>
      <trkpt lat="43.3419" lon="5.66041">
        <ele>360</ele>
        <time>2019-01-18T13:43:47.000Z</time>
      </trkpt>
      <trkpt lat="43.3419" lon="5.66041">
        <ele>360</ele>
        <time>2019-01-18T13:43:48.000Z</time>
      </trkpt>
      <trkpt lat="43.34191" lon="5.66042">
        <ele>360</ele>
        <time>2019-01-18T13:43:49.000Z</time>
      </trkpt>
      <trkpt lat="43.34192" lon="5.66042">
        <ele>360</ele>
        <time>2019-01-18T13:43:50.000Z</time>
      </trkpt>
      <trkpt lat="43.34193" lon="5.66042">
        <ele>360</ele>
        <time>2019-01-18T13:43:51.000Z</time>
      </trkpt>
      <trkpt lat="43.34194" lon="5.66042">
        <ele>360</ele>
        <time>2019-01-18T13:43:52.000Z</time>
      </trkpt>
      <trkpt lat="43.34195" lon="5.66042">
        <ele>359</ele>
        <time>2019-01-18T13:43:53.000Z</time>
      </trkpt>
      <trkpt lat="43.34195" lon="5.66042">
        <ele>359</ele>
        <time>2019-01-18T13:43:54.000Z</time>
      </trkpt>
      <trkpt lat="43.34196" lon="5.66041">
        <ele>359</ele>
        <time>2019-01-18T13:43:55.000Z</time>
      </trkpt>
      <trkpt lat="43.34197" lon="5.66041">
        <ele>359</ele>
        <time>2019-01-18T13:43:56.000Z</time>
      </trkpt>
      <trkpt lat="43.34198" lon="5.66041">
        <ele>359</ele>
        <time>2019-01-18T13:43:57.000Z</time>
      </trkpt>
      <trkpt lat="43.34198" lon="5.66041">
        <ele>359</ele>
        <time>2019-01-18T13:43:58.000Z</time>
      </trkpt>
      <trkpt lat="43.34199" lon="5.66041">
        <ele>359</ele>
        <time>2019-01-18T13:43:59.000Z</time>
      </trkpt>
      <trkpt lat="43.342" lon="5.66041">
        <ele>359</ele>
        <time>2019-01-18T13:44:00.000Z</time>
      </trkpt>
      <trkpt lat="43.34201" lon="5.66041">
        <ele>359</ele>
        <time>2019-01-18T13:44:01.000Z</time>
      </trkpt>
      <trkpt lat="43.34201" lon="5.66041">
        <ele>359</ele>
        <time>2019-01-18T13:44:02.000Z</time>
      </trkpt>
      <trkpt lat="43.34202" lon="5.6604">
        <ele>359</ele>
        <time>2019-01-18T13:44:03.000Z</time>
      </trkpt>
      <trkpt lat="43.34202" lon="5.66039">
        <ele>359</ele>
        <time>2019-01-18T13:44:04.000Z</time>
      </trkpt>
      <trkpt lat="43.34203" lon="5.66038">
        <ele>359</ele>
        <time>2019-01-18T13:44:05.000Z</time>
      </trkpt>
      <trkpt lat="43.34204" lon="5.66038">
        <ele>359</ele>
        <time>2019-01-18T13:44:06.000Z</time>
      </trkpt>
      <trkpt lat="43.34204" lon="5.66037">
        <ele>359</ele>
        <time>2019-01-18T13:44:07.000Z</time>
      </trkpt>
      <trkpt lat="43.34205" lon="5.66037">
        <ele>359</ele>
        <time>2019-01-18T13:44:08.000Z</time>
      </trkpt>
      <trkpt lat="43.34206" lon="5.66037">
        <ele>359</ele>
        <time>2019-01-18T13:44:09.000Z</time>
      </trkpt>
      <trkpt lat="43.34206" lon="5.66037">
        <ele>359</ele>
        <time>2019-01-18T13:44:10.000Z</time>
      </trkpt>
      <trkpt lat="43.34207" lon="5.66037">
        <ele>359</ele>
        <time>2019-01-18T13:44:11.000Z</time>
      </trkpt>
      <trkpt lat="43.34208" lon="5.66037">
        <ele>359</ele>
        <time>2019-01-18T13:44:12.000Z</time>
      </trkpt>
      <trkpt lat="43.34209" lon="5.66037">
        <ele>359</ele>
        <time>2019-01-18T13:44:13.000Z</time>
      </trkpt>
      <trkpt lat="43.34209" lon="5.66037">
        <ele>359</ele>
        <time>2019-01-18T13:44:14.000Z</time>
      </trkpt>
      <trkpt lat="43.3421" lon="5.66037">
        <ele>359</ele>
        <time>2019-01-18T13:44:15.000Z</time>
      </trkpt>
      <trkpt lat="43.3421" lon="5.66036">
        <ele>359</ele>
        <time>2019-01-18T13:44:16.000Z</time>
      </trkpt>
      <trkpt lat="43.34211" lon="5.66035">
        <ele>359</ele>
        <time>2019-01-18T13:44:17.000Z</time>
      </trkpt>
      <trkpt lat="43.34212" lon="5.66035">
        <ele>359</ele>
        <time>2019-01-18T13:44:18.000Z</time>
      </trkpt>
      <trkpt lat="43.34213" lon="5.66034">
        <ele>359</ele>
        <time>2019-01-18T13:44:19.000Z</time>
      </trkpt>
      <trkpt lat="43.34214" lon="5.66034">
        <ele>359</ele>
        <time>2019-01-18T13:44:20.000Z</time>
      </trkpt>
      <trkpt lat="43.34215" lon="5.66033">
        <ele>359</ele>
        <time>2019-01-18T13:44:21.000Z</time>
      </trkpt>
      <trkpt lat="43.34215" lon="5.66033">
        <ele>359</ele>
        <time>2019-01-18T13:44:22.000Z</time>
      </trkpt>
      <trkpt lat="43.34216" lon="5.66033">
        <ele>359</ele>
        <time>2019-01-18T13:44:23.000Z</time>
      </trkpt>
      <trkpt lat="43.34216" lon="5.66033">
        <ele>359</ele>
        <time>2019-01-18T13:44:24.000Z</time>
      </trkpt>
      <trkpt lat="43.34216" lon="5.66032">
        <ele>359</ele>
        <time>2019-01-18T13:44:25.000Z</time>
      </trkpt>
      <trkpt lat="43.34216" lon="5.66032">
        <ele>359</ele>
        <time>2019-01-18T13:44:26.000Z</time>
      </trkpt>
      <trkpt lat="43.34217" lon="5.66032">
        <ele>359</ele>
        <time>2019-01-18T13:44:27.000Z</time>
      </trkpt>
      <trkpt lat="43.34218" lon="5.66032">
        <ele>359</ele>
        <time>2019-01-18T13:44:28.000Z</time>
      </trkpt>
      <trkpt lat="43.34218" lon="5.66032">
        <ele>359</ele>
        <time>2019-01-18T13:44:29.000Z</time>
      </trkpt>
      <trkpt lat="43.34219" lon="5.66032">
        <ele>359</ele>
        <time>2019-01-18T13:44:30.000Z</time>
      </trkpt>
      <trkpt lat="43.34219" lon="5.66032">
        <ele>359</ele>
        <time>2019-01-18T13:44:31.000Z</time>
      </trkpt>
      <trkpt lat="43.3422" lon="5.66031">
        <ele>359</ele>
        <time>2019-01-18T13:44:32.000Z</time>
      </trkpt>
      <trkpt lat="43.3422" lon="5.66031">
        <ele>359</ele>
        <time>2019-01-18T13:44:33.000Z</time>
      </trkpt>
      <trkpt lat="43.34221" lon="5.66031">
        <ele>358</ele>
        <time>2019-01-18T13:44:34.000Z</time>
      </trkpt>
      <trkpt lat="43.34222" lon="5.66031">
        <ele>358</ele>
        <time>2019-01-18T13:44:35.000Z</time>
      </trkpt>
      <trkpt lat="43.34222" lon="5.6603">
        <ele>358</ele>
        <time>2019-01-18T13:44:36.000Z</time>
      </trkpt>
      <trkpt lat="43.34222" lon="5.6603">
        <ele>358</ele>
        <time>2019-01-18T13:44:37.000Z</time>
      </trkpt>
      <trkpt lat="43.34222" lon="5.6603">
        <ele>358</ele>
        <time>2019-01-18T13:44:38.000Z</time>
      </trkpt>
      <trkpt lat="43.34222" lon="5.6603">
        <ele>358</ele>
        <time>2019-01-18T13:44:39.000Z</time>
      </trkpt>
      <trkpt lat="43.34223" lon="5.6603">
        <ele>358</ele>
        <time>2019-01-18T13:44:40.000Z</time>
      </trkpt>
      <trkpt lat="43.34223" lon="5.6603">
        <ele>358</ele>
        <time>2019-01-18T13:44:41.000Z</time>
      </trkpt>
      <trkpt lat="43.34223" lon="5.6603">
        <ele>358</ele>
        <time>2019-01-18T13:44:42.000Z</time>
      </trkpt>
      <trkpt lat="43.34223" lon="5.6603">
        <ele>358</ele>
        <time>2019-01-18T13:44:43.000Z</time>
      </trkpt>
      <trkpt lat="43.34223" lon="5.6603">
        <ele>358</ele>
        <time>2019-01-18T13:44:44.000Z</time>
      </trkpt>
      <trkpt lat="43.34224" lon="5.66029">
        <ele>358</ele>
        <time>2019-01-18T13:44:45.000Z</time>
      </trkpt>
      <trkpt lat="43.34225" lon="5.66028">
        <ele>358</ele>
        <time>2019-01-18T13:44:46.000Z</time>
      </trkpt>
      <trkpt lat="43.34226" lon="5.66028">
        <ele>358</ele>
        <time>2019-01-18T13:44:47.000Z</time>
      </trkpt>
      <trkpt lat="43.34226" lon="5.66028">
        <ele>358</ele>
        <time>2019-01-18T13:44:48.000Z</time>
      </trkpt>
      <trkpt lat="43.34227" lon="5.66028">
        <ele>358</ele>
        <time>2019-01-18T13:44:49.000Z</time>
      </trkpt>
      <trkpt lat="43.34228" lon="5.66028">
        <ele>358</ele>
        <time>2019-01-18T13:44:50.000Z</time>
      </trkpt>
      <trkpt lat="43.34229" lon="5.66028">
        <ele>358</ele>
        <time>2019-01-18T13:44:51.000Z</time>
      </trkpt>
      <trkpt lat="43.3423" lon="5.66028">
        <ele>358</ele>
        <time>2019-01-18T13:44:52.000Z</time>
      </trkpt>
      <trkpt lat="43.34231" lon="5.66028">
        <ele>357</ele>
        <time>2019-01-18T13:44:53.000Z</time>
      </trkpt>
      <trkpt lat="43.34232" lon="5.66028">
        <ele>357</ele>
        <time>2019-01-18T13:44:54.000Z</time>
      </trkpt>
      <trkpt lat="43.34232" lon="5.66028">
        <ele>357</ele>
        <time>2019-01-18T13:44:55.000Z</time>
      </trkpt>
      <trkpt lat="43.34233" lon="5.66029">
        <ele>357</ele>
        <time>2019-01-18T13:44:56.000Z</time>
      </trkpt>
      <trkpt lat="43.34234" lon="5.66029">
        <ele>357</ele>
        <time>2019-01-18T13:44:57.000Z</time>
      </trkpt>
      <trkpt lat="43.34236" lon="5.66029">
        <ele>357</ele>
        <time>2019-01-18T13:44:58.000Z</time>
      </trkpt>
      <trkpt lat="43.34237" lon="5.66029">
        <ele>357</ele>
        <time>2019-01-18T13:44:59.000Z</time>
      </trkpt>
      <trkpt lat="43.34238" lon="5.66029">
        <ele>357</ele>
        <time>2019-01-18T13:45:00.000Z</time>
      </trkpt>
      <trkpt lat="43.34239" lon="5.66029">
        <ele>357</ele>
        <time>2019-01-18T13:45:01.000Z</time>
      </trkpt>
      <trkpt lat="43.3424" lon="5.66029">
        <ele>357</ele>
        <time>2019-01-18T13:45:02.000Z</time>
      </trkpt>
      <trkpt lat="43.3424" lon="5.66029">
        <ele>357</ele>
        <time>2019-01-18T13:45:03.000Z</time>
      </trkpt>
      <trkpt lat="43.34241" lon="5.66029">
        <ele>357</ele>
        <time>2019-01-18T13:45:04.000Z</time>
      </trkpt>
      <trkpt lat="43.34241" lon="5.66028">
        <ele>357</ele>
        <time>2019-01-18T13:45:05.000Z</time>
      </trkpt>
      <trkpt lat="43.34242" lon="5.66028">
        <ele>357</ele>
        <time>2019-01-18T13:45:06.000Z</time>
      </trkpt>
      <trkpt lat="43.34243" lon="5.66028">
        <ele>357</ele>
        <time>2019-01-18T13:45:07.000Z</time>
      </trkpt>
      <trkpt lat="43.34243" lon="5.66028">
        <ele>357</ele>
        <time>2019-01-18T13:45:08.000Z</time>
      </trkpt>
      <trkpt lat="43.34243" lon="5.66028">
        <ele>356</ele>
        <time>2019-01-18T13:45:09.000Z</time>
      </trkpt>
      <trkpt lat="43.34244" lon="5.66028">
        <ele>356</ele>
        <time>2019-01-18T13:45:10.000Z</time>
      </trkpt>
      <trkpt lat="43.34245" lon="5.66028">
        <ele>356</ele>
        <time>2019-01-18T13:45:11.000Z</time>
      </trkpt>
      <trkpt lat="43.34246" lon="5.66028">
        <ele>356</ele>
        <time>2019-01-18T13:45:12.000Z</time>
      </trkpt>
      <trkpt lat="43.34247" lon="5.66028">
        <ele>356</ele>
        <time>2019-01-18T13:45:13.000Z</time>
      </trkpt>
      <trkpt lat="43.34248" lon="5.66028">
        <ele>356</ele>
        <time>2019-01-18T13:45:14.000Z</time>
      </trkpt>
      <trkpt lat="43.34249" lon="5.66028">
        <ele>356</ele>
        <time>2019-01-18T13:45:15.000Z</time>
      </trkpt>
      <trkpt lat="43.3425" lon="5.66028">
        <ele>356</ele>
        <time>2019-01-18T13:45:16.000Z</time>
      </trkpt>
      <trkpt lat="43.3425" lon="5.66028">
        <ele>356</ele>
        <time>2019-01-18T13:45:17.000Z</time>
      </trkpt>
      <trkpt lat="43.34251" lon="5.66028">
        <ele>356</ele>
        <time>2019-01-18T13:45:18.000Z</time>
      </trkpt>
      <trkpt lat="43.34252" lon="5.66028">
        <ele>356</ele>
        <time>2019-01-18T13:45:19.000Z</time>
      </trkpt>
      <trkpt lat="43.34253" lon="5.66028">
        <ele>356</ele>
        <time>2019-01-18T13:45:20.000Z</time>
      </trkpt>
      <trkpt lat="43.34253" lon="5.66028">
        <ele>356</ele>
        <time>2019-01-18T13:45:21.000Z</time>
      </trkpt>
      <trkpt lat="43.34254" lon="5.66028">
        <ele>356</ele>
        <time>2019-01-18T13:45:22.000Z</time>
      </trkpt>
      <trkpt lat="43.34255" lon="5.66028">
        <ele>356</ele>
        <time>2019-01-18T13:45:23.000Z</time>
      </trkpt>
      <trkpt lat="43.34256" lon="5.66027">
        <ele>356</ele>
        <time>2019-01-18T13:45:24.000Z</time>
      </trkpt>
      <trkpt lat="43.34256" lon="5.66027">
        <ele>356</ele>
        <time>2019-01-18T13:45:25.000Z</time>
      </trkpt>
      <trkpt lat="43.34257" lon="5.66027">
        <ele>356</ele>
        <time>2019-01-18T13:45:26.000Z</time>
      </trkpt>
      <trkpt lat="43.34257" lon="5.66027">
        <ele>356</ele>
        <time>2019-01-18T13:45:27.000Z</time>
      </trkpt>
      <trkpt lat="43.34257" lon="5.66027">
        <ele>356</ele>
        <time>2019-01-18T13:45:28.000Z</time>
      </trkpt>
      <trkpt lat="43.34258" lon="5.66027">
        <ele>356</ele>
        <time>2019-01-18T13:45:29.000Z</time>
      </trkpt>
      <trkpt lat="43.34258" lon="5.66027">
        <ele>356</ele>
        <time>2019-01-18T13:45:30.000Z</time>
      </trkpt>
      <trkpt lat="43.34258" lon="5.66027">
        <ele>356</ele>
        <time>2019-01-18T13:45:31.000Z</time>
      </trkpt>
      <trkpt lat="43.34258" lon="5.66027">
        <ele>356</ele>
        <time>2019-01-18T13:45:32.000Z</time>
      </trkpt>
      <trkpt lat="43.34259" lon="5.66027">
        <ele>356</ele>
        <time>2019-01-18T13:45:33.000Z</time>
      </trkpt>
      <trkpt lat="43.34259" lon="5.66027">
        <ele>356</ele>
        <time>2019-01-18T13:45:34.000Z</time>
      </trkpt>
      <trkpt lat="43.34259" lon="5.66027">
        <ele>356</ele>
        <time>2019-01-18T13:45:35.000Z</time>
      </trkpt>
      <trkpt lat="43.34259" lon="5.66027">
        <ele>356</ele>
        <time>2019-01-18T13:45:36.000Z</time>
      </trkpt>
      <trkpt lat="43.3426" lon="5.66027">
        <ele>356</ele>
        <time>2019-01-18T13:45:37.000Z</time>
      </trkpt>
      <trkpt lat="43.3426" lon="5.66027">
        <ele>356</ele>
        <time>2019-01-18T13:45:38.000Z</time>
      </trkpt>
      <trkpt lat="43.3426" lon="5.66027">
        <ele>356</ele>
        <time>2019-01-18T13:45:39.000Z</time>
      </trkpt>
      <trkpt lat="43.3426" lon="5.66027">
        <ele>356</ele>
        <time>2019-01-18T13:45:40.000Z</time>
      </trkpt>
      <trkpt lat="43.3426" lon="5.66027">
        <ele>356</ele>
        <time>2019-01-18T13:45:41.000Z</time>
      </trkpt>
      <trkpt lat="43.3426" lon="5.66027">
        <ele>356</ele>
        <time>2019-01-18T13:45:42.000Z</time>
      </trkpt>
      <trkpt lat="43.3426" lon="5.66027">
        <ele>355</ele>
        <time>2019-01-18T13:45:43.000Z</time>
      </trkpt>
      <trkpt lat="43.3426" lon="5.66026">
        <ele>355</ele>
        <time>2019-01-18T13:45:44.000Z</time>
      </trkpt>
      <trkpt lat="43.3426" lon="5.66026">
        <ele>355</ele>
        <time>2019-01-18T13:45:45.000Z</time>
      </trkpt>
      <trkpt lat="43.3426" lon="5.66026">
        <ele>355</ele>
        <time>2019-01-18T13:45:46.000Z</time>
      </trkpt>
      <trkpt lat="43.3426" lon="5.66026">
        <ele>355</ele>
        <time>2019-01-18T13:45:47.000Z</time>
      </trkpt>
      <trkpt lat="43.34261" lon="5.66026">
        <ele>355</ele>
        <time>2019-01-18T13:45:48.000Z</time>
      </trkpt>
      <trkpt lat="43.34261" lon="5.66026">
        <ele>355</ele>
        <time>2019-01-18T13:45:49.000Z</time>
      </trkpt>
      <trkpt lat="43.34261" lon="5.66026">
        <ele>355</ele>
        <time>2019-01-18T13:45:50.000Z</time>
      </trkpt>
      <trkpt lat="43.3426" lon="5.66026">
        <ele>355</ele>
        <time>2019-01-18T13:45:51.000Z</time>
      </trkpt>
      <trkpt lat="43.3426" lon="5.66026">
        <ele>354</ele>
        <time>2019-01-18T13:45:52.000Z</time>
      </trkpt>
      <trkpt lat="43.3426" lon="5.66025">
        <ele>354</ele>
        <time>2019-01-18T13:45:53.000Z</time>
      </trkpt>
      <trkpt lat="43.3426" lon="5.66025">
        <ele>354</ele>
        <time>2019-01-18T13:45:54.000Z</time>
      </trkpt>
      <trkpt lat="43.3426" lon="5.66025">
        <ele>354</ele>
        <time>2019-01-18T13:45:55.000Z</time>
      </trkpt>
      <trkpt lat="43.3426" lon="5.66025">
        <ele>354</ele>
        <time>2019-01-18T13:45:56.000Z</time>
      </trkpt>
      <trkpt lat="43.3426" lon="5.66025">
        <ele>354</ele>
        <time>2019-01-18T13:45:57.000Z</time>
      </trkpt>
      <trkpt lat="43.3426" lon="5.66025">
        <ele>354</ele>
        <time>2019-01-18T13:45:58.000Z</time>
      </trkpt>
      <trkpt lat="43.3426" lon="5.66025">
        <ele>354</ele>
        <time>2019-01-18T13:45:59.000Z</time>
      </trkpt>
      <trkpt lat="43.3426" lon="5.66025">
        <ele>353</ele>
        <time>2019-01-18T13:46:00.000Z</time>
      </trkpt>
      <trkpt lat="43.3426" lon="5.66025">
        <ele>353</ele>
        <time>2019-01-18T13:46:01.000Z</time>
      </trkpt>
      <trkpt lat="43.3426" lon="5.66025">
        <ele>353</ele>
        <time>2019-01-18T13:46:02.000Z</time>
      </trkpt>
      <trkpt lat="43.3426" lon="5.66025">
        <ele>353</ele>
        <time>2019-01-18T13:46:03.000Z</time>
      </trkpt>
      <trkpt lat="43.3426" lon="5.66025">
        <ele>353</ele>
        <time>2019-01-18T13:46:04.000Z</time>
      </trkpt>
      <trkpt lat="43.34259" lon="5.66025">
        <ele>353</ele>
        <time>2019-01-18T13:46:05.000Z</time>
      </trkpt>
      <trkpt lat="43.34259" lon="5.66024">
        <ele>353</ele>
        <time>2019-01-18T13:46:06.000Z</time>
      </trkpt>
      <trkpt lat="43.34259" lon="5.66024">
        <ele>353</ele>
        <time>2019-01-18T13:46:07.000Z</time>
      </trkpt>
      <trkpt lat="43.34259" lon="5.66024">
        <ele>353</ele>
        <time>2019-01-18T13:46:08.000Z</time>
      </trkpt>
      <trkpt lat="43.34259" lon="5.66024">
        <ele>353</ele>
        <time>2019-01-18T13:46:09.000Z</time>
      </trkpt>
      <trkpt lat="43.34259" lon="5.66024">
        <ele>353</ele>
        <time>2019-01-18T13:46:10.000Z</time>
      </trkpt>
      <trkpt lat="43.34259" lon="5.66024">
        <ele>353</ele>
        <time>2019-01-18T13:46:11.000Z</time>
      </trkpt>
      <trkpt lat="43.34259" lon="5.66024">
        <ele>353</ele>
        <time>2019-01-18T13:46:12.000Z</time>
      </trkpt>
      <trkpt lat="43.3426" lon="5.66024">
        <ele>353</ele>
        <time>2019-01-18T13:46:13.000Z</time>
      </trkpt>
      <trkpt lat="43.3426" lon="5.66024">
        <ele>353</ele>
        <time>2019-01-18T13:46:14.000Z</time>
      </trkpt>
      <trkpt lat="43.3426" lon="5.66024">
        <ele>353</ele>
        <time>2019-01-18T13:46:15.000Z</time>
      </trkpt>
      <trkpt lat="43.3426" lon="5.66024">
        <ele>353</ele>
        <time>2019-01-18T13:46:16.000Z</time>
      </trkpt>
      <trkpt lat="43.3426" lon="5.66024">
        <ele>353</ele>
        <time>2019-01-18T13:46:17.000Z</time>
      </trkpt>
      <trkpt lat="43.3426" lon="5.66024">
        <ele>353</ele>
        <time>2019-01-18T13:46:18.000Z</time>
      </trkpt>
      <trkpt lat="43.3426" lon="5.66024">
        <ele>353</ele>
        <time>2019-01-18T13:46:19.000Z</time>
      </trkpt>
      <trkpt lat="43.3426" lon="5.66024">
        <ele>353</ele>
        <time>2019-01-18T13:46:20.000Z</time>
      </trkpt>
      <trkpt lat="43.3426" lon="5.66024">
        <ele>353</ele>
        <time>2019-01-18T13:46:21.000Z</time>
      </trkpt>
      <trkpt lat="43.3426" lon="5.66024">
        <ele>353</ele>
        <time>2019-01-18T13:46:22.000Z</time>
      </trkpt>
      <trkpt lat="43.3426" lon="5.66024">
        <ele>353</ele>
        <time>2019-01-18T13:46:23.000Z</time>
      </trkpt>
      <trkpt lat="43.3426" lon="5.66024">
        <ele>353</ele>
        <time>2019-01-18T13:46:24.000Z</time>
      </trkpt>
      <trkpt lat="43.3426" lon="5.66024">
        <ele>353</ele>
        <time>2019-01-18T13:46:25.000Z</time>
      </trkpt>
      <trkpt lat="43.3426" lon="5.66024">
        <ele>353</ele>
        <time>2019-01-18T13:46:26.000Z</time>
      </trkpt>
      <trkpt lat="43.3426" lon="5.66024">
        <ele>354</ele>
        <time>2019-01-18T13:46:27.000Z</time>
      </trkpt>
      <trkpt lat="43.3426" lon="5.66023">
        <ele>354</ele>
        <time>2019-01-18T13:46:28.000Z</time>
      </trkpt>
      <trkpt lat="43.3426" lon="5.66023">
        <ele>354</ele>
        <time>2019-01-18T13:46:29.000Z</time>
      </trkpt>
      <trkpt lat="43.3426" lon="5.66023">
        <ele>354</ele>
        <time>2019-01-18T13:46:30.000Z</time>
      </trkpt>
      <trkpt lat="43.3426" lon="5.66023">
        <ele>354</ele>
        <time>2019-01-18T13:46:31.000Z</time>
      </trkpt>
      <trkpt lat="43.3426" lon="5.66023">
        <ele>354</ele>
        <time>2019-01-18T13:46:32.000Z</time>
      </trkpt>
      <trkpt lat="43.3426" lon="5.66023">
        <ele>354</ele>
        <time>2019-01-18T13:46:33.000Z</time>
      </trkpt>
      <trkpt lat="43.34259" lon="5.66023">
        <ele>354</ele>
        <time>2019-01-18T13:46:34.000Z</time>
      </trkpt>
      <trkpt lat="43.34259" lon="5.66022">
        <ele>354</ele>
        <time>2019-01-18T13:46:35.000Z</time>
      </trkpt>
      <trkpt lat="43.34259" lon="5.66022">
        <ele>354</ele>
        <time>2019-01-18T13:46:36.000Z</time>
      </trkpt>
      <trkpt lat="43.34259" lon="5.66022">
        <ele>354</ele>
        <time>2019-01-18T13:46:37.000Z</time>
      </trkpt>
      <trkpt lat="43.34259" lon="5.66022">
        <ele>354</ele>
        <time>2019-01-18T13:46:38.000Z</time>
      </trkpt>
      <trkpt lat="43.3426" lon="5.66022">
        <ele>354</ele>
        <time>2019-01-18T13:46:39.000Z</time>
      </trkpt>
      <trkpt lat="43.3426" lon="5.66021">
        <ele>354</ele>
        <time>2019-01-18T13:46:40.000Z</time>
      </trkpt>
      <trkpt lat="43.34261" lon="5.66021">
        <ele>355</ele>
        <time>2019-01-18T13:46:41.000Z</time>
      </trkpt>
      <trkpt lat="43.34262" lon="5.66021">
        <ele>355</ele>
        <time>2019-01-18T13:46:42.000Z</time>
      </trkpt>
      <trkpt lat="43.34263" lon="5.66021">
        <ele>355</ele>
        <time>2019-01-18T13:46:43.000Z</time>
      </trkpt>
      <trkpt lat="43.34264" lon="5.66021">
        <ele>355</ele>
        <time>2019-01-18T13:46:44.000Z</time>
      </trkpt>
      <trkpt lat="43.34265" lon="5.66022">
        <ele>355</ele>
        <time>2019-01-18T13:46:45.000Z</time>
      </trkpt>
      <trkpt lat="43.34266" lon="5.66022">
        <ele>355</ele>
        <time>2019-01-18T13:46:46.000Z</time>
      </trkpt>
      <trkpt lat="43.34267" lon="5.66022">
        <ele>355</ele>
        <time>2019-01-18T13:46:47.000Z</time>
      </trkpt>
      <trkpt lat="43.34268" lon="5.66022">
        <ele>355</ele>
        <time>2019-01-18T13:46:48.000Z</time>
      </trkpt>
      <trkpt lat="43.34269" lon="5.66022">
        <ele>355</ele>
        <time>2019-01-18T13:46:49.000Z</time>
      </trkpt>
      <trkpt lat="43.3427" lon="5.66022">
        <ele>355</ele>
        <time>2019-01-18T13:46:50.000Z</time>
      </trkpt>
      <trkpt lat="43.34271" lon="5.66022">
        <ele>355</ele>
        <time>2019-01-18T13:46:51.000Z</time>
      </trkpt>
      <trkpt lat="43.34272" lon="5.66021">
        <ele>355</ele>
        <time>2019-01-18T13:46:52.000Z</time>
      </trkpt>
      <trkpt lat="43.34273" lon="5.66021">
        <ele>355</ele>
        <time>2019-01-18T13:46:53.000Z</time>
      </trkpt>
      <trkpt lat="43.34273" lon="5.66021">
        <ele>355</ele>
        <time>2019-01-18T13:46:54.000Z</time>
      </trkpt>
      <trkpt lat="43.34273" lon="5.6602">
        <ele>356</ele>
        <time>2019-01-18T13:46:55.000Z</time>
      </trkpt>
      <trkpt lat="43.34274" lon="5.6602">
        <ele>356</ele>
        <time>2019-01-18T13:46:56.000Z</time>
      </trkpt>
      <trkpt lat="43.34274" lon="5.6602">
        <ele>356</ele>
        <time>2019-01-18T13:46:57.000Z</time>
      </trkpt>
      <trkpt lat="43.34275" lon="5.6602">
        <ele>356</ele>
        <time>2019-01-18T13:46:58.000Z</time>
      </trkpt>
      <trkpt lat="43.34275" lon="5.6602">
        <ele>356</ele>
        <time>2019-01-18T13:46:59.000Z</time>
      </trkpt>
      <trkpt lat="43.34276" lon="5.6602">
        <ele>356</ele>
        <time>2019-01-18T13:47:00.000Z</time>
      </trkpt>
      <trkpt lat="43.34276" lon="5.6602">
        <ele>356</ele>
        <time>2019-01-18T13:47:01.000Z</time>
      </trkpt>
      <trkpt lat="43.34276" lon="5.66019">
        <ele>356</ele>
        <time>2019-01-18T13:47:02.000Z</time>
      </trkpt>
      <trkpt lat="43.34276" lon="5.66019">
        <ele>357</ele>
        <time>2019-01-18T13:47:03.000Z</time>
      </trkpt>
      <trkpt lat="43.34276" lon="5.66019">
        <ele>357</ele>
        <time>2019-01-18T13:47:04.000Z</time>
      </trkpt>
      <trkpt lat="43.34276" lon="5.66019">
        <ele>357</ele>
        <time>2019-01-18T13:47:05.000Z</time>
      </trkpt>
      <trkpt lat="43.34276" lon="5.66018">
        <ele>357</ele>
        <time>2019-01-18T13:47:06.000Z</time>
      </trkpt>
      <trkpt lat="43.34276" lon="5.66018">
        <ele>357</ele>
        <time>2019-01-18T13:47:07.000Z</time>
      </trkpt>
      <trkpt lat="43.34276" lon="5.66018">
        <ele>357</ele>
        <time>2019-01-18T13:47:08.000Z</time>
      </trkpt>
      <trkpt lat="43.34276" lon="5.66019">
        <ele>357</ele>
        <time>2019-01-18T13:47:09.000Z</time>
      </trkpt>
      <trkpt lat="43.34277" lon="5.66019">
        <ele>357</ele>
        <time>2019-01-18T13:47:10.000Z</time>
      </trkpt>
      <trkpt lat="43.34277" lon="5.66018">
        <ele>357</ele>
        <time>2019-01-18T13:47:11.000Z</time>
      </trkpt>
      <trkpt lat="43.34277" lon="5.66018">
        <ele>357</ele>
        <time>2019-01-18T13:47:12.000Z</time>
      </trkpt>
      <trkpt lat="43.34277" lon="5.66018">
        <ele>357</ele>
        <time>2019-01-18T13:47:13.000Z</time>
      </trkpt>
      <trkpt lat="43.34276" lon="5.66018">
        <ele>357</ele>
        <time>2019-01-18T13:47:14.000Z</time>
      </trkpt>
      <trkpt lat="43.34276" lon="5.66018">
        <ele>357</ele>
        <time>2019-01-18T13:47:15.000Z</time>
      </trkpt>
      <trkpt lat="43.34277" lon="5.66018">
        <ele>357</ele>
        <time>2019-01-18T13:47:16.000Z</time>
      </trkpt>
      <trkpt lat="43.34277" lon="5.66018">
        <ele>357</ele>
        <time>2019-01-18T13:47:17.000Z</time>
      </trkpt>
      <trkpt lat="43.34277" lon="5.66017">
        <ele>357</ele>
        <time>2019-01-18T13:47:18.000Z</time>
      </trkpt>
      <trkpt lat="43.34276" lon="5.66017">
        <ele>357</ele>
        <time>2019-01-18T13:47:19.000Z</time>
      </trkpt>
      <trkpt lat="43.34277" lon="5.66017">
        <ele>357</ele>
        <time>2019-01-18T13:47:20.000Z</time>
      </trkpt>
      <trkpt lat="43.34277" lon="5.66016">
        <ele>357</ele>
        <time>2019-01-18T13:47:21.000Z</time>
      </trkpt>
      <trkpt lat="43.34277" lon="5.66016">
        <ele>357</ele>
        <time>2019-01-18T13:47:22.000Z</time>
      </trkpt>
      <trkpt lat="43.34276" lon="5.66015">
        <ele>357</ele>
        <time>2019-01-18T13:47:23.000Z</time>
      </trkpt>
      <trkpt lat="43.34276" lon="5.66015">
        <ele>357</ele>
        <time>2019-01-18T13:47:24.000Z</time>
      </trkpt>
      <trkpt lat="43.34276" lon="5.66015">
        <ele>358</ele>
        <time>2019-01-18T13:47:25.000Z</time>
      </trkpt>
      <trkpt lat="43.34276" lon="5.66015">
        <ele>358</ele>
        <time>2019-01-18T13:47:26.000Z</time>
      </trkpt>
      <trkpt lat="43.34275" lon="5.66015">
        <ele>358</ele>
        <time>2019-01-18T13:47:27.000Z</time>
      </trkpt>
      <trkpt lat="43.34275" lon="5.66015">
        <ele>358</ele>
        <time>2019-01-18T13:47:28.000Z</time>
      </trkpt>
      <trkpt lat="43.34275" lon="5.66015">
        <ele>358</ele>
        <time>2019-01-18T13:47:29.000Z</time>
      </trkpt>
      <trkpt lat="43.34275" lon="5.66014">
        <ele>358</ele>
        <time>2019-01-18T13:47:30.000Z</time>
      </trkpt>
      <trkpt lat="43.34275" lon="5.66014">
        <ele>358</ele>
        <time>2019-01-18T13:47:31.000Z</time>
      </trkpt>
      <trkpt lat="43.34275" lon="5.66014">
        <ele>358</ele>
        <time>2019-01-18T13:47:32.000Z</time>
      </trkpt>
      <trkpt lat="43.34275" lon="5.66014">
        <ele>358</ele>
        <time>2019-01-18T13:47:33.000Z</time>
      </trkpt>
      <trkpt lat="43.34275" lon="5.66014">
        <ele>358</ele>
        <time>2019-01-18T13:47:34.000Z</time>
      </trkpt>
      <trkpt lat="43.34275" lon="5.66014">
        <ele>358</ele>
        <time>2019-01-18T13:47:35.000Z</time>
      </trkpt>
      <trkpt lat="43.34276" lon="5.66013">
        <ele>359</ele>
        <time>2019-01-18T13:47:36.000Z</time>
      </trkpt>
      <trkpt lat="43.34276" lon="5.66013">
        <ele>359</ele>
        <time>2019-01-18T13:47:37.000Z</time>
      </trkpt>
      <trkpt lat="43.34276" lon="5.66013">
        <ele>359</ele>
        <time>2019-01-18T13:47:38.000Z</time>
      </trkpt>
      <trkpt lat="43.34276" lon="5.66013">
        <ele>359</ele>
        <time>2019-01-18T13:47:39.000Z</time>
      </trkpt>
      <trkpt lat="43.34277" lon="5.66012">
        <ele>359</ele>
        <time>2019-01-18T13:47:40.000Z</time>
      </trkpt>
      <trkpt lat="43.34277" lon="5.66012">
        <ele>359</ele>
        <time>2019-01-18T13:47:41.000Z</time>
      </trkpt>
      <trkpt lat="43.34277" lon="5.66012">
        <ele>359</ele>
        <time>2019-01-18T13:47:42.000Z</time>
      </trkpt>
      <trkpt lat="43.34277" lon="5.66012">
        <ele>359</ele>
        <time>2019-01-18T13:47:43.000Z</time>
      </trkpt>
      <trkpt lat="43.34277" lon="5.66012">
        <ele>359</ele>
        <time>2019-01-18T13:47:44.000Z</time>
      </trkpt>
      <trkpt lat="43.34277" lon="5.66012">
        <ele>359</ele>
        <time>2019-01-18T13:47:45.000Z</time>
      </trkpt>
      <trkpt lat="43.34277" lon="5.66012">
        <ele>359</ele>
        <time>2019-01-18T13:47:46.000Z</time>
      </trkpt>
      <trkpt lat="43.34278" lon="5.66012">
        <ele>359</ele>
        <time>2019-01-18T13:47:47.000Z</time>
      </trkpt>
      <trkpt lat="43.34278" lon="5.66012">
        <ele>360</ele>
        <time>2019-01-18T13:47:48.000Z</time>
      </trkpt>
      <trkpt lat="43.34278" lon="5.66012">
        <ele>360</ele>
        <time>2019-01-18T13:47:49.000Z</time>
      </trkpt>
      <trkpt lat="43.34278" lon="5.66012">
        <ele>360</ele>
        <time>2019-01-18T13:47:50.000Z</time>
      </trkpt>
      <trkpt lat="43.34278" lon="5.66011">
        <ele>360</ele>
        <time>2019-01-18T13:47:51.000Z</time>
      </trkpt>
      <trkpt lat="43.34278" lon="5.66011">
        <ele>360</ele>
        <time>2019-01-18T13:47:52.000Z</time>
      </trkpt>
      <trkpt lat="43.34278" lon="5.66011">
        <ele>360</ele>
        <time>2019-01-18T13:47:53.000Z</time>
      </trkpt>
      <trkpt lat="43.34278" lon="5.6601">
        <ele>360</ele>
        <time>2019-01-18T13:47:54.000Z</time>
      </trkpt>
      <trkpt lat="43.34278" lon="5.6601">
        <ele>360</ele>
        <time>2019-01-18T13:47:55.000Z</time>
      </trkpt>
      <trkpt lat="43.34278" lon="5.6601">
        <ele>360</ele>
        <time>2019-01-18T13:47:56.000Z</time>
      </trkpt>
      <trkpt lat="43.34278" lon="5.6601">
        <ele>360</ele>
        <time>2019-01-18T13:47:57.000Z</time>
      </trkpt>
      <trkpt lat="43.34278" lon="5.6601">
        <ele>360</ele>
        <time>2019-01-18T13:47:58.000Z</time>
      </trkpt>
      <trkpt lat="43.34278" lon="5.6601">
        <ele>360</ele>
        <time>2019-01-18T13:47:59.000Z</time>
      </trkpt>
      <trkpt lat="43.34278" lon="5.6601">
        <ele>360</ele>
        <time>2019-01-18T13:48:00.000Z</time>
      </trkpt>
      <trkpt lat="43.34278" lon="5.66009">
        <ele>360</ele>
        <time>2019-01-18T13:48:01.000Z</time>
      </trkpt>
      <trkpt lat="43.34279" lon="5.66008">
        <ele>360</ele>
        <time>2019-01-18T13:48:02.000Z</time>
      </trkpt>
      <trkpt lat="43.34279" lon="5.66008">
        <ele>360</ele>
        <time>2019-01-18T13:48:03.000Z</time>
      </trkpt>
      <trkpt lat="43.34279" lon="5.66008">
        <ele>361</ele>
        <time>2019-01-18T13:48:04.000Z</time>
      </trkpt>
      <trkpt lat="43.34279" lon="5.66007">
        <ele>361</ele>
        <time>2019-01-18T13:48:05.000Z</time>
      </trkpt>
      <trkpt lat="43.34279" lon="5.66007">
        <ele>361</ele>
        <time>2019-01-18T13:48:06.000Z</time>
      </trkpt>
      <trkpt lat="43.34279" lon="5.66006">
        <ele>361</ele>
        <time>2019-01-18T13:48:07.000Z</time>
      </trkpt>
      <trkpt lat="43.34279" lon="5.66006">
        <ele>361</ele>
        <time>2019-01-18T13:48:08.000Z</time>
      </trkpt>
      <trkpt lat="43.34279" lon="5.66006">
        <ele>361</ele>
        <time>2019-01-18T13:48:09.000Z</time>
      </trkpt>
      <trkpt lat="43.3428" lon="5.66006">
        <ele>361</ele>
        <time>2019-01-18T13:48:10.000Z</time>
      </trkpt>
      <trkpt lat="43.34279" lon="5.66006">
        <ele>361</ele>
        <time>2019-01-18T13:48:11.000Z</time>
      </trkpt>
      <trkpt lat="43.34279" lon="5.66006">
        <ele>361</ele>
        <time>2019-01-18T13:48:12.000Z</time>
      </trkpt>
      <trkpt lat="43.3428" lon="5.66006">
        <ele>361</ele>
        <time>2019-01-18T13:48:13.000Z</time>
      </trkpt>
      <trkpt lat="43.3428" lon="5.66005">
        <ele>361</ele>
        <time>2019-01-18T13:48:14.000Z</time>
      </trkpt>
      <trkpt lat="43.3428" lon="5.66006">
        <ele>362</ele>
        <time>2019-01-18T13:48:15.000Z</time>
      </trkpt>
      <trkpt lat="43.34279" lon="5.66006">
        <ele>362</ele>
        <time>2019-01-18T13:48:16.000Z</time>
      </trkpt>
      <trkpt lat="43.34279" lon="5.66006">
        <ele>362</ele>
        <time>2019-01-18T13:48:17.000Z</time>
      </trkpt>
      <trkpt lat="43.34279" lon="5.66005">
        <ele>362</ele>
        <time>2019-01-18T13:48:18.000Z</time>
      </trkpt>
      <trkpt lat="43.34279" lon="5.66005">
        <ele>362</ele>
        <time>2019-01-18T13:48:19.000Z</time>
      </trkpt>
      <trkpt lat="43.34279" lon="5.66005">
        <ele>362</ele>
        <time>2019-01-18T13:48:20.000Z</time>
      </trkpt>
      <trkpt lat="43.34279" lon="5.66005">
        <ele>362</ele>
        <time>2019-01-18T13:48:21.000Z</time>
      </trkpt>
      <trkpt lat="43.34278" lon="5.66005">
        <ele>362</ele>
        <time>2019-01-18T13:48:22.000Z</time>
      </trkpt>
      <trkpt lat="43.34278" lon="5.66005">
        <ele>362</ele>
        <time>2019-01-18T13:48:23.000Z</time>
      </trkpt>
      <trkpt lat="43.34277" lon="5.66004">
        <ele>362</ele>
        <time>2019-01-18T13:48:24.000Z</time>
      </trkpt>
      <trkpt lat="43.34277" lon="5.66004">
        <ele>362</ele>
        <time>2019-01-18T13:48:25.000Z</time>
      </trkpt>
      <trkpt lat="43.34277" lon="5.66004">
        <ele>362</ele>
        <time>2019-01-18T13:48:26.000Z</time>
      </trkpt>
      <trkpt lat="43.34277" lon="5.66004">
        <ele>362</ele>
        <time>2019-01-18T13:48:27.000Z</time>
      </trkpt>
      <trkpt lat="43.34277" lon="5.66004">
        <ele>362</ele>
        <time>2019-01-18T13:48:28.000Z</time>
      </trkpt>
      <trkpt lat="43.34277" lon="5.66004">
        <ele>362</ele>
        <time>2019-01-18T13:48:29.000Z</time>
      </trkpt>
      <trkpt lat="43.34277" lon="5.66004">
        <ele>363</ele>
        <time>2019-01-18T13:48:30.000Z</time>
      </trkpt>
      <trkpt lat="43.34277" lon="5.66004">
        <ele>363</ele>
        <time>2019-01-18T13:48:31.000Z</time>
      </trkpt>
      <trkpt lat="43.34277" lon="5.66004">
        <ele>363</ele>
        <time>2019-01-18T13:48:32.000Z</time>
      </trkpt>
      <trkpt lat="43.34277" lon="5.66005">
        <ele>363</ele>
        <time>2019-01-18T13:48:33.000Z</time>
      </trkpt>
      <trkpt lat="43.34277" lon="5.66005">
        <ele>363</ele>
        <time>2019-01-18T13:48:34.000Z</time>
      </trkpt>
      <trkpt lat="43.34277" lon="5.66005">
        <ele>363</ele>
        <time>2019-01-18T13:48:35.000Z</time>
      </trkpt>
      <trkpt lat="43.34277" lon="5.66005">
        <ele>363</ele>
        <time>2019-01-18T13:48:36.000Z</time>
      </trkpt>
      <trkpt lat="43.34277" lon="5.66005">
        <ele>363</ele>
        <time>2019-01-18T13:48:37.000Z</time>
      </trkpt>
      <trkpt lat="43.34277" lon="5.66005">
        <ele>363</ele>
        <time>2019-01-18T13:48:38.000Z</time>
      </trkpt>
      <trkpt lat="43.34277" lon="5.66005">
        <ele>363</ele>
        <time>2019-01-18T13:48:39.000Z</time>
      </trkpt>
      <trkpt lat="43.34277" lon="5.66005">
        <ele>363</ele>
        <time>2019-01-18T13:48:40.000Z</time>
      </trkpt>
      <trkpt lat="43.34277" lon="5.66005">
        <ele>363</ele>
        <time>2019-01-18T13:48:41.000Z</time>
      </trkpt>
      <trkpt lat="43.34277" lon="5.66005">
        <ele>363</ele>
        <time>2019-01-18T13:48:42.000Z</time>
      </trkpt>
      <trkpt lat="43.34277" lon="5.66005">
        <ele>363</ele>
        <time>2019-01-18T13:48:43.000Z</time>
      </trkpt>
      <trkpt lat="43.34277" lon="5.66005">
        <ele>363</ele>
        <time>2019-01-18T13:48:44.000Z</time>
      </trkpt>
      <trkpt lat="43.34277" lon="5.66006">
        <ele>363</ele>
        <time>2019-01-18T13:48:45.000Z</time>
      </trkpt>
      <trkpt lat="43.34277" lon="5.66006">
        <ele>363</ele>
        <time>2019-01-18T13:48:46.000Z</time>
      </trkpt>
      <trkpt lat="43.34277" lon="5.66006">
        <ele>363</ele>
        <time>2019-01-18T13:48:47.000Z</time>
      </trkpt>
      <trkpt lat="43.34277" lon="5.66006">
        <ele>363</ele>
        <time>2019-01-18T13:48:48.000Z</time>
      </trkpt>
      <trkpt lat="43.34277" lon="5.66006">
        <ele>363</ele>
        <time>2019-01-18T13:48:49.000Z</time>
      </trkpt>
      <trkpt lat="43.34277" lon="5.66006">
        <ele>363</ele>
        <time>2019-01-18T13:48:50.000Z</time>
      </trkpt>
      <trkpt lat="43.34277" lon="5.66006">
        <ele>363</ele>
        <time>2019-01-18T13:48:51.000Z</time>
      </trkpt>
      <trkpt lat="43.34277" lon="5.66006">
        <ele>363</ele>
        <time>2019-01-18T13:48:52.000Z</time>
      </trkpt>
      <trkpt lat="43.34277" lon="5.66005">
        <ele>363</ele>
        <time>2019-01-18T13:48:53.000Z</time>
      </trkpt>
      <trkpt lat="43.34276" lon="5.66005">
        <ele>364</ele>
        <time>2019-01-18T13:48:54.000Z</time>
      </trkpt>
      <trkpt lat="43.34276" lon="5.66005">
        <ele>364</ele>
        <time>2019-01-18T13:48:55.000Z</time>
      </trkpt>
      <trkpt lat="43.34276" lon="5.66005">
        <ele>364</ele>
        <time>2019-01-18T13:48:56.000Z</time>
      </trkpt>
      <trkpt lat="43.34276" lon="5.66005">
        <ele>364</ele>
        <time>2019-01-18T13:48:57.000Z</time>
      </trkpt>
      <trkpt lat="43.34276" lon="5.66005">
        <ele>364</ele>
        <time>2019-01-18T13:48:58.000Z</time>
      </trkpt>
      <trkpt lat="43.34276" lon="5.66005">
        <ele>364</ele>
        <time>2019-01-18T13:48:59.000Z</time>
      </trkpt>
      <trkpt lat="43.34276" lon="5.66005">
        <ele>364</ele>
        <time>2019-01-18T13:49:00.000Z</time>
      </trkpt>
      <trkpt lat="43.34276" lon="5.66005">
        <ele>364</ele>
        <time>2019-01-18T13:49:01.000Z</time>
      </trkpt>
      <trkpt lat="43.34276" lon="5.66005">
        <ele>364</ele>
        <time>2019-01-18T13:49:02.000Z</time>
      </trkpt>
      <trkpt lat="43.34276" lon="5.66005">
        <ele>364</ele>
        <time>2019-01-18T13:49:03.000Z</time>
      </trkpt>
      <trkpt lat="43.34276" lon="5.66005">
        <ele>364</ele>
        <time>2019-01-18T13:49:04.000Z</time>
      </trkpt>
      <trkpt lat="43.34276" lon="5.66006">
        <ele>364</ele>
        <time>2019-01-18T13:49:05.000Z</time>
      </trkpt>
      <trkpt lat="43.34276" lon="5.66006">
        <ele>364</ele>
        <time>2019-01-18T13:49:06.000Z</time>
      </trkpt>
      <trkpt lat="43.34276" lon="5.66006">
        <ele>364</ele>
        <time>2019-01-18T13:49:07.000Z</time>
      </trkpt>
      <trkpt lat="43.34276" lon="5.66006">
        <ele>364</ele>
        <time>2019-01-18T13:49:08.000Z</time>
      </trkpt>
      <trkpt lat="43.34277" lon="5.66006">
        <ele>364</ele>
        <time>2019-01-18T13:49:09.000Z</time>
      </trkpt>
      <trkpt lat="43.34277" lon="5.66006">
        <ele>364</ele>
        <time>2019-01-18T13:49:10.000Z</time>
      </trkpt>
      <trkpt lat="43.34277" lon="5.66006">
        <ele>364</ele>
        <time>2019-01-18T13:49:11.000Z</time>
      </trkpt>
      <trkpt lat="43.34277" lon="5.66006">
        <ele>364</ele>
        <time>2019-01-18T13:49:12.000Z</time>
      </trkpt>
      <trkpt lat="43.34277" lon="5.66006">
        <ele>364</ele>
        <time>2019-01-18T13:49:13.000Z</time>
      </trkpt>
      <trkpt lat="43.34278" lon="5.66006">
        <ele>364</ele>
        <time>2019-01-18T13:49:14.000Z</time>
      </trkpt>
      <trkpt lat="43.34278" lon="5.66006">
        <ele>364</ele>
        <time>2019-01-18T13:49:15.000Z</time>
      </trkpt>
      <trkpt lat="43.34278" lon="5.66006">
        <ele>364</ele>
        <time>2019-01-18T13:49:16.000Z</time>
      </trkpt>
      <trkpt lat="43.34278" lon="5.66006">
        <ele>364</ele>
        <time>2019-01-18T13:49:17.000Z</time>
      </trkpt>
      <trkpt lat="43.34278" lon="5.66006">
        <ele>364</ele>
        <time>2019-01-18T13:49:18.000Z</time>
      </trkpt>
      <trkpt lat="43.34278" lon="5.66005">
        <ele>365</ele>
        <time>2019-01-18T13:49:19.000Z</time>
      </trkpt>
      <trkpt lat="43.34278" lon="5.66005">
        <ele>365</ele>
        <time>2019-01-18T13:49:20.000Z</time>
      </trkpt>
      <trkpt lat="43.34278" lon="5.66005">
        <ele>365</ele>
        <time>2019-01-18T13:49:21.000Z</time>
      </trkpt>
      <trkpt lat="43.34278" lon="5.66005">
        <ele>365</ele>
        <time>2019-01-18T13:49:22.000Z</time>
      </trkpt>
      <trkpt lat="43.34278" lon="5.66005">
        <ele>365</ele>
        <time>2019-01-18T13:49:23.000Z</time>
      </trkpt>
      <trkpt lat="43.34277" lon="5.66006">
        <ele>365</ele>
        <time>2019-01-18T13:49:24.000Z</time>
      </trkpt>
      <trkpt lat="43.34277" lon="5.66006">
        <ele>365</ele>
        <time>2019-01-18T13:49:25.000Z</time>
      </trkpt>
      <trkpt lat="43.34277" lon="5.66006">
        <ele>365</ele>
        <time>2019-01-18T13:49:26.000Z</time>
      </trkpt>
      <trkpt lat="43.34277" lon="5.66006">
        <ele>365</ele>
        <time>2019-01-18T13:49:27.000Z</time>
      </trkpt>
      <trkpt lat="43.34277" lon="5.66006">
        <ele>365</ele>
        <time>2019-01-18T13:49:28.000Z</time>
      </trkpt>
      <trkpt lat="43.34277" lon="5.66006">
        <ele>365</ele>
        <time>2019-01-18T13:49:29.000Z</time>
      </trkpt>
      <trkpt lat="43.34277" lon="5.66007">
        <ele>365</ele>
        <time>2019-01-18T13:49:30.000Z</time>
      </trkpt>
      <trkpt lat="43.34277" lon="5.66007">
        <ele>365</ele>
        <time>2019-01-18T13:49:31.000Z</time>
      </trkpt>
      <trkpt lat="43.34277" lon="5.66007">
        <ele>365</ele>
        <time>2019-01-18T13:49:32.000Z</time>
      </trkpt>
      <trkpt lat="43.34277" lon="5.66007">
        <ele>365</ele>
        <time>2019-01-18T13:49:33.000Z</time>
      </trkpt>
      <trkpt lat="43.34277" lon="5.66007">
        <ele>365</ele>
        <time>2019-01-18T13:49:34.000Z</time>
      </trkpt>
      <trkpt lat="43.34278" lon="5.66007">
        <ele>365</ele>
        <time>2019-01-18T13:49:35.000Z</time>
      </trkpt>
      <trkpt lat="43.34278" lon="5.66007">
        <ele>365</ele>
        <time>2019-01-18T13:49:36.000Z</time>
      </trkpt>
      <trkpt lat="43.34278" lon="5.66007">
        <ele>365</ele>
        <time>2019-01-18T13:49:37.000Z</time>
      </trkpt>
      <trkpt lat="43.34278" lon="5.66007">
        <ele>365</ele>
        <time>2019-01-18T13:49:38.000Z</time>
      </trkpt>
      <trkpt lat="43.34278" lon="5.66008">
        <ele>365</ele>
        <time>2019-01-18T13:49:39.000Z</time>
      </trkpt>
      <trkpt lat="43.34278" lon="5.66008">
        <ele>366</ele>
        <time>2019-01-18T13:49:40.000Z</time>
      </trkpt>
      <trkpt lat="43.34278" lon="5.66008">
        <ele>366</ele>
        <time>2019-01-18T13:49:41.000Z</time>
      </trkpt>
      <trkpt lat="43.34278" lon="5.66008">
        <ele>366</ele>
        <time>2019-01-18T13:49:42.000Z</time>
      </trkpt>
      <trkpt lat="43.34278" lon="5.66008">
        <ele>366</ele>
        <time>2019-01-18T13:49:43.000Z</time>
      </trkpt>
      <trkpt lat="43.34278" lon="5.66008">
        <ele>366</ele>
        <time>2019-01-18T13:49:44.000Z</time>
      </trkpt>
      <trkpt lat="43.34278" lon="5.66008">
        <ele>366</ele>
        <time>2019-01-18T13:49:45.000Z</time>
      </trkpt>
      <trkpt lat="43.34278" lon="5.66008">
        <ele>366</ele>
        <time>2019-01-18T13:49:46.000Z</time>
      </trkpt>
      <trkpt lat="43.34278" lon="5.66008">
        <ele>366</ele>
        <time>2019-01-18T13:49:47.000Z</time>
      </trkpt>
      <trkpt lat="43.34277" lon="5.66008">
        <ele>366</ele>
        <time>2019-01-18T13:49:48.000Z</time>
      </trkpt>
      <trkpt lat="43.34277" lon="5.66008">
        <ele>366</ele>
        <time>2019-01-18T13:49:49.000Z</time>
      </trkpt>
      <trkpt lat="43.34277" lon="5.66008">
        <ele>366</ele>
        <time>2019-01-18T13:49:50.000Z</time>
      </trkpt>
      <trkpt lat="43.34277" lon="5.66008">
        <ele>366</ele>
        <time>2019-01-18T13:49:51.000Z</time>
      </trkpt>
      <trkpt lat="43.34277" lon="5.66008">
        <ele>366</ele>
        <time>2019-01-18T13:49:52.000Z</time>
      </trkpt>
      <trkpt lat="43.34277" lon="5.66008">
        <ele>366</ele>
        <time>2019-01-18T13:49:53.000Z</time>
      </trkpt>
      <trkpt lat="43.34277" lon="5.66008">
        <ele>366</ele>
        <time>2019-01-18T13:49:54.000Z</time>
      </trkpt>
      <trkpt lat="43.34277" lon="5.66008">
        <ele>366</ele>
        <time>2019-01-18T13:49:55.000Z</time>
      </trkpt>
      <trkpt lat="43.34277" lon="5.66008">
        <ele>366</ele>
        <time>2019-01-18T13:49:56.000Z</time>
      </trkpt>
      <trkpt lat="43.34277" lon="5.66008">
        <ele>366</ele>
        <time>2019-01-18T13:49:57.000Z</time>
      </trkpt>
      <trkpt lat="43.34277" lon="5.66008">
        <ele>366</ele>
        <time>2019-01-18T13:49:58.000Z</time>
      </trkpt>
      <trkpt lat="43.34277" lon="5.66008">
        <ele>366</ele>
        <time>2019-01-18T13:49:59.000Z</time>
      </trkpt>
      <trkpt lat="43.34277" lon="5.66008">
        <ele>366</ele>
        <time>2019-01-18T13:50:00.000Z</time>
      </trkpt>
      <trkpt lat="43.34277" lon="5.66008">
        <ele>366</ele>
        <time>2019-01-18T13:50:01.000Z</time>
      </trkpt>
      <trkpt lat="43.34277" lon="5.66008">
        <ele>366</ele>
        <time>2019-01-18T13:50:02.000Z</time>
      </trkpt>
      <trkpt lat="43.34277" lon="5.66008">
        <ele>366</ele>
        <time>2019-01-18T13:50:03.000Z</time>
      </trkpt>
      <trkpt lat="43.34277" lon="5.66008">
        <ele>366</ele>
        <time>2019-01-18T13:50:04.000Z</time>
      </trkpt>
      <trkpt lat="43.34277" lon="5.66008">
        <ele>366</ele>
        <time>2019-01-18T13:50:05.000Z</time>
      </trkpt>
      <trkpt lat="43.34277" lon="5.66008">
        <ele>366</ele>
        <time>2019-01-18T13:50:06.000Z</time>
      </trkpt>
      <trkpt lat="43.34277" lon="5.66008">
        <ele>366</ele>
        <time>2019-01-18T13:50:07.000Z</time>
      </trkpt>
      <trkpt lat="43.34277" lon="5.66008">
        <ele>366</ele>
        <time>2019-01-18T13:50:08.000Z</time>
      </trkpt>
      <trkpt lat="43.34277" lon="5.66008">
        <ele>366</ele>
        <time>2019-01-18T13:50:09.000Z</time>
      </trkpt>
      <trkpt lat="43.34277" lon="5.66008">
        <ele>366</ele>
        <time>2019-01-18T13:50:10.000Z</time>
      </trkpt>
      <trkpt lat="43.34277" lon="5.66008">
        <ele>366</ele>
        <time>2019-01-18T13:50:11.000Z</time>
      </trkpt>
      <trkpt lat="43.34277" lon="5.66008">
        <ele>366</ele>
        <time>2019-01-18T13:50:12.000Z</time>
      </trkpt>
      <trkpt lat="43.34277" lon="5.66008">
        <ele>366</ele>
        <time>2019-01-18T13:50:13.000Z</time>
      </trkpt>
      <trkpt lat="43.34277" lon="5.66008">
        <ele>366</ele>
        <time>2019-01-18T13:50:14.000Z</time>
      </trkpt>
      <trkpt lat="43.34277" lon="5.66008">
        <ele>366</ele>
        <time>2019-01-18T13:50:15.000Z</time>
      </trkpt>
      <trkpt lat="43.34277" lon="5.66008">
        <ele>366</ele>
        <time>2019-01-18T13:50:16.000Z</time>
      </trkpt>
      <trkpt lat="43.34278" lon="5.66008">
        <ele>366</ele>
        <time>2019-01-18T13:50:17.000Z</time>
      </trkpt>
      <trkpt lat="43.34278" lon="5.66008">
        <ele>366</ele>
        <time>2019-01-18T13:50:18.000Z</time>
      </trkpt>
      <trkpt lat="43.34278" lon="5.66008">
        <ele>366</ele>
        <time>2019-01-18T13:50:19.000Z</time>
      </trkpt>
      <trkpt lat="43.34278" lon="5.66008">
        <ele>367</ele>
        <time>2019-01-18T13:50:20.000Z</time>
      </trkpt>
      <trkpt lat="43.34278" lon="5.66008">
        <ele>367</ele>
        <time>2019-01-18T13:50:21.000Z</time>
      </trkpt>
      <trkpt lat="43.34278" lon="5.66008">
        <ele>367</ele>
        <time>2019-01-18T13:50:22.000Z</time>
      </trkpt>
      <trkpt lat="43.34278" lon="5.66008">
        <ele>367</ele>
        <time>2019-01-18T13:50:23.000Z</time>
      </trkpt>
      <trkpt lat="43.34278" lon="5.66008">
        <ele>367</ele>
        <time>2019-01-18T13:50:24.000Z</time>
      </trkpt>
      <trkpt lat="43.34278" lon="5.66008">
        <ele>367</ele>
        <time>2019-01-18T13:50:25.000Z</time>
      </trkpt>
      <trkpt lat="43.34278" lon="5.66008">
        <ele>367</ele>
        <time>2019-01-18T13:50:26.000Z</time>
      </trkpt>
      <trkpt lat="43.34278" lon="5.66008">
        <ele>367</ele>
        <time>2019-01-18T13:50:27.000Z</time>
      </trkpt>
      <trkpt lat="43.34278" lon="5.66008">
        <ele>367</ele>
        <time>2019-01-18T13:50:28.000Z</time>
      </trkpt>
      <trkpt lat="43.34278" lon="5.66008">
        <ele>367</ele>
        <time>2019-01-18T13:50:29.000Z</time>
      </trkpt>
      <trkpt lat="43.34278" lon="5.66008">
        <ele>367</ele>
        <time>2019-01-18T13:50:30.000Z</time>
      </trkpt>
      <trkpt lat="43.34278" lon="5.66008">
        <ele>367</ele>
        <time>2019-01-18T13:50:31.000Z</time>
      </trkpt>
      <trkpt lat="43.34278" lon="5.66008">
        <ele>367</ele>
        <time>2019-01-18T13:50:32.000Z</time>
      </trkpt>
      <trkpt lat="43.34278" lon="5.66008">
        <ele>367</ele>
        <time>2019-01-18T13:50:33.000Z</time>
      </trkpt>
      <trkpt lat="43.34278" lon="5.66008">
        <ele>367</ele>
        <time>2019-01-18T13:50:34.000Z</time>
      </trkpt>
      <trkpt lat="43.34278" lon="5.66008">
        <ele>367</ele>
        <time>2019-01-18T13:50:35.000Z</time>
      </trkpt>
      <trkpt lat="43.34278" lon="5.66008">
        <ele>367</ele>
        <time>2019-01-18T13:50:36.000Z</time>
      </trkpt>
      <trkpt lat="43.34278" lon="5.66008">
        <ele>367</ele>
        <time>2019-01-18T13:50:37.000Z</time>
      </trkpt>
      <trkpt lat="43.34278" lon="5.66008">
        <ele>367</ele>
        <time>2019-01-18T13:50:38.000Z</time>
      </trkpt>
      <trkpt lat="43.34278" lon="5.66008">
        <ele>367</ele>
        <time>2019-01-18T13:50:39.000Z</time>
      </trkpt>
      <trkpt lat="43.34278" lon="5.66008">
        <ele>367</ele>
        <time>2019-01-18T13:50:40.000Z</time>
      </trkpt>
      <trkpt lat="43.34278" lon="5.66008">
        <ele>367</ele>
        <time>2019-01-18T13:50:41.000Z</time>
      </trkpt>
      <trkpt lat="43.34278" lon="5.66008">
        <ele>367</ele>
        <time>2019-01-18T13:50:42.000Z</time>
      </trkpt>
      <trkpt lat="43.34278" lon="5.66008">
        <ele>367</ele>
        <time>2019-01-18T13:50:43.000Z</time>
      </trkpt>
      <trkpt lat="43.34278" lon="5.66008">
        <ele>367</ele>
        <time>2019-01-18T13:50:44.000Z</time>
      </trkpt>
      <trkpt lat="43.34278" lon="5.66008">
        <ele>367</ele>
        <time>2019-01-18T13:50:45.000Z</time>
      </trkpt>
      <trkpt lat="43.34278" lon="5.66008">
        <ele>367</ele>
        <time>2019-01-18T13:50:46.000Z</time>
      </trkpt>
      <trkpt lat="43.34278" lon="5.66008">
        <ele>367</ele>
        <time>2019-01-18T13:50:47.000Z</time>
      </trkpt>
      <trkpt lat="43.34278" lon="5.66008">
        <ele>367</ele>
        <time>2019-01-18T13:50:48.000Z</time>
      </trkpt>
      <trkpt lat="43.34278" lon="5.66008">
        <ele>367</ele>
        <time>2019-01-18T13:50:49.000Z</time>
      </trkpt>
      <trkpt lat="43.34278" lon="5.66008">
        <ele>367</ele>
        <time>2019-01-18T13:50:50.000Z</time>
      </trkpt>
      <trkpt lat="43.34278" lon="5.66008">
        <ele>367</ele>
        <time>2019-01-18T13:50:51.000Z</time>
      </trkpt>
      <trkpt lat="43.34278" lon="5.66008">
        <ele>367</ele>
        <time>2019-01-18T13:50:52.000Z</time>
      </trkpt>
      <trkpt lat="43.34278" lon="5.66008">
        <ele>367</ele>
        <time>2019-01-18T13:50:53.000Z</time>
      </trkpt>
      <trkpt lat="43.34278" lon="5.66007">
        <ele>367</ele>
        <time>2019-01-18T13:50:54.000Z</time>
      </trkpt>
      <trkpt lat="43.34278" lon="5.66007">
        <ele>367</ele>
        <time>2019-01-18T13:50:55.000Z</time>
      </trkpt>
      <trkpt lat="43.34278" lon="5.66007">
        <ele>368</ele>
        <time>2019-01-18T13:50:56.000Z</time>
      </trkpt>
      <trkpt lat="43.34278" lon="5.66007">
        <ele>368</ele>
        <time>2019-01-18T13:50:57.000Z</time>
      </trkpt>
      <trkpt lat="43.34278" lon="5.66007">
        <ele>368</ele>
        <time>2019-01-18T13:50:58.000Z</time>
      </trkpt>
      <trkpt lat="43.34278" lon="5.66007">
        <ele>368</ele>
        <time>2019-01-18T13:50:59.000Z</time>
      </trkpt>
      <trkpt lat="43.34278" lon="5.66007">
        <ele>368</ele>
        <time>2019-01-18T13:51:00.000Z</time>
      </trkpt>
      <trkpt lat="43.34278" lon="5.66007">
        <ele>368</ele>
        <time>2019-01-18T13:51:01.000Z</time>
      </trkpt>
      <trkpt lat="43.34278" lon="5.66007">
        <ele>368</ele>
        <time>2019-01-18T13:51:02.000Z</time>
      </trkpt>
      <trkpt lat="43.34278" lon="5.66007">
        <ele>368</ele>
        <time>2019-01-18T13:51:03.000Z</time>
      </trkpt>
      <trkpt lat="43.34278" lon="5.66007">
        <ele>368</ele>
        <time>2019-01-18T13:51:04.000Z</time>
      </trkpt>
      <trkpt lat="43.34278" lon="5.66007">
        <ele>368</ele>
        <time>2019-01-18T13:51:05.000Z</time>
      </trkpt>
      <trkpt lat="43.34277" lon="5.66006">
        <ele>368</ele>
        <time>2019-01-18T13:51:06.000Z</time>
      </trkpt>
      <trkpt lat="43.34277" lon="5.66005">
        <ele>368</ele>
        <time>2019-01-18T13:51:07.000Z</time>
      </trkpt>
      <trkpt lat="43.34277" lon="5.66005">
        <ele>368</ele>
        <time>2019-01-18T13:51:08.000Z</time>
      </trkpt>
      <trkpt lat="43.34277" lon="5.66004">
        <ele>368</ele>
        <time>2019-01-18T13:51:09.000Z</time>
      </trkpt>
      <trkpt lat="43.34277" lon="5.66004">
        <ele>368</ele>
        <time>2019-01-18T13:51:10.000Z</time>
      </trkpt>
      <trkpt lat="43.34276" lon="5.66004">
        <ele>368</ele>
        <time>2019-01-18T13:51:11.000Z</time>
      </trkpt>
      <trkpt lat="43.34276" lon="5.66004">
        <ele>368</ele>
        <time>2019-01-18T13:51:12.000Z</time>
      </trkpt>
      <trkpt lat="43.34275" lon="5.66004">
        <ele>368</ele>
        <time>2019-01-18T13:51:13.000Z</time>
      </trkpt>
      <trkpt lat="43.34275" lon="5.66004">
        <ele>369</ele>
        <time>2019-01-18T13:51:14.000Z</time>
      </trkpt>
      <trkpt lat="43.34275" lon="5.66004">
        <ele>369</ele>
        <time>2019-01-18T13:51:15.000Z</time>
      </trkpt>
      <trkpt lat="43.34275" lon="5.66004">
        <ele>369</ele>
        <time>2019-01-18T13:51:16.000Z</time>
      </trkpt>
      <trkpt lat="43.34275" lon="5.66003">
        <ele>369</ele>
        <time>2019-01-18T13:51:17.000Z</time>
      </trkpt>
      <trkpt lat="43.34275" lon="5.66003">
        <ele>369</ele>
        <time>2019-01-18T13:51:18.000Z</time>
      </trkpt>
      <trkpt lat="43.34274" lon="5.66003">
        <ele>369</ele>
        <time>2019-01-18T13:51:19.000Z</time>
      </trkpt>
      <trkpt lat="43.34274" lon="5.66002">
        <ele>369</ele>
        <time>2019-01-18T13:51:20.000Z</time>
      </trkpt>
      <trkpt lat="43.34274" lon="5.66001">
        <ele>369</ele>
        <time>2019-01-18T13:51:21.000Z</time>
      </trkpt>
      <trkpt lat="43.34274" lon="5.66001">
        <ele>369</ele>
        <time>2019-01-18T13:51:22.000Z</time>
      </trkpt>
      <trkpt lat="43.34274" lon="5.66">
        <ele>369</ele>
        <time>2019-01-18T13:51:23.000Z</time>
      </trkpt>
      <trkpt lat="43.34273" lon="5.66">
        <ele>369</ele>
        <time>2019-01-18T13:51:24.000Z</time>
      </trkpt>
      <trkpt lat="43.34273" lon="5.66">
        <ele>369</ele>
        <time>2019-01-18T13:51:25.000Z</time>
      </trkpt>
      <trkpt lat="43.34272" lon="5.66">
        <ele>370</ele>
        <time>2019-01-18T13:51:26.000Z</time>
      </trkpt>
      <trkpt lat="43.34272" lon="5.66">
        <ele>370</ele>
        <time>2019-01-18T13:51:27.000Z</time>
      </trkpt>
      <trkpt lat="43.34272" lon="5.65999">
        <ele>370</ele>
        <time>2019-01-18T13:51:28.000Z</time>
      </trkpt>
      <trkpt lat="43.34272" lon="5.66">
        <ele>370</ele>
        <time>2019-01-18T13:51:29.000Z</time>
      </trkpt>
      <trkpt lat="43.34272" lon="5.66">
        <ele>370</ele>
        <time>2019-01-18T13:51:30.000Z</time>
      </trkpt>
      <trkpt lat="43.34272" lon="5.66">
        <ele>370</ele>
        <time>2019-01-18T13:51:31.000Z</time>
      </trkpt>
      <trkpt lat="43.34272" lon="5.66">
        <ele>370</ele>
        <time>2019-01-18T13:51:32.000Z</time>
      </trkpt>
      <trkpt lat="43.34272" lon="5.65999">
        <ele>370</ele>
        <time>2019-01-18T13:51:33.000Z</time>
      </trkpt>
      <trkpt lat="43.34272" lon="5.66">
        <ele>370</ele>
        <time>2019-01-18T13:51:34.000Z</time>
      </trkpt>
      <trkpt lat="43.34272" lon="5.65999">
        <ele>370</ele>
        <time>2019-01-18T13:51:35.000Z</time>
      </trkpt>
      <trkpt lat="43.34272" lon="5.65999">
        <ele>370</ele>
        <time>2019-01-18T13:51:36.000Z</time>
      </trkpt>
      <trkpt lat="43.34272" lon="5.65999">
        <ele>371</ele>
        <time>2019-01-18T13:51:37.000Z</time>
      </trkpt>
      <trkpt lat="43.34272" lon="5.66">
        <ele>371</ele>
        <time>2019-01-18T13:51:38.000Z</time>
      </trkpt>
      <trkpt lat="43.34272" lon="5.66">
        <ele>371</ele>
        <time>2019-01-18T13:51:39.000Z</time>
      </trkpt>
      <trkpt lat="43.34272" lon="5.66">
        <ele>371</ele>
        <time>2019-01-18T13:51:40.000Z</time>
      </trkpt>
      <trkpt lat="43.34272" lon="5.66">
        <ele>371</ele>
        <time>2019-01-18T13:51:41.000Z</time>
      </trkpt>
      <trkpt lat="43.34272" lon="5.66">
        <ele>371</ele>
        <time>2019-01-18T13:51:42.000Z</time>
      </trkpt>
      <trkpt lat="43.34272" lon="5.66">
        <ele>371</ele>
        <time>2019-01-18T13:51:43.000Z</time>
      </trkpt>
      <trkpt lat="43.34272" lon="5.66">
        <ele>371</ele>
        <time>2019-01-18T13:51:44.000Z</time>
      </trkpt>
      <trkpt lat="43.34272" lon="5.66">
        <ele>371</ele>
        <time>2019-01-18T13:51:45.000Z</time>
      </trkpt>
      <trkpt lat="43.34271" lon="5.66">
        <ele>371</ele>
        <time>2019-01-18T13:51:46.000Z</time>
      </trkpt>
      <trkpt lat="43.34271" lon="5.66">
        <ele>371</ele>
        <time>2019-01-18T13:51:47.000Z</time>
      </trkpt>
      <trkpt lat="43.3427" lon="5.66">
        <ele>371</ele>
        <time>2019-01-18T13:51:48.000Z</time>
      </trkpt>
      <trkpt lat="43.3427" lon="5.66">
        <ele>371</ele>
        <time>2019-01-18T13:51:49.000Z</time>
      </trkpt>
      <trkpt lat="43.3427" lon="5.66">
        <ele>371</ele>
        <time>2019-01-18T13:51:50.000Z</time>
      </trkpt>
      <trkpt lat="43.3427" lon="5.66">
        <ele>371</ele>
        <time>2019-01-18T13:51:51.000Z</time>
      </trkpt>
      <trkpt lat="43.3427" lon="5.66">
        <ele>371</ele>
        <time>2019-01-18T13:51:52.000Z</time>
      </trkpt>
      <trkpt lat="43.3427" lon="5.66">
        <ele>371</ele>
        <time>2019-01-18T13:51:53.000Z</time>
      </trkpt>
      <trkpt lat="43.3427" lon="5.66">
        <ele>371</ele>
        <time>2019-01-18T13:51:54.000Z</time>
      </trkpt>
      <trkpt lat="43.3427" lon="5.66">
        <ele>372</ele>
        <time>2019-01-18T13:51:55.000Z</time>
      </trkpt>
      <trkpt lat="43.3427" lon="5.66001">
        <ele>372</ele>
        <time>2019-01-18T13:51:56.000Z</time>
      </trkpt>
      <trkpt lat="43.3427" lon="5.66001">
        <ele>372</ele>
        <time>2019-01-18T13:51:57.000Z</time>
      </trkpt>
      <trkpt lat="43.3427" lon="5.66001">
        <ele>372</ele>
        <time>2019-01-18T13:51:58.000Z</time>
      </trkpt>
      <trkpt lat="43.3427" lon="5.66001">
        <ele>372</ele>
        <time>2019-01-18T13:51:59.000Z</time>
      </trkpt>
      <trkpt lat="43.3427" lon="5.66001">
        <ele>372</ele>
        <time>2019-01-18T13:52:00.000Z</time>
      </trkpt>
      <trkpt lat="43.3427" lon="5.66001">
        <ele>372</ele>
        <time>2019-01-18T13:52:01.000Z</time>
      </trkpt>
      <trkpt lat="43.3427" lon="5.66001">
        <ele>372</ele>
        <time>2019-01-18T13:52:02.000Z</time>
      </trkpt>
      <trkpt lat="43.3427" lon="5.66">
        <ele>372</ele>
        <time>2019-01-18T13:52:03.000Z</time>
      </trkpt>
      <trkpt lat="43.3427" lon="5.66">
        <ele>372</ele>
        <time>2019-01-18T13:52:04.000Z</time>
      </trkpt>
      <trkpt lat="43.3427" lon="5.66">
        <ele>372</ele>
        <time>2019-01-18T13:52:05.000Z</time>
      </trkpt>
      <trkpt lat="43.3427" lon="5.66">
        <ele>372</ele>
        <time>2019-01-18T13:52:06.000Z</time>
      </trkpt>
      <trkpt lat="43.3427" lon="5.65999">
        <ele>372</ele>
        <time>2019-01-18T13:52:07.000Z</time>
      </trkpt>
      <trkpt lat="43.34269" lon="5.65999">
        <ele>373</ele>
        <time>2019-01-18T13:52:08.000Z</time>
      </trkpt>
      <trkpt lat="43.34269" lon="5.65998">
        <ele>373</ele>
        <time>2019-01-18T13:52:09.000Z</time>
      </trkpt>
      <trkpt lat="43.34269" lon="5.65999">
        <ele>373</ele>
        <time>2019-01-18T13:52:10.000Z</time>
      </trkpt>
      <trkpt lat="43.34269" lon="5.65999">
        <ele>373</ele>
        <time>2019-01-18T13:52:11.000Z</time>
      </trkpt>
      <trkpt lat="43.34269" lon="5.65999">
        <ele>373</ele>
        <time>2019-01-18T13:52:12.000Z</time>
      </trkpt>
      <trkpt lat="43.34269" lon="5.65999">
        <ele>373</ele>
        <time>2019-01-18T13:52:13.000Z</time>
      </trkpt>
      <trkpt lat="43.34269" lon="5.65999">
        <ele>373</ele>
        <time>2019-01-18T13:52:14.000Z</time>
      </trkpt>
      <trkpt lat="43.34269" lon="5.65999">
        <ele>373</ele>
        <time>2019-01-18T13:52:15.000Z</time>
      </trkpt>
      <trkpt lat="43.34269" lon="5.65999">
        <ele>373</ele>
        <time>2019-01-18T13:52:16.000Z</time>
      </trkpt>
      <trkpt lat="43.34269" lon="5.65999">
        <ele>373</ele>
        <time>2019-01-18T13:52:17.000Z</time>
      </trkpt>
      <trkpt lat="43.34269" lon="5.65999">
        <ele>373</ele>
        <time>2019-01-18T13:52:18.000Z</time>
      </trkpt>
      <trkpt lat="43.34269" lon="5.66">
        <ele>373</ele>
        <time>2019-01-18T13:52:19.000Z</time>
      </trkpt>
      <trkpt lat="43.34269" lon="5.66">
        <ele>374</ele>
        <time>2019-01-18T13:52:20.000Z</time>
      </trkpt>
      <trkpt lat="43.34269" lon="5.66">
        <ele>374</ele>
        <time>2019-01-18T13:52:21.000Z</time>
      </trkpt>
      <trkpt lat="43.34269" lon="5.66">
        <ele>374</ele>
        <time>2019-01-18T13:52:22.000Z</time>
      </trkpt>
      <trkpt lat="43.34269" lon="5.66">
        <ele>374</ele>
        <time>2019-01-18T13:52:23.000Z</time>
      </trkpt>
      <trkpt lat="43.34269" lon="5.66">
        <ele>374</ele>
        <time>2019-01-18T13:52:24.000Z</time>
      </trkpt>
      <trkpt lat="43.34269" lon="5.66">
        <ele>374</ele>
        <time>2019-01-18T13:52:25.000Z</time>
      </trkpt>
      <trkpt lat="43.34269" lon="5.66">
        <ele>374</ele>
        <time>2019-01-18T13:52:26.000Z</time>
      </trkpt>
      <trkpt lat="43.34269" lon="5.66">
        <ele>374</ele>
        <time>2019-01-18T13:52:27.000Z</time>
      </trkpt>
      <trkpt lat="43.34269" lon="5.66">
        <ele>374</ele>
        <time>2019-01-18T13:52:28.000Z</time>
      </trkpt>
      <trkpt lat="43.34269" lon="5.66">
        <ele>374</ele>
        <time>2019-01-18T13:52:29.000Z</time>
      </trkpt>
      <trkpt lat="43.34269" lon="5.66">
        <ele>374</ele>
        <time>2019-01-18T13:52:30.000Z</time>
      </trkpt>
      <trkpt lat="43.34269" lon="5.66">
        <ele>374</ele>
        <time>2019-01-18T13:52:31.000Z</time>
      </trkpt>
      <trkpt lat="43.34269" lon="5.66">
        <ele>374</ele>
        <time>2019-01-18T13:52:32.000Z</time>
      </trkpt>
      <trkpt lat="43.34268" lon="5.66">
        <ele>374</ele>
        <time>2019-01-18T13:52:33.000Z</time>
      </trkpt>
      <trkpt lat="43.34268" lon="5.66">
        <ele>374</ele>
        <time>2019-01-18T13:52:34.000Z</time>
      </trkpt>
      <trkpt lat="43.34268" lon="5.66">
        <ele>374</ele>
        <time>2019-01-18T13:52:35.000Z</time>
      </trkpt>
      <trkpt lat="43.34268" lon="5.66">
        <ele>374</ele>
        <time>2019-01-18T13:52:36.000Z</time>
      </trkpt>
      <trkpt lat="43.34268" lon="5.66">
        <ele>375</ele>
        <time>2019-01-18T13:52:37.000Z</time>
      </trkpt>
      <trkpt lat="43.34268" lon="5.66">
        <ele>375</ele>
        <time>2019-01-18T13:52:38.000Z</time>
      </trkpt>
      <trkpt lat="43.34268" lon="5.66">
        <ele>375</ele>
        <time>2019-01-18T13:52:39.000Z</time>
      </trkpt>
      <trkpt lat="43.34269" lon="5.65999">
        <ele>375</ele>
        <time>2019-01-18T13:52:40.000Z</time>
      </trkpt>
      <trkpt lat="43.34268" lon="5.65999">
        <ele>375</ele>
        <time>2019-01-18T13:52:41.000Z</time>
      </trkpt>
      <trkpt lat="43.34268" lon="5.66">
        <ele>375</ele>
        <time>2019-01-18T13:52:42.000Z</time>
      </trkpt>
      <trkpt lat="43.34268" lon="5.66">
        <ele>375</ele>
        <time>2019-01-18T13:52:43.000Z</time>
      </trkpt>
      <trkpt lat="43.34268" lon="5.66">
        <ele>375</ele>
        <time>2019-01-18T13:52:44.000Z</time>
      </trkpt>
      <trkpt lat="43.34268" lon="5.66">
        <ele>375</ele>
        <time>2019-01-18T13:52:45.000Z</time>
      </trkpt>
      <trkpt lat="43.34268" lon="5.66">
        <ele>375</ele>
        <time>2019-01-18T13:52:46.000Z</time>
      </trkpt>
      <trkpt lat="43.34268" lon="5.65999">
        <ele>375</ele>
        <time>2019-01-18T13:52:47.000Z</time>
      </trkpt>
      <trkpt lat="43.34268" lon="5.65999">
        <ele>375</ele>
        <time>2019-01-18T13:52:48.000Z</time>
      </trkpt>
      <trkpt lat="43.34267" lon="5.65999">
        <ele>375</ele>
        <time>2019-01-18T13:52:49.000Z</time>
      </trkpt>
      <trkpt lat="43.34267" lon="5.65999">
        <ele>376</ele>
        <time>2019-01-18T13:52:50.000Z</time>
      </trkpt>
      <trkpt lat="43.34267" lon="5.65999">
        <ele>376</ele>
        <time>2019-01-18T13:52:51.000Z</time>
      </trkpt>
      <trkpt lat="43.34267" lon="5.65999">
        <ele>376</ele>
        <time>2019-01-18T13:52:52.000Z</time>
      </trkpt>
      <trkpt lat="43.34267" lon="5.65999">
        <ele>376</ele>
        <time>2019-01-18T13:52:53.000Z</time>
      </trkpt>
      <trkpt lat="43.34267" lon="5.65999">
        <ele>376</ele>
        <time>2019-01-18T13:52:54.000Z</time>
      </trkpt>
      <trkpt lat="43.34267" lon="5.65999">
        <ele>376</ele>
        <time>2019-01-18T13:52:55.000Z</time>
      </trkpt>
      <trkpt lat="43.34267" lon="5.66">
        <ele>376</ele>
        <time>2019-01-18T13:52:56.000Z</time>
      </trkpt>
      <trkpt lat="43.34267" lon="5.66">
        <ele>376</ele>
        <time>2019-01-18T13:52:57.000Z</time>
      </trkpt>
      <trkpt lat="43.34267" lon="5.66">
        <ele>376</ele>
        <time>2019-01-18T13:52:58.000Z</time>
      </trkpt>
      <trkpt lat="43.34267" lon="5.66">
        <ele>376</ele>
        <time>2019-01-18T13:52:59.000Z</time>
      </trkpt>
      <trkpt lat="43.34267" lon="5.66">
        <ele>376</ele>
        <time>2019-01-18T13:53:00.000Z</time>
      </trkpt>
      <trkpt lat="43.34268" lon="5.66">
        <ele>376</ele>
        <time>2019-01-18T13:53:01.000Z</time>
      </trkpt>
      <trkpt lat="43.34268" lon="5.66">
        <ele>376</ele>
        <time>2019-01-18T13:53:02.000Z</time>
      </trkpt>
      <trkpt lat="43.34268" lon="5.66">
        <ele>376</ele>
        <time>2019-01-18T13:53:03.000Z</time>
      </trkpt>
      <trkpt lat="43.34268" lon="5.66">
        <ele>376</ele>
        <time>2019-01-18T13:53:04.000Z</time>
      </trkpt>
      <trkpt lat="43.34268" lon="5.66">
        <ele>376</ele>
        <time>2019-01-18T13:53:05.000Z</time>
      </trkpt>
      <trkpt lat="43.34268" lon="5.66">
        <ele>376</ele>
        <time>2019-01-18T13:53:06.000Z</time>
      </trkpt>
      <trkpt lat="43.34268" lon="5.66">
        <ele>376</ele>
        <time>2019-01-18T13:53:07.000Z</time>
      </trkpt>
      <trkpt lat="43.34268" lon="5.66">
        <ele>377</ele>
        <time>2019-01-18T13:53:08.000Z</time>
      </trkpt>
      <trkpt lat="43.34268" lon="5.66">
        <ele>377</ele>
        <time>2019-01-18T13:53:09.000Z</time>
      </trkpt>
      <trkpt lat="43.34268" lon="5.66">
        <ele>377</ele>
        <time>2019-01-18T13:53:10.000Z</time>
      </trkpt>
      <trkpt lat="43.34268" lon="5.66">
        <ele>377</ele>
        <time>2019-01-18T13:53:11.000Z</time>
      </trkpt>
      <trkpt lat="43.34268" lon="5.66">
        <ele>377</ele>
        <time>2019-01-18T13:53:12.000Z</time>
      </trkpt>
      <trkpt lat="43.34268" lon="5.66">
        <ele>377</ele>
        <time>2019-01-18T13:53:13.000Z</time>
      </trkpt>
      <trkpt lat="43.34268" lon="5.66">
        <ele>377</ele>
        <time>2019-01-18T13:53:14.000Z</time>
      </trkpt>
      <trkpt lat="43.34268" lon="5.66">
        <ele>378</ele>
        <time>2019-01-18T13:53:15.000Z</time>
      </trkpt>
      <trkpt lat="43.34268" lon="5.66001">
        <ele>378</ele>
        <time>2019-01-18T13:53:16.000Z</time>
      </trkpt>
      <trkpt lat="43.34268" lon="5.66001">
        <ele>378</ele>
        <time>2019-01-18T13:53:17.000Z</time>
      </trkpt>
      <trkpt lat="43.34269" lon="5.66001">
        <ele>378</ele>
        <time>2019-01-18T13:53:18.000Z</time>
      </trkpt>
      <trkpt lat="43.34269" lon="5.66002">
        <ele>378</ele>
        <time>2019-01-18T13:53:19.000Z</time>
      </trkpt>
      <trkpt lat="43.34269" lon="5.66002">
        <ele>379</ele>
        <time>2019-01-18T13:53:20.000Z</time>
      </trkpt>
      <trkpt lat="43.34269" lon="5.66002">
        <ele>379</ele>
        <time>2019-01-18T13:53:21.000Z</time>
      </trkpt>
      <trkpt lat="43.34269" lon="5.66002">
        <ele>379</ele>
        <time>2019-01-18T13:53:22.000Z</time>
      </trkpt>
      <trkpt lat="43.34269" lon="5.66002">
        <ele>379</ele>
        <time>2019-01-18T13:53:23.000Z</time>
      </trkpt>
      <trkpt lat="43.34269" lon="5.66002">
        <ele>379</ele>
        <time>2019-01-18T13:53:24.000Z</time>
      </trkpt>
      <trkpt lat="43.34269" lon="5.66002">
        <ele>379</ele>
        <time>2019-01-18T13:53:25.000Z</time>
      </trkpt>
      <trkpt lat="43.34269" lon="5.66003">
        <ele>380</ele>
        <time>2019-01-18T13:53:26.000Z</time>
      </trkpt>
      <trkpt lat="43.34269" lon="5.66003">
        <ele>380</ele>
        <time>2019-01-18T13:53:27.000Z</time>
      </trkpt>
      <trkpt lat="43.34269" lon="5.66003">
        <ele>380</ele>
        <time>2019-01-18T13:53:28.000Z</time>
      </trkpt>
      <trkpt lat="43.34269" lon="5.66002">
        <ele>380</ele>
        <time>2019-01-18T13:53:29.000Z</time>
      </trkpt>
      <trkpt lat="43.34269" lon="5.66002">
        <ele>380</ele>
        <time>2019-01-18T13:53:30.000Z</time>
      </trkpt>
      <trkpt lat="43.3427" lon="5.66002">
        <ele>380</ele>
        <time>2019-01-18T13:53:31.000Z</time>
      </trkpt>
      <trkpt lat="43.3427" lon="5.66002">
        <ele>380</ele>
        <time>2019-01-18T13:53:32.000Z</time>
      </trkpt>
      <trkpt lat="43.3427" lon="5.66002">
        <ele>381</ele>
        <time>2019-01-18T13:53:33.000Z</time>
      </trkpt>
      <trkpt lat="43.3427" lon="5.66003">
        <ele>381</ele>
        <time>2019-01-18T13:53:34.000Z</time>
      </trkpt>
      <trkpt lat="43.3427" lon="5.66003">
        <ele>381</ele>
        <time>2019-01-18T13:53:35.000Z</time>
      </trkpt>
      <trkpt lat="43.3427" lon="5.66003">
        <ele>381</ele>
        <time>2019-01-18T13:53:36.000Z</time>
      </trkpt>
      <trkpt lat="43.3427" lon="5.66003">
        <ele>381</ele>
        <time>2019-01-18T13:53:37.000Z</time>
      </trkpt>
      <trkpt lat="43.3427" lon="5.66003">
        <ele>381</ele>
        <time>2019-01-18T13:53:38.000Z</time>
      </trkpt>
      <trkpt lat="43.3427" lon="5.66003">
        <ele>381</ele>
        <time>2019-01-18T13:53:39.000Z</time>
      </trkpt>
      <trkpt lat="43.3427" lon="5.66003">
        <ele>381</ele>
        <time>2019-01-18T13:53:40.000Z</time>
      </trkpt>
      <trkpt lat="43.3427" lon="5.66004">
        <ele>381</ele>
        <time>2019-01-18T13:53:41.000Z</time>
      </trkpt>
      <trkpt lat="43.3427" lon="5.66004">
        <ele>381</ele>
        <time>2019-01-18T13:53:42.000Z</time>
      </trkpt>
      <trkpt lat="43.3427" lon="5.66004">
        <ele>381</ele>
        <time>2019-01-18T13:53:43.000Z</time>
      </trkpt>
      <trkpt lat="43.3427" lon="5.66004">
        <ele>381</ele>
        <time>2019-01-18T13:53:44.000Z</time>
      </trkpt>
      <trkpt lat="43.3427" lon="5.66004">
        <ele>381</ele>
        <time>2019-01-18T13:53:45.000Z</time>
      </trkpt>
      <trkpt lat="43.3427" lon="5.66004">
        <ele>381</ele>
        <time>2019-01-18T13:53:46.000Z</time>
      </trkpt>
      <trkpt lat="43.3427" lon="5.66004">
        <ele>381</ele>
        <time>2019-01-18T13:53:47.000Z</time>
      </trkpt>
      <trkpt lat="43.3427" lon="5.66004">
        <ele>381</ele>
        <time>2019-01-18T13:53:48.000Z</time>
      </trkpt>
      <trkpt lat="43.3427" lon="5.66004">
        <ele>381</ele>
        <time>2019-01-18T13:53:49.000Z</time>
      </trkpt>
      <trkpt lat="43.3427" lon="5.66004">
        <ele>381</ele>
        <time>2019-01-18T13:53:50.000Z</time>
      </trkpt>
      <trkpt lat="43.3427" lon="5.66004">
        <ele>381</ele>
        <time>2019-01-18T13:53:51.000Z</time>
      </trkpt>
      <trkpt lat="43.3427" lon="5.66004">
        <ele>381</ele>
        <time>2019-01-18T13:53:52.000Z</time>
      </trkpt>
      <trkpt lat="43.3427" lon="5.66004">
        <ele>381</ele>
        <time>2019-01-18T13:53:53.000Z</time>
      </trkpt>
      <trkpt lat="43.3427" lon="5.66004">
        <ele>381</ele>
        <time>2019-01-18T13:53:54.000Z</time>
      </trkpt>
      <trkpt lat="43.3427" lon="5.66004">
        <ele>381</ele>
        <time>2019-01-18T13:53:55.000Z</time>
      </trkpt>
      <trkpt lat="43.3427" lon="5.66004">
        <ele>381</ele>
        <time>2019-01-18T13:53:56.000Z</time>
      </trkpt>
      <trkpt lat="43.3427" lon="5.66004">
        <ele>381</ele>
        <time>2019-01-18T13:53:57.000Z</time>
      </trkpt>
      <trkpt lat="43.3427" lon="5.66004">
        <ele>381</ele>
        <time>2019-01-18T13:53:58.000Z</time>
      </trkpt>
      <trkpt lat="43.3427" lon="5.66004">
        <ele>381</ele>
        <time>2019-01-18T13:53:59.000Z</time>
      </trkpt>
      <trkpt lat="43.3427" lon="5.66004">
        <ele>381</ele>
        <time>2019-01-18T13:54:00.000Z</time>
      </trkpt>
      <trkpt lat="43.3427" lon="5.66004">
        <ele>381</ele>
        <time>2019-01-18T13:54:01.000Z</time>
      </trkpt>
      <trkpt lat="43.3427" lon="5.66004">
        <ele>381</ele>
        <time>2019-01-18T13:54:02.000Z</time>
      </trkpt>
      <trkpt lat="43.3427" lon="5.66004">
        <ele>381</ele>
        <time>2019-01-18T13:54:03.000Z</time>
      </trkpt>
      <trkpt lat="43.3427" lon="5.66004">
        <ele>381</ele>
        <time>2019-01-18T13:54:04.000Z</time>
      </trkpt>
      <trkpt lat="43.3427" lon="5.66004">
        <ele>381</ele>
        <time>2019-01-18T13:54:05.000Z</time>
      </trkpt>
      <trkpt lat="43.3427" lon="5.66004">
        <ele>381</ele>
        <time>2019-01-18T13:54:06.000Z</time>
      </trkpt>
      <trkpt lat="43.3427" lon="5.66004">
        <ele>381</ele>
        <time>2019-01-18T13:54:07.000Z</time>
      </trkpt>
      <trkpt lat="43.3427" lon="5.66004">
        <ele>381</ele>
        <time>2019-01-18T13:54:08.000Z</time>
      </trkpt>
      <trkpt lat="43.3427" lon="5.66004">
        <ele>381</ele>
        <time>2019-01-18T13:54:09.000Z</time>
      </trkpt>
      <trkpt lat="43.3427" lon="5.66004">
        <ele>381</ele>
        <time>2019-01-18T13:54:10.000Z</time>
      </trkpt>
      <trkpt lat="43.3427" lon="5.66004">
        <ele>381</ele>
        <time>2019-01-18T13:54:11.000Z</time>
      </trkpt>
      <trkpt lat="43.34269" lon="5.66004">
        <ele>381</ele>
        <time>2019-01-18T13:54:12.000Z</time>
      </trkpt>
      <trkpt lat="43.34269" lon="5.66004">
        <ele>381</ele>
        <time>2019-01-18T13:54:13.000Z</time>
      </trkpt>
      <trkpt lat="43.34269" lon="5.66005">
        <ele>381</ele>
        <time>2019-01-18T13:54:14.000Z</time>
      </trkpt>
      <trkpt lat="43.34269" lon="5.66005">
        <ele>381</ele>
        <time>2019-01-18T13:54:15.000Z</time>
      </trkpt>
      <trkpt lat="43.34269" lon="5.66005">
        <ele>381</ele>
        <time>2019-01-18T13:54:16.000Z</time>
      </trkpt>
      <trkpt lat="43.34269" lon="5.66005">
        <ele>382</ele>
        <time>2019-01-18T13:54:17.000Z</time>
      </trkpt>
      <trkpt lat="43.34269" lon="5.66005">
        <ele>382</ele>
        <time>2019-01-18T13:54:18.000Z</time>
      </trkpt>
      <trkpt lat="43.34269" lon="5.66005">
        <ele>382</ele>
        <time>2019-01-18T13:54:19.000Z</time>
      </trkpt>
      <trkpt lat="43.34269" lon="5.66005">
        <ele>382</ele>
        <time>2019-01-18T13:54:20.000Z</time>
      </trkpt>
      <trkpt lat="43.34269" lon="5.66005">
        <ele>382</ele>
        <time>2019-01-18T13:54:21.000Z</time>
      </trkpt>
      <trkpt lat="43.34269" lon="5.66005">
        <ele>382</ele>
        <time>2019-01-18T13:54:22.000Z</time>
      </trkpt>
      <trkpt lat="43.34269" lon="5.66005">
        <ele>382</ele>
        <time>2019-01-18T13:54:23.000Z</time>
      </trkpt>
      <trkpt lat="43.34269" lon="5.66005">
        <ele>382</ele>
        <time>2019-01-18T13:54:24.000Z</time>
      </trkpt>
      <trkpt lat="43.34269" lon="5.66005">
        <ele>382</ele>
        <time>2019-01-18T13:54:25.000Z</time>
      </trkpt>
      <trkpt lat="43.34269" lon="5.66005">
        <ele>382</ele>
        <time>2019-01-18T13:54:26.000Z</time>
      </trkpt>
      <trkpt lat="43.34269" lon="5.66005">
        <ele>382</ele>
        <time>2019-01-18T13:54:27.000Z</time>
      </trkpt>
      <trkpt lat="43.34269" lon="5.66005">
        <ele>382</ele>
        <time>2019-01-18T13:54:28.000Z</time>
      </trkpt>
      <trkpt lat="43.34269" lon="5.66005">
        <ele>382</ele>
        <time>2019-01-18T13:54:29.000Z</time>
      </trkpt>
      <trkpt lat="43.34269" lon="5.66005">
        <ele>382</ele>
        <time>2019-01-18T13:54:30.000Z</time>
      </trkpt>
      <trkpt lat="43.34269" lon="5.66005">
        <ele>382</ele>
        <time>2019-01-18T13:54:31.000Z</time>
      </trkpt>
      <trkpt lat="43.34269" lon="5.66005">
        <ele>382</ele>
        <time>2019-01-18T13:54:32.000Z</time>
      </trkpt>
      <trkpt lat="43.34269" lon="5.66005">
        <ele>382</ele>
        <time>2019-01-18T13:54:33.000Z</time>
      </trkpt>
      <trkpt lat="43.34269" lon="5.66004">
        <ele>382</ele>
        <time>2019-01-18T13:54:34.000Z</time>
      </trkpt>
      <trkpt lat="43.34269" lon="5.66004">
        <ele>382</ele>
        <time>2019-01-18T13:54:35.000Z</time>
      </trkpt>
      <trkpt lat="43.34269" lon="5.66004">
        <ele>382</ele>
        <time>2019-01-18T13:54:36.000Z</time>
      </trkpt>
      <trkpt lat="43.34269" lon="5.66004">
        <ele>382</ele>
        <time>2019-01-18T13:54:37.000Z</time>
      </trkpt>
      <trkpt lat="43.34269" lon="5.66004">
        <ele>382</ele>
        <time>2019-01-18T13:54:38.000Z</time>
      </trkpt>
      <trkpt lat="43.34269" lon="5.66004">
        <ele>382</ele>
        <time>2019-01-18T13:54:39.000Z</time>
      </trkpt>
      <trkpt lat="43.34269" lon="5.66004">
        <ele>382</ele>
        <time>2019-01-18T13:54:40.000Z</time>
      </trkpt>
      <trkpt lat="43.34269" lon="5.66004">
        <ele>382</ele>
        <time>2019-01-18T13:54:41.000Z</time>
      </trkpt>
      <trkpt lat="43.34268" lon="5.66005">
        <ele>382</ele>
        <time>2019-01-18T13:54:42.000Z</time>
      </trkpt>
      <trkpt lat="43.34268" lon="5.66005">
        <ele>382</ele>
        <time>2019-01-18T13:54:43.000Z</time>
      </trkpt>
      <trkpt lat="43.34268" lon="5.66005">
        <ele>382</ele>
        <time>2019-01-18T13:54:44.000Z</time>
      </trkpt>
      <trkpt lat="43.34268" lon="5.66005">
        <ele>382</ele>
        <time>2019-01-18T13:54:45.000Z</time>
      </trkpt>
      <trkpt lat="43.34268" lon="5.66006">
        <ele>382</ele>
        <time>2019-01-18T13:54:46.000Z</time>
      </trkpt>
      <trkpt lat="43.34268" lon="5.66006">
        <ele>382</ele>
        <time>2019-01-18T13:54:47.000Z</time>
      </trkpt>
      <trkpt lat="43.34268" lon="5.66006">
        <ele>382</ele>
        <time>2019-01-18T13:54:48.000Z</time>
      </trkpt>
      <trkpt lat="43.34268" lon="5.66006">
        <ele>382</ele>
        <time>2019-01-18T13:54:49.000Z</time>
      </trkpt>
      <trkpt lat="43.34268" lon="5.66006">
        <ele>382</ele>
        <time>2019-01-18T13:54:50.000Z</time>
      </trkpt>
      <trkpt lat="43.34268" lon="5.66006">
        <ele>382</ele>
        <time>2019-01-18T13:54:51.000Z</time>
      </trkpt>
      <trkpt lat="43.34268" lon="5.66006">
        <ele>382</ele>
        <time>2019-01-18T13:54:52.000Z</time>
      </trkpt>
      <trkpt lat="43.34268" lon="5.66006">
        <ele>382</ele>
        <time>2019-01-18T13:54:53.000Z</time>
      </trkpt>
      <trkpt lat="43.34268" lon="5.66006">
        <ele>382</ele>
        <time>2019-01-18T13:54:54.000Z</time>
      </trkpt>
      <trkpt lat="43.34269" lon="5.66006">
        <ele>382</ele>
        <time>2019-01-18T13:54:55.000Z</time>
      </trkpt>
      <trkpt lat="43.34269" lon="5.66007">
        <ele>382</ele>
        <time>2019-01-18T13:54:56.000Z</time>
      </trkpt>
      <trkpt lat="43.34269" lon="5.66007">
        <ele>382</ele>
        <time>2019-01-18T13:54:57.000Z</time>
      </trkpt>
      <trkpt lat="43.34268" lon="5.66007">
        <ele>382</ele>
        <time>2019-01-18T13:54:58.000Z</time>
      </trkpt>
      <trkpt lat="43.34268" lon="5.66007">
        <ele>382</ele>
        <time>2019-01-18T13:54:59.000Z</time>
      </trkpt>
      <trkpt lat="43.34268" lon="5.66007">
        <ele>382</ele>
        <time>2019-01-18T13:55:00.000Z</time>
      </trkpt>
      <trkpt lat="43.34268" lon="5.66007">
        <ele>383</ele>
        <time>2019-01-18T13:55:01.000Z</time>
      </trkpt>
      <trkpt lat="43.34268" lon="5.66007">
        <ele>383</ele>
        <time>2019-01-18T13:55:02.000Z</time>
      </trkpt>
      <trkpt lat="43.34268" lon="5.66007">
        <ele>383</ele>
        <time>2019-01-18T13:55:03.000Z</time>
      </trkpt>
      <trkpt lat="43.34268" lon="5.66007">
        <ele>383</ele>
        <time>2019-01-18T13:55:04.000Z</time>
      </trkpt>
      <trkpt lat="43.34268" lon="5.66007">
        <ele>383</ele>
        <time>2019-01-18T13:55:05.000Z</time>
      </trkpt>
      <trkpt lat="43.34268" lon="5.66007">
        <ele>383</ele>
        <time>2019-01-18T13:55:06.000Z</time>
      </trkpt>
      <trkpt lat="43.34268" lon="5.66007">
        <ele>383</ele>
        <time>2019-01-18T13:55:07.000Z</time>
      </trkpt>
      <trkpt lat="43.34268" lon="5.66007">
        <ele>383</ele>
        <time>2019-01-18T13:55:08.000Z</time>
      </trkpt>
      <trkpt lat="43.34268" lon="5.66007">
        <ele>383</ele>
        <time>2019-01-18T13:55:09.000Z</time>
      </trkpt>
      <trkpt lat="43.34268" lon="5.66007">
        <ele>383</ele>
        <time>2019-01-18T13:55:10.000Z</time>
      </trkpt>
      <trkpt lat="43.34268" lon="5.66006">
        <ele>383</ele>
        <time>2019-01-18T13:55:11.000Z</time>
      </trkpt>
      <trkpt lat="43.34268" lon="5.66006">
        <ele>383</ele>
        <time>2019-01-18T13:55:12.000Z</time>
      </trkpt>
      <trkpt lat="43.34268" lon="5.66006">
        <ele>383</ele>
        <time>2019-01-18T13:55:13.000Z</time>
      </trkpt>
      <trkpt lat="43.34268" lon="5.66006">
        <ele>382</ele>
        <time>2019-01-18T13:55:14.000Z</time>
      </trkpt>
      <trkpt lat="43.34268" lon="5.66006">
        <ele>382</ele>
        <time>2019-01-18T13:55:15.000Z</time>
      </trkpt>
      <trkpt lat="43.34268" lon="5.66005">
        <ele>382</ele>
        <time>2019-01-18T13:55:16.000Z</time>
      </trkpt>
      <trkpt lat="43.34268" lon="5.66005">
        <ele>382</ele>
        <time>2019-01-18T13:55:17.000Z</time>
      </trkpt>
      <trkpt lat="43.34268" lon="5.66005">
        <ele>382</ele>
        <time>2019-01-18T13:55:18.000Z</time>
      </trkpt>
      <trkpt lat="43.34268" lon="5.66005">
        <ele>382</ele>
        <time>2019-01-18T13:55:19.000Z</time>
      </trkpt>
      <trkpt lat="43.34268" lon="5.66004">
        <ele>382</ele>
        <time>2019-01-18T13:55:20.000Z</time>
      </trkpt>
      <trkpt lat="43.34268" lon="5.66004">
        <ele>381</ele>
        <time>2019-01-18T13:55:21.000Z</time>
      </trkpt>
      <trkpt lat="43.34268" lon="5.66004">
        <ele>381</ele>
        <time>2019-01-18T13:55:22.000Z</time>
      </trkpt>
      <trkpt lat="43.34268" lon="5.66004">
        <ele>381</ele>
        <time>2019-01-18T13:55:23.000Z</time>
      </trkpt>
      <trkpt lat="43.34268" lon="5.66003">
        <ele>381</ele>
        <time>2019-01-18T13:55:24.000Z</time>
      </trkpt>
      <trkpt lat="43.34268" lon="5.66003">
        <ele>381</ele>
        <time>2019-01-18T13:55:25.000Z</time>
      </trkpt>
      <trkpt lat="43.34268" lon="5.66003">
        <ele>381</ele>
        <time>2019-01-18T13:55:26.000Z</time>
      </trkpt>
      <trkpt lat="43.34268" lon="5.66003">
        <ele>381</ele>
        <time>2019-01-18T13:55:27.000Z</time>
      </trkpt>
      <trkpt lat="43.34268" lon="5.66003">
        <ele>381</ele>
        <time>2019-01-18T13:55:28.000Z</time>
      </trkpt>
      <trkpt lat="43.34268" lon="5.66003">
        <ele>380</ele>
        <time>2019-01-18T13:55:29.000Z</time>
      </trkpt>
      <trkpt lat="43.34268" lon="5.66003">
        <ele>380</ele>
        <time>2019-01-18T13:55:30.000Z</time>
      </trkpt>
      <trkpt lat="43.34268" lon="5.66002">
        <ele>380</ele>
        <time>2019-01-18T13:55:31.000Z</time>
      </trkpt>
      <trkpt lat="43.34268" lon="5.66002">
        <ele>380</ele>
        <time>2019-01-18T13:55:32.000Z</time>
      </trkpt>
      <trkpt lat="43.34268" lon="5.66002">
        <ele>380</ele>
        <time>2019-01-18T13:55:33.000Z</time>
      </trkpt>
      <trkpt lat="43.34267" lon="5.66002">
        <ele>380</ele>
        <time>2019-01-18T13:55:34.000Z</time>
      </trkpt>
      <trkpt lat="43.34267" lon="5.66001">
        <ele>380</ele>
        <time>2019-01-18T13:55:35.000Z</time>
      </trkpt>
      <trkpt lat="43.34267" lon="5.66001">
        <ele>380</ele>
        <time>2019-01-18T13:55:36.000Z</time>
      </trkpt>
      <trkpt lat="43.34267" lon="5.66001">
        <ele>380</ele>
        <time>2019-01-18T13:55:37.000Z</time>
      </trkpt>
      <trkpt lat="43.34267" lon="5.66001">
        <ele>380</ele>
        <time>2019-01-18T13:55:38.000Z</time>
      </trkpt>
      <trkpt lat="43.34267" lon="5.66001">
        <ele>380</ele>
        <time>2019-01-18T13:55:39.000Z</time>
      </trkpt>
      <trkpt lat="43.34267" lon="5.66001">
        <ele>380</ele>
        <time>2019-01-18T13:55:40.000Z</time>
      </trkpt>
      <trkpt lat="43.34267" lon="5.66001">
        <ele>380</ele>
        <time>2019-01-18T13:55:41.000Z</time>
      </trkpt>
      <trkpt lat="43.34267" lon="5.66001">
        <ele>380</ele>
        <time>2019-01-18T13:55:42.000Z</time>
      </trkpt>
      <trkpt lat="43.34267" lon="5.66002">
        <ele>380</ele>
        <time>2019-01-18T13:55:43.000Z</time>
      </trkpt>
      <trkpt lat="43.34267" lon="5.66002">
        <ele>380</ele>
        <time>2019-01-18T13:55:44.000Z</time>
      </trkpt>
      <trkpt lat="43.34268" lon="5.66002">
        <ele>380</ele>
        <time>2019-01-18T13:55:45.000Z</time>
      </trkpt>
      <trkpt lat="43.34268" lon="5.66002">
        <ele>380</ele>
        <time>2019-01-18T13:55:46.000Z</time>
      </trkpt>
      <trkpt lat="43.34268" lon="5.66002">
        <ele>380</ele>
        <time>2019-01-18T13:55:47.000Z</time>
      </trkpt>
      <trkpt lat="43.34268" lon="5.66001">
        <ele>380</ele>
        <time>2019-01-18T13:55:48.000Z</time>
      </trkpt>
      <trkpt lat="43.34268" lon="5.66001">
        <ele>380</ele>
        <time>2019-01-18T13:55:49.000Z</time>
      </trkpt>
      <trkpt lat="43.34268" lon="5.66001">
        <ele>380</ele>
        <time>2019-01-18T13:55:50.000Z</time>
      </trkpt>
      <trkpt lat="43.34267" lon="5.66001">
        <ele>380</ele>
        <time>2019-01-18T13:55:51.000Z</time>
      </trkpt>
      <trkpt lat="43.34267" lon="5.66002">
        <ele>380</ele>
        <time>2019-01-18T13:55:52.000Z</time>
      </trkpt>
      <trkpt lat="43.34267" lon="5.66002">
        <ele>380</ele>
        <time>2019-01-18T13:55:53.000Z</time>
      </trkpt>
      <trkpt lat="43.34267" lon="5.66002">
        <ele>379</ele>
        <time>2019-01-18T13:55:54.000Z</time>
      </trkpt>
      <trkpt lat="43.34267" lon="5.66002">
        <ele>379</ele>
        <time>2019-01-18T13:55:55.000Z</time>
      </trkpt>
      <trkpt lat="43.34267" lon="5.66001">
        <ele>379</ele>
        <time>2019-01-18T13:55:56.000Z</time>
      </trkpt>
      <trkpt lat="43.34267" lon="5.66001">
        <ele>379</ele>
        <time>2019-01-18T13:55:57.000Z</time>
      </trkpt>
      <trkpt lat="43.34267" lon="5.66001">
        <ele>379</ele>
        <time>2019-01-18T13:55:58.000Z</time>
      </trkpt>
      <trkpt lat="43.34267" lon="5.66001">
        <ele>379</ele>
        <time>2019-01-18T13:55:59.000Z</time>
      </trkpt>
      <trkpt lat="43.34267" lon="5.66001">
        <ele>379</ele>
        <time>2019-01-18T13:56:00.000Z</time>
      </trkpt>
      <trkpt lat="43.34267" lon="5.66001">
        <ele>379</ele>
        <time>2019-01-18T13:56:01.000Z</time>
      </trkpt>
      <trkpt lat="43.34267" lon="5.66001">
        <ele>379</ele>
        <time>2019-01-18T13:56:02.000Z</time>
      </trkpt>
      <trkpt lat="43.34267" lon="5.66001">
        <ele>379</ele>
        <time>2019-01-18T13:56:03.000Z</time>
      </trkpt>
      <trkpt lat="43.34267" lon="5.66">
        <ele>379</ele>
        <time>2019-01-18T13:56:04.000Z</time>
      </trkpt>
      <trkpt lat="43.34267" lon="5.66001">
        <ele>379</ele>
        <time>2019-01-18T13:56:05.000Z</time>
      </trkpt>
      <trkpt lat="43.34267" lon="5.66001">
        <ele>379</ele>
        <time>2019-01-18T13:56:06.000Z</time>
      </trkpt>
      <trkpt lat="43.34267" lon="5.66001">
        <ele>379</ele>
        <time>2019-01-18T13:56:07.000Z</time>
      </trkpt>
      <trkpt lat="43.34266" lon="5.66001">
        <ele>380</ele>
        <time>2019-01-18T13:56:08.000Z</time>
      </trkpt>
      <trkpt lat="43.34266" lon="5.66001">
        <ele>380</ele>
        <time>2019-01-18T13:56:09.000Z</time>
      </trkpt>
      <trkpt lat="43.34266" lon="5.66002">
        <ele>380</ele>
        <time>2019-01-18T13:56:10.000Z</time>
      </trkpt>
      <trkpt lat="43.34266" lon="5.66002">
        <ele>380</ele>
        <time>2019-01-18T13:56:11.000Z</time>
      </trkpt>
      <trkpt lat="43.34266" lon="5.66002">
        <ele>380</ele>
        <time>2019-01-18T13:56:12.000Z</time>
      </trkpt>
      <trkpt lat="43.34266" lon="5.66003">
        <ele>380</ele>
        <time>2019-01-18T13:56:13.000Z</time>
      </trkpt>
      <trkpt lat="43.34266" lon="5.66003">
        <ele>380</ele>
        <time>2019-01-18T13:56:14.000Z</time>
      </trkpt>
      <trkpt lat="43.34266" lon="5.66003">
        <ele>380</ele>
        <time>2019-01-18T13:56:15.000Z</time>
      </trkpt>
      <trkpt lat="43.34266" lon="5.66003">
        <ele>380</ele>
        <time>2019-01-18T13:56:16.000Z</time>
      </trkpt>
      <trkpt lat="43.34266" lon="5.66003">
        <ele>381</ele>
        <time>2019-01-18T13:56:17.000Z</time>
      </trkpt>
      <trkpt lat="43.34266" lon="5.66003">
        <ele>381</ele>
        <time>2019-01-18T13:56:18.000Z</time>
      </trkpt>
      <trkpt lat="43.34265" lon="5.66003">
        <ele>381</ele>
        <time>2019-01-18T13:56:19.000Z</time>
      </trkpt>
      <trkpt lat="43.34266" lon="5.66003">
        <ele>381</ele>
        <time>2019-01-18T13:56:20.000Z</time>
      </trkpt>
      <trkpt lat="43.34266" lon="5.66003">
        <ele>381</ele>
        <time>2019-01-18T13:56:21.000Z</time>
      </trkpt>
      <trkpt lat="43.34266" lon="5.66003">
        <ele>381</ele>
        <time>2019-01-18T13:56:22.000Z</time>
      </trkpt>
      <trkpt lat="43.34265" lon="5.66003">
        <ele>381</ele>
        <time>2019-01-18T13:56:23.000Z</time>
      </trkpt>
      <trkpt lat="43.34265" lon="5.66003">
        <ele>381</ele>
        <time>2019-01-18T13:56:24.000Z</time>
      </trkpt>
      <trkpt lat="43.34265" lon="5.66002">
        <ele>381</ele>
        <time>2019-01-18T13:56:25.000Z</time>
      </trkpt>
      <trkpt lat="43.34265" lon="5.66002">
        <ele>381</ele>
        <time>2019-01-18T13:56:26.000Z</time>
      </trkpt>
      <trkpt lat="43.34265" lon="5.66002">
        <ele>381</ele>
        <time>2019-01-18T13:56:27.000Z</time>
      </trkpt>
      <trkpt lat="43.34265" lon="5.66002">
        <ele>381</ele>
        <time>2019-01-18T13:56:28.000Z</time>
      </trkpt>
      <trkpt lat="43.34265" lon="5.66002">
        <ele>381</ele>
        <time>2019-01-18T13:56:29.000Z</time>
      </trkpt>
      <trkpt lat="43.34266" lon="5.66002">
        <ele>381</ele>
        <time>2019-01-18T13:56:30.000Z</time>
      </trkpt>
      <trkpt lat="43.34266" lon="5.66002">
        <ele>381</ele>
        <time>2019-01-18T13:56:31.000Z</time>
      </trkpt>
      <trkpt lat="43.34266" lon="5.66001">
        <ele>381</ele>
        <time>2019-01-18T13:56:32.000Z</time>
      </trkpt>
      <trkpt lat="43.34265" lon="5.66001">
        <ele>381</ele>
        <time>2019-01-18T13:56:33.000Z</time>
      </trkpt>
      <trkpt lat="43.34265" lon="5.66001">
        <ele>381</ele>
        <time>2019-01-18T13:56:34.000Z</time>
      </trkpt>
      <trkpt lat="43.34266" lon="5.66001">
        <ele>381</ele>
        <time>2019-01-18T13:56:35.000Z</time>
      </trkpt>
      <trkpt lat="43.34266" lon="5.66">
        <ele>381</ele>
        <time>2019-01-18T13:56:36.000Z</time>
      </trkpt>
      <trkpt lat="43.34266" lon="5.66">
        <ele>381</ele>
        <time>2019-01-18T13:56:37.000Z</time>
      </trkpt>
      <trkpt lat="43.34266" lon="5.66">
        <ele>381</ele>
        <time>2019-01-18T13:56:38.000Z</time>
      </trkpt>
      <trkpt lat="43.34266" lon="5.66">
        <ele>381</ele>
        <time>2019-01-18T13:56:39.000Z</time>
      </trkpt>
      <trkpt lat="43.34266" lon="5.66">
        <ele>381</ele>
        <time>2019-01-18T13:56:40.000Z</time>
      </trkpt>
      <trkpt lat="43.34266" lon="5.66001">
        <ele>381</ele>
        <time>2019-01-18T13:56:41.000Z</time>
      </trkpt>
      <trkpt lat="43.34266" lon="5.66001">
        <ele>381</ele>
        <time>2019-01-18T13:56:42.000Z</time>
      </trkpt>
      <trkpt lat="43.34266" lon="5.66001">
        <ele>381</ele>
        <time>2019-01-18T13:56:43.000Z</time>
      </trkpt>
      <trkpt lat="43.34266" lon="5.66001">
        <ele>381</ele>
        <time>2019-01-18T13:56:44.000Z</time>
      </trkpt>
      <trkpt lat="43.34266" lon="5.66001">
        <ele>381</ele>
        <time>2019-01-18T13:56:45.000Z</time>
      </trkpt>
      <trkpt lat="43.34266" lon="5.66002">
        <ele>381</ele>
        <time>2019-01-18T13:56:46.000Z</time>
      </trkpt>
      <trkpt lat="43.34267" lon="5.66002">
        <ele>381</ele>
        <time>2019-01-18T13:56:47.000Z</time>
      </trkpt>
      <trkpt lat="43.34267" lon="5.66002">
        <ele>381</ele>
        <time>2019-01-18T13:56:48.000Z</time>
      </trkpt>
      <trkpt lat="43.34267" lon="5.66002">
        <ele>381</ele>
        <time>2019-01-18T13:56:49.000Z</time>
      </trkpt>
      <trkpt lat="43.34267" lon="5.66003">
        <ele>381</ele>
        <time>2019-01-18T13:56:50.000Z</time>
      </trkpt>
      <trkpt lat="43.34267" lon="5.66003">
        <ele>381</ele>
        <time>2019-01-18T13:56:51.000Z</time>
      </trkpt>
      <trkpt lat="43.34267" lon="5.66003">
        <ele>381</ele>
        <time>2019-01-18T13:56:52.000Z</time>
      </trkpt>
      <trkpt lat="43.34267" lon="5.66003">
        <ele>381</ele>
        <time>2019-01-18T13:56:53.000Z</time>
      </trkpt>
      <trkpt lat="43.34267" lon="5.66003">
        <ele>381</ele>
        <time>2019-01-18T13:56:54.000Z</time>
      </trkpt>
      <trkpt lat="43.34267" lon="5.66003">
        <ele>381</ele>
        <time>2019-01-18T13:56:55.000Z</time>
      </trkpt>
      <trkpt lat="43.34267" lon="5.66003">
        <ele>381</ele>
        <time>2019-01-18T13:56:56.000Z</time>
      </trkpt>
      <trkpt lat="43.34267" lon="5.66002">
        <ele>380</ele>
        <time>2019-01-18T13:56:57.000Z</time>
      </trkpt>
      <trkpt lat="43.34267" lon="5.66002">
        <ele>380</ele>
        <time>2019-01-18T13:56:58.000Z</time>
      </trkpt>
      <trkpt lat="43.34267" lon="5.66002">
        <ele>380</ele>
        <time>2019-01-18T13:56:59.000Z</time>
      </trkpt>
      <trkpt lat="43.34268" lon="5.66003">
        <ele>380</ele>
        <time>2019-01-18T13:57:00.000Z</time>
      </trkpt>
      <trkpt lat="43.34268" lon="5.66002">
        <ele>380</ele>
        <time>2019-01-18T13:57:01.000Z</time>
      </trkpt>
      <trkpt lat="43.34268" lon="5.66003">
        <ele>380</ele>
        <time>2019-01-18T13:57:02.000Z</time>
      </trkpt>
      <trkpt lat="43.34268" lon="5.66002">
        <ele>380</ele>
        <time>2019-01-18T13:57:03.000Z</time>
      </trkpt>
      <trkpt lat="43.34268" lon="5.66002">
        <ele>380</ele>
        <time>2019-01-18T13:57:04.000Z</time>
      </trkpt>
      <trkpt lat="43.34268" lon="5.66002">
        <ele>380</ele>
        <time>2019-01-18T13:57:05.000Z</time>
      </trkpt>
      <trkpt lat="43.34268" lon="5.66003">
        <ele>380</ele>
        <time>2019-01-18T13:57:06.000Z</time>
      </trkpt>
      <trkpt lat="43.34268" lon="5.66003">
        <ele>380</ele>
        <time>2019-01-18T13:57:07.000Z</time>
      </trkpt>
      <trkpt lat="43.34268" lon="5.66003">
        <ele>380</ele>
        <time>2019-01-18T13:57:08.000Z</time>
      </trkpt>
      <trkpt lat="43.34268" lon="5.66003">
        <ele>380</ele>
        <time>2019-01-18T13:57:09.000Z</time>
      </trkpt>
      <trkpt lat="43.34268" lon="5.66003">
        <ele>380</ele>
        <time>2019-01-18T13:57:10.000Z</time>
      </trkpt>
      <trkpt lat="43.34268" lon="5.66003">
        <ele>380</ele>
        <time>2019-01-18T13:57:11.000Z</time>
      </trkpt>
      <trkpt lat="43.34268" lon="5.66003">
        <ele>380</ele>
        <time>2019-01-18T13:57:12.000Z</time>
      </trkpt>
      <trkpt lat="43.34268" lon="5.66003">
        <ele>380</ele>
        <time>2019-01-18T13:57:13.000Z</time>
      </trkpt>
      <trkpt lat="43.34268" lon="5.66003">
        <ele>380</ele>
        <time>2019-01-18T13:57:14.000Z</time>
      </trkpt>
      <trkpt lat="43.34268" lon="5.66003">
        <ele>380</ele>
        <time>2019-01-18T13:57:15.000Z</time>
      </trkpt>
      <trkpt lat="43.34268" lon="5.66003">
        <ele>380</ele>
        <time>2019-01-18T13:57:16.000Z</time>
      </trkpt>
      <trkpt lat="43.34268" lon="5.66003">
        <ele>380</ele>
        <time>2019-01-18T13:57:17.000Z</time>
      </trkpt>
      <trkpt lat="43.34268" lon="5.66003">
        <ele>380</ele>
        <time>2019-01-18T13:57:18.000Z</time>
      </trkpt>
      <trkpt lat="43.34268" lon="5.66004">
        <ele>380</ele>
        <time>2019-01-18T13:57:19.000Z</time>
      </trkpt>
      <trkpt lat="43.34268" lon="5.66004">
        <ele>380</ele>
        <time>2019-01-18T13:57:20.000Z</time>
      </trkpt>
      <trkpt lat="43.34269" lon="5.66004">
        <ele>380</ele>
        <time>2019-01-18T13:57:21.000Z</time>
      </trkpt>
      <trkpt lat="43.34269" lon="5.66004">
        <ele>380</ele>
        <time>2019-01-18T13:57:22.000Z</time>
      </trkpt>
      <trkpt lat="43.34269" lon="5.66004">
        <ele>380</ele>
        <time>2019-01-18T13:57:23.000Z</time>
      </trkpt>
      <trkpt lat="43.34269" lon="5.66004">
        <ele>380</ele>
        <time>2019-01-18T13:57:24.000Z</time>
      </trkpt>
      <trkpt lat="43.34269" lon="5.66004">
        <ele>380</ele>
        <time>2019-01-18T13:57:25.000Z</time>
      </trkpt>
      <trkpt lat="43.34269" lon="5.66004">
        <ele>380</ele>
        <time>2019-01-18T13:57:26.000Z</time>
      </trkpt>
      <trkpt lat="43.34269" lon="5.66004">
        <ele>380</ele>
        <time>2019-01-18T13:57:27.000Z</time>
      </trkpt>
      <trkpt lat="43.34269" lon="5.66004">
        <ele>380</ele>
        <time>2019-01-18T13:57:28.000Z</time>
      </trkpt>
      <trkpt lat="43.34269" lon="5.66004">
        <ele>380</ele>
        <time>2019-01-18T13:57:29.000Z</time>
      </trkpt>
      <trkpt lat="43.34269" lon="5.66004">
        <ele>380</ele>
        <time>2019-01-18T13:57:30.000Z</time>
      </trkpt>
      <trkpt lat="43.34269" lon="5.66004">
        <ele>380</ele>
        <time>2019-01-18T13:57:31.000Z</time>
      </trkpt>
      <trkpt lat="43.34269" lon="5.66004">
        <ele>380</ele>
        <time>2019-01-18T13:57:32.000Z</time>
      </trkpt>
      <trkpt lat="43.34269" lon="5.66004">
        <ele>380</ele>
        <time>2019-01-18T13:57:33.000Z</time>
      </trkpt>
      <trkpt lat="43.34269" lon="5.66004">
        <ele>380</ele>
        <time>2019-01-18T13:57:34.000Z</time>
      </trkpt>
      <trkpt lat="43.34269" lon="5.66005">
        <ele>380</ele>
        <time>2019-01-18T13:57:35.000Z</time>
      </trkpt>
      <trkpt lat="43.34269" lon="5.66005">
        <ele>380</ele>
        <time>2019-01-18T13:57:36.000Z</time>
      </trkpt>
      <trkpt lat="43.34269" lon="5.66005">
        <ele>380</ele>
        <time>2019-01-18T13:57:37.000Z</time>
      </trkpt>
      <trkpt lat="43.34269" lon="5.66005">
        <ele>380</ele>
        <time>2019-01-18T13:57:38.000Z</time>
      </trkpt>
      <trkpt lat="43.34269" lon="5.66005">
        <ele>380</ele>
        <time>2019-01-18T13:57:39.000Z</time>
      </trkpt>
      <trkpt lat="43.34269" lon="5.66005">
        <ele>380</ele>
        <time>2019-01-18T13:57:40.000Z</time>
      </trkpt>
      <trkpt lat="43.34269" lon="5.66005">
        <ele>380</ele>
        <time>2019-01-18T13:57:41.000Z</time>
      </trkpt>
      <trkpt lat="43.34269" lon="5.66005">
        <ele>380</ele>
        <time>2019-01-18T13:57:42.000Z</time>
      </trkpt>
      <trkpt lat="43.34269" lon="5.66005">
        <ele>380</ele>
        <time>2019-01-18T13:57:43.000Z</time>
      </trkpt>
      <trkpt lat="43.34269" lon="5.66005">
        <ele>380</ele>
        <time>2019-01-18T13:57:44.000Z</time>
      </trkpt>
      <trkpt lat="43.34269" lon="5.66005">
        <ele>380</ele>
        <time>2019-01-18T13:57:45.000Z</time>
      </trkpt>
      <trkpt lat="43.34269" lon="5.66005">
        <ele>380</ele>
        <time>2019-01-18T13:57:46.000Z</time>
      </trkpt>
      <trkpt lat="43.34269" lon="5.66005">
        <ele>380</ele>
        <time>2019-01-18T13:57:47.000Z</time>
      </trkpt>
      <trkpt lat="43.34269" lon="5.66005">
        <ele>380</ele>
        <time>2019-01-18T13:57:48.000Z</time>
      </trkpt>
      <trkpt lat="43.34269" lon="5.66005">
        <ele>380</ele>
        <time>2019-01-18T13:57:49.000Z</time>
      </trkpt>
      <trkpt lat="43.34269" lon="5.66005">
        <ele>380</ele>
        <time>2019-01-18T13:57:50.000Z</time>
      </trkpt>
      <trkpt lat="43.34269" lon="5.66005">
        <ele>380</ele>
        <time>2019-01-18T13:57:51.000Z</time>
      </trkpt>
      <trkpt lat="43.34269" lon="5.66005">
        <ele>380</ele>
        <time>2019-01-18T13:57:52.000Z</time>
      </trkpt>
      <trkpt lat="43.34269" lon="5.66004">
        <ele>380</ele>
        <time>2019-01-18T13:57:53.000Z</time>
      </trkpt>
      <trkpt lat="43.34269" lon="5.66004">
        <ele>380</ele>
        <time>2019-01-18T13:57:54.000Z</time>
      </trkpt>
      <trkpt lat="43.34269" lon="5.66004">
        <ele>379</ele>
        <time>2019-01-18T13:57:55.000Z</time>
      </trkpt>
      <trkpt lat="43.34269" lon="5.66004">
        <ele>379</ele>
        <time>2019-01-18T13:57:56.000Z</time>
      </trkpt>
      <trkpt lat="43.34269" lon="5.66004">
        <ele>379</ele>
        <time>2019-01-18T13:57:57.000Z</time>
      </trkpt>
      <trkpt lat="43.34269" lon="5.66004">
        <ele>379</ele>
        <time>2019-01-18T13:57:58.000Z</time>
      </trkpt>
      <trkpt lat="43.34269" lon="5.66004">
        <ele>379</ele>
        <time>2019-01-18T13:57:59.000Z</time>
      </trkpt>
      <trkpt lat="43.34269" lon="5.66004">
        <ele>379</ele>
        <time>2019-01-18T13:58:00.000Z</time>
      </trkpt>
      <trkpt lat="43.34269" lon="5.66004">
        <ele>379</ele>
        <time>2019-01-18T13:58:01.000Z</time>
      </trkpt>
      <trkpt lat="43.34269" lon="5.66005">
        <ele>379</ele>
        <time>2019-01-18T13:58:02.000Z</time>
      </trkpt>
      <trkpt lat="43.34269" lon="5.66005">
        <ele>379</ele>
        <time>2019-01-18T13:58:03.000Z</time>
      </trkpt>
      <trkpt lat="43.34269" lon="5.66005">
        <ele>379</ele>
        <time>2019-01-18T13:58:04.000Z</time>
      </trkpt>
      <trkpt lat="43.34269" lon="5.66005">
        <ele>379</ele>
        <time>2019-01-18T13:58:05.000Z</time>
      </trkpt>
      <trkpt lat="43.34269" lon="5.66005">
        <ele>380</ele>
        <time>2019-01-18T13:58:06.000Z</time>
      </trkpt>
      <trkpt lat="43.34269" lon="5.66005">
        <ele>380</ele>
        <time>2019-01-18T13:58:07.000Z</time>
      </trkpt>
      <trkpt lat="43.34269" lon="5.66006">
        <ele>380</ele>
        <time>2019-01-18T13:58:08.000Z</time>
      </trkpt>
      <trkpt lat="43.34269" lon="5.66006">
        <ele>380</ele>
        <time>2019-01-18T13:58:09.000Z</time>
      </trkpt>
      <trkpt lat="43.34269" lon="5.66006">
        <ele>381</ele>
        <time>2019-01-18T13:58:10.000Z</time>
      </trkpt>
      <trkpt lat="43.34268" lon="5.66006">
        <ele>381</ele>
        <time>2019-01-18T13:58:11.000Z</time>
      </trkpt>
      <trkpt lat="43.34268" lon="5.66006">
        <ele>381</ele>
        <time>2019-01-18T13:58:12.000Z</time>
      </trkpt>
      <trkpt lat="43.34268" lon="5.66006">
        <ele>381</ele>
        <time>2019-01-18T13:58:13.000Z</time>
      </trkpt>
      <trkpt lat="43.34268" lon="5.66006">
        <ele>381</ele>
        <time>2019-01-18T13:58:14.000Z</time>
      </trkpt>
      <trkpt lat="43.34269" lon="5.66006">
        <ele>381</ele>
        <time>2019-01-18T13:58:15.000Z</time>
      </trkpt>
      <trkpt lat="43.34269" lon="5.66006">
        <ele>381</ele>
        <time>2019-01-18T13:58:16.000Z</time>
      </trkpt>
      <trkpt lat="43.34269" lon="5.66007">
        <ele>382</ele>
        <time>2019-01-18T13:58:17.000Z</time>
      </trkpt>
      <trkpt lat="43.34269" lon="5.66007">
        <ele>382</ele>
        <time>2019-01-18T13:58:18.000Z</time>
      </trkpt>
      <trkpt lat="43.34269" lon="5.66007">
        <ele>382</ele>
        <time>2019-01-18T13:58:19.000Z</time>
      </trkpt>
      <trkpt lat="43.34269" lon="5.66007">
        <ele>382</ele>
        <time>2019-01-18T13:58:20.000Z</time>
      </trkpt>
      <trkpt lat="43.34269" lon="5.66007">
        <ele>382</ele>
        <time>2019-01-18T13:58:21.000Z</time>
      </trkpt>
      <trkpt lat="43.34269" lon="5.66007">
        <ele>382</ele>
        <time>2019-01-18T13:58:22.000Z</time>
      </trkpt>
      <trkpt lat="43.34269" lon="5.66007">
        <ele>381</ele>
        <time>2019-01-18T13:58:23.000Z</time>
      </trkpt>
      <trkpt lat="43.34269" lon="5.66007">
        <ele>381</ele>
        <time>2019-01-18T13:58:24.000Z</time>
      </trkpt>
      <trkpt lat="43.34269" lon="5.66007">
        <ele>381</ele>
        <time>2019-01-18T13:58:25.000Z</time>
      </trkpt>
      <trkpt lat="43.3427" lon="5.66007">
        <ele>382</ele>
        <time>2019-01-18T13:58:26.000Z</time>
      </trkpt>
      <trkpt lat="43.3427" lon="5.66006">
        <ele>381</ele>
        <time>2019-01-18T13:58:27.000Z</time>
      </trkpt>
      <trkpt lat="43.3427" lon="5.66006">
        <ele>381</ele>
        <time>2019-01-18T13:58:28.000Z</time>
      </trkpt>
      <trkpt lat="43.3427" lon="5.66006">
        <ele>381</ele>
        <time>2019-01-18T13:58:29.000Z</time>
      </trkpt>
      <trkpt lat="43.3427" lon="5.66006">
        <ele>381</ele>
        <time>2019-01-18T13:58:30.000Z</time>
      </trkpt>
      <trkpt lat="43.3427" lon="5.66006">
        <ele>381</ele>
        <time>2019-01-18T13:58:31.000Z</time>
      </trkpt>
      <trkpt lat="43.3427" lon="5.66006">
        <ele>381</ele>
        <time>2019-01-18T13:58:32.000Z</time>
      </trkpt>
      <trkpt lat="43.3427" lon="5.66006">
        <ele>381</ele>
        <time>2019-01-18T13:58:33.000Z</time>
      </trkpt>
      <trkpt lat="43.3427" lon="5.66006">
        <ele>381</ele>
        <time>2019-01-18T13:58:34.000Z</time>
      </trkpt>
      <trkpt lat="43.3427" lon="5.66007">
        <ele>381</ele>
        <time>2019-01-18T13:58:35.000Z</time>
      </trkpt>
      <trkpt lat="43.3427" lon="5.66007">
        <ele>381</ele>
        <time>2019-01-18T13:58:36.000Z</time>
      </trkpt>
      <trkpt lat="43.3427" lon="5.66007">
        <ele>381</ele>
        <time>2019-01-18T13:58:37.000Z</time>
      </trkpt>
      <trkpt lat="43.3427" lon="5.66007">
        <ele>381</ele>
        <time>2019-01-18T13:58:38.000Z</time>
      </trkpt>
      <trkpt lat="43.3427" lon="5.66007">
        <ele>381</ele>
        <time>2019-01-18T13:58:39.000Z</time>
      </trkpt>
      <trkpt lat="43.34271" lon="5.66007">
        <ele>381</ele>
        <time>2019-01-18T13:58:40.000Z</time>
      </trkpt>
      <trkpt lat="43.34271" lon="5.66007">
        <ele>381</ele>
        <time>2019-01-18T13:58:41.000Z</time>
      </trkpt>
      <trkpt lat="43.34271" lon="5.66007">
        <ele>381</ele>
        <time>2019-01-18T13:58:42.000Z</time>
      </trkpt>
      <trkpt lat="43.34271" lon="5.66007">
        <ele>381</ele>
        <time>2019-01-18T13:58:43.000Z</time>
      </trkpt>
      <trkpt lat="43.34272" lon="5.66007">
        <ele>381</ele>
        <time>2019-01-18T13:58:44.000Z</time>
      </trkpt>
      <trkpt lat="43.34272" lon="5.66008">
        <ele>381</ele>
        <time>2019-01-18T13:58:45.000Z</time>
      </trkpt>
      <trkpt lat="43.34272" lon="5.66008">
        <ele>381</ele>
        <time>2019-01-18T13:58:46.000Z</time>
      </trkpt>
      <trkpt lat="43.34272" lon="5.66008">
        <ele>381</ele>
        <time>2019-01-18T13:58:47.000Z</time>
      </trkpt>
      <trkpt lat="43.34272" lon="5.66008">
        <ele>381</ele>
        <time>2019-01-18T13:58:48.000Z</time>
      </trkpt>
      <trkpt lat="43.34272" lon="5.66008">
        <ele>381</ele>
        <time>2019-01-18T13:58:49.000Z</time>
      </trkpt>
      <trkpt lat="43.34272" lon="5.66008">
        <ele>381</ele>
        <time>2019-01-18T13:58:50.000Z</time>
      </trkpt>
      <trkpt lat="43.34272" lon="5.66008">
        <ele>381</ele>
        <time>2019-01-18T13:58:51.000Z</time>
      </trkpt>
      <trkpt lat="43.34272" lon="5.66009">
        <ele>381</ele>
        <time>2019-01-18T13:58:52.000Z</time>
      </trkpt>
      <trkpt lat="43.34272" lon="5.6601">
        <ele>381</ele>
        <time>2019-01-18T13:58:53.000Z</time>
      </trkpt>
      <trkpt lat="43.34272" lon="5.6601">
        <ele>381</ele>
        <time>2019-01-18T13:58:54.000Z</time>
      </trkpt>
      <trkpt lat="43.34272" lon="5.6601">
        <ele>381</ele>
        <time>2019-01-18T13:58:55.000Z</time>
      </trkpt>
      <trkpt lat="43.34272" lon="5.66011">
        <ele>381</ele>
        <time>2019-01-18T13:58:56.000Z</time>
      </trkpt>
      <trkpt lat="43.34272" lon="5.66011">
        <ele>381</ele>
        <time>2019-01-18T13:58:57.000Z</time>
      </trkpt>
      <trkpt lat="43.34273" lon="5.66011">
        <ele>381</ele>
        <time>2019-01-18T13:58:58.000Z</time>
      </trkpt>
      <trkpt lat="43.34273" lon="5.66012">
        <ele>381</ele>
        <time>2019-01-18T13:58:59.000Z</time>
      </trkpt>
      <trkpt lat="43.34273" lon="5.66012">
        <ele>381</ele>
        <time>2019-01-18T13:59:00.000Z</time>
      </trkpt>
      <trkpt lat="43.34273" lon="5.66013">
        <ele>381</ele>
        <time>2019-01-18T13:59:01.000Z</time>
      </trkpt>
      <trkpt lat="43.34274" lon="5.66013">
        <ele>381</ele>
        <time>2019-01-18T13:59:02.000Z</time>
      </trkpt>
      <trkpt lat="43.34274" lon="5.66013">
        <ele>381</ele>
        <time>2019-01-18T13:59:03.000Z</time>
      </trkpt>
      <trkpt lat="43.34274" lon="5.66014">
        <ele>381</ele>
        <time>2019-01-18T13:59:04.000Z</time>
      </trkpt>
      <trkpt lat="43.34276" lon="5.66014">
        <ele>381</ele>
        <time>2019-01-18T13:59:05.000Z</time>
      </trkpt>
      <trkpt lat="43.34276" lon="5.66014">
        <ele>381</ele>
        <time>2019-01-18T13:59:06.000Z</time>
      </trkpt>
      <trkpt lat="43.34276" lon="5.66014">
        <ele>381</ele>
        <time>2019-01-18T13:59:07.000Z</time>
      </trkpt>
      <trkpt lat="43.34276" lon="5.66014">
        <ele>381</ele>
        <time>2019-01-18T13:59:08.000Z</time>
      </trkpt>
      <trkpt lat="43.34276" lon="5.66014">
        <ele>381</ele>
        <time>2019-01-18T13:59:09.000Z</time>
      </trkpt>
      <trkpt lat="43.34276" lon="5.66014">
        <ele>381</ele>
        <time>2019-01-18T13:59:10.000Z</time>
      </trkpt>
      <trkpt lat="43.34277" lon="5.66014">
        <ele>381</ele>
        <time>2019-01-18T13:59:11.000Z</time>
      </trkpt>
      <trkpt lat="43.34277" lon="5.66015">
        <ele>380</ele>
        <time>2019-01-18T13:59:12.000Z</time>
      </trkpt>
      <trkpt lat="43.34277" lon="5.66015">
        <ele>380</ele>
        <time>2019-01-18T13:59:13.000Z</time>
      </trkpt>
      <trkpt lat="43.34277" lon="5.66015">
        <ele>380</ele>
        <time>2019-01-18T13:59:14.000Z</time>
      </trkpt>
      <trkpt lat="43.34277" lon="5.66015">
        <ele>380</ele>
        <time>2019-01-18T13:59:15.000Z</time>
      </trkpt>
      <trkpt lat="43.34277" lon="5.66014">
        <ele>380</ele>
        <time>2019-01-18T13:59:16.000Z</time>
      </trkpt>
      <trkpt lat="43.34278" lon="5.66014">
        <ele>380</ele>
        <time>2019-01-18T13:59:17.000Z</time>
      </trkpt>
      <trkpt lat="43.34278" lon="5.66014">
        <ele>380</ele>
        <time>2019-01-18T13:59:18.000Z</time>
      </trkpt>
      <trkpt lat="43.34278" lon="5.66014">
        <ele>380</ele>
        <time>2019-01-18T13:59:19.000Z</time>
      </trkpt>
      <trkpt lat="43.34278" lon="5.66015">
        <ele>380</ele>
        <time>2019-01-18T13:59:20.000Z</time>
      </trkpt>
      <trkpt lat="43.34279" lon="5.66015">
        <ele>380</ele>
        <time>2019-01-18T13:59:21.000Z</time>
      </trkpt>
      <trkpt lat="43.34279" lon="5.66015">
        <ele>380</ele>
        <time>2019-01-18T13:59:22.000Z</time>
      </trkpt>
      <trkpt lat="43.34279" lon="5.66015">
        <ele>380</ele>
        <time>2019-01-18T13:59:23.000Z</time>
      </trkpt>
      <trkpt lat="43.34279" lon="5.66015">
        <ele>380</ele>
        <time>2019-01-18T13:59:24.000Z</time>
      </trkpt>
      <trkpt lat="43.34279" lon="5.66015">
        <ele>380</ele>
        <time>2019-01-18T13:59:25.000Z</time>
      </trkpt>
      <trkpt lat="43.34279" lon="5.66016">
        <ele>380</ele>
        <time>2019-01-18T13:59:26.000Z</time>
      </trkpt>
      <trkpt lat="43.34279" lon="5.66016">
        <ele>380</ele>
        <time>2019-01-18T13:59:27.000Z</time>
      </trkpt>
      <trkpt lat="43.34279" lon="5.66016">
        <ele>380</ele>
        <time>2019-01-18T13:59:28.000Z</time>
      </trkpt>
      <trkpt lat="43.34279" lon="5.66016">
        <ele>380</ele>
        <time>2019-01-18T13:59:29.000Z</time>
      </trkpt>
      <trkpt lat="43.34279" lon="5.66016">
        <ele>380</ele>
        <time>2019-01-18T13:59:30.000Z</time>
      </trkpt>
      <trkpt lat="43.34279" lon="5.66017">
        <ele>380</ele>
        <time>2019-01-18T13:59:31.000Z</time>
      </trkpt>
      <trkpt lat="43.34279" lon="5.66017">
        <ele>380</ele>
        <time>2019-01-18T13:59:32.000Z</time>
      </trkpt>
      <trkpt lat="43.34279" lon="5.66016">
        <ele>380</ele>
        <time>2019-01-18T13:59:33.000Z</time>
      </trkpt>
      <trkpt lat="43.34279" lon="5.66016">
        <ele>380</ele>
        <time>2019-01-18T13:59:34.000Z</time>
      </trkpt>
      <trkpt lat="43.34279" lon="5.66016">
        <ele>380</ele>
        <time>2019-01-18T13:59:35.000Z</time>
      </trkpt>
      <trkpt lat="43.34279" lon="5.66016">
        <ele>380</ele>
        <time>2019-01-18T13:59:36.000Z</time>
      </trkpt>
      <trkpt lat="43.34279" lon="5.66016">
        <ele>380</ele>
        <time>2019-01-18T13:59:37.000Z</time>
      </trkpt>
      <trkpt lat="43.34279" lon="5.66016">
        <ele>380</ele>
        <time>2019-01-18T13:59:38.000Z</time>
      </trkpt>
      <trkpt lat="43.34279" lon="5.66016">
        <ele>380</ele>
        <time>2019-01-18T13:59:39.000Z</time>
      </trkpt>
      <trkpt lat="43.34279" lon="5.66016">
        <ele>380</ele>
        <time>2019-01-18T13:59:40.000Z</time>
      </trkpt>
      <trkpt lat="43.3428" lon="5.66016">
        <ele>380</ele>
        <time>2019-01-18T13:59:41.000Z</time>
      </trkpt>
      <trkpt lat="43.3428" lon="5.66015">
        <ele>380</ele>
        <time>2019-01-18T13:59:42.000Z</time>
      </trkpt>
      <trkpt lat="43.3428" lon="5.66015">
        <ele>380</ele>
        <time>2019-01-18T13:59:43.000Z</time>
      </trkpt>
      <trkpt lat="43.3428" lon="5.66015">
        <ele>380</ele>
        <time>2019-01-18T13:59:44.000Z</time>
      </trkpt>
      <trkpt lat="43.3428" lon="5.66015">
        <ele>380</ele>
        <time>2019-01-18T13:59:45.000Z</time>
      </trkpt>
      <trkpt lat="43.3428" lon="5.66015">
        <ele>380</ele>
        <time>2019-01-18T13:59:46.000Z</time>
      </trkpt>
      <trkpt lat="43.3428" lon="5.66015">
        <ele>380</ele>
        <time>2019-01-18T13:59:47.000Z</time>
      </trkpt>
      <trkpt lat="43.3428" lon="5.66015">
        <ele>379</ele>
        <time>2019-01-18T13:59:48.000Z</time>
      </trkpt>
      <trkpt lat="43.34279" lon="5.66015">
        <ele>379</ele>
        <time>2019-01-18T13:59:49.000Z</time>
      </trkpt>
      <trkpt lat="43.34279" lon="5.66015">
        <ele>379</ele>
        <time>2019-01-18T13:59:50.000Z</time>
      </trkpt>
      <trkpt lat="43.34279" lon="5.66015">
        <ele>379</ele>
        <time>2019-01-18T13:59:51.000Z</time>
      </trkpt>
      <trkpt lat="43.34279" lon="5.66015">
        <ele>379</ele>
        <time>2019-01-18T13:59:52.000Z</time>
      </trkpt>
      <trkpt lat="43.34279" lon="5.66015">
        <ele>379</ele>
        <time>2019-01-18T13:59:53.000Z</time>
      </trkpt>
      <trkpt lat="43.34279" lon="5.66016">
        <ele>379</ele>
        <time>2019-01-18T13:59:54.000Z</time>
      </trkpt>
      <trkpt lat="43.34279" lon="5.66016">
        <ele>379</ele>
        <time>2019-01-18T13:59:55.000Z</time>
      </trkpt>
      <trkpt lat="43.34279" lon="5.66016">
        <ele>379</ele>
        <time>2019-01-18T13:59:56.000Z</time>
      </trkpt>
      <trkpt lat="43.34279" lon="5.66016">
        <ele>379</ele>
        <time>2019-01-18T13:59:57.000Z</time>
      </trkpt>
      <trkpt lat="43.34279" lon="5.66016">
        <ele>379</ele>
        <time>2019-01-18T13:59:58.000Z</time>
      </trkpt>
      <trkpt lat="43.34279" lon="5.66016">
        <ele>379</ele>
        <time>2019-01-18T13:59:59.000Z</time>
      </trkpt>
      <trkpt lat="43.34279" lon="5.66017">
        <ele>379</ele>
        <time>2019-01-18T14:00:00.000Z</time>
      </trkpt>
      <trkpt lat="43.34279" lon="5.66017">
        <ele>379</ele>
        <time>2019-01-18T14:00:01.000Z</time>
      </trkpt>
      <trkpt lat="43.34279" lon="5.66017">
        <ele>379</ele>
        <time>2019-01-18T14:00:02.000Z</time>
      </trkpt>
      <trkpt lat="43.34279" lon="5.66017">
        <ele>379</ele>
        <time>2019-01-18T14:00:03.000Z</time>
      </trkpt>
      <trkpt lat="43.34279" lon="5.66017">
        <ele>379</ele>
        <time>2019-01-18T14:00:04.000Z</time>
      </trkpt>
      <trkpt lat="43.34279" lon="5.66017">
        <ele>379</ele>
        <time>2019-01-18T14:00:05.000Z</time>
      </trkpt>
      <trkpt lat="43.34279" lon="5.66017">
        <ele>379</ele>
        <time>2019-01-18T14:00:06.000Z</time>
      </trkpt>
      <trkpt lat="43.34279" lon="5.66017">
        <ele>379</ele>
        <time>2019-01-18T14:00:07.000Z</time>
      </trkpt>
      <trkpt lat="43.34278" lon="5.66017">
        <ele>379</ele>
        <time>2019-01-18T14:00:08.000Z</time>
      </trkpt>
      <trkpt lat="43.34278" lon="5.66018">
        <ele>380</ele>
        <time>2019-01-18T14:00:09.000Z</time>
      </trkpt>
      <trkpt lat="43.34278" lon="5.66018">
        <ele>380</ele>
        <time>2019-01-18T14:00:10.000Z</time>
      </trkpt>
      <trkpt lat="43.34278" lon="5.66018">
        <ele>380</ele>
        <time>2019-01-18T14:00:11.000Z</time>
      </trkpt>
      <trkpt lat="43.34278" lon="5.66018">
        <ele>380</ele>
        <time>2019-01-18T14:00:12.000Z</time>
      </trkpt>
      <trkpt lat="43.34278" lon="5.66018">
        <ele>380</ele>
        <time>2019-01-18T14:00:13.000Z</time>
      </trkpt>
      <trkpt lat="43.34278" lon="5.66019">
        <ele>380</ele>
        <time>2019-01-18T14:00:14.000Z</time>
      </trkpt>
      <trkpt lat="43.34278" lon="5.66019">
        <ele>380</ele>
        <time>2019-01-18T14:00:15.000Z</time>
      </trkpt>
      <trkpt lat="43.34278" lon="5.66019">
        <ele>380</ele>
        <time>2019-01-18T14:00:16.000Z</time>
      </trkpt>
      <trkpt lat="43.34278" lon="5.66019">
        <ele>380</ele>
        <time>2019-01-18T14:00:17.000Z</time>
      </trkpt>
      <trkpt lat="43.34278" lon="5.66019">
        <ele>380</ele>
        <time>2019-01-18T14:00:18.000Z</time>
      </trkpt>
      <trkpt lat="43.34278" lon="5.66019">
        <ele>380</ele>
        <time>2019-01-18T14:00:19.000Z</time>
      </trkpt>
      <trkpt lat="43.34278" lon="5.66019">
        <ele>380</ele>
        <time>2019-01-18T14:00:20.000Z</time>
      </trkpt>
      <trkpt lat="43.34278" lon="5.66019">
        <ele>380</ele>
        <time>2019-01-18T14:00:21.000Z</time>
      </trkpt>
      <trkpt lat="43.34278" lon="5.66018">
        <ele>380</ele>
        <time>2019-01-18T14:00:22.000Z</time>
      </trkpt>
      <trkpt lat="43.34279" lon="5.66018">
        <ele>380</ele>
        <time>2019-01-18T14:00:23.000Z</time>
      </trkpt>
      <trkpt lat="43.34279" lon="5.66018">
        <ele>380</ele>
        <time>2019-01-18T14:00:24.000Z</time>
      </trkpt>
      <trkpt lat="43.34279" lon="5.66018">
        <ele>379</ele>
        <time>2019-01-18T14:00:25.000Z</time>
      </trkpt>
      <trkpt lat="43.34279" lon="5.66018">
        <ele>379</ele>
        <time>2019-01-18T14:00:26.000Z</time>
      </trkpt>
      <trkpt lat="43.34279" lon="5.66018">
        <ele>379</ele>
        <time>2019-01-18T14:00:27.000Z</time>
      </trkpt>
      <trkpt lat="43.34279" lon="5.66017">
        <ele>379</ele>
        <time>2019-01-18T14:00:28.000Z</time>
      </trkpt>
      <trkpt lat="43.34279" lon="5.66017">
        <ele>379</ele>
        <time>2019-01-18T14:00:29.000Z</time>
      </trkpt>
      <trkpt lat="43.34279" lon="5.66017">
        <ele>379</ele>
        <time>2019-01-18T14:00:30.000Z</time>
      </trkpt>
      <trkpt lat="43.34279" lon="5.66017">
        <ele>379</ele>
        <time>2019-01-18T14:00:31.000Z</time>
      </trkpt>
      <trkpt lat="43.34279" lon="5.66018">
        <ele>379</ele>
        <time>2019-01-18T14:00:32.000Z</time>
      </trkpt>
      <trkpt lat="43.34279" lon="5.66018">
        <ele>378</ele>
        <time>2019-01-18T14:00:33.000Z</time>
      </trkpt>
      <trkpt lat="43.34279" lon="5.66017">
        <ele>378</ele>
        <time>2019-01-18T14:00:34.000Z</time>
      </trkpt>
      <trkpt lat="43.34279" lon="5.66017">
        <ele>378</ele>
        <time>2019-01-18T14:00:35.000Z</time>
      </trkpt>
      <trkpt lat="43.34279" lon="5.66017">
        <ele>378</ele>
        <time>2019-01-18T14:00:36.000Z</time>
      </trkpt>
      <trkpt lat="43.34279" lon="5.66016">
        <ele>378</ele>
        <time>2019-01-18T14:00:37.000Z</time>
      </trkpt>
      <trkpt lat="43.34279" lon="5.66016">
        <ele>378</ele>
        <time>2019-01-18T14:00:38.000Z</time>
      </trkpt>
      <trkpt lat="43.3428" lon="5.66016">
        <ele>378</ele>
        <time>2019-01-18T14:00:39.000Z</time>
      </trkpt>
      <trkpt lat="43.3428" lon="5.66016">
        <ele>378</ele>
        <time>2019-01-18T14:00:40.000Z</time>
      </trkpt>
      <trkpt lat="43.3428" lon="5.66016">
        <ele>377</ele>
        <time>2019-01-18T14:00:41.000Z</time>
      </trkpt>
      <trkpt lat="43.3428" lon="5.66016">
        <ele>377</ele>
        <time>2019-01-18T14:00:42.000Z</time>
      </trkpt>
      <trkpt lat="43.3428" lon="5.66016">
        <ele>377</ele>
        <time>2019-01-18T14:00:43.000Z</time>
      </trkpt>
      <trkpt lat="43.3428" lon="5.66016">
        <ele>377</ele>
        <time>2019-01-18T14:00:44.000Z</time>
      </trkpt>
      <trkpt lat="43.3428" lon="5.66016">
        <ele>377</ele>
        <time>2019-01-18T14:00:45.000Z</time>
      </trkpt>
      <trkpt lat="43.3428" lon="5.66016">
        <ele>377</ele>
        <time>2019-01-18T14:00:46.000Z</time>
      </trkpt>
      <trkpt lat="43.3428" lon="5.66016">
        <ele>377</ele>
        <time>2019-01-18T14:00:47.000Z</time>
      </trkpt>
      <trkpt lat="43.3428" lon="5.66016">
        <ele>377</ele>
        <time>2019-01-18T14:00:48.000Z</time>
      </trkpt>
      <trkpt lat="43.3428" lon="5.66016">
        <ele>377</ele>
        <time>2019-01-18T14:00:49.000Z</time>
      </trkpt>
      <trkpt lat="43.3428" lon="5.66016">
        <ele>377</ele>
        <time>2019-01-18T14:00:50.000Z</time>
      </trkpt>
      <trkpt lat="43.3428" lon="5.66015">
        <ele>377</ele>
        <time>2019-01-18T14:00:51.000Z</time>
      </trkpt>
      <trkpt lat="43.3428" lon="5.66015">
        <ele>377</ele>
        <time>2019-01-18T14:00:52.000Z</time>
      </trkpt>
      <trkpt lat="43.3428" lon="5.66015">
        <ele>376</ele>
        <time>2019-01-18T14:00:53.000Z</time>
      </trkpt>
      <trkpt lat="43.3428" lon="5.66015">
        <ele>376</ele>
        <time>2019-01-18T14:00:54.000Z</time>
      </trkpt>
      <trkpt lat="43.3428" lon="5.66015">
        <ele>376</ele>
        <time>2019-01-18T14:00:55.000Z</time>
      </trkpt>
      <trkpt lat="43.3428" lon="5.66015">
        <ele>376</ele>
        <time>2019-01-18T14:00:56.000Z</time>
      </trkpt>
      <trkpt lat="43.3428" lon="5.66015">
        <ele>376</ele>
        <time>2019-01-18T14:00:57.000Z</time>
      </trkpt>
      <trkpt lat="43.3428" lon="5.66016">
        <ele>376</ele>
        <time>2019-01-18T14:00:58.000Z</time>
      </trkpt>
      <trkpt lat="43.3428" lon="5.66016">
        <ele>376</ele>
        <time>2019-01-18T14:00:59.000Z</time>
      </trkpt>
      <trkpt lat="43.3428" lon="5.66016">
        <ele>376</ele>
        <time>2019-01-18T14:01:00.000Z</time>
      </trkpt>
      <trkpt lat="43.3428" lon="5.66016">
        <ele>376</ele>
        <time>2019-01-18T14:01:01.000Z</time>
      </trkpt>
      <trkpt lat="43.3428" lon="5.66016">
        <ele>375</ele>
        <time>2019-01-18T14:01:02.000Z</time>
      </trkpt>
      <trkpt lat="43.34279" lon="5.66016">
        <ele>375</ele>
        <time>2019-01-18T14:01:03.000Z</time>
      </trkpt>
      <trkpt lat="43.34279" lon="5.66016">
        <ele>375</ele>
        <time>2019-01-18T14:01:04.000Z</time>
      </trkpt>
      <trkpt lat="43.3428" lon="5.66016">
        <ele>375</ele>
        <time>2019-01-18T14:01:05.000Z</time>
      </trkpt>
      <trkpt lat="43.3428" lon="5.66016">
        <ele>375</ele>
        <time>2019-01-18T14:01:06.000Z</time>
      </trkpt>
      <trkpt lat="43.3428" lon="5.66016">
        <ele>375</ele>
        <time>2019-01-18T14:01:07.000Z</time>
      </trkpt>
      <trkpt lat="43.3428" lon="5.66016">
        <ele>374</ele>
        <time>2019-01-18T14:01:08.000Z</time>
      </trkpt>
      <trkpt lat="43.3428" lon="5.66016">
        <ele>374</ele>
        <time>2019-01-18T14:01:09.000Z</time>
      </trkpt>
      <trkpt lat="43.3428" lon="5.66016">
        <ele>374</ele>
        <time>2019-01-18T14:01:10.000Z</time>
      </trkpt>
      <trkpt lat="43.34279" lon="5.66016">
        <ele>374</ele>
        <time>2019-01-18T14:01:11.000Z</time>
      </trkpt>
      <trkpt lat="43.3428" lon="5.66016">
        <ele>374</ele>
        <time>2019-01-18T14:01:12.000Z</time>
      </trkpt>
      <trkpt lat="43.3428" lon="5.66016">
        <ele>374</ele>
        <time>2019-01-18T14:01:13.000Z</time>
      </trkpt>
      <trkpt lat="43.34279" lon="5.66016">
        <ele>374</ele>
        <time>2019-01-18T14:01:14.000Z</time>
      </trkpt>
      <trkpt lat="43.3428" lon="5.66017">
        <ele>374</ele>
        <time>2019-01-18T14:01:15.000Z</time>
      </trkpt>
      <trkpt lat="43.3428" lon="5.66017">
        <ele>375</ele>
        <time>2019-01-18T14:01:16.000Z</time>
      </trkpt>
      <trkpt lat="43.3428" lon="5.66017">
        <ele>375</ele>
        <time>2019-01-18T14:01:17.000Z</time>
      </trkpt>
      <trkpt lat="43.3428" lon="5.66018">
        <ele>375</ele>
        <time>2019-01-18T14:01:18.000Z</time>
      </trkpt>
      <trkpt lat="43.3428" lon="5.66018">
        <ele>375</ele>
        <time>2019-01-18T14:01:19.000Z</time>
      </trkpt>
      <trkpt lat="43.3428" lon="5.66017">
        <ele>375</ele>
        <time>2019-01-18T14:01:20.000Z</time>
      </trkpt>
      <trkpt lat="43.3428" lon="5.66017">
        <ele>375</ele>
        <time>2019-01-18T14:01:21.000Z</time>
      </trkpt>
      <trkpt lat="43.3428" lon="5.66017">
        <ele>375</ele>
        <time>2019-01-18T14:01:22.000Z</time>
      </trkpt>
      <trkpt lat="43.3428" lon="5.66017">
        <ele>375</ele>
        <time>2019-01-18T14:01:23.000Z</time>
      </trkpt>
      <trkpt lat="43.3428" lon="5.66017">
        <ele>375</ele>
        <time>2019-01-18T14:01:24.000Z</time>
      </trkpt>
      <trkpt lat="43.3428" lon="5.66017">
        <ele>375</ele>
        <time>2019-01-18T14:01:25.000Z</time>
      </trkpt>
      <trkpt lat="43.3428" lon="5.66017">
        <ele>375</ele>
        <time>2019-01-18T14:01:26.000Z</time>
      </trkpt>
      <trkpt lat="43.3428" lon="5.66017">
        <ele>375</ele>
        <time>2019-01-18T14:01:27.000Z</time>
      </trkpt>
      <trkpt lat="43.3428" lon="5.66017">
        <ele>375</ele>
        <time>2019-01-18T14:01:28.000Z</time>
      </trkpt>
      <trkpt lat="43.3428" lon="5.66018">
        <ele>374</ele>
        <time>2019-01-18T14:01:29.000Z</time>
      </trkpt>
      <trkpt lat="43.3428" lon="5.66018">
        <ele>374</ele>
        <time>2019-01-18T14:01:30.000Z</time>
      </trkpt>
      <trkpt lat="43.34281" lon="5.66018">
        <ele>374</ele>
        <time>2019-01-18T14:01:31.000Z</time>
      </trkpt>
      <trkpt lat="43.34281" lon="5.66018">
        <ele>374</ele>
        <time>2019-01-18T14:01:32.000Z</time>
      </trkpt>
      <trkpt lat="43.34281" lon="5.66018">
        <ele>374</ele>
        <time>2019-01-18T14:01:33.000Z</time>
      </trkpt>
      <trkpt lat="43.34281" lon="5.66019">
        <ele>374</ele>
        <time>2019-01-18T14:01:34.000Z</time>
      </trkpt>
      <trkpt lat="43.34281" lon="5.66019">
        <ele>374</ele>
        <time>2019-01-18T14:01:35.000Z</time>
      </trkpt>
      <trkpt lat="43.34281" lon="5.66019">
        <ele>374</ele>
        <time>2019-01-18T14:01:36.000Z</time>
      </trkpt>
      <trkpt lat="43.34281" lon="5.66019">
        <ele>374</ele>
        <time>2019-01-18T14:01:37.000Z</time>
      </trkpt>
      <trkpt lat="43.34281" lon="5.66019">
        <ele>374</ele>
        <time>2019-01-18T14:01:38.000Z</time>
      </trkpt>
      <trkpt lat="43.34281" lon="5.6602">
        <ele>374</ele>
        <time>2019-01-18T14:01:39.000Z</time>
      </trkpt>
      <trkpt lat="43.3428" lon="5.6602">
        <ele>374</ele>
        <time>2019-01-18T14:01:40.000Z</time>
      </trkpt>
      <trkpt lat="43.3428" lon="5.66019">
        <ele>374</ele>
        <time>2019-01-18T14:01:41.000Z</time>
      </trkpt>
      <trkpt lat="43.3428" lon="5.66019">
        <ele>374</ele>
        <time>2019-01-18T14:01:42.000Z</time>
      </trkpt>
      <trkpt lat="43.3428" lon="5.66019">
        <ele>373</ele>
        <time>2019-01-18T14:01:43.000Z</time>
      </trkpt>
      <trkpt lat="43.3428" lon="5.66019">
        <ele>373</ele>
        <time>2019-01-18T14:01:44.000Z</time>
      </trkpt>
      <trkpt lat="43.3428" lon="5.66019">
        <ele>373</ele>
        <time>2019-01-18T14:01:45.000Z</time>
      </trkpt>
      <trkpt lat="43.3428" lon="5.6602">
        <ele>373</ele>
        <time>2019-01-18T14:01:46.000Z</time>
      </trkpt>
      <trkpt lat="43.3428" lon="5.6602">
        <ele>373</ele>
        <time>2019-01-18T14:01:47.000Z</time>
      </trkpt>
      <trkpt lat="43.3428" lon="5.6602">
        <ele>373</ele>
        <time>2019-01-18T14:01:48.000Z</time>
      </trkpt>
      <trkpt lat="43.3428" lon="5.6602">
        <ele>373</ele>
        <time>2019-01-18T14:01:49.000Z</time>
      </trkpt>
      <trkpt lat="43.3428" lon="5.6602">
        <ele>373</ele>
        <time>2019-01-18T14:01:50.000Z</time>
      </trkpt>
      <trkpt lat="43.3428" lon="5.6602">
        <ele>373</ele>
        <time>2019-01-18T14:01:51.000Z</time>
      </trkpt>
      <trkpt lat="43.34281" lon="5.6602">
        <ele>372</ele>
        <time>2019-01-18T14:01:52.000Z</time>
      </trkpt>
      <trkpt lat="43.34281" lon="5.6602">
        <ele>372</ele>
        <time>2019-01-18T14:01:53.000Z</time>
      </trkpt>
      <trkpt lat="43.34281" lon="5.6602">
        <ele>372</ele>
        <time>2019-01-18T14:01:54.000Z</time>
      </trkpt>
      <trkpt lat="43.34281" lon="5.6602">
        <ele>372</ele>
        <time>2019-01-18T14:01:55.000Z</time>
      </trkpt>
      <trkpt lat="43.34281" lon="5.6602">
        <ele>372</ele>
        <time>2019-01-18T14:01:56.000Z</time>
      </trkpt>
      <trkpt lat="43.3428" lon="5.6602">
        <ele>372</ele>
        <time>2019-01-18T14:01:57.000Z</time>
      </trkpt>
      <trkpt lat="43.3428" lon="5.6602">
        <ele>371</ele>
        <time>2019-01-18T14:01:58.000Z</time>
      </trkpt>
      <trkpt lat="43.3428" lon="5.6602">
        <ele>371</ele>
        <time>2019-01-18T14:01:59.000Z</time>
      </trkpt>
      <trkpt lat="43.3428" lon="5.66019">
        <ele>371</ele>
        <time>2019-01-18T14:02:00.000Z</time>
      </trkpt>
      <trkpt lat="43.34281" lon="5.66019">
        <ele>371</ele>
        <time>2019-01-18T14:02:01.000Z</time>
      </trkpt>
      <trkpt lat="43.34281" lon="5.66019">
        <ele>371</ele>
        <time>2019-01-18T14:02:02.000Z</time>
      </trkpt>
      <trkpt lat="43.3428" lon="5.66019">
        <ele>371</ele>
        <time>2019-01-18T14:02:03.000Z</time>
      </trkpt>
      <trkpt lat="43.3428" lon="5.66019">
        <ele>370</ele>
        <time>2019-01-18T14:02:04.000Z</time>
      </trkpt>
      <trkpt lat="43.3428" lon="5.66019">
        <ele>370</ele>
        <time>2019-01-18T14:02:05.000Z</time>
      </trkpt>
      <trkpt lat="43.3428" lon="5.66019">
        <ele>370</ele>
        <time>2019-01-18T14:02:06.000Z</time>
      </trkpt>
      <trkpt lat="43.3428" lon="5.66019">
        <ele>370</ele>
        <time>2019-01-18T14:02:07.000Z</time>
      </trkpt>
      <trkpt lat="43.3428" lon="5.6602">
        <ele>370</ele>
        <time>2019-01-18T14:02:08.000Z</time>
      </trkpt>
      <trkpt lat="43.34279" lon="5.6602">
        <ele>370</ele>
        <time>2019-01-18T14:02:09.000Z</time>
      </trkpt>
      <trkpt lat="43.34279" lon="5.6602">
        <ele>370</ele>
        <time>2019-01-18T14:02:10.000Z</time>
      </trkpt>
      <trkpt lat="43.34278" lon="5.66021">
        <ele>369</ele>
        <time>2019-01-18T14:02:11.000Z</time>
      </trkpt>
      <trkpt lat="43.34278" lon="5.66021">
        <ele>369</ele>
        <time>2019-01-18T14:02:12.000Z</time>
      </trkpt>
      <trkpt lat="43.34278" lon="5.66021">
        <ele>369</ele>
        <time>2019-01-18T14:02:13.000Z</time>
      </trkpt>
      <trkpt lat="43.34278" lon="5.66021">
        <ele>369</ele>
        <time>2019-01-18T14:02:14.000Z</time>
      </trkpt>
      <trkpt lat="43.34278" lon="5.66021">
        <ele>369</ele>
        <time>2019-01-18T14:02:15.000Z</time>
      </trkpt>
      <trkpt lat="43.34278" lon="5.66021">
        <ele>369</ele>
        <time>2019-01-18T14:02:16.000Z</time>
      </trkpt>
      <trkpt lat="43.34278" lon="5.66021">
        <ele>368</ele>
        <time>2019-01-18T14:02:17.000Z</time>
      </trkpt>
      <trkpt lat="43.34278" lon="5.66021">
        <ele>368</ele>
        <time>2019-01-18T14:02:18.000Z</time>
      </trkpt>
      <trkpt lat="43.34278" lon="5.66021">
        <ele>368</ele>
        <time>2019-01-18T14:02:19.000Z</time>
      </trkpt>
      <trkpt lat="43.34278" lon="5.66021">
        <ele>368</ele>
        <time>2019-01-18T14:02:20.000Z</time>
      </trkpt>
      <trkpt lat="43.34278" lon="5.66021">
        <ele>368</ele>
        <time>2019-01-18T14:02:21.000Z</time>
      </trkpt>
      <trkpt lat="43.34278" lon="5.66021">
        <ele>368</ele>
        <time>2019-01-18T14:02:22.000Z</time>
      </trkpt>
      <trkpt lat="43.34278" lon="5.66021">
        <ele>367</ele>
        <time>2019-01-18T14:02:23.000Z</time>
      </trkpt>
      <trkpt lat="43.34278" lon="5.66022">
        <ele>367</ele>
        <time>2019-01-18T14:02:24.000Z</time>
      </trkpt>
      <trkpt lat="43.34278" lon="5.66022">
        <ele>367</ele>
        <time>2019-01-18T14:02:25.000Z</time>
      </trkpt>
      <trkpt lat="43.34279" lon="5.66022">
        <ele>367</ele>
        <time>2019-01-18T14:02:26.000Z</time>
      </trkpt>
      <trkpt lat="43.34279" lon="5.66022">
        <ele>367</ele>
        <time>2019-01-18T14:02:27.000Z</time>
      </trkpt>
      <trkpt lat="43.34279" lon="5.66022">
        <ele>367</ele>
        <time>2019-01-18T14:02:28.000Z</time>
      </trkpt>
      <trkpt lat="43.34279" lon="5.66022">
        <ele>367</ele>
        <time>2019-01-18T14:02:29.000Z</time>
      </trkpt>
      <trkpt lat="43.34279" lon="5.66022">
        <ele>366</ele>
        <time>2019-01-18T14:02:30.000Z</time>
      </trkpt>
      <trkpt lat="43.3428" lon="5.66022">
        <ele>366</ele>
        <time>2019-01-18T14:02:31.000Z</time>
      </trkpt>
      <trkpt lat="43.3428" lon="5.66022">
        <ele>366</ele>
        <time>2019-01-18T14:02:32.000Z</time>
      </trkpt>
      <trkpt lat="43.3428" lon="5.66022">
        <ele>366</ele>
        <time>2019-01-18T14:02:33.000Z</time>
      </trkpt>
      <trkpt lat="43.3428" lon="5.66022">
        <ele>366</ele>
        <time>2019-01-18T14:02:34.000Z</time>
      </trkpt>
      <trkpt lat="43.3428" lon="5.66022">
        <ele>366</ele>
        <time>2019-01-18T14:02:35.000Z</time>
      </trkpt>
      <trkpt lat="43.3428" lon="5.66022">
        <ele>366</ele>
        <time>2019-01-18T14:02:36.000Z</time>
      </trkpt>
      <trkpt lat="43.3428" lon="5.66023">
        <ele>366</ele>
        <time>2019-01-18T14:02:37.000Z</time>
      </trkpt>
      <trkpt lat="43.3428" lon="5.66023">
        <ele>366</ele>
        <time>2019-01-18T14:02:38.000Z</time>
      </trkpt>
      <trkpt lat="43.34281" lon="5.66023">
        <ele>366</ele>
        <time>2019-01-18T14:02:39.000Z</time>
      </trkpt>
      <trkpt lat="43.34281" lon="5.66023">
        <ele>366</ele>
        <time>2019-01-18T14:02:40.000Z</time>
      </trkpt>
      <trkpt lat="43.34281" lon="5.66023">
        <ele>365</ele>
        <time>2019-01-18T14:02:41.000Z</time>
      </trkpt>
      <trkpt lat="43.34282" lon="5.66023">
        <ele>365</ele>
        <time>2019-01-18T14:02:42.000Z</time>
      </trkpt>
      <trkpt lat="43.34282" lon="5.66023">
        <ele>365</ele>
        <time>2019-01-18T14:02:43.000Z</time>
      </trkpt>
      <trkpt lat="43.34283" lon="5.66024">
        <ele>365</ele>
        <time>2019-01-18T14:02:44.000Z</time>
      </trkpt>
      <trkpt lat="43.34283" lon="5.66024">
        <ele>365</ele>
        <time>2019-01-18T14:02:45.000Z</time>
      </trkpt>
      <trkpt lat="43.34283" lon="5.66024">
        <ele>365</ele>
        <time>2019-01-18T14:02:46.000Z</time>
      </trkpt>
      <trkpt lat="43.34283" lon="5.66024">
        <ele>365</ele>
        <time>2019-01-18T14:02:47.000Z</time>
      </trkpt>
      <trkpt lat="43.34283" lon="5.66024">
        <ele>365</ele>
        <time>2019-01-18T14:02:48.000Z</time>
      </trkpt>
      <trkpt lat="43.34283" lon="5.66024">
        <ele>365</ele>
        <time>2019-01-18T14:02:49.000Z</time>
      </trkpt>
      <trkpt lat="43.34283" lon="5.66024">
        <ele>365</ele>
        <time>2019-01-18T14:02:50.000Z</time>
      </trkpt>
      <trkpt lat="43.34284" lon="5.66024">
        <ele>365</ele>
        <time>2019-01-18T14:02:51.000Z</time>
      </trkpt>
      <trkpt lat="43.34284" lon="5.66024">
        <ele>365</ele>
        <time>2019-01-18T14:02:52.000Z</time>
      </trkpt>
      <trkpt lat="43.34285" lon="5.66025">
        <ele>364</ele>
        <time>2019-01-18T14:02:53.000Z</time>
      </trkpt>
      <trkpt lat="43.34285" lon="5.66025">
        <ele>364</ele>
        <time>2019-01-18T14:02:54.000Z</time>
      </trkpt>
      <trkpt lat="43.34285" lon="5.66025">
        <ele>364</ele>
        <time>2019-01-18T14:02:55.000Z</time>
      </trkpt>
      <trkpt lat="43.34285" lon="5.66025">
        <ele>364</ele>
        <time>2019-01-18T14:02:56.000Z</time>
      </trkpt>
      <trkpt lat="43.34285" lon="5.66025">
        <ele>364</ele>
        <time>2019-01-18T14:02:57.000Z</time>
      </trkpt>
      <trkpt lat="43.34285" lon="5.66026">
        <ele>364</ele>
        <time>2019-01-18T14:02:58.000Z</time>
      </trkpt>
      <trkpt lat="43.34285" lon="5.66026">
        <ele>364</ele>
        <time>2019-01-18T14:02:59.000Z</time>
      </trkpt>
      <trkpt lat="43.34285" lon="5.66026">
        <ele>364</ele>
        <time>2019-01-18T14:03:00.000Z</time>
      </trkpt>
      <trkpt lat="43.34285" lon="5.66027">
        <ele>364</ele>
        <time>2019-01-18T14:03:01.000Z</time>
      </trkpt>
      <trkpt lat="43.34285" lon="5.66027">
        <ele>364</ele>
        <time>2019-01-18T14:03:02.000Z</time>
      </trkpt>
      <trkpt lat="43.34285" lon="5.66027">
        <ele>364</ele>
        <time>2019-01-18T14:03:03.000Z</time>
      </trkpt>
      <trkpt lat="43.34285" lon="5.66027">
        <ele>364</ele>
        <time>2019-01-18T14:03:04.000Z</time>
      </trkpt>
      <trkpt lat="43.34285" lon="5.66027">
        <ele>363</ele>
        <time>2019-01-18T14:03:05.000Z</time>
      </trkpt>
      <trkpt lat="43.34285" lon="5.66027">
        <ele>363</ele>
        <time>2019-01-18T14:03:06.000Z</time>
      </trkpt>
      <trkpt lat="43.34285" lon="5.66027">
        <ele>363</ele>
        <time>2019-01-18T14:03:07.000Z</time>
      </trkpt>
      <trkpt lat="43.34285" lon="5.66027">
        <ele>363</ele>
        <time>2019-01-18T14:03:08.000Z</time>
      </trkpt>
      <trkpt lat="43.34285" lon="5.66027">
        <ele>363</ele>
        <time>2019-01-18T14:03:09.000Z</time>
      </trkpt>
      <trkpt lat="43.34285" lon="5.66027">
        <ele>363</ele>
        <time>2019-01-18T14:03:10.000Z</time>
      </trkpt>
      <trkpt lat="43.34285" lon="5.66027">
        <ele>363</ele>
        <time>2019-01-18T14:03:11.000Z</time>
      </trkpt>
      <trkpt lat="43.34286" lon="5.66027">
        <ele>363</ele>
        <time>2019-01-18T14:03:12.000Z</time>
      </trkpt>
      <trkpt lat="43.34286" lon="5.66027">
        <ele>363</ele>
        <time>2019-01-18T14:03:13.000Z</time>
      </trkpt>
      <trkpt lat="43.34286" lon="5.66027">
        <ele>363</ele>
        <time>2019-01-18T14:03:14.000Z</time>
      </trkpt>
      <trkpt lat="43.34286" lon="5.66027">
        <ele>363</ele>
        <time>2019-01-18T14:03:15.000Z</time>
      </trkpt>
      <trkpt lat="43.34286" lon="5.66027">
        <ele>363</ele>
        <time>2019-01-18T14:03:16.000Z</time>
      </trkpt>
      <trkpt lat="43.34286" lon="5.66027">
        <ele>363</ele>
        <time>2019-01-18T14:03:17.000Z</time>
      </trkpt>
      <trkpt lat="43.34287" lon="5.66027">
        <ele>363</ele>
        <time>2019-01-18T14:03:18.000Z</time>
      </trkpt>
      <trkpt lat="43.34287" lon="5.66027">
        <ele>363</ele>
        <time>2019-01-18T14:03:19.000Z</time>
      </trkpt>
      <trkpt lat="43.34288" lon="5.66027">
        <ele>363</ele>
        <time>2019-01-18T14:03:20.000Z</time>
      </trkpt>
      <trkpt lat="43.34288" lon="5.66027">
        <ele>363</ele>
        <time>2019-01-18T14:03:21.000Z</time>
      </trkpt>
      <trkpt lat="43.34288" lon="5.66027">
        <ele>363</ele>
        <time>2019-01-18T14:03:22.000Z</time>
      </trkpt>
      <trkpt lat="43.34288" lon="5.66027">
        <ele>363</ele>
        <time>2019-01-18T14:03:23.000Z</time>
      </trkpt>
      <trkpt lat="43.34288" lon="5.66027">
        <ele>363</ele>
        <time>2019-01-18T14:03:24.000Z</time>
      </trkpt>
      <trkpt lat="43.34288" lon="5.66027">
        <ele>363</ele>
        <time>2019-01-18T14:03:25.000Z</time>
      </trkpt>
      <trkpt lat="43.34288" lon="5.66027">
        <ele>363</ele>
        <time>2019-01-18T14:03:26.000Z</time>
      </trkpt>
      <trkpt lat="43.34288" lon="5.66027">
        <ele>363</ele>
        <time>2019-01-18T14:03:27.000Z</time>
      </trkpt>
      <trkpt lat="43.34288" lon="5.66027">
        <ele>363</ele>
        <time>2019-01-18T14:03:28.000Z</time>
      </trkpt>
      <trkpt lat="43.34288" lon="5.66027">
        <ele>363</ele>
        <time>2019-01-18T14:03:29.000Z</time>
      </trkpt>
      <trkpt lat="43.34288" lon="5.66027">
        <ele>363</ele>
        <time>2019-01-18T14:03:30.000Z</time>
      </trkpt>
      <trkpt lat="43.34288" lon="5.66027">
        <ele>363</ele>
        <time>2019-01-18T14:03:31.000Z</time>
      </trkpt>
      <trkpt lat="43.34288" lon="5.66027">
        <ele>363</ele>
        <time>2019-01-18T14:03:32.000Z</time>
      </trkpt>
      <trkpt lat="43.34288" lon="5.66027">
        <ele>363</ele>
        <time>2019-01-18T14:03:33.000Z</time>
      </trkpt>
      <trkpt lat="43.34288" lon="5.66027">
        <ele>363</ele>
        <time>2019-01-18T14:03:34.000Z</time>
      </trkpt>
      <trkpt lat="43.34288" lon="5.66027">
        <ele>363</ele>
        <time>2019-01-18T14:03:35.000Z</time>
      </trkpt>
      <trkpt lat="43.34288" lon="5.66027">
        <ele>363</ele>
        <time>2019-01-18T14:03:36.000Z</time>
      </trkpt>
      <trkpt lat="43.34289" lon="5.66027">
        <ele>363</ele>
        <time>2019-01-18T14:03:37.000Z</time>
      </trkpt>
      <trkpt lat="43.34289" lon="5.66027">
        <ele>363</ele>
        <time>2019-01-18T14:03:38.000Z</time>
      </trkpt>
      <trkpt lat="43.34289" lon="5.66027">
        <ele>363</ele>
        <time>2019-01-18T14:03:39.000Z</time>
      </trkpt>
      <trkpt lat="43.3429" lon="5.66027">
        <ele>363</ele>
        <time>2019-01-18T14:03:40.000Z</time>
      </trkpt>
      <trkpt lat="43.3429" lon="5.66027">
        <ele>363</ele>
        <time>2019-01-18T14:03:41.000Z</time>
      </trkpt>
      <trkpt lat="43.34291" lon="5.66027">
        <ele>363</ele>
        <time>2019-01-18T14:03:42.000Z</time>
      </trkpt>
      <trkpt lat="43.34291" lon="5.66027">
        <ele>363</ele>
        <time>2019-01-18T14:03:43.000Z</time>
      </trkpt>
      <trkpt lat="43.34291" lon="5.66027">
        <ele>363</ele>
        <time>2019-01-18T14:03:44.000Z</time>
      </trkpt>
      <trkpt lat="43.34291" lon="5.66027">
        <ele>363</ele>
        <time>2019-01-18T14:03:45.000Z</time>
      </trkpt>
      <trkpt lat="43.34292" lon="5.66027">
        <ele>363</ele>
        <time>2019-01-18T14:03:46.000Z</time>
      </trkpt>
      <trkpt lat="43.34293" lon="5.66027">
        <ele>363</ele>
        <time>2019-01-18T14:03:47.000Z</time>
      </trkpt>
      <trkpt lat="43.34294" lon="5.66027">
        <ele>363</ele>
        <time>2019-01-18T14:03:48.000Z</time>
      </trkpt>
      <trkpt lat="43.34295" lon="5.66027">
        <ele>363</ele>
        <time>2019-01-18T14:03:49.000Z</time>
      </trkpt>
      <trkpt lat="43.34296" lon="5.66026">
        <ele>362</ele>
        <time>2019-01-18T14:03:50.000Z</time>
      </trkpt>
      <trkpt lat="43.34296" lon="5.66026">
        <ele>362</ele>
        <time>2019-01-18T14:03:51.000Z</time>
      </trkpt>
      <trkpt lat="43.34297" lon="5.66026">
        <ele>362</ele>
        <time>2019-01-18T14:03:52.000Z</time>
      </trkpt>
      <trkpt lat="43.34297" lon="5.66026">
        <ele>362</ele>
        <time>2019-01-18T14:03:53.000Z</time>
      </trkpt>
      <trkpt lat="43.34298" lon="5.66026">
        <ele>362</ele>
        <time>2019-01-18T14:03:54.000Z</time>
      </trkpt>
      <trkpt lat="43.34299" lon="5.66025">
        <ele>362</ele>
        <time>2019-01-18T14:03:55.000Z</time>
      </trkpt>
      <trkpt lat="43.343" lon="5.66025">
        <ele>362</ele>
        <time>2019-01-18T14:03:56.000Z</time>
      </trkpt>
      <trkpt lat="43.343" lon="5.66025">
        <ele>362</ele>
        <time>2019-01-18T14:03:57.000Z</time>
      </trkpt>
      <trkpt lat="43.34301" lon="5.66026">
        <ele>362</ele>
        <time>2019-01-18T14:03:58.000Z</time>
      </trkpt>
      <trkpt lat="43.34302" lon="5.66026">
        <ele>362</ele>
        <time>2019-01-18T14:03:59.000Z</time>
      </trkpt>
      <trkpt lat="43.34303" lon="5.66026">
        <ele>362</ele>
        <time>2019-01-18T14:04:00.000Z</time>
      </trkpt>
      <trkpt lat="43.34304" lon="5.66026">
        <ele>362</ele>
        <time>2019-01-18T14:04:01.000Z</time>
      </trkpt>
      <trkpt lat="43.34304" lon="5.66026">
        <ele>362</ele>
        <time>2019-01-18T14:04:02.000Z</time>
      </trkpt>
      <trkpt lat="43.34305" lon="5.66026">
        <ele>361</ele>
        <time>2019-01-18T14:04:03.000Z</time>
      </trkpt>
      <trkpt lat="43.34305" lon="5.66026">
        <ele>361</ele>
        <time>2019-01-18T14:04:04.000Z</time>
      </trkpt>
      <trkpt lat="43.34306" lon="5.66026">
        <ele>361</ele>
        <time>2019-01-18T14:04:05.000Z</time>
      </trkpt>
      <trkpt lat="43.34307" lon="5.66027">
        <ele>361</ele>
        <time>2019-01-18T14:04:06.000Z</time>
      </trkpt>
      <trkpt lat="43.34308" lon="5.66027">
        <ele>361</ele>
        <time>2019-01-18T14:04:07.000Z</time>
      </trkpt>
      <trkpt lat="43.34309" lon="5.66027">
        <ele>361</ele>
        <time>2019-01-18T14:04:08.000Z</time>
      </trkpt>
      <trkpt lat="43.3431" lon="5.66027">
        <ele>361</ele>
        <time>2019-01-18T14:04:09.000Z</time>
      </trkpt>
      <trkpt lat="43.34311" lon="5.66028">
        <ele>361</ele>
        <time>2019-01-18T14:04:10.000Z</time>
      </trkpt>
      <trkpt lat="43.34312" lon="5.66028">
        <ele>361</ele>
        <time>2019-01-18T14:04:11.000Z</time>
      </trkpt>
      <trkpt lat="43.34313" lon="5.66028">
        <ele>361</ele>
        <time>2019-01-18T14:04:12.000Z</time>
      </trkpt>
      <trkpt lat="43.34314" lon="5.66028">
        <ele>360</ele>
        <time>2019-01-18T14:04:13.000Z</time>
      </trkpt>
      <trkpt lat="43.34315" lon="5.66028">
        <ele>360</ele>
        <time>2019-01-18T14:04:14.000Z</time>
      </trkpt>
      <trkpt lat="43.34315" lon="5.66028">
        <ele>360</ele>
        <time>2019-01-18T14:04:15.000Z</time>
      </trkpt>
      <trkpt lat="43.34316" lon="5.66028">
        <ele>360</ele>
        <time>2019-01-18T14:04:16.000Z</time>
      </trkpt>
      <trkpt lat="43.34317" lon="5.66028">
        <ele>360</ele>
        <time>2019-01-18T14:04:17.000Z</time>
      </trkpt>
      <trkpt lat="43.34317" lon="5.66028">
        <ele>360</ele>
        <time>2019-01-18T14:04:18.000Z</time>
      </trkpt>
      <trkpt lat="43.34318" lon="5.66029">
        <ele>360</ele>
        <time>2019-01-18T14:04:19.000Z</time>
      </trkpt>
      <trkpt lat="43.34319" lon="5.66029">
        <ele>360</ele>
        <time>2019-01-18T14:04:20.000Z</time>
      </trkpt>
      <trkpt lat="43.3432" lon="5.6603">
        <ele>360</ele>
        <time>2019-01-18T14:04:21.000Z</time>
      </trkpt>
      <trkpt lat="43.34321" lon="5.66031">
        <ele>360</ele>
        <time>2019-01-18T14:04:22.000Z</time>
      </trkpt>
      <trkpt lat="43.34321" lon="5.66031">
        <ele>360</ele>
        <time>2019-01-18T14:04:23.000Z</time>
      </trkpt>
      <trkpt lat="43.34322" lon="5.66031">
        <ele>359</ele>
        <time>2019-01-18T14:04:24.000Z</time>
      </trkpt>
      <trkpt lat="43.34323" lon="5.66032">
        <ele>359</ele>
        <time>2019-01-18T14:04:25.000Z</time>
      </trkpt>
      <trkpt lat="43.34324" lon="5.66032">
        <ele>359</ele>
        <time>2019-01-18T14:04:26.000Z</time>
      </trkpt>
      <trkpt lat="43.34325" lon="5.66032">
        <ele>359</ele>
        <time>2019-01-18T14:04:27.000Z</time>
      </trkpt>
      <trkpt lat="43.34326" lon="5.66032">
        <ele>359</ele>
        <time>2019-01-18T14:04:28.000Z</time>
      </trkpt>
      <trkpt lat="43.34327" lon="5.66032">
        <ele>359</ele>
        <time>2019-01-18T14:04:29.000Z</time>
      </trkpt>
      <trkpt lat="43.34328" lon="5.66033">
        <ele>359</ele>
        <time>2019-01-18T14:04:30.000Z</time>
      </trkpt>
      <trkpt lat="43.34329" lon="5.66033">
        <ele>359</ele>
        <time>2019-01-18T14:04:31.000Z</time>
      </trkpt>
      <trkpt lat="43.3433" lon="5.66033">
        <ele>359</ele>
        <time>2019-01-18T14:04:32.000Z</time>
      </trkpt>
      <trkpt lat="43.3433" lon="5.66033">
        <ele>359</ele>
        <time>2019-01-18T14:04:33.000Z</time>
      </trkpt>
      <trkpt lat="43.34331" lon="5.66033">
        <ele>359</ele>
        <time>2019-01-18T14:04:34.000Z</time>
      </trkpt>
      <trkpt lat="43.34331" lon="5.66033">
        <ele>358</ele>
        <time>2019-01-18T14:04:35.000Z</time>
      </trkpt>
      <trkpt lat="43.34331" lon="5.66033">
        <ele>358</ele>
        <time>2019-01-18T14:04:36.000Z</time>
      </trkpt>
      <trkpt lat="43.34332" lon="5.66033">
        <ele>358</ele>
        <time>2019-01-18T14:04:37.000Z</time>
      </trkpt>
      <trkpt lat="43.34332" lon="5.66033">
        <ele>358</ele>
        <time>2019-01-18T14:04:38.000Z</time>
      </trkpt>
      <trkpt lat="43.34333" lon="5.66033">
        <ele>358</ele>
        <time>2019-01-18T14:04:39.000Z</time>
      </trkpt>
      <trkpt lat="43.34334" lon="5.66033">
        <ele>358</ele>
        <time>2019-01-18T14:04:40.000Z</time>
      </trkpt>
      <trkpt lat="43.34334" lon="5.66032">
        <ele>358</ele>
        <time>2019-01-18T14:04:41.000Z</time>
      </trkpt>
      <trkpt lat="43.34335" lon="5.66032">
        <ele>357</ele>
        <time>2019-01-18T14:04:42.000Z</time>
      </trkpt>
      <trkpt lat="43.34336" lon="5.66032">
        <ele>357</ele>
        <time>2019-01-18T14:04:43.000Z</time>
      </trkpt>
      <trkpt lat="43.34336" lon="5.66033">
        <ele>357</ele>
        <time>2019-01-18T14:04:44.000Z</time>
      </trkpt>
      <trkpt lat="43.34337" lon="5.66033">
        <ele>357</ele>
        <time>2019-01-18T14:04:45.000Z</time>
      </trkpt>
      <trkpt lat="43.34338" lon="5.66033">
        <ele>357</ele>
        <time>2019-01-18T14:04:46.000Z</time>
      </trkpt>
      <trkpt lat="43.34338" lon="5.66032">
        <ele>357</ele>
        <time>2019-01-18T14:04:47.000Z</time>
      </trkpt>
      <trkpt lat="43.34339" lon="5.66033">
        <ele>357</ele>
        <time>2019-01-18T14:04:48.000Z</time>
      </trkpt>
      <trkpt lat="43.3434" lon="5.66033">
        <ele>357</ele>
        <time>2019-01-18T14:04:49.000Z</time>
      </trkpt>
      <trkpt lat="43.34341" lon="5.66033">
        <ele>357</ele>
        <time>2019-01-18T14:04:50.000Z</time>
      </trkpt>
      <trkpt lat="43.34341" lon="5.66034">
        <ele>357</ele>
        <time>2019-01-18T14:04:51.000Z</time>
      </trkpt>
      <trkpt lat="43.34342" lon="5.66034">
        <ele>357</ele>
        <time>2019-01-18T14:04:52.000Z</time>
      </trkpt>
      <trkpt lat="43.34343" lon="5.66034">
        <ele>357</ele>
        <time>2019-01-18T14:04:53.000Z</time>
      </trkpt>
      <trkpt lat="43.34344" lon="5.66034">
        <ele>356</ele>
        <time>2019-01-18T14:04:54.000Z</time>
      </trkpt>
      <trkpt lat="43.34345" lon="5.66034">
        <ele>356</ele>
        <time>2019-01-18T14:04:55.000Z</time>
      </trkpt>
      <trkpt lat="43.34345" lon="5.66035">
        <ele>356</ele>
        <time>2019-01-18T14:04:56.000Z</time>
      </trkpt>
      <trkpt lat="43.34346" lon="5.66035">
        <ele>356</ele>
        <time>2019-01-18T14:04:57.000Z</time>
      </trkpt>
      <trkpt lat="43.34347" lon="5.66035">
        <ele>356</ele>
        <time>2019-01-18T14:04:58.000Z</time>
      </trkpt>
      <trkpt lat="43.34348" lon="5.66036">
        <ele>356</ele>
        <time>2019-01-18T14:04:59.000Z</time>
      </trkpt>
      <trkpt lat="43.34349" lon="5.66036">
        <ele>356</ele>
        <time>2019-01-18T14:05:00.000Z</time>
      </trkpt>
      <trkpt lat="43.3435" lon="5.66036">
        <ele>356</ele>
        <time>2019-01-18T14:05:01.000Z</time>
      </trkpt>
      <trkpt lat="43.3435" lon="5.66037">
        <ele>356</ele>
        <time>2019-01-18T14:05:02.000Z</time>
      </trkpt>
      <trkpt lat="43.34351" lon="5.66037">
        <ele>356</ele>
        <time>2019-01-18T14:05:03.000Z</time>
      </trkpt>
      <trkpt lat="43.34351" lon="5.66037">
        <ele>356</ele>
        <time>2019-01-18T14:05:04.000Z</time>
      </trkpt>
      <trkpt lat="43.34351" lon="5.66037">
        <ele>356</ele>
        <time>2019-01-18T14:05:05.000Z</time>
      </trkpt>
      <trkpt lat="43.34352" lon="5.66037">
        <ele>356</ele>
        <time>2019-01-18T14:05:06.000Z</time>
      </trkpt>
      <trkpt lat="43.34352" lon="5.66038">
        <ele>356</ele>
        <time>2019-01-18T14:05:07.000Z</time>
      </trkpt>
      <trkpt lat="43.34353" lon="5.66038">
        <ele>356</ele>
        <time>2019-01-18T14:05:08.000Z</time>
      </trkpt>
      <trkpt lat="43.34354" lon="5.66038">
        <ele>356</ele>
        <time>2019-01-18T14:05:09.000Z</time>
      </trkpt>
      <trkpt lat="43.34355" lon="5.66039">
        <ele>356</ele>
        <time>2019-01-18T14:05:10.000Z</time>
      </trkpt>
      <trkpt lat="43.34356" lon="5.66039">
        <ele>356</ele>
        <time>2019-01-18T14:05:11.000Z</time>
      </trkpt>
      <trkpt lat="43.34357" lon="5.66039">
        <ele>356</ele>
        <time>2019-01-18T14:05:12.000Z</time>
      </trkpt>
      <trkpt lat="43.34358" lon="5.6604">
        <ele>356</ele>
        <time>2019-01-18T14:05:13.000Z</time>
      </trkpt>
      <trkpt lat="43.3436" lon="5.6604">
        <ele>356</ele>
        <time>2019-01-18T14:05:14.000Z</time>
      </trkpt>
      <trkpt lat="43.3436" lon="5.6604">
        <ele>356</ele>
        <time>2019-01-18T14:05:15.000Z</time>
      </trkpt>
      <trkpt lat="43.34361" lon="5.66041">
        <ele>356</ele>
        <time>2019-01-18T14:05:16.000Z</time>
      </trkpt>
      <trkpt lat="43.34362" lon="5.66042">
        <ele>356</ele>
        <time>2019-01-18T14:05:17.000Z</time>
      </trkpt>
      <trkpt lat="43.34363" lon="5.66042">
        <ele>356</ele>
        <time>2019-01-18T14:05:18.000Z</time>
      </trkpt>
      <trkpt lat="43.34364" lon="5.66042">
        <ele>356</ele>
        <time>2019-01-18T14:05:19.000Z</time>
      </trkpt>
      <trkpt lat="43.34364" lon="5.66043">
        <ele>356</ele>
        <time>2019-01-18T14:05:20.000Z</time>
      </trkpt>
      <trkpt lat="43.34365" lon="5.66043">
        <ele>356</ele>
        <time>2019-01-18T14:05:21.000Z</time>
      </trkpt>
      <trkpt lat="43.34366" lon="5.66043">
        <ele>356</ele>
        <time>2019-01-18T14:05:22.000Z</time>
      </trkpt>
      <trkpt lat="43.34367" lon="5.66043">
        <ele>356</ele>
        <time>2019-01-18T14:05:23.000Z</time>
      </trkpt>
      <trkpt lat="43.34367" lon="5.66043">
        <ele>356</ele>
        <time>2019-01-18T14:05:24.000Z</time>
      </trkpt>
      <trkpt lat="43.34368" lon="5.66044">
        <ele>357</ele>
        <time>2019-01-18T14:05:25.000Z</time>
      </trkpt>
      <trkpt lat="43.34369" lon="5.66044">
        <ele>357</ele>
        <time>2019-01-18T14:05:26.000Z</time>
      </trkpt>
      <trkpt lat="43.3437" lon="5.66044">
        <ele>357</ele>
        <time>2019-01-18T14:05:27.000Z</time>
      </trkpt>
      <trkpt lat="43.3437" lon="5.66045">
        <ele>357</ele>
        <time>2019-01-18T14:05:28.000Z</time>
      </trkpt>
      <trkpt lat="43.34371" lon="5.66045">
        <ele>357</ele>
        <time>2019-01-18T14:05:29.000Z</time>
      </trkpt>
      <trkpt lat="43.34372" lon="5.66045">
        <ele>357</ele>
        <time>2019-01-18T14:05:30.000Z</time>
      </trkpt>
      <trkpt lat="43.34372" lon="5.66044">
        <ele>357</ele>
        <time>2019-01-18T14:05:31.000Z</time>
      </trkpt>
      <trkpt lat="43.34373" lon="5.66044">
        <ele>357</ele>
        <time>2019-01-18T14:05:32.000Z</time>
      </trkpt>
      <trkpt lat="43.34373" lon="5.66043">
        <ele>357</ele>
        <time>2019-01-18T14:05:33.000Z</time>
      </trkpt>
      <trkpt lat="43.34374" lon="5.66043">
        <ele>357</ele>
        <time>2019-01-18T14:05:34.000Z</time>
      </trkpt>
      <trkpt lat="43.34374" lon="5.66042">
        <ele>357</ele>
        <time>2019-01-18T14:05:35.000Z</time>
      </trkpt>
      <trkpt lat="43.34374" lon="5.66042">
        <ele>357</ele>
        <time>2019-01-18T14:05:36.000Z</time>
      </trkpt>
      <trkpt lat="43.34375" lon="5.66042">
        <ele>357</ele>
        <time>2019-01-18T14:05:37.000Z</time>
      </trkpt>
      <trkpt lat="43.34375" lon="5.66041">
        <ele>357</ele>
        <time>2019-01-18T14:05:38.000Z</time>
      </trkpt>
      <trkpt lat="43.34376" lon="5.66041">
        <ele>357</ele>
        <time>2019-01-18T14:05:39.000Z</time>
      </trkpt>
      <trkpt lat="43.34376" lon="5.66041">
        <ele>357</ele>
        <time>2019-01-18T14:05:40.000Z</time>
      </trkpt>
      <trkpt lat="43.34377" lon="5.66042">
        <ele>357</ele>
        <time>2019-01-18T14:05:41.000Z</time>
      </trkpt>
      <trkpt lat="43.34378" lon="5.66042">
        <ele>357</ele>
        <time>2019-01-18T14:05:42.000Z</time>
      </trkpt>
      <trkpt lat="43.34378" lon="5.66042">
        <ele>357</ele>
        <time>2019-01-18T14:05:43.000Z</time>
      </trkpt>
      <trkpt lat="43.34379" lon="5.66042">
        <ele>357</ele>
        <time>2019-01-18T14:05:44.000Z</time>
      </trkpt>
      <trkpt lat="43.34379" lon="5.66042">
        <ele>357</ele>
        <time>2019-01-18T14:05:45.000Z</time>
      </trkpt>
      <trkpt lat="43.3438" lon="5.66042">
        <ele>357</ele>
        <time>2019-01-18T14:05:46.000Z</time>
      </trkpt>
      <trkpt lat="43.3438" lon="5.66042">
        <ele>357</ele>
        <time>2019-01-18T14:05:47.000Z</time>
      </trkpt>
      <trkpt lat="43.3438" lon="5.66042">
        <ele>357</ele>
        <time>2019-01-18T14:05:48.000Z</time>
      </trkpt>
      <trkpt lat="43.3438" lon="5.66042">
        <ele>357</ele>
        <time>2019-01-18T14:05:49.000Z</time>
      </trkpt>
      <trkpt lat="43.3438" lon="5.66042">
        <ele>357</ele>
        <time>2019-01-18T14:05:50.000Z</time>
      </trkpt>
      <trkpt lat="43.3438" lon="5.66042">
        <ele>357</ele>
        <time>2019-01-18T14:05:51.000Z</time>
      </trkpt>
      <trkpt lat="43.34381" lon="5.66042">
        <ele>357</ele>
        <time>2019-01-18T14:05:52.000Z</time>
      </trkpt>
      <trkpt lat="43.34381" lon="5.66042">
        <ele>357</ele>
        <time>2019-01-18T14:05:53.000Z</time>
      </trkpt>
      <trkpt lat="43.34381" lon="5.66042">
        <ele>356</ele>
        <time>2019-01-18T14:05:54.000Z</time>
      </trkpt>
      <trkpt lat="43.34381" lon="5.66042">
        <ele>356</ele>
        <time>2019-01-18T14:05:55.000Z</time>
      </trkpt>
      <trkpt lat="43.34381" lon="5.66042">
        <ele>357</ele>
        <time>2019-01-18T14:05:56.000Z</time>
      </trkpt>
      <trkpt lat="43.34381" lon="5.66042">
        <ele>357</ele>
        <time>2019-01-18T14:05:57.000Z</time>
      </trkpt>
      <trkpt lat="43.34381" lon="5.66042">
        <ele>357</ele>
        <time>2019-01-18T14:05:58.000Z</time>
      </trkpt>
      <trkpt lat="43.34381" lon="5.66042">
        <ele>357</ele>
        <time>2019-01-18T14:05:59.000Z</time>
      </trkpt>
      <trkpt lat="43.34381" lon="5.66042">
        <ele>357</ele>
        <time>2019-01-18T14:06:00.000Z</time>
      </trkpt>
      <trkpt lat="43.34381" lon="5.66042">
        <ele>357</ele>
        <time>2019-01-18T14:06:01.000Z</time>
      </trkpt>
      <trkpt lat="43.34381" lon="5.66042">
        <ele>357</ele>
        <time>2019-01-18T14:06:02.000Z</time>
      </trkpt>
      <trkpt lat="43.34381" lon="5.66042">
        <ele>357</ele>
        <time>2019-01-18T14:06:03.000Z</time>
      </trkpt>
      <trkpt lat="43.34381" lon="5.66042">
        <ele>357</ele>
        <time>2019-01-18T14:06:04.000Z</time>
      </trkpt>
      <trkpt lat="43.34381" lon="5.66042">
        <ele>357</ele>
        <time>2019-01-18T14:06:05.000Z</time>
      </trkpt>
      <trkpt lat="43.34381" lon="5.66042">
        <ele>357</ele>
        <time>2019-01-18T14:06:06.000Z</time>
      </trkpt>
      <trkpt lat="43.34381" lon="5.66042">
        <ele>357</ele>
        <time>2019-01-18T14:06:07.000Z</time>
      </trkpt>
      <trkpt lat="43.34381" lon="5.66042">
        <ele>357</ele>
        <time>2019-01-18T14:06:08.000Z</time>
      </trkpt>
      <trkpt lat="43.34381" lon="5.66042">
        <ele>357</ele>
        <time>2019-01-18T14:06:09.000Z</time>
      </trkpt>
      <trkpt lat="43.34381" lon="5.66042">
        <ele>357</ele>
        <time>2019-01-18T14:06:10.000Z</time>
      </trkpt>
      <trkpt lat="43.34381" lon="5.66042">
        <ele>357</ele>
        <time>2019-01-18T14:06:11.000Z</time>
      </trkpt>
      <trkpt lat="43.34381" lon="5.66042">
        <ele>357</ele>
        <time>2019-01-18T14:06:12.000Z</time>
      </trkpt>
      <trkpt lat="43.34381" lon="5.66042">
        <ele>357</ele>
        <time>2019-01-18T14:06:13.000Z</time>
      </trkpt>
      <trkpt lat="43.34381" lon="5.66042">
        <ele>357</ele>
        <time>2019-01-18T14:06:14.000Z</time>
      </trkpt>
      <trkpt lat="43.34381" lon="5.66042">
        <ele>357</ele>
        <time>2019-01-18T14:06:15.000Z</time>
      </trkpt>
      <trkpt lat="43.34381" lon="5.66042">
        <ele>357</ele>
        <time>2019-01-18T14:06:16.000Z</time>
      </trkpt>
      <trkpt lat="43.34381" lon="5.66042">
        <ele>357</ele>
        <time>2019-01-18T14:06:17.000Z</time>
      </trkpt>
      <trkpt lat="43.34381" lon="5.66042">
        <ele>357</ele>
        <time>2019-01-18T14:06:18.000Z</time>
      </trkpt>
      <trkpt lat="43.34381" lon="5.66042">
        <ele>357</ele>
        <time>2019-01-18T14:06:19.000Z</time>
      </trkpt>
      <trkpt lat="43.34381" lon="5.66042">
        <ele>357</ele>
        <time>2019-01-18T14:06:20.000Z</time>
      </trkpt>
      <trkpt lat="43.34381" lon="5.66042">
        <ele>357</ele>
        <time>2019-01-18T14:06:21.000Z</time>
      </trkpt>
      <trkpt lat="43.34381" lon="5.66042">
        <ele>357</ele>
        <time>2019-01-18T14:06:22.000Z</time>
      </trkpt>
      <trkpt lat="43.34381" lon="5.66042">
        <ele>357</ele>
        <time>2019-01-18T14:06:23.000Z</time>
      </trkpt>
      <trkpt lat="43.34381" lon="5.66042">
        <ele>357</ele>
        <time>2019-01-18T14:06:24.000Z</time>
      </trkpt>
      <trkpt lat="43.34381" lon="5.66042">
        <ele>357</ele>
        <time>2019-01-18T14:06:25.000Z</time>
      </trkpt>
      <trkpt lat="43.34381" lon="5.66042">
        <ele>357</ele>
        <time>2019-01-18T14:06:26.000Z</time>
      </trkpt>
      <trkpt lat="43.34381" lon="5.66042">
        <ele>357</ele>
        <time>2019-01-18T14:06:27.000Z</time>
      </trkpt>
      <trkpt lat="43.34381" lon="5.66042">
        <ele>357</ele>
        <time>2019-01-18T14:06:28.000Z</time>
      </trkpt>
      <trkpt lat="43.3438" lon="5.66043">
        <ele>357</ele>
        <time>2019-01-18T14:06:29.000Z</time>
      </trkpt>
      <trkpt lat="43.3438" lon="5.66043">
        <ele>357</ele>
        <time>2019-01-18T14:06:30.000Z</time>
      </trkpt>
      <trkpt lat="43.3438" lon="5.66043">
        <ele>357</ele>
        <time>2019-01-18T14:06:31.000Z</time>
      </trkpt>
      <trkpt lat="43.3438" lon="5.66043">
        <ele>357</ele>
        <time>2019-01-18T14:06:32.000Z</time>
      </trkpt>
      <trkpt lat="43.34381" lon="5.66042">
        <ele>357</ele>
        <time>2019-01-18T14:06:33.000Z</time>
      </trkpt>
      <trkpt lat="43.34381" lon="5.66042">
        <ele>357</ele>
        <time>2019-01-18T14:06:34.000Z</time>
      </trkpt>
      <trkpt lat="43.3438" lon="5.66042">
        <ele>357</ele>
        <time>2019-01-18T14:06:35.000Z</time>
      </trkpt>
      <trkpt lat="43.3438" lon="5.66042">
        <ele>357</ele>
        <time>2019-01-18T14:06:36.000Z</time>
      </trkpt>
      <trkpt lat="43.3438" lon="5.66042">
        <ele>357</ele>
        <time>2019-01-18T14:06:37.000Z</time>
      </trkpt>
      <trkpt lat="43.3438" lon="5.66042">
        <ele>357</ele>
        <time>2019-01-18T14:06:38.000Z</time>
      </trkpt>
      <trkpt lat="43.3438" lon="5.66042">
        <ele>357</ele>
        <time>2019-01-18T14:06:39.000Z</time>
      </trkpt>
      <trkpt lat="43.3438" lon="5.66042">
        <ele>357</ele>
        <time>2019-01-18T14:06:40.000Z</time>
      </trkpt>
      <trkpt lat="43.3438" lon="5.66042">
        <ele>357</ele>
        <time>2019-01-18T14:06:41.000Z</time>
      </trkpt>
      <trkpt lat="43.34381" lon="5.66042">
        <ele>357</ele>
        <time>2019-01-18T14:06:42.000Z</time>
      </trkpt>
      <trkpt lat="43.34381" lon="5.66042">
        <ele>357</ele>
        <time>2019-01-18T14:06:43.000Z</time>
      </trkpt>
      <trkpt lat="43.34381" lon="5.66042">
        <ele>357</ele>
        <time>2019-01-18T14:06:44.000Z</time>
      </trkpt>
      <trkpt lat="43.34381" lon="5.66042">
        <ele>357</ele>
        <time>2019-01-18T14:06:45.000Z</time>
      </trkpt>
      <trkpt lat="43.34381" lon="5.66042">
        <ele>357</ele>
        <time>2019-01-18T14:06:46.000Z</time>
      </trkpt>
      <trkpt lat="43.34381" lon="5.66042">
        <ele>357</ele>
        <time>2019-01-18T14:06:47.000Z</time>
      </trkpt>
      <trkpt lat="43.34381" lon="5.66042">
        <ele>357</ele>
        <time>2019-01-18T14:06:48.000Z</time>
      </trkpt>
      <trkpt lat="43.34381" lon="5.66042">
        <ele>357</ele>
        <time>2019-01-18T14:06:49.000Z</time>
      </trkpt>
      <trkpt lat="43.34381" lon="5.66042">
        <ele>356</ele>
        <time>2019-01-18T14:06:50.000Z</time>
      </trkpt>
      <trkpt lat="43.34381" lon="5.66042">
        <ele>356</ele>
        <time>2019-01-18T14:06:51.000Z</time>
      </trkpt>
      <trkpt lat="43.34381" lon="5.66042">
        <ele>356</ele>
        <time>2019-01-18T14:06:52.000Z</time>
      </trkpt>
      <trkpt lat="43.34381" lon="5.66042">
        <ele>356</ele>
        <time>2019-01-18T14:06:53.000Z</time>
      </trkpt>
      <trkpt lat="43.34381" lon="5.66042">
        <ele>356</ele>
        <time>2019-01-18T14:06:54.000Z</time>
      </trkpt>
      <trkpt lat="43.34381" lon="5.66042">
        <ele>356</ele>
        <time>2019-01-18T14:06:55.000Z</time>
      </trkpt>
      <trkpt lat="43.34381" lon="5.66042">
        <ele>356</ele>
        <time>2019-01-18T14:06:56.000Z</time>
      </trkpt>
      <trkpt lat="43.34381" lon="5.66042">
        <ele>356</ele>
        <time>2019-01-18T14:06:57.000Z</time>
      </trkpt>
      <trkpt lat="43.34381" lon="5.66042">
        <ele>356</ele>
        <time>2019-01-18T14:06:58.000Z</time>
      </trkpt>
      <trkpt lat="43.34381" lon="5.66042">
        <ele>356</ele>
        <time>2019-01-18T14:06:59.000Z</time>
      </trkpt>
      <trkpt lat="43.34381" lon="5.66042">
        <ele>356</ele>
        <time>2019-01-18T14:07:00.000Z</time>
      </trkpt>
      <trkpt lat="43.34381" lon="5.66042">
        <ele>356</ele>
        <time>2019-01-18T14:07:01.000Z</time>
      </trkpt>
      <trkpt lat="43.34381" lon="5.66042">
        <ele>356</ele>
        <time>2019-01-18T14:07:02.000Z</time>
      </trkpt>
      <trkpt lat="43.34381" lon="5.66042">
        <ele>356</ele>
        <time>2019-01-18T14:07:03.000Z</time>
      </trkpt>
      <trkpt lat="43.34381" lon="5.66042">
        <ele>356</ele>
        <time>2019-01-18T14:07:04.000Z</time>
      </trkpt>
      <trkpt lat="43.34381" lon="5.66042">
        <ele>356</ele>
        <time>2019-01-18T14:07:05.000Z</time>
      </trkpt>
      <trkpt lat="43.34381" lon="5.66042">
        <ele>356</ele>
        <time>2019-01-18T14:07:06.000Z</time>
      </trkpt>
      <trkpt lat="43.34381" lon="5.66042">
        <ele>356</ele>
        <time>2019-01-18T14:07:07.000Z</time>
      </trkpt>
      <trkpt lat="43.3438" lon="5.66042">
        <ele>356</ele>
        <time>2019-01-18T14:07:08.000Z</time>
      </trkpt>
      <trkpt lat="43.3438" lon="5.66042">
        <ele>356</ele>
        <time>2019-01-18T14:07:09.000Z</time>
      </trkpt>
      <trkpt lat="43.3438" lon="5.66042">
        <ele>356</ele>
        <time>2019-01-18T14:07:10.000Z</time>
      </trkpt>
      <trkpt lat="43.3438" lon="5.66042">
        <ele>356</ele>
        <time>2019-01-18T14:07:11.000Z</time>
      </trkpt>
      <trkpt lat="43.3438" lon="5.66042">
        <ele>356</ele>
        <time>2019-01-18T14:07:12.000Z</time>
      </trkpt>
      <trkpt lat="43.3438" lon="5.66042">
        <ele>356</ele>
        <time>2019-01-18T14:07:13.000Z</time>
      </trkpt>
      <trkpt lat="43.3438" lon="5.66042">
        <ele>356</ele>
        <time>2019-01-18T14:07:14.000Z</time>
      </trkpt>
      <trkpt lat="43.3438" lon="5.66042">
        <ele>356</ele>
        <time>2019-01-18T14:07:15.000Z</time>
      </trkpt>
      <trkpt lat="43.3438" lon="5.66042">
        <ele>356</ele>
        <time>2019-01-18T14:07:16.000Z</time>
      </trkpt>
      <trkpt lat="43.3438" lon="5.66042">
        <ele>356</ele>
        <time>2019-01-18T14:07:17.000Z</time>
      </trkpt>
      <trkpt lat="43.3438" lon="5.66042">
        <ele>356</ele>
        <time>2019-01-18T14:07:18.000Z</time>
      </trkpt>
      <trkpt lat="43.3438" lon="5.66042">
        <ele>356</ele>
        <time>2019-01-18T14:07:19.000Z</time>
      </trkpt>
      <trkpt lat="43.3438" lon="5.66042">
        <ele>356</ele>
        <time>2019-01-18T14:07:20.000Z</time>
      </trkpt>
      <trkpt lat="43.3438" lon="5.66042">
        <ele>356</ele>
        <time>2019-01-18T14:07:21.000Z</time>
      </trkpt>
      <trkpt lat="43.3438" lon="5.66042">
        <ele>356</ele>
        <time>2019-01-18T14:07:22.000Z</time>
      </trkpt>
      <trkpt lat="43.3438" lon="5.66042">
        <ele>356</ele>
        <time>2019-01-18T14:07:23.000Z</time>
      </trkpt>
      <trkpt lat="43.3438" lon="5.66042">
        <ele>356</ele>
        <time>2019-01-18T14:07:24.000Z</time>
      </trkpt>
      <trkpt lat="43.3438" lon="5.66042">
        <ele>356</ele>
        <time>2019-01-18T14:07:25.000Z</time>
      </trkpt>
      <trkpt lat="43.3438" lon="5.66042">
        <ele>356</ele>
        <time>2019-01-18T14:07:26.000Z</time>
      </trkpt>
      <trkpt lat="43.3438" lon="5.66042">
        <ele>356</ele>
        <time>2019-01-18T14:07:27.000Z</time>
      </trkpt>
      <trkpt lat="43.3438" lon="5.66042">
        <ele>356</ele>
        <time>2019-01-18T14:07:28.000Z</time>
      </trkpt>
      <trkpt lat="43.3438" lon="5.66042">
        <ele>356</ele>
        <time>2019-01-18T14:07:29.000Z</time>
      </trkpt>
      <trkpt lat="43.3438" lon="5.66042">
        <ele>356</ele>
        <time>2019-01-18T14:07:30.000Z</time>
      </trkpt>
      <trkpt lat="43.3438" lon="5.66042">
        <ele>356</ele>
        <time>2019-01-18T14:07:31.000Z</time>
      </trkpt>
      <trkpt lat="43.3438" lon="5.66042">
        <ele>356</ele>
        <time>2019-01-18T14:07:32.000Z</time>
      </trkpt>
      <trkpt lat="43.3438" lon="5.66042">
        <ele>356</ele>
        <time>2019-01-18T14:07:33.000Z</time>
      </trkpt>
      <trkpt lat="43.3438" lon="5.66042">
        <ele>356</ele>
        <time>2019-01-18T14:07:34.000Z</time>
      </trkpt>
      <trkpt lat="43.3438" lon="5.66042">
        <ele>356</ele>
        <time>2019-01-18T14:07:35.000Z</time>
      </trkpt>
      <trkpt lat="43.3438" lon="5.66042">
        <ele>356</ele>
        <time>2019-01-18T14:07:36.000Z</time>
      </trkpt>
      <trkpt lat="43.3438" lon="5.66042">
        <ele>356</ele>
        <time>2019-01-18T14:07:37.000Z</time>
      </trkpt>
      <trkpt lat="43.3438" lon="5.66042">
        <ele>356</ele>
        <time>2019-01-18T14:07:38.000Z</time>
      </trkpt>
      <trkpt lat="43.3438" lon="5.66042">
        <ele>355</ele>
        <time>2019-01-18T14:07:39.000Z</time>
      </trkpt>
      <trkpt lat="43.3438" lon="5.66042">
        <ele>355</ele>
        <time>2019-01-18T14:07:40.000Z</time>
      </trkpt>
      <trkpt lat="43.3438" lon="5.66042">
        <ele>355</ele>
        <time>2019-01-18T14:07:41.000Z</time>
      </trkpt>
      <trkpt lat="43.3438" lon="5.66042">
        <ele>355</ele>
        <time>2019-01-18T14:07:42.000Z</time>
      </trkpt>
      <trkpt lat="43.3438" lon="5.66042">
        <ele>355</ele>
        <time>2019-01-18T14:07:43.000Z</time>
      </trkpt>
      <trkpt lat="43.3438" lon="5.66042">
        <ele>355</ele>
        <time>2019-01-18T14:07:44.000Z</time>
      </trkpt>
      <trkpt lat="43.3438" lon="5.66042">
        <ele>355</ele>
        <time>2019-01-18T14:07:45.000Z</time>
      </trkpt>
      <trkpt lat="43.3438" lon="5.66042">
        <ele>355</ele>
        <time>2019-01-18T14:07:46.000Z</time>
      </trkpt>
      <trkpt lat="43.3438" lon="5.66042">
        <ele>355</ele>
        <time>2019-01-18T14:07:47.000Z</time>
      </trkpt>
      <trkpt lat="43.3438" lon="5.66042">
        <ele>355</ele>
        <time>2019-01-18T14:07:48.000Z</time>
      </trkpt>
      <trkpt lat="43.3438" lon="5.66042">
        <ele>355</ele>
        <time>2019-01-18T14:07:49.000Z</time>
      </trkpt>
      <trkpt lat="43.3438" lon="5.66042">
        <ele>355</ele>
        <time>2019-01-18T14:07:50.000Z</time>
      </trkpt>
      <trkpt lat="43.3438" lon="5.66042">
        <ele>355</ele>
        <time>2019-01-18T14:07:51.000Z</time>
      </trkpt>
      <trkpt lat="43.3438" lon="5.66042">
        <ele>355</ele>
        <time>2019-01-18T14:07:52.000Z</time>
      </trkpt>
      <trkpt lat="43.3438" lon="5.66042">
        <ele>355</ele>
        <time>2019-01-18T14:07:53.000Z</time>
      </trkpt>
      <trkpt lat="43.3438" lon="5.66042">
        <ele>355</ele>
        <time>2019-01-18T14:07:54.000Z</time>
      </trkpt>
      <trkpt lat="43.3438" lon="5.66042">
        <ele>355</ele>
        <time>2019-01-18T14:07:55.000Z</time>
      </trkpt>
      <trkpt lat="43.3438" lon="5.66042">
        <ele>355</ele>
        <time>2019-01-18T14:07:56.000Z</time>
      </trkpt>
      <trkpt lat="43.3438" lon="5.66042">
        <ele>355</ele>
        <time>2019-01-18T14:07:57.000Z</time>
      </trkpt>
      <trkpt lat="43.3438" lon="5.66043">
        <ele>355</ele>
        <time>2019-01-18T14:07:58.000Z</time>
      </trkpt>
      <trkpt lat="43.3438" lon="5.66043">
        <ele>355</ele>
        <time>2019-01-18T14:07:59.000Z</time>
      </trkpt>
      <trkpt lat="43.34381" lon="5.66043">
        <ele>355</ele>
        <time>2019-01-18T14:08:00.000Z</time>
      </trkpt>
      <trkpt lat="43.34381" lon="5.66043">
        <ele>356</ele>
        <time>2019-01-18T14:08:01.000Z</time>
      </trkpt>
      <trkpt lat="43.34381" lon="5.66043">
        <ele>356</ele>
        <time>2019-01-18T14:08:02.000Z</time>
      </trkpt>
      <trkpt lat="43.34381" lon="5.66043">
        <ele>356</ele>
        <time>2019-01-18T14:08:03.000Z</time>
      </trkpt>
      <trkpt lat="43.34381" lon="5.66043">
        <ele>356</ele>
        <time>2019-01-18T14:08:04.000Z</time>
      </trkpt>
      <trkpt lat="43.34381" lon="5.66043">
        <ele>356</ele>
        <time>2019-01-18T14:08:05.000Z</time>
      </trkpt>
      <trkpt lat="43.34381" lon="5.66043">
        <ele>356</ele>
        <time>2019-01-18T14:08:06.000Z</time>
      </trkpt>
      <trkpt lat="43.34381" lon="5.66043">
        <ele>356</ele>
        <time>2019-01-18T14:08:07.000Z</time>
      </trkpt>
      <trkpt lat="43.34381" lon="5.66043">
        <ele>356</ele>
        <time>2019-01-18T14:08:08.000Z</time>
      </trkpt>
      <trkpt lat="43.34381" lon="5.66043">
        <ele>356</ele>
        <time>2019-01-18T14:08:09.000Z</time>
      </trkpt>
      <trkpt lat="43.34381" lon="5.66043">
        <ele>356</ele>
        <time>2019-01-18T14:08:10.000Z</time>
      </trkpt>
      <trkpt lat="43.34381" lon="5.66043">
        <ele>356</ele>
        <time>2019-01-18T14:08:11.000Z</time>
      </trkpt>
      <trkpt lat="43.34381" lon="5.66043">
        <ele>356</ele>
        <time>2019-01-18T14:08:12.000Z</time>
      </trkpt>
      <trkpt lat="43.34381" lon="5.66043">
        <ele>356</ele>
        <time>2019-01-18T14:08:13.000Z</time>
      </trkpt>
      <trkpt lat="43.34381" lon="5.66043">
        <ele>356</ele>
        <time>2019-01-18T14:08:14.000Z</time>
      </trkpt>
      <trkpt lat="43.34381" lon="5.66043">
        <ele>356</ele>
        <time>2019-01-18T14:08:15.000Z</time>
      </trkpt>
      <trkpt lat="43.34382" lon="5.66043">
        <ele>356</ele>
        <time>2019-01-18T14:08:16.000Z</time>
      </trkpt>
      <trkpt lat="43.34382" lon="5.66043">
        <ele>356</ele>
        <time>2019-01-18T14:08:17.000Z</time>
      </trkpt>
      <trkpt lat="43.34382" lon="5.66043">
        <ele>357</ele>
        <time>2019-01-18T14:08:18.000Z</time>
      </trkpt>
      <trkpt lat="43.34382" lon="5.66043">
        <ele>357</ele>
        <time>2019-01-18T14:08:19.000Z</time>
      </trkpt>
      <trkpt lat="43.34383" lon="5.66042">
        <ele>357</ele>
        <time>2019-01-18T14:08:20.000Z</time>
      </trkpt>
      <trkpt lat="43.34383" lon="5.66043">
        <ele>357</ele>
        <time>2019-01-18T14:08:21.000Z</time>
      </trkpt>
      <trkpt lat="43.34384" lon="5.66043">
        <ele>357</ele>
        <time>2019-01-18T14:08:22.000Z</time>
      </trkpt>
      <trkpt lat="43.34384" lon="5.66043">
        <ele>357</ele>
        <time>2019-01-18T14:08:23.000Z</time>
      </trkpt>
      <trkpt lat="43.34385" lon="5.66043">
        <ele>357</ele>
        <time>2019-01-18T14:08:24.000Z</time>
      </trkpt>
      <trkpt lat="43.34386" lon="5.66043">
        <ele>357</ele>
        <time>2019-01-18T14:08:25.000Z</time>
      </trkpt>
      <trkpt lat="43.34386" lon="5.66043">
        <ele>357</ele>
        <time>2019-01-18T14:08:26.000Z</time>
      </trkpt>
      <trkpt lat="43.34386" lon="5.66043">
        <ele>358</ele>
        <time>2019-01-18T14:08:27.000Z</time>
      </trkpt>
      <trkpt lat="43.34386" lon="5.66042">
        <ele>358</ele>
        <time>2019-01-18T14:08:28.000Z</time>
      </trkpt>
      <trkpt lat="43.34387" lon="5.66042">
        <ele>358</ele>
        <time>2019-01-18T14:08:29.000Z</time>
      </trkpt>
      <trkpt lat="43.34387" lon="5.66042">
        <ele>358</ele>
        <time>2019-01-18T14:08:30.000Z</time>
      </trkpt>
      <trkpt lat="43.34387" lon="5.66042">
        <ele>358</ele>
        <time>2019-01-18T14:08:31.000Z</time>
      </trkpt>
      <trkpt lat="43.34387" lon="5.66042">
        <ele>358</ele>
        <time>2019-01-18T14:08:32.000Z</time>
      </trkpt>
      <trkpt lat="43.34387" lon="5.66042">
        <ele>358</ele>
        <time>2019-01-18T14:08:33.000Z</time>
      </trkpt>
      <trkpt lat="43.34387" lon="5.66042">
        <ele>358</ele>
        <time>2019-01-18T14:08:34.000Z</time>
      </trkpt>
      <trkpt lat="43.34387" lon="5.66042">
        <ele>358</ele>
        <time>2019-01-18T14:08:35.000Z</time>
      </trkpt>
      <trkpt lat="43.34387" lon="5.66042">
        <ele>358</ele>
        <time>2019-01-18T14:08:36.000Z</time>
      </trkpt>
      <trkpt lat="43.34387" lon="5.66041">
        <ele>358</ele>
        <time>2019-01-18T14:08:37.000Z</time>
      </trkpt>
      <trkpt lat="43.34387" lon="5.66041">
        <ele>358</ele>
        <time>2019-01-18T14:08:38.000Z</time>
      </trkpt>
      <trkpt lat="43.34387" lon="5.66041">
        <ele>358</ele>
        <time>2019-01-18T14:08:39.000Z</time>
      </trkpt>
      <trkpt lat="43.34387" lon="5.66041">
        <ele>358</ele>
        <time>2019-01-18T14:08:40.000Z</time>
      </trkpt>
      <trkpt lat="43.34387" lon="5.6604">
        <ele>358</ele>
        <time>2019-01-18T14:08:41.000Z</time>
      </trkpt>
      <trkpt lat="43.34387" lon="5.6604">
        <ele>358</ele>
        <time>2019-01-18T14:08:42.000Z</time>
      </trkpt>
      <trkpt lat="43.34387" lon="5.6604">
        <ele>359</ele>
        <time>2019-01-18T14:08:43.000Z</time>
      </trkpt>
      <trkpt lat="43.34387" lon="5.6604">
        <ele>359</ele>
        <time>2019-01-18T14:08:44.000Z</time>
      </trkpt>
      <trkpt lat="43.34387" lon="5.66039">
        <ele>359</ele>
        <time>2019-01-18T14:08:45.000Z</time>
      </trkpt>
      <trkpt lat="43.34386" lon="5.66039">
        <ele>359</ele>
        <time>2019-01-18T14:08:46.000Z</time>
      </trkpt>
      <trkpt lat="43.34386" lon="5.66038">
        <ele>359</ele>
        <time>2019-01-18T14:08:47.000Z</time>
      </trkpt>
      <trkpt lat="43.34386" lon="5.66036">
        <ele>359</ele>
        <time>2019-01-18T14:08:48.000Z</time>
      </trkpt>
      <trkpt lat="43.34385" lon="5.66036">
        <ele>360</ele>
        <time>2019-01-18T14:08:49.000Z</time>
      </trkpt>
      <trkpt lat="43.34386" lon="5.66036">
        <ele>360</ele>
        <time>2019-01-18T14:08:50.000Z</time>
      </trkpt>
      <trkpt lat="43.34386" lon="5.66036">
        <ele>360</ele>
        <time>2019-01-18T14:08:51.000Z</time>
      </trkpt>
      <trkpt lat="43.34387" lon="5.66036">
        <ele>360</ele>
        <time>2019-01-18T14:08:52.000Z</time>
      </trkpt>
      <trkpt lat="43.34388" lon="5.66037">
        <ele>360</ele>
        <time>2019-01-18T14:08:53.000Z</time>
      </trkpt>
      <trkpt lat="43.34388" lon="5.66038">
        <ele>360</ele>
        <time>2019-01-18T14:08:54.000Z</time>
      </trkpt>
      <trkpt lat="43.34389" lon="5.66039">
        <ele>360</ele>
        <time>2019-01-18T14:08:55.000Z</time>
      </trkpt>
      <trkpt lat="43.3439" lon="5.66039">
        <ele>360</ele>
        <time>2019-01-18T14:08:56.000Z</time>
      </trkpt>
      <trkpt lat="43.34391" lon="5.66039">
        <ele>361</ele>
        <time>2019-01-18T14:08:57.000Z</time>
      </trkpt>
      <trkpt lat="43.34391" lon="5.6604">
        <ele>361</ele>
        <time>2019-01-18T14:08:58.000Z</time>
      </trkpt>
      <trkpt lat="43.34391" lon="5.6604">
        <ele>361</ele>
        <time>2019-01-18T14:08:59.000Z</time>
      </trkpt>
      <trkpt lat="43.34391" lon="5.6604">
        <ele>361</ele>
        <time>2019-01-18T14:09:00.000Z</time>
      </trkpt>
      <trkpt lat="43.34391" lon="5.6604">
        <ele>361</ele>
        <time>2019-01-18T14:09:01.000Z</time>
      </trkpt>
      <trkpt lat="43.34391" lon="5.6604">
        <ele>361</ele>
        <time>2019-01-18T14:09:02.000Z</time>
      </trkpt>
      <trkpt lat="43.34391" lon="5.6604">
        <ele>361</ele>
        <time>2019-01-18T14:09:03.000Z</time>
      </trkpt>
      <trkpt lat="43.34391" lon="5.6604">
        <ele>361</ele>
        <time>2019-01-18T14:09:04.000Z</time>
      </trkpt>
      <trkpt lat="43.34391" lon="5.6604">
        <ele>361</ele>
        <time>2019-01-18T14:09:05.000Z</time>
      </trkpt>
      <trkpt lat="43.34391" lon="5.6604">
        <ele>361</ele>
        <time>2019-01-18T14:09:06.000Z</time>
      </trkpt>
      <trkpt lat="43.3439" lon="5.6604">
        <ele>361</ele>
        <time>2019-01-18T14:09:07.000Z</time>
      </trkpt>
      <trkpt lat="43.3439" lon="5.6604">
        <ele>361</ele>
        <time>2019-01-18T14:09:08.000Z</time>
      </trkpt>
      <trkpt lat="43.34389" lon="5.66039">
        <ele>361</ele>
        <time>2019-01-18T14:09:09.000Z</time>
      </trkpt>
      <trkpt lat="43.34388" lon="5.66038">
        <ele>361</ele>
        <time>2019-01-18T14:09:10.000Z</time>
      </trkpt>
      <trkpt lat="43.34388" lon="5.66038">
        <ele>361</ele>
        <time>2019-01-18T14:09:11.000Z</time>
      </trkpt>
      <trkpt lat="43.34387" lon="5.66038">
        <ele>361</ele>
        <time>2019-01-18T14:09:12.000Z</time>
      </trkpt>
      <trkpt lat="43.34386" lon="5.66037">
        <ele>361</ele>
        <time>2019-01-18T14:09:13.000Z</time>
      </trkpt>
      <trkpt lat="43.34385" lon="5.66035">
        <ele>361</ele>
        <time>2019-01-18T14:09:14.000Z</time>
      </trkpt>
      <trkpt lat="43.34384" lon="5.66034">
        <ele>361</ele>
        <time>2019-01-18T14:09:15.000Z</time>
      </trkpt>
      <trkpt lat="43.34384" lon="5.66033">
        <ele>362</ele>
        <time>2019-01-18T14:09:16.000Z</time>
      </trkpt>
      <trkpt lat="43.34384" lon="5.66033">
        <ele>362</ele>
        <time>2019-01-18T14:09:17.000Z</time>
      </trkpt>
      <trkpt lat="43.34384" lon="5.66033">
        <ele>362</ele>
        <time>2019-01-18T14:09:18.000Z</time>
      </trkpt>
      <trkpt lat="43.34384" lon="5.66033">
        <ele>362</ele>
        <time>2019-01-18T14:09:19.000Z</time>
      </trkpt>
      <trkpt lat="43.34385" lon="5.66033">
        <ele>362</ele>
        <time>2019-01-18T14:09:20.000Z</time>
      </trkpt>
      <trkpt lat="43.34385" lon="5.66034">
        <ele>362</ele>
        <time>2019-01-18T14:09:21.000Z</time>
      </trkpt>
      <trkpt lat="43.34385" lon="5.66033">
        <ele>362</ele>
        <time>2019-01-18T14:09:22.000Z</time>
      </trkpt>
      <trkpt lat="43.34385" lon="5.66033">
        <ele>362</ele>
        <time>2019-01-18T14:09:23.000Z</time>
      </trkpt>
      <trkpt lat="43.34384" lon="5.66033">
        <ele>362</ele>
        <time>2019-01-18T14:09:24.000Z</time>
      </trkpt>
      <trkpt lat="43.34384" lon="5.66032">
        <ele>362</ele>
        <time>2019-01-18T14:09:25.000Z</time>
      </trkpt>
      <trkpt lat="43.34383" lon="5.66031">
        <ele>363</ele>
        <time>2019-01-18T14:09:26.000Z</time>
      </trkpt>
      <trkpt lat="43.34383" lon="5.66031">
        <ele>363</ele>
        <time>2019-01-18T14:09:27.000Z</time>
      </trkpt>
      <trkpt lat="43.34383" lon="5.6603">
        <ele>363</ele>
        <time>2019-01-18T14:09:28.000Z</time>
      </trkpt>
      <trkpt lat="43.34383" lon="5.66029">
        <ele>363</ele>
        <time>2019-01-18T14:09:29.000Z</time>
      </trkpt>
      <trkpt lat="43.34383" lon="5.66028">
        <ele>363</ele>
        <time>2019-01-18T14:09:30.000Z</time>
      </trkpt>
      <trkpt lat="43.34383" lon="5.66028">
        <ele>364</ele>
        <time>2019-01-18T14:09:31.000Z</time>
      </trkpt>
      <trkpt lat="43.34384" lon="5.66028">
        <ele>364</ele>
        <time>2019-01-18T14:09:32.000Z</time>
      </trkpt>
      <trkpt lat="43.34384" lon="5.66027">
        <ele>364</ele>
        <time>2019-01-18T14:09:33.000Z</time>
      </trkpt>
      <trkpt lat="43.34384" lon="5.66027">
        <ele>364</ele>
        <time>2019-01-18T14:09:34.000Z</time>
      </trkpt>
      <trkpt lat="43.34384" lon="5.66026">
        <ele>364</ele>
        <time>2019-01-18T14:09:35.000Z</time>
      </trkpt>
      <trkpt lat="43.34384" lon="5.66026">
        <ele>364</ele>
        <time>2019-01-18T14:09:36.000Z</time>
      </trkpt>
      <trkpt lat="43.34384" lon="5.66026">
        <ele>364</ele>
        <time>2019-01-18T14:09:37.000Z</time>
      </trkpt>
      <trkpt lat="43.34385" lon="5.66026">
        <ele>364</ele>
        <time>2019-01-18T14:09:38.000Z</time>
      </trkpt>
      <trkpt lat="43.34385" lon="5.66026">
        <ele>365</ele>
        <time>2019-01-18T14:09:39.000Z</time>
      </trkpt>
      <trkpt lat="43.34385" lon="5.66026">
        <ele>365</ele>
        <time>2019-01-18T14:09:40.000Z</time>
      </trkpt>
      <trkpt lat="43.34385" lon="5.66026">
        <ele>365</ele>
        <time>2019-01-18T14:09:41.000Z</time>
      </trkpt>
      <trkpt lat="43.34385" lon="5.66026">
        <ele>365</ele>
        <time>2019-01-18T14:09:42.000Z</time>
      </trkpt>
      <trkpt lat="43.34385" lon="5.66025">
        <ele>365</ele>
        <time>2019-01-18T14:09:43.000Z</time>
      </trkpt>
      <trkpt lat="43.34385" lon="5.66025">
        <ele>365</ele>
        <time>2019-01-18T14:09:44.000Z</time>
      </trkpt>
      <trkpt lat="43.34386" lon="5.66025">
        <ele>365</ele>
        <time>2019-01-18T14:09:45.000Z</time>
      </trkpt>
      <trkpt lat="43.34386" lon="5.66025">
        <ele>365</ele>
        <time>2019-01-18T14:09:46.000Z</time>
      </trkpt>
      <trkpt lat="43.34386" lon="5.66025">
        <ele>365</ele>
        <time>2019-01-18T14:09:47.000Z</time>
      </trkpt>
      <trkpt lat="43.34386" lon="5.66025">
        <ele>365</ele>
        <time>2019-01-18T14:09:48.000Z</time>
      </trkpt>
      <trkpt lat="43.34386" lon="5.66025">
        <ele>365</ele>
        <time>2019-01-18T14:09:49.000Z</time>
      </trkpt>
      <trkpt lat="43.34386" lon="5.66025">
        <ele>365</ele>
        <time>2019-01-18T14:09:50.000Z</time>
      </trkpt>
      <trkpt lat="43.34386" lon="5.66025">
        <ele>365</ele>
        <time>2019-01-18T14:09:51.000Z</time>
      </trkpt>
      <trkpt lat="43.34386" lon="5.66025">
        <ele>365</ele>
        <time>2019-01-18T14:09:52.000Z</time>
      </trkpt>
      <trkpt lat="43.34386" lon="5.66024">
        <ele>365</ele>
        <time>2019-01-18T14:09:53.000Z</time>
      </trkpt>
      <trkpt lat="43.34386" lon="5.66024">
        <ele>365</ele>
        <time>2019-01-18T14:09:54.000Z</time>
      </trkpt>
      <trkpt lat="43.34386" lon="5.66024">
        <ele>365</ele>
        <time>2019-01-18T14:09:55.000Z</time>
      </trkpt>
      <trkpt lat="43.34386" lon="5.66024">
        <ele>365</ele>
        <time>2019-01-18T14:09:56.000Z</time>
      </trkpt>
      <trkpt lat="43.34386" lon="5.66024">
        <ele>365</ele>
        <time>2019-01-18T14:09:57.000Z</time>
      </trkpt>
      <trkpt lat="43.34386" lon="5.66024">
        <ele>365</ele>
        <time>2019-01-18T14:09:58.000Z</time>
      </trkpt>
      <trkpt lat="43.34386" lon="5.66024">
        <ele>365</ele>
        <time>2019-01-18T14:09:59.000Z</time>
      </trkpt>
      <trkpt lat="43.34386" lon="5.66024">
        <ele>365</ele>
        <time>2019-01-18T14:10:00.000Z</time>
      </trkpt>
      <trkpt lat="43.34386" lon="5.66024">
        <ele>365</ele>
        <time>2019-01-18T14:10:01.000Z</time>
      </trkpt>
      <trkpt lat="43.34387" lon="5.66024">
        <ele>365</ele>
        <time>2019-01-18T14:10:02.000Z</time>
      </trkpt>
      <trkpt lat="43.34387" lon="5.66024">
        <ele>365</ele>
        <time>2019-01-18T14:10:03.000Z</time>
      </trkpt>
      <trkpt lat="43.34387" lon="5.66024">
        <ele>365</ele>
        <time>2019-01-18T14:10:04.000Z</time>
      </trkpt>
      <trkpt lat="43.34387" lon="5.66024">
        <ele>365</ele>
        <time>2019-01-18T14:10:05.000Z</time>
      </trkpt>
      <trkpt lat="43.34387" lon="5.66024">
        <ele>365</ele>
        <time>2019-01-18T14:10:06.000Z</time>
      </trkpt>
      <trkpt lat="43.34388" lon="5.66025">
        <ele>365</ele>
        <time>2019-01-18T14:10:07.000Z</time>
      </trkpt>
      <trkpt lat="43.34388" lon="5.66025">
        <ele>365</ele>
        <time>2019-01-18T14:10:08.000Z</time>
      </trkpt>
      <trkpt lat="43.34388" lon="5.66025">
        <ele>365</ele>
        <time>2019-01-18T14:10:09.000Z</time>
      </trkpt>
      <trkpt lat="43.34388" lon="5.66025">
        <ele>365</ele>
        <time>2019-01-18T14:10:10.000Z</time>
      </trkpt>
      <trkpt lat="43.34388" lon="5.66025">
        <ele>365</ele>
        <time>2019-01-18T14:10:11.000Z</time>
      </trkpt>
      <trkpt lat="43.34388" lon="5.66025">
        <ele>365</ele>
        <time>2019-01-18T14:10:12.000Z</time>
      </trkpt>
      <trkpt lat="43.34388" lon="5.66025">
        <ele>365</ele>
        <time>2019-01-18T14:10:13.000Z</time>
      </trkpt>
      <trkpt lat="43.34388" lon="5.66025">
        <ele>365</ele>
        <time>2019-01-18T14:10:14.000Z</time>
      </trkpt>
      <trkpt lat="43.34388" lon="5.66025">
        <ele>365</ele>
        <time>2019-01-18T14:10:15.000Z</time>
      </trkpt>
      <trkpt lat="43.34388" lon="5.66025">
        <ele>365</ele>
        <time>2019-01-18T14:10:16.000Z</time>
      </trkpt>
      <trkpt lat="43.34389" lon="5.66025">
        <ele>365</ele>
        <time>2019-01-18T14:10:17.000Z</time>
      </trkpt>
      <trkpt lat="43.34389" lon="5.66025">
        <ele>365</ele>
        <time>2019-01-18T14:10:18.000Z</time>
      </trkpt>
      <trkpt lat="43.34389" lon="5.66025">
        <ele>365</ele>
        <time>2019-01-18T14:10:19.000Z</time>
      </trkpt>
      <trkpt lat="43.34389" lon="5.66025">
        <ele>365</ele>
        <time>2019-01-18T14:10:20.000Z</time>
      </trkpt>
      <trkpt lat="43.34389" lon="5.66025">
        <ele>365</ele>
        <time>2019-01-18T14:10:21.000Z</time>
      </trkpt>
      <trkpt lat="43.34389" lon="5.66024">
        <ele>365</ele>
        <time>2019-01-18T14:10:22.000Z</time>
      </trkpt>
      <trkpt lat="43.34389" lon="5.66024">
        <ele>365</ele>
        <time>2019-01-18T14:10:23.000Z</time>
      </trkpt>
      <trkpt lat="43.34389" lon="5.66024">
        <ele>365</ele>
        <time>2019-01-18T14:10:24.000Z</time>
      </trkpt>
      <trkpt lat="43.34389" lon="5.66024">
        <ele>365</ele>
        <time>2019-01-18T14:10:25.000Z</time>
      </trkpt>
      <trkpt lat="43.34389" lon="5.66024">
        <ele>365</ele>
        <time>2019-01-18T14:10:26.000Z</time>
      </trkpt>
      <trkpt lat="43.34389" lon="5.66024">
        <ele>365</ele>
        <time>2019-01-18T14:10:27.000Z</time>
      </trkpt>
      <trkpt lat="43.34389" lon="5.66024">
        <ele>365</ele>
        <time>2019-01-18T14:10:28.000Z</time>
      </trkpt>
      <trkpt lat="43.34389" lon="5.66024">
        <ele>365</ele>
        <time>2019-01-18T14:10:29.000Z</time>
      </trkpt>
      <trkpt lat="43.34389" lon="5.66024">
        <ele>365</ele>
        <time>2019-01-18T14:10:30.000Z</time>
      </trkpt>
      <trkpt lat="43.3439" lon="5.66024">
        <ele>365</ele>
        <time>2019-01-18T14:10:31.000Z</time>
      </trkpt>
      <trkpt lat="43.3439" lon="5.66024">
        <ele>365</ele>
        <time>2019-01-18T14:10:32.000Z</time>
      </trkpt>
      <trkpt lat="43.3439" lon="5.66024">
        <ele>365</ele>
        <time>2019-01-18T14:10:33.000Z</time>
      </trkpt>
      <trkpt lat="43.3439" lon="5.66024">
        <ele>365</ele>
        <time>2019-01-18T14:10:34.000Z</time>
      </trkpt>
      <trkpt lat="43.34389" lon="5.66024">
        <ele>365</ele>
        <time>2019-01-18T14:10:35.000Z</time>
      </trkpt>
      <trkpt lat="43.34389" lon="5.66024">
        <ele>365</ele>
        <time>2019-01-18T14:10:36.000Z</time>
      </trkpt>
      <trkpt lat="43.34389" lon="5.66024">
        <ele>365</ele>
        <time>2019-01-18T14:10:37.000Z</time>
      </trkpt>
      <trkpt lat="43.34389" lon="5.66024">
        <ele>365</ele>
        <time>2019-01-18T14:10:38.000Z</time>
      </trkpt>
      <trkpt lat="43.34389" lon="5.66024">
        <ele>365</ele>
        <time>2019-01-18T14:10:39.000Z</time>
      </trkpt>
      <trkpt lat="43.34389" lon="5.66024">
        <ele>365</ele>
        <time>2019-01-18T14:10:40.000Z</time>
      </trkpt>
      <trkpt lat="43.34389" lon="5.66024">
        <ele>365</ele>
        <time>2019-01-18T14:10:41.000Z</time>
      </trkpt>
      <trkpt lat="43.3439" lon="5.66024">
        <ele>365</ele>
        <time>2019-01-18T14:10:42.000Z</time>
      </trkpt>
      <trkpt lat="43.3439" lon="5.66024">
        <ele>365</ele>
        <time>2019-01-18T14:10:43.000Z</time>
      </trkpt>
      <trkpt lat="43.3439" lon="5.66024">
        <ele>365</ele>
        <time>2019-01-18T14:10:44.000Z</time>
      </trkpt>
      <trkpt lat="43.3439" lon="5.66024">
        <ele>365</ele>
        <time>2019-01-18T14:10:45.000Z</time>
      </trkpt>
      <trkpt lat="43.34389" lon="5.66024">
        <ele>365</ele>
        <time>2019-01-18T14:10:46.000Z</time>
      </trkpt>
      <trkpt lat="43.34389" lon="5.66024">
        <ele>365</ele>
        <time>2019-01-18T14:10:47.000Z</time>
      </trkpt>
      <trkpt lat="43.34389" lon="5.66024">
        <ele>365</ele>
        <time>2019-01-18T14:10:48.000Z</time>
      </trkpt>
      <trkpt lat="43.34389" lon="5.66024">
        <ele>365</ele>
        <time>2019-01-18T14:10:49.000Z</time>
      </trkpt>
      <trkpt lat="43.34389" lon="5.66024">
        <ele>366</ele>
        <time>2019-01-18T14:10:50.000Z</time>
      </trkpt>
      <trkpt lat="43.34389" lon="5.66025">
        <ele>366</ele>
        <time>2019-01-18T14:10:51.000Z</time>
      </trkpt>
      <trkpt lat="43.34389" lon="5.66024">
        <ele>366</ele>
        <time>2019-01-18T14:10:52.000Z</time>
      </trkpt>
      <trkpt lat="43.34388" lon="5.66024">
        <ele>366</ele>
        <time>2019-01-18T14:10:53.000Z</time>
      </trkpt>
      <trkpt lat="43.34388" lon="5.66024">
        <ele>366</ele>
        <time>2019-01-18T14:10:54.000Z</time>
      </trkpt>
      <trkpt lat="43.34388" lon="5.66024">
        <ele>366</ele>
        <time>2019-01-18T14:10:55.000Z</time>
      </trkpt>
      <trkpt lat="43.34387" lon="5.66025">
        <ele>366</ele>
        <time>2019-01-18T14:10:56.000Z</time>
      </trkpt>
      <trkpt lat="43.34387" lon="5.66024">
        <ele>366</ele>
        <time>2019-01-18T14:10:57.000Z</time>
      </trkpt>
      <trkpt lat="43.34387" lon="5.66023">
        <ele>366</ele>
        <time>2019-01-18T14:10:58.000Z</time>
      </trkpt>
      <trkpt lat="43.34387" lon="5.66023">
        <ele>366</ele>
        <time>2019-01-18T14:10:59.000Z</time>
      </trkpt>
      <trkpt lat="43.34387" lon="5.66022">
        <ele>367</ele>
        <time>2019-01-18T14:11:00.000Z</time>
      </trkpt>
      <trkpt lat="43.34386" lon="5.66022">
        <ele>367</ele>
        <time>2019-01-18T14:11:01.000Z</time>
      </trkpt>
      <trkpt lat="43.34386" lon="5.66022">
        <ele>367</ele>
        <time>2019-01-18T14:11:02.000Z</time>
      </trkpt>
      <trkpt lat="43.34386" lon="5.66022">
        <ele>367</ele>
        <time>2019-01-18T14:11:03.000Z</time>
      </trkpt>
      <trkpt lat="43.34386" lon="5.66022">
        <ele>367</ele>
        <time>2019-01-18T14:11:04.000Z</time>
      </trkpt>
      <trkpt lat="43.34386" lon="5.66022">
        <ele>367</ele>
        <time>2019-01-18T14:11:05.000Z</time>
      </trkpt>
      <trkpt lat="43.34386" lon="5.66022">
        <ele>367</ele>
        <time>2019-01-18T14:11:06.000Z</time>
      </trkpt>
      <trkpt lat="43.34386" lon="5.66022">
        <ele>367</ele>
        <time>2019-01-18T14:11:07.000Z</time>
      </trkpt>
      <trkpt lat="43.34387" lon="5.66022">
        <ele>367</ele>
        <time>2019-01-18T14:11:08.000Z</time>
      </trkpt>
      <trkpt lat="43.34387" lon="5.66021">
        <ele>367</ele>
        <time>2019-01-18T14:11:09.000Z</time>
      </trkpt>
      <trkpt lat="43.34387" lon="5.66021">
        <ele>367</ele>
        <time>2019-01-18T14:11:10.000Z</time>
      </trkpt>
      <trkpt lat="43.34387" lon="5.66021">
        <ele>367</ele>
        <time>2019-01-18T14:11:11.000Z</time>
      </trkpt>
      <trkpt lat="43.34387" lon="5.66021">
        <ele>367</ele>
        <time>2019-01-18T14:11:12.000Z</time>
      </trkpt>
      <trkpt lat="43.34387" lon="5.66021">
        <ele>367</ele>
        <time>2019-01-18T14:11:13.000Z</time>
      </trkpt>
      <trkpt lat="43.34387" lon="5.66021">
        <ele>367</ele>
        <time>2019-01-18T14:11:14.000Z</time>
      </trkpt>
      <trkpt lat="43.34387" lon="5.66021">
        <ele>368</ele>
        <time>2019-01-18T14:11:15.000Z</time>
      </trkpt>
      <trkpt lat="43.34387" lon="5.66021">
        <ele>368</ele>
        <time>2019-01-18T14:11:16.000Z</time>
      </trkpt>
      <trkpt lat="43.34387" lon="5.66021">
        <ele>368</ele>
        <time>2019-01-18T14:11:17.000Z</time>
      </trkpt>
      <trkpt lat="43.34387" lon="5.66021">
        <ele>368</ele>
        <time>2019-01-18T14:11:18.000Z</time>
      </trkpt>
      <trkpt lat="43.34387" lon="5.66021">
        <ele>368</ele>
        <time>2019-01-18T14:11:19.000Z</time>
      </trkpt>
      <trkpt lat="43.34387" lon="5.66021">
        <ele>368</ele>
        <time>2019-01-18T14:11:20.000Z</time>
      </trkpt>
      <trkpt lat="43.34387" lon="5.66021">
        <ele>368</ele>
        <time>2019-01-18T14:11:21.000Z</time>
      </trkpt>
      <trkpt lat="43.34387" lon="5.66021">
        <ele>368</ele>
        <time>2019-01-18T14:11:22.000Z</time>
      </trkpt>
      <trkpt lat="43.34387" lon="5.66021">
        <ele>368</ele>
        <time>2019-01-18T14:11:23.000Z</time>
      </trkpt>
      <trkpt lat="43.34387" lon="5.66021">
        <ele>368</ele>
        <time>2019-01-18T14:11:24.000Z</time>
      </trkpt>
      <trkpt lat="43.34387" lon="5.66021">
        <ele>368</ele>
        <time>2019-01-18T14:11:25.000Z</time>
      </trkpt>
      <trkpt lat="43.34387" lon="5.66021">
        <ele>368</ele>
        <time>2019-01-18T14:11:26.000Z</time>
      </trkpt>
      <trkpt lat="43.34387" lon="5.66021">
        <ele>368</ele>
        <time>2019-01-18T14:11:27.000Z</time>
      </trkpt>
      <trkpt lat="43.34387" lon="5.66021">
        <ele>368</ele>
        <time>2019-01-18T14:11:28.000Z</time>
      </trkpt>
      <trkpt lat="43.34387" lon="5.66021">
        <ele>368</ele>
        <time>2019-01-18T14:11:29.000Z</time>
      </trkpt>
      <trkpt lat="43.34387" lon="5.66021">
        <ele>368</ele>
        <time>2019-01-18T14:11:30.000Z</time>
      </trkpt>
      <trkpt lat="43.34387" lon="5.66021">
        <ele>368</ele>
        <time>2019-01-18T14:11:31.000Z</time>
      </trkpt>
      <trkpt lat="43.34387" lon="5.66021">
        <ele>368</ele>
        <time>2019-01-18T14:11:32.000Z</time>
      </trkpt>
      <trkpt lat="43.34387" lon="5.66021">
        <ele>368</ele>
        <time>2019-01-18T14:11:33.000Z</time>
      </trkpt>
      <trkpt lat="43.34387" lon="5.66021">
        <ele>368</ele>
        <time>2019-01-18T14:11:34.000Z</time>
      </trkpt>
      <trkpt lat="43.34387" lon="5.66021">
        <ele>368</ele>
        <time>2019-01-18T14:11:35.000Z</time>
      </trkpt>
      <trkpt lat="43.34387" lon="5.66021">
        <ele>368</ele>
        <time>2019-01-18T14:11:36.000Z</time>
      </trkpt>
      <trkpt lat="43.34387" lon="5.66021">
        <ele>368</ele>
        <time>2019-01-18T14:11:37.000Z</time>
      </trkpt>
      <trkpt lat="43.34387" lon="5.66021">
        <ele>368</ele>
        <time>2019-01-18T14:11:38.000Z</time>
      </trkpt>
      <trkpt lat="43.34387" lon="5.66021">
        <ele>368</ele>
        <time>2019-01-18T14:11:39.000Z</time>
      </trkpt>
      <trkpt lat="43.34387" lon="5.66021">
        <ele>368</ele>
        <time>2019-01-18T14:11:40.000Z</time>
      </trkpt>
      <trkpt lat="43.34387" lon="5.66021">
        <ele>368</ele>
        <time>2019-01-18T14:11:41.000Z</time>
      </trkpt>
      <trkpt lat="43.34387" lon="5.66021">
        <ele>368</ele>
        <time>2019-01-18T14:11:42.000Z</time>
      </trkpt>
      <trkpt lat="43.34387" lon="5.66021">
        <ele>368</ele>
        <time>2019-01-18T14:11:43.000Z</time>
      </trkpt>
      <trkpt lat="43.34387" lon="5.66021">
        <ele>368</ele>
        <time>2019-01-18T14:11:44.000Z</time>
      </trkpt>
      <trkpt lat="43.34387" lon="5.66021">
        <ele>368</ele>
        <time>2019-01-18T14:11:45.000Z</time>
      </trkpt>
      <trkpt lat="43.34387" lon="5.66021">
        <ele>368</ele>
        <time>2019-01-18T14:11:46.000Z</time>
      </trkpt>
      <trkpt lat="43.34387" lon="5.66021">
        <ele>368</ele>
        <time>2019-01-18T14:11:47.000Z</time>
      </trkpt>
      <trkpt lat="43.34387" lon="5.66021">
        <ele>368</ele>
        <time>2019-01-18T14:11:48.000Z</time>
      </trkpt>
      <trkpt lat="43.34387" lon="5.6602">
        <ele>368</ele>
        <time>2019-01-18T14:11:49.000Z</time>
      </trkpt>
      <trkpt lat="43.34387" lon="5.6602">
        <ele>368</ele>
        <time>2019-01-18T14:11:50.000Z</time>
      </trkpt>
      <trkpt lat="43.34387" lon="5.6602">
        <ele>368</ele>
        <time>2019-01-18T14:11:51.000Z</time>
      </trkpt>
      <trkpt lat="43.34387" lon="5.6602">
        <ele>368</ele>
        <time>2019-01-18T14:11:52.000Z</time>
      </trkpt>
      <trkpt lat="43.34387" lon="5.6602">
        <ele>368</ele>
        <time>2019-01-18T14:11:53.000Z</time>
      </trkpt>
      <trkpt lat="43.34388" lon="5.6602">
        <ele>368</ele>
        <time>2019-01-18T14:11:54.000Z</time>
      </trkpt>
      <trkpt lat="43.34388" lon="5.6602">
        <ele>368</ele>
        <time>2019-01-18T14:11:55.000Z</time>
      </trkpt>
      <trkpt lat="43.34388" lon="5.6602">
        <ele>368</ele>
        <time>2019-01-18T14:11:56.000Z</time>
      </trkpt>
      <trkpt lat="43.34388" lon="5.6602">
        <ele>368</ele>
        <time>2019-01-18T14:11:57.000Z</time>
      </trkpt>
      <trkpt lat="43.34388" lon="5.66019">
        <ele>368</ele>
        <time>2019-01-18T14:11:58.000Z</time>
      </trkpt>
      <trkpt lat="43.34388" lon="5.66019">
        <ele>368</ele>
        <time>2019-01-18T14:11:59.000Z</time>
      </trkpt>
      <trkpt lat="43.34388" lon="5.66019">
        <ele>368</ele>
        <time>2019-01-18T14:12:00.000Z</time>
      </trkpt>
      <trkpt lat="43.34388" lon="5.66019">
        <ele>368</ele>
        <time>2019-01-18T14:12:01.000Z</time>
      </trkpt>
      <trkpt lat="43.34388" lon="5.66019">
        <ele>368</ele>
        <time>2019-01-18T14:12:02.000Z</time>
      </trkpt>
      <trkpt lat="43.34388" lon="5.66019">
        <ele>368</ele>
        <time>2019-01-18T14:12:03.000Z</time>
      </trkpt>
      <trkpt lat="43.34388" lon="5.66019">
        <ele>368</ele>
        <time>2019-01-18T14:12:04.000Z</time>
      </trkpt>
      <trkpt lat="43.34388" lon="5.66019">
        <ele>368</ele>
        <time>2019-01-18T14:12:05.000Z</time>
      </trkpt>
      <trkpt lat="43.34389" lon="5.66019">
        <ele>368</ele>
        <time>2019-01-18T14:12:06.000Z</time>
      </trkpt>
      <trkpt lat="43.34389" lon="5.66019">
        <ele>369</ele>
        <time>2019-01-18T14:12:07.000Z</time>
      </trkpt>
      <trkpt lat="43.34389" lon="5.66018">
        <ele>369</ele>
        <time>2019-01-18T14:12:08.000Z</time>
      </trkpt>
      <trkpt lat="43.34389" lon="5.66018">
        <ele>369</ele>
        <time>2019-01-18T14:12:09.000Z</time>
      </trkpt>
      <trkpt lat="43.34389" lon="5.66019">
        <ele>369</ele>
        <time>2019-01-18T14:12:10.000Z</time>
      </trkpt>
      <trkpt lat="43.34389" lon="5.66019">
        <ele>369</ele>
        <time>2019-01-18T14:12:11.000Z</time>
      </trkpt>
      <trkpt lat="43.34389" lon="5.66019">
        <ele>369</ele>
        <time>2019-01-18T14:12:12.000Z</time>
      </trkpt>
      <trkpt lat="43.34389" lon="5.6602">
        <ele>369</ele>
        <time>2019-01-18T14:12:13.000Z</time>
      </trkpt>
      <trkpt lat="43.34389" lon="5.6602">
        <ele>369</ele>
        <time>2019-01-18T14:12:14.000Z</time>
      </trkpt>
      <trkpt lat="43.34389" lon="5.6602">
        <ele>369</ele>
        <time>2019-01-18T14:12:15.000Z</time>
      </trkpt>
      <trkpt lat="43.34389" lon="5.6602">
        <ele>369</ele>
        <time>2019-01-18T14:12:16.000Z</time>
      </trkpt>
      <trkpt lat="43.34389" lon="5.66021">
        <ele>369</ele>
        <time>2019-01-18T14:12:17.000Z</time>
      </trkpt>
      <trkpt lat="43.34388" lon="5.66021">
        <ele>369</ele>
        <time>2019-01-18T14:12:18.000Z</time>
      </trkpt>
      <trkpt lat="43.34387" lon="5.66021">
        <ele>369</ele>
        <time>2019-01-18T14:12:19.000Z</time>
      </trkpt>
      <trkpt lat="43.34386" lon="5.66021">
        <ele>369</ele>
        <time>2019-01-18T14:12:20.000Z</time>
      </trkpt>
      <trkpt lat="43.34386" lon="5.66022">
        <ele>369</ele>
        <time>2019-01-18T14:12:21.000Z</time>
      </trkpt>
      <trkpt lat="43.34385" lon="5.66021">
        <ele>369</ele>
        <time>2019-01-18T14:12:22.000Z</time>
      </trkpt>
      <trkpt lat="43.34385" lon="5.66021">
        <ele>369</ele>
        <time>2019-01-18T14:12:23.000Z</time>
      </trkpt>
      <trkpt lat="43.34385" lon="5.66022">
        <ele>369</ele>
        <time>2019-01-18T14:12:24.000Z</time>
      </trkpt>
      <trkpt lat="43.34386" lon="5.66022">
        <ele>369</ele>
        <time>2019-01-18T14:12:25.000Z</time>
      </trkpt>
      <trkpt lat="43.34386" lon="5.66023">
        <ele>369</ele>
        <time>2019-01-18T14:12:26.000Z</time>
      </trkpt>
      <trkpt lat="43.34386" lon="5.66023">
        <ele>369</ele>
        <time>2019-01-18T14:12:27.000Z</time>
      </trkpt>
      <trkpt lat="43.34385" lon="5.66023">
        <ele>369</ele>
        <time>2019-01-18T14:12:28.000Z</time>
      </trkpt>
      <trkpt lat="43.34385" lon="5.66024">
        <ele>369</ele>
        <time>2019-01-18T14:12:29.000Z</time>
      </trkpt>
      <trkpt lat="43.34384" lon="5.66025">
        <ele>369</ele>
        <time>2019-01-18T14:12:30.000Z</time>
      </trkpt>
      <trkpt lat="43.34383" lon="5.66026">
        <ele>369</ele>
        <time>2019-01-18T14:12:31.000Z</time>
      </trkpt>
      <trkpt lat="43.34383" lon="5.66027">
        <ele>369</ele>
        <time>2019-01-18T14:12:32.000Z</time>
      </trkpt>
      <trkpt lat="43.34382" lon="5.66029">
        <ele>369</ele>
        <time>2019-01-18T14:12:33.000Z</time>
      </trkpt>
      <trkpt lat="43.34381" lon="5.6603">
        <ele>369</ele>
        <time>2019-01-18T14:12:34.000Z</time>
      </trkpt>
      <trkpt lat="43.34381" lon="5.66031">
        <ele>369</ele>
        <time>2019-01-18T14:12:35.000Z</time>
      </trkpt>
      <trkpt lat="43.34381" lon="5.66032">
        <ele>369</ele>
        <time>2019-01-18T14:12:36.000Z</time>
      </trkpt>
      <trkpt lat="43.34381" lon="5.66034">
        <ele>369</ele>
        <time>2019-01-18T14:12:37.000Z</time>
      </trkpt>
      <trkpt lat="43.34381" lon="5.66035">
        <ele>369</ele>
        <time>2019-01-18T14:12:38.000Z</time>
      </trkpt>
      <trkpt lat="43.34381" lon="5.66036">
        <ele>369</ele>
        <time>2019-01-18T14:12:39.000Z</time>
      </trkpt>
      <trkpt lat="43.34381" lon="5.66036">
        <ele>369</ele>
        <time>2019-01-18T14:12:40.000Z</time>
      </trkpt>
      <trkpt lat="43.34381" lon="5.66036">
        <ele>369</ele>
        <time>2019-01-18T14:12:41.000Z</time>
      </trkpt>
      <trkpt lat="43.34381" lon="5.66036">
        <ele>369</ele>
        <time>2019-01-18T14:12:44.000Z</time>
      </trkpt>
      <trkpt lat="43.34381" lon="5.66036">
        <ele>369</ele>
        <time>2019-01-18T14:12:45.000Z</time>
      </trkpt>
      <trkpt lat="43.34381" lon="5.66039">
        <ele>369</ele>
        <time>2019-01-18T14:12:46.000Z</time>
      </trkpt>
      <trkpt lat="43.34381" lon="5.66039">
        <ele>369</ele>
        <time>2019-01-18T14:12:47.000Z</time>
      </trkpt>
      <trkpt lat="43.34381" lon="5.66039">
        <ele>369</ele>
        <time>2019-01-18T14:12:48.000Z</time>
      </trkpt>
      <trkpt lat="43.34382" lon="5.6604">
        <ele>369</ele>
        <time>2019-01-18T14:12:49.000Z</time>
      </trkpt>
      <trkpt lat="43.34382" lon="5.6604">
        <ele>369</ele>
        <time>2019-01-18T14:12:50.000Z</time>
      </trkpt>
      <trkpt lat="43.34382" lon="5.66041">
        <ele>369</ele>
        <time>2019-01-18T14:12:51.000Z</time>
      </trkpt>
      <trkpt lat="43.34382" lon="5.66042">
        <ele>369</ele>
        <time>2019-01-18T14:12:52.000Z</time>
      </trkpt>
      <trkpt lat="43.34383" lon="5.66042">
        <ele>369</ele>
        <time>2019-01-18T14:12:53.000Z</time>
      </trkpt>
      <trkpt lat="43.34383" lon="5.66042">
        <ele>369</ele>
        <time>2019-01-18T14:12:54.000Z</time>
      </trkpt>
      <trkpt lat="43.34383" lon="5.66042">
        <ele>369</ele>
        <time>2019-01-18T14:12:55.000Z</time>
      </trkpt>
      <trkpt lat="43.34389" lon="5.66024">
        <ele>374</ele>
        <time>2019-01-18T14:13:06.000Z</time>
      </trkpt>
      <trkpt lat="43.34389" lon="5.66024">
        <ele>374</ele>
        <time>2019-01-18T14:13:07.000Z</time>
      </trkpt>
      <trkpt lat="43.34389" lon="5.66024">
        <ele>374</ele>
        <time>2019-01-18T14:13:08.000Z</time>
      </trkpt>
      <trkpt lat="43.34389" lon="5.66024">
        <ele>374</ele>
        <time>2019-01-18T14:13:09.000Z</time>
      </trkpt>
      <trkpt lat="43.3439" lon="5.66024">
        <ele>374</ele>
        <time>2019-01-18T14:13:10.000Z</time>
      </trkpt>
      <trkpt lat="43.3439" lon="5.66024">
        <ele>374</ele>
        <time>2019-01-18T14:13:11.000Z</time>
      </trkpt>
      <trkpt lat="43.3439" lon="5.66024">
        <ele>374</ele>
        <time>2019-01-18T14:13:12.000Z</time>
      </trkpt>
      <trkpt lat="43.3439" lon="5.66024">
        <ele>374</ele>
        <time>2019-01-18T14:13:13.000Z</time>
      </trkpt>
      <trkpt lat="43.3439" lon="5.66023">
        <ele>374</ele>
        <time>2019-01-18T14:13:14.000Z</time>
      </trkpt>
      <trkpt lat="43.3439" lon="5.66023">
        <ele>374</ele>
        <time>2019-01-18T14:13:15.000Z</time>
      </trkpt>
      <trkpt lat="43.3439" lon="5.66023">
        <ele>374</ele>
        <time>2019-01-18T14:13:16.000Z</time>
      </trkpt>
      <trkpt lat="43.3439" lon="5.66023">
        <ele>374</ele>
        <time>2019-01-18T14:13:17.000Z</time>
      </trkpt>
      <trkpt lat="43.3439" lon="5.66023">
        <ele>374</ele>
        <time>2019-01-18T14:13:18.000Z</time>
      </trkpt>
      <trkpt lat="43.3439" lon="5.66023">
        <ele>374</ele>
        <time>2019-01-18T14:13:19.000Z</time>
      </trkpt>
      <trkpt lat="43.3439" lon="5.66023">
        <ele>374</ele>
        <time>2019-01-18T14:13:20.000Z</time>
      </trkpt>
      <trkpt lat="43.3439" lon="5.66023">
        <ele>374</ele>
        <time>2019-01-18T14:13:21.000Z</time>
      </trkpt>
      <trkpt lat="43.3439" lon="5.66023">
        <ele>374</ele>
        <time>2019-01-18T14:13:22.000Z</time>
      </trkpt>
      <trkpt lat="43.3439" lon="5.66023">
        <ele>374</ele>
        <time>2019-01-18T14:13:23.000Z</time>
      </trkpt>
      <trkpt lat="43.3439" lon="5.66023">
        <ele>374</ele>
        <time>2019-01-18T14:13:24.000Z</time>
      </trkpt>
      <trkpt lat="43.3439" lon="5.66023">
        <ele>374</ele>
        <time>2019-01-18T14:13:25.000Z</time>
      </trkpt>
      <trkpt lat="43.3439" lon="5.66023">
        <ele>374</ele>
        <time>2019-01-18T14:13:26.000Z</time>
      </trkpt>
      <trkpt lat="43.3439" lon="5.66023">
        <ele>374</ele>
        <time>2019-01-18T14:13:27.000Z</time>
      </trkpt>
      <trkpt lat="43.3439" lon="5.66023">
        <ele>374</ele>
        <time>2019-01-18T14:13:28.000Z</time>
      </trkpt>
      <trkpt lat="43.3439" lon="5.66023">
        <ele>374</ele>
        <time>2019-01-18T14:13:29.000Z</time>
      </trkpt>
      <trkpt lat="43.3439" lon="5.66023">
        <ele>374</ele>
        <time>2019-01-18T14:13:30.000Z</time>
      </trkpt>
      <trkpt lat="43.3439" lon="5.66023">
        <ele>374</ele>
        <time>2019-01-18T14:13:31.000Z</time>
      </trkpt>
      <trkpt lat="43.3439" lon="5.66023">
        <ele>374</ele>
        <time>2019-01-18T14:13:32.000Z</time>
      </trkpt>
      <trkpt lat="43.3439" lon="5.66023">
        <ele>374</ele>
        <time>2019-01-18T14:13:33.000Z</time>
      </trkpt>
      <trkpt lat="43.3439" lon="5.66023">
        <ele>374</ele>
        <time>2019-01-18T14:13:34.000Z</time>
      </trkpt>
      <trkpt lat="43.3439" lon="5.66023">
        <ele>374</ele>
        <time>2019-01-18T14:13:35.000Z</time>
      </trkpt>
      <trkpt lat="43.3439" lon="5.66023">
        <ele>374</ele>
        <time>2019-01-18T14:13:36.000Z</time>
      </trkpt>
      <trkpt lat="43.3439" lon="5.66023">
        <ele>374</ele>
        <time>2019-01-18T14:13:37.000Z</time>
      </trkpt>
      <trkpt lat="43.3439" lon="5.66023">
        <ele>374</ele>
        <time>2019-01-18T14:13:38.000Z</time>
      </trkpt>
      <trkpt lat="43.3439" lon="5.66023">
        <ele>374</ele>
        <time>2019-01-18T14:13:39.000Z</time>
      </trkpt>
      <trkpt lat="43.3439" lon="5.66023">
        <ele>374</ele>
        <time>2019-01-18T14:13:40.000Z</time>
      </trkpt>
      <trkpt lat="43.3439" lon="5.66023">
        <ele>374</ele>
        <time>2019-01-18T14:13:41.000Z</time>
      </trkpt>
      <trkpt lat="43.3439" lon="5.66023">
        <ele>374</ele>
        <time>2019-01-18T14:13:42.000Z</time>
      </trkpt>
      <trkpt lat="43.3439" lon="5.66023">
        <ele>374</ele>
        <time>2019-01-18T14:13:43.000Z</time>
      </trkpt>
      <trkpt lat="43.3439" lon="5.66023">
        <ele>374</ele>
        <time>2019-01-18T14:13:44.000Z</time>
      </trkpt>
      <trkpt lat="43.3439" lon="5.66023">
        <ele>374</ele>
        <time>2019-01-18T14:13:45.000Z</time>
      </trkpt>
      <trkpt lat="43.3439" lon="5.66023">
        <ele>374</ele>
        <time>2019-01-18T14:13:46.000Z</time>
      </trkpt>
      <trkpt lat="43.3439" lon="5.66023">
        <ele>373</ele>
        <time>2019-01-18T14:13:47.000Z</time>
      </trkpt>
      <trkpt lat="43.3439" lon="5.66023">
        <ele>373</ele>
        <time>2019-01-18T14:13:48.000Z</time>
      </trkpt>
      <trkpt lat="43.3439" lon="5.66023">
        <ele>373</ele>
        <time>2019-01-18T14:13:49.000Z</time>
      </trkpt>
      <trkpt lat="43.3439" lon="5.66023">
        <ele>373</ele>
        <time>2019-01-18T14:13:50.000Z</time>
      </trkpt>
      <trkpt lat="43.3439" lon="5.66023">
        <ele>373</ele>
        <time>2019-01-18T14:13:51.000Z</time>
      </trkpt>
      <trkpt lat="43.3439" lon="5.66022">
        <ele>373</ele>
        <time>2019-01-18T14:13:52.000Z</time>
      </trkpt>
      <trkpt lat="43.3439" lon="5.66022">
        <ele>373</ele>
        <time>2019-01-18T14:13:53.000Z</time>
      </trkpt>
      <trkpt lat="43.3439" lon="5.66022">
        <ele>373</ele>
        <time>2019-01-18T14:13:54.000Z</time>
      </trkpt>
      <trkpt lat="43.3439" lon="5.66022">
        <ele>373</ele>
        <time>2019-01-18T14:13:55.000Z</time>
      </trkpt>
      <trkpt lat="43.3439" lon="5.66023">
        <ele>373</ele>
        <time>2019-01-18T14:13:56.000Z</time>
      </trkpt>
      <trkpt lat="43.3439" lon="5.66023">
        <ele>373</ele>
        <time>2019-01-18T14:13:57.000Z</time>
      </trkpt>
      <trkpt lat="43.3439" lon="5.66023">
        <ele>373</ele>
        <time>2019-01-18T14:13:58.000Z</time>
      </trkpt>
      <trkpt lat="43.3439" lon="5.66022">
        <ele>373</ele>
        <time>2019-01-18T14:13:59.000Z</time>
      </trkpt>
      <trkpt lat="43.3439" lon="5.66022">
        <ele>373</ele>
        <time>2019-01-18T14:14:00.000Z</time>
      </trkpt>
      <trkpt lat="43.3439" lon="5.66022">
        <ele>373</ele>
        <time>2019-01-18T14:14:01.000Z</time>
      </trkpt>
      <trkpt lat="43.3439" lon="5.66022">
        <ele>373</ele>
        <time>2019-01-18T14:14:02.000Z</time>
      </trkpt>
      <trkpt lat="43.3439" lon="5.66022">
        <ele>373</ele>
        <time>2019-01-18T14:14:03.000Z</time>
      </trkpt>
      <trkpt lat="43.3439" lon="5.66022">
        <ele>373</ele>
        <time>2019-01-18T14:14:04.000Z</time>
      </trkpt>
      <trkpt lat="43.3439" lon="5.66022">
        <ele>373</ele>
        <time>2019-01-18T14:14:05.000Z</time>
      </trkpt>
      <trkpt lat="43.3439" lon="5.66022">
        <ele>373</ele>
        <time>2019-01-18T14:14:06.000Z</time>
      </trkpt>
      <trkpt lat="43.3439" lon="5.66022">
        <ele>373</ele>
        <time>2019-01-18T14:14:07.000Z</time>
      </trkpt>
      <trkpt lat="43.3439" lon="5.66022">
        <ele>373</ele>
        <time>2019-01-18T14:14:08.000Z</time>
      </trkpt>
      <trkpt lat="43.3439" lon="5.66022">
        <ele>373</ele>
        <time>2019-01-18T14:14:09.000Z</time>
      </trkpt>
      <trkpt lat="43.3439" lon="5.66022">
        <ele>373</ele>
        <time>2019-01-18T14:14:10.000Z</time>
      </trkpt>
      <trkpt lat="43.3439" lon="5.66022">
        <ele>372</ele>
        <time>2019-01-18T14:14:11.000Z</time>
      </trkpt>
      <trkpt lat="43.3439" lon="5.66023">
        <ele>372</ele>
        <time>2019-01-18T14:14:12.000Z</time>
      </trkpt>
      <trkpt lat="43.3439" lon="5.66022">
        <ele>372</ele>
        <time>2019-01-18T14:14:13.000Z</time>
      </trkpt>
      <trkpt lat="43.3439" lon="5.66022">
        <ele>372</ele>
        <time>2019-01-18T14:14:14.000Z</time>
      </trkpt>
      <trkpt lat="43.3439" lon="5.66023">
        <ele>372</ele>
        <time>2019-01-18T14:14:15.000Z</time>
      </trkpt>
      <trkpt lat="43.3439" lon="5.66022">
        <ele>372</ele>
        <time>2019-01-18T14:14:16.000Z</time>
      </trkpt>
      <trkpt lat="43.3439" lon="5.66022">
        <ele>372</ele>
        <time>2019-01-18T14:14:17.000Z</time>
      </trkpt>
      <trkpt lat="43.3439" lon="5.66022">
        <ele>372</ele>
        <time>2019-01-18T14:14:18.000Z</time>
      </trkpt>
      <trkpt lat="43.3439" lon="5.66022">
        <ele>372</ele>
        <time>2019-01-18T14:14:19.000Z</time>
      </trkpt>
      <trkpt lat="43.3439" lon="5.66022">
        <ele>372</ele>
        <time>2019-01-18T14:14:20.000Z</time>
      </trkpt>
      <trkpt lat="43.3439" lon="5.66022">
        <ele>372</ele>
        <time>2019-01-18T14:14:21.000Z</time>
      </trkpt>
      <trkpt lat="43.3439" lon="5.66022">
        <ele>372</ele>
        <time>2019-01-18T14:14:22.000Z</time>
      </trkpt>
      <trkpt lat="43.3439" lon="5.66022">
        <ele>372</ele>
        <time>2019-01-18T14:14:23.000Z</time>
      </trkpt>
      <trkpt lat="43.3439" lon="5.66022">
        <ele>372</ele>
        <time>2019-01-18T14:14:24.000Z</time>
      </trkpt>
      <trkpt lat="43.3439" lon="5.66022">
        <ele>372</ele>
        <time>2019-01-18T14:14:25.000Z</time>
      </trkpt>
      <trkpt lat="43.3439" lon="5.66022">
        <ele>372</ele>
        <time>2019-01-18T14:14:26.000Z</time>
      </trkpt>
      <trkpt lat="43.3439" lon="5.66023">
        <ele>372</ele>
        <time>2019-01-18T14:14:27.000Z</time>
      </trkpt>
      <trkpt lat="43.3439" lon="5.66023">
        <ele>372</ele>
        <time>2019-01-18T14:14:28.000Z</time>
      </trkpt>
      <trkpt lat="43.3439" lon="5.66023">
        <ele>372</ele>
        <time>2019-01-18T14:14:29.000Z</time>
      </trkpt>
      <trkpt lat="43.3439" lon="5.66023">
        <ele>372</ele>
        <time>2019-01-18T14:14:30.000Z</time>
      </trkpt>
      <trkpt lat="43.3439" lon="5.66023">
        <ele>372</ele>
        <time>2019-01-18T14:14:31.000Z</time>
      </trkpt>
      <trkpt lat="43.3439" lon="5.66023">
        <ele>372</ele>
        <time>2019-01-18T14:14:32.000Z</time>
      </trkpt>
      <trkpt lat="43.3439" lon="5.66023">
        <ele>371</ele>
        <time>2019-01-18T14:14:33.000Z</time>
      </trkpt>
      <trkpt lat="43.3439" lon="5.66023">
        <ele>371</ele>
        <time>2019-01-18T14:14:34.000Z</time>
      </trkpt>
      <trkpt lat="43.3439" lon="5.66023">
        <ele>371</ele>
        <time>2019-01-18T14:14:35.000Z</time>
      </trkpt>
      <trkpt lat="43.3439" lon="5.66023">
        <ele>371</ele>
        <time>2019-01-18T14:14:36.000Z</time>
      </trkpt>
      <trkpt lat="43.3439" lon="5.66022">
        <ele>371</ele>
        <time>2019-01-18T14:14:37.000Z</time>
      </trkpt>
      <trkpt lat="43.34391" lon="5.66022">
        <ele>371</ele>
        <time>2019-01-18T14:14:38.000Z</time>
      </trkpt>
      <trkpt lat="43.34391" lon="5.66022">
        <ele>371</ele>
        <time>2019-01-18T14:14:39.000Z</time>
      </trkpt>
      <trkpt lat="43.34391" lon="5.66022">
        <ele>371</ele>
        <time>2019-01-18T14:14:40.000Z</time>
      </trkpt>
      <trkpt lat="43.34391" lon="5.66022">
        <ele>371</ele>
        <time>2019-01-18T14:14:41.000Z</time>
      </trkpt>
      <trkpt lat="43.34391" lon="5.66022">
        <ele>371</ele>
        <time>2019-01-18T14:14:42.000Z</time>
      </trkpt>
      <trkpt lat="43.34391" lon="5.66022">
        <ele>371</ele>
        <time>2019-01-18T14:14:43.000Z</time>
      </trkpt>
      <trkpt lat="43.34391" lon="5.66023">
        <ele>371</ele>
        <time>2019-01-18T14:14:44.000Z</time>
      </trkpt>
      <trkpt lat="43.34391" lon="5.66023">
        <ele>371</ele>
        <time>2019-01-18T14:14:45.000Z</time>
      </trkpt>
      <trkpt lat="43.34391" lon="5.66023">
        <ele>371</ele>
        <time>2019-01-18T14:14:46.000Z</time>
      </trkpt>
      <trkpt lat="43.34391" lon="5.66023">
        <ele>371</ele>
        <time>2019-01-18T14:14:47.000Z</time>
      </trkpt>
      <trkpt lat="43.34391" lon="5.66023">
        <ele>371</ele>
        <time>2019-01-18T14:14:48.000Z</time>
      </trkpt>
      <trkpt lat="43.3439" lon="5.66023">
        <ele>371</ele>
        <time>2019-01-18T14:14:49.000Z</time>
      </trkpt>
      <trkpt lat="43.3439" lon="5.66023">
        <ele>371</ele>
        <time>2019-01-18T14:14:50.000Z</time>
      </trkpt>
      <trkpt lat="43.3439" lon="5.66023">
        <ele>371</ele>
        <time>2019-01-18T14:14:51.000Z</time>
      </trkpt>
      <trkpt lat="43.3439" lon="5.66023">
        <ele>372</ele>
        <time>2019-01-18T14:14:52.000Z</time>
      </trkpt>
      <trkpt lat="43.3439" lon="5.66023">
        <ele>372</ele>
        <time>2019-01-18T14:14:53.000Z</time>
      </trkpt>
      <trkpt lat="43.3439" lon="5.66023">
        <ele>372</ele>
        <time>2019-01-18T14:14:54.000Z</time>
      </trkpt>
      <trkpt lat="43.34391" lon="5.66023">
        <ele>372</ele>
        <time>2019-01-18T14:14:55.000Z</time>
      </trkpt>
      <trkpt lat="43.34391" lon="5.66023">
        <ele>372</ele>
        <time>2019-01-18T14:14:56.000Z</time>
      </trkpt>
      <trkpt lat="43.34391" lon="5.66023">
        <ele>372</ele>
        <time>2019-01-18T14:14:57.000Z</time>
      </trkpt>
      <trkpt lat="43.34391" lon="5.66024">
        <ele>372</ele>
        <time>2019-01-18T14:14:58.000Z</time>
      </trkpt>
      <trkpt lat="43.34391" lon="5.66024">
        <ele>372</ele>
        <time>2019-01-18T14:14:59.000Z</time>
      </trkpt>
      <trkpt lat="43.3439" lon="5.66024">
        <ele>372</ele>
        <time>2019-01-18T14:15:00.000Z</time>
      </trkpt>
      <trkpt lat="43.34391" lon="5.66024">
        <ele>372</ele>
        <time>2019-01-18T14:15:01.000Z</time>
      </trkpt>
      <trkpt lat="43.34391" lon="5.66025">
        <ele>372</ele>
        <time>2019-01-18T14:15:02.000Z</time>
      </trkpt>
      <trkpt lat="43.34391" lon="5.66025">
        <ele>372</ele>
        <time>2019-01-18T14:15:03.000Z</time>
      </trkpt>
      <trkpt lat="43.34391" lon="5.66025">
        <ele>371</ele>
        <time>2019-01-18T14:15:04.000Z</time>
      </trkpt>
      <trkpt lat="43.34391" lon="5.66025">
        <ele>371</ele>
        <time>2019-01-18T14:15:05.000Z</time>
      </trkpt>
      <trkpt lat="43.34391" lon="5.66025">
        <ele>371</ele>
        <time>2019-01-18T14:15:06.000Z</time>
      </trkpt>
      <trkpt lat="43.34391" lon="5.66025">
        <ele>371</ele>
        <time>2019-01-18T14:15:07.000Z</time>
      </trkpt>
      <trkpt lat="43.34391" lon="5.66025">
        <ele>371</ele>
        <time>2019-01-18T14:15:08.000Z</time>
      </trkpt>
      <trkpt lat="43.34391" lon="5.66025">
        <ele>371</ele>
        <time>2019-01-18T14:15:09.000Z</time>
      </trkpt>
      <trkpt lat="43.34391" lon="5.66024">
        <ele>371</ele>
        <time>2019-01-18T14:15:10.000Z</time>
      </trkpt>
      <trkpt lat="43.34391" lon="5.66024">
        <ele>371</ele>
        <time>2019-01-18T14:15:11.000Z</time>
      </trkpt>
      <trkpt lat="43.34391" lon="5.66024">
        <ele>371</ele>
        <time>2019-01-18T14:15:12.000Z</time>
      </trkpt>
      <trkpt lat="43.34391" lon="5.66024">
        <ele>371</ele>
        <time>2019-01-18T14:15:13.000Z</time>
      </trkpt>
      <trkpt lat="43.34391" lon="5.66024">
        <ele>371</ele>
        <time>2019-01-18T14:15:14.000Z</time>
      </trkpt>
      <trkpt lat="43.3439" lon="5.66024">
        <ele>371</ele>
        <time>2019-01-18T14:15:15.000Z</time>
      </trkpt>
      <trkpt lat="43.3439" lon="5.66025">
        <ele>371</ele>
        <time>2019-01-18T14:15:16.000Z</time>
      </trkpt>
      <trkpt lat="43.3439" lon="5.66025">
        <ele>371</ele>
        <time>2019-01-18T14:15:17.000Z</time>
      </trkpt>
      <trkpt lat="43.3439" lon="5.66025">
        <ele>371</ele>
        <time>2019-01-18T14:15:18.000Z</time>
      </trkpt>
      <trkpt lat="43.34389" lon="5.66025">
        <ele>371</ele>
        <time>2019-01-18T14:15:19.000Z</time>
      </trkpt>
      <trkpt lat="43.34389" lon="5.66025">
        <ele>371</ele>
        <time>2019-01-18T14:15:20.000Z</time>
      </trkpt>
      <trkpt lat="43.34389" lon="5.66026">
        <ele>371</ele>
        <time>2019-01-18T14:15:21.000Z</time>
      </trkpt>
      <trkpt lat="43.34389" lon="5.66026">
        <ele>371</ele>
        <time>2019-01-18T14:15:22.000Z</time>
      </trkpt>
      <trkpt lat="43.34389" lon="5.66026">
        <ele>371</ele>
        <time>2019-01-18T14:15:23.000Z</time>
      </trkpt>
      <trkpt lat="43.34389" lon="5.66026">
        <ele>371</ele>
        <time>2019-01-18T14:15:24.000Z</time>
      </trkpt>
      <trkpt lat="43.34389" lon="5.66026">
        <ele>371</ele>
        <time>2019-01-18T14:15:25.000Z</time>
      </trkpt>
      <trkpt lat="43.34389" lon="5.66026">
        <ele>371</ele>
        <time>2019-01-18T14:15:26.000Z</time>
      </trkpt>
      <trkpt lat="43.34389" lon="5.66026">
        <ele>371</ele>
        <time>2019-01-18T14:15:27.000Z</time>
      </trkpt>
      <trkpt lat="43.34388" lon="5.66026">
        <ele>371</ele>
        <time>2019-01-18T14:15:28.000Z</time>
      </trkpt>
      <trkpt lat="43.34388" lon="5.66027">
        <ele>371</ele>
        <time>2019-01-18T14:15:29.000Z</time>
      </trkpt>
      <trkpt lat="43.34388" lon="5.66027">
        <ele>371</ele>
        <time>2019-01-18T14:15:30.000Z</time>
      </trkpt>
      <trkpt lat="43.34388" lon="5.66028">
        <ele>371</ele>
        <time>2019-01-18T14:15:31.000Z</time>
      </trkpt>
      <trkpt lat="43.34388" lon="5.66028">
        <ele>371</ele>
        <time>2019-01-18T14:15:32.000Z</time>
      </trkpt>
      <trkpt lat="43.34388" lon="5.66028">
        <ele>371</ele>
        <time>2019-01-18T14:15:33.000Z</time>
      </trkpt>
      <trkpt lat="43.34388" lon="5.66028">
        <ele>371</ele>
        <time>2019-01-18T14:15:34.000Z</time>
      </trkpt>
      <trkpt lat="43.34388" lon="5.66028">
        <ele>371</ele>
        <time>2019-01-18T14:15:35.000Z</time>
      </trkpt>
      <trkpt lat="43.34388" lon="5.66029">
        <ele>371</ele>
        <time>2019-01-18T14:15:36.000Z</time>
      </trkpt>
      <trkpt lat="43.34388" lon="5.66029">
        <ele>371</ele>
        <time>2019-01-18T14:15:37.000Z</time>
      </trkpt>
      <trkpt lat="43.34388" lon="5.66028">
        <ele>371</ele>
        <time>2019-01-18T14:15:38.000Z</time>
      </trkpt>
      <trkpt lat="43.34388" lon="5.66028">
        <ele>371</ele>
        <time>2019-01-18T14:15:39.000Z</time>
      </trkpt>
      <trkpt lat="43.34388" lon="5.66029">
        <ele>371</ele>
        <time>2019-01-18T14:15:40.000Z</time>
      </trkpt>
      <trkpt lat="43.34389" lon="5.66029">
        <ele>371</ele>
        <time>2019-01-18T14:15:41.000Z</time>
      </trkpt>
      <trkpt lat="43.34389" lon="5.66028">
        <ele>371</ele>
        <time>2019-01-18T14:15:42.000Z</time>
      </trkpt>
      <trkpt lat="43.34389" lon="5.66028">
        <ele>371</ele>
        <time>2019-01-18T14:15:43.000Z</time>
      </trkpt>
      <trkpt lat="43.34389" lon="5.66028">
        <ele>371</ele>
        <time>2019-01-18T14:15:44.000Z</time>
      </trkpt>
      <trkpt lat="43.34389" lon="5.66028">
        <ele>371</ele>
        <time>2019-01-18T14:15:45.000Z</time>
      </trkpt>
      <trkpt lat="43.34389" lon="5.66029">
        <ele>371</ele>
        <time>2019-01-18T14:15:46.000Z</time>
      </trkpt>
      <trkpt lat="43.34389" lon="5.66029">
        <ele>371</ele>
        <time>2019-01-18T14:15:47.000Z</time>
      </trkpt>
      <trkpt lat="43.34389" lon="5.66028">
        <ele>371</ele>
        <time>2019-01-18T14:15:48.000Z</time>
      </trkpt>
      <trkpt lat="43.34389" lon="5.66028">
        <ele>371</ele>
        <time>2019-01-18T14:15:49.000Z</time>
      </trkpt>
      <trkpt lat="43.34389" lon="5.66028">
        <ele>371</ele>
        <time>2019-01-18T14:15:50.000Z</time>
      </trkpt>
      <trkpt lat="43.34388" lon="5.66028">
        <ele>371</ele>
        <time>2019-01-18T14:15:51.000Z</time>
      </trkpt>
      <trkpt lat="43.34389" lon="5.66028">
        <ele>371</ele>
        <time>2019-01-18T14:15:52.000Z</time>
      </trkpt>
      <trkpt lat="43.34389" lon="5.66028">
        <ele>371</ele>
        <time>2019-01-18T14:15:53.000Z</time>
      </trkpt>
      <trkpt lat="43.34389" lon="5.66028">
        <ele>371</ele>
        <time>2019-01-18T14:15:54.000Z</time>
      </trkpt>
      <trkpt lat="43.34389" lon="5.66028">
        <ele>371</ele>
        <time>2019-01-18T14:15:55.000Z</time>
      </trkpt>
      <trkpt lat="43.34389" lon="5.66028">
        <ele>371</ele>
        <time>2019-01-18T14:15:56.000Z</time>
      </trkpt>
      <trkpt lat="43.34389" lon="5.66028">
        <ele>371</ele>
        <time>2019-01-18T14:15:57.000Z</time>
      </trkpt>
      <trkpt lat="43.34389" lon="5.66028">
        <ele>371</ele>
        <time>2019-01-18T14:15:58.000Z</time>
      </trkpt>
      <trkpt lat="43.34389" lon="5.66028">
        <ele>371</ele>
        <time>2019-01-18T14:15:59.000Z</time>
      </trkpt>
      <trkpt lat="43.34389" lon="5.66028">
        <ele>371</ele>
        <time>2019-01-18T14:16:00.000Z</time>
      </trkpt>
      <trkpt lat="43.34389" lon="5.66028">
        <ele>371</ele>
        <time>2019-01-18T14:16:01.000Z</time>
      </trkpt>
      <trkpt lat="43.34389" lon="5.66028">
        <ele>371</ele>
        <time>2019-01-18T14:16:02.000Z</time>
      </trkpt>
      <trkpt lat="43.34389" lon="5.66028">
        <ele>371</ele>
        <time>2019-01-18T14:16:03.000Z</time>
      </trkpt>
      <trkpt lat="43.34389" lon="5.66028">
        <ele>371</ele>
        <time>2019-01-18T14:16:04.000Z</time>
      </trkpt>
      <trkpt lat="43.34389" lon="5.66028">
        <ele>371</ele>
        <time>2019-01-18T14:16:05.000Z</time>
      </trkpt>
      <trkpt lat="43.34389" lon="5.66028">
        <ele>371</ele>
        <time>2019-01-18T14:16:06.000Z</time>
      </trkpt>
      <trkpt lat="43.3439" lon="5.66028">
        <ele>371</ele>
        <time>2019-01-18T14:16:07.000Z</time>
      </trkpt>
      <trkpt lat="43.3439" lon="5.66028">
        <ele>371</ele>
        <time>2019-01-18T14:16:08.000Z</time>
      </trkpt>
      <trkpt lat="43.34389" lon="5.66028">
        <ele>371</ele>
        <time>2019-01-18T14:16:09.000Z</time>
      </trkpt>
      <trkpt lat="43.34389" lon="5.66028">
        <ele>371</ele>
        <time>2019-01-18T14:16:10.000Z</time>
      </trkpt>
      <trkpt lat="43.34389" lon="5.66028">
        <ele>371</ele>
        <time>2019-01-18T14:16:11.000Z</time>
      </trkpt>
      <trkpt lat="43.34389" lon="5.66028">
        <ele>371</ele>
        <time>2019-01-18T14:16:12.000Z</time>
      </trkpt>
      <trkpt lat="43.34389" lon="5.66028">
        <ele>371</ele>
        <time>2019-01-18T14:16:13.000Z</time>
      </trkpt>
      <trkpt lat="43.34389" lon="5.66028">
        <ele>371</ele>
        <time>2019-01-18T14:16:14.000Z</time>
      </trkpt>
      <trkpt lat="43.34389" lon="5.66028">
        <ele>371</ele>
        <time>2019-01-18T14:16:15.000Z</time>
      </trkpt>
      <trkpt lat="43.34389" lon="5.66028">
        <ele>371</ele>
        <time>2019-01-18T14:16:16.000Z</time>
      </trkpt>
      <trkpt lat="43.34389" lon="5.66028">
        <ele>371</ele>
        <time>2019-01-18T14:16:17.000Z</time>
      </trkpt>
      <trkpt lat="43.34389" lon="5.66028">
        <ele>371</ele>
        <time>2019-01-18T14:16:18.000Z</time>
      </trkpt>
      <trkpt lat="43.34389" lon="5.66028">
        <ele>371</ele>
        <time>2019-01-18T14:16:19.000Z</time>
      </trkpt>
      <trkpt lat="43.34389" lon="5.66028">
        <ele>371</ele>
        <time>2019-01-18T14:16:20.000Z</time>
      </trkpt>
      <trkpt lat="43.34389" lon="5.66028">
        <ele>371</ele>
        <time>2019-01-18T14:16:21.000Z</time>
      </trkpt>
      <trkpt lat="43.34389" lon="5.66028">
        <ele>371</ele>
        <time>2019-01-18T14:16:22.000Z</time>
      </trkpt>
      <trkpt lat="43.34389" lon="5.66028">
        <ele>371</ele>
        <time>2019-01-18T14:16:23.000Z</time>
      </trkpt>
      <trkpt lat="43.34389" lon="5.66028">
        <ele>371</ele>
        <time>2019-01-18T14:16:24.000Z</time>
      </trkpt>
      <trkpt lat="43.34389" lon="5.66028">
        <ele>371</ele>
        <time>2019-01-18T14:16:25.000Z</time>
      </trkpt>
      <trkpt lat="43.34389" lon="5.66028">
        <ele>371</ele>
        <time>2019-01-18T14:16:26.000Z</time>
      </trkpt>
      <trkpt lat="43.34389" lon="5.66028">
        <ele>371</ele>
        <time>2019-01-18T14:16:27.000Z</time>
      </trkpt>
      <trkpt lat="43.34389" lon="5.66028">
        <ele>371</ele>
        <time>2019-01-18T14:16:28.000Z</time>
      </trkpt>
      <trkpt lat="43.34389" lon="5.66028">
        <ele>371</ele>
        <time>2019-01-18T14:16:29.000Z</time>
      </trkpt>
      <trkpt lat="43.34389" lon="5.66028">
        <ele>371</ele>
        <time>2019-01-18T14:16:30.000Z</time>
      </trkpt>
      <trkpt lat="43.34389" lon="5.66029">
        <ele>371</ele>
        <time>2019-01-18T14:16:31.000Z</time>
      </trkpt>
      <trkpt lat="43.34389" lon="5.66029">
        <ele>371</ele>
        <time>2019-01-18T14:16:32.000Z</time>
      </trkpt>
      <trkpt lat="43.34389" lon="5.66029">
        <ele>371</ele>
        <time>2019-01-18T14:16:33.000Z</time>
      </trkpt>
      <trkpt lat="43.34389" lon="5.66029">
        <ele>370</ele>
        <time>2019-01-18T14:16:34.000Z</time>
      </trkpt>
      <trkpt lat="43.34388" lon="5.66029">
        <ele>370</ele>
        <time>2019-01-18T14:16:35.000Z</time>
      </trkpt>
      <trkpt lat="43.34388" lon="5.6603">
        <ele>370</ele>
        <time>2019-01-18T14:16:36.000Z</time>
      </trkpt>
      <trkpt lat="43.34388" lon="5.66031">
        <ele>370</ele>
        <time>2019-01-18T14:16:37.000Z</time>
      </trkpt>
      <trkpt lat="43.34388" lon="5.66031">
        <ele>370</ele>
        <time>2019-01-18T14:16:38.000Z</time>
      </trkpt>
      <trkpt lat="43.34388" lon="5.66032">
        <ele>370</ele>
        <time>2019-01-18T14:16:39.000Z</time>
      </trkpt>
      <trkpt lat="43.34388" lon="5.66033">
        <ele>370</ele>
        <time>2019-01-18T14:16:40.000Z</time>
      </trkpt>
      <trkpt lat="43.34388" lon="5.66033">
        <ele>370</ele>
        <time>2019-01-18T14:16:41.000Z</time>
      </trkpt>
      <trkpt lat="43.34388" lon="5.66034">
        <ele>370</ele>
        <time>2019-01-18T14:16:42.000Z</time>
      </trkpt>
      <trkpt lat="43.34389" lon="5.66035">
        <ele>370</ele>
        <time>2019-01-18T14:16:43.000Z</time>
      </trkpt>
      <trkpt lat="43.34389" lon="5.66035">
        <ele>370</ele>
        <time>2019-01-18T14:16:44.000Z</time>
      </trkpt>
      <trkpt lat="43.34389" lon="5.66035">
        <ele>370</ele>
        <time>2019-01-18T14:16:45.000Z</time>
      </trkpt>
      <trkpt lat="43.34389" lon="5.66035">
        <ele>370</ele>
        <time>2019-01-18T14:16:46.000Z</time>
      </trkpt>
      <trkpt lat="43.34389" lon="5.66035">
        <ele>370</ele>
        <time>2019-01-18T14:16:47.000Z</time>
      </trkpt>
      <trkpt lat="43.34389" lon="5.66035">
        <ele>370</ele>
        <time>2019-01-18T14:16:48.000Z</time>
      </trkpt>
      <trkpt lat="43.34389" lon="5.66035">
        <ele>370</ele>
        <time>2019-01-18T14:16:49.000Z</time>
      </trkpt>
      <trkpt lat="43.34389" lon="5.66035">
        <ele>370</ele>
        <time>2019-01-18T14:16:50.000Z</time>
      </trkpt>
      <trkpt lat="43.34389" lon="5.66035">
        <ele>370</ele>
        <time>2019-01-18T14:16:51.000Z</time>
      </trkpt>
      <trkpt lat="43.34389" lon="5.66035">
        <ele>370</ele>
        <time>2019-01-18T14:16:52.000Z</time>
      </trkpt>
      <trkpt lat="43.34389" lon="5.66035">
        <ele>370</ele>
        <time>2019-01-18T14:16:53.000Z</time>
      </trkpt>
      <trkpt lat="43.34389" lon="5.66036">
        <ele>370</ele>
        <time>2019-01-18T14:16:54.000Z</time>
      </trkpt>
      <trkpt lat="43.34389" lon="5.66036">
        <ele>370</ele>
        <time>2019-01-18T14:16:55.000Z</time>
      </trkpt>
      <trkpt lat="43.34389" lon="5.66036">
        <ele>370</ele>
        <time>2019-01-18T14:16:56.000Z</time>
      </trkpt>
      <trkpt lat="43.34389" lon="5.66036">
        <ele>370</ele>
        <time>2019-01-18T14:16:57.000Z</time>
      </trkpt>
      <trkpt lat="43.34389" lon="5.66036">
        <ele>370</ele>
        <time>2019-01-18T14:16:58.000Z</time>
      </trkpt>
      <trkpt lat="43.34389" lon="5.66037">
        <ele>370</ele>
        <time>2019-01-18T14:16:59.000Z</time>
      </trkpt>
      <trkpt lat="43.34389" lon="5.66036">
        <ele>370</ele>
        <time>2019-01-18T14:17:00.000Z</time>
      </trkpt>
      <trkpt lat="43.34389" lon="5.66036">
        <ele>370</ele>
        <time>2019-01-18T14:17:01.000Z</time>
      </trkpt>
      <trkpt lat="43.34389" lon="5.66036">
        <ele>370</ele>
        <time>2019-01-18T14:17:02.000Z</time>
      </trkpt>
      <trkpt lat="43.34389" lon="5.66036">
        <ele>369</ele>
        <time>2019-01-18T14:17:03.000Z</time>
      </trkpt>
      <trkpt lat="43.34389" lon="5.66036">
        <ele>369</ele>
        <time>2019-01-18T14:17:04.000Z</time>
      </trkpt>
      <trkpt lat="43.34389" lon="5.66036">
        <ele>369</ele>
        <time>2019-01-18T14:17:05.000Z</time>
      </trkpt>
      <trkpt lat="43.34389" lon="5.66036">
        <ele>369</ele>
        <time>2019-01-18T14:17:06.000Z</time>
      </trkpt>
      <trkpt lat="43.3439" lon="5.66037">
        <ele>369</ele>
        <time>2019-01-18T14:17:07.000Z</time>
      </trkpt>
      <trkpt lat="43.3439" lon="5.66037">
        <ele>369</ele>
        <time>2019-01-18T14:17:08.000Z</time>
      </trkpt>
      <trkpt lat="43.34389" lon="5.66037">
        <ele>369</ele>
        <time>2019-01-18T14:17:09.000Z</time>
      </trkpt>
      <trkpt lat="43.34389" lon="5.66037">
        <ele>369</ele>
        <time>2019-01-18T14:17:10.000Z</time>
      </trkpt>
      <trkpt lat="43.34389" lon="5.66037">
        <ele>369</ele>
        <time>2019-01-18T14:17:11.000Z</time>
      </trkpt>
      <trkpt lat="43.34389" lon="5.66037">
        <ele>369</ele>
        <time>2019-01-18T14:17:12.000Z</time>
      </trkpt>
      <trkpt lat="43.34389" lon="5.66037">
        <ele>369</ele>
        <time>2019-01-18T14:17:13.000Z</time>
      </trkpt>
      <trkpt lat="43.34389" lon="5.66038">
        <ele>369</ele>
        <time>2019-01-18T14:17:14.000Z</time>
      </trkpt>
      <trkpt lat="43.34389" lon="5.66038">
        <ele>369</ele>
        <time>2019-01-18T14:17:15.000Z</time>
      </trkpt>
      <trkpt lat="43.3439" lon="5.66039">
        <ele>369</ele>
        <time>2019-01-18T14:17:16.000Z</time>
      </trkpt>
      <trkpt lat="43.3439" lon="5.66039">
        <ele>368</ele>
        <time>2019-01-18T14:17:17.000Z</time>
      </trkpt>
      <trkpt lat="43.3439" lon="5.6604">
        <ele>368</ele>
        <time>2019-01-18T14:17:18.000Z</time>
      </trkpt>
      <trkpt lat="43.3439" lon="5.6604">
        <ele>368</ele>
        <time>2019-01-18T14:17:19.000Z</time>
      </trkpt>
      <trkpt lat="43.3439" lon="5.6604">
        <ele>368</ele>
        <time>2019-01-18T14:17:20.000Z</time>
      </trkpt>
      <trkpt lat="43.3439" lon="5.6604">
        <ele>368</ele>
        <time>2019-01-18T14:17:21.000Z</time>
      </trkpt>
      <trkpt lat="43.3439" lon="5.6604">
        <ele>368</ele>
        <time>2019-01-18T14:17:22.000Z</time>
      </trkpt>
      <trkpt lat="43.3439" lon="5.6604">
        <ele>368</ele>
        <time>2019-01-18T14:17:23.000Z</time>
      </trkpt>
      <trkpt lat="43.3439" lon="5.6604">
        <ele>368</ele>
        <time>2019-01-18T14:17:24.000Z</time>
      </trkpt>
      <trkpt lat="43.3439" lon="5.6604">
        <ele>367</ele>
        <time>2019-01-18T14:17:25.000Z</time>
      </trkpt>
      <trkpt lat="43.3439" lon="5.6604">
        <ele>367</ele>
        <time>2019-01-18T14:17:26.000Z</time>
      </trkpt>
      <trkpt lat="43.3439" lon="5.6604">
        <ele>367</ele>
        <time>2019-01-18T14:17:27.000Z</time>
      </trkpt>
      <trkpt lat="43.3439" lon="5.6604">
        <ele>367</ele>
        <time>2019-01-18T14:17:28.000Z</time>
      </trkpt>
      <trkpt lat="43.3439" lon="5.6604">
        <ele>367</ele>
        <time>2019-01-18T14:17:29.000Z</time>
      </trkpt>
      <trkpt lat="43.3439" lon="5.6604">
        <ele>367</ele>
        <time>2019-01-18T14:17:30.000Z</time>
      </trkpt>
      <trkpt lat="43.3439" lon="5.6604">
        <ele>367</ele>
        <time>2019-01-18T14:17:31.000Z</time>
      </trkpt>
      <trkpt lat="43.3439" lon="5.66039">
        <ele>367</ele>
        <time>2019-01-18T14:17:32.000Z</time>
      </trkpt>
      <trkpt lat="43.3439" lon="5.66039">
        <ele>366</ele>
        <time>2019-01-18T14:17:33.000Z</time>
      </trkpt>
      <trkpt lat="43.3439" lon="5.66039">
        <ele>366</ele>
        <time>2019-01-18T14:17:34.000Z</time>
      </trkpt>
      <trkpt lat="43.3439" lon="5.66039">
        <ele>366</ele>
        <time>2019-01-18T14:17:35.000Z</time>
      </trkpt>
      <trkpt lat="43.3439" lon="5.66039">
        <ele>366</ele>
        <time>2019-01-18T14:17:36.000Z</time>
      </trkpt>
      <trkpt lat="43.3439" lon="5.66039">
        <ele>366</ele>
        <time>2019-01-18T14:17:37.000Z</time>
      </trkpt>
      <trkpt lat="43.3439" lon="5.66039">
        <ele>366</ele>
        <time>2019-01-18T14:17:38.000Z</time>
      </trkpt>
      <trkpt lat="43.3439" lon="5.66039">
        <ele>366</ele>
        <time>2019-01-18T14:17:39.000Z</time>
      </trkpt>
      <trkpt lat="43.3439" lon="5.66039">
        <ele>366</ele>
        <time>2019-01-18T14:17:40.000Z</time>
      </trkpt>
      <trkpt lat="43.3439" lon="5.66039">
        <ele>366</ele>
        <time>2019-01-18T14:17:41.000Z</time>
      </trkpt>
      <trkpt lat="43.3439" lon="5.66039">
        <ele>366</ele>
        <time>2019-01-18T14:17:42.000Z</time>
      </trkpt>
      <trkpt lat="43.3439" lon="5.66039">
        <ele>366</ele>
        <time>2019-01-18T14:17:43.000Z</time>
      </trkpt>
      <trkpt lat="43.3439" lon="5.66039">
        <ele>366</ele>
        <time>2019-01-18T14:17:44.000Z</time>
      </trkpt>
      <trkpt lat="43.3439" lon="5.66039">
        <ele>366</ele>
        <time>2019-01-18T14:17:45.000Z</time>
      </trkpt>
      <trkpt lat="43.3439" lon="5.66039">
        <ele>366</ele>
        <time>2019-01-18T14:17:46.000Z</time>
      </trkpt>
      <trkpt lat="43.3439" lon="5.66039">
        <ele>366</ele>
        <time>2019-01-18T14:17:47.000Z</time>
      </trkpt>
      <trkpt lat="43.3439" lon="5.66039">
        <ele>365</ele>
        <time>2019-01-18T14:17:48.000Z</time>
      </trkpt>
      <trkpt lat="43.3439" lon="5.66039">
        <ele>365</ele>
        <time>2019-01-18T14:17:49.000Z</time>
      </trkpt>
      <trkpt lat="43.3439" lon="5.66039">
        <ele>365</ele>
        <time>2019-01-18T14:17:50.000Z</time>
      </trkpt>
      <trkpt lat="43.3439" lon="5.66039">
        <ele>365</ele>
        <time>2019-01-18T14:17:51.000Z</time>
      </trkpt>
      <trkpt lat="43.3439" lon="5.66039">
        <ele>365</ele>
        <time>2019-01-18T14:17:52.000Z</time>
      </trkpt>
      <trkpt lat="43.3439" lon="5.66039">
        <ele>365</ele>
        <time>2019-01-18T14:17:53.000Z</time>
      </trkpt>
      <trkpt lat="43.3439" lon="5.66039">
        <ele>365</ele>
        <time>2019-01-18T14:17:54.000Z</time>
      </trkpt>
      <trkpt lat="43.3439" lon="5.66039">
        <ele>365</ele>
        <time>2019-01-18T14:17:55.000Z</time>
      </trkpt>
      <trkpt lat="43.3439" lon="5.66039">
        <ele>365</ele>
        <time>2019-01-18T14:17:56.000Z</time>
      </trkpt>
      <trkpt lat="43.3439" lon="5.66039">
        <ele>365</ele>
        <time>2019-01-18T14:17:57.000Z</time>
      </trkpt>
      <trkpt lat="43.3439" lon="5.66039">
        <ele>365</ele>
        <time>2019-01-18T14:17:58.000Z</time>
      </trkpt>
      <trkpt lat="43.3439" lon="5.66039">
        <ele>365</ele>
        <time>2019-01-18T14:17:59.000Z</time>
      </trkpt>
      <trkpt lat="43.3439" lon="5.66039">
        <ele>365</ele>
        <time>2019-01-18T14:18:00.000Z</time>
      </trkpt>
      <trkpt lat="43.34389" lon="5.66039">
        <ele>365</ele>
        <time>2019-01-18T14:18:01.000Z</time>
      </trkpt>
      <trkpt lat="43.3439" lon="5.66039">
        <ele>365</ele>
        <time>2019-01-18T14:18:02.000Z</time>
      </trkpt>
      <trkpt lat="43.3439" lon="5.66039">
        <ele>365</ele>
        <time>2019-01-18T14:18:03.000Z</time>
      </trkpt>
      <trkpt lat="43.3439" lon="5.66039">
        <ele>365</ele>
        <time>2019-01-18T14:18:04.000Z</time>
      </trkpt>
      <trkpt lat="43.3439" lon="5.66039">
        <ele>365</ele>
        <time>2019-01-18T14:18:05.000Z</time>
      </trkpt>
      <trkpt lat="43.3439" lon="5.66039">
        <ele>365</ele>
        <time>2019-01-18T14:18:06.000Z</time>
      </trkpt>
      <trkpt lat="43.3439" lon="5.66039">
        <ele>365</ele>
        <time>2019-01-18T14:18:07.000Z</time>
      </trkpt>
      <trkpt lat="43.3439" lon="5.66039">
        <ele>365</ele>
        <time>2019-01-18T14:18:08.000Z</time>
      </trkpt>
      <trkpt lat="43.3439" lon="5.66039">
        <ele>365</ele>
        <time>2019-01-18T14:18:09.000Z</time>
      </trkpt>
      <trkpt lat="43.3439" lon="5.66039">
        <ele>365</ele>
        <time>2019-01-18T14:18:10.000Z</time>
      </trkpt>
      <trkpt lat="43.34389" lon="5.66039">
        <ele>365</ele>
        <time>2019-01-18T14:18:11.000Z</time>
      </trkpt>
      <trkpt lat="43.34389" lon="5.66039">
        <ele>365</ele>
        <time>2019-01-18T14:18:12.000Z</time>
      </trkpt>
      <trkpt lat="43.34389" lon="5.66039">
        <ele>365</ele>
        <time>2019-01-18T14:18:13.000Z</time>
      </trkpt>
      <trkpt lat="43.34389" lon="5.66039">
        <ele>365</ele>
        <time>2019-01-18T14:18:14.000Z</time>
      </trkpt>
      <trkpt lat="43.34389" lon="5.66039">
        <ele>365</ele>
        <time>2019-01-18T14:18:15.000Z</time>
      </trkpt>
      <trkpt lat="43.34389" lon="5.66039">
        <ele>365</ele>
        <time>2019-01-18T14:18:16.000Z</time>
      </trkpt>
      <trkpt lat="43.3439" lon="5.6604">
        <ele>365</ele>
        <time>2019-01-18T14:18:17.000Z</time>
      </trkpt>
      <trkpt lat="43.3439" lon="5.6604">
        <ele>365</ele>
        <time>2019-01-18T14:18:18.000Z</time>
      </trkpt>
      <trkpt lat="43.3439" lon="5.6604">
        <ele>365</ele>
        <time>2019-01-18T14:18:19.000Z</time>
      </trkpt>
      <trkpt lat="43.3439" lon="5.6604">
        <ele>365</ele>
        <time>2019-01-18T14:18:20.000Z</time>
      </trkpt>
      <trkpt lat="43.3439" lon="5.6604">
        <ele>365</ele>
        <time>2019-01-18T14:18:21.000Z</time>
      </trkpt>
      <trkpt lat="43.3439" lon="5.6604">
        <ele>365</ele>
        <time>2019-01-18T14:18:22.000Z</time>
      </trkpt>
      <trkpt lat="43.3439" lon="5.6604">
        <ele>365</ele>
        <time>2019-01-18T14:18:23.000Z</time>
      </trkpt>
      <trkpt lat="43.3439" lon="5.6604">
        <ele>365</ele>
        <time>2019-01-18T14:18:24.000Z</time>
      </trkpt>
      <trkpt lat="43.3439" lon="5.6604">
        <ele>365</ele>
        <time>2019-01-18T14:18:25.000Z</time>
      </trkpt>
      <trkpt lat="43.3439" lon="5.6604">
        <ele>365</ele>
        <time>2019-01-18T14:18:26.000Z</time>
      </trkpt>
      <trkpt lat="43.3439" lon="5.6604">
        <ele>365</ele>
        <time>2019-01-18T14:18:27.000Z</time>
      </trkpt>
      <trkpt lat="43.3439" lon="5.66041">
        <ele>365</ele>
        <time>2019-01-18T14:18:28.000Z</time>
      </trkpt>
      <trkpt lat="43.3439" lon="5.66041">
        <ele>365</ele>
        <time>2019-01-18T14:18:29.000Z</time>
      </trkpt>
      <trkpt lat="43.3439" lon="5.66041">
        <ele>365</ele>
        <time>2019-01-18T14:18:30.000Z</time>
      </trkpt>
      <trkpt lat="43.3439" lon="5.66041">
        <ele>365</ele>
        <time>2019-01-18T14:18:31.000Z</time>
      </trkpt>
      <trkpt lat="43.3439" lon="5.66041">
        <ele>365</ele>
        <time>2019-01-18T14:18:32.000Z</time>
      </trkpt>
      <trkpt lat="43.3439" lon="5.66041">
        <ele>365</ele>
        <time>2019-01-18T14:18:33.000Z</time>
      </trkpt>
      <trkpt lat="43.3439" lon="5.66041">
        <ele>365</ele>
        <time>2019-01-18T14:18:34.000Z</time>
      </trkpt>
      <trkpt lat="43.3439" lon="5.66041">
        <ele>365</ele>
        <time>2019-01-18T14:18:35.000Z</time>
      </trkpt>
      <trkpt lat="43.34389" lon="5.66041">
        <ele>365</ele>
        <time>2019-01-18T14:18:36.000Z</time>
      </trkpt>
      <trkpt lat="43.34389" lon="5.66042">
        <ele>365</ele>
        <time>2019-01-18T14:18:37.000Z</time>
      </trkpt>
      <trkpt lat="43.34389" lon="5.66041">
        <ele>365</ele>
        <time>2019-01-18T14:18:38.000Z</time>
      </trkpt>
      <trkpt lat="43.34389" lon="5.66041">
        <ele>365</ele>
        <time>2019-01-18T14:18:39.000Z</time>
      </trkpt>
      <trkpt lat="43.34389" lon="5.66041">
        <ele>365</ele>
        <time>2019-01-18T14:18:40.000Z</time>
      </trkpt>
      <trkpt lat="43.34389" lon="5.66041">
        <ele>365</ele>
        <time>2019-01-18T14:18:41.000Z</time>
      </trkpt>
      <trkpt lat="43.34389" lon="5.66041">
        <ele>365</ele>
        <time>2019-01-18T14:18:42.000Z</time>
      </trkpt>
      <trkpt lat="43.34389" lon="5.66041">
        <ele>365</ele>
        <time>2019-01-18T14:18:43.000Z</time>
      </trkpt>
      <trkpt lat="43.34389" lon="5.66041">
        <ele>365</ele>
        <time>2019-01-18T14:18:44.000Z</time>
      </trkpt>
      <trkpt lat="43.34389" lon="5.66041">
        <ele>365</ele>
        <time>2019-01-18T14:18:45.000Z</time>
      </trkpt>
      <trkpt lat="43.34389" lon="5.66041">
        <ele>364</ele>
        <time>2019-01-18T14:18:46.000Z</time>
      </trkpt>
      <trkpt lat="43.34389" lon="5.66041">
        <ele>364</ele>
        <time>2019-01-18T14:18:47.000Z</time>
      </trkpt>
      <trkpt lat="43.34389" lon="5.66041">
        <ele>364</ele>
        <time>2019-01-18T14:18:48.000Z</time>
      </trkpt>
      <trkpt lat="43.34389" lon="5.66041">
        <ele>364</ele>
        <time>2019-01-18T14:18:49.000Z</time>
      </trkpt>
      <trkpt lat="43.34389" lon="5.66041">
        <ele>364</ele>
        <time>2019-01-18T14:18:50.000Z</time>
      </trkpt>
      <trkpt lat="43.34389" lon="5.66041">
        <ele>364</ele>
        <time>2019-01-18T14:18:51.000Z</time>
      </trkpt>
      <trkpt lat="43.34389" lon="5.66041">
        <ele>364</ele>
        <time>2019-01-18T14:18:52.000Z</time>
      </trkpt>
      <trkpt lat="43.34389" lon="5.66041">
        <ele>364</ele>
        <time>2019-01-18T14:18:53.000Z</time>
      </trkpt>
      <trkpt lat="43.34389" lon="5.66041">
        <ele>364</ele>
        <time>2019-01-18T14:18:54.000Z</time>
      </trkpt>
      <trkpt lat="43.34389" lon="5.66041">
        <ele>364</ele>
        <time>2019-01-18T14:18:55.000Z</time>
      </trkpt>
      <trkpt lat="43.34389" lon="5.66041">
        <ele>364</ele>
        <time>2019-01-18T14:18:56.000Z</time>
      </trkpt>
      <trkpt lat="43.34389" lon="5.66041">
        <ele>364</ele>
        <time>2019-01-18T14:18:57.000Z</time>
      </trkpt>
      <trkpt lat="43.34389" lon="5.66041">
        <ele>364</ele>
        <time>2019-01-18T14:18:58.000Z</time>
      </trkpt>
      <trkpt lat="43.34389" lon="5.66041">
        <ele>364</ele>
        <time>2019-01-18T14:18:59.000Z</time>
      </trkpt>
      <trkpt lat="43.34389" lon="5.66041">
        <ele>364</ele>
        <time>2019-01-18T14:19:00.000Z</time>
      </trkpt>
      <trkpt lat="43.34389" lon="5.66041">
        <ele>364</ele>
        <time>2019-01-18T14:19:01.000Z</time>
      </trkpt>
      <trkpt lat="43.34389" lon="5.66042">
        <ele>364</ele>
        <time>2019-01-18T14:19:02.000Z</time>
      </trkpt>
      <trkpt lat="43.34389" lon="5.66041">
        <ele>364</ele>
        <time>2019-01-18T14:19:03.000Z</time>
      </trkpt>
      <trkpt lat="43.34389" lon="5.66042">
        <ele>364</ele>
        <time>2019-01-18T14:19:04.000Z</time>
      </trkpt>
      <trkpt lat="43.34389" lon="5.66042">
        <ele>364</ele>
        <time>2019-01-18T14:19:05.000Z</time>
      </trkpt>
      <trkpt lat="43.34388" lon="5.66041">
        <ele>364</ele>
        <time>2019-01-18T14:19:06.000Z</time>
      </trkpt>
      <trkpt lat="43.34388" lon="5.66041">
        <ele>364</ele>
        <time>2019-01-18T14:19:07.000Z</time>
      </trkpt>
      <trkpt lat="43.34388" lon="5.66041">
        <ele>364</ele>
        <time>2019-01-18T14:19:08.000Z</time>
      </trkpt>
      <trkpt lat="43.34388" lon="5.66041">
        <ele>364</ele>
        <time>2019-01-18T14:19:09.000Z</time>
      </trkpt>
      <trkpt lat="43.34388" lon="5.66041">
        <ele>364</ele>
        <time>2019-01-18T14:19:10.000Z</time>
      </trkpt>
      <trkpt lat="43.34388" lon="5.66041">
        <ele>364</ele>
        <time>2019-01-18T14:19:11.000Z</time>
      </trkpt>
      <trkpt lat="43.34388" lon="5.66041">
        <ele>364</ele>
        <time>2019-01-18T14:19:12.000Z</time>
      </trkpt>
      <trkpt lat="43.34388" lon="5.66041">
        <ele>364</ele>
        <time>2019-01-18T14:19:13.000Z</time>
      </trkpt>
      <trkpt lat="43.34388" lon="5.66041">
        <ele>364</ele>
        <time>2019-01-18T14:19:14.000Z</time>
      </trkpt>
      <trkpt lat="43.34388" lon="5.66041">
        <ele>364</ele>
        <time>2019-01-18T14:19:15.000Z</time>
      </trkpt>
      <trkpt lat="43.34388" lon="5.66041">
        <ele>364</ele>
        <time>2019-01-18T14:19:16.000Z</time>
      </trkpt>
      <trkpt lat="43.34388" lon="5.66041">
        <ele>364</ele>
        <time>2019-01-18T14:19:17.000Z</time>
      </trkpt>
      <trkpt lat="43.34388" lon="5.66041">
        <ele>364</ele>
        <time>2019-01-18T14:19:18.000Z</time>
      </trkpt>
      <trkpt lat="43.34388" lon="5.66041">
        <ele>364</ele>
        <time>2019-01-18T14:19:19.000Z</time>
      </trkpt>
      <trkpt lat="43.34388" lon="5.66041">
        <ele>364</ele>
        <time>2019-01-18T14:19:20.000Z</time>
      </trkpt>
      <trkpt lat="43.34388" lon="5.66041">
        <ele>364</ele>
        <time>2019-01-18T14:19:21.000Z</time>
      </trkpt>
      <trkpt lat="43.34388" lon="5.66041">
        <ele>364</ele>
        <time>2019-01-18T14:19:22.000Z</time>
      </trkpt>
      <trkpt lat="43.34389" lon="5.66041">
        <ele>364</ele>
        <time>2019-01-18T14:19:23.000Z</time>
      </trkpt>
      <trkpt lat="43.34389" lon="5.66041">
        <ele>364</ele>
        <time>2019-01-18T14:19:24.000Z</time>
      </trkpt>
      <trkpt lat="43.34388" lon="5.66042">
        <ele>364</ele>
        <time>2019-01-18T14:19:25.000Z</time>
      </trkpt>
      <trkpt lat="43.34388" lon="5.66042">
        <ele>364</ele>
        <time>2019-01-18T14:19:26.000Z</time>
      </trkpt>
      <trkpt lat="43.34388" lon="5.66042">
        <ele>364</ele>
        <time>2019-01-18T14:19:27.000Z</time>
      </trkpt>
      <trkpt lat="43.34388" lon="5.66042">
        <ele>364</ele>
        <time>2019-01-18T14:19:28.000Z</time>
      </trkpt>
      <trkpt lat="43.34387" lon="5.66042">
        <ele>364</ele>
        <time>2019-01-18T14:19:29.000Z</time>
      </trkpt>
      <trkpt lat="43.34387" lon="5.66042">
        <ele>364</ele>
        <time>2019-01-18T14:19:30.000Z</time>
      </trkpt>
      <trkpt lat="43.34386" lon="5.66042">
        <ele>364</ele>
        <time>2019-01-18T14:19:31.000Z</time>
      </trkpt>
      <trkpt lat="43.34386" lon="5.66042">
        <ele>364</ele>
        <time>2019-01-18T14:19:32.000Z</time>
      </trkpt>
      <trkpt lat="43.34386" lon="5.66043">
        <ele>364</ele>
        <time>2019-01-18T14:19:33.000Z</time>
      </trkpt>
      <trkpt lat="43.34385" lon="5.66043">
        <ele>364</ele>
        <time>2019-01-18T14:19:34.000Z</time>
      </trkpt>
      <trkpt lat="43.34385" lon="5.66043">
        <ele>364</ele>
        <time>2019-01-18T14:19:35.000Z</time>
      </trkpt>
      <trkpt lat="43.34385" lon="5.66043">
        <ele>364</ele>
        <time>2019-01-18T14:19:36.000Z</time>
      </trkpt>
      <trkpt lat="43.34385" lon="5.66043">
        <ele>364</ele>
        <time>2019-01-18T14:19:37.000Z</time>
      </trkpt>
      <trkpt lat="43.34384" lon="5.66043">
        <ele>364</ele>
        <time>2019-01-18T14:19:38.000Z</time>
      </trkpt>
      <trkpt lat="43.34384" lon="5.66043">
        <ele>364</ele>
        <time>2019-01-18T14:19:39.000Z</time>
      </trkpt>
      <trkpt lat="43.34384" lon="5.66043">
        <ele>364</ele>
        <time>2019-01-18T14:19:40.000Z</time>
      </trkpt>
      <trkpt lat="43.34384" lon="5.66043">
        <ele>364</ele>
        <time>2019-01-18T14:19:41.000Z</time>
      </trkpt>
      <trkpt lat="43.34384" lon="5.66043">
        <ele>364</ele>
        <time>2019-01-18T14:19:42.000Z</time>
      </trkpt>
      <trkpt lat="43.34384" lon="5.66043">
        <ele>364</ele>
        <time>2019-01-18T14:19:43.000Z</time>
      </trkpt>
      <trkpt lat="43.34384" lon="5.66044">
        <ele>364</ele>
        <time>2019-01-18T14:19:44.000Z</time>
      </trkpt>
      <trkpt lat="43.34384" lon="5.66044">
        <ele>364</ele>
        <time>2019-01-18T14:19:45.000Z</time>
      </trkpt>
      <trkpt lat="43.34384" lon="5.66044">
        <ele>364</ele>
        <time>2019-01-18T14:19:46.000Z</time>
      </trkpt>
      <trkpt lat="43.34384" lon="5.66045">
        <ele>364</ele>
        <time>2019-01-18T14:19:47.000Z</time>
      </trkpt>
      <trkpt lat="43.34384" lon="5.66045">
        <ele>364</ele>
        <time>2019-01-18T14:19:48.000Z</time>
      </trkpt>
      <trkpt lat="43.34383" lon="5.66045">
        <ele>364</ele>
        <time>2019-01-18T14:19:49.000Z</time>
      </trkpt>
      <trkpt lat="43.34382" lon="5.66045">
        <ele>364</ele>
        <time>2019-01-18T14:19:50.000Z</time>
      </trkpt>
      <trkpt lat="43.34382" lon="5.66044">
        <ele>364</ele>
        <time>2019-01-18T14:19:51.000Z</time>
      </trkpt>
      <trkpt lat="43.34381" lon="5.66044">
        <ele>364</ele>
        <time>2019-01-18T14:19:52.000Z</time>
      </trkpt>
      <trkpt lat="43.3438" lon="5.66044">
        <ele>363</ele>
        <time>2019-01-18T14:19:53.000Z</time>
      </trkpt>
      <trkpt lat="43.3438" lon="5.66044">
        <ele>363</ele>
        <time>2019-01-18T14:19:54.000Z</time>
      </trkpt>
      <trkpt lat="43.3438" lon="5.66045">
        <ele>363</ele>
        <time>2019-01-18T14:19:55.000Z</time>
      </trkpt>
      <trkpt lat="43.3438" lon="5.66046">
        <ele>363</ele>
        <time>2019-01-18T14:19:56.000Z</time>
      </trkpt>
      <trkpt lat="43.3438" lon="5.66048">
        <ele>363</ele>
        <time>2019-01-18T14:19:57.000Z</time>
      </trkpt>
      <trkpt lat="43.3438" lon="5.66049">
        <ele>363</ele>
        <time>2019-01-18T14:19:58.000Z</time>
      </trkpt>
      <trkpt lat="43.34381" lon="5.6605">
        <ele>363</ele>
        <time>2019-01-18T14:19:59.000Z</time>
      </trkpt>
      <trkpt lat="43.34382" lon="5.66051">
        <ele>363</ele>
        <time>2019-01-18T14:20:00.000Z</time>
      </trkpt>
      <trkpt lat="43.34382" lon="5.66052">
        <ele>363</ele>
        <time>2019-01-18T14:20:01.000Z</time>
      </trkpt>
      <trkpt lat="43.34383" lon="5.66053">
        <ele>363</ele>
        <time>2019-01-18T14:20:02.000Z</time>
      </trkpt>
      <trkpt lat="43.34383" lon="5.66053">
        <ele>363</ele>
        <time>2019-01-18T14:20:03.000Z</time>
      </trkpt>
      <trkpt lat="43.34383" lon="5.66053">
        <ele>362</ele>
        <time>2019-01-18T14:20:04.000Z</time>
      </trkpt>
      <trkpt lat="43.34383" lon="5.66053">
        <ele>362</ele>
        <time>2019-01-18T14:20:05.000Z</time>
      </trkpt>
      <trkpt lat="43.34383" lon="5.66053">
        <ele>362</ele>
        <time>2019-01-18T14:20:06.000Z</time>
      </trkpt>
      <trkpt lat="43.34383" lon="5.66053">
        <ele>362</ele>
        <time>2019-01-18T14:20:07.000Z</time>
      </trkpt>
      <trkpt lat="43.34383" lon="5.66052">
        <ele>362</ele>
        <time>2019-01-18T14:20:08.000Z</time>
      </trkpt>
      <trkpt lat="43.34383" lon="5.66052">
        <ele>362</ele>
        <time>2019-01-18T14:20:09.000Z</time>
      </trkpt>
      <trkpt lat="43.34383" lon="5.66052">
        <ele>362</ele>
        <time>2019-01-18T14:20:10.000Z</time>
      </trkpt>
      <trkpt lat="43.34383" lon="5.66052">
        <ele>362</ele>
        <time>2019-01-18T14:20:11.000Z</time>
      </trkpt>
      <trkpt lat="43.34383" lon="5.66052">
        <ele>362</ele>
        <time>2019-01-18T14:20:12.000Z</time>
      </trkpt>
      <trkpt lat="43.34383" lon="5.66052">
        <ele>361</ele>
        <time>2019-01-18T14:20:13.000Z</time>
      </trkpt>
      <trkpt lat="43.34383" lon="5.66052">
        <ele>361</ele>
        <time>2019-01-18T14:20:14.000Z</time>
      </trkpt>
      <trkpt lat="43.34383" lon="5.66051">
        <ele>361</ele>
        <time>2019-01-18T14:20:15.000Z</time>
      </trkpt>
      <trkpt lat="43.34383" lon="5.66051">
        <ele>361</ele>
        <time>2019-01-18T14:20:16.000Z</time>
      </trkpt>
      <trkpt lat="43.34382" lon="5.66051">
        <ele>361</ele>
        <time>2019-01-18T14:20:17.000Z</time>
      </trkpt>
      <trkpt lat="43.34382" lon="5.66051">
        <ele>361</ele>
        <time>2019-01-18T14:20:18.000Z</time>
      </trkpt>
      <trkpt lat="43.34383" lon="5.66051">
        <ele>361</ele>
        <time>2019-01-18T14:20:19.000Z</time>
      </trkpt>
      <trkpt lat="43.34383" lon="5.66051">
        <ele>361</ele>
        <time>2019-01-18T14:20:20.000Z</time>
      </trkpt>
      <trkpt lat="43.34383" lon="5.66051">
        <ele>361</ele>
        <time>2019-01-18T14:20:21.000Z</time>
      </trkpt>
      <trkpt lat="43.34383" lon="5.66051">
        <ele>361</ele>
        <time>2019-01-18T14:20:22.000Z</time>
      </trkpt>
      <trkpt lat="43.34384" lon="5.66051">
        <ele>361</ele>
        <time>2019-01-18T14:20:23.000Z</time>
      </trkpt>
      <trkpt lat="43.34384" lon="5.66052">
        <ele>360</ele>
        <time>2019-01-18T14:20:24.000Z</time>
      </trkpt>
      <trkpt lat="43.34385" lon="5.66052">
        <ele>360</ele>
        <time>2019-01-18T14:20:25.000Z</time>
      </trkpt>
      <trkpt lat="43.34386" lon="5.66052">
        <ele>360</ele>
        <time>2019-01-18T14:20:26.000Z</time>
      </trkpt>
      <trkpt lat="43.34386" lon="5.66052">
        <ele>360</ele>
        <time>2019-01-18T14:20:27.000Z</time>
      </trkpt>
      <trkpt lat="43.34387" lon="5.66052">
        <ele>360</ele>
        <time>2019-01-18T14:20:28.000Z</time>
      </trkpt>
      <trkpt lat="43.34387" lon="5.66052">
        <ele>360</ele>
        <time>2019-01-18T14:20:29.000Z</time>
      </trkpt>
      <trkpt lat="43.34387" lon="5.66052">
        <ele>360</ele>
        <time>2019-01-18T14:20:30.000Z</time>
      </trkpt>
      <trkpt lat="43.34387" lon="5.66052">
        <ele>360</ele>
        <time>2019-01-18T14:20:31.000Z</time>
      </trkpt>
      <trkpt lat="43.34387" lon="5.66052">
        <ele>360</ele>
        <time>2019-01-18T14:20:32.000Z</time>
      </trkpt>
      <trkpt lat="43.34387" lon="5.66052">
        <ele>360</ele>
        <time>2019-01-18T14:20:33.000Z</time>
      </trkpt>
      <trkpt lat="43.34387" lon="5.66052">
        <ele>359</ele>
        <time>2019-01-18T14:20:34.000Z</time>
      </trkpt>
      <trkpt lat="43.34386" lon="5.66052">
        <ele>359</ele>
        <time>2019-01-18T14:20:35.000Z</time>
      </trkpt>
      <trkpt lat="43.34387" lon="5.66052">
        <ele>359</ele>
        <time>2019-01-18T14:20:36.000Z</time>
      </trkpt>
      <trkpt lat="43.34387" lon="5.66051">
        <ele>359</ele>
        <time>2019-01-18T14:20:37.000Z</time>
      </trkpt>
      <trkpt lat="43.34387" lon="5.66051">
        <ele>359</ele>
        <time>2019-01-18T14:20:38.000Z</time>
      </trkpt>
      <trkpt lat="43.34387" lon="5.66051">
        <ele>359</ele>
        <time>2019-01-18T14:20:39.000Z</time>
      </trkpt>
      <trkpt lat="43.34387" lon="5.66051">
        <ele>359</ele>
        <time>2019-01-18T14:20:40.000Z</time>
      </trkpt>
      <trkpt lat="43.34387" lon="5.66051">
        <ele>359</ele>
        <time>2019-01-18T14:20:41.000Z</time>
      </trkpt>
      <trkpt lat="43.34386" lon="5.66051">
        <ele>359</ele>
        <time>2019-01-18T14:20:42.000Z</time>
      </trkpt>
      <trkpt lat="43.34387" lon="5.66051">
        <ele>359</ele>
        <time>2019-01-18T14:20:43.000Z</time>
      </trkpt>
      <trkpt lat="43.34388" lon="5.66052">
        <ele>359</ele>
        <time>2019-01-18T14:20:44.000Z</time>
      </trkpt>
      <trkpt lat="43.34389" lon="5.66053">
        <ele>359</ele>
        <time>2019-01-18T14:20:45.000Z</time>
      </trkpt>
      <trkpt lat="43.34389" lon="5.66054">
        <ele>359</ele>
        <time>2019-01-18T14:20:46.000Z</time>
      </trkpt>
      <trkpt lat="43.3439" lon="5.66054">
        <ele>359</ele>
        <time>2019-01-18T14:20:47.000Z</time>
      </trkpt>
      <trkpt lat="43.34391" lon="5.66055">
        <ele>358</ele>
        <time>2019-01-18T14:20:48.000Z</time>
      </trkpt>
      <trkpt lat="43.34392" lon="5.66055">
        <ele>358</ele>
        <time>2019-01-18T14:20:49.000Z</time>
      </trkpt>
      <trkpt lat="43.34392" lon="5.66056">
        <ele>358</ele>
        <time>2019-01-18T14:20:50.000Z</time>
      </trkpt>
      <trkpt lat="43.34392" lon="5.66056">
        <ele>358</ele>
        <time>2019-01-18T14:20:51.000Z</time>
      </trkpt>
      <trkpt lat="43.34393" lon="5.66056">
        <ele>358</ele>
        <time>2019-01-18T14:20:52.000Z</time>
      </trkpt>
      <trkpt lat="43.34393" lon="5.66056">
        <ele>358</ele>
        <time>2019-01-18T14:20:53.000Z</time>
      </trkpt>
      <trkpt lat="43.34393" lon="5.66056">
        <ele>358</ele>
        <time>2019-01-18T14:20:54.000Z</time>
      </trkpt>
      <trkpt lat="43.34393" lon="5.66056">
        <ele>358</ele>
        <time>2019-01-18T14:20:55.000Z</time>
      </trkpt>
      <trkpt lat="43.34393" lon="5.66056">
        <ele>358</ele>
        <time>2019-01-18T14:20:56.000Z</time>
      </trkpt>
      <trkpt lat="43.34393" lon="5.66056">
        <ele>358</ele>
        <time>2019-01-18T14:20:57.000Z</time>
      </trkpt>
      <trkpt lat="43.34393" lon="5.66056">
        <ele>358</ele>
        <time>2019-01-18T14:20:58.000Z</time>
      </trkpt>
      <trkpt lat="43.34393" lon="5.66056">
        <ele>358</ele>
        <time>2019-01-18T14:20:59.000Z</time>
      </trkpt>
      <trkpt lat="43.34393" lon="5.66056">
        <ele>358</ele>
        <time>2019-01-18T14:21:00.000Z</time>
      </trkpt>
      <trkpt lat="43.34393" lon="5.66056">
        <ele>357</ele>
        <time>2019-01-18T14:21:01.000Z</time>
      </trkpt>
      <trkpt lat="43.34393" lon="5.66056">
        <ele>357</ele>
        <time>2019-01-18T14:21:02.000Z</time>
      </trkpt>
      <trkpt lat="43.34393" lon="5.66056">
        <ele>357</ele>
        <time>2019-01-18T14:21:03.000Z</time>
      </trkpt>
      <trkpt lat="43.34393" lon="5.66056">
        <ele>357</ele>
        <time>2019-01-18T14:21:04.000Z</time>
      </trkpt>
      <trkpt lat="43.34393" lon="5.66056">
        <ele>357</ele>
        <time>2019-01-18T14:21:05.000Z</time>
      </trkpt>
      <trkpt lat="43.34393" lon="5.66056">
        <ele>357</ele>
        <time>2019-01-18T14:21:06.000Z</time>
      </trkpt>
      <trkpt lat="43.34393" lon="5.66056">
        <ele>357</ele>
        <time>2019-01-18T14:21:07.000Z</time>
      </trkpt>
      <trkpt lat="43.34393" lon="5.66055">
        <ele>357</ele>
        <time>2019-01-18T14:21:08.000Z</time>
      </trkpt>
      <trkpt lat="43.34393" lon="5.66055">
        <ele>357</ele>
        <time>2019-01-18T14:21:09.000Z</time>
      </trkpt>
      <trkpt lat="43.34394" lon="5.66056">
        <ele>357</ele>
        <time>2019-01-18T14:21:10.000Z</time>
      </trkpt>
      <trkpt lat="43.34394" lon="5.66056">
        <ele>357</ele>
        <time>2019-01-18T14:21:11.000Z</time>
      </trkpt>
      <trkpt lat="43.34394" lon="5.66056">
        <ele>357</ele>
        <time>2019-01-18T14:21:12.000Z</time>
      </trkpt>
      <trkpt lat="43.34394" lon="5.66056">
        <ele>357</ele>
        <time>2019-01-18T14:21:13.000Z</time>
      </trkpt>
      <trkpt lat="43.34395" lon="5.66056">
        <ele>357</ele>
        <time>2019-01-18T14:21:14.000Z</time>
      </trkpt>
      <trkpt lat="43.34395" lon="5.66056">
        <ele>357</ele>
        <time>2019-01-18T14:21:15.000Z</time>
      </trkpt>
      <trkpt lat="43.34395" lon="5.66056">
        <ele>357</ele>
        <time>2019-01-18T14:21:16.000Z</time>
      </trkpt>
      <trkpt lat="43.34395" lon="5.66056">
        <ele>357</ele>
        <time>2019-01-18T14:21:17.000Z</time>
      </trkpt>
      <trkpt lat="43.34395" lon="5.66056">
        <ele>357</ele>
        <time>2019-01-18T14:21:18.000Z</time>
      </trkpt>
      <trkpt lat="43.34395" lon="5.66056">
        <ele>357</ele>
        <time>2019-01-18T14:21:19.000Z</time>
      </trkpt>
      <trkpt lat="43.34395" lon="5.66056">
        <ele>357</ele>
        <time>2019-01-18T14:21:20.000Z</time>
      </trkpt>
      <trkpt lat="43.34395" lon="5.66056">
        <ele>357</ele>
        <time>2019-01-18T14:21:21.000Z</time>
      </trkpt>
      <trkpt lat="43.34395" lon="5.66056">
        <ele>357</ele>
        <time>2019-01-18T14:21:22.000Z</time>
      </trkpt>
      <trkpt lat="43.34395" lon="5.66056">
        <ele>357</ele>
        <time>2019-01-18T14:21:23.000Z</time>
      </trkpt>
      <trkpt lat="43.34395" lon="5.66056">
        <ele>357</ele>
        <time>2019-01-18T14:21:24.000Z</time>
      </trkpt>
      <trkpt lat="43.34395" lon="5.66056">
        <ele>357</ele>
        <time>2019-01-18T14:21:25.000Z</time>
      </trkpt>
      <trkpt lat="43.34395" lon="5.66056">
        <ele>357</ele>
        <time>2019-01-18T14:21:26.000Z</time>
      </trkpt>
      <trkpt lat="43.34395" lon="5.66056">
        <ele>357</ele>
        <time>2019-01-18T14:21:27.000Z</time>
      </trkpt>
      <trkpt lat="43.34395" lon="5.66056">
        <ele>357</ele>
        <time>2019-01-18T14:21:28.000Z</time>
      </trkpt>
      <trkpt lat="43.34395" lon="5.66056">
        <ele>357</ele>
        <time>2019-01-18T14:21:29.000Z</time>
      </trkpt>
      <trkpt lat="43.34395" lon="5.66056">
        <ele>357</ele>
        <time>2019-01-18T14:21:30.000Z</time>
      </trkpt>
      <trkpt lat="43.34395" lon="5.66056">
        <ele>357</ele>
        <time>2019-01-18T14:21:31.000Z</time>
      </trkpt>
      <trkpt lat="43.34394" lon="5.66056">
        <ele>357</ele>
        <time>2019-01-18T14:21:32.000Z</time>
      </trkpt>
      <trkpt lat="43.34394" lon="5.66056">
        <ele>357</ele>
        <time>2019-01-18T14:21:33.000Z</time>
      </trkpt>
      <trkpt lat="43.34393" lon="5.66056">
        <ele>357</ele>
        <time>2019-01-18T14:21:34.000Z</time>
      </trkpt>
      <trkpt lat="43.34392" lon="5.66055">
        <ele>357</ele>
        <time>2019-01-18T14:21:35.000Z</time>
      </trkpt>
      <trkpt lat="43.34391" lon="5.66055">
        <ele>357</ele>
        <time>2019-01-18T14:21:36.000Z</time>
      </trkpt>
      <trkpt lat="43.3439" lon="5.66055">
        <ele>357</ele>
        <time>2019-01-18T14:21:37.000Z</time>
      </trkpt>
      <trkpt lat="43.3439" lon="5.66054">
        <ele>357</ele>
        <time>2019-01-18T14:21:38.000Z</time>
      </trkpt>
      <trkpt lat="43.34389" lon="5.66054">
        <ele>357</ele>
        <time>2019-01-18T14:21:39.000Z</time>
      </trkpt>
      <trkpt lat="43.34389" lon="5.66054">
        <ele>357</ele>
        <time>2019-01-18T14:21:40.000Z</time>
      </trkpt>
      <trkpt lat="43.34389" lon="5.66053">
        <ele>357</ele>
        <time>2019-01-18T14:21:41.000Z</time>
      </trkpt>
      <trkpt lat="43.34389" lon="5.66053">
        <ele>357</ele>
        <time>2019-01-18T14:21:42.000Z</time>
      </trkpt>
      <trkpt lat="43.34389" lon="5.66053">
        <ele>357</ele>
        <time>2019-01-18T14:21:43.000Z</time>
      </trkpt>
      <trkpt lat="43.34388" lon="5.66053">
        <ele>356</ele>
        <time>2019-01-18T14:21:44.000Z</time>
      </trkpt>
      <trkpt lat="43.34388" lon="5.66053">
        <ele>356</ele>
        <time>2019-01-18T14:21:45.000Z</time>
      </trkpt>
      <trkpt lat="43.34388" lon="5.66053">
        <ele>356</ele>
        <time>2019-01-18T14:21:46.000Z</time>
      </trkpt>
      <trkpt lat="43.34388" lon="5.66053">
        <ele>356</ele>
        <time>2019-01-18T14:21:47.000Z</time>
      </trkpt>
      <trkpt lat="43.34388" lon="5.66053">
        <ele>356</ele>
        <time>2019-01-18T14:21:48.000Z</time>
      </trkpt>
      <trkpt lat="43.34388" lon="5.66053">
        <ele>356</ele>
        <time>2019-01-18T14:21:49.000Z</time>
      </trkpt>
      <trkpt lat="43.34388" lon="5.66053">
        <ele>356</ele>
        <time>2019-01-18T14:21:50.000Z</time>
      </trkpt>
      <trkpt lat="43.34388" lon="5.66053">
        <ele>356</ele>
        <time>2019-01-18T14:21:51.000Z</time>
      </trkpt>
      <trkpt lat="43.34388" lon="5.66053">
        <ele>356</ele>
        <time>2019-01-18T14:21:52.000Z</time>
      </trkpt>
      <trkpt lat="43.34388" lon="5.66053">
        <ele>356</ele>
        <time>2019-01-18T14:21:53.000Z</time>
      </trkpt>
      <trkpt lat="43.34388" lon="5.66053">
        <ele>356</ele>
        <time>2019-01-18T14:21:54.000Z</time>
      </trkpt>
      <trkpt lat="43.34388" lon="5.66053">
        <ele>356</ele>
        <time>2019-01-18T14:21:55.000Z</time>
      </trkpt>
      <trkpt lat="43.34388" lon="5.66053">
        <ele>356</ele>
        <time>2019-01-18T14:21:56.000Z</time>
      </trkpt>
      <trkpt lat="43.34387" lon="5.66053">
        <ele>356</ele>
        <time>2019-01-18T14:21:57.000Z</time>
      </trkpt>
      <trkpt lat="43.34388" lon="5.66053">
        <ele>356</ele>
        <time>2019-01-18T14:21:58.000Z</time>
      </trkpt>
      <trkpt lat="43.34388" lon="5.66053">
        <ele>356</ele>
        <time>2019-01-18T14:21:59.000Z</time>
      </trkpt>
      <trkpt lat="43.34388" lon="5.66053">
        <ele>356</ele>
        <time>2019-01-18T14:22:00.000Z</time>
      </trkpt>
      <trkpt lat="43.34388" lon="5.66053">
        <ele>356</ele>
        <time>2019-01-18T14:22:01.000Z</time>
      </trkpt>
      <trkpt lat="43.34388" lon="5.66053">
        <ele>356</ele>
        <time>2019-01-18T14:22:02.000Z</time>
      </trkpt>
      <trkpt lat="43.34389" lon="5.66053">
        <ele>356</ele>
        <time>2019-01-18T14:22:03.000Z</time>
      </trkpt>
      <trkpt lat="43.34389" lon="5.66053">
        <ele>356</ele>
        <time>2019-01-18T14:22:04.000Z</time>
      </trkpt>
      <trkpt lat="43.3439" lon="5.66054">
        <ele>356</ele>
        <time>2019-01-18T14:22:05.000Z</time>
      </trkpt>
      <trkpt lat="43.34391" lon="5.66054">
        <ele>356</ele>
        <time>2019-01-18T14:22:06.000Z</time>
      </trkpt>
      <trkpt lat="43.34391" lon="5.66054">
        <ele>356</ele>
        <time>2019-01-18T14:22:07.000Z</time>
      </trkpt>
      <trkpt lat="43.34391" lon="5.66054">
        <ele>356</ele>
        <time>2019-01-18T14:22:08.000Z</time>
      </trkpt>
      <trkpt lat="43.34391" lon="5.66054">
        <ele>355</ele>
        <time>2019-01-18T14:22:09.000Z</time>
      </trkpt>
      <trkpt lat="43.34391" lon="5.66053">
        <ele>355</ele>
        <time>2019-01-18T14:22:10.000Z</time>
      </trkpt>
      <trkpt lat="43.34391" lon="5.66053">
        <ele>355</ele>
        <time>2019-01-18T14:22:11.000Z</time>
      </trkpt>
      <trkpt lat="43.34391" lon="5.66051">
        <ele>355</ele>
        <time>2019-01-18T14:22:12.000Z</time>
      </trkpt>
      <trkpt lat="43.34391" lon="5.66051">
        <ele>355</ele>
        <time>2019-01-18T14:22:13.000Z</time>
      </trkpt>
      <trkpt lat="43.34391" lon="5.6605">
        <ele>355</ele>
        <time>2019-01-18T14:22:14.000Z</time>
      </trkpt>
      <trkpt lat="43.34392" lon="5.6605">
        <ele>355</ele>
        <time>2019-01-18T14:22:15.000Z</time>
      </trkpt>
      <trkpt lat="43.34392" lon="5.6605">
        <ele>355</ele>
        <time>2019-01-18T14:22:16.000Z</time>
      </trkpt>
      <trkpt lat="43.34392" lon="5.6605">
        <ele>355</ele>
        <time>2019-01-18T14:22:17.000Z</time>
      </trkpt>
      <trkpt lat="43.34392" lon="5.6605">
        <ele>355</ele>
        <time>2019-01-18T14:22:18.000Z</time>
      </trkpt>
      <trkpt lat="43.34391" lon="5.6605">
        <ele>355</ele>
        <time>2019-01-18T14:22:19.000Z</time>
      </trkpt>
      <trkpt lat="43.34392" lon="5.6605">
        <ele>355</ele>
        <time>2019-01-18T14:22:20.000Z</time>
      </trkpt>
      <trkpt lat="43.34392" lon="5.6605">
        <ele>355</ele>
        <time>2019-01-18T14:22:21.000Z</time>
      </trkpt>
      <trkpt lat="43.34392" lon="5.6605">
        <ele>355</ele>
        <time>2019-01-18T14:22:22.000Z</time>
      </trkpt>
      <trkpt lat="43.34392" lon="5.6605">
        <ele>355</ele>
        <time>2019-01-18T14:22:23.000Z</time>
      </trkpt>
      <trkpt lat="43.34392" lon="5.6605">
        <ele>355</ele>
        <time>2019-01-18T14:22:24.000Z</time>
      </trkpt>
      <trkpt lat="43.34391" lon="5.66051">
        <ele>355</ele>
        <time>2019-01-18T14:22:25.000Z</time>
      </trkpt>
      <trkpt lat="43.34391" lon="5.66052">
        <ele>355</ele>
        <time>2019-01-18T14:22:26.000Z</time>
      </trkpt>
      <trkpt lat="43.34391" lon="5.66052">
        <ele>355</ele>
        <time>2019-01-18T14:22:27.000Z</time>
      </trkpt>
      <trkpt lat="43.34391" lon="5.66052">
        <ele>355</ele>
        <time>2019-01-18T14:22:28.000Z</time>
      </trkpt>
      <trkpt lat="43.34391" lon="5.66052">
        <ele>355</ele>
        <time>2019-01-18T14:22:29.000Z</time>
      </trkpt>
      <trkpt lat="43.34391" lon="5.66052">
        <ele>355</ele>
        <time>2019-01-18T14:22:30.000Z</time>
      </trkpt>
      <trkpt lat="43.34391" lon="5.66052">
        <ele>355</ele>
        <time>2019-01-18T14:22:31.000Z</time>
      </trkpt>
      <trkpt lat="43.34391" lon="5.66052">
        <ele>355</ele>
        <time>2019-01-18T14:22:32.000Z</time>
      </trkpt>
      <trkpt lat="43.34391" lon="5.66052">
        <ele>355</ele>
        <time>2019-01-18T14:22:33.000Z</time>
      </trkpt>
      <trkpt lat="43.34391" lon="5.66052">
        <ele>355</ele>
        <time>2019-01-18T14:22:34.000Z</time>
      </trkpt>
      <trkpt lat="43.34391" lon="5.66052">
        <ele>355</ele>
        <time>2019-01-18T14:22:35.000Z</time>
      </trkpt>
      <trkpt lat="43.34391" lon="5.66052">
        <ele>355</ele>
        <time>2019-01-18T14:22:36.000Z</time>
      </trkpt>
      <trkpt lat="43.34391" lon="5.66052">
        <ele>355</ele>
        <time>2019-01-18T14:22:37.000Z</time>
      </trkpt>
      <trkpt lat="43.34391" lon="5.66052">
        <ele>355</ele>
        <time>2019-01-18T14:22:38.000Z</time>
      </trkpt>
      <trkpt lat="43.34391" lon="5.66052">
        <ele>355</ele>
        <time>2019-01-18T14:22:39.000Z</time>
      </trkpt>
      <trkpt lat="43.34391" lon="5.66052">
        <ele>355</ele>
        <time>2019-01-18T14:22:40.000Z</time>
      </trkpt>
      <trkpt lat="43.34391" lon="5.66052">
        <ele>355</ele>
        <time>2019-01-18T14:22:41.000Z</time>
      </trkpt>
      <trkpt lat="43.34391" lon="5.66052">
        <ele>354</ele>
        <time>2019-01-18T14:22:42.000Z</time>
      </trkpt>
      <trkpt lat="43.34392" lon="5.66052">
        <ele>354</ele>
        <time>2019-01-18T14:22:43.000Z</time>
      </trkpt>
      <trkpt lat="43.34392" lon="5.66052">
        <ele>354</ele>
        <time>2019-01-18T14:22:44.000Z</time>
      </trkpt>
      <trkpt lat="43.34392" lon="5.66052">
        <ele>354</ele>
        <time>2019-01-18T14:22:45.000Z</time>
      </trkpt>
      <trkpt lat="43.34392" lon="5.66052">
        <ele>354</ele>
        <time>2019-01-18T14:22:46.000Z</time>
      </trkpt>
      <trkpt lat="43.34392" lon="5.66052">
        <ele>354</ele>
        <time>2019-01-18T14:22:47.000Z</time>
      </trkpt>
      <trkpt lat="43.34392" lon="5.66052">
        <ele>354</ele>
        <time>2019-01-18T14:22:48.000Z</time>
      </trkpt>
      <trkpt lat="43.34392" lon="5.66052">
        <ele>354</ele>
        <time>2019-01-18T14:22:49.000Z</time>
      </trkpt>
      <trkpt lat="43.34392" lon="5.66052">
        <ele>354</ele>
        <time>2019-01-18T14:22:50.000Z</time>
      </trkpt>
      <trkpt lat="43.34392" lon="5.66052">
        <ele>354</ele>
        <time>2019-01-18T14:22:51.000Z</time>
      </trkpt>
      <trkpt lat="43.34392" lon="5.66052">
        <ele>354</ele>
        <time>2019-01-18T14:22:52.000Z</time>
      </trkpt>
      <trkpt lat="43.34392" lon="5.66052">
        <ele>354</ele>
        <time>2019-01-18T14:22:53.000Z</time>
      </trkpt>
      <trkpt lat="43.34392" lon="5.66051">
        <ele>354</ele>
        <time>2019-01-18T14:22:54.000Z</time>
      </trkpt>
      <trkpt lat="43.34385" lon="5.66053">
        <ele>350</ele>
        <time>2019-01-18T14:22:55.000Z</time>
      </trkpt>
      <trkpt lat="43.34386" lon="5.66054">
        <ele>350</ele>
        <time>2019-01-18T14:22:56.000Z</time>
      </trkpt>
      <trkpt lat="43.34386" lon="5.66054">
        <ele>350</ele>
        <time>2019-01-18T14:22:57.000Z</time>
      </trkpt>
      <trkpt lat="43.34386" lon="5.66054">
        <ele>350</ele>
        <time>2019-01-18T14:22:58.000Z</time>
      </trkpt>
      <trkpt lat="43.34386" lon="5.66054">
        <ele>351</ele>
        <time>2019-01-18T14:22:59.000Z</time>
      </trkpt>
      <trkpt lat="43.34387" lon="5.66054">
        <ele>351</ele>
        <time>2019-01-18T14:23:00.000Z</time>
      </trkpt>
      <trkpt lat="43.34387" lon="5.66054">
        <ele>351</ele>
        <time>2019-01-18T14:23:01.000Z</time>
      </trkpt>
      <trkpt lat="43.34387" lon="5.66054">
        <ele>351</ele>
        <time>2019-01-18T14:23:02.000Z</time>
      </trkpt>
      <trkpt lat="43.34387" lon="5.66054">
        <ele>351</ele>
        <time>2019-01-18T14:23:03.000Z</time>
      </trkpt>
      <trkpt lat="43.34388" lon="5.66054">
        <ele>351</ele>
        <time>2019-01-18T14:23:04.000Z</time>
      </trkpt>
      <trkpt lat="43.34388" lon="5.66054">
        <ele>351</ele>
        <time>2019-01-18T14:23:05.000Z</time>
      </trkpt>
      <trkpt lat="43.34388" lon="5.66054">
        <ele>351</ele>
        <time>2019-01-18T14:23:06.000Z</time>
      </trkpt>
      <trkpt lat="43.34389" lon="5.66054">
        <ele>351</ele>
        <time>2019-01-18T14:23:07.000Z</time>
      </trkpt>
      <trkpt lat="43.34389" lon="5.66054">
        <ele>351</ele>
        <time>2019-01-18T14:23:08.000Z</time>
      </trkpt>
      <trkpt lat="43.34389" lon="5.66054">
        <ele>351</ele>
        <time>2019-01-18T14:23:09.000Z</time>
      </trkpt>
      <trkpt lat="43.3439" lon="5.66054">
        <ele>350</ele>
        <time>2019-01-18T14:23:10.000Z</time>
      </trkpt>
      <trkpt lat="43.34389" lon="5.66054">
        <ele>350</ele>
        <time>2019-01-18T14:23:11.000Z</time>
      </trkpt>
      <trkpt lat="43.34389" lon="5.66054">
        <ele>350</ele>
        <time>2019-01-18T14:23:12.000Z</time>
      </trkpt>
      <trkpt lat="43.34389" lon="5.66054">
        <ele>350</ele>
        <time>2019-01-18T14:23:13.000Z</time>
      </trkpt>
      <trkpt lat="43.34389" lon="5.66054">
        <ele>350</ele>
        <time>2019-01-18T14:23:14.000Z</time>
      </trkpt>
      <trkpt lat="43.34389" lon="5.66054">
        <ele>350</ele>
        <time>2019-01-18T14:23:15.000Z</time>
      </trkpt>
      <trkpt lat="43.34389" lon="5.66054">
        <ele>350</ele>
        <time>2019-01-18T14:23:16.000Z</time>
      </trkpt>
      <trkpt lat="43.34389" lon="5.66054">
        <ele>350</ele>
        <time>2019-01-18T14:23:17.000Z</time>
      </trkpt>
      <trkpt lat="43.34389" lon="5.66053">
        <ele>350</ele>
        <time>2019-01-18T14:23:18.000Z</time>
      </trkpt>
      <trkpt lat="43.34389" lon="5.66053">
        <ele>350</ele>
        <time>2019-01-18T14:23:19.000Z</time>
      </trkpt>
      <trkpt lat="43.34389" lon="5.66053">
        <ele>350</ele>
        <time>2019-01-18T14:23:20.000Z</time>
      </trkpt>
      <trkpt lat="43.34389" lon="5.66053">
        <ele>350</ele>
        <time>2019-01-18T14:23:21.000Z</time>
      </trkpt>
      <trkpt lat="43.34389" lon="5.66053">
        <ele>350</ele>
        <time>2019-01-18T14:23:22.000Z</time>
      </trkpt>
      <trkpt lat="43.34389" lon="5.66053">
        <ele>350</ele>
        <time>2019-01-18T14:23:23.000Z</time>
      </trkpt>
      <trkpt lat="43.34389" lon="5.66053">
        <ele>351</ele>
        <time>2019-01-18T14:23:24.000Z</time>
      </trkpt>
      <trkpt lat="43.34389" lon="5.66053">
        <ele>351</ele>
        <time>2019-01-18T14:23:25.000Z</time>
      </trkpt>
      <trkpt lat="43.34389" lon="5.66054">
        <ele>351</ele>
        <time>2019-01-18T14:23:26.000Z</time>
      </trkpt>
      <trkpt lat="43.34389" lon="5.66053">
        <ele>351</ele>
        <time>2019-01-18T14:23:27.000Z</time>
      </trkpt>
      <trkpt lat="43.34389" lon="5.66054">
        <ele>351</ele>
        <time>2019-01-18T14:23:28.000Z</time>
      </trkpt>
      <trkpt lat="43.34389" lon="5.66054">
        <ele>351</ele>
        <time>2019-01-18T14:23:29.000Z</time>
      </trkpt>
      <trkpt lat="43.34389" lon="5.66054">
        <ele>351</ele>
        <time>2019-01-18T14:23:30.000Z</time>
      </trkpt>
      <trkpt lat="43.34389" lon="5.66054">
        <ele>351</ele>
        <time>2019-01-18T14:23:31.000Z</time>
      </trkpt>
      <trkpt lat="43.34389" lon="5.66054">
        <ele>351</ele>
        <time>2019-01-18T14:23:32.000Z</time>
      </trkpt>
      <trkpt lat="43.34389" lon="5.66054">
        <ele>352</ele>
        <time>2019-01-18T14:23:33.000Z</time>
      </trkpt>
      <trkpt lat="43.34389" lon="5.66054">
        <ele>352</ele>
        <time>2019-01-18T14:23:34.000Z</time>
      </trkpt>
      <trkpt lat="43.34389" lon="5.66054">
        <ele>352</ele>
        <time>2019-01-18T14:23:35.000Z</time>
      </trkpt>
      <trkpt lat="43.34389" lon="5.66054">
        <ele>352</ele>
        <time>2019-01-18T14:23:36.000Z</time>
      </trkpt>
      <trkpt lat="43.34388" lon="5.66054">
        <ele>352</ele>
        <time>2019-01-18T14:23:37.000Z</time>
      </trkpt>
      <trkpt lat="43.34388" lon="5.66053">
        <ele>352</ele>
        <time>2019-01-18T14:23:38.000Z</time>
      </trkpt>
      <trkpt lat="43.34387" lon="5.66053">
        <ele>352</ele>
        <time>2019-01-18T14:23:39.000Z</time>
      </trkpt>
      <trkpt lat="43.34387" lon="5.66053">
        <ele>352</ele>
        <time>2019-01-18T14:23:40.000Z</time>
      </trkpt>
      <trkpt lat="43.34387" lon="5.66053">
        <ele>352</ele>
        <time>2019-01-18T14:23:41.000Z</time>
      </trkpt>
      <trkpt lat="43.34387" lon="5.66053">
        <ele>352</ele>
        <time>2019-01-18T14:23:42.000Z</time>
      </trkpt>
      <trkpt lat="43.34387" lon="5.66053">
        <ele>352</ele>
        <time>2019-01-18T14:23:43.000Z</time>
      </trkpt>
      <trkpt lat="43.34387" lon="5.66053">
        <ele>352</ele>
        <time>2019-01-18T14:23:44.000Z</time>
      </trkpt>
      <trkpt lat="43.34387" lon="5.66053">
        <ele>352</ele>
        <time>2019-01-18T14:23:45.000Z</time>
      </trkpt>
      <trkpt lat="43.34387" lon="5.66053">
        <ele>352</ele>
        <time>2019-01-18T14:23:46.000Z</time>
      </trkpt>
      <trkpt lat="43.34387" lon="5.66053">
        <ele>352</ele>
        <time>2019-01-18T14:23:47.000Z</time>
      </trkpt>
      <trkpt lat="43.34387" lon="5.66053">
        <ele>353</ele>
        <time>2019-01-18T14:23:48.000Z</time>
      </trkpt>
      <trkpt lat="43.34387" lon="5.66053">
        <ele>353</ele>
        <time>2019-01-18T14:23:49.000Z</time>
      </trkpt>
      <trkpt lat="43.34387" lon="5.66053">
        <ele>353</ele>
        <time>2019-01-18T14:23:50.000Z</time>
      </trkpt>
      <trkpt lat="43.34387" lon="5.66053">
        <ele>353</ele>
        <time>2019-01-18T14:23:51.000Z</time>
      </trkpt>
      <trkpt lat="43.34387" lon="5.66053">
        <ele>353</ele>
        <time>2019-01-18T14:23:52.000Z</time>
      </trkpt>
      <trkpt lat="43.34387" lon="5.66053">
        <ele>353</ele>
        <time>2019-01-18T14:23:53.000Z</time>
      </trkpt>
      <trkpt lat="43.34387" lon="5.66053">
        <ele>353</ele>
        <time>2019-01-18T14:23:54.000Z</time>
      </trkpt>
      <trkpt lat="43.34387" lon="5.66053">
        <ele>353</ele>
        <time>2019-01-18T14:23:55.000Z</time>
      </trkpt>
      <trkpt lat="43.34387" lon="5.66053">
        <ele>353</ele>
        <time>2019-01-18T14:23:56.000Z</time>
      </trkpt>
      <trkpt lat="43.34387" lon="5.66053">
        <ele>353</ele>
        <time>2019-01-18T14:23:57.000Z</time>
      </trkpt>
      <trkpt lat="43.34388" lon="5.66053">
        <ele>353</ele>
        <time>2019-01-18T14:23:58.000Z</time>
      </trkpt>
      <trkpt lat="43.34387" lon="5.66053">
        <ele>353</ele>
        <time>2019-01-18T14:23:59.000Z</time>
      </trkpt>
      <trkpt lat="43.34388" lon="5.66053">
        <ele>354</ele>
        <time>2019-01-18T14:24:00.000Z</time>
      </trkpt>
      <trkpt lat="43.34388" lon="5.66053">
        <ele>354</ele>
        <time>2019-01-18T14:24:01.000Z</time>
      </trkpt>
      <trkpt lat="43.34388" lon="5.66053">
        <ele>354</ele>
        <time>2019-01-18T14:24:02.000Z</time>
      </trkpt>
      <trkpt lat="43.34387" lon="5.66053">
        <ele>354</ele>
        <time>2019-01-18T14:24:03.000Z</time>
      </trkpt>
      <trkpt lat="43.34387" lon="5.66053">
        <ele>354</ele>
        <time>2019-01-18T14:24:04.000Z</time>
      </trkpt>
      <trkpt lat="43.34387" lon="5.66053">
        <ele>354</ele>
        <time>2019-01-18T14:24:05.000Z</time>
      </trkpt>
      <trkpt lat="43.34388" lon="5.66053">
        <ele>354</ele>
        <time>2019-01-18T14:24:06.000Z</time>
      </trkpt>
      <trkpt lat="43.34388" lon="5.66053">
        <ele>353</ele>
        <time>2019-01-18T14:24:07.000Z</time>
      </trkpt>
      <trkpt lat="43.34389" lon="5.66053">
        <ele>353</ele>
        <time>2019-01-18T14:24:08.000Z</time>
      </trkpt>
      <trkpt lat="43.34389" lon="5.66054">
        <ele>353</ele>
        <time>2019-01-18T14:24:09.000Z</time>
      </trkpt>
      <trkpt lat="43.34389" lon="5.66054">
        <ele>353</ele>
        <time>2019-01-18T14:24:10.000Z</time>
      </trkpt>
      <trkpt lat="43.34389" lon="5.66054">
        <ele>353</ele>
        <time>2019-01-18T14:24:11.000Z</time>
      </trkpt>
      <trkpt lat="43.3439" lon="5.66054">
        <ele>353</ele>
        <time>2019-01-18T14:24:12.000Z</time>
      </trkpt>
      <trkpt lat="43.3439" lon="5.66054">
        <ele>353</ele>
        <time>2019-01-18T14:24:13.000Z</time>
      </trkpt>
      <trkpt lat="43.34391" lon="5.66054">
        <ele>353</ele>
        <time>2019-01-18T14:24:14.000Z</time>
      </trkpt>
      <trkpt lat="43.34391" lon="5.66054">
        <ele>353</ele>
        <time>2019-01-18T14:24:15.000Z</time>
      </trkpt>
      <trkpt lat="43.34392" lon="5.66055">
        <ele>353</ele>
        <time>2019-01-18T14:24:16.000Z</time>
      </trkpt>
      <trkpt lat="43.34392" lon="5.66055">
        <ele>353</ele>
        <time>2019-01-18T14:24:17.000Z</time>
      </trkpt>
      <trkpt lat="43.34393" lon="5.66055">
        <ele>353</ele>
        <time>2019-01-18T14:24:18.000Z</time>
      </trkpt>
      <trkpt lat="43.34393" lon="5.66056">
        <ele>353</ele>
        <time>2019-01-18T14:24:19.000Z</time>
      </trkpt>
      <trkpt lat="43.34394" lon="5.66056">
        <ele>353</ele>
        <time>2019-01-18T14:24:20.000Z</time>
      </trkpt>
      <trkpt lat="43.34394" lon="5.66056">
        <ele>353</ele>
        <time>2019-01-18T14:24:21.000Z</time>
      </trkpt>
      <trkpt lat="43.34395" lon="5.66056">
        <ele>353</ele>
        <time>2019-01-18T14:24:22.000Z</time>
      </trkpt>
      <trkpt lat="43.34395" lon="5.66056">
        <ele>353</ele>
        <time>2019-01-18T14:24:23.000Z</time>
      </trkpt>
      <trkpt lat="43.34395" lon="5.66056">
        <ele>353</ele>
        <time>2019-01-18T14:24:24.000Z</time>
      </trkpt>
      <trkpt lat="43.34395" lon="5.66056">
        <ele>354</ele>
        <time>2019-01-18T14:24:25.000Z</time>
      </trkpt>
      <trkpt lat="43.34396" lon="5.66057">
        <ele>354</ele>
        <time>2019-01-18T14:24:26.000Z</time>
      </trkpt>
      <trkpt lat="43.34397" lon="5.66058">
        <ele>354</ele>
        <time>2019-01-18T14:24:27.000Z</time>
      </trkpt>
      <trkpt lat="43.34398" lon="5.66058">
        <ele>354</ele>
        <time>2019-01-18T14:24:28.000Z</time>
      </trkpt>
      <trkpt lat="43.34399" lon="5.66058">
        <ele>354</ele>
        <time>2019-01-18T14:24:29.000Z</time>
      </trkpt>
      <trkpt lat="43.34399" lon="5.66058">
        <ele>354</ele>
        <time>2019-01-18T14:24:30.000Z</time>
      </trkpt>
      <trkpt lat="43.344" lon="5.66059">
        <ele>354</ele>
        <time>2019-01-18T14:24:31.000Z</time>
      </trkpt>
      <trkpt lat="43.344" lon="5.66059">
        <ele>354</ele>
        <time>2019-01-18T14:24:32.000Z</time>
      </trkpt>
      <trkpt lat="43.344" lon="5.66059">
        <ele>354</ele>
        <time>2019-01-18T14:24:33.000Z</time>
      </trkpt>
      <trkpt lat="43.34401" lon="5.66059">
        <ele>354</ele>
        <time>2019-01-18T14:24:34.000Z</time>
      </trkpt>
      <trkpt lat="43.34402" lon="5.6606">
        <ele>354</ele>
        <time>2019-01-18T14:24:35.000Z</time>
      </trkpt>
      <trkpt lat="43.34403" lon="5.66061">
        <ele>354</ele>
        <time>2019-01-18T14:24:36.000Z</time>
      </trkpt>
      <trkpt lat="43.34404" lon="5.66062">
        <ele>354</ele>
        <time>2019-01-18T14:24:37.000Z</time>
      </trkpt>
      <trkpt lat="43.34405" lon="5.66063">
        <ele>354</ele>
        <time>2019-01-18T14:24:38.000Z</time>
      </trkpt>
      <trkpt lat="43.34406" lon="5.66063">
        <ele>354</ele>
        <time>2019-01-18T14:24:39.000Z</time>
      </trkpt>
      <trkpt lat="43.34407" lon="5.66064">
        <ele>354</ele>
        <time>2019-01-18T14:24:40.000Z</time>
      </trkpt>
      <trkpt lat="43.34408" lon="5.66064">
        <ele>354</ele>
        <time>2019-01-18T14:24:41.000Z</time>
      </trkpt>
      <trkpt lat="43.34409" lon="5.66064">
        <ele>354</ele>
        <time>2019-01-18T14:24:42.000Z</time>
      </trkpt>
      <trkpt lat="43.3441" lon="5.66065">
        <ele>354</ele>
        <time>2019-01-18T14:24:43.000Z</time>
      </trkpt>
      <trkpt lat="43.34411" lon="5.66066">
        <ele>354</ele>
        <time>2019-01-18T14:24:44.000Z</time>
      </trkpt>
      <trkpt lat="43.34412" lon="5.66067">
        <ele>355</ele>
        <time>2019-01-18T14:24:45.000Z</time>
      </trkpt>
      <trkpt lat="43.34413" lon="5.66067">
        <ele>355</ele>
        <time>2019-01-18T14:24:46.000Z</time>
      </trkpt>
      <trkpt lat="43.34414" lon="5.66068">
        <ele>355</ele>
        <time>2019-01-18T14:24:47.000Z</time>
      </trkpt>
      <trkpt lat="43.34414" lon="5.66069">
        <ele>355</ele>
        <time>2019-01-18T14:24:48.000Z</time>
      </trkpt>
      <trkpt lat="43.34414" lon="5.66069">
        <ele>355</ele>
        <time>2019-01-18T14:24:49.000Z</time>
      </trkpt>
      <trkpt lat="43.34415" lon="5.66069">
        <ele>355</ele>
        <time>2019-01-18T14:24:50.000Z</time>
      </trkpt>
      <trkpt lat="43.34415" lon="5.6607">
        <ele>355</ele>
        <time>2019-01-18T14:24:51.000Z</time>
      </trkpt>
      <trkpt lat="43.34416" lon="5.66071">
        <ele>355</ele>
        <time>2019-01-18T14:24:52.000Z</time>
      </trkpt>
      <trkpt lat="43.34417" lon="5.66071">
        <ele>355</ele>
        <time>2019-01-18T14:24:53.000Z</time>
      </trkpt>
      <trkpt lat="43.34417" lon="5.66072">
        <ele>355</ele>
        <time>2019-01-18T14:24:54.000Z</time>
      </trkpt>
      <trkpt lat="43.34418" lon="5.66072">
        <ele>355</ele>
        <time>2019-01-18T14:24:55.000Z</time>
      </trkpt>
      <trkpt lat="43.34418" lon="5.66072">
        <ele>355</ele>
        <time>2019-01-18T14:24:56.000Z</time>
      </trkpt>
      <trkpt lat="43.34418" lon="5.66072">
        <ele>355</ele>
        <time>2019-01-18T14:24:57.000Z</time>
      </trkpt>
      <trkpt lat="43.34418" lon="5.66072">
        <ele>355</ele>
        <time>2019-01-18T14:24:58.000Z</time>
      </trkpt>
      <trkpt lat="43.34418" lon="5.66072">
        <ele>355</ele>
        <time>2019-01-18T14:24:59.000Z</time>
      </trkpt>
      <trkpt lat="43.34418" lon="5.66072">
        <ele>355</ele>
        <time>2019-01-18T14:25:00.000Z</time>
      </trkpt>
      <trkpt lat="43.34418" lon="5.66072">
        <ele>355</ele>
        <time>2019-01-18T14:25:01.000Z</time>
      </trkpt>
      <trkpt lat="43.34418" lon="5.66072">
        <ele>355</ele>
        <time>2019-01-18T14:25:02.000Z</time>
      </trkpt>
      <trkpt lat="43.34418" lon="5.66072">
        <ele>355</ele>
        <time>2019-01-18T14:25:03.000Z</time>
      </trkpt>
      <trkpt lat="43.34418" lon="5.66072">
        <ele>355</ele>
        <time>2019-01-18T14:25:04.000Z</time>
      </trkpt>
      <trkpt lat="43.34418" lon="5.66072">
        <ele>355</ele>
        <time>2019-01-18T14:25:05.000Z</time>
      </trkpt>
      <trkpt lat="43.34418" lon="5.66072">
        <ele>355</ele>
        <time>2019-01-18T14:25:06.000Z</time>
      </trkpt>
      <trkpt lat="43.34418" lon="5.66072">
        <ele>355</ele>
        <time>2019-01-18T14:25:07.000Z</time>
      </trkpt>
      <trkpt lat="43.34418" lon="5.66072">
        <ele>355</ele>
        <time>2019-01-18T14:25:08.000Z</time>
      </trkpt>
      <trkpt lat="43.34418" lon="5.66072">
        <ele>355</ele>
        <time>2019-01-18T14:25:09.000Z</time>
      </trkpt>
      <trkpt lat="43.34418" lon="5.66072">
        <ele>355</ele>
        <time>2019-01-18T14:25:10.000Z</time>
      </trkpt>
      <trkpt lat="43.34418" lon="5.66072">
        <ele>355</ele>
        <time>2019-01-18T14:25:11.000Z</time>
      </trkpt>
      <trkpt lat="43.34418" lon="5.66072">
        <ele>355</ele>
        <time>2019-01-18T14:25:12.000Z</time>
      </trkpt>
      <trkpt lat="43.34418" lon="5.66072">
        <ele>356</ele>
        <time>2019-01-18T14:25:13.000Z</time>
      </trkpt>
      <trkpt lat="43.34418" lon="5.66072">
        <ele>356</ele>
        <time>2019-01-18T14:25:14.000Z</time>
      </trkpt>
      <trkpt lat="43.34418" lon="5.66073">
        <ele>356</ele>
        <time>2019-01-18T14:25:15.000Z</time>
      </trkpt>
      <trkpt lat="43.34419" lon="5.66074">
        <ele>356</ele>
        <time>2019-01-18T14:25:16.000Z</time>
      </trkpt>
      <trkpt lat="43.34419" lon="5.66074">
        <ele>356</ele>
        <time>2019-01-18T14:25:17.000Z</time>
      </trkpt>
      <trkpt lat="43.3442" lon="5.66075">
        <ele>356</ele>
        <time>2019-01-18T14:25:18.000Z</time>
      </trkpt>
      <trkpt lat="43.3442" lon="5.66076">
        <ele>356</ele>
        <time>2019-01-18T14:25:19.000Z</time>
      </trkpt>
      <trkpt lat="43.34421" lon="5.66076">
        <ele>356</ele>
        <time>2019-01-18T14:25:20.000Z</time>
      </trkpt>
      <trkpt lat="43.34422" lon="5.66077">
        <ele>356</ele>
        <time>2019-01-18T14:25:21.000Z</time>
      </trkpt>
      <trkpt lat="43.34423" lon="5.66077">
        <ele>356</ele>
        <time>2019-01-18T14:25:22.000Z</time>
      </trkpt>
      <trkpt lat="43.34423" lon="5.66078">
        <ele>356</ele>
        <time>2019-01-18T14:25:23.000Z</time>
      </trkpt>
      <trkpt lat="43.34424" lon="5.66078">
        <ele>356</ele>
        <time>2019-01-18T14:25:24.000Z</time>
      </trkpt>
      <trkpt lat="43.34425" lon="5.66079">
        <ele>356</ele>
        <time>2019-01-18T14:25:25.000Z</time>
      </trkpt>
      <trkpt lat="43.34426" lon="5.6608">
        <ele>356</ele>
        <time>2019-01-18T14:25:26.000Z</time>
      </trkpt>
      <trkpt lat="43.34427" lon="5.66081">
        <ele>356</ele>
        <time>2019-01-18T14:25:27.000Z</time>
      </trkpt>
      <trkpt lat="43.34428" lon="5.66081">
        <ele>356</ele>
        <time>2019-01-18T14:25:28.000Z</time>
      </trkpt>
      <trkpt lat="43.34429" lon="5.66082">
        <ele>356</ele>
        <time>2019-01-18T14:25:29.000Z</time>
      </trkpt>
      <trkpt lat="43.3443" lon="5.66083">
        <ele>356</ele>
        <time>2019-01-18T14:25:30.000Z</time>
      </trkpt>
      <trkpt lat="43.3443" lon="5.66083">
        <ele>357</ele>
        <time>2019-01-18T14:25:31.000Z</time>
      </trkpt>
      <trkpt lat="43.34431" lon="5.66084">
        <ele>357</ele>
        <time>2019-01-18T14:25:32.000Z</time>
      </trkpt>
      <trkpt lat="43.34432" lon="5.66085">
        <ele>357</ele>
        <time>2019-01-18T14:25:33.000Z</time>
      </trkpt>
      <trkpt lat="43.34433" lon="5.66085">
        <ele>357</ele>
        <time>2019-01-18T14:25:34.000Z</time>
      </trkpt>
      <trkpt lat="43.34433" lon="5.66086">
        <ele>357</ele>
        <time>2019-01-18T14:25:35.000Z</time>
      </trkpt>
      <trkpt lat="43.34434" lon="5.66086">
        <ele>357</ele>
        <time>2019-01-18T14:25:36.000Z</time>
      </trkpt>
      <trkpt lat="43.34434" lon="5.66087">
        <ele>357</ele>
        <time>2019-01-18T14:25:37.000Z</time>
      </trkpt>
      <trkpt lat="43.34435" lon="5.66088">
        <ele>357</ele>
        <time>2019-01-18T14:25:38.000Z</time>
      </trkpt>
      <trkpt lat="43.34435" lon="5.66088">
        <ele>357</ele>
        <time>2019-01-18T14:25:39.000Z</time>
      </trkpt>
      <trkpt lat="43.34436" lon="5.66089">
        <ele>357</ele>
        <time>2019-01-18T14:25:40.000Z</time>
      </trkpt>
      <trkpt lat="43.34437" lon="5.6609">
        <ele>358</ele>
        <time>2019-01-18T14:25:41.000Z</time>
      </trkpt>
      <trkpt lat="43.34437" lon="5.6609">
        <ele>358</ele>
        <time>2019-01-18T14:25:42.000Z</time>
      </trkpt>
      <trkpt lat="43.34437" lon="5.66091">
        <ele>358</ele>
        <time>2019-01-18T14:25:43.000Z</time>
      </trkpt>
      <trkpt lat="43.34438" lon="5.66091">
        <ele>358</ele>
        <time>2019-01-18T14:25:44.000Z</time>
      </trkpt>
      <trkpt lat="43.34438" lon="5.66092">
        <ele>358</ele>
        <time>2019-01-18T14:25:45.000Z</time>
      </trkpt>
      <trkpt lat="43.34439" lon="5.66092">
        <ele>358</ele>
        <time>2019-01-18T14:25:46.000Z</time>
      </trkpt>
      <trkpt lat="43.34439" lon="5.66092">
        <ele>358</ele>
        <time>2019-01-18T14:25:47.000Z</time>
      </trkpt>
      <trkpt lat="43.34439" lon="5.66092">
        <ele>358</ele>
        <time>2019-01-18T14:25:48.000Z</time>
      </trkpt>
      <trkpt lat="43.34439" lon="5.66092">
        <ele>358</ele>
        <time>2019-01-18T14:25:49.000Z</time>
      </trkpt>
      <trkpt lat="43.34439" lon="5.66092">
        <ele>358</ele>
        <time>2019-01-18T14:25:50.000Z</time>
      </trkpt>
      <trkpt lat="43.34439" lon="5.66092">
        <ele>358</ele>
        <time>2019-01-18T14:25:51.000Z</time>
      </trkpt>
      <trkpt lat="43.34439" lon="5.66092">
        <ele>359</ele>
        <time>2019-01-18T14:25:52.000Z</time>
      </trkpt>
      <trkpt lat="43.34439" lon="5.66092">
        <ele>359</ele>
        <time>2019-01-18T14:25:53.000Z</time>
      </trkpt>
      <trkpt lat="43.34439" lon="5.66092">
        <ele>359</ele>
        <time>2019-01-18T14:25:54.000Z</time>
      </trkpt>
      <trkpt lat="43.34439" lon="5.66093">
        <ele>359</ele>
        <time>2019-01-18T14:25:55.000Z</time>
      </trkpt>
      <trkpt lat="43.3444" lon="5.66093">
        <ele>359</ele>
        <time>2019-01-18T14:25:56.000Z</time>
      </trkpt>
      <trkpt lat="43.3444" lon="5.66093">
        <ele>359</ele>
        <time>2019-01-18T14:25:57.000Z</time>
      </trkpt>
      <trkpt lat="43.34441" lon="5.66094">
        <ele>359</ele>
        <time>2019-01-18T14:25:58.000Z</time>
      </trkpt>
      <trkpt lat="43.34441" lon="5.66095">
        <ele>359</ele>
        <time>2019-01-18T14:25:59.000Z</time>
      </trkpt>
      <trkpt lat="43.34442" lon="5.66096">
        <ele>359</ele>
        <time>2019-01-18T14:26:00.000Z</time>
      </trkpt>
      <trkpt lat="43.34442" lon="5.66096">
        <ele>359</ele>
        <time>2019-01-18T14:26:01.000Z</time>
      </trkpt>
      <trkpt lat="43.34442" lon="5.66096">
        <ele>359</ele>
        <time>2019-01-18T14:26:02.000Z</time>
      </trkpt>
      <trkpt lat="43.34443" lon="5.66097">
        <ele>359</ele>
        <time>2019-01-18T14:26:03.000Z</time>
      </trkpt>
      <trkpt lat="43.34443" lon="5.66097">
        <ele>359</ele>
        <time>2019-01-18T14:26:04.000Z</time>
      </trkpt>
      <trkpt lat="43.34443" lon="5.66097">
        <ele>359</ele>
        <time>2019-01-18T14:26:05.000Z</time>
      </trkpt>
      <trkpt lat="43.34443" lon="5.66097">
        <ele>359</ele>
        <time>2019-01-18T14:26:06.000Z</time>
      </trkpt>
      <trkpt lat="43.34444" lon="5.66097">
        <ele>360</ele>
        <time>2019-01-18T14:26:07.000Z</time>
      </trkpt>
      <trkpt lat="43.34444" lon="5.66097">
        <ele>360</ele>
        <time>2019-01-18T14:26:08.000Z</time>
      </trkpt>
      <trkpt lat="43.34445" lon="5.66096">
        <ele>360</ele>
        <time>2019-01-18T14:26:09.000Z</time>
      </trkpt>
      <trkpt lat="43.34445" lon="5.66096">
        <ele>360</ele>
        <time>2019-01-18T14:26:10.000Z</time>
      </trkpt>
      <trkpt lat="43.34446" lon="5.66096">
        <ele>360</ele>
        <time>2019-01-18T14:26:11.000Z</time>
      </trkpt>
      <trkpt lat="43.34447" lon="5.66097">
        <ele>360</ele>
        <time>2019-01-18T14:26:12.000Z</time>
      </trkpt>
      <trkpt lat="43.34447" lon="5.66097">
        <ele>360</ele>
        <time>2019-01-18T14:26:13.000Z</time>
      </trkpt>
      <trkpt lat="43.34448" lon="5.66097">
        <ele>360</ele>
        <time>2019-01-18T14:26:14.000Z</time>
      </trkpt>
      <trkpt lat="43.34448" lon="5.66097">
        <ele>360</ele>
        <time>2019-01-18T14:26:15.000Z</time>
      </trkpt>
      <trkpt lat="43.34449" lon="5.66098">
        <ele>360</ele>
        <time>2019-01-18T14:26:16.000Z</time>
      </trkpt>
      <trkpt lat="43.34449" lon="5.66098">
        <ele>360</ele>
        <time>2019-01-18T14:26:17.000Z</time>
      </trkpt>
      <trkpt lat="43.34449" lon="5.66098">
        <ele>360</ele>
        <time>2019-01-18T14:26:18.000Z</time>
      </trkpt>
      <trkpt lat="43.3445" lon="5.66098">
        <ele>360</ele>
        <time>2019-01-18T14:26:19.000Z</time>
      </trkpt>
      <trkpt lat="43.3445" lon="5.66098">
        <ele>360</ele>
        <time>2019-01-18T14:26:20.000Z</time>
      </trkpt>
      <trkpt lat="43.34451" lon="5.66098">
        <ele>360</ele>
        <time>2019-01-18T14:26:21.000Z</time>
      </trkpt>
      <trkpt lat="43.34451" lon="5.66098">
        <ele>361</ele>
        <time>2019-01-18T14:26:22.000Z</time>
      </trkpt>
      <trkpt lat="43.34451" lon="5.66098">
        <ele>361</ele>
        <time>2019-01-18T14:26:23.000Z</time>
      </trkpt>
      <trkpt lat="43.34451" lon="5.66098">
        <ele>361</ele>
        <time>2019-01-18T14:26:24.000Z</time>
      </trkpt>
      <trkpt lat="43.34452" lon="5.66098">
        <ele>361</ele>
        <time>2019-01-18T14:26:25.000Z</time>
      </trkpt>
      <trkpt lat="43.34452" lon="5.66098">
        <ele>361</ele>
        <time>2019-01-18T14:26:26.000Z</time>
      </trkpt>
      <trkpt lat="43.34452" lon="5.66098">
        <ele>361</ele>
        <time>2019-01-18T14:26:27.000Z</time>
      </trkpt>
      <trkpt lat="43.34452" lon="5.66098">
        <ele>361</ele>
        <time>2019-01-18T14:26:28.000Z</time>
      </trkpt>
      <trkpt lat="43.34453" lon="5.66098">
        <ele>361</ele>
        <time>2019-01-18T14:26:29.000Z</time>
      </trkpt>
      <trkpt lat="43.34453" lon="5.66098">
        <ele>361</ele>
        <time>2019-01-18T14:26:30.000Z</time>
      </trkpt>
      <trkpt lat="43.34454" lon="5.66098">
        <ele>361</ele>
        <time>2019-01-18T14:26:31.000Z</time>
      </trkpt>
      <trkpt lat="43.34454" lon="5.66098">
        <ele>361</ele>
        <time>2019-01-18T14:26:32.000Z</time>
      </trkpt>
      <trkpt lat="43.34455" lon="5.66099">
        <ele>361</ele>
        <time>2019-01-18T14:26:33.000Z</time>
      </trkpt>
      <trkpt lat="43.34456" lon="5.66099">
        <ele>362</ele>
        <time>2019-01-18T14:26:34.000Z</time>
      </trkpt>
      <trkpt lat="43.34456" lon="5.661">
        <ele>362</ele>
        <time>2019-01-18T14:26:35.000Z</time>
      </trkpt>
      <trkpt lat="43.34457" lon="5.661">
        <ele>362</ele>
        <time>2019-01-18T14:26:36.000Z</time>
      </trkpt>
      <trkpt lat="43.34457" lon="5.661">
        <ele>362</ele>
        <time>2019-01-18T14:26:37.000Z</time>
      </trkpt>
      <trkpt lat="43.34457" lon="5.661">
        <ele>362</ele>
        <time>2019-01-18T14:26:38.000Z</time>
      </trkpt>
      <trkpt lat="43.34458" lon="5.661">
        <ele>362</ele>
        <time>2019-01-18T14:26:39.000Z</time>
      </trkpt>
      <trkpt lat="43.34458" lon="5.66101">
        <ele>362</ele>
        <time>2019-01-18T14:26:40.000Z</time>
      </trkpt>
      <trkpt lat="43.34459" lon="5.66101">
        <ele>362</ele>
        <time>2019-01-18T14:26:41.000Z</time>
      </trkpt>
      <trkpt lat="43.34459" lon="5.66101">
        <ele>363</ele>
        <time>2019-01-18T14:26:42.000Z</time>
      </trkpt>
      <trkpt lat="43.34459" lon="5.66101">
        <ele>363</ele>
        <time>2019-01-18T14:26:43.000Z</time>
      </trkpt>
      <trkpt lat="43.3446" lon="5.66101">
        <ele>363</ele>
        <time>2019-01-18T14:26:44.000Z</time>
      </trkpt>
      <trkpt lat="43.3446" lon="5.66101">
        <ele>363</ele>
        <time>2019-01-18T14:26:45.000Z</time>
      </trkpt>
      <trkpt lat="43.3446" lon="5.66101">
        <ele>363</ele>
        <time>2019-01-18T14:26:46.000Z</time>
      </trkpt>
      <trkpt lat="43.34461" lon="5.66101">
        <ele>363</ele>
        <time>2019-01-18T14:26:47.000Z</time>
      </trkpt>
      <trkpt lat="43.34461" lon="5.66101">
        <ele>363</ele>
        <time>2019-01-18T14:26:48.000Z</time>
      </trkpt>
      <trkpt lat="43.34461" lon="5.661">
        <ele>364</ele>
        <time>2019-01-18T14:26:49.000Z</time>
      </trkpt>
      <trkpt lat="43.34462" lon="5.66101">
        <ele>364</ele>
        <time>2019-01-18T14:26:50.000Z</time>
      </trkpt>
      <trkpt lat="43.34462" lon="5.66101">
        <ele>364</ele>
        <time>2019-01-18T14:26:51.000Z</time>
      </trkpt>
      <trkpt lat="43.34463" lon="5.66101">
        <ele>364</ele>
        <time>2019-01-18T14:26:52.000Z</time>
      </trkpt>
      <trkpt lat="43.34463" lon="5.66101">
        <ele>364</ele>
        <time>2019-01-18T14:26:53.000Z</time>
      </trkpt>
      <trkpt lat="43.34463" lon="5.66101">
        <ele>364</ele>
        <time>2019-01-18T14:26:54.000Z</time>
      </trkpt>
      <trkpt lat="43.34464" lon="5.66101">
        <ele>364</ele>
        <time>2019-01-18T14:26:55.000Z</time>
      </trkpt>
      <trkpt lat="43.34465" lon="5.66102">
        <ele>365</ele>
        <time>2019-01-18T14:26:56.000Z</time>
      </trkpt>
      <trkpt lat="43.34465" lon="5.66102">
        <ele>365</ele>
        <time>2019-01-18T14:26:57.000Z</time>
      </trkpt>
      <trkpt lat="43.34466" lon="5.66103">
        <ele>365</ele>
        <time>2019-01-18T14:26:58.000Z</time>
      </trkpt>
      <trkpt lat="43.34466" lon="5.66103">
        <ele>365</ele>
        <time>2019-01-18T14:26:59.000Z</time>
      </trkpt>
      <trkpt lat="43.34467" lon="5.66104">
        <ele>365</ele>
        <time>2019-01-18T14:27:00.000Z</time>
      </trkpt>
      <trkpt lat="43.34467" lon="5.66104">
        <ele>366</ele>
        <time>2019-01-18T14:27:01.000Z</time>
      </trkpt>
      <trkpt lat="43.34468" lon="5.66105">
        <ele>366</ele>
        <time>2019-01-18T14:27:02.000Z</time>
      </trkpt>
      <trkpt lat="43.34468" lon="5.66105">
        <ele>366</ele>
        <time>2019-01-18T14:27:03.000Z</time>
      </trkpt>
      <trkpt lat="43.34468" lon="5.66105">
        <ele>366</ele>
        <time>2019-01-18T14:27:04.000Z</time>
      </trkpt>
      <trkpt lat="43.34469" lon="5.66105">
        <ele>366</ele>
        <time>2019-01-18T14:27:05.000Z</time>
      </trkpt>
      <trkpt lat="43.34469" lon="5.66105">
        <ele>366</ele>
        <time>2019-01-18T14:27:06.000Z</time>
      </trkpt>
      <trkpt lat="43.34469" lon="5.66105">
        <ele>367</ele>
        <time>2019-01-18T14:27:07.000Z</time>
      </trkpt>
      <trkpt lat="43.3447" lon="5.66105">
        <ele>367</ele>
        <time>2019-01-18T14:27:08.000Z</time>
      </trkpt>
      <trkpt lat="43.34471" lon="5.66105">
        <ele>367</ele>
        <time>2019-01-18T14:27:09.000Z</time>
      </trkpt>
      <trkpt lat="43.34471" lon="5.66104">
        <ele>367</ele>
        <time>2019-01-18T14:27:10.000Z</time>
      </trkpt>
      <trkpt lat="43.34471" lon="5.66104">
        <ele>367</ele>
        <time>2019-01-18T14:27:11.000Z</time>
      </trkpt>
      <trkpt lat="43.34472" lon="5.66104">
        <ele>367</ele>
        <time>2019-01-18T14:27:12.000Z</time>
      </trkpt>
      <trkpt lat="43.34472" lon="5.66104">
        <ele>367</ele>
        <time>2019-01-18T14:27:13.000Z</time>
      </trkpt>
      <trkpt lat="43.34472" lon="5.66104">
        <ele>367</ele>
        <time>2019-01-18T14:27:14.000Z</time>
      </trkpt>
      <trkpt lat="43.34472" lon="5.66104">
        <ele>367</ele>
        <time>2019-01-18T14:27:15.000Z</time>
      </trkpt>
      <trkpt lat="43.34472" lon="5.66104">
        <ele>367</ele>
        <time>2019-01-18T14:27:16.000Z</time>
      </trkpt>
      <trkpt lat="43.34472" lon="5.66104">
        <ele>367</ele>
        <time>2019-01-18T14:27:17.000Z</time>
      </trkpt>
      <trkpt lat="43.34472" lon="5.66104">
        <ele>367</ele>
        <time>2019-01-18T14:27:18.000Z</time>
      </trkpt>
      <trkpt lat="43.34472" lon="5.66104">
        <ele>367</ele>
        <time>2019-01-18T14:27:19.000Z</time>
      </trkpt>
      <trkpt lat="43.34472" lon="5.66104">
        <ele>367</ele>
        <time>2019-01-18T14:27:20.000Z</time>
      </trkpt>
      <trkpt lat="43.34473" lon="5.66104">
        <ele>367</ele>
        <time>2019-01-18T14:27:21.000Z</time>
      </trkpt>
      <trkpt lat="43.34474" lon="5.66105">
        <ele>367</ele>
        <time>2019-01-18T14:27:22.000Z</time>
      </trkpt>
      <trkpt lat="43.34474" lon="5.66105">
        <ele>368</ele>
        <time>2019-01-18T14:27:23.000Z</time>
      </trkpt>
      <trkpt lat="43.34475" lon="5.66105">
        <ele>368</ele>
        <time>2019-01-18T14:27:24.000Z</time>
      </trkpt>
      <trkpt lat="43.34475" lon="5.66106">
        <ele>368</ele>
        <time>2019-01-18T14:27:25.000Z</time>
      </trkpt>
      <trkpt lat="43.34476" lon="5.66107">
        <ele>368</ele>
        <time>2019-01-18T14:27:26.000Z</time>
      </trkpt>
      <trkpt lat="43.34476" lon="5.66108">
        <ele>368</ele>
        <time>2019-01-18T14:27:27.000Z</time>
      </trkpt>
      <trkpt lat="43.34476" lon="5.66108">
        <ele>368</ele>
        <time>2019-01-18T14:27:28.000Z</time>
      </trkpt>
      <trkpt lat="43.34476" lon="5.66108">
        <ele>368</ele>
        <time>2019-01-18T14:27:29.000Z</time>
      </trkpt>
      <trkpt lat="43.34477" lon="5.66108">
        <ele>368</ele>
        <time>2019-01-18T14:27:30.000Z</time>
      </trkpt>
      <trkpt lat="43.34477" lon="5.66108">
        <ele>368</ele>
        <time>2019-01-18T14:27:31.000Z</time>
      </trkpt>
      <trkpt lat="43.34477" lon="5.66108">
        <ele>368</ele>
        <time>2019-01-18T14:27:32.000Z</time>
      </trkpt>
      <trkpt lat="43.34477" lon="5.66108">
        <ele>368</ele>
        <time>2019-01-18T14:27:33.000Z</time>
      </trkpt>
      <trkpt lat="43.34478" lon="5.66108">
        <ele>368</ele>
        <time>2019-01-18T14:27:34.000Z</time>
      </trkpt>
      <trkpt lat="43.34478" lon="5.66108">
        <ele>368</ele>
        <time>2019-01-18T14:27:35.000Z</time>
      </trkpt>
      <trkpt lat="43.34479" lon="5.66108">
        <ele>369</ele>
        <time>2019-01-18T14:27:36.000Z</time>
      </trkpt>
      <trkpt lat="43.34479" lon="5.66108">
        <ele>369</ele>
        <time>2019-01-18T14:27:37.000Z</time>
      </trkpt>
      <trkpt lat="43.3448" lon="5.66108">
        <ele>369</ele>
        <time>2019-01-18T14:27:38.000Z</time>
      </trkpt>
      <trkpt lat="43.34481" lon="5.66108">
        <ele>369</ele>
        <time>2019-01-18T14:27:39.000Z</time>
      </trkpt>
      <trkpt lat="43.34481" lon="5.66108">
        <ele>369</ele>
        <time>2019-01-18T14:27:40.000Z</time>
      </trkpt>
      <trkpt lat="43.34481" lon="5.66108">
        <ele>369</ele>
        <time>2019-01-18T14:27:41.000Z</time>
      </trkpt>
      <trkpt lat="43.34481" lon="5.66108">
        <ele>370</ele>
        <time>2019-01-18T14:27:42.000Z</time>
      </trkpt>
      <trkpt lat="43.34481" lon="5.66108">
        <ele>370</ele>
        <time>2019-01-18T14:27:43.000Z</time>
      </trkpt>
      <trkpt lat="43.34481" lon="5.66108">
        <ele>370</ele>
        <time>2019-01-18T14:27:44.000Z</time>
      </trkpt>
      <trkpt lat="43.34481" lon="5.66108">
        <ele>370</ele>
        <time>2019-01-18T14:27:45.000Z</time>
      </trkpt>
      <trkpt lat="43.34482" lon="5.66108">
        <ele>370</ele>
        <time>2019-01-18T14:27:46.000Z</time>
      </trkpt>
      <trkpt lat="43.34482" lon="5.66108">
        <ele>370</ele>
        <time>2019-01-18T14:27:47.000Z</time>
      </trkpt>
      <trkpt lat="43.34482" lon="5.66108">
        <ele>370</ele>
        <time>2019-01-18T14:27:48.000Z</time>
      </trkpt>
      <trkpt lat="43.34482" lon="5.66108">
        <ele>370</ele>
        <time>2019-01-18T14:27:49.000Z</time>
      </trkpt>
      <trkpt lat="43.34482" lon="5.66108">
        <ele>370</ele>
        <time>2019-01-18T14:27:50.000Z</time>
      </trkpt>
      <trkpt lat="43.34482" lon="5.66108">
        <ele>370</ele>
        <time>2019-01-18T14:27:51.000Z</time>
      </trkpt>
      <trkpt lat="43.34482" lon="5.66108">
        <ele>370</ele>
        <time>2019-01-18T14:27:52.000Z</time>
      </trkpt>
      <trkpt lat="43.34482" lon="5.66108">
        <ele>370</ele>
        <time>2019-01-18T14:27:53.000Z</time>
      </trkpt>
      <trkpt lat="43.34482" lon="5.66108">
        <ele>370</ele>
        <time>2019-01-18T14:27:54.000Z</time>
      </trkpt>
      <trkpt lat="43.34482" lon="5.66108">
        <ele>371</ele>
        <time>2019-01-18T14:27:55.000Z</time>
      </trkpt>
      <trkpt lat="43.34482" lon="5.66108">
        <ele>371</ele>
        <time>2019-01-18T14:27:56.000Z</time>
      </trkpt>
      <trkpt lat="43.34482" lon="5.66108">
        <ele>371</ele>
        <time>2019-01-18T14:27:57.000Z</time>
      </trkpt>
      <trkpt lat="43.34482" lon="5.66108">
        <ele>371</ele>
        <time>2019-01-18T14:27:58.000Z</time>
      </trkpt>
      <trkpt lat="43.34482" lon="5.66108">
        <ele>371</ele>
        <time>2019-01-18T14:27:59.000Z</time>
      </trkpt>
      <trkpt lat="43.34482" lon="5.66108">
        <ele>371</ele>
        <time>2019-01-18T14:28:00.000Z</time>
      </trkpt>
      <trkpt lat="43.34482" lon="5.66108">
        <ele>371</ele>
        <time>2019-01-18T14:28:01.000Z</time>
      </trkpt>
      <trkpt lat="43.34482" lon="5.66108">
        <ele>371</ele>
        <time>2019-01-18T14:28:02.000Z</time>
      </trkpt>
      <trkpt lat="43.34482" lon="5.66108">
        <ele>371</ele>
        <time>2019-01-18T14:28:03.000Z</time>
      </trkpt>
      <trkpt lat="43.34482" lon="5.66108">
        <ele>371</ele>
        <time>2019-01-18T14:28:04.000Z</time>
      </trkpt>
      <trkpt lat="43.34482" lon="5.66108">
        <ele>371</ele>
        <time>2019-01-18T14:28:05.000Z</time>
      </trkpt>
      <trkpt lat="43.34482" lon="5.66108">
        <ele>371</ele>
        <time>2019-01-18T14:28:06.000Z</time>
      </trkpt>
      <trkpt lat="43.34482" lon="5.66107">
        <ele>371</ele>
        <time>2019-01-18T14:28:07.000Z</time>
      </trkpt>
      <trkpt lat="43.34482" lon="5.66107">
        <ele>371</ele>
        <time>2019-01-18T14:28:08.000Z</time>
      </trkpt>
      <trkpt lat="43.34482" lon="5.66107">
        <ele>371</ele>
        <time>2019-01-18T14:28:09.000Z</time>
      </trkpt>
      <trkpt lat="43.34482" lon="5.66107">
        <ele>371</ele>
        <time>2019-01-18T14:28:10.000Z</time>
      </trkpt>
      <trkpt lat="43.34482" lon="5.66107">
        <ele>371</ele>
        <time>2019-01-18T14:28:11.000Z</time>
      </trkpt>
      <trkpt lat="43.34482" lon="5.66107">
        <ele>371</ele>
        <time>2019-01-18T14:28:12.000Z</time>
      </trkpt>
      <trkpt lat="43.34482" lon="5.66107">
        <ele>371</ele>
        <time>2019-01-18T14:28:13.000Z</time>
      </trkpt>
      <trkpt lat="43.34482" lon="5.66107">
        <ele>371</ele>
        <time>2019-01-18T14:28:14.000Z</time>
      </trkpt>
      <trkpt lat="43.34482" lon="5.66107">
        <ele>371</ele>
        <time>2019-01-18T14:28:15.000Z</time>
      </trkpt>
      <trkpt lat="43.34482" lon="5.66108">
        <ele>371</ele>
        <time>2019-01-18T14:28:16.000Z</time>
      </trkpt>
      <trkpt lat="43.34482" lon="5.66108">
        <ele>371</ele>
        <time>2019-01-18T14:28:17.000Z</time>
      </trkpt>
      <trkpt lat="43.34482" lon="5.66109">
        <ele>371</ele>
        <time>2019-01-18T14:28:18.000Z</time>
      </trkpt>
      <trkpt lat="43.34482" lon="5.66109">
        <ele>371</ele>
        <time>2019-01-18T14:28:19.000Z</time>
      </trkpt>
      <trkpt lat="43.34482" lon="5.66109">
        <ele>371</ele>
        <time>2019-01-18T14:28:20.000Z</time>
      </trkpt>
      <trkpt lat="43.34482" lon="5.66109">
        <ele>371</ele>
        <time>2019-01-18T14:28:21.000Z</time>
      </trkpt>
      <trkpt lat="43.34482" lon="5.66109">
        <ele>371</ele>
        <time>2019-01-18T14:28:22.000Z</time>
      </trkpt>
      <trkpt lat="43.34482" lon="5.66109">
        <ele>371</ele>
        <time>2019-01-18T14:28:23.000Z</time>
      </trkpt>
      <trkpt lat="43.34482" lon="5.66109">
        <ele>371</ele>
        <time>2019-01-18T14:28:24.000Z</time>
      </trkpt>
      <trkpt lat="43.34482" lon="5.66109">
        <ele>372</ele>
        <time>2019-01-18T14:28:25.000Z</time>
      </trkpt>
      <trkpt lat="43.34482" lon="5.66109">
        <ele>372</ele>
        <time>2019-01-18T14:28:26.000Z</time>
      </trkpt>
      <trkpt lat="43.34482" lon="5.66109">
        <ele>372</ele>
        <time>2019-01-18T14:28:27.000Z</time>
      </trkpt>
      <trkpt lat="43.34482" lon="5.66109">
        <ele>372</ele>
        <time>2019-01-18T14:28:28.000Z</time>
      </trkpt>
      <trkpt lat="43.34482" lon="5.66109">
        <ele>372</ele>
        <time>2019-01-18T14:28:29.000Z</time>
      </trkpt>
      <trkpt lat="43.34482" lon="5.66109">
        <ele>372</ele>
        <time>2019-01-18T14:28:30.000Z</time>
      </trkpt>
      <trkpt lat="43.34481" lon="5.6611">
        <ele>372</ele>
        <time>2019-01-18T14:28:31.000Z</time>
      </trkpt>
      <trkpt lat="43.34482" lon="5.6611">
        <ele>372</ele>
        <time>2019-01-18T14:28:32.000Z</time>
      </trkpt>
      <trkpt lat="43.34482" lon="5.6611">
        <ele>372</ele>
        <time>2019-01-18T14:28:33.000Z</time>
      </trkpt>
      <trkpt lat="43.34482" lon="5.6611">
        <ele>372</ele>
        <time>2019-01-18T14:28:34.000Z</time>
      </trkpt>
      <trkpt lat="43.34482" lon="5.6611">
        <ele>372</ele>
        <time>2019-01-18T14:28:35.000Z</time>
      </trkpt>
      <trkpt lat="43.34482" lon="5.6611">
        <ele>372</ele>
        <time>2019-01-18T14:28:36.000Z</time>
      </trkpt>
      <trkpt lat="43.34482" lon="5.6611">
        <ele>372</ele>
        <time>2019-01-18T14:28:37.000Z</time>
      </trkpt>
      <trkpt lat="43.34482" lon="5.6611">
        <ele>372</ele>
        <time>2019-01-18T14:28:38.000Z</time>
      </trkpt>
      <trkpt lat="43.34482" lon="5.6611">
        <ele>372</ele>
        <time>2019-01-18T14:28:39.000Z</time>
      </trkpt>
      <trkpt lat="43.34482" lon="5.66111">
        <ele>372</ele>
        <time>2019-01-18T14:28:40.000Z</time>
      </trkpt>
      <trkpt lat="43.34482" lon="5.66111">
        <ele>372</ele>
        <time>2019-01-18T14:28:41.000Z</time>
      </trkpt>
      <trkpt lat="43.34481" lon="5.6611">
        <ele>372</ele>
        <time>2019-01-18T14:28:42.000Z</time>
      </trkpt>
      <trkpt lat="43.34481" lon="5.66111">
        <ele>372</ele>
        <time>2019-01-18T14:28:43.000Z</time>
      </trkpt>
      <trkpt lat="43.34481" lon="5.6611">
        <ele>372</ele>
        <time>2019-01-18T14:28:44.000Z</time>
      </trkpt>
      <trkpt lat="43.34481" lon="5.66111">
        <ele>372</ele>
        <time>2019-01-18T14:28:45.000Z</time>
      </trkpt>
      <trkpt lat="43.34481" lon="5.66111">
        <ele>372</ele>
        <time>2019-01-18T14:28:46.000Z</time>
      </trkpt>
      <trkpt lat="43.34481" lon="5.66111">
        <ele>372</ele>
        <time>2019-01-18T14:28:47.000Z</time>
      </trkpt>
      <trkpt lat="43.34481" lon="5.66111">
        <ele>372</ele>
        <time>2019-01-18T14:28:48.000Z</time>
      </trkpt>
      <trkpt lat="43.34481" lon="5.66111">
        <ele>372</ele>
        <time>2019-01-18T14:28:49.000Z</time>
      </trkpt>
      <trkpt lat="43.34481" lon="5.66111">
        <ele>372</ele>
        <time>2019-01-18T14:28:50.000Z</time>
      </trkpt>
      <trkpt lat="43.3448" lon="5.66111">
        <ele>372</ele>
        <time>2019-01-18T14:28:51.000Z</time>
      </trkpt>
      <trkpt lat="43.3448" lon="5.66112">
        <ele>372</ele>
        <time>2019-01-18T14:28:52.000Z</time>
      </trkpt>
      <trkpt lat="43.3448" lon="5.66112">
        <ele>372</ele>
        <time>2019-01-18T14:28:53.000Z</time>
      </trkpt>
      <trkpt lat="43.3448" lon="5.66112">
        <ele>373</ele>
        <time>2019-01-18T14:28:54.000Z</time>
      </trkpt>
      <trkpt lat="43.3448" lon="5.66113">
        <ele>373</ele>
        <time>2019-01-18T14:28:55.000Z</time>
      </trkpt>
      <trkpt lat="43.3448" lon="5.66113">
        <ele>373</ele>
        <time>2019-01-18T14:28:56.000Z</time>
      </trkpt>
      <trkpt lat="43.3448" lon="5.66114">
        <ele>373</ele>
        <time>2019-01-18T14:28:57.000Z</time>
      </trkpt>
      <trkpt lat="43.3448" lon="5.66115">
        <ele>373</ele>
        <time>2019-01-18T14:28:58.000Z</time>
      </trkpt>
      <trkpt lat="43.3448" lon="5.66116">
        <ele>373</ele>
        <time>2019-01-18T14:28:59.000Z</time>
      </trkpt>
      <trkpt lat="43.3448" lon="5.66116">
        <ele>373</ele>
        <time>2019-01-18T14:29:00.000Z</time>
      </trkpt>
      <trkpt lat="43.3448" lon="5.66117">
        <ele>373</ele>
        <time>2019-01-18T14:29:01.000Z</time>
      </trkpt>
      <trkpt lat="43.3448" lon="5.66118">
        <ele>373</ele>
        <time>2019-01-18T14:29:02.000Z</time>
      </trkpt>
      <trkpt lat="43.3448" lon="5.66119">
        <ele>373</ele>
        <time>2019-01-18T14:29:03.000Z</time>
      </trkpt>
      <trkpt lat="43.3448" lon="5.66121">
        <ele>373</ele>
        <time>2019-01-18T14:29:04.000Z</time>
      </trkpt>
      <trkpt lat="43.34481" lon="5.66122">
        <ele>373</ele>
        <time>2019-01-18T14:29:05.000Z</time>
      </trkpt>
      <trkpt lat="43.34481" lon="5.66123">
        <ele>373</ele>
        <time>2019-01-18T14:29:06.000Z</time>
      </trkpt>
      <trkpt lat="43.34482" lon="5.66124">
        <ele>373</ele>
        <time>2019-01-18T14:29:07.000Z</time>
      </trkpt>
      <trkpt lat="43.34482" lon="5.66124">
        <ele>373</ele>
        <time>2019-01-18T14:29:08.000Z</time>
      </trkpt>
      <trkpt lat="43.34482" lon="5.66125">
        <ele>373</ele>
        <time>2019-01-18T14:29:09.000Z</time>
      </trkpt>
      <trkpt lat="43.34483" lon="5.66126">
        <ele>373</ele>
        <time>2019-01-18T14:29:10.000Z</time>
      </trkpt>
      <trkpt lat="43.34483" lon="5.66126">
        <ele>373</ele>
        <time>2019-01-18T14:29:11.000Z</time>
      </trkpt>
      <trkpt lat="43.34483" lon="5.66127">
        <ele>373</ele>
        <time>2019-01-18T14:29:12.000Z</time>
      </trkpt>
      <trkpt lat="43.34483" lon="5.66127">
        <ele>373</ele>
        <time>2019-01-18T14:29:13.000Z</time>
      </trkpt>
      <trkpt lat="43.34483" lon="5.66127">
        <ele>373</ele>
        <time>2019-01-18T14:29:14.000Z</time>
      </trkpt>
      <trkpt lat="43.34483" lon="5.66127">
        <ele>373</ele>
        <time>2019-01-18T14:29:15.000Z</time>
      </trkpt>
      <trkpt lat="43.34483" lon="5.66127">
        <ele>373</ele>
        <time>2019-01-18T14:29:16.000Z</time>
      </trkpt>
      <trkpt lat="43.34483" lon="5.66127">
        <ele>373</ele>
        <time>2019-01-18T14:29:17.000Z</time>
      </trkpt>
      <trkpt lat="43.34483" lon="5.66127">
        <ele>373</ele>
        <time>2019-01-18T14:29:18.000Z</time>
      </trkpt>
      <trkpt lat="43.34484" lon="5.66127">
        <ele>373</ele>
        <time>2019-01-18T14:29:19.000Z</time>
      </trkpt>
      <trkpt lat="43.34484" lon="5.66128">
        <ele>373</ele>
        <time>2019-01-18T14:29:20.000Z</time>
      </trkpt>
      <trkpt lat="43.34485" lon="5.66129">
        <ele>373</ele>
        <time>2019-01-18T14:29:21.000Z</time>
      </trkpt>
      <trkpt lat="43.34485" lon="5.66129">
        <ele>373</ele>
        <time>2019-01-18T14:29:22.000Z</time>
      </trkpt>
      <trkpt lat="43.34485" lon="5.6613">
        <ele>373</ele>
        <time>2019-01-18T14:29:23.000Z</time>
      </trkpt>
      <trkpt lat="43.34486" lon="5.66131">
        <ele>373</ele>
        <time>2019-01-18T14:29:24.000Z</time>
      </trkpt>
      <trkpt lat="43.34487" lon="5.66132">
        <ele>373</ele>
        <time>2019-01-18T14:29:25.000Z</time>
      </trkpt>
      <trkpt lat="43.34487" lon="5.66133">
        <ele>373</ele>
        <time>2019-01-18T14:29:26.000Z</time>
      </trkpt>
      <trkpt lat="43.34488" lon="5.66134">
        <ele>373</ele>
        <time>2019-01-18T14:29:27.000Z</time>
      </trkpt>
      <trkpt lat="43.34489" lon="5.66134">
        <ele>373</ele>
        <time>2019-01-18T14:29:28.000Z</time>
      </trkpt>
      <trkpt lat="43.3449" lon="5.66134">
        <ele>373</ele>
        <time>2019-01-18T14:29:29.000Z</time>
      </trkpt>
      <trkpt lat="43.3449" lon="5.66135">
        <ele>373</ele>
        <time>2019-01-18T14:29:30.000Z</time>
      </trkpt>
      <trkpt lat="43.34491" lon="5.66136">
        <ele>373</ele>
        <time>2019-01-18T14:29:31.000Z</time>
      </trkpt>
      <trkpt lat="43.34492" lon="5.66137">
        <ele>373</ele>
        <time>2019-01-18T14:29:32.000Z</time>
      </trkpt>
      <trkpt lat="43.34492" lon="5.66138">
        <ele>373</ele>
        <time>2019-01-18T14:29:33.000Z</time>
      </trkpt>
      <trkpt lat="43.34493" lon="5.66139">
        <ele>373</ele>
        <time>2019-01-18T14:29:34.000Z</time>
      </trkpt>
      <trkpt lat="43.34494" lon="5.6614">
        <ele>373</ele>
        <time>2019-01-18T14:29:35.000Z</time>
      </trkpt>
      <trkpt lat="43.34495" lon="5.66141">
        <ele>373</ele>
        <time>2019-01-18T14:29:36.000Z</time>
      </trkpt>
      <trkpt lat="43.34496" lon="5.66141">
        <ele>373</ele>
        <time>2019-01-18T14:29:37.000Z</time>
      </trkpt>
      <trkpt lat="43.34496" lon="5.66142">
        <ele>373</ele>
        <time>2019-01-18T14:29:38.000Z</time>
      </trkpt>
      <trkpt lat="43.34497" lon="5.66143">
        <ele>373</ele>
        <time>2019-01-18T14:29:39.000Z</time>
      </trkpt>
      <trkpt lat="43.34498" lon="5.66144">
        <ele>373</ele>
        <time>2019-01-18T14:29:40.000Z</time>
      </trkpt>
      <trkpt lat="43.34499" lon="5.66145">
        <ele>373</ele>
        <time>2019-01-18T14:29:41.000Z</time>
      </trkpt>
      <trkpt lat="43.345" lon="5.66145">
        <ele>373</ele>
        <time>2019-01-18T14:29:42.000Z</time>
      </trkpt>
      <trkpt lat="43.34501" lon="5.66146">
        <ele>373</ele>
        <time>2019-01-18T14:29:43.000Z</time>
      </trkpt>
      <trkpt lat="43.34501" lon="5.66148">
        <ele>373</ele>
        <time>2019-01-18T14:29:44.000Z</time>
      </trkpt>
      <trkpt lat="43.34502" lon="5.66149">
        <ele>372</ele>
        <time>2019-01-18T14:29:45.000Z</time>
      </trkpt>
      <trkpt lat="43.34502" lon="5.6615">
        <ele>372</ele>
        <time>2019-01-18T14:29:46.000Z</time>
      </trkpt>
      <trkpt lat="43.34503" lon="5.66151">
        <ele>373</ele>
        <time>2019-01-18T14:29:47.000Z</time>
      </trkpt>
      <trkpt lat="43.34504" lon="5.66151">
        <ele>373</ele>
        <time>2019-01-18T14:29:48.000Z</time>
      </trkpt>
      <trkpt lat="43.34504" lon="5.66152">
        <ele>373</ele>
        <time>2019-01-18T14:29:49.000Z</time>
      </trkpt>
      <trkpt lat="43.34505" lon="5.66152">
        <ele>373</ele>
        <time>2019-01-18T14:29:50.000Z</time>
      </trkpt>
      <trkpt lat="43.34506" lon="5.66152">
        <ele>373</ele>
        <time>2019-01-18T14:29:51.000Z</time>
      </trkpt>
      <trkpt lat="43.34506" lon="5.66153">
        <ele>373</ele>
        <time>2019-01-18T14:29:52.000Z</time>
      </trkpt>
      <trkpt lat="43.34507" lon="5.66154">
        <ele>373</ele>
        <time>2019-01-18T14:29:53.000Z</time>
      </trkpt>
      <trkpt lat="43.34508" lon="5.66154">
        <ele>373</ele>
        <time>2019-01-18T14:29:54.000Z</time>
      </trkpt>
      <trkpt lat="43.34508" lon="5.66155">
        <ele>373</ele>
        <time>2019-01-18T14:29:55.000Z</time>
      </trkpt>
      <trkpt lat="43.34509" lon="5.66156">
        <ele>373</ele>
        <time>2019-01-18T14:29:56.000Z</time>
      </trkpt>
      <trkpt lat="43.3451" lon="5.66157">
        <ele>373</ele>
        <time>2019-01-18T14:29:57.000Z</time>
      </trkpt>
      <trkpt lat="43.3451" lon="5.66158">
        <ele>373</ele>
        <time>2019-01-18T14:29:58.000Z</time>
      </trkpt>
      <trkpt lat="43.34511" lon="5.66159">
        <ele>373</ele>
        <time>2019-01-18T14:29:59.000Z</time>
      </trkpt>
      <trkpt lat="43.34511" lon="5.66159">
        <ele>373</ele>
        <time>2019-01-18T14:30:00.000Z</time>
      </trkpt>
      <trkpt lat="43.34512" lon="5.6616">
        <ele>373</ele>
        <time>2019-01-18T14:30:01.000Z</time>
      </trkpt>
      <trkpt lat="43.34513" lon="5.6616">
        <ele>373</ele>
        <time>2019-01-18T14:30:02.000Z</time>
      </trkpt>
      <trkpt lat="43.34513" lon="5.66161">
        <ele>373</ele>
        <time>2019-01-18T14:30:03.000Z</time>
      </trkpt>
      <trkpt lat="43.34514" lon="5.66161">
        <ele>373</ele>
        <time>2019-01-18T14:30:04.000Z</time>
      </trkpt>
      <trkpt lat="43.34514" lon="5.66162">
        <ele>373</ele>
        <time>2019-01-18T14:30:05.000Z</time>
      </trkpt>
      <trkpt lat="43.34515" lon="5.66162">
        <ele>373</ele>
        <time>2019-01-18T14:30:06.000Z</time>
      </trkpt>
      <trkpt lat="43.34515" lon="5.66162">
        <ele>373</ele>
        <time>2019-01-18T14:30:07.000Z</time>
      </trkpt>
      <trkpt lat="43.34516" lon="5.66162">
        <ele>373</ele>
        <time>2019-01-18T14:30:08.000Z</time>
      </trkpt>
      <trkpt lat="43.34516" lon="5.66163">
        <ele>373</ele>
        <time>2019-01-18T14:30:09.000Z</time>
      </trkpt>
      <trkpt lat="43.34517" lon="5.66163">
        <ele>373</ele>
        <time>2019-01-18T14:30:10.000Z</time>
      </trkpt>
      <trkpt lat="43.34518" lon="5.66163">
        <ele>373</ele>
        <time>2019-01-18T14:30:11.000Z</time>
      </trkpt>
      <trkpt lat="43.34518" lon="5.66164">
        <ele>373</ele>
        <time>2019-01-18T14:30:12.000Z</time>
      </trkpt>
      <trkpt lat="43.34519" lon="5.66164">
        <ele>373</ele>
        <time>2019-01-18T14:30:13.000Z</time>
      </trkpt>
      <trkpt lat="43.34519" lon="5.66164">
        <ele>373</ele>
        <time>2019-01-18T14:30:14.000Z</time>
      </trkpt>
      <trkpt lat="43.3452" lon="5.66164">
        <ele>373</ele>
        <time>2019-01-18T14:30:15.000Z</time>
      </trkpt>
      <trkpt lat="43.3452" lon="5.66164">
        <ele>373</ele>
        <time>2019-01-18T14:30:16.000Z</time>
      </trkpt>
      <trkpt lat="43.3452" lon="5.66164">
        <ele>373</ele>
        <time>2019-01-18T14:30:17.000Z</time>
      </trkpt>
      <trkpt lat="43.3452" lon="5.66164">
        <ele>373</ele>
        <time>2019-01-18T14:30:18.000Z</time>
      </trkpt>
      <trkpt lat="43.34521" lon="5.66165">
        <ele>373</ele>
        <time>2019-01-18T14:30:19.000Z</time>
      </trkpt>
      <trkpt lat="43.34521" lon="5.66165">
        <ele>373</ele>
        <time>2019-01-18T14:30:20.000Z</time>
      </trkpt>
      <trkpt lat="43.34522" lon="5.66165">
        <ele>374</ele>
        <time>2019-01-18T14:30:21.000Z</time>
      </trkpt>
      <trkpt lat="43.34523" lon="5.66165">
        <ele>374</ele>
        <time>2019-01-18T14:30:22.000Z</time>
      </trkpt>
      <trkpt lat="43.34523" lon="5.66165">
        <ele>374</ele>
        <time>2019-01-18T14:30:23.000Z</time>
      </trkpt>
      <trkpt lat="43.34524" lon="5.66166">
        <ele>374</ele>
        <time>2019-01-18T14:30:24.000Z</time>
      </trkpt>
      <trkpt lat="43.34525" lon="5.66166">
        <ele>373</ele>
        <time>2019-01-18T14:30:25.000Z</time>
      </trkpt>
      <trkpt lat="43.34526" lon="5.66166">
        <ele>373</ele>
        <time>2019-01-18T14:30:26.000Z</time>
      </trkpt>
      <trkpt lat="43.34527" lon="5.66167">
        <ele>373</ele>
        <time>2019-01-18T14:30:27.000Z</time>
      </trkpt>
      <trkpt lat="43.34528" lon="5.66167">
        <ele>373</ele>
        <time>2019-01-18T14:30:28.000Z</time>
      </trkpt>
      <trkpt lat="43.34529" lon="5.66167">
        <ele>373</ele>
        <time>2019-01-18T14:30:29.000Z</time>
      </trkpt>
      <trkpt lat="43.34529" lon="5.66167">
        <ele>373</ele>
        <time>2019-01-18T14:30:30.000Z</time>
      </trkpt>
      <trkpt lat="43.3453" lon="5.66167">
        <ele>373</ele>
        <time>2019-01-18T14:30:31.000Z</time>
      </trkpt>
      <trkpt lat="43.34531" lon="5.66168">
        <ele>373</ele>
        <time>2019-01-18T14:30:32.000Z</time>
      </trkpt>
      <trkpt lat="43.34532" lon="5.66168">
        <ele>373</ele>
        <time>2019-01-18T14:30:33.000Z</time>
      </trkpt>
      <trkpt lat="43.34532" lon="5.66169">
        <ele>373</ele>
        <time>2019-01-18T14:30:34.000Z</time>
      </trkpt>
      <trkpt lat="43.34533" lon="5.66169">
        <ele>373</ele>
        <time>2019-01-18T14:30:35.000Z</time>
      </trkpt>
      <trkpt lat="43.34534" lon="5.6617">
        <ele>373</ele>
        <time>2019-01-18T14:30:36.000Z</time>
      </trkpt>
      <trkpt lat="43.34535" lon="5.6617">
        <ele>373</ele>
        <time>2019-01-18T14:30:37.000Z</time>
      </trkpt>
      <trkpt lat="43.34536" lon="5.6617">
        <ele>373</ele>
        <time>2019-01-18T14:30:38.000Z</time>
      </trkpt>
      <trkpt lat="43.34536" lon="5.6617">
        <ele>373</ele>
        <time>2019-01-18T14:30:39.000Z</time>
      </trkpt>
      <trkpt lat="43.34537" lon="5.6617">
        <ele>373</ele>
        <time>2019-01-18T14:30:40.000Z</time>
      </trkpt>
      <trkpt lat="43.34538" lon="5.6617">
        <ele>373</ele>
        <time>2019-01-18T14:30:41.000Z</time>
      </trkpt>
      <trkpt lat="43.34539" lon="5.6617">
        <ele>373</ele>
        <time>2019-01-18T14:30:42.000Z</time>
      </trkpt>
      <trkpt lat="43.34539" lon="5.66171">
        <ele>373</ele>
        <time>2019-01-18T14:30:43.000Z</time>
      </trkpt>
      <trkpt lat="43.3454" lon="5.66171">
        <ele>373</ele>
        <time>2019-01-18T14:30:44.000Z</time>
      </trkpt>
      <trkpt lat="43.34541" lon="5.66171">
        <ele>374</ele>
        <time>2019-01-18T14:30:45.000Z</time>
      </trkpt>
      <trkpt lat="43.34542" lon="5.66171">
        <ele>374</ele>
        <time>2019-01-18T14:30:46.000Z</time>
      </trkpt>
      <trkpt lat="43.34542" lon="5.66171">
        <ele>374</ele>
        <time>2019-01-18T14:30:47.000Z</time>
      </trkpt>
      <trkpt lat="43.34542" lon="5.66171">
        <ele>374</ele>
        <time>2019-01-18T14:30:48.000Z</time>
      </trkpt>
      <trkpt lat="43.34543" lon="5.66171">
        <ele>374</ele>
        <time>2019-01-18T14:30:49.000Z</time>
      </trkpt>
      <trkpt lat="43.34543" lon="5.66171">
        <ele>374</ele>
        <time>2019-01-18T14:30:50.000Z</time>
      </trkpt>
      <trkpt lat="43.34543" lon="5.66171">
        <ele>374</ele>
        <time>2019-01-18T14:30:51.000Z</time>
      </trkpt>
      <trkpt lat="43.34543" lon="5.66171">
        <ele>374</ele>
        <time>2019-01-18T14:30:52.000Z</time>
      </trkpt>
      <trkpt lat="43.34543" lon="5.66171">
        <ele>374</ele>
        <time>2019-01-18T14:30:53.000Z</time>
      </trkpt>
      <trkpt lat="43.34543" lon="5.66171">
        <ele>374</ele>
        <time>2019-01-18T14:30:54.000Z</time>
      </trkpt>
      <trkpt lat="43.34543" lon="5.66171">
        <ele>375</ele>
        <time>2019-01-18T14:30:55.000Z</time>
      </trkpt>
      <trkpt lat="43.34544" lon="5.66171">
        <ele>375</ele>
        <time>2019-01-18T14:30:56.000Z</time>
      </trkpt>
      <trkpt lat="43.34544" lon="5.66171">
        <ele>375</ele>
        <time>2019-01-18T14:30:57.000Z</time>
      </trkpt>
      <trkpt lat="43.34545" lon="5.66172">
        <ele>375</ele>
        <time>2019-01-18T14:30:58.000Z</time>
      </trkpt>
      <trkpt lat="43.34546" lon="5.66172">
        <ele>375</ele>
        <time>2019-01-18T14:30:59.000Z</time>
      </trkpt>
      <trkpt lat="43.34546" lon="5.66173">
        <ele>375</ele>
        <time>2019-01-18T14:31:00.000Z</time>
      </trkpt>
      <trkpt lat="43.34547" lon="5.66173">
        <ele>375</ele>
        <time>2019-01-18T14:31:01.000Z</time>
      </trkpt>
      <trkpt lat="43.34547" lon="5.66173">
        <ele>375</ele>
        <time>2019-01-18T14:31:02.000Z</time>
      </trkpt>
      <trkpt lat="43.34547" lon="5.66173">
        <ele>375</ele>
        <time>2019-01-18T14:31:03.000Z</time>
      </trkpt>
      <trkpt lat="43.34547" lon="5.66173">
        <ele>375</ele>
        <time>2019-01-18T14:31:04.000Z</time>
      </trkpt>
      <trkpt lat="43.34547" lon="5.66173">
        <ele>376</ele>
        <time>2019-01-18T14:31:05.000Z</time>
      </trkpt>
      <trkpt lat="43.34548" lon="5.66173">
        <ele>376</ele>
        <time>2019-01-18T14:31:06.000Z</time>
      </trkpt>
      <trkpt lat="43.34548" lon="5.66173">
        <ele>376</ele>
        <time>2019-01-18T14:31:07.000Z</time>
      </trkpt>
      <trkpt lat="43.34549" lon="5.66173">
        <ele>376</ele>
        <time>2019-01-18T14:31:08.000Z</time>
      </trkpt>
      <trkpt lat="43.34549" lon="5.66173">
        <ele>376</ele>
        <time>2019-01-18T14:31:09.000Z</time>
      </trkpt>
      <trkpt lat="43.34549" lon="5.66172">
        <ele>376</ele>
        <time>2019-01-18T14:31:10.000Z</time>
      </trkpt>
      <trkpt lat="43.3455" lon="5.66172">
        <ele>377</ele>
        <time>2019-01-18T14:31:11.000Z</time>
      </trkpt>
      <trkpt lat="43.3455" lon="5.66172">
        <ele>377</ele>
        <time>2019-01-18T14:31:12.000Z</time>
      </trkpt>
      <trkpt lat="43.34551" lon="5.66171">
        <ele>377</ele>
        <time>2019-01-18T14:31:13.000Z</time>
      </trkpt>
      <trkpt lat="43.34551" lon="5.66171">
        <ele>377</ele>
        <time>2019-01-18T14:31:14.000Z</time>
      </trkpt>
      <trkpt lat="43.34551" lon="5.66171">
        <ele>377</ele>
        <time>2019-01-18T14:31:15.000Z</time>
      </trkpt>
      <trkpt lat="43.34551" lon="5.66171">
        <ele>377</ele>
        <time>2019-01-18T14:31:16.000Z</time>
      </trkpt>
      <trkpt lat="43.34551" lon="5.66171">
        <ele>377</ele>
        <time>2019-01-18T14:31:17.000Z</time>
      </trkpt>
      <trkpt lat="43.34552" lon="5.66171">
        <ele>377</ele>
        <time>2019-01-18T14:31:18.000Z</time>
      </trkpt>
      <trkpt lat="43.34553" lon="5.66171">
        <ele>377</ele>
        <time>2019-01-18T14:31:19.000Z</time>
      </trkpt>
      <trkpt lat="43.34553" lon="5.6617">
        <ele>377</ele>
        <time>2019-01-18T14:31:20.000Z</time>
      </trkpt>
      <trkpt lat="43.34553" lon="5.6617">
        <ele>377</ele>
        <time>2019-01-18T14:31:21.000Z</time>
      </trkpt>
      <trkpt lat="43.34553" lon="5.6617">
        <ele>377</ele>
        <time>2019-01-18T14:31:22.000Z</time>
      </trkpt>
      <trkpt lat="43.34553" lon="5.6617">
        <ele>377</ele>
        <time>2019-01-18T14:31:23.000Z</time>
      </trkpt>
      <trkpt lat="43.34553" lon="5.6617">
        <ele>377</ele>
        <time>2019-01-18T14:31:24.000Z</time>
      </trkpt>
      <trkpt lat="43.34553" lon="5.6617">
        <ele>377</ele>
        <time>2019-01-18T14:31:25.000Z</time>
      </trkpt>
      <trkpt lat="43.34554" lon="5.6617">
        <ele>377</ele>
        <time>2019-01-18T14:31:26.000Z</time>
      </trkpt>
      <trkpt lat="43.34554" lon="5.6617">
        <ele>377</ele>
        <time>2019-01-18T14:31:27.000Z</time>
      </trkpt>
      <trkpt lat="43.34554" lon="5.6617">
        <ele>377</ele>
        <time>2019-01-18T14:31:28.000Z</time>
      </trkpt>
      <trkpt lat="43.34554" lon="5.6617">
        <ele>377</ele>
        <time>2019-01-18T14:31:29.000Z</time>
      </trkpt>
      <trkpt lat="43.34555" lon="5.66169">
        <ele>377</ele>
        <time>2019-01-18T14:31:30.000Z</time>
      </trkpt>
      <trkpt lat="43.34555" lon="5.66169">
        <ele>377</ele>
        <time>2019-01-18T14:31:31.000Z</time>
      </trkpt>
      <trkpt lat="43.34556" lon="5.66169">
        <ele>378</ele>
        <time>2019-01-18T14:31:32.000Z</time>
      </trkpt>
      <trkpt lat="43.34556" lon="5.66169">
        <ele>378</ele>
        <time>2019-01-18T14:31:33.000Z</time>
      </trkpt>
      <trkpt lat="43.34556" lon="5.66169">
        <ele>378</ele>
        <time>2019-01-18T14:31:34.000Z</time>
      </trkpt>
      <trkpt lat="43.34556" lon="5.66169">
        <ele>378</ele>
        <time>2019-01-18T14:31:35.000Z</time>
      </trkpt>
      <trkpt lat="43.34557" lon="5.6617">
        <ele>378</ele>
        <time>2019-01-18T14:31:36.000Z</time>
      </trkpt>
      <trkpt lat="43.34557" lon="5.66171">
        <ele>378</ele>
        <time>2019-01-18T14:31:37.000Z</time>
      </trkpt>
      <trkpt lat="43.34556" lon="5.66171">
        <ele>378</ele>
        <time>2019-01-18T14:31:38.000Z</time>
      </trkpt>
      <trkpt lat="43.34556" lon="5.66172">
        <ele>378</ele>
        <time>2019-01-18T14:31:39.000Z</time>
      </trkpt>
      <trkpt lat="43.34555" lon="5.66172">
        <ele>378</ele>
        <time>2019-01-18T14:31:40.000Z</time>
      </trkpt>
      <trkpt lat="43.34555" lon="5.66173">
        <ele>378</ele>
        <time>2019-01-18T14:31:41.000Z</time>
      </trkpt>
      <trkpt lat="43.34555" lon="5.66173">
        <ele>378</ele>
        <time>2019-01-18T14:31:42.000Z</time>
      </trkpt>
      <trkpt lat="43.34555" lon="5.66173">
        <ele>378</ele>
        <time>2019-01-18T14:31:43.000Z</time>
      </trkpt>
      <trkpt lat="43.34555" lon="5.66173">
        <ele>378</ele>
        <time>2019-01-18T14:31:44.000Z</time>
      </trkpt>
      <trkpt lat="43.34555" lon="5.66173">
        <ele>378</ele>
        <time>2019-01-18T14:31:45.000Z</time>
      </trkpt>
      <trkpt lat="43.34555" lon="5.66173">
        <ele>378</ele>
        <time>2019-01-18T14:31:46.000Z</time>
      </trkpt>
      <trkpt lat="43.34554" lon="5.66173">
        <ele>378</ele>
        <time>2019-01-18T14:31:47.000Z</time>
      </trkpt>
      <trkpt lat="43.34554" lon="5.66173">
        <ele>378</ele>
        <time>2019-01-18T14:31:48.000Z</time>
      </trkpt>
      <trkpt lat="43.34554" lon="5.66173">
        <ele>378</ele>
        <time>2019-01-18T14:31:49.000Z</time>
      </trkpt>
      <trkpt lat="43.34554" lon="5.66173">
        <ele>378</ele>
        <time>2019-01-18T14:31:50.000Z</time>
      </trkpt>
      <trkpt lat="43.34554" lon="5.66174">
        <ele>378</ele>
        <time>2019-01-18T14:31:51.000Z</time>
      </trkpt>
      <trkpt lat="43.34554" lon="5.66174">
        <ele>378</ele>
        <time>2019-01-18T14:31:52.000Z</time>
      </trkpt>
      <trkpt lat="43.34554" lon="5.66174">
        <ele>378</ele>
        <time>2019-01-18T14:31:53.000Z</time>
      </trkpt>
      <trkpt lat="43.34553" lon="5.66175">
        <ele>378</ele>
        <time>2019-01-18T14:31:54.000Z</time>
      </trkpt>
      <trkpt lat="43.34553" lon="5.66175">
        <ele>378</ele>
        <time>2019-01-18T14:31:55.000Z</time>
      </trkpt>
      <trkpt lat="43.34553" lon="5.66175">
        <ele>378</ele>
        <time>2019-01-18T14:31:56.000Z</time>
      </trkpt>
      <trkpt lat="43.34553" lon="5.66176">
        <ele>378</ele>
        <time>2019-01-18T14:31:57.000Z</time>
      </trkpt>
      <trkpt lat="43.34554" lon="5.66176">
        <ele>378</ele>
        <time>2019-01-18T14:31:58.000Z</time>
      </trkpt>
      <trkpt lat="43.34554" lon="5.66177">
        <ele>378</ele>
        <time>2019-01-18T14:31:59.000Z</time>
      </trkpt>
      <trkpt lat="43.34555" lon="5.66178">
        <ele>378</ele>
        <time>2019-01-18T14:32:00.000Z</time>
      </trkpt>
      <trkpt lat="43.34555" lon="5.66178">
        <ele>378</ele>
        <time>2019-01-18T14:32:01.000Z</time>
      </trkpt>
      <trkpt lat="43.34556" lon="5.66179">
        <ele>378</ele>
        <time>2019-01-18T14:32:02.000Z</time>
      </trkpt>
      <trkpt lat="43.34556" lon="5.66179">
        <ele>378</ele>
        <time>2019-01-18T14:32:03.000Z</time>
      </trkpt>
      <trkpt lat="43.34557" lon="5.66179">
        <ele>378</ele>
        <time>2019-01-18T14:32:04.000Z</time>
      </trkpt>
      <trkpt lat="43.34558" lon="5.66179">
        <ele>378</ele>
        <time>2019-01-18T14:32:05.000Z</time>
      </trkpt>
      <trkpt lat="43.34558" lon="5.66179">
        <ele>378</ele>
        <time>2019-01-18T14:32:06.000Z</time>
      </trkpt>
      <trkpt lat="43.34559" lon="5.6618">
        <ele>378</ele>
        <time>2019-01-18T14:32:07.000Z</time>
      </trkpt>
      <trkpt lat="43.34559" lon="5.66179">
        <ele>378</ele>
        <time>2019-01-18T14:32:08.000Z</time>
      </trkpt>
      <trkpt lat="43.3456" lon="5.66179">
        <ele>379</ele>
        <time>2019-01-18T14:32:09.000Z</time>
      </trkpt>
      <trkpt lat="43.3456" lon="5.66179">
        <ele>379</ele>
        <time>2019-01-18T14:32:10.000Z</time>
      </trkpt>
      <trkpt lat="43.34561" lon="5.66178">
        <ele>379</ele>
        <time>2019-01-18T14:32:11.000Z</time>
      </trkpt>
      <trkpt lat="43.34561" lon="5.66178">
        <ele>379</ele>
        <time>2019-01-18T14:32:12.000Z</time>
      </trkpt>
      <trkpt lat="43.34561" lon="5.66178">
        <ele>379</ele>
        <time>2019-01-18T14:32:13.000Z</time>
      </trkpt>
      <trkpt lat="43.34562" lon="5.66178">
        <ele>379</ele>
        <time>2019-01-18T14:32:14.000Z</time>
      </trkpt>
      <trkpt lat="43.34562" lon="5.66177">
        <ele>379</ele>
        <time>2019-01-18T14:32:15.000Z</time>
      </trkpt>
      <trkpt lat="43.34561" lon="5.66178">
        <ele>379</ele>
        <time>2019-01-18T14:32:16.000Z</time>
      </trkpt>
      <trkpt lat="43.34561" lon="5.66177">
        <ele>379</ele>
        <time>2019-01-18T14:32:17.000Z</time>
      </trkpt>
      <trkpt lat="43.34561" lon="5.66177">
        <ele>379</ele>
        <time>2019-01-18T14:32:18.000Z</time>
      </trkpt>
      <trkpt lat="43.34561" lon="5.66177">
        <ele>379</ele>
        <time>2019-01-18T14:32:19.000Z</time>
      </trkpt>
      <trkpt lat="43.34561" lon="5.66177">
        <ele>379</ele>
        <time>2019-01-18T14:32:20.000Z</time>
      </trkpt>
      <trkpt lat="43.34562" lon="5.66177">
        <ele>379</ele>
        <time>2019-01-18T14:32:21.000Z</time>
      </trkpt>
      <trkpt lat="43.34562" lon="5.66177">
        <ele>379</ele>
        <time>2019-01-18T14:32:22.000Z</time>
      </trkpt>
      <trkpt lat="43.34563" lon="5.66177">
        <ele>379</ele>
        <time>2019-01-18T14:32:23.000Z</time>
      </trkpt>
      <trkpt lat="43.34563" lon="5.66177">
        <ele>379</ele>
        <time>2019-01-18T14:32:24.000Z</time>
      </trkpt>
      <trkpt lat="43.34563" lon="5.66177">
        <ele>379</ele>
        <time>2019-01-18T14:32:25.000Z</time>
      </trkpt>
      <trkpt lat="43.34564" lon="5.66177">
        <ele>379</ele>
        <time>2019-01-18T14:32:26.000Z</time>
      </trkpt>
      <trkpt lat="43.34564" lon="5.66177">
        <ele>379</ele>
        <time>2019-01-18T14:32:27.000Z</time>
      </trkpt>
      <trkpt lat="43.34564" lon="5.66177">
        <ele>379</ele>
        <time>2019-01-18T14:32:28.000Z</time>
      </trkpt>
      <trkpt lat="43.34564" lon="5.66176">
        <ele>379</ele>
        <time>2019-01-18T14:32:29.000Z</time>
      </trkpt>
      <trkpt lat="43.34565" lon="5.66176">
        <ele>379</ele>
        <time>2019-01-18T14:32:30.000Z</time>
      </trkpt>
      <trkpt lat="43.34565" lon="5.66176">
        <ele>379</ele>
        <time>2019-01-18T14:32:31.000Z</time>
      </trkpt>
      <trkpt lat="43.34566" lon="5.66176">
        <ele>379</ele>
        <time>2019-01-18T14:32:32.000Z</time>
      </trkpt>
      <trkpt lat="43.34566" lon="5.66176">
        <ele>379</ele>
        <time>2019-01-18T14:32:33.000Z</time>
      </trkpt>
      <trkpt lat="43.34567" lon="5.66176">
        <ele>379</ele>
        <time>2019-01-18T14:32:34.000Z</time>
      </trkpt>
      <trkpt lat="43.34567" lon="5.66176">
        <ele>379</ele>
        <time>2019-01-18T14:32:35.000Z</time>
      </trkpt>
      <trkpt lat="43.34567" lon="5.66176">
        <ele>380</ele>
        <time>2019-01-18T14:32:36.000Z</time>
      </trkpt>
      <trkpt lat="43.34567" lon="5.66176">
        <ele>380</ele>
        <time>2019-01-18T14:32:37.000Z</time>
      </trkpt>
      <trkpt lat="43.34567" lon="5.66176">
        <ele>380</ele>
        <time>2019-01-18T14:32:38.000Z</time>
      </trkpt>
      <trkpt lat="43.34567" lon="5.66177">
        <ele>380</ele>
        <time>2019-01-18T14:32:39.000Z</time>
      </trkpt>
      <trkpt lat="43.34568" lon="5.66177">
        <ele>380</ele>
        <time>2019-01-18T14:32:40.000Z</time>
      </trkpt>
      <trkpt lat="43.34568" lon="5.66178">
        <ele>380</ele>
        <time>2019-01-18T14:32:41.000Z</time>
      </trkpt>
      <trkpt lat="43.34568" lon="5.66178">
        <ele>380</ele>
        <time>2019-01-18T14:32:42.000Z</time>
      </trkpt>
      <trkpt lat="43.34568" lon="5.66178">
        <ele>379</ele>
        <time>2019-01-18T14:32:43.000Z</time>
      </trkpt>
      <trkpt lat="43.34568" lon="5.66179">
        <ele>379</ele>
        <time>2019-01-18T14:32:44.000Z</time>
      </trkpt>
      <trkpt lat="43.34568" lon="5.6618">
        <ele>379</ele>
        <time>2019-01-18T14:32:45.000Z</time>
      </trkpt>
      <trkpt lat="43.34569" lon="5.6618">
        <ele>379</ele>
        <time>2019-01-18T14:32:46.000Z</time>
      </trkpt>
      <trkpt lat="43.34569" lon="5.66181">
        <ele>379</ele>
        <time>2019-01-18T14:32:47.000Z</time>
      </trkpt>
      <trkpt lat="43.3457" lon="5.66182">
        <ele>379</ele>
        <time>2019-01-18T14:32:48.000Z</time>
      </trkpt>
      <trkpt lat="43.3457" lon="5.66182">
        <ele>379</ele>
        <time>2019-01-18T14:32:49.000Z</time>
      </trkpt>
      <trkpt lat="43.3457" lon="5.66182">
        <ele>379</ele>
        <time>2019-01-18T14:32:50.000Z</time>
      </trkpt>
      <trkpt lat="43.3457" lon="5.66183">
        <ele>379</ele>
        <time>2019-01-18T14:32:51.000Z</time>
      </trkpt>
      <trkpt lat="43.3457" lon="5.66183">
        <ele>379</ele>
        <time>2019-01-18T14:32:52.000Z</time>
      </trkpt>
      <trkpt lat="43.34571" lon="5.66183">
        <ele>379</ele>
        <time>2019-01-18T14:32:53.000Z</time>
      </trkpt>
      <trkpt lat="43.34571" lon="5.66183">
        <ele>379</ele>
        <time>2019-01-18T14:32:54.000Z</time>
      </trkpt>
      <trkpt lat="43.34571" lon="5.66183">
        <ele>379</ele>
        <time>2019-01-18T14:32:55.000Z</time>
      </trkpt>
      <trkpt lat="43.34571" lon="5.66183">
        <ele>379</ele>
        <time>2019-01-18T14:32:56.000Z</time>
      </trkpt>
      <trkpt lat="43.34571" lon="5.66183">
        <ele>379</ele>
        <time>2019-01-18T14:32:57.000Z</time>
      </trkpt>
      <trkpt lat="43.34571" lon="5.66183">
        <ele>379</ele>
        <time>2019-01-18T14:32:58.000Z</time>
      </trkpt>
      <trkpt lat="43.34571" lon="5.66183">
        <ele>379</ele>
        <time>2019-01-18T14:32:59.000Z</time>
      </trkpt>
      <trkpt lat="43.34571" lon="5.66183">
        <ele>379</ele>
        <time>2019-01-18T14:33:00.000Z</time>
      </trkpt>
      <trkpt lat="43.34571" lon="5.66183">
        <ele>379</ele>
        <time>2019-01-18T14:33:01.000Z</time>
      </trkpt>
      <trkpt lat="43.34571" lon="5.66183">
        <ele>378</ele>
        <time>2019-01-18T14:33:02.000Z</time>
      </trkpt>
      <trkpt lat="43.34571" lon="5.66183">
        <ele>378</ele>
        <time>2019-01-18T14:33:03.000Z</time>
      </trkpt>
      <trkpt lat="43.34571" lon="5.66183">
        <ele>378</ele>
        <time>2019-01-18T14:33:04.000Z</time>
      </trkpt>
      <trkpt lat="43.34571" lon="5.66184">
        <ele>378</ele>
        <time>2019-01-18T14:33:05.000Z</time>
      </trkpt>
      <trkpt lat="43.34572" lon="5.66184">
        <ele>378</ele>
        <time>2019-01-18T14:33:06.000Z</time>
      </trkpt>
      <trkpt lat="43.34572" lon="5.66184">
        <ele>378</ele>
        <time>2019-01-18T14:33:07.000Z</time>
      </trkpt>
      <trkpt lat="43.34572" lon="5.66184">
        <ele>378</ele>
        <time>2019-01-18T14:33:08.000Z</time>
      </trkpt>
      <trkpt lat="43.34572" lon="5.66184">
        <ele>378</ele>
        <time>2019-01-18T14:33:09.000Z</time>
      </trkpt>
      <trkpt lat="43.34572" lon="5.66184">
        <ele>378</ele>
        <time>2019-01-18T14:33:10.000Z</time>
      </trkpt>
      <trkpt lat="43.34572" lon="5.66184">
        <ele>378</ele>
        <time>2019-01-18T14:33:11.000Z</time>
      </trkpt>
      <trkpt lat="43.34572" lon="5.66184">
        <ele>378</ele>
        <time>2019-01-18T14:33:12.000Z</time>
      </trkpt>
      <trkpt lat="43.34573" lon="5.66184">
        <ele>378</ele>
        <time>2019-01-18T14:33:13.000Z</time>
      </trkpt>
      <trkpt lat="43.34573" lon="5.66184">
        <ele>378</ele>
        <time>2019-01-18T14:33:14.000Z</time>
      </trkpt>
      <trkpt lat="43.34573" lon="5.66184">
        <ele>378</ele>
        <time>2019-01-18T14:33:15.000Z</time>
      </trkpt>
      <trkpt lat="43.34573" lon="5.66184">
        <ele>378</ele>
        <time>2019-01-18T14:33:16.000Z</time>
      </trkpt>
      <trkpt lat="43.34573" lon="5.66184">
        <ele>378</ele>
        <time>2019-01-18T14:33:17.000Z</time>
      </trkpt>
      <trkpt lat="43.34573" lon="5.66184">
        <ele>378</ele>
        <time>2019-01-18T14:33:18.000Z</time>
      </trkpt>
      <trkpt lat="43.34573" lon="5.66184">
        <ele>378</ele>
        <time>2019-01-18T14:33:19.000Z</time>
      </trkpt>
      <trkpt lat="43.34573" lon="5.66184">
        <ele>378</ele>
        <time>2019-01-18T14:33:20.000Z</time>
      </trkpt>
      <trkpt lat="43.34573" lon="5.66184">
        <ele>378</ele>
        <time>2019-01-18T14:33:21.000Z</time>
      </trkpt>
      <trkpt lat="43.34573" lon="5.66184">
        <ele>378</ele>
        <time>2019-01-18T14:33:22.000Z</time>
      </trkpt>
      <trkpt lat="43.34573" lon="5.66185">
        <ele>378</ele>
        <time>2019-01-18T14:33:23.000Z</time>
      </trkpt>
      <trkpt lat="43.34573" lon="5.66185">
        <ele>378</ele>
        <time>2019-01-18T14:33:24.000Z</time>
      </trkpt>
      <trkpt lat="43.34573" lon="5.66185">
        <ele>378</ele>
        <time>2019-01-18T14:33:25.000Z</time>
      </trkpt>
      <trkpt lat="43.34574" lon="5.66186">
        <ele>378</ele>
        <time>2019-01-18T14:33:26.000Z</time>
      </trkpt>
      <trkpt lat="43.34574" lon="5.66186">
        <ele>378</ele>
        <time>2019-01-18T14:33:27.000Z</time>
      </trkpt>
      <trkpt lat="43.34575" lon="5.66186">
        <ele>378</ele>
        <time>2019-01-18T14:33:28.000Z</time>
      </trkpt>
      <trkpt lat="43.34575" lon="5.66187">
        <ele>378</ele>
        <time>2019-01-18T14:33:29.000Z</time>
      </trkpt>
      <trkpt lat="43.34576" lon="5.66188">
        <ele>378</ele>
        <time>2019-01-18T14:33:30.000Z</time>
      </trkpt>
      <trkpt lat="43.34576" lon="5.66189">
        <ele>378</ele>
        <time>2019-01-18T14:33:31.000Z</time>
      </trkpt>
      <trkpt lat="43.34577" lon="5.6619">
        <ele>378</ele>
        <time>2019-01-18T14:33:32.000Z</time>
      </trkpt>
      <trkpt lat="43.34578" lon="5.6619">
        <ele>378</ele>
        <time>2019-01-18T14:33:33.000Z</time>
      </trkpt>
      <trkpt lat="43.34578" lon="5.66191">
        <ele>378</ele>
        <time>2019-01-18T14:33:34.000Z</time>
      </trkpt>
      <trkpt lat="43.34579" lon="5.66192">
        <ele>378</ele>
        <time>2019-01-18T14:33:35.000Z</time>
      </trkpt>
      <trkpt lat="43.3458" lon="5.66193">
        <ele>378</ele>
        <time>2019-01-18T14:33:36.000Z</time>
      </trkpt>
      <trkpt lat="43.3458" lon="5.66194">
        <ele>378</ele>
        <time>2019-01-18T14:33:37.000Z</time>
      </trkpt>
      <trkpt lat="43.34581" lon="5.66194">
        <ele>378</ele>
        <time>2019-01-18T14:33:38.000Z</time>
      </trkpt>
      <trkpt lat="43.34581" lon="5.66194">
        <ele>378</ele>
        <time>2019-01-18T14:33:39.000Z</time>
      </trkpt>
      <trkpt lat="43.34581" lon="5.66194">
        <ele>378</ele>
        <time>2019-01-18T14:33:40.000Z</time>
      </trkpt>
      <trkpt lat="43.34581" lon="5.66194">
        <ele>378</ele>
        <time>2019-01-18T14:33:41.000Z</time>
      </trkpt>
      <trkpt lat="43.34581" lon="5.66195">
        <ele>378</ele>
        <time>2019-01-18T14:33:42.000Z</time>
      </trkpt>
      <trkpt lat="43.34581" lon="5.66195">
        <ele>378</ele>
        <time>2019-01-18T14:33:43.000Z</time>
      </trkpt>
      <trkpt lat="43.34581" lon="5.66195">
        <ele>378</ele>
        <time>2019-01-18T14:33:44.000Z</time>
      </trkpt>
      <trkpt lat="43.34581" lon="5.66195">
        <ele>378</ele>
        <time>2019-01-18T14:33:45.000Z</time>
      </trkpt>
      <trkpt lat="43.34581" lon="5.66195">
        <ele>378</ele>
        <time>2019-01-18T14:33:46.000Z</time>
      </trkpt>
      <trkpt lat="43.34581" lon="5.66195">
        <ele>378</ele>
        <time>2019-01-18T14:33:47.000Z</time>
      </trkpt>
      <trkpt lat="43.34582" lon="5.66196">
        <ele>378</ele>
        <time>2019-01-18T14:33:48.000Z</time>
      </trkpt>
      <trkpt lat="43.34583" lon="5.66197">
        <ele>378</ele>
        <time>2019-01-18T14:33:49.000Z</time>
      </trkpt>
      <trkpt lat="43.34583" lon="5.66198">
        <ele>378</ele>
        <time>2019-01-18T14:33:50.000Z</time>
      </trkpt>
      <trkpt lat="43.34584" lon="5.66199">
        <ele>378</ele>
        <time>2019-01-18T14:33:51.000Z</time>
      </trkpt>
      <trkpt lat="43.34584" lon="5.662">
        <ele>378</ele>
        <time>2019-01-18T14:33:52.000Z</time>
      </trkpt>
      <trkpt lat="43.34585" lon="5.662">
        <ele>378</ele>
        <time>2019-01-18T14:33:53.000Z</time>
      </trkpt>
      <trkpt lat="43.34585" lon="5.66201">
        <ele>378</ele>
        <time>2019-01-18T14:33:54.000Z</time>
      </trkpt>
      <trkpt lat="43.34586" lon="5.66202">
        <ele>378</ele>
        <time>2019-01-18T14:33:55.000Z</time>
      </trkpt>
      <trkpt lat="43.34586" lon="5.66203">
        <ele>378</ele>
        <time>2019-01-18T14:33:56.000Z</time>
      </trkpt>
      <trkpt lat="43.34587" lon="5.66204">
        <ele>378</ele>
        <time>2019-01-18T14:33:57.000Z</time>
      </trkpt>
      <trkpt lat="43.34587" lon="5.66204">
        <ele>378</ele>
        <time>2019-01-18T14:33:58.000Z</time>
      </trkpt>
      <trkpt lat="43.34588" lon="5.66205">
        <ele>378</ele>
        <time>2019-01-18T14:33:59.000Z</time>
      </trkpt>
      <trkpt lat="43.34588" lon="5.66206">
        <ele>378</ele>
        <time>2019-01-18T14:34:00.000Z</time>
      </trkpt>
      <trkpt lat="43.34589" lon="5.66207">
        <ele>378</ele>
        <time>2019-01-18T14:34:01.000Z</time>
      </trkpt>
      <trkpt lat="43.34589" lon="5.66208">
        <ele>378</ele>
        <time>2019-01-18T14:34:02.000Z</time>
      </trkpt>
      <trkpt lat="43.3459" lon="5.66208">
        <ele>378</ele>
        <time>2019-01-18T14:34:03.000Z</time>
      </trkpt>
      <trkpt lat="43.34591" lon="5.66209">
        <ele>379</ele>
        <time>2019-01-18T14:34:04.000Z</time>
      </trkpt>
      <trkpt lat="43.34592" lon="5.6621">
        <ele>379</ele>
        <time>2019-01-18T14:34:05.000Z</time>
      </trkpt>
      <trkpt lat="43.34592" lon="5.66211">
        <ele>379</ele>
        <time>2019-01-18T14:34:06.000Z</time>
      </trkpt>
      <trkpt lat="43.34593" lon="5.66212">
        <ele>379</ele>
        <time>2019-01-18T14:34:07.000Z</time>
      </trkpt>
      <trkpt lat="43.34593" lon="5.66213">
        <ele>379</ele>
        <time>2019-01-18T14:34:08.000Z</time>
      </trkpt>
      <trkpt lat="43.34594" lon="5.66213">
        <ele>379</ele>
        <time>2019-01-18T14:34:09.000Z</time>
      </trkpt>
      <trkpt lat="43.34594" lon="5.66214">
        <ele>379</ele>
        <time>2019-01-18T14:34:10.000Z</time>
      </trkpt>
      <trkpt lat="43.34595" lon="5.66215">
        <ele>379</ele>
        <time>2019-01-18T14:34:11.000Z</time>
      </trkpt>
      <trkpt lat="43.34595" lon="5.66215">
        <ele>379</ele>
        <time>2019-01-18T14:34:12.000Z</time>
      </trkpt>
      <trkpt lat="43.34596" lon="5.66216">
        <ele>379</ele>
        <time>2019-01-18T14:34:13.000Z</time>
      </trkpt>
      <trkpt lat="43.34596" lon="5.66216">
        <ele>380</ele>
        <time>2019-01-18T14:34:14.000Z</time>
      </trkpt>
      <trkpt lat="43.34597" lon="5.66217">
        <ele>380</ele>
        <time>2019-01-18T14:34:15.000Z</time>
      </trkpt>
      <trkpt lat="43.34597" lon="5.66218">
        <ele>380</ele>
        <time>2019-01-18T14:34:16.000Z</time>
      </trkpt>
      <trkpt lat="43.34597" lon="5.66218">
        <ele>380</ele>
        <time>2019-01-18T14:34:17.000Z</time>
      </trkpt>
      <trkpt lat="43.34597" lon="5.66219">
        <ele>380</ele>
        <time>2019-01-18T14:34:18.000Z</time>
      </trkpt>
      <trkpt lat="43.34597" lon="5.66219">
        <ele>380</ele>
        <time>2019-01-18T14:34:19.000Z</time>
      </trkpt>
      <trkpt lat="43.34598" lon="5.66219">
        <ele>380</ele>
        <time>2019-01-18T14:34:20.000Z</time>
      </trkpt>
      <trkpt lat="43.34598" lon="5.66219">
        <ele>380</ele>
        <time>2019-01-18T14:34:21.000Z</time>
      </trkpt>
      <trkpt lat="43.34598" lon="5.66219">
        <ele>380</ele>
        <time>2019-01-18T14:34:22.000Z</time>
      </trkpt>
      <trkpt lat="43.34598" lon="5.66219">
        <ele>381</ele>
        <time>2019-01-18T14:34:23.000Z</time>
      </trkpt>
      <trkpt lat="43.34598" lon="5.66219">
        <ele>381</ele>
        <time>2019-01-18T14:34:24.000Z</time>
      </trkpt>
      <trkpt lat="43.34598" lon="5.66219">
        <ele>381</ele>
        <time>2019-01-18T14:34:25.000Z</time>
      </trkpt>
      <trkpt lat="43.34599" lon="5.6622">
        <ele>381</ele>
        <time>2019-01-18T14:34:26.000Z</time>
      </trkpt>
      <trkpt lat="43.34599" lon="5.66221">
        <ele>381</ele>
        <time>2019-01-18T14:34:27.000Z</time>
      </trkpt>
      <trkpt lat="43.346" lon="5.66221">
        <ele>381</ele>
        <time>2019-01-18T14:34:28.000Z</time>
      </trkpt>
      <trkpt lat="43.34601" lon="5.66222">
        <ele>381</ele>
        <time>2019-01-18T14:34:29.000Z</time>
      </trkpt>
      <trkpt lat="43.34601" lon="5.66223">
        <ele>381</ele>
        <time>2019-01-18T14:34:30.000Z</time>
      </trkpt>
      <trkpt lat="43.34602" lon="5.66223">
        <ele>381</ele>
        <time>2019-01-18T14:34:31.000Z</time>
      </trkpt>
      <trkpt lat="43.34602" lon="5.66224">
        <ele>381</ele>
        <time>2019-01-18T14:34:32.000Z</time>
      </trkpt>
      <trkpt lat="43.34603" lon="5.66225">
        <ele>381</ele>
        <time>2019-01-18T14:34:33.000Z</time>
      </trkpt>
      <trkpt lat="43.34604" lon="5.66226">
        <ele>381</ele>
        <time>2019-01-18T14:34:34.000Z</time>
      </trkpt>
      <trkpt lat="43.34604" lon="5.66227">
        <ele>382</ele>
        <time>2019-01-18T14:34:35.000Z</time>
      </trkpt>
      <trkpt lat="43.34605" lon="5.66227">
        <ele>382</ele>
        <time>2019-01-18T14:34:36.000Z</time>
      </trkpt>
      <trkpt lat="43.34605" lon="5.66228">
        <ele>382</ele>
        <time>2019-01-18T14:34:37.000Z</time>
      </trkpt>
      <trkpt lat="43.34606" lon="5.66227">
        <ele>382</ele>
        <time>2019-01-18T14:34:38.000Z</time>
      </trkpt>
      <trkpt lat="43.34607" lon="5.66227">
        <ele>382</ele>
        <time>2019-01-18T14:34:39.000Z</time>
      </trkpt>
      <trkpt lat="43.34608" lon="5.66228">
        <ele>382</ele>
        <time>2019-01-18T14:34:40.000Z</time>
      </trkpt>
      <trkpt lat="43.34609" lon="5.66228">
        <ele>382</ele>
        <time>2019-01-18T14:34:41.000Z</time>
      </trkpt>
      <trkpt lat="43.3461" lon="5.66228">
        <ele>382</ele>
        <time>2019-01-18T14:34:42.000Z</time>
      </trkpt>
      <trkpt lat="43.34611" lon="5.66229">
        <ele>382</ele>
        <time>2019-01-18T14:34:43.000Z</time>
      </trkpt>
      <trkpt lat="43.34612" lon="5.66229">
        <ele>382</ele>
        <time>2019-01-18T14:34:44.000Z</time>
      </trkpt>
      <trkpt lat="43.34612" lon="5.66229">
        <ele>382</ele>
        <time>2019-01-18T14:34:45.000Z</time>
      </trkpt>
      <trkpt lat="43.34613" lon="5.66229">
        <ele>383</ele>
        <time>2019-01-18T14:34:46.000Z</time>
      </trkpt>
      <trkpt lat="43.34614" lon="5.6623">
        <ele>383</ele>
        <time>2019-01-18T14:34:47.000Z</time>
      </trkpt>
      <trkpt lat="43.34615" lon="5.6623">
        <ele>383</ele>
        <time>2019-01-18T14:34:48.000Z</time>
      </trkpt>
      <trkpt lat="43.34615" lon="5.66231">
        <ele>383</ele>
        <time>2019-01-18T14:34:49.000Z</time>
      </trkpt>
      <trkpt lat="43.34616" lon="5.66231">
        <ele>383</ele>
        <time>2019-01-18T14:34:50.000Z</time>
      </trkpt>
      <trkpt lat="43.34617" lon="5.66231">
        <ele>383</ele>
        <time>2019-01-18T14:34:51.000Z</time>
      </trkpt>
      <trkpt lat="43.34617" lon="5.66231">
        <ele>383</ele>
        <time>2019-01-18T14:34:52.000Z</time>
      </trkpt>
      <trkpt lat="43.34619" lon="5.66232">
        <ele>383</ele>
        <time>2019-01-18T14:34:53.000Z</time>
      </trkpt>
      <trkpt lat="43.34619" lon="5.66232">
        <ele>383</ele>
        <time>2019-01-18T14:34:54.000Z</time>
      </trkpt>
      <trkpt lat="43.3462" lon="5.66232">
        <ele>383</ele>
        <time>2019-01-18T14:34:55.000Z</time>
      </trkpt>
      <trkpt lat="43.34621" lon="5.66232">
        <ele>383</ele>
        <time>2019-01-18T14:34:56.000Z</time>
      </trkpt>
      <trkpt lat="43.34622" lon="5.66232">
        <ele>383</ele>
        <time>2019-01-18T14:34:57.000Z</time>
      </trkpt>
      <trkpt lat="43.34622" lon="5.66231">
        <ele>383</ele>
        <time>2019-01-18T14:34:58.000Z</time>
      </trkpt>
      <trkpt lat="43.34623" lon="5.66231">
        <ele>383</ele>
        <time>2019-01-18T14:34:59.000Z</time>
      </trkpt>
      <trkpt lat="43.34624" lon="5.66231">
        <ele>383</ele>
        <time>2019-01-18T14:35:00.000Z</time>
      </trkpt>
      <trkpt lat="43.34625" lon="5.66231">
        <ele>383</ele>
        <time>2019-01-18T14:35:01.000Z</time>
      </trkpt>
      <trkpt lat="43.34626" lon="5.66231">
        <ele>383</ele>
        <time>2019-01-18T14:35:02.000Z</time>
      </trkpt>
      <trkpt lat="43.34627" lon="5.66231">
        <ele>383</ele>
        <time>2019-01-18T14:35:03.000Z</time>
      </trkpt>
      <trkpt lat="43.34628" lon="5.66231">
        <ele>383</ele>
        <time>2019-01-18T14:35:04.000Z</time>
      </trkpt>
      <trkpt lat="43.34628" lon="5.66231">
        <ele>383</ele>
        <time>2019-01-18T14:35:05.000Z</time>
      </trkpt>
      <trkpt lat="43.34628" lon="5.66231">
        <ele>383</ele>
        <time>2019-01-18T14:35:06.000Z</time>
      </trkpt>
      <trkpt lat="43.34628" lon="5.66231">
        <ele>383</ele>
        <time>2019-01-18T14:35:07.000Z</time>
      </trkpt>
      <trkpt lat="43.34628" lon="5.66231">
        <ele>383</ele>
        <time>2019-01-18T14:35:08.000Z</time>
      </trkpt>
      <trkpt lat="43.34628" lon="5.66231">
        <ele>383</ele>
        <time>2019-01-18T14:35:09.000Z</time>
      </trkpt>
      <trkpt lat="43.34629" lon="5.66231">
        <ele>383</ele>
        <time>2019-01-18T14:35:10.000Z</time>
      </trkpt>
      <trkpt lat="43.34629" lon="5.66231">
        <ele>383</ele>
        <time>2019-01-18T14:35:11.000Z</time>
      </trkpt>
      <trkpt lat="43.3463" lon="5.6623">
        <ele>383</ele>
        <time>2019-01-18T14:35:12.000Z</time>
      </trkpt>
      <trkpt lat="43.3463" lon="5.6623">
        <ele>383</ele>
        <time>2019-01-18T14:35:13.000Z</time>
      </trkpt>
      <trkpt lat="43.34631" lon="5.66229">
        <ele>383</ele>
        <time>2019-01-18T14:35:14.000Z</time>
      </trkpt>
      <trkpt lat="43.34632" lon="5.66228">
        <ele>382</ele>
        <time>2019-01-18T14:35:15.000Z</time>
      </trkpt>
      <trkpt lat="43.34632" lon="5.66227">
        <ele>382</ele>
        <time>2019-01-18T14:35:16.000Z</time>
      </trkpt>
      <trkpt lat="43.34632" lon="5.66227">
        <ele>382</ele>
        <time>2019-01-18T14:35:17.000Z</time>
      </trkpt>
      <trkpt lat="43.34633" lon="5.66226">
        <ele>382</ele>
        <time>2019-01-18T14:35:18.000Z</time>
      </trkpt>
      <trkpt lat="43.34633" lon="5.66225">
        <ele>381</ele>
        <time>2019-01-18T14:35:19.000Z</time>
      </trkpt>
      <trkpt lat="43.34634" lon="5.66225">
        <ele>381</ele>
        <time>2019-01-18T14:35:20.000Z</time>
      </trkpt>
      <trkpt lat="43.34634" lon="5.66224">
        <ele>381</ele>
        <time>2019-01-18T14:35:21.000Z</time>
      </trkpt>
      <trkpt lat="43.34634" lon="5.66224">
        <ele>381</ele>
        <time>2019-01-18T14:35:22.000Z</time>
      </trkpt>
      <trkpt lat="43.34635" lon="5.66223">
        <ele>381</ele>
        <time>2019-01-18T14:35:23.000Z</time>
      </trkpt>
      <trkpt lat="43.34635" lon="5.66222">
        <ele>380</ele>
        <time>2019-01-18T14:35:24.000Z</time>
      </trkpt>
      <trkpt lat="43.34636" lon="5.66222">
        <ele>380</ele>
        <time>2019-01-18T14:35:25.000Z</time>
      </trkpt>
      <trkpt lat="43.34636" lon="5.66221">
        <ele>380</ele>
        <time>2019-01-18T14:35:26.000Z</time>
      </trkpt>
      <trkpt lat="43.34636" lon="5.66221">
        <ele>380</ele>
        <time>2019-01-18T14:35:27.000Z</time>
      </trkpt>
      <trkpt lat="43.34637" lon="5.6622">
        <ele>379</ele>
        <time>2019-01-18T14:35:28.000Z</time>
      </trkpt>
      <trkpt lat="43.34637" lon="5.66219">
        <ele>379</ele>
        <time>2019-01-18T14:35:29.000Z</time>
      </trkpt>
      <trkpt lat="43.34638" lon="5.66219">
        <ele>379</ele>
        <time>2019-01-18T14:35:30.000Z</time>
      </trkpt>
      <trkpt lat="43.34638" lon="5.66218">
        <ele>379</ele>
        <time>2019-01-18T14:35:31.000Z</time>
      </trkpt>
      <trkpt lat="43.34639" lon="5.66217">
        <ele>379</ele>
        <time>2019-01-18T14:35:32.000Z</time>
      </trkpt>
      <trkpt lat="43.3464" lon="5.66216">
        <ele>378</ele>
        <time>2019-01-18T14:35:33.000Z</time>
      </trkpt>
      <trkpt lat="43.3464" lon="5.66215">
        <ele>378</ele>
        <time>2019-01-18T14:35:34.000Z</time>
      </trkpt>
      <trkpt lat="43.34641" lon="5.66215">
        <ele>378</ele>
        <time>2019-01-18T14:35:35.000Z</time>
      </trkpt>
      <trkpt lat="43.34641" lon="5.66214">
        <ele>378</ele>
        <time>2019-01-18T14:35:36.000Z</time>
      </trkpt>
      <trkpt lat="43.34642" lon="5.66214">
        <ele>378</ele>
        <time>2019-01-18T14:35:37.000Z</time>
      </trkpt>
      <trkpt lat="43.34642" lon="5.66213">
        <ele>378</ele>
        <time>2019-01-18T14:35:38.000Z</time>
      </trkpt>
      <trkpt lat="43.34643" lon="5.66213">
        <ele>378</ele>
        <time>2019-01-18T14:35:39.000Z</time>
      </trkpt>
      <trkpt lat="43.34643" lon="5.66213">
        <ele>378</ele>
        <time>2019-01-18T14:35:40.000Z</time>
      </trkpt>
      <trkpt lat="43.34643" lon="5.66212">
        <ele>377</ele>
        <time>2019-01-18T14:35:41.000Z</time>
      </trkpt>
      <trkpt lat="43.34644" lon="5.66212">
        <ele>377</ele>
        <time>2019-01-18T14:35:42.000Z</time>
      </trkpt>
      <trkpt lat="43.34644" lon="5.66211">
        <ele>377</ele>
        <time>2019-01-18T14:35:43.000Z</time>
      </trkpt>
      <trkpt lat="43.34645" lon="5.66211">
        <ele>377</ele>
        <time>2019-01-18T14:35:44.000Z</time>
      </trkpt>
      <trkpt lat="43.34645" lon="5.6621">
        <ele>377</ele>
        <time>2019-01-18T14:35:45.000Z</time>
      </trkpt>
      <trkpt lat="43.34645" lon="5.6621">
        <ele>377</ele>
        <time>2019-01-18T14:35:46.000Z</time>
      </trkpt>
      <trkpt lat="43.34645" lon="5.66209">
        <ele>377</ele>
        <time>2019-01-18T14:35:47.000Z</time>
      </trkpt>
      <trkpt lat="43.34645" lon="5.66208">
        <ele>377</ele>
        <time>2019-01-18T14:35:48.000Z</time>
      </trkpt>
      <trkpt lat="43.34644" lon="5.66207">
        <ele>376</ele>
        <time>2019-01-18T14:35:49.000Z</time>
      </trkpt>
      <trkpt lat="43.34644" lon="5.66207">
        <ele>376</ele>
        <time>2019-01-18T14:35:50.000Z</time>
      </trkpt>
      <trkpt lat="43.34644" lon="5.66206">
        <ele>376</ele>
        <time>2019-01-18T14:35:51.000Z</time>
      </trkpt>
      <trkpt lat="43.34644" lon="5.66205">
        <ele>376</ele>
        <time>2019-01-18T14:35:52.000Z</time>
      </trkpt>
      <trkpt lat="43.34644" lon="5.66204">
        <ele>376</ele>
        <time>2019-01-18T14:35:53.000Z</time>
      </trkpt>
      <trkpt lat="43.34644" lon="5.66204">
        <ele>376</ele>
        <time>2019-01-18T14:35:54.000Z</time>
      </trkpt>
      <trkpt lat="43.34644" lon="5.66204">
        <ele>376</ele>
        <time>2019-01-18T14:35:55.000Z</time>
      </trkpt>
      <trkpt lat="43.34644" lon="5.66204">
        <ele>376</ele>
        <time>2019-01-18T14:35:56.000Z</time>
      </trkpt>
      <trkpt lat="43.34644" lon="5.66204">
        <ele>376</ele>
        <time>2019-01-18T14:35:57.000Z</time>
      </trkpt>
      <trkpt lat="43.34644" lon="5.66203">
        <ele>376</ele>
        <time>2019-01-18T14:35:58.000Z</time>
      </trkpt>
      <trkpt lat="43.34644" lon="5.66203">
        <ele>376</ele>
        <time>2019-01-18T14:35:59.000Z</time>
      </trkpt>
      <trkpt lat="43.34644" lon="5.66203">
        <ele>376</ele>
        <time>2019-01-18T14:36:00.000Z</time>
      </trkpt>
      <trkpt lat="43.34644" lon="5.66203">
        <ele>375</ele>
        <time>2019-01-18T14:36:01.000Z</time>
      </trkpt>
      <trkpt lat="43.34644" lon="5.66203">
        <ele>375</ele>
        <time>2019-01-18T14:36:02.000Z</time>
      </trkpt>
      <trkpt lat="43.34643" lon="5.66202">
        <ele>375</ele>
        <time>2019-01-18T14:36:03.000Z</time>
      </trkpt>
      <trkpt lat="43.34643" lon="5.66202">
        <ele>375</ele>
        <time>2019-01-18T14:36:04.000Z</time>
      </trkpt>
      <trkpt lat="43.34643" lon="5.66202">
        <ele>375</ele>
        <time>2019-01-18T14:36:05.000Z</time>
      </trkpt>
      <trkpt lat="43.34643" lon="5.66202">
        <ele>375</ele>
        <time>2019-01-18T14:36:06.000Z</time>
      </trkpt>
      <trkpt lat="43.34643" lon="5.66202">
        <ele>375</ele>
        <time>2019-01-18T14:36:07.000Z</time>
      </trkpt>
      <trkpt lat="43.34643" lon="5.66202">
        <ele>375</ele>
        <time>2019-01-18T14:36:08.000Z</time>
      </trkpt>
      <trkpt lat="43.34643" lon="5.66202">
        <ele>375</ele>
        <time>2019-01-18T14:36:09.000Z</time>
      </trkpt>
      <trkpt lat="43.34643" lon="5.66202">
        <ele>375</ele>
        <time>2019-01-18T14:36:10.000Z</time>
      </trkpt>
      <trkpt lat="43.34643" lon="5.66202">
        <ele>375</ele>
        <time>2019-01-18T14:36:11.000Z</time>
      </trkpt>
      <trkpt lat="43.34643" lon="5.66202">
        <ele>375</ele>
        <time>2019-01-18T14:36:12.000Z</time>
      </trkpt>
      <trkpt lat="43.34643" lon="5.66202">
        <ele>374</ele>
        <time>2019-01-18T14:36:13.000Z</time>
      </trkpt>
      <trkpt lat="43.34643" lon="5.66202">
        <ele>374</ele>
        <time>2019-01-18T14:36:14.000Z</time>
      </trkpt>
      <trkpt lat="43.34643" lon="5.66202">
        <ele>374</ele>
        <time>2019-01-18T14:36:15.000Z</time>
      </trkpt>
      <trkpt lat="43.34643" lon="5.66202">
        <ele>374</ele>
        <time>2019-01-18T14:36:16.000Z</time>
      </trkpt>
      <trkpt lat="43.34643" lon="5.66202">
        <ele>374</ele>
        <time>2019-01-18T14:36:17.000Z</time>
      </trkpt>
      <trkpt lat="43.34643" lon="5.66202">
        <ele>374</ele>
        <time>2019-01-18T14:36:18.000Z</time>
      </trkpt>
      <trkpt lat="43.34643" lon="5.66202">
        <ele>374</ele>
        <time>2019-01-18T14:36:19.000Z</time>
      </trkpt>
      <trkpt lat="43.34643" lon="5.66202">
        <ele>374</ele>
        <time>2019-01-18T14:36:20.000Z</time>
      </trkpt>
      <trkpt lat="43.34642" lon="5.66202">
        <ele>374</ele>
        <time>2019-01-18T14:36:21.000Z</time>
      </trkpt>
      <trkpt lat="43.34642" lon="5.66202">
        <ele>374</ele>
        <time>2019-01-18T14:36:22.000Z</time>
      </trkpt>
      <trkpt lat="43.34642" lon="5.66202">
        <ele>374</ele>
        <time>2019-01-18T14:36:23.000Z</time>
      </trkpt>
      <trkpt lat="43.34642" lon="5.66202">
        <ele>374</ele>
        <time>2019-01-18T14:36:24.000Z</time>
      </trkpt>
      <trkpt lat="43.34642" lon="5.66202">
        <ele>374</ele>
        <time>2019-01-18T14:36:25.000Z</time>
      </trkpt>
      <trkpt lat="43.34642" lon="5.66202">
        <ele>374</ele>
        <time>2019-01-18T14:36:26.000Z</time>
      </trkpt>
      <trkpt lat="43.34642" lon="5.66202">
        <ele>374</ele>
        <time>2019-01-18T14:36:27.000Z</time>
      </trkpt>
      <trkpt lat="43.34642" lon="5.66202">
        <ele>374</ele>
        <time>2019-01-18T14:36:28.000Z</time>
      </trkpt>
      <trkpt lat="43.34642" lon="5.66202">
        <ele>374</ele>
        <time>2019-01-18T14:36:29.000Z</time>
      </trkpt>
      <trkpt lat="43.34642" lon="5.66202">
        <ele>374</ele>
        <time>2019-01-18T14:36:30.000Z</time>
      </trkpt>
      <trkpt lat="43.34642" lon="5.66201">
        <ele>374</ele>
        <time>2019-01-18T14:36:31.000Z</time>
      </trkpt>
      <trkpt lat="43.34642" lon="5.66201">
        <ele>374</ele>
        <time>2019-01-18T14:36:32.000Z</time>
      </trkpt>
      <trkpt lat="43.34642" lon="5.662">
        <ele>374</ele>
        <time>2019-01-18T14:36:33.000Z</time>
      </trkpt>
      <trkpt lat="43.34642" lon="5.662">
        <ele>374</ele>
        <time>2019-01-18T14:36:34.000Z</time>
      </trkpt>
      <trkpt lat="43.34642" lon="5.662">
        <ele>374</ele>
        <time>2019-01-18T14:36:35.000Z</time>
      </trkpt>
      <trkpt lat="43.34642" lon="5.662">
        <ele>374</ele>
        <time>2019-01-18T14:36:36.000Z</time>
      </trkpt>
      <trkpt lat="43.34642" lon="5.66201">
        <ele>374</ele>
        <time>2019-01-18T14:36:37.000Z</time>
      </trkpt>
      <trkpt lat="43.34642" lon="5.66201">
        <ele>374</ele>
        <time>2019-01-18T14:36:38.000Z</time>
      </trkpt>
      <trkpt lat="43.34642" lon="5.66201">
        <ele>374</ele>
        <time>2019-01-18T14:36:39.000Z</time>
      </trkpt>
      <trkpt lat="43.34642" lon="5.66201">
        <ele>374</ele>
        <time>2019-01-18T14:36:40.000Z</time>
      </trkpt>
      <trkpt lat="43.34642" lon="5.662">
        <ele>374</ele>
        <time>2019-01-18T14:36:41.000Z</time>
      </trkpt>
      <trkpt lat="43.34642" lon="5.662">
        <ele>374</ele>
        <time>2019-01-18T14:36:42.000Z</time>
      </trkpt>
      <trkpt lat="43.34642" lon="5.662">
        <ele>374</ele>
        <time>2019-01-18T14:36:43.000Z</time>
      </trkpt>
      <trkpt lat="43.34641" lon="5.66199">
        <ele>373</ele>
        <time>2019-01-18T14:36:44.000Z</time>
      </trkpt>
      <trkpt lat="43.34641" lon="5.66198">
        <ele>373</ele>
        <time>2019-01-18T14:36:45.000Z</time>
      </trkpt>
      <trkpt lat="43.34641" lon="5.66198">
        <ele>373</ele>
        <time>2019-01-18T14:36:46.000Z</time>
      </trkpt>
      <trkpt lat="43.34641" lon="5.66197">
        <ele>373</ele>
        <time>2019-01-18T14:36:47.000Z</time>
      </trkpt>
      <trkpt lat="43.3464" lon="5.66196">
        <ele>373</ele>
        <time>2019-01-18T14:36:48.000Z</time>
      </trkpt>
      <trkpt lat="43.3464" lon="5.66196">
        <ele>373</ele>
        <time>2019-01-18T14:36:49.000Z</time>
      </trkpt>
      <trkpt lat="43.3464" lon="5.66196">
        <ele>373</ele>
        <time>2019-01-18T14:36:50.000Z</time>
      </trkpt>
      <trkpt lat="43.3464" lon="5.66196">
        <ele>373</ele>
        <time>2019-01-18T14:36:51.000Z</time>
      </trkpt>
      <trkpt lat="43.3464" lon="5.66196">
        <ele>373</ele>
        <time>2019-01-18T14:36:52.000Z</time>
      </trkpt>
      <trkpt lat="43.3464" lon="5.66195">
        <ele>373</ele>
        <time>2019-01-18T14:36:53.000Z</time>
      </trkpt>
      <trkpt lat="43.3464" lon="5.66195">
        <ele>373</ele>
        <time>2019-01-18T14:36:54.000Z</time>
      </trkpt>
      <trkpt lat="43.3464" lon="5.66194">
        <ele>373</ele>
        <time>2019-01-18T14:36:55.000Z</time>
      </trkpt>
      <trkpt lat="43.34639" lon="5.66194">
        <ele>373</ele>
        <time>2019-01-18T14:36:56.000Z</time>
      </trkpt>
      <trkpt lat="43.34639" lon="5.66193">
        <ele>372</ele>
        <time>2019-01-18T14:36:57.000Z</time>
      </trkpt>
      <trkpt lat="43.34638" lon="5.66192">
        <ele>372</ele>
        <time>2019-01-18T14:36:58.000Z</time>
      </trkpt>
      <trkpt lat="43.34637" lon="5.6619">
        <ele>372</ele>
        <time>2019-01-18T14:36:59.000Z</time>
      </trkpt>
      <trkpt lat="43.34636" lon="5.66189">
        <ele>372</ele>
        <time>2019-01-18T14:37:00.000Z</time>
      </trkpt>
      <trkpt lat="43.34636" lon="5.66188">
        <ele>372</ele>
        <time>2019-01-18T14:37:01.000Z</time>
      </trkpt>
      <trkpt lat="43.34635" lon="5.66188">
        <ele>372</ele>
        <time>2019-01-18T14:37:02.000Z</time>
      </trkpt>
      <trkpt lat="43.34634" lon="5.66187">
        <ele>372</ele>
        <time>2019-01-18T14:37:03.000Z</time>
      </trkpt>
      <trkpt lat="43.34633" lon="5.66186">
        <ele>372</ele>
        <time>2019-01-18T14:37:04.000Z</time>
      </trkpt>
      <trkpt lat="43.34633" lon="5.66186">
        <ele>372</ele>
        <time>2019-01-18T14:37:05.000Z</time>
      </trkpt>
      <trkpt lat="43.34632" lon="5.66185">
        <ele>372</ele>
        <time>2019-01-18T14:37:06.000Z</time>
      </trkpt>
      <trkpt lat="43.34631" lon="5.66184">
        <ele>372</ele>
        <time>2019-01-18T14:37:07.000Z</time>
      </trkpt>
      <trkpt lat="43.3463" lon="5.66184">
        <ele>372</ele>
        <time>2019-01-18T14:37:08.000Z</time>
      </trkpt>
      <trkpt lat="43.3463" lon="5.66184">
        <ele>372</ele>
        <time>2019-01-18T14:37:09.000Z</time>
      </trkpt>
      <trkpt lat="43.3463" lon="5.66184">
        <ele>373</ele>
        <time>2019-01-18T14:37:10.000Z</time>
      </trkpt>
      <trkpt lat="43.3463" lon="5.66184">
        <ele>373</ele>
        <time>2019-01-18T14:37:11.000Z</time>
      </trkpt>
      <trkpt lat="43.3463" lon="5.66184">
        <ele>373</ele>
        <time>2019-01-18T14:37:12.000Z</time>
      </trkpt>
      <trkpt lat="43.3463" lon="5.66184">
        <ele>373</ele>
        <time>2019-01-18T14:37:13.000Z</time>
      </trkpt>
      <trkpt lat="43.3463" lon="5.66184">
        <ele>373</ele>
        <time>2019-01-18T14:37:14.000Z</time>
      </trkpt>
      <trkpt lat="43.3463" lon="5.66184">
        <ele>373</ele>
        <time>2019-01-18T14:37:15.000Z</time>
      </trkpt>
      <trkpt lat="43.34629" lon="5.66183">
        <ele>373</ele>
        <time>2019-01-18T14:37:16.000Z</time>
      </trkpt>
      <trkpt lat="43.34629" lon="5.66183">
        <ele>372</ele>
        <time>2019-01-18T14:37:17.000Z</time>
      </trkpt>
      <trkpt lat="43.34629" lon="5.66183">
        <ele>372</ele>
        <time>2019-01-18T14:37:18.000Z</time>
      </trkpt>
      <trkpt lat="43.34629" lon="5.66183">
        <ele>372</ele>
        <time>2019-01-18T14:37:19.000Z</time>
      </trkpt>
      <trkpt lat="43.34629" lon="5.66183">
        <ele>372</ele>
        <time>2019-01-18T14:37:20.000Z</time>
      </trkpt>
      <trkpt lat="43.34629" lon="5.66183">
        <ele>372</ele>
        <time>2019-01-18T14:37:21.000Z</time>
      </trkpt>
      <trkpt lat="43.34629" lon="5.66183">
        <ele>372</ele>
        <time>2019-01-18T14:37:22.000Z</time>
      </trkpt>
      <trkpt lat="43.34629" lon="5.66183">
        <ele>372</ele>
        <time>2019-01-18T14:37:23.000Z</time>
      </trkpt>
      <trkpt lat="43.34629" lon="5.66183">
        <ele>372</ele>
        <time>2019-01-18T14:37:24.000Z</time>
      </trkpt>
      <trkpt lat="43.34629" lon="5.66183">
        <ele>372</ele>
        <time>2019-01-18T14:37:25.000Z</time>
      </trkpt>
      <trkpt lat="43.34629" lon="5.66183">
        <ele>372</ele>
        <time>2019-01-18T14:37:26.000Z</time>
      </trkpt>
      <trkpt lat="43.34629" lon="5.66183">
        <ele>372</ele>
        <time>2019-01-18T14:37:27.000Z</time>
      </trkpt>
      <trkpt lat="43.34629" lon="5.66183">
        <ele>372</ele>
        <time>2019-01-18T14:37:28.000Z</time>
      </trkpt>
      <trkpt lat="43.34629" lon="5.66183">
        <ele>372</ele>
        <time>2019-01-18T14:37:29.000Z</time>
      </trkpt>
      <trkpt lat="43.34629" lon="5.66183">
        <ele>372</ele>
        <time>2019-01-18T14:37:30.000Z</time>
      </trkpt>
      <trkpt lat="43.34629" lon="5.66183">
        <ele>372</ele>
        <time>2019-01-18T14:37:31.000Z</time>
      </trkpt>
      <trkpt lat="43.34629" lon="5.66183">
        <ele>372</ele>
        <time>2019-01-18T14:37:32.000Z</time>
      </trkpt>
      <trkpt lat="43.34629" lon="5.66183">
        <ele>372</ele>
        <time>2019-01-18T14:37:33.000Z</time>
      </trkpt>
      <trkpt lat="43.34629" lon="5.66183">
        <ele>372</ele>
        <time>2019-01-18T14:37:34.000Z</time>
      </trkpt>
      <trkpt lat="43.34629" lon="5.66183">
        <ele>372</ele>
        <time>2019-01-18T14:37:35.000Z</time>
      </trkpt>
      <trkpt lat="43.34629" lon="5.66182">
        <ele>372</ele>
        <time>2019-01-18T14:37:36.000Z</time>
      </trkpt>
      <trkpt lat="43.34629" lon="5.66182">
        <ele>372</ele>
        <time>2019-01-18T14:37:37.000Z</time>
      </trkpt>
      <trkpt lat="43.34629" lon="5.66182">
        <ele>372</ele>
        <time>2019-01-18T14:37:38.000Z</time>
      </trkpt>
      <trkpt lat="43.34629" lon="5.66182">
        <ele>372</ele>
        <time>2019-01-18T14:37:39.000Z</time>
      </trkpt>
      <trkpt lat="43.34629" lon="5.66182">
        <ele>372</ele>
        <time>2019-01-18T14:37:40.000Z</time>
      </trkpt>
      <trkpt lat="43.34629" lon="5.66182">
        <ele>372</ele>
        <time>2019-01-18T14:37:41.000Z</time>
      </trkpt>
      <trkpt lat="43.34629" lon="5.66182">
        <ele>372</ele>
        <time>2019-01-18T14:37:42.000Z</time>
      </trkpt>
      <trkpt lat="43.34629" lon="5.66182">
        <ele>372</ele>
        <time>2019-01-18T14:37:43.000Z</time>
      </trkpt>
      <trkpt lat="43.34629" lon="5.66181">
        <ele>372</ele>
        <time>2019-01-18T14:37:44.000Z</time>
      </trkpt>
      <trkpt lat="43.34629" lon="5.66181">
        <ele>372</ele>
        <time>2019-01-18T14:37:45.000Z</time>
      </trkpt>
      <trkpt lat="43.34629" lon="5.66181">
        <ele>372</ele>
        <time>2019-01-18T14:37:46.000Z</time>
      </trkpt>
      <trkpt lat="43.34629" lon="5.66181">
        <ele>372</ele>
        <time>2019-01-18T14:37:47.000Z</time>
      </trkpt>
      <trkpt lat="43.34629" lon="5.66181">
        <ele>372</ele>
        <time>2019-01-18T14:37:48.000Z</time>
      </trkpt>
      <trkpt lat="43.34629" lon="5.66181">
        <ele>372</ele>
        <time>2019-01-18T14:37:49.000Z</time>
      </trkpt>
      <trkpt lat="43.34629" lon="5.66181">
        <ele>373</ele>
        <time>2019-01-18T14:37:50.000Z</time>
      </trkpt>
      <trkpt lat="43.34629" lon="5.6618">
        <ele>373</ele>
        <time>2019-01-18T14:37:51.000Z</time>
      </trkpt>
      <trkpt lat="43.34629" lon="5.6618">
        <ele>373</ele>
        <time>2019-01-18T14:37:52.000Z</time>
      </trkpt>
      <trkpt lat="43.34629" lon="5.6618">
        <ele>373</ele>
        <time>2019-01-18T14:37:53.000Z</time>
      </trkpt>
      <trkpt lat="43.34629" lon="5.6618">
        <ele>373</ele>
        <time>2019-01-18T14:37:54.000Z</time>
      </trkpt>
      <trkpt lat="43.34629" lon="5.6618">
        <ele>373</ele>
        <time>2019-01-18T14:37:55.000Z</time>
      </trkpt>
      <trkpt lat="43.34629" lon="5.6618">
        <ele>373</ele>
        <time>2019-01-18T14:37:56.000Z</time>
      </trkpt>
      <trkpt lat="43.34629" lon="5.6618">
        <ele>373</ele>
        <time>2019-01-18T14:37:57.000Z</time>
      </trkpt>
      <trkpt lat="43.34629" lon="5.6618">
        <ele>373</ele>
        <time>2019-01-18T14:37:58.000Z</time>
      </trkpt>
      <trkpt lat="43.34629" lon="5.6618">
        <ele>373</ele>
        <time>2019-01-18T14:37:59.000Z</time>
      </trkpt>
      <trkpt lat="43.34629" lon="5.6618">
        <ele>373</ele>
        <time>2019-01-18T14:38:00.000Z</time>
      </trkpt>
      <trkpt lat="43.34629" lon="5.6618">
        <ele>373</ele>
        <time>2019-01-18T14:38:01.000Z</time>
      </trkpt>
      <trkpt lat="43.34629" lon="5.6618">
        <ele>373</ele>
        <time>2019-01-18T14:38:02.000Z</time>
      </trkpt>
      <trkpt lat="43.34629" lon="5.6618">
        <ele>373</ele>
        <time>2019-01-18T14:38:03.000Z</time>
      </trkpt>
      <trkpt lat="43.34629" lon="5.6618">
        <ele>373</ele>
        <time>2019-01-18T14:38:04.000Z</time>
      </trkpt>
      <trkpt lat="43.34629" lon="5.6618">
        <ele>373</ele>
        <time>2019-01-18T14:38:05.000Z</time>
      </trkpt>
      <trkpt lat="43.34629" lon="5.6618">
        <ele>373</ele>
        <time>2019-01-18T14:38:06.000Z</time>
      </trkpt>
      <trkpt lat="43.34629" lon="5.6618">
        <ele>373</ele>
        <time>2019-01-18T14:38:07.000Z</time>
      </trkpt>
      <trkpt lat="43.34629" lon="5.6618">
        <ele>373</ele>
        <time>2019-01-18T14:38:08.000Z</time>
      </trkpt>
      <trkpt lat="43.34629" lon="5.6618">
        <ele>373</ele>
        <time>2019-01-18T14:38:09.000Z</time>
      </trkpt>
      <trkpt lat="43.34629" lon="5.6618">
        <ele>373</ele>
        <time>2019-01-18T14:38:10.000Z</time>
      </trkpt>
      <trkpt lat="43.34629" lon="5.6618">
        <ele>373</ele>
        <time>2019-01-18T14:38:11.000Z</time>
      </trkpt>
      <trkpt lat="43.34629" lon="5.6618">
        <ele>373</ele>
        <time>2019-01-18T14:38:12.000Z</time>
      </trkpt>
      <trkpt lat="43.34629" lon="5.6618">
        <ele>373</ele>
        <time>2019-01-18T14:38:13.000Z</time>
      </trkpt>
      <trkpt lat="43.34629" lon="5.6618">
        <ele>373</ele>
        <time>2019-01-18T14:38:14.000Z</time>
      </trkpt>
      <trkpt lat="43.34629" lon="5.6618">
        <ele>373</ele>
        <time>2019-01-18T14:38:15.000Z</time>
      </trkpt>
      <trkpt lat="43.34629" lon="5.6618">
        <ele>373</ele>
        <time>2019-01-18T14:38:16.000Z</time>
      </trkpt>
      <trkpt lat="43.34629" lon="5.66179">
        <ele>373</ele>
        <time>2019-01-18T14:38:17.000Z</time>
      </trkpt>
      <trkpt lat="43.34629" lon="5.66179">
        <ele>373</ele>
        <time>2019-01-18T14:38:18.000Z</time>
      </trkpt>
      <trkpt lat="43.34629" lon="5.66179">
        <ele>373</ele>
        <time>2019-01-18T14:38:19.000Z</time>
      </trkpt>
      <trkpt lat="43.34629" lon="5.66178">
        <ele>373</ele>
        <time>2019-01-18T14:38:20.000Z</time>
      </trkpt>
      <trkpt lat="43.34629" lon="5.66178">
        <ele>372</ele>
        <time>2019-01-18T14:38:21.000Z</time>
      </trkpt>
      <trkpt lat="43.34629" lon="5.66178">
        <ele>372</ele>
        <time>2019-01-18T14:38:22.000Z</time>
      </trkpt>
      <trkpt lat="43.34629" lon="5.66178">
        <ele>372</ele>
        <time>2019-01-18T14:38:23.000Z</time>
      </trkpt>
      <trkpt lat="43.34629" lon="5.66178">
        <ele>372</ele>
        <time>2019-01-18T14:38:24.000Z</time>
      </trkpt>
      <trkpt lat="43.34629" lon="5.66178">
        <ele>372</ele>
        <time>2019-01-18T14:38:25.000Z</time>
      </trkpt>
      <trkpt lat="43.34629" lon="5.66178">
        <ele>372</ele>
        <time>2019-01-18T14:38:26.000Z</time>
      </trkpt>
      <trkpt lat="43.34629" lon="5.66178">
        <ele>372</ele>
        <time>2019-01-18T14:38:27.000Z</time>
      </trkpt>
      <trkpt lat="43.34629" lon="5.66178">
        <ele>372</ele>
        <time>2019-01-18T14:38:28.000Z</time>
      </trkpt>
      <trkpt lat="43.34629" lon="5.66178">
        <ele>372</ele>
        <time>2019-01-18T14:38:29.000Z</time>
      </trkpt>
      <trkpt lat="43.34629" lon="5.66178">
        <ele>372</ele>
        <time>2019-01-18T14:38:30.000Z</time>
      </trkpt>
      <trkpt lat="43.34629" lon="5.66177">
        <ele>372</ele>
        <time>2019-01-18T14:38:31.000Z</time>
      </trkpt>
      <trkpt lat="43.34629" lon="5.66177">
        <ele>372</ele>
        <time>2019-01-18T14:38:32.000Z</time>
      </trkpt>
      <trkpt lat="43.34629" lon="5.66177">
        <ele>372</ele>
        <time>2019-01-18T14:38:33.000Z</time>
      </trkpt>
      <trkpt lat="43.34629" lon="5.66177">
        <ele>372</ele>
        <time>2019-01-18T14:38:34.000Z</time>
      </trkpt>
      <trkpt lat="43.34629" lon="5.66177">
        <ele>372</ele>
        <time>2019-01-18T14:38:35.000Z</time>
      </trkpt>
      <trkpt lat="43.34629" lon="5.66177">
        <ele>372</ele>
        <time>2019-01-18T14:38:36.000Z</time>
      </trkpt>
      <trkpt lat="43.34629" lon="5.66177">
        <ele>372</ele>
        <time>2019-01-18T14:38:37.000Z</time>
      </trkpt>
      <trkpt lat="43.34629" lon="5.66177">
        <ele>372</ele>
        <time>2019-01-18T14:38:38.000Z</time>
      </trkpt>
      <trkpt lat="43.34629" lon="5.66177">
        <ele>372</ele>
        <time>2019-01-18T14:38:39.000Z</time>
      </trkpt>
      <trkpt lat="43.34629" lon="5.66177">
        <ele>372</ele>
        <time>2019-01-18T14:38:40.000Z</time>
      </trkpt>
      <trkpt lat="43.34629" lon="5.66178">
        <ele>373</ele>
        <time>2019-01-18T14:38:41.000Z</time>
      </trkpt>
      <trkpt lat="43.34629" lon="5.66178">
        <ele>373</ele>
        <time>2019-01-18T14:38:42.000Z</time>
      </trkpt>
      <trkpt lat="43.34629" lon="5.66178">
        <ele>373</ele>
        <time>2019-01-18T14:38:43.000Z</time>
      </trkpt>
      <trkpt lat="43.34629" lon="5.66178">
        <ele>373</ele>
        <time>2019-01-18T14:38:44.000Z</time>
      </trkpt>
      <trkpt lat="43.34629" lon="5.66178">
        <ele>373</ele>
        <time>2019-01-18T14:38:45.000Z</time>
      </trkpt>
      <trkpt lat="43.34629" lon="5.66178">
        <ele>373</ele>
        <time>2019-01-18T14:38:46.000Z</time>
      </trkpt>
      <trkpt lat="43.34629" lon="5.66178">
        <ele>373</ele>
        <time>2019-01-18T14:38:47.000Z</time>
      </trkpt>
      <trkpt lat="43.34629" lon="5.66178">
        <ele>372</ele>
        <time>2019-01-18T14:38:48.000Z</time>
      </trkpt>
      <trkpt lat="43.34629" lon="5.66178">
        <ele>372</ele>
        <time>2019-01-18T14:38:49.000Z</time>
      </trkpt>
      <trkpt lat="43.34628" lon="5.66178">
        <ele>372</ele>
        <time>2019-01-18T14:38:50.000Z</time>
      </trkpt>
      <trkpt lat="43.34628" lon="5.66178">
        <ele>372</ele>
        <time>2019-01-18T14:38:51.000Z</time>
      </trkpt>
      <trkpt lat="43.34628" lon="5.66177">
        <ele>372</ele>
        <time>2019-01-18T14:38:52.000Z</time>
      </trkpt>
      <trkpt lat="43.34628" lon="5.66177">
        <ele>372</ele>
        <time>2019-01-18T14:38:53.000Z</time>
      </trkpt>
      <trkpt lat="43.34628" lon="5.66177">
        <ele>372</ele>
        <time>2019-01-18T14:38:54.000Z</time>
      </trkpt>
      <trkpt lat="43.34628" lon="5.66176">
        <ele>372</ele>
        <time>2019-01-18T14:38:55.000Z</time>
      </trkpt>
      <trkpt lat="43.34628" lon="5.66176">
        <ele>372</ele>
        <time>2019-01-18T14:38:56.000Z</time>
      </trkpt>
      <trkpt lat="43.34628" lon="5.66176">
        <ele>372</ele>
        <time>2019-01-18T14:38:57.000Z</time>
      </trkpt>
      <trkpt lat="43.34628" lon="5.66176">
        <ele>372</ele>
        <time>2019-01-18T14:38:58.000Z</time>
      </trkpt>
      <trkpt lat="43.34628" lon="5.66175">
        <ele>372</ele>
        <time>2019-01-18T14:38:59.000Z</time>
      </trkpt>
      <trkpt lat="43.34627" lon="5.66175">
        <ele>372</ele>
        <time>2019-01-18T14:39:00.000Z</time>
      </trkpt>
      <trkpt lat="43.34627" lon="5.66175">
        <ele>371</ele>
        <time>2019-01-18T14:39:01.000Z</time>
      </trkpt>
      <trkpt lat="43.34627" lon="5.66175">
        <ele>371</ele>
        <time>2019-01-18T14:39:02.000Z</time>
      </trkpt>
      <trkpt lat="43.34627" lon="5.66175">
        <ele>371</ele>
        <time>2019-01-18T14:39:03.000Z</time>
      </trkpt>
      <trkpt lat="43.34627" lon="5.66175">
        <ele>371</ele>
        <time>2019-01-18T14:39:04.000Z</time>
      </trkpt>
      <trkpt lat="43.34627" lon="5.66175">
        <ele>371</ele>
        <time>2019-01-18T14:39:05.000Z</time>
      </trkpt>
      <trkpt lat="43.34627" lon="5.66175">
        <ele>371</ele>
        <time>2019-01-18T14:39:06.000Z</time>
      </trkpt>
      <trkpt lat="43.34627" lon="5.66174">
        <ele>371</ele>
        <time>2019-01-18T14:39:07.000Z</time>
      </trkpt>
      <trkpt lat="43.34627" lon="5.66174">
        <ele>371</ele>
        <time>2019-01-18T14:39:08.000Z</time>
      </trkpt>
      <trkpt lat="43.34627" lon="5.66173">
        <ele>371</ele>
        <time>2019-01-18T14:39:09.000Z</time>
      </trkpt>
      <trkpt lat="43.34627" lon="5.66172">
        <ele>370</ele>
        <time>2019-01-18T14:39:10.000Z</time>
      </trkpt>
      <trkpt lat="43.34628" lon="5.66172">
        <ele>370</ele>
        <time>2019-01-18T14:39:11.000Z</time>
      </trkpt>
      <trkpt lat="43.34628" lon="5.66171">
        <ele>370</ele>
        <time>2019-01-18T14:39:12.000Z</time>
      </trkpt>
      <trkpt lat="43.34628" lon="5.66171">
        <ele>370</ele>
        <time>2019-01-18T14:39:13.000Z</time>
      </trkpt>
      <trkpt lat="43.34628" lon="5.66171">
        <ele>370</ele>
        <time>2019-01-18T14:39:14.000Z</time>
      </trkpt>
      <trkpt lat="43.34628" lon="5.66171">
        <ele>370</ele>
        <time>2019-01-18T14:39:15.000Z</time>
      </trkpt>
      <trkpt lat="43.34628" lon="5.66171">
        <ele>370</ele>
        <time>2019-01-18T14:39:16.000Z</time>
      </trkpt>
      <trkpt lat="43.34629" lon="5.6617">
        <ele>370</ele>
        <time>2019-01-18T14:39:17.000Z</time>
      </trkpt>
      <trkpt lat="43.34629" lon="5.6617">
        <ele>370</ele>
        <time>2019-01-18T14:39:18.000Z</time>
      </trkpt>
      <trkpt lat="43.34629" lon="5.66169">
        <ele>370</ele>
        <time>2019-01-18T14:39:19.000Z</time>
      </trkpt>
      <trkpt lat="43.34629" lon="5.66169">
        <ele>370</ele>
        <time>2019-01-18T14:39:20.000Z</time>
      </trkpt>
      <trkpt lat="43.34629" lon="5.66169">
        <ele>369</ele>
        <time>2019-01-18T14:39:21.000Z</time>
      </trkpt>
      <trkpt lat="43.34628" lon="5.66168">
        <ele>369</ele>
        <time>2019-01-18T14:39:22.000Z</time>
      </trkpt>
      <trkpt lat="43.34628" lon="5.66168">
        <ele>369</ele>
        <time>2019-01-18T14:39:23.000Z</time>
      </trkpt>
      <trkpt lat="43.34628" lon="5.66167">
        <ele>369</ele>
        <time>2019-01-18T14:39:24.000Z</time>
      </trkpt>
      <trkpt lat="43.34628" lon="5.66167">
        <ele>369</ele>
        <time>2019-01-18T14:39:25.000Z</time>
      </trkpt>
      <trkpt lat="43.34628" lon="5.66167">
        <ele>369</ele>
        <time>2019-01-18T14:39:26.000Z</time>
      </trkpt>
      <trkpt lat="43.34628" lon="5.66167">
        <ele>369</ele>
        <time>2019-01-18T14:39:27.000Z</time>
      </trkpt>
      <trkpt lat="43.34627" lon="5.66167">
        <ele>369</ele>
        <time>2019-01-18T14:39:28.000Z</time>
      </trkpt>
      <trkpt lat="43.34627" lon="5.66167">
        <ele>369</ele>
        <time>2019-01-18T14:39:29.000Z</time>
      </trkpt>
      <trkpt lat="43.34627" lon="5.66166">
        <ele>369</ele>
        <time>2019-01-18T14:39:30.000Z</time>
      </trkpt>
      <trkpt lat="43.34627" lon="5.66166">
        <ele>369</ele>
        <time>2019-01-18T14:39:31.000Z</time>
      </trkpt>
      <trkpt lat="43.34626" lon="5.66165">
        <ele>369</ele>
        <time>2019-01-18T14:39:32.000Z</time>
      </trkpt>
      <trkpt lat="43.34626" lon="5.66164">
        <ele>368</ele>
        <time>2019-01-18T14:39:33.000Z</time>
      </trkpt>
      <trkpt lat="43.34626" lon="5.66164">
        <ele>368</ele>
        <time>2019-01-18T14:39:34.000Z</time>
      </trkpt>
      <trkpt lat="43.34625" lon="5.66163">
        <ele>368</ele>
        <time>2019-01-18T14:39:35.000Z</time>
      </trkpt>
      <trkpt lat="43.34625" lon="5.66163">
        <ele>368</ele>
        <time>2019-01-18T14:39:36.000Z</time>
      </trkpt>
      <trkpt lat="43.34625" lon="5.66162">
        <ele>368</ele>
        <time>2019-01-18T14:39:37.000Z</time>
      </trkpt>
      <trkpt lat="43.34624" lon="5.66162">
        <ele>368</ele>
        <time>2019-01-18T14:39:38.000Z</time>
      </trkpt>
      <trkpt lat="43.34624" lon="5.66161">
        <ele>367</ele>
        <time>2019-01-18T14:39:39.000Z</time>
      </trkpt>
      <trkpt lat="43.34624" lon="5.66161">
        <ele>367</ele>
        <time>2019-01-18T14:39:40.000Z</time>
      </trkpt>
      <trkpt lat="43.34624" lon="5.6616">
        <ele>367</ele>
        <time>2019-01-18T14:39:41.000Z</time>
      </trkpt>
      <trkpt lat="43.34624" lon="5.66159">
        <ele>367</ele>
        <time>2019-01-18T14:39:42.000Z</time>
      </trkpt>
      <trkpt lat="43.34624" lon="5.66158">
        <ele>367</ele>
        <time>2019-01-18T14:39:43.000Z</time>
      </trkpt>
      <trkpt lat="43.34625" lon="5.66157">
        <ele>366</ele>
        <time>2019-01-18T14:39:44.000Z</time>
      </trkpt>
      <trkpt lat="43.34625" lon="5.66156">
        <ele>366</ele>
        <time>2019-01-18T14:39:45.000Z</time>
      </trkpt>
      <trkpt lat="43.34626" lon="5.66154">
        <ele>366</ele>
        <time>2019-01-18T14:39:46.000Z</time>
      </trkpt>
      <trkpt lat="43.34627" lon="5.66153">
        <ele>366</ele>
        <time>2019-01-18T14:39:47.000Z</time>
      </trkpt>
      <trkpt lat="43.34627" lon="5.66152">
        <ele>365</ele>
        <time>2019-01-18T14:39:48.000Z</time>
      </trkpt>
      <trkpt lat="43.34628" lon="5.66152">
        <ele>365</ele>
        <time>2019-01-18T14:39:49.000Z</time>
      </trkpt>
      <trkpt lat="43.34629" lon="5.66152">
        <ele>365</ele>
        <time>2019-01-18T14:39:50.000Z</time>
      </trkpt>
      <trkpt lat="43.34629" lon="5.66152">
        <ele>365</ele>
        <time>2019-01-18T14:39:51.000Z</time>
      </trkpt>
      <trkpt lat="43.3463" lon="5.66153">
        <ele>365</ele>
        <time>2019-01-18T14:39:52.000Z</time>
      </trkpt>
      <trkpt lat="43.34631" lon="5.66153">
        <ele>365</ele>
        <time>2019-01-18T14:39:53.000Z</time>
      </trkpt>
      <trkpt lat="43.34631" lon="5.66154">
        <ele>364</ele>
        <time>2019-01-18T14:39:54.000Z</time>
      </trkpt>
      <trkpt lat="43.34632" lon="5.66154">
        <ele>364</ele>
        <time>2019-01-18T14:39:55.000Z</time>
      </trkpt>
      <trkpt lat="43.34633" lon="5.66154">
        <ele>364</ele>
        <time>2019-01-18T14:39:56.000Z</time>
      </trkpt>
      <trkpt lat="43.34634" lon="5.66154">
        <ele>364</ele>
        <time>2019-01-18T14:39:57.000Z</time>
      </trkpt>
      <trkpt lat="43.34635" lon="5.66155">
        <ele>364</ele>
        <time>2019-01-18T14:39:58.000Z</time>
      </trkpt>
      <trkpt lat="43.34636" lon="5.66155">
        <ele>364</ele>
        <time>2019-01-18T14:39:59.000Z</time>
      </trkpt>
      <trkpt lat="43.34636" lon="5.66156">
        <ele>364</ele>
        <time>2019-01-18T14:40:00.000Z</time>
      </trkpt>
      <trkpt lat="43.34637" lon="5.66156">
        <ele>364</ele>
        <time>2019-01-18T14:40:01.000Z</time>
      </trkpt>
      <trkpt lat="43.34637" lon="5.66157">
        <ele>364</ele>
        <time>2019-01-18T14:40:02.000Z</time>
      </trkpt>
      <trkpt lat="43.34638" lon="5.66158">
        <ele>363</ele>
        <time>2019-01-18T14:40:03.000Z</time>
      </trkpt>
      <trkpt lat="43.34639" lon="5.66159">
        <ele>363</ele>
        <time>2019-01-18T14:40:04.000Z</time>
      </trkpt>
      <trkpt lat="43.34639" lon="5.6616">
        <ele>363</ele>
        <time>2019-01-18T14:40:05.000Z</time>
      </trkpt>
      <trkpt lat="43.3464" lon="5.6616">
        <ele>363</ele>
        <time>2019-01-18T14:40:06.000Z</time>
      </trkpt>
      <trkpt lat="43.3464" lon="5.66161">
        <ele>363</ele>
        <time>2019-01-18T14:40:07.000Z</time>
      </trkpt>
      <trkpt lat="43.34641" lon="5.66161">
        <ele>363</ele>
        <time>2019-01-18T14:40:08.000Z</time>
      </trkpt>
      <trkpt lat="43.34641" lon="5.66162">
        <ele>363</ele>
        <time>2019-01-18T14:40:09.000Z</time>
      </trkpt>
      <trkpt lat="43.34642" lon="5.66162">
        <ele>363</ele>
        <time>2019-01-18T14:40:10.000Z</time>
      </trkpt>
      <trkpt lat="43.34643" lon="5.66163">
        <ele>362</ele>
        <time>2019-01-18T14:40:11.000Z</time>
      </trkpt>
      <trkpt lat="43.34644" lon="5.66163">
        <ele>362</ele>
        <time>2019-01-18T14:40:12.000Z</time>
      </trkpt>
      <trkpt lat="43.34644" lon="5.66163">
        <ele>362</ele>
        <time>2019-01-18T14:40:13.000Z</time>
      </trkpt>
      <trkpt lat="43.34645" lon="5.66164">
        <ele>362</ele>
        <time>2019-01-18T14:40:14.000Z</time>
      </trkpt>
      <trkpt lat="43.34645" lon="5.66164">
        <ele>362</ele>
        <time>2019-01-18T14:40:15.000Z</time>
      </trkpt>
      <trkpt lat="43.34646" lon="5.66165">
        <ele>362</ele>
        <time>2019-01-18T14:40:16.000Z</time>
      </trkpt>
      <trkpt lat="43.34646" lon="5.66165">
        <ele>362</ele>
        <time>2019-01-18T14:40:17.000Z</time>
      </trkpt>
      <trkpt lat="43.34647" lon="5.66165">
        <ele>362</ele>
        <time>2019-01-18T14:40:18.000Z</time>
      </trkpt>
      <trkpt lat="43.34648" lon="5.66166">
        <ele>362</ele>
        <time>2019-01-18T14:40:19.000Z</time>
      </trkpt>
      <trkpt lat="43.34648" lon="5.66166">
        <ele>362</ele>
        <time>2019-01-18T14:40:20.000Z</time>
      </trkpt>
      <trkpt lat="43.34649" lon="5.66166">
        <ele>362</ele>
        <time>2019-01-18T14:40:21.000Z</time>
      </trkpt>
      <trkpt lat="43.34649" lon="5.66166">
        <ele>362</ele>
        <time>2019-01-18T14:40:22.000Z</time>
      </trkpt>
      <trkpt lat="43.3465" lon="5.66166">
        <ele>362</ele>
        <time>2019-01-18T14:40:23.000Z</time>
      </trkpt>
      <trkpt lat="43.3465" lon="5.66167">
        <ele>362</ele>
        <time>2019-01-18T14:40:24.000Z</time>
      </trkpt>
      <trkpt lat="43.34651" lon="5.66167">
        <ele>362</ele>
        <time>2019-01-18T14:40:25.000Z</time>
      </trkpt>
      <trkpt lat="43.34651" lon="5.66168">
        <ele>362</ele>
        <time>2019-01-18T14:40:26.000Z</time>
      </trkpt>
      <trkpt lat="43.34652" lon="5.66168">
        <ele>362</ele>
        <time>2019-01-18T14:40:27.000Z</time>
      </trkpt>
      <trkpt lat="43.34653" lon="5.66169">
        <ele>362</ele>
        <time>2019-01-18T14:40:28.000Z</time>
      </trkpt>
      <trkpt lat="43.34654" lon="5.6617">
        <ele>363</ele>
        <time>2019-01-18T14:40:29.000Z</time>
      </trkpt>
      <trkpt lat="43.34655" lon="5.66171">
        <ele>363</ele>
        <time>2019-01-18T14:40:30.000Z</time>
      </trkpt>
      <trkpt lat="43.34656" lon="5.66172">
        <ele>363</ele>
        <time>2019-01-18T14:40:31.000Z</time>
      </trkpt>
      <trkpt lat="43.34656" lon="5.66173">
        <ele>363</ele>
        <time>2019-01-18T14:40:32.000Z</time>
      </trkpt>
      <trkpt lat="43.34657" lon="5.66173">
        <ele>363</ele>
        <time>2019-01-18T14:40:33.000Z</time>
      </trkpt>
      <trkpt lat="43.34658" lon="5.66174">
        <ele>363</ele>
        <time>2019-01-18T14:40:34.000Z</time>
      </trkpt>
      <trkpt lat="43.34659" lon="5.66175">
        <ele>363</ele>
        <time>2019-01-18T14:40:35.000Z</time>
      </trkpt>
      <trkpt lat="43.3466" lon="5.66176">
        <ele>363</ele>
        <time>2019-01-18T14:40:36.000Z</time>
      </trkpt>
      <trkpt lat="43.34661" lon="5.66177">
        <ele>363</ele>
        <time>2019-01-18T14:40:37.000Z</time>
      </trkpt>
      <trkpt lat="43.34662" lon="5.66178">
        <ele>363</ele>
        <time>2019-01-18T14:40:38.000Z</time>
      </trkpt>
      <trkpt lat="43.34663" lon="5.66178">
        <ele>363</ele>
        <time>2019-01-18T14:40:39.000Z</time>
      </trkpt>
      <trkpt lat="43.34664" lon="5.66179">
        <ele>363</ele>
        <time>2019-01-18T14:40:40.000Z</time>
      </trkpt>
      <trkpt lat="43.34665" lon="5.6618">
        <ele>363</ele>
        <time>2019-01-18T14:40:41.000Z</time>
      </trkpt>
      <trkpt lat="43.34666" lon="5.6618">
        <ele>363</ele>
        <time>2019-01-18T14:40:42.000Z</time>
      </trkpt>
      <trkpt lat="43.34667" lon="5.66181">
        <ele>363</ele>
        <time>2019-01-18T14:40:43.000Z</time>
      </trkpt>
      <trkpt lat="43.34668" lon="5.66181">
        <ele>363</ele>
        <time>2019-01-18T14:40:44.000Z</time>
      </trkpt>
      <trkpt lat="43.34669" lon="5.66182">
        <ele>363</ele>
        <time>2019-01-18T14:40:45.000Z</time>
      </trkpt>
      <trkpt lat="43.3467" lon="5.66183">
        <ele>363</ele>
        <time>2019-01-18T14:40:46.000Z</time>
      </trkpt>
      <trkpt lat="43.34671" lon="5.66183">
        <ele>363</ele>
        <time>2019-01-18T14:40:47.000Z</time>
      </trkpt>
      <trkpt lat="43.34673" lon="5.66183">
        <ele>363</ele>
        <time>2019-01-18T14:40:48.000Z</time>
      </trkpt>
      <trkpt lat="43.34674" lon="5.66184">
        <ele>363</ele>
        <time>2019-01-18T14:40:49.000Z</time>
      </trkpt>
      <trkpt lat="43.34675" lon="5.66184">
        <ele>363</ele>
        <time>2019-01-18T14:40:50.000Z</time>
      </trkpt>
      <trkpt lat="43.34676" lon="5.66185">
        <ele>363</ele>
        <time>2019-01-18T14:40:51.000Z</time>
      </trkpt>
      <trkpt lat="43.34676" lon="5.66186">
        <ele>363</ele>
        <time>2019-01-18T14:40:52.000Z</time>
      </trkpt>
      <trkpt lat="43.34677" lon="5.66187">
        <ele>363</ele>
        <time>2019-01-18T14:40:53.000Z</time>
      </trkpt>
      <trkpt lat="43.34678" lon="5.66188">
        <ele>363</ele>
        <time>2019-01-18T14:40:54.000Z</time>
      </trkpt>
      <trkpt lat="43.34679" lon="5.66189">
        <ele>363</ele>
        <time>2019-01-18T14:40:55.000Z</time>
      </trkpt>
      <trkpt lat="43.3468" lon="5.6619">
        <ele>363</ele>
        <time>2019-01-18T14:40:56.000Z</time>
      </trkpt>
      <trkpt lat="43.34682" lon="5.6619">
        <ele>363</ele>
        <time>2019-01-18T14:40:57.000Z</time>
      </trkpt>
      <trkpt lat="43.34683" lon="5.66191">
        <ele>363</ele>
        <time>2019-01-18T14:40:58.000Z</time>
      </trkpt>
      <trkpt lat="43.34684" lon="5.66192">
        <ele>362</ele>
        <time>2019-01-18T14:40:59.000Z</time>
      </trkpt>
      <trkpt lat="43.34685" lon="5.66193">
        <ele>362</ele>
        <time>2019-01-18T14:41:00.000Z</time>
      </trkpt>
      <trkpt lat="43.34686" lon="5.66194">
        <ele>362</ele>
        <time>2019-01-18T14:41:01.000Z</time>
      </trkpt>
      <trkpt lat="43.34687" lon="5.66195">
        <ele>362</ele>
        <time>2019-01-18T14:41:02.000Z</time>
      </trkpt>
      <trkpt lat="43.34688" lon="5.66196">
        <ele>362</ele>
        <time>2019-01-18T14:41:03.000Z</time>
      </trkpt>
      <trkpt lat="43.34689" lon="5.66197">
        <ele>361</ele>
        <time>2019-01-18T14:41:04.000Z</time>
      </trkpt>
      <trkpt lat="43.3469" lon="5.66198">
        <ele>361</ele>
        <time>2019-01-18T14:41:05.000Z</time>
      </trkpt>
      <trkpt lat="43.34691" lon="5.66199">
        <ele>361</ele>
        <time>2019-01-18T14:41:06.000Z</time>
      </trkpt>
      <trkpt lat="43.34692" lon="5.662">
        <ele>361</ele>
        <time>2019-01-18T14:41:07.000Z</time>
      </trkpt>
      <trkpt lat="43.34693" lon="5.66201">
        <ele>360</ele>
        <time>2019-01-18T14:41:08.000Z</time>
      </trkpt>
      <trkpt lat="43.34694" lon="5.66201">
        <ele>360</ele>
        <time>2019-01-18T14:41:09.000Z</time>
      </trkpt>
      <trkpt lat="43.34694" lon="5.66202">
        <ele>360</ele>
        <time>2019-01-18T14:41:10.000Z</time>
      </trkpt>
      <trkpt lat="43.34695" lon="5.66203">
        <ele>360</ele>
        <time>2019-01-18T14:41:11.000Z</time>
      </trkpt>
      <trkpt lat="43.34696" lon="5.66204">
        <ele>360</ele>
        <time>2019-01-18T14:41:12.000Z</time>
      </trkpt>
      <trkpt lat="43.34697" lon="5.66205">
        <ele>360</ele>
        <time>2019-01-18T14:41:13.000Z</time>
      </trkpt>
      <trkpt lat="43.34698" lon="5.66206">
        <ele>360</ele>
        <time>2019-01-18T14:41:14.000Z</time>
      </trkpt>
      <trkpt lat="43.34699" lon="5.66206">
        <ele>359</ele>
        <time>2019-01-18T14:41:15.000Z</time>
      </trkpt>
      <trkpt lat="43.34699" lon="5.66207">
        <ele>359</ele>
        <time>2019-01-18T14:41:16.000Z</time>
      </trkpt>
      <trkpt lat="43.347" lon="5.66207">
        <ele>359</ele>
        <time>2019-01-18T14:41:17.000Z</time>
      </trkpt>
      <trkpt lat="43.34701" lon="5.66208">
        <ele>359</ele>
        <time>2019-01-18T14:41:18.000Z</time>
      </trkpt>
      <trkpt lat="43.34702" lon="5.66209">
        <ele>359</ele>
        <time>2019-01-18T14:41:19.000Z</time>
      </trkpt>
      <trkpt lat="43.34703" lon="5.6621">
        <ele>359</ele>
        <time>2019-01-18T14:41:20.000Z</time>
      </trkpt>
      <trkpt lat="43.34704" lon="5.6621">
        <ele>359</ele>
        <time>2019-01-18T14:41:21.000Z</time>
      </trkpt>
      <trkpt lat="43.34704" lon="5.66211">
        <ele>359</ele>
        <time>2019-01-18T14:41:22.000Z</time>
      </trkpt>
      <trkpt lat="43.34705" lon="5.66212">
        <ele>359</ele>
        <time>2019-01-18T14:41:23.000Z</time>
      </trkpt>
      <trkpt lat="43.34706" lon="5.66212">
        <ele>358</ele>
        <time>2019-01-18T14:41:24.000Z</time>
      </trkpt>
      <trkpt lat="43.34707" lon="5.66213">
        <ele>358</ele>
        <time>2019-01-18T14:41:25.000Z</time>
      </trkpt>
      <trkpt lat="43.34708" lon="5.66213">
        <ele>358</ele>
        <time>2019-01-18T14:41:26.000Z</time>
      </trkpt>
      <trkpt lat="43.34709" lon="5.66214">
        <ele>358</ele>
        <time>2019-01-18T14:41:27.000Z</time>
      </trkpt>
      <trkpt lat="43.3471" lon="5.66215">
        <ele>358</ele>
        <time>2019-01-18T14:41:28.000Z</time>
      </trkpt>
      <trkpt lat="43.3471" lon="5.66215">
        <ele>358</ele>
        <time>2019-01-18T14:41:29.000Z</time>
      </trkpt>
      <trkpt lat="43.34711" lon="5.66216">
        <ele>357</ele>
        <time>2019-01-18T14:41:30.000Z</time>
      </trkpt>
      <trkpt lat="43.34712" lon="5.66216">
        <ele>357</ele>
        <time>2019-01-18T14:41:31.000Z</time>
      </trkpt>
      <trkpt lat="43.34713" lon="5.66217">
        <ele>357</ele>
        <time>2019-01-18T14:41:32.000Z</time>
      </trkpt>
      <trkpt lat="43.34714" lon="5.66218">
        <ele>357</ele>
        <time>2019-01-18T14:41:33.000Z</time>
      </trkpt>
      <trkpt lat="43.34715" lon="5.66219">
        <ele>356</ele>
        <time>2019-01-18T14:41:34.000Z</time>
      </trkpt>
      <trkpt lat="43.34716" lon="5.6622">
        <ele>356</ele>
        <time>2019-01-18T14:41:35.000Z</time>
      </trkpt>
      <trkpt lat="43.34717" lon="5.6622">
        <ele>356</ele>
        <time>2019-01-18T14:41:36.000Z</time>
      </trkpt>
      <trkpt lat="43.34717" lon="5.66221">
        <ele>356</ele>
        <time>2019-01-18T14:41:37.000Z</time>
      </trkpt>
      <trkpt lat="43.34718" lon="5.66222">
        <ele>355</ele>
        <time>2019-01-18T14:41:38.000Z</time>
      </trkpt>
      <trkpt lat="43.34719" lon="5.66223">
        <ele>355</ele>
        <time>2019-01-18T14:41:39.000Z</time>
      </trkpt>
      <trkpt lat="43.34719" lon="5.66224">
        <ele>355</ele>
        <time>2019-01-18T14:41:40.000Z</time>
      </trkpt>
      <trkpt lat="43.3472" lon="5.66224">
        <ele>354</ele>
        <time>2019-01-18T14:41:41.000Z</time>
      </trkpt>
      <trkpt lat="43.34721" lon="5.66225">
        <ele>354</ele>
        <time>2019-01-18T14:41:42.000Z</time>
      </trkpt>
      <trkpt lat="43.34721" lon="5.66225">
        <ele>354</ele>
        <time>2019-01-18T14:41:43.000Z</time>
      </trkpt>
      <trkpt lat="43.34722" lon="5.66226">
        <ele>353</ele>
        <time>2019-01-18T14:41:44.000Z</time>
      </trkpt>
      <trkpt lat="43.34723" lon="5.66227">
        <ele>353</ele>
        <time>2019-01-18T14:41:45.000Z</time>
      </trkpt>
      <trkpt lat="43.34724" lon="5.66227">
        <ele>352</ele>
        <time>2019-01-18T14:41:46.000Z</time>
      </trkpt>
      <trkpt lat="43.34725" lon="5.66228">
        <ele>352</ele>
        <time>2019-01-18T14:41:47.000Z</time>
      </trkpt>
      <trkpt lat="43.34725" lon="5.66229">
        <ele>352</ele>
        <time>2019-01-18T14:41:48.000Z</time>
      </trkpt>
      <trkpt lat="43.34726" lon="5.6623">
        <ele>351</ele>
        <time>2019-01-18T14:41:49.000Z</time>
      </trkpt>
      <trkpt lat="43.34727" lon="5.66231">
        <ele>351</ele>
        <time>2019-01-18T14:41:50.000Z</time>
      </trkpt>
      <trkpt lat="43.34728" lon="5.66232">
        <ele>351</ele>
        <time>2019-01-18T14:41:51.000Z</time>
      </trkpt>
      <trkpt lat="43.34729" lon="5.66233">
        <ele>351</ele>
        <time>2019-01-18T14:41:52.000Z</time>
      </trkpt>
      <trkpt lat="43.3473" lon="5.66234">
        <ele>350</ele>
        <time>2019-01-18T14:41:53.000Z</time>
      </trkpt>
      <trkpt lat="43.34731" lon="5.66235">
        <ele>350</ele>
        <time>2019-01-18T14:41:54.000Z</time>
      </trkpt>
      <trkpt lat="43.34732" lon="5.66236">
        <ele>350</ele>
        <time>2019-01-18T14:41:55.000Z</time>
      </trkpt>
      <trkpt lat="43.34733" lon="5.66238">
        <ele>350</ele>
        <time>2019-01-18T14:41:56.000Z</time>
      </trkpt>
      <trkpt lat="43.34733" lon="5.66239">
        <ele>349</ele>
        <time>2019-01-18T14:41:57.000Z</time>
      </trkpt>
      <trkpt lat="43.34734" lon="5.6624">
        <ele>349</ele>
        <time>2019-01-18T14:41:58.000Z</time>
      </trkpt>
      <trkpt lat="43.34734" lon="5.66241">
        <ele>349</ele>
        <time>2019-01-18T14:41:59.000Z</time>
      </trkpt>
      <trkpt lat="43.34734" lon="5.66241">
        <ele>348</ele>
        <time>2019-01-18T14:42:00.000Z</time>
      </trkpt>
      <trkpt lat="43.34734" lon="5.66241">
        <ele>348</ele>
        <time>2019-01-18T14:42:01.000Z</time>
      </trkpt>
      <trkpt lat="43.34734" lon="5.66241">
        <ele>348</ele>
        <time>2019-01-18T14:42:02.000Z</time>
      </trkpt>
      <trkpt lat="43.34734" lon="5.66242">
        <ele>348</ele>
        <time>2019-01-18T14:42:03.000Z</time>
      </trkpt>
      <trkpt lat="43.34734" lon="5.66242">
        <ele>348</ele>
        <time>2019-01-18T14:42:04.000Z</time>
      </trkpt>
      <trkpt lat="43.34734" lon="5.66242">
        <ele>348</ele>
        <time>2019-01-18T14:42:05.000Z</time>
      </trkpt>
      <trkpt lat="43.34734" lon="5.66242">
        <ele>348</ele>
        <time>2019-01-18T14:42:06.000Z</time>
      </trkpt>
      <trkpt lat="43.34734" lon="5.66242">
        <ele>348</ele>
        <time>2019-01-18T14:42:07.000Z</time>
      </trkpt>
      <trkpt lat="43.34734" lon="5.66242">
        <ele>348</ele>
        <time>2019-01-18T14:42:08.000Z</time>
      </trkpt>
      <trkpt lat="43.34735" lon="5.66242">
        <ele>347</ele>
        <time>2019-01-18T14:42:09.000Z</time>
      </trkpt>
      <trkpt lat="43.34735" lon="5.66242">
        <ele>347</ele>
        <time>2019-01-18T14:42:10.000Z</time>
      </trkpt>
      <trkpt lat="43.34735" lon="5.66242">
        <ele>347</ele>
        <time>2019-01-18T14:42:11.000Z</time>
      </trkpt>
      <trkpt lat="43.34735" lon="5.66242">
        <ele>347</ele>
        <time>2019-01-18T14:42:12.000Z</time>
      </trkpt>
      <trkpt lat="43.34735" lon="5.66242">
        <ele>347</ele>
        <time>2019-01-18T14:42:13.000Z</time>
      </trkpt>
      <trkpt lat="43.34735" lon="5.66243">
        <ele>347</ele>
        <time>2019-01-18T14:42:14.000Z</time>
      </trkpt>
      <trkpt lat="43.34735" lon="5.66244">
        <ele>347</ele>
        <time>2019-01-18T14:42:15.000Z</time>
      </trkpt>
      <trkpt lat="43.34736" lon="5.66245">
        <ele>347</ele>
        <time>2019-01-18T14:42:16.000Z</time>
      </trkpt>
      <trkpt lat="43.34736" lon="5.66246">
        <ele>347</ele>
        <time>2019-01-18T14:42:17.000Z</time>
      </trkpt>
      <trkpt lat="43.34737" lon="5.66247">
        <ele>347</ele>
        <time>2019-01-18T14:42:18.000Z</time>
      </trkpt>
      <trkpt lat="43.34737" lon="5.66248">
        <ele>347</ele>
        <time>2019-01-18T14:42:19.000Z</time>
      </trkpt>
      <trkpt lat="43.34737" lon="5.66249">
        <ele>347</ele>
        <time>2019-01-18T14:42:20.000Z</time>
      </trkpt>
      <trkpt lat="43.34737" lon="5.66251">
        <ele>347</ele>
        <time>2019-01-18T14:42:21.000Z</time>
      </trkpt>
      <trkpt lat="43.34738" lon="5.66252">
        <ele>347</ele>
        <time>2019-01-18T14:42:22.000Z</time>
      </trkpt>
      <trkpt lat="43.34738" lon="5.66254">
        <ele>347</ele>
        <time>2019-01-18T14:42:23.000Z</time>
      </trkpt>
      <trkpt lat="43.34738" lon="5.66255">
        <ele>347</ele>
        <time>2019-01-18T14:42:24.000Z</time>
      </trkpt>
      <trkpt lat="43.34738" lon="5.66256">
        <ele>347</ele>
        <time>2019-01-18T14:42:25.000Z</time>
      </trkpt>
      <trkpt lat="43.34738" lon="5.66257">
        <ele>347</ele>
        <time>2019-01-18T14:42:26.000Z</time>
      </trkpt>
      <trkpt lat="43.34738" lon="5.66258">
        <ele>347</ele>
        <time>2019-01-18T14:42:27.000Z</time>
      </trkpt>
      <trkpt lat="43.34739" lon="5.66259">
        <ele>347</ele>
        <time>2019-01-18T14:42:28.000Z</time>
      </trkpt>
      <trkpt lat="43.34739" lon="5.66261">
        <ele>347</ele>
        <time>2019-01-18T14:42:29.000Z</time>
      </trkpt>
      <trkpt lat="43.34739" lon="5.66262">
        <ele>347</ele>
        <time>2019-01-18T14:42:30.000Z</time>
      </trkpt>
      <trkpt lat="43.34739" lon="5.66263">
        <ele>347</ele>
        <time>2019-01-18T14:42:31.000Z</time>
      </trkpt>
      <trkpt lat="43.34739" lon="5.66265">
        <ele>347</ele>
        <time>2019-01-18T14:42:32.000Z</time>
      </trkpt>
      <trkpt lat="43.34739" lon="5.66266">
        <ele>347</ele>
        <time>2019-01-18T14:42:33.000Z</time>
      </trkpt>
      <trkpt lat="43.34739" lon="5.66267">
        <ele>347</ele>
        <time>2019-01-18T14:42:34.000Z</time>
      </trkpt>
      <trkpt lat="43.34739" lon="5.66267">
        <ele>347</ele>
        <time>2019-01-18T14:42:35.000Z</time>
      </trkpt>
      <trkpt lat="43.34739" lon="5.66268">
        <ele>347</ele>
        <time>2019-01-18T14:42:36.000Z</time>
      </trkpt>
      <trkpt lat="43.34739" lon="5.66268">
        <ele>347</ele>
        <time>2019-01-18T14:42:37.000Z</time>
      </trkpt>
      <trkpt lat="43.34739" lon="5.66268">
        <ele>347</ele>
        <time>2019-01-18T14:42:38.000Z</time>
      </trkpt>
      <trkpt lat="43.34739" lon="5.66268">
        <ele>347</ele>
        <time>2019-01-18T14:42:39.000Z</time>
      </trkpt>
      <trkpt lat="43.34739" lon="5.66268">
        <ele>347</ele>
        <time>2019-01-18T14:42:40.000Z</time>
      </trkpt>
      <trkpt lat="43.34739" lon="5.66268">
        <ele>347</ele>
        <time>2019-01-18T14:42:41.000Z</time>
      </trkpt>
      <trkpt lat="43.34739" lon="5.66268">
        <ele>347</ele>
        <time>2019-01-18T14:42:42.000Z</time>
      </trkpt>
      <trkpt lat="43.34739" lon="5.66268">
        <ele>347</ele>
        <time>2019-01-18T14:42:43.000Z</time>
      </trkpt>
      <trkpt lat="43.3474" lon="5.66268">
        <ele>347</ele>
        <time>2019-01-18T14:42:44.000Z</time>
      </trkpt>
      <trkpt lat="43.3474" lon="5.66268">
        <ele>347</ele>
        <time>2019-01-18T14:42:45.000Z</time>
      </trkpt>
      <trkpt lat="43.3474" lon="5.66269">
        <ele>347</ele>
        <time>2019-01-18T14:42:46.000Z</time>
      </trkpt>
      <trkpt lat="43.3474" lon="5.66269">
        <ele>347</ele>
        <time>2019-01-18T14:42:47.000Z</time>
      </trkpt>
      <trkpt lat="43.3474" lon="5.66269">
        <ele>347</ele>
        <time>2019-01-18T14:42:48.000Z</time>
      </trkpt>
      <trkpt lat="43.3474" lon="5.66269">
        <ele>347</ele>
        <time>2019-01-18T14:42:49.000Z</time>
      </trkpt>
      <trkpt lat="43.3474" lon="5.66269">
        <ele>347</ele>
        <time>2019-01-18T14:42:50.000Z</time>
      </trkpt>
      <trkpt lat="43.3474" lon="5.6627">
        <ele>347</ele>
        <time>2019-01-18T14:42:51.000Z</time>
      </trkpt>
      <trkpt lat="43.3474" lon="5.6627">
        <ele>347</ele>
        <time>2019-01-18T14:42:52.000Z</time>
      </trkpt>
      <trkpt lat="43.3474" lon="5.6627">
        <ele>348</ele>
        <time>2019-01-18T14:42:53.000Z</time>
      </trkpt>
      <trkpt lat="43.3474" lon="5.6627">
        <ele>348</ele>
        <time>2019-01-18T14:42:54.000Z</time>
      </trkpt>
      <trkpt lat="43.3474" lon="5.6627">
        <ele>347</ele>
        <time>2019-01-18T14:42:55.000Z</time>
      </trkpt>
      <trkpt lat="43.3474" lon="5.6627">
        <ele>347</ele>
        <time>2019-01-18T14:42:56.000Z</time>
      </trkpt>
      <trkpt lat="43.3474" lon="5.66271">
        <ele>347</ele>
        <time>2019-01-18T14:42:57.000Z</time>
      </trkpt>
      <trkpt lat="43.3474" lon="5.66271">
        <ele>347</ele>
        <time>2019-01-18T14:42:58.000Z</time>
      </trkpt>
      <trkpt lat="43.3474" lon="5.66271">
        <ele>347</ele>
        <time>2019-01-18T14:42:59.000Z</time>
      </trkpt>
      <trkpt lat="43.34741" lon="5.66272">
        <ele>347</ele>
        <time>2019-01-18T14:43:00.000Z</time>
      </trkpt>
      <trkpt lat="43.34741" lon="5.66272">
        <ele>347</ele>
        <time>2019-01-18T14:43:01.000Z</time>
      </trkpt>
      <trkpt lat="43.34741" lon="5.66272">
        <ele>347</ele>
        <time>2019-01-18T14:43:02.000Z</time>
      </trkpt>
      <trkpt lat="43.34741" lon="5.66272">
        <ele>347</ele>
        <time>2019-01-18T14:43:03.000Z</time>
      </trkpt>
      <trkpt lat="43.34741" lon="5.66272">
        <ele>347</ele>
        <time>2019-01-18T14:43:04.000Z</time>
      </trkpt>
      <trkpt lat="43.34741" lon="5.66272">
        <ele>347</ele>
        <time>2019-01-18T14:43:05.000Z</time>
      </trkpt>
      <trkpt lat="43.34741" lon="5.66272">
        <ele>347</ele>
        <time>2019-01-18T14:43:06.000Z</time>
      </trkpt>
      <trkpt lat="43.34741" lon="5.66272">
        <ele>347</ele>
        <time>2019-01-18T14:43:07.000Z</time>
      </trkpt>
      <trkpt lat="43.34741" lon="5.66272">
        <ele>347</ele>
        <time>2019-01-18T14:43:08.000Z</time>
      </trkpt>
      <trkpt lat="43.34741" lon="5.66272">
        <ele>347</ele>
        <time>2019-01-18T14:43:09.000Z</time>
      </trkpt>
      <trkpt lat="43.34741" lon="5.66272">
        <ele>347</ele>
        <time>2019-01-18T14:43:10.000Z</time>
      </trkpt>
      <trkpt lat="43.34741" lon="5.66272">
        <ele>347</ele>
        <time>2019-01-18T14:43:11.000Z</time>
      </trkpt>
      <trkpt lat="43.34741" lon="5.66272">
        <ele>347</ele>
        <time>2019-01-18T14:43:12.000Z</time>
      </trkpt>
      <trkpt lat="43.34741" lon="5.66272">
        <ele>347</ele>
        <time>2019-01-18T14:43:13.000Z</time>
      </trkpt>
      <trkpt lat="43.34741" lon="5.66272">
        <ele>347</ele>
        <time>2019-01-18T14:43:14.000Z</time>
      </trkpt>
      <trkpt lat="43.34741" lon="5.66272">
        <ele>347</ele>
        <time>2019-01-18T14:43:15.000Z</time>
      </trkpt>
      <trkpt lat="43.34741" lon="5.66272">
        <ele>347</ele>
        <time>2019-01-18T14:43:16.000Z</time>
      </trkpt>
      <trkpt lat="43.34741" lon="5.66272">
        <ele>347</ele>
        <time>2019-01-18T14:43:17.000Z</time>
      </trkpt>
      <trkpt lat="43.34741" lon="5.66272">
        <ele>347</ele>
        <time>2019-01-18T14:43:18.000Z</time>
      </trkpt>
      <trkpt lat="43.34741" lon="5.66273">
        <ele>347</ele>
        <time>2019-01-18T14:43:19.000Z</time>
      </trkpt>
      <trkpt lat="43.34741" lon="5.66273">
        <ele>347</ele>
        <time>2019-01-18T14:43:20.000Z</time>
      </trkpt>
      <trkpt lat="43.34741" lon="5.66273">
        <ele>347</ele>
        <time>2019-01-18T14:43:21.000Z</time>
      </trkpt>
      <trkpt lat="43.34741" lon="5.66273">
        <ele>348</ele>
        <time>2019-01-18T14:43:22.000Z</time>
      </trkpt>
      <trkpt lat="43.34741" lon="5.66273">
        <ele>348</ele>
        <time>2019-01-18T14:43:23.000Z</time>
      </trkpt>
      <trkpt lat="43.34741" lon="5.66274">
        <ele>347</ele>
        <time>2019-01-18T14:43:24.000Z</time>
      </trkpt>
      <trkpt lat="43.34741" lon="5.66274">
        <ele>347</ele>
        <time>2019-01-18T14:43:25.000Z</time>
      </trkpt>
      <trkpt lat="43.3474" lon="5.66275">
        <ele>347</ele>
        <time>2019-01-18T14:43:26.000Z</time>
      </trkpt>
      <trkpt lat="43.3474" lon="5.66276">
        <ele>347</ele>
        <time>2019-01-18T14:43:27.000Z</time>
      </trkpt>
      <trkpt lat="43.3474" lon="5.66277">
        <ele>347</ele>
        <time>2019-01-18T14:43:28.000Z</time>
      </trkpt>
      <trkpt lat="43.34741" lon="5.66278">
        <ele>347</ele>
        <time>2019-01-18T14:43:29.000Z</time>
      </trkpt>
      <trkpt lat="43.34741" lon="5.66279">
        <ele>347</ele>
        <time>2019-01-18T14:43:30.000Z</time>
      </trkpt>
      <trkpt lat="43.34741" lon="5.6628">
        <ele>346</ele>
        <time>2019-01-18T14:43:31.000Z</time>
      </trkpt>
      <trkpt lat="43.34742" lon="5.6628">
        <ele>346</ele>
        <time>2019-01-18T14:43:32.000Z</time>
      </trkpt>
      <trkpt lat="43.34742" lon="5.6628">
        <ele>346</ele>
        <time>2019-01-18T14:43:33.000Z</time>
      </trkpt>
      <trkpt lat="43.34743" lon="5.6628">
        <ele>346</ele>
        <time>2019-01-18T14:43:34.000Z</time>
      </trkpt>
      <trkpt lat="43.34744" lon="5.6628">
        <ele>346</ele>
        <time>2019-01-18T14:43:35.000Z</time>
      </trkpt>
      <trkpt lat="43.34744" lon="5.6628">
        <ele>346</ele>
        <time>2019-01-18T14:43:36.000Z</time>
      </trkpt>
      <trkpt lat="43.34745" lon="5.6628">
        <ele>346</ele>
        <time>2019-01-18T14:43:37.000Z</time>
      </trkpt>
      <trkpt lat="43.34746" lon="5.66279">
        <ele>345</ele>
        <time>2019-01-18T14:43:38.000Z</time>
      </trkpt>
      <trkpt lat="43.34747" lon="5.66279">
        <ele>345</ele>
        <time>2019-01-18T14:43:39.000Z</time>
      </trkpt>
      <trkpt lat="43.34747" lon="5.66278">
        <ele>345</ele>
        <time>2019-01-18T14:43:40.000Z</time>
      </trkpt>
      <trkpt lat="43.34747" lon="5.66277">
        <ele>345</ele>
        <time>2019-01-18T14:43:41.000Z</time>
      </trkpt>
      <trkpt lat="43.34748" lon="5.66276">
        <ele>345</ele>
        <time>2019-01-18T14:43:42.000Z</time>
      </trkpt>
      <trkpt lat="43.34748" lon="5.66276">
        <ele>344</ele>
        <time>2019-01-18T14:43:43.000Z</time>
      </trkpt>
      <trkpt lat="43.34749" lon="5.66275">
        <ele>344</ele>
        <time>2019-01-18T14:43:44.000Z</time>
      </trkpt>
      <trkpt lat="43.3475" lon="5.66275">
        <ele>344</ele>
        <time>2019-01-18T14:43:45.000Z</time>
      </trkpt>
      <trkpt lat="43.3475" lon="5.66274">
        <ele>344</ele>
        <time>2019-01-18T14:43:46.000Z</time>
      </trkpt>
      <trkpt lat="43.34751" lon="5.66274">
        <ele>343</ele>
        <time>2019-01-18T14:43:47.000Z</time>
      </trkpt>
      <trkpt lat="43.34751" lon="5.66273">
        <ele>343</ele>
        <time>2019-01-18T14:43:48.000Z</time>
      </trkpt>
      <trkpt lat="43.34752" lon="5.66272">
        <ele>343</ele>
        <time>2019-01-18T14:43:49.000Z</time>
      </trkpt>
      <trkpt lat="43.34752" lon="5.66271">
        <ele>343</ele>
        <time>2019-01-18T14:43:50.000Z</time>
      </trkpt>
      <trkpt lat="43.34753" lon="5.66271">
        <ele>343</ele>
        <time>2019-01-18T14:43:51.000Z</time>
      </trkpt>
      <trkpt lat="43.34754" lon="5.6627">
        <ele>342</ele>
        <time>2019-01-18T14:43:52.000Z</time>
      </trkpt>
      <trkpt lat="43.34755" lon="5.66269">
        <ele>342</ele>
        <time>2019-01-18T14:43:53.000Z</time>
      </trkpt>
      <trkpt lat="43.34755" lon="5.66268">
        <ele>341</ele>
        <time>2019-01-18T14:43:54.000Z</time>
      </trkpt>
      <trkpt lat="43.34756" lon="5.66267">
        <ele>341</ele>
        <time>2019-01-18T14:43:55.000Z</time>
      </trkpt>
      <trkpt lat="43.34756" lon="5.66266">
        <ele>341</ele>
        <time>2019-01-18T14:43:56.000Z</time>
      </trkpt>
      <trkpt lat="43.34757" lon="5.66265">
        <ele>340</ele>
        <time>2019-01-18T14:43:57.000Z</time>
      </trkpt>
      <trkpt lat="43.34758" lon="5.66265">
        <ele>340</ele>
        <time>2019-01-18T14:43:58.000Z</time>
      </trkpt>
      <trkpt lat="43.34758" lon="5.66264">
        <ele>339</ele>
        <time>2019-01-18T14:43:59.000Z</time>
      </trkpt>
      <trkpt lat="43.34759" lon="5.66263">
        <ele>339</ele>
        <time>2019-01-18T14:44:00.000Z</time>
      </trkpt>
      <trkpt lat="43.34759" lon="5.66263">
        <ele>339</ele>
        <time>2019-01-18T14:44:01.000Z</time>
      </trkpt>
      <trkpt lat="43.3476" lon="5.66262">
        <ele>339</ele>
        <time>2019-01-18T14:44:02.000Z</time>
      </trkpt>
      <trkpt lat="43.3476" lon="5.66262">
        <ele>338</ele>
        <time>2019-01-18T14:44:03.000Z</time>
      </trkpt>
      <trkpt lat="43.34761" lon="5.66261">
        <ele>338</ele>
        <time>2019-01-18T14:44:04.000Z</time>
      </trkpt>
      <trkpt lat="43.34761" lon="5.6626">
        <ele>338</ele>
        <time>2019-01-18T14:44:05.000Z</time>
      </trkpt>
      <trkpt lat="43.34761" lon="5.66259">
        <ele>337</ele>
        <time>2019-01-18T14:44:06.000Z</time>
      </trkpt>
      <trkpt lat="43.34761" lon="5.66258">
        <ele>337</ele>
        <time>2019-01-18T14:44:07.000Z</time>
      </trkpt>
      <trkpt lat="43.34761" lon="5.66258">
        <ele>337</ele>
        <time>2019-01-18T14:44:08.000Z</time>
      </trkpt>
      <trkpt lat="43.34761" lon="5.66257">
        <ele>337</ele>
        <time>2019-01-18T14:44:09.000Z</time>
      </trkpt>
      <trkpt lat="43.34761" lon="5.66257">
        <ele>337</ele>
        <time>2019-01-18T14:44:10.000Z</time>
      </trkpt>
      <trkpt lat="43.34761" lon="5.66257">
        <ele>337</ele>
        <time>2019-01-18T14:44:11.000Z</time>
      </trkpt>
      <trkpt lat="43.34761" lon="5.66256">
        <ele>337</ele>
        <time>2019-01-18T14:44:12.000Z</time>
      </trkpt>
      <trkpt lat="43.3476" lon="5.66254">
        <ele>337</ele>
        <time>2019-01-18T14:44:13.000Z</time>
      </trkpt>
      <trkpt lat="43.3476" lon="5.66253">
        <ele>337</ele>
        <time>2019-01-18T14:44:14.000Z</time>
      </trkpt>
      <trkpt lat="43.3476" lon="5.66251">
        <ele>337</ele>
        <time>2019-01-18T14:44:15.000Z</time>
      </trkpt>
      <trkpt lat="43.34761" lon="5.6625">
        <ele>337</ele>
        <time>2019-01-18T14:44:16.000Z</time>
      </trkpt>
      <trkpt lat="43.34761" lon="5.66249">
        <ele>337</ele>
        <time>2019-01-18T14:44:17.000Z</time>
      </trkpt>
      <trkpt lat="43.34761" lon="5.66247">
        <ele>337</ele>
        <time>2019-01-18T14:44:18.000Z</time>
      </trkpt>
      <trkpt lat="43.34762" lon="5.66246">
        <ele>337</ele>
        <time>2019-01-18T14:44:19.000Z</time>
      </trkpt>
      <trkpt lat="43.34762" lon="5.66245">
        <ele>337</ele>
        <time>2019-01-18T14:44:20.000Z</time>
      </trkpt>
      <trkpt lat="43.34762" lon="5.66244">
        <ele>337</ele>
        <time>2019-01-18T14:44:21.000Z</time>
      </trkpt>
      <trkpt lat="43.34763" lon="5.66243">
        <ele>336</ele>
        <time>2019-01-18T14:44:22.000Z</time>
      </trkpt>
      <trkpt lat="43.34764" lon="5.66242">
        <ele>336</ele>
        <time>2019-01-18T14:44:23.000Z</time>
      </trkpt>
      <trkpt lat="43.34765" lon="5.66242">
        <ele>336</ele>
        <time>2019-01-18T14:44:24.000Z</time>
      </trkpt>
      <trkpt lat="43.34765" lon="5.66241">
        <ele>336</ele>
        <time>2019-01-18T14:44:25.000Z</time>
      </trkpt>
      <trkpt lat="43.34766" lon="5.6624">
        <ele>335</ele>
        <time>2019-01-18T14:44:26.000Z</time>
      </trkpt>
      <trkpt lat="43.34766" lon="5.6624">
        <ele>335</ele>
        <time>2019-01-18T14:44:27.000Z</time>
      </trkpt>
      <trkpt lat="43.34766" lon="5.6624">
        <ele>335</ele>
        <time>2019-01-18T14:44:28.000Z</time>
      </trkpt>
      <trkpt lat="43.34766" lon="5.66239">
        <ele>335</ele>
        <time>2019-01-18T14:44:29.000Z</time>
      </trkpt>
      <trkpt lat="43.34767" lon="5.66238">
        <ele>335</ele>
        <time>2019-01-18T14:44:30.000Z</time>
      </trkpt>
      <trkpt lat="43.34768" lon="5.66237">
        <ele>334</ele>
        <time>2019-01-18T14:44:31.000Z</time>
      </trkpt>
      <trkpt lat="43.34768" lon="5.66237">
        <ele>334</ele>
        <time>2019-01-18T14:44:32.000Z</time>
      </trkpt>
      <trkpt lat="43.34769" lon="5.66237">
        <ele>334</ele>
        <time>2019-01-18T14:44:33.000Z</time>
      </trkpt>
      <trkpt lat="43.34769" lon="5.66236">
        <ele>334</ele>
        <time>2019-01-18T14:44:34.000Z</time>
      </trkpt>
      <trkpt lat="43.34769" lon="5.66236">
        <ele>334</ele>
        <time>2019-01-18T14:44:35.000Z</time>
      </trkpt>
      <trkpt lat="43.34769" lon="5.66235">
        <ele>334</ele>
        <time>2019-01-18T14:44:36.000Z</time>
      </trkpt>
      <trkpt lat="43.34769" lon="5.66234">
        <ele>333</ele>
        <time>2019-01-18T14:44:37.000Z</time>
      </trkpt>
      <trkpt lat="43.34769" lon="5.66233">
        <ele>333</ele>
        <time>2019-01-18T14:44:38.000Z</time>
      </trkpt>
      <trkpt lat="43.34769" lon="5.66233">
        <ele>333</ele>
        <time>2019-01-18T14:44:39.000Z</time>
      </trkpt>
      <trkpt lat="43.34769" lon="5.66232">
        <ele>333</ele>
        <time>2019-01-18T14:44:40.000Z</time>
      </trkpt>
      <trkpt lat="43.34769" lon="5.66231">
        <ele>333</ele>
        <time>2019-01-18T14:44:41.000Z</time>
      </trkpt>
      <trkpt lat="43.3477" lon="5.66231">
        <ele>332</ele>
        <time>2019-01-18T14:44:42.000Z</time>
      </trkpt>
      <trkpt lat="43.3477" lon="5.6623">
        <ele>332</ele>
        <time>2019-01-18T14:44:43.000Z</time>
      </trkpt>
      <trkpt lat="43.34771" lon="5.66229">
        <ele>332</ele>
        <time>2019-01-18T14:44:44.000Z</time>
      </trkpt>
      <trkpt lat="43.34771" lon="5.66228">
        <ele>332</ele>
        <time>2019-01-18T14:44:45.000Z</time>
      </trkpt>
      <trkpt lat="43.34771" lon="5.66227">
        <ele>331</ele>
        <time>2019-01-18T14:44:46.000Z</time>
      </trkpt>
      <trkpt lat="43.34771" lon="5.66226">
        <ele>331</ele>
        <time>2019-01-18T14:44:47.000Z</time>
      </trkpt>
      <trkpt lat="43.34771" lon="5.66224">
        <ele>331</ele>
        <time>2019-01-18T14:44:48.000Z</time>
      </trkpt>
      <trkpt lat="43.34772" lon="5.66224">
        <ele>330</ele>
        <time>2019-01-18T14:44:49.000Z</time>
      </trkpt>
      <trkpt lat="43.34772" lon="5.66223">
        <ele>330</ele>
        <time>2019-01-18T14:44:50.000Z</time>
      </trkpt>
      <trkpt lat="43.34772" lon="5.66222">
        <ele>330</ele>
        <time>2019-01-18T14:44:51.000Z</time>
      </trkpt>
      <trkpt lat="43.34773" lon="5.66221">
        <ele>329</ele>
        <time>2019-01-18T14:44:52.000Z</time>
      </trkpt>
      <trkpt lat="43.34774" lon="5.66221">
        <ele>329</ele>
        <time>2019-01-18T14:44:53.000Z</time>
      </trkpt>
      <trkpt lat="43.34774" lon="5.66221">
        <ele>329</ele>
        <time>2019-01-18T14:44:54.000Z</time>
      </trkpt>
      <trkpt lat="43.34775" lon="5.66221">
        <ele>329</ele>
        <time>2019-01-18T14:44:55.000Z</time>
      </trkpt>
      <trkpt lat="43.34775" lon="5.66222">
        <ele>329</ele>
        <time>2019-01-18T14:44:56.000Z</time>
      </trkpt>
      <trkpt lat="43.34776" lon="5.66222">
        <ele>328</ele>
        <time>2019-01-18T14:44:57.000Z</time>
      </trkpt>
      <trkpt lat="43.34776" lon="5.66222">
        <ele>328</ele>
        <time>2019-01-18T14:44:58.000Z</time>
      </trkpt>
      <trkpt lat="43.34777" lon="5.66222">
        <ele>328</ele>
        <time>2019-01-18T14:44:59.000Z</time>
      </trkpt>
      <trkpt lat="43.34778" lon="5.66222">
        <ele>328</ele>
        <time>2019-01-18T14:45:00.000Z</time>
      </trkpt>
      <trkpt lat="43.34778" lon="5.66222">
        <ele>327</ele>
        <time>2019-01-18T14:45:01.000Z</time>
      </trkpt>
      <trkpt lat="43.34778" lon="5.66222">
        <ele>327</ele>
        <time>2019-01-18T14:45:02.000Z</time>
      </trkpt>
      <trkpt lat="43.34779" lon="5.66222">
        <ele>327</ele>
        <time>2019-01-18T14:45:03.000Z</time>
      </trkpt>
      <trkpt lat="43.3478" lon="5.66222">
        <ele>327</ele>
        <time>2019-01-18T14:45:04.000Z</time>
      </trkpt>
      <trkpt lat="43.3478" lon="5.66222">
        <ele>326</ele>
        <time>2019-01-18T14:45:05.000Z</time>
      </trkpt>
      <trkpt lat="43.34781" lon="5.66222">
        <ele>326</ele>
        <time>2019-01-18T14:45:06.000Z</time>
      </trkpt>
      <trkpt lat="43.34782" lon="5.66222">
        <ele>326</ele>
        <time>2019-01-18T14:45:07.000Z</time>
      </trkpt>
      <trkpt lat="43.34782" lon="5.66222">
        <ele>326</ele>
        <time>2019-01-18T14:45:08.000Z</time>
      </trkpt>
      <trkpt lat="43.34783" lon="5.66222">
        <ele>326</ele>
        <time>2019-01-18T14:45:09.000Z</time>
      </trkpt>
      <trkpt lat="43.34784" lon="5.66222">
        <ele>326</ele>
        <time>2019-01-18T14:45:10.000Z</time>
      </trkpt>
      <trkpt lat="43.34785" lon="5.66222">
        <ele>326</ele>
        <time>2019-01-18T14:45:11.000Z</time>
      </trkpt>
      <trkpt lat="43.34785" lon="5.66222">
        <ele>325</ele>
        <time>2019-01-18T14:45:12.000Z</time>
      </trkpt>
      <trkpt lat="43.34786" lon="5.66222">
        <ele>325</ele>
        <time>2019-01-18T14:45:13.000Z</time>
      </trkpt>
      <trkpt lat="43.34787" lon="5.66222">
        <ele>325</ele>
        <time>2019-01-18T14:45:14.000Z</time>
      </trkpt>
      <trkpt lat="43.34788" lon="5.66222">
        <ele>325</ele>
        <time>2019-01-18T14:45:15.000Z</time>
      </trkpt>
      <trkpt lat="43.34789" lon="5.66223">
        <ele>325</ele>
        <time>2019-01-18T14:45:16.000Z</time>
      </trkpt>
      <trkpt lat="43.34789" lon="5.66223">
        <ele>325</ele>
        <time>2019-01-18T14:45:17.000Z</time>
      </trkpt>
      <trkpt lat="43.3479" lon="5.66223">
        <ele>324</ele>
        <time>2019-01-18T14:45:18.000Z</time>
      </trkpt>
      <trkpt lat="43.34791" lon="5.66223">
        <ele>324</ele>
        <time>2019-01-18T14:45:19.000Z</time>
      </trkpt>
      <trkpt lat="43.34791" lon="5.66223">
        <ele>324</ele>
        <time>2019-01-18T14:45:20.000Z</time>
      </trkpt>
      <trkpt lat="43.34792" lon="5.66224">
        <ele>324</ele>
        <time>2019-01-18T14:45:21.000Z</time>
      </trkpt>
      <trkpt lat="43.34793" lon="5.66224">
        <ele>324</ele>
        <time>2019-01-18T14:45:22.000Z</time>
      </trkpt>
      <trkpt lat="43.34794" lon="5.66224">
        <ele>323</ele>
        <time>2019-01-18T14:45:23.000Z</time>
      </trkpt>
      <trkpt lat="43.34795" lon="5.66224">
        <ele>323</ele>
        <time>2019-01-18T14:45:24.000Z</time>
      </trkpt>
      <trkpt lat="43.34795" lon="5.66225">
        <ele>323</ele>
        <time>2019-01-18T14:45:25.000Z</time>
      </trkpt>
      <trkpt lat="43.34796" lon="5.66225">
        <ele>323</ele>
        <time>2019-01-18T14:45:26.000Z</time>
      </trkpt>
      <trkpt lat="43.34797" lon="5.66225">
        <ele>322</ele>
        <time>2019-01-18T14:45:27.000Z</time>
      </trkpt>
      <trkpt lat="43.34798" lon="5.66225">
        <ele>322</ele>
        <time>2019-01-18T14:45:28.000Z</time>
      </trkpt>
      <trkpt lat="43.34799" lon="5.66225">
        <ele>322</ele>
        <time>2019-01-18T14:45:29.000Z</time>
      </trkpt>
      <trkpt lat="43.348" lon="5.66225">
        <ele>322</ele>
        <time>2019-01-18T14:45:30.000Z</time>
      </trkpt>
      <trkpt lat="43.348" lon="5.66225">
        <ele>321</ele>
        <time>2019-01-18T14:45:31.000Z</time>
      </trkpt>
      <trkpt lat="43.34801" lon="5.66225">
        <ele>321</ele>
        <time>2019-01-18T14:45:32.000Z</time>
      </trkpt>
      <trkpt lat="43.34801" lon="5.66226">
        <ele>321</ele>
        <time>2019-01-18T14:45:33.000Z</time>
      </trkpt>
      <trkpt lat="43.34802" lon="5.66226">
        <ele>321</ele>
        <time>2019-01-18T14:45:34.000Z</time>
      </trkpt>
      <trkpt lat="43.34803" lon="5.66227">
        <ele>320</ele>
        <time>2019-01-18T14:45:35.000Z</time>
      </trkpt>
      <trkpt lat="43.34803" lon="5.66227">
        <ele>320</ele>
        <time>2019-01-18T14:45:36.000Z</time>
      </trkpt>
      <trkpt lat="43.34804" lon="5.66229">
        <ele>320</ele>
        <time>2019-01-18T14:45:37.000Z</time>
      </trkpt>
      <trkpt lat="43.34804" lon="5.66229">
        <ele>319</ele>
        <time>2019-01-18T14:45:38.000Z</time>
      </trkpt>
      <trkpt lat="43.34805" lon="5.66229">
        <ele>319</ele>
        <time>2019-01-18T14:45:39.000Z</time>
      </trkpt>
      <trkpt lat="43.34805" lon="5.6623">
        <ele>319</ele>
        <time>2019-01-18T14:45:40.000Z</time>
      </trkpt>
      <trkpt lat="43.34806" lon="5.6623">
        <ele>319</ele>
        <time>2019-01-18T14:45:41.000Z</time>
      </trkpt>
      <trkpt lat="43.34807" lon="5.66231">
        <ele>319</ele>
        <time>2019-01-18T14:45:42.000Z</time>
      </trkpt>
      <trkpt lat="43.34807" lon="5.66231">
        <ele>318</ele>
        <time>2019-01-18T14:45:43.000Z</time>
      </trkpt>
      <trkpt lat="43.34808" lon="5.66231">
        <ele>318</ele>
        <time>2019-01-18T14:45:44.000Z</time>
      </trkpt>
      <trkpt lat="43.34809" lon="5.66231">
        <ele>318</ele>
        <time>2019-01-18T14:45:45.000Z</time>
      </trkpt>
      <trkpt lat="43.34809" lon="5.66232">
        <ele>317</ele>
        <time>2019-01-18T14:45:46.000Z</time>
      </trkpt>
      <trkpt lat="43.3481" lon="5.66232">
        <ele>317</ele>
        <time>2019-01-18T14:45:47.000Z</time>
      </trkpt>
      <trkpt lat="43.3481" lon="5.66232">
        <ele>317</ele>
        <time>2019-01-18T14:45:48.000Z</time>
      </trkpt>
      <trkpt lat="43.34811" lon="5.66233">
        <ele>316</ele>
        <time>2019-01-18T14:45:49.000Z</time>
      </trkpt>
      <trkpt lat="43.34811" lon="5.66233">
        <ele>316</ele>
        <time>2019-01-18T14:45:50.000Z</time>
      </trkpt>
      <trkpt lat="43.34812" lon="5.66234">
        <ele>316</ele>
        <time>2019-01-18T14:45:51.000Z</time>
      </trkpt>
      <trkpt lat="43.34812" lon="5.66234">
        <ele>315</ele>
        <time>2019-01-18T14:45:52.000Z</time>
      </trkpt>
      <trkpt lat="43.34813" lon="5.66235">
        <ele>315</ele>
        <time>2019-01-18T14:45:53.000Z</time>
      </trkpt>
      <trkpt lat="43.34813" lon="5.66235">
        <ele>315</ele>
        <time>2019-01-18T14:45:54.000Z</time>
      </trkpt>
      <trkpt lat="43.34814" lon="5.66236">
        <ele>314</ele>
        <time>2019-01-18T14:45:55.000Z</time>
      </trkpt>
      <trkpt lat="43.34815" lon="5.66236">
        <ele>314</ele>
        <time>2019-01-18T14:45:56.000Z</time>
      </trkpt>
      <trkpt lat="43.34815" lon="5.66237">
        <ele>314</ele>
        <time>2019-01-18T14:45:57.000Z</time>
      </trkpt>
      <trkpt lat="43.34816" lon="5.66238">
        <ele>314</ele>
        <time>2019-01-18T14:45:58.000Z</time>
      </trkpt>
      <trkpt lat="43.34817" lon="5.66238">
        <ele>314</ele>
        <time>2019-01-18T14:45:59.000Z</time>
      </trkpt>
      <trkpt lat="43.34817" lon="5.66239">
        <ele>313</ele>
        <time>2019-01-18T14:46:00.000Z</time>
      </trkpt>
      <trkpt lat="43.34818" lon="5.66239">
        <ele>313</ele>
        <time>2019-01-18T14:46:01.000Z</time>
      </trkpt>
      <trkpt lat="43.34819" lon="5.6624">
        <ele>313</ele>
        <time>2019-01-18T14:46:02.000Z</time>
      </trkpt>
      <trkpt lat="43.34819" lon="5.6624">
        <ele>313</ele>
        <time>2019-01-18T14:46:03.000Z</time>
      </trkpt>
      <trkpt lat="43.3482" lon="5.6624">
        <ele>313</ele>
        <time>2019-01-18T14:46:04.000Z</time>
      </trkpt>
      <trkpt lat="43.34821" lon="5.6624">
        <ele>313</ele>
        <time>2019-01-18T14:46:05.000Z</time>
      </trkpt>
      <trkpt lat="43.34822" lon="5.6624">
        <ele>312</ele>
        <time>2019-01-18T14:46:06.000Z</time>
      </trkpt>
      <trkpt lat="43.34822" lon="5.66241">
        <ele>312</ele>
        <time>2019-01-18T14:46:07.000Z</time>
      </trkpt>
      <trkpt lat="43.34823" lon="5.66241">
        <ele>312</ele>
        <time>2019-01-18T14:46:08.000Z</time>
      </trkpt>
      <trkpt lat="43.34823" lon="5.66241">
        <ele>312</ele>
        <time>2019-01-18T14:46:09.000Z</time>
      </trkpt>
      <trkpt lat="43.34824" lon="5.66241">
        <ele>311</ele>
        <time>2019-01-18T14:46:10.000Z</time>
      </trkpt>
      <trkpt lat="43.34825" lon="5.66241">
        <ele>311</ele>
        <time>2019-01-18T14:46:11.000Z</time>
      </trkpt>
      <trkpt lat="43.34826" lon="5.66242">
        <ele>311</ele>
        <time>2019-01-18T14:46:12.000Z</time>
      </trkpt>
      <trkpt lat="43.34827" lon="5.66242">
        <ele>311</ele>
        <time>2019-01-18T14:46:13.000Z</time>
      </trkpt>
      <trkpt lat="43.34827" lon="5.66241">
        <ele>310</ele>
        <time>2019-01-18T14:46:14.000Z</time>
      </trkpt>
      <trkpt lat="43.34828" lon="5.66241">
        <ele>310</ele>
        <time>2019-01-18T14:46:15.000Z</time>
      </trkpt>
      <trkpt lat="43.34828" lon="5.6624">
        <ele>310</ele>
        <time>2019-01-18T14:46:16.000Z</time>
      </trkpt>
      <trkpt lat="43.34829" lon="5.66239">
        <ele>309</ele>
        <time>2019-01-18T14:46:17.000Z</time>
      </trkpt>
      <trkpt lat="43.34829" lon="5.66239">
        <ele>309</ele>
        <time>2019-01-18T14:46:18.000Z</time>
      </trkpt>
      <trkpt lat="43.3483" lon="5.66238">
        <ele>309</ele>
        <time>2019-01-18T14:46:19.000Z</time>
      </trkpt>
      <trkpt lat="43.3483" lon="5.66237">
        <ele>308</ele>
        <time>2019-01-18T14:46:20.000Z</time>
      </trkpt>
      <trkpt lat="43.3483" lon="5.66237">
        <ele>308</ele>
        <time>2019-01-18T14:46:21.000Z</time>
      </trkpt>
      <trkpt lat="43.34831" lon="5.66236">
        <ele>307</ele>
        <time>2019-01-18T14:46:22.000Z</time>
      </trkpt>
      <trkpt lat="43.34831" lon="5.66236">
        <ele>307</ele>
        <time>2019-01-18T14:46:23.000Z</time>
      </trkpt>
      <trkpt lat="43.34832" lon="5.66236">
        <ele>307</ele>
        <time>2019-01-18T14:46:24.000Z</time>
      </trkpt>
      <trkpt lat="43.34833" lon="5.66236">
        <ele>306</ele>
        <time>2019-01-18T14:46:25.000Z</time>
      </trkpt>
      <trkpt lat="43.34833" lon="5.66236">
        <ele>306</ele>
        <time>2019-01-18T14:46:26.000Z</time>
      </trkpt>
      <trkpt lat="43.34834" lon="5.66236">
        <ele>306</ele>
        <time>2019-01-18T14:46:27.000Z</time>
      </trkpt>
      <trkpt lat="43.34835" lon="5.66236">
        <ele>305</ele>
        <time>2019-01-18T14:46:28.000Z</time>
      </trkpt>
      <trkpt lat="43.34835" lon="5.66237">
        <ele>305</ele>
        <time>2019-01-18T14:46:29.000Z</time>
      </trkpt>
      <trkpt lat="43.34836" lon="5.66237">
        <ele>304</ele>
        <time>2019-01-18T14:46:30.000Z</time>
      </trkpt>
      <trkpt lat="43.34837" lon="5.66237">
        <ele>304</ele>
        <time>2019-01-18T14:46:31.000Z</time>
      </trkpt>
      <trkpt lat="43.34837" lon="5.66237">
        <ele>304</ele>
        <time>2019-01-18T14:46:32.000Z</time>
      </trkpt>
      <trkpt lat="43.34838" lon="5.66237">
        <ele>303</ele>
        <time>2019-01-18T14:46:33.000Z</time>
      </trkpt>
      <trkpt lat="43.34839" lon="5.66237">
        <ele>303</ele>
        <time>2019-01-18T14:46:34.000Z</time>
      </trkpt>
      <trkpt lat="43.34839" lon="5.66237">
        <ele>303</ele>
        <time>2019-01-18T14:46:35.000Z</time>
      </trkpt>
      <trkpt lat="43.3484" lon="5.66237">
        <ele>302</ele>
        <time>2019-01-18T14:46:36.000Z</time>
      </trkpt>
      <trkpt lat="43.34841" lon="5.66236">
        <ele>302</ele>
        <time>2019-01-18T14:46:37.000Z</time>
      </trkpt>
      <trkpt lat="43.34841" lon="5.66236">
        <ele>302</ele>
        <time>2019-01-18T14:46:38.000Z</time>
      </trkpt>
      <trkpt lat="43.34842" lon="5.66235">
        <ele>302</ele>
        <time>2019-01-18T14:46:39.000Z</time>
      </trkpt>
      <trkpt lat="43.34843" lon="5.66235">
        <ele>301</ele>
        <time>2019-01-18T14:46:40.000Z</time>
      </trkpt>
      <trkpt lat="43.34844" lon="5.66235">
        <ele>301</ele>
        <time>2019-01-18T14:46:41.000Z</time>
      </trkpt>
      <trkpt lat="43.34844" lon="5.66236">
        <ele>301</ele>
        <time>2019-01-18T14:46:42.000Z</time>
      </trkpt>
      <trkpt lat="43.34845" lon="5.66236">
        <ele>300</ele>
        <time>2019-01-18T14:46:43.000Z</time>
      </trkpt>
      <trkpt lat="43.34846" lon="5.66237">
        <ele>300</ele>
        <time>2019-01-18T14:46:44.000Z</time>
      </trkpt>
      <trkpt lat="43.34847" lon="5.66237">
        <ele>300</ele>
        <time>2019-01-18T14:46:45.000Z</time>
      </trkpt>
      <trkpt lat="43.34848" lon="5.66238">
        <ele>300</ele>
        <time>2019-01-18T14:46:46.000Z</time>
      </trkpt>
      <trkpt lat="43.34849" lon="5.66238">
        <ele>299</ele>
        <time>2019-01-18T14:46:47.000Z</time>
      </trkpt>
      <trkpt lat="43.3485" lon="5.66238">
        <ele>299</ele>
        <time>2019-01-18T14:46:48.000Z</time>
      </trkpt>
      <trkpt lat="43.3485" lon="5.66238">
        <ele>299</ele>
        <time>2019-01-18T14:46:49.000Z</time>
      </trkpt>
      <trkpt lat="43.34851" lon="5.66239">
        <ele>299</ele>
        <time>2019-01-18T14:46:50.000Z</time>
      </trkpt>
      <trkpt lat="43.34851" lon="5.66238">
        <ele>299</ele>
        <time>2019-01-18T14:46:51.000Z</time>
      </trkpt>
      <trkpt lat="43.34852" lon="5.66238">
        <ele>298</ele>
        <time>2019-01-18T14:46:52.000Z</time>
      </trkpt>
      <trkpt lat="43.34853" lon="5.66238">
        <ele>298</ele>
        <time>2019-01-18T14:46:53.000Z</time>
      </trkpt>
      <trkpt lat="43.34854" lon="5.66238">
        <ele>298</ele>
        <time>2019-01-18T14:46:54.000Z</time>
      </trkpt>
      <trkpt lat="43.34855" lon="5.66238">
        <ele>298</ele>
        <time>2019-01-18T14:46:55.000Z</time>
      </trkpt>
      <trkpt lat="43.34855" lon="5.66238">
        <ele>298</ele>
        <time>2019-01-18T14:46:56.000Z</time>
      </trkpt>
      <trkpt lat="43.34856" lon="5.66239">
        <ele>298</ele>
        <time>2019-01-18T14:46:57.000Z</time>
      </trkpt>
      <trkpt lat="43.34857" lon="5.66239">
        <ele>297</ele>
        <time>2019-01-18T14:46:58.000Z</time>
      </trkpt>
      <trkpt lat="43.34858" lon="5.66239">
        <ele>297</ele>
        <time>2019-01-18T14:46:59.000Z</time>
      </trkpt>
      <trkpt lat="43.34859" lon="5.66239">
        <ele>297</ele>
        <time>2019-01-18T14:47:00.000Z</time>
      </trkpt>
      <trkpt lat="43.3486" lon="5.66239">
        <ele>297</ele>
        <time>2019-01-18T14:47:01.000Z</time>
      </trkpt>
      <trkpt lat="43.34861" lon="5.66239">
        <ele>296</ele>
        <time>2019-01-18T14:47:02.000Z</time>
      </trkpt>
      <trkpt lat="43.34862" lon="5.66238">
        <ele>296</ele>
        <time>2019-01-18T14:47:03.000Z</time>
      </trkpt>
      <trkpt lat="43.34863" lon="5.66238">
        <ele>295</ele>
        <time>2019-01-18T14:47:04.000Z</time>
      </trkpt>
      <trkpt lat="43.34863" lon="5.66238">
        <ele>295</ele>
        <time>2019-01-18T14:47:05.000Z</time>
      </trkpt>
      <trkpt lat="43.34863" lon="5.66238">
        <ele>295</ele>
        <time>2019-01-18T14:47:06.000Z</time>
      </trkpt>
      <trkpt lat="43.34863" lon="5.66239">
        <ele>295</ele>
        <time>2019-01-18T14:47:07.000Z</time>
      </trkpt>
      <trkpt lat="43.34863" lon="5.66239">
        <ele>295</ele>
        <time>2019-01-18T14:47:08.000Z</time>
      </trkpt>
      <trkpt lat="43.34863" lon="5.66239">
        <ele>295</ele>
        <time>2019-01-18T14:47:09.000Z</time>
      </trkpt>
      <trkpt lat="43.34863" lon="5.66239">
        <ele>295</ele>
        <time>2019-01-18T14:47:10.000Z</time>
      </trkpt>
      <trkpt lat="43.34863" lon="5.66239">
        <ele>295</ele>
        <time>2019-01-18T14:47:11.000Z</time>
      </trkpt>
      <trkpt lat="43.34864" lon="5.66239">
        <ele>295</ele>
        <time>2019-01-18T14:47:12.000Z</time>
      </trkpt>
      <trkpt lat="43.34864" lon="5.66239">
        <ele>294</ele>
        <time>2019-01-18T14:47:13.000Z</time>
      </trkpt>
      <trkpt lat="43.34865" lon="5.66239">
        <ele>294</ele>
        <time>2019-01-18T14:47:14.000Z</time>
      </trkpt>
      <trkpt lat="43.34866" lon="5.66239">
        <ele>294</ele>
        <time>2019-01-18T14:47:15.000Z</time>
      </trkpt>
      <trkpt lat="43.34867" lon="5.66238">
        <ele>294</ele>
        <time>2019-01-18T14:47:16.000Z</time>
      </trkpt>
      <trkpt lat="43.34868" lon="5.66238">
        <ele>293</ele>
        <time>2019-01-18T14:47:17.000Z</time>
      </trkpt>
      <trkpt lat="43.34869" lon="5.66237">
        <ele>293</ele>
        <time>2019-01-18T14:47:18.000Z</time>
      </trkpt>
      <trkpt lat="43.3487" lon="5.66237">
        <ele>293</ele>
        <time>2019-01-18T14:47:19.000Z</time>
      </trkpt>
      <trkpt lat="43.34871" lon="5.66237">
        <ele>293</ele>
        <time>2019-01-18T14:47:20.000Z</time>
      </trkpt>
      <trkpt lat="43.34872" lon="5.66236">
        <ele>292</ele>
        <time>2019-01-18T14:47:21.000Z</time>
      </trkpt>
      <trkpt lat="43.34873" lon="5.66236">
        <ele>292</ele>
        <time>2019-01-18T14:47:22.000Z</time>
      </trkpt>
      <trkpt lat="43.34873" lon="5.66236">
        <ele>292</ele>
        <time>2019-01-18T14:47:23.000Z</time>
      </trkpt>
      <trkpt lat="43.34874" lon="5.66236">
        <ele>292</ele>
        <time>2019-01-18T14:47:24.000Z</time>
      </trkpt>
      <trkpt lat="43.34874" lon="5.66235">
        <ele>292</ele>
        <time>2019-01-18T14:47:25.000Z</time>
      </trkpt>
      <trkpt lat="43.34874" lon="5.66235">
        <ele>292</ele>
        <time>2019-01-18T14:47:26.000Z</time>
      </trkpt>
      <trkpt lat="43.34874" lon="5.66235">
        <ele>292</ele>
        <time>2019-01-18T14:47:27.000Z</time>
      </trkpt>
      <trkpt lat="43.34874" lon="5.66235">
        <ele>292</ele>
        <time>2019-01-18T14:47:28.000Z</time>
      </trkpt>
      <trkpt lat="43.34874" lon="5.66235">
        <ele>292</ele>
        <time>2019-01-18T14:47:29.000Z</time>
      </trkpt>
      <trkpt lat="43.34875" lon="5.66235">
        <ele>291</ele>
        <time>2019-01-18T14:47:30.000Z</time>
      </trkpt>
      <trkpt lat="43.34876" lon="5.66235">
        <ele>291</ele>
        <time>2019-01-18T14:47:31.000Z</time>
      </trkpt>
      <trkpt lat="43.34877" lon="5.66236">
        <ele>291</ele>
        <time>2019-01-18T14:47:32.000Z</time>
      </trkpt>
      <trkpt lat="43.34878" lon="5.66236">
        <ele>291</ele>
        <time>2019-01-18T14:47:33.000Z</time>
      </trkpt>
      <trkpt lat="43.34879" lon="5.66236">
        <ele>291</ele>
        <time>2019-01-18T14:47:34.000Z</time>
      </trkpt>
      <trkpt lat="43.34879" lon="5.66237">
        <ele>291</ele>
        <time>2019-01-18T14:47:35.000Z</time>
      </trkpt>
      <trkpt lat="43.3488" lon="5.66237">
        <ele>290</ele>
        <time>2019-01-18T14:47:36.000Z</time>
      </trkpt>
      <trkpt lat="43.34881" lon="5.66238">
        <ele>290</ele>
        <time>2019-01-18T14:47:37.000Z</time>
      </trkpt>
      <trkpt lat="43.34881" lon="5.66238">
        <ele>290</ele>
        <time>2019-01-18T14:47:38.000Z</time>
      </trkpt>
      <trkpt lat="43.34882" lon="5.66239">
        <ele>290</ele>
        <time>2019-01-18T14:47:39.000Z</time>
      </trkpt>
      <trkpt lat="43.34883" lon="5.6624">
        <ele>290</ele>
        <time>2019-01-18T14:47:40.000Z</time>
      </trkpt>
      <trkpt lat="43.34883" lon="5.6624">
        <ele>290</ele>
        <time>2019-01-18T14:47:41.000Z</time>
      </trkpt>
      <trkpt lat="43.34884" lon="5.66241">
        <ele>290</ele>
        <time>2019-01-18T14:47:42.000Z</time>
      </trkpt>
      <trkpt lat="43.34885" lon="5.66241">
        <ele>289</ele>
        <time>2019-01-18T14:47:43.000Z</time>
      </trkpt>
      <trkpt lat="43.34886" lon="5.66241">
        <ele>289</ele>
        <time>2019-01-18T14:47:44.000Z</time>
      </trkpt>
      <trkpt lat="43.34887" lon="5.66242">
        <ele>289</ele>
        <time>2019-01-18T14:47:45.000Z</time>
      </trkpt>
      <trkpt lat="43.34888" lon="5.66243">
        <ele>289</ele>
        <time>2019-01-18T14:47:46.000Z</time>
      </trkpt>
      <trkpt lat="43.34889" lon="5.66243">
        <ele>289</ele>
        <time>2019-01-18T14:47:47.000Z</time>
      </trkpt>
      <trkpt lat="43.3489" lon="5.66244">
        <ele>289</ele>
        <time>2019-01-18T14:47:48.000Z</time>
      </trkpt>
      <trkpt lat="43.34891" lon="5.66244">
        <ele>289</ele>
        <time>2019-01-18T14:47:49.000Z</time>
      </trkpt>
      <trkpt lat="43.34892" lon="5.66245">
        <ele>288</ele>
        <time>2019-01-18T14:47:50.000Z</time>
      </trkpt>
      <trkpt lat="43.34893" lon="5.66245">
        <ele>288</ele>
        <time>2019-01-18T14:47:51.000Z</time>
      </trkpt>
      <trkpt lat="43.34894" lon="5.66245">
        <ele>288</ele>
        <time>2019-01-18T14:47:52.000Z</time>
      </trkpt>
      <trkpt lat="43.34895" lon="5.66245">
        <ele>288</ele>
        <time>2019-01-18T14:47:53.000Z</time>
      </trkpt>
      <trkpt lat="43.34896" lon="5.66244">
        <ele>288</ele>
        <time>2019-01-18T14:47:54.000Z</time>
      </trkpt>
      <trkpt lat="43.34897" lon="5.66244">
        <ele>288</ele>
        <time>2019-01-18T14:47:55.000Z</time>
      </trkpt>
      <trkpt lat="43.34898" lon="5.66244">
        <ele>288</ele>
        <time>2019-01-18T14:47:56.000Z</time>
      </trkpt>
      <trkpt lat="43.34899" lon="5.66245">
        <ele>288</ele>
        <time>2019-01-18T14:47:57.000Z</time>
      </trkpt>
      <trkpt lat="43.34899" lon="5.66245">
        <ele>288</ele>
        <time>2019-01-18T14:47:58.000Z</time>
      </trkpt>
      <trkpt lat="43.349" lon="5.66246">
        <ele>288</ele>
        <time>2019-01-18T14:47:59.000Z</time>
      </trkpt>
      <trkpt lat="43.349" lon="5.66247">
        <ele>288</ele>
        <time>2019-01-18T14:48:00.000Z</time>
      </trkpt>
      <trkpt lat="43.34901" lon="5.66247">
        <ele>288</ele>
        <time>2019-01-18T14:48:01.000Z</time>
      </trkpt>
      <trkpt lat="43.34901" lon="5.66247">
        <ele>288</ele>
        <time>2019-01-18T14:48:02.000Z</time>
      </trkpt>
      <trkpt lat="43.34901" lon="5.66248">
        <ele>287</ele>
        <time>2019-01-18T14:48:03.000Z</time>
      </trkpt>
      <trkpt lat="43.34901" lon="5.66249">
        <ele>287</ele>
        <time>2019-01-18T14:48:04.000Z</time>
      </trkpt>
      <trkpt lat="43.349" lon="5.6625">
        <ele>287</ele>
        <time>2019-01-18T14:48:05.000Z</time>
      </trkpt>
      <trkpt lat="43.349" lon="5.66251">
        <ele>287</ele>
        <time>2019-01-18T14:48:06.000Z</time>
      </trkpt>
      <trkpt lat="43.34899" lon="5.66253">
        <ele>287</ele>
        <time>2019-01-18T14:48:07.000Z</time>
      </trkpt>
      <trkpt lat="43.34898" lon="5.66253">
        <ele>287</ele>
        <time>2019-01-18T14:48:08.000Z</time>
      </trkpt>
      <trkpt lat="43.34897" lon="5.66254">
        <ele>287</ele>
        <time>2019-01-18T14:48:09.000Z</time>
      </trkpt>
      <trkpt lat="43.34897" lon="5.66255">
        <ele>286</ele>
        <time>2019-01-18T14:48:10.000Z</time>
      </trkpt>
      <trkpt lat="43.34896" lon="5.66256">
        <ele>286</ele>
        <time>2019-01-18T14:48:11.000Z</time>
      </trkpt>
      <trkpt lat="43.34895" lon="5.66256">
        <ele>286</ele>
        <time>2019-01-18T14:48:12.000Z</time>
      </trkpt>
      <trkpt lat="43.34894" lon="5.66257">
        <ele>286</ele>
        <time>2019-01-18T14:48:13.000Z</time>
      </trkpt>
      <trkpt lat="43.34894" lon="5.66258">
        <ele>286</ele>
        <time>2019-01-18T14:48:14.000Z</time>
      </trkpt>
      <trkpt lat="43.34893" lon="5.66259">
        <ele>286</ele>
        <time>2019-01-18T14:48:15.000Z</time>
      </trkpt>
      <trkpt lat="43.34892" lon="5.6626">
        <ele>286</ele>
        <time>2019-01-18T14:48:16.000Z</time>
      </trkpt>
      <trkpt lat="43.34892" lon="5.66261">
        <ele>286</ele>
        <time>2019-01-18T14:48:17.000Z</time>
      </trkpt>
      <trkpt lat="43.34891" lon="5.66262">
        <ele>286</ele>
        <time>2019-01-18T14:48:18.000Z</time>
      </trkpt>
      <trkpt lat="43.3489" lon="5.66263">
        <ele>286</ele>
        <time>2019-01-18T14:48:19.000Z</time>
      </trkpt>
      <trkpt lat="43.34889" lon="5.66264">
        <ele>285</ele>
        <time>2019-01-18T14:48:20.000Z</time>
      </trkpt>
      <trkpt lat="43.34889" lon="5.66265">
        <ele>285</ele>
        <time>2019-01-18T14:48:21.000Z</time>
      </trkpt>
      <trkpt lat="43.34888" lon="5.66266">
        <ele>285</ele>
        <time>2019-01-18T14:48:22.000Z</time>
      </trkpt>
      <trkpt lat="43.34887" lon="5.66267">
        <ele>285</ele>
        <time>2019-01-18T14:48:23.000Z</time>
      </trkpt>
      <trkpt lat="43.34887" lon="5.66268">
        <ele>285</ele>
        <time>2019-01-18T14:48:24.000Z</time>
      </trkpt>
      <trkpt lat="43.34886" lon="5.66268">
        <ele>285</ele>
        <time>2019-01-18T14:48:25.000Z</time>
      </trkpt>
      <trkpt lat="43.34885" lon="5.66269">
        <ele>285</ele>
        <time>2019-01-18T14:48:26.000Z</time>
      </trkpt>
      <trkpt lat="43.34884" lon="5.6627">
        <ele>285</ele>
        <time>2019-01-18T14:48:27.000Z</time>
      </trkpt>
      <trkpt lat="43.34884" lon="5.6627">
        <ele>285</ele>
        <time>2019-01-18T14:48:28.000Z</time>
      </trkpt>
      <trkpt lat="43.34883" lon="5.66271">
        <ele>285</ele>
        <time>2019-01-18T14:48:29.000Z</time>
      </trkpt>
      <trkpt lat="43.34883" lon="5.66271">
        <ele>285</ele>
        <time>2019-01-18T14:48:30.000Z</time>
      </trkpt>
      <trkpt lat="43.34882" lon="5.66272">
        <ele>285</ele>
        <time>2019-01-18T14:48:31.000Z</time>
      </trkpt>
      <trkpt lat="43.34882" lon="5.66272">
        <ele>285</ele>
        <time>2019-01-18T14:48:32.000Z</time>
      </trkpt>
      <trkpt lat="43.34881" lon="5.66273">
        <ele>285</ele>
        <time>2019-01-18T14:48:33.000Z</time>
      </trkpt>
      <trkpt lat="43.34881" lon="5.66274">
        <ele>285</ele>
        <time>2019-01-18T14:48:34.000Z</time>
      </trkpt>
      <trkpt lat="43.3488" lon="5.66275">
        <ele>285</ele>
        <time>2019-01-18T14:48:35.000Z</time>
      </trkpt>
      <trkpt lat="43.3488" lon="5.66275">
        <ele>285</ele>
        <time>2019-01-18T14:48:36.000Z</time>
      </trkpt>
      <trkpt lat="43.34879" lon="5.66276">
        <ele>285</ele>
        <time>2019-01-18T14:48:37.000Z</time>
      </trkpt>
      <trkpt lat="43.34879" lon="5.66277">
        <ele>285</ele>
        <time>2019-01-18T14:48:38.000Z</time>
      </trkpt>
      <trkpt lat="43.34878" lon="5.66278">
        <ele>285</ele>
        <time>2019-01-18T14:48:39.000Z</time>
      </trkpt>
      <trkpt lat="43.34878" lon="5.6628">
        <ele>285</ele>
        <time>2019-01-18T14:48:40.000Z</time>
      </trkpt>
      <trkpt lat="43.34878" lon="5.66281">
        <ele>285</ele>
        <time>2019-01-18T14:48:41.000Z</time>
      </trkpt>
      <trkpt lat="43.34878" lon="5.66282">
        <ele>285</ele>
        <time>2019-01-18T14:48:42.000Z</time>
      </trkpt>
      <trkpt lat="43.34877" lon="5.66283">
        <ele>285</ele>
        <time>2019-01-18T14:48:43.000Z</time>
      </trkpt>
      <trkpt lat="43.34877" lon="5.66285">
        <ele>284</ele>
        <time>2019-01-18T14:48:44.000Z</time>
      </trkpt>
      <trkpt lat="43.34877" lon="5.66286">
        <ele>284</ele>
        <time>2019-01-18T14:48:45.000Z</time>
      </trkpt>
      <trkpt lat="43.34876" lon="5.66287">
        <ele>284</ele>
        <time>2019-01-18T14:48:46.000Z</time>
      </trkpt>
      <trkpt lat="43.34876" lon="5.66288">
        <ele>284</ele>
        <time>2019-01-18T14:48:47.000Z</time>
      </trkpt>
      <trkpt lat="43.34875" lon="5.66289">
        <ele>284</ele>
        <time>2019-01-18T14:48:48.000Z</time>
      </trkpt>
      <trkpt lat="43.34874" lon="5.6629">
        <ele>284</ele>
        <time>2019-01-18T14:48:49.000Z</time>
      </trkpt>
      <trkpt lat="43.34874" lon="5.66292">
        <ele>284</ele>
        <time>2019-01-18T14:48:50.000Z</time>
      </trkpt>
      <trkpt lat="43.34874" lon="5.66293">
        <ele>284</ele>
        <time>2019-01-18T14:48:51.000Z</time>
      </trkpt>
      <trkpt lat="43.34874" lon="5.66294">
        <ele>284</ele>
        <time>2019-01-18T14:48:52.000Z</time>
      </trkpt>
      <trkpt lat="43.34873" lon="5.66295">
        <ele>284</ele>
        <time>2019-01-18T14:48:53.000Z</time>
      </trkpt>
      <trkpt lat="43.34873" lon="5.66297">
        <ele>284</ele>
        <time>2019-01-18T14:48:54.000Z</time>
      </trkpt>
      <trkpt lat="43.34873" lon="5.66298">
        <ele>284</ele>
        <time>2019-01-18T14:48:55.000Z</time>
      </trkpt>
      <trkpt lat="43.34873" lon="5.66299">
        <ele>284</ele>
        <time>2019-01-18T14:48:56.000Z</time>
      </trkpt>
      <trkpt lat="43.34873" lon="5.663">
        <ele>283</ele>
        <time>2019-01-18T14:48:57.000Z</time>
      </trkpt>
      <trkpt lat="43.34873" lon="5.66301">
        <ele>283</ele>
        <time>2019-01-18T14:48:58.000Z</time>
      </trkpt>
      <trkpt lat="43.34872" lon="5.66302">
        <ele>283</ele>
        <time>2019-01-18T14:48:59.000Z</time>
      </trkpt>
      <trkpt lat="43.34872" lon="5.66303">
        <ele>283</ele>
        <time>2019-01-18T14:49:00.000Z</time>
      </trkpt>
      <trkpt lat="43.34872" lon="5.66304">
        <ele>283</ele>
        <time>2019-01-18T14:49:01.000Z</time>
      </trkpt>
      <trkpt lat="43.34871" lon="5.66306">
        <ele>283</ele>
        <time>2019-01-18T14:49:02.000Z</time>
      </trkpt>
      <trkpt lat="43.34871" lon="5.66307">
        <ele>283</ele>
        <time>2019-01-18T14:49:03.000Z</time>
      </trkpt>
      <trkpt lat="43.34871" lon="5.66308">
        <ele>283</ele>
        <time>2019-01-18T14:49:04.000Z</time>
      </trkpt>
      <trkpt lat="43.3487" lon="5.66309">
        <ele>283</ele>
        <time>2019-01-18T14:49:05.000Z</time>
      </trkpt>
      <trkpt lat="43.3487" lon="5.6631">
        <ele>283</ele>
        <time>2019-01-18T14:49:06.000Z</time>
      </trkpt>
      <trkpt lat="43.3487" lon="5.66311">
        <ele>283</ele>
        <time>2019-01-18T14:49:07.000Z</time>
      </trkpt>
      <trkpt lat="43.3487" lon="5.66312">
        <ele>283</ele>
        <time>2019-01-18T14:49:08.000Z</time>
      </trkpt>
      <trkpt lat="43.34869" lon="5.66313">
        <ele>283</ele>
        <time>2019-01-18T14:49:09.000Z</time>
      </trkpt>
      <trkpt lat="43.34869" lon="5.66315">
        <ele>283</ele>
        <time>2019-01-18T14:49:10.000Z</time>
      </trkpt>
      <trkpt lat="43.34868" lon="5.66316">
        <ele>283</ele>
        <time>2019-01-18T14:49:11.000Z</time>
      </trkpt>
      <trkpt lat="43.34868" lon="5.66317">
        <ele>283</ele>
        <time>2019-01-18T14:49:12.000Z</time>
      </trkpt>
      <trkpt lat="43.34867" lon="5.66318">
        <ele>282</ele>
        <time>2019-01-18T14:49:13.000Z</time>
      </trkpt>
      <trkpt lat="43.34866" lon="5.6632">
        <ele>282</ele>
        <time>2019-01-18T14:49:14.000Z</time>
      </trkpt>
      <trkpt lat="43.34866" lon="5.66321">
        <ele>282</ele>
        <time>2019-01-18T14:49:15.000Z</time>
      </trkpt>
      <trkpt lat="43.34865" lon="5.66322">
        <ele>282</ele>
        <time>2019-01-18T14:49:16.000Z</time>
      </trkpt>
      <trkpt lat="43.34864" lon="5.66324">
        <ele>282</ele>
        <time>2019-01-18T14:49:17.000Z</time>
      </trkpt>
      <trkpt lat="43.34864" lon="5.66325">
        <ele>282</ele>
        <time>2019-01-18T14:49:18.000Z</time>
      </trkpt>
      <trkpt lat="43.34864" lon="5.66327">
        <ele>282</ele>
        <time>2019-01-18T14:49:19.000Z</time>
      </trkpt>
      <trkpt lat="43.34864" lon="5.66328">
        <ele>282</ele>
        <time>2019-01-18T14:49:20.000Z</time>
      </trkpt>
      <trkpt lat="43.34864" lon="5.6633">
        <ele>282</ele>
        <time>2019-01-18T14:49:21.000Z</time>
      </trkpt>
      <trkpt lat="43.34863" lon="5.66331">
        <ele>282</ele>
        <time>2019-01-18T14:49:22.000Z</time>
      </trkpt>
      <trkpt lat="43.34863" lon="5.66332">
        <ele>282</ele>
        <time>2019-01-18T14:49:23.000Z</time>
      </trkpt>
      <trkpt lat="43.34862" lon="5.66333">
        <ele>282</ele>
        <time>2019-01-18T14:49:24.000Z</time>
      </trkpt>
      <trkpt lat="43.34862" lon="5.66334">
        <ele>282</ele>
        <time>2019-01-18T14:49:25.000Z</time>
      </trkpt>
      <trkpt lat="43.34861" lon="5.66335">
        <ele>282</ele>
        <time>2019-01-18T14:49:26.000Z</time>
      </trkpt>
      <trkpt lat="43.3486" lon="5.66336">
        <ele>282</ele>
        <time>2019-01-18T14:49:27.000Z</time>
      </trkpt>
      <trkpt lat="43.3486" lon="5.66337">
        <ele>282</ele>
        <time>2019-01-18T14:49:28.000Z</time>
      </trkpt>
      <trkpt lat="43.34859" lon="5.66338">
        <ele>282</ele>
        <time>2019-01-18T14:49:29.000Z</time>
      </trkpt>
      <trkpt lat="43.34859" lon="5.66339">
        <ele>282</ele>
        <time>2019-01-18T14:49:30.000Z</time>
      </trkpt>
      <trkpt lat="43.34858" lon="5.6634">
        <ele>282</ele>
        <time>2019-01-18T14:49:31.000Z</time>
      </trkpt>
      <trkpt lat="43.34858" lon="5.66341">
        <ele>282</ele>
        <time>2019-01-18T14:49:32.000Z</time>
      </trkpt>
      <trkpt lat="43.34857" lon="5.66343">
        <ele>282</ele>
        <time>2019-01-18T14:49:33.000Z</time>
      </trkpt>
      <trkpt lat="43.34857" lon="5.66345">
        <ele>282</ele>
        <time>2019-01-18T14:49:34.000Z</time>
      </trkpt>
      <trkpt lat="43.34857" lon="5.66346">
        <ele>282</ele>
        <time>2019-01-18T14:49:35.000Z</time>
      </trkpt>
      <trkpt lat="43.34856" lon="5.66347">
        <ele>282</ele>
        <time>2019-01-18T14:49:36.000Z</time>
      </trkpt>
      <trkpt lat="43.34856" lon="5.66349">
        <ele>282</ele>
        <time>2019-01-18T14:49:37.000Z</time>
      </trkpt>
      <trkpt lat="43.34856" lon="5.66351">
        <ele>282</ele>
        <time>2019-01-18T14:49:38.000Z</time>
      </trkpt>
      <trkpt lat="43.34855" lon="5.66352">
        <ele>282</ele>
        <time>2019-01-18T14:49:39.000Z</time>
      </trkpt>
      <trkpt lat="43.34854" lon="5.66354">
        <ele>282</ele>
        <time>2019-01-18T14:49:40.000Z</time>
      </trkpt>
      <trkpt lat="43.34854" lon="5.66355">
        <ele>282</ele>
        <time>2019-01-18T14:49:41.000Z</time>
      </trkpt>
      <trkpt lat="43.34853" lon="5.66356">
        <ele>282</ele>
        <time>2019-01-18T14:49:42.000Z</time>
      </trkpt>
      <trkpt lat="43.34852" lon="5.66357">
        <ele>282</ele>
        <time>2019-01-18T14:49:43.000Z</time>
      </trkpt>
      <trkpt lat="43.34851" lon="5.66358">
        <ele>282</ele>
        <time>2019-01-18T14:49:44.000Z</time>
      </trkpt>
      <trkpt lat="43.34851" lon="5.66359">
        <ele>282</ele>
        <time>2019-01-18T14:49:45.000Z</time>
      </trkpt>
      <trkpt lat="43.3485" lon="5.66361">
        <ele>282</ele>
        <time>2019-01-18T14:49:46.000Z</time>
      </trkpt>
      <trkpt lat="43.34849" lon="5.66362">
        <ele>282</ele>
        <time>2019-01-18T14:49:47.000Z</time>
      </trkpt>
      <trkpt lat="43.34849" lon="5.66364">
        <ele>282</ele>
        <time>2019-01-18T14:49:48.000Z</time>
      </trkpt>
      <trkpt lat="43.34849" lon="5.66365">
        <ele>282</ele>
        <time>2019-01-18T14:49:49.000Z</time>
      </trkpt>
      <trkpt lat="43.34848" lon="5.66367">
        <ele>282</ele>
        <time>2019-01-18T14:49:50.000Z</time>
      </trkpt>
      <trkpt lat="43.34848" lon="5.66369">
        <ele>282</ele>
        <time>2019-01-18T14:49:51.000Z</time>
      </trkpt>
      <trkpt lat="43.34848" lon="5.6637">
        <ele>282</ele>
        <time>2019-01-18T14:49:52.000Z</time>
      </trkpt>
      <trkpt lat="43.34847" lon="5.66372">
        <ele>282</ele>
        <time>2019-01-18T14:49:53.000Z</time>
      </trkpt>
      <trkpt lat="43.34847" lon="5.66373">
        <ele>282</ele>
        <time>2019-01-18T14:49:54.000Z</time>
      </trkpt>
      <trkpt lat="43.34846" lon="5.66374">
        <ele>283</ele>
        <time>2019-01-18T14:49:55.000Z</time>
      </trkpt>
      <trkpt lat="43.34847" lon="5.66374">
        <ele>283</ele>
        <time>2019-01-18T14:49:56.000Z</time>
      </trkpt>
      <trkpt lat="43.34847" lon="5.66374">
        <ele>283</ele>
        <time>2019-01-18T14:49:57.000Z</time>
      </trkpt>
      <trkpt lat="43.34847" lon="5.66374">
        <ele>283</ele>
        <time>2019-01-18T14:49:58.000Z</time>
      </trkpt>
      <trkpt lat="43.34847" lon="5.66374">
        <ele>283</ele>
        <time>2019-01-18T14:49:59.000Z</time>
      </trkpt>
      <trkpt lat="43.34847" lon="5.66374">
        <ele>283</ele>
        <time>2019-01-18T14:50:00.000Z</time>
      </trkpt>
      <trkpt lat="43.34847" lon="5.66374">
        <ele>283</ele>
        <time>2019-01-18T14:50:01.000Z</time>
      </trkpt>
      <trkpt lat="43.34847" lon="5.66375">
        <ele>283</ele>
        <time>2019-01-18T14:50:02.000Z</time>
      </trkpt>
      <trkpt lat="43.34847" lon="5.66375">
        <ele>283</ele>
        <time>2019-01-18T14:50:03.000Z</time>
      </trkpt>
      <trkpt lat="43.34847" lon="5.66375">
        <ele>284</ele>
        <time>2019-01-18T14:50:04.000Z</time>
      </trkpt>
      <trkpt lat="43.34847" lon="5.66375">
        <ele>284</ele>
        <time>2019-01-18T14:50:05.000Z</time>
      </trkpt>
      <trkpt lat="43.34847" lon="5.66375">
        <ele>284</ele>
        <time>2019-01-18T14:50:06.000Z</time>
      </trkpt>
      <trkpt lat="43.34847" lon="5.66375">
        <ele>284</ele>
        <time>2019-01-18T14:50:07.000Z</time>
      </trkpt>
      <trkpt lat="43.34847" lon="5.66375">
        <ele>284</ele>
        <time>2019-01-18T14:50:08.000Z</time>
      </trkpt>
      <trkpt lat="43.34847" lon="5.66375">
        <ele>284</ele>
        <time>2019-01-18T14:50:09.000Z</time>
      </trkpt>
      <trkpt lat="43.34847" lon="5.66375">
        <ele>284</ele>
        <time>2019-01-18T14:50:10.000Z</time>
      </trkpt>
      <trkpt lat="43.34847" lon="5.66375">
        <ele>285</ele>
        <time>2019-01-18T14:50:11.000Z</time>
      </trkpt>
      <trkpt lat="43.34847" lon="5.66375">
        <ele>285</ele>
        <time>2019-01-18T14:50:12.000Z</time>
      </trkpt>
      <trkpt lat="43.34847" lon="5.66375">
        <ele>285</ele>
        <time>2019-01-18T14:50:13.000Z</time>
      </trkpt>
      <trkpt lat="43.34847" lon="5.66375">
        <ele>285</ele>
        <time>2019-01-18T14:50:14.000Z</time>
      </trkpt>
      <trkpt lat="43.34847" lon="5.66375">
        <ele>285</ele>
        <time>2019-01-18T14:50:15.000Z</time>
      </trkpt>
      <trkpt lat="43.34847" lon="5.66375">
        <ele>285</ele>
        <time>2019-01-18T14:50:16.000Z</time>
      </trkpt>
      <trkpt lat="43.34847" lon="5.66375">
        <ele>285</ele>
        <time>2019-01-18T14:50:17.000Z</time>
      </trkpt>
      <trkpt lat="43.34847" lon="5.66375">
        <ele>285</ele>
        <time>2019-01-18T14:50:18.000Z</time>
      </trkpt>
      <trkpt lat="43.34847" lon="5.66375">
        <ele>285</ele>
        <time>2019-01-18T14:50:19.000Z</time>
      </trkpt>
      <trkpt lat="43.34847" lon="5.66375">
        <ele>285</ele>
        <time>2019-01-18T14:50:20.000Z</time>
      </trkpt>
      <trkpt lat="43.34848" lon="5.66375">
        <ele>285</ele>
        <time>2019-01-18T14:50:21.000Z</time>
      </trkpt>
      <trkpt lat="43.34848" lon="5.66375">
        <ele>285</ele>
        <time>2019-01-18T14:50:22.000Z</time>
      </trkpt>
      <trkpt lat="43.34848" lon="5.66375">
        <ele>285</ele>
        <time>2019-01-18T14:50:23.000Z</time>
      </trkpt>
      <trkpt lat="43.34848" lon="5.66375">
        <ele>285</ele>
        <time>2019-01-18T14:50:24.000Z</time>
      </trkpt>
      <trkpt lat="43.34849" lon="5.66374">
        <ele>285</ele>
        <time>2019-01-18T14:50:25.000Z</time>
      </trkpt>
      <trkpt lat="43.34849" lon="5.66374">
        <ele>285</ele>
        <time>2019-01-18T14:50:26.000Z</time>
      </trkpt>
      <trkpt lat="43.3485" lon="5.66373">
        <ele>285</ele>
        <time>2019-01-18T14:50:27.000Z</time>
      </trkpt>
      <trkpt lat="43.3485" lon="5.66372">
        <ele>285</ele>
        <time>2019-01-18T14:50:28.000Z</time>
      </trkpt>
      <trkpt lat="43.3485" lon="5.66372">
        <ele>285</ele>
        <time>2019-01-18T14:50:29.000Z</time>
      </trkpt>
      <trkpt lat="43.3485" lon="5.66372">
        <ele>285</ele>
        <time>2019-01-18T14:50:30.000Z</time>
      </trkpt>
      <trkpt lat="43.34851" lon="5.66372">
        <ele>285</ele>
        <time>2019-01-18T14:50:31.000Z</time>
      </trkpt>
      <trkpt lat="43.34851" lon="5.66371">
        <ele>285</ele>
        <time>2019-01-18T14:50:32.000Z</time>
      </trkpt>
      <trkpt lat="43.34851" lon="5.66371">
        <ele>285</ele>
        <time>2019-01-18T14:50:33.000Z</time>
      </trkpt>
      <trkpt lat="43.34851" lon="5.66371">
        <ele>285</ele>
        <time>2019-01-18T14:50:34.000Z</time>
      </trkpt>
      <trkpt lat="43.34851" lon="5.66371">
        <ele>285</ele>
        <time>2019-01-18T14:50:35.000Z</time>
      </trkpt>
      <trkpt lat="43.34851" lon="5.66371">
        <ele>285</ele>
        <time>2019-01-18T14:50:36.000Z</time>
      </trkpt>
      <trkpt lat="43.34852" lon="5.6637">
        <ele>285</ele>
        <time>2019-01-18T14:50:37.000Z</time>
      </trkpt>
      <trkpt lat="43.34852" lon="5.6637">
        <ele>285</ele>
        <time>2019-01-18T14:50:38.000Z</time>
      </trkpt>
      <trkpt lat="43.34852" lon="5.66369">
        <ele>285</ele>
        <time>2019-01-18T14:50:39.000Z</time>
      </trkpt>
      <trkpt lat="43.34852" lon="5.66368">
        <ele>285</ele>
        <time>2019-01-18T14:50:40.000Z</time>
      </trkpt>
      <trkpt lat="43.34853" lon="5.66367">
        <ele>285</ele>
        <time>2019-01-18T14:50:41.000Z</time>
      </trkpt>
      <trkpt lat="43.34853" lon="5.66366">
        <ele>285</ele>
        <time>2019-01-18T14:50:42.000Z</time>
      </trkpt>
      <trkpt lat="43.34854" lon="5.66364">
        <ele>285</ele>
        <time>2019-01-18T14:50:43.000Z</time>
      </trkpt>
      <trkpt lat="43.34855" lon="5.66363">
        <ele>285</ele>
        <time>2019-01-18T14:50:44.000Z</time>
      </trkpt>
      <trkpt lat="43.34855" lon="5.66362">
        <ele>285</ele>
        <time>2019-01-18T14:50:45.000Z</time>
      </trkpt>
      <trkpt lat="43.34856" lon="5.6636">
        <ele>285</ele>
        <time>2019-01-18T14:50:46.000Z</time>
      </trkpt>
      <trkpt lat="43.34856" lon="5.66359">
        <ele>285</ele>
        <time>2019-01-18T14:50:47.000Z</time>
      </trkpt>
      <trkpt lat="43.34857" lon="5.66358">
        <ele>285</ele>
        <time>2019-01-18T14:50:48.000Z</time>
      </trkpt>
      <trkpt lat="43.34857" lon="5.66357">
        <ele>285</ele>
        <time>2019-01-18T14:50:49.000Z</time>
      </trkpt>
      <trkpt lat="43.34858" lon="5.66356">
        <ele>284</ele>
        <time>2019-01-18T14:50:50.000Z</time>
      </trkpt>
      <trkpt lat="43.34858" lon="5.66354">
        <ele>284</ele>
        <time>2019-01-18T14:50:51.000Z</time>
      </trkpt>
      <trkpt lat="43.34858" lon="5.66353">
        <ele>284</ele>
        <time>2019-01-18T14:50:52.000Z</time>
      </trkpt>
      <trkpt lat="43.34859" lon="5.66352">
        <ele>284</ele>
        <time>2019-01-18T14:50:53.000Z</time>
      </trkpt>
      <trkpt lat="43.34859" lon="5.66351">
        <ele>284</ele>
        <time>2019-01-18T14:50:54.000Z</time>
      </trkpt>
      <trkpt lat="43.34859" lon="5.66349">
        <ele>284</ele>
        <time>2019-01-18T14:50:55.000Z</time>
      </trkpt>
      <trkpt lat="43.3486" lon="5.66348">
        <ele>284</ele>
        <time>2019-01-18T14:50:56.000Z</time>
      </trkpt>
      <trkpt lat="43.3486" lon="5.66347">
        <ele>284</ele>
        <time>2019-01-18T14:50:57.000Z</time>
      </trkpt>
      <trkpt lat="43.3486" lon="5.66346">
        <ele>283</ele>
        <time>2019-01-18T14:50:58.000Z</time>
      </trkpt>
      <trkpt lat="43.3486" lon="5.66345">
        <ele>283</ele>
        <time>2019-01-18T14:50:59.000Z</time>
      </trkpt>
      <trkpt lat="43.3486" lon="5.66343">
        <ele>283</ele>
        <time>2019-01-18T14:51:00.000Z</time>
      </trkpt>
      <trkpt lat="43.3486" lon="5.66342">
        <ele>283</ele>
        <time>2019-01-18T14:51:01.000Z</time>
      </trkpt>
      <trkpt lat="43.3486" lon="5.66341">
        <ele>283</ele>
        <time>2019-01-18T14:51:02.000Z</time>
      </trkpt>
      <trkpt lat="43.3486" lon="5.6634">
        <ele>282</ele>
        <time>2019-01-18T14:51:03.000Z</time>
      </trkpt>
      <trkpt lat="43.3486" lon="5.66339">
        <ele>282</ele>
        <time>2019-01-18T14:51:04.000Z</time>
      </trkpt>
      <trkpt lat="43.3486" lon="5.66338">
        <ele>282</ele>
        <time>2019-01-18T14:51:05.000Z</time>
      </trkpt>
      <trkpt lat="43.34861" lon="5.66337">
        <ele>281</ele>
        <time>2019-01-18T14:51:06.000Z</time>
      </trkpt>
      <trkpt lat="43.34861" lon="5.66336">
        <ele>281</ele>
        <time>2019-01-18T14:51:07.000Z</time>
      </trkpt>
      <trkpt lat="43.34861" lon="5.66335">
        <ele>281</ele>
        <time>2019-01-18T14:51:08.000Z</time>
      </trkpt>
      <trkpt lat="43.34862" lon="5.66334">
        <ele>281</ele>
        <time>2019-01-18T14:51:09.000Z</time>
      </trkpt>
      <trkpt lat="43.34862" lon="5.66333">
        <ele>281</ele>
        <time>2019-01-18T14:51:10.000Z</time>
      </trkpt>
      <trkpt lat="43.34863" lon="5.66332">
        <ele>281</ele>
        <time>2019-01-18T14:51:11.000Z</time>
      </trkpt>
      <trkpt lat="43.34863" lon="5.66331">
        <ele>280</ele>
        <time>2019-01-18T14:51:12.000Z</time>
      </trkpt>
      <trkpt lat="43.34864" lon="5.6633">
        <ele>280</ele>
        <time>2019-01-18T14:51:13.000Z</time>
      </trkpt>
      <trkpt lat="43.34864" lon="5.66329">
        <ele>280</ele>
        <time>2019-01-18T14:51:14.000Z</time>
      </trkpt>
      <trkpt lat="43.34864" lon="5.66328">
        <ele>280</ele>
        <time>2019-01-18T14:51:15.000Z</time>
      </trkpt>
      <trkpt lat="43.34865" lon="5.66326">
        <ele>280</ele>
        <time>2019-01-18T14:51:16.000Z</time>
      </trkpt>
      <trkpt lat="43.34865" lon="5.66325">
        <ele>280</ele>
        <time>2019-01-18T14:51:17.000Z</time>
      </trkpt>
      <trkpt lat="43.34866" lon="5.66325">
        <ele>280</ele>
        <time>2019-01-18T14:51:18.000Z</time>
      </trkpt>
      <trkpt lat="43.34867" lon="5.66324">
        <ele>280</ele>
        <time>2019-01-18T14:51:19.000Z</time>
      </trkpt>
      <trkpt lat="43.34867" lon="5.66323">
        <ele>280</ele>
        <time>2019-01-18T14:51:20.000Z</time>
      </trkpt>
      <trkpt lat="43.34867" lon="5.66322">
        <ele>280</ele>
        <time>2019-01-18T14:51:21.000Z</time>
      </trkpt>
      <trkpt lat="43.34868" lon="5.66321">
        <ele>280</ele>
        <time>2019-01-18T14:51:22.000Z</time>
      </trkpt>
      <trkpt lat="43.34868" lon="5.6632">
        <ele>280</ele>
        <time>2019-01-18T14:51:23.000Z</time>
      </trkpt>
      <trkpt lat="43.34869" lon="5.66319">
        <ele>281</ele>
        <time>2019-01-18T14:51:24.000Z</time>
      </trkpt>
      <trkpt lat="43.34869" lon="5.66319">
        <ele>281</ele>
        <time>2019-01-18T14:51:25.000Z</time>
      </trkpt>
      <trkpt lat="43.3487" lon="5.66318">
        <ele>281</ele>
        <time>2019-01-18T14:51:26.000Z</time>
      </trkpt>
      <trkpt lat="43.3487" lon="5.66317">
        <ele>281</ele>
        <time>2019-01-18T14:51:27.000Z</time>
      </trkpt>
      <trkpt lat="43.3487" lon="5.66316">
        <ele>281</ele>
        <time>2019-01-18T14:51:28.000Z</time>
      </trkpt>
      <trkpt lat="43.34871" lon="5.66315">
        <ele>281</ele>
        <time>2019-01-18T14:51:29.000Z</time>
      </trkpt>
      <trkpt lat="43.34871" lon="5.66314">
        <ele>281</ele>
        <time>2019-01-18T14:51:30.000Z</time>
      </trkpt>
      <trkpt lat="43.34871" lon="5.66313">
        <ele>281</ele>
        <time>2019-01-18T14:51:31.000Z</time>
      </trkpt>
      <trkpt lat="43.34871" lon="5.66312">
        <ele>281</ele>
        <time>2019-01-18T14:51:32.000Z</time>
      </trkpt>
      <trkpt lat="43.34872" lon="5.66311">
        <ele>281</ele>
        <time>2019-01-18T14:51:33.000Z</time>
      </trkpt>
      <trkpt lat="43.34872" lon="5.6631">
        <ele>281</ele>
        <time>2019-01-18T14:51:34.000Z</time>
      </trkpt>
      <trkpt lat="43.34872" lon="5.66309">
        <ele>281</ele>
        <time>2019-01-18T14:51:35.000Z</time>
      </trkpt>
      <trkpt lat="43.34872" lon="5.66308">
        <ele>281</ele>
        <time>2019-01-18T14:51:36.000Z</time>
      </trkpt>
      <trkpt lat="43.34872" lon="5.66306">
        <ele>281</ele>
        <time>2019-01-18T14:51:37.000Z</time>
      </trkpt>
      <trkpt lat="43.34872" lon="5.66305">
        <ele>281</ele>
        <time>2019-01-18T14:51:38.000Z</time>
      </trkpt>
      <trkpt lat="43.34872" lon="5.66304">
        <ele>281</ele>
        <time>2019-01-18T14:51:39.000Z</time>
      </trkpt>
      <trkpt lat="43.34872" lon="5.66303">
        <ele>281</ele>
        <time>2019-01-18T14:51:40.000Z</time>
      </trkpt>
      <trkpt lat="43.34873" lon="5.66302">
        <ele>281</ele>
        <time>2019-01-18T14:51:41.000Z</time>
      </trkpt>
      <trkpt lat="43.34873" lon="5.66301">
        <ele>281</ele>
        <time>2019-01-18T14:51:42.000Z</time>
      </trkpt>
      <trkpt lat="43.34873" lon="5.663">
        <ele>281</ele>
        <time>2019-01-18T14:51:43.000Z</time>
      </trkpt>
      <trkpt lat="43.34873" lon="5.66299">
        <ele>281</ele>
        <time>2019-01-18T14:51:44.000Z</time>
      </trkpt>
      <trkpt lat="43.34873" lon="5.66298">
        <ele>281</ele>
        <time>2019-01-18T14:51:45.000Z</time>
      </trkpt>
      <trkpt lat="43.34874" lon="5.66297">
        <ele>281</ele>
        <time>2019-01-18T14:51:46.000Z</time>
      </trkpt>
      <trkpt lat="43.34874" lon="5.66296">
        <ele>281</ele>
        <time>2019-01-18T14:51:47.000Z</time>
      </trkpt>
      <trkpt lat="43.34874" lon="5.66294">
        <ele>281</ele>
        <time>2019-01-18T14:51:48.000Z</time>
      </trkpt>
      <trkpt lat="43.34875" lon="5.66293">
        <ele>281</ele>
        <time>2019-01-18T14:51:49.000Z</time>
      </trkpt>
      <trkpt lat="43.34875" lon="5.66292">
        <ele>281</ele>
        <time>2019-01-18T14:51:50.000Z</time>
      </trkpt>
      <trkpt lat="43.34876" lon="5.66291">
        <ele>281</ele>
        <time>2019-01-18T14:51:51.000Z</time>
      </trkpt>
      <trkpt lat="43.34876" lon="5.6629">
        <ele>281</ele>
        <time>2019-01-18T14:51:52.000Z</time>
      </trkpt>
      <trkpt lat="43.34876" lon="5.66289">
        <ele>281</ele>
        <time>2019-01-18T14:51:53.000Z</time>
      </trkpt>
      <trkpt lat="43.34877" lon="5.66287">
        <ele>281</ele>
        <time>2019-01-18T14:51:54.000Z</time>
      </trkpt>
      <trkpt lat="43.34877" lon="5.66286">
        <ele>281</ele>
        <time>2019-01-18T14:51:55.000Z</time>
      </trkpt>
      <trkpt lat="43.34878" lon="5.66285">
        <ele>281</ele>
        <time>2019-01-18T14:51:56.000Z</time>
      </trkpt>
      <trkpt lat="43.34878" lon="5.66283">
        <ele>281</ele>
        <time>2019-01-18T14:51:57.000Z</time>
      </trkpt>
      <trkpt lat="43.34879" lon="5.66282">
        <ele>281</ele>
        <time>2019-01-18T14:51:58.000Z</time>
      </trkpt>
      <trkpt lat="43.34879" lon="5.66281">
        <ele>281</ele>
        <time>2019-01-18T14:51:59.000Z</time>
      </trkpt>
      <trkpt lat="43.3488" lon="5.6628">
        <ele>281</ele>
        <time>2019-01-18T14:52:00.000Z</time>
      </trkpt>
      <trkpt lat="43.3488" lon="5.66279">
        <ele>281</ele>
        <time>2019-01-18T14:52:01.000Z</time>
      </trkpt>
      <trkpt lat="43.34881" lon="5.66278">
        <ele>281</ele>
        <time>2019-01-18T14:52:02.000Z</time>
      </trkpt>
      <trkpt lat="43.34882" lon="5.66276">
        <ele>282</ele>
        <time>2019-01-18T14:52:03.000Z</time>
      </trkpt>
      <trkpt lat="43.34883" lon="5.66275">
        <ele>282</ele>
        <time>2019-01-18T14:52:04.000Z</time>
      </trkpt>
      <trkpt lat="43.34884" lon="5.66274">
        <ele>282</ele>
        <time>2019-01-18T14:52:05.000Z</time>
      </trkpt>
      <trkpt lat="43.34885" lon="5.66274">
        <ele>282</ele>
        <time>2019-01-18T14:52:06.000Z</time>
      </trkpt>
      <trkpt lat="43.34886" lon="5.66273">
        <ele>282</ele>
        <time>2019-01-18T14:52:07.000Z</time>
      </trkpt>
      <trkpt lat="43.34886" lon="5.66272">
        <ele>282</ele>
        <time>2019-01-18T14:52:08.000Z</time>
      </trkpt>
      <trkpt lat="43.34887" lon="5.66271">
        <ele>282</ele>
        <time>2019-01-18T14:52:09.000Z</time>
      </trkpt>
      <trkpt lat="43.34888" lon="5.6627">
        <ele>283</ele>
        <time>2019-01-18T14:52:10.000Z</time>
      </trkpt>
      <trkpt lat="43.34888" lon="5.66269">
        <ele>283</ele>
        <time>2019-01-18T14:52:11.000Z</time>
      </trkpt>
      <trkpt lat="43.34889" lon="5.66268">
        <ele>283</ele>
        <time>2019-01-18T14:52:12.000Z</time>
      </trkpt>
      <trkpt lat="43.3489" lon="5.66267">
        <ele>283</ele>
        <time>2019-01-18T14:52:13.000Z</time>
      </trkpt>
      <trkpt lat="43.34891" lon="5.66266">
        <ele>283</ele>
        <time>2019-01-18T14:52:14.000Z</time>
      </trkpt>
      <trkpt lat="43.34891" lon="5.66265">
        <ele>283</ele>
        <time>2019-01-18T14:52:15.000Z</time>
      </trkpt>
      <trkpt lat="43.34892" lon="5.66264">
        <ele>283</ele>
        <time>2019-01-18T14:52:16.000Z</time>
      </trkpt>
      <trkpt lat="43.34893" lon="5.66263">
        <ele>283</ele>
        <time>2019-01-18T14:52:17.000Z</time>
      </trkpt>
      <trkpt lat="43.34893" lon="5.66262">
        <ele>283</ele>
        <time>2019-01-18T14:52:18.000Z</time>
      </trkpt>
      <trkpt lat="43.34894" lon="5.66261">
        <ele>284</ele>
        <time>2019-01-18T14:52:19.000Z</time>
      </trkpt>
      <trkpt lat="43.34895" lon="5.6626">
        <ele>284</ele>
        <time>2019-01-18T14:52:20.000Z</time>
      </trkpt>
      <trkpt lat="43.34896" lon="5.66259">
        <ele>284</ele>
        <time>2019-01-18T14:52:21.000Z</time>
      </trkpt>
      <trkpt lat="43.34896" lon="5.66258">
        <ele>284</ele>
        <time>2019-01-18T14:52:22.000Z</time>
      </trkpt>
      <trkpt lat="43.34897" lon="5.66258">
        <ele>284</ele>
        <time>2019-01-18T14:52:23.000Z</time>
      </trkpt>
      <trkpt lat="43.34898" lon="5.66257">
        <ele>284</ele>
        <time>2019-01-18T14:52:24.000Z</time>
      </trkpt>
      <trkpt lat="43.34898" lon="5.66256">
        <ele>284</ele>
        <time>2019-01-18T14:52:25.000Z</time>
      </trkpt>
      <trkpt lat="43.34899" lon="5.66255">
        <ele>284</ele>
        <time>2019-01-18T14:52:26.000Z</time>
      </trkpt>
      <trkpt lat="43.349" lon="5.66255">
        <ele>284</ele>
        <time>2019-01-18T14:52:27.000Z</time>
      </trkpt>
      <trkpt lat="43.349" lon="5.66254">
        <ele>285</ele>
        <time>2019-01-18T14:52:28.000Z</time>
      </trkpt>
      <trkpt lat="43.349" lon="5.66253">
        <ele>285</ele>
        <time>2019-01-18T14:52:29.000Z</time>
      </trkpt>
      <trkpt lat="43.34901" lon="5.66252">
        <ele>285</ele>
        <time>2019-01-18T14:52:30.000Z</time>
      </trkpt>
      <trkpt lat="43.349" lon="5.66251">
        <ele>285</ele>
        <time>2019-01-18T14:52:31.000Z</time>
      </trkpt>
      <trkpt lat="43.349" lon="5.6625">
        <ele>285</ele>
        <time>2019-01-18T14:52:32.000Z</time>
      </trkpt>
      <trkpt lat="43.349" lon="5.6625">
        <ele>285</ele>
        <time>2019-01-18T14:52:33.000Z</time>
      </trkpt>
      <trkpt lat="43.34899" lon="5.66249">
        <ele>285</ele>
        <time>2019-01-18T14:52:34.000Z</time>
      </trkpt>
      <trkpt lat="43.34899" lon="5.66249">
        <ele>285</ele>
        <time>2019-01-18T14:52:35.000Z</time>
      </trkpt>
      <trkpt lat="43.34898" lon="5.66248">
        <ele>285</ele>
        <time>2019-01-18T14:52:36.000Z</time>
      </trkpt>
      <trkpt lat="43.34897" lon="5.66248">
        <ele>285</ele>
        <time>2019-01-18T14:52:37.000Z</time>
      </trkpt>
      <trkpt lat="43.34897" lon="5.66248">
        <ele>285</ele>
        <time>2019-01-18T14:52:38.000Z</time>
      </trkpt>
      <trkpt lat="43.34896" lon="5.66248">
        <ele>285</ele>
        <time>2019-01-18T14:52:39.000Z</time>
      </trkpt>
      <trkpt lat="43.34895" lon="5.66248">
        <ele>285</ele>
        <time>2019-01-18T14:52:40.000Z</time>
      </trkpt>
      <trkpt lat="43.34895" lon="5.66248">
        <ele>285</ele>
        <time>2019-01-18T14:52:41.000Z</time>
      </trkpt>
      <trkpt lat="43.34895" lon="5.66248">
        <ele>285</ele>
        <time>2019-01-18T14:52:42.000Z</time>
      </trkpt>
      <trkpt lat="43.34895" lon="5.66248">
        <ele>285</ele>
        <time>2019-01-18T14:52:43.000Z</time>
      </trkpt>
      <trkpt lat="43.34894" lon="5.66248">
        <ele>285</ele>
        <time>2019-01-18T14:52:44.000Z</time>
      </trkpt>
      <trkpt lat="43.34893" lon="5.66248">
        <ele>285</ele>
        <time>2019-01-18T14:52:45.000Z</time>
      </trkpt>
      <trkpt lat="43.34892" lon="5.66248">
        <ele>285</ele>
        <time>2019-01-18T14:52:46.000Z</time>
      </trkpt>
      <trkpt lat="43.34891" lon="5.66247">
        <ele>285</ele>
        <time>2019-01-18T14:52:47.000Z</time>
      </trkpt>
      <trkpt lat="43.34889" lon="5.66247">
        <ele>285</ele>
        <time>2019-01-18T14:52:48.000Z</time>
      </trkpt>
      <trkpt lat="43.34888" lon="5.66246">
        <ele>285</ele>
        <time>2019-01-18T14:52:49.000Z</time>
      </trkpt>
      <trkpt lat="43.34887" lon="5.66246">
        <ele>286</ele>
        <time>2019-01-18T14:52:50.000Z</time>
      </trkpt>
      <trkpt lat="43.34886" lon="5.66245">
        <ele>286</ele>
        <time>2019-01-18T14:52:51.000Z</time>
      </trkpt>
      <trkpt lat="43.34886" lon="5.66244">
        <ele>286</ele>
        <time>2019-01-18T14:52:52.000Z</time>
      </trkpt>
      <trkpt lat="43.34885" lon="5.66244">
        <ele>286</ele>
        <time>2019-01-18T14:52:53.000Z</time>
      </trkpt>
      <trkpt lat="43.34884" lon="5.66243">
        <ele>286</ele>
        <time>2019-01-18T14:52:54.000Z</time>
      </trkpt>
      <trkpt lat="43.34883" lon="5.66242">
        <ele>286</ele>
        <time>2019-01-18T14:52:55.000Z</time>
      </trkpt>
      <trkpt lat="43.34882" lon="5.66242">
        <ele>286</ele>
        <time>2019-01-18T14:52:56.000Z</time>
      </trkpt>
      <trkpt lat="43.34881" lon="5.66241">
        <ele>286</ele>
        <time>2019-01-18T14:52:57.000Z</time>
      </trkpt>
      <trkpt lat="43.3488" lon="5.66241">
        <ele>286</ele>
        <time>2019-01-18T14:52:58.000Z</time>
      </trkpt>
      <trkpt lat="43.34879" lon="5.6624">
        <ele>286</ele>
        <time>2019-01-18T14:52:59.000Z</time>
      </trkpt>
      <trkpt lat="43.34878" lon="5.6624">
        <ele>286</ele>
        <time>2019-01-18T14:53:00.000Z</time>
      </trkpt>
      <trkpt lat="43.34878" lon="5.6624">
        <ele>287</ele>
        <time>2019-01-18T14:53:01.000Z</time>
      </trkpt>
      <trkpt lat="43.34878" lon="5.6624">
        <ele>287</ele>
        <time>2019-01-18T14:53:02.000Z</time>
      </trkpt>
      <trkpt lat="43.34878" lon="5.6624">
        <ele>287</ele>
        <time>2019-01-18T14:53:03.000Z</time>
      </trkpt>
      <trkpt lat="43.34878" lon="5.66239">
        <ele>287</ele>
        <time>2019-01-18T14:53:04.000Z</time>
      </trkpt>
      <trkpt lat="43.34878" lon="5.66239">
        <ele>286</ele>
        <time>2019-01-18T14:53:05.000Z</time>
      </trkpt>
      <trkpt lat="43.34877" lon="5.66239">
        <ele>287</ele>
        <time>2019-01-18T14:53:06.000Z</time>
      </trkpt>
      <trkpt lat="43.34877" lon="5.66238">
        <ele>287</ele>
        <time>2019-01-18T14:53:07.000Z</time>
      </trkpt>
      <trkpt lat="43.34876" lon="5.66237">
        <ele>287</ele>
        <time>2019-01-18T14:53:08.000Z</time>
      </trkpt>
      <trkpt lat="43.34875" lon="5.66237">
        <ele>287</ele>
        <time>2019-01-18T14:53:09.000Z</time>
      </trkpt>
      <trkpt lat="43.34874" lon="5.66236">
        <ele>287</ele>
        <time>2019-01-18T14:53:10.000Z</time>
      </trkpt>
      <trkpt lat="43.34874" lon="5.66235">
        <ele>287</ele>
        <time>2019-01-18T14:53:11.000Z</time>
      </trkpt>
      <trkpt lat="43.34873" lon="5.66234">
        <ele>287</ele>
        <time>2019-01-18T14:53:12.000Z</time>
      </trkpt>
      <trkpt lat="43.34872" lon="5.66233">
        <ele>287</ele>
        <time>2019-01-18T14:53:13.000Z</time>
      </trkpt>
      <trkpt lat="43.34872" lon="5.66232">
        <ele>287</ele>
        <time>2019-01-18T14:53:14.000Z</time>
      </trkpt>
      <trkpt lat="43.34871" lon="5.66232">
        <ele>287</ele>
        <time>2019-01-18T14:53:15.000Z</time>
      </trkpt>
      <trkpt lat="43.3487" lon="5.66231">
        <ele>287</ele>
        <time>2019-01-18T14:53:16.000Z</time>
      </trkpt>
      <trkpt lat="43.34869" lon="5.66231">
        <ele>287</ele>
        <time>2019-01-18T14:53:17.000Z</time>
      </trkpt>
      <trkpt lat="43.34869" lon="5.6623">
        <ele>287</ele>
        <time>2019-01-18T14:53:18.000Z</time>
      </trkpt>
      <trkpt lat="43.34868" lon="5.66229">
        <ele>287</ele>
        <time>2019-01-18T14:53:19.000Z</time>
      </trkpt>
      <trkpt lat="43.34867" lon="5.66228">
        <ele>287</ele>
        <time>2019-01-18T14:53:20.000Z</time>
      </trkpt>
      <trkpt lat="43.34866" lon="5.66227">
        <ele>287</ele>
        <time>2019-01-18T14:53:21.000Z</time>
      </trkpt>
      <trkpt lat="43.34865" lon="5.66226">
        <ele>287</ele>
        <time>2019-01-18T14:53:22.000Z</time>
      </trkpt>
      <trkpt lat="43.34864" lon="5.66225">
        <ele>287</ele>
        <time>2019-01-18T14:53:23.000Z</time>
      </trkpt>
      <trkpt lat="43.34863" lon="5.66224">
        <ele>287</ele>
        <time>2019-01-18T14:53:24.000Z</time>
      </trkpt>
      <trkpt lat="43.34863" lon="5.66223">
        <ele>287</ele>
        <time>2019-01-18T14:53:25.000Z</time>
      </trkpt>
      <trkpt lat="43.34862" lon="5.66223">
        <ele>287</ele>
        <time>2019-01-18T14:53:26.000Z</time>
      </trkpt>
      <trkpt lat="43.34861" lon="5.66222">
        <ele>287</ele>
        <time>2019-01-18T14:53:27.000Z</time>
      </trkpt>
      <trkpt lat="43.3486" lon="5.66221">
        <ele>287</ele>
        <time>2019-01-18T14:53:28.000Z</time>
      </trkpt>
      <trkpt lat="43.34859" lon="5.66221">
        <ele>286</ele>
        <time>2019-01-18T14:53:29.000Z</time>
      </trkpt>
      <trkpt lat="43.34858" lon="5.6622">
        <ele>286</ele>
        <time>2019-01-18T14:53:30.000Z</time>
      </trkpt>
      <trkpt lat="43.34857" lon="5.66219">
        <ele>286</ele>
        <time>2019-01-18T14:53:31.000Z</time>
      </trkpt>
      <trkpt lat="43.34857" lon="5.66219">
        <ele>286</ele>
        <time>2019-01-18T14:53:32.000Z</time>
      </trkpt>
      <trkpt lat="43.34856" lon="5.66218">
        <ele>286</ele>
        <time>2019-01-18T14:53:33.000Z</time>
      </trkpt>
      <trkpt lat="43.34855" lon="5.66217">
        <ele>286</ele>
        <time>2019-01-18T14:53:34.000Z</time>
      </trkpt>
      <trkpt lat="43.34855" lon="5.66216">
        <ele>287</ele>
        <time>2019-01-18T14:53:35.000Z</time>
      </trkpt>
      <trkpt lat="43.34854" lon="5.66215">
        <ele>287</ele>
        <time>2019-01-18T14:53:36.000Z</time>
      </trkpt>
      <trkpt lat="43.34853" lon="5.66214">
        <ele>287</ele>
        <time>2019-01-18T14:53:37.000Z</time>
      </trkpt>
      <trkpt lat="43.34852" lon="5.66213">
        <ele>287</ele>
        <time>2019-01-18T14:53:38.000Z</time>
      </trkpt>
      <trkpt lat="43.34851" lon="5.66213">
        <ele>287</ele>
        <time>2019-01-18T14:53:39.000Z</time>
      </trkpt>
      <trkpt lat="43.3485" lon="5.66212">
        <ele>287</ele>
        <time>2019-01-18T14:53:40.000Z</time>
      </trkpt>
      <trkpt lat="43.34849" lon="5.6621">
        <ele>287</ele>
        <time>2019-01-18T14:53:41.000Z</time>
      </trkpt>
      <trkpt lat="43.34849" lon="5.66209">
        <ele>287</ele>
        <time>2019-01-18T14:53:42.000Z</time>
      </trkpt>
      <trkpt lat="43.34848" lon="5.66208">
        <ele>287</ele>
        <time>2019-01-18T14:53:43.000Z</time>
      </trkpt>
      <trkpt lat="43.34847" lon="5.66208">
        <ele>287</ele>
        <time>2019-01-18T14:53:44.000Z</time>
      </trkpt>
      <trkpt lat="43.34847" lon="5.66207">
        <ele>287</ele>
        <time>2019-01-18T14:53:45.000Z</time>
      </trkpt>
      <trkpt lat="43.34846" lon="5.66206">
        <ele>287</ele>
        <time>2019-01-18T14:53:46.000Z</time>
      </trkpt>
      <trkpt lat="43.34845" lon="5.66205">
        <ele>287</ele>
        <time>2019-01-18T14:53:47.000Z</time>
      </trkpt>
      <trkpt lat="43.34844" lon="5.66204">
        <ele>287</ele>
        <time>2019-01-18T14:53:48.000Z</time>
      </trkpt>
      <trkpt lat="43.34843" lon="5.66203">
        <ele>287</ele>
        <time>2019-01-18T14:53:49.000Z</time>
      </trkpt>
      <trkpt lat="43.34842" lon="5.66202">
        <ele>287</ele>
        <time>2019-01-18T14:53:50.000Z</time>
      </trkpt>
      <trkpt lat="43.34841" lon="5.66201">
        <ele>287</ele>
        <time>2019-01-18T14:53:51.000Z</time>
      </trkpt>
      <trkpt lat="43.34841" lon="5.66201">
        <ele>287</ele>
        <time>2019-01-18T14:53:52.000Z</time>
      </trkpt>
      <trkpt lat="43.3484" lon="5.662">
        <ele>288</ele>
        <time>2019-01-18T14:53:53.000Z</time>
      </trkpt>
      <trkpt lat="43.34839" lon="5.66199">
        <ele>288</ele>
        <time>2019-01-18T14:53:54.000Z</time>
      </trkpt>
      <trkpt lat="43.34838" lon="5.66198">
        <ele>288</ele>
        <time>2019-01-18T14:53:55.000Z</time>
      </trkpt>
      <trkpt lat="43.34837" lon="5.66198">
        <ele>288</ele>
        <time>2019-01-18T14:53:56.000Z</time>
      </trkpt>
      <trkpt lat="43.34836" lon="5.66197">
        <ele>288</ele>
        <time>2019-01-18T14:53:57.000Z</time>
      </trkpt>
      <trkpt lat="43.34835" lon="5.66196">
        <ele>288</ele>
        <time>2019-01-18T14:53:58.000Z</time>
      </trkpt>
      <trkpt lat="43.34834" lon="5.66196">
        <ele>289</ele>
        <time>2019-01-18T14:53:59.000Z</time>
      </trkpt>
      <trkpt lat="43.34834" lon="5.66195">
        <ele>289</ele>
        <time>2019-01-18T14:54:00.000Z</time>
      </trkpt>
      <trkpt lat="43.34833" lon="5.66194">
        <ele>289</ele>
        <time>2019-01-18T14:54:01.000Z</time>
      </trkpt>
      <trkpt lat="43.34832" lon="5.66193">
        <ele>289</ele>
        <time>2019-01-18T14:54:02.000Z</time>
      </trkpt>
      <trkpt lat="43.34832" lon="5.66192">
        <ele>289</ele>
        <time>2019-01-18T14:54:03.000Z</time>
      </trkpt>
      <trkpt lat="43.34831" lon="5.66191">
        <ele>289</ele>
        <time>2019-01-18T14:54:04.000Z</time>
      </trkpt>
      <trkpt lat="43.3483" lon="5.6619">
        <ele>289</ele>
        <time>2019-01-18T14:54:05.000Z</time>
      </trkpt>
      <trkpt lat="43.34829" lon="5.6619">
        <ele>289</ele>
        <time>2019-01-18T14:54:06.000Z</time>
      </trkpt>
      <trkpt lat="43.34828" lon="5.6619">
        <ele>289</ele>
        <time>2019-01-18T14:54:07.000Z</time>
      </trkpt>
      <trkpt lat="43.34828" lon="5.66189">
        <ele>289</ele>
        <time>2019-01-18T14:54:08.000Z</time>
      </trkpt>
      <trkpt lat="43.34827" lon="5.66189">
        <ele>289</ele>
        <time>2019-01-18T14:54:09.000Z</time>
      </trkpt>
      <trkpt lat="43.34826" lon="5.66188">
        <ele>289</ele>
        <time>2019-01-18T14:54:10.000Z</time>
      </trkpt>
      <trkpt lat="43.34825" lon="5.66187">
        <ele>290</ele>
        <time>2019-01-18T14:54:11.000Z</time>
      </trkpt>
      <trkpt lat="43.34824" lon="5.66186">
        <ele>290</ele>
        <time>2019-01-18T14:54:12.000Z</time>
      </trkpt>
      <trkpt lat="43.34823" lon="5.66185">
        <ele>290</ele>
        <time>2019-01-18T14:54:13.000Z</time>
      </trkpt>
      <trkpt lat="43.34823" lon="5.66184">
        <ele>290</ele>
        <time>2019-01-18T14:54:14.000Z</time>
      </trkpt>
      <trkpt lat="43.34822" lon="5.66183">
        <ele>290</ele>
        <time>2019-01-18T14:54:15.000Z</time>
      </trkpt>
      <trkpt lat="43.34822" lon="5.66183">
        <ele>290</ele>
        <time>2019-01-18T14:54:16.000Z</time>
      </trkpt>
      <trkpt lat="43.34821" lon="5.66182">
        <ele>291</ele>
        <time>2019-01-18T14:54:17.000Z</time>
      </trkpt>
      <trkpt lat="43.34821" lon="5.66181">
        <ele>291</ele>
        <time>2019-01-18T14:54:18.000Z</time>
      </trkpt>
      <trkpt lat="43.3482" lon="5.6618">
        <ele>291</ele>
        <time>2019-01-18T14:54:19.000Z</time>
      </trkpt>
      <trkpt lat="43.3482" lon="5.66179">
        <ele>291</ele>
        <time>2019-01-18T14:54:20.000Z</time>
      </trkpt>
      <trkpt lat="43.3482" lon="5.66178">
        <ele>291</ele>
        <time>2019-01-18T14:54:21.000Z</time>
      </trkpt>
      <trkpt lat="43.34819" lon="5.66177">
        <ele>291</ele>
        <time>2019-01-18T14:54:22.000Z</time>
      </trkpt>
      <trkpt lat="43.34819" lon="5.66176">
        <ele>291</ele>
        <time>2019-01-18T14:54:23.000Z</time>
      </trkpt>
      <trkpt lat="43.34818" lon="5.66175">
        <ele>291</ele>
        <time>2019-01-18T14:54:24.000Z</time>
      </trkpt>
      <trkpt lat="43.34818" lon="5.66173">
        <ele>291</ele>
        <time>2019-01-18T14:54:25.000Z</time>
      </trkpt>
      <trkpt lat="43.34818" lon="5.66172">
        <ele>291</ele>
        <time>2019-01-18T14:54:26.000Z</time>
      </trkpt>
      <trkpt lat="43.34818" lon="5.66171">
        <ele>291</ele>
        <time>2019-01-18T14:54:27.000Z</time>
      </trkpt>
      <trkpt lat="43.34818" lon="5.6617">
        <ele>291</ele>
        <time>2019-01-18T14:54:28.000Z</time>
      </trkpt>
      <trkpt lat="43.34817" lon="5.66168">
        <ele>291</ele>
        <time>2019-01-18T14:54:29.000Z</time>
      </trkpt>
      <trkpt lat="43.34817" lon="5.66167">
        <ele>291</ele>
        <time>2019-01-18T14:54:30.000Z</time>
      </trkpt>
      <trkpt lat="43.34817" lon="5.66166">
        <ele>291</ele>
        <time>2019-01-18T14:54:31.000Z</time>
      </trkpt>
      <trkpt lat="43.34816" lon="5.66165">
        <ele>291</ele>
        <time>2019-01-18T14:54:32.000Z</time>
      </trkpt>
      <trkpt lat="43.34816" lon="5.66163">
        <ele>291</ele>
        <time>2019-01-18T14:54:33.000Z</time>
      </trkpt>
      <trkpt lat="43.34815" lon="5.66162">
        <ele>291</ele>
        <time>2019-01-18T14:54:34.000Z</time>
      </trkpt>
      <trkpt lat="43.34815" lon="5.66161">
        <ele>291</ele>
        <time>2019-01-18T14:54:35.000Z</time>
      </trkpt>
      <trkpt lat="43.34815" lon="5.6616">
        <ele>291</ele>
        <time>2019-01-18T14:54:36.000Z</time>
      </trkpt>
      <trkpt lat="43.34815" lon="5.66159">
        <ele>291</ele>
        <time>2019-01-18T14:54:37.000Z</time>
      </trkpt>
      <trkpt lat="43.34814" lon="5.66158">
        <ele>291</ele>
        <time>2019-01-18T14:54:38.000Z</time>
      </trkpt>
      <trkpt lat="43.34814" lon="5.66157">
        <ele>292</ele>
        <time>2019-01-18T14:54:39.000Z</time>
      </trkpt>
      <trkpt lat="43.34814" lon="5.66155">
        <ele>292</ele>
        <time>2019-01-18T14:54:40.000Z</time>
      </trkpt>
      <trkpt lat="43.34813" lon="5.66154">
        <ele>292</ele>
        <time>2019-01-18T14:54:41.000Z</time>
      </trkpt>
      <trkpt lat="43.34813" lon="5.66153">
        <ele>292</ele>
        <time>2019-01-18T14:54:42.000Z</time>
      </trkpt>
      <trkpt lat="43.34813" lon="5.66152">
        <ele>292</ele>
        <time>2019-01-18T14:54:43.000Z</time>
      </trkpt>
      <trkpt lat="43.34812" lon="5.66151">
        <ele>292</ele>
        <time>2019-01-18T14:54:44.000Z</time>
      </trkpt>
      <trkpt lat="43.34812" lon="5.6615">
        <ele>292</ele>
        <time>2019-01-18T14:54:45.000Z</time>
      </trkpt>
      <trkpt lat="43.34812" lon="5.66149">
        <ele>292</ele>
        <time>2019-01-18T14:54:46.000Z</time>
      </trkpt>
      <trkpt lat="43.34811" lon="5.66147">
        <ele>292</ele>
        <time>2019-01-18T14:54:47.000Z</time>
      </trkpt>
      <trkpt lat="43.34811" lon="5.66146">
        <ele>292</ele>
        <time>2019-01-18T14:54:48.000Z</time>
      </trkpt>
      <trkpt lat="43.3481" lon="5.66145">
        <ele>292</ele>
        <time>2019-01-18T14:54:49.000Z</time>
      </trkpt>
      <trkpt lat="43.3481" lon="5.66144">
        <ele>292</ele>
        <time>2019-01-18T14:54:50.000Z</time>
      </trkpt>
      <trkpt lat="43.3481" lon="5.66142">
        <ele>292</ele>
        <time>2019-01-18T14:54:51.000Z</time>
      </trkpt>
      <trkpt lat="43.34809" lon="5.66141">
        <ele>291</ele>
        <time>2019-01-18T14:54:52.000Z</time>
      </trkpt>
      <trkpt lat="43.34809" lon="5.6614">
        <ele>291</ele>
        <time>2019-01-18T14:54:53.000Z</time>
      </trkpt>
      <trkpt lat="43.34808" lon="5.66139">
        <ele>291</ele>
        <time>2019-01-18T14:54:54.000Z</time>
      </trkpt>
      <trkpt lat="43.34808" lon="5.66138">
        <ele>291</ele>
        <time>2019-01-18T14:54:55.000Z</time>
      </trkpt>
      <trkpt lat="43.34808" lon="5.66137">
        <ele>291</ele>
        <time>2019-01-18T14:54:56.000Z</time>
      </trkpt>
      <trkpt lat="43.34807" lon="5.66136">
        <ele>291</ele>
        <time>2019-01-18T14:54:57.000Z</time>
      </trkpt>
      <trkpt lat="43.34807" lon="5.66134">
        <ele>291</ele>
        <time>2019-01-18T14:54:58.000Z</time>
      </trkpt>
      <trkpt lat="43.34807" lon="5.66133">
        <ele>291</ele>
        <time>2019-01-18T14:54:59.000Z</time>
      </trkpt>
      <trkpt lat="43.34807" lon="5.66132">
        <ele>291</ele>
        <time>2019-01-18T14:55:00.000Z</time>
      </trkpt>
      <trkpt lat="43.34807" lon="5.6613">
        <ele>291</ele>
        <time>2019-01-18T14:55:01.000Z</time>
      </trkpt>
      <trkpt lat="43.34807" lon="5.6613">
        <ele>291</ele>
        <time>2019-01-18T14:55:02.000Z</time>
      </trkpt>
      <trkpt lat="43.34807" lon="5.66129">
        <ele>291</ele>
        <time>2019-01-18T14:55:03.000Z</time>
      </trkpt>
      <trkpt lat="43.34806" lon="5.66129">
        <ele>291</ele>
        <time>2019-01-18T14:55:04.000Z</time>
      </trkpt>
      <trkpt lat="43.34806" lon="5.66129">
        <ele>291</ele>
        <time>2019-01-18T14:55:05.000Z</time>
      </trkpt>
      <trkpt lat="43.34806" lon="5.66129">
        <ele>291</ele>
        <time>2019-01-18T14:55:06.000Z</time>
      </trkpt>
      <trkpt lat="43.34806" lon="5.66128">
        <ele>291</ele>
        <time>2019-01-18T14:55:07.000Z</time>
      </trkpt>
      <trkpt lat="43.34806" lon="5.66128">
        <ele>291</ele>
        <time>2019-01-18T14:55:08.000Z</time>
      </trkpt>
      <trkpt lat="43.34806" lon="5.66128">
        <ele>291</ele>
        <time>2019-01-18T14:55:09.000Z</time>
      </trkpt>
      <trkpt lat="43.34806" lon="5.66127">
        <ele>291</ele>
        <time>2019-01-18T14:55:10.000Z</time>
      </trkpt>
      <trkpt lat="43.34806" lon="5.66126">
        <ele>291</ele>
        <time>2019-01-18T14:55:11.000Z</time>
      </trkpt>
      <trkpt lat="43.34806" lon="5.66125">
        <ele>291</ele>
        <time>2019-01-18T14:55:12.000Z</time>
      </trkpt>
      <trkpt lat="43.34806" lon="5.66125">
        <ele>291</ele>
        <time>2019-01-18T14:55:13.000Z</time>
      </trkpt>
      <trkpt lat="43.34805" lon="5.66124">
        <ele>291</ele>
        <time>2019-01-18T14:55:14.000Z</time>
      </trkpt>
      <trkpt lat="43.34805" lon="5.66122">
        <ele>291</ele>
        <time>2019-01-18T14:55:15.000Z</time>
      </trkpt>
      <trkpt lat="43.34805" lon="5.66121">
        <ele>291</ele>
        <time>2019-01-18T14:55:16.000Z</time>
      </trkpt>
      <trkpt lat="43.34805" lon="5.6612">
        <ele>291</ele>
        <time>2019-01-18T14:55:17.000Z</time>
      </trkpt>
      <trkpt lat="43.34804" lon="5.66119">
        <ele>291</ele>
        <time>2019-01-18T14:55:18.000Z</time>
      </trkpt>
      <trkpt lat="43.34803" lon="5.66118">
        <ele>291</ele>
        <time>2019-01-18T14:55:19.000Z</time>
      </trkpt>
      <trkpt lat="43.34803" lon="5.66117">
        <ele>291</ele>
        <time>2019-01-18T14:55:20.000Z</time>
      </trkpt>
      <trkpt lat="43.34802" lon="5.66116">
        <ele>291</ele>
        <time>2019-01-18T14:55:21.000Z</time>
      </trkpt>
      <trkpt lat="43.34802" lon="5.66115">
        <ele>291</ele>
        <time>2019-01-18T14:55:22.000Z</time>
      </trkpt>
      <trkpt lat="43.34801" lon="5.66113">
        <ele>291</ele>
        <time>2019-01-18T14:55:23.000Z</time>
      </trkpt>
      <trkpt lat="43.348" lon="5.66112">
        <ele>291</ele>
        <time>2019-01-18T14:55:24.000Z</time>
      </trkpt>
      <trkpt lat="43.348" lon="5.66111">
        <ele>290</ele>
        <time>2019-01-18T14:55:25.000Z</time>
      </trkpt>
      <trkpt lat="43.348" lon="5.6611">
        <ele>290</ele>
        <time>2019-01-18T14:55:26.000Z</time>
      </trkpt>
      <trkpt lat="43.34799" lon="5.66109">
        <ele>290</ele>
        <time>2019-01-18T14:55:27.000Z</time>
      </trkpt>
      <trkpt lat="43.34799" lon="5.66108">
        <ele>290</ele>
        <time>2019-01-18T14:55:28.000Z</time>
      </trkpt>
      <trkpt lat="43.34799" lon="5.66107">
        <ele>290</ele>
        <time>2019-01-18T14:55:29.000Z</time>
      </trkpt>
      <trkpt lat="43.34798" lon="5.66105">
        <ele>289</ele>
        <time>2019-01-18T14:55:30.000Z</time>
      </trkpt>
      <trkpt lat="43.34798" lon="5.66104">
        <ele>289</ele>
        <time>2019-01-18T14:55:31.000Z</time>
      </trkpt>
      <trkpt lat="43.34797" lon="5.66103">
        <ele>289</ele>
        <time>2019-01-18T14:55:32.000Z</time>
      </trkpt>
      <trkpt lat="43.34797" lon="5.66102">
        <ele>289</ele>
        <time>2019-01-18T14:55:33.000Z</time>
      </trkpt>
      <trkpt lat="43.34796" lon="5.66101">
        <ele>289</ele>
        <time>2019-01-18T14:55:34.000Z</time>
      </trkpt>
      <trkpt lat="43.34796" lon="5.661">
        <ele>288</ele>
        <time>2019-01-18T14:55:35.000Z</time>
      </trkpt>
      <trkpt lat="43.34795" lon="5.66098">
        <ele>288</ele>
        <time>2019-01-18T14:55:36.000Z</time>
      </trkpt>
      <trkpt lat="43.34795" lon="5.66097">
        <ele>288</ele>
        <time>2019-01-18T14:55:37.000Z</time>
      </trkpt>
      <trkpt lat="43.34795" lon="5.66096">
        <ele>288</ele>
        <time>2019-01-18T14:55:38.000Z</time>
      </trkpt>
      <trkpt lat="43.34794" lon="5.66095">
        <ele>288</ele>
        <time>2019-01-18T14:55:39.000Z</time>
      </trkpt>
      <trkpt lat="43.34794" lon="5.66094">
        <ele>287</ele>
        <time>2019-01-18T14:55:40.000Z</time>
      </trkpt>
      <trkpt lat="43.34794" lon="5.66093">
        <ele>287</ele>
        <time>2019-01-18T14:55:41.000Z</time>
      </trkpt>
      <trkpt lat="43.34794" lon="5.66092">
        <ele>287</ele>
        <time>2019-01-18T14:55:42.000Z</time>
      </trkpt>
      <trkpt lat="43.34794" lon="5.66091">
        <ele>287</ele>
        <time>2019-01-18T14:55:43.000Z</time>
      </trkpt>
      <trkpt lat="43.34794" lon="5.66091">
        <ele>287</ele>
        <time>2019-01-18T14:55:44.000Z</time>
      </trkpt>
      <trkpt lat="43.34794" lon="5.6609">
        <ele>287</ele>
        <time>2019-01-18T14:55:45.000Z</time>
      </trkpt>
      <trkpt lat="43.34794" lon="5.6609">
        <ele>287</ele>
        <time>2019-01-18T14:55:46.000Z</time>
      </trkpt>
      <trkpt lat="43.34794" lon="5.6609">
        <ele>287</ele>
        <time>2019-01-18T14:55:47.000Z</time>
      </trkpt>
      <trkpt lat="43.34794" lon="5.6609">
        <ele>287</ele>
        <time>2019-01-18T14:55:48.000Z</time>
      </trkpt>
      <trkpt lat="43.34794" lon="5.6609">
        <ele>287</ele>
        <time>2019-01-18T14:55:49.000Z</time>
      </trkpt>
      <trkpt lat="43.34793" lon="5.6609">
        <ele>287</ele>
        <time>2019-01-18T14:55:50.000Z</time>
      </trkpt>
      <trkpt lat="43.34793" lon="5.6609">
        <ele>287</ele>
        <time>2019-01-18T14:55:51.000Z</time>
      </trkpt>
      <trkpt lat="43.34793" lon="5.66089">
        <ele>287</ele>
        <time>2019-01-18T14:55:52.000Z</time>
      </trkpt>
      <trkpt lat="43.34793" lon="5.66088">
        <ele>286</ele>
        <time>2019-01-18T14:55:53.000Z</time>
      </trkpt>
      <trkpt lat="43.34793" lon="5.66087">
        <ele>286</ele>
        <time>2019-01-18T14:55:54.000Z</time>
      </trkpt>
      <trkpt lat="43.34793" lon="5.66086">
        <ele>286</ele>
        <time>2019-01-18T14:55:55.000Z</time>
      </trkpt>
      <trkpt lat="43.34793" lon="5.66085">
        <ele>286</ele>
        <time>2019-01-18T14:55:56.000Z</time>
      </trkpt>
      <trkpt lat="43.34793" lon="5.66084">
        <ele>286</ele>
        <time>2019-01-18T14:55:57.000Z</time>
      </trkpt>
      <trkpt lat="43.34793" lon="5.66083">
        <ele>285</ele>
        <time>2019-01-18T14:55:58.000Z</time>
      </trkpt>
      <trkpt lat="43.34793" lon="5.66081">
        <ele>285</ele>
        <time>2019-01-18T14:55:59.000Z</time>
      </trkpt>
      <trkpt lat="43.34793" lon="5.6608">
        <ele>285</ele>
        <time>2019-01-18T14:56:00.000Z</time>
      </trkpt>
      <trkpt lat="43.34792" lon="5.66079">
        <ele>285</ele>
        <time>2019-01-18T14:56:01.000Z</time>
      </trkpt>
      <trkpt lat="43.34792" lon="5.66077">
        <ele>285</ele>
        <time>2019-01-18T14:56:02.000Z</time>
      </trkpt>
      <trkpt lat="43.34792" lon="5.66076">
        <ele>285</ele>
        <time>2019-01-18T14:56:03.000Z</time>
      </trkpt>
      <trkpt lat="43.34792" lon="5.66075">
        <ele>284</ele>
        <time>2019-01-18T14:56:04.000Z</time>
      </trkpt>
      <trkpt lat="43.34791" lon="5.66073">
        <ele>284</ele>
        <time>2019-01-18T14:56:05.000Z</time>
      </trkpt>
      <trkpt lat="43.34791" lon="5.66072">
        <ele>284</ele>
        <time>2019-01-18T14:56:06.000Z</time>
      </trkpt>
      <trkpt lat="43.34791" lon="5.6607">
        <ele>284</ele>
        <time>2019-01-18T14:56:07.000Z</time>
      </trkpt>
      <trkpt lat="43.34791" lon="5.66069">
        <ele>284</ele>
        <time>2019-01-18T14:56:08.000Z</time>
      </trkpt>
      <trkpt lat="43.3479" lon="5.66068">
        <ele>284</ele>
        <time>2019-01-18T14:56:09.000Z</time>
      </trkpt>
      <trkpt lat="43.3479" lon="5.66066">
        <ele>284</ele>
        <time>2019-01-18T14:56:10.000Z</time>
      </trkpt>
      <trkpt lat="43.3479" lon="5.66065">
        <ele>284</ele>
        <time>2019-01-18T14:56:11.000Z</time>
      </trkpt>
      <trkpt lat="43.34789" lon="5.66064">
        <ele>284</ele>
        <time>2019-01-18T14:56:12.000Z</time>
      </trkpt>
      <trkpt lat="43.34789" lon="5.66063">
        <ele>283</ele>
        <time>2019-01-18T14:56:13.000Z</time>
      </trkpt>
      <trkpt lat="43.34789" lon="5.66061">
        <ele>283</ele>
        <time>2019-01-18T14:56:14.000Z</time>
      </trkpt>
      <trkpt lat="43.34789" lon="5.6606">
        <ele>283</ele>
        <time>2019-01-18T14:56:15.000Z</time>
      </trkpt>
      <trkpt lat="43.34789" lon="5.6606">
        <ele>283</ele>
        <time>2019-01-18T14:56:16.000Z</time>
      </trkpt>
      <trkpt lat="43.34789" lon="5.66059">
        <ele>283</ele>
        <time>2019-01-18T14:56:17.000Z</time>
      </trkpt>
      <trkpt lat="43.34789" lon="5.66058">
        <ele>283</ele>
        <time>2019-01-18T14:56:18.000Z</time>
      </trkpt>
      <trkpt lat="43.34789" lon="5.66057">
        <ele>283</ele>
        <time>2019-01-18T14:56:19.000Z</time>
      </trkpt>
      <trkpt lat="43.34788" lon="5.66056">
        <ele>283</ele>
        <time>2019-01-18T14:56:20.000Z</time>
      </trkpt>
      <trkpt lat="43.34788" lon="5.66055">
        <ele>283</ele>
        <time>2019-01-18T14:56:21.000Z</time>
      </trkpt>
      <trkpt lat="43.34788" lon="5.66054">
        <ele>284</ele>
        <time>2019-01-18T14:56:22.000Z</time>
      </trkpt>
      <trkpt lat="43.34789" lon="5.66053">
        <ele>284</ele>
        <time>2019-01-18T14:56:23.000Z</time>
      </trkpt>
      <trkpt lat="43.34789" lon="5.66052">
        <ele>283</ele>
        <time>2019-01-18T14:56:24.000Z</time>
      </trkpt>
      <trkpt lat="43.34789" lon="5.66051">
        <ele>283</ele>
        <time>2019-01-18T14:56:25.000Z</time>
      </trkpt>
      <trkpt lat="43.34788" lon="5.66049">
        <ele>283</ele>
        <time>2019-01-18T14:56:26.000Z</time>
      </trkpt>
      <trkpt lat="43.34788" lon="5.66048">
        <ele>283</ele>
        <time>2019-01-18T14:56:27.000Z</time>
      </trkpt>
      <trkpt lat="43.34788" lon="5.66046">
        <ele>283</ele>
        <time>2019-01-18T14:56:28.000Z</time>
      </trkpt>
      <trkpt lat="43.34788" lon="5.66045">
        <ele>283</ele>
        <time>2019-01-18T14:56:29.000Z</time>
      </trkpt>
      <trkpt lat="43.34788" lon="5.66044">
        <ele>282</ele>
        <time>2019-01-18T14:56:30.000Z</time>
      </trkpt>
      <trkpt lat="43.34789" lon="5.66044">
        <ele>282</ele>
        <time>2019-01-18T14:56:31.000Z</time>
      </trkpt>
      <trkpt lat="43.34789" lon="5.66043">
        <ele>282</ele>
        <time>2019-01-18T14:56:32.000Z</time>
      </trkpt>
      <trkpt lat="43.3479" lon="5.66042">
        <ele>282</ele>
        <time>2019-01-18T14:56:33.000Z</time>
      </trkpt>
      <trkpt lat="43.3479" lon="5.66041">
        <ele>281</ele>
        <time>2019-01-18T14:56:34.000Z</time>
      </trkpt>
      <trkpt lat="43.34791" lon="5.6604">
        <ele>281</ele>
        <time>2019-01-18T14:56:35.000Z</time>
      </trkpt>
      <trkpt lat="43.34791" lon="5.6604">
        <ele>281</ele>
        <time>2019-01-18T14:56:36.000Z</time>
      </trkpt>
      <trkpt lat="43.34792" lon="5.66039">
        <ele>280</ele>
        <time>2019-01-18T14:56:37.000Z</time>
      </trkpt>
      <trkpt lat="43.34793" lon="5.66038">
        <ele>280</ele>
        <time>2019-01-18T14:56:38.000Z</time>
      </trkpt>
      <trkpt lat="43.34794" lon="5.66037">
        <ele>280</ele>
        <time>2019-01-18T14:56:39.000Z</time>
      </trkpt>
      <trkpt lat="43.34795" lon="5.66036">
        <ele>280</ele>
        <time>2019-01-18T14:56:40.000Z</time>
      </trkpt>
      <trkpt lat="43.34796" lon="5.66035">
        <ele>279</ele>
        <time>2019-01-18T14:56:41.000Z</time>
      </trkpt>
      <trkpt lat="43.34796" lon="5.66035">
        <ele>279</ele>
        <time>2019-01-18T14:56:42.000Z</time>
      </trkpt>
      <trkpt lat="43.34797" lon="5.66034">
        <ele>279</ele>
        <time>2019-01-18T14:56:43.000Z</time>
      </trkpt>
      <trkpt lat="43.34798" lon="5.66033">
        <ele>279</ele>
        <time>2019-01-18T14:56:44.000Z</time>
      </trkpt>
      <trkpt lat="43.34799" lon="5.66032">
        <ele>279</ele>
        <time>2019-01-18T14:56:45.000Z</time>
      </trkpt>
      <trkpt lat="43.34799" lon="5.66032">
        <ele>279</ele>
        <time>2019-01-18T14:56:46.000Z</time>
      </trkpt>
      <trkpt lat="43.34799" lon="5.66031">
        <ele>279</ele>
        <time>2019-01-18T14:56:47.000Z</time>
      </trkpt>
      <trkpt lat="43.348" lon="5.66029">
        <ele>279</ele>
        <time>2019-01-18T14:56:48.000Z</time>
      </trkpt>
      <trkpt lat="43.34801" lon="5.66028">
        <ele>279</ele>
        <time>2019-01-18T14:56:49.000Z</time>
      </trkpt>
      <trkpt lat="43.34802" lon="5.66027">
        <ele>278</ele>
        <time>2019-01-18T14:56:50.000Z</time>
      </trkpt>
      <trkpt lat="43.34802" lon="5.66027">
        <ele>278</ele>
        <time>2019-01-18T14:56:51.000Z</time>
      </trkpt>
      <trkpt lat="43.34803" lon="5.66027">
        <ele>278</ele>
        <time>2019-01-18T14:56:52.000Z</time>
      </trkpt>
      <trkpt lat="43.34804" lon="5.66026">
        <ele>277</ele>
        <time>2019-01-18T14:56:53.000Z</time>
      </trkpt>
      <trkpt lat="43.34805" lon="5.66026">
        <ele>277</ele>
        <time>2019-01-18T14:56:54.000Z</time>
      </trkpt>
      <trkpt lat="43.34806" lon="5.66026">
        <ele>277</ele>
        <time>2019-01-18T14:56:55.000Z</time>
      </trkpt>
      <trkpt lat="43.34807" lon="5.66026">
        <ele>277</ele>
        <time>2019-01-18T14:56:56.000Z</time>
      </trkpt>
      <trkpt lat="43.34807" lon="5.66026">
        <ele>277</ele>
        <time>2019-01-18T14:56:57.000Z</time>
      </trkpt>
      <trkpt lat="43.34808" lon="5.66026">
        <ele>277</ele>
        <time>2019-01-18T14:56:58.000Z</time>
      </trkpt>
      <trkpt lat="43.34808" lon="5.66026">
        <ele>277</ele>
        <time>2019-01-18T14:56:59.000Z</time>
      </trkpt>
      <trkpt lat="43.34809" lon="5.66026">
        <ele>276</ele>
        <time>2019-01-18T14:57:00.000Z</time>
      </trkpt>
      <trkpt lat="43.34809" lon="5.66026">
        <ele>276</ele>
        <time>2019-01-18T14:57:01.000Z</time>
      </trkpt>
      <trkpt lat="43.3481" lon="5.66026">
        <ele>276</ele>
        <time>2019-01-18T14:57:02.000Z</time>
      </trkpt>
      <trkpt lat="43.3481" lon="5.66026">
        <ele>276</ele>
        <time>2019-01-18T14:57:03.000Z</time>
      </trkpt>
      <trkpt lat="43.34811" lon="5.66026">
        <ele>276</ele>
        <time>2019-01-18T14:57:04.000Z</time>
      </trkpt>
      <trkpt lat="43.34811" lon="5.66026">
        <ele>276</ele>
        <time>2019-01-18T14:57:05.000Z</time>
      </trkpt>
      <trkpt lat="43.34812" lon="5.66026">
        <ele>276</ele>
        <time>2019-01-18T14:57:06.000Z</time>
      </trkpt>
      <trkpt lat="43.34812" lon="5.66026">
        <ele>276</ele>
        <time>2019-01-18T14:57:07.000Z</time>
      </trkpt>
      <trkpt lat="43.34813" lon="5.66025">
        <ele>276</ele>
        <time>2019-01-18T14:57:08.000Z</time>
      </trkpt>
      <trkpt lat="43.34813" lon="5.66025">
        <ele>276</ele>
        <time>2019-01-18T14:57:09.000Z</time>
      </trkpt>
      <trkpt lat="43.34814" lon="5.66025">
        <ele>276</ele>
        <time>2019-01-18T14:57:10.000Z</time>
      </trkpt>
      <trkpt lat="43.34815" lon="5.66024">
        <ele>276</ele>
        <time>2019-01-18T14:57:11.000Z</time>
      </trkpt>
      <trkpt lat="43.34815" lon="5.66024">
        <ele>276</ele>
        <time>2019-01-18T14:57:12.000Z</time>
      </trkpt>
      <trkpt lat="43.34815" lon="5.66024">
        <ele>276</ele>
        <time>2019-01-18T14:57:13.000Z</time>
      </trkpt>
      <trkpt lat="43.34815" lon="5.66024">
        <ele>276</ele>
        <time>2019-01-18T14:57:14.000Z</time>
      </trkpt>
      <trkpt lat="43.34816" lon="5.66024">
        <ele>276</ele>
        <time>2019-01-18T14:57:15.000Z</time>
      </trkpt>
      <trkpt lat="43.34816" lon="5.66024">
        <ele>276</ele>
        <time>2019-01-18T14:57:16.000Z</time>
      </trkpt>
      <trkpt lat="43.34816" lon="5.66024">
        <ele>276</ele>
        <time>2019-01-18T14:57:17.000Z</time>
      </trkpt>
      <trkpt lat="43.34816" lon="5.66023">
        <ele>276</ele>
        <time>2019-01-18T14:57:18.000Z</time>
      </trkpt>
      <trkpt lat="43.34817" lon="5.66023">
        <ele>276</ele>
        <time>2019-01-18T14:57:19.000Z</time>
      </trkpt>
      <trkpt lat="43.34817" lon="5.66023">
        <ele>276</ele>
        <time>2019-01-18T14:57:20.000Z</time>
      </trkpt>
      <trkpt lat="43.34818" lon="5.66023">
        <ele>276</ele>
        <time>2019-01-18T14:57:21.000Z</time>
      </trkpt>
      <trkpt lat="43.34819" lon="5.66023">
        <ele>276</ele>
        <time>2019-01-18T14:57:22.000Z</time>
      </trkpt>
      <trkpt lat="43.3482" lon="5.66023">
        <ele>276</ele>
        <time>2019-01-18T14:57:23.000Z</time>
      </trkpt>
      <trkpt lat="43.34821" lon="5.66022">
        <ele>276</ele>
        <time>2019-01-18T14:57:24.000Z</time>
      </trkpt>
      <trkpt lat="43.34822" lon="5.66022">
        <ele>276</ele>
        <time>2019-01-18T14:57:25.000Z</time>
      </trkpt>
      <trkpt lat="43.34823" lon="5.66022">
        <ele>276</ele>
        <time>2019-01-18T14:57:26.000Z</time>
      </trkpt>
      <trkpt lat="43.34823" lon="5.66022">
        <ele>276</ele>
        <time>2019-01-18T14:57:27.000Z</time>
      </trkpt>
      <trkpt lat="43.34824" lon="5.66023">
        <ele>276</ele>
        <time>2019-01-18T14:57:28.000Z</time>
      </trkpt>
      <trkpt lat="43.34825" lon="5.66023">
        <ele>276</ele>
        <time>2019-01-18T14:57:29.000Z</time>
      </trkpt>
      <trkpt lat="43.34826" lon="5.66023">
        <ele>276</ele>
        <time>2019-01-18T14:57:30.000Z</time>
      </trkpt>
      <trkpt lat="43.34827" lon="5.66022">
        <ele>276</ele>
        <time>2019-01-18T14:57:31.000Z</time>
      </trkpt>
      <trkpt lat="43.34828" lon="5.66022">
        <ele>276</ele>
        <time>2019-01-18T14:57:32.000Z</time>
      </trkpt>
      <trkpt lat="43.34829" lon="5.66022">
        <ele>276</ele>
        <time>2019-01-18T14:57:33.000Z</time>
      </trkpt>
      <trkpt lat="43.34829" lon="5.66022">
        <ele>276</ele>
        <time>2019-01-18T14:57:34.000Z</time>
      </trkpt>
      <trkpt lat="43.3483" lon="5.66022">
        <ele>275</ele>
        <time>2019-01-18T14:57:35.000Z</time>
      </trkpt>
      <trkpt lat="43.3483" lon="5.66022">
        <ele>275</ele>
        <time>2019-01-18T14:57:36.000Z</time>
      </trkpt>
      <trkpt lat="43.3483" lon="5.66022">
        <ele>275</ele>
        <time>2019-01-18T14:57:37.000Z</time>
      </trkpt>
      <trkpt lat="43.3483" lon="5.66022">
        <ele>275</ele>
        <time>2019-01-18T14:57:38.000Z</time>
      </trkpt>
      <trkpt lat="43.34831" lon="5.66022">
        <ele>275</ele>
        <time>2019-01-18T14:57:39.000Z</time>
      </trkpt>
      <trkpt lat="43.34831" lon="5.66021">
        <ele>275</ele>
        <time>2019-01-18T14:57:40.000Z</time>
      </trkpt>
      <trkpt lat="43.34831" lon="5.66021">
        <ele>275</ele>
        <time>2019-01-18T14:57:41.000Z</time>
      </trkpt>
      <trkpt lat="43.34831" lon="5.66021">
        <ele>275</ele>
        <time>2019-01-18T14:57:42.000Z</time>
      </trkpt>
      <trkpt lat="43.34831" lon="5.66021">
        <ele>275</ele>
        <time>2019-01-18T14:57:43.000Z</time>
      </trkpt>
      <trkpt lat="43.34831" lon="5.66021">
        <ele>275</ele>
        <time>2019-01-18T14:57:44.000Z</time>
      </trkpt>
      <trkpt lat="43.34831" lon="5.66021">
        <ele>275</ele>
        <time>2019-01-18T14:57:45.000Z</time>
      </trkpt>
      <trkpt lat="43.34831" lon="5.66021">
        <ele>275</ele>
        <time>2019-01-18T14:57:46.000Z</time>
      </trkpt>
      <trkpt lat="43.34832" lon="5.66021">
        <ele>275</ele>
        <time>2019-01-18T14:57:47.000Z</time>
      </trkpt>
      <trkpt lat="43.34832" lon="5.66021">
        <ele>275</ele>
        <time>2019-01-18T14:57:48.000Z</time>
      </trkpt>
      <trkpt lat="43.34832" lon="5.66021">
        <ele>275</ele>
        <time>2019-01-18T14:57:49.000Z</time>
      </trkpt>
      <trkpt lat="43.34832" lon="5.66021">
        <ele>275</ele>
        <time>2019-01-18T14:57:50.000Z</time>
      </trkpt>
      <trkpt lat="43.34832" lon="5.66022">
        <ele>275</ele>
        <time>2019-01-18T14:57:51.000Z</time>
      </trkpt>
      <trkpt lat="43.34831" lon="5.66022">
        <ele>274</ele>
        <time>2019-01-18T14:57:52.000Z</time>
      </trkpt>
      <trkpt lat="43.34831" lon="5.66022">
        <ele>274</ele>
        <time>2019-01-18T14:57:53.000Z</time>
      </trkpt>
      <trkpt lat="43.34831" lon="5.66021">
        <ele>275</ele>
        <time>2019-01-18T14:57:54.000Z</time>
      </trkpt>
      <trkpt lat="43.34831" lon="5.66021">
        <ele>275</ele>
        <time>2019-01-18T14:57:55.000Z</time>
      </trkpt>
      <trkpt lat="43.34831" lon="5.6602">
        <ele>275</ele>
        <time>2019-01-18T14:57:56.000Z</time>
      </trkpt>
      <trkpt lat="43.34831" lon="5.6602">
        <ele>275</ele>
        <time>2019-01-18T14:57:57.000Z</time>
      </trkpt>
      <trkpt lat="43.34831" lon="5.6602">
        <ele>275</ele>
        <time>2019-01-18T14:57:58.000Z</time>
      </trkpt>
      <trkpt lat="43.34831" lon="5.66019">
        <ele>275</ele>
        <time>2019-01-18T14:57:59.000Z</time>
      </trkpt>
      <trkpt lat="43.34831" lon="5.66019">
        <ele>275</ele>
        <time>2019-01-18T14:58:00.000Z</time>
      </trkpt>
      <trkpt lat="43.34831" lon="5.66019">
        <ele>274</ele>
        <time>2019-01-18T14:58:01.000Z</time>
      </trkpt>
      <trkpt lat="43.34831" lon="5.66019">
        <ele>274</ele>
        <time>2019-01-18T14:58:02.000Z</time>
      </trkpt>
      <trkpt lat="43.34831" lon="5.66019">
        <ele>274</ele>
        <time>2019-01-18T14:58:03.000Z</time>
      </trkpt>
      <trkpt lat="43.34831" lon="5.66019">
        <ele>274</ele>
        <time>2019-01-18T14:58:04.000Z</time>
      </trkpt>
      <trkpt lat="43.34831" lon="5.66019">
        <ele>274</ele>
        <time>2019-01-18T14:58:05.000Z</time>
      </trkpt>
      <trkpt lat="43.34831" lon="5.66019">
        <ele>274</ele>
        <time>2019-01-18T14:58:06.000Z</time>
      </trkpt>
      <trkpt lat="43.34831" lon="5.66019">
        <ele>274</ele>
        <time>2019-01-18T14:58:07.000Z</time>
      </trkpt>
      <trkpt lat="43.34831" lon="5.66019">
        <ele>274</ele>
        <time>2019-01-18T14:58:08.000Z</time>
      </trkpt>
      <trkpt lat="43.34831" lon="5.66019">
        <ele>273</ele>
        <time>2019-01-18T14:58:09.000Z</time>
      </trkpt>
      <trkpt lat="43.34831" lon="5.66019">
        <ele>273</ele>
        <time>2019-01-18T14:58:10.000Z</time>
      </trkpt>
      <trkpt lat="43.34831" lon="5.66019">
        <ele>273</ele>
        <time>2019-01-18T14:58:11.000Z</time>
      </trkpt>
      <trkpt lat="43.34831" lon="5.66019">
        <ele>273</ele>
        <time>2019-01-18T14:58:12.000Z</time>
      </trkpt>
      <trkpt lat="43.34831" lon="5.66018">
        <ele>272</ele>
        <time>2019-01-18T14:58:13.000Z</time>
      </trkpt>
      <trkpt lat="43.34831" lon="5.66018">
        <ele>272</ele>
        <time>2019-01-18T14:58:14.000Z</time>
      </trkpt>
      <trkpt lat="43.34831" lon="5.66018">
        <ele>272</ele>
        <time>2019-01-18T14:58:15.000Z</time>
      </trkpt>
      <trkpt lat="43.34831" lon="5.66018">
        <ele>272</ele>
        <time>2019-01-18T14:58:16.000Z</time>
      </trkpt>
      <trkpt lat="43.34831" lon="5.66018">
        <ele>272</ele>
        <time>2019-01-18T14:58:17.000Z</time>
      </trkpt>
      <trkpt lat="43.3483" lon="5.66018">
        <ele>271</ele>
        <time>2019-01-18T14:58:18.000Z</time>
      </trkpt>
      <trkpt lat="43.3483" lon="5.66018">
        <ele>271</ele>
        <time>2019-01-18T14:58:19.000Z</time>
      </trkpt>
      <trkpt lat="43.34831" lon="5.66018">
        <ele>271</ele>
        <time>2019-01-18T14:58:20.000Z</time>
      </trkpt>
      <trkpt lat="43.34831" lon="5.66017">
        <ele>271</ele>
        <time>2019-01-18T14:58:21.000Z</time>
      </trkpt>
      <trkpt lat="43.34831" lon="5.66017">
        <ele>271</ele>
        <time>2019-01-18T14:58:22.000Z</time>
      </trkpt>
      <trkpt lat="43.34831" lon="5.66017">
        <ele>271</ele>
        <time>2019-01-18T14:58:23.000Z</time>
      </trkpt>
      <trkpt lat="43.34831" lon="5.66017">
        <ele>270</ele>
        <time>2019-01-18T14:58:24.000Z</time>
      </trkpt>
      <trkpt lat="43.34831" lon="5.66017">
        <ele>270</ele>
        <time>2019-01-18T14:58:25.000Z</time>
      </trkpt>
      <trkpt lat="43.34831" lon="5.66017">
        <ele>270</ele>
        <time>2019-01-18T14:58:26.000Z</time>
      </trkpt>
      <trkpt lat="43.34831" lon="5.66016">
        <ele>270</ele>
        <time>2019-01-18T14:58:27.000Z</time>
      </trkpt>
      <trkpt lat="43.34831" lon="5.66016">
        <ele>270</ele>
        <time>2019-01-18T14:58:28.000Z</time>
      </trkpt>
      <trkpt lat="43.34831" lon="5.66016">
        <ele>270</ele>
        <time>2019-01-18T14:58:29.000Z</time>
      </trkpt>
      <trkpt lat="43.34831" lon="5.66016">
        <ele>270</ele>
        <time>2019-01-18T14:58:30.000Z</time>
      </trkpt>
      <trkpt lat="43.34832" lon="5.66016">
        <ele>270</ele>
        <time>2019-01-18T14:58:31.000Z</time>
      </trkpt>
      <trkpt lat="43.34832" lon="5.66016">
        <ele>270</ele>
        <time>2019-01-18T14:58:32.000Z</time>
      </trkpt>
      <trkpt lat="43.34832" lon="5.66015">
        <ele>270</ele>
        <time>2019-01-18T14:58:33.000Z</time>
      </trkpt>
      <trkpt lat="43.34832" lon="5.66015">
        <ele>270</ele>
        <time>2019-01-18T14:58:34.000Z</time>
      </trkpt>
      <trkpt lat="43.34832" lon="5.66015">
        <ele>270</ele>
        <time>2019-01-18T14:58:35.000Z</time>
      </trkpt>
      <trkpt lat="43.34832" lon="5.66015">
        <ele>269</ele>
        <time>2019-01-18T14:58:36.000Z</time>
      </trkpt>
      <trkpt lat="43.34832" lon="5.66015">
        <ele>269</ele>
        <time>2019-01-18T14:58:37.000Z</time>
      </trkpt>
      <trkpt lat="43.34832" lon="5.66014">
        <ele>270</ele>
        <time>2019-01-18T14:58:38.000Z</time>
      </trkpt>
      <trkpt lat="43.34832" lon="5.66014">
        <ele>270</ele>
        <time>2019-01-18T14:58:39.000Z</time>
      </trkpt>
      <trkpt lat="43.34832" lon="5.66014">
        <ele>269</ele>
        <time>2019-01-18T14:58:40.000Z</time>
      </trkpt>
      <trkpt lat="43.34832" lon="5.66014">
        <ele>269</ele>
        <time>2019-01-18T14:58:41.000Z</time>
      </trkpt>
      <trkpt lat="43.34832" lon="5.66014">
        <ele>269</ele>
        <time>2019-01-18T14:58:42.000Z</time>
      </trkpt>
      <trkpt lat="43.34832" lon="5.66014">
        <ele>270</ele>
        <time>2019-01-18T14:58:43.000Z</time>
      </trkpt>
      <trkpt lat="43.34832" lon="5.66014">
        <ele>270</ele>
        <time>2019-01-18T14:58:44.000Z</time>
      </trkpt>
      <trkpt lat="43.34832" lon="5.66014">
        <ele>270</ele>
        <time>2019-01-18T14:58:45.000Z</time>
      </trkpt>
      <trkpt lat="43.34832" lon="5.66014">
        <ele>270</ele>
        <time>2019-01-18T14:58:46.000Z</time>
      </trkpt>
      <trkpt lat="43.34832" lon="5.66014">
        <ele>270</ele>
        <time>2019-01-18T14:58:47.000Z</time>
      </trkpt>
      <trkpt lat="43.34832" lon="5.66014">
        <ele>270</ele>
        <time>2019-01-18T14:58:48.000Z</time>
      </trkpt>
      <trkpt lat="43.34832" lon="5.66014">
        <ele>270</ele>
        <time>2019-01-18T14:58:49.000Z</time>
      </trkpt>
      <trkpt lat="43.34832" lon="5.66014">
        <ele>270</ele>
        <time>2019-01-18T14:58:50.000Z</time>
      </trkpt>
      <trkpt lat="43.34832" lon="5.66015">
        <ele>270</ele>
        <time>2019-01-18T14:58:51.000Z</time>
      </trkpt>
      <trkpt lat="43.34832" lon="5.66015">
        <ele>270</ele>
        <time>2019-01-18T14:58:52.000Z</time>
      </trkpt>
      <trkpt lat="43.34832" lon="5.66015">
        <ele>270</ele>
        <time>2019-01-18T14:58:53.000Z</time>
      </trkpt>
      <trkpt lat="43.34832" lon="5.66015">
        <ele>270</ele>
        <time>2019-01-18T14:58:54.000Z</time>
      </trkpt>
      <trkpt lat="43.34832" lon="5.66015">
        <ele>271</ele>
        <time>2019-01-18T14:58:55.000Z</time>
      </trkpt>
      <trkpt lat="43.34832" lon="5.66015">
        <ele>271</ele>
        <time>2019-01-18T14:58:56.000Z</time>
      </trkpt>
      <trkpt lat="43.34832" lon="5.66015">
        <ele>271</ele>
        <time>2019-01-18T14:58:57.000Z</time>
      </trkpt>
      <trkpt lat="43.34832" lon="5.66015">
        <ele>271</ele>
        <time>2019-01-18T14:58:58.000Z</time>
      </trkpt>
      <trkpt lat="43.34832" lon="5.66015">
        <ele>271</ele>
        <time>2019-01-18T14:58:59.000Z</time>
      </trkpt>
      <trkpt lat="43.34832" lon="5.66015">
        <ele>271</ele>
        <time>2019-01-18T14:59:00.000Z</time>
      </trkpt>
      <trkpt lat="43.34832" lon="5.66015">
        <ele>271</ele>
        <time>2019-01-18T14:59:01.000Z</time>
      </trkpt>
      <trkpt lat="43.34832" lon="5.66015">
        <ele>271</ele>
        <time>2019-01-18T14:59:02.000Z</time>
      </trkpt>
      <trkpt lat="43.34832" lon="5.66015">
        <ele>271</ele>
        <time>2019-01-18T14:59:03.000Z</time>
      </trkpt>
      <trkpt lat="43.34832" lon="5.66015">
        <ele>271</ele>
        <time>2019-01-18T14:59:04.000Z</time>
      </trkpt>
      <trkpt lat="43.34832" lon="5.66015">
        <ele>271</ele>
        <time>2019-01-18T14:59:05.000Z</time>
      </trkpt>
      <trkpt lat="43.34832" lon="5.66015">
        <ele>271</ele>
        <time>2019-01-18T14:59:06.000Z</time>
      </trkpt>
      <trkpt lat="43.34832" lon="5.66015">
        <ele>271</ele>
        <time>2019-01-18T14:59:07.000Z</time>
      </trkpt>
      <trkpt lat="43.34832" lon="5.66015">
        <ele>271</ele>
        <time>2019-01-18T14:59:08.000Z</time>
      </trkpt>
      <trkpt lat="43.34832" lon="5.66015">
        <ele>271</ele>
        <time>2019-01-18T14:59:09.000Z</time>
      </trkpt>
      <trkpt lat="43.34832" lon="5.66015">
        <ele>271</ele>
        <time>2019-01-18T14:59:10.000Z</time>
      </trkpt>
      <trkpt lat="43.34833" lon="5.66015">
        <ele>271</ele>
        <time>2019-01-18T14:59:11.000Z</time>
      </trkpt>
      <trkpt lat="43.34833" lon="5.66015">
        <ele>271</ele>
        <time>2019-01-18T14:59:12.000Z</time>
      </trkpt>
      <trkpt lat="43.34834" lon="5.66015">
        <ele>271</ele>
        <time>2019-01-18T14:59:13.000Z</time>
      </trkpt>
      <trkpt lat="43.34834" lon="5.66015">
        <ele>271</ele>
        <time>2019-01-18T14:59:14.000Z</time>
      </trkpt>
      <trkpt lat="43.34834" lon="5.66016">
        <ele>271</ele>
        <time>2019-01-18T14:59:15.000Z</time>
      </trkpt>
      <trkpt lat="43.34834" lon="5.66016">
        <ele>271</ele>
        <time>2019-01-18T14:59:16.000Z</time>
      </trkpt>
      <trkpt lat="43.34834" lon="5.66017">
        <ele>271</ele>
        <time>2019-01-18T14:59:17.000Z</time>
      </trkpt>
      <trkpt lat="43.34835" lon="5.66017">
        <ele>271</ele>
        <time>2019-01-18T14:59:18.000Z</time>
      </trkpt>
      <trkpt lat="43.34835" lon="5.66018">
        <ele>271</ele>
        <time>2019-01-18T14:59:19.000Z</time>
      </trkpt>
      <trkpt lat="43.34835" lon="5.66018">
        <ele>271</ele>
        <time>2019-01-18T14:59:20.000Z</time>
      </trkpt>
      <trkpt lat="43.34835" lon="5.66018">
        <ele>271</ele>
        <time>2019-01-18T14:59:21.000Z</time>
      </trkpt>
      <trkpt lat="43.34835" lon="5.66018">
        <ele>271</ele>
        <time>2019-01-18T14:59:22.000Z</time>
      </trkpt>
      <trkpt lat="43.34835" lon="5.66019">
        <ele>272</ele>
        <time>2019-01-18T14:59:23.000Z</time>
      </trkpt>
      <trkpt lat="43.34835" lon="5.6602">
        <ele>272</ele>
        <time>2019-01-18T14:59:24.000Z</time>
      </trkpt>
      <trkpt lat="43.34835" lon="5.6602">
        <ele>272</ele>
        <time>2019-01-18T14:59:25.000Z</time>
      </trkpt>
      <trkpt lat="43.34835" lon="5.66021">
        <ele>272</ele>
        <time>2019-01-18T14:59:26.000Z</time>
      </trkpt>
      <trkpt lat="43.34835" lon="5.66021">
        <ele>272</ele>
        <time>2019-01-18T14:59:27.000Z</time>
      </trkpt>
      <trkpt lat="43.34835" lon="5.66022">
        <ele>272</ele>
        <time>2019-01-18T14:59:28.000Z</time>
      </trkpt>
      <trkpt lat="43.34835" lon="5.66023">
        <ele>272</ele>
        <time>2019-01-18T14:59:29.000Z</time>
      </trkpt>
      <trkpt lat="43.34835" lon="5.66024">
        <ele>272</ele>
        <time>2019-01-18T14:59:30.000Z</time>
      </trkpt>
      <trkpt lat="43.34836" lon="5.66025">
        <ele>272</ele>
        <time>2019-01-18T14:59:31.000Z</time>
      </trkpt>
      <trkpt lat="43.34836" lon="5.66025">
        <ele>272</ele>
        <time>2019-01-18T14:59:32.000Z</time>
      </trkpt>
      <trkpt lat="43.34836" lon="5.66026">
        <ele>272</ele>
        <time>2019-01-18T14:59:33.000Z</time>
      </trkpt>
      <trkpt lat="43.34836" lon="5.66026">
        <ele>272</ele>
        <time>2019-01-18T14:59:34.000Z</time>
      </trkpt>
      <trkpt lat="43.34836" lon="5.66027">
        <ele>272</ele>
        <time>2019-01-18T14:59:35.000Z</time>
      </trkpt>
      <trkpt lat="43.34837" lon="5.66028">
        <ele>272</ele>
        <time>2019-01-18T14:59:36.000Z</time>
      </trkpt>
      <trkpt lat="43.34837" lon="5.66028">
        <ele>272</ele>
        <time>2019-01-18T14:59:37.000Z</time>
      </trkpt>
      <trkpt lat="43.34838" lon="5.66029">
        <ele>272</ele>
        <time>2019-01-18T14:59:38.000Z</time>
      </trkpt>
      <trkpt lat="43.34839" lon="5.66029">
        <ele>272</ele>
        <time>2019-01-18T14:59:39.000Z</time>
      </trkpt>
      <trkpt lat="43.34839" lon="5.6603">
        <ele>272</ele>
        <time>2019-01-18T14:59:40.000Z</time>
      </trkpt>
      <trkpt lat="43.3484" lon="5.6603">
        <ele>272</ele>
        <time>2019-01-18T14:59:41.000Z</time>
      </trkpt>
      <trkpt lat="43.34841" lon="5.66029">
        <ele>272</ele>
        <time>2019-01-18T14:59:42.000Z</time>
      </trkpt>
      <trkpt lat="43.34841" lon="5.66029">
        <ele>272</ele>
        <time>2019-01-18T14:59:43.000Z</time>
      </trkpt>
      <trkpt lat="43.34842" lon="5.66029">
        <ele>272</ele>
        <time>2019-01-18T14:59:44.000Z</time>
      </trkpt>
      <trkpt lat="43.34842" lon="5.66029">
        <ele>272</ele>
        <time>2019-01-18T14:59:45.000Z</time>
      </trkpt>
      <trkpt lat="43.34842" lon="5.66029">
        <ele>272</ele>
        <time>2019-01-18T14:59:46.000Z</time>
      </trkpt>
      <trkpt lat="43.34843" lon="5.66028">
        <ele>272</ele>
        <time>2019-01-18T14:59:47.000Z</time>
      </trkpt>
      <trkpt lat="43.34843" lon="5.66028">
        <ele>272</ele>
        <time>2019-01-18T14:59:48.000Z</time>
      </trkpt>
      <trkpt lat="43.34843" lon="5.66027">
        <ele>272</ele>
        <time>2019-01-18T14:59:49.000Z</time>
      </trkpt>
      <trkpt lat="43.34843" lon="5.66027">
        <ele>272</ele>
        <time>2019-01-18T14:59:50.000Z</time>
      </trkpt>
      <trkpt lat="43.34844" lon="5.66027">
        <ele>272</ele>
        <time>2019-01-18T14:59:51.000Z</time>
      </trkpt>
      <trkpt lat="43.34844" lon="5.66026">
        <ele>272</ele>
        <time>2019-01-18T14:59:52.000Z</time>
      </trkpt>
      <trkpt lat="43.34844" lon="5.66025">
        <ele>272</ele>
        <time>2019-01-18T14:59:53.000Z</time>
      </trkpt>
      <trkpt lat="43.34844" lon="5.66025">
        <ele>272</ele>
        <time>2019-01-18T14:59:54.000Z</time>
      </trkpt>
      <trkpt lat="43.34845" lon="5.66025">
        <ele>272</ele>
        <time>2019-01-18T14:59:55.000Z</time>
      </trkpt>
      <trkpt lat="43.34845" lon="5.66025">
        <ele>272</ele>
        <time>2019-01-18T14:59:56.000Z</time>
      </trkpt>
      <trkpt lat="43.34845" lon="5.66025">
        <ele>272</ele>
        <time>2019-01-18T14:59:57.000Z</time>
      </trkpt>
      <trkpt lat="43.34845" lon="5.66025">
        <ele>272</ele>
        <time>2019-01-18T14:59:58.000Z</time>
      </trkpt>
      <trkpt lat="43.34845" lon="5.66025">
        <ele>272</ele>
        <time>2019-01-18T14:59:59.000Z</time>
      </trkpt>
      <trkpt lat="43.34846" lon="5.66025">
        <ele>272</ele>
        <time>2019-01-18T15:00:00.000Z</time>
      </trkpt>
      <trkpt lat="43.34846" lon="5.66025">
        <ele>272</ele>
        <time>2019-01-18T15:00:01.000Z</time>
      </trkpt>
      <trkpt lat="43.34846" lon="5.66025">
        <ele>272</ele>
        <time>2019-01-18T15:00:02.000Z</time>
      </trkpt>
      <trkpt lat="43.34846" lon="5.66025">
        <ele>272</ele>
        <time>2019-01-18T15:00:03.000Z</time>
      </trkpt>
      <trkpt lat="43.34846" lon="5.66025">
        <ele>272</ele>
        <time>2019-01-18T15:00:04.000Z</time>
      </trkpt>
      <trkpt lat="43.34846" lon="5.66025">
        <ele>272</ele>
        <time>2019-01-18T15:00:05.000Z</time>
      </trkpt>
      <trkpt lat="43.34846" lon="5.66025">
        <ele>272</ele>
        <time>2019-01-18T15:00:06.000Z</time>
      </trkpt>
      <trkpt lat="43.34845" lon="5.66024">
        <ele>272</ele>
        <time>2019-01-18T15:00:07.000Z</time>
      </trkpt>
      <trkpt lat="43.34845" lon="5.66023">
        <ele>272</ele>
        <time>2019-01-18T15:00:08.000Z</time>
      </trkpt>
      <trkpt lat="43.34845" lon="5.66023">
        <ele>272</ele>
        <time>2019-01-18T15:00:09.000Z</time>
      </trkpt>
      <trkpt lat="43.34845" lon="5.66023">
        <ele>273</ele>
        <time>2019-01-18T15:00:10.000Z</time>
      </trkpt>
      <trkpt lat="43.34844" lon="5.66022">
        <ele>273</ele>
        <time>2019-01-18T15:00:11.000Z</time>
      </trkpt>
      <trkpt lat="43.34844" lon="5.66022">
        <ele>273</ele>
        <time>2019-01-18T15:00:12.000Z</time>
      </trkpt>
      <trkpt lat="43.34843" lon="5.66021">
        <ele>273</ele>
        <time>2019-01-18T15:00:13.000Z</time>
      </trkpt>
      <trkpt lat="43.34843" lon="5.6602">
        <ele>273</ele>
        <time>2019-01-18T15:00:14.000Z</time>
      </trkpt>
      <trkpt lat="43.34842" lon="5.66019">
        <ele>273</ele>
        <time>2019-01-18T15:00:15.000Z</time>
      </trkpt>
      <trkpt lat="43.34841" lon="5.66018">
        <ele>274</ele>
        <time>2019-01-18T15:00:16.000Z</time>
      </trkpt>
      <trkpt lat="43.34841" lon="5.66018">
        <ele>274</ele>
        <time>2019-01-18T15:00:17.000Z</time>
      </trkpt>
      <trkpt lat="43.3484" lon="5.66017">
        <ele>274</ele>
        <time>2019-01-18T15:00:18.000Z</time>
      </trkpt>
      <trkpt lat="43.3484" lon="5.66017">
        <ele>274</ele>
        <time>2019-01-18T15:00:19.000Z</time>
      </trkpt>
      <trkpt lat="43.34839" lon="5.66017">
        <ele>274</ele>
        <time>2019-01-18T15:00:20.000Z</time>
      </trkpt>
      <trkpt lat="43.34839" lon="5.66017">
        <ele>274</ele>
        <time>2019-01-18T15:00:21.000Z</time>
      </trkpt>
      <trkpt lat="43.34838" lon="5.66017">
        <ele>274</ele>
        <time>2019-01-18T15:00:22.000Z</time>
      </trkpt>
      <trkpt lat="43.34837" lon="5.66017">
        <ele>275</ele>
        <time>2019-01-18T15:00:23.000Z</time>
      </trkpt>
      <trkpt lat="43.34836" lon="5.66018">
        <ele>275</ele>
        <time>2019-01-18T15:00:24.000Z</time>
      </trkpt>
      <trkpt lat="43.34835" lon="5.66018">
        <ele>275</ele>
        <time>2019-01-18T15:00:25.000Z</time>
      </trkpt>
      <trkpt lat="43.34834" lon="5.66018">
        <ele>275</ele>
        <time>2019-01-18T15:00:26.000Z</time>
      </trkpt>
      <trkpt lat="43.34833" lon="5.66017">
        <ele>275</ele>
        <time>2019-01-18T15:00:27.000Z</time>
      </trkpt>
      <trkpt lat="43.34833" lon="5.66017">
        <ele>275</ele>
        <time>2019-01-18T15:00:28.000Z</time>
      </trkpt>
      <trkpt lat="43.34832" lon="5.66017">
        <ele>275</ele>
        <time>2019-01-18T15:00:29.000Z</time>
      </trkpt>
      <trkpt lat="43.34832" lon="5.66017">
        <ele>276</ele>
        <time>2019-01-18T15:00:30.000Z</time>
      </trkpt>
      <trkpt lat="43.34831" lon="5.66017">
        <ele>276</ele>
        <time>2019-01-18T15:00:31.000Z</time>
      </trkpt>
      <trkpt lat="43.34831" lon="5.66016">
        <ele>276</ele>
        <time>2019-01-18T15:00:32.000Z</time>
      </trkpt>
      <trkpt lat="43.34831" lon="5.66016">
        <ele>276</ele>
        <time>2019-01-18T15:00:33.000Z</time>
      </trkpt>
      <trkpt lat="43.34831" lon="5.66016">
        <ele>276</ele>
        <time>2019-01-18T15:00:34.000Z</time>
      </trkpt>
      <trkpt lat="43.3483" lon="5.66016">
        <ele>276</ele>
        <time>2019-01-18T15:00:35.000Z</time>
      </trkpt>
      <trkpt lat="43.3483" lon="5.66017">
        <ele>276</ele>
        <time>2019-01-18T15:00:36.000Z</time>
      </trkpt>
      <trkpt lat="43.3483" lon="5.66018">
        <ele>275</ele>
        <time>2019-01-18T15:00:37.000Z</time>
      </trkpt>
      <trkpt lat="43.34829" lon="5.66018">
        <ele>275</ele>
        <time>2019-01-18T15:00:38.000Z</time>
      </trkpt>
      <trkpt lat="43.34828" lon="5.66019">
        <ele>275</ele>
        <time>2019-01-18T15:00:39.000Z</time>
      </trkpt>
      <trkpt lat="43.34828" lon="5.6602">
        <ele>275</ele>
        <time>2019-01-18T15:00:40.000Z</time>
      </trkpt>
      <trkpt lat="43.34827" lon="5.66021">
        <ele>275</ele>
        <time>2019-01-18T15:00:41.000Z</time>
      </trkpt>
      <trkpt lat="43.34826" lon="5.66022">
        <ele>275</ele>
        <time>2019-01-18T15:00:42.000Z</time>
      </trkpt>
      <trkpt lat="43.34826" lon="5.66023">
        <ele>275</ele>
        <time>2019-01-18T15:00:43.000Z</time>
      </trkpt>
      <trkpt lat="43.34825" lon="5.66024">
        <ele>275</ele>
        <time>2019-01-18T15:00:44.000Z</time>
      </trkpt>
      <trkpt lat="43.34824" lon="5.66024">
        <ele>275</ele>
        <time>2019-01-18T15:00:45.000Z</time>
      </trkpt>
      <trkpt lat="43.34823" lon="5.66025">
        <ele>275</ele>
        <time>2019-01-18T15:00:46.000Z</time>
      </trkpt>
      <trkpt lat="43.34823" lon="5.66026">
        <ele>276</ele>
        <time>2019-01-18T15:00:47.000Z</time>
      </trkpt>
      <trkpt lat="43.34822" lon="5.66026">
        <ele>276</ele>
        <time>2019-01-18T15:00:48.000Z</time>
      </trkpt>
      <trkpt lat="43.34822" lon="5.66027">
        <ele>276</ele>
        <time>2019-01-18T15:00:49.000Z</time>
      </trkpt>
      <trkpt lat="43.34822" lon="5.66027">
        <ele>276</ele>
        <time>2019-01-18T15:00:50.000Z</time>
      </trkpt>
      <trkpt lat="43.34821" lon="5.66028">
        <ele>276</ele>
        <time>2019-01-18T15:00:51.000Z</time>
      </trkpt>
      <trkpt lat="43.34821" lon="5.66028">
        <ele>276</ele>
        <time>2019-01-18T15:00:52.000Z</time>
      </trkpt>
      <trkpt lat="43.34821" lon="5.66029">
        <ele>276</ele>
        <time>2019-01-18T15:00:53.000Z</time>
      </trkpt>
      <trkpt lat="43.34821" lon="5.66029">
        <ele>276</ele>
        <time>2019-01-18T15:00:54.000Z</time>
      </trkpt>
      <trkpt lat="43.34821" lon="5.66029">
        <ele>276</ele>
        <time>2019-01-18T15:00:55.000Z</time>
      </trkpt>
      <trkpt lat="43.34821" lon="5.66029">
        <ele>276</ele>
        <time>2019-01-18T15:00:56.000Z</time>
      </trkpt>
      <trkpt lat="43.34821" lon="5.66029">
        <ele>276</ele>
        <time>2019-01-18T15:00:57.000Z</time>
      </trkpt>
      <trkpt lat="43.34821" lon="5.6603">
        <ele>276</ele>
        <time>2019-01-18T15:00:58.000Z</time>
      </trkpt>
      <trkpt lat="43.34821" lon="5.6603">
        <ele>276</ele>
        <time>2019-01-18T15:00:59.000Z</time>
      </trkpt>
      <trkpt lat="43.34822" lon="5.6603">
        <ele>276</ele>
        <time>2019-01-18T15:01:00.000Z</time>
      </trkpt>
      <trkpt lat="43.34822" lon="5.6603">
        <ele>276</ele>
        <time>2019-01-18T15:01:01.000Z</time>
      </trkpt>
      <trkpt lat="43.34822" lon="5.6603">
        <ele>276</ele>
        <time>2019-01-18T15:01:02.000Z</time>
      </trkpt>
      <trkpt lat="43.34822" lon="5.6603">
        <ele>276</ele>
        <time>2019-01-18T15:01:03.000Z</time>
      </trkpt>
      <trkpt lat="43.34822" lon="5.6603">
        <ele>276</ele>
        <time>2019-01-18T15:01:04.000Z</time>
      </trkpt>
      <trkpt lat="43.34822" lon="5.6603">
        <ele>276</ele>
        <time>2019-01-18T15:01:05.000Z</time>
      </trkpt>
      <trkpt lat="43.34821" lon="5.6603">
        <ele>276</ele>
        <time>2019-01-18T15:01:06.000Z</time>
      </trkpt>
      <trkpt lat="43.34821" lon="5.6603">
        <ele>276</ele>
        <time>2019-01-18T15:01:07.000Z</time>
      </trkpt>
      <trkpt lat="43.34821" lon="5.6603">
        <ele>276</ele>
        <time>2019-01-18T15:01:08.000Z</time>
      </trkpt>
      <trkpt lat="43.34821" lon="5.6603">
        <ele>275</ele>
        <time>2019-01-18T15:01:09.000Z</time>
      </trkpt>
      <trkpt lat="43.34821" lon="5.6603">
        <ele>275</ele>
        <time>2019-01-18T15:01:10.000Z</time>
      </trkpt>
      <trkpt lat="43.34821" lon="5.66031">
        <ele>275</ele>
        <time>2019-01-18T15:01:11.000Z</time>
      </trkpt>
      <trkpt lat="43.34821" lon="5.66031">
        <ele>275</ele>
        <time>2019-01-18T15:01:12.000Z</time>
      </trkpt>
      <trkpt lat="43.34821" lon="5.66031">
        <ele>275</ele>
        <time>2019-01-18T15:01:13.000Z</time>
      </trkpt>
      <trkpt lat="43.34821" lon="5.66031">
        <ele>275</ele>
        <time>2019-01-18T15:01:14.000Z</time>
      </trkpt>
      <trkpt lat="43.34822" lon="5.66031">
        <ele>275</ele>
        <time>2019-01-18T15:01:15.000Z</time>
      </trkpt>
      <trkpt lat="43.34822" lon="5.66032">
        <ele>275</ele>
        <time>2019-01-18T15:01:16.000Z</time>
      </trkpt>
      <trkpt lat="43.34822" lon="5.66033">
        <ele>275</ele>
        <time>2019-01-18T15:01:17.000Z</time>
      </trkpt>
      <trkpt lat="43.34821" lon="5.66033">
        <ele>275</ele>
        <time>2019-01-18T15:01:18.000Z</time>
      </trkpt>
      <trkpt lat="43.34822" lon="5.66034">
        <ele>275</ele>
        <time>2019-01-18T15:01:19.000Z</time>
      </trkpt>
      <trkpt lat="43.34822" lon="5.66034">
        <ele>275</ele>
        <time>2019-01-18T15:01:20.000Z</time>
      </trkpt>
      <trkpt lat="43.34822" lon="5.66035">
        <ele>274</ele>
        <time>2019-01-18T15:01:21.000Z</time>
      </trkpt>
      <trkpt lat="43.34823" lon="5.66035">
        <ele>274</ele>
        <time>2019-01-18T15:01:22.000Z</time>
      </trkpt>
      <trkpt lat="43.34823" lon="5.66035">
        <ele>274</ele>
        <time>2019-01-18T15:01:23.000Z</time>
      </trkpt>
      <trkpt lat="43.34823" lon="5.66035">
        <ele>274</ele>
        <time>2019-01-18T15:01:24.000Z</time>
      </trkpt>
      <trkpt lat="43.34824" lon="5.66036">
        <ele>274</ele>
        <time>2019-01-18T15:01:25.000Z</time>
      </trkpt>
      <trkpt lat="43.34825" lon="5.66036">
        <ele>273</ele>
        <time>2019-01-18T15:01:26.000Z</time>
      </trkpt>
      <trkpt lat="43.34825" lon="5.66037">
        <ele>273</ele>
        <time>2019-01-18T15:01:27.000Z</time>
      </trkpt>
      <trkpt lat="43.34826" lon="5.66037">
        <ele>273</ele>
        <time>2019-01-18T15:01:28.000Z</time>
      </trkpt>
      <trkpt lat="43.34827" lon="5.66037">
        <ele>273</ele>
        <time>2019-01-18T15:01:29.000Z</time>
      </trkpt>
      <trkpt lat="43.34827" lon="5.66038">
        <ele>272</ele>
        <time>2019-01-18T15:01:30.000Z</time>
      </trkpt>
      <trkpt lat="43.34828" lon="5.66038">
        <ele>272</ele>
        <time>2019-01-18T15:01:31.000Z</time>
      </trkpt>
      <trkpt lat="43.34828" lon="5.66039">
        <ele>272</ele>
        <time>2019-01-18T15:01:32.000Z</time>
      </trkpt>
      <trkpt lat="43.34829" lon="5.66039">
        <ele>272</ele>
        <time>2019-01-18T15:01:33.000Z</time>
      </trkpt>
      <trkpt lat="43.34829" lon="5.66039">
        <ele>272</ele>
        <time>2019-01-18T15:01:34.000Z</time>
      </trkpt>
      <trkpt lat="43.3483" lon="5.66039">
        <ele>271</ele>
        <time>2019-01-18T15:01:35.000Z</time>
      </trkpt>
      <trkpt lat="43.34831" lon="5.66039">
        <ele>271</ele>
        <time>2019-01-18T15:01:36.000Z</time>
      </trkpt>
      <trkpt lat="43.34831" lon="5.66039">
        <ele>271</ele>
        <time>2019-01-18T15:01:37.000Z</time>
      </trkpt>
      <trkpt lat="43.34832" lon="5.6604">
        <ele>271</ele>
        <time>2019-01-18T15:01:38.000Z</time>
      </trkpt>
      <trkpt lat="43.34832" lon="5.6604">
        <ele>271</ele>
        <time>2019-01-18T15:01:39.000Z</time>
      </trkpt>
      <trkpt lat="43.34833" lon="5.6604">
        <ele>271</ele>
        <time>2019-01-18T15:01:40.000Z</time>
      </trkpt>
      <trkpt lat="43.34834" lon="5.66041">
        <ele>271</ele>
        <time>2019-01-18T15:01:41.000Z</time>
      </trkpt>
      <trkpt lat="43.34834" lon="5.66041">
        <ele>271</ele>
        <time>2019-01-18T15:01:42.000Z</time>
      </trkpt>
      <trkpt lat="43.34835" lon="5.66042">
        <ele>271</ele>
        <time>2019-01-18T15:01:43.000Z</time>
      </trkpt>
      <trkpt lat="43.34836" lon="5.66042">
        <ele>271</ele>
        <time>2019-01-18T15:01:44.000Z</time>
      </trkpt>
      <trkpt lat="43.34836" lon="5.66043">
        <ele>271</ele>
        <time>2019-01-18T15:01:45.000Z</time>
      </trkpt>
      <trkpt lat="43.34837" lon="5.66043">
        <ele>271</ele>
        <time>2019-01-18T15:01:46.000Z</time>
      </trkpt>
      <trkpt lat="43.34838" lon="5.66044">
        <ele>271</ele>
        <time>2019-01-18T15:01:47.000Z</time>
      </trkpt>
      <trkpt lat="43.34839" lon="5.66045">
        <ele>270</ele>
        <time>2019-01-18T15:01:48.000Z</time>
      </trkpt>
      <trkpt lat="43.3484" lon="5.66045">
        <ele>270</ele>
        <time>2019-01-18T15:01:49.000Z</time>
      </trkpt>
      <trkpt lat="43.3484" lon="5.66046">
        <ele>270</ele>
        <time>2019-01-18T15:01:50.000Z</time>
      </trkpt>
      <trkpt lat="43.34842" lon="5.66046">
        <ele>270</ele>
        <time>2019-01-18T15:01:51.000Z</time>
      </trkpt>
      <trkpt lat="43.34843" lon="5.66046">
        <ele>270</ele>
        <time>2019-01-18T15:01:52.000Z</time>
      </trkpt>
      <trkpt lat="43.34844" lon="5.66046">
        <ele>270</ele>
        <time>2019-01-18T15:01:53.000Z</time>
      </trkpt>
      <trkpt lat="43.34844" lon="5.66046">
        <ele>270</ele>
        <time>2019-01-18T15:01:54.000Z</time>
      </trkpt>
      <trkpt lat="43.34845" lon="5.66046">
        <ele>270</ele>
        <time>2019-01-18T15:01:55.000Z</time>
      </trkpt>
      <trkpt lat="43.34846" lon="5.66045">
        <ele>269</ele>
        <time>2019-01-18T15:01:56.000Z</time>
      </trkpt>
      <trkpt lat="43.34846" lon="5.66045">
        <ele>269</ele>
        <time>2019-01-18T15:01:57.000Z</time>
      </trkpt>
      <trkpt lat="43.34847" lon="5.66044">
        <ele>269</ele>
        <time>2019-01-18T15:01:58.000Z</time>
      </trkpt>
      <trkpt lat="43.34847" lon="5.66044">
        <ele>269</ele>
        <time>2019-01-18T15:01:59.000Z</time>
      </trkpt>
      <trkpt lat="43.34848" lon="5.66043">
        <ele>269</ele>
        <time>2019-01-18T15:02:00.000Z</time>
      </trkpt>
      <trkpt lat="43.34848" lon="5.66043">
        <ele>269</ele>
        <time>2019-01-18T15:02:01.000Z</time>
      </trkpt>
      <trkpt lat="43.34849" lon="5.66042">
        <ele>269</ele>
        <time>2019-01-18T15:02:02.000Z</time>
      </trkpt>
      <trkpt lat="43.34849" lon="5.66042">
        <ele>268</ele>
        <time>2019-01-18T15:02:03.000Z</time>
      </trkpt>
      <trkpt lat="43.3485" lon="5.66041">
        <ele>268</ele>
        <time>2019-01-18T15:02:04.000Z</time>
      </trkpt>
      <trkpt lat="43.3485" lon="5.66041">
        <ele>268</ele>
        <time>2019-01-18T15:02:05.000Z</time>
      </trkpt>
      <trkpt lat="43.34851" lon="5.6604">
        <ele>268</ele>
        <time>2019-01-18T15:02:06.000Z</time>
      </trkpt>
      <trkpt lat="43.34852" lon="5.66039">
        <ele>268</ele>
        <time>2019-01-18T15:02:07.000Z</time>
      </trkpt>
      <trkpt lat="43.34852" lon="5.66038">
        <ele>268</ele>
        <time>2019-01-18T15:02:08.000Z</time>
      </trkpt>
      <trkpt lat="43.34853" lon="5.66038">
        <ele>268</ele>
        <time>2019-01-18T15:02:09.000Z</time>
      </trkpt>
      <trkpt lat="43.34854" lon="5.66037">
        <ele>268</ele>
        <time>2019-01-18T15:02:10.000Z</time>
      </trkpt>
      <trkpt lat="43.34855" lon="5.66037">
        <ele>268</ele>
        <time>2019-01-18T15:02:11.000Z</time>
      </trkpt>
      <trkpt lat="43.34856" lon="5.66036">
        <ele>268</ele>
        <time>2019-01-18T15:02:12.000Z</time>
      </trkpt>
      <trkpt lat="43.34856" lon="5.66036">
        <ele>268</ele>
        <time>2019-01-18T15:02:13.000Z</time>
      </trkpt>
      <trkpt lat="43.34857" lon="5.66036">
        <ele>268</ele>
        <time>2019-01-18T15:02:14.000Z</time>
      </trkpt>
      <trkpt lat="43.34858" lon="5.66037">
        <ele>268</ele>
        <time>2019-01-18T15:02:15.000Z</time>
      </trkpt>
      <trkpt lat="43.34859" lon="5.66037">
        <ele>268</ele>
        <time>2019-01-18T15:02:16.000Z</time>
      </trkpt>
      <trkpt lat="43.3486" lon="5.66038">
        <ele>268</ele>
        <time>2019-01-18T15:02:17.000Z</time>
      </trkpt>
      <trkpt lat="43.34861" lon="5.66038">
        <ele>268</ele>
        <time>2019-01-18T15:02:18.000Z</time>
      </trkpt>
      <trkpt lat="43.34862" lon="5.66038">
        <ele>268</ele>
        <time>2019-01-18T15:02:19.000Z</time>
      </trkpt>
      <trkpt lat="43.34863" lon="5.66039">
        <ele>268</ele>
        <time>2019-01-18T15:02:20.000Z</time>
      </trkpt>
      <trkpt lat="43.34864" lon="5.66039">
        <ele>268</ele>
        <time>2019-01-18T15:02:21.000Z</time>
      </trkpt>
      <trkpt lat="43.34865" lon="5.6604">
        <ele>268</ele>
        <time>2019-01-18T15:02:22.000Z</time>
      </trkpt>
      <trkpt lat="43.34866" lon="5.6604">
        <ele>268</ele>
        <time>2019-01-18T15:02:23.000Z</time>
      </trkpt>
      <trkpt lat="43.34867" lon="5.66041">
        <ele>268</ele>
        <time>2019-01-18T15:02:24.000Z</time>
      </trkpt>
      <trkpt lat="43.34868" lon="5.66041">
        <ele>268</ele>
        <time>2019-01-18T15:02:25.000Z</time>
      </trkpt>
      <trkpt lat="43.34869" lon="5.66042">
        <ele>268</ele>
        <time>2019-01-18T15:02:26.000Z</time>
      </trkpt>
      <trkpt lat="43.34871" lon="5.66042">
        <ele>268</ele>
        <time>2019-01-18T15:02:27.000Z</time>
      </trkpt>
      <trkpt lat="43.34872" lon="5.66043">
        <ele>268</ele>
        <time>2019-01-18T15:02:28.000Z</time>
      </trkpt>
      <trkpt lat="43.34873" lon="5.66044">
        <ele>268</ele>
        <time>2019-01-18T15:02:29.000Z</time>
      </trkpt>
      <trkpt lat="43.34874" lon="5.66045">
        <ele>268</ele>
        <time>2019-01-18T15:02:30.000Z</time>
      </trkpt>
      <trkpt lat="43.34875" lon="5.66045">
        <ele>268</ele>
        <time>2019-01-18T15:02:31.000Z</time>
      </trkpt>
      <trkpt lat="43.34877" lon="5.66046">
        <ele>268</ele>
        <time>2019-01-18T15:02:32.000Z</time>
      </trkpt>
      <trkpt lat="43.34878" lon="5.66047">
        <ele>267</ele>
        <time>2019-01-18T15:02:33.000Z</time>
      </trkpt>
      <trkpt lat="43.34879" lon="5.66047">
        <ele>267</ele>
        <time>2019-01-18T15:02:34.000Z</time>
      </trkpt>
      <trkpt lat="43.3488" lon="5.66047">
        <ele>267</ele>
        <time>2019-01-18T15:02:35.000Z</time>
      </trkpt>
      <trkpt lat="43.34881" lon="5.66047">
        <ele>267</ele>
        <time>2019-01-18T15:02:36.000Z</time>
      </trkpt>
      <trkpt lat="43.34882" lon="5.66048">
        <ele>267</ele>
        <time>2019-01-18T15:02:37.000Z</time>
      </trkpt>
      <trkpt lat="43.34883" lon="5.66048">
        <ele>267</ele>
        <time>2019-01-18T15:02:38.000Z</time>
      </trkpt>
      <trkpt lat="43.34884" lon="5.66049">
        <ele>267</ele>
        <time>2019-01-18T15:02:39.000Z</time>
      </trkpt>
      <trkpt lat="43.34885" lon="5.66049">
        <ele>267</ele>
        <time>2019-01-18T15:02:40.000Z</time>
      </trkpt>
      <trkpt lat="43.34886" lon="5.6605">
        <ele>267</ele>
        <time>2019-01-18T15:02:41.000Z</time>
      </trkpt>
      <trkpt lat="43.34886" lon="5.66051">
        <ele>267</ele>
        <time>2019-01-18T15:02:42.000Z</time>
      </trkpt>
      <trkpt lat="43.34887" lon="5.66051">
        <ele>267</ele>
        <time>2019-01-18T15:02:43.000Z</time>
      </trkpt>
      <trkpt lat="43.34888" lon="5.66051">
        <ele>267</ele>
        <time>2019-01-18T15:02:44.000Z</time>
      </trkpt>
      <trkpt lat="43.34888" lon="5.66051">
        <ele>267</ele>
        <time>2019-01-18T15:02:45.000Z</time>
      </trkpt>
      <trkpt lat="43.34889" lon="5.66052">
        <ele>267</ele>
        <time>2019-01-18T15:02:46.000Z</time>
      </trkpt>
      <trkpt lat="43.34889" lon="5.66052">
        <ele>267</ele>
        <time>2019-01-18T15:02:47.000Z</time>
      </trkpt>
      <trkpt lat="43.3489" lon="5.66052">
        <ele>267</ele>
        <time>2019-01-18T15:02:48.000Z</time>
      </trkpt>
      <trkpt lat="43.34891" lon="5.66052">
        <ele>267</ele>
        <time>2019-01-18T15:02:49.000Z</time>
      </trkpt>
      <trkpt lat="43.34892" lon="5.66052">
        <ele>267</ele>
        <time>2019-01-18T15:02:50.000Z</time>
      </trkpt>
      <trkpt lat="43.34893" lon="5.66053">
        <ele>267</ele>
        <time>2019-01-18T15:02:51.000Z</time>
      </trkpt>
      <trkpt lat="43.34894" lon="5.66053">
        <ele>267</ele>
        <time>2019-01-18T15:02:52.000Z</time>
      </trkpt>
      <trkpt lat="43.34895" lon="5.66054">
        <ele>267</ele>
        <time>2019-01-18T15:02:53.000Z</time>
      </trkpt>
      <trkpt lat="43.34896" lon="5.66054">
        <ele>267</ele>
        <time>2019-01-18T15:02:54.000Z</time>
      </trkpt>
      <trkpt lat="43.34897" lon="5.66055">
        <ele>267</ele>
        <time>2019-01-18T15:02:55.000Z</time>
      </trkpt>
      <trkpt lat="43.34898" lon="5.66055">
        <ele>266</ele>
        <time>2019-01-18T15:02:56.000Z</time>
      </trkpt>
      <trkpt lat="43.34899" lon="5.66056">
        <ele>266</ele>
        <time>2019-01-18T15:02:57.000Z</time>
      </trkpt>
      <trkpt lat="43.349" lon="5.66056">
        <ele>266</ele>
        <time>2019-01-18T15:02:58.000Z</time>
      </trkpt>
      <trkpt lat="43.34901" lon="5.66056">
        <ele>266</ele>
        <time>2019-01-18T15:02:59.000Z</time>
      </trkpt>
      <trkpt lat="43.34902" lon="5.66057">
        <ele>266</ele>
        <time>2019-01-18T15:03:00.000Z</time>
      </trkpt>
      <trkpt lat="43.34903" lon="5.66057">
        <ele>266</ele>
        <time>2019-01-18T15:03:01.000Z</time>
      </trkpt>
      <trkpt lat="43.34903" lon="5.66058">
        <ele>266</ele>
        <time>2019-01-18T15:03:02.000Z</time>
      </trkpt>
      <trkpt lat="43.34904" lon="5.66058">
        <ele>266</ele>
        <time>2019-01-18T15:03:03.000Z</time>
      </trkpt>
      <trkpt lat="43.34905" lon="5.66059">
        <ele>266</ele>
        <time>2019-01-18T15:03:04.000Z</time>
      </trkpt>
      <trkpt lat="43.34906" lon="5.66059">
        <ele>266</ele>
        <time>2019-01-18T15:03:05.000Z</time>
      </trkpt>
      <trkpt lat="43.34906" lon="5.6606">
        <ele>266</ele>
        <time>2019-01-18T15:03:06.000Z</time>
      </trkpt>
      <trkpt lat="43.34907" lon="5.6606">
        <ele>266</ele>
        <time>2019-01-18T15:03:07.000Z</time>
      </trkpt>
      <trkpt lat="43.34908" lon="5.6606">
        <ele>266</ele>
        <time>2019-01-18T15:03:08.000Z</time>
      </trkpt>
      <trkpt lat="43.34909" lon="5.6606">
        <ele>266</ele>
        <time>2019-01-18T15:03:09.000Z</time>
      </trkpt>
      <trkpt lat="43.3491" lon="5.6606">
        <ele>266</ele>
        <time>2019-01-18T15:03:10.000Z</time>
      </trkpt>
      <trkpt lat="43.34911" lon="5.6606">
        <ele>266</ele>
        <time>2019-01-18T15:03:11.000Z</time>
      </trkpt>
      <trkpt lat="43.34912" lon="5.66061">
        <ele>266</ele>
        <time>2019-01-18T15:03:12.000Z</time>
      </trkpt>
      <trkpt lat="43.34913" lon="5.66061">
        <ele>265</ele>
        <time>2019-01-18T15:03:13.000Z</time>
      </trkpt>
      <trkpt lat="43.34914" lon="5.66061">
        <ele>265</ele>
        <time>2019-01-18T15:03:14.000Z</time>
      </trkpt>
      <trkpt lat="43.34915" lon="5.66062">
        <ele>265</ele>
        <time>2019-01-18T15:03:15.000Z</time>
      </trkpt>
      <trkpt lat="43.34916" lon="5.66062">
        <ele>265</ele>
        <time>2019-01-18T15:03:16.000Z</time>
      </trkpt>
      <trkpt lat="43.34917" lon="5.66063">
        <ele>265</ele>
        <time>2019-01-18T15:03:17.000Z</time>
      </trkpt>
      <trkpt lat="43.34918" lon="5.66063">
        <ele>265</ele>
        <time>2019-01-18T15:03:18.000Z</time>
      </trkpt>
      <trkpt lat="43.34919" lon="5.66063">
        <ele>265</ele>
        <time>2019-01-18T15:03:19.000Z</time>
      </trkpt>
      <trkpt lat="43.3492" lon="5.66064">
        <ele>265</ele>
        <time>2019-01-18T15:03:20.000Z</time>
      </trkpt>
      <trkpt lat="43.34921" lon="5.66064">
        <ele>266</ele>
        <time>2019-01-18T15:03:21.000Z</time>
      </trkpt>
      <trkpt lat="43.34921" lon="5.66064">
        <ele>266</ele>
        <time>2019-01-18T15:03:22.000Z</time>
      </trkpt>
      <trkpt lat="43.34922" lon="5.66064">
        <ele>265</ele>
        <time>2019-01-18T15:03:23.000Z</time>
      </trkpt>
      <trkpt lat="43.34922" lon="5.66064">
        <ele>265</ele>
        <time>2019-01-18T15:03:24.000Z</time>
      </trkpt>
      <trkpt lat="43.34922" lon="5.66064">
        <ele>265</ele>
        <time>2019-01-18T15:03:25.000Z</time>
      </trkpt>
      <trkpt lat="43.34923" lon="5.66064">
        <ele>265</ele>
        <time>2019-01-18T15:03:26.000Z</time>
      </trkpt>
      <trkpt lat="43.34923" lon="5.66064">
        <ele>265</ele>
        <time>2019-01-18T15:03:27.000Z</time>
      </trkpt>
      <trkpt lat="43.34923" lon="5.66063">
        <ele>266</ele>
        <time>2019-01-18T15:03:28.000Z</time>
      </trkpt>
      <trkpt lat="43.34923" lon="5.66064">
        <ele>266</ele>
        <time>2019-01-18T15:03:29.000Z</time>
      </trkpt>
      <trkpt lat="43.34924" lon="5.66064">
        <ele>266</ele>
        <time>2019-01-18T15:03:30.000Z</time>
      </trkpt>
      <trkpt lat="43.34924" lon="5.66064">
        <ele>266</ele>
        <time>2019-01-18T15:03:31.000Z</time>
      </trkpt>
      <trkpt lat="43.34924" lon="5.66064">
        <ele>266</ele>
        <time>2019-01-18T15:03:32.000Z</time>
      </trkpt>
      <trkpt lat="43.34925" lon="5.66064">
        <ele>266</ele>
        <time>2019-01-18T15:03:33.000Z</time>
      </trkpt>
      <trkpt lat="43.34925" lon="5.66064">
        <ele>266</ele>
        <time>2019-01-18T15:03:34.000Z</time>
      </trkpt>
      <trkpt lat="43.34925" lon="5.66064">
        <ele>266</ele>
        <time>2019-01-18T15:03:35.000Z</time>
      </trkpt>
      <trkpt lat="43.34925" lon="5.66065">
        <ele>266</ele>
        <time>2019-01-18T15:03:36.000Z</time>
      </trkpt>
      <trkpt lat="43.34925" lon="5.66065">
        <ele>266</ele>
        <time>2019-01-18T15:03:37.000Z</time>
      </trkpt>
      <trkpt lat="43.34925" lon="5.66065">
        <ele>266</ele>
        <time>2019-01-18T15:03:38.000Z</time>
      </trkpt>
      <trkpt lat="43.34925" lon="5.66066">
        <ele>266</ele>
        <time>2019-01-18T15:03:39.000Z</time>
      </trkpt>
      <trkpt lat="43.34926" lon="5.66066">
        <ele>266</ele>
        <time>2019-01-18T15:03:40.000Z</time>
      </trkpt>
      <trkpt lat="43.34926" lon="5.66067">
        <ele>266</ele>
        <time>2019-01-18T15:03:41.000Z</time>
      </trkpt>
      <trkpt lat="43.34927" lon="5.66067">
        <ele>266</ele>
        <time>2019-01-18T15:03:42.000Z</time>
      </trkpt>
      <trkpt lat="43.34928" lon="5.66067">
        <ele>266</ele>
        <time>2019-01-18T15:03:43.000Z</time>
      </trkpt>
      <trkpt lat="43.34929" lon="5.66067">
        <ele>266</ele>
        <time>2019-01-18T15:03:44.000Z</time>
      </trkpt>
      <trkpt lat="43.3493" lon="5.66067">
        <ele>266</ele>
        <time>2019-01-18T15:03:45.000Z</time>
      </trkpt>
      <trkpt lat="43.34931" lon="5.66068">
        <ele>265</ele>
        <time>2019-01-18T15:03:46.000Z</time>
      </trkpt>
      <trkpt lat="43.34931" lon="5.66068">
        <ele>265</ele>
        <time>2019-01-18T15:03:47.000Z</time>
      </trkpt>
      <trkpt lat="43.34932" lon="5.66068">
        <ele>265</ele>
        <time>2019-01-18T15:03:48.000Z</time>
      </trkpt>
      <trkpt lat="43.34933" lon="5.66068">
        <ele>265</ele>
        <time>2019-01-18T15:03:49.000Z</time>
      </trkpt>
      <trkpt lat="43.34933" lon="5.66068">
        <ele>265</ele>
        <time>2019-01-18T15:03:50.000Z</time>
      </trkpt>
      <trkpt lat="43.34934" lon="5.66068">
        <ele>265</ele>
        <time>2019-01-18T15:03:51.000Z</time>
      </trkpt>
      <trkpt lat="43.34934" lon="5.66068">
        <ele>265</ele>
        <time>2019-01-18T15:03:52.000Z</time>
      </trkpt>
      <trkpt lat="43.34934" lon="5.66067">
        <ele>265</ele>
        <time>2019-01-18T15:03:53.000Z</time>
      </trkpt>
      <trkpt lat="43.34935" lon="5.66067">
        <ele>264</ele>
        <time>2019-01-18T15:03:54.000Z</time>
      </trkpt>
      <trkpt lat="43.34936" lon="5.66067">
        <ele>264</ele>
        <time>2019-01-18T15:03:55.000Z</time>
      </trkpt>
      <trkpt lat="43.34936" lon="5.66066">
        <ele>264</ele>
        <time>2019-01-18T15:03:56.000Z</time>
      </trkpt>
      <trkpt lat="43.34937" lon="5.66066">
        <ele>264</ele>
        <time>2019-01-18T15:03:57.000Z</time>
      </trkpt>
      <trkpt lat="43.34938" lon="5.66065">
        <ele>264</ele>
        <time>2019-01-18T15:03:58.000Z</time>
      </trkpt>
      <trkpt lat="43.34938" lon="5.66065">
        <ele>264</ele>
        <time>2019-01-18T15:03:59.000Z</time>
      </trkpt>
      <trkpt lat="43.34938" lon="5.66064">
        <ele>263</ele>
        <time>2019-01-18T15:04:00.000Z</time>
      </trkpt>
      <trkpt lat="43.34938" lon="5.66063">
        <ele>263</ele>
        <time>2019-01-18T15:04:01.000Z</time>
      </trkpt>
      <trkpt lat="43.34938" lon="5.66062">
        <ele>263</ele>
        <time>2019-01-18T15:04:02.000Z</time>
      </trkpt>
      <trkpt lat="43.34938" lon="5.66062">
        <ele>263</ele>
        <time>2019-01-18T15:04:03.000Z</time>
      </trkpt>
      <trkpt lat="43.34938" lon="5.66061">
        <ele>263</ele>
        <time>2019-01-18T15:04:04.000Z</time>
      </trkpt>
      <trkpt lat="43.34938" lon="5.66061">
        <ele>262</ele>
        <time>2019-01-18T15:04:05.000Z</time>
      </trkpt>
      <trkpt lat="43.34938" lon="5.66061">
        <ele>262</ele>
        <time>2019-01-18T15:04:06.000Z</time>
      </trkpt>
      <trkpt lat="43.34938" lon="5.66061">
        <ele>262</ele>
        <time>2019-01-18T15:04:07.000Z</time>
      </trkpt>
      <trkpt lat="43.34939" lon="5.66061">
        <ele>262</ele>
        <time>2019-01-18T15:04:08.000Z</time>
      </trkpt>
      <trkpt lat="43.34939" lon="5.66061">
        <ele>262</ele>
        <time>2019-01-18T15:04:09.000Z</time>
      </trkpt>
      <trkpt lat="43.34939" lon="5.66061">
        <ele>261</ele>
        <time>2019-01-18T15:04:10.000Z</time>
      </trkpt>
      <trkpt lat="43.34939" lon="5.66061">
        <ele>261</ele>
        <time>2019-01-18T15:04:11.000Z</time>
      </trkpt>
      <trkpt lat="43.34939" lon="5.66061">
        <ele>261</ele>
        <time>2019-01-18T15:04:12.000Z</time>
      </trkpt>
      <trkpt lat="43.3494" lon="5.66061">
        <ele>261</ele>
        <time>2019-01-18T15:04:13.000Z</time>
      </trkpt>
      <trkpt lat="43.3494" lon="5.66062">
        <ele>260</ele>
        <time>2019-01-18T15:04:14.000Z</time>
      </trkpt>
      <trkpt lat="43.34941" lon="5.66062">
        <ele>260</ele>
        <time>2019-01-18T15:04:15.000Z</time>
      </trkpt>
      <trkpt lat="43.34941" lon="5.66062">
        <ele>260</ele>
        <time>2019-01-18T15:04:16.000Z</time>
      </trkpt>
      <trkpt lat="43.34942" lon="5.66062">
        <ele>260</ele>
        <time>2019-01-18T15:04:17.000Z</time>
      </trkpt>
      <trkpt lat="43.34942" lon="5.66063">
        <ele>260</ele>
        <time>2019-01-18T15:04:18.000Z</time>
      </trkpt>
      <trkpt lat="43.34942" lon="5.66063">
        <ele>259</ele>
        <time>2019-01-18T15:04:19.000Z</time>
      </trkpt>
      <trkpt lat="43.34942" lon="5.66063">
        <ele>259</ele>
        <time>2019-01-18T15:04:20.000Z</time>
      </trkpt>
      <trkpt lat="43.34942" lon="5.66063">
        <ele>259</ele>
        <time>2019-01-18T15:04:21.000Z</time>
      </trkpt>
      <trkpt lat="43.34942" lon="5.66063">
        <ele>259</ele>
        <time>2019-01-18T15:04:22.000Z</time>
      </trkpt>
      <trkpt lat="43.34942" lon="5.66063">
        <ele>259</ele>
        <time>2019-01-18T15:04:23.000Z</time>
      </trkpt>
      <trkpt lat="43.34942" lon="5.66063">
        <ele>258</ele>
        <time>2019-01-18T15:04:24.000Z</time>
      </trkpt>
      <trkpt lat="43.34942" lon="5.66063">
        <ele>258</ele>
        <time>2019-01-18T15:04:25.000Z</time>
      </trkpt>
      <trkpt lat="43.34942" lon="5.66063">
        <ele>258</ele>
        <time>2019-01-18T15:04:26.000Z</time>
      </trkpt>
      <trkpt lat="43.34942" lon="5.66064">
        <ele>258</ele>
        <time>2019-01-18T15:04:27.000Z</time>
      </trkpt>
      <trkpt lat="43.34941" lon="5.66064">
        <ele>258</ele>
        <time>2019-01-18T15:04:28.000Z</time>
      </trkpt>
      <trkpt lat="43.34941" lon="5.66064">
        <ele>257</ele>
        <time>2019-01-18T15:04:29.000Z</time>
      </trkpt>
      <trkpt lat="43.34941" lon="5.66064">
        <ele>257</ele>
        <time>2019-01-18T15:04:30.000Z</time>
      </trkpt>
      <trkpt lat="43.34941" lon="5.66064">
        <ele>257</ele>
        <time>2019-01-18T15:04:31.000Z</time>
      </trkpt>
      <trkpt lat="43.34941" lon="5.66064">
        <ele>257</ele>
        <time>2019-01-18T15:04:32.000Z</time>
      </trkpt>
      <trkpt lat="43.34941" lon="5.66064">
        <ele>257</ele>
        <time>2019-01-18T15:04:33.000Z</time>
      </trkpt>
      <trkpt lat="43.34941" lon="5.66064">
        <ele>257</ele>
        <time>2019-01-18T15:04:34.000Z</time>
      </trkpt>
      <trkpt lat="43.34941" lon="5.66064">
        <ele>257</ele>
        <time>2019-01-18T15:04:35.000Z</time>
      </trkpt>
      <trkpt lat="43.34941" lon="5.66063">
        <ele>256</ele>
        <time>2019-01-18T15:04:36.000Z</time>
      </trkpt>
      <trkpt lat="43.34941" lon="5.66063">
        <ele>256</ele>
        <time>2019-01-18T15:04:37.000Z</time>
      </trkpt>
      <trkpt lat="43.34941" lon="5.66063">
        <ele>256</ele>
        <time>2019-01-18T15:04:38.000Z</time>
      </trkpt>
      <trkpt lat="43.34941" lon="5.66063">
        <ele>256</ele>
        <time>2019-01-18T15:04:39.000Z</time>
      </trkpt>
      <trkpt lat="43.34941" lon="5.66064">
        <ele>256</ele>
        <time>2019-01-18T15:04:40.000Z</time>
      </trkpt>
      <trkpt lat="43.34941" lon="5.66064">
        <ele>256</ele>
        <time>2019-01-18T15:04:41.000Z</time>
      </trkpt>
      <trkpt lat="43.3494" lon="5.66064">
        <ele>256</ele>
        <time>2019-01-18T15:04:42.000Z</time>
      </trkpt>
      <trkpt lat="43.3494" lon="5.66064">
        <ele>256</ele>
        <time>2019-01-18T15:04:43.000Z</time>
      </trkpt>
      <trkpt lat="43.3494" lon="5.66064">
        <ele>256</ele>
        <time>2019-01-18T15:04:44.000Z</time>
      </trkpt>
      <trkpt lat="43.3494" lon="5.66064">
        <ele>255</ele>
        <time>2019-01-18T15:04:45.000Z</time>
      </trkpt>
      <trkpt lat="43.3494" lon="5.66064">
        <ele>255</ele>
        <time>2019-01-18T15:04:46.000Z</time>
      </trkpt>
      <trkpt lat="43.3494" lon="5.66064">
        <ele>255</ele>
        <time>2019-01-18T15:04:47.000Z</time>
      </trkpt>
      <trkpt lat="43.3494" lon="5.66064">
        <ele>255</ele>
        <time>2019-01-18T15:04:48.000Z</time>
      </trkpt>
      <trkpt lat="43.3494" lon="5.66064">
        <ele>255</ele>
        <time>2019-01-18T15:04:49.000Z</time>
      </trkpt>
      <trkpt lat="43.3494" lon="5.66064">
        <ele>255</ele>
        <time>2019-01-18T15:04:50.000Z</time>
      </trkpt>
      <trkpt lat="43.3494" lon="5.66064">
        <ele>255</ele>
        <time>2019-01-18T15:04:51.000Z</time>
      </trkpt>
      <trkpt lat="43.3494" lon="5.66064">
        <ele>255</ele>
        <time>2019-01-18T15:04:52.000Z</time>
      </trkpt>
      <trkpt lat="43.3494" lon="5.66064">
        <ele>255</ele>
        <time>2019-01-18T15:04:53.000Z</time>
      </trkpt>
      <trkpt lat="43.3494" lon="5.66064">
        <ele>255</ele>
        <time>2019-01-18T15:04:54.000Z</time>
      </trkpt>
      <trkpt lat="43.3494" lon="5.66064">
        <ele>255</ele>
        <time>2019-01-18T15:04:55.000Z</time>
      </trkpt>
      <trkpt lat="43.3494" lon="5.66064">
        <ele>255</ele>
        <time>2019-01-18T15:04:56.000Z</time>
      </trkpt>
      <trkpt lat="43.3494" lon="5.66064">
        <ele>255</ele>
        <time>2019-01-18T15:04:57.000Z</time>
      </trkpt>
      <trkpt lat="43.3494" lon="5.66064">
        <ele>255</ele>
        <time>2019-01-18T15:04:58.000Z</time>
      </trkpt>
      <trkpt lat="43.3494" lon="5.66064">
        <ele>255</ele>
        <time>2019-01-18T15:04:59.000Z</time>
      </trkpt>
      <trkpt lat="43.3494" lon="5.66064">
        <ele>255</ele>
        <time>2019-01-18T15:05:00.000Z</time>
      </trkpt>
      <trkpt lat="43.34941" lon="5.66064">
        <ele>255</ele>
        <time>2019-01-18T15:05:01.000Z</time>
      </trkpt>
      <trkpt lat="43.3494" lon="5.66064">
        <ele>255</ele>
        <time>2019-01-18T15:05:02.000Z</time>
      </trkpt>
      <trkpt lat="43.3494" lon="5.66064">
        <ele>255</ele>
        <time>2019-01-18T15:05:03.000Z</time>
      </trkpt>
      <trkpt lat="43.3494" lon="5.66064">
        <ele>255</ele>
        <time>2019-01-18T15:05:04.000Z</time>
      </trkpt>
      <trkpt lat="43.3494" lon="5.66064">
        <ele>255</ele>
        <time>2019-01-18T15:05:05.000Z</time>
      </trkpt>
      <trkpt lat="43.3494" lon="5.66064">
        <ele>255</ele>
        <time>2019-01-18T15:05:06.000Z</time>
      </trkpt>
      <trkpt lat="43.3494" lon="5.66064">
        <ele>255</ele>
        <time>2019-01-18T15:05:07.000Z</time>
      </trkpt>
      <trkpt lat="43.3494" lon="5.66064">
        <ele>255</ele>
        <time>2019-01-18T15:05:08.000Z</time>
      </trkpt>
      <trkpt lat="43.3494" lon="5.66064">
        <ele>255</ele>
        <time>2019-01-18T15:05:09.000Z</time>
      </trkpt>
      <trkpt lat="43.3494" lon="5.66064">
        <ele>255</ele>
        <time>2019-01-18T15:05:10.000Z</time>
      </trkpt>
      <trkpt lat="43.34941" lon="5.66064">
        <ele>255</ele>
        <time>2019-01-18T15:05:11.000Z</time>
      </trkpt>
      <trkpt lat="43.34941" lon="5.66064">
        <ele>255</ele>
        <time>2019-01-18T15:05:12.000Z</time>
      </trkpt>
      <trkpt lat="43.34941" lon="5.66064">
        <ele>255</ele>
        <time>2019-01-18T15:05:13.000Z</time>
      </trkpt>
      <trkpt lat="43.34942" lon="5.66065">
        <ele>255</ele>
        <time>2019-01-18T15:05:14.000Z</time>
      </trkpt>
      <trkpt lat="43.34942" lon="5.66065">
        <ele>255</ele>
        <time>2019-01-18T15:05:15.000Z</time>
      </trkpt>
      <trkpt lat="43.34943" lon="5.66066">
        <ele>255</ele>
        <time>2019-01-18T15:05:16.000Z</time>
      </trkpt>
      <trkpt lat="43.34944" lon="5.66066">
        <ele>254</ele>
        <time>2019-01-18T15:05:17.000Z</time>
      </trkpt>
      <trkpt lat="43.34944" lon="5.66066">
        <ele>254</ele>
        <time>2019-01-18T15:05:18.000Z</time>
      </trkpt>
      <trkpt lat="43.34944" lon="5.66066">
        <ele>254</ele>
        <time>2019-01-18T15:05:19.000Z</time>
      </trkpt>
      <trkpt lat="43.34944" lon="5.66066">
        <ele>254</ele>
        <time>2019-01-18T15:05:20.000Z</time>
      </trkpt>
      <trkpt lat="43.34944" lon="5.66066">
        <ele>254</ele>
        <time>2019-01-18T15:05:21.000Z</time>
      </trkpt>
      <trkpt lat="43.34944" lon="5.66065">
        <ele>254</ele>
        <time>2019-01-18T15:05:22.000Z</time>
      </trkpt>
      <trkpt lat="43.34944" lon="5.66065">
        <ele>254</ele>
        <time>2019-01-18T15:05:23.000Z</time>
      </trkpt>
      <trkpt lat="43.34944" lon="5.66065">
        <ele>254</ele>
        <time>2019-01-18T15:05:24.000Z</time>
      </trkpt>
      <trkpt lat="43.34944" lon="5.66065">
        <ele>254</ele>
        <time>2019-01-18T15:05:25.000Z</time>
      </trkpt>
      <trkpt lat="43.34944" lon="5.66065">
        <ele>254</ele>
        <time>2019-01-18T15:05:26.000Z</time>
      </trkpt>
      <trkpt lat="43.34944" lon="5.66065">
        <ele>254</ele>
        <time>2019-01-18T15:05:27.000Z</time>
      </trkpt>
      <trkpt lat="43.34944" lon="5.66065">
        <ele>253</ele>
        <time>2019-01-18T15:05:28.000Z</time>
      </trkpt>
      <trkpt lat="43.34944" lon="5.66065">
        <ele>253</ele>
        <time>2019-01-18T15:05:29.000Z</time>
      </trkpt>
      <trkpt lat="43.34944" lon="5.66065">
        <ele>253</ele>
        <time>2019-01-18T15:05:30.000Z</time>
      </trkpt>
      <trkpt lat="43.34943" lon="5.66065">
        <ele>253</ele>
        <time>2019-01-18T15:05:31.000Z</time>
      </trkpt>
      <trkpt lat="43.34943" lon="5.66065">
        <ele>253</ele>
        <time>2019-01-18T15:05:32.000Z</time>
      </trkpt>
      <trkpt lat="43.34944" lon="5.66065">
        <ele>253</ele>
        <time>2019-01-18T15:05:33.000Z</time>
      </trkpt>
      <trkpt lat="43.34944" lon="5.66065">
        <ele>253</ele>
        <time>2019-01-18T15:05:34.000Z</time>
      </trkpt>
      <trkpt lat="43.34944" lon="5.66066">
        <ele>253</ele>
        <time>2019-01-18T15:05:35.000Z</time>
      </trkpt>
      <trkpt lat="43.34945" lon="5.66066">
        <ele>253</ele>
        <time>2019-01-18T15:05:36.000Z</time>
      </trkpt>
      <trkpt lat="43.34945" lon="5.66067">
        <ele>253</ele>
        <time>2019-01-18T15:05:37.000Z</time>
      </trkpt>
      <trkpt lat="43.34946" lon="5.66068">
        <ele>253</ele>
        <time>2019-01-18T15:05:38.000Z</time>
      </trkpt>
      <trkpt lat="43.34946" lon="5.66068">
        <ele>253</ele>
        <time>2019-01-18T15:05:39.000Z</time>
      </trkpt>
      <trkpt lat="43.34946" lon="5.66069">
        <ele>252</ele>
        <time>2019-01-18T15:05:40.000Z</time>
      </trkpt>
      <trkpt lat="43.34947" lon="5.66069">
        <ele>252</ele>
        <time>2019-01-18T15:05:41.000Z</time>
      </trkpt>
      <trkpt lat="43.34947" lon="5.66069">
        <ele>252</ele>
        <time>2019-01-18T15:05:42.000Z</time>
      </trkpt>
      <trkpt lat="43.34947" lon="5.66069">
        <ele>252</ele>
        <time>2019-01-18T15:05:43.000Z</time>
      </trkpt>
      <trkpt lat="43.34947" lon="5.66069">
        <ele>252</ele>
        <time>2019-01-18T15:05:44.000Z</time>
      </trkpt>
      <trkpt lat="43.34947" lon="5.66069">
        <ele>252</ele>
        <time>2019-01-18T15:05:45.000Z</time>
      </trkpt>
      <trkpt lat="43.34947" lon="5.66069">
        <ele>252</ele>
        <time>2019-01-18T15:05:46.000Z</time>
      </trkpt>
      <trkpt lat="43.34947" lon="5.66069">
        <ele>252</ele>
        <time>2019-01-18T15:05:47.000Z</time>
      </trkpt>
      <trkpt lat="43.34948" lon="5.66069">
        <ele>252</ele>
        <time>2019-01-18T15:05:48.000Z</time>
      </trkpt>
      <trkpt lat="43.34948" lon="5.6607">
        <ele>252</ele>
        <time>2019-01-18T15:05:49.000Z</time>
      </trkpt>
      <trkpt lat="43.34948" lon="5.6607">
        <ele>252</ele>
        <time>2019-01-18T15:05:50.000Z</time>
      </trkpt>
      <trkpt lat="43.34948" lon="5.6607">
        <ele>252</ele>
        <time>2019-01-18T15:05:51.000Z</time>
      </trkpt>
      <trkpt lat="43.34948" lon="5.6607">
        <ele>252</ele>
        <time>2019-01-18T15:05:52.000Z</time>
      </trkpt>
      <trkpt lat="43.34948" lon="5.6607">
        <ele>252</ele>
        <time>2019-01-18T15:05:53.000Z</time>
      </trkpt>
      <trkpt lat="43.34948" lon="5.6607">
        <ele>252</ele>
        <time>2019-01-18T15:05:54.000Z</time>
      </trkpt>
      <trkpt lat="43.34948" lon="5.66071">
        <ele>252</ele>
        <time>2019-01-18T15:05:55.000Z</time>
      </trkpt>
      <trkpt lat="43.34948" lon="5.66071">
        <ele>252</ele>
        <time>2019-01-18T15:05:56.000Z</time>
      </trkpt>
      <trkpt lat="43.34948" lon="5.66071">
        <ele>252</ele>
        <time>2019-01-18T15:05:57.000Z</time>
      </trkpt>
      <trkpt lat="43.34948" lon="5.66071">
        <ele>252</ele>
        <time>2019-01-18T15:05:58.000Z</time>
      </trkpt>
      <trkpt lat="43.34948" lon="5.66071">
        <ele>252</ele>
        <time>2019-01-18T15:05:59.000Z</time>
      </trkpt>
      <trkpt lat="43.34948" lon="5.66071">
        <ele>252</ele>
        <time>2019-01-18T15:06:00.000Z</time>
      </trkpt>
      <trkpt lat="43.34948" lon="5.66071">
        <ele>252</ele>
        <time>2019-01-18T15:06:01.000Z</time>
      </trkpt>
      <trkpt lat="43.34948" lon="5.66071">
        <ele>252</ele>
        <time>2019-01-18T15:06:02.000Z</time>
      </trkpt>
      <trkpt lat="43.34948" lon="5.66072">
        <ele>252</ele>
        <time>2019-01-18T15:06:03.000Z</time>
      </trkpt>
      <trkpt lat="43.34948" lon="5.66072">
        <ele>252</ele>
        <time>2019-01-18T15:06:04.000Z</time>
      </trkpt>
      <trkpt lat="43.34948" lon="5.66072">
        <ele>252</ele>
        <time>2019-01-18T15:06:05.000Z</time>
      </trkpt>
      <trkpt lat="43.34948" lon="5.66072">
        <ele>253</ele>
        <time>2019-01-18T15:06:06.000Z</time>
      </trkpt>
      <trkpt lat="43.34948" lon="5.66072">
        <ele>253</ele>
        <time>2019-01-18T15:06:07.000Z</time>
      </trkpt>
      <trkpt lat="43.34949" lon="5.66072">
        <ele>253</ele>
        <time>2019-01-18T15:06:08.000Z</time>
      </trkpt>
      <trkpt lat="43.34949" lon="5.66072">
        <ele>253</ele>
        <time>2019-01-18T15:06:09.000Z</time>
      </trkpt>
      <trkpt lat="43.34949" lon="5.66072">
        <ele>253</ele>
        <time>2019-01-18T15:06:10.000Z</time>
      </trkpt>
      <trkpt lat="43.34949" lon="5.66072">
        <ele>253</ele>
        <time>2019-01-18T15:06:11.000Z</time>
      </trkpt>
      <trkpt lat="43.34949" lon="5.66072">
        <ele>253</ele>
        <time>2019-01-18T15:06:12.000Z</time>
      </trkpt>
      <trkpt lat="43.34949" lon="5.66072">
        <ele>253</ele>
        <time>2019-01-18T15:06:13.000Z</time>
      </trkpt>
      <trkpt lat="43.34949" lon="5.66072">
        <ele>253</ele>
        <time>2019-01-18T15:06:14.000Z</time>
      </trkpt>
      <trkpt lat="43.34949" lon="5.66073">
        <ele>253</ele>
        <time>2019-01-18T15:06:15.000Z</time>
      </trkpt>
      <trkpt lat="43.34949" lon="5.66073">
        <ele>253</ele>
        <time>2019-01-18T15:06:16.000Z</time>
      </trkpt>
      <trkpt lat="43.34949" lon="5.66073">
        <ele>253</ele>
        <time>2019-01-18T15:06:17.000Z</time>
      </trkpt>
      <trkpt lat="43.34949" lon="5.66073">
        <ele>253</ele>
        <time>2019-01-18T15:06:18.000Z</time>
      </trkpt>
      <trkpt lat="43.34949" lon="5.66073">
        <ele>253</ele>
        <time>2019-01-18T15:06:19.000Z</time>
      </trkpt>
      <trkpt lat="43.34949" lon="5.66073">
        <ele>253</ele>
        <time>2019-01-18T15:06:20.000Z</time>
      </trkpt>
      <trkpt lat="43.34949" lon="5.66073">
        <ele>253</ele>
        <time>2019-01-18T15:06:21.000Z</time>
      </trkpt>
      <trkpt lat="43.34949" lon="5.66073">
        <ele>253</ele>
        <time>2019-01-18T15:06:22.000Z</time>
      </trkpt>
      <trkpt lat="43.34949" lon="5.66073">
        <ele>253</ele>
        <time>2019-01-18T15:06:23.000Z</time>
      </trkpt>
      <trkpt lat="43.34949" lon="5.66073">
        <ele>253</ele>
        <time>2019-01-18T15:06:24.000Z</time>
      </trkpt>
      <trkpt lat="43.34949" lon="5.66073">
        <ele>253</ele>
        <time>2019-01-18T15:06:25.000Z</time>
      </trkpt>
      <trkpt lat="43.34949" lon="5.66073">
        <ele>253</ele>
        <time>2019-01-18T15:06:26.000Z</time>
      </trkpt>
      <trkpt lat="43.34949" lon="5.66073">
        <ele>253</ele>
        <time>2019-01-18T15:06:27.000Z</time>
      </trkpt>
      <trkpt lat="43.34949" lon="5.66073">
        <ele>253</ele>
        <time>2019-01-18T15:06:28.000Z</time>
      </trkpt>
      <trkpt lat="43.34949" lon="5.66073">
        <ele>253</ele>
        <time>2019-01-18T15:06:29.000Z</time>
      </trkpt>
      <trkpt lat="43.34949" lon="5.66073">
        <ele>253</ele>
        <time>2019-01-18T15:06:30.000Z</time>
      </trkpt>
      <trkpt lat="43.34949" lon="5.66073">
        <ele>253</ele>
        <time>2019-01-18T15:06:31.000Z</time>
      </trkpt>
      <trkpt lat="43.34949" lon="5.66073">
        <ele>253</ele>
        <time>2019-01-18T15:06:32.000Z</time>
      </trkpt>
      <trkpt lat="43.34949" lon="5.66073">
        <ele>253</ele>
        <time>2019-01-18T15:06:33.000Z</time>
      </trkpt>
      <trkpt lat="43.34949" lon="5.66073">
        <ele>253</ele>
        <time>2019-01-18T15:06:34.000Z</time>
      </trkpt>
      <trkpt lat="43.34949" lon="5.66073">
        <ele>253</ele>
        <time>2019-01-18T15:06:35.000Z</time>
      </trkpt>
      <trkpt lat="43.34949" lon="5.66074">
        <ele>253</ele>
        <time>2019-01-18T15:06:36.000Z</time>
      </trkpt>
      <trkpt lat="43.34949" lon="5.66074">
        <ele>253</ele>
        <time>2019-01-18T15:06:37.000Z</time>
      </trkpt>
      <trkpt lat="43.34949" lon="5.66074">
        <ele>253</ele>
        <time>2019-01-18T15:06:38.000Z</time>
      </trkpt>
      <trkpt lat="43.34949" lon="5.66074">
        <ele>253</ele>
        <time>2019-01-18T15:06:39.000Z</time>
      </trkpt>
      <trkpt lat="43.34949" lon="5.66074">
        <ele>253</ele>
        <time>2019-01-18T15:06:40.000Z</time>
      </trkpt>
      <trkpt lat="43.34949" lon="5.66074">
        <ele>253</ele>
        <time>2019-01-18T15:06:41.000Z</time>
      </trkpt>
      <trkpt lat="43.34949" lon="5.66074">
        <ele>253</ele>
        <time>2019-01-18T15:06:42.000Z</time>
      </trkpt>
      <trkpt lat="43.34949" lon="5.66074">
        <ele>254</ele>
        <time>2019-01-18T15:06:43.000Z</time>
      </trkpt>
      <trkpt lat="43.34949" lon="5.66074">
        <ele>254</ele>
        <time>2019-01-18T15:06:44.000Z</time>
      </trkpt>
      <trkpt lat="43.34949" lon="5.66074">
        <ele>254</ele>
        <time>2019-01-18T15:06:45.000Z</time>
      </trkpt>
      <trkpt lat="43.34949" lon="5.66074">
        <ele>254</ele>
        <time>2019-01-18T15:06:46.000Z</time>
      </trkpt>
      <trkpt lat="43.34949" lon="5.66074">
        <ele>254</ele>
        <time>2019-01-18T15:06:47.000Z</time>
      </trkpt>
      <trkpt lat="43.34949" lon="5.66074">
        <ele>254</ele>
        <time>2019-01-18T15:06:48.000Z</time>
      </trkpt>
      <trkpt lat="43.34949" lon="5.66074">
        <ele>254</ele>
        <time>2019-01-18T15:06:49.000Z</time>
      </trkpt>
      <trkpt lat="43.34949" lon="5.66074">
        <ele>255</ele>
        <time>2019-01-18T15:06:50.000Z</time>
      </trkpt>
      <trkpt lat="43.34949" lon="5.66074">
        <ele>255</ele>
        <time>2019-01-18T15:06:51.000Z</time>
      </trkpt>
      <trkpt lat="43.34949" lon="5.66074">
        <ele>255</ele>
        <time>2019-01-18T15:06:52.000Z</time>
      </trkpt>
      <trkpt lat="43.34949" lon="5.66074">
        <ele>255</ele>
        <time>2019-01-18T15:06:53.000Z</time>
      </trkpt>
      <trkpt lat="43.3495" lon="5.66074">
        <ele>255</ele>
        <time>2019-01-18T15:06:54.000Z</time>
      </trkpt>
      <trkpt lat="43.34949" lon="5.66074">
        <ele>255</ele>
        <time>2019-01-18T15:06:55.000Z</time>
      </trkpt>
      <trkpt lat="43.34949" lon="5.66074">
        <ele>255</ele>
        <time>2019-01-18T15:06:56.000Z</time>
      </trkpt>
      <trkpt lat="43.34949" lon="5.66074">
        <ele>255</ele>
        <time>2019-01-18T15:06:57.000Z</time>
      </trkpt>
      <trkpt lat="43.34949" lon="5.66074">
        <ele>255</ele>
        <time>2019-01-18T15:06:58.000Z</time>
      </trkpt>
      <trkpt lat="43.34949" lon="5.66074">
        <ele>256</ele>
        <time>2019-01-18T15:06:59.000Z</time>
      </trkpt>
      <trkpt lat="43.34949" lon="5.66074">
        <ele>256</ele>
        <time>2019-01-18T15:07:00.000Z</time>
      </trkpt>
      <trkpt lat="43.34949" lon="5.66074">
        <ele>256</ele>
        <time>2019-01-18T15:07:01.000Z</time>
      </trkpt>
      <trkpt lat="43.3495" lon="5.66074">
        <ele>256</ele>
        <time>2019-01-18T15:07:02.000Z</time>
      </trkpt>
      <trkpt lat="43.3495" lon="5.66074">
        <ele>256</ele>
        <time>2019-01-18T15:07:03.000Z</time>
      </trkpt>
      <trkpt lat="43.3495" lon="5.66074">
        <ele>256</ele>
        <time>2019-01-18T15:07:04.000Z</time>
      </trkpt>
      <trkpt lat="43.34951" lon="5.66074">
        <ele>256</ele>
        <time>2019-01-18T15:07:05.000Z</time>
      </trkpt>
      <trkpt lat="43.34951" lon="5.66074">
        <ele>256</ele>
        <time>2019-01-18T15:07:06.000Z</time>
      </trkpt>
      <trkpt lat="43.34951" lon="5.66073">
        <ele>256</ele>
        <time>2019-01-18T15:07:07.000Z</time>
      </trkpt>
      <trkpt lat="43.34952" lon="5.66073">
        <ele>257</ele>
        <time>2019-01-18T15:07:08.000Z</time>
      </trkpt>
      <trkpt lat="43.34952" lon="5.66072">
        <ele>257</ele>
        <time>2019-01-18T15:07:09.000Z</time>
      </trkpt>
      <trkpt lat="43.34952" lon="5.66071">
        <ele>257</ele>
        <time>2019-01-18T15:07:10.000Z</time>
      </trkpt>
      <trkpt lat="43.34953" lon="5.66071">
        <ele>257</ele>
        <time>2019-01-18T15:07:11.000Z</time>
      </trkpt>
      <trkpt lat="43.34953" lon="5.6607">
        <ele>257</ele>
        <time>2019-01-18T15:07:12.000Z</time>
      </trkpt>
      <trkpt lat="43.34954" lon="5.6607">
        <ele>257</ele>
        <time>2019-01-18T15:07:13.000Z</time>
      </trkpt>
      <trkpt lat="43.34954" lon="5.66069">
        <ele>257</ele>
        <time>2019-01-18T15:07:14.000Z</time>
      </trkpt>
      <trkpt lat="43.34955" lon="5.66068">
        <ele>257</ele>
        <time>2019-01-18T15:07:15.000Z</time>
      </trkpt>
      <trkpt lat="43.34956" lon="5.66067">
        <ele>257</ele>
        <time>2019-01-18T15:07:16.000Z</time>
      </trkpt>
      <trkpt lat="43.34957" lon="5.66066">
        <ele>257</ele>
        <time>2019-01-18T15:07:17.000Z</time>
      </trkpt>
      <trkpt lat="43.34958" lon="5.66065">
        <ele>258</ele>
        <time>2019-01-18T15:07:18.000Z</time>
      </trkpt>
      <trkpt lat="43.34959" lon="5.66064">
        <ele>258</ele>
        <time>2019-01-18T15:07:19.000Z</time>
      </trkpt>
      <trkpt lat="43.3496" lon="5.66063">
        <ele>258</ele>
        <time>2019-01-18T15:07:20.000Z</time>
      </trkpt>
      <trkpt lat="43.3496" lon="5.66061">
        <ele>258</ele>
        <time>2019-01-18T15:07:21.000Z</time>
      </trkpt>
      <trkpt lat="43.34961" lon="5.6606">
        <ele>258</ele>
        <time>2019-01-18T15:07:22.000Z</time>
      </trkpt>
      <trkpt lat="43.34962" lon="5.66059">
        <ele>258</ele>
        <time>2019-01-18T15:07:23.000Z</time>
      </trkpt>
      <trkpt lat="43.34963" lon="5.66058">
        <ele>258</ele>
        <time>2019-01-18T15:07:24.000Z</time>
      </trkpt>
      <trkpt lat="43.34963" lon="5.66057">
        <ele>258</ele>
        <time>2019-01-18T15:07:25.000Z</time>
      </trkpt>
      <trkpt lat="43.34964" lon="5.66055">
        <ele>257</ele>
        <time>2019-01-18T15:07:26.000Z</time>
      </trkpt>
      <trkpt lat="43.34965" lon="5.66054">
        <ele>257</ele>
        <time>2019-01-18T15:07:27.000Z</time>
      </trkpt>
      <trkpt lat="43.34965" lon="5.66053">
        <ele>257</ele>
        <time>2019-01-18T15:07:28.000Z</time>
      </trkpt>
      <trkpt lat="43.34966" lon="5.66052">
        <ele>257</ele>
        <time>2019-01-18T15:07:29.000Z</time>
      </trkpt>
      <trkpt lat="43.34966" lon="5.6605">
        <ele>257</ele>
        <time>2019-01-18T15:07:30.000Z</time>
      </trkpt>
      <trkpt lat="43.34967" lon="5.66048">
        <ele>256</ele>
        <time>2019-01-18T15:07:31.000Z</time>
      </trkpt>
      <trkpt lat="43.34967" lon="5.66047">
        <ele>256</ele>
        <time>2019-01-18T15:07:32.000Z</time>
      </trkpt>
      <trkpt lat="43.34968" lon="5.66045">
        <ele>256</ele>
        <time>2019-01-18T15:07:33.000Z</time>
      </trkpt>
      <trkpt lat="43.34969" lon="5.66044">
        <ele>256</ele>
        <time>2019-01-18T15:07:34.000Z</time>
      </trkpt>
      <trkpt lat="43.3497" lon="5.66042">
        <ele>255</ele>
        <time>2019-01-18T15:07:35.000Z</time>
      </trkpt>
      <trkpt lat="43.34971" lon="5.66041">
        <ele>255</ele>
        <time>2019-01-18T15:07:36.000Z</time>
      </trkpt>
      <trkpt lat="43.34972" lon="5.66039">
        <ele>255</ele>
        <time>2019-01-18T15:07:37.000Z</time>
      </trkpt>
      <trkpt lat="43.34973" lon="5.66038">
        <ele>255</ele>
        <time>2019-01-18T15:07:38.000Z</time>
      </trkpt>
      <trkpt lat="43.34974" lon="5.66037">
        <ele>255</ele>
        <time>2019-01-18T15:07:39.000Z</time>
      </trkpt>
      <trkpt lat="43.34975" lon="5.66036">
        <ele>255</ele>
        <time>2019-01-18T15:07:40.000Z</time>
      </trkpt>
      <trkpt lat="43.34977" lon="5.66035">
        <ele>255</ele>
        <time>2019-01-18T15:07:41.000Z</time>
      </trkpt>
      <trkpt lat="43.34978" lon="5.66034">
        <ele>255</ele>
        <time>2019-01-18T15:07:42.000Z</time>
      </trkpt>
      <trkpt lat="43.34979" lon="5.66034">
        <ele>255</ele>
        <time>2019-01-18T15:07:43.000Z</time>
      </trkpt>
      <trkpt lat="43.3498" lon="5.66033">
        <ele>255</ele>
        <time>2019-01-18T15:07:44.000Z</time>
      </trkpt>
      <trkpt lat="43.34981" lon="5.66033">
        <ele>255</ele>
        <time>2019-01-18T15:07:45.000Z</time>
      </trkpt>
      <trkpt lat="43.34982" lon="5.66032">
        <ele>255</ele>
        <time>2019-01-18T15:07:46.000Z</time>
      </trkpt>
      <trkpt lat="43.34984" lon="5.66032">
        <ele>255</ele>
        <time>2019-01-18T15:07:47.000Z</time>
      </trkpt>
      <trkpt lat="43.34985" lon="5.66031">
        <ele>255</ele>
        <time>2019-01-18T15:07:48.000Z</time>
      </trkpt>
      <trkpt lat="43.34986" lon="5.66031">
        <ele>255</ele>
        <time>2019-01-18T15:07:49.000Z</time>
      </trkpt>
      <trkpt lat="43.34988" lon="5.6603">
        <ele>255</ele>
        <time>2019-01-18T15:07:50.000Z</time>
      </trkpt>
      <trkpt lat="43.34989" lon="5.6603">
        <ele>255</ele>
        <time>2019-01-18T15:07:51.000Z</time>
      </trkpt>
      <trkpt lat="43.3499" lon="5.66029">
        <ele>255</ele>
        <time>2019-01-18T15:07:52.000Z</time>
      </trkpt>
      <trkpt lat="43.34991" lon="5.66029">
        <ele>255</ele>
        <time>2019-01-18T15:07:53.000Z</time>
      </trkpt>
      <trkpt lat="43.34993" lon="5.66028">
        <ele>255</ele>
        <time>2019-01-18T15:07:54.000Z</time>
      </trkpt>
      <trkpt lat="43.34994" lon="5.66028">
        <ele>255</ele>
        <time>2019-01-18T15:07:55.000Z</time>
      </trkpt>
      <trkpt lat="43.34995" lon="5.66028">
        <ele>254</ele>
        <time>2019-01-18T15:07:56.000Z</time>
      </trkpt>
      <trkpt lat="43.34996" lon="5.66028">
        <ele>254</ele>
        <time>2019-01-18T15:07:57.000Z</time>
      </trkpt>
      <trkpt lat="43.34997" lon="5.66028">
        <ele>254</ele>
        <time>2019-01-18T15:07:58.000Z</time>
      </trkpt>
      <trkpt lat="43.34998" lon="5.66028">
        <ele>254</ele>
        <time>2019-01-18T15:07:59.000Z</time>
      </trkpt>
      <trkpt lat="43.35" lon="5.66028">
        <ele>254</ele>
        <time>2019-01-18T15:08:00.000Z</time>
      </trkpt>
      <trkpt lat="43.35001" lon="5.66028">
        <ele>254</ele>
        <time>2019-01-18T15:08:01.000Z</time>
      </trkpt>
      <trkpt lat="43.35002" lon="5.66028">
        <ele>254</ele>
        <time>2019-01-18T15:08:02.000Z</time>
      </trkpt>
      <trkpt lat="43.35004" lon="5.66028">
        <ele>254</ele>
        <time>2019-01-18T15:08:03.000Z</time>
      </trkpt>
      <trkpt lat="43.35005" lon="5.66028">
        <ele>254</ele>
        <time>2019-01-18T15:08:04.000Z</time>
      </trkpt>
      <trkpt lat="43.35006" lon="5.66027">
        <ele>255</ele>
        <time>2019-01-18T15:08:05.000Z</time>
      </trkpt>
      <trkpt lat="43.35007" lon="5.66027">
        <ele>255</ele>
        <time>2019-01-18T15:08:06.000Z</time>
      </trkpt>
      <trkpt lat="43.35009" lon="5.66027">
        <ele>255</ele>
        <time>2019-01-18T15:08:07.000Z</time>
      </trkpt>
      <trkpt lat="43.3501" lon="5.66027">
        <ele>255</ele>
        <time>2019-01-18T15:08:08.000Z</time>
      </trkpt>
      <trkpt lat="43.35011" lon="5.66027">
        <ele>255</ele>
        <time>2019-01-18T15:08:09.000Z</time>
      </trkpt>
      <trkpt lat="43.35012" lon="5.66027">
        <ele>255</ele>
        <time>2019-01-18T15:08:10.000Z</time>
      </trkpt>
      <trkpt lat="43.35013" lon="5.66027">
        <ele>255</ele>
        <time>2019-01-18T15:08:11.000Z</time>
      </trkpt>
      <trkpt lat="43.35014" lon="5.66027">
        <ele>255</ele>
        <time>2019-01-18T15:08:12.000Z</time>
      </trkpt>
      <trkpt lat="43.35015" lon="5.66027">
        <ele>255</ele>
        <time>2019-01-18T15:08:13.000Z</time>
      </trkpt>
      <trkpt lat="43.35016" lon="5.66026">
        <ele>255</ele>
        <time>2019-01-18T15:08:14.000Z</time>
      </trkpt>
      <trkpt lat="43.35017" lon="5.66026">
        <ele>255</ele>
        <time>2019-01-18T15:08:15.000Z</time>
      </trkpt>
      <trkpt lat="43.35018" lon="5.66026">
        <ele>256</ele>
        <time>2019-01-18T15:08:16.000Z</time>
      </trkpt>
      <trkpt lat="43.35019" lon="5.66025">
        <ele>256</ele>
        <time>2019-01-18T15:08:17.000Z</time>
      </trkpt>
      <trkpt lat="43.35021" lon="5.66025">
        <ele>256</ele>
        <time>2019-01-18T15:08:18.000Z</time>
      </trkpt>
      <trkpt lat="43.35022" lon="5.66024">
        <ele>256</ele>
        <time>2019-01-18T15:08:19.000Z</time>
      </trkpt>
      <trkpt lat="43.35023" lon="5.66024">
        <ele>256</ele>
        <time>2019-01-18T15:08:20.000Z</time>
      </trkpt>
      <trkpt lat="43.35024" lon="5.66023">
        <ele>256</ele>
        <time>2019-01-18T15:08:21.000Z</time>
      </trkpt>
      <trkpt lat="43.35025" lon="5.66023">
        <ele>256</ele>
        <time>2019-01-18T15:08:22.000Z</time>
      </trkpt>
      <trkpt lat="43.35026" lon="5.66022">
        <ele>256</ele>
        <time>2019-01-18T15:08:23.000Z</time>
      </trkpt>
      <trkpt lat="43.35028" lon="5.66022">
        <ele>256</ele>
        <time>2019-01-18T15:08:24.000Z</time>
      </trkpt>
      <trkpt lat="43.35029" lon="5.66022">
        <ele>256</ele>
        <time>2019-01-18T15:08:25.000Z</time>
      </trkpt>
      <trkpt lat="43.3503" lon="5.66021">
        <ele>257</ele>
        <time>2019-01-18T15:08:26.000Z</time>
      </trkpt>
      <trkpt lat="43.35031" lon="5.66021">
        <ele>257</ele>
        <time>2019-01-18T15:08:27.000Z</time>
      </trkpt>
      <trkpt lat="43.35032" lon="5.6602">
        <ele>257</ele>
        <time>2019-01-18T15:08:28.000Z</time>
      </trkpt>
      <trkpt lat="43.35033" lon="5.6602">
        <ele>257</ele>
        <time>2019-01-18T15:08:29.000Z</time>
      </trkpt>
      <trkpt lat="43.35035" lon="5.66019">
        <ele>257</ele>
        <time>2019-01-18T15:08:30.000Z</time>
      </trkpt>
      <trkpt lat="43.35036" lon="5.66019">
        <ele>257</ele>
        <time>2019-01-18T15:08:31.000Z</time>
      </trkpt>
      <trkpt lat="43.35037" lon="5.66018">
        <ele>257</ele>
        <time>2019-01-18T15:08:32.000Z</time>
      </trkpt>
      <trkpt lat="43.35038" lon="5.66018">
        <ele>257</ele>
        <time>2019-01-18T15:08:33.000Z</time>
      </trkpt>
      <trkpt lat="43.35039" lon="5.66017">
        <ele>257</ele>
        <time>2019-01-18T15:08:34.000Z</time>
      </trkpt>
      <trkpt lat="43.3504" lon="5.66017">
        <ele>257</ele>
        <time>2019-01-18T15:08:35.000Z</time>
      </trkpt>
      <trkpt lat="43.35041" lon="5.66017">
        <ele>257</ele>
        <time>2019-01-18T15:08:36.000Z</time>
      </trkpt>
      <trkpt lat="43.35042" lon="5.66018">
        <ele>257</ele>
        <time>2019-01-18T15:08:37.000Z</time>
      </trkpt>
      <trkpt lat="43.35043" lon="5.66018">
        <ele>256</ele>
        <time>2019-01-18T15:08:38.000Z</time>
      </trkpt>
      <trkpt lat="43.35044" lon="5.66019">
        <ele>256</ele>
        <time>2019-01-18T15:08:39.000Z</time>
      </trkpt>
      <trkpt lat="43.35044" lon="5.6602">
        <ele>256</ele>
        <time>2019-01-18T15:08:40.000Z</time>
      </trkpt>
      <trkpt lat="43.35045" lon="5.6602">
        <ele>256</ele>
        <time>2019-01-18T15:08:41.000Z</time>
      </trkpt>
      <trkpt lat="43.35045" lon="5.6602">
        <ele>256</ele>
        <time>2019-01-18T15:08:42.000Z</time>
      </trkpt>
      <trkpt lat="43.35045" lon="5.66021">
        <ele>256</ele>
        <time>2019-01-18T15:08:43.000Z</time>
      </trkpt>
      <trkpt lat="43.35045" lon="5.66021">
        <ele>255</ele>
        <time>2019-01-18T15:08:44.000Z</time>
      </trkpt>
      <trkpt lat="43.35046" lon="5.66022">
        <ele>255</ele>
        <time>2019-01-18T15:08:45.000Z</time>
      </trkpt>
      <trkpt lat="43.35047" lon="5.66023">
        <ele>255</ele>
        <time>2019-01-18T15:08:46.000Z</time>
      </trkpt>
      <trkpt lat="43.35047" lon="5.66024">
        <ele>255</ele>
        <time>2019-01-18T15:08:47.000Z</time>
      </trkpt>
      <trkpt lat="43.35048" lon="5.66025">
        <ele>255</ele>
        <time>2019-01-18T15:08:48.000Z</time>
      </trkpt>
      <trkpt lat="43.35048" lon="5.66025">
        <ele>255</ele>
        <time>2019-01-18T15:08:49.000Z</time>
      </trkpt>
      <trkpt lat="43.35048" lon="5.66026">
        <ele>255</ele>
        <time>2019-01-18T15:08:50.000Z</time>
      </trkpt>
      <trkpt lat="43.35048" lon="5.66026">
        <ele>254</ele>
        <time>2019-01-18T15:08:51.000Z</time>
      </trkpt>
      <trkpt lat="43.35048" lon="5.66026">
        <ele>254</ele>
        <time>2019-01-18T15:08:52.000Z</time>
      </trkpt>
      <trkpt lat="43.35048" lon="5.66026">
        <ele>254</ele>
        <time>2019-01-18T15:08:53.000Z</time>
      </trkpt>
      <trkpt lat="43.35048" lon="5.66026">
        <ele>253</ele>
        <time>2019-01-18T15:08:54.000Z</time>
      </trkpt>
      <trkpt lat="43.35048" lon="5.66026">
        <ele>253</ele>
        <time>2019-01-18T15:08:55.000Z</time>
      </trkpt>
      <trkpt lat="43.35048" lon="5.66026">
        <ele>253</ele>
        <time>2019-01-18T15:08:56.000Z</time>
      </trkpt>
      <trkpt lat="43.35048" lon="5.66026">
        <ele>252</ele>
        <time>2019-01-18T15:08:57.000Z</time>
      </trkpt>
      <trkpt lat="43.35049" lon="5.66026">
        <ele>252</ele>
        <time>2019-01-18T15:08:58.000Z</time>
      </trkpt>
      <trkpt lat="43.35049" lon="5.66026">
        <ele>252</ele>
        <time>2019-01-18T15:08:59.000Z</time>
      </trkpt>
      <trkpt lat="43.35049" lon="5.66026">
        <ele>252</ele>
        <time>2019-01-18T15:09:00.000Z</time>
      </trkpt>
      <trkpt lat="43.35049" lon="5.66026">
        <ele>251</ele>
        <time>2019-01-18T15:09:01.000Z</time>
      </trkpt>
      <trkpt lat="43.35049" lon="5.66026">
        <ele>251</ele>
        <time>2019-01-18T15:09:02.000Z</time>
      </trkpt>
      <trkpt lat="43.35049" lon="5.66026">
        <ele>251</ele>
        <time>2019-01-18T15:09:03.000Z</time>
      </trkpt>
      <trkpt lat="43.35049" lon="5.66026">
        <ele>251</ele>
        <time>2019-01-18T15:09:04.000Z</time>
      </trkpt>
    </trkseg>
  </trk>
</gpx>